<?xml version="1.0" encoding="UTF-8"?>
<gpx version="1.1" creator="https://www.youtrack.es" xsi:schemaLocation="http://www.topografix.com/GPX/1/1 http://www.topografix.com/GPX/1/1/gpx.xsd http://www.garmin.com/xmlschemas/GpxExtensions/v3 http://www.garmin.com/xmlschemas/GpxExtensionsv3.xsd http://www.garmin.com/xmlschemas/TrackPointExtension/v1 http://www.garmin.com/xmlschemas/TrackPointExtensionv1.xsd" xmlns:gpxtpx="http://www.garmin.com/xmlschemas/TrackPointExtension/v1" xmlns:gpxx="http://www.garmin.com/xmlschemas/GpxExtensions/v3" xmlns:xsi="http://www.w3.org/2001/XMLSchema-instance">
  <metadata>
    <link href="https://www.youtrack.es">
      <text>YouTrack.es</text>
    </link>
    <time>2026-05-09T01:25:31Z</time>
  </metadata>
  <trk>
    <src>https://www.youtrack.es</src>
    <link href="https://www.youtrack.es/ruta/17525-la-palma--gran-guanche-">
      <text>YouTrack.es</text>
    </link>
    <trkseg>
      <trkpt lat="28.6782120" lon="-17.7660670">
        <ele>1.3</ele>
        <time>2020-11-15T22:06:47Z</time>
      </trkpt>
      <trkpt lat="28.6782120" lon="-17.7660670">
        <ele>1.3</ele>
        <time>2020-11-15T22:06:48Z</time>
      </trkpt>
      <trkpt lat="28.6782830" lon="-17.7660430">
        <ele>1.3</ele>
        <time>2020-11-15T22:06:49Z</time>
      </trkpt>
      <trkpt lat="28.6782830" lon="-17.7660430">
        <ele>1.3</ele>
        <time>2020-11-15T22:06:50Z</time>
      </trkpt>
      <trkpt lat="28.6783530" lon="-17.7660170">
        <ele>1.4</ele>
        <time>2020-11-15T22:06:51Z</time>
      </trkpt>
      <trkpt lat="28.6783530" lon="-17.7660170">
        <ele>1.4</ele>
        <time>2020-11-15T22:06:52Z</time>
      </trkpt>
      <trkpt lat="28.6784200" lon="-17.7659870">
        <ele>1.7</ele>
        <time>2020-11-15T22:06:53Z</time>
      </trkpt>
      <trkpt lat="28.6784520" lon="-17.7659650">
        <ele>1.8</ele>
        <time>2020-11-15T22:06:54Z</time>
      </trkpt>
      <trkpt lat="28.6784520" lon="-17.7659650">
        <ele>1.8</ele>
        <time>2020-11-15T22:06:55Z</time>
      </trkpt>
      <trkpt lat="28.6785070" lon="-17.7659200">
        <ele>2.0</ele>
        <time>2020-11-15T22:06:56Z</time>
      </trkpt>
      <trkpt lat="28.6785070" lon="-17.7659200">
        <ele>2.0</ele>
        <time>2020-11-15T22:06:57Z</time>
      </trkpt>
      <trkpt lat="28.6785720" lon="-17.7658770">
        <ele>2.1</ele>
        <time>2020-11-15T22:06:58Z</time>
      </trkpt>
      <trkpt lat="28.6786050" lon="-17.7658550">
        <ele>2.1</ele>
        <time>2020-11-15T22:06:59Z</time>
      </trkpt>
      <trkpt lat="28.6786050" lon="-17.7658550">
        <ele>2.1</ele>
        <time>2020-11-15T22:07:00Z</time>
      </trkpt>
      <trkpt lat="28.6786750" lon="-17.7658100">
        <ele>2.9</ele>
        <time>2020-11-15T22:07:01Z</time>
      </trkpt>
      <trkpt lat="28.6786750" lon="-17.7658100">
        <ele>2.9</ele>
        <time>2020-11-15T22:07:02Z</time>
      </trkpt>
      <trkpt lat="28.6787450" lon="-17.7657650">
        <ele>6.1</ele>
        <time>2020-11-15T22:07:03Z</time>
      </trkpt>
      <trkpt lat="28.6787450" lon="-17.7657650">
        <ele>6.1</ele>
        <time>2020-11-15T22:07:04Z</time>
      </trkpt>
      <trkpt lat="28.6788230" lon="-17.7657300">
        <ele>8.0</ele>
        <time>2020-11-15T22:07:05Z</time>
      </trkpt>
      <trkpt lat="28.6788230" lon="-17.7657300">
        <ele>8.0</ele>
        <time>2020-11-15T22:07:06Z</time>
      </trkpt>
      <trkpt lat="28.6789080" lon="-17.7657120">
        <ele>8.0</ele>
        <time>2020-11-15T22:07:07Z</time>
      </trkpt>
      <trkpt lat="28.6789080" lon="-17.7657120">
        <ele>8.0</ele>
        <time>2020-11-15T22:07:08Z</time>
      </trkpt>
      <trkpt lat="28.6789950" lon="-17.7657080">
        <ele>8.0</ele>
        <time>2020-11-15T22:07:09Z</time>
      </trkpt>
      <trkpt lat="28.6789950" lon="-17.7657080">
        <ele>8.0</ele>
        <time>2020-11-15T22:07:10Z</time>
      </trkpt>
      <trkpt lat="28.6790830" lon="-17.7657180">
        <ele>8.1</ele>
        <time>2020-11-15T22:07:11Z</time>
      </trkpt>
      <trkpt lat="28.6791270" lon="-17.7657270">
        <ele>8.1</ele>
        <time>2020-11-15T22:07:12Z</time>
      </trkpt>
      <trkpt lat="28.6791270" lon="-17.7657270">
        <ele>8.1</ele>
        <time>2020-11-15T22:07:13Z</time>
      </trkpt>
      <trkpt lat="28.6792130" lon="-17.7657380">
        <ele>8.1</ele>
        <time>2020-11-15T22:07:14Z</time>
      </trkpt>
      <trkpt lat="28.6792130" lon="-17.7657380">
        <ele>8.1</ele>
        <time>2020-11-15T22:07:15Z</time>
      </trkpt>
      <trkpt lat="28.6793030" lon="-17.7657530">
        <ele>8.1</ele>
        <time>2020-11-15T22:07:16Z</time>
      </trkpt>
      <trkpt lat="28.6793470" lon="-17.7657630">
        <ele>8.2</ele>
        <time>2020-11-15T22:07:17Z</time>
      </trkpt>
      <trkpt lat="28.6793470" lon="-17.7657630">
        <ele>8.2</ele>
        <time>2020-11-15T22:07:18Z</time>
      </trkpt>
      <trkpt lat="28.6794350" lon="-17.7657820">
        <ele>8.2</ele>
        <time>2020-11-15T22:07:19Z</time>
      </trkpt>
      <trkpt lat="28.6794350" lon="-17.7657820">
        <ele>8.2</ele>
        <time>2020-11-15T22:07:20Z</time>
      </trkpt>
      <trkpt lat="28.6795230" lon="-17.7657930">
        <ele>8.2</ele>
        <time>2020-11-15T22:07:21Z</time>
      </trkpt>
      <trkpt lat="28.6795230" lon="-17.7657930">
        <ele>8.2</ele>
        <time>2020-11-15T22:07:22Z</time>
      </trkpt>
      <trkpt lat="28.6796080" lon="-17.7658020">
        <ele>8.2</ele>
        <time>2020-11-15T22:07:23Z</time>
      </trkpt>
      <trkpt lat="28.6796080" lon="-17.7658020">
        <ele>8.2</ele>
        <time>2020-11-15T22:07:24Z</time>
      </trkpt>
      <trkpt lat="28.6796950" lon="-17.7658170">
        <ele>8.2</ele>
        <time>2020-11-15T22:07:25Z</time>
      </trkpt>
      <trkpt lat="28.6796950" lon="-17.7658170">
        <ele>8.2</ele>
        <time>2020-11-15T22:07:26Z</time>
      </trkpt>
      <trkpt lat="28.6797820" lon="-17.7658420">
        <ele>6.4</ele>
        <time>2020-11-15T22:07:27Z</time>
      </trkpt>
      <trkpt lat="28.6797820" lon="-17.7658420">
        <ele>6.4</ele>
        <time>2020-11-15T22:07:28Z</time>
      </trkpt>
      <trkpt lat="28.6798620" lon="-17.7658730">
        <ele>6.4</ele>
        <time>2020-11-15T22:07:29Z</time>
      </trkpt>
      <trkpt lat="28.6798620" lon="-17.7658730">
        <ele>6.4</ele>
        <time>2020-11-15T22:07:30Z</time>
      </trkpt>
      <trkpt lat="28.6799350" lon="-17.7659270">
        <ele>6.5</ele>
        <time>2020-11-15T22:07:31Z</time>
      </trkpt>
      <trkpt lat="28.6799350" lon="-17.7659270">
        <ele>6.5</ele>
        <time>2020-11-15T22:07:32Z</time>
      </trkpt>
      <trkpt lat="28.6799770" lon="-17.7659970">
        <ele>6.5</ele>
        <time>2020-11-15T22:07:33Z</time>
      </trkpt>
      <trkpt lat="28.6799770" lon="-17.7659970">
        <ele>6.5</ele>
        <time>2020-11-15T22:07:34Z</time>
      </trkpt>
      <trkpt lat="28.6799930" lon="-17.7660900">
        <ele>6.5</ele>
        <time>2020-11-15T22:07:35Z</time>
      </trkpt>
      <trkpt lat="28.6799930" lon="-17.7660900">
        <ele>6.5</ele>
        <time>2020-11-15T22:07:36Z</time>
      </trkpt>
      <trkpt lat="28.6799950" lon="-17.7661880">
        <ele>7.1</ele>
        <time>2020-11-15T22:07:37Z</time>
      </trkpt>
      <trkpt lat="28.6799950" lon="-17.7661880">
        <ele>7.1</ele>
        <time>2020-11-15T22:07:38Z</time>
      </trkpt>
      <trkpt lat="28.6799720" lon="-17.7662830">
        <ele>7.6</ele>
        <time>2020-11-15T22:07:39Z</time>
      </trkpt>
      <trkpt lat="28.6799720" lon="-17.7662830">
        <ele>7.6</ele>
        <time>2020-11-15T22:07:40Z</time>
      </trkpt>
      <trkpt lat="28.6799270" lon="-17.7663750">
        <ele>8.2</ele>
        <time>2020-11-15T22:07:41Z</time>
      </trkpt>
      <trkpt lat="28.6798950" lon="-17.7664180">
        <ele>8.6</ele>
        <time>2020-11-15T22:07:42Z</time>
      </trkpt>
      <trkpt lat="28.6798580" lon="-17.7664530">
        <ele>8.9</ele>
        <time>2020-11-15T22:07:43Z</time>
      </trkpt>
      <trkpt lat="28.6798580" lon="-17.7664530">
        <ele>8.9</ele>
        <time>2020-11-15T22:07:44Z</time>
      </trkpt>
      <trkpt lat="28.6797780" lon="-17.7665130">
        <ele>9.5</ele>
        <time>2020-11-15T22:07:45Z</time>
      </trkpt>
      <trkpt lat="28.6797470" lon="-17.7665480">
        <ele>9.5</ele>
        <time>2020-11-15T22:07:46Z</time>
      </trkpt>
      <trkpt lat="28.6797470" lon="-17.7665480">
        <ele>9.5</ele>
        <time>2020-11-15T22:07:47Z</time>
      </trkpt>
      <trkpt lat="28.6796930" lon="-17.7666200">
        <ele>9.5</ele>
        <time>2020-11-15T22:07:48Z</time>
      </trkpt>
      <trkpt lat="28.6796900" lon="-17.7666830">
        <ele>9.6</ele>
        <time>2020-11-15T22:07:49Z</time>
      </trkpt>
      <trkpt lat="28.6796780" lon="-17.7667230">
        <ele>9.6</ele>
        <time>2020-11-15T22:07:50Z</time>
      </trkpt>
      <trkpt lat="28.6796780" lon="-17.7667230">
        <ele>9.6</ele>
        <time>2020-11-15T22:07:51Z</time>
      </trkpt>
      <trkpt lat="28.6796570" lon="-17.7668200">
        <ele>9.7</ele>
        <time>2020-11-15T22:07:52Z</time>
      </trkpt>
      <trkpt lat="28.6796550" lon="-17.7668670">
        <ele>9.7</ele>
        <time>2020-11-15T22:07:53Z</time>
      </trkpt>
      <trkpt lat="28.6796550" lon="-17.7668670">
        <ele>9.7</ele>
        <time>2020-11-15T22:07:54Z</time>
      </trkpt>
      <trkpt lat="28.6796400" lon="-17.7669770">
        <ele>9.7</ele>
        <time>2020-11-15T22:07:55Z</time>
      </trkpt>
      <trkpt lat="28.6796400" lon="-17.7669770">
        <ele>9.7</ele>
        <time>2020-11-15T22:07:56Z</time>
      </trkpt>
      <trkpt lat="28.6796250" lon="-17.7670870">
        <ele>9.8</ele>
        <time>2020-11-15T22:07:57Z</time>
      </trkpt>
      <trkpt lat="28.6796180" lon="-17.7671400">
        <ele>9.8</ele>
        <time>2020-11-15T22:07:58Z</time>
      </trkpt>
      <trkpt lat="28.6796180" lon="-17.7671400">
        <ele>9.8</ele>
        <time>2020-11-15T22:07:59Z</time>
      </trkpt>
      <trkpt lat="28.6796070" lon="-17.7672380">
        <ele>9.8</ele>
        <time>2020-11-15T22:08:00Z</time>
      </trkpt>
      <trkpt lat="28.6796020" lon="-17.7672920">
        <ele>9.8</ele>
        <time>2020-11-15T22:08:01Z</time>
      </trkpt>
      <trkpt lat="28.6796020" lon="-17.7672920">
        <ele>9.8</ele>
        <time>2020-11-15T22:08:02Z</time>
      </trkpt>
      <trkpt lat="28.6795930" lon="-17.7673930">
        <ele>9.8</ele>
        <time>2020-11-15T22:08:03Z</time>
      </trkpt>
      <trkpt lat="28.6795800" lon="-17.7674370">
        <ele>9.8</ele>
        <time>2020-11-15T22:08:04Z</time>
      </trkpt>
      <trkpt lat="28.6795800" lon="-17.7674370">
        <ele>9.8</ele>
        <time>2020-11-15T22:08:05Z</time>
      </trkpt>
      <trkpt lat="28.6795270" lon="-17.7675100">
        <ele>9.8</ele>
        <time>2020-11-15T22:08:06Z</time>
      </trkpt>
      <trkpt lat="28.6795270" lon="-17.7675100">
        <ele>9.8</ele>
        <time>2020-11-15T22:08:07Z</time>
      </trkpt>
      <trkpt lat="28.6794580" lon="-17.7675750">
        <ele>9.8</ele>
        <time>2020-11-15T22:08:08Z</time>
      </trkpt>
      <trkpt lat="28.6794170" lon="-17.7676000">
        <ele>9.8</ele>
        <time>2020-11-15T22:08:09Z</time>
      </trkpt>
      <trkpt lat="28.6794170" lon="-17.7676000">
        <ele>9.8</ele>
        <time>2020-11-15T22:08:10Z</time>
      </trkpt>
      <trkpt lat="28.6793330" lon="-17.7676550">
        <ele>9.8</ele>
        <time>2020-11-15T22:08:11Z</time>
      </trkpt>
      <trkpt lat="28.6793330" lon="-17.7676550">
        <ele>9.8</ele>
        <time>2020-11-15T22:08:12Z</time>
      </trkpt>
      <trkpt lat="28.6792480" lon="-17.7677080">
        <ele>9.8</ele>
        <time>2020-11-15T22:08:13Z</time>
      </trkpt>
      <trkpt lat="28.6792480" lon="-17.7677080">
        <ele>9.8</ele>
        <time>2020-11-15T22:08:14Z</time>
      </trkpt>
      <trkpt lat="28.6791630" lon="-17.7677580">
        <ele>9.8</ele>
        <time>2020-11-15T22:08:15Z</time>
      </trkpt>
      <trkpt lat="28.6791630" lon="-17.7677580">
        <ele>9.8</ele>
        <time>2020-11-15T22:08:16Z</time>
      </trkpt>
      <trkpt lat="28.6790750" lon="-17.7678120">
        <ele>9.8</ele>
        <time>2020-11-15T22:08:17Z</time>
      </trkpt>
      <trkpt lat="28.6790320" lon="-17.7678400">
        <ele>9.8</ele>
        <time>2020-11-15T22:08:18Z</time>
      </trkpt>
      <trkpt lat="28.6790320" lon="-17.7678400">
        <ele>9.8</ele>
        <time>2020-11-15T22:08:19Z</time>
      </trkpt>
      <trkpt lat="28.6789450" lon="-17.7678950">
        <ele>9.7</ele>
        <time>2020-11-15T22:08:20Z</time>
      </trkpt>
      <trkpt lat="28.6788950" lon="-17.7679320">
        <ele>9.7</ele>
        <time>2020-11-15T22:08:21Z</time>
      </trkpt>
      <trkpt lat="28.6788950" lon="-17.7679320">
        <ele>9.7</ele>
        <time>2020-11-15T22:08:22Z</time>
      </trkpt>
      <trkpt lat="28.6788030" lon="-17.7679900">
        <ele>9.7</ele>
        <time>2020-11-15T22:08:23Z</time>
      </trkpt>
      <trkpt lat="28.6788030" lon="-17.7679900">
        <ele>9.7</ele>
        <time>2020-11-15T22:08:24Z</time>
      </trkpt>
      <trkpt lat="28.6787130" lon="-17.7680320">
        <ele>9.7</ele>
        <time>2020-11-15T22:08:25Z</time>
      </trkpt>
      <trkpt lat="28.6786680" lon="-17.7680570">
        <ele>9.7</ele>
        <time>2020-11-15T22:08:26Z</time>
      </trkpt>
      <trkpt lat="28.6786680" lon="-17.7680570">
        <ele>9.7</ele>
        <time>2020-11-15T22:08:27Z</time>
      </trkpt>
      <trkpt lat="28.6785750" lon="-17.7681080">
        <ele>9.7</ele>
        <time>2020-11-15T22:08:28Z</time>
      </trkpt>
      <trkpt lat="28.6785280" lon="-17.7681380">
        <ele>9.7</ele>
        <time>2020-11-15T22:08:29Z</time>
      </trkpt>
      <trkpt lat="28.6784820" lon="-17.7681700">
        <ele>9.7</ele>
        <time>2020-11-15T22:08:30Z</time>
      </trkpt>
      <trkpt lat="28.6784370" lon="-17.7681980">
        <ele>9.7</ele>
        <time>2020-11-15T22:08:31Z</time>
      </trkpt>
      <trkpt lat="28.6784370" lon="-17.7681980">
        <ele>9.7</ele>
        <time>2020-11-15T22:08:32Z</time>
      </trkpt>
      <trkpt lat="28.6783470" lon="-17.7682570">
        <ele>9.7</ele>
        <time>2020-11-15T22:08:33Z</time>
      </trkpt>
      <trkpt lat="28.6783030" lon="-17.7682850">
        <ele>9.7</ele>
        <time>2020-11-15T22:08:34Z</time>
      </trkpt>
      <trkpt lat="28.6783030" lon="-17.7682850">
        <ele>9.7</ele>
        <time>2020-11-15T22:08:35Z</time>
      </trkpt>
      <trkpt lat="28.6782200" lon="-17.7683420">
        <ele>9.7</ele>
        <time>2020-11-15T22:08:36Z</time>
      </trkpt>
      <trkpt lat="28.6781780" lon="-17.7683700">
        <ele>9.7</ele>
        <time>2020-11-15T22:08:37Z</time>
      </trkpt>
      <trkpt lat="28.6781780" lon="-17.7683700">
        <ele>9.7</ele>
        <time>2020-11-15T22:08:38Z</time>
      </trkpt>
      <trkpt lat="28.6781100" lon="-17.7684430">
        <ele>9.8</ele>
        <time>2020-11-15T22:08:39Z</time>
      </trkpt>
      <trkpt lat="28.6781100" lon="-17.7684430">
        <ele>9.8</ele>
        <time>2020-11-15T22:08:40Z</time>
      </trkpt>
      <trkpt lat="28.6780750" lon="-17.7685420">
        <ele>9.8</ele>
        <time>2020-11-15T22:08:41Z</time>
      </trkpt>
      <trkpt lat="28.6780750" lon="-17.7685420">
        <ele>9.9</ele>
        <time>2020-11-15T22:08:42Z</time>
      </trkpt>
      <trkpt lat="28.6780380" lon="-17.7686420">
        <ele>10.0</ele>
        <time>2020-11-15T22:08:43Z</time>
      </trkpt>
      <trkpt lat="28.6780020" lon="-17.7686830">
        <ele>10.0</ele>
        <time>2020-11-15T22:08:44Z</time>
      </trkpt>
      <trkpt lat="28.6780020" lon="-17.7686830">
        <ele>10.0</ele>
        <time>2020-11-15T22:08:45Z</time>
      </trkpt>
      <trkpt lat="28.6779130" lon="-17.7687350">
        <ele>10.0</ele>
        <time>2020-11-15T22:08:46Z</time>
      </trkpt>
      <trkpt lat="28.6779130" lon="-17.7687350">
        <ele>10.0</ele>
        <time>2020-11-15T22:08:47Z</time>
      </trkpt>
      <trkpt lat="28.6778180" lon="-17.7687880">
        <ele>10.0</ele>
        <time>2020-11-15T22:08:48Z</time>
      </trkpt>
      <trkpt lat="28.6777780" lon="-17.7688230">
        <ele>10.0</ele>
        <time>2020-11-15T22:08:49Z</time>
      </trkpt>
      <trkpt lat="28.6777780" lon="-17.7688230">
        <ele>10.0</ele>
        <time>2020-11-15T22:08:50Z</time>
      </trkpt>
      <trkpt lat="28.6777220" lon="-17.7689120">
        <ele>10.0</ele>
        <time>2020-11-15T22:08:51Z</time>
      </trkpt>
      <trkpt lat="28.6777220" lon="-17.7689120">
        <ele>10.0</ele>
        <time>2020-11-15T22:08:52Z</time>
      </trkpt>
      <trkpt lat="28.6776500" lon="-17.7690180">
        <ele>10.0</ele>
        <time>2020-11-15T22:08:53Z</time>
      </trkpt>
      <trkpt lat="28.6776500" lon="-17.7690180">
        <ele>10.0</ele>
        <time>2020-11-15T22:08:54Z</time>
      </trkpt>
      <trkpt lat="28.6775820" lon="-17.7691050">
        <ele>9.9</ele>
        <time>2020-11-15T22:08:55Z</time>
      </trkpt>
      <trkpt lat="28.6775820" lon="-17.7691050">
        <ele>9.9</ele>
        <time>2020-11-15T22:08:56Z</time>
      </trkpt>
      <trkpt lat="28.6775150" lon="-17.7692000">
        <ele>9.9</ele>
        <time>2020-11-15T22:08:57Z</time>
      </trkpt>
      <trkpt lat="28.6775150" lon="-17.7692000">
        <ele>9.9</ele>
        <time>2020-11-15T22:08:58Z</time>
      </trkpt>
      <trkpt lat="28.6774670" lon="-17.7692950">
        <ele>10.0</ele>
        <time>2020-11-15T22:08:59Z</time>
      </trkpt>
      <trkpt lat="28.6774670" lon="-17.7692950">
        <ele>10.0</ele>
        <time>2020-11-15T22:09:00Z</time>
      </trkpt>
      <trkpt lat="28.6774330" lon="-17.7694050">
        <ele>10.0</ele>
        <time>2020-11-15T22:09:01Z</time>
      </trkpt>
      <trkpt lat="28.6774330" lon="-17.7694050">
        <ele>10.0</ele>
        <time>2020-11-15T22:09:02Z</time>
      </trkpt>
      <trkpt lat="28.6774230" lon="-17.7695230">
        <ele>10.0</ele>
        <time>2020-11-15T22:09:03Z</time>
      </trkpt>
      <trkpt lat="28.6774250" lon="-17.7695830">
        <ele>10.0</ele>
        <time>2020-11-15T22:09:04Z</time>
      </trkpt>
      <trkpt lat="28.6774250" lon="-17.7695830">
        <ele>10.0</ele>
        <time>2020-11-15T22:09:05Z</time>
      </trkpt>
      <trkpt lat="28.6774350" lon="-17.7697000">
        <ele>10.0</ele>
        <time>2020-11-15T22:09:06Z</time>
      </trkpt>
      <trkpt lat="28.6774350" lon="-17.7697000">
        <ele>10.0</ele>
        <time>2020-11-15T22:09:07Z</time>
      </trkpt>
      <trkpt lat="28.6774320" lon="-17.7698170">
        <ele>10.0</ele>
        <time>2020-11-15T22:09:08Z</time>
      </trkpt>
      <trkpt lat="28.6774320" lon="-17.7698170">
        <ele>10.0</ele>
        <time>2020-11-15T22:09:09Z</time>
      </trkpt>
      <trkpt lat="28.6773900" lon="-17.7699300">
        <ele>10.0</ele>
        <time>2020-11-15T22:09:10Z</time>
      </trkpt>
      <trkpt lat="28.6773900" lon="-17.7699300">
        <ele>10.0</ele>
        <time>2020-11-15T22:09:11Z</time>
      </trkpt>
      <trkpt lat="28.6773130" lon="-17.7700220">
        <ele>10.0</ele>
        <time>2020-11-15T22:09:12Z</time>
      </trkpt>
      <trkpt lat="28.6772630" lon="-17.7700520">
        <ele>10.0</ele>
        <time>2020-11-15T22:09:13Z</time>
      </trkpt>
      <trkpt lat="28.6772630" lon="-17.7700520">
        <ele>10.0</ele>
        <time>2020-11-15T22:09:14Z</time>
      </trkpt>
      <trkpt lat="28.6771520" lon="-17.7700800">
        <ele>10.0</ele>
        <time>2020-11-15T22:09:15Z</time>
      </trkpt>
      <trkpt lat="28.6770930" lon="-17.7700780">
        <ele>9.9</ele>
        <time>2020-11-15T22:09:16Z</time>
      </trkpt>
      <trkpt lat="28.6770380" lon="-17.7700650">
        <ele>9.9</ele>
        <time>2020-11-15T22:09:17Z</time>
      </trkpt>
      <trkpt lat="28.6769830" lon="-17.7700550">
        <ele>9.9</ele>
        <time>2020-11-15T22:09:18Z</time>
      </trkpt>
      <trkpt lat="28.6769830" lon="-17.7700550">
        <ele>9.9</ele>
        <time>2020-11-15T22:09:19Z</time>
      </trkpt>
      <trkpt lat="28.6768730" lon="-17.7700180">
        <ele>10.0</ele>
        <time>2020-11-15T22:09:20Z</time>
      </trkpt>
      <trkpt lat="28.6768730" lon="-17.7700180">
        <ele>10.0</ele>
        <time>2020-11-15T22:09:21Z</time>
      </trkpt>
      <trkpt lat="28.6767670" lon="-17.7699770">
        <ele>10.0</ele>
        <time>2020-11-15T22:09:22Z</time>
      </trkpt>
      <trkpt lat="28.6767120" lon="-17.7699630">
        <ele>10.0</ele>
        <time>2020-11-15T22:09:23Z</time>
      </trkpt>
      <trkpt lat="28.6766600" lon="-17.7699380">
        <ele>10.0</ele>
        <time>2020-11-15T22:09:24Z</time>
      </trkpt>
      <trkpt lat="28.6766100" lon="-17.7699180">
        <ele>10.0</ele>
        <time>2020-11-15T22:09:25Z</time>
      </trkpt>
      <trkpt lat="28.6766100" lon="-17.7699180">
        <ele>10.0</ele>
        <time>2020-11-15T22:09:26Z</time>
      </trkpt>
      <trkpt lat="28.6765100" lon="-17.7698780">
        <ele>10.0</ele>
        <time>2020-11-15T22:09:27Z</time>
      </trkpt>
      <trkpt lat="28.6765100" lon="-17.7698780">
        <ele>10.0</ele>
        <time>2020-11-15T22:09:28Z</time>
      </trkpt>
      <trkpt lat="28.6764050" lon="-17.7698380">
        <ele>10.0</ele>
        <time>2020-11-15T22:09:29Z</time>
      </trkpt>
      <trkpt lat="28.6764050" lon="-17.7698380">
        <ele>10.0</ele>
        <time>2020-11-15T22:09:30Z</time>
      </trkpt>
      <trkpt lat="28.6763000" lon="-17.7697980">
        <ele>10.0</ele>
        <time>2020-11-15T22:09:31Z</time>
      </trkpt>
      <trkpt lat="28.6763000" lon="-17.7697980">
        <ele>10.0</ele>
        <time>2020-11-15T22:09:32Z</time>
      </trkpt>
      <trkpt lat="28.6761920" lon="-17.7697730">
        <ele>10.0</ele>
        <time>2020-11-15T22:09:33Z</time>
      </trkpt>
      <trkpt lat="28.6761920" lon="-17.7697730">
        <ele>10.0</ele>
        <time>2020-11-15T22:09:34Z</time>
      </trkpt>
      <trkpt lat="28.6760830" lon="-17.7697530">
        <ele>10.1</ele>
        <time>2020-11-15T22:09:35Z</time>
      </trkpt>
      <trkpt lat="28.6760280" lon="-17.7697450">
        <ele>10.1</ele>
        <time>2020-11-15T22:09:36Z</time>
      </trkpt>
      <trkpt lat="28.6759720" lon="-17.7697370">
        <ele>10.1</ele>
        <time>2020-11-15T22:09:37Z</time>
      </trkpt>
      <trkpt lat="28.6759150" lon="-17.7697270">
        <ele>10.1</ele>
        <time>2020-11-15T22:09:38Z</time>
      </trkpt>
      <trkpt lat="28.6759150" lon="-17.7697270">
        <ele>10.1</ele>
        <time>2020-11-15T22:09:39Z</time>
      </trkpt>
      <trkpt lat="28.6758020" lon="-17.7697030">
        <ele>10.1</ele>
        <time>2020-11-15T22:09:40Z</time>
      </trkpt>
      <trkpt lat="28.6758020" lon="-17.7697030">
        <ele>10.1</ele>
        <time>2020-11-15T22:09:41Z</time>
      </trkpt>
      <trkpt lat="28.6756920" lon="-17.7696820">
        <ele>10.1</ele>
        <time>2020-11-15T22:09:42Z</time>
      </trkpt>
      <trkpt lat="28.6756370" lon="-17.7696720">
        <ele>10.1</ele>
        <time>2020-11-15T22:09:43Z</time>
      </trkpt>
      <trkpt lat="28.6756370" lon="-17.7696720">
        <ele>10.1</ele>
        <time>2020-11-15T22:09:44Z</time>
      </trkpt>
      <trkpt lat="28.6755280" lon="-17.7696570">
        <ele>10.2</ele>
        <time>2020-11-15T22:09:45Z</time>
      </trkpt>
      <trkpt lat="28.6755280" lon="-17.7696570">
        <ele>10.2</ele>
        <time>2020-11-15T22:09:46Z</time>
      </trkpt>
      <trkpt lat="28.6754320" lon="-17.7696980">
        <ele>12.2</ele>
        <time>2020-11-15T22:09:47Z</time>
      </trkpt>
      <trkpt lat="28.6754320" lon="-17.7696980">
        <ele>12.2</ele>
        <time>2020-11-15T22:09:48Z</time>
      </trkpt>
      <trkpt lat="28.6753850" lon="-17.7698020">
        <ele>12.3</ele>
        <time>2020-11-15T22:09:49Z</time>
      </trkpt>
      <trkpt lat="28.6753850" lon="-17.7698020">
        <ele>12.3</ele>
        <time>2020-11-15T22:09:50Z</time>
      </trkpt>
      <trkpt lat="28.6754300" lon="-17.7698930">
        <ele>12.4</ele>
        <time>2020-11-15T22:09:51Z</time>
      </trkpt>
      <trkpt lat="28.6754680" lon="-17.7699170">
        <ele>12.4</ele>
        <time>2020-11-15T22:09:52Z</time>
      </trkpt>
      <trkpt lat="28.6755230" lon="-17.7699180">
        <ele>12.5</ele>
        <time>2020-11-15T22:09:53Z</time>
      </trkpt>
      <trkpt lat="28.6755230" lon="-17.7699180">
        <ele>12.5</ele>
        <time>2020-11-15T22:09:54Z</time>
      </trkpt>
      <trkpt lat="28.6756570" lon="-17.7698970">
        <ele>12.6</ele>
        <time>2020-11-15T22:09:55Z</time>
      </trkpt>
      <trkpt lat="28.6756570" lon="-17.7698970">
        <ele>12.6</ele>
        <time>2020-11-15T22:09:56Z</time>
      </trkpt>
      <trkpt lat="28.6757500" lon="-17.7698870">
        <ele>12.6</ele>
        <time>2020-11-15T22:09:57Z</time>
      </trkpt>
      <trkpt lat="28.6757500" lon="-17.7698870">
        <ele>12.6</ele>
        <time>2020-11-15T22:09:58Z</time>
      </trkpt>
      <trkpt lat="28.6758370" lon="-17.7698800">
        <ele>12.6</ele>
        <time>2020-11-15T22:09:59Z</time>
      </trkpt>
      <trkpt lat="28.6758820" lon="-17.7698780">
        <ele>12.6</ele>
        <time>2020-11-15T22:10:00Z</time>
      </trkpt>
      <trkpt lat="28.6758820" lon="-17.7698780">
        <ele>12.6</ele>
        <time>2020-11-15T22:10:01Z</time>
      </trkpt>
      <trkpt lat="28.6759700" lon="-17.7698750">
        <ele>12.7</ele>
        <time>2020-11-15T22:10:02Z</time>
      </trkpt>
      <trkpt lat="28.6759700" lon="-17.7698750">
        <ele>12.7</ele>
        <time>2020-11-15T22:10:03Z</time>
      </trkpt>
      <trkpt lat="28.6760650" lon="-17.7698750">
        <ele>12.8</ele>
        <time>2020-11-15T22:10:04Z</time>
      </trkpt>
      <trkpt lat="28.6761130" lon="-17.7698780">
        <ele>12.8</ele>
        <time>2020-11-15T22:10:05Z</time>
      </trkpt>
      <trkpt lat="28.6761130" lon="-17.7698780">
        <ele>12.8</ele>
        <time>2020-11-15T22:10:06Z</time>
      </trkpt>
      <trkpt lat="28.6762080" lon="-17.7698970">
        <ele>12.9</ele>
        <time>2020-11-15T22:10:07Z</time>
      </trkpt>
      <trkpt lat="28.6762080" lon="-17.7698970">
        <ele>12.9</ele>
        <time>2020-11-15T22:10:08Z</time>
      </trkpt>
      <trkpt lat="28.6762920" lon="-17.7699150">
        <ele>13.0</ele>
        <time>2020-11-15T22:10:09Z</time>
      </trkpt>
      <trkpt lat="28.6762920" lon="-17.7699150">
        <ele>13.0</ele>
        <time>2020-11-15T22:10:10Z</time>
      </trkpt>
      <trkpt lat="28.6763730" lon="-17.7699550">
        <ele>13.1</ele>
        <time>2020-11-15T22:10:11Z</time>
      </trkpt>
      <trkpt lat="28.6763730" lon="-17.7699550">
        <ele>13.1</ele>
        <time>2020-11-15T22:10:12Z</time>
      </trkpt>
      <trkpt lat="28.6764570" lon="-17.7700030">
        <ele>13.2</ele>
        <time>2020-11-15T22:10:13Z</time>
      </trkpt>
      <trkpt lat="28.6764570" lon="-17.7700030">
        <ele>13.2</ele>
        <time>2020-11-15T22:10:14Z</time>
      </trkpt>
      <trkpt lat="28.6765470" lon="-17.7700470">
        <ele>13.6</ele>
        <time>2020-11-15T22:10:15Z</time>
      </trkpt>
      <trkpt lat="28.6765470" lon="-17.7700470">
        <ele>13.6</ele>
        <time>2020-11-15T22:10:16Z</time>
      </trkpt>
      <trkpt lat="28.6766350" lon="-17.7700730">
        <ele>13.8</ele>
        <time>2020-11-15T22:10:17Z</time>
      </trkpt>
      <trkpt lat="28.6766350" lon="-17.7700730">
        <ele>13.8</ele>
        <time>2020-11-15T22:10:18Z</time>
      </trkpt>
      <trkpt lat="28.6767280" lon="-17.7700970">
        <ele>13.9</ele>
        <time>2020-11-15T22:10:19Z</time>
      </trkpt>
      <trkpt lat="28.6767280" lon="-17.7700970">
        <ele>13.9</ele>
        <time>2020-11-15T22:10:20Z</time>
      </trkpt>
      <trkpt lat="28.6768170" lon="-17.7701270">
        <ele>14.0</ele>
        <time>2020-11-15T22:10:21Z</time>
      </trkpt>
      <trkpt lat="28.6768170" lon="-17.7701270">
        <ele>14.0</ele>
        <time>2020-11-15T22:10:22Z</time>
      </trkpt>
      <trkpt lat="28.6769080" lon="-17.7701680">
        <ele>14.0</ele>
        <time>2020-11-15T22:10:23Z</time>
      </trkpt>
      <trkpt lat="28.6769080" lon="-17.7701680">
        <ele>14.0</ele>
        <time>2020-11-15T22:10:24Z</time>
      </trkpt>
      <trkpt lat="28.6770030" lon="-17.7702180">
        <ele>14.1</ele>
        <time>2020-11-15T22:10:25Z</time>
      </trkpt>
      <trkpt lat="28.6770030" lon="-17.7702180">
        <ele>14.1</ele>
        <time>2020-11-15T22:10:26Z</time>
      </trkpt>
      <trkpt lat="28.6771020" lon="-17.7702250">
        <ele>14.1</ele>
        <time>2020-11-15T22:10:27Z</time>
      </trkpt>
      <trkpt lat="28.6771020" lon="-17.7702250">
        <ele>14.1</ele>
        <time>2020-11-15T22:10:28Z</time>
      </trkpt>
      <trkpt lat="28.6771950" lon="-17.7702100">
        <ele>14.1</ele>
        <time>2020-11-15T22:10:29Z</time>
      </trkpt>
      <trkpt lat="28.6772400" lon="-17.7701880">
        <ele>14.1</ele>
        <time>2020-11-15T22:10:30Z</time>
      </trkpt>
      <trkpt lat="28.6772400" lon="-17.7701880">
        <ele>14.1</ele>
        <time>2020-11-15T22:10:31Z</time>
      </trkpt>
      <trkpt lat="28.6773250" lon="-17.7701470">
        <ele>14.1</ele>
        <time>2020-11-15T22:10:32Z</time>
      </trkpt>
      <trkpt lat="28.6773650" lon="-17.7701220">
        <ele>14.1</ele>
        <time>2020-11-15T22:10:33Z</time>
      </trkpt>
      <trkpt lat="28.6773650" lon="-17.7701220">
        <ele>14.1</ele>
        <time>2020-11-15T22:10:34Z</time>
      </trkpt>
      <trkpt lat="28.6774450" lon="-17.7700570">
        <ele>14.1</ele>
        <time>2020-11-15T22:10:35Z</time>
      </trkpt>
      <trkpt lat="28.6774450" lon="-17.7700570">
        <ele>14.1</ele>
        <time>2020-11-15T22:10:36Z</time>
      </trkpt>
      <trkpt lat="28.6775250" lon="-17.7699970">
        <ele>14.1</ele>
        <time>2020-11-15T22:10:37Z</time>
      </trkpt>
      <trkpt lat="28.6775250" lon="-17.7699970">
        <ele>14.1</ele>
        <time>2020-11-15T22:10:38Z</time>
      </trkpt>
      <trkpt lat="28.6776020" lon="-17.7699280">
        <ele>14.1</ele>
        <time>2020-11-15T22:10:39Z</time>
      </trkpt>
      <trkpt lat="28.6776400" lon="-17.7698920">
        <ele>14.1</ele>
        <time>2020-11-15T22:10:40Z</time>
      </trkpt>
      <trkpt lat="28.6776780" lon="-17.7698520">
        <ele>14.1</ele>
        <time>2020-11-15T22:10:41Z</time>
      </trkpt>
      <trkpt lat="28.6776780" lon="-17.7698520">
        <ele>14.1</ele>
        <time>2020-11-15T22:10:42Z</time>
      </trkpt>
      <trkpt lat="28.6777530" lon="-17.7697630">
        <ele>14.1</ele>
        <time>2020-11-15T22:10:43Z</time>
      </trkpt>
      <trkpt lat="28.6777530" lon="-17.7697630">
        <ele>14.1</ele>
        <time>2020-11-15T22:10:44Z</time>
      </trkpt>
      <trkpt lat="28.6778350" lon="-17.7696720">
        <ele>14.0</ele>
        <time>2020-11-15T22:10:45Z</time>
      </trkpt>
      <trkpt lat="28.6778350" lon="-17.7696720">
        <ele>14.0</ele>
        <time>2020-11-15T22:10:46Z</time>
      </trkpt>
      <trkpt lat="28.6779030" lon="-17.7695750">
        <ele>14.0</ele>
        <time>2020-11-15T22:10:47Z</time>
      </trkpt>
      <trkpt lat="28.6779030" lon="-17.7695750">
        <ele>14.0</ele>
        <time>2020-11-15T22:10:48Z</time>
      </trkpt>
      <trkpt lat="28.6779700" lon="-17.7694770">
        <ele>14.0</ele>
        <time>2020-11-15T22:10:49Z</time>
      </trkpt>
      <trkpt lat="28.6779700" lon="-17.7694770">
        <ele>14.0</ele>
        <time>2020-11-15T22:10:50Z</time>
      </trkpt>
      <trkpt lat="28.6780370" lon="-17.7693800">
        <ele>14.0</ele>
        <time>2020-11-15T22:10:51Z</time>
      </trkpt>
      <trkpt lat="28.6780370" lon="-17.7693800">
        <ele>14.0</ele>
        <time>2020-11-15T22:10:52Z</time>
      </trkpt>
      <trkpt lat="28.6781130" lon="-17.7692900">
        <ele>14.1</ele>
        <time>2020-11-15T22:10:53Z</time>
      </trkpt>
      <trkpt lat="28.6781550" lon="-17.7692450">
        <ele>14.1</ele>
        <time>2020-11-15T22:10:54Z</time>
      </trkpt>
      <trkpt lat="28.6782030" lon="-17.7692020">
        <ele>14.1</ele>
        <time>2020-11-15T22:10:55Z</time>
      </trkpt>
      <trkpt lat="28.6782030" lon="-17.7692020">
        <ele>14.1</ele>
        <time>2020-11-15T22:10:56Z</time>
      </trkpt>
      <trkpt lat="28.6783100" lon="-17.7691400">
        <ele>14.2</ele>
        <time>2020-11-15T22:10:57Z</time>
      </trkpt>
      <trkpt lat="28.6783100" lon="-17.7691400">
        <ele>14.2</ele>
        <time>2020-11-15T22:10:58Z</time>
      </trkpt>
      <trkpt lat="28.6783830" lon="-17.7690550">
        <ele>14.2</ele>
        <time>2020-11-15T22:10:59Z</time>
      </trkpt>
      <trkpt lat="28.6783830" lon="-17.7690550">
        <ele>14.2</ele>
        <time>2020-11-15T22:11:00Z</time>
      </trkpt>
      <trkpt lat="28.6784680" lon="-17.7689780">
        <ele>14.2</ele>
        <time>2020-11-15T22:11:01Z</time>
      </trkpt>
      <trkpt lat="28.6784680" lon="-17.7689780">
        <ele>14.2</ele>
        <time>2020-11-15T22:11:02Z</time>
      </trkpt>
      <trkpt lat="28.6785580" lon="-17.7689030">
        <ele>14.3</ele>
        <time>2020-11-15T22:11:03Z</time>
      </trkpt>
      <trkpt lat="28.6786000" lon="-17.7688630">
        <ele>14.3</ele>
        <time>2020-11-15T22:11:04Z</time>
      </trkpt>
      <trkpt lat="28.6786000" lon="-17.7688630">
        <ele>14.3</ele>
        <time>2020-11-15T22:11:05Z</time>
      </trkpt>
      <trkpt lat="28.6786830" lon="-17.7687900">
        <ele>14.3</ele>
        <time>2020-11-15T22:11:06Z</time>
      </trkpt>
      <trkpt lat="28.6787280" lon="-17.7687520">
        <ele>14.3</ele>
        <time>2020-11-15T22:11:07Z</time>
      </trkpt>
      <trkpt lat="28.6787280" lon="-17.7687520">
        <ele>14.3</ele>
        <time>2020-11-15T22:11:08Z</time>
      </trkpt>
      <trkpt lat="28.6788180" lon="-17.7686830">
        <ele>14.3</ele>
        <time>2020-11-15T22:11:09Z</time>
      </trkpt>
      <trkpt lat="28.6788180" lon="-17.7686830">
        <ele>14.3</ele>
        <time>2020-11-15T22:11:10Z</time>
      </trkpt>
      <trkpt lat="28.6789100" lon="-17.7686220">
        <ele>14.3</ele>
        <time>2020-11-15T22:11:11Z</time>
      </trkpt>
      <trkpt lat="28.6789550" lon="-17.7685880">
        <ele>14.3</ele>
        <time>2020-11-15T22:11:12Z</time>
      </trkpt>
      <trkpt lat="28.6789550" lon="-17.7685880">
        <ele>14.3</ele>
        <time>2020-11-15T22:11:13Z</time>
      </trkpt>
      <trkpt lat="28.6790500" lon="-17.7685230">
        <ele>14.3</ele>
        <time>2020-11-15T22:11:14Z</time>
      </trkpt>
      <trkpt lat="28.6790500" lon="-17.7685230">
        <ele>14.3</ele>
        <time>2020-11-15T22:11:15Z</time>
      </trkpt>
      <trkpt lat="28.6791430" lon="-17.7684580">
        <ele>14.3</ele>
        <time>2020-11-15T22:11:16Z</time>
      </trkpt>
      <trkpt lat="28.6791430" lon="-17.7684580">
        <ele>14.3</ele>
        <time>2020-11-15T22:11:17Z</time>
      </trkpt>
      <trkpt lat="28.6792420" lon="-17.7683930">
        <ele>14.2</ele>
        <time>2020-11-15T22:11:18Z</time>
      </trkpt>
      <trkpt lat="28.6792920" lon="-17.7683620">
        <ele>14.1</ele>
        <time>2020-11-15T22:11:19Z</time>
      </trkpt>
      <trkpt lat="28.6792920" lon="-17.7683620">
        <ele>14.1</ele>
        <time>2020-11-15T22:11:20Z</time>
      </trkpt>
      <trkpt lat="28.6793930" lon="-17.7682950">
        <ele>14.0</ele>
        <time>2020-11-15T22:11:21Z</time>
      </trkpt>
      <trkpt lat="28.6793930" lon="-17.7682950">
        <ele>14.0</ele>
        <time>2020-11-15T22:11:22Z</time>
      </trkpt>
      <trkpt lat="28.6794980" lon="-17.7682280">
        <ele>13.9</ele>
        <time>2020-11-15T22:11:23Z</time>
      </trkpt>
      <trkpt lat="28.6794980" lon="-17.7682280">
        <ele>13.9</ele>
        <time>2020-11-15T22:11:24Z</time>
      </trkpt>
      <trkpt lat="28.6796030" lon="-17.7681600">
        <ele>13.8</ele>
        <time>2020-11-15T22:11:25Z</time>
      </trkpt>
      <trkpt lat="28.6796030" lon="-17.7681600">
        <ele>13.8</ele>
        <time>2020-11-15T22:11:26Z</time>
      </trkpt>
      <trkpt lat="28.6797050" lon="-17.7680930">
        <ele>13.7</ele>
        <time>2020-11-15T22:11:27Z</time>
      </trkpt>
      <trkpt lat="28.6797570" lon="-17.7680580">
        <ele>13.6</ele>
        <time>2020-11-15T22:11:28Z</time>
      </trkpt>
      <trkpt lat="28.6797570" lon="-17.7680580">
        <ele>13.6</ele>
        <time>2020-11-15T22:11:29Z</time>
      </trkpt>
      <trkpt lat="28.6798620" lon="-17.7679880">
        <ele>13.5</ele>
        <time>2020-11-15T22:11:30Z</time>
      </trkpt>
      <trkpt lat="28.6799170" lon="-17.7679530">
        <ele>13.4</ele>
        <time>2020-11-15T22:11:31Z</time>
      </trkpt>
      <trkpt lat="28.6799700" lon="-17.7679170">
        <ele>13.3</ele>
        <time>2020-11-15T22:11:32Z</time>
      </trkpt>
      <trkpt lat="28.6799700" lon="-17.7679170">
        <ele>13.3</ele>
        <time>2020-11-15T22:11:33Z</time>
      </trkpt>
      <trkpt lat="28.6800770" lon="-17.7678370">
        <ele>13.1</ele>
        <time>2020-11-15T22:11:34Z</time>
      </trkpt>
      <trkpt lat="28.6800770" lon="-17.7678370">
        <ele>13.1</ele>
        <time>2020-11-15T22:11:35Z</time>
      </trkpt>
      <trkpt lat="28.6801750" lon="-17.7677520">
        <ele>13.0</ele>
        <time>2020-11-15T22:11:36Z</time>
      </trkpt>
      <trkpt lat="28.6802230" lon="-17.7677070">
        <ele>12.9</ele>
        <time>2020-11-15T22:11:37Z</time>
      </trkpt>
      <trkpt lat="28.6802230" lon="-17.7677070">
        <ele>12.9</ele>
        <time>2020-11-15T22:11:38Z</time>
      </trkpt>
      <trkpt lat="28.6803200" lon="-17.7676180">
        <ele>12.8</ele>
        <time>2020-11-15T22:11:39Z</time>
      </trkpt>
      <trkpt lat="28.6803200" lon="-17.7676180">
        <ele>12.8</ele>
        <time>2020-11-15T22:11:40Z</time>
      </trkpt>
      <trkpt lat="28.6804170" lon="-17.7675280">
        <ele>12.7</ele>
        <time>2020-11-15T22:11:41Z</time>
      </trkpt>
      <trkpt lat="28.6804170" lon="-17.7675280">
        <ele>12.7</ele>
        <time>2020-11-15T22:11:42Z</time>
      </trkpt>
      <trkpt lat="28.6805050" lon="-17.7674320">
        <ele>12.5</ele>
        <time>2020-11-15T22:11:43Z</time>
      </trkpt>
      <trkpt lat="28.6805050" lon="-17.7674320">
        <ele>12.5</ele>
        <time>2020-11-15T22:11:44Z</time>
      </trkpt>
      <trkpt lat="28.6805980" lon="-17.7673400">
        <ele>12.4</ele>
        <time>2020-11-15T22:11:45Z</time>
      </trkpt>
      <trkpt lat="28.6805980" lon="-17.7673400">
        <ele>12.4</ele>
        <time>2020-11-15T22:11:46Z</time>
      </trkpt>
      <trkpt lat="28.6806850" lon="-17.7672330">
        <ele>12.4</ele>
        <time>2020-11-15T22:11:47Z</time>
      </trkpt>
      <trkpt lat="28.6806850" lon="-17.7672330">
        <ele>12.4</ele>
        <time>2020-11-15T22:11:48Z</time>
      </trkpt>
      <trkpt lat="28.6807620" lon="-17.7671150">
        <ele>12.2</ele>
        <time>2020-11-15T22:11:49Z</time>
      </trkpt>
      <trkpt lat="28.6807620" lon="-17.7671150">
        <ele>12.2</ele>
        <time>2020-11-15T22:11:50Z</time>
      </trkpt>
      <trkpt lat="28.6808020" lon="-17.7669830">
        <ele>12.0</ele>
        <time>2020-11-15T22:11:51Z</time>
      </trkpt>
      <trkpt lat="28.6808020" lon="-17.7669830">
        <ele>12.0</ele>
        <time>2020-11-15T22:11:52Z</time>
      </trkpt>
      <trkpt lat="28.6807800" lon="-17.7668580">
        <ele>11.9</ele>
        <time>2020-11-15T22:11:53Z</time>
      </trkpt>
      <trkpt lat="28.6807800" lon="-17.7668580">
        <ele>11.9</ele>
        <time>2020-11-15T22:11:54Z</time>
      </trkpt>
      <trkpt lat="28.6807480" lon="-17.7667370">
        <ele>11.7</ele>
        <time>2020-11-15T22:11:55Z</time>
      </trkpt>
      <trkpt lat="28.6807480" lon="-17.7667370">
        <ele>11.7</ele>
        <time>2020-11-15T22:11:56Z</time>
      </trkpt>
      <trkpt lat="28.6807150" lon="-17.7666170">
        <ele>11.5</ele>
        <time>2020-11-15T22:11:57Z</time>
      </trkpt>
      <trkpt lat="28.6807150" lon="-17.7666170">
        <ele>11.5</ele>
        <time>2020-11-15T22:11:58Z</time>
      </trkpt>
      <trkpt lat="28.6806730" lon="-17.7664920">
        <ele>11.4</ele>
        <time>2020-11-15T22:11:59Z</time>
      </trkpt>
      <trkpt lat="28.6806580" lon="-17.7664300">
        <ele>11.3</ele>
        <time>2020-11-15T22:12:00Z</time>
      </trkpt>
      <trkpt lat="28.6806580" lon="-17.7664300">
        <ele>11.3</ele>
        <time>2020-11-15T22:12:01Z</time>
      </trkpt>
      <trkpt lat="28.6806230" lon="-17.7663050">
        <ele>11.1</ele>
        <time>2020-11-15T22:12:02Z</time>
      </trkpt>
      <trkpt lat="28.6806100" lon="-17.7662430">
        <ele>10.9</ele>
        <time>2020-11-15T22:12:03Z</time>
      </trkpt>
      <trkpt lat="28.6806100" lon="-17.7662430">
        <ele>10.9</ele>
        <time>2020-11-15T22:12:04Z</time>
      </trkpt>
      <trkpt lat="28.6806150" lon="-17.7661170">
        <ele>10.8</ele>
        <time>2020-11-15T22:12:05Z</time>
      </trkpt>
      <trkpt lat="28.6806420" lon="-17.7660600">
        <ele>10.9</ele>
        <time>2020-11-15T22:12:06Z</time>
      </trkpt>
      <trkpt lat="28.6806830" lon="-17.7660220">
        <ele>11.1</ele>
        <time>2020-11-15T22:12:07Z</time>
      </trkpt>
      <trkpt lat="28.6806830" lon="-17.7660220">
        <ele>11.1</ele>
        <time>2020-11-15T22:12:08Z</time>
      </trkpt>
      <trkpt lat="28.6807820" lon="-17.7659820">
        <ele>11.2</ele>
        <time>2020-11-15T22:12:09Z</time>
      </trkpt>
      <trkpt lat="28.6807820" lon="-17.7659820">
        <ele>11.2</ele>
        <time>2020-11-15T22:12:10Z</time>
      </trkpt>
      <trkpt lat="28.6808830" lon="-17.7659480">
        <ele>11.2</ele>
        <time>2020-11-15T22:12:11Z</time>
      </trkpt>
      <trkpt lat="28.6808830" lon="-17.7659480">
        <ele>11.2</ele>
        <time>2020-11-15T22:12:12Z</time>
      </trkpt>
      <trkpt lat="28.6809820" lon="-17.7658970">
        <ele>11.1</ele>
        <time>2020-11-15T22:12:13Z</time>
      </trkpt>
      <trkpt lat="28.6810270" lon="-17.7658580">
        <ele>11.1</ele>
        <time>2020-11-15T22:12:14Z</time>
      </trkpt>
      <trkpt lat="28.6810700" lon="-17.7658170">
        <ele>11.1</ele>
        <time>2020-11-15T22:12:15Z</time>
      </trkpt>
      <trkpt lat="28.6810700" lon="-17.7658170">
        <ele>11.1</ele>
        <time>2020-11-15T22:12:16Z</time>
      </trkpt>
      <trkpt lat="28.6811550" lon="-17.7657380">
        <ele>11.2</ele>
        <time>2020-11-15T22:12:17Z</time>
      </trkpt>
      <trkpt lat="28.6811550" lon="-17.7657380">
        <ele>11.2</ele>
        <time>2020-11-15T22:12:18Z</time>
      </trkpt>
      <trkpt lat="28.6812430" lon="-17.7656600">
        <ele>11.2</ele>
        <time>2020-11-15T22:12:19Z</time>
      </trkpt>
      <trkpt lat="28.6812430" lon="-17.7656600">
        <ele>11.2</ele>
        <time>2020-11-15T22:12:20Z</time>
      </trkpt>
      <trkpt lat="28.6813280" lon="-17.7655820">
        <ele>11.2</ele>
        <time>2020-11-15T22:12:21Z</time>
      </trkpt>
      <trkpt lat="28.6813280" lon="-17.7655820">
        <ele>11.2</ele>
        <time>2020-11-15T22:12:22Z</time>
      </trkpt>
      <trkpt lat="28.6814100" lon="-17.7654980">
        <ele>11.3</ele>
        <time>2020-11-15T22:12:23Z</time>
      </trkpt>
      <trkpt lat="28.6814520" lon="-17.7654550">
        <ele>11.3</ele>
        <time>2020-11-15T22:12:24Z</time>
      </trkpt>
      <trkpt lat="28.6814920" lon="-17.7654120">
        <ele>11.3</ele>
        <time>2020-11-15T22:12:25Z</time>
      </trkpt>
      <trkpt lat="28.6814920" lon="-17.7654120">
        <ele>11.3</ele>
        <time>2020-11-15T22:12:26Z</time>
      </trkpt>
      <trkpt lat="28.6815770" lon="-17.7653320">
        <ele>11.3</ele>
        <time>2020-11-15T22:12:27Z</time>
      </trkpt>
      <trkpt lat="28.6816180" lon="-17.7652920">
        <ele>11.3</ele>
        <time>2020-11-15T22:12:28Z</time>
      </trkpt>
      <trkpt lat="28.6816180" lon="-17.7652920">
        <ele>11.3</ele>
        <time>2020-11-15T22:12:29Z</time>
      </trkpt>
      <trkpt lat="28.6817050" lon="-17.7652280">
        <ele>11.4</ele>
        <time>2020-11-15T22:12:30Z</time>
      </trkpt>
      <trkpt lat="28.6817470" lon="-17.7651930">
        <ele>11.4</ele>
        <time>2020-11-15T22:12:31Z</time>
      </trkpt>
      <trkpt lat="28.6817470" lon="-17.7651930">
        <ele>11.4</ele>
        <time>2020-11-15T22:12:32Z</time>
      </trkpt>
      <trkpt lat="28.6818320" lon="-17.7651250">
        <ele>11.4</ele>
        <time>2020-11-15T22:12:33Z</time>
      </trkpt>
      <trkpt lat="28.6818320" lon="-17.7651250">
        <ele>11.4</ele>
        <time>2020-11-15T22:12:34Z</time>
      </trkpt>
      <trkpt lat="28.6819130" lon="-17.7650580">
        <ele>11.5</ele>
        <time>2020-11-15T22:12:35Z</time>
      </trkpt>
      <trkpt lat="28.6819130" lon="-17.7650580">
        <ele>11.5</ele>
        <time>2020-11-15T22:12:36Z</time>
      </trkpt>
      <trkpt lat="28.6819850" lon="-17.7649980">
        <ele>11.5</ele>
        <time>2020-11-15T22:12:37Z</time>
      </trkpt>
      <trkpt lat="28.6819850" lon="-17.7649980">
        <ele>11.5</ele>
        <time>2020-11-15T22:12:38Z</time>
      </trkpt>
      <trkpt lat="28.6820550" lon="-17.7649780">
        <ele>11.6</ele>
        <time>2020-11-15T22:12:39Z</time>
      </trkpt>
      <trkpt lat="28.6820550" lon="-17.7649780">
        <ele>12.2</ele>
        <time>2020-11-15T22:12:40Z</time>
      </trkpt>
      <trkpt lat="28.6821180" lon="-17.7650080">
        <ele>12.9</ele>
        <time>2020-11-15T22:12:41Z</time>
      </trkpt>
      <trkpt lat="28.6821180" lon="-17.7650080">
        <ele>12.9</ele>
        <time>2020-11-15T22:12:42Z</time>
      </trkpt>
      <trkpt lat="28.6821530" lon="-17.7650570">
        <ele>13.4</ele>
        <time>2020-11-15T22:12:43Z</time>
      </trkpt>
      <trkpt lat="28.6821530" lon="-17.7650570">
        <ele>13.4</ele>
        <time>2020-11-15T22:12:44Z</time>
      </trkpt>
      <trkpt lat="28.6821930" lon="-17.7651130">
        <ele>13.9</ele>
        <time>2020-11-15T22:12:45Z</time>
      </trkpt>
      <trkpt lat="28.6821930" lon="-17.7651130">
        <ele>13.9</ele>
        <time>2020-11-15T22:12:46Z</time>
      </trkpt>
      <trkpt lat="28.6822320" lon="-17.7651630">
        <ele>14.4</ele>
        <time>2020-11-15T22:12:47Z</time>
      </trkpt>
      <trkpt lat="28.6822320" lon="-17.7651630">
        <ele>14.4</ele>
        <time>2020-11-15T22:12:48Z</time>
      </trkpt>
      <trkpt lat="28.6822520" lon="-17.7652070">
        <ele>14.7</ele>
        <time>2020-11-15T22:12:49Z</time>
      </trkpt>
      <trkpt lat="28.6822520" lon="-17.7652070">
        <ele>14.7</ele>
        <time>2020-11-15T22:12:50Z</time>
      </trkpt>
      <trkpt lat="28.6822870" lon="-17.7652530">
        <ele>15.0</ele>
        <time>2020-11-15T22:12:51Z</time>
      </trkpt>
      <trkpt lat="28.6822870" lon="-17.7652530">
        <ele>15.0</ele>
        <time>2020-11-15T22:12:52Z</time>
      </trkpt>
      <trkpt lat="28.6823150" lon="-17.7652920">
        <ele>15.3</ele>
        <time>2020-11-15T22:12:53Z</time>
      </trkpt>
      <trkpt lat="28.6823320" lon="-17.7653050">
        <ele>15.4</ele>
        <time>2020-11-15T22:12:54Z</time>
      </trkpt>
      <trkpt lat="28.6823470" lon="-17.7653180">
        <ele>15.5</ele>
        <time>2020-11-15T22:12:55Z</time>
      </trkpt>
      <trkpt lat="28.6823470" lon="-17.7653180">
        <ele>15.5</ele>
        <time>2020-11-15T22:12:56Z</time>
      </trkpt>
      <trkpt lat="28.6823730" lon="-17.7653370">
        <ele>16.3</ele>
        <time>2020-11-15T22:12:57Z</time>
      </trkpt>
      <trkpt lat="28.6823730" lon="-17.7653370">
        <ele>16.3</ele>
        <time>2020-11-15T22:12:58Z</time>
      </trkpt>
      <trkpt lat="28.6824170" lon="-17.7653300">
        <ele>16.4</ele>
        <time>2020-11-15T22:12:59Z</time>
      </trkpt>
      <trkpt lat="28.6824580" lon="-17.7652970">
        <ele>16.5</ele>
        <time>2020-11-15T22:13:00Z</time>
      </trkpt>
      <trkpt lat="28.6824580" lon="-17.7652970">
        <ele>16.5</ele>
        <time>2020-11-15T22:13:01Z</time>
      </trkpt>
      <trkpt lat="28.6824720" lon="-17.7653330">
        <ele>16.6</ele>
        <time>2020-11-15T22:13:02Z</time>
      </trkpt>
      <trkpt lat="28.6824720" lon="-17.7653330">
        <ele>16.6</ele>
        <time>2020-11-15T22:13:03Z</time>
      </trkpt>
      <trkpt lat="28.6824880" lon="-17.7653450">
        <ele>16.7</ele>
        <time>2020-11-15T22:13:04Z</time>
      </trkpt>
      <trkpt lat="28.6824880" lon="-17.7653450">
        <ele>16.7</ele>
        <time>2020-11-15T22:13:05Z</time>
      </trkpt>
      <trkpt lat="28.6824980" lon="-17.7653500">
        <ele>16.7</ele>
        <time>2020-11-15T22:13:06Z</time>
      </trkpt>
      <trkpt lat="28.6825080" lon="-17.7653400">
        <ele>16.7</ele>
        <time>2020-11-15T22:13:07Z</time>
      </trkpt>
      <trkpt lat="28.6825080" lon="-17.7653400">
        <ele>16.7</ele>
        <time>2020-11-15T22:13:08Z</time>
      </trkpt>
      <trkpt lat="28.6825320" lon="-17.7653220">
        <ele>16.8</ele>
        <time>2020-11-15T22:13:09Z</time>
      </trkpt>
      <trkpt lat="28.6825320" lon="-17.7653220">
        <ele>16.8</ele>
        <time>2020-11-15T22:13:10Z</time>
      </trkpt>
      <trkpt lat="28.6825620" lon="-17.7653050">
        <ele>16.9</ele>
        <time>2020-11-15T22:13:11Z</time>
      </trkpt>
      <trkpt lat="28.6825620" lon="-17.7653050">
        <ele>16.9</ele>
        <time>2020-11-15T22:13:12Z</time>
      </trkpt>
      <trkpt lat="28.6825920" lon="-17.7652830">
        <ele>17.0</ele>
        <time>2020-11-15T22:13:13Z</time>
      </trkpt>
      <trkpt lat="28.6825920" lon="-17.7652830">
        <ele>17.0</ele>
        <time>2020-11-15T22:13:14Z</time>
      </trkpt>
      <trkpt lat="28.6826200" lon="-17.7652550">
        <ele>17.1</ele>
        <time>2020-11-15T22:13:15Z</time>
      </trkpt>
      <trkpt lat="28.6826200" lon="-17.7652550">
        <ele>17.1</ele>
        <time>2020-11-15T22:13:16Z</time>
      </trkpt>
      <trkpt lat="28.6826530" lon="-17.7652330">
        <ele>17.2</ele>
        <time>2020-11-15T22:13:17Z</time>
      </trkpt>
      <trkpt lat="28.6826730" lon="-17.7652270">
        <ele>17.2</ele>
        <time>2020-11-15T22:13:18Z</time>
      </trkpt>
      <trkpt lat="28.6826920" lon="-17.7652180">
        <ele>17.3</ele>
        <time>2020-11-15T22:13:19Z</time>
      </trkpt>
      <trkpt lat="28.6826920" lon="-17.7652180">
        <ele>17.3</ele>
        <time>2020-11-15T22:13:20Z</time>
      </trkpt>
      <trkpt lat="28.6827230" lon="-17.7652020">
        <ele>17.4</ele>
        <time>2020-11-15T22:13:21Z</time>
      </trkpt>
      <trkpt lat="28.6827230" lon="-17.7652020">
        <ele>17.4</ele>
        <time>2020-11-15T22:13:22Z</time>
      </trkpt>
      <trkpt lat="28.6827580" lon="-17.7651730">
        <ele>17.6</ele>
        <time>2020-11-15T22:13:23Z</time>
      </trkpt>
      <trkpt lat="28.6827750" lon="-17.7651570">
        <ele>17.6</ele>
        <time>2020-11-15T22:13:24Z</time>
      </trkpt>
      <trkpt lat="28.6827900" lon="-17.7651400">
        <ele>17.7</ele>
        <time>2020-11-15T22:13:25Z</time>
      </trkpt>
      <trkpt lat="28.6827900" lon="-17.7651400">
        <ele>17.7</ele>
        <time>2020-11-15T22:13:26Z</time>
      </trkpt>
      <trkpt lat="28.6828200" lon="-17.7651080">
        <ele>17.9</ele>
        <time>2020-11-15T22:13:27Z</time>
      </trkpt>
      <trkpt lat="28.6828200" lon="-17.7651080">
        <ele>17.9</ele>
        <time>2020-11-15T22:13:28Z</time>
      </trkpt>
      <trkpt lat="28.6828550" lon="-17.7650850">
        <ele>18.0</ele>
        <time>2020-11-15T22:13:29Z</time>
      </trkpt>
      <trkpt lat="28.6828550" lon="-17.7650850">
        <ele>18.0</ele>
        <time>2020-11-15T22:13:30Z</time>
      </trkpt>
      <trkpt lat="28.6828900" lon="-17.7650620">
        <ele>18.2</ele>
        <time>2020-11-15T22:13:31Z</time>
      </trkpt>
      <trkpt lat="28.6828900" lon="-17.7650620">
        <ele>18.2</ele>
        <time>2020-11-15T22:13:32Z</time>
      </trkpt>
      <trkpt lat="28.6829200" lon="-17.7650320">
        <ele>18.4</ele>
        <time>2020-11-15T22:13:33Z</time>
      </trkpt>
      <trkpt lat="28.6829250" lon="-17.7650250">
        <ele>18.4</ele>
        <time>2020-11-15T22:13:34Z</time>
      </trkpt>
      <trkpt lat="28.6829250" lon="-17.7650250">
        <ele>18.4</ele>
        <time>2020-11-15T22:13:35Z</time>
      </trkpt>
      <trkpt lat="28.6829630" lon="-17.7649830">
        <ele>18.7</ele>
        <time>2020-11-15T22:13:36Z</time>
      </trkpt>
      <trkpt lat="28.6829850" lon="-17.7649680">
        <ele>18.9</ele>
        <time>2020-11-15T22:13:37Z</time>
      </trkpt>
      <trkpt lat="28.6829850" lon="-17.7649680">
        <ele>18.9</ele>
        <time>2020-11-15T22:13:38Z</time>
      </trkpt>
      <trkpt lat="28.6830170" lon="-17.7649270">
        <ele>19.2</ele>
        <time>2020-11-15T22:13:39Z</time>
      </trkpt>
      <trkpt lat="28.6830170" lon="-17.7649270">
        <ele>19.2</ele>
        <time>2020-11-15T22:13:40Z</time>
      </trkpt>
      <trkpt lat="28.6830470" lon="-17.7648850">
        <ele>19.5</ele>
        <time>2020-11-15T22:13:41Z</time>
      </trkpt>
      <trkpt lat="28.6830470" lon="-17.7648850">
        <ele>19.5</ele>
        <time>2020-11-15T22:13:42Z</time>
      </trkpt>
      <trkpt lat="28.6830850" lon="-17.7648550">
        <ele>19.8</ele>
        <time>2020-11-15T22:13:43Z</time>
      </trkpt>
      <trkpt lat="28.6830850" lon="-17.7648550">
        <ele>19.8</ele>
        <time>2020-11-15T22:13:44Z</time>
      </trkpt>
      <trkpt lat="28.6831220" lon="-17.7648300">
        <ele>20.1</ele>
        <time>2020-11-15T22:13:45Z</time>
      </trkpt>
      <trkpt lat="28.6831220" lon="-17.7648300">
        <ele>20.1</ele>
        <time>2020-11-15T22:13:46Z</time>
      </trkpt>
      <trkpt lat="28.6831750" lon="-17.7648270">
        <ele>20.4</ele>
        <time>2020-11-15T22:13:47Z</time>
      </trkpt>
      <trkpt lat="28.6831750" lon="-17.7648270">
        <ele>20.4</ele>
        <time>2020-11-15T22:13:48Z</time>
      </trkpt>
      <trkpt lat="28.6832230" lon="-17.7648230">
        <ele>20.6</ele>
        <time>2020-11-15T22:13:49Z</time>
      </trkpt>
      <trkpt lat="28.6832230" lon="-17.7648230">
        <ele>20.6</ele>
        <time>2020-11-15T22:13:50Z</time>
      </trkpt>
      <trkpt lat="28.6832580" lon="-17.7648070">
        <ele>20.8</ele>
        <time>2020-11-15T22:13:51Z</time>
      </trkpt>
      <trkpt lat="28.6832580" lon="-17.7648070">
        <ele>20.8</ele>
        <time>2020-11-15T22:13:52Z</time>
      </trkpt>
      <trkpt lat="28.6832970" lon="-17.7647730">
        <ele>21.0</ele>
        <time>2020-11-15T22:13:53Z</time>
      </trkpt>
      <trkpt lat="28.6832970" lon="-17.7647730">
        <ele>21.0</ele>
        <time>2020-11-15T22:13:54Z</time>
      </trkpt>
      <trkpt lat="28.6833370" lon="-17.7647370">
        <ele>21.1</ele>
        <time>2020-11-15T22:13:55Z</time>
      </trkpt>
      <trkpt lat="28.6833370" lon="-17.7647370">
        <ele>21.1</ele>
        <time>2020-11-15T22:13:56Z</time>
      </trkpt>
      <trkpt lat="28.6833780" lon="-17.7647100">
        <ele>21.1</ele>
        <time>2020-11-15T22:13:57Z</time>
      </trkpt>
      <trkpt lat="28.6833780" lon="-17.7647100">
        <ele>21.1</ele>
        <time>2020-11-15T22:13:58Z</time>
      </trkpt>
      <trkpt lat="28.6834180" lon="-17.7646800">
        <ele>21.2</ele>
        <time>2020-11-15T22:13:59Z</time>
      </trkpt>
      <trkpt lat="28.6834180" lon="-17.7646800">
        <ele>21.2</ele>
        <time>2020-11-15T22:14:00Z</time>
      </trkpt>
      <trkpt lat="28.6834520" lon="-17.7646500">
        <ele>21.3</ele>
        <time>2020-11-15T22:14:01Z</time>
      </trkpt>
      <trkpt lat="28.6834520" lon="-17.7646500">
        <ele>21.3</ele>
        <time>2020-11-15T22:14:02Z</time>
      </trkpt>
      <trkpt lat="28.6834870" lon="-17.7646270">
        <ele>21.3</ele>
        <time>2020-11-15T22:14:03Z</time>
      </trkpt>
      <trkpt lat="28.6834870" lon="-17.7646270">
        <ele>21.3</ele>
        <time>2020-11-15T22:14:04Z</time>
      </trkpt>
      <trkpt lat="28.6835280" lon="-17.7646000">
        <ele>21.4</ele>
        <time>2020-11-15T22:14:05Z</time>
      </trkpt>
      <trkpt lat="28.6835280" lon="-17.7646000">
        <ele>21.4</ele>
        <time>2020-11-15T22:14:06Z</time>
      </trkpt>
      <trkpt lat="28.6835530" lon="-17.7645680">
        <ele>21.5</ele>
        <time>2020-11-15T22:14:07Z</time>
      </trkpt>
      <trkpt lat="28.6835530" lon="-17.7645680">
        <ele>21.5</ele>
        <time>2020-11-15T22:14:08Z</time>
      </trkpt>
      <trkpt lat="28.6835870" lon="-17.7645330">
        <ele>21.6</ele>
        <time>2020-11-15T22:14:09Z</time>
      </trkpt>
      <trkpt lat="28.6836030" lon="-17.7645100">
        <ele>21.6</ele>
        <time>2020-11-15T22:14:10Z</time>
      </trkpt>
      <trkpt lat="28.6836030" lon="-17.7645100">
        <ele>21.6</ele>
        <time>2020-11-15T22:14:11Z</time>
      </trkpt>
      <trkpt lat="28.6836370" lon="-17.7644720">
        <ele>21.6</ele>
        <time>2020-11-15T22:14:12Z</time>
      </trkpt>
      <trkpt lat="28.6836530" lon="-17.7644530">
        <ele>21.6</ele>
        <time>2020-11-15T22:14:13Z</time>
      </trkpt>
      <trkpt lat="28.6836530" lon="-17.7644530">
        <ele>21.6</ele>
        <time>2020-11-15T22:14:14Z</time>
      </trkpt>
      <trkpt lat="28.6836850" lon="-17.7644120">
        <ele>21.7</ele>
        <time>2020-11-15T22:14:15Z</time>
      </trkpt>
      <trkpt lat="28.6836850" lon="-17.7644120">
        <ele>21.7</ele>
        <time>2020-11-15T22:14:16Z</time>
      </trkpt>
      <trkpt lat="28.6837120" lon="-17.7643730">
        <ele>21.7</ele>
        <time>2020-11-15T22:14:17Z</time>
      </trkpt>
      <trkpt lat="28.6837120" lon="-17.7643730">
        <ele>21.7</ele>
        <time>2020-11-15T22:14:18Z</time>
      </trkpt>
      <trkpt lat="28.6837480" lon="-17.7643420">
        <ele>21.7</ele>
        <time>2020-11-15T22:14:19Z</time>
      </trkpt>
      <trkpt lat="28.6837620" lon="-17.7643200">
        <ele>21.7</ele>
        <time>2020-11-15T22:14:20Z</time>
      </trkpt>
      <trkpt lat="28.6837620" lon="-17.7643200">
        <ele>21.7</ele>
        <time>2020-11-15T22:14:21Z</time>
      </trkpt>
      <trkpt lat="28.6838030" lon="-17.7642830">
        <ele>21.7</ele>
        <time>2020-11-15T22:14:22Z</time>
      </trkpt>
      <trkpt lat="28.6838030" lon="-17.7642830">
        <ele>21.7</ele>
        <time>2020-11-15T22:14:23Z</time>
      </trkpt>
      <trkpt lat="28.6838370" lon="-17.7642430">
        <ele>21.7</ele>
        <time>2020-11-15T22:14:24Z</time>
      </trkpt>
      <trkpt lat="28.6838370" lon="-17.7642430">
        <ele>21.7</ele>
        <time>2020-11-15T22:14:25Z</time>
      </trkpt>
      <trkpt lat="28.6838670" lon="-17.7642030">
        <ele>21.7</ele>
        <time>2020-11-15T22:14:26Z</time>
      </trkpt>
      <trkpt lat="28.6838670" lon="-17.7642030">
        <ele>21.7</ele>
        <time>2020-11-15T22:14:27Z</time>
      </trkpt>
      <trkpt lat="28.6838870" lon="-17.7641620">
        <ele>21.7</ele>
        <time>2020-11-15T22:14:28Z</time>
      </trkpt>
      <trkpt lat="28.6838870" lon="-17.7641620">
        <ele>21.7</ele>
        <time>2020-11-15T22:14:29Z</time>
      </trkpt>
      <trkpt lat="28.6839020" lon="-17.7641170">
        <ele>21.7</ele>
        <time>2020-11-15T22:14:30Z</time>
      </trkpt>
      <trkpt lat="28.6839020" lon="-17.7641170">
        <ele>21.7</ele>
        <time>2020-11-15T22:14:31Z</time>
      </trkpt>
      <trkpt lat="28.6839200" lon="-17.7640820">
        <ele>21.7</ele>
        <time>2020-11-15T22:14:32Z</time>
      </trkpt>
      <trkpt lat="28.6839300" lon="-17.7640670">
        <ele>21.7</ele>
        <time>2020-11-15T22:14:33Z</time>
      </trkpt>
      <trkpt lat="28.6839300" lon="-17.7640670">
        <ele>21.7</ele>
        <time>2020-11-15T22:14:34Z</time>
      </trkpt>
      <trkpt lat="28.6839520" lon="-17.7640370">
        <ele>21.6</ele>
        <time>2020-11-15T22:14:35Z</time>
      </trkpt>
      <trkpt lat="28.6839520" lon="-17.7640370">
        <ele>21.6</ele>
        <time>2020-11-15T22:14:36Z</time>
      </trkpt>
      <trkpt lat="28.6839720" lon="-17.7640020">
        <ele>21.6</ele>
        <time>2020-11-15T22:14:37Z</time>
      </trkpt>
      <trkpt lat="28.6839720" lon="-17.7640020">
        <ele>21.6</ele>
        <time>2020-11-15T22:14:38Z</time>
      </trkpt>
      <trkpt lat="28.6840030" lon="-17.7639580">
        <ele>21.6</ele>
        <time>2020-11-15T22:14:39Z</time>
      </trkpt>
      <trkpt lat="28.6840030" lon="-17.7639580">
        <ele>21.6</ele>
        <time>2020-11-15T22:14:40Z</time>
      </trkpt>
      <trkpt lat="28.6840370" lon="-17.7639170">
        <ele>21.5</ele>
        <time>2020-11-15T22:14:41Z</time>
      </trkpt>
      <trkpt lat="28.6840370" lon="-17.7639170">
        <ele>21.5</ele>
        <time>2020-11-15T22:14:42Z</time>
      </trkpt>
      <trkpt lat="28.6840670" lon="-17.7638770">
        <ele>21.4</ele>
        <time>2020-11-15T22:14:43Z</time>
      </trkpt>
      <trkpt lat="28.6840670" lon="-17.7638770">
        <ele>21.4</ele>
        <time>2020-11-15T22:14:44Z</time>
      </trkpt>
      <trkpt lat="28.6841070" lon="-17.7638400">
        <ele>21.2</ele>
        <time>2020-11-15T22:14:45Z</time>
      </trkpt>
      <trkpt lat="28.6841070" lon="-17.7638400">
        <ele>21.2</ele>
        <time>2020-11-15T22:14:46Z</time>
      </trkpt>
      <trkpt lat="28.6841380" lon="-17.7637880">
        <ele>21.1</ele>
        <time>2020-11-15T22:14:47Z</time>
      </trkpt>
      <trkpt lat="28.6841580" lon="-17.7637720">
        <ele>21.0</ele>
        <time>2020-11-15T22:14:48Z</time>
      </trkpt>
      <trkpt lat="28.6841800" lon="-17.7637570">
        <ele>20.9</ele>
        <time>2020-11-15T22:14:49Z</time>
      </trkpt>
      <trkpt lat="28.6841800" lon="-17.7637570">
        <ele>20.9</ele>
        <time>2020-11-15T22:14:50Z</time>
      </trkpt>
      <trkpt lat="28.6842230" lon="-17.7637180">
        <ele>20.7</ele>
        <time>2020-11-15T22:14:51Z</time>
      </trkpt>
      <trkpt lat="28.6842230" lon="-17.7637180">
        <ele>20.7</ele>
        <time>2020-11-15T22:14:52Z</time>
      </trkpt>
      <trkpt lat="28.6842630" lon="-17.7636850">
        <ele>20.5</ele>
        <time>2020-11-15T22:14:53Z</time>
      </trkpt>
      <trkpt lat="28.6842830" lon="-17.7636680">
        <ele>20.4</ele>
        <time>2020-11-15T22:14:54Z</time>
      </trkpt>
      <trkpt lat="28.6843020" lon="-17.7636500">
        <ele>20.3</ele>
        <time>2020-11-15T22:14:55Z</time>
      </trkpt>
      <trkpt lat="28.6843020" lon="-17.7636500">
        <ele>20.3</ele>
        <time>2020-11-15T22:14:56Z</time>
      </trkpt>
      <trkpt lat="28.6843480" lon="-17.7636170">
        <ele>20.1</ele>
        <time>2020-11-15T22:14:57Z</time>
      </trkpt>
      <trkpt lat="28.6843480" lon="-17.7636170">
        <ele>20.1</ele>
        <time>2020-11-15T22:14:58Z</time>
      </trkpt>
      <trkpt lat="28.6843820" lon="-17.7635670">
        <ele>19.8</ele>
        <time>2020-11-15T22:14:59Z</time>
      </trkpt>
      <trkpt lat="28.6844020" lon="-17.7635450">
        <ele>19.7</ele>
        <time>2020-11-15T22:15:00Z</time>
      </trkpt>
      <trkpt lat="28.6844020" lon="-17.7635450">
        <ele>19.7</ele>
        <time>2020-11-15T22:15:01Z</time>
      </trkpt>
      <trkpt lat="28.6844500" lon="-17.7635120">
        <ele>19.4</ele>
        <time>2020-11-15T22:15:02Z</time>
      </trkpt>
      <trkpt lat="28.6844500" lon="-17.7635120">
        <ele>19.4</ele>
        <time>2020-11-15T22:15:03Z</time>
      </trkpt>
      <trkpt lat="28.6844820" lon="-17.7634680">
        <ele>19.2</ele>
        <time>2020-11-15T22:15:04Z</time>
      </trkpt>
      <trkpt lat="28.6844820" lon="-17.7634680">
        <ele>19.2</ele>
        <time>2020-11-15T22:15:05Z</time>
      </trkpt>
      <trkpt lat="28.6845180" lon="-17.7634270">
        <ele>19.0</ele>
        <time>2020-11-15T22:15:06Z</time>
      </trkpt>
      <trkpt lat="28.6845330" lon="-17.7634020">
        <ele>18.9</ele>
        <time>2020-11-15T22:15:07Z</time>
      </trkpt>
      <trkpt lat="28.6845480" lon="-17.7633750">
        <ele>18.8</ele>
        <time>2020-11-15T22:15:08Z</time>
      </trkpt>
      <trkpt lat="28.6845480" lon="-17.7633750">
        <ele>18.8</ele>
        <time>2020-11-15T22:15:09Z</time>
      </trkpt>
      <trkpt lat="28.6845900" lon="-17.7633380">
        <ele>18.6</ele>
        <time>2020-11-15T22:15:10Z</time>
      </trkpt>
      <trkpt lat="28.6846070" lon="-17.7633100">
        <ele>19.5</ele>
        <time>2020-11-15T22:15:11Z</time>
      </trkpt>
      <trkpt lat="28.6846070" lon="-17.7633100">
        <ele>19.5</ele>
        <time>2020-11-15T22:15:12Z</time>
      </trkpt>
      <trkpt lat="28.6846230" lon="-17.7632280">
        <ele>21.4</ele>
        <time>2020-11-15T22:15:13Z</time>
      </trkpt>
      <trkpt lat="28.6846230" lon="-17.7632280">
        <ele>21.4</ele>
        <time>2020-11-15T22:15:14Z</time>
      </trkpt>
      <trkpt lat="28.6846730" lon="-17.7631900">
        <ele>22.5</ele>
        <time>2020-11-15T22:15:15Z</time>
      </trkpt>
      <trkpt lat="28.6846950" lon="-17.7631680">
        <ele>21.5</ele>
        <time>2020-11-15T22:15:16Z</time>
      </trkpt>
      <trkpt lat="28.6847150" lon="-17.7631430">
        <ele>18.2</ele>
        <time>2020-11-15T22:15:17Z</time>
      </trkpt>
      <trkpt lat="28.6847150" lon="-17.7631430">
        <ele>18.2</ele>
        <time>2020-11-15T22:15:18Z</time>
      </trkpt>
      <trkpt lat="28.6847530" lon="-17.7631050">
        <ele>17.9</ele>
        <time>2020-11-15T22:15:19Z</time>
      </trkpt>
      <trkpt lat="28.6847530" lon="-17.7631050">
        <ele>17.9</ele>
        <time>2020-11-15T22:15:20Z</time>
      </trkpt>
      <trkpt lat="28.6848000" lon="-17.7630720">
        <ele>17.6</ele>
        <time>2020-11-15T22:15:21Z</time>
      </trkpt>
      <trkpt lat="28.6848000" lon="-17.7630720">
        <ele>17.6</ele>
        <time>2020-11-15T22:15:22Z</time>
      </trkpt>
      <trkpt lat="28.6848530" lon="-17.7630550">
        <ele>17.4</ele>
        <time>2020-11-15T22:15:23Z</time>
      </trkpt>
      <trkpt lat="28.6848530" lon="-17.7630550">
        <ele>17.4</ele>
        <time>2020-11-15T22:15:24Z</time>
      </trkpt>
      <trkpt lat="28.6849030" lon="-17.7630330">
        <ele>17.1</ele>
        <time>2020-11-15T22:15:25Z</time>
      </trkpt>
      <trkpt lat="28.6849030" lon="-17.7630330">
        <ele>17.1</ele>
        <time>2020-11-15T22:15:26Z</time>
      </trkpt>
      <trkpt lat="28.6849530" lon="-17.7630050">
        <ele>16.8</ele>
        <time>2020-11-15T22:15:27Z</time>
      </trkpt>
      <trkpt lat="28.6849530" lon="-17.7630050">
        <ele>16.8</ele>
        <time>2020-11-15T22:15:28Z</time>
      </trkpt>
      <trkpt lat="28.6850000" lon="-17.7629700">
        <ele>16.5</ele>
        <time>2020-11-15T22:15:29Z</time>
      </trkpt>
      <trkpt lat="28.6850200" lon="-17.7629500">
        <ele>16.4</ele>
        <time>2020-11-15T22:15:30Z</time>
      </trkpt>
      <trkpt lat="28.6850420" lon="-17.7629330">
        <ele>16.2</ele>
        <time>2020-11-15T22:15:31Z</time>
      </trkpt>
      <trkpt lat="28.6850420" lon="-17.7629330">
        <ele>16.2</ele>
        <time>2020-11-15T22:15:32Z</time>
      </trkpt>
      <trkpt lat="28.6850850" lon="-17.7629050">
        <ele>16.0</ele>
        <time>2020-11-15T22:15:33Z</time>
      </trkpt>
      <trkpt lat="28.6850850" lon="-17.7629050">
        <ele>16.0</ele>
        <time>2020-11-15T22:15:34Z</time>
      </trkpt>
      <trkpt lat="28.6851280" lon="-17.7628770">
        <ele>15.8</ele>
        <time>2020-11-15T22:15:35Z</time>
      </trkpt>
      <trkpt lat="28.6851280" lon="-17.7628770">
        <ele>15.8</ele>
        <time>2020-11-15T22:15:36Z</time>
      </trkpt>
      <trkpt lat="28.6851700" lon="-17.7628480">
        <ele>15.6</ele>
        <time>2020-11-15T22:15:37Z</time>
      </trkpt>
      <trkpt lat="28.6851700" lon="-17.7628480">
        <ele>15.6</ele>
        <time>2020-11-15T22:15:38Z</time>
      </trkpt>
      <trkpt lat="28.6852150" lon="-17.7628200">
        <ele>15.7</ele>
        <time>2020-11-15T22:15:39Z</time>
      </trkpt>
      <trkpt lat="28.6852150" lon="-17.7628200">
        <ele>15.7</ele>
        <time>2020-11-15T22:15:40Z</time>
      </trkpt>
      <trkpt lat="28.6852520" lon="-17.7627870">
        <ele>15.7</ele>
        <time>2020-11-15T22:15:41Z</time>
      </trkpt>
      <trkpt lat="28.6852520" lon="-17.7627870">
        <ele>15.7</ele>
        <time>2020-11-15T22:15:42Z</time>
      </trkpt>
      <trkpt lat="28.6852880" lon="-17.7627570">
        <ele>15.8</ele>
        <time>2020-11-15T22:15:43Z</time>
      </trkpt>
      <trkpt lat="28.6852880" lon="-17.7627570">
        <ele>15.8</ele>
        <time>2020-11-15T22:15:44Z</time>
      </trkpt>
      <trkpt lat="28.6853320" lon="-17.7627180">
        <ele>15.9</ele>
        <time>2020-11-15T22:15:45Z</time>
      </trkpt>
      <trkpt lat="28.6853570" lon="-17.7627050">
        <ele>15.9</ele>
        <time>2020-11-15T22:15:46Z</time>
      </trkpt>
      <trkpt lat="28.6853750" lon="-17.7626930">
        <ele>16.0</ele>
        <time>2020-11-15T22:15:47Z</time>
      </trkpt>
      <trkpt lat="28.6853750" lon="-17.7626930">
        <ele>16.0</ele>
        <time>2020-11-15T22:15:48Z</time>
      </trkpt>
      <trkpt lat="28.6854370" lon="-17.7626900">
        <ele>16.1</ele>
        <time>2020-11-15T22:15:49Z</time>
      </trkpt>
      <trkpt lat="28.6854370" lon="-17.7626900">
        <ele>16.1</ele>
        <time>2020-11-15T22:15:50Z</time>
      </trkpt>
      <trkpt lat="28.6854770" lon="-17.7626570">
        <ele>16.2</ele>
        <time>2020-11-15T22:15:51Z</time>
      </trkpt>
      <trkpt lat="28.6854770" lon="-17.7626570">
        <ele>16.2</ele>
        <time>2020-11-15T22:15:52Z</time>
      </trkpt>
      <trkpt lat="28.6855200" lon="-17.7626300">
        <ele>16.4</ele>
        <time>2020-11-15T22:15:53Z</time>
      </trkpt>
      <trkpt lat="28.6855200" lon="-17.7626300">
        <ele>16.4</ele>
        <time>2020-11-15T22:15:54Z</time>
      </trkpt>
      <trkpt lat="28.6855630" lon="-17.7626100">
        <ele>16.5</ele>
        <time>2020-11-15T22:15:55Z</time>
      </trkpt>
      <trkpt lat="28.6855630" lon="-17.7626100">
        <ele>16.5</ele>
        <time>2020-11-15T22:15:56Z</time>
      </trkpt>
      <trkpt lat="28.6856030" lon="-17.7625830">
        <ele>16.6</ele>
        <time>2020-11-15T22:15:57Z</time>
      </trkpt>
      <trkpt lat="28.6856230" lon="-17.7625700">
        <ele>16.7</ele>
        <time>2020-11-15T22:15:58Z</time>
      </trkpt>
      <trkpt lat="28.6856230" lon="-17.7625700">
        <ele>16.7</ele>
        <time>2020-11-15T22:15:59Z</time>
      </trkpt>
      <trkpt lat="28.6856570" lon="-17.7625370">
        <ele>16.8</ele>
        <time>2020-11-15T22:16:00Z</time>
      </trkpt>
      <trkpt lat="28.6856700" lon="-17.7625170">
        <ele>16.9</ele>
        <time>2020-11-15T22:16:01Z</time>
      </trkpt>
      <trkpt lat="28.6856700" lon="-17.7625170">
        <ele>16.9</ele>
        <time>2020-11-15T22:16:02Z</time>
      </trkpt>
      <trkpt lat="28.6857030" lon="-17.7624800">
        <ele>17.0</ele>
        <time>2020-11-15T22:16:03Z</time>
      </trkpt>
      <trkpt lat="28.6857030" lon="-17.7624800">
        <ele>17.0</ele>
        <time>2020-11-15T22:16:04Z</time>
      </trkpt>
      <trkpt lat="28.6857330" lon="-17.7624450">
        <ele>17.2</ele>
        <time>2020-11-15T22:16:05Z</time>
      </trkpt>
      <trkpt lat="28.6857520" lon="-17.7624330">
        <ele>17.3</ele>
        <time>2020-11-15T22:16:06Z</time>
      </trkpt>
      <trkpt lat="28.6857520" lon="-17.7624330">
        <ele>17.3</ele>
        <time>2020-11-15T22:16:07Z</time>
      </trkpt>
      <trkpt lat="28.6857820" lon="-17.7624000">
        <ele>17.5</ele>
        <time>2020-11-15T22:16:08Z</time>
      </trkpt>
      <trkpt lat="28.6858030" lon="-17.7623820">
        <ele>17.7</ele>
        <time>2020-11-15T22:16:09Z</time>
      </trkpt>
      <trkpt lat="28.6858030" lon="-17.7623820">
        <ele>17.7</ele>
        <time>2020-11-15T22:16:10Z</time>
      </trkpt>
      <trkpt lat="28.6858420" lon="-17.7623480">
        <ele>18.0</ele>
        <time>2020-11-15T22:16:11Z</time>
      </trkpt>
      <trkpt lat="28.6858420" lon="-17.7623480">
        <ele>18.0</ele>
        <time>2020-11-15T22:16:12Z</time>
      </trkpt>
      <trkpt lat="28.6858780" lon="-17.7623150">
        <ele>18.3</ele>
        <time>2020-11-15T22:16:13Z</time>
      </trkpt>
      <trkpt lat="28.6858780" lon="-17.7623150">
        <ele>18.3</ele>
        <time>2020-11-15T22:16:14Z</time>
      </trkpt>
      <trkpt lat="28.6859080" lon="-17.7622850">
        <ele>18.6</ele>
        <time>2020-11-15T22:16:15Z</time>
      </trkpt>
      <trkpt lat="28.6859080" lon="-17.7622850">
        <ele>18.6</ele>
        <time>2020-11-15T22:16:16Z</time>
      </trkpt>
      <trkpt lat="28.6859400" lon="-17.7622420">
        <ele>18.9</ele>
        <time>2020-11-15T22:16:17Z</time>
      </trkpt>
      <trkpt lat="28.6859400" lon="-17.7622420">
        <ele>18.9</ele>
        <time>2020-11-15T22:16:18Z</time>
      </trkpt>
      <trkpt lat="28.6859620" lon="-17.7621930">
        <ele>19.2</ele>
        <time>2020-11-15T22:16:19Z</time>
      </trkpt>
      <trkpt lat="28.6859620" lon="-17.7621930">
        <ele>19.2</ele>
        <time>2020-11-15T22:16:20Z</time>
      </trkpt>
      <trkpt lat="28.6859870" lon="-17.7621550">
        <ele>19.5</ele>
        <time>2020-11-15T22:16:21Z</time>
      </trkpt>
      <trkpt lat="28.6859870" lon="-17.7621550">
        <ele>19.5</ele>
        <time>2020-11-15T22:16:22Z</time>
      </trkpt>
      <trkpt lat="28.6860120" lon="-17.7621180">
        <ele>19.7</ele>
        <time>2020-11-15T22:16:23Z</time>
      </trkpt>
      <trkpt lat="28.6860120" lon="-17.7621180">
        <ele>19.7</ele>
        <time>2020-11-15T22:16:24Z</time>
      </trkpt>
      <trkpt lat="28.6860450" lon="-17.7620830">
        <ele>20.0</ele>
        <time>2020-11-15T22:16:25Z</time>
      </trkpt>
      <trkpt lat="28.6860450" lon="-17.7620830">
        <ele>20.0</ele>
        <time>2020-11-15T22:16:26Z</time>
      </trkpt>
      <trkpt lat="28.6860880" lon="-17.7620580">
        <ele>20.3</ele>
        <time>2020-11-15T22:16:27Z</time>
      </trkpt>
      <trkpt lat="28.6860880" lon="-17.7620580">
        <ele>20.3</ele>
        <time>2020-11-15T22:16:28Z</time>
      </trkpt>
      <trkpt lat="28.6861400" lon="-17.7620500">
        <ele>20.6</ele>
        <time>2020-11-15T22:16:29Z</time>
      </trkpt>
      <trkpt lat="28.6861650" lon="-17.7620470">
        <ele>20.7</ele>
        <time>2020-11-15T22:16:30Z</time>
      </trkpt>
      <trkpt lat="28.6861650" lon="-17.7620470">
        <ele>20.7</ele>
        <time>2020-11-15T22:16:31Z</time>
      </trkpt>
      <trkpt lat="28.6861980" lon="-17.7620230">
        <ele>20.9</ele>
        <time>2020-11-15T22:16:32Z</time>
      </trkpt>
      <trkpt lat="28.6861980" lon="-17.7620230">
        <ele>20.9</ele>
        <time>2020-11-15T22:16:33Z</time>
      </trkpt>
      <trkpt lat="28.6862280" lon="-17.7619900">
        <ele>21.2</ele>
        <time>2020-11-15T22:16:34Z</time>
      </trkpt>
      <trkpt lat="28.6862280" lon="-17.7619900">
        <ele>21.2</ele>
        <time>2020-11-15T22:16:35Z</time>
      </trkpt>
      <trkpt lat="28.6862630" lon="-17.7619600">
        <ele>21.1</ele>
        <time>2020-11-15T22:16:36Z</time>
      </trkpt>
      <trkpt lat="28.6862850" lon="-17.7619450">
        <ele>21.0</ele>
        <time>2020-11-15T22:16:37Z</time>
      </trkpt>
      <trkpt lat="28.6862850" lon="-17.7619450">
        <ele>21.0</ele>
        <time>2020-11-15T22:16:38Z</time>
      </trkpt>
      <trkpt lat="28.6863250" lon="-17.7619120">
        <ele>21.1</ele>
        <time>2020-11-15T22:16:39Z</time>
      </trkpt>
      <trkpt lat="28.6863250" lon="-17.7619120">
        <ele>21.1</ele>
        <time>2020-11-15T22:16:40Z</time>
      </trkpt>
      <trkpt lat="28.6863600" lon="-17.7618800">
        <ele>21.1</ele>
        <time>2020-11-15T22:16:41Z</time>
      </trkpt>
      <trkpt lat="28.6863600" lon="-17.7618800">
        <ele>21.1</ele>
        <time>2020-11-15T22:16:42Z</time>
      </trkpt>
      <trkpt lat="28.6863920" lon="-17.7618320">
        <ele>21.1</ele>
        <time>2020-11-15T22:16:43Z</time>
      </trkpt>
      <trkpt lat="28.6863920" lon="-17.7618320">
        <ele>21.1</ele>
        <time>2020-11-15T22:16:44Z</time>
      </trkpt>
      <trkpt lat="28.6864300" lon="-17.7617800">
        <ele>21.1</ele>
        <time>2020-11-15T22:16:45Z</time>
      </trkpt>
      <trkpt lat="28.6864300" lon="-17.7617800">
        <ele>21.1</ele>
        <time>2020-11-15T22:16:46Z</time>
      </trkpt>
      <trkpt lat="28.6864750" lon="-17.7617330">
        <ele>21.2</ele>
        <time>2020-11-15T22:16:47Z</time>
      </trkpt>
      <trkpt lat="28.6864750" lon="-17.7617330">
        <ele>21.2</ele>
        <time>2020-11-15T22:16:48Z</time>
      </trkpt>
      <trkpt lat="28.6865030" lon="-17.7616770">
        <ele>21.2</ele>
        <time>2020-11-15T22:16:49Z</time>
      </trkpt>
      <trkpt lat="28.6865030" lon="-17.7616770">
        <ele>21.2</ele>
        <time>2020-11-15T22:16:50Z</time>
      </trkpt>
      <trkpt lat="28.6865450" lon="-17.7616400">
        <ele>21.2</ele>
        <time>2020-11-15T22:16:51Z</time>
      </trkpt>
      <trkpt lat="28.6865450" lon="-17.7616400">
        <ele>21.2</ele>
        <time>2020-11-15T22:16:52Z</time>
      </trkpt>
      <trkpt lat="28.6865830" lon="-17.7616030">
        <ele>21.2</ele>
        <time>2020-11-15T22:16:53Z</time>
      </trkpt>
      <trkpt lat="28.6865830" lon="-17.7616030">
        <ele>21.2</ele>
        <time>2020-11-15T22:16:54Z</time>
      </trkpt>
      <trkpt lat="28.6866300" lon="-17.7615700">
        <ele>21.2</ele>
        <time>2020-11-15T22:16:55Z</time>
      </trkpt>
      <trkpt lat="28.6866300" lon="-17.7615700">
        <ele>21.2</ele>
        <time>2020-11-15T22:16:56Z</time>
      </trkpt>
      <trkpt lat="28.6866700" lon="-17.7615370">
        <ele>21.3</ele>
        <time>2020-11-15T22:16:57Z</time>
      </trkpt>
      <trkpt lat="28.6866700" lon="-17.7615370">
        <ele>21.3</ele>
        <time>2020-11-15T22:16:58Z</time>
      </trkpt>
      <trkpt lat="28.6867020" lon="-17.7614970">
        <ele>21.4</ele>
        <time>2020-11-15T22:16:59Z</time>
      </trkpt>
      <trkpt lat="28.6867020" lon="-17.7614970">
        <ele>21.4</ele>
        <time>2020-11-15T22:17:00Z</time>
      </trkpt>
      <trkpt lat="28.6867250" lon="-17.7614520">
        <ele>21.1</ele>
        <time>2020-11-15T22:17:01Z</time>
      </trkpt>
      <trkpt lat="28.6867250" lon="-17.7614520">
        <ele>21.1</ele>
        <time>2020-11-15T22:17:02Z</time>
      </trkpt>
      <trkpt lat="28.6867100" lon="-17.7614150">
        <ele>20.9</ele>
        <time>2020-11-15T22:17:03Z</time>
      </trkpt>
      <trkpt lat="28.6867100" lon="-17.7614150">
        <ele>20.9</ele>
        <time>2020-11-15T22:17:04Z</time>
      </trkpt>
      <trkpt lat="28.6866630" lon="-17.7613850">
        <ele>20.1</ele>
        <time>2020-11-15T22:17:05Z</time>
      </trkpt>
      <trkpt lat="28.6866630" lon="-17.7613850">
        <ele>20.1</ele>
        <time>2020-11-15T22:17:06Z</time>
      </trkpt>
      <trkpt lat="28.6866000" lon="-17.7613450">
        <ele>19.1</ele>
        <time>2020-11-15T22:17:07Z</time>
      </trkpt>
      <trkpt lat="28.6866000" lon="-17.7613450">
        <ele>19.1</ele>
        <time>2020-11-15T22:17:08Z</time>
      </trkpt>
      <trkpt lat="28.6865270" lon="-17.7613100">
        <ele>18.0</ele>
        <time>2020-11-15T22:17:09Z</time>
      </trkpt>
      <trkpt lat="28.6865270" lon="-17.7613100">
        <ele>18.0</ele>
        <time>2020-11-15T22:17:10Z</time>
      </trkpt>
      <trkpt lat="28.6864550" lon="-17.7612680">
        <ele>17.0</ele>
        <time>2020-11-15T22:17:11Z</time>
      </trkpt>
      <trkpt lat="28.6864550" lon="-17.7612680">
        <ele>17.0</ele>
        <time>2020-11-15T22:17:12Z</time>
      </trkpt>
      <trkpt lat="28.6863980" lon="-17.7611830">
        <ele>15.9</ele>
        <time>2020-11-15T22:17:13Z</time>
      </trkpt>
      <trkpt lat="28.6863980" lon="-17.7611830">
        <ele>15.9</ele>
        <time>2020-11-15T22:17:14Z</time>
      </trkpt>
      <trkpt lat="28.6863430" lon="-17.7611330">
        <ele>15.2</ele>
        <time>2020-11-15T22:17:15Z</time>
      </trkpt>
      <trkpt lat="28.6863430" lon="-17.7611330">
        <ele>15.2</ele>
        <time>2020-11-15T22:17:16Z</time>
      </trkpt>
      <trkpt lat="28.6862900" lon="-17.7611020">
        <ele>14.7</ele>
        <time>2020-11-15T22:17:17Z</time>
      </trkpt>
      <trkpt lat="28.6862600" lon="-17.7611000">
        <ele>14.4</ele>
        <time>2020-11-15T22:17:18Z</time>
      </trkpt>
      <trkpt lat="28.6862600" lon="-17.7611000">
        <ele>14.4</ele>
        <time>2020-11-15T22:17:19Z</time>
      </trkpt>
      <trkpt lat="28.6862100" lon="-17.7610850">
        <ele>14.0</ele>
        <time>2020-11-15T22:17:20Z</time>
      </trkpt>
      <trkpt lat="28.6861830" lon="-17.7610680">
        <ele>13.7</ele>
        <time>2020-11-15T22:17:21Z</time>
      </trkpt>
      <trkpt lat="28.6861830" lon="-17.7610680">
        <ele>13.7</ele>
        <time>2020-11-15T22:17:22Z</time>
      </trkpt>
      <trkpt lat="28.6861370" lon="-17.7610330">
        <ele>13.0</ele>
        <time>2020-11-15T22:17:23Z</time>
      </trkpt>
      <trkpt lat="28.6861370" lon="-17.7610330">
        <ele>13.0</ele>
        <time>2020-11-15T22:17:24Z</time>
      </trkpt>
      <trkpt lat="28.6861070" lon="-17.7609770">
        <ele>12.4</ele>
        <time>2020-11-15T22:17:25Z</time>
      </trkpt>
      <trkpt lat="28.6861070" lon="-17.7609770">
        <ele>12.4</ele>
        <time>2020-11-15T22:17:26Z</time>
      </trkpt>
      <trkpt lat="28.6860780" lon="-17.7609570">
        <ele>12.0</ele>
        <time>2020-11-15T22:17:27Z</time>
      </trkpt>
      <trkpt lat="28.6860750" lon="-17.7609400">
        <ele>11.8</ele>
        <time>2020-11-15T22:17:28Z</time>
      </trkpt>
      <trkpt lat="28.6860750" lon="-17.7609400">
        <ele>11.8</ele>
        <time>2020-11-15T22:17:29Z</time>
      </trkpt>
      <trkpt lat="28.6860650" lon="-17.7609120">
        <ele>11.3</ele>
        <time>2020-11-15T22:17:30Z</time>
      </trkpt>
      <trkpt lat="28.6860670" lon="-17.7608970">
        <ele>11.3</ele>
        <time>2020-11-15T22:17:31Z</time>
      </trkpt>
      <trkpt lat="28.6860670" lon="-17.7608970">
        <ele>11.3</ele>
        <time>2020-11-15T22:17:32Z</time>
      </trkpt>
      <trkpt lat="28.6860670" lon="-17.7608380">
        <ele>11.3</ele>
        <time>2020-11-15T22:17:33Z</time>
      </trkpt>
      <trkpt lat="28.6860730" lon="-17.7608000">
        <ele>11.3</ele>
        <time>2020-11-15T22:17:34Z</time>
      </trkpt>
      <trkpt lat="28.6860730" lon="-17.7608000">
        <ele>11.3</ele>
        <time>2020-11-15T22:17:35Z</time>
      </trkpt>
      <trkpt lat="28.6861080" lon="-17.7607230">
        <ele>11.2</ele>
        <time>2020-11-15T22:17:36Z</time>
      </trkpt>
      <trkpt lat="28.6861320" lon="-17.7606830">
        <ele>11.2</ele>
        <time>2020-11-15T22:17:37Z</time>
      </trkpt>
      <trkpt lat="28.6861320" lon="-17.7606830">
        <ele>11.2</ele>
        <time>2020-11-15T22:17:38Z</time>
      </trkpt>
      <trkpt lat="28.6861830" lon="-17.7606050">
        <ele>11.2</ele>
        <time>2020-11-15T22:17:39Z</time>
      </trkpt>
      <trkpt lat="28.6861830" lon="-17.7606050">
        <ele>11.2</ele>
        <time>2020-11-15T22:17:40Z</time>
      </trkpt>
      <trkpt lat="28.6862380" lon="-17.7605230">
        <ele>11.2</ele>
        <time>2020-11-15T22:17:41Z</time>
      </trkpt>
      <trkpt lat="28.6862380" lon="-17.7605230">
        <ele>11.2</ele>
        <time>2020-11-15T22:17:42Z</time>
      </trkpt>
      <trkpt lat="28.6863000" lon="-17.7604430">
        <ele>11.2</ele>
        <time>2020-11-15T22:17:43Z</time>
      </trkpt>
      <trkpt lat="28.6863000" lon="-17.7604430">
        <ele>11.2</ele>
        <time>2020-11-15T22:17:44Z</time>
      </trkpt>
      <trkpt lat="28.6863700" lon="-17.7603670">
        <ele>11.3</ele>
        <time>2020-11-15T22:17:45Z</time>
      </trkpt>
      <trkpt lat="28.6863700" lon="-17.7603670">
        <ele>11.3</ele>
        <time>2020-11-15T22:17:46Z</time>
      </trkpt>
      <trkpt lat="28.6864380" lon="-17.7602880">
        <ele>11.3</ele>
        <time>2020-11-15T22:17:47Z</time>
      </trkpt>
      <trkpt lat="28.6864380" lon="-17.7602880">
        <ele>11.3</ele>
        <time>2020-11-15T22:17:48Z</time>
      </trkpt>
      <trkpt lat="28.6865120" lon="-17.7602150">
        <ele>11.3</ele>
        <time>2020-11-15T22:17:49Z</time>
      </trkpt>
      <trkpt lat="28.6865470" lon="-17.7601770">
        <ele>11.3</ele>
        <time>2020-11-15T22:17:50Z</time>
      </trkpt>
      <trkpt lat="28.6865470" lon="-17.7601770">
        <ele>11.3</ele>
        <time>2020-11-15T22:17:51Z</time>
      </trkpt>
      <trkpt lat="28.6866220" lon="-17.7600980">
        <ele>11.3</ele>
        <time>2020-11-15T22:17:52Z</time>
      </trkpt>
      <trkpt lat="28.6866600" lon="-17.7600620">
        <ele>11.4</ele>
        <time>2020-11-15T22:17:53Z</time>
      </trkpt>
      <trkpt lat="28.6866600" lon="-17.7600620">
        <ele>11.4</ele>
        <time>2020-11-15T22:17:54Z</time>
      </trkpt>
      <trkpt lat="28.6867380" lon="-17.7599930">
        <ele>11.5</ele>
        <time>2020-11-15T22:17:55Z</time>
      </trkpt>
      <trkpt lat="28.6867380" lon="-17.7599930">
        <ele>11.5</ele>
        <time>2020-11-15T22:17:56Z</time>
      </trkpt>
      <trkpt lat="28.6868200" lon="-17.7599330">
        <ele>11.7</ele>
        <time>2020-11-15T22:17:57Z</time>
      </trkpt>
      <trkpt lat="28.6868200" lon="-17.7599330">
        <ele>11.7</ele>
        <time>2020-11-15T22:17:58Z</time>
      </trkpt>
      <trkpt lat="28.6869030" lon="-17.7598770">
        <ele>11.9</ele>
        <time>2020-11-15T22:17:59Z</time>
      </trkpt>
      <trkpt lat="28.6869030" lon="-17.7598770">
        <ele>11.9</ele>
        <time>2020-11-15T22:18:00Z</time>
      </trkpt>
      <trkpt lat="28.6869830" lon="-17.7598280">
        <ele>12.2</ele>
        <time>2020-11-15T22:18:01Z</time>
      </trkpt>
      <trkpt lat="28.6869830" lon="-17.7598280">
        <ele>12.2</ele>
        <time>2020-11-15T22:18:02Z</time>
      </trkpt>
      <trkpt lat="28.6870650" lon="-17.7597820">
        <ele>12.4</ele>
        <time>2020-11-15T22:18:03Z</time>
      </trkpt>
      <trkpt lat="28.6870650" lon="-17.7597820">
        <ele>12.4</ele>
        <time>2020-11-15T22:18:04Z</time>
      </trkpt>
      <trkpt lat="28.6871480" lon="-17.7597420">
        <ele>12.6</ele>
        <time>2020-11-15T22:18:05Z</time>
      </trkpt>
      <trkpt lat="28.6871480" lon="-17.7597420">
        <ele>12.6</ele>
        <time>2020-11-15T22:18:06Z</time>
      </trkpt>
      <trkpt lat="28.6872320" lon="-17.7597080">
        <ele>12.8</ele>
        <time>2020-11-15T22:18:07Z</time>
      </trkpt>
      <trkpt lat="28.6872320" lon="-17.7597080">
        <ele>12.8</ele>
        <time>2020-11-15T22:18:08Z</time>
      </trkpt>
      <trkpt lat="28.6873130" lon="-17.7596820">
        <ele>13.0</ele>
        <time>2020-11-15T22:18:09Z</time>
      </trkpt>
      <trkpt lat="28.6873130" lon="-17.7596820">
        <ele>13.0</ele>
        <time>2020-11-15T22:18:10Z</time>
      </trkpt>
      <trkpt lat="28.6873950" lon="-17.7596600">
        <ele>13.2</ele>
        <time>2020-11-15T22:18:11Z</time>
      </trkpt>
      <trkpt lat="28.6873950" lon="-17.7596600">
        <ele>13.2</ele>
        <time>2020-11-15T22:18:12Z</time>
      </trkpt>
      <trkpt lat="28.6874630" lon="-17.7596450">
        <ele>13.4</ele>
        <time>2020-11-15T22:18:13Z</time>
      </trkpt>
      <trkpt lat="28.6874630" lon="-17.7596450">
        <ele>13.4</ele>
        <time>2020-11-15T22:18:14Z</time>
      </trkpt>
      <trkpt lat="28.6875450" lon="-17.7596280">
        <ele>13.6</ele>
        <time>2020-11-15T22:18:15Z</time>
      </trkpt>
      <trkpt lat="28.6875450" lon="-17.7596280">
        <ele>13.6</ele>
        <time>2020-11-15T22:18:16Z</time>
      </trkpt>
      <trkpt lat="28.6876220" lon="-17.7596070">
        <ele>13.8</ele>
        <time>2020-11-15T22:18:17Z</time>
      </trkpt>
      <trkpt lat="28.6876220" lon="-17.7596070">
        <ele>13.8</ele>
        <time>2020-11-15T22:18:18Z</time>
      </trkpt>
      <trkpt lat="28.6877000" lon="-17.7595980">
        <ele>14.1</ele>
        <time>2020-11-15T22:18:19Z</time>
      </trkpt>
      <trkpt lat="28.6877000" lon="-17.7595980">
        <ele>14.1</ele>
        <time>2020-11-15T22:18:20Z</time>
      </trkpt>
      <trkpt lat="28.6877750" lon="-17.7595780">
        <ele>14.3</ele>
        <time>2020-11-15T22:18:21Z</time>
      </trkpt>
      <trkpt lat="28.6877750" lon="-17.7595780">
        <ele>14.3</ele>
        <time>2020-11-15T22:18:22Z</time>
      </trkpt>
      <trkpt lat="28.6878520" lon="-17.7595650">
        <ele>14.6</ele>
        <time>2020-11-15T22:18:23Z</time>
      </trkpt>
      <trkpt lat="28.6878520" lon="-17.7595650">
        <ele>14.6</ele>
        <time>2020-11-15T22:18:24Z</time>
      </trkpt>
      <trkpt lat="28.6879300" lon="-17.7595620">
        <ele>14.9</ele>
        <time>2020-11-15T22:18:25Z</time>
      </trkpt>
      <trkpt lat="28.6879300" lon="-17.7595620">
        <ele>14.9</ele>
        <time>2020-11-15T22:18:26Z</time>
      </trkpt>
      <trkpt lat="28.6880050" lon="-17.7595720">
        <ele>15.2</ele>
        <time>2020-11-15T22:18:27Z</time>
      </trkpt>
      <trkpt lat="28.6880420" lon="-17.7595800">
        <ele>15.3</ele>
        <time>2020-11-15T22:18:28Z</time>
      </trkpt>
      <trkpt lat="28.6880420" lon="-17.7595800">
        <ele>15.3</ele>
        <time>2020-11-15T22:18:29Z</time>
      </trkpt>
      <trkpt lat="28.6881180" lon="-17.7595850">
        <ele>15.5</ele>
        <time>2020-11-15T22:18:30Z</time>
      </trkpt>
      <trkpt lat="28.6881180" lon="-17.7595850">
        <ele>15.5</ele>
        <time>2020-11-15T22:18:31Z</time>
      </trkpt>
      <trkpt lat="28.6881930" lon="-17.7595920">
        <ele>15.7</ele>
        <time>2020-11-15T22:18:32Z</time>
      </trkpt>
      <trkpt lat="28.6882330" lon="-17.7595970">
        <ele>15.8</ele>
        <time>2020-11-15T22:18:33Z</time>
      </trkpt>
      <trkpt lat="28.6882330" lon="-17.7595970">
        <ele>15.8</ele>
        <time>2020-11-15T22:18:34Z</time>
      </trkpt>
      <trkpt lat="28.6883080" lon="-17.7595950">
        <ele>16.0</ele>
        <time>2020-11-15T22:18:35Z</time>
      </trkpt>
      <trkpt lat="28.6883080" lon="-17.7595950">
        <ele>16.0</ele>
        <time>2020-11-15T22:18:36Z</time>
      </trkpt>
      <trkpt lat="28.6883880" lon="-17.7595970">
        <ele>16.1</ele>
        <time>2020-11-15T22:18:37Z</time>
      </trkpt>
      <trkpt lat="28.6883880" lon="-17.7595970">
        <ele>16.1</ele>
        <time>2020-11-15T22:18:38Z</time>
      </trkpt>
      <trkpt lat="28.6884650" lon="-17.7596000">
        <ele>16.2</ele>
        <time>2020-11-15T22:18:39Z</time>
      </trkpt>
      <trkpt lat="28.6885050" lon="-17.7596020">
        <ele>16.2</ele>
        <time>2020-11-15T22:18:40Z</time>
      </trkpt>
      <trkpt lat="28.6885050" lon="-17.7596020">
        <ele>16.2</ele>
        <time>2020-11-15T22:18:41Z</time>
      </trkpt>
      <trkpt lat="28.6885820" lon="-17.7596120">
        <ele>16.2</ele>
        <time>2020-11-15T22:18:42Z</time>
      </trkpt>
      <trkpt lat="28.6885820" lon="-17.7596120">
        <ele>16.2</ele>
        <time>2020-11-15T22:18:43Z</time>
      </trkpt>
      <trkpt lat="28.6886600" lon="-17.7596180">
        <ele>16.3</ele>
        <time>2020-11-15T22:18:44Z</time>
      </trkpt>
      <trkpt lat="28.6886970" lon="-17.7596270">
        <ele>16.3</ele>
        <time>2020-11-15T22:18:45Z</time>
      </trkpt>
      <trkpt lat="28.6886970" lon="-17.7596270">
        <ele>16.3</ele>
        <time>2020-11-15T22:18:46Z</time>
      </trkpt>
      <trkpt lat="28.6887700" lon="-17.7596530">
        <ele>16.3</ele>
        <time>2020-11-15T22:18:47Z</time>
      </trkpt>
      <trkpt lat="28.6887700" lon="-17.7596530">
        <ele>16.3</ele>
        <time>2020-11-15T22:18:48Z</time>
      </trkpt>
      <trkpt lat="28.6888270" lon="-17.7597050">
        <ele>16.4</ele>
        <time>2020-11-15T22:18:49Z</time>
      </trkpt>
      <trkpt lat="28.6888470" lon="-17.7597300">
        <ele>16.4</ele>
        <time>2020-11-15T22:18:50Z</time>
      </trkpt>
      <trkpt lat="28.6888470" lon="-17.7597300">
        <ele>16.4</ele>
        <time>2020-11-15T22:18:51Z</time>
      </trkpt>
      <trkpt lat="28.6888550" lon="-17.7598070">
        <ele>16.3</ele>
        <time>2020-11-15T22:18:52Z</time>
      </trkpt>
      <trkpt lat="28.6888470" lon="-17.7598470">
        <ele>16.3</ele>
        <time>2020-11-15T22:18:53Z</time>
      </trkpt>
      <trkpt lat="28.6888470" lon="-17.7598470">
        <ele>16.3</ele>
        <time>2020-11-15T22:18:54Z</time>
      </trkpt>
      <trkpt lat="28.6888570" lon="-17.7599220">
        <ele>16.0</ele>
        <time>2020-11-15T22:18:55Z</time>
      </trkpt>
      <trkpt lat="28.6888570" lon="-17.7599220">
        <ele>16.0</ele>
        <time>2020-11-15T22:18:56Z</time>
      </trkpt>
      <trkpt lat="28.6888680" lon="-17.7600000">
        <ele>14.8</ele>
        <time>2020-11-15T22:18:57Z</time>
      </trkpt>
      <trkpt lat="28.6888680" lon="-17.7600000">
        <ele>14.8</ele>
        <time>2020-11-15T22:18:58Z</time>
      </trkpt>
      <trkpt lat="28.6888530" lon="-17.7600720">
        <ele>13.5</ele>
        <time>2020-11-15T22:18:59Z</time>
      </trkpt>
      <trkpt lat="28.6888530" lon="-17.7600720">
        <ele>13.5</ele>
        <time>2020-11-15T22:19:00Z</time>
      </trkpt>
      <trkpt lat="28.6888250" lon="-17.7601350">
        <ele>12.8</ele>
        <time>2020-11-15T22:19:01Z</time>
      </trkpt>
      <trkpt lat="28.6888250" lon="-17.7601350">
        <ele>12.8</ele>
        <time>2020-11-15T22:19:02Z</time>
      </trkpt>
      <trkpt lat="28.6887920" lon="-17.7601950">
        <ele>12.7</ele>
        <time>2020-11-15T22:19:03Z</time>
      </trkpt>
      <trkpt lat="28.6887920" lon="-17.7601950">
        <ele>12.7</ele>
        <time>2020-11-15T22:19:04Z</time>
      </trkpt>
      <trkpt lat="28.6887600" lon="-17.7602530">
        <ele>12.6</ele>
        <time>2020-11-15T22:19:05Z</time>
      </trkpt>
      <trkpt lat="28.6887470" lon="-17.7602770">
        <ele>12.6</ele>
        <time>2020-11-15T22:19:06Z</time>
      </trkpt>
      <trkpt lat="28.6887470" lon="-17.7602770">
        <ele>12.6</ele>
        <time>2020-11-15T22:19:07Z</time>
      </trkpt>
      <trkpt lat="28.6887270" lon="-17.7603150">
        <ele>12.6</ele>
        <time>2020-11-15T22:19:08Z</time>
      </trkpt>
      <trkpt lat="28.6887230" lon="-17.7603320">
        <ele>12.6</ele>
        <time>2020-11-15T22:19:09Z</time>
      </trkpt>
      <trkpt lat="28.6887230" lon="-17.7603320">
        <ele>12.6</ele>
        <time>2020-11-15T22:19:10Z</time>
      </trkpt>
      <trkpt lat="28.6887370" lon="-17.7603570">
        <ele>12.6</ele>
        <time>2020-11-15T22:19:11Z</time>
      </trkpt>
      <trkpt lat="28.6887370" lon="-17.7603570">
        <ele>12.6</ele>
        <time>2020-11-15T22:19:12Z</time>
      </trkpt>
      <trkpt lat="28.6887570" lon="-17.7603350">
        <ele>12.6</ele>
        <time>2020-11-15T22:19:13Z</time>
      </trkpt>
      <trkpt lat="28.6887570" lon="-17.7603350">
        <ele>12.6</ele>
        <time>2020-11-15T22:19:14Z</time>
      </trkpt>
      <trkpt lat="28.6887730" lon="-17.7602870">
        <ele>12.5</ele>
        <time>2020-11-15T22:19:15Z</time>
      </trkpt>
      <trkpt lat="28.6887730" lon="-17.7602870">
        <ele>12.5</ele>
        <time>2020-11-15T22:19:16Z</time>
      </trkpt>
      <trkpt lat="28.6887920" lon="-17.7602330">
        <ele>12.6</ele>
        <time>2020-11-15T22:19:17Z</time>
      </trkpt>
      <trkpt lat="28.6887920" lon="-17.7602330">
        <ele>12.6</ele>
        <time>2020-11-15T22:19:18Z</time>
      </trkpt>
      <trkpt lat="28.6887930" lon="-17.7602170">
        <ele>12.6</ele>
        <time>2020-11-15T22:19:19Z</time>
      </trkpt>
      <trkpt lat="28.6887920" lon="-17.7602150">
        <ele>12.6</ele>
        <time>2020-11-15T22:19:20Z</time>
      </trkpt>
      <trkpt lat="28.6887920" lon="-17.7602150">
        <ele>12.6</ele>
        <time>2020-11-15T22:19:55Z</time>
      </trkpt>
      <trkpt lat="28.6887920" lon="-17.7602150">
        <ele>12.6</ele>
        <time>2020-11-15T22:19:56Z</time>
      </trkpt>
      <trkpt lat="28.6888370" lon="-17.7601400">
        <ele>12.8</ele>
        <time>2020-11-15T22:19:57Z</time>
      </trkpt>
      <trkpt lat="28.6888370" lon="-17.7601400">
        <ele>12.8</ele>
        <time>2020-11-15T22:19:58Z</time>
      </trkpt>
      <trkpt lat="28.6888720" lon="-17.7600800">
        <ele>13.2</ele>
        <time>2020-11-15T22:19:59Z</time>
      </trkpt>
      <trkpt lat="28.6889000" lon="-17.7600520">
        <ele>13.8</ele>
        <time>2020-11-15T22:20:00Z</time>
      </trkpt>
      <trkpt lat="28.6889000" lon="-17.7600520">
        <ele>13.8</ele>
        <time>2020-11-15T22:20:01Z</time>
      </trkpt>
      <trkpt lat="28.6889780" lon="-17.7600070">
        <ele>15.1</ele>
        <time>2020-11-15T22:20:02Z</time>
      </trkpt>
      <trkpt lat="28.6889780" lon="-17.7600070">
        <ele>15.1</ele>
        <time>2020-11-15T22:20:03Z</time>
      </trkpt>
      <trkpt lat="28.6890670" lon="-17.7599770">
        <ele>16.5</ele>
        <time>2020-11-15T22:20:04Z</time>
      </trkpt>
      <trkpt lat="28.6891100" lon="-17.7599700">
        <ele>16.5</ele>
        <time>2020-11-15T22:20:05Z</time>
      </trkpt>
      <trkpt lat="28.6891550" lon="-17.7599720">
        <ele>16.5</ele>
        <time>2020-11-15T22:20:06Z</time>
      </trkpt>
      <trkpt lat="28.6891550" lon="-17.7599720">
        <ele>16.5</ele>
        <time>2020-11-15T22:20:07Z</time>
      </trkpt>
      <trkpt lat="28.6892420" lon="-17.7600030">
        <ele>16.6</ele>
        <time>2020-11-15T22:20:08Z</time>
      </trkpt>
      <trkpt lat="28.6892770" lon="-17.7600330">
        <ele>16.6</ele>
        <time>2020-11-15T22:20:09Z</time>
      </trkpt>
      <trkpt lat="28.6892770" lon="-17.7600330">
        <ele>16.6</ele>
        <time>2020-11-15T22:20:10Z</time>
      </trkpt>
      <trkpt lat="28.6893370" lon="-17.7601030">
        <ele>16.7</ele>
        <time>2020-11-15T22:20:11Z</time>
      </trkpt>
      <trkpt lat="28.6893370" lon="-17.7601030">
        <ele>16.7</ele>
        <time>2020-11-15T22:20:12Z</time>
      </trkpt>
      <trkpt lat="28.6893850" lon="-17.7601930">
        <ele>16.7</ele>
        <time>2020-11-15T22:20:13Z</time>
      </trkpt>
      <trkpt lat="28.6893850" lon="-17.7601930">
        <ele>16.7</ele>
        <time>2020-11-15T22:20:14Z</time>
      </trkpt>
      <trkpt lat="28.6894300" lon="-17.7602880">
        <ele>16.9</ele>
        <time>2020-11-15T22:20:15Z</time>
      </trkpt>
      <trkpt lat="28.6894300" lon="-17.7602880">
        <ele>16.9</ele>
        <time>2020-11-15T22:20:16Z</time>
      </trkpt>
      <trkpt lat="28.6894880" lon="-17.7603700">
        <ele>16.9</ele>
        <time>2020-11-15T22:20:17Z</time>
      </trkpt>
      <trkpt lat="28.6895250" lon="-17.7604050">
        <ele>16.9</ele>
        <time>2020-11-15T22:20:18Z</time>
      </trkpt>
      <trkpt lat="28.6895630" lon="-17.7604370">
        <ele>17.0</ele>
        <time>2020-11-15T22:20:19Z</time>
      </trkpt>
      <trkpt lat="28.6895630" lon="-17.7604370">
        <ele>17.0</ele>
        <time>2020-11-15T22:20:20Z</time>
      </trkpt>
      <trkpt lat="28.6896420" lon="-17.7604950">
        <ele>17.1</ele>
        <time>2020-11-15T22:20:21Z</time>
      </trkpt>
      <trkpt lat="28.6896420" lon="-17.7604950">
        <ele>17.1</ele>
        <time>2020-11-15T22:20:22Z</time>
      </trkpt>
      <trkpt lat="28.6897250" lon="-17.7605470">
        <ele>17.4</ele>
        <time>2020-11-15T22:20:23Z</time>
      </trkpt>
      <trkpt lat="28.6897670" lon="-17.7605650">
        <ele>17.5</ele>
        <time>2020-11-15T22:20:24Z</time>
      </trkpt>
      <trkpt lat="28.6897670" lon="-17.7605650">
        <ele>17.5</ele>
        <time>2020-11-15T22:20:25Z</time>
      </trkpt>
      <trkpt lat="28.6898530" lon="-17.7605830">
        <ele>17.8</ele>
        <time>2020-11-15T22:20:26Z</time>
      </trkpt>
      <trkpt lat="28.6898530" lon="-17.7605830">
        <ele>17.8</ele>
        <time>2020-11-15T22:20:27Z</time>
      </trkpt>
      <trkpt lat="28.6899430" lon="-17.7605850">
        <ele>18.0</ele>
        <time>2020-11-15T22:20:28Z</time>
      </trkpt>
      <trkpt lat="28.6899430" lon="-17.7605850">
        <ele>18.0</ele>
        <time>2020-11-15T22:20:29Z</time>
      </trkpt>
      <trkpt lat="28.6900330" lon="-17.7605900">
        <ele>18.3</ele>
        <time>2020-11-15T22:20:30Z</time>
      </trkpt>
      <trkpt lat="28.6900780" lon="-17.7605920">
        <ele>18.4</ele>
        <time>2020-11-15T22:20:31Z</time>
      </trkpt>
      <trkpt lat="28.6900780" lon="-17.7605920">
        <ele>18.4</ele>
        <time>2020-11-15T22:20:32Z</time>
      </trkpt>
      <trkpt lat="28.6901670" lon="-17.7605900">
        <ele>18.7</ele>
        <time>2020-11-15T22:20:33Z</time>
      </trkpt>
      <trkpt lat="28.6902100" lon="-17.7605920">
        <ele>18.9</ele>
        <time>2020-11-15T22:20:34Z</time>
      </trkpt>
      <trkpt lat="28.6902100" lon="-17.7605920">
        <ele>18.9</ele>
        <time>2020-11-15T22:20:35Z</time>
      </trkpt>
      <trkpt lat="28.6902970" lon="-17.7605950">
        <ele>19.3</ele>
        <time>2020-11-15T22:20:36Z</time>
      </trkpt>
      <trkpt lat="28.6903370" lon="-17.7605950">
        <ele>19.5</ele>
        <time>2020-11-15T22:20:37Z</time>
      </trkpt>
      <trkpt lat="28.6903370" lon="-17.7605950">
        <ele>19.5</ele>
        <time>2020-11-15T22:20:38Z</time>
      </trkpt>
      <trkpt lat="28.6904150" lon="-17.7605970">
        <ele>20.0</ele>
        <time>2020-11-15T22:20:39Z</time>
      </trkpt>
      <trkpt lat="28.6904150" lon="-17.7605970">
        <ele>20.0</ele>
        <time>2020-11-15T22:20:40Z</time>
      </trkpt>
      <trkpt lat="28.6904880" lon="-17.7605950">
        <ele>20.3</ele>
        <time>2020-11-15T22:20:41Z</time>
      </trkpt>
      <trkpt lat="28.6904880" lon="-17.7605950">
        <ele>20.3</ele>
        <time>2020-11-15T22:20:42Z</time>
      </trkpt>
      <trkpt lat="28.6905580" lon="-17.7606030">
        <ele>20.8</ele>
        <time>2020-11-15T22:20:43Z</time>
      </trkpt>
      <trkpt lat="28.6905580" lon="-17.7606030">
        <ele>20.8</ele>
        <time>2020-11-15T22:20:44Z</time>
      </trkpt>
      <trkpt lat="28.6906230" lon="-17.7606230">
        <ele>21.3</ele>
        <time>2020-11-15T22:20:45Z</time>
      </trkpt>
      <trkpt lat="28.6906230" lon="-17.7606230">
        <ele>21.3</ele>
        <time>2020-11-15T22:20:46Z</time>
      </trkpt>
      <trkpt lat="28.6906870" lon="-17.7606230">
        <ele>21.8</ele>
        <time>2020-11-15T22:20:47Z</time>
      </trkpt>
      <trkpt lat="28.6907220" lon="-17.7606250">
        <ele>22.1</ele>
        <time>2020-11-15T22:20:48Z</time>
      </trkpt>
      <trkpt lat="28.6907570" lon="-17.7606270">
        <ele>22.4</ele>
        <time>2020-11-15T22:20:49Z</time>
      </trkpt>
      <trkpt lat="28.6907570" lon="-17.7606270">
        <ele>22.4</ele>
        <time>2020-11-15T22:20:50Z</time>
      </trkpt>
      <trkpt lat="28.6908220" lon="-17.7606280">
        <ele>23.0</ele>
        <time>2020-11-15T22:20:51Z</time>
      </trkpt>
      <trkpt lat="28.6908220" lon="-17.7606280">
        <ele>23.0</ele>
        <time>2020-11-15T22:20:52Z</time>
      </trkpt>
      <trkpt lat="28.6908870" lon="-17.7606200">
        <ele>23.5</ele>
        <time>2020-11-15T22:20:53Z</time>
      </trkpt>
      <trkpt lat="28.6908870" lon="-17.7606200">
        <ele>23.5</ele>
        <time>2020-11-15T22:20:54Z</time>
      </trkpt>
      <trkpt lat="28.6909400" lon="-17.7606170">
        <ele>24.0</ele>
        <time>2020-11-15T22:20:55Z</time>
      </trkpt>
      <trkpt lat="28.6909400" lon="-17.7606170">
        <ele>24.0</ele>
        <time>2020-11-15T22:20:56Z</time>
      </trkpt>
      <trkpt lat="28.6909950" lon="-17.7606250">
        <ele>24.5</ele>
        <time>2020-11-15T22:20:57Z</time>
      </trkpt>
      <trkpt lat="28.6909950" lon="-17.7606250">
        <ele>24.5</ele>
        <time>2020-11-15T22:20:58Z</time>
      </trkpt>
      <trkpt lat="28.6910500" lon="-17.7606230">
        <ele>25.1</ele>
        <time>2020-11-15T22:20:59Z</time>
      </trkpt>
      <trkpt lat="28.6910500" lon="-17.7606230">
        <ele>25.1</ele>
        <time>2020-11-15T22:21:00Z</time>
      </trkpt>
      <trkpt lat="28.6911050" lon="-17.7606280">
        <ele>25.6</ele>
        <time>2020-11-15T22:21:01Z</time>
      </trkpt>
      <trkpt lat="28.6911050" lon="-17.7606280">
        <ele>25.6</ele>
        <time>2020-11-15T22:21:02Z</time>
      </trkpt>
      <trkpt lat="28.6911530" lon="-17.7606330">
        <ele>26.0</ele>
        <time>2020-11-15T22:21:03Z</time>
      </trkpt>
      <trkpt lat="28.6911750" lon="-17.7606330">
        <ele>26.2</ele>
        <time>2020-11-15T22:21:04Z</time>
      </trkpt>
      <trkpt lat="28.6911750" lon="-17.7606330">
        <ele>26.2</ele>
        <time>2020-11-15T22:21:05Z</time>
      </trkpt>
      <trkpt lat="28.6912150" lon="-17.7606400">
        <ele>26.6</ele>
        <time>2020-11-15T22:21:06Z</time>
      </trkpt>
      <trkpt lat="28.6912320" lon="-17.7606400">
        <ele>26.8</ele>
        <time>2020-11-15T22:21:07Z</time>
      </trkpt>
      <trkpt lat="28.6912320" lon="-17.7606400">
        <ele>26.8</ele>
        <time>2020-11-15T22:21:08Z</time>
      </trkpt>
      <trkpt lat="28.6912720" lon="-17.7606400">
        <ele>27.1</ele>
        <time>2020-11-15T22:21:09Z</time>
      </trkpt>
      <trkpt lat="28.6912720" lon="-17.7606400">
        <ele>27.1</ele>
        <time>2020-11-15T22:21:10Z</time>
      </trkpt>
      <trkpt lat="28.6913100" lon="-17.7606430">
        <ele>27.5</ele>
        <time>2020-11-15T22:21:11Z</time>
      </trkpt>
      <trkpt lat="28.6913100" lon="-17.7606430">
        <ele>27.5</ele>
        <time>2020-11-15T22:21:12Z</time>
      </trkpt>
      <trkpt lat="28.6913570" lon="-17.7606500">
        <ele>27.9</ele>
        <time>2020-11-15T22:21:13Z</time>
      </trkpt>
      <trkpt lat="28.6913570" lon="-17.7606500">
        <ele>27.9</ele>
        <time>2020-11-15T22:21:14Z</time>
      </trkpt>
      <trkpt lat="28.6913970" lon="-17.7606530">
        <ele>28.2</ele>
        <time>2020-11-15T22:21:15Z</time>
      </trkpt>
      <trkpt lat="28.6913970" lon="-17.7606530">
        <ele>28.2</ele>
        <time>2020-11-15T22:21:16Z</time>
      </trkpt>
      <trkpt lat="28.6914480" lon="-17.7606530">
        <ele>28.7</ele>
        <time>2020-11-15T22:21:17Z</time>
      </trkpt>
      <trkpt lat="28.6914480" lon="-17.7606530">
        <ele>28.7</ele>
        <time>2020-11-15T22:21:18Z</time>
      </trkpt>
      <trkpt lat="28.6914930" lon="-17.7606680">
        <ele>29.1</ele>
        <time>2020-11-15T22:21:19Z</time>
      </trkpt>
      <trkpt lat="28.6915120" lon="-17.7606720">
        <ele>29.2</ele>
        <time>2020-11-15T22:21:20Z</time>
      </trkpt>
      <trkpt lat="28.6915120" lon="-17.7606720">
        <ele>29.2</ele>
        <time>2020-11-15T22:21:21Z</time>
      </trkpt>
      <trkpt lat="28.6915480" lon="-17.7606820">
        <ele>29.5</ele>
        <time>2020-11-15T22:21:22Z</time>
      </trkpt>
      <trkpt lat="28.6915480" lon="-17.7606820">
        <ele>29.5</ele>
        <time>2020-11-15T22:21:23Z</time>
      </trkpt>
      <trkpt lat="28.6915870" lon="-17.7606870">
        <ele>29.9</ele>
        <time>2020-11-15T22:21:24Z</time>
      </trkpt>
      <trkpt lat="28.6916080" lon="-17.7606850">
        <ele>30.1</ele>
        <time>2020-11-15T22:21:25Z</time>
      </trkpt>
      <trkpt lat="28.6916080" lon="-17.7606850">
        <ele>30.1</ele>
        <time>2020-11-15T22:21:26Z</time>
      </trkpt>
      <trkpt lat="28.6916550" lon="-17.7606950">
        <ele>30.5</ele>
        <time>2020-11-15T22:21:27Z</time>
      </trkpt>
      <trkpt lat="28.6916550" lon="-17.7606950">
        <ele>30.5</ele>
        <time>2020-11-15T22:21:28Z</time>
      </trkpt>
      <trkpt lat="28.6916980" lon="-17.7607030">
        <ele>30.8</ele>
        <time>2020-11-15T22:21:29Z</time>
      </trkpt>
      <trkpt lat="28.6916980" lon="-17.7607030">
        <ele>30.8</ele>
        <time>2020-11-15T22:21:30Z</time>
      </trkpt>
      <trkpt lat="28.6917380" lon="-17.7607130">
        <ele>31.2</ele>
        <time>2020-11-15T22:21:31Z</time>
      </trkpt>
      <trkpt lat="28.6917380" lon="-17.7607130">
        <ele>31.2</ele>
        <time>2020-11-15T22:21:32Z</time>
      </trkpt>
      <trkpt lat="28.6917770" lon="-17.7607130">
        <ele>31.6</ele>
        <time>2020-11-15T22:21:33Z</time>
      </trkpt>
      <trkpt lat="28.6917770" lon="-17.7607130">
        <ele>31.6</ele>
        <time>2020-11-15T22:21:34Z</time>
      </trkpt>
      <trkpt lat="28.6918150" lon="-17.7607100">
        <ele>31.9</ele>
        <time>2020-11-15T22:21:35Z</time>
      </trkpt>
      <trkpt lat="28.6918150" lon="-17.7607100">
        <ele>31.9</ele>
        <time>2020-11-15T22:21:36Z</time>
      </trkpt>
      <trkpt lat="28.6918570" lon="-17.7607070">
        <ele>32.4</ele>
        <time>2020-11-15T22:21:37Z</time>
      </trkpt>
      <trkpt lat="28.6918770" lon="-17.7607070">
        <ele>32.5</ele>
        <time>2020-11-15T22:21:38Z</time>
      </trkpt>
      <trkpt lat="28.6918770" lon="-17.7607070">
        <ele>32.5</ele>
        <time>2020-11-15T22:21:39Z</time>
      </trkpt>
      <trkpt lat="28.6919180" lon="-17.7607080">
        <ele>32.9</ele>
        <time>2020-11-15T22:21:40Z</time>
      </trkpt>
      <trkpt lat="28.6919370" lon="-17.7607100">
        <ele>33.1</ele>
        <time>2020-11-15T22:21:41Z</time>
      </trkpt>
      <trkpt lat="28.6919370" lon="-17.7607100">
        <ele>33.1</ele>
        <time>2020-11-15T22:21:42Z</time>
      </trkpt>
      <trkpt lat="28.6919770" lon="-17.7607000">
        <ele>33.5</ele>
        <time>2020-11-15T22:21:43Z</time>
      </trkpt>
      <trkpt lat="28.6919770" lon="-17.7607000">
        <ele>33.5</ele>
        <time>2020-11-15T22:21:44Z</time>
      </trkpt>
      <trkpt lat="28.6920180" lon="-17.7607030">
        <ele>33.9</ele>
        <time>2020-11-15T22:21:45Z</time>
      </trkpt>
      <trkpt lat="28.6920180" lon="-17.7607030">
        <ele>33.9</ele>
        <time>2020-11-15T22:21:46Z</time>
      </trkpt>
      <trkpt lat="28.6920580" lon="-17.7606900">
        <ele>34.4</ele>
        <time>2020-11-15T22:21:47Z</time>
      </trkpt>
      <trkpt lat="28.6920580" lon="-17.7606900">
        <ele>34.4</ele>
        <time>2020-11-15T22:21:48Z</time>
      </trkpt>
      <trkpt lat="28.6921030" lon="-17.7606780">
        <ele>34.8</ele>
        <time>2020-11-15T22:21:49Z</time>
      </trkpt>
      <trkpt lat="28.6921030" lon="-17.7606780">
        <ele>34.8</ele>
        <time>2020-11-15T22:21:50Z</time>
      </trkpt>
      <trkpt lat="28.6921480" lon="-17.7606680">
        <ele>35.3</ele>
        <time>2020-11-15T22:21:51Z</time>
      </trkpt>
      <trkpt lat="28.6921720" lon="-17.7606600">
        <ele>35.6</ele>
        <time>2020-11-15T22:21:52Z</time>
      </trkpt>
      <trkpt lat="28.6921720" lon="-17.7606600">
        <ele>35.6</ele>
        <time>2020-11-15T22:21:53Z</time>
      </trkpt>
      <trkpt lat="28.6922130" lon="-17.7606480">
        <ele>36.0</ele>
        <time>2020-11-15T22:21:54Z</time>
      </trkpt>
      <trkpt lat="28.6922130" lon="-17.7606480">
        <ele>36.0</ele>
        <time>2020-11-15T22:21:55Z</time>
      </trkpt>
      <trkpt lat="28.6922570" lon="-17.7606430">
        <ele>36.5</ele>
        <time>2020-11-15T22:21:56Z</time>
      </trkpt>
      <trkpt lat="28.6922570" lon="-17.7606430">
        <ele>36.5</ele>
        <time>2020-11-15T22:21:57Z</time>
      </trkpt>
      <trkpt lat="28.6922980" lon="-17.7606470">
        <ele>36.9</ele>
        <time>2020-11-15T22:21:58Z</time>
      </trkpt>
      <trkpt lat="28.6923200" lon="-17.7606500">
        <ele>37.1</ele>
        <time>2020-11-15T22:21:59Z</time>
      </trkpt>
      <trkpt lat="28.6923200" lon="-17.7606500">
        <ele>37.1</ele>
        <time>2020-11-15T22:22:00Z</time>
      </trkpt>
      <trkpt lat="28.6923630" lon="-17.7606570">
        <ele>37.6</ele>
        <time>2020-11-15T22:22:01Z</time>
      </trkpt>
      <trkpt lat="28.6923630" lon="-17.7606570">
        <ele>37.6</ele>
        <time>2020-11-15T22:22:02Z</time>
      </trkpt>
      <trkpt lat="28.6924080" lon="-17.7606720">
        <ele>38.0</ele>
        <time>2020-11-15T22:22:03Z</time>
      </trkpt>
      <trkpt lat="28.6924080" lon="-17.7606720">
        <ele>38.0</ele>
        <time>2020-11-15T22:22:04Z</time>
      </trkpt>
      <trkpt lat="28.6924500" lon="-17.7606900">
        <ele>38.5</ele>
        <time>2020-11-15T22:22:05Z</time>
      </trkpt>
      <trkpt lat="28.6924500" lon="-17.7606900">
        <ele>38.5</ele>
        <time>2020-11-15T22:22:06Z</time>
      </trkpt>
      <trkpt lat="28.6924950" lon="-17.7607000">
        <ele>38.9</ele>
        <time>2020-11-15T22:22:07Z</time>
      </trkpt>
      <trkpt lat="28.6924950" lon="-17.7607000">
        <ele>38.9</ele>
        <time>2020-11-15T22:22:08Z</time>
      </trkpt>
      <trkpt lat="28.6925400" lon="-17.7607080">
        <ele>39.4</ele>
        <time>2020-11-15T22:22:09Z</time>
      </trkpt>
      <trkpt lat="28.6925620" lon="-17.7607130">
        <ele>39.6</ele>
        <time>2020-11-15T22:22:10Z</time>
      </trkpt>
      <trkpt lat="28.6925620" lon="-17.7607130">
        <ele>39.6</ele>
        <time>2020-11-15T22:22:11Z</time>
      </trkpt>
      <trkpt lat="28.6926020" lon="-17.7607280">
        <ele>40.0</ele>
        <time>2020-11-15T22:22:12Z</time>
      </trkpt>
      <trkpt lat="28.6926020" lon="-17.7607280">
        <ele>40.0</ele>
        <time>2020-11-15T22:22:13Z</time>
      </trkpt>
      <trkpt lat="28.6926370" lon="-17.7607550">
        <ele>40.4</ele>
        <time>2020-11-15T22:22:14Z</time>
      </trkpt>
      <trkpt lat="28.6926570" lon="-17.7607670">
        <ele>40.6</ele>
        <time>2020-11-15T22:22:15Z</time>
      </trkpt>
      <trkpt lat="28.6926570" lon="-17.7607670">
        <ele>40.6</ele>
        <time>2020-11-15T22:22:16Z</time>
      </trkpt>
      <trkpt lat="28.6926970" lon="-17.7607850">
        <ele>41.0</ele>
        <time>2020-11-15T22:22:17Z</time>
      </trkpt>
      <trkpt lat="28.6926970" lon="-17.7607850">
        <ele>41.0</ele>
        <time>2020-11-15T22:22:18Z</time>
      </trkpt>
      <trkpt lat="28.6927370" lon="-17.7608050">
        <ele>41.5</ele>
        <time>2020-11-15T22:22:19Z</time>
      </trkpt>
      <trkpt lat="28.6927370" lon="-17.7608050">
        <ele>41.5</ele>
        <time>2020-11-15T22:22:20Z</time>
      </trkpt>
      <trkpt lat="28.6927770" lon="-17.7608250">
        <ele>41.9</ele>
        <time>2020-11-15T22:22:21Z</time>
      </trkpt>
      <trkpt lat="28.6927770" lon="-17.7608250">
        <ele>41.9</ele>
        <time>2020-11-15T22:22:22Z</time>
      </trkpt>
      <trkpt lat="28.6928150" lon="-17.7608480">
        <ele>42.3</ele>
        <time>2020-11-15T22:22:23Z</time>
      </trkpt>
      <trkpt lat="28.6928150" lon="-17.7608480">
        <ele>42.3</ele>
        <time>2020-11-15T22:22:24Z</time>
      </trkpt>
      <trkpt lat="28.6928470" lon="-17.7608800">
        <ele>42.8</ele>
        <time>2020-11-15T22:22:25Z</time>
      </trkpt>
      <trkpt lat="28.6928470" lon="-17.7608800">
        <ele>42.8</ele>
        <time>2020-11-15T22:22:26Z</time>
      </trkpt>
      <trkpt lat="28.6928850" lon="-17.7608970">
        <ele>43.2</ele>
        <time>2020-11-15T22:22:27Z</time>
      </trkpt>
      <trkpt lat="28.6928850" lon="-17.7608970">
        <ele>43.2</ele>
        <time>2020-11-15T22:22:28Z</time>
      </trkpt>
      <trkpt lat="28.6929170" lon="-17.7609230">
        <ele>43.6</ele>
        <time>2020-11-15T22:22:29Z</time>
      </trkpt>
      <trkpt lat="28.6929330" lon="-17.7609330">
        <ele>43.8</ele>
        <time>2020-11-15T22:22:30Z</time>
      </trkpt>
      <trkpt lat="28.6929330" lon="-17.7609330">
        <ele>43.8</ele>
        <time>2020-11-15T22:22:31Z</time>
      </trkpt>
      <trkpt lat="28.6929680" lon="-17.7609570">
        <ele>44.2</ele>
        <time>2020-11-15T22:22:32Z</time>
      </trkpt>
      <trkpt lat="28.6929830" lon="-17.7609700">
        <ele>44.4</ele>
        <time>2020-11-15T22:22:33Z</time>
      </trkpt>
      <trkpt lat="28.6929830" lon="-17.7609700">
        <ele>44.4</ele>
        <time>2020-11-15T22:22:34Z</time>
      </trkpt>
      <trkpt lat="28.6930170" lon="-17.7609930">
        <ele>44.9</ele>
        <time>2020-11-15T22:22:35Z</time>
      </trkpt>
      <trkpt lat="28.6930170" lon="-17.7609930">
        <ele>44.9</ele>
        <time>2020-11-15T22:22:36Z</time>
      </trkpt>
      <trkpt lat="28.6930450" lon="-17.7610220">
        <ele>45.3</ele>
        <time>2020-11-15T22:22:37Z</time>
      </trkpt>
      <trkpt lat="28.6930450" lon="-17.7610220">
        <ele>45.3</ele>
        <time>2020-11-15T22:22:38Z</time>
      </trkpt>
      <trkpt lat="28.6930730" lon="-17.7610530">
        <ele>45.7</ele>
        <time>2020-11-15T22:22:39Z</time>
      </trkpt>
      <trkpt lat="28.6930880" lon="-17.7610680">
        <ele>45.9</ele>
        <time>2020-11-15T22:22:40Z</time>
      </trkpt>
      <trkpt lat="28.6930880" lon="-17.7610680">
        <ele>45.9</ele>
        <time>2020-11-15T22:22:41Z</time>
      </trkpt>
      <trkpt lat="28.6931200" lon="-17.7611000">
        <ele>46.3</ele>
        <time>2020-11-15T22:22:42Z</time>
      </trkpt>
      <trkpt lat="28.6931200" lon="-17.7611000">
        <ele>46.3</ele>
        <time>2020-11-15T22:22:43Z</time>
      </trkpt>
      <trkpt lat="28.6931480" lon="-17.7611330">
        <ele>46.7</ele>
        <time>2020-11-15T22:22:44Z</time>
      </trkpt>
      <trkpt lat="28.6931670" lon="-17.7611500">
        <ele>46.9</ele>
        <time>2020-11-15T22:22:45Z</time>
      </trkpt>
      <trkpt lat="28.6931670" lon="-17.7611500">
        <ele>46.9</ele>
        <time>2020-11-15T22:22:46Z</time>
      </trkpt>
      <trkpt lat="28.6931980" lon="-17.7611820">
        <ele>47.3</ele>
        <time>2020-11-15T22:22:47Z</time>
      </trkpt>
      <trkpt lat="28.6931980" lon="-17.7611820">
        <ele>47.3</ele>
        <time>2020-11-15T22:22:48Z</time>
      </trkpt>
      <trkpt lat="28.6932200" lon="-17.7612180">
        <ele>47.7</ele>
        <time>2020-11-15T22:22:49Z</time>
      </trkpt>
      <trkpt lat="28.6932200" lon="-17.7612180">
        <ele>47.7</ele>
        <time>2020-11-15T22:22:50Z</time>
      </trkpt>
      <trkpt lat="28.6932420" lon="-17.7612620">
        <ele>48.1</ele>
        <time>2020-11-15T22:22:51Z</time>
      </trkpt>
      <trkpt lat="28.6932420" lon="-17.7612620">
        <ele>48.1</ele>
        <time>2020-11-15T22:22:52Z</time>
      </trkpt>
      <trkpt lat="28.6932700" lon="-17.7612950">
        <ele>48.4</ele>
        <time>2020-11-15T22:22:53Z</time>
      </trkpt>
      <trkpt lat="28.6932850" lon="-17.7613120">
        <ele>48.6</ele>
        <time>2020-11-15T22:22:54Z</time>
      </trkpt>
      <trkpt lat="28.6932850" lon="-17.7613120">
        <ele>48.6</ele>
        <time>2020-11-15T22:22:55Z</time>
      </trkpt>
      <trkpt lat="28.6933120" lon="-17.7613520">
        <ele>49.0</ele>
        <time>2020-11-15T22:22:56Z</time>
      </trkpt>
      <trkpt lat="28.6933120" lon="-17.7613520">
        <ele>49.0</ele>
        <time>2020-11-15T22:22:57Z</time>
      </trkpt>
      <trkpt lat="28.6933430" lon="-17.7613870">
        <ele>49.4</ele>
        <time>2020-11-15T22:22:58Z</time>
      </trkpt>
      <trkpt lat="28.6933430" lon="-17.7613870">
        <ele>49.4</ele>
        <time>2020-11-15T22:22:59Z</time>
      </trkpt>
      <trkpt lat="28.6933750" lon="-17.7614200">
        <ele>49.8</ele>
        <time>2020-11-15T22:23:00Z</time>
      </trkpt>
      <trkpt lat="28.6933920" lon="-17.7614380">
        <ele>50.0</ele>
        <time>2020-11-15T22:23:01Z</time>
      </trkpt>
      <trkpt lat="28.6933920" lon="-17.7614380">
        <ele>50.0</ele>
        <time>2020-11-15T22:23:02Z</time>
      </trkpt>
      <trkpt lat="28.6934180" lon="-17.7614720">
        <ele>50.4</ele>
        <time>2020-11-15T22:23:03Z</time>
      </trkpt>
      <trkpt lat="28.6934180" lon="-17.7614720">
        <ele>50.4</ele>
        <time>2020-11-15T22:23:04Z</time>
      </trkpt>
      <trkpt lat="28.6934470" lon="-17.7615050">
        <ele>50.8</ele>
        <time>2020-11-15T22:23:05Z</time>
      </trkpt>
      <trkpt lat="28.6934470" lon="-17.7615050">
        <ele>50.8</ele>
        <time>2020-11-15T22:23:06Z</time>
      </trkpt>
      <trkpt lat="28.6934750" lon="-17.7615400">
        <ele>51.2</ele>
        <time>2020-11-15T22:23:07Z</time>
      </trkpt>
      <trkpt lat="28.6934750" lon="-17.7615400">
        <ele>51.2</ele>
        <time>2020-11-15T22:23:08Z</time>
      </trkpt>
      <trkpt lat="28.6935070" lon="-17.7615700">
        <ele>51.7</ele>
        <time>2020-11-15T22:23:09Z</time>
      </trkpt>
      <trkpt lat="28.6935070" lon="-17.7615700">
        <ele>51.7</ele>
        <time>2020-11-15T22:23:10Z</time>
      </trkpt>
      <trkpt lat="28.6935320" lon="-17.7616120">
        <ele>52.1</ele>
        <time>2020-11-15T22:23:11Z</time>
      </trkpt>
      <trkpt lat="28.6935430" lon="-17.7616320">
        <ele>52.3</ele>
        <time>2020-11-15T22:23:12Z</time>
      </trkpt>
      <trkpt lat="28.6935530" lon="-17.7616470">
        <ele>52.5</ele>
        <time>2020-11-15T22:23:13Z</time>
      </trkpt>
      <trkpt lat="28.6935530" lon="-17.7616470">
        <ele>52.5</ele>
        <time>2020-11-15T22:23:14Z</time>
      </trkpt>
      <trkpt lat="28.6935750" lon="-17.7616820">
        <ele>52.9</ele>
        <time>2020-11-15T22:23:15Z</time>
      </trkpt>
      <trkpt lat="28.6935750" lon="-17.7616820">
        <ele>52.9</ele>
        <time>2020-11-15T22:23:16Z</time>
      </trkpt>
      <trkpt lat="28.6935980" lon="-17.7617150">
        <ele>53.3</ele>
        <time>2020-11-15T22:23:17Z</time>
      </trkpt>
      <trkpt lat="28.6935980" lon="-17.7617150">
        <ele>53.3</ele>
        <time>2020-11-15T22:23:18Z</time>
      </trkpt>
      <trkpt lat="28.6936200" lon="-17.7617520">
        <ele>53.7</ele>
        <time>2020-11-15T22:23:19Z</time>
      </trkpt>
      <trkpt lat="28.6936350" lon="-17.7617720">
        <ele>53.9</ele>
        <time>2020-11-15T22:23:20Z</time>
      </trkpt>
      <trkpt lat="28.6936350" lon="-17.7617720">
        <ele>53.9</ele>
        <time>2020-11-15T22:23:21Z</time>
      </trkpt>
      <trkpt lat="28.6936600" lon="-17.7618130">
        <ele>54.3</ele>
        <time>2020-11-15T22:23:22Z</time>
      </trkpt>
      <trkpt lat="28.6936720" lon="-17.7618320">
        <ele>54.5</ele>
        <time>2020-11-15T22:23:23Z</time>
      </trkpt>
      <trkpt lat="28.6936720" lon="-17.7618320">
        <ele>54.5</ele>
        <time>2020-11-15T22:23:24Z</time>
      </trkpt>
      <trkpt lat="28.6936930" lon="-17.7618680">
        <ele>54.9</ele>
        <time>2020-11-15T22:23:25Z</time>
      </trkpt>
      <trkpt lat="28.6937030" lon="-17.7618880">
        <ele>55.1</ele>
        <time>2020-11-15T22:23:26Z</time>
      </trkpt>
      <trkpt lat="28.6937030" lon="-17.7618880">
        <ele>55.1</ele>
        <time>2020-11-15T22:23:27Z</time>
      </trkpt>
      <trkpt lat="28.6937170" lon="-17.7619350">
        <ele>55.5</ele>
        <time>2020-11-15T22:23:28Z</time>
      </trkpt>
      <trkpt lat="28.6937170" lon="-17.7619350">
        <ele>55.5</ele>
        <time>2020-11-15T22:23:29Z</time>
      </trkpt>
      <trkpt lat="28.6937320" lon="-17.7619850">
        <ele>55.9</ele>
        <time>2020-11-15T22:23:30Z</time>
      </trkpt>
      <trkpt lat="28.6937320" lon="-17.7619850">
        <ele>55.9</ele>
        <time>2020-11-15T22:23:31Z</time>
      </trkpt>
      <trkpt lat="28.6937430" lon="-17.7620280">
        <ele>56.2</ele>
        <time>2020-11-15T22:23:32Z</time>
      </trkpt>
      <trkpt lat="28.6937500" lon="-17.7620480">
        <ele>56.4</ele>
        <time>2020-11-15T22:23:33Z</time>
      </trkpt>
      <trkpt lat="28.6937500" lon="-17.7620480">
        <ele>56.4</ele>
        <time>2020-11-15T22:23:34Z</time>
      </trkpt>
      <trkpt lat="28.6937670" lon="-17.7620830">
        <ele>56.7</ele>
        <time>2020-11-15T22:23:35Z</time>
      </trkpt>
      <trkpt lat="28.6937670" lon="-17.7620830">
        <ele>56.7</ele>
        <time>2020-11-15T22:23:36Z</time>
      </trkpt>
      <trkpt lat="28.6937750" lon="-17.7621270">
        <ele>57.1</ele>
        <time>2020-11-15T22:23:37Z</time>
      </trkpt>
      <trkpt lat="28.6937750" lon="-17.7621270">
        <ele>57.1</ele>
        <time>2020-11-15T22:23:38Z</time>
      </trkpt>
      <trkpt lat="28.6937930" lon="-17.7621680">
        <ele>57.4</ele>
        <time>2020-11-15T22:23:39Z</time>
      </trkpt>
      <trkpt lat="28.6937930" lon="-17.7621680">
        <ele>57.4</ele>
        <time>2020-11-15T22:23:40Z</time>
      </trkpt>
      <trkpt lat="28.6938220" lon="-17.7622200">
        <ele>57.8</ele>
        <time>2020-11-15T22:23:41Z</time>
      </trkpt>
      <trkpt lat="28.6938220" lon="-17.7622200">
        <ele>57.8</ele>
        <time>2020-11-15T22:23:42Z</time>
      </trkpt>
      <trkpt lat="28.6938420" lon="-17.7622770">
        <ele>58.2</ele>
        <time>2020-11-15T22:23:43Z</time>
      </trkpt>
      <trkpt lat="28.6938420" lon="-17.7622770">
        <ele>58.2</ele>
        <time>2020-11-15T22:23:44Z</time>
      </trkpt>
      <trkpt lat="28.6938700" lon="-17.7623230">
        <ele>58.6</ele>
        <time>2020-11-15T22:23:45Z</time>
      </trkpt>
      <trkpt lat="28.6938700" lon="-17.7623230">
        <ele>58.6</ele>
        <time>2020-11-15T22:23:46Z</time>
      </trkpt>
      <trkpt lat="28.6938870" lon="-17.7623670">
        <ele>59.0</ele>
        <time>2020-11-15T22:23:47Z</time>
      </trkpt>
      <trkpt lat="28.6938930" lon="-17.7623930">
        <ele>59.2</ele>
        <time>2020-11-15T22:23:48Z</time>
      </trkpt>
      <trkpt lat="28.6938930" lon="-17.7623930">
        <ele>59.2</ele>
        <time>2020-11-15T22:23:49Z</time>
      </trkpt>
      <trkpt lat="28.6939200" lon="-17.7624450">
        <ele>59.6</ele>
        <time>2020-11-15T22:23:50Z</time>
      </trkpt>
      <trkpt lat="28.6939450" lon="-17.7624680">
        <ele>59.9</ele>
        <time>2020-11-15T22:23:51Z</time>
      </trkpt>
      <trkpt lat="28.6939450" lon="-17.7624680">
        <ele>59.9</ele>
        <time>2020-11-15T22:23:52Z</time>
      </trkpt>
      <trkpt lat="28.6939680" lon="-17.7625080">
        <ele>60.2</ele>
        <time>2020-11-15T22:23:53Z</time>
      </trkpt>
      <trkpt lat="28.6939850" lon="-17.7625270">
        <ele>60.4</ele>
        <time>2020-11-15T22:23:54Z</time>
      </trkpt>
      <trkpt lat="28.6940000" lon="-17.7625520">
        <ele>60.7</ele>
        <time>2020-11-15T22:23:55Z</time>
      </trkpt>
      <trkpt lat="28.6940000" lon="-17.7625520">
        <ele>60.7</ele>
        <time>2020-11-15T22:23:56Z</time>
      </trkpt>
      <trkpt lat="28.6940200" lon="-17.7625900">
        <ele>61.0</ele>
        <time>2020-11-15T22:23:57Z</time>
      </trkpt>
      <trkpt lat="28.6940200" lon="-17.7625900">
        <ele>61.0</ele>
        <time>2020-11-15T22:23:58Z</time>
      </trkpt>
      <trkpt lat="28.6940450" lon="-17.7626370">
        <ele>61.4</ele>
        <time>2020-11-15T22:23:59Z</time>
      </trkpt>
      <trkpt lat="28.6940670" lon="-17.7626580">
        <ele>61.7</ele>
        <time>2020-11-15T22:24:00Z</time>
      </trkpt>
      <trkpt lat="28.6940670" lon="-17.7626580">
        <ele>61.7</ele>
        <time>2020-11-15T22:24:01Z</time>
      </trkpt>
      <trkpt lat="28.6940850" lon="-17.7627030">
        <ele>62.1</ele>
        <time>2020-11-15T22:24:02Z</time>
      </trkpt>
      <trkpt lat="28.6940900" lon="-17.7627200">
        <ele>62.2</ele>
        <time>2020-11-15T22:24:03Z</time>
      </trkpt>
      <trkpt lat="28.6940900" lon="-17.7627200">
        <ele>62.2</ele>
        <time>2020-11-15T22:24:04Z</time>
      </trkpt>
      <trkpt lat="28.6941030" lon="-17.7627650">
        <ele>62.5</ele>
        <time>2020-11-15T22:24:05Z</time>
      </trkpt>
      <trkpt lat="28.6941080" lon="-17.7627870">
        <ele>62.7</ele>
        <time>2020-11-15T22:24:06Z</time>
      </trkpt>
      <trkpt lat="28.6941080" lon="-17.7627870">
        <ele>62.7</ele>
        <time>2020-11-15T22:24:07Z</time>
      </trkpt>
      <trkpt lat="28.6941250" lon="-17.7628270">
        <ele>63.0</ele>
        <time>2020-11-15T22:24:08Z</time>
      </trkpt>
      <trkpt lat="28.6941250" lon="-17.7628270">
        <ele>63.0</ele>
        <time>2020-11-15T22:24:09Z</time>
      </trkpt>
      <trkpt lat="28.6941200" lon="-17.7628720">
        <ele>63.2</ele>
        <time>2020-11-15T22:24:10Z</time>
      </trkpt>
      <trkpt lat="28.6941150" lon="-17.7628920">
        <ele>63.4</ele>
        <time>2020-11-15T22:24:11Z</time>
      </trkpt>
      <trkpt lat="28.6941150" lon="-17.7628920">
        <ele>63.4</ele>
        <time>2020-11-15T22:24:12Z</time>
      </trkpt>
      <trkpt lat="28.6940950" lon="-17.7629320">
        <ele>63.6</ele>
        <time>2020-11-15T22:24:13Z</time>
      </trkpt>
      <trkpt lat="28.6941070" lon="-17.7629520">
        <ele>63.7</ele>
        <time>2020-11-15T22:24:14Z</time>
      </trkpt>
      <trkpt lat="28.6941130" lon="-17.7629730">
        <ele>63.8</ele>
        <time>2020-11-15T22:24:15Z</time>
      </trkpt>
      <trkpt lat="28.6941130" lon="-17.7629730">
        <ele>63.8</ele>
        <time>2020-11-15T22:24:16Z</time>
      </trkpt>
      <trkpt lat="28.6941070" lon="-17.7630120">
        <ele>64.0</ele>
        <time>2020-11-15T22:24:17Z</time>
      </trkpt>
      <trkpt lat="28.6941070" lon="-17.7630300">
        <ele>64.2</ele>
        <time>2020-11-15T22:24:18Z</time>
      </trkpt>
      <trkpt lat="28.6941070" lon="-17.7630300">
        <ele>64.2</ele>
        <time>2020-11-15T22:24:19Z</time>
      </trkpt>
      <trkpt lat="28.6941180" lon="-17.7630770">
        <ele>64.5</ele>
        <time>2020-11-15T22:24:20Z</time>
      </trkpt>
      <trkpt lat="28.6941180" lon="-17.7630770">
        <ele>64.5</ele>
        <time>2020-11-15T22:24:21Z</time>
      </trkpt>
      <trkpt lat="28.6941130" lon="-17.7631170">
        <ele>64.8</ele>
        <time>2020-11-15T22:24:22Z</time>
      </trkpt>
      <trkpt lat="28.6941070" lon="-17.7631370">
        <ele>64.9</ele>
        <time>2020-11-15T22:24:23Z</time>
      </trkpt>
      <trkpt lat="28.6941070" lon="-17.7631370">
        <ele>64.9</ele>
        <time>2020-11-15T22:24:24Z</time>
      </trkpt>
      <trkpt lat="28.6941030" lon="-17.7631830">
        <ele>65.2</ele>
        <time>2020-11-15T22:24:25Z</time>
      </trkpt>
      <trkpt lat="28.6941030" lon="-17.7631830">
        <ele>65.2</ele>
        <time>2020-11-15T22:24:26Z</time>
      </trkpt>
      <trkpt lat="28.6941100" lon="-17.7632300">
        <ele>65.5</ele>
        <time>2020-11-15T22:24:27Z</time>
      </trkpt>
      <trkpt lat="28.6941100" lon="-17.7632300">
        <ele>65.5</ele>
        <time>2020-11-15T22:24:28Z</time>
      </trkpt>
      <trkpt lat="28.6940930" lon="-17.7632750">
        <ele>65.9</ele>
        <time>2020-11-15T22:24:29Z</time>
      </trkpt>
      <trkpt lat="28.6940720" lon="-17.7633070">
        <ele>66.1</ele>
        <time>2020-11-15T22:24:30Z</time>
      </trkpt>
      <trkpt lat="28.6940620" lon="-17.7633230">
        <ele>66.3</ele>
        <time>2020-11-15T22:24:31Z</time>
      </trkpt>
      <trkpt lat="28.6940620" lon="-17.7633230">
        <ele>66.3</ele>
        <time>2020-11-15T22:24:32Z</time>
      </trkpt>
      <trkpt lat="28.6940000" lon="-17.7633770">
        <ele>66.8</ele>
        <time>2020-11-15T22:24:33Z</time>
      </trkpt>
      <trkpt lat="28.6940000" lon="-17.7633770">
        <ele>66.8</ele>
        <time>2020-11-15T22:24:34Z</time>
      </trkpt>
      <trkpt lat="28.6940380" lon="-17.7634380">
        <ele>67.2</ele>
        <time>2020-11-15T22:24:35Z</time>
      </trkpt>
      <trkpt lat="28.6940930" lon="-17.7634720">
        <ele>67.3</ele>
        <time>2020-11-15T22:24:36Z</time>
      </trkpt>
      <trkpt lat="28.6940930" lon="-17.7634720">
        <ele>67.3</ele>
        <time>2020-11-15T22:24:37Z</time>
      </trkpt>
      <trkpt lat="28.6941550" lon="-17.7635280">
        <ele>67.4</ele>
        <time>2020-11-15T22:24:38Z</time>
      </trkpt>
      <trkpt lat="28.6941330" lon="-17.7635520">
        <ele>67.4</ele>
        <time>2020-11-15T22:24:39Z</time>
      </trkpt>
      <trkpt lat="28.6941330" lon="-17.7635520">
        <ele>67.4</ele>
        <time>2020-11-15T22:24:40Z</time>
      </trkpt>
      <trkpt lat="28.6941100" lon="-17.7636000">
        <ele>67.7</ele>
        <time>2020-11-15T22:24:41Z</time>
      </trkpt>
      <trkpt lat="28.6941100" lon="-17.7636000">
        <ele>67.7</ele>
        <time>2020-11-15T22:24:42Z</time>
      </trkpt>
      <trkpt lat="28.6940920" lon="-17.7636700">
        <ele>68.1</ele>
        <time>2020-11-15T22:24:43Z</time>
      </trkpt>
      <trkpt lat="28.6940920" lon="-17.7636700">
        <ele>68.1</ele>
        <time>2020-11-15T22:24:44Z</time>
      </trkpt>
      <trkpt lat="28.6940950" lon="-17.7637170">
        <ele>68.4</ele>
        <time>2020-11-15T22:24:45Z</time>
      </trkpt>
      <trkpt lat="28.6940950" lon="-17.7637170">
        <ele>68.4</ele>
        <time>2020-11-15T22:24:46Z</time>
      </trkpt>
      <trkpt lat="28.6941000" lon="-17.7637600">
        <ele>68.6</ele>
        <time>2020-11-15T22:24:47Z</time>
      </trkpt>
      <trkpt lat="28.6941000" lon="-17.7637600">
        <ele>68.6</ele>
        <time>2020-11-15T22:24:48Z</time>
      </trkpt>
      <trkpt lat="28.6941080" lon="-17.7638020">
        <ele>68.9</ele>
        <time>2020-11-15T22:24:49Z</time>
      </trkpt>
      <trkpt lat="28.6941120" lon="-17.7638230">
        <ele>69.0</ele>
        <time>2020-11-15T22:24:50Z</time>
      </trkpt>
      <trkpt lat="28.6941120" lon="-17.7638230">
        <ele>69.0</ele>
        <time>2020-11-15T22:24:51Z</time>
      </trkpt>
      <trkpt lat="28.6941200" lon="-17.7638680">
        <ele>69.3</ele>
        <time>2020-11-15T22:24:52Z</time>
      </trkpt>
      <trkpt lat="28.6941200" lon="-17.7638680">
        <ele>69.3</ele>
        <time>2020-11-15T22:24:53Z</time>
      </trkpt>
      <trkpt lat="28.6941350" lon="-17.7639130">
        <ele>69.6</ele>
        <time>2020-11-15T22:24:54Z</time>
      </trkpt>
      <trkpt lat="28.6941420" lon="-17.7639350">
        <ele>69.8</ele>
        <time>2020-11-15T22:24:55Z</time>
      </trkpt>
      <trkpt lat="28.6941420" lon="-17.7639350">
        <ele>69.8</ele>
        <time>2020-11-15T22:24:56Z</time>
      </trkpt>
      <trkpt lat="28.6941580" lon="-17.7639780">
        <ele>70.0</ele>
        <time>2020-11-15T22:24:57Z</time>
      </trkpt>
      <trkpt lat="28.6941580" lon="-17.7639780">
        <ele>70.0</ele>
        <time>2020-11-15T22:24:58Z</time>
      </trkpt>
      <trkpt lat="28.6941730" lon="-17.7640220">
        <ele>70.3</ele>
        <time>2020-11-15T22:24:59Z</time>
      </trkpt>
      <trkpt lat="28.6941730" lon="-17.7640220">
        <ele>70.3</ele>
        <time>2020-11-15T22:25:00Z</time>
      </trkpt>
      <trkpt lat="28.6941970" lon="-17.7640700">
        <ele>70.7</ele>
        <time>2020-11-15T22:25:01Z</time>
      </trkpt>
      <trkpt lat="28.6942120" lon="-17.7640920">
        <ele>70.9</ele>
        <time>2020-11-15T22:25:02Z</time>
      </trkpt>
      <trkpt lat="28.6942120" lon="-17.7640920">
        <ele>70.9</ele>
        <time>2020-11-15T22:25:03Z</time>
      </trkpt>
      <trkpt lat="28.6942400" lon="-17.7641370">
        <ele>71.3</ele>
        <time>2020-11-15T22:25:04Z</time>
      </trkpt>
      <trkpt lat="28.6942400" lon="-17.7641370">
        <ele>71.3</ele>
        <time>2020-11-15T22:25:05Z</time>
      </trkpt>
      <trkpt lat="28.6942770" lon="-17.7641750">
        <ele>71.7</ele>
        <time>2020-11-15T22:25:06Z</time>
      </trkpt>
      <trkpt lat="28.6942920" lon="-17.7641920">
        <ele>71.9</ele>
        <time>2020-11-15T22:25:07Z</time>
      </trkpt>
      <trkpt lat="28.6942920" lon="-17.7641920">
        <ele>71.9</ele>
        <time>2020-11-15T22:25:08Z</time>
      </trkpt>
      <trkpt lat="28.6943270" lon="-17.7642220">
        <ele>72.2</ele>
        <time>2020-11-15T22:25:09Z</time>
      </trkpt>
      <trkpt lat="28.6943420" lon="-17.7642320">
        <ele>72.4</ele>
        <time>2020-11-15T22:25:10Z</time>
      </trkpt>
      <trkpt lat="28.6943420" lon="-17.7642320">
        <ele>72.4</ele>
        <time>2020-11-15T22:25:11Z</time>
      </trkpt>
      <trkpt lat="28.6943750" lon="-17.7642550">
        <ele>72.7</ele>
        <time>2020-11-15T22:25:12Z</time>
      </trkpt>
      <trkpt lat="28.6943870" lon="-17.7642550">
        <ele>72.8</ele>
        <time>2020-11-15T22:25:13Z</time>
      </trkpt>
      <trkpt lat="28.6943870" lon="-17.7642550">
        <ele>72.8</ele>
        <time>2020-11-15T22:25:14Z</time>
      </trkpt>
      <trkpt lat="28.6944180" lon="-17.7642720">
        <ele>73.1</ele>
        <time>2020-11-15T22:25:15Z</time>
      </trkpt>
      <trkpt lat="28.6944180" lon="-17.7642720">
        <ele>73.1</ele>
        <time>2020-11-15T22:25:16Z</time>
      </trkpt>
      <trkpt lat="28.6944550" lon="-17.7642870">
        <ele>73.4</ele>
        <time>2020-11-15T22:25:17Z</time>
      </trkpt>
      <trkpt lat="28.6944750" lon="-17.7642880">
        <ele>73.5</ele>
        <time>2020-11-15T22:25:18Z</time>
      </trkpt>
      <trkpt lat="28.6944750" lon="-17.7642880">
        <ele>73.5</ele>
        <time>2020-11-15T22:25:19Z</time>
      </trkpt>
      <trkpt lat="28.6945180" lon="-17.7642930">
        <ele>73.9</ele>
        <time>2020-11-15T22:25:20Z</time>
      </trkpt>
      <trkpt lat="28.6945180" lon="-17.7642930">
        <ele>73.9</ele>
        <time>2020-11-15T22:25:21Z</time>
      </trkpt>
      <trkpt lat="28.6945630" lon="-17.7643030">
        <ele>74.2</ele>
        <time>2020-11-15T22:25:22Z</time>
      </trkpt>
      <trkpt lat="28.6945850" lon="-17.7643070">
        <ele>74.4</ele>
        <time>2020-11-15T22:25:23Z</time>
      </trkpt>
      <trkpt lat="28.6945850" lon="-17.7643070">
        <ele>74.4</ele>
        <time>2020-11-15T22:25:24Z</time>
      </trkpt>
      <trkpt lat="28.6946300" lon="-17.7643120">
        <ele>74.7</ele>
        <time>2020-11-15T22:25:25Z</time>
      </trkpt>
      <trkpt lat="28.6946300" lon="-17.7643120">
        <ele>74.7</ele>
        <time>2020-11-15T22:25:26Z</time>
      </trkpt>
      <trkpt lat="28.6946770" lon="-17.7643170">
        <ele>75.1</ele>
        <time>2020-11-15T22:25:27Z</time>
      </trkpt>
      <trkpt lat="28.6946770" lon="-17.7643170">
        <ele>75.1</ele>
        <time>2020-11-15T22:25:28Z</time>
      </trkpt>
      <trkpt lat="28.6947230" lon="-17.7643220">
        <ele>75.4</ele>
        <time>2020-11-15T22:25:29Z</time>
      </trkpt>
      <trkpt lat="28.6947230" lon="-17.7643220">
        <ele>75.4</ele>
        <time>2020-11-15T22:25:30Z</time>
      </trkpt>
      <trkpt lat="28.6947670" lon="-17.7643200">
        <ele>75.7</ele>
        <time>2020-11-15T22:25:31Z</time>
      </trkpt>
      <trkpt lat="28.6947670" lon="-17.7643200">
        <ele>75.7</ele>
        <time>2020-11-15T22:25:32Z</time>
      </trkpt>
      <trkpt lat="28.6948100" lon="-17.7643170">
        <ele>76.0</ele>
        <time>2020-11-15T22:25:33Z</time>
      </trkpt>
      <trkpt lat="28.6948300" lon="-17.7643120">
        <ele>76.2</ele>
        <time>2020-11-15T22:25:34Z</time>
      </trkpt>
      <trkpt lat="28.6948300" lon="-17.7643120">
        <ele>76.2</ele>
        <time>2020-11-15T22:25:35Z</time>
      </trkpt>
      <trkpt lat="28.6948700" lon="-17.7642930">
        <ele>76.5</ele>
        <time>2020-11-15T22:25:36Z</time>
      </trkpt>
      <trkpt lat="28.6948900" lon="-17.7642800">
        <ele>76.7</ele>
        <time>2020-11-15T22:25:37Z</time>
      </trkpt>
      <trkpt lat="28.6948900" lon="-17.7642800">
        <ele>76.7</ele>
        <time>2020-11-15T22:25:38Z</time>
      </trkpt>
      <trkpt lat="28.6949280" lon="-17.7642530">
        <ele>77.0</ele>
        <time>2020-11-15T22:25:39Z</time>
      </trkpt>
      <trkpt lat="28.6949280" lon="-17.7642530">
        <ele>77.0</ele>
        <time>2020-11-15T22:25:40Z</time>
      </trkpt>
      <trkpt lat="28.6949630" lon="-17.7642170">
        <ele>77.3</ele>
        <time>2020-11-15T22:25:41Z</time>
      </trkpt>
      <trkpt lat="28.6949780" lon="-17.7641950">
        <ele>77.5</ele>
        <time>2020-11-15T22:25:42Z</time>
      </trkpt>
      <trkpt lat="28.6949900" lon="-17.7641730">
        <ele>77.7</ele>
        <time>2020-11-15T22:25:43Z</time>
      </trkpt>
      <trkpt lat="28.6949900" lon="-17.7641730">
        <ele>77.8</ele>
        <time>2020-11-15T22:25:44Z</time>
      </trkpt>
      <trkpt lat="28.6950150" lon="-17.7641330">
        <ele>78.1</ele>
        <time>2020-11-15T22:25:45Z</time>
      </trkpt>
      <trkpt lat="28.6950150" lon="-17.7641330">
        <ele>78.1</ele>
        <time>2020-11-15T22:25:46Z</time>
      </trkpt>
      <trkpt lat="28.6950450" lon="-17.7640880">
        <ele>78.5</ele>
        <time>2020-11-15T22:25:47Z</time>
      </trkpt>
      <trkpt lat="28.6950450" lon="-17.7640880">
        <ele>78.5</ele>
        <time>2020-11-15T22:25:48Z</time>
      </trkpt>
      <trkpt lat="28.6950730" lon="-17.7640400">
        <ele>79.0</ele>
        <time>2020-11-15T22:25:49Z</time>
      </trkpt>
      <trkpt lat="28.6950730" lon="-17.7640400">
        <ele>79.0</ele>
        <time>2020-11-15T22:25:50Z</time>
      </trkpt>
      <trkpt lat="28.6951000" lon="-17.7639950">
        <ele>79.4</ele>
        <time>2020-11-15T22:25:51Z</time>
      </trkpt>
      <trkpt lat="28.6951080" lon="-17.7639730">
        <ele>79.6</ele>
        <time>2020-11-15T22:25:52Z</time>
      </trkpt>
      <trkpt lat="28.6951080" lon="-17.7639730">
        <ele>79.6</ele>
        <time>2020-11-15T22:25:53Z</time>
      </trkpt>
      <trkpt lat="28.6951320" lon="-17.7639300">
        <ele>79.9</ele>
        <time>2020-11-15T22:25:54Z</time>
      </trkpt>
      <trkpt lat="28.6951320" lon="-17.7639300">
        <ele>79.9</ele>
        <time>2020-11-15T22:25:55Z</time>
      </trkpt>
      <trkpt lat="28.6951530" lon="-17.7638880">
        <ele>80.3</ele>
        <time>2020-11-15T22:25:56Z</time>
      </trkpt>
      <trkpt lat="28.6951530" lon="-17.7638880">
        <ele>80.3</ele>
        <time>2020-11-15T22:25:57Z</time>
      </trkpt>
      <trkpt lat="28.6951730" lon="-17.7638430">
        <ele>80.7</ele>
        <time>2020-11-15T22:25:58Z</time>
      </trkpt>
      <trkpt lat="28.6951730" lon="-17.7638430">
        <ele>80.7</ele>
        <time>2020-11-15T22:25:59Z</time>
      </trkpt>
      <trkpt lat="28.6951830" lon="-17.7637980">
        <ele>81.1</ele>
        <time>2020-11-15T22:26:00Z</time>
      </trkpt>
      <trkpt lat="28.6951930" lon="-17.7637730">
        <ele>81.3</ele>
        <time>2020-11-15T22:26:01Z</time>
      </trkpt>
      <trkpt lat="28.6951930" lon="-17.7637730">
        <ele>81.3</ele>
        <time>2020-11-15T22:26:02Z</time>
      </trkpt>
      <trkpt lat="28.6952100" lon="-17.7637280">
        <ele>81.7</ele>
        <time>2020-11-15T22:26:03Z</time>
      </trkpt>
      <trkpt lat="28.6952100" lon="-17.7637280">
        <ele>81.7</ele>
        <time>2020-11-15T22:26:04Z</time>
      </trkpt>
      <trkpt lat="28.6952250" lon="-17.7636820">
        <ele>82.1</ele>
        <time>2020-11-15T22:26:05Z</time>
      </trkpt>
      <trkpt lat="28.6952350" lon="-17.7636630">
        <ele>82.3</ele>
        <time>2020-11-15T22:26:06Z</time>
      </trkpt>
      <trkpt lat="28.6952430" lon="-17.7636420">
        <ele>82.5</ele>
        <time>2020-11-15T22:26:07Z</time>
      </trkpt>
      <trkpt lat="28.6952430" lon="-17.7636420">
        <ele>82.5</ele>
        <time>2020-11-15T22:26:08Z</time>
      </trkpt>
      <trkpt lat="28.6952600" lon="-17.7635980">
        <ele>82.9</ele>
        <time>2020-11-15T22:26:09Z</time>
      </trkpt>
      <trkpt lat="28.6952630" lon="-17.7635770">
        <ele>83.0</ele>
        <time>2020-11-15T22:26:10Z</time>
      </trkpt>
      <trkpt lat="28.6952630" lon="-17.7635770">
        <ele>83.0</ele>
        <time>2020-11-15T22:26:11Z</time>
      </trkpt>
      <trkpt lat="28.6952770" lon="-17.7635330">
        <ele>83.4</ele>
        <time>2020-11-15T22:26:12Z</time>
      </trkpt>
      <trkpt lat="28.6952770" lon="-17.7635330">
        <ele>83.4</ele>
        <time>2020-11-15T22:26:13Z</time>
      </trkpt>
      <trkpt lat="28.6952900" lon="-17.7634900">
        <ele>83.8</ele>
        <time>2020-11-15T22:26:14Z</time>
      </trkpt>
      <trkpt lat="28.6952900" lon="-17.7634900">
        <ele>83.8</ele>
        <time>2020-11-15T22:26:15Z</time>
      </trkpt>
      <trkpt lat="28.6953000" lon="-17.7634420">
        <ele>84.1</ele>
        <time>2020-11-15T22:26:16Z</time>
      </trkpt>
      <trkpt lat="28.6953030" lon="-17.7634150">
        <ele>84.4</ele>
        <time>2020-11-15T22:26:17Z</time>
      </trkpt>
      <trkpt lat="28.6953030" lon="-17.7634150">
        <ele>84.4</ele>
        <time>2020-11-15T22:26:18Z</time>
      </trkpt>
      <trkpt lat="28.6953150" lon="-17.7633630">
        <ele>84.8</ele>
        <time>2020-11-15T22:26:19Z</time>
      </trkpt>
      <trkpt lat="28.6953150" lon="-17.7633630">
        <ele>84.8</ele>
        <time>2020-11-15T22:26:20Z</time>
      </trkpt>
      <trkpt lat="28.6953250" lon="-17.7633180">
        <ele>85.1</ele>
        <time>2020-11-15T22:26:21Z</time>
      </trkpt>
      <trkpt lat="28.6953280" lon="-17.7632930">
        <ele>85.3</ele>
        <time>2020-11-15T22:26:22Z</time>
      </trkpt>
      <trkpt lat="28.6953280" lon="-17.7632930">
        <ele>85.3</ele>
        <time>2020-11-15T22:26:23Z</time>
      </trkpt>
      <trkpt lat="28.6953350" lon="-17.7632450">
        <ele>85.7</ele>
        <time>2020-11-15T22:26:24Z</time>
      </trkpt>
      <trkpt lat="28.6953350" lon="-17.7632450">
        <ele>85.7</ele>
        <time>2020-11-15T22:26:25Z</time>
      </trkpt>
      <trkpt lat="28.6953530" lon="-17.7631870">
        <ele>86.3</ele>
        <time>2020-11-15T22:26:26Z</time>
      </trkpt>
      <trkpt lat="28.6953530" lon="-17.7631870">
        <ele>86.3</ele>
        <time>2020-11-15T22:26:27Z</time>
      </trkpt>
      <trkpt lat="28.6953650" lon="-17.7631270">
        <ele>86.8</ele>
        <time>2020-11-15T22:26:28Z</time>
      </trkpt>
      <trkpt lat="28.6953650" lon="-17.7631270">
        <ele>86.8</ele>
        <time>2020-11-15T22:26:29Z</time>
      </trkpt>
      <trkpt lat="28.6953750" lon="-17.7630720">
        <ele>87.2</ele>
        <time>2020-11-15T22:26:30Z</time>
      </trkpt>
      <trkpt lat="28.6953750" lon="-17.7630720">
        <ele>87.2</ele>
        <time>2020-11-15T22:26:31Z</time>
      </trkpt>
      <trkpt lat="28.6953880" lon="-17.7630220">
        <ele>87.7</ele>
        <time>2020-11-15T22:26:32Z</time>
      </trkpt>
      <trkpt lat="28.6953880" lon="-17.7630220">
        <ele>87.7</ele>
        <time>2020-11-15T22:26:33Z</time>
      </trkpt>
      <trkpt lat="28.6954030" lon="-17.7629730">
        <ele>88.1</ele>
        <time>2020-11-15T22:26:34Z</time>
      </trkpt>
      <trkpt lat="28.6954120" lon="-17.7629500">
        <ele>88.3</ele>
        <time>2020-11-15T22:26:35Z</time>
      </trkpt>
      <trkpt lat="28.6954120" lon="-17.7629500">
        <ele>88.3</ele>
        <time>2020-11-15T22:26:36Z</time>
      </trkpt>
      <trkpt lat="28.6954220" lon="-17.7629020">
        <ele>88.7</ele>
        <time>2020-11-15T22:26:37Z</time>
      </trkpt>
      <trkpt lat="28.6954220" lon="-17.7629020">
        <ele>88.7</ele>
        <time>2020-11-15T22:26:38Z</time>
      </trkpt>
      <trkpt lat="28.6954450" lon="-17.7628530">
        <ele>89.1</ele>
        <time>2020-11-15T22:26:39Z</time>
      </trkpt>
      <trkpt lat="28.6954450" lon="-17.7628530">
        <ele>89.1</ele>
        <time>2020-11-15T22:26:40Z</time>
      </trkpt>
      <trkpt lat="28.6954670" lon="-17.7628080">
        <ele>89.4</ele>
        <time>2020-11-15T22:26:41Z</time>
      </trkpt>
      <trkpt lat="28.6954670" lon="-17.7628080">
        <ele>89.4</ele>
        <time>2020-11-15T22:26:42Z</time>
      </trkpt>
      <trkpt lat="28.6954880" lon="-17.7627670">
        <ele>89.8</ele>
        <time>2020-11-15T22:26:43Z</time>
      </trkpt>
      <trkpt lat="28.6954880" lon="-17.7627670">
        <ele>89.8</ele>
        <time>2020-11-15T22:26:44Z</time>
      </trkpt>
      <trkpt lat="28.6955150" lon="-17.7627320">
        <ele>90.1</ele>
        <time>2020-11-15T22:26:45Z</time>
      </trkpt>
      <trkpt lat="28.6955250" lon="-17.7627130">
        <ele>90.3</ele>
        <time>2020-11-15T22:26:46Z</time>
      </trkpt>
      <trkpt lat="28.6955250" lon="-17.7627130">
        <ele>90.3</ele>
        <time>2020-11-15T22:26:47Z</time>
      </trkpt>
      <trkpt lat="28.6955520" lon="-17.7626830">
        <ele>90.6</ele>
        <time>2020-11-15T22:26:48Z</time>
      </trkpt>
      <trkpt lat="28.6955670" lon="-17.7626720">
        <ele>90.8</ele>
        <time>2020-11-15T22:26:49Z</time>
      </trkpt>
      <trkpt lat="28.6955670" lon="-17.7626720">
        <ele>90.8</ele>
        <time>2020-11-15T22:26:50Z</time>
      </trkpt>
      <trkpt lat="28.6955950" lon="-17.7626530">
        <ele>91.0</ele>
        <time>2020-11-15T22:26:51Z</time>
      </trkpt>
      <trkpt lat="28.6955950" lon="-17.7626530">
        <ele>91.0</ele>
        <time>2020-11-15T22:26:52Z</time>
      </trkpt>
      <trkpt lat="28.6956230" lon="-17.7626300">
        <ele>91.2</ele>
        <time>2020-11-15T22:26:53Z</time>
      </trkpt>
      <trkpt lat="28.6956230" lon="-17.7626300">
        <ele>91.2</ele>
        <time>2020-11-15T22:26:54Z</time>
      </trkpt>
      <trkpt lat="28.6956600" lon="-17.7626130">
        <ele>91.3</ele>
        <time>2020-11-15T22:26:55Z</time>
      </trkpt>
      <trkpt lat="28.6956600" lon="-17.7626130">
        <ele>91.3</ele>
        <time>2020-11-15T22:26:56Z</time>
      </trkpt>
      <trkpt lat="28.6957000" lon="-17.7625900">
        <ele>91.6</ele>
        <time>2020-11-15T22:26:57Z</time>
      </trkpt>
      <trkpt lat="28.6957000" lon="-17.7625900">
        <ele>91.6</ele>
        <time>2020-11-15T22:26:58Z</time>
      </trkpt>
      <trkpt lat="28.6957400" lon="-17.7625600">
        <ele>91.8</ele>
        <time>2020-11-15T22:26:59Z</time>
      </trkpt>
      <trkpt lat="28.6957400" lon="-17.7625600">
        <ele>91.8</ele>
        <time>2020-11-15T22:27:00Z</time>
      </trkpt>
      <trkpt lat="28.6957770" lon="-17.7625270">
        <ele>92.3</ele>
        <time>2020-11-15T22:27:01Z</time>
      </trkpt>
      <trkpt lat="28.6957770" lon="-17.7625270">
        <ele>92.3</ele>
        <time>2020-11-15T22:27:02Z</time>
      </trkpt>
      <trkpt lat="28.6958100" lon="-17.7624870">
        <ele>92.7</ele>
        <time>2020-11-15T22:27:03Z</time>
      </trkpt>
      <trkpt lat="28.6958270" lon="-17.7624670">
        <ele>92.9</ele>
        <time>2020-11-15T22:27:04Z</time>
      </trkpt>
      <trkpt lat="28.6958270" lon="-17.7624670">
        <ele>92.9</ele>
        <time>2020-11-15T22:27:05Z</time>
      </trkpt>
      <trkpt lat="28.6958530" lon="-17.7624250">
        <ele>93.2</ele>
        <time>2020-11-15T22:27:06Z</time>
      </trkpt>
      <trkpt lat="28.6958680" lon="-17.7624070">
        <ele>93.4</ele>
        <time>2020-11-15T22:27:07Z</time>
      </trkpt>
      <trkpt lat="28.6958680" lon="-17.7624070">
        <ele>93.4</ele>
        <time>2020-11-15T22:27:08Z</time>
      </trkpt>
      <trkpt lat="28.6958920" lon="-17.7623650">
        <ele>93.8</ele>
        <time>2020-11-15T22:27:09Z</time>
      </trkpt>
      <trkpt lat="28.6958920" lon="-17.7623650">
        <ele>93.8</ele>
        <time>2020-11-15T22:27:10Z</time>
      </trkpt>
      <trkpt lat="28.6959100" lon="-17.7623200">
        <ele>94.1</ele>
        <time>2020-11-15T22:27:11Z</time>
      </trkpt>
      <trkpt lat="28.6959100" lon="-17.7623200">
        <ele>94.1</ele>
        <time>2020-11-15T22:27:12Z</time>
      </trkpt>
      <trkpt lat="28.6959200" lon="-17.7622730">
        <ele>94.5</ele>
        <time>2020-11-15T22:27:13Z</time>
      </trkpt>
      <trkpt lat="28.6959200" lon="-17.7622730">
        <ele>94.5</ele>
        <time>2020-11-15T22:27:14Z</time>
      </trkpt>
      <trkpt lat="28.6959300" lon="-17.7622250">
        <ele>95.0</ele>
        <time>2020-11-15T22:27:15Z</time>
      </trkpt>
      <trkpt lat="28.6959320" lon="-17.7622000">
        <ele>95.2</ele>
        <time>2020-11-15T22:27:16Z</time>
      </trkpt>
      <trkpt lat="28.6959320" lon="-17.7622000">
        <ele>95.2</ele>
        <time>2020-11-15T22:27:17Z</time>
      </trkpt>
      <trkpt lat="28.6959320" lon="-17.7621420">
        <ele>95.7</ele>
        <time>2020-11-15T22:27:18Z</time>
      </trkpt>
      <trkpt lat="28.6959320" lon="-17.7621420">
        <ele>95.7</ele>
        <time>2020-11-15T22:27:19Z</time>
      </trkpt>
      <trkpt lat="28.6959280" lon="-17.7620950">
        <ele>96.1</ele>
        <time>2020-11-15T22:27:20Z</time>
      </trkpt>
      <trkpt lat="28.6959270" lon="-17.7620750">
        <ele>96.3</ele>
        <time>2020-11-15T22:27:21Z</time>
      </trkpt>
      <trkpt lat="28.6959270" lon="-17.7620750">
        <ele>96.3</ele>
        <time>2020-11-15T22:27:22Z</time>
      </trkpt>
      <trkpt lat="28.6959180" lon="-17.7620350">
        <ele>96.7</ele>
        <time>2020-11-15T22:27:23Z</time>
      </trkpt>
      <trkpt lat="28.6959180" lon="-17.7620350">
        <ele>96.7</ele>
        <time>2020-11-15T22:27:24Z</time>
      </trkpt>
      <trkpt lat="28.6959020" lon="-17.7619950">
        <ele>97.1</ele>
        <time>2020-11-15T22:27:25Z</time>
      </trkpt>
      <trkpt lat="28.6959020" lon="-17.7619950">
        <ele>97.1</ele>
        <time>2020-11-15T22:27:26Z</time>
      </trkpt>
      <trkpt lat="28.6958770" lon="-17.7619580">
        <ele>97.2</ele>
        <time>2020-11-15T22:27:27Z</time>
      </trkpt>
      <trkpt lat="28.6958630" lon="-17.7619400">
        <ele>97.3</ele>
        <time>2020-11-15T22:27:28Z</time>
      </trkpt>
      <trkpt lat="28.6958630" lon="-17.7619400">
        <ele>97.3</ele>
        <time>2020-11-15T22:27:29Z</time>
      </trkpt>
      <trkpt lat="28.6958350" lon="-17.7619070">
        <ele>97.4</ele>
        <time>2020-11-15T22:27:30Z</time>
      </trkpt>
      <trkpt lat="28.6958180" lon="-17.7618880">
        <ele>97.4</ele>
        <time>2020-11-15T22:27:31Z</time>
      </trkpt>
      <trkpt lat="28.6958180" lon="-17.7618880">
        <ele>97.4</ele>
        <time>2020-11-15T22:27:32Z</time>
      </trkpt>
      <trkpt lat="28.6957870" lon="-17.7618520">
        <ele>97.6</ele>
        <time>2020-11-15T22:27:33Z</time>
      </trkpt>
      <trkpt lat="28.6957680" lon="-17.7618330">
        <ele>97.6</ele>
        <time>2020-11-15T22:27:34Z</time>
      </trkpt>
      <trkpt lat="28.6957680" lon="-17.7618330">
        <ele>97.6</ele>
        <time>2020-11-15T22:27:35Z</time>
      </trkpt>
      <trkpt lat="28.6957350" lon="-17.7618020">
        <ele>97.7</ele>
        <time>2020-11-15T22:27:36Z</time>
      </trkpt>
      <trkpt lat="28.6957180" lon="-17.7617850">
        <ele>97.8</ele>
        <time>2020-11-15T22:27:37Z</time>
      </trkpt>
      <trkpt lat="28.6957180" lon="-17.7617850">
        <ele>97.8</ele>
        <time>2020-11-15T22:27:38Z</time>
      </trkpt>
      <trkpt lat="28.6956870" lon="-17.7617520">
        <ele>98.2</ele>
        <time>2020-11-15T22:27:39Z</time>
      </trkpt>
      <trkpt lat="28.6956870" lon="-17.7617520">
        <ele>98.2</ele>
        <time>2020-11-15T22:27:40Z</time>
      </trkpt>
      <trkpt lat="28.6956600" lon="-17.7617170">
        <ele>98.6</ele>
        <time>2020-11-15T22:27:41Z</time>
      </trkpt>
      <trkpt lat="28.6956450" lon="-17.7616980">
        <ele>98.8</ele>
        <time>2020-11-15T22:27:42Z</time>
      </trkpt>
      <trkpt lat="28.6956450" lon="-17.7616980">
        <ele>98.8</ele>
        <time>2020-11-15T22:27:43Z</time>
      </trkpt>
      <trkpt lat="28.6956170" lon="-17.7616650">
        <ele>99.2</ele>
        <time>2020-11-15T22:27:44Z</time>
      </trkpt>
      <trkpt lat="28.6956170" lon="-17.7616650">
        <ele>99.2</ele>
        <time>2020-11-15T22:27:45Z</time>
      </trkpt>
      <trkpt lat="28.6955880" lon="-17.7616270">
        <ele>99.7</ele>
        <time>2020-11-15T22:27:46Z</time>
      </trkpt>
      <trkpt lat="28.6955880" lon="-17.7616270">
        <ele>99.7</ele>
        <time>2020-11-15T22:27:47Z</time>
      </trkpt>
      <trkpt lat="28.6955620" lon="-17.7615820">
        <ele>100.1</ele>
        <time>2020-11-15T22:27:48Z</time>
      </trkpt>
      <trkpt lat="28.6955520" lon="-17.7615600">
        <ele>100.3</ele>
        <time>2020-11-15T22:27:49Z</time>
      </trkpt>
      <trkpt lat="28.6955520" lon="-17.7615600">
        <ele>100.3</ele>
        <time>2020-11-15T22:27:50Z</time>
      </trkpt>
      <trkpt lat="28.6955420" lon="-17.7615200">
        <ele>100.7</ele>
        <time>2020-11-15T22:27:51Z</time>
      </trkpt>
      <trkpt lat="28.6955420" lon="-17.7615200">
        <ele>100.7</ele>
        <time>2020-11-15T22:27:52Z</time>
      </trkpt>
      <trkpt lat="28.6955430" lon="-17.7614750">
        <ele>101.1</ele>
        <time>2020-11-15T22:27:53Z</time>
      </trkpt>
      <trkpt lat="28.6955430" lon="-17.7614750">
        <ele>101.1</ele>
        <time>2020-11-15T22:27:54Z</time>
      </trkpt>
      <trkpt lat="28.6955400" lon="-17.7614280">
        <ele>101.4</ele>
        <time>2020-11-15T22:27:55Z</time>
      </trkpt>
      <trkpt lat="28.6955400" lon="-17.7614280">
        <ele>101.4</ele>
        <time>2020-11-15T22:27:56Z</time>
      </trkpt>
      <trkpt lat="28.6955380" lon="-17.7613770">
        <ele>101.9</ele>
        <time>2020-11-15T22:27:57Z</time>
      </trkpt>
      <trkpt lat="28.6955380" lon="-17.7613770">
        <ele>101.9</ele>
        <time>2020-11-15T22:27:58Z</time>
      </trkpt>
      <trkpt lat="28.6955380" lon="-17.7613270">
        <ele>102.3</ele>
        <time>2020-11-15T22:27:59Z</time>
      </trkpt>
      <trkpt lat="28.6955380" lon="-17.7613270">
        <ele>102.3</ele>
        <time>2020-11-15T22:28:00Z</time>
      </trkpt>
      <trkpt lat="28.6955350" lon="-17.7612750">
        <ele>102.7</ele>
        <time>2020-11-15T22:28:01Z</time>
      </trkpt>
      <trkpt lat="28.6955350" lon="-17.7612750">
        <ele>102.7</ele>
        <time>2020-11-15T22:28:02Z</time>
      </trkpt>
      <trkpt lat="28.6955370" lon="-17.7612230">
        <ele>103.1</ele>
        <time>2020-11-15T22:28:03Z</time>
      </trkpt>
      <trkpt lat="28.6955350" lon="-17.7612000">
        <ele>103.3</ele>
        <time>2020-11-15T22:28:04Z</time>
      </trkpt>
      <trkpt lat="28.6955370" lon="-17.7611750">
        <ele>103.5</ele>
        <time>2020-11-15T22:28:05Z</time>
      </trkpt>
      <trkpt lat="28.6955370" lon="-17.7611750">
        <ele>103.5</ele>
        <time>2020-11-15T22:28:06Z</time>
      </trkpt>
      <trkpt lat="28.6955350" lon="-17.7611280">
        <ele>103.8</ele>
        <time>2020-11-15T22:28:07Z</time>
      </trkpt>
      <trkpt lat="28.6955350" lon="-17.7611280">
        <ele>103.8</ele>
        <time>2020-11-15T22:28:08Z</time>
      </trkpt>
      <trkpt lat="28.6955280" lon="-17.7610850">
        <ele>104.2</ele>
        <time>2020-11-15T22:28:09Z</time>
      </trkpt>
      <trkpt lat="28.6955280" lon="-17.7610850">
        <ele>104.2</ele>
        <time>2020-11-15T22:28:10Z</time>
      </trkpt>
      <trkpt lat="28.6955180" lon="-17.7610380">
        <ele>104.6</ele>
        <time>2020-11-15T22:28:11Z</time>
      </trkpt>
      <trkpt lat="28.6955180" lon="-17.7610380">
        <ele>104.6</ele>
        <time>2020-11-15T22:28:12Z</time>
      </trkpt>
      <trkpt lat="28.6955150" lon="-17.7609930">
        <ele>105.0</ele>
        <time>2020-11-15T22:28:13Z</time>
      </trkpt>
      <trkpt lat="28.6955150" lon="-17.7609930">
        <ele>105.0</ele>
        <time>2020-11-15T22:28:14Z</time>
      </trkpt>
      <trkpt lat="28.6955070" lon="-17.7609500">
        <ele>105.3</ele>
        <time>2020-11-15T22:28:15Z</time>
      </trkpt>
      <trkpt lat="28.6955070" lon="-17.7609500">
        <ele>105.3</ele>
        <time>2020-11-15T22:28:16Z</time>
      </trkpt>
      <trkpt lat="28.6955100" lon="-17.7609020">
        <ele>105.8</ele>
        <time>2020-11-15T22:28:17Z</time>
      </trkpt>
      <trkpt lat="28.6955100" lon="-17.7609020">
        <ele>105.8</ele>
        <time>2020-11-15T22:28:18Z</time>
      </trkpt>
      <trkpt lat="28.6955030" lon="-17.7608500">
        <ele>106.3</ele>
        <time>2020-11-15T22:28:19Z</time>
      </trkpt>
      <trkpt lat="28.6955030" lon="-17.7608500">
        <ele>106.3</ele>
        <time>2020-11-15T22:28:20Z</time>
      </trkpt>
      <trkpt lat="28.6955030" lon="-17.7607970">
        <ele>106.8</ele>
        <time>2020-11-15T22:28:21Z</time>
      </trkpt>
      <trkpt lat="28.6955020" lon="-17.7607750">
        <ele>107.0</ele>
        <time>2020-11-15T22:28:22Z</time>
      </trkpt>
      <trkpt lat="28.6955020" lon="-17.7607750">
        <ele>107.0</ele>
        <time>2020-11-15T22:28:23Z</time>
      </trkpt>
      <trkpt lat="28.6955020" lon="-17.7607250">
        <ele>107.5</ele>
        <time>2020-11-15T22:28:24Z</time>
      </trkpt>
      <trkpt lat="28.6955030" lon="-17.7607000">
        <ele>107.8</ele>
        <time>2020-11-15T22:28:25Z</time>
      </trkpt>
      <trkpt lat="28.6955030" lon="-17.7607000">
        <ele>107.8</ele>
        <time>2020-11-15T22:28:26Z</time>
      </trkpt>
      <trkpt lat="28.6955130" lon="-17.7606480">
        <ele>108.3</ele>
        <time>2020-11-15T22:28:27Z</time>
      </trkpt>
      <trkpt lat="28.6955130" lon="-17.7606480">
        <ele>108.3</ele>
        <time>2020-11-15T22:28:28Z</time>
      </trkpt>
      <trkpt lat="28.6955250" lon="-17.7605970">
        <ele>108.8</ele>
        <time>2020-11-15T22:28:29Z</time>
      </trkpt>
      <trkpt lat="28.6955250" lon="-17.7605970">
        <ele>108.8</ele>
        <time>2020-11-15T22:28:30Z</time>
      </trkpt>
      <trkpt lat="28.6955380" lon="-17.7605500">
        <ele>109.2</ele>
        <time>2020-11-15T22:28:31Z</time>
      </trkpt>
      <trkpt lat="28.6955380" lon="-17.7605500">
        <ele>109.2</ele>
        <time>2020-11-15T22:28:32Z</time>
      </trkpt>
      <trkpt lat="28.6955620" lon="-17.7605070">
        <ele>109.7</ele>
        <time>2020-11-15T22:28:33Z</time>
      </trkpt>
      <trkpt lat="28.6955750" lon="-17.7604870">
        <ele>109.9</ele>
        <time>2020-11-15T22:28:34Z</time>
      </trkpt>
      <trkpt lat="28.6955750" lon="-17.7604870">
        <ele>109.9</ele>
        <time>2020-11-15T22:28:35Z</time>
      </trkpt>
      <trkpt lat="28.6956070" lon="-17.7604520">
        <ele>110.2</ele>
        <time>2020-11-15T22:28:36Z</time>
      </trkpt>
      <trkpt lat="28.6956250" lon="-17.7604350">
        <ele>110.4</ele>
        <time>2020-11-15T22:28:37Z</time>
      </trkpt>
      <trkpt lat="28.6956250" lon="-17.7604350">
        <ele>110.4</ele>
        <time>2020-11-15T22:28:38Z</time>
      </trkpt>
      <trkpt lat="28.6956650" lon="-17.7604080">
        <ele>110.8</ele>
        <time>2020-11-15T22:28:39Z</time>
      </trkpt>
      <trkpt lat="28.6956650" lon="-17.7604080">
        <ele>110.8</ele>
        <time>2020-11-15T22:28:40Z</time>
      </trkpt>
      <trkpt lat="28.6956980" lon="-17.7603820">
        <ele>111.1</ele>
        <time>2020-11-15T22:28:41Z</time>
      </trkpt>
      <trkpt lat="28.6956980" lon="-17.7603820">
        <ele>111.1</ele>
        <time>2020-11-15T22:28:42Z</time>
      </trkpt>
      <trkpt lat="28.6957330" lon="-17.7603570">
        <ele>111.4</ele>
        <time>2020-11-15T22:28:43Z</time>
      </trkpt>
      <trkpt lat="28.6957330" lon="-17.7603570">
        <ele>111.4</ele>
        <time>2020-11-15T22:28:44Z</time>
      </trkpt>
      <trkpt lat="28.6957650" lon="-17.7603300">
        <ele>111.7</ele>
        <time>2020-11-15T22:28:45Z</time>
      </trkpt>
      <trkpt lat="28.6957650" lon="-17.7603300">
        <ele>111.7</ele>
        <time>2020-11-15T22:28:46Z</time>
      </trkpt>
      <trkpt lat="28.6958020" lon="-17.7603050">
        <ele>112.0</ele>
        <time>2020-11-15T22:28:47Z</time>
      </trkpt>
      <trkpt lat="28.6958180" lon="-17.7602930">
        <ele>112.2</ele>
        <time>2020-11-15T22:28:48Z</time>
      </trkpt>
      <trkpt lat="28.6958180" lon="-17.7602930">
        <ele>112.2</ele>
        <time>2020-11-15T22:28:49Z</time>
      </trkpt>
      <trkpt lat="28.6958520" lon="-17.7602550">
        <ele>112.6</ele>
        <time>2020-11-15T22:28:50Z</time>
      </trkpt>
      <trkpt lat="28.6958680" lon="-17.7602380">
        <ele>112.7</ele>
        <time>2020-11-15T22:28:51Z</time>
      </trkpt>
      <trkpt lat="28.6958680" lon="-17.7602380">
        <ele>112.7</ele>
        <time>2020-11-15T22:28:52Z</time>
      </trkpt>
      <trkpt lat="28.6959000" lon="-17.7602100">
        <ele>113.0</ele>
        <time>2020-11-15T22:28:53Z</time>
      </trkpt>
      <trkpt lat="28.6959170" lon="-17.7602000">
        <ele>113.2</ele>
        <time>2020-11-15T22:28:54Z</time>
      </trkpt>
      <trkpt lat="28.6959350" lon="-17.7601920">
        <ele>113.4</ele>
        <time>2020-11-15T22:28:55Z</time>
      </trkpt>
      <trkpt lat="28.6959350" lon="-17.7601920">
        <ele>113.4</ele>
        <time>2020-11-15T22:28:56Z</time>
      </trkpt>
      <trkpt lat="28.6959720" lon="-17.7601700">
        <ele>113.7</ele>
        <time>2020-11-15T22:28:57Z</time>
      </trkpt>
      <trkpt lat="28.6959720" lon="-17.7601700">
        <ele>113.7</ele>
        <time>2020-11-15T22:28:58Z</time>
      </trkpt>
      <trkpt lat="28.6960120" lon="-17.7601530">
        <ele>114.0</ele>
        <time>2020-11-15T22:28:59Z</time>
      </trkpt>
      <trkpt lat="28.6960120" lon="-17.7601530">
        <ele>114.0</ele>
        <time>2020-11-15T22:29:00Z</time>
      </trkpt>
      <trkpt lat="28.6960500" lon="-17.7601400">
        <ele>114.4</ele>
        <time>2020-11-15T22:29:01Z</time>
      </trkpt>
      <trkpt lat="28.6960500" lon="-17.7601400">
        <ele>114.4</ele>
        <time>2020-11-15T22:29:02Z</time>
      </trkpt>
      <trkpt lat="28.6960920" lon="-17.7601250">
        <ele>114.7</ele>
        <time>2020-11-15T22:29:03Z</time>
      </trkpt>
      <trkpt lat="28.6961100" lon="-17.7601180">
        <ele>114.8</ele>
        <time>2020-11-15T22:29:04Z</time>
      </trkpt>
      <trkpt lat="28.6961100" lon="-17.7601180">
        <ele>114.8</ele>
        <time>2020-11-15T22:29:05Z</time>
      </trkpt>
      <trkpt lat="28.6961480" lon="-17.7601030">
        <ele>115.1</ele>
        <time>2020-11-15T22:29:06Z</time>
      </trkpt>
      <trkpt lat="28.6961480" lon="-17.7601030">
        <ele>115.1</ele>
        <time>2020-11-15T22:29:07Z</time>
      </trkpt>
      <trkpt lat="28.6961920" lon="-17.7600950">
        <ele>115.5</ele>
        <time>2020-11-15T22:29:08Z</time>
      </trkpt>
      <trkpt lat="28.6962120" lon="-17.7600930">
        <ele>115.6</ele>
        <time>2020-11-15T22:29:09Z</time>
      </trkpt>
      <trkpt lat="28.6962330" lon="-17.7600920">
        <ele>115.8</ele>
        <time>2020-11-15T22:29:10Z</time>
      </trkpt>
      <trkpt lat="28.6962330" lon="-17.7600920">
        <ele>115.8</ele>
        <time>2020-11-15T22:29:11Z</time>
      </trkpt>
      <trkpt lat="28.6962750" lon="-17.7600850">
        <ele>116.1</ele>
        <time>2020-11-15T22:29:12Z</time>
      </trkpt>
      <trkpt lat="28.6962970" lon="-17.7600850">
        <ele>116.2</ele>
        <time>2020-11-15T22:29:13Z</time>
      </trkpt>
      <trkpt lat="28.6962970" lon="-17.7600850">
        <ele>116.2</ele>
        <time>2020-11-15T22:29:14Z</time>
      </trkpt>
      <trkpt lat="28.6963420" lon="-17.7600830">
        <ele>116.5</ele>
        <time>2020-11-15T22:29:15Z</time>
      </trkpt>
      <trkpt lat="28.6963420" lon="-17.7600830">
        <ele>116.5</ele>
        <time>2020-11-15T22:29:16Z</time>
      </trkpt>
      <trkpt lat="28.6963850" lon="-17.7600780">
        <ele>116.8</ele>
        <time>2020-11-15T22:29:17Z</time>
      </trkpt>
      <trkpt lat="28.6963850" lon="-17.7600780">
        <ele>116.8</ele>
        <time>2020-11-15T22:29:18Z</time>
      </trkpt>
      <trkpt lat="28.6964270" lon="-17.7600820">
        <ele>117.1</ele>
        <time>2020-11-15T22:29:19Z</time>
      </trkpt>
      <trkpt lat="28.6964270" lon="-17.7600820">
        <ele>117.1</ele>
        <time>2020-11-15T22:29:20Z</time>
      </trkpt>
      <trkpt lat="28.6964720" lon="-17.7600780">
        <ele>117.4</ele>
        <time>2020-11-15T22:29:21Z</time>
      </trkpt>
      <trkpt lat="28.6964950" lon="-17.7600780">
        <ele>117.6</ele>
        <time>2020-11-15T22:29:22Z</time>
      </trkpt>
      <trkpt lat="28.6964950" lon="-17.7600780">
        <ele>117.6</ele>
        <time>2020-11-15T22:29:23Z</time>
      </trkpt>
      <trkpt lat="28.6965430" lon="-17.7600730">
        <ele>117.9</ele>
        <time>2020-11-15T22:29:24Z</time>
      </trkpt>
      <trkpt lat="28.6965650" lon="-17.7600720">
        <ele>118.1</ele>
        <time>2020-11-15T22:29:25Z</time>
      </trkpt>
      <trkpt lat="28.6965850" lon="-17.7600720">
        <ele>118.2</ele>
        <time>2020-11-15T22:29:26Z</time>
      </trkpt>
      <trkpt lat="28.6965850" lon="-17.7600720">
        <ele>118.2</ele>
        <time>2020-11-15T22:29:27Z</time>
      </trkpt>
      <trkpt lat="28.6966280" lon="-17.7600720">
        <ele>118.5</ele>
        <time>2020-11-15T22:29:28Z</time>
      </trkpt>
      <trkpt lat="28.6966280" lon="-17.7600720">
        <ele>118.5</ele>
        <time>2020-11-15T22:29:29Z</time>
      </trkpt>
      <trkpt lat="28.6966750" lon="-17.7600720">
        <ele>118.9</ele>
        <time>2020-11-15T22:29:30Z</time>
      </trkpt>
      <trkpt lat="28.6966750" lon="-17.7600720">
        <ele>118.9</ele>
        <time>2020-11-15T22:29:31Z</time>
      </trkpt>
      <trkpt lat="28.6967180" lon="-17.7600720">
        <ele>119.2</ele>
        <time>2020-11-15T22:29:32Z</time>
      </trkpt>
      <trkpt lat="28.6967380" lon="-17.7600700">
        <ele>119.3</ele>
        <time>2020-11-15T22:29:33Z</time>
      </trkpt>
      <trkpt lat="28.6967380" lon="-17.7600700">
        <ele>119.3</ele>
        <time>2020-11-15T22:29:34Z</time>
      </trkpt>
      <trkpt lat="28.6967820" lon="-17.7600700">
        <ele>119.6</ele>
        <time>2020-11-15T22:29:35Z</time>
      </trkpt>
      <trkpt lat="28.6968000" lon="-17.7600720">
        <ele>119.7</ele>
        <time>2020-11-15T22:29:36Z</time>
      </trkpt>
      <trkpt lat="28.6968000" lon="-17.7600720">
        <ele>119.7</ele>
        <time>2020-11-15T22:29:37Z</time>
      </trkpt>
      <trkpt lat="28.6968420" lon="-17.7600730">
        <ele>120.0</ele>
        <time>2020-11-15T22:29:38Z</time>
      </trkpt>
      <trkpt lat="28.6968420" lon="-17.7600730">
        <ele>120.0</ele>
        <time>2020-11-15T22:29:39Z</time>
      </trkpt>
      <trkpt lat="28.6968850" lon="-17.7600730">
        <ele>120.3</ele>
        <time>2020-11-15T22:29:40Z</time>
      </trkpt>
      <trkpt lat="28.6968850" lon="-17.7600730">
        <ele>120.3</ele>
        <time>2020-11-15T22:29:41Z</time>
      </trkpt>
      <trkpt lat="28.6969320" lon="-17.7600730">
        <ele>120.7</ele>
        <time>2020-11-15T22:29:42Z</time>
      </trkpt>
      <trkpt lat="28.6969530" lon="-17.7600720">
        <ele>120.8</ele>
        <time>2020-11-15T22:29:43Z</time>
      </trkpt>
      <trkpt lat="28.6969530" lon="-17.7600720">
        <ele>120.8</ele>
        <time>2020-11-15T22:29:44Z</time>
      </trkpt>
      <trkpt lat="28.6970000" lon="-17.7600670">
        <ele>121.2</ele>
        <time>2020-11-15T22:29:45Z</time>
      </trkpt>
      <trkpt lat="28.6970000" lon="-17.7600670">
        <ele>121.2</ele>
        <time>2020-11-15T22:29:46Z</time>
      </trkpt>
      <trkpt lat="28.6970480" lon="-17.7600670">
        <ele>121.5</ele>
        <time>2020-11-15T22:29:47Z</time>
      </trkpt>
      <trkpt lat="28.6970480" lon="-17.7600670">
        <ele>121.5</ele>
        <time>2020-11-15T22:29:48Z</time>
      </trkpt>
      <trkpt lat="28.6970950" lon="-17.7600650">
        <ele>121.9</ele>
        <time>2020-11-15T22:29:49Z</time>
      </trkpt>
      <trkpt lat="28.6970950" lon="-17.7600650">
        <ele>121.9</ele>
        <time>2020-11-15T22:29:50Z</time>
      </trkpt>
      <trkpt lat="28.6971450" lon="-17.7600670">
        <ele>122.3</ele>
        <time>2020-11-15T22:29:51Z</time>
      </trkpt>
      <trkpt lat="28.6971450" lon="-17.7600670">
        <ele>122.3</ele>
        <time>2020-11-15T22:29:52Z</time>
      </trkpt>
      <trkpt lat="28.6972000" lon="-17.7600700">
        <ele>122.7</ele>
        <time>2020-11-15T22:29:53Z</time>
      </trkpt>
      <trkpt lat="28.6972000" lon="-17.7600700">
        <ele>122.7</ele>
        <time>2020-11-15T22:29:54Z</time>
      </trkpt>
      <trkpt lat="28.6972470" lon="-17.7600730">
        <ele>123.0</ele>
        <time>2020-11-15T22:29:55Z</time>
      </trkpt>
      <trkpt lat="28.6972470" lon="-17.7600730">
        <ele>123.0</ele>
        <time>2020-11-15T22:29:56Z</time>
      </trkpt>
      <trkpt lat="28.6972950" lon="-17.7600780">
        <ele>123.4</ele>
        <time>2020-11-15T22:29:57Z</time>
      </trkpt>
      <trkpt lat="28.6972950" lon="-17.7600780">
        <ele>123.4</ele>
        <time>2020-11-15T22:29:58Z</time>
      </trkpt>
      <trkpt lat="28.6973400" lon="-17.7600880">
        <ele>123.7</ele>
        <time>2020-11-15T22:29:59Z</time>
      </trkpt>
      <trkpt lat="28.6973400" lon="-17.7600880">
        <ele>123.7</ele>
        <time>2020-11-15T22:30:00Z</time>
      </trkpt>
      <trkpt lat="28.6973830" lon="-17.7601020">
        <ele>124.0</ele>
        <time>2020-11-15T22:30:01Z</time>
      </trkpt>
      <trkpt lat="28.6973830" lon="-17.7601020">
        <ele>124.0</ele>
        <time>2020-11-15T22:30:02Z</time>
      </trkpt>
      <trkpt lat="28.6974270" lon="-17.7601220">
        <ele>124.4</ele>
        <time>2020-11-15T22:30:03Z</time>
      </trkpt>
      <trkpt lat="28.6974270" lon="-17.7601220">
        <ele>124.4</ele>
        <time>2020-11-15T22:30:04Z</time>
      </trkpt>
      <trkpt lat="28.6974680" lon="-17.7601530">
        <ele>124.7</ele>
        <time>2020-11-15T22:30:05Z</time>
      </trkpt>
      <trkpt lat="28.6974680" lon="-17.7601530">
        <ele>124.7</ele>
        <time>2020-11-15T22:30:06Z</time>
      </trkpt>
      <trkpt lat="28.6975150" lon="-17.7601880">
        <ele>125.1</ele>
        <time>2020-11-15T22:30:07Z</time>
      </trkpt>
      <trkpt lat="28.6975380" lon="-17.7602050">
        <ele>125.2</ele>
        <time>2020-11-15T22:30:08Z</time>
      </trkpt>
      <trkpt lat="28.6975620" lon="-17.7602250">
        <ele>125.4</ele>
        <time>2020-11-15T22:30:09Z</time>
      </trkpt>
      <trkpt lat="28.6975620" lon="-17.7602250">
        <ele>125.4</ele>
        <time>2020-11-15T22:30:10Z</time>
      </trkpt>
      <trkpt lat="28.6976070" lon="-17.7602600">
        <ele>125.8</ele>
        <time>2020-11-15T22:30:11Z</time>
      </trkpt>
      <trkpt lat="28.6976070" lon="-17.7602600">
        <ele>125.8</ele>
        <time>2020-11-15T22:30:12Z</time>
      </trkpt>
      <trkpt lat="28.6976530" lon="-17.7602950">
        <ele>126.1</ele>
        <time>2020-11-15T22:30:13Z</time>
      </trkpt>
      <trkpt lat="28.6976530" lon="-17.7602950">
        <ele>126.1</ele>
        <time>2020-11-15T22:30:14Z</time>
      </trkpt>
      <trkpt lat="28.6977020" lon="-17.7603330">
        <ele>126.7</ele>
        <time>2020-11-15T22:30:15Z</time>
      </trkpt>
      <trkpt lat="28.6977020" lon="-17.7603330">
        <ele>126.7</ele>
        <time>2020-11-15T22:30:16Z</time>
      </trkpt>
      <trkpt lat="28.6977470" lon="-17.7603750">
        <ele>127.2</ele>
        <time>2020-11-15T22:30:17Z</time>
      </trkpt>
      <trkpt lat="28.6977470" lon="-17.7603750">
        <ele>127.2</ele>
        <time>2020-11-15T22:30:18Z</time>
      </trkpt>
      <trkpt lat="28.6977920" lon="-17.7604180">
        <ele>127.9</ele>
        <time>2020-11-15T22:30:19Z</time>
      </trkpt>
      <trkpt lat="28.6977920" lon="-17.7604180">
        <ele>127.9</ele>
        <time>2020-11-15T22:30:20Z</time>
      </trkpt>
      <trkpt lat="28.6978350" lon="-17.7604580">
        <ele>128.5</ele>
        <time>2020-11-15T22:30:21Z</time>
      </trkpt>
      <trkpt lat="28.6978350" lon="-17.7604580">
        <ele>128.5</ele>
        <time>2020-11-15T22:30:22Z</time>
      </trkpt>
      <trkpt lat="28.6978850" lon="-17.7604930">
        <ele>129.2</ele>
        <time>2020-11-15T22:30:23Z</time>
      </trkpt>
      <trkpt lat="28.6978850" lon="-17.7604930">
        <ele>129.2</ele>
        <time>2020-11-15T22:30:24Z</time>
      </trkpt>
      <trkpt lat="28.6979370" lon="-17.7605150">
        <ele>130.1</ele>
        <time>2020-11-15T22:30:25Z</time>
      </trkpt>
      <trkpt lat="28.6979370" lon="-17.7605150">
        <ele>130.1</ele>
        <time>2020-11-15T22:30:26Z</time>
      </trkpt>
      <trkpt lat="28.6979950" lon="-17.7605230">
        <ele>130.4</ele>
        <time>2020-11-15T22:30:27Z</time>
      </trkpt>
      <trkpt lat="28.6979950" lon="-17.7605230">
        <ele>130.4</ele>
        <time>2020-11-15T22:30:28Z</time>
      </trkpt>
      <trkpt lat="28.6980500" lon="-17.7605250">
        <ele>130.7</ele>
        <time>2020-11-15T22:30:29Z</time>
      </trkpt>
      <trkpt lat="28.6980730" lon="-17.7605230">
        <ele>130.9</ele>
        <time>2020-11-15T22:30:30Z</time>
      </trkpt>
      <trkpt lat="28.6980730" lon="-17.7605230">
        <ele>130.9</ele>
        <time>2020-11-15T22:30:31Z</time>
      </trkpt>
      <trkpt lat="28.6981230" lon="-17.7605050">
        <ele>131.2</ele>
        <time>2020-11-15T22:30:32Z</time>
      </trkpt>
      <trkpt lat="28.6981480" lon="-17.7604950">
        <ele>131.3</ele>
        <time>2020-11-15T22:30:33Z</time>
      </trkpt>
      <trkpt lat="28.6981480" lon="-17.7604950">
        <ele>131.3</ele>
        <time>2020-11-15T22:30:34Z</time>
      </trkpt>
      <trkpt lat="28.6982000" lon="-17.7604780">
        <ele>131.5</ele>
        <time>2020-11-15T22:30:35Z</time>
      </trkpt>
      <trkpt lat="28.6982000" lon="-17.7604780">
        <ele>131.5</ele>
        <time>2020-11-15T22:30:36Z</time>
      </trkpt>
      <trkpt lat="28.6982500" lon="-17.7604580">
        <ele>131.7</ele>
        <time>2020-11-15T22:30:37Z</time>
      </trkpt>
      <trkpt lat="28.6982500" lon="-17.7604580">
        <ele>131.7</ele>
        <time>2020-11-15T22:30:38Z</time>
      </trkpt>
      <trkpt lat="28.6982920" lon="-17.7604430">
        <ele>132.1</ele>
        <time>2020-11-15T22:30:39Z</time>
      </trkpt>
      <trkpt lat="28.6983100" lon="-17.7604380">
        <ele>132.2</ele>
        <time>2020-11-15T22:30:40Z</time>
      </trkpt>
      <trkpt lat="28.6983100" lon="-17.7604380">
        <ele>132.2</ele>
        <time>2020-11-15T22:30:41Z</time>
      </trkpt>
      <trkpt lat="28.6983500" lon="-17.7604230">
        <ele>132.6</ele>
        <time>2020-11-15T22:30:42Z</time>
      </trkpt>
      <trkpt lat="28.6983750" lon="-17.7604120">
        <ele>132.8</ele>
        <time>2020-11-15T22:30:43Z</time>
      </trkpt>
      <trkpt lat="28.6983750" lon="-17.7604120">
        <ele>132.8</ele>
        <time>2020-11-15T22:30:44Z</time>
      </trkpt>
      <trkpt lat="28.6984230" lon="-17.7603880">
        <ele>133.3</ele>
        <time>2020-11-15T22:30:45Z</time>
      </trkpt>
      <trkpt lat="28.6984230" lon="-17.7603880">
        <ele>133.3</ele>
        <time>2020-11-15T22:30:46Z</time>
      </trkpt>
      <trkpt lat="28.6984700" lon="-17.7603620">
        <ele>133.7</ele>
        <time>2020-11-15T22:30:47Z</time>
      </trkpt>
      <trkpt lat="28.6984700" lon="-17.7603620">
        <ele>133.7</ele>
        <time>2020-11-15T22:30:48Z</time>
      </trkpt>
      <trkpt lat="28.6985180" lon="-17.7603400">
        <ele>134.2</ele>
        <time>2020-11-15T22:30:49Z</time>
      </trkpt>
      <trkpt lat="28.6985180" lon="-17.7603400">
        <ele>134.2</ele>
        <time>2020-11-15T22:30:50Z</time>
      </trkpt>
      <trkpt lat="28.6985670" lon="-17.7603270">
        <ele>134.7</ele>
        <time>2020-11-15T22:30:51Z</time>
      </trkpt>
      <trkpt lat="28.6985670" lon="-17.7603270">
        <ele>134.7</ele>
        <time>2020-11-15T22:30:52Z</time>
      </trkpt>
      <trkpt lat="28.6986130" lon="-17.7603070">
        <ele>135.1</ele>
        <time>2020-11-15T22:30:53Z</time>
      </trkpt>
      <trkpt lat="28.6986130" lon="-17.7603070">
        <ele>135.1</ele>
        <time>2020-11-15T22:30:54Z</time>
      </trkpt>
      <trkpt lat="28.6986550" lon="-17.7602780">
        <ele>135.6</ele>
        <time>2020-11-15T22:30:55Z</time>
      </trkpt>
      <trkpt lat="28.6986550" lon="-17.7602780">
        <ele>135.6</ele>
        <time>2020-11-15T22:30:56Z</time>
      </trkpt>
      <trkpt lat="28.6987020" lon="-17.7602480">
        <ele>136.0</ele>
        <time>2020-11-15T22:30:57Z</time>
      </trkpt>
      <trkpt lat="28.6987020" lon="-17.7602480">
        <ele>136.0</ele>
        <time>2020-11-15T22:30:58Z</time>
      </trkpt>
      <trkpt lat="28.6987500" lon="-17.7602250">
        <ele>136.4</ele>
        <time>2020-11-15T22:30:59Z</time>
      </trkpt>
      <trkpt lat="28.6987500" lon="-17.7602250">
        <ele>136.4</ele>
        <time>2020-11-15T22:31:00Z</time>
      </trkpt>
      <trkpt lat="28.6987950" lon="-17.7602030">
        <ele>136.7</ele>
        <time>2020-11-15T22:31:01Z</time>
      </trkpt>
      <trkpt lat="28.6987950" lon="-17.7602030">
        <ele>136.7</ele>
        <time>2020-11-15T22:31:02Z</time>
      </trkpt>
      <trkpt lat="28.6988400" lon="-17.7601770">
        <ele>137.0</ele>
        <time>2020-11-15T22:31:03Z</time>
      </trkpt>
      <trkpt lat="28.6988400" lon="-17.7601770">
        <ele>137.0</ele>
        <time>2020-11-15T22:31:04Z</time>
      </trkpt>
      <trkpt lat="28.6988870" lon="-17.7601500">
        <ele>137.4</ele>
        <time>2020-11-15T22:31:05Z</time>
      </trkpt>
      <trkpt lat="28.6988870" lon="-17.7601500">
        <ele>137.4</ele>
        <time>2020-11-15T22:31:06Z</time>
      </trkpt>
      <trkpt lat="28.6989330" lon="-17.7601270">
        <ele>137.8</ele>
        <time>2020-11-15T22:31:07Z</time>
      </trkpt>
      <trkpt lat="28.6989330" lon="-17.7601270">
        <ele>137.8</ele>
        <time>2020-11-15T22:31:08Z</time>
      </trkpt>
      <trkpt lat="28.6989820" lon="-17.7601030">
        <ele>138.2</ele>
        <time>2020-11-15T22:31:09Z</time>
      </trkpt>
      <trkpt lat="28.6989820" lon="-17.7601030">
        <ele>138.2</ele>
        <time>2020-11-15T22:31:10Z</time>
      </trkpt>
      <trkpt lat="28.6990280" lon="-17.7600770">
        <ele>138.6</ele>
        <time>2020-11-15T22:31:11Z</time>
      </trkpt>
      <trkpt lat="28.6990520" lon="-17.7600620">
        <ele>138.8</ele>
        <time>2020-11-15T22:31:12Z</time>
      </trkpt>
      <trkpt lat="28.6990750" lon="-17.7600480">
        <ele>139.0</ele>
        <time>2020-11-15T22:31:13Z</time>
      </trkpt>
      <trkpt lat="28.6990750" lon="-17.7600480">
        <ele>139.0</ele>
        <time>2020-11-15T22:31:14Z</time>
      </trkpt>
      <trkpt lat="28.6991180" lon="-17.7600230">
        <ele>139.4</ele>
        <time>2020-11-15T22:31:15Z</time>
      </trkpt>
      <trkpt lat="28.6991180" lon="-17.7600230">
        <ele>139.4</ele>
        <time>2020-11-15T22:31:16Z</time>
      </trkpt>
      <trkpt lat="28.6991650" lon="-17.7600020">
        <ele>139.8</ele>
        <time>2020-11-15T22:31:17Z</time>
      </trkpt>
      <trkpt lat="28.6991650" lon="-17.7600020">
        <ele>139.8</ele>
        <time>2020-11-15T22:31:18Z</time>
      </trkpt>
      <trkpt lat="28.6992100" lon="-17.7599820">
        <ele>140.2</ele>
        <time>2020-11-15T22:31:19Z</time>
      </trkpt>
      <trkpt lat="28.6992100" lon="-17.7599820">
        <ele>140.2</ele>
        <time>2020-11-15T22:31:20Z</time>
      </trkpt>
      <trkpt lat="28.6992530" lon="-17.7599620">
        <ele>140.6</ele>
        <time>2020-11-15T22:31:21Z</time>
      </trkpt>
      <trkpt lat="28.6992530" lon="-17.7599620">
        <ele>140.6</ele>
        <time>2020-11-15T22:31:22Z</time>
      </trkpt>
      <trkpt lat="28.6992920" lon="-17.7599370">
        <ele>140.9</ele>
        <time>2020-11-15T22:31:23Z</time>
      </trkpt>
      <trkpt lat="28.6992920" lon="-17.7599370">
        <ele>140.9</ele>
        <time>2020-11-15T22:31:24Z</time>
      </trkpt>
      <trkpt lat="28.6993400" lon="-17.7599020">
        <ele>141.4</ele>
        <time>2020-11-15T22:31:25Z</time>
      </trkpt>
      <trkpt lat="28.6993400" lon="-17.7599020">
        <ele>141.4</ele>
        <time>2020-11-15T22:31:26Z</time>
      </trkpt>
      <trkpt lat="28.6993780" lon="-17.7598770">
        <ele>141.7</ele>
        <time>2020-11-15T22:31:27Z</time>
      </trkpt>
      <trkpt lat="28.6993970" lon="-17.7598650">
        <ele>141.9</ele>
        <time>2020-11-15T22:31:28Z</time>
      </trkpt>
      <trkpt lat="28.6994180" lon="-17.7598580">
        <ele>142.0</ele>
        <time>2020-11-15T22:31:29Z</time>
      </trkpt>
      <trkpt lat="28.6994180" lon="-17.7598580">
        <ele>142.0</ele>
        <time>2020-11-15T22:31:30Z</time>
      </trkpt>
      <trkpt lat="28.6994670" lon="-17.7598370">
        <ele>142.4</ele>
        <time>2020-11-15T22:31:31Z</time>
      </trkpt>
      <trkpt lat="28.6994670" lon="-17.7598370">
        <ele>142.4</ele>
        <time>2020-11-15T22:31:32Z</time>
      </trkpt>
      <trkpt lat="28.6995130" lon="-17.7598180">
        <ele>142.8</ele>
        <time>2020-11-15T22:31:33Z</time>
      </trkpt>
      <trkpt lat="28.6995130" lon="-17.7598180">
        <ele>142.8</ele>
        <time>2020-11-15T22:31:34Z</time>
      </trkpt>
      <trkpt lat="28.6995570" lon="-17.7598000">
        <ele>143.1</ele>
        <time>2020-11-15T22:31:35Z</time>
      </trkpt>
      <trkpt lat="28.6995570" lon="-17.7598000">
        <ele>143.1</ele>
        <time>2020-11-15T22:31:36Z</time>
      </trkpt>
      <trkpt lat="28.6996000" lon="-17.7597750">
        <ele>143.5</ele>
        <time>2020-11-15T22:31:37Z</time>
      </trkpt>
      <trkpt lat="28.6996000" lon="-17.7597750">
        <ele>143.5</ele>
        <time>2020-11-15T22:31:38Z</time>
      </trkpt>
      <trkpt lat="28.6996430" lon="-17.7597520">
        <ele>143.9</ele>
        <time>2020-11-15T22:31:39Z</time>
      </trkpt>
      <trkpt lat="28.6996430" lon="-17.7597520">
        <ele>143.9</ele>
        <time>2020-11-15T22:31:40Z</time>
      </trkpt>
      <trkpt lat="28.6996870" lon="-17.7597330">
        <ele>144.0</ele>
        <time>2020-11-15T22:31:41Z</time>
      </trkpt>
      <trkpt lat="28.6996870" lon="-17.7597330">
        <ele>144.0</ele>
        <time>2020-11-15T22:31:42Z</time>
      </trkpt>
      <trkpt lat="28.6997300" lon="-17.7597080">
        <ele>144.0</ele>
        <time>2020-11-15T22:31:43Z</time>
      </trkpt>
      <trkpt lat="28.6997300" lon="-17.7597080">
        <ele>144.0</ele>
        <time>2020-11-15T22:31:44Z</time>
      </trkpt>
      <trkpt lat="28.6997770" lon="-17.7596780">
        <ele>144.2</ele>
        <time>2020-11-15T22:31:45Z</time>
      </trkpt>
      <trkpt lat="28.6997770" lon="-17.7596780">
        <ele>144.2</ele>
        <time>2020-11-15T22:31:46Z</time>
      </trkpt>
      <trkpt lat="28.6998180" lon="-17.7596500">
        <ele>144.5</ele>
        <time>2020-11-15T22:31:47Z</time>
      </trkpt>
      <trkpt lat="28.6998180" lon="-17.7596500">
        <ele>144.5</ele>
        <time>2020-11-15T22:31:48Z</time>
      </trkpt>
      <trkpt lat="28.6998620" lon="-17.7596200">
        <ele>144.9</ele>
        <time>2020-11-15T22:31:49Z</time>
      </trkpt>
      <trkpt lat="28.6998620" lon="-17.7596200">
        <ele>144.9</ele>
        <time>2020-11-15T22:31:50Z</time>
      </trkpt>
      <trkpt lat="28.6999030" lon="-17.7595980">
        <ele>145.2</ele>
        <time>2020-11-15T22:31:51Z</time>
      </trkpt>
      <trkpt lat="28.6999030" lon="-17.7595980">
        <ele>145.2</ele>
        <time>2020-11-15T22:31:52Z</time>
      </trkpt>
      <trkpt lat="28.6999520" lon="-17.7595770">
        <ele>145.6</ele>
        <time>2020-11-15T22:31:53Z</time>
      </trkpt>
      <trkpt lat="28.6999520" lon="-17.7595770">
        <ele>145.6</ele>
        <time>2020-11-15T22:31:54Z</time>
      </trkpt>
      <trkpt lat="28.6999980" lon="-17.7595520">
        <ele>145.9</ele>
        <time>2020-11-15T22:31:55Z</time>
      </trkpt>
      <trkpt lat="28.6999980" lon="-17.7595520">
        <ele>145.9</ele>
        <time>2020-11-15T22:31:56Z</time>
      </trkpt>
      <trkpt lat="28.7000520" lon="-17.7595250">
        <ele>146.3</ele>
        <time>2020-11-15T22:31:57Z</time>
      </trkpt>
      <trkpt lat="28.7000520" lon="-17.7595250">
        <ele>146.3</ele>
        <time>2020-11-15T22:31:58Z</time>
      </trkpt>
      <trkpt lat="28.7000930" lon="-17.7595050">
        <ele>146.6</ele>
        <time>2020-11-15T22:31:59Z</time>
      </trkpt>
      <trkpt lat="28.7001150" lon="-17.7594950">
        <ele>146.8</ele>
        <time>2020-11-15T22:32:00Z</time>
      </trkpt>
      <trkpt lat="28.7001150" lon="-17.7594950">
        <ele>146.8</ele>
        <time>2020-11-15T22:32:01Z</time>
      </trkpt>
      <trkpt lat="28.7001580" lon="-17.7594730">
        <ele>147.1</ele>
        <time>2020-11-15T22:32:02Z</time>
      </trkpt>
      <trkpt lat="28.7001580" lon="-17.7594730">
        <ele>147.1</ele>
        <time>2020-11-15T22:32:03Z</time>
      </trkpt>
      <trkpt lat="28.7002070" lon="-17.7594470">
        <ele>147.4</ele>
        <time>2020-11-15T22:32:04Z</time>
      </trkpt>
      <trkpt lat="28.7002070" lon="-17.7594470">
        <ele>147.4</ele>
        <time>2020-11-15T22:32:05Z</time>
      </trkpt>
      <trkpt lat="28.7002520" lon="-17.7594250">
        <ele>147.8</ele>
        <time>2020-11-15T22:32:06Z</time>
      </trkpt>
      <trkpt lat="28.7002730" lon="-17.7594150">
        <ele>147.9</ele>
        <time>2020-11-15T22:32:07Z</time>
      </trkpt>
      <trkpt lat="28.7002730" lon="-17.7594150">
        <ele>147.9</ele>
        <time>2020-11-15T22:32:08Z</time>
      </trkpt>
      <trkpt lat="28.7003150" lon="-17.7593900">
        <ele>148.2</ele>
        <time>2020-11-15T22:32:09Z</time>
      </trkpt>
      <trkpt lat="28.7003150" lon="-17.7593900">
        <ele>148.2</ele>
        <time>2020-11-15T22:32:10Z</time>
      </trkpt>
      <trkpt lat="28.7003600" lon="-17.7593650">
        <ele>148.6</ele>
        <time>2020-11-15T22:32:11Z</time>
      </trkpt>
      <trkpt lat="28.7003600" lon="-17.7593650">
        <ele>148.6</ele>
        <time>2020-11-15T22:32:12Z</time>
      </trkpt>
      <trkpt lat="28.7004030" lon="-17.7593350">
        <ele>148.9</ele>
        <time>2020-11-15T22:32:13Z</time>
      </trkpt>
      <trkpt lat="28.7004030" lon="-17.7593350">
        <ele>148.9</ele>
        <time>2020-11-15T22:32:14Z</time>
      </trkpt>
      <trkpt lat="28.7004480" lon="-17.7593100">
        <ele>149.2</ele>
        <time>2020-11-15T22:32:15Z</time>
      </trkpt>
      <trkpt lat="28.7004730" lon="-17.7593000">
        <ele>149.3</ele>
        <time>2020-11-15T22:32:16Z</time>
      </trkpt>
      <trkpt lat="28.7004730" lon="-17.7593000">
        <ele>149.3</ele>
        <time>2020-11-15T22:32:17Z</time>
      </trkpt>
      <trkpt lat="28.7005250" lon="-17.7592770">
        <ele>149.6</ele>
        <time>2020-11-15T22:32:18Z</time>
      </trkpt>
      <trkpt lat="28.7005480" lon="-17.7592670">
        <ele>149.7</ele>
        <time>2020-11-15T22:32:19Z</time>
      </trkpt>
      <trkpt lat="28.7005480" lon="-17.7592670">
        <ele>149.7</ele>
        <time>2020-11-15T22:32:20Z</time>
      </trkpt>
      <trkpt lat="28.7005930" lon="-17.7592470">
        <ele>149.8</ele>
        <time>2020-11-15T22:32:21Z</time>
      </trkpt>
      <trkpt lat="28.7005930" lon="-17.7592470">
        <ele>149.8</ele>
        <time>2020-11-15T22:32:22Z</time>
      </trkpt>
      <trkpt lat="28.7006420" lon="-17.7592230">
        <ele>150.0</ele>
        <time>2020-11-15T22:32:23Z</time>
      </trkpt>
      <trkpt lat="28.7006420" lon="-17.7592230">
        <ele>150.0</ele>
        <time>2020-11-15T22:32:24Z</time>
      </trkpt>
      <trkpt lat="28.7006930" lon="-17.7591980">
        <ele>150.1</ele>
        <time>2020-11-15T22:32:25Z</time>
      </trkpt>
      <trkpt lat="28.7007170" lon="-17.7591850">
        <ele>150.2</ele>
        <time>2020-11-15T22:32:26Z</time>
      </trkpt>
      <trkpt lat="28.7007400" lon="-17.7591750">
        <ele>150.2</ele>
        <time>2020-11-15T22:32:27Z</time>
      </trkpt>
      <trkpt lat="28.7007400" lon="-17.7591750">
        <ele>150.2</ele>
        <time>2020-11-15T22:32:28Z</time>
      </trkpt>
      <trkpt lat="28.7007900" lon="-17.7591450">
        <ele>150.5</ele>
        <time>2020-11-15T22:32:29Z</time>
      </trkpt>
      <trkpt lat="28.7007900" lon="-17.7591450">
        <ele>150.5</ele>
        <time>2020-11-15T22:32:30Z</time>
      </trkpt>
      <trkpt lat="28.7008420" lon="-17.7591220">
        <ele>150.7</ele>
        <time>2020-11-15T22:32:31Z</time>
      </trkpt>
      <trkpt lat="28.7008420" lon="-17.7591220">
        <ele>150.7</ele>
        <time>2020-11-15T22:32:32Z</time>
      </trkpt>
      <trkpt lat="28.7008930" lon="-17.7590950">
        <ele>151.0</ele>
        <time>2020-11-15T22:32:33Z</time>
      </trkpt>
      <trkpt lat="28.7009220" lon="-17.7590770">
        <ele>151.2</ele>
        <time>2020-11-15T22:32:34Z</time>
      </trkpt>
      <trkpt lat="28.7009220" lon="-17.7590770">
        <ele>151.2</ele>
        <time>2020-11-15T22:32:35Z</time>
      </trkpt>
      <trkpt lat="28.7009750" lon="-17.7590450">
        <ele>151.5</ele>
        <time>2020-11-15T22:32:36Z</time>
      </trkpt>
      <trkpt lat="28.7010030" lon="-17.7590280">
        <ele>151.6</ele>
        <time>2020-11-15T22:32:37Z</time>
      </trkpt>
      <trkpt lat="28.7010030" lon="-17.7590280">
        <ele>151.6</ele>
        <time>2020-11-15T22:32:38Z</time>
      </trkpt>
      <trkpt lat="28.7010630" lon="-17.7589970">
        <ele>151.7</ele>
        <time>2020-11-15T22:32:39Z</time>
      </trkpt>
      <trkpt lat="28.7010630" lon="-17.7589970">
        <ele>151.7</ele>
        <time>2020-11-15T22:32:40Z</time>
      </trkpt>
      <trkpt lat="28.7011330" lon="-17.7589600">
        <ele>151.9</ele>
        <time>2020-11-15T22:32:41Z</time>
      </trkpt>
      <trkpt lat="28.7011330" lon="-17.7589600">
        <ele>151.9</ele>
        <time>2020-11-15T22:32:42Z</time>
      </trkpt>
      <trkpt lat="28.7012070" lon="-17.7589180">
        <ele>152.1</ele>
        <time>2020-11-15T22:32:43Z</time>
      </trkpt>
      <trkpt lat="28.7012070" lon="-17.7589180">
        <ele>152.1</ele>
        <time>2020-11-15T22:32:44Z</time>
      </trkpt>
      <trkpt lat="28.7012820" lon="-17.7588750">
        <ele>152.0</ele>
        <time>2020-11-15T22:32:45Z</time>
      </trkpt>
      <trkpt lat="28.7012820" lon="-17.7588750">
        <ele>152.0</ele>
        <time>2020-11-15T22:32:46Z</time>
      </trkpt>
      <trkpt lat="28.7013620" lon="-17.7588330">
        <ele>151.9</ele>
        <time>2020-11-15T22:32:47Z</time>
      </trkpt>
      <trkpt lat="28.7014020" lon="-17.7588130">
        <ele>151.8</ele>
        <time>2020-11-15T22:32:48Z</time>
      </trkpt>
      <trkpt lat="28.7014450" lon="-17.7587950">
        <ele>151.7</ele>
        <time>2020-11-15T22:32:49Z</time>
      </trkpt>
      <trkpt lat="28.7014450" lon="-17.7587950">
        <ele>151.7</ele>
        <time>2020-11-15T22:32:50Z</time>
      </trkpt>
      <trkpt lat="28.7015380" lon="-17.7587500">
        <ele>151.4</ele>
        <time>2020-11-15T22:32:51Z</time>
      </trkpt>
      <trkpt lat="28.7015380" lon="-17.7587500">
        <ele>151.4</ele>
        <time>2020-11-15T22:32:52Z</time>
      </trkpt>
      <trkpt lat="28.7016380" lon="-17.7586930">
        <ele>151.0</ele>
        <time>2020-11-15T22:32:53Z</time>
      </trkpt>
      <trkpt lat="28.7016380" lon="-17.7586930">
        <ele>151.0</ele>
        <time>2020-11-15T22:32:54Z</time>
      </trkpt>
      <trkpt lat="28.7017420" lon="-17.7586280">
        <ele>150.4</ele>
        <time>2020-11-15T22:32:55Z</time>
      </trkpt>
      <trkpt lat="28.7017420" lon="-17.7586280">
        <ele>150.4</ele>
        <time>2020-11-15T22:32:56Z</time>
      </trkpt>
      <trkpt lat="28.7018580" lon="-17.7585670">
        <ele>149.6</ele>
        <time>2020-11-15T22:32:57Z</time>
      </trkpt>
      <trkpt lat="28.7018580" lon="-17.7585670">
        <ele>149.6</ele>
        <time>2020-11-15T22:32:58Z</time>
      </trkpt>
      <trkpt lat="28.7019900" lon="-17.7584920">
        <ele>148.5</ele>
        <time>2020-11-15T22:32:59Z</time>
      </trkpt>
      <trkpt lat="28.7019900" lon="-17.7584920">
        <ele>148.5</ele>
        <time>2020-11-15T22:33:00Z</time>
      </trkpt>
      <trkpt lat="28.7021400" lon="-17.7584120">
        <ele>147.1</ele>
        <time>2020-11-15T22:33:01Z</time>
      </trkpt>
      <trkpt lat="28.7021400" lon="-17.7584120">
        <ele>147.1</ele>
        <time>2020-11-15T22:33:02Z</time>
      </trkpt>
      <trkpt lat="28.7022900" lon="-17.7583030">
        <ele>145.5</ele>
        <time>2020-11-15T22:33:03Z</time>
      </trkpt>
      <trkpt lat="28.7022900" lon="-17.7583030">
        <ele>145.5</ele>
        <time>2020-11-15T22:33:04Z</time>
      </trkpt>
      <trkpt lat="28.7024330" lon="-17.7581720">
        <ele>143.9</ele>
        <time>2020-11-15T22:33:05Z</time>
      </trkpt>
      <trkpt lat="28.7024330" lon="-17.7581720">
        <ele>143.9</ele>
        <time>2020-11-15T22:33:06Z</time>
      </trkpt>
      <trkpt lat="28.7025580" lon="-17.7580120">
        <ele>142.4</ele>
        <time>2020-11-15T22:33:07Z</time>
      </trkpt>
      <trkpt lat="28.7025580" lon="-17.7580120">
        <ele>142.2</ele>
        <time>2020-11-15T22:33:08Z</time>
      </trkpt>
      <trkpt lat="28.7026370" lon="-17.7578230">
        <ele>140.2</ele>
        <time>2020-11-15T22:33:09Z</time>
      </trkpt>
      <trkpt lat="28.7026370" lon="-17.7578230">
        <ele>140.2</ele>
        <time>2020-11-15T22:33:10Z</time>
      </trkpt>
      <trkpt lat="28.7026920" lon="-17.7575920">
        <ele>138.1</ele>
        <time>2020-11-15T22:33:11Z</time>
      </trkpt>
      <trkpt lat="28.7026920" lon="-17.7575920">
        <ele>138.1</ele>
        <time>2020-11-15T22:33:12Z</time>
      </trkpt>
      <trkpt lat="28.7027500" lon="-17.7573400">
        <ele>135.7</ele>
        <time>2020-11-15T22:33:13Z</time>
      </trkpt>
      <trkpt lat="28.7027500" lon="-17.7573400">
        <ele>135.7</ele>
        <time>2020-11-15T22:33:14Z</time>
      </trkpt>
      <trkpt lat="28.7028150" lon="-17.7570720">
        <ele>133.1</ele>
        <time>2020-11-15T22:33:15Z</time>
      </trkpt>
      <trkpt lat="28.7028150" lon="-17.7570720">
        <ele>133.1</ele>
        <time>2020-11-15T22:33:16Z</time>
      </trkpt>
      <trkpt lat="28.7028650" lon="-17.7568150">
        <ele>130.7</ele>
        <time>2020-11-15T22:33:17Z</time>
      </trkpt>
      <trkpt lat="28.7028650" lon="-17.7568150">
        <ele>130.7</ele>
        <time>2020-11-15T22:33:18Z</time>
      </trkpt>
      <trkpt lat="28.7028550" lon="-17.7565450">
        <ele>128.2</ele>
        <time>2020-11-15T22:33:19Z</time>
      </trkpt>
      <trkpt lat="28.7028230" lon="-17.7564070">
        <ele>126.9</ele>
        <time>2020-11-15T22:33:20Z</time>
      </trkpt>
      <trkpt lat="28.7028230" lon="-17.7564070">
        <ele>126.9</ele>
        <time>2020-11-15T22:33:21Z</time>
      </trkpt>
      <trkpt lat="28.7027850" lon="-17.7561450">
        <ele>124.6</ele>
        <time>2020-11-15T22:33:22Z</time>
      </trkpt>
      <trkpt lat="28.7027850" lon="-17.7561450">
        <ele>124.6</ele>
        <time>2020-11-15T22:33:23Z</time>
      </trkpt>
      <trkpt lat="28.7028300" lon="-17.7559150">
        <ele>122.5</ele>
        <time>2020-11-15T22:33:24Z</time>
      </trkpt>
      <trkpt lat="28.7028300" lon="-17.7559150">
        <ele>122.5</ele>
        <time>2020-11-15T22:33:25Z</time>
      </trkpt>
      <trkpt lat="28.7029380" lon="-17.7557080">
        <ele>120.3</ele>
        <time>2020-11-15T22:33:26Z</time>
      </trkpt>
      <trkpt lat="28.7029380" lon="-17.7557080">
        <ele>120.3</ele>
        <time>2020-11-15T22:33:27Z</time>
      </trkpt>
      <trkpt lat="28.7030830" lon="-17.7555320">
        <ele>118.2</ele>
        <time>2020-11-15T22:33:28Z</time>
      </trkpt>
      <trkpt lat="28.7031680" lon="-17.7554650">
        <ele>117.1</ele>
        <time>2020-11-15T22:33:29Z</time>
      </trkpt>
      <trkpt lat="28.7031680" lon="-17.7554650">
        <ele>117.1</ele>
        <time>2020-11-15T22:33:30Z</time>
      </trkpt>
      <trkpt lat="28.7033550" lon="-17.7553700">
        <ele>115.0</ele>
        <time>2020-11-15T22:33:31Z</time>
      </trkpt>
      <trkpt lat="28.7033550" lon="-17.7553700">
        <ele>115.0</ele>
        <time>2020-11-15T22:33:32Z</time>
      </trkpt>
      <trkpt lat="28.7035580" lon="-17.7553370">
        <ele>113.0</ele>
        <time>2020-11-15T22:33:33Z</time>
      </trkpt>
      <trkpt lat="28.7035580" lon="-17.7553370">
        <ele>113.0</ele>
        <time>2020-11-15T22:33:34Z</time>
      </trkpt>
      <trkpt lat="28.7037550" lon="-17.7553820">
        <ele>111.0</ele>
        <time>2020-11-15T22:33:35Z</time>
      </trkpt>
      <trkpt lat="28.7037550" lon="-17.7553820">
        <ele>111.0</ele>
        <time>2020-11-15T22:33:36Z</time>
      </trkpt>
      <trkpt lat="28.7039320" lon="-17.7555030">
        <ele>108.6</ele>
        <time>2020-11-15T22:33:37Z</time>
      </trkpt>
      <trkpt lat="28.7040080" lon="-17.7555880">
        <ele>107.5</ele>
        <time>2020-11-15T22:33:38Z</time>
      </trkpt>
      <trkpt lat="28.7040080" lon="-17.7555880">
        <ele>107.5</ele>
        <time>2020-11-15T22:33:39Z</time>
      </trkpt>
      <trkpt lat="28.7041420" lon="-17.7557750">
        <ele>105.5</ele>
        <time>2020-11-15T22:33:40Z</time>
      </trkpt>
      <trkpt lat="28.7041930" lon="-17.7558800">
        <ele>104.6</ele>
        <time>2020-11-15T22:33:41Z</time>
      </trkpt>
      <trkpt lat="28.7041930" lon="-17.7558800">
        <ele>104.6</ele>
        <time>2020-11-15T22:33:42Z</time>
      </trkpt>
      <trkpt lat="28.7042670" lon="-17.7561050">
        <ele>102.7</ele>
        <time>2020-11-15T22:33:43Z</time>
      </trkpt>
      <trkpt lat="28.7042670" lon="-17.7561050">
        <ele>102.7</ele>
        <time>2020-11-15T22:33:44Z</time>
      </trkpt>
      <trkpt lat="28.7043080" lon="-17.7563430">
        <ele>100.8</ele>
        <time>2020-11-15T22:33:45Z</time>
      </trkpt>
      <trkpt lat="28.7043080" lon="-17.7563430">
        <ele>100.8</ele>
        <time>2020-11-15T22:33:46Z</time>
      </trkpt>
      <trkpt lat="28.7043830" lon="-17.7565520">
        <ele>98.8</ele>
        <time>2020-11-15T22:33:47Z</time>
      </trkpt>
      <trkpt lat="28.7043830" lon="-17.7565520">
        <ele>98.8</ele>
        <time>2020-11-15T22:33:48Z</time>
      </trkpt>
      <trkpt lat="28.7045180" lon="-17.7567220">
        <ele>96.6</ele>
        <time>2020-11-15T22:33:49Z</time>
      </trkpt>
      <trkpt lat="28.7045180" lon="-17.7567220">
        <ele>96.6</ele>
        <time>2020-11-15T22:33:50Z</time>
      </trkpt>
      <trkpt lat="28.7046550" lon="-17.7568750">
        <ele>94.7</ele>
        <time>2020-11-15T22:33:51Z</time>
      </trkpt>
      <trkpt lat="28.7046550" lon="-17.7568750">
        <ele>94.7</ele>
        <time>2020-11-15T22:33:52Z</time>
      </trkpt>
      <trkpt lat="28.7048120" lon="-17.7570330">
        <ele>93.4</ele>
        <time>2020-11-15T22:33:53Z</time>
      </trkpt>
      <trkpt lat="28.7048970" lon="-17.7571120">
        <ele>92.9</ele>
        <time>2020-11-15T22:33:54Z</time>
      </trkpt>
      <trkpt lat="28.7048970" lon="-17.7571120">
        <ele>92.9</ele>
        <time>2020-11-15T22:33:55Z</time>
      </trkpt>
      <trkpt lat="28.7050750" lon="-17.7572670">
        <ele>92.2</ele>
        <time>2020-11-15T22:33:56Z</time>
      </trkpt>
      <trkpt lat="28.7051700" lon="-17.7573320">
        <ele>92.2</ele>
        <time>2020-11-15T22:33:57Z</time>
      </trkpt>
      <trkpt lat="28.7051700" lon="-17.7573320">
        <ele>92.2</ele>
        <time>2020-11-15T22:33:58Z</time>
      </trkpt>
      <trkpt lat="28.7053770" lon="-17.7573780">
        <ele>92.5</ele>
        <time>2020-11-15T22:33:59Z</time>
      </trkpt>
      <trkpt lat="28.7054750" lon="-17.7573570">
        <ele>92.9</ele>
        <time>2020-11-15T22:34:00Z</time>
      </trkpt>
      <trkpt lat="28.7054750" lon="-17.7573570">
        <ele>92.9</ele>
        <time>2020-11-15T22:34:01Z</time>
      </trkpt>
      <trkpt lat="28.7056470" lon="-17.7572530">
        <ele>93.0</ele>
        <time>2020-11-15T22:34:02Z</time>
      </trkpt>
      <trkpt lat="28.7057050" lon="-17.7571700">
        <ele>93.0</ele>
        <time>2020-11-15T22:34:03Z</time>
      </trkpt>
      <trkpt lat="28.7057050" lon="-17.7571700">
        <ele>93.0</ele>
        <time>2020-11-15T22:34:04Z</time>
      </trkpt>
      <trkpt lat="28.7057770" lon="-17.7569930">
        <ele>93.0</ele>
        <time>2020-11-15T22:34:05Z</time>
      </trkpt>
      <trkpt lat="28.7057770" lon="-17.7569930">
        <ele>93.0</ele>
        <time>2020-11-15T22:34:06Z</time>
      </trkpt>
      <trkpt lat="28.7057980" lon="-17.7568130">
        <ele>93.5</ele>
        <time>2020-11-15T22:34:07Z</time>
      </trkpt>
      <trkpt lat="28.7057980" lon="-17.7568130">
        <ele>93.5</ele>
        <time>2020-11-15T22:34:08Z</time>
      </trkpt>
      <trkpt lat="28.7058030" lon="-17.7566430">
        <ele>94.1</ele>
        <time>2020-11-15T22:34:09Z</time>
      </trkpt>
      <trkpt lat="28.7058000" lon="-17.7565600">
        <ele>94.4</ele>
        <time>2020-11-15T22:34:10Z</time>
      </trkpt>
      <trkpt lat="28.7058000" lon="-17.7565600">
        <ele>94.4</ele>
        <time>2020-11-15T22:34:11Z</time>
      </trkpt>
      <trkpt lat="28.7057900" lon="-17.7564050">
        <ele>95.1</ele>
        <time>2020-11-15T22:34:12Z</time>
      </trkpt>
      <trkpt lat="28.7057900" lon="-17.7564050">
        <ele>95.1</ele>
        <time>2020-11-15T22:34:13Z</time>
      </trkpt>
      <trkpt lat="28.7057900" lon="-17.7562680">
        <ele>95.8</ele>
        <time>2020-11-15T22:34:14Z</time>
      </trkpt>
      <trkpt lat="28.7057870" lon="-17.7562070">
        <ele>96.1</ele>
        <time>2020-11-15T22:34:15Z</time>
      </trkpt>
      <trkpt lat="28.7057870" lon="-17.7562070">
        <ele>96.1</ele>
        <time>2020-11-15T22:34:16Z</time>
      </trkpt>
      <trkpt lat="28.7057870" lon="-17.7561200">
        <ele>96.6</ele>
        <time>2020-11-15T22:34:17Z</time>
      </trkpt>
      <trkpt lat="28.7057870" lon="-17.7561200">
        <ele>96.6</ele>
        <time>2020-11-15T22:34:18Z</time>
      </trkpt>
      <trkpt lat="28.7057850" lon="-17.7560450">
        <ele>97.0</ele>
        <time>2020-11-15T22:34:19Z</time>
      </trkpt>
      <trkpt lat="28.7057850" lon="-17.7560450">
        <ele>97.0</ele>
        <time>2020-11-15T22:34:20Z</time>
      </trkpt>
      <trkpt lat="28.7057850" lon="-17.7559580">
        <ele>97.5</ele>
        <time>2020-11-15T22:34:21Z</time>
      </trkpt>
      <trkpt lat="28.7057850" lon="-17.7559580">
        <ele>97.5</ele>
        <time>2020-11-15T22:34:22Z</time>
      </trkpt>
      <trkpt lat="28.7057800" lon="-17.7558750">
        <ele>98.0</ele>
        <time>2020-11-15T22:34:23Z</time>
      </trkpt>
      <trkpt lat="28.7057820" lon="-17.7558370">
        <ele>98.2</ele>
        <time>2020-11-15T22:34:24Z</time>
      </trkpt>
      <trkpt lat="28.7057800" lon="-17.7558020">
        <ele>98.5</ele>
        <time>2020-11-15T22:34:25Z</time>
      </trkpt>
      <trkpt lat="28.7057800" lon="-17.7558020">
        <ele>98.5</ele>
        <time>2020-11-15T22:34:26Z</time>
      </trkpt>
      <trkpt lat="28.7057750" lon="-17.7557380">
        <ele>98.8</ele>
        <time>2020-11-15T22:34:27Z</time>
      </trkpt>
      <trkpt lat="28.7057770" lon="-17.7557120">
        <ele>99.0</ele>
        <time>2020-11-15T22:34:28Z</time>
      </trkpt>
      <trkpt lat="28.7057770" lon="-17.7557120">
        <ele>99.0</ele>
        <time>2020-11-15T22:34:29Z</time>
      </trkpt>
      <trkpt lat="28.7057800" lon="-17.7556550">
        <ele>99.3</ele>
        <time>2020-11-15T22:34:30Z</time>
      </trkpt>
      <trkpt lat="28.7057830" lon="-17.7556280">
        <ele>99.4</ele>
        <time>2020-11-15T22:34:31Z</time>
      </trkpt>
      <trkpt lat="28.7057830" lon="-17.7556280">
        <ele>99.4</ele>
        <time>2020-11-15T22:34:32Z</time>
      </trkpt>
      <trkpt lat="28.7057900" lon="-17.7555780">
        <ele>99.7</ele>
        <time>2020-11-15T22:34:33Z</time>
      </trkpt>
      <trkpt lat="28.7057900" lon="-17.7555780">
        <ele>99.7</ele>
        <time>2020-11-15T22:34:34Z</time>
      </trkpt>
      <trkpt lat="28.7058030" lon="-17.7555220">
        <ele>100.0</ele>
        <time>2020-11-15T22:34:35Z</time>
      </trkpt>
      <trkpt lat="28.7058030" lon="-17.7555220">
        <ele>100.0</ele>
        <time>2020-11-15T22:34:36Z</time>
      </trkpt>
      <trkpt lat="28.7058220" lon="-17.7554600">
        <ele>100.3</ele>
        <time>2020-11-15T22:34:37Z</time>
      </trkpt>
      <trkpt lat="28.7058220" lon="-17.7554600">
        <ele>100.3</ele>
        <time>2020-11-15T22:34:38Z</time>
      </trkpt>
      <trkpt lat="28.7058520" lon="-17.7553850">
        <ele>100.7</ele>
        <time>2020-11-15T22:34:39Z</time>
      </trkpt>
      <trkpt lat="28.7058720" lon="-17.7553520">
        <ele>100.9</ele>
        <time>2020-11-15T22:34:40Z</time>
      </trkpt>
      <trkpt lat="28.7058720" lon="-17.7553520">
        <ele>100.9</ele>
        <time>2020-11-15T22:34:41Z</time>
      </trkpt>
      <trkpt lat="28.7059150" lon="-17.7553030">
        <ele>101.1</ele>
        <time>2020-11-15T22:34:42Z</time>
      </trkpt>
      <trkpt lat="28.7059380" lon="-17.7552780">
        <ele>101.2</ele>
        <time>2020-11-15T22:34:43Z</time>
      </trkpt>
      <trkpt lat="28.7059380" lon="-17.7552780">
        <ele>101.2</ele>
        <time>2020-11-15T22:34:44Z</time>
      </trkpt>
      <trkpt lat="28.7059820" lon="-17.7552370">
        <ele>101.3</ele>
        <time>2020-11-15T22:34:45Z</time>
      </trkpt>
      <trkpt lat="28.7060080" lon="-17.7552250">
        <ele>101.4</ele>
        <time>2020-11-15T22:34:46Z</time>
      </trkpt>
      <trkpt lat="28.7060080" lon="-17.7552250">
        <ele>101.4</ele>
        <time>2020-11-15T22:34:47Z</time>
      </trkpt>
      <trkpt lat="28.7060670" lon="-17.7552020">
        <ele>101.5</ele>
        <time>2020-11-15T22:34:48Z</time>
      </trkpt>
      <trkpt lat="28.7061020" lon="-17.7551920">
        <ele>101.6</ele>
        <time>2020-11-15T22:34:49Z</time>
      </trkpt>
      <trkpt lat="28.7061020" lon="-17.7551920">
        <ele>101.6</ele>
        <time>2020-11-15T22:34:50Z</time>
      </trkpt>
      <trkpt lat="28.7061680" lon="-17.7551800">
        <ele>101.7</ele>
        <time>2020-11-15T22:34:51Z</time>
      </trkpt>
      <trkpt lat="28.7061680" lon="-17.7551800">
        <ele>101.7</ele>
        <time>2020-11-15T22:34:52Z</time>
      </trkpt>
      <trkpt lat="28.7062380" lon="-17.7551820">
        <ele>101.8</ele>
        <time>2020-11-15T22:34:53Z</time>
      </trkpt>
      <trkpt lat="28.7062380" lon="-17.7551820">
        <ele>101.8</ele>
        <time>2020-11-15T22:34:54Z</time>
      </trkpt>
      <trkpt lat="28.7063020" lon="-17.7552020">
        <ele>101.8</ele>
        <time>2020-11-15T22:34:55Z</time>
      </trkpt>
      <trkpt lat="28.7063020" lon="-17.7552020">
        <ele>101.8</ele>
        <time>2020-11-15T22:34:56Z</time>
      </trkpt>
      <trkpt lat="28.7063620" lon="-17.7552400">
        <ele>101.8</ele>
        <time>2020-11-15T22:34:57Z</time>
      </trkpt>
      <trkpt lat="28.7063900" lon="-17.7552570">
        <ele>101.8</ele>
        <time>2020-11-15T22:34:58Z</time>
      </trkpt>
      <trkpt lat="28.7063900" lon="-17.7552570">
        <ele>101.8</ele>
        <time>2020-11-15T22:34:59Z</time>
      </trkpt>
      <trkpt lat="28.7064420" lon="-17.7552900">
        <ele>101.8</ele>
        <time>2020-11-15T22:35:00Z</time>
      </trkpt>
      <trkpt lat="28.7064630" lon="-17.7553070">
        <ele>101.7</ele>
        <time>2020-11-15T22:35:01Z</time>
      </trkpt>
      <trkpt lat="28.7064630" lon="-17.7553070">
        <ele>101.7</ele>
        <time>2020-11-15T22:35:02Z</time>
      </trkpt>
      <trkpt lat="28.7065230" lon="-17.7553450">
        <ele>101.6</ele>
        <time>2020-11-15T22:35:03Z</time>
      </trkpt>
      <trkpt lat="28.7065530" lon="-17.7553770">
        <ele>101.6</ele>
        <time>2020-11-15T22:35:04Z</time>
      </trkpt>
      <trkpt lat="28.7065870" lon="-17.7554050">
        <ele>101.5</ele>
        <time>2020-11-15T22:35:05Z</time>
      </trkpt>
      <trkpt lat="28.7065870" lon="-17.7554050">
        <ele>101.5</ele>
        <time>2020-11-15T22:35:06Z</time>
      </trkpt>
      <trkpt lat="28.7066570" lon="-17.7554530">
        <ele>101.3</ele>
        <time>2020-11-15T22:35:07Z</time>
      </trkpt>
      <trkpt lat="28.7066570" lon="-17.7554530">
        <ele>101.3</ele>
        <time>2020-11-15T22:35:08Z</time>
      </trkpt>
      <trkpt lat="28.7067320" lon="-17.7554920">
        <ele>101.2</ele>
        <time>2020-11-15T22:35:09Z</time>
      </trkpt>
      <trkpt lat="28.7067320" lon="-17.7554920">
        <ele>101.2</ele>
        <time>2020-11-15T22:35:10Z</time>
      </trkpt>
      <trkpt lat="28.7067970" lon="-17.7555350">
        <ele>101.0</ele>
        <time>2020-11-15T22:35:11Z</time>
      </trkpt>
      <trkpt lat="28.7067970" lon="-17.7555350">
        <ele>101.0</ele>
        <time>2020-11-15T22:35:12Z</time>
      </trkpt>
      <trkpt lat="28.7068730" lon="-17.7555930">
        <ele>100.7</ele>
        <time>2020-11-15T22:35:13Z</time>
      </trkpt>
      <trkpt lat="28.7069070" lon="-17.7556380">
        <ele>100.5</ele>
        <time>2020-11-15T22:35:14Z</time>
      </trkpt>
      <trkpt lat="28.7069070" lon="-17.7556380">
        <ele>100.5</ele>
        <time>2020-11-15T22:35:15Z</time>
      </trkpt>
      <trkpt lat="28.7069770" lon="-17.7557270">
        <ele>100.2</ele>
        <time>2020-11-15T22:35:16Z</time>
      </trkpt>
      <trkpt lat="28.7069770" lon="-17.7557270">
        <ele>100.2</ele>
        <time>2020-11-15T22:35:17Z</time>
      </trkpt>
      <trkpt lat="28.7070750" lon="-17.7558020">
        <ele>99.8</ele>
        <time>2020-11-15T22:35:18Z</time>
      </trkpt>
      <trkpt lat="28.7070750" lon="-17.7558020">
        <ele>99.8</ele>
        <time>2020-11-15T22:35:19Z</time>
      </trkpt>
      <trkpt lat="28.7071730" lon="-17.7558830">
        <ele>99.4</ele>
        <time>2020-11-15T22:35:20Z</time>
      </trkpt>
      <trkpt lat="28.7071730" lon="-17.7558830">
        <ele>99.4</ele>
        <time>2020-11-15T22:35:21Z</time>
      </trkpt>
      <trkpt lat="28.7072600" lon="-17.7559830">
        <ele>99.0</ele>
        <time>2020-11-15T22:35:22Z</time>
      </trkpt>
      <trkpt lat="28.7072980" lon="-17.7560400">
        <ele>98.8</ele>
        <time>2020-11-15T22:35:23Z</time>
      </trkpt>
      <trkpt lat="28.7072980" lon="-17.7560400">
        <ele>98.8</ele>
        <time>2020-11-15T22:35:24Z</time>
      </trkpt>
      <trkpt lat="28.7073820" lon="-17.7561550">
        <ele>98.4</ele>
        <time>2020-11-15T22:35:25Z</time>
      </trkpt>
      <trkpt lat="28.7073820" lon="-17.7561550">
        <ele>98.4</ele>
        <time>2020-11-15T22:35:26Z</time>
      </trkpt>
      <trkpt lat="28.7074880" lon="-17.7562520">
        <ele>98.0</ele>
        <time>2020-11-15T22:35:27Z</time>
      </trkpt>
      <trkpt lat="28.7074880" lon="-17.7562520">
        <ele>98.0</ele>
        <time>2020-11-15T22:35:28Z</time>
      </trkpt>
      <trkpt lat="28.7076070" lon="-17.7563320">
        <ele>97.7</ele>
        <time>2020-11-15T22:35:29Z</time>
      </trkpt>
      <trkpt lat="28.7076070" lon="-17.7563320">
        <ele>97.7</ele>
        <time>2020-11-15T22:35:30Z</time>
      </trkpt>
      <trkpt lat="28.7077330" lon="-17.7563980">
        <ele>97.5</ele>
        <time>2020-11-15T22:35:31Z</time>
      </trkpt>
      <trkpt lat="28.7077330" lon="-17.7563980">
        <ele>97.5</ele>
        <time>2020-11-15T22:35:32Z</time>
      </trkpt>
      <trkpt lat="28.7078650" lon="-17.7564580">
        <ele>97.3</ele>
        <time>2020-11-15T22:35:33Z</time>
      </trkpt>
      <trkpt lat="28.7078650" lon="-17.7564580">
        <ele>97.3</ele>
        <time>2020-11-15T22:35:34Z</time>
      </trkpt>
      <trkpt lat="28.7079920" lon="-17.7565130">
        <ele>97.2</ele>
        <time>2020-11-15T22:35:35Z</time>
      </trkpt>
      <trkpt lat="28.7080570" lon="-17.7565420">
        <ele>97.1</ele>
        <time>2020-11-15T22:35:36Z</time>
      </trkpt>
      <trkpt lat="28.7080570" lon="-17.7565420">
        <ele>97.1</ele>
        <time>2020-11-15T22:35:37Z</time>
      </trkpt>
      <trkpt lat="28.7081820" lon="-17.7566020">
        <ele>97.1</ele>
        <time>2020-11-15T22:35:38Z</time>
      </trkpt>
      <trkpt lat="28.7082470" lon="-17.7566200">
        <ele>97.2</ele>
        <time>2020-11-15T22:35:39Z</time>
      </trkpt>
      <trkpt lat="28.7082470" lon="-17.7566200">
        <ele>97.2</ele>
        <time>2020-11-15T22:35:40Z</time>
      </trkpt>
      <trkpt lat="28.7083830" lon="-17.7566570">
        <ele>97.3</ele>
        <time>2020-11-15T22:35:41Z</time>
      </trkpt>
      <trkpt lat="28.7084520" lon="-17.7566700">
        <ele>97.4</ele>
        <time>2020-11-15T22:35:42Z</time>
      </trkpt>
      <trkpt lat="28.7084520" lon="-17.7566700">
        <ele>97.4</ele>
        <time>2020-11-15T22:35:43Z</time>
      </trkpt>
      <trkpt lat="28.7085870" lon="-17.7566900">
        <ele>97.5</ele>
        <time>2020-11-15T22:35:44Z</time>
      </trkpt>
      <trkpt lat="28.7085870" lon="-17.7566900">
        <ele>97.5</ele>
        <time>2020-11-15T22:35:45Z</time>
      </trkpt>
      <trkpt lat="28.7087170" lon="-17.7566230">
        <ele>97.7</ele>
        <time>2020-11-15T22:35:46Z</time>
      </trkpt>
      <trkpt lat="28.7087170" lon="-17.7566230">
        <ele>97.7</ele>
        <time>2020-11-15T22:35:47Z</time>
      </trkpt>
      <trkpt lat="28.7088450" lon="-17.7565720">
        <ele>97.6</ele>
        <time>2020-11-15T22:35:48Z</time>
      </trkpt>
      <trkpt lat="28.7088450" lon="-17.7565720">
        <ele>97.6</ele>
        <time>2020-11-15T22:35:49Z</time>
      </trkpt>
      <trkpt lat="28.7089750" lon="-17.7564780">
        <ele>97.5</ele>
        <time>2020-11-15T22:35:50Z</time>
      </trkpt>
      <trkpt lat="28.7089750" lon="-17.7564780">
        <ele>97.5</ele>
        <time>2020-11-15T22:35:51Z</time>
      </trkpt>
      <trkpt lat="28.7090620" lon="-17.7563780">
        <ele>97.4</ele>
        <time>2020-11-15T22:35:52Z</time>
      </trkpt>
      <trkpt lat="28.7090930" lon="-17.7563270">
        <ele>97.5</ele>
        <time>2020-11-15T22:35:53Z</time>
      </trkpt>
      <trkpt lat="28.7091180" lon="-17.7562770">
        <ele>97.5</ele>
        <time>2020-11-15T22:35:54Z</time>
      </trkpt>
      <trkpt lat="28.7091420" lon="-17.7562270">
        <ele>97.6</ele>
        <time>2020-11-15T22:35:55Z</time>
      </trkpt>
      <trkpt lat="28.7091420" lon="-17.7562270">
        <ele>97.6</ele>
        <time>2020-11-15T22:35:56Z</time>
      </trkpt>
      <trkpt lat="28.7091630" lon="-17.7561280">
        <ele>97.8</ele>
        <time>2020-11-15T22:35:57Z</time>
      </trkpt>
      <trkpt lat="28.7091630" lon="-17.7561280">
        <ele>97.8</ele>
        <time>2020-11-15T22:35:58Z</time>
      </trkpt>
      <trkpt lat="28.7091730" lon="-17.7560370">
        <ele>98.1</ele>
        <time>2020-11-15T22:35:59Z</time>
      </trkpt>
      <trkpt lat="28.7091720" lon="-17.7559930">
        <ele>98.3</ele>
        <time>2020-11-15T22:36:00Z</time>
      </trkpt>
      <trkpt lat="28.7091720" lon="-17.7559930">
        <ele>98.3</ele>
        <time>2020-11-15T22:36:01Z</time>
      </trkpt>
      <trkpt lat="28.7091580" lon="-17.7559200">
        <ele>98.6</ele>
        <time>2020-11-15T22:36:02Z</time>
      </trkpt>
      <trkpt lat="28.7091500" lon="-17.7558870">
        <ele>98.8</ele>
        <time>2020-11-15T22:36:03Z</time>
      </trkpt>
      <trkpt lat="28.7091420" lon="-17.7558530">
        <ele>99.0</ele>
        <time>2020-11-15T22:36:04Z</time>
      </trkpt>
      <trkpt lat="28.7091420" lon="-17.7558530">
        <ele>99.0</ele>
        <time>2020-11-15T22:36:05Z</time>
      </trkpt>
      <trkpt lat="28.7091180" lon="-17.7557930">
        <ele>99.3</ele>
        <time>2020-11-15T22:36:06Z</time>
      </trkpt>
      <trkpt lat="28.7091050" lon="-17.7557630">
        <ele>99.5</ele>
        <time>2020-11-15T22:36:07Z</time>
      </trkpt>
      <trkpt lat="28.7091050" lon="-17.7557630">
        <ele>99.5</ele>
        <time>2020-11-15T22:36:08Z</time>
      </trkpt>
      <trkpt lat="28.7090770" lon="-17.7557100">
        <ele>99.9</ele>
        <time>2020-11-15T22:36:09Z</time>
      </trkpt>
      <trkpt lat="28.7090580" lon="-17.7556850">
        <ele>100.1</ele>
        <time>2020-11-15T22:36:10Z</time>
      </trkpt>
      <trkpt lat="28.7090580" lon="-17.7556850">
        <ele>100.1</ele>
        <time>2020-11-15T22:36:11Z</time>
      </trkpt>
      <trkpt lat="28.7090220" lon="-17.7556370">
        <ele>100.4</ele>
        <time>2020-11-15T22:36:12Z</time>
      </trkpt>
      <trkpt lat="28.7090070" lon="-17.7556120">
        <ele>100.6</ele>
        <time>2020-11-15T22:36:13Z</time>
      </trkpt>
      <trkpt lat="28.7089880" lon="-17.7555870">
        <ele>100.8</ele>
        <time>2020-11-15T22:36:14Z</time>
      </trkpt>
      <trkpt lat="28.7089880" lon="-17.7555870">
        <ele>100.8</ele>
        <time>2020-11-15T22:36:15Z</time>
      </trkpt>
      <trkpt lat="28.7089480" lon="-17.7555400">
        <ele>101.2</ele>
        <time>2020-11-15T22:36:16Z</time>
      </trkpt>
      <trkpt lat="28.7089480" lon="-17.7555400">
        <ele>101.2</ele>
        <time>2020-11-15T22:36:17Z</time>
      </trkpt>
      <trkpt lat="28.7089100" lon="-17.7554830">
        <ele>101.6</ele>
        <time>2020-11-15T22:36:18Z</time>
      </trkpt>
      <trkpt lat="28.7089000" lon="-17.7554670">
        <ele>101.7</ele>
        <time>2020-11-15T22:36:19Z</time>
      </trkpt>
      <trkpt lat="28.7088830" lon="-17.7554550">
        <ele>101.9</ele>
        <time>2020-11-15T22:36:20Z</time>
      </trkpt>
      <trkpt lat="28.7088830" lon="-17.7554550">
        <ele>101.9</ele>
        <time>2020-11-15T22:36:21Z</time>
      </trkpt>
      <trkpt lat="28.7088480" lon="-17.7554180">
        <ele>102.2</ele>
        <time>2020-11-15T22:36:22Z</time>
      </trkpt>
      <trkpt lat="28.7088350" lon="-17.7553970">
        <ele>102.3</ele>
        <time>2020-11-15T22:36:23Z</time>
      </trkpt>
      <trkpt lat="28.7088350" lon="-17.7553970">
        <ele>102.3</ele>
        <time>2020-11-15T22:36:24Z</time>
      </trkpt>
      <trkpt lat="28.7088050" lon="-17.7553530">
        <ele>102.7</ele>
        <time>2020-11-15T22:36:25Z</time>
      </trkpt>
      <trkpt lat="28.7088050" lon="-17.7553530">
        <ele>102.7</ele>
        <time>2020-11-15T22:36:26Z</time>
      </trkpt>
      <trkpt lat="28.7087780" lon="-17.7553170">
        <ele>103.0</ele>
        <time>2020-11-15T22:36:27Z</time>
      </trkpt>
      <trkpt lat="28.7087780" lon="-17.7553170">
        <ele>103.0</ele>
        <time>2020-11-15T22:36:28Z</time>
      </trkpt>
      <trkpt lat="28.7087530" lon="-17.7552730">
        <ele>103.3</ele>
        <time>2020-11-15T22:36:29Z</time>
      </trkpt>
      <trkpt lat="28.7087400" lon="-17.7552570">
        <ele>103.4</ele>
        <time>2020-11-15T22:36:30Z</time>
      </trkpt>
      <trkpt lat="28.7087270" lon="-17.7552430">
        <ele>103.6</ele>
        <time>2020-11-15T22:36:31Z</time>
      </trkpt>
      <trkpt lat="28.7087270" lon="-17.7552430">
        <ele>103.6</ele>
        <time>2020-11-15T22:36:32Z</time>
      </trkpt>
      <trkpt lat="28.7086980" lon="-17.7552150">
        <ele>103.8</ele>
        <time>2020-11-15T22:36:33Z</time>
      </trkpt>
      <trkpt lat="28.7086830" lon="-17.7552000">
        <ele>104.0</ele>
        <time>2020-11-15T22:36:34Z</time>
      </trkpt>
      <trkpt lat="28.7086680" lon="-17.7551850">
        <ele>104.1</ele>
        <time>2020-11-15T22:36:35Z</time>
      </trkpt>
      <trkpt lat="28.7086570" lon="-17.7551730">
        <ele>104.3</ele>
        <time>2020-11-15T22:36:36Z</time>
      </trkpt>
      <trkpt lat="28.7086570" lon="-17.7551730">
        <ele>104.3</ele>
        <time>2020-11-15T22:36:37Z</time>
      </trkpt>
      <trkpt lat="28.7086330" lon="-17.7551450">
        <ele>104.5</ele>
        <time>2020-11-15T22:36:38Z</time>
      </trkpt>
      <trkpt lat="28.7086330" lon="-17.7551450">
        <ele>104.5</ele>
        <time>2020-11-15T22:36:39Z</time>
      </trkpt>
      <trkpt lat="28.7086070" lon="-17.7551170">
        <ele>104.8</ele>
        <time>2020-11-15T22:36:40Z</time>
      </trkpt>
      <trkpt lat="28.7085920" lon="-17.7551000">
        <ele>105.0</ele>
        <time>2020-11-15T22:36:41Z</time>
      </trkpt>
      <trkpt lat="28.7085920" lon="-17.7551000">
        <ele>105.0</ele>
        <time>2020-11-15T22:36:42Z</time>
      </trkpt>
      <trkpt lat="28.7085670" lon="-17.7550700">
        <ele>105.3</ele>
        <time>2020-11-15T22:36:43Z</time>
      </trkpt>
      <trkpt lat="28.7085670" lon="-17.7550700">
        <ele>105.3</ele>
        <time>2020-11-15T22:36:44Z</time>
      </trkpt>
      <trkpt lat="28.7085420" lon="-17.7550420">
        <ele>105.6</ele>
        <time>2020-11-15T22:36:45Z</time>
      </trkpt>
      <trkpt lat="28.7085420" lon="-17.7550420">
        <ele>105.6</ele>
        <time>2020-11-15T22:36:46Z</time>
      </trkpt>
      <trkpt lat="28.7085150" lon="-17.7550180">
        <ele>105.9</ele>
        <time>2020-11-15T22:36:47Z</time>
      </trkpt>
      <trkpt lat="28.7085050" lon="-17.7550000">
        <ele>106.0</ele>
        <time>2020-11-15T22:36:48Z</time>
      </trkpt>
      <trkpt lat="28.7084920" lon="-17.7549830">
        <ele>106.2</ele>
        <time>2020-11-15T22:36:49Z</time>
      </trkpt>
      <trkpt lat="28.7084920" lon="-17.7549830">
        <ele>106.2</ele>
        <time>2020-11-15T22:36:50Z</time>
      </trkpt>
      <trkpt lat="28.7084650" lon="-17.7549500">
        <ele>106.5</ele>
        <time>2020-11-15T22:36:51Z</time>
      </trkpt>
      <trkpt lat="28.7084520" lon="-17.7549370">
        <ele>106.6</ele>
        <time>2020-11-15T22:36:52Z</time>
      </trkpt>
      <trkpt lat="28.7084520" lon="-17.7549370">
        <ele>106.6</ele>
        <time>2020-11-15T22:36:53Z</time>
      </trkpt>
      <trkpt lat="28.7084200" lon="-17.7548970">
        <ele>107.0</ele>
        <time>2020-11-15T22:36:54Z</time>
      </trkpt>
      <trkpt lat="28.7084200" lon="-17.7548970">
        <ele>107.0</ele>
        <time>2020-11-15T22:36:55Z</time>
      </trkpt>
      <trkpt lat="28.7083980" lon="-17.7548700">
        <ele>107.2</ele>
        <time>2020-11-15T22:36:56Z</time>
      </trkpt>
      <trkpt lat="28.7083830" lon="-17.7548500">
        <ele>107.4</ele>
        <time>2020-11-15T22:36:57Z</time>
      </trkpt>
      <trkpt lat="28.7083830" lon="-17.7548500">
        <ele>107.4</ele>
        <time>2020-11-15T22:36:58Z</time>
      </trkpt>
      <trkpt lat="28.7083550" lon="-17.7548200">
        <ele>107.7</ele>
        <time>2020-11-15T22:36:59Z</time>
      </trkpt>
      <trkpt lat="28.7083550" lon="-17.7548200">
        <ele>107.7</ele>
        <time>2020-11-15T22:37:00Z</time>
      </trkpt>
      <trkpt lat="28.7083370" lon="-17.7547780">
        <ele>108.0</ele>
        <time>2020-11-15T22:37:01Z</time>
      </trkpt>
      <trkpt lat="28.7083370" lon="-17.7547780">
        <ele>108.0</ele>
        <time>2020-11-15T22:37:02Z</time>
      </trkpt>
      <trkpt lat="28.7083180" lon="-17.7547420">
        <ele>108.2</ele>
        <time>2020-11-15T22:37:03Z</time>
      </trkpt>
      <trkpt lat="28.7083120" lon="-17.7547220">
        <ele>108.4</ele>
        <time>2020-11-15T22:37:04Z</time>
      </trkpt>
      <trkpt lat="28.7083120" lon="-17.7547220">
        <ele>108.4</ele>
        <time>2020-11-15T22:37:05Z</time>
      </trkpt>
      <trkpt lat="28.7082980" lon="-17.7546850">
        <ele>108.6</ele>
        <time>2020-11-15T22:37:06Z</time>
      </trkpt>
      <trkpt lat="28.7082980" lon="-17.7546850">
        <ele>108.6</ele>
        <time>2020-11-15T22:37:07Z</time>
      </trkpt>
      <trkpt lat="28.7082850" lon="-17.7546520">
        <ele>108.8</ele>
        <time>2020-11-15T22:37:08Z</time>
      </trkpt>
      <trkpt lat="28.7082850" lon="-17.7546520">
        <ele>108.8</ele>
        <time>2020-11-15T22:37:09Z</time>
      </trkpt>
      <trkpt lat="28.7082830" lon="-17.7546080">
        <ele>109.1</ele>
        <time>2020-11-15T22:37:10Z</time>
      </trkpt>
      <trkpt lat="28.7082830" lon="-17.7546080">
        <ele>109.1</ele>
        <time>2020-11-15T22:37:11Z</time>
      </trkpt>
      <trkpt lat="28.7082780" lon="-17.7545650">
        <ele>109.4</ele>
        <time>2020-11-15T22:37:12Z</time>
      </trkpt>
      <trkpt lat="28.7082720" lon="-17.7545450">
        <ele>109.5</ele>
        <time>2020-11-15T22:37:13Z</time>
      </trkpt>
      <trkpt lat="28.7082720" lon="-17.7545450">
        <ele>109.5</ele>
        <time>2020-11-15T22:37:14Z</time>
      </trkpt>
      <trkpt lat="28.7082420" lon="-17.7545020">
        <ele>109.8</ele>
        <time>2020-11-15T22:37:15Z</time>
      </trkpt>
      <trkpt lat="28.7082420" lon="-17.7545020">
        <ele>109.8</ele>
        <time>2020-11-15T22:37:16Z</time>
      </trkpt>
      <trkpt lat="28.7082230" lon="-17.7544620">
        <ele>110.1</ele>
        <time>2020-11-15T22:37:17Z</time>
      </trkpt>
      <trkpt lat="28.7082120" lon="-17.7544430">
        <ele>110.2</ele>
        <time>2020-11-15T22:37:18Z</time>
      </trkpt>
      <trkpt lat="28.7082120" lon="-17.7544430">
        <ele>110.2</ele>
        <time>2020-11-15T22:37:19Z</time>
      </trkpt>
      <trkpt lat="28.7081900" lon="-17.7544070">
        <ele>110.5</ele>
        <time>2020-11-15T22:37:20Z</time>
      </trkpt>
      <trkpt lat="28.7081900" lon="-17.7544070">
        <ele>110.5</ele>
        <time>2020-11-15T22:37:21Z</time>
      </trkpt>
      <trkpt lat="28.7081730" lon="-17.7543700">
        <ele>110.7</ele>
        <time>2020-11-15T22:37:22Z</time>
      </trkpt>
      <trkpt lat="28.7081650" lon="-17.7543430">
        <ele>110.9</ele>
        <time>2020-11-15T22:37:23Z</time>
      </trkpt>
      <trkpt lat="28.7081650" lon="-17.7543430">
        <ele>110.9</ele>
        <time>2020-11-15T22:37:24Z</time>
      </trkpt>
      <trkpt lat="28.7081450" lon="-17.7542930">
        <ele>111.2</ele>
        <time>2020-11-15T22:37:25Z</time>
      </trkpt>
      <trkpt lat="28.7081370" lon="-17.7542750">
        <ele>111.4</ele>
        <time>2020-11-15T22:37:26Z</time>
      </trkpt>
      <trkpt lat="28.7081370" lon="-17.7542750">
        <ele>111.4</ele>
        <time>2020-11-15T22:37:27Z</time>
      </trkpt>
      <trkpt lat="28.7081200" lon="-17.7542230">
        <ele>111.7</ele>
        <time>2020-11-15T22:37:28Z</time>
      </trkpt>
      <trkpt lat="28.7081150" lon="-17.7542030">
        <ele>111.9</ele>
        <time>2020-11-15T22:37:29Z</time>
      </trkpt>
      <trkpt lat="28.7081150" lon="-17.7542030">
        <ele>111.9</ele>
        <time>2020-11-15T22:37:30Z</time>
      </trkpt>
      <trkpt lat="28.7080980" lon="-17.7541620">
        <ele>112.1</ele>
        <time>2020-11-15T22:37:31Z</time>
      </trkpt>
      <trkpt lat="28.7080980" lon="-17.7541620">
        <ele>112.1</ele>
        <time>2020-11-15T22:37:32Z</time>
      </trkpt>
      <trkpt lat="28.7080780" lon="-17.7541270">
        <ele>112.4</ele>
        <time>2020-11-15T22:37:33Z</time>
      </trkpt>
      <trkpt lat="28.7080780" lon="-17.7541270">
        <ele>112.4</ele>
        <time>2020-11-15T22:37:34Z</time>
      </trkpt>
      <trkpt lat="28.7080670" lon="-17.7540900">
        <ele>112.7</ele>
        <time>2020-11-15T22:37:35Z</time>
      </trkpt>
      <trkpt lat="28.7080670" lon="-17.7540900">
        <ele>112.7</ele>
        <time>2020-11-15T22:37:36Z</time>
      </trkpt>
      <trkpt lat="28.7080550" lon="-17.7540470">
        <ele>113.0</ele>
        <time>2020-11-15T22:37:37Z</time>
      </trkpt>
      <trkpt lat="28.7080550" lon="-17.7540470">
        <ele>113.0</ele>
        <time>2020-11-15T22:37:38Z</time>
      </trkpt>
      <trkpt lat="28.7080320" lon="-17.7540180">
        <ele>113.2</ele>
        <time>2020-11-15T22:37:39Z</time>
      </trkpt>
      <trkpt lat="28.7080320" lon="-17.7540180">
        <ele>113.2</ele>
        <time>2020-11-15T22:37:40Z</time>
      </trkpt>
      <trkpt lat="28.7080170" lon="-17.7539750">
        <ele>113.5</ele>
        <time>2020-11-15T22:37:41Z</time>
      </trkpt>
      <trkpt lat="28.7080120" lon="-17.7539520">
        <ele>113.7</ele>
        <time>2020-11-15T22:37:42Z</time>
      </trkpt>
      <trkpt lat="28.7080120" lon="-17.7539520">
        <ele>113.7</ele>
        <time>2020-11-15T22:37:43Z</time>
      </trkpt>
      <trkpt lat="28.7079970" lon="-17.7539170">
        <ele>113.9</ele>
        <time>2020-11-15T22:37:44Z</time>
      </trkpt>
      <trkpt lat="28.7079830" lon="-17.7539020">
        <ele>114.1</ele>
        <time>2020-11-15T22:37:45Z</time>
      </trkpt>
      <trkpt lat="28.7079830" lon="-17.7539020">
        <ele>114.1</ele>
        <time>2020-11-15T22:37:46Z</time>
      </trkpt>
      <trkpt lat="28.7079630" lon="-17.7538700">
        <ele>114.3</ele>
        <time>2020-11-15T22:37:47Z</time>
      </trkpt>
      <trkpt lat="28.7079580" lon="-17.7538520">
        <ele>114.4</ele>
        <time>2020-11-15T22:37:48Z</time>
      </trkpt>
      <trkpt lat="28.7079580" lon="-17.7538520">
        <ele>114.4</ele>
        <time>2020-11-15T22:37:49Z</time>
      </trkpt>
      <trkpt lat="28.7079380" lon="-17.7538020">
        <ele>114.7</ele>
        <time>2020-11-15T22:37:50Z</time>
      </trkpt>
      <trkpt lat="28.7079280" lon="-17.7537820">
        <ele>114.9</ele>
        <time>2020-11-15T22:37:51Z</time>
      </trkpt>
      <trkpt lat="28.7079280" lon="-17.7537820">
        <ele>114.9</ele>
        <time>2020-11-15T22:37:52Z</time>
      </trkpt>
      <trkpt lat="28.7079170" lon="-17.7537480">
        <ele>115.1</ele>
        <time>2020-11-15T22:37:53Z</time>
      </trkpt>
      <trkpt lat="28.7079100" lon="-17.7537330">
        <ele>115.2</ele>
        <time>2020-11-15T22:37:54Z</time>
      </trkpt>
      <trkpt lat="28.7079100" lon="-17.7537330">
        <ele>115.2</ele>
        <time>2020-11-15T22:37:55Z</time>
      </trkpt>
      <trkpt lat="28.7078930" lon="-17.7536930">
        <ele>115.5</ele>
        <time>2020-11-15T22:37:56Z</time>
      </trkpt>
      <trkpt lat="28.7078930" lon="-17.7536930">
        <ele>115.5</ele>
        <time>2020-11-15T22:37:57Z</time>
      </trkpt>
      <trkpt lat="28.7078700" lon="-17.7536550">
        <ele>115.8</ele>
        <time>2020-11-15T22:37:58Z</time>
      </trkpt>
      <trkpt lat="28.7078700" lon="-17.7536550">
        <ele>115.8</ele>
        <time>2020-11-15T22:37:59Z</time>
      </trkpt>
      <trkpt lat="28.7078450" lon="-17.7536180">
        <ele>116.1</ele>
        <time>2020-11-15T22:38:00Z</time>
      </trkpt>
      <trkpt lat="28.7078330" lon="-17.7535950">
        <ele>116.3</ele>
        <time>2020-11-15T22:38:01Z</time>
      </trkpt>
      <trkpt lat="28.7078330" lon="-17.7535950">
        <ele>116.3</ele>
        <time>2020-11-15T22:38:02Z</time>
      </trkpt>
      <trkpt lat="28.7078070" lon="-17.7535630">
        <ele>116.6</ele>
        <time>2020-11-15T22:38:03Z</time>
      </trkpt>
      <trkpt lat="28.7078070" lon="-17.7535630">
        <ele>116.6</ele>
        <time>2020-11-15T22:38:04Z</time>
      </trkpt>
      <trkpt lat="28.7077800" lon="-17.7535300">
        <ele>116.9</ele>
        <time>2020-11-15T22:38:05Z</time>
      </trkpt>
      <trkpt lat="28.7077650" lon="-17.7535150">
        <ele>117.1</ele>
        <time>2020-11-15T22:38:06Z</time>
      </trkpt>
      <trkpt lat="28.7077650" lon="-17.7535150">
        <ele>117.1</ele>
        <time>2020-11-15T22:38:07Z</time>
      </trkpt>
      <trkpt lat="28.7077300" lon="-17.7534920">
        <ele>117.4</ele>
        <time>2020-11-15T22:38:08Z</time>
      </trkpt>
      <trkpt lat="28.7077300" lon="-17.7534920">
        <ele>117.4</ele>
        <time>2020-11-15T22:38:09Z</time>
      </trkpt>
      <trkpt lat="28.7076980" lon="-17.7534720">
        <ele>117.8</ele>
        <time>2020-11-15T22:38:10Z</time>
      </trkpt>
      <trkpt lat="28.7076980" lon="-17.7534720">
        <ele>117.8</ele>
        <time>2020-11-15T22:38:11Z</time>
      </trkpt>
      <trkpt lat="28.7076650" lon="-17.7534530">
        <ele>118.1</ele>
        <time>2020-11-15T22:38:12Z</time>
      </trkpt>
      <trkpt lat="28.7076470" lon="-17.7534500">
        <ele>118.3</ele>
        <time>2020-11-15T22:38:13Z</time>
      </trkpt>
      <trkpt lat="28.7076470" lon="-17.7534500">
        <ele>118.3</ele>
        <time>2020-11-15T22:38:14Z</time>
      </trkpt>
      <trkpt lat="28.7076100" lon="-17.7534400">
        <ele>118.7</ele>
        <time>2020-11-15T22:38:15Z</time>
      </trkpt>
      <trkpt lat="28.7075900" lon="-17.7534370">
        <ele>118.8</ele>
        <time>2020-11-15T22:38:16Z</time>
      </trkpt>
      <trkpt lat="28.7075720" lon="-17.7534330">
        <ele>119.0</ele>
        <time>2020-11-15T22:38:17Z</time>
      </trkpt>
      <trkpt lat="28.7075720" lon="-17.7534330">
        <ele>119.0</ele>
        <time>2020-11-15T22:38:18Z</time>
      </trkpt>
      <trkpt lat="28.7075330" lon="-17.7534220">
        <ele>119.4</ele>
        <time>2020-11-15T22:38:19Z</time>
      </trkpt>
      <trkpt lat="28.7075330" lon="-17.7534220">
        <ele>119.4</ele>
        <time>2020-11-15T22:38:20Z</time>
      </trkpt>
      <trkpt lat="28.7074950" lon="-17.7534180">
        <ele>119.8</ele>
        <time>2020-11-15T22:38:21Z</time>
      </trkpt>
      <trkpt lat="28.7074950" lon="-17.7534180">
        <ele>119.8</ele>
        <time>2020-11-15T22:38:22Z</time>
      </trkpt>
      <trkpt lat="28.7074630" lon="-17.7534100">
        <ele>120.1</ele>
        <time>2020-11-15T22:38:23Z</time>
      </trkpt>
      <trkpt lat="28.7074630" lon="-17.7534100">
        <ele>120.1</ele>
        <time>2020-11-15T22:38:24Z</time>
      </trkpt>
      <trkpt lat="28.7074250" lon="-17.7533980">
        <ele>120.4</ele>
        <time>2020-11-15T22:38:25Z</time>
      </trkpt>
      <trkpt lat="28.7074250" lon="-17.7533980">
        <ele>120.4</ele>
        <time>2020-11-15T22:38:26Z</time>
      </trkpt>
      <trkpt lat="28.7073880" lon="-17.7533820">
        <ele>120.8</ele>
        <time>2020-11-15T22:38:27Z</time>
      </trkpt>
      <trkpt lat="28.7073880" lon="-17.7533820">
        <ele>120.8</ele>
        <time>2020-11-15T22:38:28Z</time>
      </trkpt>
      <trkpt lat="28.7073530" lon="-17.7533630">
        <ele>121.1</ele>
        <time>2020-11-15T22:38:29Z</time>
      </trkpt>
      <trkpt lat="28.7073370" lon="-17.7533550">
        <ele>121.2</ele>
        <time>2020-11-15T22:38:30Z</time>
      </trkpt>
      <trkpt lat="28.7073370" lon="-17.7533550">
        <ele>121.2</ele>
        <time>2020-11-15T22:38:31Z</time>
      </trkpt>
      <trkpt lat="28.7073000" lon="-17.7533400">
        <ele>121.5</ele>
        <time>2020-11-15T22:38:32Z</time>
      </trkpt>
      <trkpt lat="28.7072820" lon="-17.7533320">
        <ele>121.7</ele>
        <time>2020-11-15T22:38:33Z</time>
      </trkpt>
      <trkpt lat="28.7072820" lon="-17.7533320">
        <ele>121.7</ele>
        <time>2020-11-15T22:38:34Z</time>
      </trkpt>
      <trkpt lat="28.7072550" lon="-17.7533030">
        <ele>121.9</ele>
        <time>2020-11-15T22:38:35Z</time>
      </trkpt>
      <trkpt lat="28.7072550" lon="-17.7533030">
        <ele>121.9</ele>
        <time>2020-11-15T22:38:36Z</time>
      </trkpt>
      <trkpt lat="28.7072300" lon="-17.7532700">
        <ele>122.2</ele>
        <time>2020-11-15T22:38:37Z</time>
      </trkpt>
      <trkpt lat="28.7072300" lon="-17.7532700">
        <ele>122.2</ele>
        <time>2020-11-15T22:38:38Z</time>
      </trkpt>
      <trkpt lat="28.7072020" lon="-17.7532370">
        <ele>122.5</ele>
        <time>2020-11-15T22:38:39Z</time>
      </trkpt>
      <trkpt lat="28.7072020" lon="-17.7532370">
        <ele>122.5</ele>
        <time>2020-11-15T22:38:40Z</time>
      </trkpt>
      <trkpt lat="28.7071780" lon="-17.7531980">
        <ele>122.7</ele>
        <time>2020-11-15T22:38:41Z</time>
      </trkpt>
      <trkpt lat="28.7071780" lon="-17.7531980">
        <ele>122.7</ele>
        <time>2020-11-15T22:38:42Z</time>
      </trkpt>
      <trkpt lat="28.7071600" lon="-17.7531570">
        <ele>123.0</ele>
        <time>2020-11-15T22:38:43Z</time>
      </trkpt>
      <trkpt lat="28.7071600" lon="-17.7531570">
        <ele>123.0</ele>
        <time>2020-11-15T22:38:44Z</time>
      </trkpt>
      <trkpt lat="28.7071500" lon="-17.7531220">
        <ele>123.2</ele>
        <time>2020-11-15T22:38:45Z</time>
      </trkpt>
      <trkpt lat="28.7071500" lon="-17.7531220">
        <ele>123.2</ele>
        <time>2020-11-15T22:38:46Z</time>
      </trkpt>
      <trkpt lat="28.7071330" lon="-17.7530830">
        <ele>123.6</ele>
        <time>2020-11-15T22:38:47Z</time>
      </trkpt>
      <trkpt lat="28.7071330" lon="-17.7530830">
        <ele>123.6</ele>
        <time>2020-11-15T22:38:48Z</time>
      </trkpt>
      <trkpt lat="28.7071170" lon="-17.7530430">
        <ele>125.6</ele>
        <time>2020-11-15T22:38:49Z</time>
      </trkpt>
      <trkpt lat="28.7071170" lon="-17.7530430">
        <ele>125.6</ele>
        <time>2020-11-15T22:38:50Z</time>
      </trkpt>
      <trkpt lat="28.7071020" lon="-17.7530100">
        <ele>127.3</ele>
        <time>2020-11-15T22:38:51Z</time>
      </trkpt>
      <trkpt lat="28.7071020" lon="-17.7530100">
        <ele>127.3</ele>
        <time>2020-11-15T22:38:52Z</time>
      </trkpt>
      <trkpt lat="28.7071130" lon="-17.7529620">
        <ele>129.5</ele>
        <time>2020-11-15T22:38:53Z</time>
      </trkpt>
      <trkpt lat="28.7071130" lon="-17.7529620">
        <ele>129.5</ele>
        <time>2020-11-15T22:38:54Z</time>
      </trkpt>
      <trkpt lat="28.7071150" lon="-17.7529100">
        <ele>131.9</ele>
        <time>2020-11-15T22:38:55Z</time>
      </trkpt>
      <trkpt lat="28.7071150" lon="-17.7529100">
        <ele>131.9</ele>
        <time>2020-11-15T22:38:56Z</time>
      </trkpt>
      <trkpt lat="28.7071200" lon="-17.7528670">
        <ele>133.8</ele>
        <time>2020-11-15T22:38:57Z</time>
      </trkpt>
      <trkpt lat="28.7071200" lon="-17.7528670">
        <ele>133.8</ele>
        <time>2020-11-15T22:38:58Z</time>
      </trkpt>
      <trkpt lat="28.7071250" lon="-17.7528320">
        <ele>135.5</ele>
        <time>2020-11-15T22:38:59Z</time>
      </trkpt>
      <trkpt lat="28.7071250" lon="-17.7528320">
        <ele>135.5</ele>
        <time>2020-11-15T22:39:00Z</time>
      </trkpt>
      <trkpt lat="28.7071280" lon="-17.7527980">
        <ele>137.0</ele>
        <time>2020-11-15T22:39:01Z</time>
      </trkpt>
      <trkpt lat="28.7071280" lon="-17.7527980">
        <ele>137.0</ele>
        <time>2020-11-15T22:39:02Z</time>
      </trkpt>
      <trkpt lat="28.7071430" lon="-17.7527680">
        <ele>138.6</ele>
        <time>2020-11-15T22:39:03Z</time>
      </trkpt>
      <trkpt lat="28.7071430" lon="-17.7527680">
        <ele>138.6</ele>
        <time>2020-11-15T22:39:04Z</time>
      </trkpt>
      <trkpt lat="28.7071630" lon="-17.7527370">
        <ele>140.3</ele>
        <time>2020-11-15T22:39:05Z</time>
      </trkpt>
      <trkpt lat="28.7071630" lon="-17.7527370">
        <ele>140.3</ele>
        <time>2020-11-15T22:39:06Z</time>
      </trkpt>
      <trkpt lat="28.7071880" lon="-17.7527050">
        <ele>142.3</ele>
        <time>2020-11-15T22:39:07Z</time>
      </trkpt>
      <trkpt lat="28.7071880" lon="-17.7527050">
        <ele>142.3</ele>
        <time>2020-11-15T22:39:08Z</time>
      </trkpt>
      <trkpt lat="28.7072200" lon="-17.7526750">
        <ele>143.9</ele>
        <time>2020-11-15T22:39:09Z</time>
      </trkpt>
      <trkpt lat="28.7072350" lon="-17.7526600">
        <ele>144.2</ele>
        <time>2020-11-15T22:39:10Z</time>
      </trkpt>
      <trkpt lat="28.7072350" lon="-17.7526600">
        <ele>144.2</ele>
        <time>2020-11-15T22:39:11Z</time>
      </trkpt>
      <trkpt lat="28.7072630" lon="-17.7526380">
        <ele>144.8</ele>
        <time>2020-11-15T22:39:12Z</time>
      </trkpt>
      <trkpt lat="28.7072630" lon="-17.7526380">
        <ele>144.8</ele>
        <time>2020-11-15T22:39:13Z</time>
      </trkpt>
      <trkpt lat="28.7072870" lon="-17.7526130">
        <ele>145.3</ele>
        <time>2020-11-15T22:39:14Z</time>
      </trkpt>
      <trkpt lat="28.7072870" lon="-17.7526130">
        <ele>145.3</ele>
        <time>2020-11-15T22:39:15Z</time>
      </trkpt>
      <trkpt lat="28.7073150" lon="-17.7525900">
        <ele>145.9</ele>
        <time>2020-11-15T22:39:16Z</time>
      </trkpt>
      <trkpt lat="28.7073150" lon="-17.7525900">
        <ele>145.9</ele>
        <time>2020-11-15T22:39:17Z</time>
      </trkpt>
      <trkpt lat="28.7073450" lon="-17.7525730">
        <ele>146.4</ele>
        <time>2020-11-15T22:39:18Z</time>
      </trkpt>
      <trkpt lat="28.7073450" lon="-17.7525730">
        <ele>146.4</ele>
        <time>2020-11-15T22:39:19Z</time>
      </trkpt>
      <trkpt lat="28.7073750" lon="-17.7525500">
        <ele>147.0</ele>
        <time>2020-11-15T22:39:20Z</time>
      </trkpt>
      <trkpt lat="28.7073880" lon="-17.7525380">
        <ele>147.3</ele>
        <time>2020-11-15T22:39:21Z</time>
      </trkpt>
      <trkpt lat="28.7073880" lon="-17.7525380">
        <ele>147.3</ele>
        <time>2020-11-15T22:39:22Z</time>
      </trkpt>
      <trkpt lat="28.7074170" lon="-17.7525070">
        <ele>147.9</ele>
        <time>2020-11-15T22:39:23Z</time>
      </trkpt>
      <trkpt lat="28.7074170" lon="-17.7525070">
        <ele>147.9</ele>
        <time>2020-11-15T22:39:24Z</time>
      </trkpt>
      <trkpt lat="28.7074430" lon="-17.7524780">
        <ele>148.5</ele>
        <time>2020-11-15T22:39:25Z</time>
      </trkpt>
      <trkpt lat="28.7074430" lon="-17.7524780">
        <ele>148.5</ele>
        <time>2020-11-15T22:39:26Z</time>
      </trkpt>
      <trkpt lat="28.7074580" lon="-17.7524480">
        <ele>149.0</ele>
        <time>2020-11-15T22:39:27Z</time>
      </trkpt>
      <trkpt lat="28.7074580" lon="-17.7524480">
        <ele>149.0</ele>
        <time>2020-11-15T22:39:28Z</time>
      </trkpt>
      <trkpt lat="28.7074850" lon="-17.7524200">
        <ele>149.6</ele>
        <time>2020-11-15T22:39:29Z</time>
      </trkpt>
      <trkpt lat="28.7075030" lon="-17.7524080">
        <ele>150.0</ele>
        <time>2020-11-15T22:39:30Z</time>
      </trkpt>
      <trkpt lat="28.7075030" lon="-17.7524080">
        <ele>150.0</ele>
        <time>2020-11-15T22:39:31Z</time>
      </trkpt>
      <trkpt lat="28.7075370" lon="-17.7523820">
        <ele>150.7</ele>
        <time>2020-11-15T22:39:32Z</time>
      </trkpt>
      <trkpt lat="28.7075520" lon="-17.7523650">
        <ele>151.0</ele>
        <time>2020-11-15T22:39:33Z</time>
      </trkpt>
      <trkpt lat="28.7075520" lon="-17.7523650">
        <ele>151.0</ele>
        <time>2020-11-15T22:39:34Z</time>
      </trkpt>
      <trkpt lat="28.7075870" lon="-17.7523330">
        <ele>151.8</ele>
        <time>2020-11-15T22:39:35Z</time>
      </trkpt>
      <trkpt lat="28.7076070" lon="-17.7523220">
        <ele>152.1</ele>
        <time>2020-11-15T22:39:36Z</time>
      </trkpt>
      <trkpt lat="28.7076250" lon="-17.7523100">
        <ele>152.5</ele>
        <time>2020-11-15T22:39:37Z</time>
      </trkpt>
      <trkpt lat="28.7076250" lon="-17.7523100">
        <ele>152.5</ele>
        <time>2020-11-15T22:39:38Z</time>
      </trkpt>
      <trkpt lat="28.7076550" lon="-17.7522850">
        <ele>153.2</ele>
        <time>2020-11-15T22:39:39Z</time>
      </trkpt>
      <trkpt lat="28.7076550" lon="-17.7522850">
        <ele>153.2</ele>
        <time>2020-11-15T22:39:40Z</time>
      </trkpt>
      <trkpt lat="28.7076830" lon="-17.7522570">
        <ele>153.8</ele>
        <time>2020-11-15T22:39:41Z</time>
      </trkpt>
      <trkpt lat="28.7076830" lon="-17.7522570">
        <ele>153.8</ele>
        <time>2020-11-15T22:39:42Z</time>
      </trkpt>
      <trkpt lat="28.7077130" lon="-17.7522230">
        <ele>154.6</ele>
        <time>2020-11-15T22:39:43Z</time>
      </trkpt>
      <trkpt lat="28.7077280" lon="-17.7522080">
        <ele>154.9</ele>
        <time>2020-11-15T22:39:44Z</time>
      </trkpt>
      <trkpt lat="28.7077280" lon="-17.7522080">
        <ele>154.9</ele>
        <time>2020-11-15T22:39:45Z</time>
      </trkpt>
      <trkpt lat="28.7077630" lon="-17.7521850">
        <ele>155.6</ele>
        <time>2020-11-15T22:39:46Z</time>
      </trkpt>
      <trkpt lat="28.7077630" lon="-17.7521850">
        <ele>155.6</ele>
        <time>2020-11-15T22:39:47Z</time>
      </trkpt>
      <trkpt lat="28.7077930" lon="-17.7521580">
        <ele>156.3</ele>
        <time>2020-11-15T22:39:48Z</time>
      </trkpt>
      <trkpt lat="28.7078070" lon="-17.7521450">
        <ele>156.6</ele>
        <time>2020-11-15T22:39:49Z</time>
      </trkpt>
      <trkpt lat="28.7078200" lon="-17.7521300">
        <ele>156.9</ele>
        <time>2020-11-15T22:39:50Z</time>
      </trkpt>
      <trkpt lat="28.7078200" lon="-17.7521300">
        <ele>156.9</ele>
        <time>2020-11-15T22:39:51Z</time>
      </trkpt>
      <trkpt lat="28.7078500" lon="-17.7521030">
        <ele>157.6</ele>
        <time>2020-11-15T22:39:52Z</time>
      </trkpt>
      <trkpt lat="28.7078630" lon="-17.7520900">
        <ele>157.9</ele>
        <time>2020-11-15T22:39:53Z</time>
      </trkpt>
      <trkpt lat="28.7078630" lon="-17.7520900">
        <ele>157.9</ele>
        <time>2020-11-15T22:39:54Z</time>
      </trkpt>
      <trkpt lat="28.7078880" lon="-17.7520650">
        <ele>158.5</ele>
        <time>2020-11-15T22:39:55Z</time>
      </trkpt>
      <trkpt lat="28.7078880" lon="-17.7520650">
        <ele>158.5</ele>
        <time>2020-11-15T22:39:56Z</time>
      </trkpt>
      <trkpt lat="28.7079070" lon="-17.7520420">
        <ele>158.9</ele>
        <time>2020-11-15T22:39:57Z</time>
      </trkpt>
      <trkpt lat="28.7079200" lon="-17.7520320">
        <ele>159.2</ele>
        <time>2020-11-15T22:39:58Z</time>
      </trkpt>
      <trkpt lat="28.7079200" lon="-17.7520320">
        <ele>159.2</ele>
        <time>2020-11-15T22:39:59Z</time>
      </trkpt>
      <trkpt lat="28.7079500" lon="-17.7520120">
        <ele>159.8</ele>
        <time>2020-11-15T22:40:00Z</time>
      </trkpt>
      <trkpt lat="28.7079700" lon="-17.7520030">
        <ele>160.2</ele>
        <time>2020-11-15T22:40:01Z</time>
      </trkpt>
      <trkpt lat="28.7079700" lon="-17.7520030">
        <ele>160.2</ele>
        <time>2020-11-15T22:40:02Z</time>
      </trkpt>
      <trkpt lat="28.7080030" lon="-17.7519820">
        <ele>160.8</ele>
        <time>2020-11-15T22:40:03Z</time>
      </trkpt>
      <trkpt lat="28.7080030" lon="-17.7519820">
        <ele>160.8</ele>
        <time>2020-11-15T22:40:04Z</time>
      </trkpt>
      <trkpt lat="28.7080300" lon="-17.7519650">
        <ele>161.4</ele>
        <time>2020-11-15T22:40:05Z</time>
      </trkpt>
      <trkpt lat="28.7080300" lon="-17.7519650">
        <ele>161.4</ele>
        <time>2020-11-15T22:40:06Z</time>
      </trkpt>
      <trkpt lat="28.7080650" lon="-17.7519400">
        <ele>162.1</ele>
        <time>2020-11-15T22:40:07Z</time>
      </trkpt>
      <trkpt lat="28.7080650" lon="-17.7519400">
        <ele>162.1</ele>
        <time>2020-11-15T22:40:08Z</time>
      </trkpt>
      <trkpt lat="28.7080970" lon="-17.7519230">
        <ele>162.7</ele>
        <time>2020-11-15T22:40:09Z</time>
      </trkpt>
      <trkpt lat="28.7080970" lon="-17.7519230">
        <ele>162.7</ele>
        <time>2020-11-15T22:40:10Z</time>
      </trkpt>
      <trkpt lat="28.7081220" lon="-17.7519120">
        <ele>163.2</ele>
        <time>2020-11-15T22:40:11Z</time>
      </trkpt>
      <trkpt lat="28.7081220" lon="-17.7519120">
        <ele>163.2</ele>
        <time>2020-11-15T22:40:12Z</time>
      </trkpt>
      <trkpt lat="28.7081520" lon="-17.7518900">
        <ele>163.8</ele>
        <time>2020-11-15T22:40:13Z</time>
      </trkpt>
      <trkpt lat="28.7081520" lon="-17.7518900">
        <ele>163.8</ele>
        <time>2020-11-15T22:40:14Z</time>
      </trkpt>
      <trkpt lat="28.7081820" lon="-17.7518680">
        <ele>164.5</ele>
        <time>2020-11-15T22:40:15Z</time>
      </trkpt>
      <trkpt lat="28.7081980" lon="-17.7518580">
        <ele>164.8</ele>
        <time>2020-11-15T22:40:16Z</time>
      </trkpt>
      <trkpt lat="28.7081980" lon="-17.7518580">
        <ele>164.8</ele>
        <time>2020-11-15T22:40:17Z</time>
      </trkpt>
      <trkpt lat="28.7082370" lon="-17.7518470">
        <ele>165.6</ele>
        <time>2020-11-15T22:40:18Z</time>
      </trkpt>
      <trkpt lat="28.7082530" lon="-17.7518400">
        <ele>165.9</ele>
        <time>2020-11-15T22:40:19Z</time>
      </trkpt>
      <trkpt lat="28.7082530" lon="-17.7518400">
        <ele>165.9</ele>
        <time>2020-11-15T22:40:20Z</time>
      </trkpt>
      <trkpt lat="28.7082900" lon="-17.7518350">
        <ele>166.6</ele>
        <time>2020-11-15T22:40:21Z</time>
      </trkpt>
      <trkpt lat="28.7082900" lon="-17.7518350">
        <ele>166.6</ele>
        <time>2020-11-15T22:40:22Z</time>
      </trkpt>
      <trkpt lat="28.7083270" lon="-17.7518270">
        <ele>167.3</ele>
        <time>2020-11-15T22:40:23Z</time>
      </trkpt>
      <trkpt lat="28.7083270" lon="-17.7518270">
        <ele>167.3</ele>
        <time>2020-11-15T22:40:24Z</time>
      </trkpt>
      <trkpt lat="28.7083620" lon="-17.7518180">
        <ele>167.9</ele>
        <time>2020-11-15T22:40:25Z</time>
      </trkpt>
      <trkpt lat="28.7083620" lon="-17.7518180">
        <ele>167.9</ele>
        <time>2020-11-15T22:40:26Z</time>
      </trkpt>
      <trkpt lat="28.7083930" lon="-17.7518070">
        <ele>168.5</ele>
        <time>2020-11-15T22:40:27Z</time>
      </trkpt>
      <trkpt lat="28.7083930" lon="-17.7518070">
        <ele>168.5</ele>
        <time>2020-11-15T22:40:28Z</time>
      </trkpt>
      <trkpt lat="28.7084230" lon="-17.7517880">
        <ele>169.1</ele>
        <time>2020-11-15T22:40:29Z</time>
      </trkpt>
      <trkpt lat="28.7084230" lon="-17.7517880">
        <ele>169.1</ele>
        <time>2020-11-15T22:40:30Z</time>
      </trkpt>
      <trkpt lat="28.7084680" lon="-17.7517720">
        <ele>170.0</ele>
        <time>2020-11-15T22:40:31Z</time>
      </trkpt>
      <trkpt lat="28.7084680" lon="-17.7517720">
        <ele>170.0</ele>
        <time>2020-11-15T22:40:32Z</time>
      </trkpt>
      <trkpt lat="28.7085050" lon="-17.7517700">
        <ele>170.7</ele>
        <time>2020-11-15T22:40:33Z</time>
      </trkpt>
      <trkpt lat="28.7085050" lon="-17.7517700">
        <ele>170.7</ele>
        <time>2020-11-15T22:40:34Z</time>
      </trkpt>
      <trkpt lat="28.7085370" lon="-17.7517630">
        <ele>171.3</ele>
        <time>2020-11-15T22:40:35Z</time>
      </trkpt>
      <trkpt lat="28.7085370" lon="-17.7517630">
        <ele>171.3</ele>
        <time>2020-11-15T22:40:36Z</time>
      </trkpt>
      <trkpt lat="28.7085750" lon="-17.7517650">
        <ele>171.9</ele>
        <time>2020-11-15T22:40:37Z</time>
      </trkpt>
      <trkpt lat="28.7085930" lon="-17.7517670">
        <ele>172.3</ele>
        <time>2020-11-15T22:40:38Z</time>
      </trkpt>
      <trkpt lat="28.7086100" lon="-17.7517680">
        <ele>172.6</ele>
        <time>2020-11-15T22:40:39Z</time>
      </trkpt>
      <trkpt lat="28.7086100" lon="-17.7517680">
        <ele>172.6</ele>
        <time>2020-11-15T22:40:40Z</time>
      </trkpt>
      <trkpt lat="28.7086480" lon="-17.7517670">
        <ele>173.2</ele>
        <time>2020-11-15T22:40:41Z</time>
      </trkpt>
      <trkpt lat="28.7086480" lon="-17.7517670">
        <ele>173.2</ele>
        <time>2020-11-15T22:40:42Z</time>
      </trkpt>
      <trkpt lat="28.7086800" lon="-17.7517650">
        <ele>173.8</ele>
        <time>2020-11-15T22:40:43Z</time>
      </trkpt>
      <trkpt lat="28.7086800" lon="-17.7517650">
        <ele>173.8</ele>
        <time>2020-11-15T22:40:44Z</time>
      </trkpt>
      <trkpt lat="28.7087150" lon="-17.7517670">
        <ele>174.4</ele>
        <time>2020-11-15T22:40:45Z</time>
      </trkpt>
      <trkpt lat="28.7087150" lon="-17.7517670">
        <ele>174.4</ele>
        <time>2020-11-15T22:40:46Z</time>
      </trkpt>
      <trkpt lat="28.7087520" lon="-17.7517670">
        <ele>175.0</ele>
        <time>2020-11-15T22:40:47Z</time>
      </trkpt>
      <trkpt lat="28.7087520" lon="-17.7517670">
        <ele>175.0</ele>
        <time>2020-11-15T22:40:48Z</time>
      </trkpt>
      <trkpt lat="28.7087850" lon="-17.7517700">
        <ele>175.6</ele>
        <time>2020-11-15T22:40:49Z</time>
      </trkpt>
      <trkpt lat="28.7087850" lon="-17.7517700">
        <ele>175.6</ele>
        <time>2020-11-15T22:40:50Z</time>
      </trkpt>
      <trkpt lat="28.7088220" lon="-17.7517700">
        <ele>176.2</ele>
        <time>2020-11-15T22:40:51Z</time>
      </trkpt>
      <trkpt lat="28.7088220" lon="-17.7517700">
        <ele>176.2</ele>
        <time>2020-11-15T22:40:52Z</time>
      </trkpt>
      <trkpt lat="28.7088550" lon="-17.7517620">
        <ele>176.8</ele>
        <time>2020-11-15T22:40:53Z</time>
      </trkpt>
      <trkpt lat="28.7088550" lon="-17.7517620">
        <ele>176.8</ele>
        <time>2020-11-15T22:40:54Z</time>
      </trkpt>
      <trkpt lat="28.7088900" lon="-17.7517430">
        <ele>177.4</ele>
        <time>2020-11-15T22:40:55Z</time>
      </trkpt>
      <trkpt lat="28.7088900" lon="-17.7517430">
        <ele>177.4</ele>
        <time>2020-11-15T22:40:56Z</time>
      </trkpt>
      <trkpt lat="28.7089230" lon="-17.7517130">
        <ele>178.1</ele>
        <time>2020-11-15T22:40:57Z</time>
      </trkpt>
      <trkpt lat="28.7089230" lon="-17.7517130">
        <ele>178.1</ele>
        <time>2020-11-15T22:40:58Z</time>
      </trkpt>
      <trkpt lat="28.7089570" lon="-17.7516800">
        <ele>179.0</ele>
        <time>2020-11-15T22:40:59Z</time>
      </trkpt>
      <trkpt lat="28.7089570" lon="-17.7516800">
        <ele>179.0</ele>
        <time>2020-11-15T22:41:00Z</time>
      </trkpt>
      <trkpt lat="28.7089870" lon="-17.7516430">
        <ele>179.3</ele>
        <time>2020-11-15T22:41:01Z</time>
      </trkpt>
      <trkpt lat="28.7089870" lon="-17.7516430">
        <ele>179.3</ele>
        <time>2020-11-15T22:41:02Z</time>
      </trkpt>
      <trkpt lat="28.7090100" lon="-17.7516080">
        <ele>179.6</ele>
        <time>2020-11-15T22:41:03Z</time>
      </trkpt>
      <trkpt lat="28.7090100" lon="-17.7516080">
        <ele>179.6</ele>
        <time>2020-11-15T22:41:04Z</time>
      </trkpt>
      <trkpt lat="28.7090300" lon="-17.7515750">
        <ele>179.8</ele>
        <time>2020-11-15T22:41:05Z</time>
      </trkpt>
      <trkpt lat="28.7090300" lon="-17.7515750">
        <ele>179.8</ele>
        <time>2020-11-15T22:41:06Z</time>
      </trkpt>
      <trkpt lat="28.7090470" lon="-17.7515420">
        <ele>180.0</ele>
        <time>2020-11-15T22:41:07Z</time>
      </trkpt>
      <trkpt lat="28.7090470" lon="-17.7515420">
        <ele>180.0</ele>
        <time>2020-11-15T22:41:08Z</time>
      </trkpt>
      <trkpt lat="28.7090550" lon="-17.7515070">
        <ele>180.2</ele>
        <time>2020-11-15T22:41:09Z</time>
      </trkpt>
      <trkpt lat="28.7090620" lon="-17.7514880">
        <ele>180.3</ele>
        <time>2020-11-15T22:41:10Z</time>
      </trkpt>
      <trkpt lat="28.7090620" lon="-17.7514880">
        <ele>180.3</ele>
        <time>2020-11-15T22:41:11Z</time>
      </trkpt>
      <trkpt lat="28.7090770" lon="-17.7514520">
        <ele>180.6</ele>
        <time>2020-11-15T22:41:12Z</time>
      </trkpt>
      <trkpt lat="28.7090850" lon="-17.7514320">
        <ele>180.7</ele>
        <time>2020-11-15T22:41:13Z</time>
      </trkpt>
      <trkpt lat="28.7090850" lon="-17.7514320">
        <ele>180.7</ele>
        <time>2020-11-15T22:41:14Z</time>
      </trkpt>
      <trkpt lat="28.7091030" lon="-17.7513920">
        <ele>181.0</ele>
        <time>2020-11-15T22:41:15Z</time>
      </trkpt>
      <trkpt lat="28.7091130" lon="-17.7513700">
        <ele>181.2</ele>
        <time>2020-11-15T22:41:16Z</time>
      </trkpt>
      <trkpt lat="28.7091130" lon="-17.7513700">
        <ele>181.2</ele>
        <time>2020-11-15T22:41:17Z</time>
      </trkpt>
      <trkpt lat="28.7091270" lon="-17.7513280">
        <ele>181.5</ele>
        <time>2020-11-15T22:41:18Z</time>
      </trkpt>
      <trkpt lat="28.7091350" lon="-17.7513070">
        <ele>181.7</ele>
        <time>2020-11-15T22:41:19Z</time>
      </trkpt>
      <trkpt lat="28.7091350" lon="-17.7513070">
        <ele>181.7</ele>
        <time>2020-11-15T22:41:20Z</time>
      </trkpt>
      <trkpt lat="28.7091500" lon="-17.7512620">
        <ele>182.0</ele>
        <time>2020-11-15T22:41:21Z</time>
      </trkpt>
      <trkpt lat="28.7091570" lon="-17.7512420">
        <ele>182.2</ele>
        <time>2020-11-15T22:41:22Z</time>
      </trkpt>
      <trkpt lat="28.7091570" lon="-17.7512420">
        <ele>182.2</ele>
        <time>2020-11-15T22:41:23Z</time>
      </trkpt>
      <trkpt lat="28.7091750" lon="-17.7512020">
        <ele>182.6</ele>
        <time>2020-11-15T22:41:24Z</time>
      </trkpt>
      <trkpt lat="28.7091830" lon="-17.7511800">
        <ele>182.7</ele>
        <time>2020-11-15T22:41:25Z</time>
      </trkpt>
      <trkpt lat="28.7091930" lon="-17.7511620">
        <ele>182.9</ele>
        <time>2020-11-15T22:41:26Z</time>
      </trkpt>
      <trkpt lat="28.7091930" lon="-17.7511620">
        <ele>182.9</ele>
        <time>2020-11-15T22:41:27Z</time>
      </trkpt>
      <trkpt lat="28.7092100" lon="-17.7511220">
        <ele>183.3</ele>
        <time>2020-11-15T22:41:28Z</time>
      </trkpt>
      <trkpt lat="28.7092180" lon="-17.7511030">
        <ele>183.4</ele>
        <time>2020-11-15T22:41:29Z</time>
      </trkpt>
      <trkpt lat="28.7092180" lon="-17.7511030">
        <ele>183.4</ele>
        <time>2020-11-15T22:41:30Z</time>
      </trkpt>
      <trkpt lat="28.7092420" lon="-17.7510630">
        <ele>183.8</ele>
        <time>2020-11-15T22:41:31Z</time>
      </trkpt>
      <trkpt lat="28.7092420" lon="-17.7510630">
        <ele>183.8</ele>
        <time>2020-11-15T22:41:32Z</time>
      </trkpt>
      <trkpt lat="28.7092750" lon="-17.7510320">
        <ele>184.2</ele>
        <time>2020-11-15T22:41:33Z</time>
      </trkpt>
      <trkpt lat="28.7092750" lon="-17.7510320">
        <ele>184.2</ele>
        <time>2020-11-15T22:41:34Z</time>
      </trkpt>
      <trkpt lat="28.7093050" lon="-17.7510020">
        <ele>184.5</ele>
        <time>2020-11-15T22:41:35Z</time>
      </trkpt>
      <trkpt lat="28.7093050" lon="-17.7510020">
        <ele>184.5</ele>
        <time>2020-11-15T22:41:36Z</time>
      </trkpt>
      <trkpt lat="28.7093370" lon="-17.7509850">
        <ele>184.7</ele>
        <time>2020-11-15T22:41:37Z</time>
      </trkpt>
      <trkpt lat="28.7093370" lon="-17.7509850">
        <ele>184.7</ele>
        <time>2020-11-15T22:41:38Z</time>
      </trkpt>
      <trkpt lat="28.7093700" lon="-17.7509570">
        <ele>185.0</ele>
        <time>2020-11-15T22:41:39Z</time>
      </trkpt>
      <trkpt lat="28.7093700" lon="-17.7509570">
        <ele>185.0</ele>
        <time>2020-11-15T22:41:40Z</time>
      </trkpt>
      <trkpt lat="28.7094070" lon="-17.7509300">
        <ele>185.2</ele>
        <time>2020-11-15T22:41:41Z</time>
      </trkpt>
      <trkpt lat="28.7094270" lon="-17.7509200">
        <ele>185.4</ele>
        <time>2020-11-15T22:41:42Z</time>
      </trkpt>
      <trkpt lat="28.7094450" lon="-17.7509120">
        <ele>185.5</ele>
        <time>2020-11-15T22:41:43Z</time>
      </trkpt>
      <trkpt lat="28.7094450" lon="-17.7509120">
        <ele>185.5</ele>
        <time>2020-11-15T22:41:44Z</time>
      </trkpt>
      <trkpt lat="28.7094770" lon="-17.7508930">
        <ele>185.6</ele>
        <time>2020-11-15T22:41:45Z</time>
      </trkpt>
      <trkpt lat="28.7094770" lon="-17.7508930">
        <ele>185.6</ele>
        <time>2020-11-15T22:41:46Z</time>
      </trkpt>
      <trkpt lat="28.7095120" lon="-17.7508770">
        <ele>185.8</ele>
        <time>2020-11-15T22:41:47Z</time>
      </trkpt>
      <trkpt lat="28.7095120" lon="-17.7508770">
        <ele>185.8</ele>
        <time>2020-11-15T22:41:48Z</time>
      </trkpt>
      <trkpt lat="28.7095500" lon="-17.7508650">
        <ele>186.0</ele>
        <time>2020-11-15T22:41:49Z</time>
      </trkpt>
      <trkpt lat="28.7095500" lon="-17.7508650">
        <ele>186.0</ele>
        <time>2020-11-15T22:41:50Z</time>
      </trkpt>
      <trkpt lat="28.7095870" lon="-17.7508530">
        <ele>186.1</ele>
        <time>2020-11-15T22:41:51Z</time>
      </trkpt>
      <trkpt lat="28.7096050" lon="-17.7508480">
        <ele>186.2</ele>
        <time>2020-11-15T22:41:52Z</time>
      </trkpt>
      <trkpt lat="28.7096230" lon="-17.7508450">
        <ele>186.3</ele>
        <time>2020-11-15T22:41:53Z</time>
      </trkpt>
      <trkpt lat="28.7096230" lon="-17.7508450">
        <ele>186.3</ele>
        <time>2020-11-15T22:41:54Z</time>
      </trkpt>
      <trkpt lat="28.7096570" lon="-17.7508400">
        <ele>186.4</ele>
        <time>2020-11-15T22:41:55Z</time>
      </trkpt>
      <trkpt lat="28.7096730" lon="-17.7508350">
        <ele>186.5</ele>
        <time>2020-11-15T22:41:56Z</time>
      </trkpt>
      <trkpt lat="28.7096900" lon="-17.7508250">
        <ele>186.6</ele>
        <time>2020-11-15T22:41:57Z</time>
      </trkpt>
      <trkpt lat="28.7096900" lon="-17.7508250">
        <ele>186.6</ele>
        <time>2020-11-15T22:41:58Z</time>
      </trkpt>
      <trkpt lat="28.7097270" lon="-17.7508030">
        <ele>186.7</ele>
        <time>2020-11-15T22:41:59Z</time>
      </trkpt>
      <trkpt lat="28.7097270" lon="-17.7508030">
        <ele>186.7</ele>
        <time>2020-11-15T22:42:00Z</time>
      </trkpt>
      <trkpt lat="28.7097630" lon="-17.7507780">
        <ele>186.9</ele>
        <time>2020-11-15T22:42:01Z</time>
      </trkpt>
      <trkpt lat="28.7097630" lon="-17.7507780">
        <ele>186.9</ele>
        <time>2020-11-15T22:42:02Z</time>
      </trkpt>
      <trkpt lat="28.7097920" lon="-17.7507650">
        <ele>187.0</ele>
        <time>2020-11-15T22:42:03Z</time>
      </trkpt>
      <trkpt lat="28.7097920" lon="-17.7507650">
        <ele>187.0</ele>
        <time>2020-11-15T22:42:04Z</time>
      </trkpt>
      <trkpt lat="28.7098300" lon="-17.7507430">
        <ele>187.2</ele>
        <time>2020-11-15T22:42:05Z</time>
      </trkpt>
      <trkpt lat="28.7098300" lon="-17.7507430">
        <ele>187.2</ele>
        <time>2020-11-15T22:42:06Z</time>
      </trkpt>
      <trkpt lat="28.7098620" lon="-17.7507230">
        <ele>187.4</ele>
        <time>2020-11-15T22:42:07Z</time>
      </trkpt>
      <trkpt lat="28.7098620" lon="-17.7507230">
        <ele>187.4</ele>
        <time>2020-11-15T22:42:08Z</time>
      </trkpt>
      <trkpt lat="28.7098930" lon="-17.7506930">
        <ele>187.6</ele>
        <time>2020-11-15T22:42:09Z</time>
      </trkpt>
      <trkpt lat="28.7098930" lon="-17.7506930">
        <ele>187.6</ele>
        <time>2020-11-15T22:42:10Z</time>
      </trkpt>
      <trkpt lat="28.7099150" lon="-17.7506570">
        <ele>187.8</ele>
        <time>2020-11-15T22:42:11Z</time>
      </trkpt>
      <trkpt lat="28.7099150" lon="-17.7506570">
        <ele>187.8</ele>
        <time>2020-11-15T22:42:12Z</time>
      </trkpt>
      <trkpt lat="28.7099370" lon="-17.7506150">
        <ele>188.0</ele>
        <time>2020-11-15T22:42:13Z</time>
      </trkpt>
      <trkpt lat="28.7099480" lon="-17.7505970">
        <ele>188.1</ele>
        <time>2020-11-15T22:42:14Z</time>
      </trkpt>
      <trkpt lat="28.7099480" lon="-17.7505970">
        <ele>188.1</ele>
        <time>2020-11-15T22:42:15Z</time>
      </trkpt>
      <trkpt lat="28.7099770" lon="-17.7505630">
        <ele>188.4</ele>
        <time>2020-11-15T22:42:16Z</time>
      </trkpt>
      <trkpt lat="28.7099770" lon="-17.7505630">
        <ele>188.4</ele>
        <time>2020-11-15T22:42:17Z</time>
      </trkpt>
      <trkpt lat="28.7099970" lon="-17.7505270">
        <ele>188.6</ele>
        <time>2020-11-15T22:42:18Z</time>
      </trkpt>
      <trkpt lat="28.7100100" lon="-17.7505080">
        <ele>188.8</ele>
        <time>2020-11-15T22:42:19Z</time>
      </trkpt>
      <trkpt lat="28.7100100" lon="-17.7505080">
        <ele>188.8</ele>
        <time>2020-11-15T22:42:20Z</time>
      </trkpt>
      <trkpt lat="28.7100480" lon="-17.7504880">
        <ele>189.0</ele>
        <time>2020-11-15T22:42:21Z</time>
      </trkpt>
      <trkpt lat="28.7100480" lon="-17.7504880">
        <ele>189.0</ele>
        <time>2020-11-15T22:42:22Z</time>
      </trkpt>
      <trkpt lat="28.7100870" lon="-17.7504730">
        <ele>189.3</ele>
        <time>2020-11-15T22:42:23Z</time>
      </trkpt>
      <trkpt lat="28.7101030" lon="-17.7504650">
        <ele>189.4</ele>
        <time>2020-11-15T22:42:24Z</time>
      </trkpt>
      <trkpt lat="28.7101030" lon="-17.7504650">
        <ele>189.4</ele>
        <time>2020-11-15T22:42:25Z</time>
      </trkpt>
      <trkpt lat="28.7101380" lon="-17.7504470">
        <ele>189.6</ele>
        <time>2020-11-15T22:42:26Z</time>
      </trkpt>
      <trkpt lat="28.7101580" lon="-17.7504400">
        <ele>189.8</ele>
        <time>2020-11-15T22:42:27Z</time>
      </trkpt>
      <trkpt lat="28.7101580" lon="-17.7504400">
        <ele>189.8</ele>
        <time>2020-11-15T22:42:28Z</time>
      </trkpt>
      <trkpt lat="28.7101980" lon="-17.7504250">
        <ele>190.0</ele>
        <time>2020-11-15T22:42:29Z</time>
      </trkpt>
      <trkpt lat="28.7101980" lon="-17.7504250">
        <ele>190.0</ele>
        <time>2020-11-15T22:42:30Z</time>
      </trkpt>
      <trkpt lat="28.7102320" lon="-17.7504030">
        <ele>190.3</ele>
        <time>2020-11-15T22:42:31Z</time>
      </trkpt>
      <trkpt lat="28.7102320" lon="-17.7504030">
        <ele>190.3</ele>
        <time>2020-11-15T22:42:32Z</time>
      </trkpt>
      <trkpt lat="28.7102600" lon="-17.7503800">
        <ele>190.5</ele>
        <time>2020-11-15T22:42:33Z</time>
      </trkpt>
      <trkpt lat="28.7102600" lon="-17.7503800">
        <ele>190.5</ele>
        <time>2020-11-15T22:42:34Z</time>
      </trkpt>
      <trkpt lat="28.7102900" lon="-17.7503620">
        <ele>190.7</ele>
        <time>2020-11-15T22:42:35Z</time>
      </trkpt>
      <trkpt lat="28.7102900" lon="-17.7503620">
        <ele>190.7</ele>
        <time>2020-11-15T22:42:36Z</time>
      </trkpt>
      <trkpt lat="28.7103200" lon="-17.7503400">
        <ele>190.9</ele>
        <time>2020-11-15T22:42:37Z</time>
      </trkpt>
      <trkpt lat="28.7103200" lon="-17.7503400">
        <ele>190.9</ele>
        <time>2020-11-15T22:42:38Z</time>
      </trkpt>
      <trkpt lat="28.7103570" lon="-17.7503100">
        <ele>191.2</ele>
        <time>2020-11-15T22:42:39Z</time>
      </trkpt>
      <trkpt lat="28.7103570" lon="-17.7503100">
        <ele>191.2</ele>
        <time>2020-11-15T22:42:40Z</time>
      </trkpt>
      <trkpt lat="28.7103980" lon="-17.7502880">
        <ele>191.5</ele>
        <time>2020-11-15T22:42:41Z</time>
      </trkpt>
      <trkpt lat="28.7104180" lon="-17.7502770">
        <ele>191.6</ele>
        <time>2020-11-15T22:42:42Z</time>
      </trkpt>
      <trkpt lat="28.7104380" lon="-17.7502670">
        <ele>191.7</ele>
        <time>2020-11-15T22:42:43Z</time>
      </trkpt>
      <trkpt lat="28.7104380" lon="-17.7502670">
        <ele>191.7</ele>
        <time>2020-11-15T22:42:44Z</time>
      </trkpt>
      <trkpt lat="28.7104750" lon="-17.7502500">
        <ele>191.9</ele>
        <time>2020-11-15T22:42:45Z</time>
      </trkpt>
      <trkpt lat="28.7104920" lon="-17.7502400">
        <ele>192.0</ele>
        <time>2020-11-15T22:42:46Z</time>
      </trkpt>
      <trkpt lat="28.7104920" lon="-17.7502400">
        <ele>192.0</ele>
        <time>2020-11-15T22:42:47Z</time>
      </trkpt>
      <trkpt lat="28.7105270" lon="-17.7502280">
        <ele>192.2</ele>
        <time>2020-11-15T22:42:48Z</time>
      </trkpt>
      <trkpt lat="28.7105450" lon="-17.7502230">
        <ele>192.3</ele>
        <time>2020-11-15T22:42:49Z</time>
      </trkpt>
      <trkpt lat="28.7105450" lon="-17.7502230">
        <ele>192.3</ele>
        <time>2020-11-15T22:42:50Z</time>
      </trkpt>
      <trkpt lat="28.7105870" lon="-17.7502120">
        <ele>192.5</ele>
        <time>2020-11-15T22:42:51Z</time>
      </trkpt>
      <trkpt lat="28.7105870" lon="-17.7502120">
        <ele>192.5</ele>
        <time>2020-11-15T22:42:52Z</time>
      </trkpt>
      <trkpt lat="28.7106300" lon="-17.7502050">
        <ele>192.7</ele>
        <time>2020-11-15T22:42:53Z</time>
      </trkpt>
      <trkpt lat="28.7106300" lon="-17.7502050">
        <ele>192.7</ele>
        <time>2020-11-15T22:42:54Z</time>
      </trkpt>
      <trkpt lat="28.7106750" lon="-17.7502020">
        <ele>193.0</ele>
        <time>2020-11-15T22:42:55Z</time>
      </trkpt>
      <trkpt lat="28.7106750" lon="-17.7502020">
        <ele>193.0</ele>
        <time>2020-11-15T22:42:56Z</time>
      </trkpt>
      <trkpt lat="28.7107150" lon="-17.7502070">
        <ele>193.2</ele>
        <time>2020-11-15T22:42:57Z</time>
      </trkpt>
      <trkpt lat="28.7107350" lon="-17.7502120">
        <ele>193.3</ele>
        <time>2020-11-15T22:42:58Z</time>
      </trkpt>
      <trkpt lat="28.7107570" lon="-17.7502180">
        <ele>193.4</ele>
        <time>2020-11-15T22:42:59Z</time>
      </trkpt>
      <trkpt lat="28.7107570" lon="-17.7502180">
        <ele>193.4</ele>
        <time>2020-11-15T22:43:00Z</time>
      </trkpt>
      <trkpt lat="28.7107920" lon="-17.7502430">
        <ele>193.6</ele>
        <time>2020-11-15T22:43:01Z</time>
      </trkpt>
      <trkpt lat="28.7107920" lon="-17.7502430">
        <ele>193.6</ele>
        <time>2020-11-15T22:43:02Z</time>
      </trkpt>
      <trkpt lat="28.7108250" lon="-17.7502720">
        <ele>193.8</ele>
        <time>2020-11-15T22:43:03Z</time>
      </trkpt>
      <trkpt lat="28.7108250" lon="-17.7502720">
        <ele>193.8</ele>
        <time>2020-11-15T22:43:04Z</time>
      </trkpt>
      <trkpt lat="28.7108600" lon="-17.7502950">
        <ele>193.9</ele>
        <time>2020-11-15T22:43:05Z</time>
      </trkpt>
      <trkpt lat="28.7108600" lon="-17.7502950">
        <ele>193.9</ele>
        <time>2020-11-15T22:43:06Z</time>
      </trkpt>
      <trkpt lat="28.7108930" lon="-17.7503170">
        <ele>194.1</ele>
        <time>2020-11-15T22:43:07Z</time>
      </trkpt>
      <trkpt lat="28.7108930" lon="-17.7503170">
        <ele>194.1</ele>
        <time>2020-11-15T22:43:08Z</time>
      </trkpt>
      <trkpt lat="28.7109180" lon="-17.7503480">
        <ele>194.3</ele>
        <time>2020-11-15T22:43:09Z</time>
      </trkpt>
      <trkpt lat="28.7109180" lon="-17.7503480">
        <ele>194.3</ele>
        <time>2020-11-15T22:43:10Z</time>
      </trkpt>
      <trkpt lat="28.7109400" lon="-17.7503850">
        <ele>194.4</ele>
        <time>2020-11-15T22:43:11Z</time>
      </trkpt>
      <trkpt lat="28.7109400" lon="-17.7503850">
        <ele>194.4</ele>
        <time>2020-11-15T22:43:12Z</time>
      </trkpt>
      <trkpt lat="28.7109600" lon="-17.7504230">
        <ele>194.6</ele>
        <time>2020-11-15T22:43:13Z</time>
      </trkpt>
      <trkpt lat="28.7109600" lon="-17.7504230">
        <ele>194.6</ele>
        <time>2020-11-15T22:43:14Z</time>
      </trkpt>
      <trkpt lat="28.7109770" lon="-17.7504600">
        <ele>194.7</ele>
        <time>2020-11-15T22:43:15Z</time>
      </trkpt>
      <trkpt lat="28.7109770" lon="-17.7504600">
        <ele>194.7</ele>
        <time>2020-11-15T22:43:16Z</time>
      </trkpt>
      <trkpt lat="28.7109900" lon="-17.7505030">
        <ele>194.9</ele>
        <time>2020-11-15T22:43:17Z</time>
      </trkpt>
      <trkpt lat="28.7109950" lon="-17.7505270">
        <ele>195.0</ele>
        <time>2020-11-15T22:43:18Z</time>
      </trkpt>
      <trkpt lat="28.7109950" lon="-17.7505270">
        <ele>195.0</ele>
        <time>2020-11-15T22:43:19Z</time>
      </trkpt>
      <trkpt lat="28.7110030" lon="-17.7505730">
        <ele>195.1</ele>
        <time>2020-11-15T22:43:20Z</time>
      </trkpt>
      <trkpt lat="28.7110030" lon="-17.7505970">
        <ele>195.2</ele>
        <time>2020-11-15T22:43:21Z</time>
      </trkpt>
      <trkpt lat="28.7110030" lon="-17.7505970">
        <ele>195.2</ele>
        <time>2020-11-15T22:43:22Z</time>
      </trkpt>
      <trkpt lat="28.7110050" lon="-17.7506450">
        <ele>195.4</ele>
        <time>2020-11-15T22:43:23Z</time>
      </trkpt>
      <trkpt lat="28.7110050" lon="-17.7506450">
        <ele>195.4</ele>
        <time>2020-11-15T22:43:24Z</time>
      </trkpt>
      <trkpt lat="28.7110020" lon="-17.7506930">
        <ele>195.5</ele>
        <time>2020-11-15T22:43:25Z</time>
      </trkpt>
      <trkpt lat="28.7110020" lon="-17.7506930">
        <ele>195.5</ele>
        <time>2020-11-15T22:43:26Z</time>
      </trkpt>
      <trkpt lat="28.7109950" lon="-17.7507350">
        <ele>195.6</ele>
        <time>2020-11-15T22:43:27Z</time>
      </trkpt>
      <trkpt lat="28.7109950" lon="-17.7507350">
        <ele>195.6</ele>
        <time>2020-11-15T22:43:28Z</time>
      </trkpt>
      <trkpt lat="28.7109950" lon="-17.7507780">
        <ele>195.7</ele>
        <time>2020-11-15T22:43:29Z</time>
      </trkpt>
      <trkpt lat="28.7109920" lon="-17.7508000">
        <ele>195.7</ele>
        <time>2020-11-15T22:43:30Z</time>
      </trkpt>
      <trkpt lat="28.7109920" lon="-17.7508000">
        <ele>195.7</ele>
        <time>2020-11-15T22:43:31Z</time>
      </trkpt>
      <trkpt lat="28.7109750" lon="-17.7508430">
        <ele>195.8</ele>
        <time>2020-11-15T22:43:32Z</time>
      </trkpt>
      <trkpt lat="28.7109750" lon="-17.7508430">
        <ele>195.8</ele>
        <time>2020-11-15T22:43:33Z</time>
      </trkpt>
      <trkpt lat="28.7109550" lon="-17.7509000">
        <ele>196.0</ele>
        <time>2020-11-15T22:43:34Z</time>
      </trkpt>
      <trkpt lat="28.7109470" lon="-17.7509300">
        <ele>196.0</ele>
        <time>2020-11-15T22:43:35Z</time>
      </trkpt>
      <trkpt lat="28.7109470" lon="-17.7509300">
        <ele>196.0</ele>
        <time>2020-11-15T22:43:36Z</time>
      </trkpt>
      <trkpt lat="28.7109370" lon="-17.7509950">
        <ele>196.2</ele>
        <time>2020-11-15T22:43:37Z</time>
      </trkpt>
      <trkpt lat="28.7109370" lon="-17.7509950">
        <ele>196.2</ele>
        <time>2020-11-15T22:43:38Z</time>
      </trkpt>
      <trkpt lat="28.7109220" lon="-17.7510570">
        <ele>196.4</ele>
        <time>2020-11-15T22:43:39Z</time>
      </trkpt>
      <trkpt lat="28.7109220" lon="-17.7510570">
        <ele>196.4</ele>
        <time>2020-11-15T22:43:40Z</time>
      </trkpt>
      <trkpt lat="28.7108980" lon="-17.7511020">
        <ele>196.5</ele>
        <time>2020-11-15T22:43:41Z</time>
      </trkpt>
      <trkpt lat="28.7108980" lon="-17.7511020">
        <ele>196.5</ele>
        <time>2020-11-15T22:43:42Z</time>
      </trkpt>
      <trkpt lat="28.7108720" lon="-17.7511420">
        <ele>196.6</ele>
        <time>2020-11-15T22:43:43Z</time>
      </trkpt>
      <trkpt lat="28.7108720" lon="-17.7511420">
        <ele>196.6</ele>
        <time>2020-11-15T22:43:44Z</time>
      </trkpt>
      <trkpt lat="28.7108400" lon="-17.7511780">
        <ele>196.7</ele>
        <time>2020-11-15T22:43:45Z</time>
      </trkpt>
      <trkpt lat="28.7108170" lon="-17.7511900">
        <ele>196.8</ele>
        <time>2020-11-15T22:43:46Z</time>
      </trkpt>
      <trkpt lat="28.7108170" lon="-17.7511900">
        <ele>196.8</ele>
        <time>2020-11-15T22:43:47Z</time>
      </trkpt>
      <trkpt lat="28.7107750" lon="-17.7512050">
        <ele>196.9</ele>
        <time>2020-11-15T22:43:48Z</time>
      </trkpt>
      <trkpt lat="28.7107530" lon="-17.7512150">
        <ele>196.9</ele>
        <time>2020-11-15T22:43:49Z</time>
      </trkpt>
      <trkpt lat="28.7107530" lon="-17.7512150">
        <ele>196.9</ele>
        <time>2020-11-15T22:43:50Z</time>
      </trkpt>
      <trkpt lat="28.7107100" lon="-17.7512320">
        <ele>197.1</ele>
        <time>2020-11-15T22:43:51Z</time>
      </trkpt>
      <trkpt lat="28.7107100" lon="-17.7512320">
        <ele>197.1</ele>
        <time>2020-11-15T22:43:52Z</time>
      </trkpt>
      <trkpt lat="28.7106620" lon="-17.7512430">
        <ele>197.2</ele>
        <time>2020-11-15T22:43:53Z</time>
      </trkpt>
      <trkpt lat="28.7106620" lon="-17.7512430">
        <ele>197.2</ele>
        <time>2020-11-15T22:43:54Z</time>
      </trkpt>
      <trkpt lat="28.7106180" lon="-17.7512630">
        <ele>197.3</ele>
        <time>2020-11-15T22:43:55Z</time>
      </trkpt>
      <trkpt lat="28.7106180" lon="-17.7512630">
        <ele>197.3</ele>
        <time>2020-11-15T22:43:56Z</time>
      </trkpt>
      <trkpt lat="28.7105730" lon="-17.7512820">
        <ele>197.4</ele>
        <time>2020-11-15T22:43:57Z</time>
      </trkpt>
      <trkpt lat="28.7105730" lon="-17.7512820">
        <ele>197.4</ele>
        <time>2020-11-15T22:43:58Z</time>
      </trkpt>
      <trkpt lat="28.7105320" lon="-17.7512970">
        <ele>197.6</ele>
        <time>2020-11-15T22:43:59Z</time>
      </trkpt>
      <trkpt lat="28.7105120" lon="-17.7513050">
        <ele>197.6</ele>
        <time>2020-11-15T22:44:00Z</time>
      </trkpt>
      <trkpt lat="28.7105120" lon="-17.7513050">
        <ele>197.6</ele>
        <time>2020-11-15T22:44:01Z</time>
      </trkpt>
      <trkpt lat="28.7104700" lon="-17.7513200">
        <ele>197.8</ele>
        <time>2020-11-15T22:44:02Z</time>
      </trkpt>
      <trkpt lat="28.7104480" lon="-17.7513280">
        <ele>197.8</ele>
        <time>2020-11-15T22:44:03Z</time>
      </trkpt>
      <trkpt lat="28.7104480" lon="-17.7513280">
        <ele>197.8</ele>
        <time>2020-11-15T22:44:04Z</time>
      </trkpt>
      <trkpt lat="28.7104070" lon="-17.7513520">
        <ele>198.0</ele>
        <time>2020-11-15T22:44:05Z</time>
      </trkpt>
      <trkpt lat="28.7104070" lon="-17.7513520">
        <ele>198.0</ele>
        <time>2020-11-15T22:44:06Z</time>
      </trkpt>
      <trkpt lat="28.7103650" lon="-17.7513650">
        <ele>198.1</ele>
        <time>2020-11-15T22:44:07Z</time>
      </trkpt>
      <trkpt lat="28.7103650" lon="-17.7513650">
        <ele>198.1</ele>
        <time>2020-11-15T22:44:08Z</time>
      </trkpt>
      <trkpt lat="28.7103250" lon="-17.7513850">
        <ele>198.2</ele>
        <time>2020-11-15T22:44:09Z</time>
      </trkpt>
      <trkpt lat="28.7103250" lon="-17.7513850">
        <ele>198.2</ele>
        <time>2020-11-15T22:44:10Z</time>
      </trkpt>
      <trkpt lat="28.7102800" lon="-17.7513980">
        <ele>198.4</ele>
        <time>2020-11-15T22:44:11Z</time>
      </trkpt>
      <trkpt lat="28.7102800" lon="-17.7513980">
        <ele>198.4</ele>
        <time>2020-11-15T22:44:12Z</time>
      </trkpt>
      <trkpt lat="28.7102380" lon="-17.7514200">
        <ele>198.5</ele>
        <time>2020-11-15T22:44:13Z</time>
      </trkpt>
      <trkpt lat="28.7102380" lon="-17.7514200">
        <ele>198.5</ele>
        <time>2020-11-15T22:44:14Z</time>
      </trkpt>
      <trkpt lat="28.7101950" lon="-17.7514400">
        <ele>198.7</ele>
        <time>2020-11-15T22:44:15Z</time>
      </trkpt>
      <trkpt lat="28.7101950" lon="-17.7514400">
        <ele>198.7</ele>
        <time>2020-11-15T22:44:16Z</time>
      </trkpt>
      <trkpt lat="28.7101530" lon="-17.7514600">
        <ele>198.8</ele>
        <time>2020-11-15T22:44:17Z</time>
      </trkpt>
      <trkpt lat="28.7101530" lon="-17.7514600">
        <ele>198.8</ele>
        <time>2020-11-15T22:44:18Z</time>
      </trkpt>
      <trkpt lat="28.7101130" lon="-17.7514820">
        <ele>199.0</ele>
        <time>2020-11-15T22:44:19Z</time>
      </trkpt>
      <trkpt lat="28.7101130" lon="-17.7514820">
        <ele>199.0</ele>
        <time>2020-11-15T22:44:20Z</time>
      </trkpt>
      <trkpt lat="28.7100730" lon="-17.7515020">
        <ele>199.2</ele>
        <time>2020-11-15T22:44:21Z</time>
      </trkpt>
      <trkpt lat="28.7100530" lon="-17.7515150">
        <ele>199.3</ele>
        <time>2020-11-15T22:44:22Z</time>
      </trkpt>
      <trkpt lat="28.7100530" lon="-17.7515150">
        <ele>199.3</ele>
        <time>2020-11-15T22:44:23Z</time>
      </trkpt>
      <trkpt lat="28.7100300" lon="-17.7515500">
        <ele>199.5</ele>
        <time>2020-11-15T22:44:24Z</time>
      </trkpt>
      <trkpt lat="28.7100180" lon="-17.7515700">
        <ele>199.6</ele>
        <time>2020-11-15T22:44:25Z</time>
      </trkpt>
      <trkpt lat="28.7100180" lon="-17.7515700">
        <ele>199.6</ele>
        <time>2020-11-15T22:44:26Z</time>
      </trkpt>
      <trkpt lat="28.7099950" lon="-17.7516070">
        <ele>199.8</ele>
        <time>2020-11-15T22:44:27Z</time>
      </trkpt>
      <trkpt lat="28.7099950" lon="-17.7516070">
        <ele>199.8</ele>
        <time>2020-11-15T22:44:28Z</time>
      </trkpt>
      <trkpt lat="28.7099700" lon="-17.7516400">
        <ele>200.0</ele>
        <time>2020-11-15T22:44:29Z</time>
      </trkpt>
      <trkpt lat="28.7099700" lon="-17.7516400">
        <ele>200.0</ele>
        <time>2020-11-15T22:44:30Z</time>
      </trkpt>
      <trkpt lat="28.7099550" lon="-17.7516870">
        <ele>200.2</ele>
        <time>2020-11-15T22:44:31Z</time>
      </trkpt>
      <trkpt lat="28.7099500" lon="-17.7517100">
        <ele>200.4</ele>
        <time>2020-11-15T22:44:32Z</time>
      </trkpt>
      <trkpt lat="28.7099500" lon="-17.7517100">
        <ele>200.4</ele>
        <time>2020-11-15T22:44:33Z</time>
      </trkpt>
      <trkpt lat="28.7099430" lon="-17.7517580">
        <ele>200.6</ele>
        <time>2020-11-15T22:44:34Z</time>
      </trkpt>
      <trkpt lat="28.7099430" lon="-17.7517580">
        <ele>200.6</ele>
        <time>2020-11-15T22:44:35Z</time>
      </trkpt>
      <trkpt lat="28.7099370" lon="-17.7518100">
        <ele>200.9</ele>
        <time>2020-11-15T22:44:36Z</time>
      </trkpt>
      <trkpt lat="28.7099370" lon="-17.7518280">
        <ele>201.0</ele>
        <time>2020-11-15T22:44:37Z</time>
      </trkpt>
      <trkpt lat="28.7099370" lon="-17.7518280">
        <ele>201.0</ele>
        <time>2020-11-15T22:44:38Z</time>
      </trkpt>
      <trkpt lat="28.7099420" lon="-17.7518670">
        <ele>201.3</ele>
        <time>2020-11-15T22:44:39Z</time>
      </trkpt>
      <trkpt lat="28.7099420" lon="-17.7518670">
        <ele>201.3</ele>
        <time>2020-11-15T22:44:40Z</time>
      </trkpt>
      <trkpt lat="28.7099420" lon="-17.7519070">
        <ele>201.8</ele>
        <time>2020-11-15T22:44:41Z</time>
      </trkpt>
      <trkpt lat="28.7099420" lon="-17.7519070">
        <ele>201.8</ele>
        <time>2020-11-15T22:44:42Z</time>
      </trkpt>
      <trkpt lat="28.7099380" lon="-17.7519420">
        <ele>202.1</ele>
        <time>2020-11-15T22:44:43Z</time>
      </trkpt>
      <trkpt lat="28.7099380" lon="-17.7519420">
        <ele>202.1</ele>
        <time>2020-11-15T22:44:44Z</time>
      </trkpt>
      <trkpt lat="28.7099380" lon="-17.7519750">
        <ele>202.4</ele>
        <time>2020-11-15T22:44:45Z</time>
      </trkpt>
      <trkpt lat="28.7099380" lon="-17.7519750">
        <ele>202.4</ele>
        <time>2020-11-15T22:44:46Z</time>
      </trkpt>
      <trkpt lat="28.7099430" lon="-17.7520070">
        <ele>202.7</ele>
        <time>2020-11-15T22:44:47Z</time>
      </trkpt>
      <trkpt lat="28.7099450" lon="-17.7520220">
        <ele>202.8</ele>
        <time>2020-11-15T22:44:48Z</time>
      </trkpt>
      <trkpt lat="28.7099450" lon="-17.7520220">
        <ele>202.8</ele>
        <time>2020-11-15T22:44:49Z</time>
      </trkpt>
      <trkpt lat="28.7099470" lon="-17.7520670">
        <ele>203.3</ele>
        <time>2020-11-15T22:44:50Z</time>
      </trkpt>
      <trkpt lat="28.7099470" lon="-17.7520670">
        <ele>203.3</ele>
        <time>2020-11-15T22:44:51Z</time>
      </trkpt>
      <trkpt lat="28.7099450" lon="-17.7521120">
        <ele>203.7</ele>
        <time>2020-11-15T22:44:52Z</time>
      </trkpt>
      <trkpt lat="28.7099430" lon="-17.7521320">
        <ele>203.9</ele>
        <time>2020-11-15T22:44:53Z</time>
      </trkpt>
      <trkpt lat="28.7099430" lon="-17.7521520">
        <ele>204.0</ele>
        <time>2020-11-15T22:44:54Z</time>
      </trkpt>
      <trkpt lat="28.7099430" lon="-17.7521520">
        <ele>204.0</ele>
        <time>2020-11-15T22:44:55Z</time>
      </trkpt>
      <trkpt lat="28.7099430" lon="-17.7521950">
        <ele>204.4</ele>
        <time>2020-11-15T22:44:56Z</time>
      </trkpt>
      <trkpt lat="28.7099430" lon="-17.7521950">
        <ele>204.4</ele>
        <time>2020-11-15T22:44:57Z</time>
      </trkpt>
      <trkpt lat="28.7099330" lon="-17.7522430">
        <ele>204.9</ele>
        <time>2020-11-15T22:44:58Z</time>
      </trkpt>
      <trkpt lat="28.7099300" lon="-17.7522650">
        <ele>205.1</ele>
        <time>2020-11-15T22:44:59Z</time>
      </trkpt>
      <trkpt lat="28.7099300" lon="-17.7522650">
        <ele>205.1</ele>
        <time>2020-11-15T22:45:00Z</time>
      </trkpt>
      <trkpt lat="28.7099220" lon="-17.7523150">
        <ele>205.5</ele>
        <time>2020-11-15T22:45:01Z</time>
      </trkpt>
      <trkpt lat="28.7099220" lon="-17.7523150">
        <ele>205.5</ele>
        <time>2020-11-15T22:45:02Z</time>
      </trkpt>
      <trkpt lat="28.7099120" lon="-17.7523580">
        <ele>205.9</ele>
        <time>2020-11-15T22:45:03Z</time>
      </trkpt>
      <trkpt lat="28.7099050" lon="-17.7523800">
        <ele>206.2</ele>
        <time>2020-11-15T22:45:04Z</time>
      </trkpt>
      <trkpt lat="28.7099050" lon="-17.7523800">
        <ele>206.2</ele>
        <time>2020-11-15T22:45:05Z</time>
      </trkpt>
      <trkpt lat="28.7098880" lon="-17.7524250">
        <ele>206.6</ele>
        <time>2020-11-15T22:45:06Z</time>
      </trkpt>
      <trkpt lat="28.7098880" lon="-17.7524250">
        <ele>206.6</ele>
        <time>2020-11-15T22:45:07Z</time>
      </trkpt>
      <trkpt lat="28.7098700" lon="-17.7524650">
        <ele>207.0</ele>
        <time>2020-11-15T22:45:08Z</time>
      </trkpt>
      <trkpt lat="28.7098700" lon="-17.7524650">
        <ele>207.0</ele>
        <time>2020-11-15T22:45:09Z</time>
      </trkpt>
      <trkpt lat="28.7098450" lon="-17.7525050">
        <ele>207.4</ele>
        <time>2020-11-15T22:45:10Z</time>
      </trkpt>
      <trkpt lat="28.7098450" lon="-17.7525050">
        <ele>207.4</ele>
        <time>2020-11-15T22:45:11Z</time>
      </trkpt>
      <trkpt lat="28.7098170" lon="-17.7525380">
        <ele>207.7</ele>
        <time>2020-11-15T22:45:12Z</time>
      </trkpt>
      <trkpt lat="28.7097980" lon="-17.7525530">
        <ele>207.9</ele>
        <time>2020-11-15T22:45:13Z</time>
      </trkpt>
      <trkpt lat="28.7097980" lon="-17.7525530">
        <ele>207.9</ele>
        <time>2020-11-15T22:45:14Z</time>
      </trkpt>
      <trkpt lat="28.7097620" lon="-17.7525820">
        <ele>208.3</ele>
        <time>2020-11-15T22:45:15Z</time>
      </trkpt>
      <trkpt lat="28.7097620" lon="-17.7525820">
        <ele>208.3</ele>
        <time>2020-11-15T22:45:16Z</time>
      </trkpt>
      <trkpt lat="28.7097270" lon="-17.7526030">
        <ele>208.6</ele>
        <time>2020-11-15T22:45:17Z</time>
      </trkpt>
      <trkpt lat="28.7097270" lon="-17.7526030">
        <ele>208.6</ele>
        <time>2020-11-15T22:45:18Z</time>
      </trkpt>
      <trkpt lat="28.7096880" lon="-17.7526250">
        <ele>208.9</ele>
        <time>2020-11-15T22:45:19Z</time>
      </trkpt>
      <trkpt lat="28.7096880" lon="-17.7526250">
        <ele>208.9</ele>
        <time>2020-11-15T22:45:20Z</time>
      </trkpt>
      <trkpt lat="28.7096500" lon="-17.7526500">
        <ele>209.3</ele>
        <time>2020-11-15T22:45:21Z</time>
      </trkpt>
      <trkpt lat="28.7096500" lon="-17.7526500">
        <ele>209.3</ele>
        <time>2020-11-15T22:45:22Z</time>
      </trkpt>
      <trkpt lat="28.7096130" lon="-17.7526730">
        <ele>209.6</ele>
        <time>2020-11-15T22:45:23Z</time>
      </trkpt>
      <trkpt lat="28.7096130" lon="-17.7526730">
        <ele>209.6</ele>
        <time>2020-11-15T22:45:24Z</time>
      </trkpt>
      <trkpt lat="28.7095770" lon="-17.7526970">
        <ele>209.9</ele>
        <time>2020-11-15T22:45:25Z</time>
      </trkpt>
      <trkpt lat="28.7095570" lon="-17.7527100">
        <ele>210.1</ele>
        <time>2020-11-15T22:45:26Z</time>
      </trkpt>
      <trkpt lat="28.7095570" lon="-17.7527100">
        <ele>210.1</ele>
        <time>2020-11-15T22:45:27Z</time>
      </trkpt>
      <trkpt lat="28.7095180" lon="-17.7527250">
        <ele>210.5</ele>
        <time>2020-11-15T22:45:28Z</time>
      </trkpt>
      <trkpt lat="28.7095000" lon="-17.7527350">
        <ele>210.7</ele>
        <time>2020-11-15T22:45:29Z</time>
      </trkpt>
      <trkpt lat="28.7095000" lon="-17.7527350">
        <ele>210.7</ele>
        <time>2020-11-15T22:45:30Z</time>
      </trkpt>
      <trkpt lat="28.7094600" lon="-17.7527380">
        <ele>211.1</ele>
        <time>2020-11-15T22:45:31Z</time>
      </trkpt>
      <trkpt lat="28.7094600" lon="-17.7527380">
        <ele>211.1</ele>
        <time>2020-11-15T22:45:32Z</time>
      </trkpt>
      <trkpt lat="28.7094230" lon="-17.7527580">
        <ele>211.6</ele>
        <time>2020-11-15T22:45:33Z</time>
      </trkpt>
      <trkpt lat="28.7094230" lon="-17.7527580">
        <ele>211.6</ele>
        <time>2020-11-15T22:45:34Z</time>
      </trkpt>
      <trkpt lat="28.7093920" lon="-17.7527870">
        <ele>212.0</ele>
        <time>2020-11-15T22:45:35Z</time>
      </trkpt>
      <trkpt lat="28.7093750" lon="-17.7528020">
        <ele>212.3</ele>
        <time>2020-11-15T22:45:36Z</time>
      </trkpt>
      <trkpt lat="28.7093750" lon="-17.7528020">
        <ele>212.3</ele>
        <time>2020-11-15T22:45:37Z</time>
      </trkpt>
      <trkpt lat="28.7093470" lon="-17.7528330">
        <ele>212.7</ele>
        <time>2020-11-15T22:45:38Z</time>
      </trkpt>
      <trkpt lat="28.7093470" lon="-17.7528330">
        <ele>212.7</ele>
        <time>2020-11-15T22:45:39Z</time>
      </trkpt>
      <trkpt lat="28.7093180" lon="-17.7528650">
        <ele>213.2</ele>
        <time>2020-11-15T22:45:40Z</time>
      </trkpt>
      <trkpt lat="28.7093180" lon="-17.7528650">
        <ele>213.2</ele>
        <time>2020-11-15T22:45:41Z</time>
      </trkpt>
      <trkpt lat="28.7092930" lon="-17.7529030">
        <ele>213.7</ele>
        <time>2020-11-15T22:45:42Z</time>
      </trkpt>
      <trkpt lat="28.7092780" lon="-17.7529200">
        <ele>213.9</ele>
        <time>2020-11-15T22:45:43Z</time>
      </trkpt>
      <trkpt lat="28.7092780" lon="-17.7529200">
        <ele>213.9</ele>
        <time>2020-11-15T22:45:44Z</time>
      </trkpt>
      <trkpt lat="28.7092520" lon="-17.7529520">
        <ele>214.4</ele>
        <time>2020-11-15T22:45:45Z</time>
      </trkpt>
      <trkpt lat="28.7092520" lon="-17.7529520">
        <ele>214.4</ele>
        <time>2020-11-15T22:45:46Z</time>
      </trkpt>
      <trkpt lat="28.7092270" lon="-17.7529880">
        <ele>214.9</ele>
        <time>2020-11-15T22:45:47Z</time>
      </trkpt>
      <trkpt lat="28.7092180" lon="-17.7530150">
        <ele>215.2</ele>
        <time>2020-11-15T22:45:48Z</time>
      </trkpt>
      <trkpt lat="28.7092120" lon="-17.7530400">
        <ele>215.5</ele>
        <time>2020-11-15T22:45:49Z</time>
      </trkpt>
      <trkpt lat="28.7092120" lon="-17.7530400">
        <ele>215.5</ele>
        <time>2020-11-15T22:45:50Z</time>
      </trkpt>
      <trkpt lat="28.7091950" lon="-17.7530870">
        <ele>216.0</ele>
        <time>2020-11-15T22:45:51Z</time>
      </trkpt>
      <trkpt lat="28.7091880" lon="-17.7531120">
        <ele>216.3</ele>
        <time>2020-11-15T22:45:52Z</time>
      </trkpt>
      <trkpt lat="28.7091880" lon="-17.7531120">
        <ele>216.3</ele>
        <time>2020-11-15T22:45:53Z</time>
      </trkpt>
      <trkpt lat="28.7091700" lon="-17.7531550">
        <ele>216.8</ele>
        <time>2020-11-15T22:45:54Z</time>
      </trkpt>
      <trkpt lat="28.7091620" lon="-17.7531730">
        <ele>217.0</ele>
        <time>2020-11-15T22:45:55Z</time>
      </trkpt>
      <trkpt lat="28.7091620" lon="-17.7531730">
        <ele>217.0</ele>
        <time>2020-11-15T22:45:56Z</time>
      </trkpt>
      <trkpt lat="28.7091420" lon="-17.7532130">
        <ele>217.5</ele>
        <time>2020-11-15T22:45:57Z</time>
      </trkpt>
      <trkpt lat="28.7091330" lon="-17.7532330">
        <ele>217.7</ele>
        <time>2020-11-15T22:45:58Z</time>
      </trkpt>
      <trkpt lat="28.7091330" lon="-17.7532330">
        <ele>217.7</ele>
        <time>2020-11-15T22:45:59Z</time>
      </trkpt>
      <trkpt lat="28.7091320" lon="-17.7532770">
        <ele>218.2</ele>
        <time>2020-11-15T22:46:00Z</time>
      </trkpt>
      <trkpt lat="28.7091300" lon="-17.7532980">
        <ele>218.4</ele>
        <time>2020-11-15T22:46:01Z</time>
      </trkpt>
      <trkpt lat="28.7091300" lon="-17.7532980">
        <ele>218.4</ele>
        <time>2020-11-15T22:46:02Z</time>
      </trkpt>
      <trkpt lat="28.7091220" lon="-17.7533350">
        <ele>218.8</ele>
        <time>2020-11-15T22:46:03Z</time>
      </trkpt>
      <trkpt lat="28.7091220" lon="-17.7533350">
        <ele>218.8</ele>
        <time>2020-11-15T22:46:04Z</time>
      </trkpt>
      <trkpt lat="28.7091120" lon="-17.7533700">
        <ele>219.2</ele>
        <time>2020-11-15T22:46:05Z</time>
      </trkpt>
      <trkpt lat="28.7091120" lon="-17.7533700">
        <ele>219.2</ele>
        <time>2020-11-15T22:46:06Z</time>
      </trkpt>
      <trkpt lat="28.7091100" lon="-17.7534130">
        <ele>219.6</ele>
        <time>2020-11-15T22:46:07Z</time>
      </trkpt>
      <trkpt lat="28.7091100" lon="-17.7534130">
        <ele>219.6</ele>
        <time>2020-11-15T22:46:08Z</time>
      </trkpt>
      <trkpt lat="28.7091170" lon="-17.7534570">
        <ele>220.1</ele>
        <time>2020-11-15T22:46:09Z</time>
      </trkpt>
      <trkpt lat="28.7091170" lon="-17.7534780">
        <ele>220.3</ele>
        <time>2020-11-15T22:46:10Z</time>
      </trkpt>
      <trkpt lat="28.7091170" lon="-17.7534780">
        <ele>220.3</ele>
        <time>2020-11-15T22:46:11Z</time>
      </trkpt>
      <trkpt lat="28.7091220" lon="-17.7535250">
        <ele>220.8</ele>
        <time>2020-11-15T22:46:12Z</time>
      </trkpt>
      <trkpt lat="28.7091220" lon="-17.7535250">
        <ele>220.8</ele>
        <time>2020-11-15T22:46:13Z</time>
      </trkpt>
      <trkpt lat="28.7091250" lon="-17.7535720">
        <ele>221.3</ele>
        <time>2020-11-15T22:46:14Z</time>
      </trkpt>
      <trkpt lat="28.7091250" lon="-17.7535720">
        <ele>221.3</ele>
        <time>2020-11-15T22:46:15Z</time>
      </trkpt>
      <trkpt lat="28.7091330" lon="-17.7536170">
        <ele>221.8</ele>
        <time>2020-11-15T22:46:16Z</time>
      </trkpt>
      <trkpt lat="28.7091330" lon="-17.7536170">
        <ele>221.8</ele>
        <time>2020-11-15T22:46:17Z</time>
      </trkpt>
      <trkpt lat="28.7091450" lon="-17.7536600">
        <ele>222.3</ele>
        <time>2020-11-15T22:46:18Z</time>
      </trkpt>
      <trkpt lat="28.7091530" lon="-17.7536800">
        <ele>222.5</ele>
        <time>2020-11-15T22:46:19Z</time>
      </trkpt>
      <trkpt lat="28.7091530" lon="-17.7536800">
        <ele>222.5</ele>
        <time>2020-11-15T22:46:20Z</time>
      </trkpt>
      <trkpt lat="28.7091700" lon="-17.7537180">
        <ele>223.0</ele>
        <time>2020-11-15T22:46:21Z</time>
      </trkpt>
      <trkpt lat="28.7091700" lon="-17.7537180">
        <ele>223.0</ele>
        <time>2020-11-15T22:46:22Z</time>
      </trkpt>
      <trkpt lat="28.7091920" lon="-17.7537530">
        <ele>223.5</ele>
        <time>2020-11-15T22:46:23Z</time>
      </trkpt>
      <trkpt lat="28.7092050" lon="-17.7537700">
        <ele>223.7</ele>
        <time>2020-11-15T22:46:24Z</time>
      </trkpt>
      <trkpt lat="28.7092200" lon="-17.7537850">
        <ele>223.9</ele>
        <time>2020-11-15T22:46:25Z</time>
      </trkpt>
      <trkpt lat="28.7092200" lon="-17.7537850">
        <ele>223.9</ele>
        <time>2020-11-15T22:46:26Z</time>
      </trkpt>
      <trkpt lat="28.7092520" lon="-17.7538130">
        <ele>224.4</ele>
        <time>2020-11-15T22:46:27Z</time>
      </trkpt>
      <trkpt lat="28.7092520" lon="-17.7538130">
        <ele>224.4</ele>
        <time>2020-11-15T22:46:28Z</time>
      </trkpt>
      <trkpt lat="28.7092900" lon="-17.7538320">
        <ele>224.9</ele>
        <time>2020-11-15T22:46:29Z</time>
      </trkpt>
      <trkpt lat="28.7093130" lon="-17.7538330">
        <ele>225.2</ele>
        <time>2020-11-15T22:46:30Z</time>
      </trkpt>
      <trkpt lat="28.7093350" lon="-17.7538350">
        <ele>225.4</ele>
        <time>2020-11-15T22:46:31Z</time>
      </trkpt>
      <trkpt lat="28.7093350" lon="-17.7538350">
        <ele>225.4</ele>
        <time>2020-11-15T22:46:32Z</time>
      </trkpt>
      <trkpt lat="28.7093820" lon="-17.7538400">
        <ele>225.9</ele>
        <time>2020-11-15T22:46:33Z</time>
      </trkpt>
      <trkpt lat="28.7093820" lon="-17.7538400">
        <ele>225.9</ele>
        <time>2020-11-15T22:46:34Z</time>
      </trkpt>
      <trkpt lat="28.7094230" lon="-17.7538420">
        <ele>226.4</ele>
        <time>2020-11-15T22:46:35Z</time>
      </trkpt>
      <trkpt lat="28.7094230" lon="-17.7538420">
        <ele>226.4</ele>
        <time>2020-11-15T22:46:36Z</time>
      </trkpt>
      <trkpt lat="28.7094670" lon="-17.7538380">
        <ele>226.9</ele>
        <time>2020-11-15T22:46:37Z</time>
      </trkpt>
      <trkpt lat="28.7094670" lon="-17.7538380">
        <ele>226.9</ele>
        <time>2020-11-15T22:46:38Z</time>
      </trkpt>
      <trkpt lat="28.7095030" lon="-17.7538300">
        <ele>227.2</ele>
        <time>2020-11-15T22:46:39Z</time>
      </trkpt>
      <trkpt lat="28.7095030" lon="-17.7538300">
        <ele>227.2</ele>
        <time>2020-11-15T22:46:40Z</time>
      </trkpt>
      <trkpt lat="28.7095420" lon="-17.7538130">
        <ele>227.7</ele>
        <time>2020-11-15T22:46:41Z</time>
      </trkpt>
      <trkpt lat="28.7095600" lon="-17.7538050">
        <ele>227.9</ele>
        <time>2020-11-15T22:46:42Z</time>
      </trkpt>
      <trkpt lat="28.7095600" lon="-17.7538050">
        <ele>227.9</ele>
        <time>2020-11-15T22:46:43Z</time>
      </trkpt>
      <trkpt lat="28.7095950" lon="-17.7537880">
        <ele>228.3</ele>
        <time>2020-11-15T22:46:44Z</time>
      </trkpt>
      <trkpt lat="28.7095950" lon="-17.7537880">
        <ele>228.3</ele>
        <time>2020-11-15T22:46:45Z</time>
      </trkpt>
      <trkpt lat="28.7096270" lon="-17.7537670">
        <ele>228.6</ele>
        <time>2020-11-15T22:46:46Z</time>
      </trkpt>
      <trkpt lat="28.7096270" lon="-17.7537670">
        <ele>228.6</ele>
        <time>2020-11-15T22:46:47Z</time>
      </trkpt>
      <trkpt lat="28.7096620" lon="-17.7537400">
        <ele>229.0</ele>
        <time>2020-11-15T22:46:48Z</time>
      </trkpt>
      <trkpt lat="28.7096800" lon="-17.7537280">
        <ele>229.2</ele>
        <time>2020-11-15T22:46:49Z</time>
      </trkpt>
      <trkpt lat="28.7096800" lon="-17.7537280">
        <ele>229.2</ele>
        <time>2020-11-15T22:46:50Z</time>
      </trkpt>
      <trkpt lat="28.7097130" lon="-17.7537000">
        <ele>229.6</ele>
        <time>2020-11-15T22:46:51Z</time>
      </trkpt>
      <trkpt lat="28.7097130" lon="-17.7537000">
        <ele>229.6</ele>
        <time>2020-11-15T22:46:52Z</time>
      </trkpt>
      <trkpt lat="28.7097480" lon="-17.7536720">
        <ele>230.0</ele>
        <time>2020-11-15T22:46:53Z</time>
      </trkpt>
      <trkpt lat="28.7097650" lon="-17.7536570">
        <ele>230.1</ele>
        <time>2020-11-15T22:46:54Z</time>
      </trkpt>
      <trkpt lat="28.7097830" lon="-17.7536450">
        <ele>230.3</ele>
        <time>2020-11-15T22:46:55Z</time>
      </trkpt>
      <trkpt lat="28.7097830" lon="-17.7536450">
        <ele>230.3</ele>
        <time>2020-11-15T22:46:56Z</time>
      </trkpt>
      <trkpt lat="28.7098270" lon="-17.7536250">
        <ele>230.7</ele>
        <time>2020-11-15T22:46:57Z</time>
      </trkpt>
      <trkpt lat="28.7098470" lon="-17.7536130">
        <ele>230.9</ele>
        <time>2020-11-15T22:46:58Z</time>
      </trkpt>
      <trkpt lat="28.7098470" lon="-17.7536130">
        <ele>230.9</ele>
        <time>2020-11-15T22:46:59Z</time>
      </trkpt>
      <trkpt lat="28.7098820" lon="-17.7535880">
        <ele>231.2</ele>
        <time>2020-11-15T22:47:00Z</time>
      </trkpt>
      <trkpt lat="28.7098820" lon="-17.7535880">
        <ele>231.2</ele>
        <time>2020-11-15T22:47:01Z</time>
      </trkpt>
      <trkpt lat="28.7099150" lon="-17.7535670">
        <ele>231.5</ele>
        <time>2020-11-15T22:47:02Z</time>
      </trkpt>
      <trkpt lat="28.7099330" lon="-17.7535550">
        <ele>231.6</ele>
        <time>2020-11-15T22:47:03Z</time>
      </trkpt>
      <trkpt lat="28.7099550" lon="-17.7535450">
        <ele>231.8</ele>
        <time>2020-11-15T22:47:04Z</time>
      </trkpt>
      <trkpt lat="28.7099550" lon="-17.7535450">
        <ele>231.8</ele>
        <time>2020-11-15T22:47:05Z</time>
      </trkpt>
      <trkpt lat="28.7099970" lon="-17.7535370">
        <ele>232.1</ele>
        <time>2020-11-15T22:47:06Z</time>
      </trkpt>
      <trkpt lat="28.7100150" lon="-17.7535270">
        <ele>232.3</ele>
        <time>2020-11-15T22:47:07Z</time>
      </trkpt>
      <trkpt lat="28.7100150" lon="-17.7535270">
        <ele>232.3</ele>
        <time>2020-11-15T22:47:08Z</time>
      </trkpt>
      <trkpt lat="28.7100530" lon="-17.7535020">
        <ele>232.6</ele>
        <time>2020-11-15T22:47:09Z</time>
      </trkpt>
      <trkpt lat="28.7100530" lon="-17.7535020">
        <ele>232.6</ele>
        <time>2020-11-15T22:47:10Z</time>
      </trkpt>
      <trkpt lat="28.7100930" lon="-17.7534830">
        <ele>232.9</ele>
        <time>2020-11-15T22:47:11Z</time>
      </trkpt>
      <trkpt lat="28.7100930" lon="-17.7534830">
        <ele>232.9</ele>
        <time>2020-11-15T22:47:12Z</time>
      </trkpt>
      <trkpt lat="28.7101330" lon="-17.7534620">
        <ele>233.2</ele>
        <time>2020-11-15T22:47:13Z</time>
      </trkpt>
      <trkpt lat="28.7101330" lon="-17.7534620">
        <ele>233.2</ele>
        <time>2020-11-15T22:47:14Z</time>
      </trkpt>
      <trkpt lat="28.7101720" lon="-17.7534380">
        <ele>233.6</ele>
        <time>2020-11-15T22:47:15Z</time>
      </trkpt>
      <trkpt lat="28.7101720" lon="-17.7534380">
        <ele>233.6</ele>
        <time>2020-11-15T22:47:16Z</time>
      </trkpt>
      <trkpt lat="28.7102150" lon="-17.7534170">
        <ele>233.9</ele>
        <time>2020-11-15T22:47:17Z</time>
      </trkpt>
      <trkpt lat="28.7102150" lon="-17.7534170">
        <ele>233.9</ele>
        <time>2020-11-15T22:47:18Z</time>
      </trkpt>
      <trkpt lat="28.7102520" lon="-17.7534000">
        <ele>234.2</ele>
        <time>2020-11-15T22:47:19Z</time>
      </trkpt>
      <trkpt lat="28.7102520" lon="-17.7534000">
        <ele>234.2</ele>
        <time>2020-11-15T22:47:20Z</time>
      </trkpt>
      <trkpt lat="28.7102920" lon="-17.7533700">
        <ele>234.5</ele>
        <time>2020-11-15T22:47:21Z</time>
      </trkpt>
      <trkpt lat="28.7102920" lon="-17.7533700">
        <ele>234.5</ele>
        <time>2020-11-15T22:47:22Z</time>
      </trkpt>
      <trkpt lat="28.7103300" lon="-17.7533380">
        <ele>234.9</ele>
        <time>2020-11-15T22:47:23Z</time>
      </trkpt>
      <trkpt lat="28.7103300" lon="-17.7533380">
        <ele>234.9</ele>
        <time>2020-11-15T22:47:24Z</time>
      </trkpt>
      <trkpt lat="28.7103650" lon="-17.7532850">
        <ele>235.3</ele>
        <time>2020-11-15T22:47:25Z</time>
      </trkpt>
      <trkpt lat="28.7103650" lon="-17.7532850">
        <ele>235.3</ele>
        <time>2020-11-15T22:47:26Z</time>
      </trkpt>
      <trkpt lat="28.7103870" lon="-17.7532080">
        <ele>235.8</ele>
        <time>2020-11-15T22:47:27Z</time>
      </trkpt>
      <trkpt lat="28.7103870" lon="-17.7532080">
        <ele>235.8</ele>
        <time>2020-11-15T22:47:28Z</time>
      </trkpt>
      <trkpt lat="28.7104080" lon="-17.7531350">
        <ele>236.3</ele>
        <time>2020-11-15T22:47:29Z</time>
      </trkpt>
      <trkpt lat="28.7104080" lon="-17.7531350">
        <ele>236.3</ele>
        <time>2020-11-15T22:47:30Z</time>
      </trkpt>
      <trkpt lat="28.7104230" lon="-17.7530600">
        <ele>236.7</ele>
        <time>2020-11-15T22:47:31Z</time>
      </trkpt>
      <trkpt lat="28.7104230" lon="-17.7530600">
        <ele>236.7</ele>
        <time>2020-11-15T22:47:32Z</time>
      </trkpt>
      <trkpt lat="28.7104550" lon="-17.7530150">
        <ele>237.1</ele>
        <time>2020-11-15T22:47:33Z</time>
      </trkpt>
      <trkpt lat="28.7104550" lon="-17.7530150">
        <ele>237.1</ele>
        <time>2020-11-15T22:47:34Z</time>
      </trkpt>
      <trkpt lat="28.7104900" lon="-17.7529670">
        <ele>237.5</ele>
        <time>2020-11-15T22:47:35Z</time>
      </trkpt>
      <trkpt lat="28.7104900" lon="-17.7529670">
        <ele>237.5</ele>
        <time>2020-11-15T22:47:36Z</time>
      </trkpt>
      <trkpt lat="28.7105250" lon="-17.7529200">
        <ele>237.9</ele>
        <time>2020-11-15T22:47:37Z</time>
      </trkpt>
      <trkpt lat="28.7105250" lon="-17.7529200">
        <ele>237.9</ele>
        <time>2020-11-15T22:47:38Z</time>
      </trkpt>
      <trkpt lat="28.7105580" lon="-17.7528700">
        <ele>238.3</ele>
        <time>2020-11-15T22:47:39Z</time>
      </trkpt>
      <trkpt lat="28.7105580" lon="-17.7528700">
        <ele>238.3</ele>
        <time>2020-11-15T22:47:40Z</time>
      </trkpt>
      <trkpt lat="28.7105830" lon="-17.7528200">
        <ele>238.7</ele>
        <time>2020-11-15T22:47:41Z</time>
      </trkpt>
      <trkpt lat="28.7105970" lon="-17.7527930">
        <ele>238.9</ele>
        <time>2020-11-15T22:47:42Z</time>
      </trkpt>
      <trkpt lat="28.7105970" lon="-17.7527930">
        <ele>238.9</ele>
        <time>2020-11-15T22:47:43Z</time>
      </trkpt>
      <trkpt lat="28.7106200" lon="-17.7527430">
        <ele>239.3</ele>
        <time>2020-11-15T22:47:44Z</time>
      </trkpt>
      <trkpt lat="28.7106200" lon="-17.7527430">
        <ele>239.3</ele>
        <time>2020-11-15T22:47:45Z</time>
      </trkpt>
      <trkpt lat="28.7106480" lon="-17.7526920">
        <ele>239.8</ele>
        <time>2020-11-15T22:47:46Z</time>
      </trkpt>
      <trkpt lat="28.7106480" lon="-17.7526920">
        <ele>239.8</ele>
        <time>2020-11-15T22:47:47Z</time>
      </trkpt>
      <trkpt lat="28.7106730" lon="-17.7526380">
        <ele>240.2</ele>
        <time>2020-11-15T22:47:48Z</time>
      </trkpt>
      <trkpt lat="28.7106730" lon="-17.7526380">
        <ele>240.2</ele>
        <time>2020-11-15T22:47:49Z</time>
      </trkpt>
      <trkpt lat="28.7107020" lon="-17.7525930">
        <ele>240.6</ele>
        <time>2020-11-15T22:47:50Z</time>
      </trkpt>
      <trkpt lat="28.7107020" lon="-17.7525930">
        <ele>240.6</ele>
        <time>2020-11-15T22:47:51Z</time>
      </trkpt>
      <trkpt lat="28.7107280" lon="-17.7525470">
        <ele>241.0</ele>
        <time>2020-11-15T22:47:52Z</time>
      </trkpt>
      <trkpt lat="28.7107450" lon="-17.7525220">
        <ele>241.2</ele>
        <time>2020-11-15T22:47:53Z</time>
      </trkpt>
      <trkpt lat="28.7107450" lon="-17.7525220">
        <ele>241.2</ele>
        <time>2020-11-15T22:47:54Z</time>
      </trkpt>
      <trkpt lat="28.7107780" lon="-17.7524770">
        <ele>241.6</ele>
        <time>2020-11-15T22:47:55Z</time>
      </trkpt>
      <trkpt lat="28.7107780" lon="-17.7524770">
        <ele>241.6</ele>
        <time>2020-11-15T22:47:56Z</time>
      </trkpt>
      <trkpt lat="28.7108080" lon="-17.7524270">
        <ele>242.1</ele>
        <time>2020-11-15T22:47:57Z</time>
      </trkpt>
      <trkpt lat="28.7108220" lon="-17.7524000">
        <ele>242.3</ele>
        <time>2020-11-15T22:47:58Z</time>
      </trkpt>
      <trkpt lat="28.7108220" lon="-17.7524000">
        <ele>242.3</ele>
        <time>2020-11-15T22:47:59Z</time>
      </trkpt>
      <trkpt lat="28.7108350" lon="-17.7523450">
        <ele>242.8</ele>
        <time>2020-11-15T22:48:00Z</time>
      </trkpt>
      <trkpt lat="28.7108280" lon="-17.7523180">
        <ele>243.0</ele>
        <time>2020-11-15T22:48:01Z</time>
      </trkpt>
      <trkpt lat="28.7108220" lon="-17.7522900">
        <ele>243.2</ele>
        <time>2020-11-15T22:48:02Z</time>
      </trkpt>
      <trkpt lat="28.7108220" lon="-17.7522900">
        <ele>243.2</ele>
        <time>2020-11-15T22:48:03Z</time>
      </trkpt>
      <trkpt lat="28.7108200" lon="-17.7522400">
        <ele>243.3</ele>
        <time>2020-11-15T22:48:04Z</time>
      </trkpt>
      <trkpt lat="28.7108220" lon="-17.7522180">
        <ele>243.5</ele>
        <time>2020-11-15T22:48:05Z</time>
      </trkpt>
      <trkpt lat="28.7108230" lon="-17.7522020">
        <ele>243.6</ele>
        <time>2020-11-15T22:48:06Z</time>
      </trkpt>
      <trkpt lat="28.7108230" lon="-17.7521920">
        <ele>243.6</ele>
        <time>2020-11-15T22:48:07Z</time>
      </trkpt>
      <trkpt lat="28.7108230" lon="-17.7521920">
        <ele>243.6</ele>
        <time>2020-11-15T22:48:08Z</time>
      </trkpt>
      <trkpt lat="28.7108220" lon="-17.7521930">
        <ele>243.6</ele>
        <time>2020-11-15T22:48:09Z</time>
      </trkpt>
      <trkpt lat="28.7108220" lon="-17.7521930">
        <ele>243.6</ele>
        <time>2020-11-15T22:48:10Z</time>
      </trkpt>
      <trkpt lat="28.7108220" lon="-17.7521930">
        <ele>243.6</ele>
        <time>2020-11-15T22:49:38Z</time>
      </trkpt>
      <trkpt lat="28.7108500" lon="-17.7522000">
        <ele>243.8</ele>
        <time>2020-11-15T22:49:39Z</time>
      </trkpt>
      <trkpt lat="28.7108500" lon="-17.7522000">
        <ele>243.8</ele>
        <time>2020-11-15T22:49:40Z</time>
      </trkpt>
      <trkpt lat="28.7108830" lon="-17.7521970">
        <ele>244.1</ele>
        <time>2020-11-15T22:49:41Z</time>
      </trkpt>
      <trkpt lat="28.7108830" lon="-17.7521970">
        <ele>244.1</ele>
        <time>2020-11-15T22:49:42Z</time>
      </trkpt>
      <trkpt lat="28.7109220" lon="-17.7521680">
        <ele>244.4</ele>
        <time>2020-11-15T22:49:43Z</time>
      </trkpt>
      <trkpt lat="28.7109220" lon="-17.7521680">
        <ele>244.4</ele>
        <time>2020-11-15T22:49:44Z</time>
      </trkpt>
      <trkpt lat="28.7109570" lon="-17.7521320">
        <ele>244.8</ele>
        <time>2020-11-15T22:49:45Z</time>
      </trkpt>
      <trkpt lat="28.7109570" lon="-17.7521320">
        <ele>244.8</ele>
        <time>2020-11-15T22:49:46Z</time>
      </trkpt>
      <trkpt lat="28.7109970" lon="-17.7520930">
        <ele>245.2</ele>
        <time>2020-11-15T22:49:47Z</time>
      </trkpt>
      <trkpt lat="28.7109970" lon="-17.7520930">
        <ele>245.2</ele>
        <time>2020-11-15T22:49:48Z</time>
      </trkpt>
      <trkpt lat="28.7110330" lon="-17.7520580">
        <ele>245.5</ele>
        <time>2020-11-15T22:49:49Z</time>
      </trkpt>
      <trkpt lat="28.7110330" lon="-17.7520580">
        <ele>245.5</ele>
        <time>2020-11-15T22:49:50Z</time>
      </trkpt>
      <trkpt lat="28.7110630" lon="-17.7520180">
        <ele>245.9</ele>
        <time>2020-11-15T22:49:51Z</time>
      </trkpt>
      <trkpt lat="28.7110820" lon="-17.7520000">
        <ele>246.0</ele>
        <time>2020-11-15T22:49:52Z</time>
      </trkpt>
      <trkpt lat="28.7110820" lon="-17.7520000">
        <ele>246.0</ele>
        <time>2020-11-15T22:49:53Z</time>
      </trkpt>
      <trkpt lat="28.7111220" lon="-17.7519700">
        <ele>246.4</ele>
        <time>2020-11-15T22:49:54Z</time>
      </trkpt>
      <trkpt lat="28.7111420" lon="-17.7519530">
        <ele>246.6</ele>
        <time>2020-11-15T22:49:55Z</time>
      </trkpt>
      <trkpt lat="28.7111420" lon="-17.7519530">
        <ele>246.6</ele>
        <time>2020-11-15T22:49:56Z</time>
      </trkpt>
      <trkpt lat="28.7111800" lon="-17.7519220">
        <ele>246.9</ele>
        <time>2020-11-15T22:49:57Z</time>
      </trkpt>
      <trkpt lat="28.7111980" lon="-17.7519050">
        <ele>247.1</ele>
        <time>2020-11-15T22:49:58Z</time>
      </trkpt>
      <trkpt lat="28.7112170" lon="-17.7518880">
        <ele>247.3</ele>
        <time>2020-11-15T22:49:59Z</time>
      </trkpt>
      <trkpt lat="28.7112170" lon="-17.7518880">
        <ele>247.3</ele>
        <time>2020-11-15T22:50:00Z</time>
      </trkpt>
      <trkpt lat="28.7112530" lon="-17.7518520">
        <ele>247.7</ele>
        <time>2020-11-15T22:50:01Z</time>
      </trkpt>
      <trkpt lat="28.7112530" lon="-17.7518520">
        <ele>247.7</ele>
        <time>2020-11-15T22:50:02Z</time>
      </trkpt>
      <trkpt lat="28.7112870" lon="-17.7518100">
        <ele>248.1</ele>
        <time>2020-11-15T22:50:03Z</time>
      </trkpt>
      <trkpt lat="28.7113050" lon="-17.7517880">
        <ele>248.3</ele>
        <time>2020-11-15T22:50:04Z</time>
      </trkpt>
      <trkpt lat="28.7113050" lon="-17.7517880">
        <ele>248.3</ele>
        <time>2020-11-15T22:50:05Z</time>
      </trkpt>
      <trkpt lat="28.7113430" lon="-17.7517480">
        <ele>248.8</ele>
        <time>2020-11-15T22:50:06Z</time>
      </trkpt>
      <trkpt lat="28.7113620" lon="-17.7517320">
        <ele>249.0</ele>
        <time>2020-11-15T22:50:07Z</time>
      </trkpt>
      <trkpt lat="28.7113620" lon="-17.7517320">
        <ele>249.0</ele>
        <time>2020-11-15T22:50:08Z</time>
      </trkpt>
      <trkpt lat="28.7113950" lon="-17.7516980">
        <ele>249.3</ele>
        <time>2020-11-15T22:50:09Z</time>
      </trkpt>
      <trkpt lat="28.7114130" lon="-17.7516830">
        <ele>249.5</ele>
        <time>2020-11-15T22:50:10Z</time>
      </trkpt>
      <trkpt lat="28.7114300" lon="-17.7516700">
        <ele>249.7</ele>
        <time>2020-11-15T22:50:11Z</time>
      </trkpt>
      <trkpt lat="28.7114300" lon="-17.7516700">
        <ele>249.7</ele>
        <time>2020-11-15T22:50:12Z</time>
      </trkpt>
      <trkpt lat="28.7114650" lon="-17.7516430">
        <ele>250.0</ele>
        <time>2020-11-15T22:50:13Z</time>
      </trkpt>
      <trkpt lat="28.7114650" lon="-17.7516430">
        <ele>250.0</ele>
        <time>2020-11-15T22:50:14Z</time>
      </trkpt>
      <trkpt lat="28.7114950" lon="-17.7516120">
        <ele>250.4</ele>
        <time>2020-11-15T22:50:15Z</time>
      </trkpt>
      <trkpt lat="28.7115100" lon="-17.7515980">
        <ele>250.5</ele>
        <time>2020-11-15T22:50:16Z</time>
      </trkpt>
      <trkpt lat="28.7115100" lon="-17.7515980">
        <ele>250.5</ele>
        <time>2020-11-15T22:50:17Z</time>
      </trkpt>
      <trkpt lat="28.7115430" lon="-17.7515720">
        <ele>250.9</ele>
        <time>2020-11-15T22:50:18Z</time>
      </trkpt>
      <trkpt lat="28.7115430" lon="-17.7515720">
        <ele>250.9</ele>
        <time>2020-11-15T22:50:19Z</time>
      </trkpt>
      <trkpt lat="28.7115800" lon="-17.7515480">
        <ele>251.3</ele>
        <time>2020-11-15T22:50:20Z</time>
      </trkpt>
      <trkpt lat="28.7115800" lon="-17.7515480">
        <ele>251.3</ele>
        <time>2020-11-15T22:50:21Z</time>
      </trkpt>
      <trkpt lat="28.7116120" lon="-17.7515180">
        <ele>251.6</ele>
        <time>2020-11-15T22:50:22Z</time>
      </trkpt>
      <trkpt lat="28.7116120" lon="-17.7515180">
        <ele>251.6</ele>
        <time>2020-11-15T22:50:23Z</time>
      </trkpt>
      <trkpt lat="28.7116430" lon="-17.7514830">
        <ele>252.0</ele>
        <time>2020-11-15T22:50:24Z</time>
      </trkpt>
      <trkpt lat="28.7116430" lon="-17.7514830">
        <ele>252.0</ele>
        <time>2020-11-15T22:50:25Z</time>
      </trkpt>
      <trkpt lat="28.7116750" lon="-17.7514530">
        <ele>252.3</ele>
        <time>2020-11-15T22:50:26Z</time>
      </trkpt>
      <trkpt lat="28.7116750" lon="-17.7514530">
        <ele>252.3</ele>
        <time>2020-11-15T22:50:27Z</time>
      </trkpt>
      <trkpt lat="28.7117100" lon="-17.7514230">
        <ele>252.7</ele>
        <time>2020-11-15T22:50:28Z</time>
      </trkpt>
      <trkpt lat="28.7117100" lon="-17.7514230">
        <ele>252.7</ele>
        <time>2020-11-15T22:50:29Z</time>
      </trkpt>
      <trkpt lat="28.7117470" lon="-17.7513970">
        <ele>253.1</ele>
        <time>2020-11-15T22:50:30Z</time>
      </trkpt>
      <trkpt lat="28.7117630" lon="-17.7513820">
        <ele>253.2</ele>
        <time>2020-11-15T22:50:31Z</time>
      </trkpt>
      <trkpt lat="28.7117630" lon="-17.7513820">
        <ele>253.2</ele>
        <time>2020-11-15T22:50:32Z</time>
      </trkpt>
      <trkpt lat="28.7117900" lon="-17.7513400">
        <ele>253.6</ele>
        <time>2020-11-15T22:50:33Z</time>
      </trkpt>
      <trkpt lat="28.7117900" lon="-17.7513400">
        <ele>253.6</ele>
        <time>2020-11-15T22:50:34Z</time>
      </trkpt>
      <trkpt lat="28.7118200" lon="-17.7512970">
        <ele>254.0</ele>
        <time>2020-11-15T22:50:35Z</time>
      </trkpt>
      <trkpt lat="28.7118200" lon="-17.7512970">
        <ele>254.0</ele>
        <time>2020-11-15T22:50:36Z</time>
      </trkpt>
      <trkpt lat="28.7118500" lon="-17.7512580">
        <ele>254.4</ele>
        <time>2020-11-15T22:50:37Z</time>
      </trkpt>
      <trkpt lat="28.7118500" lon="-17.7512580">
        <ele>254.4</ele>
        <time>2020-11-15T22:50:38Z</time>
      </trkpt>
      <trkpt lat="28.7118820" lon="-17.7512220">
        <ele>254.7</ele>
        <time>2020-11-15T22:50:39Z</time>
      </trkpt>
      <trkpt lat="28.7118820" lon="-17.7512220">
        <ele>254.7</ele>
        <time>2020-11-15T22:50:40Z</time>
      </trkpt>
      <trkpt lat="28.7119150" lon="-17.7511850">
        <ele>255.1</ele>
        <time>2020-11-15T22:50:41Z</time>
      </trkpt>
      <trkpt lat="28.7119150" lon="-17.7511850">
        <ele>255.1</ele>
        <time>2020-11-15T22:50:42Z</time>
      </trkpt>
      <trkpt lat="28.7119480" lon="-17.7511530">
        <ele>255.5</ele>
        <time>2020-11-15T22:50:43Z</time>
      </trkpt>
      <trkpt lat="28.7119480" lon="-17.7511530">
        <ele>255.5</ele>
        <time>2020-11-15T22:50:44Z</time>
      </trkpt>
      <trkpt lat="28.7119830" lon="-17.7511230">
        <ele>255.9</ele>
        <time>2020-11-15T22:50:45Z</time>
      </trkpt>
      <trkpt lat="28.7119980" lon="-17.7511080">
        <ele>256.1</ele>
        <time>2020-11-15T22:50:46Z</time>
      </trkpt>
      <trkpt lat="28.7119980" lon="-17.7511080">
        <ele>256.1</ele>
        <time>2020-11-15T22:50:47Z</time>
      </trkpt>
      <trkpt lat="28.7120280" lon="-17.7510750">
        <ele>256.4</ele>
        <time>2020-11-15T22:50:48Z</time>
      </trkpt>
      <trkpt lat="28.7120430" lon="-17.7510600">
        <ele>256.6</ele>
        <time>2020-11-15T22:50:49Z</time>
      </trkpt>
      <trkpt lat="28.7120430" lon="-17.7510600">
        <ele>256.6</ele>
        <time>2020-11-15T22:50:50Z</time>
      </trkpt>
      <trkpt lat="28.7120750" lon="-17.7510300">
        <ele>256.9</ele>
        <time>2020-11-15T22:50:51Z</time>
      </trkpt>
      <trkpt lat="28.7120750" lon="-17.7510300">
        <ele>256.9</ele>
        <time>2020-11-15T22:50:52Z</time>
      </trkpt>
      <trkpt lat="28.7121080" lon="-17.7509980">
        <ele>257.3</ele>
        <time>2020-11-15T22:50:53Z</time>
      </trkpt>
      <trkpt lat="28.7121080" lon="-17.7509980">
        <ele>257.3</ele>
        <time>2020-11-15T22:50:54Z</time>
      </trkpt>
      <trkpt lat="28.7121380" lon="-17.7509670">
        <ele>257.7</ele>
        <time>2020-11-15T22:50:55Z</time>
      </trkpt>
      <trkpt lat="28.7121380" lon="-17.7509670">
        <ele>257.7</ele>
        <time>2020-11-15T22:50:56Z</time>
      </trkpt>
      <trkpt lat="28.7121700" lon="-17.7509330">
        <ele>258.0</ele>
        <time>2020-11-15T22:50:57Z</time>
      </trkpt>
      <trkpt lat="28.7121700" lon="-17.7509330">
        <ele>258.0</ele>
        <time>2020-11-15T22:50:58Z</time>
      </trkpt>
      <trkpt lat="28.7121980" lon="-17.7508970">
        <ele>258.4</ele>
        <time>2020-11-15T22:50:59Z</time>
      </trkpt>
      <trkpt lat="28.7121980" lon="-17.7508970">
        <ele>258.4</ele>
        <time>2020-11-15T22:51:00Z</time>
      </trkpt>
      <trkpt lat="28.7122230" lon="-17.7508580">
        <ele>258.8</ele>
        <time>2020-11-15T22:51:01Z</time>
      </trkpt>
      <trkpt lat="28.7122230" lon="-17.7508580">
        <ele>258.8</ele>
        <time>2020-11-15T22:51:02Z</time>
      </trkpt>
      <trkpt lat="28.7122550" lon="-17.7508300">
        <ele>259.1</ele>
        <time>2020-11-15T22:51:03Z</time>
      </trkpt>
      <trkpt lat="28.7122550" lon="-17.7508300">
        <ele>259.1</ele>
        <time>2020-11-15T22:51:04Z</time>
      </trkpt>
      <trkpt lat="28.7122850" lon="-17.7508020">
        <ele>259.5</ele>
        <time>2020-11-15T22:51:05Z</time>
      </trkpt>
      <trkpt lat="28.7122850" lon="-17.7508020">
        <ele>259.5</ele>
        <time>2020-11-15T22:51:06Z</time>
      </trkpt>
      <trkpt lat="28.7123080" lon="-17.7507620">
        <ele>259.9</ele>
        <time>2020-11-15T22:51:07Z</time>
      </trkpt>
      <trkpt lat="28.7123080" lon="-17.7507620">
        <ele>259.9</ele>
        <time>2020-11-15T22:51:08Z</time>
      </trkpt>
      <trkpt lat="28.7123350" lon="-17.7507220">
        <ele>260.4</ele>
        <time>2020-11-15T22:51:09Z</time>
      </trkpt>
      <trkpt lat="28.7123350" lon="-17.7507220">
        <ele>260.4</ele>
        <time>2020-11-15T22:51:10Z</time>
      </trkpt>
      <trkpt lat="28.7123620" lon="-17.7506800">
        <ele>260.9</ele>
        <time>2020-11-15T22:51:11Z</time>
      </trkpt>
      <trkpt lat="28.7123620" lon="-17.7506800">
        <ele>260.9</ele>
        <time>2020-11-15T22:51:12Z</time>
      </trkpt>
      <trkpt lat="28.7123880" lon="-17.7506430">
        <ele>261.4</ele>
        <time>2020-11-15T22:51:13Z</time>
      </trkpt>
      <trkpt lat="28.7123880" lon="-17.7506430">
        <ele>261.4</ele>
        <time>2020-11-15T22:51:14Z</time>
      </trkpt>
      <trkpt lat="28.7124180" lon="-17.7506080">
        <ele>261.9</ele>
        <time>2020-11-15T22:51:15Z</time>
      </trkpt>
      <trkpt lat="28.7124180" lon="-17.7506080">
        <ele>261.9</ele>
        <time>2020-11-15T22:51:16Z</time>
      </trkpt>
      <trkpt lat="28.7124450" lon="-17.7505750">
        <ele>262.3</ele>
        <time>2020-11-15T22:51:17Z</time>
      </trkpt>
      <trkpt lat="28.7124450" lon="-17.7505750">
        <ele>262.3</ele>
        <time>2020-11-15T22:51:18Z</time>
      </trkpt>
      <trkpt lat="28.7124730" lon="-17.7505380">
        <ele>262.8</ele>
        <time>2020-11-15T22:51:19Z</time>
      </trkpt>
      <trkpt lat="28.7124730" lon="-17.7505380">
        <ele>262.8</ele>
        <time>2020-11-15T22:51:20Z</time>
      </trkpt>
      <trkpt lat="28.7125030" lon="-17.7505030">
        <ele>263.3</ele>
        <time>2020-11-15T22:51:21Z</time>
      </trkpt>
      <trkpt lat="28.7125030" lon="-17.7505030">
        <ele>263.3</ele>
        <time>2020-11-15T22:51:22Z</time>
      </trkpt>
      <trkpt lat="28.7125320" lon="-17.7504670">
        <ele>263.8</ele>
        <time>2020-11-15T22:51:23Z</time>
      </trkpt>
      <trkpt lat="28.7125470" lon="-17.7504500">
        <ele>264.0</ele>
        <time>2020-11-15T22:51:24Z</time>
      </trkpt>
      <trkpt lat="28.7125620" lon="-17.7504320">
        <ele>264.3</ele>
        <time>2020-11-15T22:51:25Z</time>
      </trkpt>
      <trkpt lat="28.7125620" lon="-17.7504320">
        <ele>264.3</ele>
        <time>2020-11-15T22:51:26Z</time>
      </trkpt>
      <trkpt lat="28.7125870" lon="-17.7503970">
        <ele>264.7</ele>
        <time>2020-11-15T22:51:27Z</time>
      </trkpt>
      <trkpt lat="28.7125870" lon="-17.7503970">
        <ele>264.7</ele>
        <time>2020-11-15T22:51:28Z</time>
      </trkpt>
      <trkpt lat="28.7126150" lon="-17.7503600">
        <ele>265.2</ele>
        <time>2020-11-15T22:51:29Z</time>
      </trkpt>
      <trkpt lat="28.7126150" lon="-17.7503600">
        <ele>265.2</ele>
        <time>2020-11-15T22:51:30Z</time>
      </trkpt>
      <trkpt lat="28.7126400" lon="-17.7503230">
        <ele>265.7</ele>
        <time>2020-11-15T22:51:31Z</time>
      </trkpt>
      <trkpt lat="28.7126400" lon="-17.7503230">
        <ele>265.7</ele>
        <time>2020-11-15T22:51:32Z</time>
      </trkpt>
      <trkpt lat="28.7126670" lon="-17.7502830">
        <ele>266.2</ele>
        <time>2020-11-15T22:51:33Z</time>
      </trkpt>
      <trkpt lat="28.7126670" lon="-17.7502830">
        <ele>266.2</ele>
        <time>2020-11-15T22:51:34Z</time>
      </trkpt>
      <trkpt lat="28.7126930" lon="-17.7502500">
        <ele>266.6</ele>
        <time>2020-11-15T22:51:35Z</time>
      </trkpt>
      <trkpt lat="28.7127070" lon="-17.7502320">
        <ele>266.9</ele>
        <time>2020-11-15T22:51:36Z</time>
      </trkpt>
      <trkpt lat="28.7127200" lon="-17.7502150">
        <ele>267.1</ele>
        <time>2020-11-15T22:51:37Z</time>
      </trkpt>
      <trkpt lat="28.7127200" lon="-17.7502150">
        <ele>267.1</ele>
        <time>2020-11-15T22:51:38Z</time>
      </trkpt>
      <trkpt lat="28.7127480" lon="-17.7501820">
        <ele>267.6</ele>
        <time>2020-11-15T22:51:39Z</time>
      </trkpt>
      <trkpt lat="28.7127480" lon="-17.7501820">
        <ele>267.6</ele>
        <time>2020-11-15T22:51:40Z</time>
      </trkpt>
      <trkpt lat="28.7127750" lon="-17.7501430">
        <ele>268.1</ele>
        <time>2020-11-15T22:51:41Z</time>
      </trkpt>
      <trkpt lat="28.7127750" lon="-17.7501430">
        <ele>268.1</ele>
        <time>2020-11-15T22:51:42Z</time>
      </trkpt>
      <trkpt lat="28.7128020" lon="-17.7501050">
        <ele>268.6</ele>
        <time>2020-11-15T22:51:43Z</time>
      </trkpt>
      <trkpt lat="28.7128020" lon="-17.7501050">
        <ele>268.6</ele>
        <time>2020-11-15T22:51:44Z</time>
      </trkpt>
      <trkpt lat="28.7128270" lon="-17.7500670">
        <ele>269.1</ele>
        <time>2020-11-15T22:51:45Z</time>
      </trkpt>
      <trkpt lat="28.7128420" lon="-17.7500480">
        <ele>269.2</ele>
        <time>2020-11-15T22:51:46Z</time>
      </trkpt>
      <trkpt lat="28.7128420" lon="-17.7500480">
        <ele>269.2</ele>
        <time>2020-11-15T22:51:47Z</time>
      </trkpt>
      <trkpt lat="28.7128750" lon="-17.7500170">
        <ele>269.4</ele>
        <time>2020-11-15T22:51:48Z</time>
      </trkpt>
      <trkpt lat="28.7128920" lon="-17.7500000">
        <ele>269.6</ele>
        <time>2020-11-15T22:51:49Z</time>
      </trkpt>
      <trkpt lat="28.7128920" lon="-17.7500000">
        <ele>269.6</ele>
        <time>2020-11-15T22:51:50Z</time>
      </trkpt>
      <trkpt lat="28.7129200" lon="-17.7499650">
        <ele>269.8</ele>
        <time>2020-11-15T22:51:51Z</time>
      </trkpt>
      <trkpt lat="28.7129200" lon="-17.7499650">
        <ele>269.8</ele>
        <time>2020-11-15T22:51:52Z</time>
      </trkpt>
      <trkpt lat="28.7129450" lon="-17.7499270">
        <ele>270.1</ele>
        <time>2020-11-15T22:51:53Z</time>
      </trkpt>
      <trkpt lat="28.7129450" lon="-17.7499270">
        <ele>270.1</ele>
        <time>2020-11-15T22:51:54Z</time>
      </trkpt>
      <trkpt lat="28.7129700" lon="-17.7498880">
        <ele>270.6</ele>
        <time>2020-11-15T22:51:55Z</time>
      </trkpt>
      <trkpt lat="28.7129700" lon="-17.7498880">
        <ele>270.6</ele>
        <time>2020-11-15T22:51:56Z</time>
      </trkpt>
      <trkpt lat="28.7129980" lon="-17.7498520">
        <ele>271.0</ele>
        <time>2020-11-15T22:51:57Z</time>
      </trkpt>
      <trkpt lat="28.7129980" lon="-17.7498520">
        <ele>271.0</ele>
        <time>2020-11-15T22:51:58Z</time>
      </trkpt>
      <trkpt lat="28.7130200" lon="-17.7498120">
        <ele>271.5</ele>
        <time>2020-11-15T22:51:59Z</time>
      </trkpt>
      <trkpt lat="28.7130300" lon="-17.7497920">
        <ele>271.7</ele>
        <time>2020-11-15T22:52:00Z</time>
      </trkpt>
      <trkpt lat="28.7130300" lon="-17.7497920">
        <ele>271.7</ele>
        <time>2020-11-15T22:52:01Z</time>
      </trkpt>
      <trkpt lat="28.7130500" lon="-17.7497530">
        <ele>272.2</ele>
        <time>2020-11-15T22:52:02Z</time>
      </trkpt>
      <trkpt lat="28.7130500" lon="-17.7497530">
        <ele>272.2</ele>
        <time>2020-11-15T22:52:03Z</time>
      </trkpt>
      <trkpt lat="28.7130600" lon="-17.7497070">
        <ele>272.7</ele>
        <time>2020-11-15T22:52:04Z</time>
      </trkpt>
      <trkpt lat="28.7130600" lon="-17.7497070">
        <ele>272.7</ele>
        <time>2020-11-15T22:52:05Z</time>
      </trkpt>
      <trkpt lat="28.7130700" lon="-17.7496780">
        <ele>273.0</ele>
        <time>2020-11-15T22:52:06Z</time>
      </trkpt>
      <trkpt lat="28.7130880" lon="-17.7496830">
        <ele>273.0</ele>
        <time>2020-11-15T22:52:07Z</time>
      </trkpt>
      <trkpt lat="28.7130880" lon="-17.7496830">
        <ele>273.0</ele>
        <time>2020-11-15T22:52:08Z</time>
      </trkpt>
      <trkpt lat="28.7131250" lon="-17.7497030">
        <ele>273.4</ele>
        <time>2020-11-15T22:52:09Z</time>
      </trkpt>
      <trkpt lat="28.7131250" lon="-17.7497030">
        <ele>273.4</ele>
        <time>2020-11-15T22:52:10Z</time>
      </trkpt>
      <trkpt lat="28.7131630" lon="-17.7497200">
        <ele>273.8</ele>
        <time>2020-11-15T22:52:11Z</time>
      </trkpt>
      <trkpt lat="28.7131630" lon="-17.7497200">
        <ele>273.8</ele>
        <time>2020-11-15T22:52:12Z</time>
      </trkpt>
      <trkpt lat="28.7132080" lon="-17.7497180">
        <ele>274.2</ele>
        <time>2020-11-15T22:52:13Z</time>
      </trkpt>
      <trkpt lat="28.7132080" lon="-17.7497180">
        <ele>274.2</ele>
        <time>2020-11-15T22:52:14Z</time>
      </trkpt>
      <trkpt lat="28.7132470" lon="-17.7497100">
        <ele>274.5</ele>
        <time>2020-11-15T22:52:15Z</time>
      </trkpt>
      <trkpt lat="28.7132470" lon="-17.7497100">
        <ele>274.5</ele>
        <time>2020-11-15T22:52:16Z</time>
      </trkpt>
      <trkpt lat="28.7132820" lon="-17.7496970">
        <ele>274.8</ele>
        <time>2020-11-15T22:52:17Z</time>
      </trkpt>
      <trkpt lat="28.7133000" lon="-17.7496870">
        <ele>275.0</ele>
        <time>2020-11-15T22:52:18Z</time>
      </trkpt>
      <trkpt lat="28.7133170" lon="-17.7496770">
        <ele>275.1</ele>
        <time>2020-11-15T22:52:19Z</time>
      </trkpt>
      <trkpt lat="28.7133170" lon="-17.7496770">
        <ele>275.1</ele>
        <time>2020-11-15T22:52:20Z</time>
      </trkpt>
      <trkpt lat="28.7133550" lon="-17.7496530">
        <ele>275.5</ele>
        <time>2020-11-15T22:52:21Z</time>
      </trkpt>
      <trkpt lat="28.7133550" lon="-17.7496530">
        <ele>275.5</ele>
        <time>2020-11-15T22:52:22Z</time>
      </trkpt>
      <trkpt lat="28.7133930" lon="-17.7496250">
        <ele>275.9</ele>
        <time>2020-11-15T22:52:23Z</time>
      </trkpt>
      <trkpt lat="28.7133930" lon="-17.7496250">
        <ele>275.9</ele>
        <time>2020-11-15T22:52:24Z</time>
      </trkpt>
      <trkpt lat="28.7134330" lon="-17.7496050">
        <ele>276.2</ele>
        <time>2020-11-15T22:52:25Z</time>
      </trkpt>
      <trkpt lat="28.7134330" lon="-17.7496050">
        <ele>276.2</ele>
        <time>2020-11-15T22:52:26Z</time>
      </trkpt>
      <trkpt lat="28.7134720" lon="-17.7495900">
        <ele>276.6</ele>
        <time>2020-11-15T22:52:27Z</time>
      </trkpt>
      <trkpt lat="28.7134900" lon="-17.7495780">
        <ele>276.8</ele>
        <time>2020-11-15T22:52:28Z</time>
      </trkpt>
      <trkpt lat="28.7134900" lon="-17.7495780">
        <ele>276.8</ele>
        <time>2020-11-15T22:52:29Z</time>
      </trkpt>
      <trkpt lat="28.7135320" lon="-17.7495500">
        <ele>277.2</ele>
        <time>2020-11-15T22:52:30Z</time>
      </trkpt>
      <trkpt lat="28.7135520" lon="-17.7495400">
        <ele>277.3</ele>
        <time>2020-11-15T22:52:31Z</time>
      </trkpt>
      <trkpt lat="28.7135520" lon="-17.7495400">
        <ele>277.3</ele>
        <time>2020-11-15T22:52:32Z</time>
      </trkpt>
      <trkpt lat="28.7135930" lon="-17.7495200">
        <ele>277.7</ele>
        <time>2020-11-15T22:52:33Z</time>
      </trkpt>
      <trkpt lat="28.7135930" lon="-17.7495200">
        <ele>277.7</ele>
        <time>2020-11-15T22:52:34Z</time>
      </trkpt>
      <trkpt lat="28.7136300" lon="-17.7495120">
        <ele>278.0</ele>
        <time>2020-11-15T22:52:35Z</time>
      </trkpt>
      <trkpt lat="28.7136300" lon="-17.7495120">
        <ele>278.0</ele>
        <time>2020-11-15T22:52:36Z</time>
      </trkpt>
      <trkpt lat="28.7136730" lon="-17.7494980">
        <ele>278.4</ele>
        <time>2020-11-15T22:52:37Z</time>
      </trkpt>
      <trkpt lat="28.7136730" lon="-17.7494980">
        <ele>278.4</ele>
        <time>2020-11-15T22:52:38Z</time>
      </trkpt>
      <trkpt lat="28.7137130" lon="-17.7494900">
        <ele>278.7</ele>
        <time>2020-11-15T22:52:39Z</time>
      </trkpt>
      <trkpt lat="28.7137130" lon="-17.7494900">
        <ele>278.7</ele>
        <time>2020-11-15T22:52:40Z</time>
      </trkpt>
      <trkpt lat="28.7137530" lon="-17.7494770">
        <ele>279.1</ele>
        <time>2020-11-15T22:52:41Z</time>
      </trkpt>
      <trkpt lat="28.7137530" lon="-17.7494770">
        <ele>279.1</ele>
        <time>2020-11-15T22:52:42Z</time>
      </trkpt>
      <trkpt lat="28.7137880" lon="-17.7494630">
        <ele>279.4</ele>
        <time>2020-11-15T22:52:43Z</time>
      </trkpt>
      <trkpt lat="28.7137880" lon="-17.7494630">
        <ele>279.4</ele>
        <time>2020-11-15T22:52:44Z</time>
      </trkpt>
      <trkpt lat="28.7138270" lon="-17.7494570">
        <ele>279.7</ele>
        <time>2020-11-15T22:52:45Z</time>
      </trkpt>
      <trkpt lat="28.7138270" lon="-17.7494570">
        <ele>279.7</ele>
        <time>2020-11-15T22:52:46Z</time>
      </trkpt>
      <trkpt lat="28.7138630" lon="-17.7494450">
        <ele>280.0</ele>
        <time>2020-11-15T22:52:47Z</time>
      </trkpt>
      <trkpt lat="28.7138630" lon="-17.7494450">
        <ele>280.0</ele>
        <time>2020-11-15T22:52:48Z</time>
      </trkpt>
      <trkpt lat="28.7139000" lon="-17.7494300">
        <ele>280.3</ele>
        <time>2020-11-15T22:52:49Z</time>
      </trkpt>
      <trkpt lat="28.7139000" lon="-17.7494300">
        <ele>280.3</ele>
        <time>2020-11-15T22:52:50Z</time>
      </trkpt>
      <trkpt lat="28.7139350" lon="-17.7494220">
        <ele>280.6</ele>
        <time>2020-11-15T22:52:51Z</time>
      </trkpt>
      <trkpt lat="28.7139350" lon="-17.7494220">
        <ele>280.6</ele>
        <time>2020-11-15T22:52:52Z</time>
      </trkpt>
      <trkpt lat="28.7139700" lon="-17.7494150">
        <ele>280.4</ele>
        <time>2020-11-15T22:52:53Z</time>
      </trkpt>
      <trkpt lat="28.7139880" lon="-17.7494120">
        <ele>280.3</ele>
        <time>2020-11-15T22:52:54Z</time>
      </trkpt>
      <trkpt lat="28.7140050" lon="-17.7494080">
        <ele>280.2</ele>
        <time>2020-11-15T22:52:55Z</time>
      </trkpt>
      <trkpt lat="28.7140050" lon="-17.7494080">
        <ele>280.2</ele>
        <time>2020-11-15T22:52:56Z</time>
      </trkpt>
      <trkpt lat="28.7140380" lon="-17.7494000">
        <ele>280.0</ele>
        <time>2020-11-15T22:52:57Z</time>
      </trkpt>
      <trkpt lat="28.7140380" lon="-17.7494000">
        <ele>280.0</ele>
        <time>2020-11-15T22:52:58Z</time>
      </trkpt>
      <trkpt lat="28.7140700" lon="-17.7493880">
        <ele>279.8</ele>
        <time>2020-11-15T22:52:59Z</time>
      </trkpt>
      <trkpt lat="28.7140830" lon="-17.7493950">
        <ele>279.7</ele>
        <time>2020-11-15T22:53:00Z</time>
      </trkpt>
      <trkpt lat="28.7140830" lon="-17.7493950">
        <ele>279.7</ele>
        <time>2020-11-15T22:53:01Z</time>
      </trkpt>
      <trkpt lat="28.7140770" lon="-17.7494330">
        <ele>279.4</ele>
        <time>2020-11-15T22:53:02Z</time>
      </trkpt>
      <trkpt lat="28.7140520" lon="-17.7494450">
        <ele>279.3</ele>
        <time>2020-11-15T22:53:03Z</time>
      </trkpt>
      <trkpt lat="28.7140180" lon="-17.7494520">
        <ele>279.1</ele>
        <time>2020-11-15T22:53:04Z</time>
      </trkpt>
      <trkpt lat="28.7140180" lon="-17.7494520">
        <ele>279.1</ele>
        <time>2020-11-15T22:53:05Z</time>
      </trkpt>
      <trkpt lat="28.7139330" lon="-17.7494830">
        <ele>278.5</ele>
        <time>2020-11-15T22:53:06Z</time>
      </trkpt>
      <trkpt lat="28.7138850" lon="-17.7495050">
        <ele>278.2</ele>
        <time>2020-11-15T22:53:07Z</time>
      </trkpt>
      <trkpt lat="28.7138850" lon="-17.7495050">
        <ele>278.2</ele>
        <time>2020-11-15T22:53:08Z</time>
      </trkpt>
      <trkpt lat="28.7137630" lon="-17.7495420">
        <ele>277.4</ele>
        <time>2020-11-15T22:53:09Z</time>
      </trkpt>
      <trkpt lat="28.7137630" lon="-17.7495420">
        <ele>277.4</ele>
        <time>2020-11-15T22:53:10Z</time>
      </trkpt>
      <trkpt lat="28.7136200" lon="-17.7495870">
        <ele>276.4</ele>
        <time>2020-11-15T22:53:11Z</time>
      </trkpt>
      <trkpt lat="28.7136200" lon="-17.7495870">
        <ele>276.4</ele>
        <time>2020-11-15T22:53:12Z</time>
      </trkpt>
      <trkpt lat="28.7134680" lon="-17.7496480">
        <ele>275.4</ele>
        <time>2020-11-15T22:53:13Z</time>
      </trkpt>
      <trkpt lat="28.7134680" lon="-17.7496480">
        <ele>275.4</ele>
        <time>2020-11-15T22:53:14Z</time>
      </trkpt>
      <trkpt lat="28.7133280" lon="-17.7497220">
        <ele>274.4</ele>
        <time>2020-11-15T22:53:15Z</time>
      </trkpt>
      <trkpt lat="28.7133280" lon="-17.7497220">
        <ele>274.4</ele>
        <time>2020-11-15T22:53:16Z</time>
      </trkpt>
      <trkpt lat="28.7132000" lon="-17.7497930">
        <ele>273.4</ele>
        <time>2020-11-15T22:53:17Z</time>
      </trkpt>
      <trkpt lat="28.7132000" lon="-17.7497930">
        <ele>273.4</ele>
        <time>2020-11-15T22:53:18Z</time>
      </trkpt>
      <trkpt lat="28.7131170" lon="-17.7498080">
        <ele>270.7</ele>
        <time>2020-11-15T22:53:19Z</time>
      </trkpt>
      <trkpt lat="28.7131170" lon="-17.7498080">
        <ele>270.7</ele>
        <time>2020-11-15T22:53:20Z</time>
      </trkpt>
      <trkpt lat="28.7130850" lon="-17.7497520">
        <ele>268.6</ele>
        <time>2020-11-15T22:53:21Z</time>
      </trkpt>
      <trkpt lat="28.7130850" lon="-17.7497520">
        <ele>268.6</ele>
        <time>2020-11-15T22:53:22Z</time>
      </trkpt>
      <trkpt lat="28.7130850" lon="-17.7496930">
        <ele>266.7</ele>
        <time>2020-11-15T22:53:23Z</time>
      </trkpt>
      <trkpt lat="28.7130900" lon="-17.7496670">
        <ele>265.9</ele>
        <time>2020-11-15T22:53:24Z</time>
      </trkpt>
      <trkpt lat="28.7130900" lon="-17.7496670">
        <ele>265.9</ele>
        <time>2020-11-15T22:53:25Z</time>
      </trkpt>
      <trkpt lat="28.7131070" lon="-17.7496030">
        <ele>265.9</ele>
        <time>2020-11-15T22:53:26Z</time>
      </trkpt>
      <trkpt lat="28.7131270" lon="-17.7495730">
        <ele>265.8</ele>
        <time>2020-11-15T22:53:27Z</time>
      </trkpt>
      <trkpt lat="28.7131270" lon="-17.7495730">
        <ele>265.8</ele>
        <time>2020-11-15T22:53:28Z</time>
      </trkpt>
      <trkpt lat="28.7131780" lon="-17.7495150">
        <ele>265.8</ele>
        <time>2020-11-15T22:53:29Z</time>
      </trkpt>
      <trkpt lat="28.7131780" lon="-17.7495150">
        <ele>265.8</ele>
        <time>2020-11-15T22:53:30Z</time>
      </trkpt>
      <trkpt lat="28.7132470" lon="-17.7494500">
        <ele>265.6</ele>
        <time>2020-11-15T22:53:31Z</time>
      </trkpt>
      <trkpt lat="28.7132470" lon="-17.7494500">
        <ele>265.6</ele>
        <time>2020-11-15T22:53:32Z</time>
      </trkpt>
      <trkpt lat="28.7133300" lon="-17.7493830">
        <ele>265.5</ele>
        <time>2020-11-15T22:53:33Z</time>
      </trkpt>
      <trkpt lat="28.7133300" lon="-17.7493830">
        <ele>265.5</ele>
        <time>2020-11-15T22:53:34Z</time>
      </trkpt>
      <trkpt lat="28.7134350" lon="-17.7493080">
        <ele>265.3</ele>
        <time>2020-11-15T22:53:35Z</time>
      </trkpt>
      <trkpt lat="28.7134350" lon="-17.7493080">
        <ele>265.3</ele>
        <time>2020-11-15T22:53:36Z</time>
      </trkpt>
      <trkpt lat="28.7135520" lon="-17.7492400">
        <ele>265.1</ele>
        <time>2020-11-15T22:53:37Z</time>
      </trkpt>
      <trkpt lat="28.7136170" lon="-17.7492020">
        <ele>265.0</ele>
        <time>2020-11-15T22:53:38Z</time>
      </trkpt>
      <trkpt lat="28.7136170" lon="-17.7492020">
        <ele>265.0</ele>
        <time>2020-11-15T22:53:39Z</time>
      </trkpt>
      <trkpt lat="28.7137430" lon="-17.7491230">
        <ele>264.7</ele>
        <time>2020-11-15T22:53:40Z</time>
      </trkpt>
      <trkpt lat="28.7137430" lon="-17.7491230">
        <ele>264.7</ele>
        <time>2020-11-15T22:53:41Z</time>
      </trkpt>
      <trkpt lat="28.7138650" lon="-17.7490180">
        <ele>264.4</ele>
        <time>2020-11-15T22:53:42Z</time>
      </trkpt>
      <trkpt lat="28.7139130" lon="-17.7489500">
        <ele>264.3</ele>
        <time>2020-11-15T22:53:43Z</time>
      </trkpt>
      <trkpt lat="28.7139130" lon="-17.7489500">
        <ele>264.3</ele>
        <time>2020-11-15T22:53:44Z</time>
      </trkpt>
      <trkpt lat="28.7139880" lon="-17.7487830">
        <ele>264.0</ele>
        <time>2020-11-15T22:53:45Z</time>
      </trkpt>
      <trkpt lat="28.7139880" lon="-17.7487830">
        <ele>264.0</ele>
        <time>2020-11-15T22:53:46Z</time>
      </trkpt>
      <trkpt lat="28.7140530" lon="-17.7485980">
        <ele>263.7</ele>
        <time>2020-11-15T22:53:47Z</time>
      </trkpt>
      <trkpt lat="28.7140530" lon="-17.7485980">
        <ele>263.7</ele>
        <time>2020-11-15T22:53:48Z</time>
      </trkpt>
      <trkpt lat="28.7141150" lon="-17.7484000">
        <ele>263.4</ele>
        <time>2020-11-15T22:53:49Z</time>
      </trkpt>
      <trkpt lat="28.7141150" lon="-17.7484000">
        <ele>263.4</ele>
        <time>2020-11-15T22:53:50Z</time>
      </trkpt>
      <trkpt lat="28.7141780" lon="-17.7481950">
        <ele>263.0</ele>
        <time>2020-11-15T22:53:51Z</time>
      </trkpt>
      <trkpt lat="28.7142100" lon="-17.7480930">
        <ele>262.8</ele>
        <time>2020-11-15T22:53:52Z</time>
      </trkpt>
      <trkpt lat="28.7142100" lon="-17.7480930">
        <ele>262.8</ele>
        <time>2020-11-15T22:53:53Z</time>
      </trkpt>
      <trkpt lat="28.7142700" lon="-17.7478980">
        <ele>262.3</ele>
        <time>2020-11-15T22:53:54Z</time>
      </trkpt>
      <trkpt lat="28.7142700" lon="-17.7478980">
        <ele>262.3</ele>
        <time>2020-11-15T22:53:55Z</time>
      </trkpt>
      <trkpt lat="28.7143180" lon="-17.7476950">
        <ele>261.2</ele>
        <time>2020-11-15T22:53:56Z</time>
      </trkpt>
      <trkpt lat="28.7143180" lon="-17.7476950">
        <ele>261.2</ele>
        <time>2020-11-15T22:53:57Z</time>
      </trkpt>
      <trkpt lat="28.7143570" lon="-17.7474770">
        <ele>260.1</ele>
        <time>2020-11-15T22:53:58Z</time>
      </trkpt>
      <trkpt lat="28.7143750" lon="-17.7473630">
        <ele>259.4</ele>
        <time>2020-11-15T22:53:59Z</time>
      </trkpt>
      <trkpt lat="28.7143750" lon="-17.7473630">
        <ele>259.4</ele>
        <time>2020-11-15T22:54:00Z</time>
      </trkpt>
      <trkpt lat="28.7144020" lon="-17.7471230">
        <ele>258.1</ele>
        <time>2020-11-15T22:54:01Z</time>
      </trkpt>
      <trkpt lat="28.7144020" lon="-17.7471230">
        <ele>258.1</ele>
        <time>2020-11-15T22:54:02Z</time>
      </trkpt>
      <trkpt lat="28.7144220" lon="-17.7468750">
        <ele>256.8</ele>
        <time>2020-11-15T22:54:03Z</time>
      </trkpt>
      <trkpt lat="28.7144220" lon="-17.7468750">
        <ele>256.8</ele>
        <time>2020-11-15T22:54:04Z</time>
      </trkpt>
      <trkpt lat="28.7144330" lon="-17.7466180">
        <ele>255.6</ele>
        <time>2020-11-15T22:54:05Z</time>
      </trkpt>
      <trkpt lat="28.7144330" lon="-17.7466180">
        <ele>255.6</ele>
        <time>2020-11-15T22:54:06Z</time>
      </trkpt>
      <trkpt lat="28.7144420" lon="-17.7463700">
        <ele>254.5</ele>
        <time>2020-11-15T22:54:07Z</time>
      </trkpt>
      <trkpt lat="28.7144420" lon="-17.7463700">
        <ele>254.5</ele>
        <time>2020-11-15T22:54:08Z</time>
      </trkpt>
      <trkpt lat="28.7144770" lon="-17.7461480">
        <ele>253.3</ele>
        <time>2020-11-15T22:54:09Z</time>
      </trkpt>
      <trkpt lat="28.7145150" lon="-17.7460470">
        <ele>252.8</ele>
        <time>2020-11-15T22:54:10Z</time>
      </trkpt>
      <trkpt lat="28.7145150" lon="-17.7460470">
        <ele>252.8</ele>
        <time>2020-11-15T22:54:11Z</time>
      </trkpt>
      <trkpt lat="28.7146400" lon="-17.7458700">
        <ele>252.5</ele>
        <time>2020-11-15T22:54:12Z</time>
      </trkpt>
      <trkpt lat="28.7146400" lon="-17.7458700">
        <ele>252.5</ele>
        <time>2020-11-15T22:54:13Z</time>
      </trkpt>
      <trkpt lat="28.7148080" lon="-17.7457250">
        <ele>250.5</ele>
        <time>2020-11-15T22:54:14Z</time>
      </trkpt>
      <trkpt lat="28.7148080" lon="-17.7457250">
        <ele>250.5</ele>
        <time>2020-11-15T22:54:15Z</time>
      </trkpt>
      <trkpt lat="28.7149800" lon="-17.7455820">
        <ele>250.5</ele>
        <time>2020-11-15T22:54:16Z</time>
      </trkpt>
      <trkpt lat="28.7150480" lon="-17.7454880">
        <ele>250.4</ele>
        <time>2020-11-15T22:54:17Z</time>
      </trkpt>
      <trkpt lat="28.7150480" lon="-17.7454880">
        <ele>250.4</ele>
        <time>2020-11-15T22:54:18Z</time>
      </trkpt>
      <trkpt lat="28.7151470" lon="-17.7452770">
        <ele>243.5</ele>
        <time>2020-11-15T22:54:19Z</time>
      </trkpt>
      <trkpt lat="28.7151470" lon="-17.7452770">
        <ele>243.5</ele>
        <time>2020-11-15T22:54:20Z</time>
      </trkpt>
      <trkpt lat="28.7152200" lon="-17.7450470">
        <ele>245.6</ele>
        <time>2020-11-15T22:54:21Z</time>
      </trkpt>
      <trkpt lat="28.7152200" lon="-17.7450470">
        <ele>245.6</ele>
        <time>2020-11-15T22:54:22Z</time>
      </trkpt>
      <trkpt lat="28.7153180" lon="-17.7448420">
        <ele>244.7</ele>
        <time>2020-11-15T22:54:23Z</time>
      </trkpt>
      <trkpt lat="28.7153820" lon="-17.7447600">
        <ele>244.2</ele>
        <time>2020-11-15T22:54:24Z</time>
      </trkpt>
      <trkpt lat="28.7154500" lon="-17.7447080">
        <ele>243.7</ele>
        <time>2020-11-15T22:54:25Z</time>
      </trkpt>
      <trkpt lat="28.7154500" lon="-17.7447080">
        <ele>243.7</ele>
        <time>2020-11-15T22:54:26Z</time>
      </trkpt>
      <trkpt lat="28.7156050" lon="-17.7447030">
        <ele>242.6</ele>
        <time>2020-11-15T22:54:27Z</time>
      </trkpt>
      <trkpt lat="28.7156820" lon="-17.7447370">
        <ele>241.9</ele>
        <time>2020-11-15T22:54:28Z</time>
      </trkpt>
      <trkpt lat="28.7156820" lon="-17.7447370">
        <ele>241.9</ele>
        <time>2020-11-15T22:54:29Z</time>
      </trkpt>
      <trkpt lat="28.7158280" lon="-17.7448200">
        <ele>240.7</ele>
        <time>2020-11-15T22:54:30Z</time>
      </trkpt>
      <trkpt lat="28.7158970" lon="-17.7448500">
        <ele>240.2</ele>
        <time>2020-11-15T22:54:31Z</time>
      </trkpt>
      <trkpt lat="28.7158970" lon="-17.7448500">
        <ele>240.2</ele>
        <time>2020-11-15T22:54:32Z</time>
      </trkpt>
      <trkpt lat="28.7160400" lon="-17.7448250">
        <ele>239.1</ele>
        <time>2020-11-15T22:54:33Z</time>
      </trkpt>
      <trkpt lat="28.7160400" lon="-17.7448250">
        <ele>239.1</ele>
        <time>2020-11-15T22:54:34Z</time>
      </trkpt>
      <trkpt lat="28.7161330" lon="-17.7446920">
        <ele>237.9</ele>
        <time>2020-11-15T22:54:35Z</time>
      </trkpt>
      <trkpt lat="28.7161330" lon="-17.7446920">
        <ele>237.9</ele>
        <time>2020-11-15T22:54:36Z</time>
      </trkpt>
      <trkpt lat="28.7161400" lon="-17.7445050">
        <ele>236.6</ele>
        <time>2020-11-15T22:54:37Z</time>
      </trkpt>
      <trkpt lat="28.7161400" lon="-17.7445050">
        <ele>236.6</ele>
        <time>2020-11-15T22:54:38Z</time>
      </trkpt>
      <trkpt lat="28.7161180" lon="-17.7443180">
        <ele>235.4</ele>
        <time>2020-11-15T22:54:39Z</time>
      </trkpt>
      <trkpt lat="28.7161180" lon="-17.7443180">
        <ele>235.4</ele>
        <time>2020-11-15T22:54:40Z</time>
      </trkpt>
      <trkpt lat="28.7161550" lon="-17.7441320">
        <ele>234.2</ele>
        <time>2020-11-15T22:54:41Z</time>
      </trkpt>
      <trkpt lat="28.7162030" lon="-17.7440430">
        <ele>233.6</ele>
        <time>2020-11-15T22:54:42Z</time>
      </trkpt>
      <trkpt lat="28.7162030" lon="-17.7440430">
        <ele>233.6</ele>
        <time>2020-11-15T22:54:43Z</time>
      </trkpt>
      <trkpt lat="28.7163180" lon="-17.7438780">
        <ele>232.3</ele>
        <time>2020-11-15T22:54:44Z</time>
      </trkpt>
      <trkpt lat="28.7163180" lon="-17.7438780">
        <ele>232.3</ele>
        <time>2020-11-15T22:54:45Z</time>
      </trkpt>
      <trkpt lat="28.7164380" lon="-17.7437250">
        <ele>231.0</ele>
        <time>2020-11-15T22:54:46Z</time>
      </trkpt>
      <trkpt lat="28.7164380" lon="-17.7437250">
        <ele>231.0</ele>
        <time>2020-11-15T22:54:47Z</time>
      </trkpt>
      <trkpt lat="28.7165880" lon="-17.7436220">
        <ele>229.5</ele>
        <time>2020-11-15T22:54:48Z</time>
      </trkpt>
      <trkpt lat="28.7166770" lon="-17.7435930">
        <ele>228.7</ele>
        <time>2020-11-15T22:54:49Z</time>
      </trkpt>
      <trkpt lat="28.7166770" lon="-17.7435930">
        <ele>228.7</ele>
        <time>2020-11-15T22:54:50Z</time>
      </trkpt>
      <trkpt lat="28.7168630" lon="-17.7435370">
        <ele>227.1</ele>
        <time>2020-11-15T22:54:51Z</time>
      </trkpt>
      <trkpt lat="28.7168630" lon="-17.7435370">
        <ele>227.1</ele>
        <time>2020-11-15T22:54:52Z</time>
      </trkpt>
      <trkpt lat="28.7170380" lon="-17.7434480">
        <ele>225.6</ele>
        <time>2020-11-15T22:54:53Z</time>
      </trkpt>
      <trkpt lat="28.7170380" lon="-17.7434480">
        <ele>225.6</ele>
        <time>2020-11-15T22:54:54Z</time>
      </trkpt>
      <trkpt lat="28.7171830" lon="-17.7433000">
        <ele>224.2</ele>
        <time>2020-11-15T22:54:55Z</time>
      </trkpt>
      <trkpt lat="28.7171830" lon="-17.7433000">
        <ele>224.2</ele>
        <time>2020-11-15T22:54:56Z</time>
      </trkpt>
      <trkpt lat="28.7173370" lon="-17.7431600">
        <ele>223.1</ele>
        <time>2020-11-15T22:54:57Z</time>
      </trkpt>
      <trkpt lat="28.7174180" lon="-17.7431050">
        <ele>222.5</ele>
        <time>2020-11-15T22:54:58Z</time>
      </trkpt>
      <trkpt lat="28.7174180" lon="-17.7431050">
        <ele>222.5</ele>
        <time>2020-11-15T22:54:59Z</time>
      </trkpt>
      <trkpt lat="28.7175880" lon="-17.7430270">
        <ele>221.5</ele>
        <time>2020-11-15T22:55:00Z</time>
      </trkpt>
      <trkpt lat="28.7175880" lon="-17.7430270">
        <ele>221.5</ele>
        <time>2020-11-15T22:55:01Z</time>
      </trkpt>
      <trkpt lat="28.7177750" lon="-17.7430100">
        <ele>220.4</ele>
        <time>2020-11-15T22:55:02Z</time>
      </trkpt>
      <trkpt lat="28.7178720" lon="-17.7430180">
        <ele>219.9</ele>
        <time>2020-11-15T22:55:03Z</time>
      </trkpt>
      <trkpt lat="28.7178720" lon="-17.7430180">
        <ele>219.9</ele>
        <time>2020-11-15T22:55:04Z</time>
      </trkpt>
      <trkpt lat="28.7180430" lon="-17.7430120">
        <ele>218.9</ele>
        <time>2020-11-15T22:55:05Z</time>
      </trkpt>
      <trkpt lat="28.7180430" lon="-17.7430120">
        <ele>218.9</ele>
        <time>2020-11-15T22:55:06Z</time>
      </trkpt>
      <trkpt lat="28.7181780" lon="-17.7429030">
        <ele>217.7</ele>
        <time>2020-11-15T22:55:07Z</time>
      </trkpt>
      <trkpt lat="28.7181780" lon="-17.7429030">
        <ele>217.7</ele>
        <time>2020-11-15T22:55:08Z</time>
      </trkpt>
      <trkpt lat="28.7183030" lon="-17.7427470">
        <ele>216.2</ele>
        <time>2020-11-15T22:55:09Z</time>
      </trkpt>
      <trkpt lat="28.7183030" lon="-17.7427470">
        <ele>216.2</ele>
        <time>2020-11-15T22:55:10Z</time>
      </trkpt>
      <trkpt lat="28.7184730" lon="-17.7426550">
        <ele>214.7</ele>
        <time>2020-11-15T22:55:11Z</time>
      </trkpt>
      <trkpt lat="28.7184730" lon="-17.7426550">
        <ele>214.7</ele>
        <time>2020-11-15T22:55:12Z</time>
      </trkpt>
      <trkpt lat="28.7186730" lon="-17.7426120">
        <ele>213.1</ele>
        <time>2020-11-15T22:55:13Z</time>
      </trkpt>
      <trkpt lat="28.7186730" lon="-17.7426120">
        <ele>213.1</ele>
        <time>2020-11-15T22:55:14Z</time>
      </trkpt>
      <trkpt lat="28.7188830" lon="-17.7425780">
        <ele>211.8</ele>
        <time>2020-11-15T22:55:15Z</time>
      </trkpt>
      <trkpt lat="28.7188830" lon="-17.7425780">
        <ele>211.8</ele>
        <time>2020-11-15T22:55:16Z</time>
      </trkpt>
      <trkpt lat="28.7190820" lon="-17.7425520">
        <ele>210.5</ele>
        <time>2020-11-15T22:55:17Z</time>
      </trkpt>
      <trkpt lat="28.7191820" lon="-17.7425580">
        <ele>209.8</ele>
        <time>2020-11-15T22:55:18Z</time>
      </trkpt>
      <trkpt lat="28.7191820" lon="-17.7425580">
        <ele>209.8</ele>
        <time>2020-11-15T22:55:19Z</time>
      </trkpt>
      <trkpt lat="28.7193700" lon="-17.7426330">
        <ele>208.4</ele>
        <time>2020-11-15T22:55:20Z</time>
      </trkpt>
      <trkpt lat="28.7194620" lon="-17.7426880">
        <ele>207.7</ele>
        <time>2020-11-15T22:55:21Z</time>
      </trkpt>
      <trkpt lat="28.7194620" lon="-17.7426880">
        <ele>207.7</ele>
        <time>2020-11-15T22:55:22Z</time>
      </trkpt>
      <trkpt lat="28.7196400" lon="-17.7427980">
        <ele>206.4</ele>
        <time>2020-11-15T22:55:23Z</time>
      </trkpt>
      <trkpt lat="28.7196400" lon="-17.7427980">
        <ele>206.4</ele>
        <time>2020-11-15T22:55:24Z</time>
      </trkpt>
      <trkpt lat="28.7198020" lon="-17.7429370">
        <ele>205.2</ele>
        <time>2020-11-15T22:55:25Z</time>
      </trkpt>
      <trkpt lat="28.7198020" lon="-17.7429370">
        <ele>205.2</ele>
        <time>2020-11-15T22:55:26Z</time>
      </trkpt>
      <trkpt lat="28.7199470" lon="-17.7430950">
        <ele>204.3</ele>
        <time>2020-11-15T22:55:27Z</time>
      </trkpt>
      <trkpt lat="28.7199470" lon="-17.7430950">
        <ele>204.3</ele>
        <time>2020-11-15T22:55:28Z</time>
      </trkpt>
      <trkpt lat="28.7200670" lon="-17.7432330">
        <ele>203.7</ele>
        <time>2020-11-15T22:55:29Z</time>
      </trkpt>
      <trkpt lat="28.7201300" lon="-17.7432730">
        <ele>203.5</ele>
        <time>2020-11-15T22:55:30Z</time>
      </trkpt>
      <trkpt lat="28.7201300" lon="-17.7432730">
        <ele>203.5</ele>
        <time>2020-11-15T22:55:31Z</time>
      </trkpt>
      <trkpt lat="28.7202550" lon="-17.7432500">
        <ele>202.8</ele>
        <time>2020-11-15T22:55:32Z</time>
      </trkpt>
      <trkpt lat="28.7203070" lon="-17.7432020">
        <ele>202.2</ele>
        <time>2020-11-15T22:55:33Z</time>
      </trkpt>
      <trkpt lat="28.7203070" lon="-17.7432020">
        <ele>202.2</ele>
        <time>2020-11-15T22:55:34Z</time>
      </trkpt>
      <trkpt lat="28.7203870" lon="-17.7430680">
        <ele>201.1</ele>
        <time>2020-11-15T22:55:35Z</time>
      </trkpt>
      <trkpt lat="28.7203870" lon="-17.7430680">
        <ele>201.1</ele>
        <time>2020-11-15T22:55:36Z</time>
      </trkpt>
      <trkpt lat="28.7204450" lon="-17.7429070">
        <ele>200.0</ele>
        <time>2020-11-15T22:55:37Z</time>
      </trkpt>
      <trkpt lat="28.7204450" lon="-17.7429070">
        <ele>200.0</ele>
        <time>2020-11-15T22:55:38Z</time>
      </trkpt>
      <trkpt lat="28.7204820" lon="-17.7427230">
        <ele>199.1</ele>
        <time>2020-11-15T22:55:39Z</time>
      </trkpt>
      <trkpt lat="28.7204820" lon="-17.7427230">
        <ele>199.1</ele>
        <time>2020-11-15T22:55:40Z</time>
      </trkpt>
      <trkpt lat="28.7205070" lon="-17.7425100">
        <ele>197.8</ele>
        <time>2020-11-15T22:55:41Z</time>
      </trkpt>
      <trkpt lat="28.7205070" lon="-17.7425100">
        <ele>197.8</ele>
        <time>2020-11-15T22:55:42Z</time>
      </trkpt>
      <trkpt lat="28.7205020" lon="-17.7422880">
        <ele>196.3</ele>
        <time>2020-11-15T22:55:43Z</time>
      </trkpt>
      <trkpt lat="28.7205020" lon="-17.7422880">
        <ele>196.3</ele>
        <time>2020-11-15T22:55:44Z</time>
      </trkpt>
      <trkpt lat="28.7204720" lon="-17.7420680">
        <ele>194.9</ele>
        <time>2020-11-15T22:55:45Z</time>
      </trkpt>
      <trkpt lat="28.7204720" lon="-17.7420680">
        <ele>194.9</ele>
        <time>2020-11-15T22:55:46Z</time>
      </trkpt>
      <trkpt lat="28.7204830" lon="-17.7418600">
        <ele>193.7</ele>
        <time>2020-11-15T22:55:47Z</time>
      </trkpt>
      <trkpt lat="28.7205200" lon="-17.7417680">
        <ele>193.1</ele>
        <time>2020-11-15T22:55:48Z</time>
      </trkpt>
      <trkpt lat="28.7205200" lon="-17.7417680">
        <ele>193.1</ele>
        <time>2020-11-15T22:55:49Z</time>
      </trkpt>
      <trkpt lat="28.7206350" lon="-17.7416100">
        <ele>191.9</ele>
        <time>2020-11-15T22:55:50Z</time>
      </trkpt>
      <trkpt lat="28.7206980" lon="-17.7415350">
        <ele>191.4</ele>
        <time>2020-11-15T22:55:51Z</time>
      </trkpt>
      <trkpt lat="28.7206980" lon="-17.7415350">
        <ele>191.4</ele>
        <time>2020-11-15T22:55:52Z</time>
      </trkpt>
      <trkpt lat="28.7208220" lon="-17.7413920">
        <ele>190.5</ele>
        <time>2020-11-15T22:55:53Z</time>
      </trkpt>
      <trkpt lat="28.7208220" lon="-17.7413920">
        <ele>190.5</ele>
        <time>2020-11-15T22:55:54Z</time>
      </trkpt>
      <trkpt lat="28.7209550" lon="-17.7412570">
        <ele>189.6</ele>
        <time>2020-11-15T22:55:55Z</time>
      </trkpt>
      <trkpt lat="28.7209550" lon="-17.7412570">
        <ele>189.6</ele>
        <time>2020-11-15T22:55:56Z</time>
      </trkpt>
      <trkpt lat="28.7210750" lon="-17.7411250">
        <ele>188.9</ele>
        <time>2020-11-15T22:55:57Z</time>
      </trkpt>
      <trkpt lat="28.7210750" lon="-17.7411250">
        <ele>188.9</ele>
        <time>2020-11-15T22:55:58Z</time>
      </trkpt>
      <trkpt lat="28.7212230" lon="-17.7410270">
        <ele>188.4</ele>
        <time>2020-11-15T22:55:59Z</time>
      </trkpt>
      <trkpt lat="28.7212230" lon="-17.7410270">
        <ele>188.4</ele>
        <time>2020-11-15T22:56:00Z</time>
      </trkpt>
      <trkpt lat="28.7214000" lon="-17.7409930">
        <ele>188.1</ele>
        <time>2020-11-15T22:56:01Z</time>
      </trkpt>
      <trkpt lat="28.7214000" lon="-17.7409930">
        <ele>188.1</ele>
        <time>2020-11-15T22:56:02Z</time>
      </trkpt>
      <trkpt lat="28.7215700" lon="-17.7409880">
        <ele>187.9</ele>
        <time>2020-11-15T22:56:03Z</time>
      </trkpt>
      <trkpt lat="28.7215700" lon="-17.7409880">
        <ele>187.9</ele>
        <time>2020-11-15T22:56:04Z</time>
      </trkpt>
      <trkpt lat="28.7217150" lon="-17.7409380">
        <ele>187.8</ele>
        <time>2020-11-15T22:56:05Z</time>
      </trkpt>
      <trkpt lat="28.7217150" lon="-17.7409380">
        <ele>187.8</ele>
        <time>2020-11-15T22:56:06Z</time>
      </trkpt>
      <trkpt lat="28.7217680" lon="-17.7408070">
        <ele>187.3</ele>
        <time>2020-11-15T22:56:07Z</time>
      </trkpt>
      <trkpt lat="28.7217500" lon="-17.7407420">
        <ele>186.8</ele>
        <time>2020-11-15T22:56:08Z</time>
      </trkpt>
      <trkpt lat="28.7217500" lon="-17.7407420">
        <ele>186.8</ele>
        <time>2020-11-15T22:56:09Z</time>
      </trkpt>
      <trkpt lat="28.7216480" lon="-17.7406920">
        <ele>185.6</ele>
        <time>2020-11-15T22:56:10Z</time>
      </trkpt>
      <trkpt lat="28.7216480" lon="-17.7406920">
        <ele>185.6</ele>
        <time>2020-11-15T22:56:11Z</time>
      </trkpt>
      <trkpt lat="28.7215130" lon="-17.7407170">
        <ele>184.1</ele>
        <time>2020-11-15T22:56:12Z</time>
      </trkpt>
      <trkpt lat="28.7214400" lon="-17.7407330">
        <ele>183.3</ele>
        <time>2020-11-15T22:56:13Z</time>
      </trkpt>
      <trkpt lat="28.7214400" lon="-17.7407330">
        <ele>183.3</ele>
        <time>2020-11-15T22:56:14Z</time>
      </trkpt>
      <trkpt lat="28.7212870" lon="-17.7407700">
        <ele>181.8</ele>
        <time>2020-11-15T22:56:15Z</time>
      </trkpt>
      <trkpt lat="28.7212870" lon="-17.7407700">
        <ele>181.8</ele>
        <time>2020-11-15T22:56:16Z</time>
      </trkpt>
      <trkpt lat="28.7211270" lon="-17.7408330">
        <ele>180.3</ele>
        <time>2020-11-15T22:56:17Z</time>
      </trkpt>
      <trkpt lat="28.7210450" lon="-17.7408800">
        <ele>179.4</ele>
        <time>2020-11-15T22:56:18Z</time>
      </trkpt>
      <trkpt lat="28.7210450" lon="-17.7408800">
        <ele>179.4</ele>
        <time>2020-11-15T22:56:19Z</time>
      </trkpt>
      <trkpt lat="28.7208870" lon="-17.7410050">
        <ele>177.8</ele>
        <time>2020-11-15T22:56:20Z</time>
      </trkpt>
      <trkpt lat="28.7208080" lon="-17.7410770">
        <ele>177.0</ele>
        <time>2020-11-15T22:56:21Z</time>
      </trkpt>
      <trkpt lat="28.7208080" lon="-17.7410770">
        <ele>177.0</ele>
        <time>2020-11-15T22:56:22Z</time>
      </trkpt>
      <trkpt lat="28.7206520" lon="-17.7412220">
        <ele>175.4</ele>
        <time>2020-11-15T22:56:23Z</time>
      </trkpt>
      <trkpt lat="28.7206520" lon="-17.7412220">
        <ele>175.4</ele>
        <time>2020-11-15T22:56:24Z</time>
      </trkpt>
      <trkpt lat="28.7205000" lon="-17.7413700">
        <ele>174.2</ele>
        <time>2020-11-15T22:56:25Z</time>
      </trkpt>
      <trkpt lat="28.7205000" lon="-17.7413700">
        <ele>174.2</ele>
        <time>2020-11-15T22:56:26Z</time>
      </trkpt>
      <trkpt lat="28.7203730" lon="-17.7415400">
        <ele>173.1</ele>
        <time>2020-11-15T22:56:27Z</time>
      </trkpt>
      <trkpt lat="28.7203730" lon="-17.7415400">
        <ele>173.1</ele>
        <time>2020-11-15T22:56:28Z</time>
      </trkpt>
      <trkpt lat="28.7202750" lon="-17.7417250">
        <ele>172.2</ele>
        <time>2020-11-15T22:56:29Z</time>
      </trkpt>
      <trkpt lat="28.7202750" lon="-17.7417250">
        <ele>172.2</ele>
        <time>2020-11-15T22:56:30Z</time>
      </trkpt>
      <trkpt lat="28.7202220" lon="-17.7419130">
        <ele>171.4</ele>
        <time>2020-11-15T22:56:31Z</time>
      </trkpt>
      <trkpt lat="28.7202220" lon="-17.7419130">
        <ele>171.4</ele>
        <time>2020-11-15T22:56:32Z</time>
      </trkpt>
      <trkpt lat="28.7202170" lon="-17.7420870">
        <ele>171.0</ele>
        <time>2020-11-15T22:56:33Z</time>
      </trkpt>
      <trkpt lat="28.7202150" lon="-17.7421680">
        <ele>171.0</ele>
        <time>2020-11-15T22:56:34Z</time>
      </trkpt>
      <trkpt lat="28.7202150" lon="-17.7421680">
        <ele>171.0</ele>
        <time>2020-11-15T22:56:35Z</time>
      </trkpt>
      <trkpt lat="28.7201950" lon="-17.7423230">
        <ele>171.0</ele>
        <time>2020-11-15T22:56:36Z</time>
      </trkpt>
      <trkpt lat="28.7201630" lon="-17.7423870">
        <ele>171.0</ele>
        <time>2020-11-15T22:56:37Z</time>
      </trkpt>
      <trkpt lat="28.7201630" lon="-17.7423870">
        <ele>171.0</ele>
        <time>2020-11-15T22:56:38Z</time>
      </trkpt>
      <trkpt lat="28.7200620" lon="-17.7424730">
        <ele>171.0</ele>
        <time>2020-11-15T22:56:39Z</time>
      </trkpt>
      <trkpt lat="28.7200620" lon="-17.7424730">
        <ele>171.0</ele>
        <time>2020-11-15T22:56:40Z</time>
      </trkpt>
      <trkpt lat="28.7199420" lon="-17.7424350">
        <ele>170.7</ele>
        <time>2020-11-15T22:56:41Z</time>
      </trkpt>
      <trkpt lat="28.7199420" lon="-17.7424350">
        <ele>170.7</ele>
        <time>2020-11-15T22:56:42Z</time>
      </trkpt>
      <trkpt lat="28.7198370" lon="-17.7423680">
        <ele>170.3</ele>
        <time>2020-11-15T22:56:43Z</time>
      </trkpt>
      <trkpt lat="28.7198370" lon="-17.7423680">
        <ele>170.3</ele>
        <time>2020-11-15T22:56:44Z</time>
      </trkpt>
      <trkpt lat="28.7197220" lon="-17.7423030">
        <ele>169.7</ele>
        <time>2020-11-15T22:56:45Z</time>
      </trkpt>
      <trkpt lat="28.7197220" lon="-17.7423030">
        <ele>169.7</ele>
        <time>2020-11-15T22:56:46Z</time>
      </trkpt>
      <trkpt lat="28.7196080" lon="-17.7422180">
        <ele>168.9</ele>
        <time>2020-11-15T22:56:47Z</time>
      </trkpt>
      <trkpt lat="28.7196080" lon="-17.7422180">
        <ele>168.9</ele>
        <time>2020-11-15T22:56:48Z</time>
      </trkpt>
      <trkpt lat="28.7194780" lon="-17.7421070">
        <ele>167.9</ele>
        <time>2020-11-15T22:56:49Z</time>
      </trkpt>
      <trkpt lat="28.7194070" lon="-17.7420480">
        <ele>167.4</ele>
        <time>2020-11-15T22:56:50Z</time>
      </trkpt>
      <trkpt lat="28.7194070" lon="-17.7420480">
        <ele>167.4</ele>
        <time>2020-11-15T22:56:51Z</time>
      </trkpt>
      <trkpt lat="28.7192530" lon="-17.7419280">
        <ele>166.3</ele>
        <time>2020-11-15T22:56:52Z</time>
      </trkpt>
      <trkpt lat="28.7191700" lon="-17.7418730">
        <ele>165.7</ele>
        <time>2020-11-15T22:56:53Z</time>
      </trkpt>
      <trkpt lat="28.7191700" lon="-17.7418730">
        <ele>165.7</ele>
        <time>2020-11-15T22:56:54Z</time>
      </trkpt>
      <trkpt lat="28.7189880" lon="-17.7418030">
        <ele>164.4</ele>
        <time>2020-11-15T22:56:55Z</time>
      </trkpt>
      <trkpt lat="28.7189880" lon="-17.7418030">
        <ele>164.4</ele>
        <time>2020-11-15T22:56:56Z</time>
      </trkpt>
      <trkpt lat="28.7187780" lon="-17.7417780">
        <ele>162.8</ele>
        <time>2020-11-15T22:56:57Z</time>
      </trkpt>
      <trkpt lat="28.7187780" lon="-17.7417780">
        <ele>162.8</ele>
        <time>2020-11-15T22:56:58Z</time>
      </trkpt>
      <trkpt lat="28.7185630" lon="-17.7417530">
        <ele>161.2</ele>
        <time>2020-11-15T22:56:59Z</time>
      </trkpt>
      <trkpt lat="28.7185630" lon="-17.7417530">
        <ele>161.2</ele>
        <time>2020-11-15T22:57:00Z</time>
      </trkpt>
      <trkpt lat="28.7183530" lon="-17.7417200">
        <ele>159.8</ele>
        <time>2020-11-15T22:57:01Z</time>
      </trkpt>
      <trkpt lat="28.7183530" lon="-17.7417200">
        <ele>159.8</ele>
        <time>2020-11-15T22:57:02Z</time>
      </trkpt>
      <trkpt lat="28.7181600" lon="-17.7417320">
        <ele>158.6</ele>
        <time>2020-11-15T22:57:03Z</time>
      </trkpt>
      <trkpt lat="28.7180680" lon="-17.7417670">
        <ele>157.9</ele>
        <time>2020-11-15T22:57:04Z</time>
      </trkpt>
      <trkpt lat="28.7180680" lon="-17.7417670">
        <ele>157.9</ele>
        <time>2020-11-15T22:57:05Z</time>
      </trkpt>
      <trkpt lat="28.7178850" lon="-17.7418580">
        <ele>156.3</ele>
        <time>2020-11-15T22:57:06Z</time>
      </trkpt>
      <trkpt lat="28.7177880" lon="-17.7419020">
        <ele>155.5</ele>
        <time>2020-11-15T22:57:07Z</time>
      </trkpt>
      <trkpt lat="28.7177880" lon="-17.7419020">
        <ele>155.5</ele>
        <time>2020-11-15T22:57:08Z</time>
      </trkpt>
      <trkpt lat="28.7175920" lon="-17.7419650">
        <ele>154.1</ele>
        <time>2020-11-15T22:57:09Z</time>
      </trkpt>
      <trkpt lat="28.7174930" lon="-17.7419820">
        <ele>153.5</ele>
        <time>2020-11-15T22:57:10Z</time>
      </trkpt>
      <trkpt lat="28.7173970" lon="-17.7419970">
        <ele>153.0</ele>
        <time>2020-11-15T22:57:11Z</time>
      </trkpt>
      <trkpt lat="28.7173970" lon="-17.7419970">
        <ele>153.0</ele>
        <time>2020-11-15T22:57:12Z</time>
      </trkpt>
      <trkpt lat="28.7172100" lon="-17.7420680">
        <ele>152.0</ele>
        <time>2020-11-15T22:57:13Z</time>
      </trkpt>
      <trkpt lat="28.7172100" lon="-17.7420680">
        <ele>152.0</ele>
        <time>2020-11-15T22:57:14Z</time>
      </trkpt>
      <trkpt lat="28.7170320" lon="-17.7421780">
        <ele>150.7</ele>
        <time>2020-11-15T22:57:15Z</time>
      </trkpt>
      <trkpt lat="28.7170320" lon="-17.7421780">
        <ele>150.7</ele>
        <time>2020-11-15T22:57:16Z</time>
      </trkpt>
      <trkpt lat="28.7168570" lon="-17.7422850">
        <ele>149.5</ele>
        <time>2020-11-15T22:57:17Z</time>
      </trkpt>
      <trkpt lat="28.7168570" lon="-17.7422850">
        <ele>149.5</ele>
        <time>2020-11-15T22:57:18Z</time>
      </trkpt>
      <trkpt lat="28.7166780" lon="-17.7423830">
        <ele>148.6</ele>
        <time>2020-11-15T22:57:19Z</time>
      </trkpt>
      <trkpt lat="28.7166780" lon="-17.7423830">
        <ele>148.6</ele>
        <time>2020-11-15T22:57:20Z</time>
      </trkpt>
      <trkpt lat="28.7164900" lon="-17.7424480">
        <ele>148.1</ele>
        <time>2020-11-15T22:57:21Z</time>
      </trkpt>
      <trkpt lat="28.7164900" lon="-17.7424480">
        <ele>148.1</ele>
        <time>2020-11-15T22:57:22Z</time>
      </trkpt>
      <trkpt lat="28.7163130" lon="-17.7424680">
        <ele>147.8</ele>
        <time>2020-11-15T22:57:23Z</time>
      </trkpt>
      <trkpt lat="28.7162370" lon="-17.7424520">
        <ele>147.7</ele>
        <time>2020-11-15T22:57:24Z</time>
      </trkpt>
      <trkpt lat="28.7161720" lon="-17.7424080">
        <ele>147.5</ele>
        <time>2020-11-15T22:57:25Z</time>
      </trkpt>
      <trkpt lat="28.7161720" lon="-17.7424080">
        <ele>147.5</ele>
        <time>2020-11-15T22:57:26Z</time>
      </trkpt>
      <trkpt lat="28.7161120" lon="-17.7422820">
        <ele>146.7</ele>
        <time>2020-11-15T22:57:27Z</time>
      </trkpt>
      <trkpt lat="28.7161120" lon="-17.7422820">
        <ele>146.7</ele>
        <time>2020-11-15T22:57:28Z</time>
      </trkpt>
      <trkpt lat="28.7161630" lon="-17.7421650">
        <ele>145.4</ele>
        <time>2020-11-15T22:57:29Z</time>
      </trkpt>
      <trkpt lat="28.7161630" lon="-17.7421650">
        <ele>145.4</ele>
        <time>2020-11-15T22:57:30Z</time>
      </trkpt>
      <trkpt lat="28.7162920" lon="-17.7420980">
        <ele>143.7</ele>
        <time>2020-11-15T22:57:31Z</time>
      </trkpt>
      <trkpt lat="28.7162920" lon="-17.7420980">
        <ele>143.7</ele>
        <time>2020-11-15T22:57:32Z</time>
      </trkpt>
      <trkpt lat="28.7164350" lon="-17.7420350">
        <ele>142.0</ele>
        <time>2020-11-15T22:57:33Z</time>
      </trkpt>
      <trkpt lat="28.7164350" lon="-17.7420350">
        <ele>142.0</ele>
        <time>2020-11-15T22:57:34Z</time>
      </trkpt>
      <trkpt lat="28.7165870" lon="-17.7419600">
        <ele>140.6</ele>
        <time>2020-11-15T22:57:35Z</time>
      </trkpt>
      <trkpt lat="28.7165870" lon="-17.7419600">
        <ele>140.6</ele>
        <time>2020-11-15T22:57:36Z</time>
      </trkpt>
      <trkpt lat="28.7167480" lon="-17.7418880">
        <ele>139.1</ele>
        <time>2020-11-15T22:57:37Z</time>
      </trkpt>
      <trkpt lat="28.7167480" lon="-17.7418880">
        <ele>139.1</ele>
        <time>2020-11-15T22:57:38Z</time>
      </trkpt>
      <trkpt lat="28.7169220" lon="-17.7418220">
        <ele>137.4</ele>
        <time>2020-11-15T22:57:39Z</time>
      </trkpt>
      <trkpt lat="28.7169220" lon="-17.7418220">
        <ele>137.4</ele>
        <time>2020-11-15T22:57:40Z</time>
      </trkpt>
      <trkpt lat="28.7171020" lon="-17.7417370">
        <ele>135.6</ele>
        <time>2020-11-15T22:57:41Z</time>
      </trkpt>
      <trkpt lat="28.7171020" lon="-17.7417370">
        <ele>135.6</ele>
        <time>2020-11-15T22:57:42Z</time>
      </trkpt>
      <trkpt lat="28.7172970" lon="-17.7416620">
        <ele>133.6</ele>
        <time>2020-11-15T22:57:43Z</time>
      </trkpt>
      <trkpt lat="28.7172970" lon="-17.7416620">
        <ele>133.6</ele>
        <time>2020-11-15T22:57:44Z</time>
      </trkpt>
      <trkpt lat="28.7174930" lon="-17.7415650">
        <ele>131.5</ele>
        <time>2020-11-15T22:57:45Z</time>
      </trkpt>
      <trkpt lat="28.7174930" lon="-17.7415650">
        <ele>131.5</ele>
        <time>2020-11-15T22:57:46Z</time>
      </trkpt>
      <trkpt lat="28.7176580" lon="-17.7414250">
        <ele>129.7</ele>
        <time>2020-11-15T22:57:47Z</time>
      </trkpt>
      <trkpt lat="28.7176580" lon="-17.7414250">
        <ele>129.7</ele>
        <time>2020-11-15T22:57:48Z</time>
      </trkpt>
      <trkpt lat="28.7178270" lon="-17.7412920">
        <ele>127.9</ele>
        <time>2020-11-15T22:57:49Z</time>
      </trkpt>
      <trkpt lat="28.7178270" lon="-17.7412920">
        <ele>127.9</ele>
        <time>2020-11-15T22:57:50Z</time>
      </trkpt>
      <trkpt lat="28.7180250" lon="-17.7412050">
        <ele>126.2</ele>
        <time>2020-11-15T22:57:51Z</time>
      </trkpt>
      <trkpt lat="28.7180250" lon="-17.7412050">
        <ele>126.2</ele>
        <time>2020-11-15T22:57:52Z</time>
      </trkpt>
      <trkpt lat="28.7182380" lon="-17.7411500">
        <ele>124.6</ele>
        <time>2020-11-15T22:57:53Z</time>
      </trkpt>
      <trkpt lat="28.7183470" lon="-17.7411330">
        <ele>123.9</ele>
        <time>2020-11-15T22:57:54Z</time>
      </trkpt>
      <trkpt lat="28.7183470" lon="-17.7411330">
        <ele>123.9</ele>
        <time>2020-11-15T22:57:55Z</time>
      </trkpt>
      <trkpt lat="28.7185650" lon="-17.7411100">
        <ele>122.5</ele>
        <time>2020-11-15T22:57:56Z</time>
      </trkpt>
      <trkpt lat="28.7185650" lon="-17.7411100">
        <ele>122.5</ele>
        <time>2020-11-15T22:57:57Z</time>
      </trkpt>
      <trkpt lat="28.7187800" lon="-17.7410930">
        <ele>121.1</ele>
        <time>2020-11-15T22:57:58Z</time>
      </trkpt>
      <trkpt lat="28.7188830" lon="-17.7410850">
        <ele>120.5</ele>
        <time>2020-11-15T22:57:59Z</time>
      </trkpt>
      <trkpt lat="28.7189880" lon="-17.7410820">
        <ele>119.9</ele>
        <time>2020-11-15T22:58:00Z</time>
      </trkpt>
      <trkpt lat="28.7189880" lon="-17.7410820">
        <ele>119.9</ele>
        <time>2020-11-15T22:58:01Z</time>
      </trkpt>
      <trkpt lat="28.7191920" lon="-17.7410800">
        <ele>118.7</ele>
        <time>2020-11-15T22:58:02Z</time>
      </trkpt>
      <trkpt lat="28.7192820" lon="-17.7410780">
        <ele>118.2</ele>
        <time>2020-11-15T22:58:03Z</time>
      </trkpt>
      <trkpt lat="28.7193600" lon="-17.7410670">
        <ele>117.8</ele>
        <time>2020-11-15T22:58:04Z</time>
      </trkpt>
      <trkpt lat="28.7193600" lon="-17.7410670">
        <ele>117.8</ele>
        <time>2020-11-15T22:58:05Z</time>
      </trkpt>
      <trkpt lat="28.7194950" lon="-17.7409920">
        <ele>117.0</ele>
        <time>2020-11-15T22:58:06Z</time>
      </trkpt>
      <trkpt lat="28.7195480" lon="-17.7409250">
        <ele>116.5</ele>
        <time>2020-11-15T22:58:07Z</time>
      </trkpt>
      <trkpt lat="28.7195480" lon="-17.7409250">
        <ele>116.5</ele>
        <time>2020-11-15T22:58:08Z</time>
      </trkpt>
      <trkpt lat="28.7195930" lon="-17.7407670">
        <ele>115.4</ele>
        <time>2020-11-15T22:58:09Z</time>
      </trkpt>
      <trkpt lat="28.7195800" lon="-17.7406850">
        <ele>114.7</ele>
        <time>2020-11-15T22:58:10Z</time>
      </trkpt>
      <trkpt lat="28.7195800" lon="-17.7406850">
        <ele>114.7</ele>
        <time>2020-11-15T22:58:11Z</time>
      </trkpt>
      <trkpt lat="28.7194820" lon="-17.7405580">
        <ele>113.0</ele>
        <time>2020-11-15T22:58:12Z</time>
      </trkpt>
      <trkpt lat="28.7193980" lon="-17.7405280">
        <ele>112.0</ele>
        <time>2020-11-15T22:58:13Z</time>
      </trkpt>
      <trkpt lat="28.7193980" lon="-17.7405280">
        <ele>112.0</ele>
        <time>2020-11-15T22:58:14Z</time>
      </trkpt>
      <trkpt lat="28.7192180" lon="-17.7405320">
        <ele>109.9</ele>
        <time>2020-11-15T22:58:15Z</time>
      </trkpt>
      <trkpt lat="28.7191270" lon="-17.7405470">
        <ele>108.9</ele>
        <time>2020-11-15T22:58:16Z</time>
      </trkpt>
      <trkpt lat="28.7190320" lon="-17.7405630">
        <ele>107.9</ele>
        <time>2020-11-15T22:58:17Z</time>
      </trkpt>
      <trkpt lat="28.7190320" lon="-17.7405630">
        <ele>107.9</ele>
        <time>2020-11-15T22:58:18Z</time>
      </trkpt>
      <trkpt lat="28.7188350" lon="-17.7406000">
        <ele>106.0</ele>
        <time>2020-11-15T22:58:19Z</time>
      </trkpt>
      <trkpt lat="28.7188350" lon="-17.7406000">
        <ele>106.0</ele>
        <time>2020-11-15T22:58:20Z</time>
      </trkpt>
      <trkpt lat="28.7186330" lon="-17.7406370">
        <ele>104.2</ele>
        <time>2020-11-15T22:58:21Z</time>
      </trkpt>
      <trkpt lat="28.7186330" lon="-17.7406370">
        <ele>104.2</ele>
        <time>2020-11-15T22:58:22Z</time>
      </trkpt>
      <trkpt lat="28.7184330" lon="-17.7406750">
        <ele>102.6</ele>
        <time>2020-11-15T22:58:23Z</time>
      </trkpt>
      <trkpt lat="28.7183330" lon="-17.7406980">
        <ele>101.9</ele>
        <time>2020-11-15T22:58:24Z</time>
      </trkpt>
      <trkpt lat="28.7183330" lon="-17.7406980">
        <ele>101.9</ele>
        <time>2020-11-15T22:58:25Z</time>
      </trkpt>
      <trkpt lat="28.7181330" lon="-17.7407530">
        <ele>100.6</ele>
        <time>2020-11-15T22:58:26Z</time>
      </trkpt>
      <trkpt lat="28.7180320" lon="-17.7407870">
        <ele>100.0</ele>
        <time>2020-11-15T22:58:27Z</time>
      </trkpt>
      <trkpt lat="28.7180320" lon="-17.7407870">
        <ele>100.0</ele>
        <time>2020-11-15T22:58:28Z</time>
      </trkpt>
      <trkpt lat="28.7178280" lon="-17.7408520">
        <ele>99.3</ele>
        <time>2020-11-15T22:58:29Z</time>
      </trkpt>
      <trkpt lat="28.7177320" lon="-17.7408800">
        <ele>99.1</ele>
        <time>2020-11-15T22:58:30Z</time>
      </trkpt>
      <trkpt lat="28.7176430" lon="-17.7409070">
        <ele>99.0</ele>
        <time>2020-11-15T22:58:31Z</time>
      </trkpt>
      <trkpt lat="28.7176430" lon="-17.7409070">
        <ele>99.0</ele>
        <time>2020-11-15T22:58:32Z</time>
      </trkpt>
      <trkpt lat="28.7175080" lon="-17.7409250">
        <ele>98.9</ele>
        <time>2020-11-15T22:58:33Z</time>
      </trkpt>
      <trkpt lat="28.7175080" lon="-17.7409250">
        <ele>98.9</ele>
        <time>2020-11-15T22:58:34Z</time>
      </trkpt>
      <trkpt lat="28.7174070" lon="-17.7408700">
        <ele>97.9</ele>
        <time>2020-11-15T22:58:35Z</time>
      </trkpt>
      <trkpt lat="28.7174070" lon="-17.7408700">
        <ele>97.9</ele>
        <time>2020-11-15T22:58:36Z</time>
      </trkpt>
      <trkpt lat="28.7173670" lon="-17.7407470">
        <ele>96.6</ele>
        <time>2020-11-15T22:58:37Z</time>
      </trkpt>
      <trkpt lat="28.7173670" lon="-17.7407470">
        <ele>96.6</ele>
        <time>2020-11-15T22:58:38Z</time>
      </trkpt>
      <trkpt lat="28.7174320" lon="-17.7406230">
        <ele>95.2</ele>
        <time>2020-11-15T22:58:39Z</time>
      </trkpt>
      <trkpt lat="28.7174320" lon="-17.7406230">
        <ele>95.2</ele>
        <time>2020-11-15T22:58:40Z</time>
      </trkpt>
      <trkpt lat="28.7175600" lon="-17.7405350">
        <ele>93.6</ele>
        <time>2020-11-15T22:58:41Z</time>
      </trkpt>
      <trkpt lat="28.7176330" lon="-17.7404850">
        <ele>92.7</ele>
        <time>2020-11-15T22:58:42Z</time>
      </trkpt>
      <trkpt lat="28.7176330" lon="-17.7404850">
        <ele>92.7</ele>
        <time>2020-11-15T22:58:43Z</time>
      </trkpt>
      <trkpt lat="28.7177950" lon="-17.7403720">
        <ele>90.8</ele>
        <time>2020-11-15T22:58:44Z</time>
      </trkpt>
      <trkpt lat="28.7178800" lon="-17.7403030">
        <ele>89.7</ele>
        <time>2020-11-15T22:58:45Z</time>
      </trkpt>
      <trkpt lat="28.7178800" lon="-17.7403030">
        <ele>89.7</ele>
        <time>2020-11-15T22:58:46Z</time>
      </trkpt>
      <trkpt lat="28.7180550" lon="-17.7401580">
        <ele>87.5</ele>
        <time>2020-11-15T22:58:47Z</time>
      </trkpt>
      <trkpt lat="28.7180550" lon="-17.7401580">
        <ele>87.5</ele>
        <time>2020-11-15T22:58:48Z</time>
      </trkpt>
      <trkpt lat="28.7182380" lon="-17.7400170">
        <ele>85.2</ele>
        <time>2020-11-15T22:58:49Z</time>
      </trkpt>
      <trkpt lat="28.7182380" lon="-17.7400170">
        <ele>85.2</ele>
        <time>2020-11-15T22:58:50Z</time>
      </trkpt>
      <trkpt lat="28.7184120" lon="-17.7398470">
        <ele>82.9</ele>
        <time>2020-11-15T22:58:51Z</time>
      </trkpt>
      <trkpt lat="28.7184120" lon="-17.7398470">
        <ele>82.9</ele>
        <time>2020-11-15T22:58:52Z</time>
      </trkpt>
      <trkpt lat="28.7185600" lon="-17.7396770">
        <ele>80.9</ele>
        <time>2020-11-15T22:58:53Z</time>
      </trkpt>
      <trkpt lat="28.7185600" lon="-17.7396770">
        <ele>80.9</ele>
        <time>2020-11-15T22:58:54Z</time>
      </trkpt>
      <trkpt lat="28.7186770" lon="-17.7395030">
        <ele>78.7</ele>
        <time>2020-11-15T22:58:55Z</time>
      </trkpt>
      <trkpt lat="28.7187280" lon="-17.7394050">
        <ele>77.4</ele>
        <time>2020-11-15T22:58:56Z</time>
      </trkpt>
      <trkpt lat="28.7187280" lon="-17.7394050">
        <ele>77.4</ele>
        <time>2020-11-15T22:58:57Z</time>
      </trkpt>
      <trkpt lat="28.7188230" lon="-17.7391930">
        <ele>74.7</ele>
        <time>2020-11-15T22:58:58Z</time>
      </trkpt>
      <trkpt lat="28.7188600" lon="-17.7390820">
        <ele>73.3</ele>
        <time>2020-11-15T22:58:59Z</time>
      </trkpt>
      <trkpt lat="28.7188850" lon="-17.7389600">
        <ele>71.8</ele>
        <time>2020-11-15T22:59:00Z</time>
      </trkpt>
      <trkpt lat="28.7189050" lon="-17.7388300">
        <ele>70.4</ele>
        <time>2020-11-15T22:59:01Z</time>
      </trkpt>
      <trkpt lat="28.7189050" lon="-17.7388300">
        <ele>70.4</ele>
        <time>2020-11-15T22:59:02Z</time>
      </trkpt>
      <trkpt lat="28.7189350" lon="-17.7385520">
        <ele>67.3</ele>
        <time>2020-11-15T22:59:03Z</time>
      </trkpt>
      <trkpt lat="28.7189350" lon="-17.7385520">
        <ele>67.3</ele>
        <time>2020-11-15T22:59:04Z</time>
      </trkpt>
      <trkpt lat="28.7189500" lon="-17.7382830">
        <ele>64.5</ele>
        <time>2020-11-15T22:59:05Z</time>
      </trkpt>
      <trkpt lat="28.7189480" lon="-17.7381700">
        <ele>63.4</ele>
        <time>2020-11-15T22:59:06Z</time>
      </trkpt>
      <trkpt lat="28.7189470" lon="-17.7380730">
        <ele>62.5</ele>
        <time>2020-11-15T22:59:07Z</time>
      </trkpt>
      <trkpt lat="28.7189470" lon="-17.7380730">
        <ele>62.5</ele>
        <time>2020-11-15T22:59:08Z</time>
      </trkpt>
      <trkpt lat="28.7189670" lon="-17.7379000">
        <ele>61.0</ele>
        <time>2020-11-15T22:59:09Z</time>
      </trkpt>
      <trkpt lat="28.7189670" lon="-17.7379000">
        <ele>61.0</ele>
        <time>2020-11-15T22:59:10Z</time>
      </trkpt>
      <trkpt lat="28.7190420" lon="-17.7377550">
        <ele>59.6</ele>
        <time>2020-11-15T22:59:11Z</time>
      </trkpt>
      <trkpt lat="28.7190420" lon="-17.7377550">
        <ele>59.6</ele>
        <time>2020-11-15T22:59:12Z</time>
      </trkpt>
      <trkpt lat="28.7191620" lon="-17.7376530">
        <ele>58.4</ele>
        <time>2020-11-15T22:59:13Z</time>
      </trkpt>
      <trkpt lat="28.7191620" lon="-17.7376530">
        <ele>58.4</ele>
        <time>2020-11-15T22:59:14Z</time>
      </trkpt>
      <trkpt lat="28.7192980" lon="-17.7375600">
        <ele>57.3</ele>
        <time>2020-11-15T22:59:15Z</time>
      </trkpt>
      <trkpt lat="28.7192980" lon="-17.7375600">
        <ele>57.3</ele>
        <time>2020-11-15T22:59:16Z</time>
      </trkpt>
      <trkpt lat="28.7194330" lon="-17.7374680">
        <ele>56.5</ele>
        <time>2020-11-15T22:59:17Z</time>
      </trkpt>
      <trkpt lat="28.7195000" lon="-17.7374230">
        <ele>55.2</ele>
        <time>2020-11-15T22:59:18Z</time>
      </trkpt>
      <trkpt lat="28.7195630" lon="-17.7373770">
        <ele>51.0</ele>
        <time>2020-11-15T22:59:19Z</time>
      </trkpt>
      <trkpt lat="28.7195630" lon="-17.7373770">
        <ele>51.0</ele>
        <time>2020-11-15T22:59:20Z</time>
      </trkpt>
      <trkpt lat="28.7196870" lon="-17.7372850">
        <ele>50.5</ele>
        <time>2020-11-15T22:59:21Z</time>
      </trkpt>
      <trkpt lat="28.7196870" lon="-17.7372850">
        <ele>50.5</ele>
        <time>2020-11-15T22:59:22Z</time>
      </trkpt>
      <trkpt lat="28.7198030" lon="-17.7371920">
        <ele>50.0</ele>
        <time>2020-11-15T22:59:23Z</time>
      </trkpt>
      <trkpt lat="28.7198030" lon="-17.7371920">
        <ele>50.0</ele>
        <time>2020-11-15T22:59:24Z</time>
      </trkpt>
      <trkpt lat="28.7199220" lon="-17.7370980">
        <ele>49.3</ele>
        <time>2020-11-15T22:59:25Z</time>
      </trkpt>
      <trkpt lat="28.7199220" lon="-17.7370980">
        <ele>49.3</ele>
        <time>2020-11-15T22:59:26Z</time>
      </trkpt>
      <trkpt lat="28.7200470" lon="-17.7370080">
        <ele>48.6</ele>
        <time>2020-11-15T22:59:27Z</time>
      </trkpt>
      <trkpt lat="28.7201070" lon="-17.7369630">
        <ele>48.3</ele>
        <time>2020-11-15T22:59:28Z</time>
      </trkpt>
      <trkpt lat="28.7201070" lon="-17.7369630">
        <ele>48.3</ele>
        <time>2020-11-15T22:59:29Z</time>
      </trkpt>
      <trkpt lat="28.7202280" lon="-17.7369100">
        <ele>47.6</ele>
        <time>2020-11-15T22:59:30Z</time>
      </trkpt>
      <trkpt lat="28.7202280" lon="-17.7369100">
        <ele>47.6</ele>
        <time>2020-11-15T22:59:31Z</time>
      </trkpt>
      <trkpt lat="28.7203600" lon="-17.7369400">
        <ele>48.5</ele>
        <time>2020-11-15T22:59:32Z</time>
      </trkpt>
      <trkpt lat="28.7203600" lon="-17.7369400">
        <ele>48.5</ele>
        <time>2020-11-15T22:59:33Z</time>
      </trkpt>
      <trkpt lat="28.7204830" lon="-17.7370370">
        <ele>49.8</ele>
        <time>2020-11-15T22:59:34Z</time>
      </trkpt>
      <trkpt lat="28.7205400" lon="-17.7370930">
        <ele>50.5</ele>
        <time>2020-11-15T22:59:35Z</time>
      </trkpt>
      <trkpt lat="28.7205400" lon="-17.7370930">
        <ele>50.5</ele>
        <time>2020-11-15T22:59:36Z</time>
      </trkpt>
      <trkpt lat="28.7206750" lon="-17.7371950">
        <ele>52.1</ele>
        <time>2020-11-15T22:59:37Z</time>
      </trkpt>
      <trkpt lat="28.7206750" lon="-17.7371950">
        <ele>52.1</ele>
        <time>2020-11-15T22:59:38Z</time>
      </trkpt>
      <trkpt lat="28.7208150" lon="-17.7372250">
        <ele>53.9</ele>
        <time>2020-11-15T22:59:39Z</time>
      </trkpt>
      <trkpt lat="28.7208150" lon="-17.7372250">
        <ele>53.9</ele>
        <time>2020-11-15T22:59:40Z</time>
      </trkpt>
      <trkpt lat="28.7209550" lon="-17.7371380">
        <ele>53.6</ele>
        <time>2020-11-15T22:59:41Z</time>
      </trkpt>
      <trkpt lat="28.7209550" lon="-17.7371380">
        <ele>53.6</ele>
        <time>2020-11-15T22:59:42Z</time>
      </trkpt>
      <trkpt lat="28.7210700" lon="-17.7370130">
        <ele>53.5</ele>
        <time>2020-11-15T22:59:43Z</time>
      </trkpt>
      <trkpt lat="28.7210700" lon="-17.7370130">
        <ele>53.5</ele>
        <time>2020-11-15T22:59:44Z</time>
      </trkpt>
      <trkpt lat="28.7211330" lon="-17.7368470">
        <ele>53.3</ele>
        <time>2020-11-15T22:59:45Z</time>
      </trkpt>
      <trkpt lat="28.7211330" lon="-17.7367680">
        <ele>53.1</ele>
        <time>2020-11-15T22:59:46Z</time>
      </trkpt>
      <trkpt lat="28.7211330" lon="-17.7367680">
        <ele>53.1</ele>
        <time>2020-11-15T22:59:47Z</time>
      </trkpt>
      <trkpt lat="28.7211120" lon="-17.7366450">
        <ele>53.3</ele>
        <time>2020-11-15T22:59:48Z</time>
      </trkpt>
      <trkpt lat="28.7210950" lon="-17.7365950">
        <ele>53.6</ele>
        <time>2020-11-15T22:59:49Z</time>
      </trkpt>
      <trkpt lat="28.7210950" lon="-17.7365950">
        <ele>53.6</ele>
        <time>2020-11-15T22:59:50Z</time>
      </trkpt>
      <trkpt lat="28.7210600" lon="-17.7364980">
        <ele>54.2</ele>
        <time>2020-11-15T22:59:51Z</time>
      </trkpt>
      <trkpt lat="28.7210600" lon="-17.7364980">
        <ele>54.2</ele>
        <time>2020-11-15T22:59:52Z</time>
      </trkpt>
      <trkpt lat="28.7210250" lon="-17.7364120">
        <ele>54.8</ele>
        <time>2020-11-15T22:59:53Z</time>
      </trkpt>
      <trkpt lat="28.7210250" lon="-17.7364120">
        <ele>54.8</ele>
        <time>2020-11-15T22:59:54Z</time>
      </trkpt>
      <trkpt lat="28.7209970" lon="-17.7363400">
        <ele>55.3</ele>
        <time>2020-11-15T22:59:55Z</time>
      </trkpt>
      <trkpt lat="28.7209970" lon="-17.7363400">
        <ele>55.3</ele>
        <time>2020-11-15T22:59:56Z</time>
      </trkpt>
      <trkpt lat="28.7209630" lon="-17.7362750">
        <ele>55.7</ele>
        <time>2020-11-15T22:59:57Z</time>
      </trkpt>
      <trkpt lat="28.7209630" lon="-17.7362750">
        <ele>55.7</ele>
        <time>2020-11-15T22:59:58Z</time>
      </trkpt>
      <trkpt lat="28.7209330" lon="-17.7362030">
        <ele>56.1</ele>
        <time>2020-11-15T22:59:59Z</time>
      </trkpt>
      <trkpt lat="28.7209200" lon="-17.7361630">
        <ele>56.3</ele>
        <time>2020-11-15T23:00:00Z</time>
      </trkpt>
      <trkpt lat="28.7209080" lon="-17.7361430">
        <ele>56.3</ele>
        <time>2020-11-15T23:00:01Z</time>
      </trkpt>
      <trkpt lat="28.7209080" lon="-17.7361430">
        <ele>56.3</ele>
        <time>2020-11-15T23:00:02Z</time>
      </trkpt>
      <trkpt lat="28.7209030" lon="-17.7360700">
        <ele>56.6</ele>
        <time>2020-11-15T23:00:03Z</time>
      </trkpt>
      <trkpt lat="28.7209030" lon="-17.7360700">
        <ele>56.6</ele>
        <time>2020-11-15T23:00:04Z</time>
      </trkpt>
      <trkpt lat="28.7209180" lon="-17.7359850">
        <ele>56.8</ele>
        <time>2020-11-15T23:00:05Z</time>
      </trkpt>
      <trkpt lat="28.7209180" lon="-17.7359850">
        <ele>56.8</ele>
        <time>2020-11-15T23:00:06Z</time>
      </trkpt>
      <trkpt lat="28.7209500" lon="-17.7359050">
        <ele>57.0</ele>
        <time>2020-11-15T23:00:07Z</time>
      </trkpt>
      <trkpt lat="28.7209500" lon="-17.7359050">
        <ele>57.0</ele>
        <time>2020-11-15T23:00:08Z</time>
      </trkpt>
      <trkpt lat="28.7209950" lon="-17.7358280">
        <ele>57.2</ele>
        <time>2020-11-15T23:00:09Z</time>
      </trkpt>
      <trkpt lat="28.7209950" lon="-17.7358280">
        <ele>57.2</ele>
        <time>2020-11-15T23:00:10Z</time>
      </trkpt>
      <trkpt lat="28.7210380" lon="-17.7357630">
        <ele>57.5</ele>
        <time>2020-11-15T23:00:11Z</time>
      </trkpt>
      <trkpt lat="28.7210380" lon="-17.7357630">
        <ele>57.5</ele>
        <time>2020-11-15T23:00:12Z</time>
      </trkpt>
      <trkpt lat="28.7210680" lon="-17.7357050">
        <ele>57.8</ele>
        <time>2020-11-15T23:00:13Z</time>
      </trkpt>
      <trkpt lat="28.7210680" lon="-17.7357050">
        <ele>57.8</ele>
        <time>2020-11-15T23:00:14Z</time>
      </trkpt>
      <trkpt lat="28.7210950" lon="-17.7356620">
        <ele>58.1</ele>
        <time>2020-11-15T23:00:15Z</time>
      </trkpt>
      <trkpt lat="28.7210950" lon="-17.7356620">
        <ele>58.1</ele>
        <time>2020-11-15T23:00:16Z</time>
      </trkpt>
      <trkpt lat="28.7211220" lon="-17.7356200">
        <ele>58.3</ele>
        <time>2020-11-15T23:00:17Z</time>
      </trkpt>
      <trkpt lat="28.7211350" lon="-17.7356000">
        <ele>58.5</ele>
        <time>2020-11-15T23:00:18Z</time>
      </trkpt>
      <trkpt lat="28.7211350" lon="-17.7356000">
        <ele>58.5</ele>
        <time>2020-11-15T23:00:19Z</time>
      </trkpt>
      <trkpt lat="28.7211670" lon="-17.7355630">
        <ele>58.7</ele>
        <time>2020-11-15T23:00:20Z</time>
      </trkpt>
      <trkpt lat="28.7211820" lon="-17.7355550">
        <ele>58.9</ele>
        <time>2020-11-15T23:00:21Z</time>
      </trkpt>
      <trkpt lat="28.7211820" lon="-17.7355550">
        <ele>58.9</ele>
        <time>2020-11-15T23:00:22Z</time>
      </trkpt>
      <trkpt lat="28.7212150" lon="-17.7355270">
        <ele>59.1</ele>
        <time>2020-11-15T23:00:23Z</time>
      </trkpt>
      <trkpt lat="28.7212150" lon="-17.7355270">
        <ele>59.1</ele>
        <time>2020-11-15T23:00:24Z</time>
      </trkpt>
      <trkpt lat="28.7212480" lon="-17.7355000">
        <ele>59.4</ele>
        <time>2020-11-15T23:00:25Z</time>
      </trkpt>
      <trkpt lat="28.7212480" lon="-17.7355000">
        <ele>59.4</ele>
        <time>2020-11-15T23:00:26Z</time>
      </trkpt>
      <trkpt lat="28.7212800" lon="-17.7354630">
        <ele>59.6</ele>
        <time>2020-11-15T23:00:27Z</time>
      </trkpt>
      <trkpt lat="28.7212800" lon="-17.7354630">
        <ele>59.6</ele>
        <time>2020-11-15T23:00:28Z</time>
      </trkpt>
      <trkpt lat="28.7213150" lon="-17.7354330">
        <ele>59.9</ele>
        <time>2020-11-15T23:00:29Z</time>
      </trkpt>
      <trkpt lat="28.7213150" lon="-17.7354330">
        <ele>59.9</ele>
        <time>2020-11-15T23:00:30Z</time>
      </trkpt>
      <trkpt lat="28.7213500" lon="-17.7354050">
        <ele>60.1</ele>
        <time>2020-11-15T23:00:31Z</time>
      </trkpt>
      <trkpt lat="28.7213500" lon="-17.7354050">
        <ele>60.1</ele>
        <time>2020-11-15T23:00:32Z</time>
      </trkpt>
      <trkpt lat="28.7213850" lon="-17.7353780">
        <ele>60.4</ele>
        <time>2020-11-15T23:00:33Z</time>
      </trkpt>
      <trkpt lat="28.7214020" lon="-17.7353630">
        <ele>60.5</ele>
        <time>2020-11-15T23:00:34Z</time>
      </trkpt>
      <trkpt lat="28.7214020" lon="-17.7353630">
        <ele>60.5</ele>
        <time>2020-11-15T23:00:35Z</time>
      </trkpt>
      <trkpt lat="28.7214370" lon="-17.7353350">
        <ele>60.9</ele>
        <time>2020-11-15T23:00:36Z</time>
      </trkpt>
      <trkpt lat="28.7214370" lon="-17.7353350">
        <ele>60.9</ele>
        <time>2020-11-15T23:00:37Z</time>
      </trkpt>
      <trkpt lat="28.7214700" lon="-17.7353070">
        <ele>61.6</ele>
        <time>2020-11-15T23:00:38Z</time>
      </trkpt>
      <trkpt lat="28.7214870" lon="-17.7352850">
        <ele>62.0</ele>
        <time>2020-11-15T23:00:39Z</time>
      </trkpt>
      <trkpt lat="28.7214870" lon="-17.7352850">
        <ele>62.0</ele>
        <time>2020-11-15T23:00:40Z</time>
      </trkpt>
      <trkpt lat="28.7215200" lon="-17.7352530">
        <ele>62.8</ele>
        <time>2020-11-15T23:00:41Z</time>
      </trkpt>
      <trkpt lat="28.7215200" lon="-17.7352530">
        <ele>62.8</ele>
        <time>2020-11-15T23:00:42Z</time>
      </trkpt>
      <trkpt lat="28.7215520" lon="-17.7352170">
        <ele>63.5</ele>
        <time>2020-11-15T23:00:43Z</time>
      </trkpt>
      <trkpt lat="28.7215520" lon="-17.7352170">
        <ele>63.5</ele>
        <time>2020-11-15T23:00:44Z</time>
      </trkpt>
      <trkpt lat="28.7215870" lon="-17.7351800">
        <ele>64.3</ele>
        <time>2020-11-15T23:00:45Z</time>
      </trkpt>
      <trkpt lat="28.7215870" lon="-17.7351800">
        <ele>64.3</ele>
        <time>2020-11-15T23:00:46Z</time>
      </trkpt>
      <trkpt lat="28.7216250" lon="-17.7351480">
        <ele>65.1</ele>
        <time>2020-11-15T23:00:47Z</time>
      </trkpt>
      <trkpt lat="28.7216250" lon="-17.7351480">
        <ele>65.1</ele>
        <time>2020-11-15T23:00:48Z</time>
      </trkpt>
      <trkpt lat="28.7216670" lon="-17.7351220">
        <ele>65.9</ele>
        <time>2020-11-15T23:00:49Z</time>
      </trkpt>
      <trkpt lat="28.7216880" lon="-17.7351050">
        <ele>66.3</ele>
        <time>2020-11-15T23:00:50Z</time>
      </trkpt>
      <trkpt lat="28.7216880" lon="-17.7351050">
        <ele>66.3</ele>
        <time>2020-11-15T23:00:51Z</time>
      </trkpt>
      <trkpt lat="28.7217270" lon="-17.7350720">
        <ele>67.1</ele>
        <time>2020-11-15T23:00:52Z</time>
      </trkpt>
      <trkpt lat="28.7217470" lon="-17.7350530">
        <ele>67.5</ele>
        <time>2020-11-15T23:00:53Z</time>
      </trkpt>
      <trkpt lat="28.7217470" lon="-17.7350530">
        <ele>67.5</ele>
        <time>2020-11-15T23:00:54Z</time>
      </trkpt>
      <trkpt lat="28.7217880" lon="-17.7350170">
        <ele>68.3</ele>
        <time>2020-11-15T23:00:55Z</time>
      </trkpt>
      <trkpt lat="28.7217880" lon="-17.7350170">
        <ele>68.3</ele>
        <time>2020-11-15T23:00:56Z</time>
      </trkpt>
      <trkpt lat="28.7218320" lon="-17.7349880">
        <ele>68.4</ele>
        <time>2020-11-15T23:00:57Z</time>
      </trkpt>
      <trkpt lat="28.7218320" lon="-17.7349880">
        <ele>68.4</ele>
        <time>2020-11-15T23:00:58Z</time>
      </trkpt>
      <trkpt lat="28.7218750" lon="-17.7349580">
        <ele>68.6</ele>
        <time>2020-11-15T23:00:59Z</time>
      </trkpt>
      <trkpt lat="28.7218750" lon="-17.7349580">
        <ele>68.6</ele>
        <time>2020-11-15T23:01:00Z</time>
      </trkpt>
      <trkpt lat="28.7219150" lon="-17.7349220">
        <ele>68.8</ele>
        <time>2020-11-15T23:01:01Z</time>
      </trkpt>
      <trkpt lat="28.7219150" lon="-17.7349220">
        <ele>68.8</ele>
        <time>2020-11-15T23:01:02Z</time>
      </trkpt>
      <trkpt lat="28.7219570" lon="-17.7348850">
        <ele>69.0</ele>
        <time>2020-11-15T23:01:03Z</time>
      </trkpt>
      <trkpt lat="28.7219570" lon="-17.7348850">
        <ele>69.0</ele>
        <time>2020-11-15T23:01:04Z</time>
      </trkpt>
      <trkpt lat="28.7220030" lon="-17.7348550">
        <ele>69.2</ele>
        <time>2020-11-15T23:01:05Z</time>
      </trkpt>
      <trkpt lat="28.7220030" lon="-17.7348550">
        <ele>69.2</ele>
        <time>2020-11-15T23:01:06Z</time>
      </trkpt>
      <trkpt lat="28.7220470" lon="-17.7348280">
        <ele>69.4</ele>
        <time>2020-11-15T23:01:07Z</time>
      </trkpt>
      <trkpt lat="28.7220470" lon="-17.7348280">
        <ele>69.4</ele>
        <time>2020-11-15T23:01:08Z</time>
      </trkpt>
      <trkpt lat="28.7220850" lon="-17.7347950">
        <ele>69.6</ele>
        <time>2020-11-15T23:01:09Z</time>
      </trkpt>
      <trkpt lat="28.7220850" lon="-17.7347950">
        <ele>69.6</ele>
        <time>2020-11-15T23:01:10Z</time>
      </trkpt>
      <trkpt lat="28.7221270" lon="-17.7347770">
        <ele>69.7</ele>
        <time>2020-11-15T23:01:11Z</time>
      </trkpt>
      <trkpt lat="28.7221270" lon="-17.7347770">
        <ele>69.7</ele>
        <time>2020-11-15T23:01:12Z</time>
      </trkpt>
      <trkpt lat="28.7221720" lon="-17.7347520">
        <ele>70.1</ele>
        <time>2020-11-15T23:01:13Z</time>
      </trkpt>
      <trkpt lat="28.7221720" lon="-17.7347520">
        <ele>70.1</ele>
        <time>2020-11-15T23:01:14Z</time>
      </trkpt>
      <trkpt lat="28.7222120" lon="-17.7347280">
        <ele>70.5</ele>
        <time>2020-11-15T23:01:15Z</time>
      </trkpt>
      <trkpt lat="28.7222120" lon="-17.7347280">
        <ele>70.5</ele>
        <time>2020-11-15T23:01:16Z</time>
      </trkpt>
      <trkpt lat="28.7222580" lon="-17.7347120">
        <ele>70.9</ele>
        <time>2020-11-15T23:01:17Z</time>
      </trkpt>
      <trkpt lat="28.7222580" lon="-17.7347120">
        <ele>70.9</ele>
        <time>2020-11-15T23:01:18Z</time>
      </trkpt>
      <trkpt lat="28.7223070" lon="-17.7347000">
        <ele>71.4</ele>
        <time>2020-11-15T23:01:19Z</time>
      </trkpt>
      <trkpt lat="28.7223070" lon="-17.7347000">
        <ele>71.4</ele>
        <time>2020-11-15T23:01:20Z</time>
      </trkpt>
      <trkpt lat="28.7223520" lon="-17.7347080">
        <ele>71.8</ele>
        <time>2020-11-15T23:01:21Z</time>
      </trkpt>
      <trkpt lat="28.7223520" lon="-17.7347080">
        <ele>71.8</ele>
        <time>2020-11-15T23:01:22Z</time>
      </trkpt>
      <trkpt lat="28.7223930" lon="-17.7347070">
        <ele>72.2</ele>
        <time>2020-11-15T23:01:23Z</time>
      </trkpt>
      <trkpt lat="28.7224150" lon="-17.7347000">
        <ele>72.4</ele>
        <time>2020-11-15T23:01:24Z</time>
      </trkpt>
      <trkpt lat="28.7224150" lon="-17.7347000">
        <ele>72.4</ele>
        <time>2020-11-15T23:01:25Z</time>
      </trkpt>
      <trkpt lat="28.7224580" lon="-17.7346930">
        <ele>72.7</ele>
        <time>2020-11-15T23:01:26Z</time>
      </trkpt>
      <trkpt lat="28.7224800" lon="-17.7346920">
        <ele>72.9</ele>
        <time>2020-11-15T23:01:27Z</time>
      </trkpt>
      <trkpt lat="28.7224800" lon="-17.7346920">
        <ele>72.9</ele>
        <time>2020-11-15T23:01:28Z</time>
      </trkpt>
      <trkpt lat="28.7225280" lon="-17.7346880">
        <ele>73.4</ele>
        <time>2020-11-15T23:01:29Z</time>
      </trkpt>
      <trkpt lat="28.7225280" lon="-17.7346880">
        <ele>73.4</ele>
        <time>2020-11-15T23:01:30Z</time>
      </trkpt>
      <trkpt lat="28.7225680" lon="-17.7346870">
        <ele>73.7</ele>
        <time>2020-11-15T23:01:31Z</time>
      </trkpt>
      <trkpt lat="28.7225680" lon="-17.7346870">
        <ele>73.7</ele>
        <time>2020-11-15T23:01:32Z</time>
      </trkpt>
      <trkpt lat="28.7226100" lon="-17.7346820">
        <ele>74.1</ele>
        <time>2020-11-15T23:01:33Z</time>
      </trkpt>
      <trkpt lat="28.7226100" lon="-17.7346820">
        <ele>74.1</ele>
        <time>2020-11-15T23:01:34Z</time>
      </trkpt>
      <trkpt lat="28.7226530" lon="-17.7346700">
        <ele>74.5</ele>
        <time>2020-11-15T23:01:35Z</time>
      </trkpt>
      <trkpt lat="28.7226530" lon="-17.7346700">
        <ele>74.5</ele>
        <time>2020-11-15T23:01:36Z</time>
      </trkpt>
      <trkpt lat="28.7226930" lon="-17.7346630">
        <ele>74.9</ele>
        <time>2020-11-15T23:01:37Z</time>
      </trkpt>
      <trkpt lat="28.7226930" lon="-17.7346630">
        <ele>74.9</ele>
        <time>2020-11-15T23:01:38Z</time>
      </trkpt>
      <trkpt lat="28.7227330" lon="-17.7346580">
        <ele>75.3</ele>
        <time>2020-11-15T23:01:39Z</time>
      </trkpt>
      <trkpt lat="28.7227330" lon="-17.7346580">
        <ele>75.3</ele>
        <time>2020-11-15T23:01:40Z</time>
      </trkpt>
      <trkpt lat="28.7227730" lon="-17.7346580">
        <ele>75.7</ele>
        <time>2020-11-15T23:01:41Z</time>
      </trkpt>
      <trkpt lat="28.7227730" lon="-17.7346580">
        <ele>75.7</ele>
        <time>2020-11-15T23:01:42Z</time>
      </trkpt>
      <trkpt lat="28.7228100" lon="-17.7346570">
        <ele>76.0</ele>
        <time>2020-11-15T23:01:43Z</time>
      </trkpt>
      <trkpt lat="28.7228100" lon="-17.7346570">
        <ele>76.0</ele>
        <time>2020-11-15T23:01:44Z</time>
      </trkpt>
      <trkpt lat="28.7228480" lon="-17.7346620">
        <ele>76.4</ele>
        <time>2020-11-15T23:01:45Z</time>
      </trkpt>
      <trkpt lat="28.7228670" lon="-17.7346530">
        <ele>76.6</ele>
        <time>2020-11-15T23:01:46Z</time>
      </trkpt>
      <trkpt lat="28.7228670" lon="-17.7346530">
        <ele>76.6</ele>
        <time>2020-11-15T23:01:47Z</time>
      </trkpt>
      <trkpt lat="28.7229080" lon="-17.7346430">
        <ele>77.0</ele>
        <time>2020-11-15T23:01:48Z</time>
      </trkpt>
      <trkpt lat="28.7229270" lon="-17.7346400">
        <ele>77.2</ele>
        <time>2020-11-15T23:01:49Z</time>
      </trkpt>
      <trkpt lat="28.7229270" lon="-17.7346400">
        <ele>77.2</ele>
        <time>2020-11-15T23:01:50Z</time>
      </trkpt>
      <trkpt lat="28.7229650" lon="-17.7346320">
        <ele>77.5</ele>
        <time>2020-11-15T23:01:51Z</time>
      </trkpt>
      <trkpt lat="28.7229650" lon="-17.7346320">
        <ele>77.5</ele>
        <time>2020-11-15T23:01:52Z</time>
      </trkpt>
      <trkpt lat="28.7230020" lon="-17.7346250">
        <ele>77.8</ele>
        <time>2020-11-15T23:01:53Z</time>
      </trkpt>
      <trkpt lat="28.7230200" lon="-17.7346270">
        <ele>78.0</ele>
        <time>2020-11-15T23:01:54Z</time>
      </trkpt>
      <trkpt lat="28.7230200" lon="-17.7346270">
        <ele>78.0</ele>
        <time>2020-11-15T23:01:55Z</time>
      </trkpt>
      <trkpt lat="28.7230620" lon="-17.7346270">
        <ele>78.3</ele>
        <time>2020-11-15T23:01:56Z</time>
      </trkpt>
      <trkpt lat="28.7230620" lon="-17.7346270">
        <ele>78.3</ele>
        <time>2020-11-15T23:01:57Z</time>
      </trkpt>
      <trkpt lat="28.7231020" lon="-17.7346280">
        <ele>78.6</ele>
        <time>2020-11-15T23:01:58Z</time>
      </trkpt>
      <trkpt lat="28.7231020" lon="-17.7346280">
        <ele>78.6</ele>
        <time>2020-11-15T23:01:59Z</time>
      </trkpt>
      <trkpt lat="28.7231430" lon="-17.7346270">
        <ele>78.9</ele>
        <time>2020-11-15T23:02:00Z</time>
      </trkpt>
      <trkpt lat="28.7231620" lon="-17.7346230">
        <ele>79.1</ele>
        <time>2020-11-15T23:02:01Z</time>
      </trkpt>
      <trkpt lat="28.7231620" lon="-17.7346230">
        <ele>79.1</ele>
        <time>2020-11-15T23:02:02Z</time>
      </trkpt>
      <trkpt lat="28.7232020" lon="-17.7346080">
        <ele>79.4</ele>
        <time>2020-11-15T23:02:03Z</time>
      </trkpt>
      <trkpt lat="28.7232020" lon="-17.7346080">
        <ele>79.4</ele>
        <time>2020-11-15T23:02:04Z</time>
      </trkpt>
      <trkpt lat="28.7232450" lon="-17.7345980">
        <ele>79.7</ele>
        <time>2020-11-15T23:02:05Z</time>
      </trkpt>
      <trkpt lat="28.7232670" lon="-17.7345950">
        <ele>79.9</ele>
        <time>2020-11-15T23:02:06Z</time>
      </trkpt>
      <trkpt lat="28.7232850" lon="-17.7345920">
        <ele>80.0</ele>
        <time>2020-11-15T23:02:07Z</time>
      </trkpt>
      <trkpt lat="28.7232850" lon="-17.7345920">
        <ele>80.0</ele>
        <time>2020-11-15T23:02:08Z</time>
      </trkpt>
      <trkpt lat="28.7233280" lon="-17.7345880">
        <ele>80.3</ele>
        <time>2020-11-15T23:02:09Z</time>
      </trkpt>
      <trkpt lat="28.7233480" lon="-17.7345820">
        <ele>80.4</ele>
        <time>2020-11-15T23:02:10Z</time>
      </trkpt>
      <trkpt lat="28.7233480" lon="-17.7345820">
        <ele>80.4</ele>
        <time>2020-11-15T23:02:11Z</time>
      </trkpt>
      <trkpt lat="28.7233950" lon="-17.7345750">
        <ele>80.7</ele>
        <time>2020-11-15T23:02:12Z</time>
      </trkpt>
      <trkpt lat="28.7234200" lon="-17.7345750">
        <ele>80.9</ele>
        <time>2020-11-15T23:02:13Z</time>
      </trkpt>
      <trkpt lat="28.7234200" lon="-17.7345750">
        <ele>80.9</ele>
        <time>2020-11-15T23:02:14Z</time>
      </trkpt>
      <trkpt lat="28.7234720" lon="-17.7345650">
        <ele>81.2</ele>
        <time>2020-11-15T23:02:15Z</time>
      </trkpt>
      <trkpt lat="28.7234950" lon="-17.7345570">
        <ele>81.4</ele>
        <time>2020-11-15T23:02:16Z</time>
      </trkpt>
      <trkpt lat="28.7235170" lon="-17.7345500">
        <ele>81.6</ele>
        <time>2020-11-15T23:02:17Z</time>
      </trkpt>
      <trkpt lat="28.7235170" lon="-17.7345500">
        <ele>81.6</ele>
        <time>2020-11-15T23:02:18Z</time>
      </trkpt>
      <trkpt lat="28.7235570" lon="-17.7345400">
        <ele>81.8</ele>
        <time>2020-11-15T23:02:19Z</time>
      </trkpt>
      <trkpt lat="28.7235570" lon="-17.7345400">
        <ele>81.8</ele>
        <time>2020-11-15T23:02:20Z</time>
      </trkpt>
      <trkpt lat="28.7235980" lon="-17.7345350">
        <ele>82.1</ele>
        <time>2020-11-15T23:02:21Z</time>
      </trkpt>
      <trkpt lat="28.7235980" lon="-17.7345350">
        <ele>82.1</ele>
        <time>2020-11-15T23:02:22Z</time>
      </trkpt>
      <trkpt lat="28.7236450" lon="-17.7345300">
        <ele>82.4</ele>
        <time>2020-11-15T23:02:23Z</time>
      </trkpt>
      <trkpt lat="28.7236450" lon="-17.7345300">
        <ele>82.4</ele>
        <time>2020-11-15T23:02:24Z</time>
      </trkpt>
      <trkpt lat="28.7236920" lon="-17.7345170">
        <ele>82.7</ele>
        <time>2020-11-15T23:02:25Z</time>
      </trkpt>
      <trkpt lat="28.7236920" lon="-17.7345170">
        <ele>82.7</ele>
        <time>2020-11-15T23:02:26Z</time>
      </trkpt>
      <trkpt lat="28.7237430" lon="-17.7345130">
        <ele>83.0</ele>
        <time>2020-11-15T23:02:27Z</time>
      </trkpt>
      <trkpt lat="28.7237430" lon="-17.7345130">
        <ele>83.0</ele>
        <time>2020-11-15T23:02:28Z</time>
      </trkpt>
      <trkpt lat="28.7237950" lon="-17.7345100">
        <ele>83.3</ele>
        <time>2020-11-15T23:02:29Z</time>
      </trkpt>
      <trkpt lat="28.7237950" lon="-17.7345100">
        <ele>83.3</ele>
        <time>2020-11-15T23:02:30Z</time>
      </trkpt>
      <trkpt lat="28.7238420" lon="-17.7344980">
        <ele>83.6</ele>
        <time>2020-11-15T23:02:31Z</time>
      </trkpt>
      <trkpt lat="28.7238670" lon="-17.7344920">
        <ele>83.8</ele>
        <time>2020-11-15T23:02:32Z</time>
      </trkpt>
      <trkpt lat="28.7238670" lon="-17.7344920">
        <ele>83.8</ele>
        <time>2020-11-15T23:02:33Z</time>
      </trkpt>
      <trkpt lat="28.7239200" lon="-17.7344850">
        <ele>84.1</ele>
        <time>2020-11-15T23:02:34Z</time>
      </trkpt>
      <trkpt lat="28.7239200" lon="-17.7344850">
        <ele>84.1</ele>
        <time>2020-11-15T23:02:35Z</time>
      </trkpt>
      <trkpt lat="28.7239720" lon="-17.7344730">
        <ele>84.4</ele>
        <time>2020-11-15T23:02:36Z</time>
      </trkpt>
      <trkpt lat="28.7239720" lon="-17.7344730">
        <ele>84.4</ele>
        <time>2020-11-15T23:02:37Z</time>
      </trkpt>
      <trkpt lat="28.7240250" lon="-17.7344630">
        <ele>84.7</ele>
        <time>2020-11-15T23:02:38Z</time>
      </trkpt>
      <trkpt lat="28.7240520" lon="-17.7344570">
        <ele>84.9</ele>
        <time>2020-11-15T23:02:39Z</time>
      </trkpt>
      <trkpt lat="28.7240520" lon="-17.7344570">
        <ele>84.9</ele>
        <time>2020-11-15T23:02:40Z</time>
      </trkpt>
      <trkpt lat="28.7241000" lon="-17.7344430">
        <ele>85.1</ele>
        <time>2020-11-15T23:02:41Z</time>
      </trkpt>
      <trkpt lat="28.7241270" lon="-17.7344350">
        <ele>85.3</ele>
        <time>2020-11-15T23:02:42Z</time>
      </trkpt>
      <trkpt lat="28.7241270" lon="-17.7344350">
        <ele>85.3</ele>
        <time>2020-11-15T23:02:43Z</time>
      </trkpt>
      <trkpt lat="28.7241770" lon="-17.7344200">
        <ele>85.6</ele>
        <time>2020-11-15T23:02:44Z</time>
      </trkpt>
      <trkpt lat="28.7242020" lon="-17.7344130">
        <ele>85.6</ele>
        <time>2020-11-15T23:02:45Z</time>
      </trkpt>
      <trkpt lat="28.7242020" lon="-17.7344130">
        <ele>85.6</ele>
        <time>2020-11-15T23:02:46Z</time>
      </trkpt>
      <trkpt lat="28.7242500" lon="-17.7343970">
        <ele>85.8</ele>
        <time>2020-11-15T23:02:47Z</time>
      </trkpt>
      <trkpt lat="28.7242500" lon="-17.7343970">
        <ele>85.8</ele>
        <time>2020-11-15T23:02:48Z</time>
      </trkpt>
      <trkpt lat="28.7243020" lon="-17.7343900">
        <ele>85.9</ele>
        <time>2020-11-15T23:02:49Z</time>
      </trkpt>
      <trkpt lat="28.7243020" lon="-17.7343900">
        <ele>85.9</ele>
        <time>2020-11-15T23:02:50Z</time>
      </trkpt>
      <trkpt lat="28.7243550" lon="-17.7343780">
        <ele>86.0</ele>
        <time>2020-11-15T23:02:51Z</time>
      </trkpt>
      <trkpt lat="28.7243550" lon="-17.7343780">
        <ele>86.0</ele>
        <time>2020-11-15T23:02:52Z</time>
      </trkpt>
      <trkpt lat="28.7244100" lon="-17.7343730">
        <ele>86.2</ele>
        <time>2020-11-15T23:02:53Z</time>
      </trkpt>
      <trkpt lat="28.7244100" lon="-17.7343730">
        <ele>86.2</ele>
        <time>2020-11-15T23:02:54Z</time>
      </trkpt>
      <trkpt lat="28.7244630" lon="-17.7343700">
        <ele>86.3</ele>
        <time>2020-11-15T23:02:55Z</time>
      </trkpt>
      <trkpt lat="28.7244630" lon="-17.7343700">
        <ele>86.3</ele>
        <time>2020-11-15T23:02:56Z</time>
      </trkpt>
      <trkpt lat="28.7245170" lon="-17.7343630">
        <ele>86.5</ele>
        <time>2020-11-15T23:02:57Z</time>
      </trkpt>
      <trkpt lat="28.7245430" lon="-17.7343580">
        <ele>86.5</ele>
        <time>2020-11-15T23:02:58Z</time>
      </trkpt>
      <trkpt lat="28.7245430" lon="-17.7343580">
        <ele>86.5</ele>
        <time>2020-11-15T23:02:59Z</time>
      </trkpt>
      <trkpt lat="28.7245980" lon="-17.7343470">
        <ele>86.8</ele>
        <time>2020-11-15T23:03:00Z</time>
      </trkpt>
      <trkpt lat="28.7246270" lon="-17.7343420">
        <ele>87.0</ele>
        <time>2020-11-15T23:03:01Z</time>
      </trkpt>
      <trkpt lat="28.7246270" lon="-17.7343420">
        <ele>87.0</ele>
        <time>2020-11-15T23:03:02Z</time>
      </trkpt>
      <trkpt lat="28.7246830" lon="-17.7343320">
        <ele>87.3</ele>
        <time>2020-11-15T23:03:03Z</time>
      </trkpt>
      <trkpt lat="28.7247100" lon="-17.7343270">
        <ele>87.5</ele>
        <time>2020-11-15T23:03:04Z</time>
      </trkpt>
      <trkpt lat="28.7247350" lon="-17.7343230">
        <ele>87.6</ele>
        <time>2020-11-15T23:03:05Z</time>
      </trkpt>
      <trkpt lat="28.7247350" lon="-17.7343230">
        <ele>87.6</ele>
        <time>2020-11-15T23:03:06Z</time>
      </trkpt>
      <trkpt lat="28.7247920" lon="-17.7343150">
        <ele>87.9</ele>
        <time>2020-11-15T23:03:07Z</time>
      </trkpt>
      <trkpt lat="28.7247920" lon="-17.7343150">
        <ele>87.9</ele>
        <time>2020-11-15T23:03:08Z</time>
      </trkpt>
      <trkpt lat="28.7248470" lon="-17.7343120">
        <ele>88.2</ele>
        <time>2020-11-15T23:03:09Z</time>
      </trkpt>
      <trkpt lat="28.7248470" lon="-17.7343120">
        <ele>88.2</ele>
        <time>2020-11-15T23:03:10Z</time>
      </trkpt>
      <trkpt lat="28.7249020" lon="-17.7343100">
        <ele>88.5</ele>
        <time>2020-11-15T23:03:11Z</time>
      </trkpt>
      <trkpt lat="28.7249020" lon="-17.7343100">
        <ele>88.5</ele>
        <time>2020-11-15T23:03:12Z</time>
      </trkpt>
      <trkpt lat="28.7249600" lon="-17.7343080">
        <ele>88.9</ele>
        <time>2020-11-15T23:03:13Z</time>
      </trkpt>
      <trkpt lat="28.7249920" lon="-17.7343100">
        <ele>89.0</ele>
        <time>2020-11-15T23:03:14Z</time>
      </trkpt>
      <trkpt lat="28.7249920" lon="-17.7343100">
        <ele>89.0</ele>
        <time>2020-11-15T23:03:15Z</time>
      </trkpt>
      <trkpt lat="28.7250450" lon="-17.7343170">
        <ele>89.4</ele>
        <time>2020-11-15T23:03:16Z</time>
      </trkpt>
      <trkpt lat="28.7250450" lon="-17.7343170">
        <ele>89.4</ele>
        <time>2020-11-15T23:03:17Z</time>
      </trkpt>
      <trkpt lat="28.7251030" lon="-17.7343170">
        <ele>89.7</ele>
        <time>2020-11-15T23:03:18Z</time>
      </trkpt>
      <trkpt lat="28.7251300" lon="-17.7343100">
        <ele>89.9</ele>
        <time>2020-11-15T23:03:19Z</time>
      </trkpt>
      <trkpt lat="28.7251300" lon="-17.7343100">
        <ele>89.9</ele>
        <time>2020-11-15T23:03:20Z</time>
      </trkpt>
      <trkpt lat="28.7251850" lon="-17.7343070">
        <ele>90.2</ele>
        <time>2020-11-15T23:03:21Z</time>
      </trkpt>
      <trkpt lat="28.7251850" lon="-17.7343070">
        <ele>90.2</ele>
        <time>2020-11-15T23:03:22Z</time>
      </trkpt>
      <trkpt lat="28.7252380" lon="-17.7342930">
        <ele>90.5</ele>
        <time>2020-11-15T23:03:23Z</time>
      </trkpt>
      <trkpt lat="28.7252380" lon="-17.7342930">
        <ele>90.5</ele>
        <time>2020-11-15T23:03:24Z</time>
      </trkpt>
      <trkpt lat="28.7252930" lon="-17.7343020">
        <ele>90.8</ele>
        <time>2020-11-15T23:03:25Z</time>
      </trkpt>
      <trkpt lat="28.7252930" lon="-17.7343020">
        <ele>90.8</ele>
        <time>2020-11-15T23:03:26Z</time>
      </trkpt>
      <trkpt lat="28.7253520" lon="-17.7343020">
        <ele>91.2</ele>
        <time>2020-11-15T23:03:27Z</time>
      </trkpt>
      <trkpt lat="28.7253520" lon="-17.7343020">
        <ele>91.2</ele>
        <time>2020-11-15T23:03:28Z</time>
      </trkpt>
      <trkpt lat="28.7254120" lon="-17.7342980">
        <ele>91.5</ele>
        <time>2020-11-15T23:03:29Z</time>
      </trkpt>
      <trkpt lat="28.7254120" lon="-17.7342980">
        <ele>91.5</ele>
        <time>2020-11-15T23:03:30Z</time>
      </trkpt>
      <trkpt lat="28.7254730" lon="-17.7342920">
        <ele>91.9</ele>
        <time>2020-11-15T23:03:31Z</time>
      </trkpt>
      <trkpt lat="28.7254730" lon="-17.7342920">
        <ele>91.9</ele>
        <time>2020-11-15T23:03:32Z</time>
      </trkpt>
      <trkpt lat="28.7255280" lon="-17.7342870">
        <ele>92.3</ele>
        <time>2020-11-15T23:03:33Z</time>
      </trkpt>
      <trkpt lat="28.7255280" lon="-17.7342870">
        <ele>92.3</ele>
        <time>2020-11-15T23:03:34Z</time>
      </trkpt>
      <trkpt lat="28.7255830" lon="-17.7342920">
        <ele>92.7</ele>
        <time>2020-11-15T23:03:35Z</time>
      </trkpt>
      <trkpt lat="28.7255830" lon="-17.7342920">
        <ele>92.7</ele>
        <time>2020-11-15T23:03:36Z</time>
      </trkpt>
      <trkpt lat="28.7256350" lon="-17.7342930">
        <ele>93.0</ele>
        <time>2020-11-15T23:03:37Z</time>
      </trkpt>
      <trkpt lat="28.7256350" lon="-17.7342930">
        <ele>93.0</ele>
        <time>2020-11-15T23:03:38Z</time>
      </trkpt>
      <trkpt lat="28.7256850" lon="-17.7343070">
        <ele>93.4</ele>
        <time>2020-11-15T23:03:39Z</time>
      </trkpt>
      <trkpt lat="28.7256850" lon="-17.7343070">
        <ele>93.4</ele>
        <time>2020-11-15T23:03:40Z</time>
      </trkpt>
      <trkpt lat="28.7257320" lon="-17.7343280">
        <ele>93.8</ele>
        <time>2020-11-15T23:03:41Z</time>
      </trkpt>
      <trkpt lat="28.7257320" lon="-17.7343280">
        <ele>93.8</ele>
        <time>2020-11-15T23:03:42Z</time>
      </trkpt>
      <trkpt lat="28.7257780" lon="-17.7343450">
        <ele>94.2</ele>
        <time>2020-11-15T23:03:43Z</time>
      </trkpt>
      <trkpt lat="28.7257780" lon="-17.7343450">
        <ele>94.2</ele>
        <time>2020-11-15T23:03:44Z</time>
      </trkpt>
      <trkpt lat="28.7258230" lon="-17.7343680">
        <ele>94.7</ele>
        <time>2020-11-15T23:03:45Z</time>
      </trkpt>
      <trkpt lat="28.7258230" lon="-17.7343680">
        <ele>94.7</ele>
        <time>2020-11-15T23:03:46Z</time>
      </trkpt>
      <trkpt lat="28.7258630" lon="-17.7343950">
        <ele>95.1</ele>
        <time>2020-11-15T23:03:47Z</time>
      </trkpt>
      <trkpt lat="28.7258630" lon="-17.7343950">
        <ele>95.1</ele>
        <time>2020-11-15T23:03:48Z</time>
      </trkpt>
      <trkpt lat="28.7259050" lon="-17.7344220">
        <ele>95.6</ele>
        <time>2020-11-15T23:03:49Z</time>
      </trkpt>
      <trkpt lat="28.7259050" lon="-17.7344220">
        <ele>95.6</ele>
        <time>2020-11-15T23:03:50Z</time>
      </trkpt>
      <trkpt lat="28.7259480" lon="-17.7344600">
        <ele>96.1</ele>
        <time>2020-11-15T23:03:51Z</time>
      </trkpt>
      <trkpt lat="28.7259480" lon="-17.7344600">
        <ele>96.1</ele>
        <time>2020-11-15T23:03:52Z</time>
      </trkpt>
      <trkpt lat="28.7259830" lon="-17.7344880">
        <ele>96.5</ele>
        <time>2020-11-15T23:03:53Z</time>
      </trkpt>
      <trkpt lat="28.7259830" lon="-17.7344880">
        <ele>96.5</ele>
        <time>2020-11-15T23:03:54Z</time>
      </trkpt>
      <trkpt lat="28.7260180" lon="-17.7345180">
        <ele>96.9</ele>
        <time>2020-11-15T23:03:55Z</time>
      </trkpt>
      <trkpt lat="28.7260180" lon="-17.7345180">
        <ele>96.9</ele>
        <time>2020-11-15T23:03:56Z</time>
      </trkpt>
      <trkpt lat="28.7260500" lon="-17.7345480">
        <ele>97.3</ele>
        <time>2020-11-15T23:03:57Z</time>
      </trkpt>
      <trkpt lat="28.7260500" lon="-17.7345480">
        <ele>97.3</ele>
        <time>2020-11-15T23:03:58Z</time>
      </trkpt>
      <trkpt lat="28.7260850" lon="-17.7345780">
        <ele>97.8</ele>
        <time>2020-11-15T23:03:59Z</time>
      </trkpt>
      <trkpt lat="28.7261030" lon="-17.7345950">
        <ele>98.0</ele>
        <time>2020-11-15T23:04:00Z</time>
      </trkpt>
      <trkpt lat="28.7261030" lon="-17.7345950">
        <ele>98.0</ele>
        <time>2020-11-15T23:04:01Z</time>
      </trkpt>
      <trkpt lat="28.7261280" lon="-17.7346350">
        <ele>98.4</ele>
        <time>2020-11-15T23:04:02Z</time>
      </trkpt>
      <trkpt lat="28.7261280" lon="-17.7346350">
        <ele>98.4</ele>
        <time>2020-11-15T23:04:03Z</time>
      </trkpt>
      <trkpt lat="28.7261570" lon="-17.7346780">
        <ele>98.9</ele>
        <time>2020-11-15T23:04:04Z</time>
      </trkpt>
      <trkpt lat="28.7261570" lon="-17.7346780">
        <ele>98.9</ele>
        <time>2020-11-15T23:04:05Z</time>
      </trkpt>
      <trkpt lat="28.7261930" lon="-17.7347150">
        <ele>99.4</ele>
        <time>2020-11-15T23:04:06Z</time>
      </trkpt>
      <trkpt lat="28.7261930" lon="-17.7347150">
        <ele>99.4</ele>
        <time>2020-11-15T23:04:07Z</time>
      </trkpt>
      <trkpt lat="28.7262320" lon="-17.7347480">
        <ele>99.9</ele>
        <time>2020-11-15T23:04:08Z</time>
      </trkpt>
      <trkpt lat="28.7262320" lon="-17.7347480">
        <ele>99.9</ele>
        <time>2020-11-15T23:04:09Z</time>
      </trkpt>
      <trkpt lat="28.7262770" lon="-17.7347720">
        <ele>99.9</ele>
        <time>2020-11-15T23:04:10Z</time>
      </trkpt>
      <trkpt lat="28.7262770" lon="-17.7347720">
        <ele>99.9</ele>
        <time>2020-11-15T23:04:11Z</time>
      </trkpt>
      <trkpt lat="28.7263230" lon="-17.7347770">
        <ele>99.9</ele>
        <time>2020-11-15T23:04:12Z</time>
      </trkpt>
      <trkpt lat="28.7263480" lon="-17.7347720">
        <ele>99.9</ele>
        <time>2020-11-15T23:04:13Z</time>
      </trkpt>
      <trkpt lat="28.7263480" lon="-17.7347720">
        <ele>99.9</ele>
        <time>2020-11-15T23:04:14Z</time>
      </trkpt>
      <trkpt lat="28.7264020" lon="-17.7347470">
        <ele>99.9</ele>
        <time>2020-11-15T23:04:15Z</time>
      </trkpt>
      <trkpt lat="28.7264020" lon="-17.7347470">
        <ele>99.9</ele>
        <time>2020-11-15T23:04:16Z</time>
      </trkpt>
      <trkpt lat="28.7264430" lon="-17.7347150">
        <ele>99.9</ele>
        <time>2020-11-15T23:04:17Z</time>
      </trkpt>
      <trkpt lat="28.7264430" lon="-17.7347150">
        <ele>99.9</ele>
        <time>2020-11-15T23:04:18Z</time>
      </trkpt>
      <trkpt lat="28.7264730" lon="-17.7346680">
        <ele>99.9</ele>
        <time>2020-11-15T23:04:19Z</time>
      </trkpt>
      <trkpt lat="28.7264730" lon="-17.7346680">
        <ele>99.9</ele>
        <time>2020-11-15T23:04:20Z</time>
      </trkpt>
      <trkpt lat="28.7264970" lon="-17.7346250">
        <ele>99.9</ele>
        <time>2020-11-15T23:04:21Z</time>
      </trkpt>
      <trkpt lat="28.7264970" lon="-17.7346250">
        <ele>99.9</ele>
        <time>2020-11-15T23:04:22Z</time>
      </trkpt>
      <trkpt lat="28.7265170" lon="-17.7345770">
        <ele>99.9</ele>
        <time>2020-11-15T23:04:23Z</time>
      </trkpt>
      <trkpt lat="28.7265170" lon="-17.7345770">
        <ele>99.9</ele>
        <time>2020-11-15T23:04:24Z</time>
      </trkpt>
      <trkpt lat="28.7265350" lon="-17.7345170">
        <ele>99.9</ele>
        <time>2020-11-15T23:04:25Z</time>
      </trkpt>
      <trkpt lat="28.7265350" lon="-17.7345170">
        <ele>99.9</ele>
        <time>2020-11-15T23:04:26Z</time>
      </trkpt>
      <trkpt lat="28.7265530" lon="-17.7344650">
        <ele>99.9</ele>
        <time>2020-11-15T23:04:27Z</time>
      </trkpt>
      <trkpt lat="28.7265530" lon="-17.7344650">
        <ele>99.9</ele>
        <time>2020-11-15T23:04:28Z</time>
      </trkpt>
      <trkpt lat="28.7265800" lon="-17.7344150">
        <ele>100.0</ele>
        <time>2020-11-15T23:04:29Z</time>
      </trkpt>
      <trkpt lat="28.7265970" lon="-17.7343930">
        <ele>100.0</ele>
        <time>2020-11-15T23:04:30Z</time>
      </trkpt>
      <trkpt lat="28.7266170" lon="-17.7343770">
        <ele>100.0</ele>
        <time>2020-11-15T23:04:31Z</time>
      </trkpt>
      <trkpt lat="28.7266170" lon="-17.7343770">
        <ele>100.0</ele>
        <time>2020-11-15T23:04:32Z</time>
      </trkpt>
      <trkpt lat="28.7266630" lon="-17.7343520">
        <ele>100.1</ele>
        <time>2020-11-15T23:04:33Z</time>
      </trkpt>
      <trkpt lat="28.7266870" lon="-17.7343420">
        <ele>100.1</ele>
        <time>2020-11-15T23:04:34Z</time>
      </trkpt>
      <trkpt lat="28.7266870" lon="-17.7343420">
        <ele>100.1</ele>
        <time>2020-11-15T23:04:35Z</time>
      </trkpt>
      <trkpt lat="28.7267250" lon="-17.7343120">
        <ele>100.1</ele>
        <time>2020-11-15T23:04:36Z</time>
      </trkpt>
      <trkpt lat="28.7267450" lon="-17.7342950">
        <ele>100.2</ele>
        <time>2020-11-15T23:04:37Z</time>
      </trkpt>
      <trkpt lat="28.7267450" lon="-17.7342950">
        <ele>100.2</ele>
        <time>2020-11-15T23:04:38Z</time>
      </trkpt>
      <trkpt lat="28.7267830" lon="-17.7342630">
        <ele>100.2</ele>
        <time>2020-11-15T23:04:39Z</time>
      </trkpt>
      <trkpt lat="28.7267830" lon="-17.7342630">
        <ele>100.2</ele>
        <time>2020-11-15T23:04:40Z</time>
      </trkpt>
      <trkpt lat="28.7268300" lon="-17.7342570">
        <ele>100.2</ele>
        <time>2020-11-15T23:04:41Z</time>
      </trkpt>
      <trkpt lat="28.7268300" lon="-17.7342570">
        <ele>100.2</ele>
        <time>2020-11-15T23:04:42Z</time>
      </trkpt>
      <trkpt lat="28.7268830" lon="-17.7342530">
        <ele>101.6</ele>
        <time>2020-11-15T23:04:43Z</time>
      </trkpt>
      <trkpt lat="28.7268830" lon="-17.7342530">
        <ele>101.6</ele>
        <time>2020-11-15T23:04:44Z</time>
      </trkpt>
      <trkpt lat="28.7269320" lon="-17.7342500">
        <ele>102.9</ele>
        <time>2020-11-15T23:04:45Z</time>
      </trkpt>
      <trkpt lat="28.7269320" lon="-17.7342500">
        <ele>102.9</ele>
        <time>2020-11-15T23:04:46Z</time>
      </trkpt>
      <trkpt lat="28.7269800" lon="-17.7342580">
        <ele>104.1</ele>
        <time>2020-11-15T23:04:47Z</time>
      </trkpt>
      <trkpt lat="28.7270030" lon="-17.7342630">
        <ele>104.8</ele>
        <time>2020-11-15T23:04:48Z</time>
      </trkpt>
      <trkpt lat="28.7270280" lon="-17.7342700">
        <ele>105.4</ele>
        <time>2020-11-15T23:04:49Z</time>
      </trkpt>
      <trkpt lat="28.7270280" lon="-17.7342700">
        <ele>105.4</ele>
        <time>2020-11-15T23:04:50Z</time>
      </trkpt>
      <trkpt lat="28.7270780" lon="-17.7342800">
        <ele>106.7</ele>
        <time>2020-11-15T23:04:51Z</time>
      </trkpt>
      <trkpt lat="28.7270780" lon="-17.7342800">
        <ele>106.7</ele>
        <time>2020-11-15T23:04:52Z</time>
      </trkpt>
      <trkpt lat="28.7271250" lon="-17.7342970">
        <ele>108.0</ele>
        <time>2020-11-15T23:04:53Z</time>
      </trkpt>
      <trkpt lat="28.7271250" lon="-17.7342970">
        <ele>108.0</ele>
        <time>2020-11-15T23:04:54Z</time>
      </trkpt>
      <trkpt lat="28.7271750" lon="-17.7343050">
        <ele>109.2</ele>
        <time>2020-11-15T23:04:55Z</time>
      </trkpt>
      <trkpt lat="28.7271750" lon="-17.7343050">
        <ele>109.2</ele>
        <time>2020-11-15T23:04:56Z</time>
      </trkpt>
      <trkpt lat="28.7272270" lon="-17.7343150">
        <ele>110.6</ele>
        <time>2020-11-15T23:04:57Z</time>
      </trkpt>
      <trkpt lat="28.7272270" lon="-17.7343150">
        <ele>110.6</ele>
        <time>2020-11-15T23:04:58Z</time>
      </trkpt>
      <trkpt lat="28.7272770" lon="-17.7343270">
        <ele>111.0</ele>
        <time>2020-11-15T23:04:59Z</time>
      </trkpt>
      <trkpt lat="28.7273030" lon="-17.7343330">
        <ele>111.1</ele>
        <time>2020-11-15T23:05:00Z</time>
      </trkpt>
      <trkpt lat="28.7273280" lon="-17.7343380">
        <ele>111.2</ele>
        <time>2020-11-15T23:05:01Z</time>
      </trkpt>
      <trkpt lat="28.7273280" lon="-17.7343380">
        <ele>111.2</ele>
        <time>2020-11-15T23:05:02Z</time>
      </trkpt>
      <trkpt lat="28.7273830" lon="-17.7343470">
        <ele>111.4</ele>
        <time>2020-11-15T23:05:03Z</time>
      </trkpt>
      <trkpt lat="28.7273830" lon="-17.7343470">
        <ele>111.4</ele>
        <time>2020-11-15T23:05:04Z</time>
      </trkpt>
      <trkpt lat="28.7274350" lon="-17.7343570">
        <ele>111.6</ele>
        <time>2020-11-15T23:05:05Z</time>
      </trkpt>
      <trkpt lat="28.7274350" lon="-17.7343570">
        <ele>111.6</ele>
        <time>2020-11-15T23:05:06Z</time>
      </trkpt>
      <trkpt lat="28.7274870" lon="-17.7343620">
        <ele>111.9</ele>
        <time>2020-11-15T23:05:07Z</time>
      </trkpt>
      <trkpt lat="28.7274870" lon="-17.7343620">
        <ele>111.9</ele>
        <time>2020-11-15T23:05:08Z</time>
      </trkpt>
      <trkpt lat="28.7275380" lon="-17.7343580">
        <ele>112.1</ele>
        <time>2020-11-15T23:05:09Z</time>
      </trkpt>
      <trkpt lat="28.7275650" lon="-17.7343550">
        <ele>112.3</ele>
        <time>2020-11-15T23:05:10Z</time>
      </trkpt>
      <trkpt lat="28.7275650" lon="-17.7343550">
        <ele>112.3</ele>
        <time>2020-11-15T23:05:11Z</time>
      </trkpt>
      <trkpt lat="28.7276130" lon="-17.7343370">
        <ele>112.6</ele>
        <time>2020-11-15T23:05:12Z</time>
      </trkpt>
      <trkpt lat="28.7276130" lon="-17.7343370">
        <ele>112.6</ele>
        <time>2020-11-15T23:05:13Z</time>
      </trkpt>
      <trkpt lat="28.7276570" lon="-17.7343200">
        <ele>113.0</ele>
        <time>2020-11-15T23:05:14Z</time>
      </trkpt>
      <trkpt lat="28.7276570" lon="-17.7343200">
        <ele>113.0</ele>
        <time>2020-11-15T23:05:15Z</time>
      </trkpt>
      <trkpt lat="28.7276970" lon="-17.7343020">
        <ele>113.3</ele>
        <time>2020-11-15T23:05:16Z</time>
      </trkpt>
      <trkpt lat="28.7276970" lon="-17.7343020">
        <ele>113.3</ele>
        <time>2020-11-15T23:05:17Z</time>
      </trkpt>
      <trkpt lat="28.7277350" lon="-17.7342770">
        <ele>113.6</ele>
        <time>2020-11-15T23:05:18Z</time>
      </trkpt>
      <trkpt lat="28.7277530" lon="-17.7342620">
        <ele>113.8</ele>
        <time>2020-11-15T23:05:19Z</time>
      </trkpt>
      <trkpt lat="28.7277530" lon="-17.7342620">
        <ele>113.8</ele>
        <time>2020-11-15T23:05:20Z</time>
      </trkpt>
      <trkpt lat="28.7277980" lon="-17.7342400">
        <ele>114.3</ele>
        <time>2020-11-15T23:05:21Z</time>
      </trkpt>
      <trkpt lat="28.7277980" lon="-17.7342400">
        <ele>114.3</ele>
        <time>2020-11-15T23:05:22Z</time>
      </trkpt>
      <trkpt lat="28.7278430" lon="-17.7342200">
        <ele>114.7</ele>
        <time>2020-11-15T23:05:23Z</time>
      </trkpt>
      <trkpt lat="28.7278620" lon="-17.7342100">
        <ele>114.9</ele>
        <time>2020-11-15T23:05:24Z</time>
      </trkpt>
      <trkpt lat="28.7278780" lon="-17.7341970">
        <ele>115.1</ele>
        <time>2020-11-15T23:05:25Z</time>
      </trkpt>
      <trkpt lat="28.7278780" lon="-17.7341970">
        <ele>115.1</ele>
        <time>2020-11-15T23:05:26Z</time>
      </trkpt>
      <trkpt lat="28.7279080" lon="-17.7341650">
        <ele>115.4</ele>
        <time>2020-11-15T23:05:27Z</time>
      </trkpt>
      <trkpt lat="28.7279230" lon="-17.7341480">
        <ele>115.6</ele>
        <time>2020-11-15T23:05:28Z</time>
      </trkpt>
      <trkpt lat="28.7279400" lon="-17.7341320">
        <ele>115.7</ele>
        <time>2020-11-15T23:05:29Z</time>
      </trkpt>
      <trkpt lat="28.7279400" lon="-17.7341320">
        <ele>115.7</ele>
        <time>2020-11-15T23:05:30Z</time>
      </trkpt>
      <trkpt lat="28.7279680" lon="-17.7340930">
        <ele>116.0</ele>
        <time>2020-11-15T23:05:31Z</time>
      </trkpt>
      <trkpt lat="28.7279680" lon="-17.7340930">
        <ele>116.0</ele>
        <time>2020-11-15T23:05:32Z</time>
      </trkpt>
      <trkpt lat="28.7280000" lon="-17.7340650">
        <ele>116.3</ele>
        <time>2020-11-15T23:05:33Z</time>
      </trkpt>
      <trkpt lat="28.7280000" lon="-17.7340650">
        <ele>116.3</ele>
        <time>2020-11-15T23:05:34Z</time>
      </trkpt>
      <trkpt lat="28.7280370" lon="-17.7340430">
        <ele>116.5</ele>
        <time>2020-11-15T23:05:35Z</time>
      </trkpt>
      <trkpt lat="28.7280570" lon="-17.7340330">
        <ele>116.6</ele>
        <time>2020-11-15T23:05:36Z</time>
      </trkpt>
      <trkpt lat="28.7280570" lon="-17.7340330">
        <ele>116.6</ele>
        <time>2020-11-15T23:05:37Z</time>
      </trkpt>
      <trkpt lat="28.7280930" lon="-17.7340120">
        <ele>116.8</ele>
        <time>2020-11-15T23:05:38Z</time>
      </trkpt>
      <trkpt lat="28.7280930" lon="-17.7340120">
        <ele>116.8</ele>
        <time>2020-11-15T23:05:39Z</time>
      </trkpt>
      <trkpt lat="28.7281320" lon="-17.7339950">
        <ele>117.0</ele>
        <time>2020-11-15T23:05:40Z</time>
      </trkpt>
      <trkpt lat="28.7281320" lon="-17.7339950">
        <ele>117.0</ele>
        <time>2020-11-15T23:05:41Z</time>
      </trkpt>
      <trkpt lat="28.7281680" lon="-17.7339680">
        <ele>117.2</ele>
        <time>2020-11-15T23:05:42Z</time>
      </trkpt>
      <trkpt lat="28.7281680" lon="-17.7339680">
        <ele>117.2</ele>
        <time>2020-11-15T23:05:43Z</time>
      </trkpt>
      <trkpt lat="28.7282150" lon="-17.7339470">
        <ele>117.4</ele>
        <time>2020-11-15T23:05:44Z</time>
      </trkpt>
      <trkpt lat="28.7282150" lon="-17.7339470">
        <ele>117.4</ele>
        <time>2020-11-15T23:05:45Z</time>
      </trkpt>
      <trkpt lat="28.7282650" lon="-17.7339250">
        <ele>117.5</ele>
        <time>2020-11-15T23:05:46Z</time>
      </trkpt>
      <trkpt lat="28.7282650" lon="-17.7339250">
        <ele>117.5</ele>
        <time>2020-11-15T23:05:47Z</time>
      </trkpt>
      <trkpt lat="28.7283130" lon="-17.7339000">
        <ele>117.6</ele>
        <time>2020-11-15T23:05:48Z</time>
      </trkpt>
      <trkpt lat="28.7283380" lon="-17.7338900">
        <ele>117.7</ele>
        <time>2020-11-15T23:05:49Z</time>
      </trkpt>
      <trkpt lat="28.7283380" lon="-17.7338900">
        <ele>117.7</ele>
        <time>2020-11-15T23:05:50Z</time>
      </trkpt>
      <trkpt lat="28.7283930" lon="-17.7338730">
        <ele>117.7</ele>
        <time>2020-11-15T23:05:51Z</time>
      </trkpt>
      <trkpt lat="28.7283930" lon="-17.7338730">
        <ele>117.7</ele>
        <time>2020-11-15T23:05:52Z</time>
      </trkpt>
      <trkpt lat="28.7284480" lon="-17.7338520">
        <ele>117.8</ele>
        <time>2020-11-15T23:05:53Z</time>
      </trkpt>
      <trkpt lat="28.7284480" lon="-17.7338520">
        <ele>117.8</ele>
        <time>2020-11-15T23:05:54Z</time>
      </trkpt>
      <trkpt lat="28.7285020" lon="-17.7338250">
        <ele>117.9</ele>
        <time>2020-11-15T23:05:55Z</time>
      </trkpt>
      <trkpt lat="28.7285020" lon="-17.7338250">
        <ele>117.9</ele>
        <time>2020-11-15T23:05:56Z</time>
      </trkpt>
      <trkpt lat="28.7285570" lon="-17.7338100">
        <ele>118.0</ele>
        <time>2020-11-15T23:05:57Z</time>
      </trkpt>
      <trkpt lat="28.7285570" lon="-17.7338100">
        <ele>118.0</ele>
        <time>2020-11-15T23:05:58Z</time>
      </trkpt>
      <trkpt lat="28.7286100" lon="-17.7337770">
        <ele>118.0</ele>
        <time>2020-11-15T23:05:59Z</time>
      </trkpt>
      <trkpt lat="28.7286100" lon="-17.7337770">
        <ele>118.0</ele>
        <time>2020-11-15T23:06:00Z</time>
      </trkpt>
      <trkpt lat="28.7286600" lon="-17.7337430">
        <ele>118.1</ele>
        <time>2020-11-15T23:06:01Z</time>
      </trkpt>
      <trkpt lat="28.7286600" lon="-17.7337430">
        <ele>118.1</ele>
        <time>2020-11-15T23:06:02Z</time>
      </trkpt>
      <trkpt lat="28.7287070" lon="-17.7337000">
        <ele>118.2</ele>
        <time>2020-11-15T23:06:03Z</time>
      </trkpt>
      <trkpt lat="28.7287070" lon="-17.7337000">
        <ele>118.2</ele>
        <time>2020-11-15T23:06:04Z</time>
      </trkpt>
      <trkpt lat="28.7287620" lon="-17.7336500">
        <ele>118.2</ele>
        <time>2020-11-15T23:06:05Z</time>
      </trkpt>
      <trkpt lat="28.7287620" lon="-17.7336500">
        <ele>118.2</ele>
        <time>2020-11-15T23:06:06Z</time>
      </trkpt>
      <trkpt lat="28.7288130" lon="-17.7335950">
        <ele>118.1</ele>
        <time>2020-11-15T23:06:07Z</time>
      </trkpt>
      <trkpt lat="28.7288130" lon="-17.7335950">
        <ele>118.1</ele>
        <time>2020-11-15T23:06:08Z</time>
      </trkpt>
      <trkpt lat="28.7288700" lon="-17.7335350">
        <ele>117.9</ele>
        <time>2020-11-15T23:06:09Z</time>
      </trkpt>
      <trkpt lat="28.7289000" lon="-17.7335050">
        <ele>117.8</ele>
        <time>2020-11-15T23:06:10Z</time>
      </trkpt>
      <trkpt lat="28.7289000" lon="-17.7335050">
        <ele>117.8</ele>
        <time>2020-11-15T23:06:11Z</time>
      </trkpt>
      <trkpt lat="28.7289680" lon="-17.7334480">
        <ele>117.6</ele>
        <time>2020-11-15T23:06:12Z</time>
      </trkpt>
      <trkpt lat="28.7290020" lon="-17.7334220">
        <ele>117.5</ele>
        <time>2020-11-15T23:06:13Z</time>
      </trkpt>
      <trkpt lat="28.7290020" lon="-17.7334220">
        <ele>117.5</ele>
        <time>2020-11-15T23:06:14Z</time>
      </trkpt>
      <trkpt lat="28.7290720" lon="-17.7333620">
        <ele>117.3</ele>
        <time>2020-11-15T23:06:15Z</time>
      </trkpt>
      <trkpt lat="28.7290720" lon="-17.7333620">
        <ele>117.3</ele>
        <time>2020-11-15T23:06:16Z</time>
      </trkpt>
      <trkpt lat="28.7291530" lon="-17.7333100">
        <ele>120.1</ele>
        <time>2020-11-15T23:06:17Z</time>
      </trkpt>
      <trkpt lat="28.7291530" lon="-17.7333100">
        <ele>120.1</ele>
        <time>2020-11-15T23:06:18Z</time>
      </trkpt>
      <trkpt lat="28.7292420" lon="-17.7332650">
        <ele>119.4</ele>
        <time>2020-11-15T23:06:19Z</time>
      </trkpt>
      <trkpt lat="28.7292420" lon="-17.7332650">
        <ele>119.4</ele>
        <time>2020-11-15T23:06:20Z</time>
      </trkpt>
      <trkpt lat="28.7293370" lon="-17.7332230">
        <ele>118.8</ele>
        <time>2020-11-15T23:06:21Z</time>
      </trkpt>
      <trkpt lat="28.7293370" lon="-17.7332230">
        <ele>118.8</ele>
        <time>2020-11-15T23:06:22Z</time>
      </trkpt>
      <trkpt lat="28.7294380" lon="-17.7331850">
        <ele>118.1</ele>
        <time>2020-11-15T23:06:23Z</time>
      </trkpt>
      <trkpt lat="28.7294900" lon="-17.7331680">
        <ele>117.7</ele>
        <time>2020-11-15T23:06:24Z</time>
      </trkpt>
      <trkpt lat="28.7294900" lon="-17.7331680">
        <ele>117.7</ele>
        <time>2020-11-15T23:06:25Z</time>
      </trkpt>
      <trkpt lat="28.7295950" lon="-17.7331230">
        <ele>117.0</ele>
        <time>2020-11-15T23:06:26Z</time>
      </trkpt>
      <trkpt lat="28.7295950" lon="-17.7331230">
        <ele>117.0</ele>
        <time>2020-11-15T23:06:27Z</time>
      </trkpt>
      <trkpt lat="28.7297000" lon="-17.7330920">
        <ele>116.3</ele>
        <time>2020-11-15T23:06:28Z</time>
      </trkpt>
      <trkpt lat="28.7297000" lon="-17.7330920">
        <ele>116.3</ele>
        <time>2020-11-15T23:06:29Z</time>
      </trkpt>
      <trkpt lat="28.7298080" lon="-17.7330870">
        <ele>115.6</ele>
        <time>2020-11-15T23:06:30Z</time>
      </trkpt>
      <trkpt lat="28.7298580" lon="-17.7330970">
        <ele>115.3</ele>
        <time>2020-11-15T23:06:31Z</time>
      </trkpt>
      <trkpt lat="28.7298580" lon="-17.7330970">
        <ele>115.3</ele>
        <time>2020-11-15T23:06:32Z</time>
      </trkpt>
      <trkpt lat="28.7299500" lon="-17.7331550">
        <ele>114.6</ele>
        <time>2020-11-15T23:06:33Z</time>
      </trkpt>
      <trkpt lat="28.7299880" lon="-17.7331920">
        <ele>114.3</ele>
        <time>2020-11-15T23:06:34Z</time>
      </trkpt>
      <trkpt lat="28.7299880" lon="-17.7331920">
        <ele>114.3</ele>
        <time>2020-11-15T23:06:35Z</time>
      </trkpt>
      <trkpt lat="28.7300570" lon="-17.7332680">
        <ele>113.7</ele>
        <time>2020-11-15T23:06:36Z</time>
      </trkpt>
      <trkpt lat="28.7300900" lon="-17.7333050">
        <ele>113.4</ele>
        <time>2020-11-15T23:06:37Z</time>
      </trkpt>
      <trkpt lat="28.7300900" lon="-17.7333050">
        <ele>113.4</ele>
        <time>2020-11-15T23:06:38Z</time>
      </trkpt>
      <trkpt lat="28.7301580" lon="-17.7333700">
        <ele>112.9</ele>
        <time>2020-11-15T23:06:39Z</time>
      </trkpt>
      <trkpt lat="28.7301920" lon="-17.7334020">
        <ele>112.6</ele>
        <time>2020-11-15T23:06:40Z</time>
      </trkpt>
      <trkpt lat="28.7301920" lon="-17.7334020">
        <ele>112.6</ele>
        <time>2020-11-15T23:06:41Z</time>
      </trkpt>
      <trkpt lat="28.7302700" lon="-17.7334530">
        <ele>112.0</ele>
        <time>2020-11-15T23:06:42Z</time>
      </trkpt>
      <trkpt lat="28.7303150" lon="-17.7334620">
        <ele>111.7</ele>
        <time>2020-11-15T23:06:43Z</time>
      </trkpt>
      <trkpt lat="28.7303150" lon="-17.7334620">
        <ele>111.7</ele>
        <time>2020-11-15T23:06:44Z</time>
      </trkpt>
      <trkpt lat="28.7304170" lon="-17.7334600">
        <ele>111.1</ele>
        <time>2020-11-15T23:06:45Z</time>
      </trkpt>
      <trkpt lat="28.7304170" lon="-17.7334600">
        <ele>111.1</ele>
        <time>2020-11-15T23:06:46Z</time>
      </trkpt>
      <trkpt lat="28.7305120" lon="-17.7334320">
        <ele>110.5</ele>
        <time>2020-11-15T23:06:47Z</time>
      </trkpt>
      <trkpt lat="28.7305120" lon="-17.7334320">
        <ele>110.5</ele>
        <time>2020-11-15T23:06:48Z</time>
      </trkpt>
      <trkpt lat="28.7305870" lon="-17.7333800">
        <ele>110.0</ele>
        <time>2020-11-15T23:06:49Z</time>
      </trkpt>
      <trkpt lat="28.7305870" lon="-17.7333800">
        <ele>110.0</ele>
        <time>2020-11-15T23:06:50Z</time>
      </trkpt>
      <trkpt lat="28.7306330" lon="-17.7332970">
        <ele>109.6</ele>
        <time>2020-11-15T23:06:51Z</time>
      </trkpt>
      <trkpt lat="28.7306330" lon="-17.7332970">
        <ele>109.6</ele>
        <time>2020-11-15T23:06:52Z</time>
      </trkpt>
      <trkpt lat="28.7306650" lon="-17.7332000">
        <ele>109.1</ele>
        <time>2020-11-15T23:06:53Z</time>
      </trkpt>
      <trkpt lat="28.7306650" lon="-17.7332000">
        <ele>109.1</ele>
        <time>2020-11-15T23:06:54Z</time>
      </trkpt>
      <trkpt lat="28.7306700" lon="-17.7330930">
        <ele>108.5</ele>
        <time>2020-11-15T23:06:55Z</time>
      </trkpt>
      <trkpt lat="28.7306700" lon="-17.7330930">
        <ele>108.5</ele>
        <time>2020-11-15T23:06:56Z</time>
      </trkpt>
      <trkpt lat="28.7306630" lon="-17.7329850">
        <ele>108.0</ele>
        <time>2020-11-15T23:06:57Z</time>
      </trkpt>
      <trkpt lat="28.7306630" lon="-17.7329850">
        <ele>108.0</ele>
        <time>2020-11-15T23:06:58Z</time>
      </trkpt>
      <trkpt lat="28.7306620" lon="-17.7328700">
        <ele>107.3</ele>
        <time>2020-11-15T23:06:59Z</time>
      </trkpt>
      <trkpt lat="28.7306620" lon="-17.7328700">
        <ele>107.3</ele>
        <time>2020-11-15T23:07:00Z</time>
      </trkpt>
      <trkpt lat="28.7306850" lon="-17.7327530">
        <ele>106.7</ele>
        <time>2020-11-15T23:07:01Z</time>
      </trkpt>
      <trkpt lat="28.7306850" lon="-17.7327530">
        <ele>106.7</ele>
        <time>2020-11-15T23:07:02Z</time>
      </trkpt>
      <trkpt lat="28.7307320" lon="-17.7326500">
        <ele>106.0</ele>
        <time>2020-11-15T23:07:03Z</time>
      </trkpt>
      <trkpt lat="28.7307320" lon="-17.7326500">
        <ele>106.0</ele>
        <time>2020-11-15T23:07:04Z</time>
      </trkpt>
      <trkpt lat="28.7308000" lon="-17.7325650">
        <ele>105.2</ele>
        <time>2020-11-15T23:07:05Z</time>
      </trkpt>
      <trkpt lat="28.7308000" lon="-17.7325650">
        <ele>105.2</ele>
        <time>2020-11-15T23:07:06Z</time>
      </trkpt>
      <trkpt lat="28.7308800" lon="-17.7324920">
        <ele>104.3</ele>
        <time>2020-11-15T23:07:07Z</time>
      </trkpt>
      <trkpt lat="28.7308800" lon="-17.7324920">
        <ele>104.3</ele>
        <time>2020-11-15T23:07:08Z</time>
      </trkpt>
      <trkpt lat="28.7309650" lon="-17.7324170">
        <ele>103.3</ele>
        <time>2020-11-15T23:07:09Z</time>
      </trkpt>
      <trkpt lat="28.7309650" lon="-17.7324170">
        <ele>103.3</ele>
        <time>2020-11-15T23:07:10Z</time>
      </trkpt>
      <trkpt lat="28.7310600" lon="-17.7323300">
        <ele>102.1</ele>
        <time>2020-11-15T23:07:11Z</time>
      </trkpt>
      <trkpt lat="28.7310600" lon="-17.7323300">
        <ele>102.1</ele>
        <time>2020-11-15T23:07:12Z</time>
      </trkpt>
      <trkpt lat="28.7311630" lon="-17.7322420">
        <ele>100.7</ele>
        <time>2020-11-15T23:07:13Z</time>
      </trkpt>
      <trkpt lat="28.7312180" lon="-17.7322020">
        <ele>99.9</ele>
        <time>2020-11-15T23:07:14Z</time>
      </trkpt>
      <trkpt lat="28.7312180" lon="-17.7322020">
        <ele>99.9</ele>
        <time>2020-11-15T23:07:15Z</time>
      </trkpt>
      <trkpt lat="28.7313420" lon="-17.7321380">
        <ele>99.6</ele>
        <time>2020-11-15T23:07:16Z</time>
      </trkpt>
      <trkpt lat="28.7313420" lon="-17.7321380">
        <ele>99.6</ele>
        <time>2020-11-15T23:07:17Z</time>
      </trkpt>
      <trkpt lat="28.7314850" lon="-17.7320980">
        <ele>99.1</ele>
        <time>2020-11-15T23:07:18Z</time>
      </trkpt>
      <trkpt lat="28.7314850" lon="-17.7320980">
        <ele>99.1</ele>
        <time>2020-11-15T23:07:19Z</time>
      </trkpt>
      <trkpt lat="28.7316420" lon="-17.7320600">
        <ele>98.5</ele>
        <time>2020-11-15T23:07:20Z</time>
      </trkpt>
      <trkpt lat="28.7317270" lon="-17.7320380">
        <ele>98.1</ele>
        <time>2020-11-15T23:07:21Z</time>
      </trkpt>
      <trkpt lat="28.7317270" lon="-17.7320380">
        <ele>98.1</ele>
        <time>2020-11-15T23:07:22Z</time>
      </trkpt>
      <trkpt lat="28.7319080" lon="-17.7320080">
        <ele>97.2</ele>
        <time>2020-11-15T23:07:23Z</time>
      </trkpt>
      <trkpt lat="28.7320070" lon="-17.7320000">
        <ele>96.7</ele>
        <time>2020-11-15T23:07:24Z</time>
      </trkpt>
      <trkpt lat="28.7320070" lon="-17.7320000">
        <ele>96.7</ele>
        <time>2020-11-15T23:07:25Z</time>
      </trkpt>
      <trkpt lat="28.7322100" lon="-17.7320020">
        <ele>95.8</ele>
        <time>2020-11-15T23:07:26Z</time>
      </trkpt>
      <trkpt lat="28.7322100" lon="-17.7320020">
        <ele>95.8</ele>
        <time>2020-11-15T23:07:27Z</time>
      </trkpt>
      <trkpt lat="28.7324230" lon="-17.7320250">
        <ele>94.9</ele>
        <time>2020-11-15T23:07:28Z</time>
      </trkpt>
      <trkpt lat="28.7324230" lon="-17.7320250">
        <ele>94.9</ele>
        <time>2020-11-15T23:07:29Z</time>
      </trkpt>
      <trkpt lat="28.7326470" lon="-17.7320520">
        <ele>94.1</ele>
        <time>2020-11-15T23:07:30Z</time>
      </trkpt>
      <trkpt lat="28.7327600" lon="-17.7320650">
        <ele>93.7</ele>
        <time>2020-11-15T23:07:31Z</time>
      </trkpt>
      <trkpt lat="28.7327600" lon="-17.7320650">
        <ele>93.7</ele>
        <time>2020-11-15T23:07:32Z</time>
      </trkpt>
      <trkpt lat="28.7329920" lon="-17.7320920">
        <ele>92.7</ele>
        <time>2020-11-15T23:07:33Z</time>
      </trkpt>
      <trkpt lat="28.7329920" lon="-17.7320920">
        <ele>92.7</ele>
        <time>2020-11-15T23:07:34Z</time>
      </trkpt>
      <trkpt lat="28.7332300" lon="-17.7321180">
        <ele>91.6</ele>
        <time>2020-11-15T23:07:35Z</time>
      </trkpt>
      <trkpt lat="28.7332300" lon="-17.7321180">
        <ele>91.6</ele>
        <time>2020-11-15T23:07:36Z</time>
      </trkpt>
      <trkpt lat="28.7334770" lon="-17.7321480">
        <ele>90.1</ele>
        <time>2020-11-15T23:07:37Z</time>
      </trkpt>
      <trkpt lat="28.7334770" lon="-17.7321480">
        <ele>90.1</ele>
        <time>2020-11-15T23:07:38Z</time>
      </trkpt>
      <trkpt lat="28.7337250" lon="-17.7321750">
        <ele>88.1</ele>
        <time>2020-11-15T23:07:39Z</time>
      </trkpt>
      <trkpt lat="28.7337250" lon="-17.7321750">
        <ele>88.1</ele>
        <time>2020-11-15T23:07:40Z</time>
      </trkpt>
      <trkpt lat="28.7339620" lon="-17.7321730">
        <ele>86.0</ele>
        <time>2020-11-15T23:07:41Z</time>
      </trkpt>
      <trkpt lat="28.7339620" lon="-17.7321730">
        <ele>86.0</ele>
        <time>2020-11-15T23:07:42Z</time>
      </trkpt>
      <trkpt lat="28.7341500" lon="-17.7321070">
        <ele>84.3</ele>
        <time>2020-11-15T23:07:43Z</time>
      </trkpt>
      <trkpt lat="28.7341500" lon="-17.7321070">
        <ele>84.3</ele>
        <time>2020-11-15T23:07:44Z</time>
      </trkpt>
      <trkpt lat="28.7343130" lon="-17.7319780">
        <ele>82.8</ele>
        <time>2020-11-15T23:07:45Z</time>
      </trkpt>
      <trkpt lat="28.7343130" lon="-17.7319780">
        <ele>82.8</ele>
        <time>2020-11-15T23:07:46Z</time>
      </trkpt>
      <trkpt lat="28.7344620" lon="-17.7318170">
        <ele>81.4</ele>
        <time>2020-11-15T23:07:47Z</time>
      </trkpt>
      <trkpt lat="28.7344620" lon="-17.7318170">
        <ele>81.4</ele>
        <time>2020-11-15T23:07:48Z</time>
      </trkpt>
      <trkpt lat="28.7346070" lon="-17.7316430">
        <ele>80.2</ele>
        <time>2020-11-15T23:07:49Z</time>
      </trkpt>
      <trkpt lat="28.7346070" lon="-17.7316430">
        <ele>80.2</ele>
        <time>2020-11-15T23:07:50Z</time>
      </trkpt>
      <trkpt lat="28.7347350" lon="-17.7314670">
        <ele>79.7</ele>
        <time>2020-11-15T23:07:51Z</time>
      </trkpt>
      <trkpt lat="28.7347350" lon="-17.7314670">
        <ele>79.7</ele>
        <time>2020-11-15T23:07:52Z</time>
      </trkpt>
      <trkpt lat="28.7348200" lon="-17.7312950">
        <ele>80.0</ele>
        <time>2020-11-15T23:07:53Z</time>
      </trkpt>
      <trkpt lat="28.7348200" lon="-17.7312950">
        <ele>80.0</ele>
        <time>2020-11-15T23:07:54Z</time>
      </trkpt>
      <trkpt lat="28.7348780" lon="-17.7311380">
        <ele>80.4</ele>
        <time>2020-11-15T23:07:55Z</time>
      </trkpt>
      <trkpt lat="28.7348780" lon="-17.7311380">
        <ele>80.4</ele>
        <time>2020-11-15T23:07:56Z</time>
      </trkpt>
      <trkpt lat="28.7349550" lon="-17.7309980">
        <ele>80.0</ele>
        <time>2020-11-15T23:07:57Z</time>
      </trkpt>
      <trkpt lat="28.7349550" lon="-17.7309980">
        <ele>80.0</ele>
        <time>2020-11-15T23:07:58Z</time>
      </trkpt>
      <trkpt lat="28.7350530" lon="-17.7308930">
        <ele>79.8</ele>
        <time>2020-11-15T23:07:59Z</time>
      </trkpt>
      <trkpt lat="28.7350530" lon="-17.7308930">
        <ele>79.8</ele>
        <time>2020-11-15T23:08:00Z</time>
      </trkpt>
      <trkpt lat="28.7351600" lon="-17.7308130">
        <ele>79.8</ele>
        <time>2020-11-15T23:08:01Z</time>
      </trkpt>
      <trkpt lat="28.7351600" lon="-17.7308130">
        <ele>79.8</ele>
        <time>2020-11-15T23:08:02Z</time>
      </trkpt>
      <trkpt lat="28.7352650" lon="-17.7307520">
        <ele>79.9</ele>
        <time>2020-11-15T23:08:03Z</time>
      </trkpt>
      <trkpt lat="28.7352650" lon="-17.7307520">
        <ele>79.9</ele>
        <time>2020-11-15T23:08:04Z</time>
      </trkpt>
      <trkpt lat="28.7353680" lon="-17.7307050">
        <ele>80.0</ele>
        <time>2020-11-15T23:08:05Z</time>
      </trkpt>
      <trkpt lat="28.7353680" lon="-17.7307050">
        <ele>80.0</ele>
        <time>2020-11-15T23:08:06Z</time>
      </trkpt>
      <trkpt lat="28.7354700" lon="-17.7306620">
        <ele>80.1</ele>
        <time>2020-11-15T23:08:07Z</time>
      </trkpt>
      <trkpt lat="28.7354700" lon="-17.7306620">
        <ele>80.1</ele>
        <time>2020-11-15T23:08:08Z</time>
      </trkpt>
      <trkpt lat="28.7355720" lon="-17.7306230">
        <ele>80.2</ele>
        <time>2020-11-15T23:08:09Z</time>
      </trkpt>
      <trkpt lat="28.7355720" lon="-17.7306230">
        <ele>80.2</ele>
        <time>2020-11-15T23:08:10Z</time>
      </trkpt>
      <trkpt lat="28.7356650" lon="-17.7305900">
        <ele>80.3</ele>
        <time>2020-11-15T23:08:11Z</time>
      </trkpt>
      <trkpt lat="28.7356650" lon="-17.7305900">
        <ele>80.3</ele>
        <time>2020-11-15T23:08:12Z</time>
      </trkpt>
      <trkpt lat="28.7357580" lon="-17.7305580">
        <ele>80.0</ele>
        <time>2020-11-15T23:08:13Z</time>
      </trkpt>
      <trkpt lat="28.7357580" lon="-17.7305580">
        <ele>80.0</ele>
        <time>2020-11-15T23:08:14Z</time>
      </trkpt>
      <trkpt lat="28.7358480" lon="-17.7305320">
        <ele>79.8</ele>
        <time>2020-11-15T23:08:15Z</time>
      </trkpt>
      <trkpt lat="28.7358480" lon="-17.7305320">
        <ele>79.8</ele>
        <time>2020-11-15T23:08:16Z</time>
      </trkpt>
      <trkpt lat="28.7359400" lon="-17.7304950">
        <ele>79.6</ele>
        <time>2020-11-15T23:08:17Z</time>
      </trkpt>
      <trkpt lat="28.7359400" lon="-17.7304950">
        <ele>79.6</ele>
        <time>2020-11-15T23:08:18Z</time>
      </trkpt>
      <trkpt lat="28.7360300" lon="-17.7304570">
        <ele>79.3</ele>
        <time>2020-11-15T23:08:19Z</time>
      </trkpt>
      <trkpt lat="28.7360300" lon="-17.7304570">
        <ele>79.3</ele>
        <time>2020-11-15T23:08:20Z</time>
      </trkpt>
      <trkpt lat="28.7361250" lon="-17.7304170">
        <ele>79.0</ele>
        <time>2020-11-15T23:08:21Z</time>
      </trkpt>
      <trkpt lat="28.7361250" lon="-17.7304170">
        <ele>79.0</ele>
        <time>2020-11-15T23:08:22Z</time>
      </trkpt>
      <trkpt lat="28.7362180" lon="-17.7303700">
        <ele>78.6</ele>
        <time>2020-11-15T23:08:23Z</time>
      </trkpt>
      <trkpt lat="28.7362180" lon="-17.7303700">
        <ele>78.6</ele>
        <time>2020-11-15T23:08:24Z</time>
      </trkpt>
      <trkpt lat="28.7363120" lon="-17.7303130">
        <ele>78.2</ele>
        <time>2020-11-15T23:08:25Z</time>
      </trkpt>
      <trkpt lat="28.7363120" lon="-17.7303130">
        <ele>78.2</ele>
        <time>2020-11-15T23:08:26Z</time>
      </trkpt>
      <trkpt lat="28.7364000" lon="-17.7302430">
        <ele>77.9</ele>
        <time>2020-11-15T23:08:27Z</time>
      </trkpt>
      <trkpt lat="28.7364000" lon="-17.7302430">
        <ele>77.9</ele>
        <time>2020-11-15T23:08:28Z</time>
      </trkpt>
      <trkpt lat="28.7364880" lon="-17.7301830">
        <ele>77.7</ele>
        <time>2020-11-15T23:08:29Z</time>
      </trkpt>
      <trkpt lat="28.7365330" lon="-17.7301630">
        <ele>77.6</ele>
        <time>2020-11-15T23:08:30Z</time>
      </trkpt>
      <trkpt lat="28.7365800" lon="-17.7301480">
        <ele>77.6</ele>
        <time>2020-11-15T23:08:31Z</time>
      </trkpt>
      <trkpt lat="28.7366250" lon="-17.7301400">
        <ele>77.7</ele>
        <time>2020-11-15T23:08:32Z</time>
      </trkpt>
      <trkpt lat="28.7366250" lon="-17.7301400">
        <ele>77.7</ele>
        <time>2020-11-15T23:08:33Z</time>
      </trkpt>
      <trkpt lat="28.7367000" lon="-17.7301530">
        <ele>77.8</ele>
        <time>2020-11-15T23:08:34Z</time>
      </trkpt>
      <trkpt lat="28.7367000" lon="-17.7301530">
        <ele>77.8</ele>
        <time>2020-11-15T23:08:35Z</time>
      </trkpt>
      <trkpt lat="28.7367580" lon="-17.7301950">
        <ele>78.0</ele>
        <time>2020-11-15T23:08:36Z</time>
      </trkpt>
      <trkpt lat="28.7367820" lon="-17.7302180">
        <ele>78.1</ele>
        <time>2020-11-15T23:08:37Z</time>
      </trkpt>
      <trkpt lat="28.7367820" lon="-17.7302180">
        <ele>78.1</ele>
        <time>2020-11-15T23:08:38Z</time>
      </trkpt>
      <trkpt lat="28.7368300" lon="-17.7302670">
        <ele>78.3</ele>
        <time>2020-11-15T23:08:39Z</time>
      </trkpt>
      <trkpt lat="28.7368300" lon="-17.7302670">
        <ele>78.3</ele>
        <time>2020-11-15T23:08:40Z</time>
      </trkpt>
      <trkpt lat="28.7368780" lon="-17.7303100">
        <ele>78.6</ele>
        <time>2020-11-15T23:08:41Z</time>
      </trkpt>
      <trkpt lat="28.7368780" lon="-17.7303100">
        <ele>78.6</ele>
        <time>2020-11-15T23:08:42Z</time>
      </trkpt>
      <trkpt lat="28.7369170" lon="-17.7303600">
        <ele>78.8</ele>
        <time>2020-11-15T23:08:43Z</time>
      </trkpt>
      <trkpt lat="28.7369170" lon="-17.7303600">
        <ele>78.8</ele>
        <time>2020-11-15T23:08:44Z</time>
      </trkpt>
      <trkpt lat="28.7369380" lon="-17.7304080">
        <ele>79.0</ele>
        <time>2020-11-15T23:08:45Z</time>
      </trkpt>
      <trkpt lat="28.7369380" lon="-17.7304080">
        <ele>79.0</ele>
        <time>2020-11-15T23:08:46Z</time>
      </trkpt>
      <trkpt lat="28.7369470" lon="-17.7304570">
        <ele>79.2</ele>
        <time>2020-11-15T23:08:47Z</time>
      </trkpt>
      <trkpt lat="28.7369470" lon="-17.7304570">
        <ele>79.2</ele>
        <time>2020-11-15T23:08:48Z</time>
      </trkpt>
      <trkpt lat="28.7369570" lon="-17.7305050">
        <ele>79.4</ele>
        <time>2020-11-15T23:08:49Z</time>
      </trkpt>
      <trkpt lat="28.7369570" lon="-17.7305050">
        <ele>79.4</ele>
        <time>2020-11-15T23:08:50Z</time>
      </trkpt>
      <trkpt lat="28.7369670" lon="-17.7305500">
        <ele>80.3</ele>
        <time>2020-11-15T23:08:51Z</time>
      </trkpt>
      <trkpt lat="28.7369670" lon="-17.7305500">
        <ele>80.3</ele>
        <time>2020-11-15T23:08:52Z</time>
      </trkpt>
      <trkpt lat="28.7369770" lon="-17.7305980">
        <ele>81.4</ele>
        <time>2020-11-15T23:08:53Z</time>
      </trkpt>
      <trkpt lat="28.7369770" lon="-17.7305980">
        <ele>81.4</ele>
        <time>2020-11-15T23:08:54Z</time>
      </trkpt>
      <trkpt lat="28.7369900" lon="-17.7306430">
        <ele>82.4</ele>
        <time>2020-11-15T23:08:55Z</time>
      </trkpt>
      <trkpt lat="28.7369900" lon="-17.7306430">
        <ele>82.4</ele>
        <time>2020-11-15T23:08:56Z</time>
      </trkpt>
      <trkpt lat="28.7370070" lon="-17.7306900">
        <ele>83.5</ele>
        <time>2020-11-15T23:08:57Z</time>
      </trkpt>
      <trkpt lat="28.7370070" lon="-17.7306900">
        <ele>83.5</ele>
        <time>2020-11-15T23:08:58Z</time>
      </trkpt>
      <trkpt lat="28.7370200" lon="-17.7307370">
        <ele>84.6</ele>
        <time>2020-11-15T23:08:59Z</time>
      </trkpt>
      <trkpt lat="28.7370300" lon="-17.7307570">
        <ele>85.2</ele>
        <time>2020-11-15T23:09:00Z</time>
      </trkpt>
      <trkpt lat="28.7370420" lon="-17.7307780">
        <ele>85.7</ele>
        <time>2020-11-15T23:09:01Z</time>
      </trkpt>
      <trkpt lat="28.7370420" lon="-17.7307780">
        <ele>85.7</ele>
        <time>2020-11-15T23:09:02Z</time>
      </trkpt>
      <trkpt lat="28.7370550" lon="-17.7308220">
        <ele>86.8</ele>
        <time>2020-11-15T23:09:03Z</time>
      </trkpt>
      <trkpt lat="28.7370550" lon="-17.7308220">
        <ele>86.8</ele>
        <time>2020-11-15T23:09:04Z</time>
      </trkpt>
      <trkpt lat="28.7370750" lon="-17.7308630">
        <ele>87.9</ele>
        <time>2020-11-15T23:09:05Z</time>
      </trkpt>
      <trkpt lat="28.7370880" lon="-17.7308830">
        <ele>88.4</ele>
        <time>2020-11-15T23:09:06Z</time>
      </trkpt>
      <trkpt lat="28.7370880" lon="-17.7308830">
        <ele>88.4</ele>
        <time>2020-11-15T23:09:07Z</time>
      </trkpt>
      <trkpt lat="28.7371250" lon="-17.7309230">
        <ele>88.9</ele>
        <time>2020-11-15T23:09:08Z</time>
      </trkpt>
      <trkpt lat="28.7371380" lon="-17.7309430">
        <ele>88.9</ele>
        <time>2020-11-15T23:09:09Z</time>
      </trkpt>
      <trkpt lat="28.7371380" lon="-17.7309430">
        <ele>88.9</ele>
        <time>2020-11-15T23:09:10Z</time>
      </trkpt>
      <trkpt lat="28.7371780" lon="-17.7309770">
        <ele>88.9</ele>
        <time>2020-11-15T23:09:11Z</time>
      </trkpt>
      <trkpt lat="28.7371780" lon="-17.7309770">
        <ele>88.9</ele>
        <time>2020-11-15T23:09:12Z</time>
      </trkpt>
      <trkpt lat="28.7372250" lon="-17.7310200">
        <ele>89.0</ele>
        <time>2020-11-15T23:09:13Z</time>
      </trkpt>
      <trkpt lat="28.7372250" lon="-17.7310200">
        <ele>89.0</ele>
        <time>2020-11-15T23:09:14Z</time>
      </trkpt>
      <trkpt lat="28.7372780" lon="-17.7310700">
        <ele>89.2</ele>
        <time>2020-11-15T23:09:15Z</time>
      </trkpt>
      <trkpt lat="28.7372780" lon="-17.7310700">
        <ele>89.2</ele>
        <time>2020-11-15T23:09:16Z</time>
      </trkpt>
      <trkpt lat="28.7373250" lon="-17.7311350">
        <ele>89.5</ele>
        <time>2020-11-15T23:09:17Z</time>
      </trkpt>
      <trkpt lat="28.7373250" lon="-17.7311350">
        <ele>89.5</ele>
        <time>2020-11-15T23:09:18Z</time>
      </trkpt>
      <trkpt lat="28.7373720" lon="-17.7312130">
        <ele>90.1</ele>
        <time>2020-11-15T23:09:19Z</time>
      </trkpt>
      <trkpt lat="28.7373720" lon="-17.7312130">
        <ele>90.1</ele>
        <time>2020-11-15T23:09:20Z</time>
      </trkpt>
      <trkpt lat="28.7374300" lon="-17.7312850">
        <ele>90.7</ele>
        <time>2020-11-15T23:09:21Z</time>
      </trkpt>
      <trkpt lat="28.7374300" lon="-17.7312850">
        <ele>90.7</ele>
        <time>2020-11-15T23:09:22Z</time>
      </trkpt>
      <trkpt lat="28.7375100" lon="-17.7313420">
        <ele>91.3</ele>
        <time>2020-11-15T23:09:23Z</time>
      </trkpt>
      <trkpt lat="28.7375530" lon="-17.7313600">
        <ele>91.7</ele>
        <time>2020-11-15T23:09:24Z</time>
      </trkpt>
      <trkpt lat="28.7375530" lon="-17.7313600">
        <ele>91.7</ele>
        <time>2020-11-15T23:09:25Z</time>
      </trkpt>
      <trkpt lat="28.7376400" lon="-17.7313730">
        <ele>92.4</ele>
        <time>2020-11-15T23:09:26Z</time>
      </trkpt>
      <trkpt lat="28.7376830" lon="-17.7313650">
        <ele>92.7</ele>
        <time>2020-11-15T23:09:27Z</time>
      </trkpt>
      <trkpt lat="28.7376830" lon="-17.7313650">
        <ele>92.7</ele>
        <time>2020-11-15T23:09:28Z</time>
      </trkpt>
      <trkpt lat="28.7377520" lon="-17.7313250">
        <ele>93.5</ele>
        <time>2020-11-15T23:09:29Z</time>
      </trkpt>
      <trkpt lat="28.7377520" lon="-17.7313250">
        <ele>93.5</ele>
        <time>2020-11-15T23:09:30Z</time>
      </trkpt>
      <trkpt lat="28.7378000" lon="-17.7312570">
        <ele>94.2</ele>
        <time>2020-11-15T23:09:31Z</time>
      </trkpt>
      <trkpt lat="28.7378000" lon="-17.7312570">
        <ele>94.2</ele>
        <time>2020-11-15T23:09:32Z</time>
      </trkpt>
      <trkpt lat="28.7378300" lon="-17.7311750">
        <ele>95.0</ele>
        <time>2020-11-15T23:09:33Z</time>
      </trkpt>
      <trkpt lat="28.7378420" lon="-17.7311400">
        <ele>95.4</ele>
        <time>2020-11-15T23:09:34Z</time>
      </trkpt>
      <trkpt lat="28.7378420" lon="-17.7311400">
        <ele>95.4</ele>
        <time>2020-11-15T23:09:35Z</time>
      </trkpt>
      <trkpt lat="28.7378550" lon="-17.7310670">
        <ele>96.1</ele>
        <time>2020-11-15T23:09:36Z</time>
      </trkpt>
      <trkpt lat="28.7378600" lon="-17.7310250">
        <ele>96.5</ele>
        <time>2020-11-15T23:09:37Z</time>
      </trkpt>
      <trkpt lat="28.7378600" lon="-17.7310250">
        <ele>96.5</ele>
        <time>2020-11-15T23:09:38Z</time>
      </trkpt>
      <trkpt lat="28.7378800" lon="-17.7309420">
        <ele>97.2</ele>
        <time>2020-11-15T23:09:39Z</time>
      </trkpt>
      <trkpt lat="28.7378880" lon="-17.7308980">
        <ele>97.5</ele>
        <time>2020-11-15T23:09:40Z</time>
      </trkpt>
      <trkpt lat="28.7378880" lon="-17.7308980">
        <ele>97.5</ele>
        <time>2020-11-15T23:09:41Z</time>
      </trkpt>
      <trkpt lat="28.7379070" lon="-17.7308170">
        <ele>98.0</ele>
        <time>2020-11-15T23:09:42Z</time>
      </trkpt>
      <trkpt lat="28.7379170" lon="-17.7307770">
        <ele>98.2</ele>
        <time>2020-11-15T23:09:43Z</time>
      </trkpt>
      <trkpt lat="28.7379170" lon="-17.7307770">
        <ele>98.2</ele>
        <time>2020-11-15T23:09:44Z</time>
      </trkpt>
      <trkpt lat="28.7379470" lon="-17.7307030">
        <ele>98.7</ele>
        <time>2020-11-15T23:09:45Z</time>
      </trkpt>
      <trkpt lat="28.7379470" lon="-17.7307030">
        <ele>98.7</ele>
        <time>2020-11-15T23:09:46Z</time>
      </trkpt>
      <trkpt lat="28.7379900" lon="-17.7306450">
        <ele>99.1</ele>
        <time>2020-11-15T23:09:47Z</time>
      </trkpt>
      <trkpt lat="28.7380170" lon="-17.7306130">
        <ele>99.4</ele>
        <time>2020-11-15T23:09:48Z</time>
      </trkpt>
      <trkpt lat="28.7380170" lon="-17.7306130">
        <ele>99.4</ele>
        <time>2020-11-15T23:09:49Z</time>
      </trkpt>
      <trkpt lat="28.7380720" lon="-17.7305630">
        <ele>99.8</ele>
        <time>2020-11-15T23:09:50Z</time>
      </trkpt>
      <trkpt lat="28.7380720" lon="-17.7305630">
        <ele>99.8</ele>
        <time>2020-11-15T23:09:51Z</time>
      </trkpt>
      <trkpt lat="28.7381380" lon="-17.7305450">
        <ele>100.2</ele>
        <time>2020-11-15T23:09:52Z</time>
      </trkpt>
      <trkpt lat="28.7381380" lon="-17.7305450">
        <ele>100.2</ele>
        <time>2020-11-15T23:09:53Z</time>
      </trkpt>
      <trkpt lat="28.7382070" lon="-17.7305530">
        <ele>100.5</ele>
        <time>2020-11-15T23:09:54Z</time>
      </trkpt>
      <trkpt lat="28.7382420" lon="-17.7305600">
        <ele>100.7</ele>
        <time>2020-11-15T23:09:55Z</time>
      </trkpt>
      <trkpt lat="28.7382780" lon="-17.7305680">
        <ele>101.0</ele>
        <time>2020-11-15T23:09:56Z</time>
      </trkpt>
      <trkpt lat="28.7383130" lon="-17.7305770">
        <ele>101.2</ele>
        <time>2020-11-15T23:09:57Z</time>
      </trkpt>
      <trkpt lat="28.7383130" lon="-17.7305770">
        <ele>101.2</ele>
        <time>2020-11-15T23:09:58Z</time>
      </trkpt>
      <trkpt lat="28.7383800" lon="-17.7305900">
        <ele>101.6</ele>
        <time>2020-11-15T23:09:59Z</time>
      </trkpt>
      <trkpt lat="28.7383800" lon="-17.7305900">
        <ele>101.6</ele>
        <time>2020-11-15T23:10:00Z</time>
      </trkpt>
      <trkpt lat="28.7384470" lon="-17.7306030">
        <ele>102.0</ele>
        <time>2020-11-15T23:10:01Z</time>
      </trkpt>
      <trkpt lat="28.7384470" lon="-17.7306030">
        <ele>102.0</ele>
        <time>2020-11-15T23:10:02Z</time>
      </trkpt>
      <trkpt lat="28.7385100" lon="-17.7306220">
        <ele>102.4</ele>
        <time>2020-11-15T23:10:03Z</time>
      </trkpt>
      <trkpt lat="28.7385100" lon="-17.7306220">
        <ele>102.4</ele>
        <time>2020-11-15T23:10:04Z</time>
      </trkpt>
      <trkpt lat="28.7385750" lon="-17.7306330">
        <ele>102.8</ele>
        <time>2020-11-15T23:10:05Z</time>
      </trkpt>
      <trkpt lat="28.7385750" lon="-17.7306330">
        <ele>102.8</ele>
        <time>2020-11-15T23:10:06Z</time>
      </trkpt>
      <trkpt lat="28.7386370" lon="-17.7306420">
        <ele>103.1</ele>
        <time>2020-11-15T23:10:07Z</time>
      </trkpt>
      <trkpt lat="28.7386370" lon="-17.7306420">
        <ele>103.2</ele>
        <time>2020-11-15T23:10:08Z</time>
      </trkpt>
      <trkpt lat="28.7386800" lon="-17.7306450">
        <ele>102.9</ele>
        <time>2020-11-15T23:10:09Z</time>
      </trkpt>
      <trkpt lat="28.7386800" lon="-17.7306450">
        <ele>102.9</ele>
        <time>2020-11-15T23:10:10Z</time>
      </trkpt>
      <trkpt lat="28.7386700" lon="-17.7306750">
        <ele>102.8</ele>
        <time>2020-11-15T23:10:11Z</time>
      </trkpt>
      <trkpt lat="28.7386480" lon="-17.7306770">
        <ele>102.7</ele>
        <time>2020-11-15T23:10:12Z</time>
      </trkpt>
      <trkpt lat="28.7386480" lon="-17.7306770">
        <ele>102.7</ele>
        <time>2020-11-15T23:10:13Z</time>
      </trkpt>
      <trkpt lat="28.7385950" lon="-17.7306630">
        <ele>102.4</ele>
        <time>2020-11-15T23:10:14Z</time>
      </trkpt>
      <trkpt lat="28.7385950" lon="-17.7306630">
        <ele>102.4</ele>
        <time>2020-11-15T23:10:15Z</time>
      </trkpt>
      <trkpt lat="28.7385280" lon="-17.7306470">
        <ele>102.0</ele>
        <time>2020-11-15T23:10:16Z</time>
      </trkpt>
      <trkpt lat="28.7384930" lon="-17.7306370">
        <ele>101.8</ele>
        <time>2020-11-15T23:10:17Z</time>
      </trkpt>
      <trkpt lat="28.7384930" lon="-17.7306370">
        <ele>101.8</ele>
        <time>2020-11-15T23:10:18Z</time>
      </trkpt>
      <trkpt lat="28.7384150" lon="-17.7306150">
        <ele>101.4</ele>
        <time>2020-11-15T23:10:19Z</time>
      </trkpt>
      <trkpt lat="28.7384150" lon="-17.7306150">
        <ele>101.4</ele>
        <time>2020-11-15T23:10:20Z</time>
      </trkpt>
      <trkpt lat="28.7383270" lon="-17.7306000">
        <ele>100.9</ele>
        <time>2020-11-15T23:10:21Z</time>
      </trkpt>
      <trkpt lat="28.7383270" lon="-17.7306000">
        <ele>100.9</ele>
        <time>2020-11-15T23:10:22Z</time>
      </trkpt>
      <trkpt lat="28.7382320" lon="-17.7305830">
        <ele>100.4</ele>
        <time>2020-11-15T23:10:23Z</time>
      </trkpt>
      <trkpt lat="28.7382320" lon="-17.7305830">
        <ele>100.4</ele>
        <time>2020-11-15T23:10:24Z</time>
      </trkpt>
      <trkpt lat="28.7381330" lon="-17.7305780">
        <ele>99.9</ele>
        <time>2020-11-15T23:10:25Z</time>
      </trkpt>
      <trkpt lat="28.7380850" lon="-17.7305900">
        <ele>99.6</ele>
        <time>2020-11-15T23:10:26Z</time>
      </trkpt>
      <trkpt lat="28.7380850" lon="-17.7305900">
        <ele>99.6</ele>
        <time>2020-11-15T23:10:27Z</time>
      </trkpt>
      <trkpt lat="28.7379980" lon="-17.7306600">
        <ele>99.0</ele>
        <time>2020-11-15T23:10:28Z</time>
      </trkpt>
      <trkpt lat="28.7379980" lon="-17.7306600">
        <ele>99.0</ele>
        <time>2020-11-15T23:10:29Z</time>
      </trkpt>
      <trkpt lat="28.7379530" lon="-17.7307650">
        <ele>98.4</ele>
        <time>2020-11-15T23:10:30Z</time>
      </trkpt>
      <trkpt lat="28.7379380" lon="-17.7308120">
        <ele>98.1</ele>
        <time>2020-11-15T23:10:31Z</time>
      </trkpt>
      <trkpt lat="28.7379380" lon="-17.7308120">
        <ele>98.1</ele>
        <time>2020-11-15T23:10:32Z</time>
      </trkpt>
      <trkpt lat="28.7378980" lon="-17.7308770">
        <ele>96.6</ele>
        <time>2020-11-15T23:10:33Z</time>
      </trkpt>
      <trkpt lat="28.7378980" lon="-17.7308770">
        <ele>96.6</ele>
        <time>2020-11-15T23:10:34Z</time>
      </trkpt>
      <trkpt lat="28.7378520" lon="-17.7308800">
        <ele>96.1</ele>
        <time>2020-11-15T23:10:35Z</time>
      </trkpt>
      <trkpt lat="28.7378520" lon="-17.7308800">
        <ele>96.1</ele>
        <time>2020-11-15T23:10:36Z</time>
      </trkpt>
      <trkpt lat="28.7378270" lon="-17.7308570">
        <ele>95.7</ele>
        <time>2020-11-15T23:10:37Z</time>
      </trkpt>
      <trkpt lat="28.7378270" lon="-17.7308570">
        <ele>95.7</ele>
        <time>2020-11-15T23:10:38Z</time>
      </trkpt>
      <trkpt lat="28.7378100" lon="-17.7308130">
        <ele>95.2</ele>
        <time>2020-11-15T23:10:39Z</time>
      </trkpt>
      <trkpt lat="28.7378100" lon="-17.7308130">
        <ele>95.2</ele>
        <time>2020-11-15T23:10:40Z</time>
      </trkpt>
      <trkpt lat="28.7377780" lon="-17.7307550">
        <ele>94.5</ele>
        <time>2020-11-15T23:10:41Z</time>
      </trkpt>
      <trkpt lat="28.7377780" lon="-17.7307550">
        <ele>94.5</ele>
        <time>2020-11-15T23:10:42Z</time>
      </trkpt>
      <trkpt lat="28.7377430" lon="-17.7306980">
        <ele>93.7</ele>
        <time>2020-11-15T23:10:43Z</time>
      </trkpt>
      <trkpt lat="28.7377270" lon="-17.7306670">
        <ele>93.3</ele>
        <time>2020-11-15T23:10:44Z</time>
      </trkpt>
      <trkpt lat="28.7377120" lon="-17.7306350">
        <ele>92.9</ele>
        <time>2020-11-15T23:10:45Z</time>
      </trkpt>
      <trkpt lat="28.7377120" lon="-17.7306350">
        <ele>92.9</ele>
        <time>2020-11-15T23:10:46Z</time>
      </trkpt>
      <trkpt lat="28.7376800" lon="-17.7305570">
        <ele>92.0</ele>
        <time>2020-11-15T23:10:47Z</time>
      </trkpt>
      <trkpt lat="28.7376800" lon="-17.7305570">
        <ele>92.0</ele>
        <time>2020-11-15T23:10:48Z</time>
      </trkpt>
      <trkpt lat="28.7376580" lon="-17.7304800">
        <ele>91.2</ele>
        <time>2020-11-15T23:10:49Z</time>
      </trkpt>
      <trkpt lat="28.7376580" lon="-17.7304800">
        <ele>91.2</ele>
        <time>2020-11-15T23:10:50Z</time>
      </trkpt>
      <trkpt lat="28.7376580" lon="-17.7303920">
        <ele>90.2</ele>
        <time>2020-11-15T23:10:51Z</time>
      </trkpt>
      <trkpt lat="28.7376580" lon="-17.7303920">
        <ele>90.2</ele>
        <time>2020-11-15T23:10:52Z</time>
      </trkpt>
      <trkpt lat="28.7376580" lon="-17.7302950">
        <ele>89.2</ele>
        <time>2020-11-15T23:10:53Z</time>
      </trkpt>
      <trkpt lat="28.7376580" lon="-17.7302950">
        <ele>89.2</ele>
        <time>2020-11-15T23:10:54Z</time>
      </trkpt>
      <trkpt lat="28.7376580" lon="-17.7302050">
        <ele>88.2</ele>
        <time>2020-11-15T23:10:55Z</time>
      </trkpt>
      <trkpt lat="28.7376580" lon="-17.7302050">
        <ele>88.2</ele>
        <time>2020-11-15T23:10:56Z</time>
      </trkpt>
      <trkpt lat="28.7376530" lon="-17.7301270">
        <ele>87.4</ele>
        <time>2020-11-15T23:10:57Z</time>
      </trkpt>
      <trkpt lat="28.7376530" lon="-17.7301270">
        <ele>87.4</ele>
        <time>2020-11-15T23:10:58Z</time>
      </trkpt>
      <trkpt lat="28.7376320" lon="-17.7300580">
        <ele>86.6</ele>
        <time>2020-11-15T23:10:59Z</time>
      </trkpt>
      <trkpt lat="28.7376150" lon="-17.7300280">
        <ele>86.2</ele>
        <time>2020-11-15T23:11:00Z</time>
      </trkpt>
      <trkpt lat="28.7375980" lon="-17.7300020">
        <ele>85.9</ele>
        <time>2020-11-15T23:11:01Z</time>
      </trkpt>
      <trkpt lat="28.7375980" lon="-17.7300020">
        <ele>85.9</ele>
        <time>2020-11-15T23:11:02Z</time>
      </trkpt>
      <trkpt lat="28.7375630" lon="-17.7299420">
        <ele>85.1</ele>
        <time>2020-11-15T23:11:03Z</time>
      </trkpt>
      <trkpt lat="28.7375630" lon="-17.7299420">
        <ele>85.1</ele>
        <time>2020-11-15T23:11:04Z</time>
      </trkpt>
      <trkpt lat="28.7375170" lon="-17.7298870">
        <ele>84.3</ele>
        <time>2020-11-15T23:11:05Z</time>
      </trkpt>
      <trkpt lat="28.7375170" lon="-17.7298870">
        <ele>84.3</ele>
        <time>2020-11-15T23:11:06Z</time>
      </trkpt>
      <trkpt lat="28.7374770" lon="-17.7298350">
        <ele>83.6</ele>
        <time>2020-11-15T23:11:07Z</time>
      </trkpt>
      <trkpt lat="28.7374770" lon="-17.7298350">
        <ele>83.6</ele>
        <time>2020-11-15T23:11:08Z</time>
      </trkpt>
      <trkpt lat="28.7374350" lon="-17.7297820">
        <ele>82.8</ele>
        <time>2020-11-15T23:11:09Z</time>
      </trkpt>
      <trkpt lat="28.7374350" lon="-17.7297820">
        <ele>82.8</ele>
        <time>2020-11-15T23:11:10Z</time>
      </trkpt>
      <trkpt lat="28.7373880" lon="-17.7297270">
        <ele>82.0</ele>
        <time>2020-11-15T23:11:11Z</time>
      </trkpt>
      <trkpt lat="28.7373880" lon="-17.7297270">
        <ele>82.0</ele>
        <time>2020-11-15T23:11:12Z</time>
      </trkpt>
      <trkpt lat="28.7373380" lon="-17.7296680">
        <ele>81.1</ele>
        <time>2020-11-15T23:11:13Z</time>
      </trkpt>
      <trkpt lat="28.7373380" lon="-17.7296680">
        <ele>81.1</ele>
        <time>2020-11-15T23:11:14Z</time>
      </trkpt>
      <trkpt lat="28.7372830" lon="-17.7296270">
        <ele>80.3</ele>
        <time>2020-11-15T23:11:15Z</time>
      </trkpt>
      <trkpt lat="28.7372830" lon="-17.7296270">
        <ele>80.3</ele>
        <time>2020-11-15T23:11:16Z</time>
      </trkpt>
      <trkpt lat="28.7372380" lon="-17.7295750">
        <ele>79.5</ele>
        <time>2020-11-15T23:11:17Z</time>
      </trkpt>
      <trkpt lat="28.7372380" lon="-17.7295750">
        <ele>79.5</ele>
        <time>2020-11-15T23:11:18Z</time>
      </trkpt>
      <trkpt lat="28.7372130" lon="-17.7295030">
        <ele>78.7</ele>
        <time>2020-11-15T23:11:19Z</time>
      </trkpt>
      <trkpt lat="28.7372130" lon="-17.7295030">
        <ele>78.7</ele>
        <time>2020-11-15T23:11:20Z</time>
      </trkpt>
      <trkpt lat="28.7371920" lon="-17.7294230">
        <ele>77.8</ele>
        <time>2020-11-15T23:11:21Z</time>
      </trkpt>
      <trkpt lat="28.7371920" lon="-17.7294230">
        <ele>77.8</ele>
        <time>2020-11-15T23:11:22Z</time>
      </trkpt>
      <trkpt lat="28.7371600" lon="-17.7293530">
        <ele>77.0</ele>
        <time>2020-11-15T23:11:23Z</time>
      </trkpt>
      <trkpt lat="28.7371400" lon="-17.7293120">
        <ele>76.5</ele>
        <time>2020-11-15T23:11:24Z</time>
      </trkpt>
      <trkpt lat="28.7371250" lon="-17.7292720">
        <ele>76.0</ele>
        <time>2020-11-15T23:11:25Z</time>
      </trkpt>
      <trkpt lat="28.7371250" lon="-17.7292720">
        <ele>76.0</ele>
        <time>2020-11-15T23:11:26Z</time>
      </trkpt>
      <trkpt lat="28.7371000" lon="-17.7292150">
        <ele>75.3</ele>
        <time>2020-11-15T23:11:27Z</time>
      </trkpt>
      <trkpt lat="28.7371000" lon="-17.7292150">
        <ele>75.3</ele>
        <time>2020-11-15T23:11:28Z</time>
      </trkpt>
      <trkpt lat="28.7370550" lon="-17.7291650">
        <ele>74.6</ele>
        <time>2020-11-15T23:11:29Z</time>
      </trkpt>
      <trkpt lat="28.7370320" lon="-17.7291420">
        <ele>74.2</ele>
        <time>2020-11-15T23:11:30Z</time>
      </trkpt>
      <trkpt lat="28.7370320" lon="-17.7291420">
        <ele>74.2</ele>
        <time>2020-11-15T23:11:31Z</time>
      </trkpt>
      <trkpt lat="28.7369670" lon="-17.7290950">
        <ele>73.3</ele>
        <time>2020-11-15T23:11:32Z</time>
      </trkpt>
      <trkpt lat="28.7369670" lon="-17.7290950">
        <ele>73.3</ele>
        <time>2020-11-15T23:11:33Z</time>
      </trkpt>
      <trkpt lat="28.7368820" lon="-17.7290580">
        <ele>72.2</ele>
        <time>2020-11-15T23:11:34Z</time>
      </trkpt>
      <trkpt lat="28.7368430" lon="-17.7290420">
        <ele>71.7</ele>
        <time>2020-11-15T23:11:35Z</time>
      </trkpt>
      <trkpt lat="28.7368430" lon="-17.7290420">
        <ele>71.7</ele>
        <time>2020-11-15T23:11:36Z</time>
      </trkpt>
      <trkpt lat="28.7367620" lon="-17.7290100">
        <ele>70.6</ele>
        <time>2020-11-15T23:11:37Z</time>
      </trkpt>
      <trkpt lat="28.7367620" lon="-17.7290100">
        <ele>70.6</ele>
        <time>2020-11-15T23:11:38Z</time>
      </trkpt>
      <trkpt lat="28.7366970" lon="-17.7289620">
        <ele>69.7</ele>
        <time>2020-11-15T23:11:39Z</time>
      </trkpt>
      <trkpt lat="28.7366970" lon="-17.7289620">
        <ele>69.7</ele>
        <time>2020-11-15T23:11:40Z</time>
      </trkpt>
      <trkpt lat="28.7366470" lon="-17.7288970">
        <ele>68.8</ele>
        <time>2020-11-15T23:11:41Z</time>
      </trkpt>
      <trkpt lat="28.7366470" lon="-17.7288970">
        <ele>68.8</ele>
        <time>2020-11-15T23:11:42Z</time>
      </trkpt>
      <trkpt lat="28.7366070" lon="-17.7288130">
        <ele>67.7</ele>
        <time>2020-11-15T23:11:43Z</time>
      </trkpt>
      <trkpt lat="28.7366070" lon="-17.7288130">
        <ele>67.7</ele>
        <time>2020-11-15T23:11:44Z</time>
      </trkpt>
      <trkpt lat="28.7365880" lon="-17.7287230">
        <ele>66.8</ele>
        <time>2020-11-15T23:11:45Z</time>
      </trkpt>
      <trkpt lat="28.7365880" lon="-17.7287230">
        <ele>66.8</ele>
        <time>2020-11-15T23:11:46Z</time>
      </trkpt>
      <trkpt lat="28.7365730" lon="-17.7286270">
        <ele>65.7</ele>
        <time>2020-11-15T23:11:47Z</time>
      </trkpt>
      <trkpt lat="28.7365730" lon="-17.7286270">
        <ele>65.7</ele>
        <time>2020-11-15T23:11:48Z</time>
      </trkpt>
      <trkpt lat="28.7365580" lon="-17.7285280">
        <ele>64.6</ele>
        <time>2020-11-15T23:11:49Z</time>
      </trkpt>
      <trkpt lat="28.7365580" lon="-17.7285280">
        <ele>64.6</ele>
        <time>2020-11-15T23:11:50Z</time>
      </trkpt>
      <trkpt lat="28.7365470" lon="-17.7284350">
        <ele>63.6</ele>
        <time>2020-11-15T23:11:51Z</time>
      </trkpt>
      <trkpt lat="28.7365470" lon="-17.7284350">
        <ele>63.6</ele>
        <time>2020-11-15T23:11:52Z</time>
      </trkpt>
      <trkpt lat="28.7365420" lon="-17.7283550">
        <ele>62.8</ele>
        <time>2020-11-15T23:11:53Z</time>
      </trkpt>
      <trkpt lat="28.7365420" lon="-17.7283550">
        <ele>62.8</ele>
        <time>2020-11-15T23:11:54Z</time>
      </trkpt>
      <trkpt lat="28.7365400" lon="-17.7282930">
        <ele>62.1</ele>
        <time>2020-11-15T23:11:55Z</time>
      </trkpt>
      <trkpt lat="28.7365400" lon="-17.7282930">
        <ele>62.1</ele>
        <time>2020-11-15T23:11:56Z</time>
      </trkpt>
      <trkpt lat="28.7365420" lon="-17.7282370">
        <ele>61.5</ele>
        <time>2020-11-15T23:11:57Z</time>
      </trkpt>
      <trkpt lat="28.7365420" lon="-17.7282370">
        <ele>61.5</ele>
        <time>2020-11-15T23:11:58Z</time>
      </trkpt>
      <trkpt lat="28.7365420" lon="-17.7281750">
        <ele>60.9</ele>
        <time>2020-11-15T23:11:59Z</time>
      </trkpt>
      <trkpt lat="28.7365420" lon="-17.7281750">
        <ele>60.9</ele>
        <time>2020-11-15T23:12:00Z</time>
      </trkpt>
      <trkpt lat="28.7365220" lon="-17.7281070">
        <ele>60.1</ele>
        <time>2020-11-15T23:12:01Z</time>
      </trkpt>
      <trkpt lat="28.7365220" lon="-17.7281070">
        <ele>60.1</ele>
        <time>2020-11-15T23:12:02Z</time>
      </trkpt>
      <trkpt lat="28.7365080" lon="-17.7280320">
        <ele>59.3</ele>
        <time>2020-11-15T23:12:03Z</time>
      </trkpt>
      <trkpt lat="28.7365080" lon="-17.7280320">
        <ele>59.3</ele>
        <time>2020-11-15T23:12:04Z</time>
      </trkpt>
      <trkpt lat="28.7364920" lon="-17.7279480">
        <ele>58.4</ele>
        <time>2020-11-15T23:12:05Z</time>
      </trkpt>
      <trkpt lat="28.7364920" lon="-17.7279480">
        <ele>58.4</ele>
        <time>2020-11-15T23:12:06Z</time>
      </trkpt>
      <trkpt lat="28.7364750" lon="-17.7278720">
        <ele>57.5</ele>
        <time>2020-11-15T23:12:07Z</time>
      </trkpt>
      <trkpt lat="28.7364750" lon="-17.7278720">
        <ele>57.5</ele>
        <time>2020-11-15T23:12:08Z</time>
      </trkpt>
      <trkpt lat="28.7364530" lon="-17.7277950">
        <ele>56.7</ele>
        <time>2020-11-15T23:12:09Z</time>
      </trkpt>
      <trkpt lat="28.7364530" lon="-17.7277950">
        <ele>56.7</ele>
        <time>2020-11-15T23:12:10Z</time>
      </trkpt>
      <trkpt lat="28.7364220" lon="-17.7277270">
        <ele>55.9</ele>
        <time>2020-11-15T23:12:11Z</time>
      </trkpt>
      <trkpt lat="28.7364220" lon="-17.7277270">
        <ele>55.9</ele>
        <time>2020-11-15T23:12:12Z</time>
      </trkpt>
      <trkpt lat="28.7363770" lon="-17.7276700">
        <ele>55.0</ele>
        <time>2020-11-15T23:12:13Z</time>
      </trkpt>
      <trkpt lat="28.7363770" lon="-17.7276700">
        <ele>55.0</ele>
        <time>2020-11-15T23:12:14Z</time>
      </trkpt>
      <trkpt lat="28.7363180" lon="-17.7276280">
        <ele>54.2</ele>
        <time>2020-11-15T23:12:15Z</time>
      </trkpt>
      <trkpt lat="28.7363180" lon="-17.7276280">
        <ele>54.2</ele>
        <time>2020-11-15T23:12:16Z</time>
      </trkpt>
      <trkpt lat="28.7362530" lon="-17.7275980">
        <ele>53.3</ele>
        <time>2020-11-15T23:12:17Z</time>
      </trkpt>
      <trkpt lat="28.7362530" lon="-17.7275980">
        <ele>53.3</ele>
        <time>2020-11-15T23:12:18Z</time>
      </trkpt>
      <trkpt lat="28.7361950" lon="-17.7275520">
        <ele>52.5</ele>
        <time>2020-11-15T23:12:19Z</time>
      </trkpt>
      <trkpt lat="28.7361720" lon="-17.7275220">
        <ele>52.1</ele>
        <time>2020-11-15T23:12:20Z</time>
      </trkpt>
      <trkpt lat="28.7361720" lon="-17.7275220">
        <ele>52.1</ele>
        <time>2020-11-15T23:12:21Z</time>
      </trkpt>
      <trkpt lat="28.7361350" lon="-17.7274600">
        <ele>51.3</ele>
        <time>2020-11-15T23:12:22Z</time>
      </trkpt>
      <trkpt lat="28.7361230" lon="-17.7274270">
        <ele>50.9</ele>
        <time>2020-11-15T23:12:23Z</time>
      </trkpt>
      <trkpt lat="28.7361170" lon="-17.7273920">
        <ele>50.5</ele>
        <time>2020-11-15T23:12:24Z</time>
      </trkpt>
      <trkpt lat="28.7361080" lon="-17.7273600">
        <ele>50.1</ele>
        <time>2020-11-15T23:12:25Z</time>
      </trkpt>
      <trkpt lat="28.7361080" lon="-17.7273600">
        <ele>50.1</ele>
        <time>2020-11-15T23:12:26Z</time>
      </trkpt>
      <trkpt lat="28.7361130" lon="-17.7272850">
        <ele>49.3</ele>
        <time>2020-11-15T23:12:27Z</time>
      </trkpt>
      <trkpt lat="28.7361130" lon="-17.7272850">
        <ele>49.3</ele>
        <time>2020-11-15T23:12:28Z</time>
      </trkpt>
      <trkpt lat="28.7361320" lon="-17.7272070">
        <ele>48.5</ele>
        <time>2020-11-15T23:12:29Z</time>
      </trkpt>
      <trkpt lat="28.7361320" lon="-17.7272070">
        <ele>48.5</ele>
        <time>2020-11-15T23:12:30Z</time>
      </trkpt>
      <trkpt lat="28.7361450" lon="-17.7271330">
        <ele>47.7</ele>
        <time>2020-11-15T23:12:31Z</time>
      </trkpt>
      <trkpt lat="28.7361450" lon="-17.7271330">
        <ele>47.7</ele>
        <time>2020-11-15T23:12:32Z</time>
      </trkpt>
      <trkpt lat="28.7361470" lon="-17.7270630">
        <ele>46.9</ele>
        <time>2020-11-15T23:12:33Z</time>
      </trkpt>
      <trkpt lat="28.7361470" lon="-17.7270630">
        <ele>46.9</ele>
        <time>2020-11-15T23:12:34Z</time>
      </trkpt>
      <trkpt lat="28.7361470" lon="-17.7269950">
        <ele>46.2</ele>
        <time>2020-11-15T23:12:35Z</time>
      </trkpt>
      <trkpt lat="28.7361480" lon="-17.7269630">
        <ele>45.9</ele>
        <time>2020-11-15T23:12:36Z</time>
      </trkpt>
      <trkpt lat="28.7361480" lon="-17.7269630">
        <ele>45.9</ele>
        <time>2020-11-15T23:12:37Z</time>
      </trkpt>
      <trkpt lat="28.7361420" lon="-17.7268950">
        <ele>45.1</ele>
        <time>2020-11-15T23:12:38Z</time>
      </trkpt>
      <trkpt lat="28.7361420" lon="-17.7268950">
        <ele>45.1</ele>
        <time>2020-11-15T23:12:39Z</time>
      </trkpt>
      <trkpt lat="28.7361300" lon="-17.7268250">
        <ele>44.4</ele>
        <time>2020-11-15T23:12:40Z</time>
      </trkpt>
      <trkpt lat="28.7361170" lon="-17.7267870">
        <ele>43.9</ele>
        <time>2020-11-15T23:12:41Z</time>
      </trkpt>
      <trkpt lat="28.7361020" lon="-17.7267470">
        <ele>43.5</ele>
        <time>2020-11-15T23:12:42Z</time>
      </trkpt>
      <trkpt lat="28.7361020" lon="-17.7267470">
        <ele>43.5</ele>
        <time>2020-11-15T23:12:43Z</time>
      </trkpt>
      <trkpt lat="28.7360700" lon="-17.7266680">
        <ele>42.5</ele>
        <time>2020-11-15T23:12:44Z</time>
      </trkpt>
      <trkpt lat="28.7360530" lon="-17.7266300">
        <ele>42.1</ele>
        <time>2020-11-15T23:12:45Z</time>
      </trkpt>
      <trkpt lat="28.7360400" lon="-17.7265930">
        <ele>41.7</ele>
        <time>2020-11-15T23:12:46Z</time>
      </trkpt>
      <trkpt lat="28.7360400" lon="-17.7265930">
        <ele>41.7</ele>
        <time>2020-11-15T23:12:47Z</time>
      </trkpt>
      <trkpt lat="28.7360120" lon="-17.7265270">
        <ele>40.9</ele>
        <time>2020-11-15T23:12:48Z</time>
      </trkpt>
      <trkpt lat="28.7359970" lon="-17.7264980">
        <ele>40.5</ele>
        <time>2020-11-15T23:12:49Z</time>
      </trkpt>
      <trkpt lat="28.7359970" lon="-17.7264980">
        <ele>40.5</ele>
        <time>2020-11-15T23:12:50Z</time>
      </trkpt>
      <trkpt lat="28.7359670" lon="-17.7264480">
        <ele>39.9</ele>
        <time>2020-11-15T23:12:51Z</time>
      </trkpt>
      <trkpt lat="28.7359670" lon="-17.7264480">
        <ele>39.9</ele>
        <time>2020-11-15T23:12:52Z</time>
      </trkpt>
      <trkpt lat="28.7359300" lon="-17.7263870">
        <ele>39.1</ele>
        <time>2020-11-15T23:12:53Z</time>
      </trkpt>
      <trkpt lat="28.7359300" lon="-17.7263870">
        <ele>39.1</ele>
        <time>2020-11-15T23:12:54Z</time>
      </trkpt>
      <trkpt lat="28.7358820" lon="-17.7263230">
        <ele>38.2</ele>
        <time>2020-11-15T23:12:55Z</time>
      </trkpt>
      <trkpt lat="28.7358820" lon="-17.7263230">
        <ele>38.2</ele>
        <time>2020-11-15T23:12:56Z</time>
      </trkpt>
      <trkpt lat="28.7358570" lon="-17.7262500">
        <ele>37.4</ele>
        <time>2020-11-15T23:12:57Z</time>
      </trkpt>
      <trkpt lat="28.7358570" lon="-17.7262500">
        <ele>37.4</ele>
        <time>2020-11-15T23:12:58Z</time>
      </trkpt>
      <trkpt lat="28.7358550" lon="-17.7261970">
        <ele>36.8</ele>
        <time>2020-11-15T23:12:59Z</time>
      </trkpt>
      <trkpt lat="28.7358630" lon="-17.7261780">
        <ele>36.6</ele>
        <time>2020-11-15T23:13:00Z</time>
      </trkpt>
      <trkpt lat="28.7358730" lon="-17.7261600">
        <ele>36.3</ele>
        <time>2020-11-15T23:13:01Z</time>
      </trkpt>
      <trkpt lat="28.7358730" lon="-17.7261600">
        <ele>36.3</ele>
        <time>2020-11-15T23:13:02Z</time>
      </trkpt>
      <trkpt lat="28.7359150" lon="-17.7261320">
        <ele>35.8</ele>
        <time>2020-11-15T23:13:03Z</time>
      </trkpt>
      <trkpt lat="28.7359150" lon="-17.7261320">
        <ele>35.8</ele>
        <time>2020-11-15T23:13:04Z</time>
      </trkpt>
      <trkpt lat="28.7359620" lon="-17.7261180">
        <ele>35.2</ele>
        <time>2020-11-15T23:13:05Z</time>
      </trkpt>
      <trkpt lat="28.7359830" lon="-17.7261150">
        <ele>34.9</ele>
        <time>2020-11-15T23:13:06Z</time>
      </trkpt>
      <trkpt lat="28.7359830" lon="-17.7261150">
        <ele>34.9</ele>
        <time>2020-11-15T23:13:07Z</time>
      </trkpt>
      <trkpt lat="28.7360150" lon="-17.7260970">
        <ele>34.5</ele>
        <time>2020-11-15T23:13:08Z</time>
      </trkpt>
      <trkpt lat="28.7360150" lon="-17.7260970">
        <ele>34.5</ele>
        <time>2020-11-15T23:13:09Z</time>
      </trkpt>
      <trkpt lat="28.7360450" lon="-17.7260800">
        <ele>34.1</ele>
        <time>2020-11-15T23:13:10Z</time>
      </trkpt>
      <trkpt lat="28.7360450" lon="-17.7260800">
        <ele>34.1</ele>
        <time>2020-11-15T23:13:11Z</time>
      </trkpt>
      <trkpt lat="28.7360730" lon="-17.7260600">
        <ele>33.7</ele>
        <time>2020-11-15T23:13:12Z</time>
      </trkpt>
      <trkpt lat="28.7360880" lon="-17.7260520">
        <ele>33.5</ele>
        <time>2020-11-15T23:13:13Z</time>
      </trkpt>
      <trkpt lat="28.7360880" lon="-17.7260520">
        <ele>33.5</ele>
        <time>2020-11-15T23:13:14Z</time>
      </trkpt>
      <trkpt lat="28.7361230" lon="-17.7260270">
        <ele>33.0</ele>
        <time>2020-11-15T23:13:15Z</time>
      </trkpt>
      <trkpt lat="28.7361230" lon="-17.7260270">
        <ele>33.0</ele>
        <time>2020-11-15T23:13:16Z</time>
      </trkpt>
      <trkpt lat="28.7361580" lon="-17.7259930">
        <ele>32.4</ele>
        <time>2020-11-15T23:13:17Z</time>
      </trkpt>
      <trkpt lat="28.7361580" lon="-17.7259930">
        <ele>32.4</ele>
        <time>2020-11-15T23:13:18Z</time>
      </trkpt>
      <trkpt lat="28.7361870" lon="-17.7259550">
        <ele>31.9</ele>
        <time>2020-11-15T23:13:19Z</time>
      </trkpt>
      <trkpt lat="28.7361870" lon="-17.7259550">
        <ele>31.9</ele>
        <time>2020-11-15T23:13:20Z</time>
      </trkpt>
      <trkpt lat="28.7361900" lon="-17.7259370">
        <ele>31.7</ele>
        <time>2020-11-15T23:13:21Z</time>
      </trkpt>
      <trkpt lat="28.7361880" lon="-17.7259400">
        <ele>31.6</ele>
        <time>2020-11-15T23:13:22Z</time>
      </trkpt>
      <trkpt lat="28.7361880" lon="-17.7259420">
        <ele>31.6</ele>
        <time>2020-11-15T23:13:23Z</time>
      </trkpt>
      <trkpt lat="28.7362520" lon="-17.7258880">
        <ele>30.6</ele>
        <time>2020-11-15T23:13:29Z</time>
      </trkpt>
      <trkpt lat="28.7362520" lon="-17.7258880">
        <ele>30.6</ele>
        <time>2020-11-15T23:13:30Z</time>
      </trkpt>
      <trkpt lat="28.7362900" lon="-17.7258450">
        <ele>30.0</ele>
        <time>2020-11-15T23:13:31Z</time>
      </trkpt>
      <trkpt lat="28.7362900" lon="-17.7258450">
        <ele>30.0</ele>
        <time>2020-11-15T23:13:32Z</time>
      </trkpt>
      <trkpt lat="28.7363330" lon="-17.7257920">
        <ele>29.2</ele>
        <time>2020-11-15T23:13:33Z</time>
      </trkpt>
      <trkpt lat="28.7363330" lon="-17.7257920">
        <ele>29.2</ele>
        <time>2020-11-15T23:13:34Z</time>
      </trkpt>
      <trkpt lat="28.7363730" lon="-17.7257320">
        <ele>28.4</ele>
        <time>2020-11-15T23:13:35Z</time>
      </trkpt>
      <trkpt lat="28.7363930" lon="-17.7256980">
        <ele>28.0</ele>
        <time>2020-11-15T23:13:36Z</time>
      </trkpt>
      <trkpt lat="28.7364170" lon="-17.7256630">
        <ele>27.5</ele>
        <time>2020-11-15T23:13:37Z</time>
      </trkpt>
      <trkpt lat="28.7364170" lon="-17.7256630">
        <ele>27.5</ele>
        <time>2020-11-15T23:13:38Z</time>
      </trkpt>
      <trkpt lat="28.7364820" lon="-17.7255970">
        <ele>26.4</ele>
        <time>2020-11-15T23:13:39Z</time>
      </trkpt>
      <trkpt lat="28.7364820" lon="-17.7255970">
        <ele>26.4</ele>
        <time>2020-11-15T23:13:40Z</time>
      </trkpt>
      <trkpt lat="28.7365470" lon="-17.7255370">
        <ele>25.4</ele>
        <time>2020-11-15T23:13:41Z</time>
      </trkpt>
      <trkpt lat="28.7365470" lon="-17.7255370">
        <ele>25.4</ele>
        <time>2020-11-15T23:13:42Z</time>
      </trkpt>
      <trkpt lat="28.7366080" lon="-17.7254980">
        <ele>24.6</ele>
        <time>2020-11-15T23:13:43Z</time>
      </trkpt>
      <trkpt lat="28.7366080" lon="-17.7254980">
        <ele>24.6</ele>
        <time>2020-11-15T23:13:44Z</time>
      </trkpt>
      <trkpt lat="28.7366720" lon="-17.7254800">
        <ele>23.8</ele>
        <time>2020-11-15T23:13:45Z</time>
      </trkpt>
      <trkpt lat="28.7367000" lon="-17.7254800">
        <ele>23.4</ele>
        <time>2020-11-15T23:13:46Z</time>
      </trkpt>
      <trkpt lat="28.7367000" lon="-17.7254800">
        <ele>23.4</ele>
        <time>2020-11-15T23:13:47Z</time>
      </trkpt>
      <trkpt lat="28.7367570" lon="-17.7254920">
        <ele>22.7</ele>
        <time>2020-11-15T23:13:48Z</time>
      </trkpt>
      <trkpt lat="28.7367820" lon="-17.7254970">
        <ele>22.4</ele>
        <time>2020-11-15T23:13:49Z</time>
      </trkpt>
      <trkpt lat="28.7367820" lon="-17.7254970">
        <ele>22.4</ele>
        <time>2020-11-15T23:13:50Z</time>
      </trkpt>
      <trkpt lat="28.7368250" lon="-17.7254970">
        <ele>21.9</ele>
        <time>2020-11-15T23:13:51Z</time>
      </trkpt>
      <trkpt lat="28.7368250" lon="-17.7254970">
        <ele>21.9</ele>
        <time>2020-11-15T23:13:52Z</time>
      </trkpt>
      <trkpt lat="28.7368720" lon="-17.7255000">
        <ele>21.3</ele>
        <time>2020-11-15T23:13:53Z</time>
      </trkpt>
      <trkpt lat="28.7369000" lon="-17.7254970">
        <ele>21.0</ele>
        <time>2020-11-15T23:13:54Z</time>
      </trkpt>
      <trkpt lat="28.7369000" lon="-17.7254970">
        <ele>21.0</ele>
        <time>2020-11-15T23:13:55Z</time>
      </trkpt>
      <trkpt lat="28.7369600" lon="-17.7254880">
        <ele>20.3</ele>
        <time>2020-11-15T23:13:56Z</time>
      </trkpt>
      <trkpt lat="28.7369600" lon="-17.7254880">
        <ele>20.3</ele>
        <time>2020-11-15T23:13:57Z</time>
      </trkpt>
      <trkpt lat="28.7370250" lon="-17.7254880">
        <ele>19.5</ele>
        <time>2020-11-15T23:13:58Z</time>
      </trkpt>
      <trkpt lat="28.7370620" lon="-17.7254930">
        <ele>19.0</ele>
        <time>2020-11-15T23:13:59Z</time>
      </trkpt>
      <trkpt lat="28.7370620" lon="-17.7254930">
        <ele>19.0</ele>
        <time>2020-11-15T23:14:00Z</time>
      </trkpt>
      <trkpt lat="28.7371300" lon="-17.7254780">
        <ele>18.2</ele>
        <time>2020-11-15T23:14:01Z</time>
      </trkpt>
      <trkpt lat="28.7371300" lon="-17.7254780">
        <ele>18.2</ele>
        <time>2020-11-15T23:14:02Z</time>
      </trkpt>
      <trkpt lat="28.7372000" lon="-17.7254530">
        <ele>17.3</ele>
        <time>2020-11-15T23:14:03Z</time>
      </trkpt>
      <trkpt lat="28.7372000" lon="-17.7254530">
        <ele>17.3</ele>
        <time>2020-11-15T23:14:04Z</time>
      </trkpt>
      <trkpt lat="28.7372680" lon="-17.7254100">
        <ele>16.3</ele>
        <time>2020-11-15T23:14:05Z</time>
      </trkpt>
      <trkpt lat="28.7372680" lon="-17.7254100">
        <ele>16.3</ele>
        <time>2020-11-15T23:14:06Z</time>
      </trkpt>
      <trkpt lat="28.7373350" lon="-17.7253600">
        <ele>15.4</ele>
        <time>2020-11-15T23:14:07Z</time>
      </trkpt>
      <trkpt lat="28.7373680" lon="-17.7253370">
        <ele>14.9</ele>
        <time>2020-11-15T23:14:08Z</time>
      </trkpt>
      <trkpt lat="28.7373680" lon="-17.7253370">
        <ele>14.9</ele>
        <time>2020-11-15T23:14:09Z</time>
      </trkpt>
      <trkpt lat="28.7374320" lon="-17.7252980">
        <ele>14.0</ele>
        <time>2020-11-15T23:14:10Z</time>
      </trkpt>
      <trkpt lat="28.7374320" lon="-17.7252980">
        <ele>14.0</ele>
        <time>2020-11-15T23:14:11Z</time>
      </trkpt>
      <trkpt lat="28.7374950" lon="-17.7252620">
        <ele>13.2</ele>
        <time>2020-11-15T23:14:12Z</time>
      </trkpt>
      <trkpt lat="28.7375230" lon="-17.7252430">
        <ele>12.8</ele>
        <time>2020-11-15T23:14:13Z</time>
      </trkpt>
      <trkpt lat="28.7375230" lon="-17.7252430">
        <ele>12.8</ele>
        <time>2020-11-15T23:14:14Z</time>
      </trkpt>
      <trkpt lat="28.7375750" lon="-17.7252030">
        <ele>12.5</ele>
        <time>2020-11-15T23:14:15Z</time>
      </trkpt>
      <trkpt lat="28.7375980" lon="-17.7251870">
        <ele>12.5</ele>
        <time>2020-11-15T23:14:16Z</time>
      </trkpt>
      <trkpt lat="28.7375980" lon="-17.7251870">
        <ele>12.5</ele>
        <time>2020-11-15T23:14:17Z</time>
      </trkpt>
      <trkpt lat="28.7376430" lon="-17.7251550">
        <ele>12.4</ele>
        <time>2020-11-15T23:14:18Z</time>
      </trkpt>
      <trkpt lat="28.7376670" lon="-17.7251350">
        <ele>12.3</ele>
        <time>2020-11-15T23:14:19Z</time>
      </trkpt>
      <trkpt lat="28.7376670" lon="-17.7251350">
        <ele>12.3</ele>
        <time>2020-11-15T23:14:20Z</time>
      </trkpt>
      <trkpt lat="28.7377150" lon="-17.7250930">
        <ele>12.1</ele>
        <time>2020-11-15T23:14:21Z</time>
      </trkpt>
      <trkpt lat="28.7377150" lon="-17.7250930">
        <ele>12.1</ele>
        <time>2020-11-15T23:14:22Z</time>
      </trkpt>
      <trkpt lat="28.7377670" lon="-17.7250700">
        <ele>11.9</ele>
        <time>2020-11-15T23:14:23Z</time>
      </trkpt>
      <trkpt lat="28.7377970" lon="-17.7250650">
        <ele>11.8</ele>
        <time>2020-11-15T23:14:24Z</time>
      </trkpt>
      <trkpt lat="28.7378280" lon="-17.7250650">
        <ele>11.7</ele>
        <time>2020-11-15T23:14:25Z</time>
      </trkpt>
      <trkpt lat="28.7378280" lon="-17.7250650">
        <ele>11.7</ele>
        <time>2020-11-15T23:14:26Z</time>
      </trkpt>
      <trkpt lat="28.7378900" lon="-17.7250670">
        <ele>11.6</ele>
        <time>2020-11-15T23:14:27Z</time>
      </trkpt>
      <trkpt lat="28.7379150" lon="-17.7250670">
        <ele>11.5</ele>
        <time>2020-11-15T23:14:28Z</time>
      </trkpt>
      <trkpt lat="28.7379150" lon="-17.7250670">
        <ele>11.5</ele>
        <time>2020-11-15T23:14:29Z</time>
      </trkpt>
      <trkpt lat="28.7379620" lon="-17.7250680">
        <ele>11.5</ele>
        <time>2020-11-15T23:14:30Z</time>
      </trkpt>
      <trkpt lat="28.7379800" lon="-17.7250630">
        <ele>11.5</ele>
        <time>2020-11-15T23:14:31Z</time>
      </trkpt>
      <trkpt lat="28.7379800" lon="-17.7250630">
        <ele>11.5</ele>
        <time>2020-11-15T23:14:32Z</time>
      </trkpt>
      <trkpt lat="28.7380170" lon="-17.7250630">
        <ele>11.5</ele>
        <time>2020-11-15T23:14:33Z</time>
      </trkpt>
      <trkpt lat="28.7380350" lon="-17.7250650">
        <ele>11.5</ele>
        <time>2020-11-15T23:14:34Z</time>
      </trkpt>
      <trkpt lat="28.7380350" lon="-17.7250650">
        <ele>11.5</ele>
        <time>2020-11-15T23:14:35Z</time>
      </trkpt>
      <trkpt lat="28.7380720" lon="-17.7250550">
        <ele>11.4</ele>
        <time>2020-11-15T23:14:36Z</time>
      </trkpt>
      <trkpt lat="28.7380920" lon="-17.7250470">
        <ele>11.4</ele>
        <time>2020-11-15T23:14:37Z</time>
      </trkpt>
      <trkpt lat="28.7380920" lon="-17.7250470">
        <ele>11.4</ele>
        <time>2020-11-15T23:14:38Z</time>
      </trkpt>
      <trkpt lat="28.7381380" lon="-17.7250370">
        <ele>11.3</ele>
        <time>2020-11-15T23:14:39Z</time>
      </trkpt>
      <trkpt lat="28.7381380" lon="-17.7250370">
        <ele>11.3</ele>
        <time>2020-11-15T23:14:40Z</time>
      </trkpt>
      <trkpt lat="28.7381880" lon="-17.7250320">
        <ele>11.1</ele>
        <time>2020-11-15T23:14:41Z</time>
      </trkpt>
      <trkpt lat="28.7381880" lon="-17.7250320">
        <ele>11.1</ele>
        <time>2020-11-15T23:14:42Z</time>
      </trkpt>
      <trkpt lat="28.7382380" lon="-17.7250350">
        <ele>10.9</ele>
        <time>2020-11-15T23:14:43Z</time>
      </trkpt>
      <trkpt lat="28.7382380" lon="-17.7250350">
        <ele>10.9</ele>
        <time>2020-11-15T23:14:44Z</time>
      </trkpt>
      <trkpt lat="28.7382920" lon="-17.7250380">
        <ele>10.9</ele>
        <time>2020-11-15T23:14:45Z</time>
      </trkpt>
      <trkpt lat="28.7382920" lon="-17.7250380">
        <ele>10.9</ele>
        <time>2020-11-15T23:14:46Z</time>
      </trkpt>
      <trkpt lat="28.7383480" lon="-17.7250430">
        <ele>11.2</ele>
        <time>2020-11-15T23:14:47Z</time>
      </trkpt>
      <trkpt lat="28.7383480" lon="-17.7250430">
        <ele>11.2</ele>
        <time>2020-11-15T23:14:48Z</time>
      </trkpt>
      <trkpt lat="28.7384050" lon="-17.7250470">
        <ele>11.5</ele>
        <time>2020-11-15T23:14:49Z</time>
      </trkpt>
      <trkpt lat="28.7384050" lon="-17.7250470">
        <ele>11.5</ele>
        <time>2020-11-15T23:14:50Z</time>
      </trkpt>
      <trkpt lat="28.7384550" lon="-17.7250450">
        <ele>11.8</ele>
        <time>2020-11-15T23:14:51Z</time>
      </trkpt>
      <trkpt lat="28.7384550" lon="-17.7250450">
        <ele>11.8</ele>
        <time>2020-11-15T23:14:52Z</time>
      </trkpt>
      <trkpt lat="28.7385100" lon="-17.7250430">
        <ele>12.1</ele>
        <time>2020-11-15T23:14:53Z</time>
      </trkpt>
      <trkpt lat="28.7385100" lon="-17.7250430">
        <ele>12.1</ele>
        <time>2020-11-15T23:14:54Z</time>
      </trkpt>
      <trkpt lat="28.7385650" lon="-17.7250480">
        <ele>12.4</ele>
        <time>2020-11-15T23:14:55Z</time>
      </trkpt>
      <trkpt lat="28.7385650" lon="-17.7250480">
        <ele>12.4</ele>
        <time>2020-11-15T23:14:56Z</time>
      </trkpt>
      <trkpt lat="28.7386270" lon="-17.7250500">
        <ele>12.7</ele>
        <time>2020-11-15T23:14:57Z</time>
      </trkpt>
      <trkpt lat="28.7386580" lon="-17.7250500">
        <ele>12.9</ele>
        <time>2020-11-15T23:14:58Z</time>
      </trkpt>
      <trkpt lat="28.7386580" lon="-17.7250500">
        <ele>12.9</ele>
        <time>2020-11-15T23:14:59Z</time>
      </trkpt>
      <trkpt lat="28.7387180" lon="-17.7250450">
        <ele>13.2</ele>
        <time>2020-11-15T23:15:00Z</time>
      </trkpt>
      <trkpt lat="28.7387470" lon="-17.7250270">
        <ele>13.4</ele>
        <time>2020-11-15T23:15:01Z</time>
      </trkpt>
      <trkpt lat="28.7387470" lon="-17.7250270">
        <ele>13.4</ele>
        <time>2020-11-15T23:15:02Z</time>
      </trkpt>
      <trkpt lat="28.7388050" lon="-17.7250030">
        <ele>13.7</ele>
        <time>2020-11-15T23:15:03Z</time>
      </trkpt>
      <trkpt lat="28.7388050" lon="-17.7250030">
        <ele>13.7</ele>
        <time>2020-11-15T23:15:04Z</time>
      </trkpt>
      <trkpt lat="28.7388770" lon="-17.7249900">
        <ele>14.1</ele>
        <time>2020-11-15T23:15:05Z</time>
      </trkpt>
      <trkpt lat="28.7389120" lon="-17.7249900">
        <ele>14.3</ele>
        <time>2020-11-15T23:15:06Z</time>
      </trkpt>
      <trkpt lat="28.7389120" lon="-17.7249900">
        <ele>14.3</ele>
        <time>2020-11-15T23:15:07Z</time>
      </trkpt>
      <trkpt lat="28.7389780" lon="-17.7250180">
        <ele>14.7</ele>
        <time>2020-11-15T23:15:08Z</time>
      </trkpt>
      <trkpt lat="28.7389980" lon="-17.7250470">
        <ele>14.9</ele>
        <time>2020-11-15T23:15:09Z</time>
      </trkpt>
      <trkpt lat="28.7390070" lon="-17.7250780">
        <ele>15.1</ele>
        <time>2020-11-15T23:15:10Z</time>
      </trkpt>
      <trkpt lat="28.7390070" lon="-17.7250780">
        <ele>15.1</ele>
        <time>2020-11-15T23:15:11Z</time>
      </trkpt>
      <trkpt lat="28.7390080" lon="-17.7251370">
        <ele>15.6</ele>
        <time>2020-11-15T23:15:12Z</time>
      </trkpt>
      <trkpt lat="28.7390080" lon="-17.7251370">
        <ele>15.6</ele>
        <time>2020-11-15T23:15:13Z</time>
      </trkpt>
      <trkpt lat="28.7390070" lon="-17.7251800">
        <ele>16.0</ele>
        <time>2020-11-15T23:15:14Z</time>
      </trkpt>
      <trkpt lat="28.7390030" lon="-17.7252020">
        <ele>16.2</ele>
        <time>2020-11-15T23:15:15Z</time>
      </trkpt>
      <trkpt lat="28.7390030" lon="-17.7252020">
        <ele>16.2</ele>
        <time>2020-11-15T23:15:16Z</time>
      </trkpt>
      <trkpt lat="28.7390020" lon="-17.7252430">
        <ele>16.6</ele>
        <time>2020-11-15T23:15:17Z</time>
      </trkpt>
      <trkpt lat="28.7390020" lon="-17.7252430">
        <ele>16.6</ele>
        <time>2020-11-15T23:15:18Z</time>
      </trkpt>
      <trkpt lat="28.7390050" lon="-17.7252800">
        <ele>17.0</ele>
        <time>2020-11-15T23:15:19Z</time>
      </trkpt>
      <trkpt lat="28.7390050" lon="-17.7252800">
        <ele>17.0</ele>
        <time>2020-11-15T23:15:20Z</time>
      </trkpt>
      <trkpt lat="28.7390070" lon="-17.7253200">
        <ele>17.4</ele>
        <time>2020-11-15T23:15:21Z</time>
      </trkpt>
      <trkpt lat="28.7390070" lon="-17.7253200">
        <ele>17.4</ele>
        <time>2020-11-15T23:15:22Z</time>
      </trkpt>
      <trkpt lat="28.7390200" lon="-17.7253550">
        <ele>17.7</ele>
        <time>2020-11-15T23:15:23Z</time>
      </trkpt>
      <trkpt lat="28.7390200" lon="-17.7253550">
        <ele>17.7</ele>
        <time>2020-11-15T23:15:24Z</time>
      </trkpt>
      <trkpt lat="28.7390330" lon="-17.7254050">
        <ele>18.1</ele>
        <time>2020-11-15T23:15:25Z</time>
      </trkpt>
      <trkpt lat="28.7390330" lon="-17.7254050">
        <ele>18.1</ele>
        <time>2020-11-15T23:15:26Z</time>
      </trkpt>
      <trkpt lat="28.7390570" lon="-17.7254450">
        <ele>18.4</ele>
        <time>2020-11-15T23:15:27Z</time>
      </trkpt>
      <trkpt lat="28.7390720" lon="-17.7254550">
        <ele>18.5</ele>
        <time>2020-11-15T23:15:28Z</time>
      </trkpt>
      <trkpt lat="28.7390720" lon="-17.7254550">
        <ele>18.5</ele>
        <time>2020-11-15T23:15:29Z</time>
      </trkpt>
      <trkpt lat="28.7391000" lon="-17.7254770">
        <ele>18.6</ele>
        <time>2020-11-15T23:15:30Z</time>
      </trkpt>
      <trkpt lat="28.7391000" lon="-17.7254770">
        <ele>18.6</ele>
        <time>2020-11-15T23:15:31Z</time>
      </trkpt>
      <trkpt lat="28.7391230" lon="-17.7255030">
        <ele>18.6</ele>
        <time>2020-11-15T23:15:32Z</time>
      </trkpt>
      <trkpt lat="28.7391380" lon="-17.7255180">
        <ele>18.6</ele>
        <time>2020-11-15T23:15:33Z</time>
      </trkpt>
      <trkpt lat="28.7391380" lon="-17.7255180">
        <ele>18.6</ele>
        <time>2020-11-15T23:15:34Z</time>
      </trkpt>
      <trkpt lat="28.7391730" lon="-17.7255330">
        <ele>18.6</ele>
        <time>2020-11-15T23:15:35Z</time>
      </trkpt>
      <trkpt lat="28.7391730" lon="-17.7255330">
        <ele>18.6</ele>
        <time>2020-11-15T23:15:36Z</time>
      </trkpt>
      <trkpt lat="28.7392200" lon="-17.7255480">
        <ele>18.4</ele>
        <time>2020-11-15T23:15:37Z</time>
      </trkpt>
      <trkpt lat="28.7392200" lon="-17.7255480">
        <ele>18.4</ele>
        <time>2020-11-15T23:15:38Z</time>
      </trkpt>
      <trkpt lat="28.7392800" lon="-17.7255600">
        <ele>18.2</ele>
        <time>2020-11-15T23:15:39Z</time>
      </trkpt>
      <trkpt lat="28.7393120" lon="-17.7255650">
        <ele>18.0</ele>
        <time>2020-11-15T23:15:40Z</time>
      </trkpt>
      <trkpt lat="28.7393120" lon="-17.7255650">
        <ele>18.0</ele>
        <time>2020-11-15T23:15:41Z</time>
      </trkpt>
      <trkpt lat="28.7393820" lon="-17.7255730">
        <ele>17.7</ele>
        <time>2020-11-15T23:15:42Z</time>
      </trkpt>
      <trkpt lat="28.7394200" lon="-17.7255800">
        <ele>17.6</ele>
        <time>2020-11-15T23:15:43Z</time>
      </trkpt>
      <trkpt lat="28.7394200" lon="-17.7255800">
        <ele>17.6</ele>
        <time>2020-11-15T23:15:44Z</time>
      </trkpt>
      <trkpt lat="28.7394950" lon="-17.7256020">
        <ele>17.5</ele>
        <time>2020-11-15T23:15:45Z</time>
      </trkpt>
      <trkpt lat="28.7395300" lon="-17.7256150">
        <ele>17.5</ele>
        <time>2020-11-15T23:15:46Z</time>
      </trkpt>
      <trkpt lat="28.7395630" lon="-17.7256250">
        <ele>17.6</ele>
        <time>2020-11-15T23:15:47Z</time>
      </trkpt>
      <trkpt lat="28.7395630" lon="-17.7256250">
        <ele>17.6</ele>
        <time>2020-11-15T23:15:48Z</time>
      </trkpt>
      <trkpt lat="28.7396250" lon="-17.7256350">
        <ele>17.8</ele>
        <time>2020-11-15T23:15:49Z</time>
      </trkpt>
      <trkpt lat="28.7396500" lon="-17.7256380">
        <ele>17.9</ele>
        <time>2020-11-15T23:15:50Z</time>
      </trkpt>
      <trkpt lat="28.7396730" lon="-17.7256400">
        <ele>18.0</ele>
        <time>2020-11-15T23:15:51Z</time>
      </trkpt>
      <trkpt lat="28.7396730" lon="-17.7256400">
        <ele>18.0</ele>
        <time>2020-11-15T23:15:52Z</time>
      </trkpt>
      <trkpt lat="28.7397150" lon="-17.7256420">
        <ele>18.3</ele>
        <time>2020-11-15T23:15:53Z</time>
      </trkpt>
      <trkpt lat="28.7397150" lon="-17.7256420">
        <ele>18.3</ele>
        <time>2020-11-15T23:15:54Z</time>
      </trkpt>
      <trkpt lat="28.7397600" lon="-17.7256470">
        <ele>18.6</ele>
        <time>2020-11-15T23:15:55Z</time>
      </trkpt>
      <trkpt lat="28.7397600" lon="-17.7256470">
        <ele>18.6</ele>
        <time>2020-11-15T23:15:56Z</time>
      </trkpt>
      <trkpt lat="28.7398020" lon="-17.7256570">
        <ele>18.9</ele>
        <time>2020-11-15T23:15:57Z</time>
      </trkpt>
      <trkpt lat="28.7398020" lon="-17.7256570">
        <ele>18.9</ele>
        <time>2020-11-15T23:15:58Z</time>
      </trkpt>
      <trkpt lat="28.7398470" lon="-17.7256600">
        <ele>19.2</ele>
        <time>2020-11-15T23:15:59Z</time>
      </trkpt>
      <trkpt lat="28.7398700" lon="-17.7256630">
        <ele>19.4</ele>
        <time>2020-11-15T23:16:00Z</time>
      </trkpt>
      <trkpt lat="28.7398700" lon="-17.7256630">
        <ele>19.4</ele>
        <time>2020-11-15T23:16:01Z</time>
      </trkpt>
      <trkpt lat="28.7399130" lon="-17.7256670">
        <ele>19.7</ele>
        <time>2020-11-15T23:16:02Z</time>
      </trkpt>
      <trkpt lat="28.7399130" lon="-17.7256670">
        <ele>19.7</ele>
        <time>2020-11-15T23:16:03Z</time>
      </trkpt>
      <trkpt lat="28.7399550" lon="-17.7256670">
        <ele>19.9</ele>
        <time>2020-11-15T23:16:04Z</time>
      </trkpt>
      <trkpt lat="28.7399550" lon="-17.7256670">
        <ele>19.9</ele>
        <time>2020-11-15T23:16:05Z</time>
      </trkpt>
      <trkpt lat="28.7399920" lon="-17.7256700">
        <ele>20.2</ele>
        <time>2020-11-15T23:16:06Z</time>
      </trkpt>
      <trkpt lat="28.7400050" lon="-17.7256670">
        <ele>20.2</ele>
        <time>2020-11-15T23:16:07Z</time>
      </trkpt>
      <trkpt lat="28.7400050" lon="-17.7256670">
        <ele>20.2</ele>
        <time>2020-11-15T23:16:08Z</time>
      </trkpt>
      <trkpt lat="28.7400300" lon="-17.7256530">
        <ele>20.4</ele>
        <time>2020-11-15T23:16:09Z</time>
      </trkpt>
      <trkpt lat="28.7400300" lon="-17.7256530">
        <ele>20.4</ele>
        <time>2020-11-15T23:16:10Z</time>
      </trkpt>
      <trkpt lat="28.7400330" lon="-17.7256500">
        <ele>20.4</ele>
        <time>2020-11-15T23:16:11Z</time>
      </trkpt>
      <trkpt lat="28.7400330" lon="-17.7256500">
        <ele>20.4</ele>
        <time>2020-11-15T23:16:19Z</time>
      </trkpt>
      <trkpt lat="28.7400330" lon="-17.7256500">
        <ele>20.4</ele>
        <time>2020-11-15T23:16:20Z</time>
      </trkpt>
      <trkpt lat="28.7401050" lon="-17.7256180">
        <ele>20.9</ele>
        <time>2020-11-15T23:16:21Z</time>
      </trkpt>
      <trkpt lat="28.7401050" lon="-17.7256180">
        <ele>20.9</ele>
        <time>2020-11-15T23:16:22Z</time>
      </trkpt>
      <trkpt lat="28.7401280" lon="-17.7255870">
        <ele>21.2</ele>
        <time>2020-11-15T23:16:23Z</time>
      </trkpt>
      <trkpt lat="28.7401280" lon="-17.7255870">
        <ele>21.2</ele>
        <time>2020-11-15T23:16:24Z</time>
      </trkpt>
      <trkpt lat="28.7401380" lon="-17.7255500">
        <ele>21.4</ele>
        <time>2020-11-15T23:16:25Z</time>
      </trkpt>
      <trkpt lat="28.7401400" lon="-17.7255400">
        <ele>21.4</ele>
        <time>2020-11-15T23:16:26Z</time>
      </trkpt>
      <trkpt lat="28.7401400" lon="-17.7255400">
        <ele>21.4</ele>
        <time>2020-11-15T23:16:27Z</time>
      </trkpt>
      <trkpt lat="28.7407750" lon="-17.7254220">
        <ele>9.4</ele>
        <time>2020-11-16T07:27:12Z</time>
      </trkpt>
      <trkpt lat="28.7407750" lon="-17.7254220">
        <ele>9.4</ele>
        <time>2020-11-16T07:27:13Z</time>
      </trkpt>
      <trkpt lat="28.7407830" lon="-17.7254400">
        <ele>9.8</ele>
        <time>2020-11-16T07:27:14Z</time>
      </trkpt>
      <trkpt lat="28.7407830" lon="-17.7254400">
        <ele>9.8</ele>
        <time>2020-11-16T07:27:15Z</time>
      </trkpt>
      <trkpt lat="28.7407900" lon="-17.7254580">
        <ele>10.2</ele>
        <time>2020-11-16T07:27:16Z</time>
      </trkpt>
      <trkpt lat="28.7407900" lon="-17.7254580">
        <ele>10.2</ele>
        <time>2020-11-16T07:27:17Z</time>
      </trkpt>
      <trkpt lat="28.7407950" lon="-17.7254730">
        <ele>10.6</ele>
        <time>2020-11-16T07:27:18Z</time>
      </trkpt>
      <trkpt lat="28.7407950" lon="-17.7254730">
        <ele>10.6</ele>
        <time>2020-11-16T07:27:19Z</time>
      </trkpt>
      <trkpt lat="28.7408030" lon="-17.7254900">
        <ele>11.0</ele>
        <time>2020-11-16T07:27:20Z</time>
      </trkpt>
      <trkpt lat="28.7408030" lon="-17.7254900">
        <ele>11.0</ele>
        <time>2020-11-16T07:27:21Z</time>
      </trkpt>
      <trkpt lat="28.7408150" lon="-17.7255070">
        <ele>11.5</ele>
        <time>2020-11-16T07:27:22Z</time>
      </trkpt>
      <trkpt lat="28.7408200" lon="-17.7255170">
        <ele>11.7</ele>
        <time>2020-11-16T07:27:23Z</time>
      </trkpt>
      <trkpt lat="28.7408200" lon="-17.7255170">
        <ele>11.7</ele>
        <time>2020-11-16T07:27:24Z</time>
      </trkpt>
      <trkpt lat="28.7408270" lon="-17.7255380">
        <ele>12.2</ele>
        <time>2020-11-16T07:27:25Z</time>
      </trkpt>
      <trkpt lat="28.7408300" lon="-17.7255520">
        <ele>12.5</ele>
        <time>2020-11-16T07:27:26Z</time>
      </trkpt>
      <trkpt lat="28.7408300" lon="-17.7255520">
        <ele>12.5</ele>
        <time>2020-11-16T07:27:27Z</time>
      </trkpt>
      <trkpt lat="28.7408350" lon="-17.7255730">
        <ele>13.0</ele>
        <time>2020-11-16T07:27:28Z</time>
      </trkpt>
      <trkpt lat="28.7408350" lon="-17.7255730">
        <ele>13.0</ele>
        <time>2020-11-16T07:27:29Z</time>
      </trkpt>
      <trkpt lat="28.7408400" lon="-17.7255930">
        <ele>13.5</ele>
        <time>2020-11-16T07:27:30Z</time>
      </trkpt>
      <trkpt lat="28.7408450" lon="-17.7256030">
        <ele>13.7</ele>
        <time>2020-11-16T07:27:31Z</time>
      </trkpt>
      <trkpt lat="28.7408450" lon="-17.7256030">
        <ele>13.7</ele>
        <time>2020-11-16T07:27:32Z</time>
      </trkpt>
      <trkpt lat="28.7408500" lon="-17.7256180">
        <ele>14.1</ele>
        <time>2020-11-16T07:27:33Z</time>
      </trkpt>
      <trkpt lat="28.7408520" lon="-17.7256280">
        <ele>14.3</ele>
        <time>2020-11-16T07:27:34Z</time>
      </trkpt>
      <trkpt lat="28.7408520" lon="-17.7256280">
        <ele>14.3</ele>
        <time>2020-11-16T07:27:35Z</time>
      </trkpt>
      <trkpt lat="28.7408620" lon="-17.7256450">
        <ele>14.7</ele>
        <time>2020-11-16T07:27:36Z</time>
      </trkpt>
      <trkpt lat="28.7408620" lon="-17.7256450">
        <ele>14.7</ele>
        <time>2020-11-16T07:27:37Z</time>
      </trkpt>
      <trkpt lat="28.7408700" lon="-17.7256630">
        <ele>15.2</ele>
        <time>2020-11-16T07:27:38Z</time>
      </trkpt>
      <trkpt lat="28.7408700" lon="-17.7256630">
        <ele>15.2</ele>
        <time>2020-11-16T07:27:39Z</time>
      </trkpt>
      <trkpt lat="28.7408770" lon="-17.7256820">
        <ele>15.6</ele>
        <time>2020-11-16T07:27:40Z</time>
      </trkpt>
      <trkpt lat="28.7408770" lon="-17.7256820">
        <ele>15.6</ele>
        <time>2020-11-16T07:27:41Z</time>
      </trkpt>
      <trkpt lat="28.7408850" lon="-17.7257000">
        <ele>16.0</ele>
        <time>2020-11-16T07:27:42Z</time>
      </trkpt>
      <trkpt lat="28.7408850" lon="-17.7257000">
        <ele>16.0</ele>
        <time>2020-11-16T07:27:43Z</time>
      </trkpt>
      <trkpt lat="28.7408970" lon="-17.7257200">
        <ele>16.6</ele>
        <time>2020-11-16T07:27:44Z</time>
      </trkpt>
      <trkpt lat="28.7408970" lon="-17.7257200">
        <ele>16.6</ele>
        <time>2020-11-16T07:27:45Z</time>
      </trkpt>
      <trkpt lat="28.7409070" lon="-17.7257420">
        <ele>17.1</ele>
        <time>2020-11-16T07:27:46Z</time>
      </trkpt>
      <trkpt lat="28.7409070" lon="-17.7257420">
        <ele>17.1</ele>
        <time>2020-11-16T07:27:47Z</time>
      </trkpt>
      <trkpt lat="28.7409170" lon="-17.7257670">
        <ele>17.7</ele>
        <time>2020-11-16T07:27:48Z</time>
      </trkpt>
      <trkpt lat="28.7409170" lon="-17.7257670">
        <ele>17.7</ele>
        <time>2020-11-16T07:27:49Z</time>
      </trkpt>
      <trkpt lat="28.7409270" lon="-17.7257930">
        <ele>18.3</ele>
        <time>2020-11-16T07:27:50Z</time>
      </trkpt>
      <trkpt lat="28.7409270" lon="-17.7257930">
        <ele>18.3</ele>
        <time>2020-11-16T07:27:51Z</time>
      </trkpt>
      <trkpt lat="28.7409370" lon="-17.7258170">
        <ele>18.9</ele>
        <time>2020-11-16T07:27:52Z</time>
      </trkpt>
      <trkpt lat="28.7409370" lon="-17.7258170">
        <ele>18.9</ele>
        <time>2020-11-16T07:27:53Z</time>
      </trkpt>
      <trkpt lat="28.7409480" lon="-17.7258370">
        <ele>19.4</ele>
        <time>2020-11-16T07:27:54Z</time>
      </trkpt>
      <trkpt lat="28.7409480" lon="-17.7258370">
        <ele>19.4</ele>
        <time>2020-11-16T07:27:55Z</time>
      </trkpt>
      <trkpt lat="28.7409570" lon="-17.7258550">
        <ele>19.9</ele>
        <time>2020-11-16T07:27:56Z</time>
      </trkpt>
      <trkpt lat="28.7409570" lon="-17.7258550">
        <ele>19.9</ele>
        <time>2020-11-16T07:27:57Z</time>
      </trkpt>
      <trkpt lat="28.7409650" lon="-17.7258750">
        <ele>20.3</ele>
        <time>2020-11-16T07:27:58Z</time>
      </trkpt>
      <trkpt lat="28.7409650" lon="-17.7258750">
        <ele>20.3</ele>
        <time>2020-11-16T07:27:59Z</time>
      </trkpt>
      <trkpt lat="28.7409720" lon="-17.7259000">
        <ele>20.9</ele>
        <time>2020-11-16T07:28:00Z</time>
      </trkpt>
      <trkpt lat="28.7409750" lon="-17.7259100">
        <ele>21.1</ele>
        <time>2020-11-16T07:28:01Z</time>
      </trkpt>
      <trkpt lat="28.7409750" lon="-17.7259100">
        <ele>21.1</ele>
        <time>2020-11-16T07:28:02Z</time>
      </trkpt>
      <trkpt lat="28.7409820" lon="-17.7259370">
        <ele>21.7</ele>
        <time>2020-11-16T07:28:03Z</time>
      </trkpt>
      <trkpt lat="28.7409820" lon="-17.7259370">
        <ele>21.7</ele>
        <time>2020-11-16T07:28:04Z</time>
      </trkpt>
      <trkpt lat="28.7409770" lon="-17.7259700">
        <ele>22.5</ele>
        <time>2020-11-16T07:28:05Z</time>
      </trkpt>
      <trkpt lat="28.7409730" lon="-17.7259830">
        <ele>22.5</ele>
        <time>2020-11-16T07:28:06Z</time>
      </trkpt>
      <trkpt lat="28.7409680" lon="-17.7259970">
        <ele>22.4</ele>
        <time>2020-11-16T07:28:07Z</time>
      </trkpt>
      <trkpt lat="28.7409680" lon="-17.7259970">
        <ele>22.4</ele>
        <time>2020-11-16T07:28:08Z</time>
      </trkpt>
      <trkpt lat="28.7409600" lon="-17.7260200">
        <ele>22.3</ele>
        <time>2020-11-16T07:28:09Z</time>
      </trkpt>
      <trkpt lat="28.7409600" lon="-17.7260200">
        <ele>22.3</ele>
        <time>2020-11-16T07:28:10Z</time>
      </trkpt>
      <trkpt lat="28.7409580" lon="-17.7260370">
        <ele>22.2</ele>
        <time>2020-11-16T07:28:11Z</time>
      </trkpt>
      <trkpt lat="28.7409580" lon="-17.7260370">
        <ele>22.2</ele>
        <time>2020-11-16T07:28:12Z</time>
      </trkpt>
      <trkpt lat="28.7409550" lon="-17.7260330">
        <ele>22.2</ele>
        <time>2020-11-16T07:28:13Z</time>
      </trkpt>
      <trkpt lat="28.7409550" lon="-17.7260330">
        <ele>22.2</ele>
        <time>2020-11-16T07:28:14Z</time>
      </trkpt>
      <trkpt lat="28.7409550" lon="-17.7260330">
        <ele>22.2</ele>
        <time>2020-11-16T07:28:15Z</time>
      </trkpt>
      <trkpt lat="28.7409550" lon="-17.7260330">
        <ele>22.2</ele>
        <time>2020-11-16T07:28:16Z</time>
      </trkpt>
      <trkpt lat="28.7409550" lon="-17.7260330">
        <ele>22.2</ele>
        <time>2020-11-16T07:28:17Z</time>
      </trkpt>
      <trkpt lat="28.7409430" lon="-17.7260470">
        <ele>22.1</ele>
        <time>2020-11-16T07:28:18Z</time>
      </trkpt>
      <trkpt lat="28.7409380" lon="-17.7260500">
        <ele>22.1</ele>
        <time>2020-11-16T07:28:19Z</time>
      </trkpt>
      <trkpt lat="28.7409380" lon="-17.7260500">
        <ele>22.1</ele>
        <time>2020-11-16T07:28:20Z</time>
      </trkpt>
      <trkpt lat="28.7409250" lon="-17.7260570">
        <ele>22.0</ele>
        <time>2020-11-16T07:28:21Z</time>
      </trkpt>
      <trkpt lat="28.7409250" lon="-17.7260570">
        <ele>22.0</ele>
        <time>2020-11-16T07:28:22Z</time>
      </trkpt>
      <trkpt lat="28.7409120" lon="-17.7260630">
        <ele>21.9</ele>
        <time>2020-11-16T07:28:23Z</time>
      </trkpt>
      <trkpt lat="28.7409050" lon="-17.7260650">
        <ele>21.9</ele>
        <time>2020-11-16T07:28:24Z</time>
      </trkpt>
      <trkpt lat="28.7409050" lon="-17.7260650">
        <ele>21.9</ele>
        <time>2020-11-16T07:28:25Z</time>
      </trkpt>
      <trkpt lat="28.7409030" lon="-17.7260630">
        <ele>21.9</ele>
        <time>2020-11-16T07:28:26Z</time>
      </trkpt>
      <trkpt lat="28.7409030" lon="-17.7260630">
        <ele>21.9</ele>
        <time>2020-11-16T07:28:27Z</time>
      </trkpt>
      <trkpt lat="28.7409030" lon="-17.7260630">
        <ele>21.9</ele>
        <time>2020-11-16T07:28:28Z</time>
      </trkpt>
      <trkpt lat="28.7409030" lon="-17.7260630">
        <ele>21.9</ele>
        <time>2020-11-16T07:28:29Z</time>
      </trkpt>
      <trkpt lat="28.7409030" lon="-17.7260630">
        <ele>21.9</ele>
        <time>2020-11-16T07:28:30Z</time>
      </trkpt>
      <trkpt lat="28.7409030" lon="-17.7260630">
        <ele>21.9</ele>
        <time>2020-11-16T07:28:43Z</time>
      </trkpt>
      <trkpt lat="28.7408770" lon="-17.7260730">
        <ele>21.7</ele>
        <time>2020-11-16T07:28:44Z</time>
      </trkpt>
      <trkpt lat="28.7408770" lon="-17.7260730">
        <ele>21.7</ele>
        <time>2020-11-16T07:28:45Z</time>
      </trkpt>
      <trkpt lat="28.7408570" lon="-17.7260720">
        <ele>21.6</ele>
        <time>2020-11-16T07:28:46Z</time>
      </trkpt>
      <trkpt lat="28.7408570" lon="-17.7260720">
        <ele>21.6</ele>
        <time>2020-11-16T07:28:47Z</time>
      </trkpt>
      <trkpt lat="28.7408370" lon="-17.7260720">
        <ele>21.6</ele>
        <time>2020-11-16T07:28:48Z</time>
      </trkpt>
      <trkpt lat="28.7408250" lon="-17.7260720">
        <ele>21.5</ele>
        <time>2020-11-16T07:28:49Z</time>
      </trkpt>
      <trkpt lat="28.7408150" lon="-17.7260700">
        <ele>21.5</ele>
        <time>2020-11-16T07:28:50Z</time>
      </trkpt>
      <trkpt lat="28.7408150" lon="-17.7260700">
        <ele>21.5</ele>
        <time>2020-11-16T07:28:51Z</time>
      </trkpt>
      <trkpt lat="28.7407950" lon="-17.7260600">
        <ele>21.4</ele>
        <time>2020-11-16T07:28:52Z</time>
      </trkpt>
      <trkpt lat="28.7407950" lon="-17.7260600">
        <ele>21.4</ele>
        <time>2020-11-16T07:28:53Z</time>
      </trkpt>
      <trkpt lat="28.7407780" lon="-17.7260430">
        <ele>21.3</ele>
        <time>2020-11-16T07:28:54Z</time>
      </trkpt>
      <trkpt lat="28.7407780" lon="-17.7260430">
        <ele>21.3</ele>
        <time>2020-11-16T07:28:55Z</time>
      </trkpt>
      <trkpt lat="28.7407620" lon="-17.7260280">
        <ele>21.3</ele>
        <time>2020-11-16T07:28:56Z</time>
      </trkpt>
      <trkpt lat="28.7407620" lon="-17.7260280">
        <ele>21.3</ele>
        <time>2020-11-16T07:28:57Z</time>
      </trkpt>
      <trkpt lat="28.7407430" lon="-17.7260180">
        <ele>21.2</ele>
        <time>2020-11-16T07:28:58Z</time>
      </trkpt>
      <trkpt lat="28.7407430" lon="-17.7260180">
        <ele>21.2</ele>
        <time>2020-11-16T07:28:59Z</time>
      </trkpt>
      <trkpt lat="28.7407230" lon="-17.7260050">
        <ele>21.2</ele>
        <time>2020-11-16T07:29:00Z</time>
      </trkpt>
      <trkpt lat="28.7407230" lon="-17.7260050">
        <ele>21.2</ele>
        <time>2020-11-16T07:29:01Z</time>
      </trkpt>
      <trkpt lat="28.7407020" lon="-17.7259970">
        <ele>21.2</ele>
        <time>2020-11-16T07:29:02Z</time>
      </trkpt>
      <trkpt lat="28.7407020" lon="-17.7259970">
        <ele>21.2</ele>
        <time>2020-11-16T07:29:03Z</time>
      </trkpt>
      <trkpt lat="28.7406820" lon="-17.7259870">
        <ele>21.2</ele>
        <time>2020-11-16T07:29:04Z</time>
      </trkpt>
      <trkpt lat="28.7406820" lon="-17.7259870">
        <ele>21.2</ele>
        <time>2020-11-16T07:29:05Z</time>
      </trkpt>
      <trkpt lat="28.7406600" lon="-17.7259720">
        <ele>21.2</ele>
        <time>2020-11-16T07:29:06Z</time>
      </trkpt>
      <trkpt lat="28.7406600" lon="-17.7259720">
        <ele>21.2</ele>
        <time>2020-11-16T07:29:07Z</time>
      </trkpt>
      <trkpt lat="28.7406420" lon="-17.7259570">
        <ele>21.2</ele>
        <time>2020-11-16T07:29:08Z</time>
      </trkpt>
      <trkpt lat="28.7406420" lon="-17.7259570">
        <ele>21.2</ele>
        <time>2020-11-16T07:29:09Z</time>
      </trkpt>
      <trkpt lat="28.7406230" lon="-17.7259430">
        <ele>21.3</ele>
        <time>2020-11-16T07:29:10Z</time>
      </trkpt>
      <trkpt lat="28.7406150" lon="-17.7259370">
        <ele>21.3</ele>
        <time>2020-11-16T07:29:11Z</time>
      </trkpt>
      <trkpt lat="28.7406150" lon="-17.7259370">
        <ele>21.3</ele>
        <time>2020-11-16T07:29:12Z</time>
      </trkpt>
      <trkpt lat="28.7406020" lon="-17.7259250">
        <ele>21.4</ele>
        <time>2020-11-16T07:29:13Z</time>
      </trkpt>
      <trkpt lat="28.7406000" lon="-17.7259230">
        <ele>21.4</ele>
        <time>2020-11-16T07:29:14Z</time>
      </trkpt>
      <trkpt lat="28.7406000" lon="-17.7259230">
        <ele>21.4</ele>
        <time>2020-11-16T07:29:15Z</time>
      </trkpt>
      <trkpt lat="28.7406020" lon="-17.7259220">
        <ele>21.4</ele>
        <time>2020-11-16T07:29:16Z</time>
      </trkpt>
      <trkpt lat="28.7406020" lon="-17.7259220">
        <ele>21.4</ele>
        <time>2020-11-16T07:29:17Z</time>
      </trkpt>
      <trkpt lat="28.7406020" lon="-17.7259220">
        <ele>21.4</ele>
        <time>2020-11-16T07:29:18Z</time>
      </trkpt>
      <trkpt lat="28.7406020" lon="-17.7259220">
        <ele>21.4</ele>
        <time>2020-11-16T07:29:19Z</time>
      </trkpt>
      <trkpt lat="28.7405820" lon="-17.7259050">
        <ele>21.5</ele>
        <time>2020-11-16T07:29:20Z</time>
      </trkpt>
      <trkpt lat="28.7405750" lon="-17.7258970">
        <ele>21.6</ele>
        <time>2020-11-16T07:29:21Z</time>
      </trkpt>
      <trkpt lat="28.7405750" lon="-17.7258970">
        <ele>21.6</ele>
        <time>2020-11-16T07:29:22Z</time>
      </trkpt>
      <trkpt lat="28.7405600" lon="-17.7258800">
        <ele>21.7</ele>
        <time>2020-11-16T07:29:23Z</time>
      </trkpt>
      <trkpt lat="28.7405600" lon="-17.7258800">
        <ele>21.7</ele>
        <time>2020-11-16T07:29:24Z</time>
      </trkpt>
      <trkpt lat="28.7405450" lon="-17.7258650">
        <ele>21.8</ele>
        <time>2020-11-16T07:29:25Z</time>
      </trkpt>
      <trkpt lat="28.7405450" lon="-17.7258650">
        <ele>21.8</ele>
        <time>2020-11-16T07:29:26Z</time>
      </trkpt>
      <trkpt lat="28.7405320" lon="-17.7258530">
        <ele>21.9</ele>
        <time>2020-11-16T07:29:27Z</time>
      </trkpt>
      <trkpt lat="28.7405320" lon="-17.7258530">
        <ele>21.9</ele>
        <time>2020-11-16T07:29:28Z</time>
      </trkpt>
      <trkpt lat="28.7405230" lon="-17.7258430">
        <ele>22.0</ele>
        <time>2020-11-16T07:29:29Z</time>
      </trkpt>
      <trkpt lat="28.7405230" lon="-17.7258430">
        <ele>22.0</ele>
        <time>2020-11-16T07:29:30Z</time>
      </trkpt>
      <trkpt lat="28.7405130" lon="-17.7258330">
        <ele>22.1</ele>
        <time>2020-11-16T07:29:31Z</time>
      </trkpt>
      <trkpt lat="28.7405100" lon="-17.7258300">
        <ele>22.2</ele>
        <time>2020-11-16T07:29:32Z</time>
      </trkpt>
      <trkpt lat="28.7405100" lon="-17.7258300">
        <ele>22.2</ele>
        <time>2020-11-16T07:29:33Z</time>
      </trkpt>
      <trkpt lat="28.7404980" lon="-17.7258180">
        <ele>22.3</ele>
        <time>2020-11-16T07:29:34Z</time>
      </trkpt>
      <trkpt lat="28.7404980" lon="-17.7258180">
        <ele>22.3</ele>
        <time>2020-11-16T07:29:35Z</time>
      </trkpt>
      <trkpt lat="28.7404830" lon="-17.7258050">
        <ele>22.4</ele>
        <time>2020-11-16T07:29:36Z</time>
      </trkpt>
      <trkpt lat="28.7404770" lon="-17.7257980">
        <ele>22.4</ele>
        <time>2020-11-16T07:29:37Z</time>
      </trkpt>
      <trkpt lat="28.7404770" lon="-17.7257980">
        <ele>22.4</ele>
        <time>2020-11-16T07:29:38Z</time>
      </trkpt>
      <trkpt lat="28.7404620" lon="-17.7257880">
        <ele>22.6</ele>
        <time>2020-11-16T07:29:39Z</time>
      </trkpt>
      <trkpt lat="28.7404620" lon="-17.7257880">
        <ele>22.6</ele>
        <time>2020-11-16T07:29:40Z</time>
      </trkpt>
      <trkpt lat="28.7404450" lon="-17.7257780">
        <ele>22.7</ele>
        <time>2020-11-16T07:29:41Z</time>
      </trkpt>
      <trkpt lat="28.7404450" lon="-17.7257780">
        <ele>22.7</ele>
        <time>2020-11-16T07:29:42Z</time>
      </trkpt>
      <trkpt lat="28.7404300" lon="-17.7257700">
        <ele>22.7</ele>
        <time>2020-11-16T07:29:43Z</time>
      </trkpt>
      <trkpt lat="28.7404230" lon="-17.7257650">
        <ele>22.8</ele>
        <time>2020-11-16T07:29:44Z</time>
      </trkpt>
      <trkpt lat="28.7404230" lon="-17.7257650">
        <ele>22.8</ele>
        <time>2020-11-16T07:29:45Z</time>
      </trkpt>
      <trkpt lat="28.7404100" lon="-17.7257570">
        <ele>22.8</ele>
        <time>2020-11-16T07:29:46Z</time>
      </trkpt>
      <trkpt lat="28.7404100" lon="-17.7257570">
        <ele>22.8</ele>
        <time>2020-11-16T07:29:47Z</time>
      </trkpt>
      <trkpt lat="28.7403950" lon="-17.7257500">
        <ele>22.9</ele>
        <time>2020-11-16T07:29:48Z</time>
      </trkpt>
      <trkpt lat="28.7403950" lon="-17.7257500">
        <ele>22.9</ele>
        <time>2020-11-16T07:29:49Z</time>
      </trkpt>
      <trkpt lat="28.7403800" lon="-17.7257450">
        <ele>22.9</ele>
        <time>2020-11-16T07:29:50Z</time>
      </trkpt>
      <trkpt lat="28.7403720" lon="-17.7257420">
        <ele>22.9</ele>
        <time>2020-11-16T07:29:51Z</time>
      </trkpt>
      <trkpt lat="28.7403720" lon="-17.7257420">
        <ele>22.9</ele>
        <time>2020-11-16T07:29:52Z</time>
      </trkpt>
      <trkpt lat="28.7403580" lon="-17.7257300">
        <ele>22.8</ele>
        <time>2020-11-16T07:29:53Z</time>
      </trkpt>
      <trkpt lat="28.7403580" lon="-17.7257300">
        <ele>22.8</ele>
        <time>2020-11-16T07:29:54Z</time>
      </trkpt>
      <trkpt lat="28.7403430" lon="-17.7257180">
        <ele>22.8</ele>
        <time>2020-11-16T07:29:55Z</time>
      </trkpt>
      <trkpt lat="28.7403430" lon="-17.7257180">
        <ele>22.8</ele>
        <time>2020-11-16T07:29:56Z</time>
      </trkpt>
      <trkpt lat="28.7403280" lon="-17.7257070">
        <ele>22.7</ele>
        <time>2020-11-16T07:29:57Z</time>
      </trkpt>
      <trkpt lat="28.7403220" lon="-17.7257030">
        <ele>22.7</ele>
        <time>2020-11-16T07:29:58Z</time>
      </trkpt>
      <trkpt lat="28.7403220" lon="-17.7257030">
        <ele>22.7</ele>
        <time>2020-11-16T07:29:59Z</time>
      </trkpt>
      <trkpt lat="28.7403120" lon="-17.7256970">
        <ele>22.6</ele>
        <time>2020-11-16T07:30:00Z</time>
      </trkpt>
      <trkpt lat="28.7403100" lon="-17.7256970">
        <ele>22.6</ele>
        <time>2020-11-16T07:30:01Z</time>
      </trkpt>
      <trkpt lat="28.7403100" lon="-17.7256980">
        <ele>22.6</ele>
        <time>2020-11-16T07:30:02Z</time>
      </trkpt>
      <trkpt lat="28.7403100" lon="-17.7257000">
        <ele>22.6</ele>
        <time>2020-11-16T07:30:03Z</time>
      </trkpt>
      <trkpt lat="28.7403100" lon="-17.7257000">
        <ele>22.6</ele>
        <time>2020-11-16T07:30:04Z</time>
      </trkpt>
      <trkpt lat="28.7403100" lon="-17.7257000">
        <ele>22.6</ele>
        <time>2020-11-16T07:30:05Z</time>
      </trkpt>
      <trkpt lat="28.7403100" lon="-17.7257000">
        <ele>22.6</ele>
        <time>2020-11-16T07:30:06Z</time>
      </trkpt>
      <trkpt lat="28.7403100" lon="-17.7257000">
        <ele>22.6</ele>
        <time>2020-11-16T07:30:51Z</time>
      </trkpt>
      <trkpt lat="28.7403250" lon="-17.7257130">
        <ele>22.5</ele>
        <time>2020-11-16T07:30:52Z</time>
      </trkpt>
      <trkpt lat="28.7403380" lon="-17.7257230">
        <ele>22.4</ele>
        <time>2020-11-16T07:30:53Z</time>
      </trkpt>
      <trkpt lat="28.7403380" lon="-17.7257230">
        <ele>22.4</ele>
        <time>2020-11-16T07:30:54Z</time>
      </trkpt>
      <trkpt lat="28.7403470" lon="-17.7257300">
        <ele>22.4</ele>
        <time>2020-11-16T07:30:55Z</time>
      </trkpt>
      <trkpt lat="28.7403470" lon="-17.7257300">
        <ele>22.4</ele>
        <time>2020-11-16T07:30:56Z</time>
      </trkpt>
      <trkpt lat="28.7403680" lon="-17.7257470">
        <ele>22.2</ele>
        <time>2020-11-16T07:30:57Z</time>
      </trkpt>
      <trkpt lat="28.7403680" lon="-17.7257470">
        <ele>22.2</ele>
        <time>2020-11-16T07:30:58Z</time>
      </trkpt>
      <trkpt lat="28.7403770" lon="-17.7257500">
        <ele>22.2</ele>
        <time>2020-11-16T07:30:59Z</time>
      </trkpt>
      <trkpt lat="28.7403770" lon="-17.7257500">
        <ele>22.2</ele>
        <time>2020-11-16T07:31:00Z</time>
      </trkpt>
      <trkpt lat="28.7403770" lon="-17.7257480">
        <ele>22.2</ele>
        <time>2020-11-16T07:31:01Z</time>
      </trkpt>
      <trkpt lat="28.7403770" lon="-17.7257480">
        <ele>22.2</ele>
        <time>2020-11-16T07:31:02Z</time>
      </trkpt>
      <trkpt lat="28.7403770" lon="-17.7257480">
        <ele>22.2</ele>
        <time>2020-11-16T07:31:49Z</time>
      </trkpt>
      <trkpt lat="28.7404000" lon="-17.7257570">
        <ele>22.0</ele>
        <time>2020-11-16T07:31:50Z</time>
      </trkpt>
      <trkpt lat="28.7404000" lon="-17.7257570">
        <ele>22.0</ele>
        <time>2020-11-16T07:31:51Z</time>
      </trkpt>
      <trkpt lat="28.7404220" lon="-17.7257680">
        <ele>21.9</ele>
        <time>2020-11-16T07:31:52Z</time>
      </trkpt>
      <trkpt lat="28.7404320" lon="-17.7257730">
        <ele>21.8</ele>
        <time>2020-11-16T07:31:53Z</time>
      </trkpt>
      <trkpt lat="28.7404320" lon="-17.7257730">
        <ele>21.8</ele>
        <time>2020-11-16T07:31:54Z</time>
      </trkpt>
      <trkpt lat="28.7404520" lon="-17.7257870">
        <ele>21.7</ele>
        <time>2020-11-16T07:31:55Z</time>
      </trkpt>
      <trkpt lat="28.7404600" lon="-17.7257950">
        <ele>21.6</ele>
        <time>2020-11-16T07:31:56Z</time>
      </trkpt>
      <trkpt lat="28.7404600" lon="-17.7257950">
        <ele>21.6</ele>
        <time>2020-11-16T07:31:57Z</time>
      </trkpt>
      <trkpt lat="28.7404750" lon="-17.7258070">
        <ele>21.5</ele>
        <time>2020-11-16T07:31:58Z</time>
      </trkpt>
      <trkpt lat="28.7404750" lon="-17.7258070">
        <ele>21.5</ele>
        <time>2020-11-16T07:31:59Z</time>
      </trkpt>
      <trkpt lat="28.7404770" lon="-17.7258070">
        <ele>21.5</ele>
        <time>2020-11-16T07:32:00Z</time>
      </trkpt>
      <trkpt lat="28.7404750" lon="-17.7258070">
        <ele>21.5</ele>
        <time>2020-11-16T07:32:01Z</time>
      </trkpt>
      <trkpt lat="28.7404750" lon="-17.7258070">
        <ele>21.5</ele>
        <time>2020-11-16T07:32:02Z</time>
      </trkpt>
      <trkpt lat="28.7404750" lon="-17.7258070">
        <ele>21.5</ele>
        <time>2020-11-16T07:33:11Z</time>
      </trkpt>
      <trkpt lat="28.7405070" lon="-17.7258270">
        <ele>21.4</ele>
        <time>2020-11-16T07:33:12Z</time>
      </trkpt>
      <trkpt lat="28.7405070" lon="-17.7258270">
        <ele>21.4</ele>
        <time>2020-11-16T07:33:13Z</time>
      </trkpt>
      <trkpt lat="28.7405280" lon="-17.7258480">
        <ele>21.3</ele>
        <time>2020-11-16T07:33:14Z</time>
      </trkpt>
      <trkpt lat="28.7405280" lon="-17.7258480">
        <ele>21.3</ele>
        <time>2020-11-16T07:33:15Z</time>
      </trkpt>
      <trkpt lat="28.7405470" lon="-17.7258720">
        <ele>21.2</ele>
        <time>2020-11-16T07:33:16Z</time>
      </trkpt>
      <trkpt lat="28.7405470" lon="-17.7258720">
        <ele>21.2</ele>
        <time>2020-11-16T07:33:17Z</time>
      </trkpt>
      <trkpt lat="28.7405630" lon="-17.7258950">
        <ele>21.2</ele>
        <time>2020-11-16T07:33:18Z</time>
      </trkpt>
      <trkpt lat="28.7405630" lon="-17.7258950">
        <ele>21.2</ele>
        <time>2020-11-16T07:33:19Z</time>
      </trkpt>
      <trkpt lat="28.7405780" lon="-17.7259130">
        <ele>21.2</ele>
        <time>2020-11-16T07:33:20Z</time>
      </trkpt>
      <trkpt lat="28.7405780" lon="-17.7259130">
        <ele>21.2</ele>
        <time>2020-11-16T07:33:21Z</time>
      </trkpt>
      <trkpt lat="28.7405970" lon="-17.7259250">
        <ele>21.2</ele>
        <time>2020-11-16T07:33:22Z</time>
      </trkpt>
      <trkpt lat="28.7406020" lon="-17.7259280">
        <ele>21.2</ele>
        <time>2020-11-16T07:33:23Z</time>
      </trkpt>
      <trkpt lat="28.7406000" lon="-17.7259280">
        <ele>21.2</ele>
        <time>2020-11-16T07:33:24Z</time>
      </trkpt>
      <trkpt lat="28.7406000" lon="-17.7259280">
        <ele>21.2</ele>
        <time>2020-11-16T07:33:25Z</time>
      </trkpt>
      <trkpt lat="28.7406000" lon="-17.7259300">
        <ele>21.2</ele>
        <time>2020-11-16T07:33:26Z</time>
      </trkpt>
      <trkpt lat="28.7406000" lon="-17.7259300">
        <ele>21.2</ele>
        <time>2020-11-16T07:33:27Z</time>
      </trkpt>
      <trkpt lat="28.7406230" lon="-17.7259550">
        <ele>21.2</ele>
        <time>2020-11-16T07:33:28Z</time>
      </trkpt>
      <trkpt lat="28.7406430" lon="-17.7259680">
        <ele>21.2</ele>
        <time>2020-11-16T07:33:29Z</time>
      </trkpt>
      <trkpt lat="28.7406430" lon="-17.7259680">
        <ele>21.2</ele>
        <time>2020-11-16T07:33:30Z</time>
      </trkpt>
      <trkpt lat="28.7407030" lon="-17.7259970">
        <ele>21.4</ele>
        <time>2020-11-16T07:33:31Z</time>
      </trkpt>
      <trkpt lat="28.7407370" lon="-17.7260120">
        <ele>21.5</ele>
        <time>2020-11-16T07:33:32Z</time>
      </trkpt>
      <trkpt lat="28.7407370" lon="-17.7260120">
        <ele>21.5</ele>
        <time>2020-11-16T07:33:33Z</time>
      </trkpt>
      <trkpt lat="28.7408050" lon="-17.7260420">
        <ele>21.7</ele>
        <time>2020-11-16T07:33:34Z</time>
      </trkpt>
      <trkpt lat="28.7408050" lon="-17.7260420">
        <ele>21.7</ele>
        <time>2020-11-16T07:33:35Z</time>
      </trkpt>
      <trkpt lat="28.7408720" lon="-17.7260530">
        <ele>22.0</ele>
        <time>2020-11-16T07:33:36Z</time>
      </trkpt>
      <trkpt lat="28.7409020" lon="-17.7260520">
        <ele>22.1</ele>
        <time>2020-11-16T07:33:37Z</time>
      </trkpt>
      <trkpt lat="28.7409020" lon="-17.7260520">
        <ele>22.1</ele>
        <time>2020-11-16T07:33:38Z</time>
      </trkpt>
      <trkpt lat="28.7409480" lon="-17.7260230">
        <ele>22.4</ele>
        <time>2020-11-16T07:33:39Z</time>
      </trkpt>
      <trkpt lat="28.7409480" lon="-17.7260230">
        <ele>22.4</ele>
        <time>2020-11-16T07:33:40Z</time>
      </trkpt>
      <trkpt lat="28.7409630" lon="-17.7260050">
        <ele>22.5</ele>
        <time>2020-11-16T07:33:41Z</time>
      </trkpt>
      <trkpt lat="28.7409830" lon="-17.7259730">
        <ele>22.5</ele>
        <time>2020-11-16T07:33:42Z</time>
      </trkpt>
      <trkpt lat="28.7409830" lon="-17.7259730">
        <ele>22.5</ele>
        <time>2020-11-16T07:33:43Z</time>
      </trkpt>
      <trkpt lat="28.7409870" lon="-17.7259600">
        <ele>22.3</ele>
        <time>2020-11-16T07:33:44Z</time>
      </trkpt>
      <trkpt lat="28.7409770" lon="-17.7259200">
        <ele>21.8</ele>
        <time>2020-11-16T07:33:45Z</time>
      </trkpt>
      <trkpt lat="28.7409770" lon="-17.7259200">
        <ele>21.8</ele>
        <time>2020-11-16T07:33:46Z</time>
      </trkpt>
      <trkpt lat="28.7409650" lon="-17.7258780">
        <ele>21.1</ele>
        <time>2020-11-16T07:33:47Z</time>
      </trkpt>
      <trkpt lat="28.7409570" lon="-17.7258580">
        <ele>20.8</ele>
        <time>2020-11-16T07:33:48Z</time>
      </trkpt>
      <trkpt lat="28.7409570" lon="-17.7258580">
        <ele>20.8</ele>
        <time>2020-11-16T07:33:49Z</time>
      </trkpt>
      <trkpt lat="28.7409350" lon="-17.7258180">
        <ele>20.2</ele>
        <time>2020-11-16T07:33:50Z</time>
      </trkpt>
      <trkpt lat="28.7409350" lon="-17.7258180">
        <ele>20.2</ele>
        <time>2020-11-16T07:33:51Z</time>
      </trkpt>
      <trkpt lat="28.7409130" lon="-17.7257730">
        <ele>19.5</ele>
        <time>2020-11-16T07:33:52Z</time>
      </trkpt>
      <trkpt lat="28.7409020" lon="-17.7257500">
        <ele>19.1</ele>
        <time>2020-11-16T07:33:53Z</time>
      </trkpt>
      <trkpt lat="28.7409020" lon="-17.7257500">
        <ele>19.1</ele>
        <time>2020-11-16T07:33:54Z</time>
      </trkpt>
      <trkpt lat="28.7408800" lon="-17.7257030">
        <ele>18.4</ele>
        <time>2020-11-16T07:33:55Z</time>
      </trkpt>
      <trkpt lat="28.7408800" lon="-17.7257030">
        <ele>18.4</ele>
        <time>2020-11-16T07:33:56Z</time>
      </trkpt>
      <trkpt lat="28.7408570" lon="-17.7256650">
        <ele>17.7</ele>
        <time>2020-11-16T07:33:57Z</time>
      </trkpt>
      <trkpt lat="28.7408570" lon="-17.7256650">
        <ele>17.7</ele>
        <time>2020-11-16T07:33:58Z</time>
      </trkpt>
      <trkpt lat="28.7408430" lon="-17.7256280">
        <ele>17.2</ele>
        <time>2020-11-16T07:33:59Z</time>
      </trkpt>
      <trkpt lat="28.7408430" lon="-17.7256280">
        <ele>17.2</ele>
        <time>2020-11-16T07:34:00Z</time>
      </trkpt>
      <trkpt lat="28.7408370" lon="-17.7256030">
        <ele>16.8</ele>
        <time>2020-11-16T07:34:01Z</time>
      </trkpt>
      <trkpt lat="28.7408370" lon="-17.7256030">
        <ele>16.8</ele>
        <time>2020-11-16T07:34:02Z</time>
      </trkpt>
      <trkpt lat="28.7408270" lon="-17.7255770">
        <ele>16.4</ele>
        <time>2020-11-16T07:34:03Z</time>
      </trkpt>
      <trkpt lat="28.7408230" lon="-17.7255650">
        <ele>16.2</ele>
        <time>2020-11-16T07:34:04Z</time>
      </trkpt>
      <trkpt lat="28.7408230" lon="-17.7255650">
        <ele>16.2</ele>
        <time>2020-11-16T07:34:05Z</time>
      </trkpt>
      <trkpt lat="28.7408180" lon="-17.7255520">
        <ele>16.0</ele>
        <time>2020-11-16T07:34:06Z</time>
      </trkpt>
      <trkpt lat="28.7408180" lon="-17.7255520">
        <ele>16.0</ele>
        <time>2020-11-16T07:34:07Z</time>
      </trkpt>
      <trkpt lat="28.7408180" lon="-17.7255520">
        <ele>16.0</ele>
        <time>2020-11-16T07:34:08Z</time>
      </trkpt>
      <trkpt lat="28.7408170" lon="-17.7255500">
        <ele>16.0</ele>
        <time>2020-11-16T07:34:09Z</time>
      </trkpt>
      <trkpt lat="28.7408170" lon="-17.7255500">
        <ele>16.0</ele>
        <time>2020-11-16T07:34:10Z</time>
      </trkpt>
      <trkpt lat="28.7408170" lon="-17.7255500">
        <ele>16.0</ele>
        <time>2020-11-16T07:34:11Z</time>
      </trkpt>
      <trkpt lat="28.7408320" lon="-17.7255320">
        <ele>15.7</ele>
        <time>2020-11-16T07:34:12Z</time>
      </trkpt>
      <trkpt lat="28.7408400" lon="-17.7255280">
        <ele>15.5</ele>
        <time>2020-11-16T07:34:13Z</time>
      </trkpt>
      <trkpt lat="28.7408470" lon="-17.7255280">
        <ele>15.4</ele>
        <time>2020-11-16T07:34:14Z</time>
      </trkpt>
      <trkpt lat="28.7408470" lon="-17.7255280">
        <ele>15.4</ele>
        <time>2020-11-16T07:34:15Z</time>
      </trkpt>
      <trkpt lat="28.7408530" lon="-17.7255280">
        <ele>15.3</ele>
        <time>2020-11-16T07:34:16Z</time>
      </trkpt>
      <trkpt lat="28.7408530" lon="-17.7255280">
        <ele>15.3</ele>
        <time>2020-11-16T07:34:17Z</time>
      </trkpt>
      <trkpt lat="28.7408530" lon="-17.7255280">
        <ele>15.3</ele>
        <time>2020-11-16T07:34:18Z</time>
      </trkpt>
      <trkpt lat="28.7408530" lon="-17.7255280">
        <ele>15.3</ele>
        <time>2020-11-16T07:34:19Z</time>
      </trkpt>
      <trkpt lat="28.7408530" lon="-17.7255280">
        <ele>15.3</ele>
        <time>2020-11-16T07:34:20Z</time>
      </trkpt>
      <trkpt lat="28.7408530" lon="-17.7255280">
        <ele>15.3</ele>
        <time>2020-11-16T07:34:21Z</time>
      </trkpt>
      <trkpt lat="28.7408530" lon="-17.7255280">
        <ele>15.3</ele>
        <time>2020-11-16T07:34:22Z</time>
      </trkpt>
      <trkpt lat="28.7408830" lon="-17.7255470">
        <ele>14.8</ele>
        <time>2020-11-16T07:34:26Z</time>
      </trkpt>
      <trkpt lat="28.7408900" lon="-17.7255580">
        <ele>14.6</ele>
        <time>2020-11-16T07:34:27Z</time>
      </trkpt>
      <trkpt lat="28.7408900" lon="-17.7255580">
        <ele>14.6</ele>
        <time>2020-11-16T07:34:28Z</time>
      </trkpt>
      <trkpt lat="28.7408980" lon="-17.7255670">
        <ele>14.4</ele>
        <time>2020-11-16T07:34:29Z</time>
      </trkpt>
      <trkpt lat="28.7408980" lon="-17.7255670">
        <ele>14.4</ele>
        <time>2020-11-16T07:34:30Z</time>
      </trkpt>
      <trkpt lat="28.7409070" lon="-17.7255770">
        <ele>14.2</ele>
        <time>2020-11-16T07:34:31Z</time>
      </trkpt>
      <trkpt lat="28.7409100" lon="-17.7255820">
        <ele>14.1</ele>
        <time>2020-11-16T07:34:32Z</time>
      </trkpt>
      <trkpt lat="28.7409100" lon="-17.7255820">
        <ele>14.1</ele>
        <time>2020-11-16T07:34:33Z</time>
      </trkpt>
      <trkpt lat="28.7409150" lon="-17.7255930">
        <ele>14.4</ele>
        <time>2020-11-16T07:34:34Z</time>
      </trkpt>
      <trkpt lat="28.7409150" lon="-17.7255930">
        <ele>14.4</ele>
        <time>2020-11-16T07:34:35Z</time>
      </trkpt>
      <trkpt lat="28.7409220" lon="-17.7256100">
        <ele>14.7</ele>
        <time>2020-11-16T07:34:36Z</time>
      </trkpt>
      <trkpt lat="28.7409270" lon="-17.7256220">
        <ele>15.0</ele>
        <time>2020-11-16T07:34:37Z</time>
      </trkpt>
      <trkpt lat="28.7409270" lon="-17.7256220">
        <ele>15.0</ele>
        <time>2020-11-16T07:34:38Z</time>
      </trkpt>
      <trkpt lat="28.7409370" lon="-17.7256430">
        <ele>15.5</ele>
        <time>2020-11-16T07:34:39Z</time>
      </trkpt>
      <trkpt lat="28.7409420" lon="-17.7256550">
        <ele>15.7</ele>
        <time>2020-11-16T07:34:40Z</time>
      </trkpt>
      <trkpt lat="28.7409420" lon="-17.7256550">
        <ele>15.7</ele>
        <time>2020-11-16T07:34:41Z</time>
      </trkpt>
      <trkpt lat="28.7409520" lon="-17.7256800">
        <ele>16.3</ele>
        <time>2020-11-16T07:34:42Z</time>
      </trkpt>
      <trkpt lat="28.7409570" lon="-17.7256930">
        <ele>16.6</ele>
        <time>2020-11-16T07:34:43Z</time>
      </trkpt>
      <trkpt lat="28.7409570" lon="-17.7256930">
        <ele>16.6</ele>
        <time>2020-11-16T07:34:44Z</time>
      </trkpt>
      <trkpt lat="28.7409700" lon="-17.7257150">
        <ele>17.1</ele>
        <time>2020-11-16T07:34:45Z</time>
      </trkpt>
      <trkpt lat="28.7409750" lon="-17.7257280">
        <ele>17.4</ele>
        <time>2020-11-16T07:34:46Z</time>
      </trkpt>
      <trkpt lat="28.7409750" lon="-17.7257280">
        <ele>17.4</ele>
        <time>2020-11-16T07:34:47Z</time>
      </trkpt>
      <trkpt lat="28.7409850" lon="-17.7257520">
        <ele>17.9</ele>
        <time>2020-11-16T07:34:48Z</time>
      </trkpt>
      <trkpt lat="28.7409900" lon="-17.7257620">
        <ele>18.2</ele>
        <time>2020-11-16T07:34:49Z</time>
      </trkpt>
      <trkpt lat="28.7409900" lon="-17.7257620">
        <ele>18.2</ele>
        <time>2020-11-16T07:34:50Z</time>
      </trkpt>
      <trkpt lat="28.7409950" lon="-17.7257830">
        <ele>18.6</ele>
        <time>2020-11-16T07:34:51Z</time>
      </trkpt>
      <trkpt lat="28.7409950" lon="-17.7257830">
        <ele>18.6</ele>
        <time>2020-11-16T07:34:52Z</time>
      </trkpt>
      <trkpt lat="28.7409950" lon="-17.7257830">
        <ele>18.6</ele>
        <time>2020-11-16T07:34:53Z</time>
      </trkpt>
      <trkpt lat="28.7410020" lon="-17.7258070">
        <ele>19.1</ele>
        <time>2020-11-16T07:34:54Z</time>
      </trkpt>
      <trkpt lat="28.7410020" lon="-17.7258070">
        <ele>19.1</ele>
        <time>2020-11-16T07:34:55Z</time>
      </trkpt>
      <trkpt lat="28.7410080" lon="-17.7258280">
        <ele>19.5</ele>
        <time>2020-11-16T07:34:56Z</time>
      </trkpt>
      <trkpt lat="28.7410080" lon="-17.7258280">
        <ele>19.5</ele>
        <time>2020-11-16T07:34:57Z</time>
      </trkpt>
      <trkpt lat="28.7410150" lon="-17.7258420">
        <ele>19.9</ele>
        <time>2020-11-16T07:34:58Z</time>
      </trkpt>
      <trkpt lat="28.7410180" lon="-17.7258520">
        <ele>20.1</ele>
        <time>2020-11-16T07:34:59Z</time>
      </trkpt>
      <trkpt lat="28.7410180" lon="-17.7258520">
        <ele>20.1</ele>
        <time>2020-11-16T07:35:00Z</time>
      </trkpt>
      <trkpt lat="28.7410180" lon="-17.7258520">
        <ele>20.1</ele>
        <time>2020-11-16T07:35:01Z</time>
      </trkpt>
      <trkpt lat="28.7410320" lon="-17.7258770">
        <ele>20.7</ele>
        <time>2020-11-16T07:35:02Z</time>
      </trkpt>
      <trkpt lat="28.7410320" lon="-17.7258770">
        <ele>20.7</ele>
        <time>2020-11-16T07:35:03Z</time>
      </trkpt>
      <trkpt lat="28.7410400" lon="-17.7259020">
        <ele>21.2</ele>
        <time>2020-11-16T07:35:04Z</time>
      </trkpt>
      <trkpt lat="28.7410450" lon="-17.7259120">
        <ele>22.8</ele>
        <time>2020-11-16T07:35:05Z</time>
      </trkpt>
      <trkpt lat="28.7410450" lon="-17.7259120">
        <ele>22.8</ele>
        <time>2020-11-16T07:35:06Z</time>
      </trkpt>
      <trkpt lat="28.7410500" lon="-17.7259300">
        <ele>23.0</ele>
        <time>2020-11-16T07:35:07Z</time>
      </trkpt>
      <trkpt lat="28.7410500" lon="-17.7259300">
        <ele>23.0</ele>
        <time>2020-11-16T07:35:08Z</time>
      </trkpt>
      <trkpt lat="28.7410530" lon="-17.7259430">
        <ele>23.0</ele>
        <time>2020-11-16T07:35:09Z</time>
      </trkpt>
      <trkpt lat="28.7410620" lon="-17.7259680">
        <ele>23.3</ele>
        <time>2020-11-16T07:35:10Z</time>
      </trkpt>
      <trkpt lat="28.7410620" lon="-17.7259680">
        <ele>23.3</ele>
        <time>2020-11-16T07:35:11Z</time>
      </trkpt>
      <trkpt lat="28.7410700" lon="-17.7259900">
        <ele>23.5</ele>
        <time>2020-11-16T07:35:12Z</time>
      </trkpt>
      <trkpt lat="28.7410750" lon="-17.7260020">
        <ele>23.6</ele>
        <time>2020-11-16T07:35:13Z</time>
      </trkpt>
      <trkpt lat="28.7410750" lon="-17.7260020">
        <ele>23.6</ele>
        <time>2020-11-16T07:35:14Z</time>
      </trkpt>
      <trkpt lat="28.7410830" lon="-17.7260230">
        <ele>23.9</ele>
        <time>2020-11-16T07:35:15Z</time>
      </trkpt>
      <trkpt lat="28.7410850" lon="-17.7260280">
        <ele>23.9</ele>
        <time>2020-11-16T07:35:16Z</time>
      </trkpt>
      <trkpt lat="28.7410850" lon="-17.7260280">
        <ele>23.9</ele>
        <time>2020-11-16T07:35:17Z</time>
      </trkpt>
      <trkpt lat="28.7410950" lon="-17.7260480">
        <ele>24.2</ele>
        <time>2020-11-16T07:35:18Z</time>
      </trkpt>
      <trkpt lat="28.7410950" lon="-17.7260480">
        <ele>24.2</ele>
        <time>2020-11-16T07:35:19Z</time>
      </trkpt>
      <trkpt lat="28.7411070" lon="-17.7260580">
        <ele>24.4</ele>
        <time>2020-11-16T07:35:20Z</time>
      </trkpt>
      <trkpt lat="28.7411130" lon="-17.7260600">
        <ele>24.5</ele>
        <time>2020-11-16T07:35:21Z</time>
      </trkpt>
      <trkpt lat="28.7411130" lon="-17.7260600">
        <ele>24.5</ele>
        <time>2020-11-16T07:35:22Z</time>
      </trkpt>
      <trkpt lat="28.7411250" lon="-17.7260680">
        <ele>24.7</ele>
        <time>2020-11-16T07:35:23Z</time>
      </trkpt>
      <trkpt lat="28.7411320" lon="-17.7260720">
        <ele>24.8</ele>
        <time>2020-11-16T07:35:24Z</time>
      </trkpt>
      <trkpt lat="28.7411370" lon="-17.7260770">
        <ele>24.9</ele>
        <time>2020-11-16T07:35:25Z</time>
      </trkpt>
      <trkpt lat="28.7411430" lon="-17.7260800">
        <ele>25.0</ele>
        <time>2020-11-16T07:35:26Z</time>
      </trkpt>
      <trkpt lat="28.7411430" lon="-17.7260800">
        <ele>25.0</ele>
        <time>2020-11-16T07:35:27Z</time>
      </trkpt>
      <trkpt lat="28.7411480" lon="-17.7260870">
        <ele>25.1</ele>
        <time>2020-11-16T07:35:28Z</time>
      </trkpt>
      <trkpt lat="28.7411550" lon="-17.7260880">
        <ele>25.2</ele>
        <time>2020-11-16T07:35:29Z</time>
      </trkpt>
      <trkpt lat="28.7411550" lon="-17.7260880">
        <ele>25.2</ele>
        <time>2020-11-16T07:35:30Z</time>
      </trkpt>
      <trkpt lat="28.7411680" lon="-17.7261000">
        <ele>25.4</ele>
        <time>2020-11-16T07:35:31Z</time>
      </trkpt>
      <trkpt lat="28.7411680" lon="-17.7261000">
        <ele>25.4</ele>
        <time>2020-11-16T07:35:32Z</time>
      </trkpt>
      <trkpt lat="28.7411780" lon="-17.7261180">
        <ele>25.7</ele>
        <time>2020-11-16T07:35:33Z</time>
      </trkpt>
      <trkpt lat="28.7411780" lon="-17.7261180">
        <ele>25.7</ele>
        <time>2020-11-16T07:35:34Z</time>
      </trkpt>
      <trkpt lat="28.7411920" lon="-17.7261370">
        <ele>26.0</ele>
        <time>2020-11-16T07:35:35Z</time>
      </trkpt>
      <trkpt lat="28.7411920" lon="-17.7261370">
        <ele>26.0</ele>
        <time>2020-11-16T07:35:36Z</time>
      </trkpt>
      <trkpt lat="28.7412050" lon="-17.7261550">
        <ele>26.2</ele>
        <time>2020-11-16T07:35:37Z</time>
      </trkpt>
      <trkpt lat="28.7412120" lon="-17.7261650">
        <ele>26.4</ele>
        <time>2020-11-16T07:35:38Z</time>
      </trkpt>
      <trkpt lat="28.7412120" lon="-17.7261650">
        <ele>26.4</ele>
        <time>2020-11-16T07:35:39Z</time>
      </trkpt>
      <trkpt lat="28.7412270" lon="-17.7261820">
        <ele>26.7</ele>
        <time>2020-11-16T07:35:40Z</time>
      </trkpt>
      <trkpt lat="28.7412270" lon="-17.7261820">
        <ele>26.7</ele>
        <time>2020-11-16T07:35:41Z</time>
      </trkpt>
      <trkpt lat="28.7412380" lon="-17.7261970">
        <ele>26.9</ele>
        <time>2020-11-16T07:35:42Z</time>
      </trkpt>
      <trkpt lat="28.7412450" lon="-17.7262050">
        <ele>27.1</ele>
        <time>2020-11-16T07:35:43Z</time>
      </trkpt>
      <trkpt lat="28.7412450" lon="-17.7262050">
        <ele>27.1</ele>
        <time>2020-11-16T07:35:44Z</time>
      </trkpt>
      <trkpt lat="28.7412570" lon="-17.7262220">
        <ele>27.3</ele>
        <time>2020-11-16T07:35:45Z</time>
      </trkpt>
      <trkpt lat="28.7412570" lon="-17.7262220">
        <ele>27.3</ele>
        <time>2020-11-16T07:35:46Z</time>
      </trkpt>
      <trkpt lat="28.7412620" lon="-17.7262300">
        <ele>27.4</ele>
        <time>2020-11-16T07:35:47Z</time>
      </trkpt>
      <trkpt lat="28.7412750" lon="-17.7262470">
        <ele>27.7</ele>
        <time>2020-11-16T07:35:48Z</time>
      </trkpt>
      <trkpt lat="28.7412750" lon="-17.7262470">
        <ele>27.7</ele>
        <time>2020-11-16T07:35:49Z</time>
      </trkpt>
      <trkpt lat="28.7412870" lon="-17.7262630">
        <ele>27.9</ele>
        <time>2020-11-16T07:35:50Z</time>
      </trkpt>
      <trkpt lat="28.7412870" lon="-17.7262630">
        <ele>27.9</ele>
        <time>2020-11-16T07:35:51Z</time>
      </trkpt>
      <trkpt lat="28.7412980" lon="-17.7262800">
        <ele>28.1</ele>
        <time>2020-11-16T07:35:52Z</time>
      </trkpt>
      <trkpt lat="28.7413050" lon="-17.7262850">
        <ele>28.2</ele>
        <time>2020-11-16T07:35:53Z</time>
      </trkpt>
      <trkpt lat="28.7413050" lon="-17.7262850">
        <ele>28.2</ele>
        <time>2020-11-16T07:35:54Z</time>
      </trkpt>
      <trkpt lat="28.7413220" lon="-17.7262970">
        <ele>28.4</ele>
        <time>2020-11-16T07:35:55Z</time>
      </trkpt>
      <trkpt lat="28.7413300" lon="-17.7263000">
        <ele>28.5</ele>
        <time>2020-11-16T07:35:56Z</time>
      </trkpt>
      <trkpt lat="28.7413380" lon="-17.7263020">
        <ele>28.6</ele>
        <time>2020-11-16T07:35:57Z</time>
      </trkpt>
      <trkpt lat="28.7413380" lon="-17.7263020">
        <ele>28.6</ele>
        <time>2020-11-16T07:35:58Z</time>
      </trkpt>
      <trkpt lat="28.7413570" lon="-17.7262980">
        <ele>28.7</ele>
        <time>2020-11-16T07:35:59Z</time>
      </trkpt>
      <trkpt lat="28.7413570" lon="-17.7262980">
        <ele>28.7</ele>
        <time>2020-11-16T07:36:00Z</time>
      </trkpt>
      <trkpt lat="28.7413750" lon="-17.7262930">
        <ele>28.9</ele>
        <time>2020-11-16T07:36:01Z</time>
      </trkpt>
      <trkpt lat="28.7413750" lon="-17.7262930">
        <ele>28.9</ele>
        <time>2020-11-16T07:36:02Z</time>
      </trkpt>
      <trkpt lat="28.7413980" lon="-17.7262900">
        <ele>29.0</ele>
        <time>2020-11-16T07:36:03Z</time>
      </trkpt>
      <trkpt lat="28.7413980" lon="-17.7262900">
        <ele>29.0</ele>
        <time>2020-11-16T07:36:04Z</time>
      </trkpt>
      <trkpt lat="28.7414220" lon="-17.7262850">
        <ele>29.1</ele>
        <time>2020-11-16T07:36:05Z</time>
      </trkpt>
      <trkpt lat="28.7414220" lon="-17.7262850">
        <ele>29.1</ele>
        <time>2020-11-16T07:36:06Z</time>
      </trkpt>
      <trkpt lat="28.7414450" lon="-17.7262870">
        <ele>29.2</ele>
        <time>2020-11-16T07:36:07Z</time>
      </trkpt>
      <trkpt lat="28.7414570" lon="-17.7262870">
        <ele>29.2</ele>
        <time>2020-11-16T07:36:08Z</time>
      </trkpt>
      <trkpt lat="28.7414570" lon="-17.7262870">
        <ele>29.2</ele>
        <time>2020-11-16T07:36:09Z</time>
      </trkpt>
      <trkpt lat="28.7414820" lon="-17.7262870">
        <ele>29.2</ele>
        <time>2020-11-16T07:36:10Z</time>
      </trkpt>
      <trkpt lat="28.7414820" lon="-17.7262870">
        <ele>29.2</ele>
        <time>2020-11-16T07:36:11Z</time>
      </trkpt>
      <trkpt lat="28.7415070" lon="-17.7262880">
        <ele>29.1</ele>
        <time>2020-11-16T07:36:12Z</time>
      </trkpt>
      <trkpt lat="28.7415070" lon="-17.7262880">
        <ele>29.1</ele>
        <time>2020-11-16T07:36:13Z</time>
      </trkpt>
      <trkpt lat="28.7415320" lon="-17.7262920">
        <ele>29.0</ele>
        <time>2020-11-16T07:36:14Z</time>
      </trkpt>
      <trkpt lat="28.7415320" lon="-17.7262920">
        <ele>29.0</ele>
        <time>2020-11-16T07:36:15Z</time>
      </trkpt>
      <trkpt lat="28.7415570" lon="-17.7263020">
        <ele>28.9</ele>
        <time>2020-11-16T07:36:16Z</time>
      </trkpt>
      <trkpt lat="28.7415570" lon="-17.7263020">
        <ele>28.9</ele>
        <time>2020-11-16T07:36:17Z</time>
      </trkpt>
      <trkpt lat="28.7415820" lon="-17.7263100">
        <ele>28.7</ele>
        <time>2020-11-16T07:36:18Z</time>
      </trkpt>
      <trkpt lat="28.7415950" lon="-17.7263150">
        <ele>28.7</ele>
        <time>2020-11-16T07:36:19Z</time>
      </trkpt>
      <trkpt lat="28.7415950" lon="-17.7263150">
        <ele>28.7</ele>
        <time>2020-11-16T07:36:20Z</time>
      </trkpt>
      <trkpt lat="28.7415950" lon="-17.7263150">
        <ele>28.7</ele>
        <time>2020-11-16T07:36:21Z</time>
      </trkpt>
      <trkpt lat="28.7416200" lon="-17.7263270">
        <ele>28.5</ele>
        <time>2020-11-16T07:36:22Z</time>
      </trkpt>
      <trkpt lat="28.7416470" lon="-17.7263400">
        <ele>28.3</ele>
        <time>2020-11-16T07:36:23Z</time>
      </trkpt>
      <trkpt lat="28.7416470" lon="-17.7263400">
        <ele>28.3</ele>
        <time>2020-11-16T07:36:24Z</time>
      </trkpt>
      <trkpt lat="28.7416750" lon="-17.7263530">
        <ele>28.1</ele>
        <time>2020-11-16T07:36:25Z</time>
      </trkpt>
      <trkpt lat="28.7416750" lon="-17.7263530">
        <ele>28.1</ele>
        <time>2020-11-16T07:36:26Z</time>
      </trkpt>
      <trkpt lat="28.7416880" lon="-17.7263600">
        <ele>28.0</ele>
        <time>2020-11-16T07:36:27Z</time>
      </trkpt>
      <trkpt lat="28.7417150" lon="-17.7263730">
        <ele>27.8</ele>
        <time>2020-11-16T07:36:28Z</time>
      </trkpt>
      <trkpt lat="28.7417150" lon="-17.7263730">
        <ele>27.8</ele>
        <time>2020-11-16T07:36:29Z</time>
      </trkpt>
      <trkpt lat="28.7417370" lon="-17.7263900">
        <ele>27.6</ele>
        <time>2020-11-16T07:36:30Z</time>
      </trkpt>
      <trkpt lat="28.7417370" lon="-17.7263900">
        <ele>27.6</ele>
        <time>2020-11-16T07:36:31Z</time>
      </trkpt>
      <trkpt lat="28.7417630" lon="-17.7264030">
        <ele>27.4</ele>
        <time>2020-11-16T07:36:32Z</time>
      </trkpt>
      <trkpt lat="28.7417630" lon="-17.7264030">
        <ele>27.4</ele>
        <time>2020-11-16T07:36:33Z</time>
      </trkpt>
      <trkpt lat="28.7417870" lon="-17.7264180">
        <ele>27.2</ele>
        <time>2020-11-16T07:36:34Z</time>
      </trkpt>
      <trkpt lat="28.7417980" lon="-17.7264250">
        <ele>27.1</ele>
        <time>2020-11-16T07:36:35Z</time>
      </trkpt>
      <trkpt lat="28.7417980" lon="-17.7264250">
        <ele>27.1</ele>
        <time>2020-11-16T07:36:36Z</time>
      </trkpt>
      <trkpt lat="28.7418250" lon="-17.7264350">
        <ele>26.9</ele>
        <time>2020-11-16T07:36:37Z</time>
      </trkpt>
      <trkpt lat="28.7418250" lon="-17.7264350">
        <ele>26.9</ele>
        <time>2020-11-16T07:36:38Z</time>
      </trkpt>
      <trkpt lat="28.7418470" lon="-17.7264530">
        <ele>26.7</ele>
        <time>2020-11-16T07:36:39Z</time>
      </trkpt>
      <trkpt lat="28.7418530" lon="-17.7264630">
        <ele>26.6</ele>
        <time>2020-11-16T07:36:40Z</time>
      </trkpt>
      <trkpt lat="28.7418530" lon="-17.7264630">
        <ele>26.6</ele>
        <time>2020-11-16T07:36:41Z</time>
      </trkpt>
      <trkpt lat="28.7418630" lon="-17.7264850">
        <ele>26.4</ele>
        <time>2020-11-16T07:36:42Z</time>
      </trkpt>
      <trkpt lat="28.7418630" lon="-17.7264850">
        <ele>26.4</ele>
        <time>2020-11-16T07:36:43Z</time>
      </trkpt>
      <trkpt lat="28.7418750" lon="-17.7265100">
        <ele>26.3</ele>
        <time>2020-11-16T07:36:44Z</time>
      </trkpt>
      <trkpt lat="28.7418750" lon="-17.7265100">
        <ele>26.3</ele>
        <time>2020-11-16T07:36:45Z</time>
      </trkpt>
      <trkpt lat="28.7418830" lon="-17.7265220">
        <ele>26.2</ele>
        <time>2020-11-16T07:36:46Z</time>
      </trkpt>
      <trkpt lat="28.7418830" lon="-17.7265220">
        <ele>26.5</ele>
        <time>2020-11-16T07:36:47Z</time>
      </trkpt>
      <trkpt lat="28.7418850" lon="-17.7265220">
        <ele>26.5</ele>
        <time>2020-11-16T07:36:48Z</time>
      </trkpt>
      <trkpt lat="28.7418850" lon="-17.7265220">
        <ele>26.5</ele>
        <time>2020-11-16T07:36:49Z</time>
      </trkpt>
      <trkpt lat="28.7418850" lon="-17.7265220">
        <ele>26.5</ele>
        <time>2020-11-16T07:36:50Z</time>
      </trkpt>
      <trkpt lat="28.7418850" lon="-17.7265220">
        <ele>26.5</ele>
        <time>2020-11-16T07:36:51Z</time>
      </trkpt>
      <trkpt lat="28.7418850" lon="-17.7265220">
        <ele>26.5</ele>
        <time>2020-11-16T07:36:52Z</time>
      </trkpt>
      <trkpt lat="28.7418600" lon="-17.7265750">
        <ele>27.2</ele>
        <time>2020-11-16T07:38:23Z</time>
      </trkpt>
      <trkpt lat="28.7418430" lon="-17.7265870">
        <ele>27.5</ele>
        <time>2020-11-16T07:38:24Z</time>
      </trkpt>
      <trkpt lat="28.7418430" lon="-17.7265870">
        <ele>27.5</ele>
        <time>2020-11-16T07:38:25Z</time>
      </trkpt>
      <trkpt lat="28.7418150" lon="-17.7266080">
        <ele>27.9</ele>
        <time>2020-11-16T07:38:26Z</time>
      </trkpt>
      <trkpt lat="28.7418150" lon="-17.7266080">
        <ele>27.9</ele>
        <time>2020-11-16T07:38:27Z</time>
      </trkpt>
      <trkpt lat="28.7417880" lon="-17.7266370">
        <ele>28.4</ele>
        <time>2020-11-16T07:38:28Z</time>
      </trkpt>
      <trkpt lat="28.7417750" lon="-17.7266500">
        <ele>28.6</ele>
        <time>2020-11-16T07:38:29Z</time>
      </trkpt>
      <trkpt lat="28.7417750" lon="-17.7266500">
        <ele>28.6</ele>
        <time>2020-11-16T07:38:30Z</time>
      </trkpt>
      <trkpt lat="28.7417500" lon="-17.7266820">
        <ele>29.1</ele>
        <time>2020-11-16T07:38:31Z</time>
      </trkpt>
      <trkpt lat="28.7417400" lon="-17.7266950">
        <ele>29.3</ele>
        <time>2020-11-16T07:38:32Z</time>
      </trkpt>
      <trkpt lat="28.7417400" lon="-17.7266950">
        <ele>29.3</ele>
        <time>2020-11-16T07:38:33Z</time>
      </trkpt>
      <trkpt lat="28.7417230" lon="-17.7267250">
        <ele>29.7</ele>
        <time>2020-11-16T07:38:34Z</time>
      </trkpt>
      <trkpt lat="28.7417230" lon="-17.7267250">
        <ele>29.7</ele>
        <time>2020-11-16T07:38:35Z</time>
      </trkpt>
      <trkpt lat="28.7417030" lon="-17.7267500">
        <ele>30.1</ele>
        <time>2020-11-16T07:38:36Z</time>
      </trkpt>
      <trkpt lat="28.7416900" lon="-17.7267650">
        <ele>30.3</ele>
        <time>2020-11-16T07:38:37Z</time>
      </trkpt>
      <trkpt lat="28.7416770" lon="-17.7267780">
        <ele>30.5</ele>
        <time>2020-11-16T07:38:38Z</time>
      </trkpt>
      <trkpt lat="28.7416770" lon="-17.7267780">
        <ele>30.5</ele>
        <time>2020-11-16T07:38:39Z</time>
      </trkpt>
      <trkpt lat="28.7416520" lon="-17.7268070">
        <ele>31.0</ele>
        <time>2020-11-16T07:38:40Z</time>
      </trkpt>
      <trkpt lat="28.7416520" lon="-17.7268070">
        <ele>31.0</ele>
        <time>2020-11-16T07:38:41Z</time>
      </trkpt>
      <trkpt lat="28.7416270" lon="-17.7268350">
        <ele>31.4</ele>
        <time>2020-11-16T07:38:42Z</time>
      </trkpt>
      <trkpt lat="28.7416150" lon="-17.7268500">
        <ele>31.6</ele>
        <time>2020-11-16T07:38:43Z</time>
      </trkpt>
      <trkpt lat="28.7416030" lon="-17.7268630">
        <ele>31.9</ele>
        <time>2020-11-16T07:38:44Z</time>
      </trkpt>
      <trkpt lat="28.7416030" lon="-17.7268630">
        <ele>31.9</ele>
        <time>2020-11-16T07:38:45Z</time>
      </trkpt>
      <trkpt lat="28.7415800" lon="-17.7268920">
        <ele>32.3</ele>
        <time>2020-11-16T07:38:46Z</time>
      </trkpt>
      <trkpt lat="28.7415800" lon="-17.7268920">
        <ele>32.3</ele>
        <time>2020-11-16T07:38:47Z</time>
      </trkpt>
      <trkpt lat="28.7415600" lon="-17.7269200">
        <ele>32.7</ele>
        <time>2020-11-16T07:38:48Z</time>
      </trkpt>
      <trkpt lat="28.7415600" lon="-17.7269200">
        <ele>32.7</ele>
        <time>2020-11-16T07:38:49Z</time>
      </trkpt>
      <trkpt lat="28.7415420" lon="-17.7269520">
        <ele>33.1</ele>
        <time>2020-11-16T07:38:50Z</time>
      </trkpt>
      <trkpt lat="28.7415420" lon="-17.7269520">
        <ele>33.1</ele>
        <time>2020-11-16T07:38:51Z</time>
      </trkpt>
      <trkpt lat="28.7415250" lon="-17.7269830">
        <ele>33.5</ele>
        <time>2020-11-16T07:38:52Z</time>
      </trkpt>
      <trkpt lat="28.7415250" lon="-17.7269830">
        <ele>33.5</ele>
        <time>2020-11-16T07:38:53Z</time>
      </trkpt>
      <trkpt lat="28.7415120" lon="-17.7270170">
        <ele>34.0</ele>
        <time>2020-11-16T07:38:54Z</time>
      </trkpt>
      <trkpt lat="28.7415120" lon="-17.7270170">
        <ele>34.0</ele>
        <time>2020-11-16T07:38:55Z</time>
      </trkpt>
      <trkpt lat="28.7415000" lon="-17.7270470">
        <ele>34.3</ele>
        <time>2020-11-16T07:38:56Z</time>
      </trkpt>
      <trkpt lat="28.7415000" lon="-17.7270470">
        <ele>34.3</ele>
        <time>2020-11-16T07:38:57Z</time>
      </trkpt>
      <trkpt lat="28.7414900" lon="-17.7270750">
        <ele>34.7</ele>
        <time>2020-11-16T07:38:58Z</time>
      </trkpt>
      <trkpt lat="28.7414820" lon="-17.7270880">
        <ele>34.8</ele>
        <time>2020-11-16T07:38:59Z</time>
      </trkpt>
      <trkpt lat="28.7414820" lon="-17.7270880">
        <ele>34.8</ele>
        <time>2020-11-16T07:39:00Z</time>
      </trkpt>
      <trkpt lat="28.7414730" lon="-17.7271200">
        <ele>35.2</ele>
        <time>2020-11-16T07:39:01Z</time>
      </trkpt>
      <trkpt lat="28.7414730" lon="-17.7271200">
        <ele>35.2</ele>
        <time>2020-11-16T07:39:02Z</time>
      </trkpt>
      <trkpt lat="28.7414800" lon="-17.7271530">
        <ele>35.6</ele>
        <time>2020-11-16T07:39:03Z</time>
      </trkpt>
      <trkpt lat="28.7414800" lon="-17.7271530">
        <ele>35.6</ele>
        <time>2020-11-16T07:39:04Z</time>
      </trkpt>
      <trkpt lat="28.7414880" lon="-17.7271920">
        <ele>36.1</ele>
        <time>2020-11-16T07:39:05Z</time>
      </trkpt>
      <trkpt lat="28.7414880" lon="-17.7271920">
        <ele>36.1</ele>
        <time>2020-11-16T07:39:06Z</time>
      </trkpt>
      <trkpt lat="28.7415020" lon="-17.7272200">
        <ele>36.4</ele>
        <time>2020-11-16T07:39:07Z</time>
      </trkpt>
      <trkpt lat="28.7415020" lon="-17.7272200">
        <ele>36.4</ele>
        <time>2020-11-16T07:39:08Z</time>
      </trkpt>
      <trkpt lat="28.7415130" lon="-17.7272520">
        <ele>36.8</ele>
        <time>2020-11-16T07:39:09Z</time>
      </trkpt>
      <trkpt lat="28.7415200" lon="-17.7272670">
        <ele>37.0</ele>
        <time>2020-11-16T07:39:10Z</time>
      </trkpt>
      <trkpt lat="28.7415200" lon="-17.7272670">
        <ele>37.0</ele>
        <time>2020-11-16T07:39:11Z</time>
      </trkpt>
      <trkpt lat="28.7415330" lon="-17.7272980">
        <ele>37.4</ele>
        <time>2020-11-16T07:39:12Z</time>
      </trkpt>
      <trkpt lat="28.7415330" lon="-17.7272980">
        <ele>37.4</ele>
        <time>2020-11-16T07:39:13Z</time>
      </trkpt>
      <trkpt lat="28.7415480" lon="-17.7273220">
        <ele>37.7</ele>
        <time>2020-11-16T07:39:14Z</time>
      </trkpt>
      <trkpt lat="28.7415570" lon="-17.7273330">
        <ele>37.9</ele>
        <time>2020-11-16T07:39:15Z</time>
      </trkpt>
      <trkpt lat="28.7415570" lon="-17.7273330">
        <ele>37.9</ele>
        <time>2020-11-16T07:39:16Z</time>
      </trkpt>
      <trkpt lat="28.7415720" lon="-17.7273550">
        <ele>38.2</ele>
        <time>2020-11-16T07:39:17Z</time>
      </trkpt>
      <trkpt lat="28.7415720" lon="-17.7273550">
        <ele>38.2</ele>
        <time>2020-11-16T07:39:18Z</time>
      </trkpt>
      <trkpt lat="28.7415850" lon="-17.7273800">
        <ele>38.5</ele>
        <time>2020-11-16T07:39:19Z</time>
      </trkpt>
      <trkpt lat="28.7415920" lon="-17.7273950">
        <ele>38.7</ele>
        <time>2020-11-16T07:39:20Z</time>
      </trkpt>
      <trkpt lat="28.7415920" lon="-17.7273950">
        <ele>38.7</ele>
        <time>2020-11-16T07:39:21Z</time>
      </trkpt>
      <trkpt lat="28.7416000" lon="-17.7274230">
        <ele>39.0</ele>
        <time>2020-11-16T07:39:22Z</time>
      </trkpt>
      <trkpt lat="28.7416030" lon="-17.7274350">
        <ele>39.2</ele>
        <time>2020-11-16T07:39:23Z</time>
      </trkpt>
      <trkpt lat="28.7416030" lon="-17.7274350">
        <ele>39.2</ele>
        <time>2020-11-16T07:39:24Z</time>
      </trkpt>
      <trkpt lat="28.7416050" lon="-17.7274630">
        <ele>39.5</ele>
        <time>2020-11-16T07:39:25Z</time>
      </trkpt>
      <trkpt lat="28.7416020" lon="-17.7274770">
        <ele>39.7</ele>
        <time>2020-11-16T07:39:26Z</time>
      </trkpt>
      <trkpt lat="28.7416020" lon="-17.7274770">
        <ele>39.7</ele>
        <time>2020-11-16T07:39:27Z</time>
      </trkpt>
      <trkpt lat="28.7415970" lon="-17.7275050">
        <ele>40.0</ele>
        <time>2020-11-16T07:39:28Z</time>
      </trkpt>
      <trkpt lat="28.7415970" lon="-17.7275050">
        <ele>40.0</ele>
        <time>2020-11-16T07:39:29Z</time>
      </trkpt>
      <trkpt lat="28.7415870" lon="-17.7275350">
        <ele>40.3</ele>
        <time>2020-11-16T07:39:30Z</time>
      </trkpt>
      <trkpt lat="28.7415870" lon="-17.7275350">
        <ele>40.3</ele>
        <time>2020-11-16T07:39:31Z</time>
      </trkpt>
      <trkpt lat="28.7415750" lon="-17.7275680">
        <ele>40.7</ele>
        <time>2020-11-16T07:39:32Z</time>
      </trkpt>
      <trkpt lat="28.7415700" lon="-17.7275820">
        <ele>40.9</ele>
        <time>2020-11-16T07:39:33Z</time>
      </trkpt>
      <trkpt lat="28.7415650" lon="-17.7275970">
        <ele>41.1</ele>
        <time>2020-11-16T07:39:34Z</time>
      </trkpt>
      <trkpt lat="28.7415650" lon="-17.7275970">
        <ele>41.1</ele>
        <time>2020-11-16T07:39:35Z</time>
      </trkpt>
      <trkpt lat="28.7415570" lon="-17.7276300">
        <ele>41.5</ele>
        <time>2020-11-16T07:39:36Z</time>
      </trkpt>
      <trkpt lat="28.7415570" lon="-17.7276300">
        <ele>41.5</ele>
        <time>2020-11-16T07:39:37Z</time>
      </trkpt>
      <trkpt lat="28.7415450" lon="-17.7276620">
        <ele>41.9</ele>
        <time>2020-11-16T07:39:38Z</time>
      </trkpt>
      <trkpt lat="28.7415420" lon="-17.7276770">
        <ele>42.0</ele>
        <time>2020-11-16T07:39:39Z</time>
      </trkpt>
      <trkpt lat="28.7415370" lon="-17.7276920">
        <ele>42.2</ele>
        <time>2020-11-16T07:39:40Z</time>
      </trkpt>
      <trkpt lat="28.7415370" lon="-17.7276920">
        <ele>42.2</ele>
        <time>2020-11-16T07:39:41Z</time>
      </trkpt>
      <trkpt lat="28.7415250" lon="-17.7277230">
        <ele>42.6</ele>
        <time>2020-11-16T07:39:42Z</time>
      </trkpt>
      <trkpt lat="28.7415200" lon="-17.7277380">
        <ele>42.8</ele>
        <time>2020-11-16T07:39:43Z</time>
      </trkpt>
      <trkpt lat="28.7415200" lon="-17.7277380">
        <ele>42.8</ele>
        <time>2020-11-16T07:39:44Z</time>
      </trkpt>
      <trkpt lat="28.7415080" lon="-17.7277650">
        <ele>43.1</ele>
        <time>2020-11-16T07:39:45Z</time>
      </trkpt>
      <trkpt lat="28.7415030" lon="-17.7277820">
        <ele>43.3</ele>
        <time>2020-11-16T07:39:46Z</time>
      </trkpt>
      <trkpt lat="28.7415030" lon="-17.7277820">
        <ele>43.3</ele>
        <time>2020-11-16T07:39:47Z</time>
      </trkpt>
      <trkpt lat="28.7414880" lon="-17.7278150">
        <ele>43.7</ele>
        <time>2020-11-16T07:39:48Z</time>
      </trkpt>
      <trkpt lat="28.7414800" lon="-17.7278280">
        <ele>43.9</ele>
        <time>2020-11-16T07:39:49Z</time>
      </trkpt>
      <trkpt lat="28.7414800" lon="-17.7278280">
        <ele>43.9</ele>
        <time>2020-11-16T07:39:50Z</time>
      </trkpt>
      <trkpt lat="28.7414600" lon="-17.7278530">
        <ele>44.3</ele>
        <time>2020-11-16T07:39:51Z</time>
      </trkpt>
      <trkpt lat="28.7414600" lon="-17.7278530">
        <ele>44.3</ele>
        <time>2020-11-16T07:39:52Z</time>
      </trkpt>
      <trkpt lat="28.7414330" lon="-17.7278680">
        <ele>44.7</ele>
        <time>2020-11-16T07:39:53Z</time>
      </trkpt>
      <trkpt lat="28.7414180" lon="-17.7278730">
        <ele>44.9</ele>
        <time>2020-11-16T07:39:54Z</time>
      </trkpt>
      <trkpt lat="28.7414180" lon="-17.7278730">
        <ele>44.9</ele>
        <time>2020-11-16T07:39:55Z</time>
      </trkpt>
      <trkpt lat="28.7413920" lon="-17.7278880">
        <ele>45.2</ele>
        <time>2020-11-16T07:39:56Z</time>
      </trkpt>
      <trkpt lat="28.7413920" lon="-17.7278880">
        <ele>45.2</ele>
        <time>2020-11-16T07:39:57Z</time>
      </trkpt>
      <trkpt lat="28.7413630" lon="-17.7279070">
        <ele>45.7</ele>
        <time>2020-11-16T07:39:58Z</time>
      </trkpt>
      <trkpt lat="28.7413630" lon="-17.7279070">
        <ele>45.7</ele>
        <time>2020-11-16T07:39:59Z</time>
      </trkpt>
      <trkpt lat="28.7413350" lon="-17.7279200">
        <ele>46.1</ele>
        <time>2020-11-16T07:40:00Z</time>
      </trkpt>
      <trkpt lat="28.7413350" lon="-17.7279200">
        <ele>46.1</ele>
        <time>2020-11-16T07:40:01Z</time>
      </trkpt>
      <trkpt lat="28.7413070" lon="-17.7279320">
        <ele>46.4</ele>
        <time>2020-11-16T07:40:02Z</time>
      </trkpt>
      <trkpt lat="28.7412920" lon="-17.7279330">
        <ele>46.6</ele>
        <time>2020-11-16T07:40:03Z</time>
      </trkpt>
      <trkpt lat="28.7412750" lon="-17.7279320">
        <ele>46.8</ele>
        <time>2020-11-16T07:40:04Z</time>
      </trkpt>
      <trkpt lat="28.7412750" lon="-17.7279320">
        <ele>46.8</ele>
        <time>2020-11-16T07:40:05Z</time>
      </trkpt>
      <trkpt lat="28.7412530" lon="-17.7279320">
        <ele>47.1</ele>
        <time>2020-11-16T07:40:06Z</time>
      </trkpt>
      <trkpt lat="28.7412530" lon="-17.7279320">
        <ele>47.1</ele>
        <time>2020-11-16T07:40:07Z</time>
      </trkpt>
      <trkpt lat="28.7412520" lon="-17.7279330">
        <ele>47.1</ele>
        <time>2020-11-16T07:40:08Z</time>
      </trkpt>
      <trkpt lat="28.7412520" lon="-17.7279330">
        <ele>47.1</ele>
        <time>2020-11-16T07:40:09Z</time>
      </trkpt>
      <trkpt lat="28.7412520" lon="-17.7279350">
        <ele>47.2</ele>
        <time>2020-11-16T07:40:10Z</time>
      </trkpt>
      <trkpt lat="28.7412520" lon="-17.7279350">
        <ele>47.2</ele>
        <time>2020-11-16T07:40:11Z</time>
      </trkpt>
      <trkpt lat="28.7412520" lon="-17.7279350">
        <ele>47.2</ele>
        <time>2020-11-16T07:40:12Z</time>
      </trkpt>
      <trkpt lat="28.7412520" lon="-17.7279350">
        <ele>47.2</ele>
        <time>2020-11-16T07:40:13Z</time>
      </trkpt>
      <trkpt lat="28.7412250" lon="-17.7279630">
        <ele>47.6</ele>
        <time>2020-11-16T07:40:38Z</time>
      </trkpt>
      <trkpt lat="28.7412250" lon="-17.7279630">
        <ele>47.6</ele>
        <time>2020-11-16T07:40:39Z</time>
      </trkpt>
      <trkpt lat="28.7412020" lon="-17.7279800">
        <ele>48.0</ele>
        <time>2020-11-16T07:40:40Z</time>
      </trkpt>
      <trkpt lat="28.7412020" lon="-17.7279800">
        <ele>48.0</ele>
        <time>2020-11-16T07:40:41Z</time>
      </trkpt>
      <trkpt lat="28.7411750" lon="-17.7279970">
        <ele>48.4</ele>
        <time>2020-11-16T07:40:42Z</time>
      </trkpt>
      <trkpt lat="28.7411620" lon="-17.7280030">
        <ele>48.6</ele>
        <time>2020-11-16T07:40:43Z</time>
      </trkpt>
      <trkpt lat="28.7411480" lon="-17.7280130">
        <ele>48.8</ele>
        <time>2020-11-16T07:40:44Z</time>
      </trkpt>
      <trkpt lat="28.7411480" lon="-17.7280130">
        <ele>48.8</ele>
        <time>2020-11-16T07:40:45Z</time>
      </trkpt>
      <trkpt lat="28.7411230" lon="-17.7280280">
        <ele>49.1</ele>
        <time>2020-11-16T07:40:46Z</time>
      </trkpt>
      <trkpt lat="28.7411230" lon="-17.7280280">
        <ele>49.1</ele>
        <time>2020-11-16T07:40:47Z</time>
      </trkpt>
      <trkpt lat="28.7410980" lon="-17.7280420">
        <ele>49.5</ele>
        <time>2020-11-16T07:40:48Z</time>
      </trkpt>
      <trkpt lat="28.7410980" lon="-17.7280420">
        <ele>49.5</ele>
        <time>2020-11-16T07:40:49Z</time>
      </trkpt>
      <trkpt lat="28.7410720" lon="-17.7280530">
        <ele>49.8</ele>
        <time>2020-11-16T07:40:50Z</time>
      </trkpt>
      <trkpt lat="28.7410720" lon="-17.7280530">
        <ele>49.8</ele>
        <time>2020-11-16T07:40:51Z</time>
      </trkpt>
      <trkpt lat="28.7410430" lon="-17.7280680">
        <ele>50.3</ele>
        <time>2020-11-16T07:40:52Z</time>
      </trkpt>
      <trkpt lat="28.7410280" lon="-17.7280770">
        <ele>50.5</ele>
        <time>2020-11-16T07:40:53Z</time>
      </trkpt>
      <trkpt lat="28.7410280" lon="-17.7280770">
        <ele>50.5</ele>
        <time>2020-11-16T07:40:54Z</time>
      </trkpt>
      <trkpt lat="28.7409950" lon="-17.7280930">
        <ele>50.9</ele>
        <time>2020-11-16T07:40:55Z</time>
      </trkpt>
      <trkpt lat="28.7409780" lon="-17.7281030">
        <ele>51.2</ele>
        <time>2020-11-16T07:40:56Z</time>
      </trkpt>
      <trkpt lat="28.7409780" lon="-17.7281030">
        <ele>51.2</ele>
        <time>2020-11-16T07:40:57Z</time>
      </trkpt>
      <trkpt lat="28.7409430" lon="-17.7281230">
        <ele>51.7</ele>
        <time>2020-11-16T07:40:58Z</time>
      </trkpt>
      <trkpt lat="28.7409430" lon="-17.7281230">
        <ele>51.7</ele>
        <time>2020-11-16T07:40:59Z</time>
      </trkpt>
      <trkpt lat="28.7409080" lon="-17.7281420">
        <ele>52.2</ele>
        <time>2020-11-16T07:41:00Z</time>
      </trkpt>
      <trkpt lat="28.7409080" lon="-17.7281420">
        <ele>52.2</ele>
        <time>2020-11-16T07:41:01Z</time>
      </trkpt>
      <trkpt lat="28.7408750" lon="-17.7281630">
        <ele>52.8</ele>
        <time>2020-11-16T07:41:02Z</time>
      </trkpt>
      <trkpt lat="28.7408750" lon="-17.7281630">
        <ele>52.8</ele>
        <time>2020-11-16T07:41:03Z</time>
      </trkpt>
      <trkpt lat="28.7408750" lon="-17.7281630">
        <ele>52.8</ele>
        <time>2020-11-16T07:41:04Z</time>
      </trkpt>
      <trkpt lat="28.7408470" lon="-17.7281850">
        <ele>53.3</ele>
        <time>2020-11-16T07:41:05Z</time>
      </trkpt>
      <trkpt lat="28.7408200" lon="-17.7282080">
        <ele>53.8</ele>
        <time>2020-11-16T07:41:06Z</time>
      </trkpt>
      <trkpt lat="28.7408050" lon="-17.7282220">
        <ele>54.1</ele>
        <time>2020-11-16T07:41:07Z</time>
      </trkpt>
      <trkpt lat="28.7408050" lon="-17.7282220">
        <ele>54.1</ele>
        <time>2020-11-16T07:41:08Z</time>
      </trkpt>
      <trkpt lat="28.7407780" lon="-17.7282480">
        <ele>54.6</ele>
        <time>2020-11-16T07:41:09Z</time>
      </trkpt>
      <trkpt lat="28.7407780" lon="-17.7282480">
        <ele>54.6</ele>
        <time>2020-11-16T07:41:10Z</time>
      </trkpt>
      <trkpt lat="28.7407500" lon="-17.7282750">
        <ele>55.2</ele>
        <time>2020-11-16T07:41:11Z</time>
      </trkpt>
      <trkpt lat="28.7407500" lon="-17.7282750">
        <ele>55.2</ele>
        <time>2020-11-16T07:41:12Z</time>
      </trkpt>
      <trkpt lat="28.7407200" lon="-17.7282980">
        <ele>55.8</ele>
        <time>2020-11-16T07:41:13Z</time>
      </trkpt>
      <trkpt lat="28.7407070" lon="-17.7283100">
        <ele>56.0</ele>
        <time>2020-11-16T07:41:14Z</time>
      </trkpt>
      <trkpt lat="28.7407070" lon="-17.7283100">
        <ele>56.0</ele>
        <time>2020-11-16T07:41:15Z</time>
      </trkpt>
      <trkpt lat="28.7406780" lon="-17.7283350">
        <ele>56.6</ele>
        <time>2020-11-16T07:41:16Z</time>
      </trkpt>
      <trkpt lat="28.7406780" lon="-17.7283350">
        <ele>56.6</ele>
        <time>2020-11-16T07:41:17Z</time>
      </trkpt>
      <trkpt lat="28.7406480" lon="-17.7283550">
        <ele>57.1</ele>
        <time>2020-11-16T07:41:18Z</time>
      </trkpt>
      <trkpt lat="28.7406480" lon="-17.7283550">
        <ele>57.1</ele>
        <time>2020-11-16T07:41:19Z</time>
      </trkpt>
      <trkpt lat="28.7406250" lon="-17.7283780">
        <ele>57.6</ele>
        <time>2020-11-16T07:41:20Z</time>
      </trkpt>
      <trkpt lat="28.7406250" lon="-17.7283780">
        <ele>57.6</ele>
        <time>2020-11-16T07:41:21Z</time>
      </trkpt>
      <trkpt lat="28.7406000" lon="-17.7284080">
        <ele>58.1</ele>
        <time>2020-11-16T07:41:22Z</time>
      </trkpt>
      <trkpt lat="28.7405870" lon="-17.7284220">
        <ele>58.4</ele>
        <time>2020-11-16T07:41:23Z</time>
      </trkpt>
      <trkpt lat="28.7405870" lon="-17.7284220">
        <ele>58.4</ele>
        <time>2020-11-16T07:41:24Z</time>
      </trkpt>
      <trkpt lat="28.7405630" lon="-17.7284480">
        <ele>58.9</ele>
        <time>2020-11-16T07:41:25Z</time>
      </trkpt>
      <trkpt lat="28.7405630" lon="-17.7284480">
        <ele>58.9</ele>
        <time>2020-11-16T07:41:26Z</time>
      </trkpt>
      <trkpt lat="28.7405420" lon="-17.7284780">
        <ele>59.4</ele>
        <time>2020-11-16T07:41:27Z</time>
      </trkpt>
      <trkpt lat="28.7405420" lon="-17.7284780">
        <ele>59.4</ele>
        <time>2020-11-16T07:41:28Z</time>
      </trkpt>
      <trkpt lat="28.7405280" lon="-17.7285070">
        <ele>59.9</ele>
        <time>2020-11-16T07:41:29Z</time>
      </trkpt>
      <trkpt lat="28.7405250" lon="-17.7285220">
        <ele>60.1</ele>
        <time>2020-11-16T07:41:30Z</time>
      </trkpt>
      <trkpt lat="28.7405250" lon="-17.7285220">
        <ele>60.1</ele>
        <time>2020-11-16T07:41:31Z</time>
      </trkpt>
      <trkpt lat="28.7405220" lon="-17.7285530">
        <ele>60.5</ele>
        <time>2020-11-16T07:41:32Z</time>
      </trkpt>
      <trkpt lat="28.7405220" lon="-17.7285530">
        <ele>60.5</ele>
        <time>2020-11-16T07:41:33Z</time>
      </trkpt>
      <trkpt lat="28.7405280" lon="-17.7285850">
        <ele>61.0</ele>
        <time>2020-11-16T07:41:34Z</time>
      </trkpt>
      <trkpt lat="28.7405280" lon="-17.7285850">
        <ele>61.0</ele>
        <time>2020-11-16T07:41:35Z</time>
      </trkpt>
      <trkpt lat="28.7405380" lon="-17.7286150">
        <ele>61.4</ele>
        <time>2020-11-16T07:41:36Z</time>
      </trkpt>
      <trkpt lat="28.7405380" lon="-17.7286150">
        <ele>61.4</ele>
        <time>2020-11-16T07:41:37Z</time>
      </trkpt>
      <trkpt lat="28.7405480" lon="-17.7286450">
        <ele>61.8</ele>
        <time>2020-11-16T07:41:38Z</time>
      </trkpt>
      <trkpt lat="28.7405480" lon="-17.7286450">
        <ele>61.8</ele>
        <time>2020-11-16T07:41:39Z</time>
      </trkpt>
      <trkpt lat="28.7405580" lon="-17.7286770">
        <ele>62.3</ele>
        <time>2020-11-16T07:41:40Z</time>
      </trkpt>
      <trkpt lat="28.7405630" lon="-17.7286920">
        <ele>63.0</ele>
        <time>2020-11-16T07:41:41Z</time>
      </trkpt>
      <trkpt lat="28.7405630" lon="-17.7286920">
        <ele>63.0</ele>
        <time>2020-11-16T07:41:42Z</time>
      </trkpt>
      <trkpt lat="28.7405770" lon="-17.7287230">
        <ele>63.6</ele>
        <time>2020-11-16T07:41:43Z</time>
      </trkpt>
      <trkpt lat="28.7405770" lon="-17.7287230">
        <ele>63.6</ele>
        <time>2020-11-16T07:41:44Z</time>
      </trkpt>
      <trkpt lat="28.7405930" lon="-17.7287480">
        <ele>64.2</ele>
        <time>2020-11-16T07:41:45Z</time>
      </trkpt>
      <trkpt lat="28.7405980" lon="-17.7287620">
        <ele>64.5</ele>
        <time>2020-11-16T07:41:46Z</time>
      </trkpt>
      <trkpt lat="28.7406050" lon="-17.7287750">
        <ele>64.8</ele>
        <time>2020-11-16T07:41:47Z</time>
      </trkpt>
      <trkpt lat="28.7406050" lon="-17.7287750">
        <ele>64.8</ele>
        <time>2020-11-16T07:41:48Z</time>
      </trkpt>
      <trkpt lat="28.7406180" lon="-17.7288050">
        <ele>65.4</ele>
        <time>2020-11-16T07:41:49Z</time>
      </trkpt>
      <trkpt lat="28.7406280" lon="-17.7288180">
        <ele>65.7</ele>
        <time>2020-11-16T07:41:50Z</time>
      </trkpt>
      <trkpt lat="28.7406280" lon="-17.7288180">
        <ele>65.7</ele>
        <time>2020-11-16T07:41:51Z</time>
      </trkpt>
      <trkpt lat="28.7406380" lon="-17.7288500">
        <ele>66.4</ele>
        <time>2020-11-16T07:41:52Z</time>
      </trkpt>
      <trkpt lat="28.7406380" lon="-17.7288500">
        <ele>66.4</ele>
        <time>2020-11-16T07:41:53Z</time>
      </trkpt>
      <trkpt lat="28.7406450" lon="-17.7288880">
        <ele>67.1</ele>
        <time>2020-11-16T07:41:54Z</time>
      </trkpt>
      <trkpt lat="28.7406480" lon="-17.7289030">
        <ele>67.4</ele>
        <time>2020-11-16T07:41:55Z</time>
      </trkpt>
      <trkpt lat="28.7406480" lon="-17.7289030">
        <ele>67.4</ele>
        <time>2020-11-16T07:41:56Z</time>
      </trkpt>
      <trkpt lat="28.7406550" lon="-17.7289320">
        <ele>68.0</ele>
        <time>2020-11-16T07:41:57Z</time>
      </trkpt>
      <trkpt lat="28.7406550" lon="-17.7289320">
        <ele>68.0</ele>
        <time>2020-11-16T07:41:58Z</time>
      </trkpt>
      <trkpt lat="28.7406630" lon="-17.7289650">
        <ele>68.6</ele>
        <time>2020-11-16T07:41:59Z</time>
      </trkpt>
      <trkpt lat="28.7406630" lon="-17.7289820">
        <ele>69.0</ele>
        <time>2020-11-16T07:42:00Z</time>
      </trkpt>
      <trkpt lat="28.7406630" lon="-17.7289820">
        <ele>69.0</ele>
        <time>2020-11-16T07:42:01Z</time>
      </trkpt>
      <trkpt lat="28.7406620" lon="-17.7290130">
        <ele>69.5</ele>
        <time>2020-11-16T07:42:02Z</time>
      </trkpt>
      <trkpt lat="28.7406620" lon="-17.7290130">
        <ele>69.5</ele>
        <time>2020-11-16T07:42:03Z</time>
      </trkpt>
      <trkpt lat="28.7406650" lon="-17.7290480">
        <ele>70.2</ele>
        <time>2020-11-16T07:42:04Z</time>
      </trkpt>
      <trkpt lat="28.7406670" lon="-17.7290650">
        <ele>70.5</ele>
        <time>2020-11-16T07:42:05Z</time>
      </trkpt>
      <trkpt lat="28.7406670" lon="-17.7290650">
        <ele>70.5</ele>
        <time>2020-11-16T07:42:06Z</time>
      </trkpt>
      <trkpt lat="28.7406680" lon="-17.7291000">
        <ele>71.2</ele>
        <time>2020-11-16T07:42:07Z</time>
      </trkpt>
      <trkpt lat="28.7406680" lon="-17.7291150">
        <ele>71.5</ele>
        <time>2020-11-16T07:42:08Z</time>
      </trkpt>
      <trkpt lat="28.7406680" lon="-17.7291150">
        <ele>71.5</ele>
        <time>2020-11-16T07:42:09Z</time>
      </trkpt>
      <trkpt lat="28.7406700" lon="-17.7291220">
        <ele>71.6</ele>
        <time>2020-11-16T07:42:10Z</time>
      </trkpt>
      <trkpt lat="28.7406720" lon="-17.7291230">
        <ele>71.7</ele>
        <time>2020-11-16T07:42:11Z</time>
      </trkpt>
      <trkpt lat="28.7406720" lon="-17.7291230">
        <ele>71.7</ele>
        <time>2020-11-16T07:42:12Z</time>
      </trkpt>
      <trkpt lat="28.7406720" lon="-17.7291230">
        <ele>71.7</ele>
        <time>2020-11-16T07:42:13Z</time>
      </trkpt>
      <trkpt lat="28.7406720" lon="-17.7291230">
        <ele>71.7</ele>
        <time>2020-11-16T07:42:14Z</time>
      </trkpt>
      <trkpt lat="28.7406720" lon="-17.7291230">
        <ele>71.7</ele>
        <time>2020-11-16T07:42:37Z</time>
      </trkpt>
      <trkpt lat="28.7406780" lon="-17.7291850">
        <ele>72.8</ele>
        <time>2020-11-16T07:42:38Z</time>
      </trkpt>
      <trkpt lat="28.7406780" lon="-17.7291850">
        <ele>72.8</ele>
        <time>2020-11-16T07:42:39Z</time>
      </trkpt>
      <trkpt lat="28.7406770" lon="-17.7292150">
        <ele>73.4</ele>
        <time>2020-11-16T07:42:40Z</time>
      </trkpt>
      <trkpt lat="28.7406770" lon="-17.7292150">
        <ele>73.4</ele>
        <time>2020-11-16T07:42:41Z</time>
      </trkpt>
      <trkpt lat="28.7406670" lon="-17.7292450">
        <ele>74.0</ele>
        <time>2020-11-16T07:42:42Z</time>
      </trkpt>
      <trkpt lat="28.7406680" lon="-17.7292570">
        <ele>74.2</ele>
        <time>2020-11-16T07:42:43Z</time>
      </trkpt>
      <trkpt lat="28.7406680" lon="-17.7292570">
        <ele>74.2</ele>
        <time>2020-11-16T07:42:44Z</time>
      </trkpt>
      <trkpt lat="28.7406830" lon="-17.7292880">
        <ele>74.9</ele>
        <time>2020-11-16T07:42:45Z</time>
      </trkpt>
      <trkpt lat="28.7406830" lon="-17.7292880">
        <ele>74.9</ele>
        <time>2020-11-16T07:42:46Z</time>
      </trkpt>
      <trkpt lat="28.7406800" lon="-17.7293220">
        <ele>75.6</ele>
        <time>2020-11-16T07:42:47Z</time>
      </trkpt>
      <trkpt lat="28.7406800" lon="-17.7293220">
        <ele>75.6</ele>
        <time>2020-11-16T07:42:48Z</time>
      </trkpt>
      <trkpt lat="28.7406680" lon="-17.7293600">
        <ele>76.3</ele>
        <time>2020-11-16T07:42:49Z</time>
      </trkpt>
      <trkpt lat="28.7406680" lon="-17.7293780">
        <ele>76.7</ele>
        <time>2020-11-16T07:42:50Z</time>
      </trkpt>
      <trkpt lat="28.7406680" lon="-17.7293780">
        <ele>76.7</ele>
        <time>2020-11-16T07:42:51Z</time>
      </trkpt>
      <trkpt lat="28.7406750" lon="-17.7294170">
        <ele>77.4</ele>
        <time>2020-11-16T07:42:52Z</time>
      </trkpt>
      <trkpt lat="28.7406750" lon="-17.7294170">
        <ele>77.4</ele>
        <time>2020-11-16T07:42:53Z</time>
      </trkpt>
      <trkpt lat="28.7406820" lon="-17.7294570">
        <ele>78.2</ele>
        <time>2020-11-16T07:42:54Z</time>
      </trkpt>
      <trkpt lat="28.7406820" lon="-17.7294570">
        <ele>78.2</ele>
        <time>2020-11-16T07:42:55Z</time>
      </trkpt>
      <trkpt lat="28.7406750" lon="-17.7294950">
        <ele>78.9</ele>
        <time>2020-11-16T07:42:56Z</time>
      </trkpt>
      <trkpt lat="28.7406750" lon="-17.7294950">
        <ele>78.9</ele>
        <time>2020-11-16T07:42:57Z</time>
      </trkpt>
      <trkpt lat="28.7406580" lon="-17.7295270">
        <ele>79.6</ele>
        <time>2020-11-16T07:42:58Z</time>
      </trkpt>
      <trkpt lat="28.7406500" lon="-17.7295430">
        <ele>80.0</ele>
        <time>2020-11-16T07:42:59Z</time>
      </trkpt>
      <trkpt lat="28.7406500" lon="-17.7295430">
        <ele>80.0</ele>
        <time>2020-11-16T07:43:00Z</time>
      </trkpt>
      <trkpt lat="28.7406380" lon="-17.7295800">
        <ele>80.7</ele>
        <time>2020-11-16T07:43:01Z</time>
      </trkpt>
      <trkpt lat="28.7406380" lon="-17.7295800">
        <ele>80.7</ele>
        <time>2020-11-16T07:43:02Z</time>
      </trkpt>
      <trkpt lat="28.7406250" lon="-17.7296220">
        <ele>81.6</ele>
        <time>2020-11-16T07:43:03Z</time>
      </trkpt>
      <trkpt lat="28.7406170" lon="-17.7296450">
        <ele>82.0</ele>
        <time>2020-11-16T07:43:04Z</time>
      </trkpt>
      <trkpt lat="28.7406170" lon="-17.7296450">
        <ele>82.0</ele>
        <time>2020-11-16T07:43:05Z</time>
      </trkpt>
      <trkpt lat="28.7406000" lon="-17.7296900">
        <ele>83.0</ele>
        <time>2020-11-16T07:43:06Z</time>
      </trkpt>
      <trkpt lat="28.7406000" lon="-17.7296900">
        <ele>83.0</ele>
        <time>2020-11-16T07:43:07Z</time>
      </trkpt>
      <trkpt lat="28.7405920" lon="-17.7297300">
        <ele>83.7</ele>
        <time>2020-11-16T07:43:08Z</time>
      </trkpt>
      <trkpt lat="28.7405920" lon="-17.7297300">
        <ele>83.7</ele>
        <time>2020-11-16T07:43:09Z</time>
      </trkpt>
      <trkpt lat="28.7405830" lon="-17.7297680">
        <ele>84.5</ele>
        <time>2020-11-16T07:43:10Z</time>
      </trkpt>
      <trkpt lat="28.7405830" lon="-17.7297680">
        <ele>84.5</ele>
        <time>2020-11-16T07:43:11Z</time>
      </trkpt>
      <trkpt lat="28.7405730" lon="-17.7298050">
        <ele>85.2</ele>
        <time>2020-11-16T07:43:12Z</time>
      </trkpt>
      <trkpt lat="28.7405730" lon="-17.7298050">
        <ele>85.2</ele>
        <time>2020-11-16T07:43:13Z</time>
      </trkpt>
      <trkpt lat="28.7405670" lon="-17.7298450">
        <ele>86.0</ele>
        <time>2020-11-16T07:43:14Z</time>
      </trkpt>
      <trkpt lat="28.7405670" lon="-17.7298450">
        <ele>86.0</ele>
        <time>2020-11-16T07:43:15Z</time>
      </trkpt>
      <trkpt lat="28.7405550" lon="-17.7298820">
        <ele>86.7</ele>
        <time>2020-11-16T07:43:16Z</time>
      </trkpt>
      <trkpt lat="28.7405550" lon="-17.7298820">
        <ele>86.7</ele>
        <time>2020-11-16T07:43:17Z</time>
      </trkpt>
      <trkpt lat="28.7405450" lon="-17.7299180">
        <ele>87.4</ele>
        <time>2020-11-16T07:43:18Z</time>
      </trkpt>
      <trkpt lat="28.7405450" lon="-17.7299180">
        <ele>87.4</ele>
        <time>2020-11-16T07:43:19Z</time>
      </trkpt>
      <trkpt lat="28.7405370" lon="-17.7299550">
        <ele>88.2</ele>
        <time>2020-11-16T07:43:20Z</time>
      </trkpt>
      <trkpt lat="28.7405370" lon="-17.7299550">
        <ele>88.2</ele>
        <time>2020-11-16T07:43:21Z</time>
      </trkpt>
      <trkpt lat="28.7405350" lon="-17.7299980">
        <ele>89.0</ele>
        <time>2020-11-16T07:43:22Z</time>
      </trkpt>
      <trkpt lat="28.7405350" lon="-17.7299980">
        <ele>89.0</ele>
        <time>2020-11-16T07:43:23Z</time>
      </trkpt>
      <trkpt lat="28.7405370" lon="-17.7300450">
        <ele>89.9</ele>
        <time>2020-11-16T07:43:24Z</time>
      </trkpt>
      <trkpt lat="28.7405370" lon="-17.7300450">
        <ele>89.9</ele>
        <time>2020-11-16T07:43:25Z</time>
      </trkpt>
      <trkpt lat="28.7405330" lon="-17.7300870">
        <ele>90.7</ele>
        <time>2020-11-16T07:43:26Z</time>
      </trkpt>
      <trkpt lat="28.7405330" lon="-17.7300870">
        <ele>90.7</ele>
        <time>2020-11-16T07:43:27Z</time>
      </trkpt>
      <trkpt lat="28.7405280" lon="-17.7301300">
        <ele>91.5</ele>
        <time>2020-11-16T07:43:28Z</time>
      </trkpt>
      <trkpt lat="28.7405280" lon="-17.7301300">
        <ele>91.5</ele>
        <time>2020-11-16T07:43:29Z</time>
      </trkpt>
      <trkpt lat="28.7405350" lon="-17.7301700">
        <ele>92.3</ele>
        <time>2020-11-16T07:43:30Z</time>
      </trkpt>
      <trkpt lat="28.7405400" lon="-17.7301880">
        <ele>92.6</ele>
        <time>2020-11-16T07:43:31Z</time>
      </trkpt>
      <trkpt lat="28.7405400" lon="-17.7301880">
        <ele>92.6</ele>
        <time>2020-11-16T07:43:32Z</time>
      </trkpt>
      <trkpt lat="28.7405550" lon="-17.7302250">
        <ele>93.4</ele>
        <time>2020-11-16T07:43:33Z</time>
      </trkpt>
      <trkpt lat="28.7405630" lon="-17.7302430">
        <ele>93.8</ele>
        <time>2020-11-16T07:43:34Z</time>
      </trkpt>
      <trkpt lat="28.7405630" lon="-17.7302430">
        <ele>93.8</ele>
        <time>2020-11-16T07:43:35Z</time>
      </trkpt>
      <trkpt lat="28.7405730" lon="-17.7302830">
        <ele>94.7</ele>
        <time>2020-11-16T07:43:36Z</time>
      </trkpt>
      <trkpt lat="28.7405730" lon="-17.7302830">
        <ele>94.7</ele>
        <time>2020-11-16T07:43:37Z</time>
      </trkpt>
      <trkpt lat="28.7405820" lon="-17.7303250">
        <ele>95.4</ele>
        <time>2020-11-16T07:43:38Z</time>
      </trkpt>
      <trkpt lat="28.7405820" lon="-17.7303250">
        <ele>95.4</ele>
        <time>2020-11-16T07:43:39Z</time>
      </trkpt>
      <trkpt lat="28.7405930" lon="-17.7303580">
        <ele>95.9</ele>
        <time>2020-11-16T07:43:40Z</time>
      </trkpt>
      <trkpt lat="28.7406000" lon="-17.7303730">
        <ele>96.2</ele>
        <time>2020-11-16T07:43:41Z</time>
      </trkpt>
      <trkpt lat="28.7406000" lon="-17.7303730">
        <ele>96.2</ele>
        <time>2020-11-16T07:43:42Z</time>
      </trkpt>
      <trkpt lat="28.7406130" lon="-17.7304080">
        <ele>96.8</ele>
        <time>2020-11-16T07:43:43Z</time>
      </trkpt>
      <trkpt lat="28.7406180" lon="-17.7304280">
        <ele>97.1</ele>
        <time>2020-11-16T07:43:44Z</time>
      </trkpt>
      <trkpt lat="28.7406180" lon="-17.7304280">
        <ele>97.1</ele>
        <time>2020-11-16T07:43:45Z</time>
      </trkpt>
      <trkpt lat="28.7406270" lon="-17.7304680">
        <ele>97.8</ele>
        <time>2020-11-16T07:43:46Z</time>
      </trkpt>
      <trkpt lat="28.7406270" lon="-17.7304680">
        <ele>97.8</ele>
        <time>2020-11-16T07:43:47Z</time>
      </trkpt>
      <trkpt lat="28.7406300" lon="-17.7305080">
        <ele>98.4</ele>
        <time>2020-11-16T07:43:48Z</time>
      </trkpt>
      <trkpt lat="28.7406300" lon="-17.7305080">
        <ele>98.4</ele>
        <time>2020-11-16T07:43:49Z</time>
      </trkpt>
      <trkpt lat="28.7406400" lon="-17.7305430">
        <ele>99.0</ele>
        <time>2020-11-16T07:43:50Z</time>
      </trkpt>
      <trkpt lat="28.7406400" lon="-17.7305430">
        <ele>99.0</ele>
        <time>2020-11-16T07:43:51Z</time>
      </trkpt>
      <trkpt lat="28.7406570" lon="-17.7305730">
        <ele>99.6</ele>
        <time>2020-11-16T07:43:52Z</time>
      </trkpt>
      <trkpt lat="28.7406650" lon="-17.7305880">
        <ele>99.9</ele>
        <time>2020-11-16T07:43:53Z</time>
      </trkpt>
      <trkpt lat="28.7406720" lon="-17.7306050">
        <ele>100.2</ele>
        <time>2020-11-16T07:43:54Z</time>
      </trkpt>
      <trkpt lat="28.7406720" lon="-17.7306050">
        <ele>100.2</ele>
        <time>2020-11-16T07:43:55Z</time>
      </trkpt>
      <trkpt lat="28.7406820" lon="-17.7306320">
        <ele>100.6</ele>
        <time>2020-11-16T07:43:56Z</time>
      </trkpt>
      <trkpt lat="28.7406820" lon="-17.7306320">
        <ele>100.6</ele>
        <time>2020-11-16T07:43:57Z</time>
      </trkpt>
      <trkpt lat="28.7406920" lon="-17.7306530">
        <ele>101.0</ele>
        <time>2020-11-16T07:43:58Z</time>
      </trkpt>
      <trkpt lat="28.7406920" lon="-17.7306530">
        <ele>101.0</ele>
        <time>2020-11-16T07:43:59Z</time>
      </trkpt>
      <trkpt lat="28.7407020" lon="-17.7306770">
        <ele>101.4</ele>
        <time>2020-11-16T07:44:00Z</time>
      </trkpt>
      <trkpt lat="28.7407020" lon="-17.7306770">
        <ele>101.4</ele>
        <time>2020-11-16T07:44:01Z</time>
      </trkpt>
      <trkpt lat="28.7407120" lon="-17.7307050">
        <ele>101.9</ele>
        <time>2020-11-16T07:44:02Z</time>
      </trkpt>
      <trkpt lat="28.7407120" lon="-17.7307050">
        <ele>101.9</ele>
        <time>2020-11-16T07:44:03Z</time>
      </trkpt>
      <trkpt lat="28.7407230" lon="-17.7307380">
        <ele>102.4</ele>
        <time>2020-11-16T07:44:04Z</time>
      </trkpt>
      <trkpt lat="28.7407280" lon="-17.7307550">
        <ele>102.7</ele>
        <time>2020-11-16T07:44:05Z</time>
      </trkpt>
      <trkpt lat="28.7407280" lon="-17.7307550">
        <ele>102.7</ele>
        <time>2020-11-16T07:44:06Z</time>
      </trkpt>
      <trkpt lat="28.7407450" lon="-17.7307800">
        <ele>103.2</ele>
        <time>2020-11-16T07:44:07Z</time>
      </trkpt>
      <trkpt lat="28.7407450" lon="-17.7307800">
        <ele>103.2</ele>
        <time>2020-11-16T07:44:08Z</time>
      </trkpt>
      <trkpt lat="28.7407650" lon="-17.7308050">
        <ele>103.8</ele>
        <time>2020-11-16T07:44:09Z</time>
      </trkpt>
      <trkpt lat="28.7407730" lon="-17.7308220">
        <ele>104.1</ele>
        <time>2020-11-16T07:44:10Z</time>
      </trkpt>
      <trkpt lat="28.7407730" lon="-17.7308220">
        <ele>104.1</ele>
        <time>2020-11-16T07:44:11Z</time>
      </trkpt>
      <trkpt lat="28.7407830" lon="-17.7308600">
        <ele>104.7</ele>
        <time>2020-11-16T07:44:12Z</time>
      </trkpt>
      <trkpt lat="28.7407900" lon="-17.7308780">
        <ele>105.0</ele>
        <time>2020-11-16T07:44:13Z</time>
      </trkpt>
      <trkpt lat="28.7408000" lon="-17.7308930">
        <ele>105.3</ele>
        <time>2020-11-16T07:44:14Z</time>
      </trkpt>
      <trkpt lat="28.7408000" lon="-17.7308930">
        <ele>105.3</ele>
        <time>2020-11-16T07:44:15Z</time>
      </trkpt>
      <trkpt lat="28.7408250" lon="-17.7309150">
        <ele>105.9</ele>
        <time>2020-11-16T07:44:16Z</time>
      </trkpt>
      <trkpt lat="28.7408250" lon="-17.7309150">
        <ele>105.9</ele>
        <time>2020-11-16T07:44:17Z</time>
      </trkpt>
      <trkpt lat="28.7408520" lon="-17.7309300">
        <ele>106.4</ele>
        <time>2020-11-16T07:44:18Z</time>
      </trkpt>
      <trkpt lat="28.7408650" lon="-17.7309380">
        <ele>106.7</ele>
        <time>2020-11-16T07:44:19Z</time>
      </trkpt>
      <trkpt lat="28.7408650" lon="-17.7309380">
        <ele>106.7</ele>
        <time>2020-11-16T07:44:20Z</time>
      </trkpt>
      <trkpt lat="28.7408900" lon="-17.7309600">
        <ele>107.3</ele>
        <time>2020-11-16T07:44:21Z</time>
      </trkpt>
      <trkpt lat="28.7408900" lon="-17.7309600">
        <ele>107.3</ele>
        <time>2020-11-16T07:44:22Z</time>
      </trkpt>
      <trkpt lat="28.7409220" lon="-17.7309700">
        <ele>108.0</ele>
        <time>2020-11-16T07:44:23Z</time>
      </trkpt>
      <trkpt lat="28.7409380" lon="-17.7309700">
        <ele>108.1</ele>
        <time>2020-11-16T07:44:24Z</time>
      </trkpt>
      <trkpt lat="28.7409550" lon="-17.7309630">
        <ele>108.1</ele>
        <time>2020-11-16T07:44:25Z</time>
      </trkpt>
      <trkpt lat="28.7409550" lon="-17.7309630">
        <ele>108.1</ele>
        <time>2020-11-16T07:44:26Z</time>
      </trkpt>
      <trkpt lat="28.7409920" lon="-17.7309450">
        <ele>108.1</ele>
        <time>2020-11-16T07:44:27Z</time>
      </trkpt>
      <trkpt lat="28.7409920" lon="-17.7309450">
        <ele>108.1</ele>
        <time>2020-11-16T07:44:28Z</time>
      </trkpt>
      <trkpt lat="28.7410230" lon="-17.7309250">
        <ele>108.2</ele>
        <time>2020-11-16T07:44:29Z</time>
      </trkpt>
      <trkpt lat="28.7410230" lon="-17.7309250">
        <ele>108.2</ele>
        <time>2020-11-16T07:44:30Z</time>
      </trkpt>
      <trkpt lat="28.7410630" lon="-17.7309120">
        <ele>108.3</ele>
        <time>2020-11-16T07:44:31Z</time>
      </trkpt>
      <trkpt lat="28.7410630" lon="-17.7309120">
        <ele>108.3</ele>
        <time>2020-11-16T07:44:32Z</time>
      </trkpt>
      <trkpt lat="28.7411080" lon="-17.7309050">
        <ele>108.4</ele>
        <time>2020-11-16T07:44:33Z</time>
      </trkpt>
      <trkpt lat="28.7411080" lon="-17.7309050">
        <ele>108.4</ele>
        <time>2020-11-16T07:44:34Z</time>
      </trkpt>
      <trkpt lat="28.7411550" lon="-17.7309000">
        <ele>108.4</ele>
        <time>2020-11-16T07:44:35Z</time>
      </trkpt>
      <trkpt lat="28.7411550" lon="-17.7309000">
        <ele>108.4</ele>
        <time>2020-11-16T07:44:36Z</time>
      </trkpt>
      <trkpt lat="28.7412020" lon="-17.7309000">
        <ele>108.5</ele>
        <time>2020-11-16T07:44:37Z</time>
      </trkpt>
      <trkpt lat="28.7412020" lon="-17.7309000">
        <ele>108.5</ele>
        <time>2020-11-16T07:44:38Z</time>
      </trkpt>
      <trkpt lat="28.7412470" lon="-17.7309030">
        <ele>108.5</ele>
        <time>2020-11-16T07:44:39Z</time>
      </trkpt>
      <trkpt lat="28.7412470" lon="-17.7309030">
        <ele>108.5</ele>
        <time>2020-11-16T07:44:40Z</time>
      </trkpt>
      <trkpt lat="28.7412920" lon="-17.7309220">
        <ele>108.5</ele>
        <time>2020-11-16T07:44:41Z</time>
      </trkpt>
      <trkpt lat="28.7413150" lon="-17.7309280">
        <ele>108.5</ele>
        <time>2020-11-16T07:44:42Z</time>
      </trkpt>
      <trkpt lat="28.7413150" lon="-17.7309280">
        <ele>108.5</ele>
        <time>2020-11-16T07:44:43Z</time>
      </trkpt>
      <trkpt lat="28.7413580" lon="-17.7309450">
        <ele>108.6</ele>
        <time>2020-11-16T07:44:44Z</time>
      </trkpt>
      <trkpt lat="28.7413580" lon="-17.7309450">
        <ele>108.6</ele>
        <time>2020-11-16T07:44:45Z</time>
      </trkpt>
      <trkpt lat="28.7414030" lon="-17.7309650">
        <ele>108.6</ele>
        <time>2020-11-16T07:44:46Z</time>
      </trkpt>
      <trkpt lat="28.7414030" lon="-17.7309650">
        <ele>108.6</ele>
        <time>2020-11-16T07:44:47Z</time>
      </trkpt>
      <trkpt lat="28.7414500" lon="-17.7309830">
        <ele>108.6</ele>
        <time>2020-11-16T07:44:48Z</time>
      </trkpt>
      <trkpt lat="28.7414500" lon="-17.7309830">
        <ele>108.6</ele>
        <time>2020-11-16T07:44:49Z</time>
      </trkpt>
      <trkpt lat="28.7414970" lon="-17.7309950">
        <ele>108.7</ele>
        <time>2020-11-16T07:44:50Z</time>
      </trkpt>
      <trkpt lat="28.7414970" lon="-17.7309950">
        <ele>108.7</ele>
        <time>2020-11-16T07:44:51Z</time>
      </trkpt>
      <trkpt lat="28.7415430" lon="-17.7310000">
        <ele>108.7</ele>
        <time>2020-11-16T07:44:52Z</time>
      </trkpt>
      <trkpt lat="28.7415430" lon="-17.7310000">
        <ele>108.7</ele>
        <time>2020-11-16T07:44:53Z</time>
      </trkpt>
      <trkpt lat="28.7415920" lon="-17.7310020">
        <ele>108.7</ele>
        <time>2020-11-16T07:44:54Z</time>
      </trkpt>
      <trkpt lat="28.7416150" lon="-17.7310050">
        <ele>108.8</ele>
        <time>2020-11-16T07:44:55Z</time>
      </trkpt>
      <trkpt lat="28.7416150" lon="-17.7310050">
        <ele>108.8</ele>
        <time>2020-11-16T07:44:56Z</time>
      </trkpt>
      <trkpt lat="28.7416600" lon="-17.7310170">
        <ele>108.8</ele>
        <time>2020-11-16T07:44:57Z</time>
      </trkpt>
      <trkpt lat="28.7416600" lon="-17.7310170">
        <ele>108.8</ele>
        <time>2020-11-16T07:44:58Z</time>
      </trkpt>
      <trkpt lat="28.7417050" lon="-17.7310370">
        <ele>108.8</ele>
        <time>2020-11-16T07:44:59Z</time>
      </trkpt>
      <trkpt lat="28.7417050" lon="-17.7310370">
        <ele>108.8</ele>
        <time>2020-11-16T07:45:00Z</time>
      </trkpt>
      <trkpt lat="28.7417500" lon="-17.7310520">
        <ele>108.9</ele>
        <time>2020-11-16T07:45:01Z</time>
      </trkpt>
      <trkpt lat="28.7417720" lon="-17.7310570">
        <ele>108.9</ele>
        <time>2020-11-16T07:45:02Z</time>
      </trkpt>
      <trkpt lat="28.7417720" lon="-17.7310570">
        <ele>108.9</ele>
        <time>2020-11-16T07:45:03Z</time>
      </trkpt>
      <trkpt lat="28.7418170" lon="-17.7310670">
        <ele>108.9</ele>
        <time>2020-11-16T07:45:04Z</time>
      </trkpt>
      <trkpt lat="28.7418170" lon="-17.7310670">
        <ele>108.9</ele>
        <time>2020-11-16T07:45:05Z</time>
      </trkpt>
      <trkpt lat="28.7418600" lon="-17.7310770">
        <ele>109.0</ele>
        <time>2020-11-16T07:45:06Z</time>
      </trkpt>
      <trkpt lat="28.7418820" lon="-17.7310820">
        <ele>109.0</ele>
        <time>2020-11-16T07:45:07Z</time>
      </trkpt>
      <trkpt lat="28.7418820" lon="-17.7310820">
        <ele>109.0</ele>
        <time>2020-11-16T07:45:08Z</time>
      </trkpt>
      <trkpt lat="28.7419200" lon="-17.7311020">
        <ele>109.0</ele>
        <time>2020-11-16T07:45:09Z</time>
      </trkpt>
      <trkpt lat="28.7419200" lon="-17.7311020">
        <ele>109.0</ele>
        <time>2020-11-16T07:45:10Z</time>
      </trkpt>
      <trkpt lat="28.7419570" lon="-17.7311250">
        <ele>109.1</ele>
        <time>2020-11-16T07:45:11Z</time>
      </trkpt>
      <trkpt lat="28.7419570" lon="-17.7311250">
        <ele>109.1</ele>
        <time>2020-11-16T07:45:12Z</time>
      </trkpt>
      <trkpt lat="28.7419930" lon="-17.7311480">
        <ele>109.2</ele>
        <time>2020-11-16T07:45:13Z</time>
      </trkpt>
      <trkpt lat="28.7420100" lon="-17.7311620">
        <ele>109.3</ele>
        <time>2020-11-16T07:45:14Z</time>
      </trkpt>
      <trkpt lat="28.7420100" lon="-17.7311620">
        <ele>109.3</ele>
        <time>2020-11-16T07:45:15Z</time>
      </trkpt>
      <trkpt lat="28.7420420" lon="-17.7311930">
        <ele>109.7</ele>
        <time>2020-11-16T07:45:16Z</time>
      </trkpt>
      <trkpt lat="28.7420420" lon="-17.7311930">
        <ele>109.7</ele>
        <time>2020-11-16T07:45:17Z</time>
      </trkpt>
      <trkpt lat="28.7420730" lon="-17.7312320">
        <ele>110.9</ele>
        <time>2020-11-16T07:45:18Z</time>
      </trkpt>
      <trkpt lat="28.7420730" lon="-17.7312320">
        <ele>110.9</ele>
        <time>2020-11-16T07:45:19Z</time>
      </trkpt>
      <trkpt lat="28.7421120" lon="-17.7312600">
        <ele>112.0</ele>
        <time>2020-11-16T07:45:20Z</time>
      </trkpt>
      <trkpt lat="28.7421120" lon="-17.7312600">
        <ele>112.0</ele>
        <time>2020-11-16T07:45:21Z</time>
      </trkpt>
      <trkpt lat="28.7421520" lon="-17.7312880">
        <ele>113.2</ele>
        <time>2020-11-16T07:45:22Z</time>
      </trkpt>
      <trkpt lat="28.7421700" lon="-17.7313030">
        <ele>113.8</ele>
        <time>2020-11-16T07:45:23Z</time>
      </trkpt>
      <trkpt lat="28.7421700" lon="-17.7313030">
        <ele>113.8</ele>
        <time>2020-11-16T07:45:24Z</time>
      </trkpt>
      <trkpt lat="28.7422050" lon="-17.7313380">
        <ele>114.7</ele>
        <time>2020-11-16T07:45:25Z</time>
      </trkpt>
      <trkpt lat="28.7422050" lon="-17.7313380">
        <ele>114.7</ele>
        <time>2020-11-16T07:45:26Z</time>
      </trkpt>
      <trkpt lat="28.7422450" lon="-17.7313630">
        <ele>114.8</ele>
        <time>2020-11-16T07:45:27Z</time>
      </trkpt>
      <trkpt lat="28.7422450" lon="-17.7313630">
        <ele>114.8</ele>
        <time>2020-11-16T07:45:28Z</time>
      </trkpt>
      <trkpt lat="28.7422880" lon="-17.7313880">
        <ele>114.9</ele>
        <time>2020-11-16T07:45:29Z</time>
      </trkpt>
      <trkpt lat="28.7422880" lon="-17.7313880">
        <ele>114.9</ele>
        <time>2020-11-16T07:45:30Z</time>
      </trkpt>
      <trkpt lat="28.7423330" lon="-17.7314100">
        <ele>114.9</ele>
        <time>2020-11-16T07:45:31Z</time>
      </trkpt>
      <trkpt lat="28.7423550" lon="-17.7314220">
        <ele>115.0</ele>
        <time>2020-11-16T07:45:32Z</time>
      </trkpt>
      <trkpt lat="28.7423550" lon="-17.7314220">
        <ele>115.0</ele>
        <time>2020-11-16T07:45:33Z</time>
      </trkpt>
      <trkpt lat="28.7424020" lon="-17.7314430">
        <ele>115.0</ele>
        <time>2020-11-16T07:45:34Z</time>
      </trkpt>
      <trkpt lat="28.7424250" lon="-17.7314530">
        <ele>115.1</ele>
        <time>2020-11-16T07:45:35Z</time>
      </trkpt>
      <trkpt lat="28.7424500" lon="-17.7314630">
        <ele>115.1</ele>
        <time>2020-11-16T07:45:36Z</time>
      </trkpt>
      <trkpt lat="28.7424500" lon="-17.7314630">
        <ele>115.1</ele>
        <time>2020-11-16T07:45:37Z</time>
      </trkpt>
      <trkpt lat="28.7424950" lon="-17.7314880">
        <ele>115.1</ele>
        <time>2020-11-16T07:45:38Z</time>
      </trkpt>
      <trkpt lat="28.7425170" lon="-17.7315000">
        <ele>115.2</ele>
        <time>2020-11-16T07:45:39Z</time>
      </trkpt>
      <trkpt lat="28.7425170" lon="-17.7315000">
        <ele>115.2</ele>
        <time>2020-11-16T07:45:40Z</time>
      </trkpt>
      <trkpt lat="28.7425620" lon="-17.7315230">
        <ele>115.2</ele>
        <time>2020-11-16T07:45:41Z</time>
      </trkpt>
      <trkpt lat="28.7425830" lon="-17.7315370">
        <ele>115.2</ele>
        <time>2020-11-16T07:45:42Z</time>
      </trkpt>
      <trkpt lat="28.7425830" lon="-17.7315370">
        <ele>115.2</ele>
        <time>2020-11-16T07:45:43Z</time>
      </trkpt>
      <trkpt lat="28.7426280" lon="-17.7315630">
        <ele>115.3</ele>
        <time>2020-11-16T07:45:44Z</time>
      </trkpt>
      <trkpt lat="28.7426520" lon="-17.7315720">
        <ele>115.3</ele>
        <time>2020-11-16T07:45:45Z</time>
      </trkpt>
      <trkpt lat="28.7426520" lon="-17.7315720">
        <ele>115.3</ele>
        <time>2020-11-16T07:45:46Z</time>
      </trkpt>
      <trkpt lat="28.7427000" lon="-17.7315870">
        <ele>115.3</ele>
        <time>2020-11-16T07:45:47Z</time>
      </trkpt>
      <trkpt lat="28.7427000" lon="-17.7315870">
        <ele>115.3</ele>
        <time>2020-11-16T07:45:48Z</time>
      </trkpt>
      <trkpt lat="28.7427480" lon="-17.7316050">
        <ele>115.3</ele>
        <time>2020-11-16T07:45:49Z</time>
      </trkpt>
      <trkpt lat="28.7427720" lon="-17.7316180">
        <ele>115.3</ele>
        <time>2020-11-16T07:45:50Z</time>
      </trkpt>
      <trkpt lat="28.7427720" lon="-17.7316180">
        <ele>115.3</ele>
        <time>2020-11-16T07:45:51Z</time>
      </trkpt>
      <trkpt lat="28.7428180" lon="-17.7316450">
        <ele>115.3</ele>
        <time>2020-11-16T07:45:52Z</time>
      </trkpt>
      <trkpt lat="28.7428180" lon="-17.7316450">
        <ele>115.3</ele>
        <time>2020-11-16T07:45:53Z</time>
      </trkpt>
      <trkpt lat="28.7428630" lon="-17.7316720">
        <ele>115.4</ele>
        <time>2020-11-16T07:45:54Z</time>
      </trkpt>
      <trkpt lat="28.7428870" lon="-17.7316820">
        <ele>115.4</ele>
        <time>2020-11-16T07:45:55Z</time>
      </trkpt>
      <trkpt lat="28.7428870" lon="-17.7316820">
        <ele>115.4</ele>
        <time>2020-11-16T07:45:56Z</time>
      </trkpt>
      <trkpt lat="28.7429370" lon="-17.7316980">
        <ele>115.4</ele>
        <time>2020-11-16T07:45:57Z</time>
      </trkpt>
      <trkpt lat="28.7429370" lon="-17.7316980">
        <ele>115.4</ele>
        <time>2020-11-16T07:45:58Z</time>
      </trkpt>
      <trkpt lat="28.7429880" lon="-17.7317150">
        <ele>115.4</ele>
        <time>2020-11-16T07:45:59Z</time>
      </trkpt>
      <trkpt lat="28.7429880" lon="-17.7317150">
        <ele>115.4</ele>
        <time>2020-11-16T07:46:00Z</time>
      </trkpt>
      <trkpt lat="28.7430350" lon="-17.7317400">
        <ele>115.4</ele>
        <time>2020-11-16T07:46:01Z</time>
      </trkpt>
      <trkpt lat="28.7430600" lon="-17.7317530">
        <ele>115.5</ele>
        <time>2020-11-16T07:46:02Z</time>
      </trkpt>
      <trkpt lat="28.7430600" lon="-17.7317530">
        <ele>115.5</ele>
        <time>2020-11-16T07:46:03Z</time>
      </trkpt>
      <trkpt lat="28.7431070" lon="-17.7317800">
        <ele>115.5</ele>
        <time>2020-11-16T07:46:04Z</time>
      </trkpt>
      <trkpt lat="28.7431070" lon="-17.7317800">
        <ele>115.5</ele>
        <time>2020-11-16T07:46:05Z</time>
      </trkpt>
      <trkpt lat="28.7431580" lon="-17.7318030">
        <ele>115.5</ele>
        <time>2020-11-16T07:46:06Z</time>
      </trkpt>
      <trkpt lat="28.7431820" lon="-17.7318120">
        <ele>115.5</ele>
        <time>2020-11-16T07:46:07Z</time>
      </trkpt>
      <trkpt lat="28.7431820" lon="-17.7318120">
        <ele>115.5</ele>
        <time>2020-11-16T07:46:08Z</time>
      </trkpt>
      <trkpt lat="28.7432320" lon="-17.7318320">
        <ele>115.6</ele>
        <time>2020-11-16T07:46:09Z</time>
      </trkpt>
      <trkpt lat="28.7432550" lon="-17.7318400">
        <ele>115.6</ele>
        <time>2020-11-16T07:46:10Z</time>
      </trkpt>
      <trkpt lat="28.7432780" lon="-17.7318480">
        <ele>115.6</ele>
        <time>2020-11-16T07:46:11Z</time>
      </trkpt>
      <trkpt lat="28.7432780" lon="-17.7318480">
        <ele>115.6</ele>
        <time>2020-11-16T07:46:12Z</time>
      </trkpt>
      <trkpt lat="28.7433270" lon="-17.7318700">
        <ele>115.7</ele>
        <time>2020-11-16T07:46:13Z</time>
      </trkpt>
      <trkpt lat="28.7433500" lon="-17.7318820">
        <ele>115.7</ele>
        <time>2020-11-16T07:46:14Z</time>
      </trkpt>
      <trkpt lat="28.7433730" lon="-17.7318970">
        <ele>115.7</ele>
        <time>2020-11-16T07:46:15Z</time>
      </trkpt>
      <trkpt lat="28.7433730" lon="-17.7318970">
        <ele>115.7</ele>
        <time>2020-11-16T07:46:16Z</time>
      </trkpt>
      <trkpt lat="28.7434170" lon="-17.7319300">
        <ele>115.8</ele>
        <time>2020-11-16T07:46:17Z</time>
      </trkpt>
      <trkpt lat="28.7434170" lon="-17.7319300">
        <ele>115.8</ele>
        <time>2020-11-16T07:46:18Z</time>
      </trkpt>
      <trkpt lat="28.7434620" lon="-17.7319580">
        <ele>115.9</ele>
        <time>2020-11-16T07:46:19Z</time>
      </trkpt>
      <trkpt lat="28.7434870" lon="-17.7319720">
        <ele>116.0</ele>
        <time>2020-11-16T07:46:20Z</time>
      </trkpt>
      <trkpt lat="28.7434870" lon="-17.7319720">
        <ele>116.0</ele>
        <time>2020-11-16T07:46:21Z</time>
      </trkpt>
      <trkpt lat="28.7435320" lon="-17.7320000">
        <ele>116.2</ele>
        <time>2020-11-16T07:46:22Z</time>
      </trkpt>
      <trkpt lat="28.7435550" lon="-17.7320120">
        <ele>116.2</ele>
        <time>2020-11-16T07:46:23Z</time>
      </trkpt>
      <trkpt lat="28.7435780" lon="-17.7320220">
        <ele>116.3</ele>
        <time>2020-11-16T07:46:24Z</time>
      </trkpt>
      <trkpt lat="28.7435780" lon="-17.7320220">
        <ele>116.3</ele>
        <time>2020-11-16T07:46:25Z</time>
      </trkpt>
      <trkpt lat="28.7436230" lon="-17.7320380">
        <ele>116.6</ele>
        <time>2020-11-16T07:46:26Z</time>
      </trkpt>
      <trkpt lat="28.7436450" lon="-17.7320450">
        <ele>116.7</ele>
        <time>2020-11-16T07:46:27Z</time>
      </trkpt>
      <trkpt lat="28.7436450" lon="-17.7320450">
        <ele>116.7</ele>
        <time>2020-11-16T07:46:28Z</time>
      </trkpt>
      <trkpt lat="28.7436880" lon="-17.7320550">
        <ele>116.9</ele>
        <time>2020-11-16T07:46:29Z</time>
      </trkpt>
      <trkpt lat="28.7437100" lon="-17.7320580">
        <ele>117.0</ele>
        <time>2020-11-16T07:46:30Z</time>
      </trkpt>
      <trkpt lat="28.7437100" lon="-17.7320580">
        <ele>117.0</ele>
        <time>2020-11-16T07:46:31Z</time>
      </trkpt>
      <trkpt lat="28.7437570" lon="-17.7320620">
        <ele>117.2</ele>
        <time>2020-11-16T07:46:32Z</time>
      </trkpt>
      <trkpt lat="28.7437820" lon="-17.7320630">
        <ele>117.3</ele>
        <time>2020-11-16T07:46:33Z</time>
      </trkpt>
      <trkpt lat="28.7437820" lon="-17.7320630">
        <ele>117.3</ele>
        <time>2020-11-16T07:46:34Z</time>
      </trkpt>
      <trkpt lat="28.7438280" lon="-17.7320630">
        <ele>117.5</ele>
        <time>2020-11-16T07:46:35Z</time>
      </trkpt>
      <trkpt lat="28.7438500" lon="-17.7320580">
        <ele>117.6</ele>
        <time>2020-11-16T07:46:36Z</time>
      </trkpt>
      <trkpt lat="28.7438500" lon="-17.7320580">
        <ele>117.6</ele>
        <time>2020-11-16T07:46:37Z</time>
      </trkpt>
      <trkpt lat="28.7438930" lon="-17.7320520">
        <ele>117.8</ele>
        <time>2020-11-16T07:46:38Z</time>
      </trkpt>
      <trkpt lat="28.7439150" lon="-17.7320430">
        <ele>117.9</ele>
        <time>2020-11-16T07:46:39Z</time>
      </trkpt>
      <trkpt lat="28.7439150" lon="-17.7320430">
        <ele>117.9</ele>
        <time>2020-11-16T07:46:40Z</time>
      </trkpt>
      <trkpt lat="28.7439570" lon="-17.7320170">
        <ele>118.2</ele>
        <time>2020-11-16T07:46:41Z</time>
      </trkpt>
      <trkpt lat="28.7439570" lon="-17.7320170">
        <ele>118.2</ele>
        <time>2020-11-16T07:46:42Z</time>
      </trkpt>
      <trkpt lat="28.7439980" lon="-17.7319900">
        <ele>118.4</ele>
        <time>2020-11-16T07:46:43Z</time>
      </trkpt>
      <trkpt lat="28.7439980" lon="-17.7319900">
        <ele>118.4</ele>
        <time>2020-11-16T07:46:44Z</time>
      </trkpt>
      <trkpt lat="28.7440450" lon="-17.7319720">
        <ele>118.6</ele>
        <time>2020-11-16T07:46:45Z</time>
      </trkpt>
      <trkpt lat="28.7440450" lon="-17.7319720">
        <ele>118.6</ele>
        <time>2020-11-16T07:46:46Z</time>
      </trkpt>
      <trkpt lat="28.7440920" lon="-17.7319620">
        <ele>118.8</ele>
        <time>2020-11-16T07:46:47Z</time>
      </trkpt>
      <trkpt lat="28.7440920" lon="-17.7319620">
        <ele>118.8</ele>
        <time>2020-11-16T07:46:48Z</time>
      </trkpt>
      <trkpt lat="28.7441370" lon="-17.7319420">
        <ele>118.6</ele>
        <time>2020-11-16T07:46:49Z</time>
      </trkpt>
      <trkpt lat="28.7441370" lon="-17.7319420">
        <ele>118.6</ele>
        <time>2020-11-16T07:46:50Z</time>
      </trkpt>
      <trkpt lat="28.7441830" lon="-17.7319120">
        <ele>118.3</ele>
        <time>2020-11-16T07:46:51Z</time>
      </trkpt>
      <trkpt lat="28.7441830" lon="-17.7319120">
        <ele>118.3</ele>
        <time>2020-11-16T07:46:52Z</time>
      </trkpt>
      <trkpt lat="28.7442320" lon="-17.7318870">
        <ele>118.1</ele>
        <time>2020-11-16T07:46:53Z</time>
      </trkpt>
      <trkpt lat="28.7442320" lon="-17.7318870">
        <ele>118.1</ele>
        <time>2020-11-16T07:46:54Z</time>
      </trkpt>
      <trkpt lat="28.7442820" lon="-17.7318700">
        <ele>117.8</ele>
        <time>2020-11-16T07:46:55Z</time>
      </trkpt>
      <trkpt lat="28.7443080" lon="-17.7318650">
        <ele>117.7</ele>
        <time>2020-11-16T07:46:56Z</time>
      </trkpt>
      <trkpt lat="28.7443080" lon="-17.7318650">
        <ele>117.7</ele>
        <time>2020-11-16T07:46:57Z</time>
      </trkpt>
      <trkpt lat="28.7443620" lon="-17.7318600">
        <ele>117.4</ele>
        <time>2020-11-16T07:46:58Z</time>
      </trkpt>
      <trkpt lat="28.7443880" lon="-17.7318600">
        <ele>117.3</ele>
        <time>2020-11-16T07:46:59Z</time>
      </trkpt>
      <trkpt lat="28.7443880" lon="-17.7318600">
        <ele>117.3</ele>
        <time>2020-11-16T07:47:00Z</time>
      </trkpt>
      <trkpt lat="28.7444400" lon="-17.7318580">
        <ele>117.0</ele>
        <time>2020-11-16T07:47:01Z</time>
      </trkpt>
      <trkpt lat="28.7444400" lon="-17.7318580">
        <ele>117.0</ele>
        <time>2020-11-16T07:47:02Z</time>
      </trkpt>
      <trkpt lat="28.7444920" lon="-17.7318520">
        <ele>116.7</ele>
        <time>2020-11-16T07:47:03Z</time>
      </trkpt>
      <trkpt lat="28.7444920" lon="-17.7318520">
        <ele>116.7</ele>
        <time>2020-11-16T07:47:04Z</time>
      </trkpt>
      <trkpt lat="28.7445430" lon="-17.7318520">
        <ele>116.5</ele>
        <time>2020-11-16T07:47:05Z</time>
      </trkpt>
      <trkpt lat="28.7445680" lon="-17.7318530">
        <ele>116.3</ele>
        <time>2020-11-16T07:47:06Z</time>
      </trkpt>
      <trkpt lat="28.7445680" lon="-17.7318530">
        <ele>116.3</ele>
        <time>2020-11-16T07:47:07Z</time>
      </trkpt>
      <trkpt lat="28.7446180" lon="-17.7318530">
        <ele>116.1</ele>
        <time>2020-11-16T07:47:08Z</time>
      </trkpt>
      <trkpt lat="28.7446180" lon="-17.7318530">
        <ele>116.1</ele>
        <time>2020-11-16T07:47:09Z</time>
      </trkpt>
      <trkpt lat="28.7446670" lon="-17.7318580">
        <ele>115.9</ele>
        <time>2020-11-16T07:47:10Z</time>
      </trkpt>
      <trkpt lat="28.7446670" lon="-17.7318580">
        <ele>115.9</ele>
        <time>2020-11-16T07:47:11Z</time>
      </trkpt>
      <trkpt lat="28.7447070" lon="-17.7318800">
        <ele>115.7</ele>
        <time>2020-11-16T07:47:12Z</time>
      </trkpt>
      <trkpt lat="28.7447070" lon="-17.7318800">
        <ele>115.7</ele>
        <time>2020-11-16T07:47:13Z</time>
      </trkpt>
      <trkpt lat="28.7447400" lon="-17.7319150">
        <ele>116.0</ele>
        <time>2020-11-16T07:47:14Z</time>
      </trkpt>
      <trkpt lat="28.7447400" lon="-17.7319150">
        <ele>116.0</ele>
        <time>2020-11-16T07:47:15Z</time>
      </trkpt>
      <trkpt lat="28.7447670" lon="-17.7319570">
        <ele>117.0</ele>
        <time>2020-11-16T07:47:16Z</time>
      </trkpt>
      <trkpt lat="28.7447670" lon="-17.7319570">
        <ele>117.0</ele>
        <time>2020-11-16T07:47:17Z</time>
      </trkpt>
      <trkpt lat="28.7447900" lon="-17.7320030">
        <ele>118.0</ele>
        <time>2020-11-16T07:47:18Z</time>
      </trkpt>
      <trkpt lat="28.7447900" lon="-17.7320030">
        <ele>118.0</ele>
        <time>2020-11-16T07:47:19Z</time>
      </trkpt>
      <trkpt lat="28.7448030" lon="-17.7320530">
        <ele>119.0</ele>
        <time>2020-11-16T07:47:20Z</time>
      </trkpt>
      <trkpt lat="28.7448030" lon="-17.7320530">
        <ele>119.0</ele>
        <time>2020-11-16T07:47:21Z</time>
      </trkpt>
      <trkpt lat="28.7448020" lon="-17.7321070">
        <ele>120.1</ele>
        <time>2020-11-16T07:47:22Z</time>
      </trkpt>
      <trkpt lat="28.7448020" lon="-17.7321070">
        <ele>120.1</ele>
        <time>2020-11-16T07:47:23Z</time>
      </trkpt>
      <trkpt lat="28.7447850" lon="-17.7321570">
        <ele>121.1</ele>
        <time>2020-11-16T07:47:24Z</time>
      </trkpt>
      <trkpt lat="28.7447850" lon="-17.7321570">
        <ele>121.1</ele>
        <time>2020-11-16T07:47:25Z</time>
      </trkpt>
      <trkpt lat="28.7447530" lon="-17.7322000">
        <ele>122.1</ele>
        <time>2020-11-16T07:47:26Z</time>
      </trkpt>
      <trkpt lat="28.7447530" lon="-17.7322000">
        <ele>122.1</ele>
        <time>2020-11-16T07:47:27Z</time>
      </trkpt>
      <trkpt lat="28.7447130" lon="-17.7322330">
        <ele>122.5</ele>
        <time>2020-11-16T07:47:28Z</time>
      </trkpt>
      <trkpt lat="28.7447130" lon="-17.7322330">
        <ele>122.5</ele>
        <time>2020-11-16T07:47:29Z</time>
      </trkpt>
      <trkpt lat="28.7446720" lon="-17.7322600">
        <ele>122.9</ele>
        <time>2020-11-16T07:47:30Z</time>
      </trkpt>
      <trkpt lat="28.7446720" lon="-17.7322600">
        <ele>122.9</ele>
        <time>2020-11-16T07:47:31Z</time>
      </trkpt>
      <trkpt lat="28.7446300" lon="-17.7322880">
        <ele>123.4</ele>
        <time>2020-11-16T07:47:32Z</time>
      </trkpt>
      <trkpt lat="28.7446300" lon="-17.7322880">
        <ele>123.4</ele>
        <time>2020-11-16T07:47:33Z</time>
      </trkpt>
      <trkpt lat="28.7445880" lon="-17.7323120">
        <ele>123.8</ele>
        <time>2020-11-16T07:47:34Z</time>
      </trkpt>
      <trkpt lat="28.7445650" lon="-17.7323170">
        <ele>124.0</ele>
        <time>2020-11-16T07:47:35Z</time>
      </trkpt>
      <trkpt lat="28.7445650" lon="-17.7323170">
        <ele>124.0</ele>
        <time>2020-11-16T07:47:36Z</time>
      </trkpt>
      <trkpt lat="28.7445180" lon="-17.7323280">
        <ele>124.4</ele>
        <time>2020-11-16T07:47:37Z</time>
      </trkpt>
      <trkpt lat="28.7445180" lon="-17.7323280">
        <ele>124.4</ele>
        <time>2020-11-16T07:47:38Z</time>
      </trkpt>
      <trkpt lat="28.7444700" lon="-17.7323380">
        <ele>124.8</ele>
        <time>2020-11-16T07:47:39Z</time>
      </trkpt>
      <trkpt lat="28.7444700" lon="-17.7323380">
        <ele>124.8</ele>
        <time>2020-11-16T07:47:40Z</time>
      </trkpt>
      <trkpt lat="28.7444220" lon="-17.7323530">
        <ele>125.2</ele>
        <time>2020-11-16T07:47:41Z</time>
      </trkpt>
      <trkpt lat="28.7444220" lon="-17.7323530">
        <ele>125.2</ele>
        <time>2020-11-16T07:47:42Z</time>
      </trkpt>
      <trkpt lat="28.7443730" lon="-17.7323720">
        <ele>125.6</ele>
        <time>2020-11-16T07:47:43Z</time>
      </trkpt>
      <trkpt lat="28.7443480" lon="-17.7323830">
        <ele>125.7</ele>
        <time>2020-11-16T07:47:44Z</time>
      </trkpt>
      <trkpt lat="28.7443480" lon="-17.7323830">
        <ele>125.7</ele>
        <time>2020-11-16T07:47:45Z</time>
      </trkpt>
      <trkpt lat="28.7442980" lon="-17.7324070">
        <ele>126.0</ele>
        <time>2020-11-16T07:47:46Z</time>
      </trkpt>
      <trkpt lat="28.7442720" lon="-17.7324150">
        <ele>126.1</ele>
        <time>2020-11-16T07:47:47Z</time>
      </trkpt>
      <trkpt lat="28.7442720" lon="-17.7324150">
        <ele>126.1</ele>
        <time>2020-11-16T07:47:48Z</time>
      </trkpt>
      <trkpt lat="28.7442230" lon="-17.7324180">
        <ele>126.3</ele>
        <time>2020-11-16T07:47:49Z</time>
      </trkpt>
      <trkpt lat="28.7442230" lon="-17.7324180">
        <ele>126.3</ele>
        <time>2020-11-16T07:47:50Z</time>
      </trkpt>
      <trkpt lat="28.7442150" lon="-17.7323850">
        <ele>126.4</ele>
        <time>2020-11-16T07:47:51Z</time>
      </trkpt>
      <trkpt lat="28.7442150" lon="-17.7323850">
        <ele>126.4</ele>
        <time>2020-11-16T07:47:52Z</time>
      </trkpt>
      <trkpt lat="28.7442520" lon="-17.7323700">
        <ele>126.5</ele>
        <time>2020-11-16T07:47:53Z</time>
      </trkpt>
      <trkpt lat="28.7442630" lon="-17.7323720">
        <ele>126.5</ele>
        <time>2020-11-16T07:47:54Z</time>
      </trkpt>
      <trkpt lat="28.7442670" lon="-17.7323720">
        <ele>126.6</ele>
        <time>2020-11-16T07:47:55Z</time>
      </trkpt>
      <trkpt lat="28.7442670" lon="-17.7323700">
        <ele>126.6</ele>
        <time>2020-11-16T07:47:56Z</time>
      </trkpt>
      <trkpt lat="28.7442670" lon="-17.7323700">
        <ele>126.6</ele>
        <time>2020-11-16T07:47:57Z</time>
      </trkpt>
      <trkpt lat="28.7442670" lon="-17.7323680">
        <ele>126.6</ele>
        <time>2020-11-16T07:47:58Z</time>
      </trkpt>
      <trkpt lat="28.7442670" lon="-17.7323680">
        <ele>126.6</ele>
        <time>2020-11-16T07:47:59Z</time>
      </trkpt>
      <trkpt lat="28.7442670" lon="-17.7323680">
        <ele>126.6</ele>
        <time>2020-11-16T07:48:15Z</time>
      </trkpt>
      <trkpt lat="28.7442570" lon="-17.7323430">
        <ele>126.6</ele>
        <time>2020-11-16T07:48:16Z</time>
      </trkpt>
      <trkpt lat="28.7442600" lon="-17.7323430">
        <ele>126.6</ele>
        <time>2020-11-16T07:48:17Z</time>
      </trkpt>
      <trkpt lat="28.7442600" lon="-17.7323430">
        <ele>126.6</ele>
        <time>2020-11-16T07:48:29Z</time>
      </trkpt>
      <trkpt lat="28.7442550" lon="-17.7323520">
        <ele>126.7</ele>
        <time>2020-11-16T07:48:30Z</time>
      </trkpt>
      <trkpt lat="28.7442500" lon="-17.7323570">
        <ele>126.7</ele>
        <time>2020-11-16T07:48:31Z</time>
      </trkpt>
      <trkpt lat="28.7442430" lon="-17.7323630">
        <ele>126.7</ele>
        <time>2020-11-16T07:48:32Z</time>
      </trkpt>
      <trkpt lat="28.7442430" lon="-17.7323630">
        <ele>126.7</ele>
        <time>2020-11-16T07:48:33Z</time>
      </trkpt>
      <trkpt lat="28.7442180" lon="-17.7323900">
        <ele>126.8</ele>
        <time>2020-11-16T07:48:34Z</time>
      </trkpt>
      <trkpt lat="28.7442180" lon="-17.7323900">
        <ele>126.8</ele>
        <time>2020-11-16T07:48:35Z</time>
      </trkpt>
      <trkpt lat="28.7441780" lon="-17.7324230">
        <ele>126.9</ele>
        <time>2020-11-16T07:48:36Z</time>
      </trkpt>
      <trkpt lat="28.7441780" lon="-17.7324230">
        <ele>126.9</ele>
        <time>2020-11-16T07:48:37Z</time>
      </trkpt>
      <trkpt lat="28.7441320" lon="-17.7324520">
        <ele>127.1</ele>
        <time>2020-11-16T07:48:38Z</time>
      </trkpt>
      <trkpt lat="28.7441320" lon="-17.7324520">
        <ele>127.1</ele>
        <time>2020-11-16T07:48:39Z</time>
      </trkpt>
      <trkpt lat="28.7440800" lon="-17.7324730">
        <ele>127.2</ele>
        <time>2020-11-16T07:48:40Z</time>
      </trkpt>
      <trkpt lat="28.7440800" lon="-17.7324730">
        <ele>127.2</ele>
        <time>2020-11-16T07:48:41Z</time>
      </trkpt>
      <trkpt lat="28.7440280" lon="-17.7325000">
        <ele>127.3</ele>
        <time>2020-11-16T07:48:42Z</time>
      </trkpt>
      <trkpt lat="28.7440280" lon="-17.7325000">
        <ele>127.3</ele>
        <time>2020-11-16T07:48:43Z</time>
      </trkpt>
      <trkpt lat="28.7439750" lon="-17.7325220">
        <ele>127.5</ele>
        <time>2020-11-16T07:48:44Z</time>
      </trkpt>
      <trkpt lat="28.7439750" lon="-17.7325220">
        <ele>127.5</ele>
        <time>2020-11-16T07:48:45Z</time>
      </trkpt>
      <trkpt lat="28.7439220" lon="-17.7325420">
        <ele>127.6</ele>
        <time>2020-11-16T07:48:46Z</time>
      </trkpt>
      <trkpt lat="28.7438970" lon="-17.7325500">
        <ele>127.7</ele>
        <time>2020-11-16T07:48:47Z</time>
      </trkpt>
      <trkpt lat="28.7438970" lon="-17.7325500">
        <ele>127.7</ele>
        <time>2020-11-16T07:48:48Z</time>
      </trkpt>
      <trkpt lat="28.7438450" lon="-17.7325670">
        <ele>127.8</ele>
        <time>2020-11-16T07:48:49Z</time>
      </trkpt>
      <trkpt lat="28.7438200" lon="-17.7325750">
        <ele>127.9</ele>
        <time>2020-11-16T07:48:50Z</time>
      </trkpt>
      <trkpt lat="28.7437970" lon="-17.7325800">
        <ele>128.0</ele>
        <time>2020-11-16T07:48:51Z</time>
      </trkpt>
      <trkpt lat="28.7437970" lon="-17.7325800">
        <ele>128.0</ele>
        <time>2020-11-16T07:48:52Z</time>
      </trkpt>
      <trkpt lat="28.7437480" lon="-17.7325920">
        <ele>128.2</ele>
        <time>2020-11-16T07:48:53Z</time>
      </trkpt>
      <trkpt lat="28.7437480" lon="-17.7325920">
        <ele>128.2</ele>
        <time>2020-11-16T07:48:54Z</time>
      </trkpt>
      <trkpt lat="28.7437030" lon="-17.7326030">
        <ele>128.4</ele>
        <time>2020-11-16T07:48:55Z</time>
      </trkpt>
      <trkpt lat="28.7437030" lon="-17.7326030">
        <ele>128.4</ele>
        <time>2020-11-16T07:48:56Z</time>
      </trkpt>
      <trkpt lat="28.7436570" lon="-17.7326230">
        <ele>128.5</ele>
        <time>2020-11-16T07:48:57Z</time>
      </trkpt>
      <trkpt lat="28.7436570" lon="-17.7326230">
        <ele>128.5</ele>
        <time>2020-11-16T07:48:58Z</time>
      </trkpt>
      <trkpt lat="28.7436120" lon="-17.7326420">
        <ele>128.8</ele>
        <time>2020-11-16T07:48:59Z</time>
      </trkpt>
      <trkpt lat="28.7435900" lon="-17.7326500">
        <ele>128.9</ele>
        <time>2020-11-16T07:49:00Z</time>
      </trkpt>
      <trkpt lat="28.7435900" lon="-17.7326500">
        <ele>128.9</ele>
        <time>2020-11-16T07:49:01Z</time>
      </trkpt>
      <trkpt lat="28.7435420" lon="-17.7326600">
        <ele>129.1</ele>
        <time>2020-11-16T07:49:02Z</time>
      </trkpt>
      <trkpt lat="28.7435180" lon="-17.7326650">
        <ele>129.3</ele>
        <time>2020-11-16T07:49:03Z</time>
      </trkpt>
      <trkpt lat="28.7434970" lon="-17.7326670">
        <ele>129.4</ele>
        <time>2020-11-16T07:49:04Z</time>
      </trkpt>
      <trkpt lat="28.7434970" lon="-17.7326670">
        <ele>129.4</ele>
        <time>2020-11-16T07:49:05Z</time>
      </trkpt>
      <trkpt lat="28.7434480" lon="-17.7326670">
        <ele>129.7</ele>
        <time>2020-11-16T07:49:06Z</time>
      </trkpt>
      <trkpt lat="28.7434480" lon="-17.7326670">
        <ele>129.7</ele>
        <time>2020-11-16T07:49:07Z</time>
      </trkpt>
      <trkpt lat="28.7434000" lon="-17.7326600">
        <ele>130.1</ele>
        <time>2020-11-16T07:49:08Z</time>
      </trkpt>
      <trkpt lat="28.7433780" lon="-17.7326550">
        <ele>130.3</ele>
        <time>2020-11-16T07:49:09Z</time>
      </trkpt>
      <trkpt lat="28.7433550" lon="-17.7326580">
        <ele>130.5</ele>
        <time>2020-11-16T07:49:10Z</time>
      </trkpt>
      <trkpt lat="28.7433550" lon="-17.7326580">
        <ele>130.5</ele>
        <time>2020-11-16T07:49:11Z</time>
      </trkpt>
      <trkpt lat="28.7433100" lon="-17.7326770">
        <ele>130.9</ele>
        <time>2020-11-16T07:49:12Z</time>
      </trkpt>
      <trkpt lat="28.7433100" lon="-17.7326770">
        <ele>130.9</ele>
        <time>2020-11-16T07:49:13Z</time>
      </trkpt>
      <trkpt lat="28.7432780" lon="-17.7327150">
        <ele>131.3</ele>
        <time>2020-11-16T07:49:14Z</time>
      </trkpt>
      <trkpt lat="28.7432780" lon="-17.7327150">
        <ele>131.3</ele>
        <time>2020-11-16T07:49:15Z</time>
      </trkpt>
      <trkpt lat="28.7432580" lon="-17.7327600">
        <ele>131.7</ele>
        <time>2020-11-16T07:49:16Z</time>
      </trkpt>
      <trkpt lat="28.7432580" lon="-17.7327600">
        <ele>131.7</ele>
        <time>2020-11-16T07:49:17Z</time>
      </trkpt>
      <trkpt lat="28.7432620" lon="-17.7328020">
        <ele>132.1</ele>
        <time>2020-11-16T07:49:18Z</time>
      </trkpt>
      <trkpt lat="28.7432720" lon="-17.7328230">
        <ele>132.3</ele>
        <time>2020-11-16T07:49:19Z</time>
      </trkpt>
      <trkpt lat="28.7432870" lon="-17.7328420">
        <ele>132.5</ele>
        <time>2020-11-16T07:49:20Z</time>
      </trkpt>
      <trkpt lat="28.7432870" lon="-17.7328420">
        <ele>132.5</ele>
        <time>2020-11-16T07:49:21Z</time>
      </trkpt>
      <trkpt lat="28.7433250" lon="-17.7328620">
        <ele>132.9</ele>
        <time>2020-11-16T07:49:22Z</time>
      </trkpt>
      <trkpt lat="28.7433470" lon="-17.7328670">
        <ele>133.1</ele>
        <time>2020-11-16T07:49:23Z</time>
      </trkpt>
      <trkpt lat="28.7433470" lon="-17.7328670">
        <ele>133.1</ele>
        <time>2020-11-16T07:49:24Z</time>
      </trkpt>
      <trkpt lat="28.7433930" lon="-17.7328700">
        <ele>133.5</ele>
        <time>2020-11-16T07:49:25Z</time>
      </trkpt>
      <trkpt lat="28.7433930" lon="-17.7328700">
        <ele>133.5</ele>
        <time>2020-11-16T07:49:26Z</time>
      </trkpt>
      <trkpt lat="28.7434420" lon="-17.7328730">
        <ele>134.0</ele>
        <time>2020-11-16T07:49:27Z</time>
      </trkpt>
      <trkpt lat="28.7434420" lon="-17.7328730">
        <ele>134.0</ele>
        <time>2020-11-16T07:49:28Z</time>
      </trkpt>
      <trkpt lat="28.7434880" lon="-17.7328800">
        <ele>134.4</ele>
        <time>2020-11-16T07:49:29Z</time>
      </trkpt>
      <trkpt lat="28.7434880" lon="-17.7328800">
        <ele>134.4</ele>
        <time>2020-11-16T07:49:30Z</time>
      </trkpt>
      <trkpt lat="28.7435320" lon="-17.7328920">
        <ele>134.8</ele>
        <time>2020-11-16T07:49:31Z</time>
      </trkpt>
      <trkpt lat="28.7435320" lon="-17.7328920">
        <ele>134.8</ele>
        <time>2020-11-16T07:49:32Z</time>
      </trkpt>
      <trkpt lat="28.7435800" lon="-17.7328980">
        <ele>135.2</ele>
        <time>2020-11-16T07:49:33Z</time>
      </trkpt>
      <trkpt lat="28.7435800" lon="-17.7328980">
        <ele>135.2</ele>
        <time>2020-11-16T07:49:34Z</time>
      </trkpt>
      <trkpt lat="28.7436280" lon="-17.7329020">
        <ele>135.6</ele>
        <time>2020-11-16T07:49:35Z</time>
      </trkpt>
      <trkpt lat="28.7436530" lon="-17.7329000">
        <ele>135.8</ele>
        <time>2020-11-16T07:49:36Z</time>
      </trkpt>
      <trkpt lat="28.7436530" lon="-17.7329000">
        <ele>135.8</ele>
        <time>2020-11-16T07:49:37Z</time>
      </trkpt>
      <trkpt lat="28.7437000" lon="-17.7329080">
        <ele>136.2</ele>
        <time>2020-11-16T07:49:38Z</time>
      </trkpt>
      <trkpt lat="28.7437230" lon="-17.7329170">
        <ele>136.4</ele>
        <time>2020-11-16T07:49:39Z</time>
      </trkpt>
      <trkpt lat="28.7437230" lon="-17.7329170">
        <ele>136.4</ele>
        <time>2020-11-16T07:49:40Z</time>
      </trkpt>
      <trkpt lat="28.7437700" lon="-17.7329230">
        <ele>136.7</ele>
        <time>2020-11-16T07:49:41Z</time>
      </trkpt>
      <trkpt lat="28.7437700" lon="-17.7329230">
        <ele>136.7</ele>
        <time>2020-11-16T07:49:42Z</time>
      </trkpt>
      <trkpt lat="28.7438150" lon="-17.7329330">
        <ele>137.0</ele>
        <time>2020-11-16T07:49:43Z</time>
      </trkpt>
      <trkpt lat="28.7438380" lon="-17.7329400">
        <ele>137.2</ele>
        <time>2020-11-16T07:49:44Z</time>
      </trkpt>
      <trkpt lat="28.7438380" lon="-17.7329400">
        <ele>137.2</ele>
        <time>2020-11-16T07:49:45Z</time>
      </trkpt>
      <trkpt lat="28.7438850" lon="-17.7329480">
        <ele>137.6</ele>
        <time>2020-11-16T07:49:46Z</time>
      </trkpt>
      <trkpt lat="28.7438850" lon="-17.7329480">
        <ele>137.6</ele>
        <time>2020-11-16T07:49:47Z</time>
      </trkpt>
      <trkpt lat="28.7439330" lon="-17.7329550">
        <ele>137.9</ele>
        <time>2020-11-16T07:49:48Z</time>
      </trkpt>
      <trkpt lat="28.7439570" lon="-17.7329580">
        <ele>138.1</ele>
        <time>2020-11-16T07:49:49Z</time>
      </trkpt>
      <trkpt lat="28.7439820" lon="-17.7329620">
        <ele>138.3</ele>
        <time>2020-11-16T07:49:50Z</time>
      </trkpt>
      <trkpt lat="28.7439820" lon="-17.7329620">
        <ele>138.3</ele>
        <time>2020-11-16T07:49:51Z</time>
      </trkpt>
      <trkpt lat="28.7440270" lon="-17.7329680">
        <ele>138.7</ele>
        <time>2020-11-16T07:49:52Z</time>
      </trkpt>
      <trkpt lat="28.7440270" lon="-17.7329680">
        <ele>138.7</ele>
        <time>2020-11-16T07:49:53Z</time>
      </trkpt>
      <trkpt lat="28.7440720" lon="-17.7329700">
        <ele>139.1</ele>
        <time>2020-11-16T07:49:54Z</time>
      </trkpt>
      <trkpt lat="28.7440950" lon="-17.7329700">
        <ele>139.3</ele>
        <time>2020-11-16T07:49:55Z</time>
      </trkpt>
      <trkpt lat="28.7441180" lon="-17.7329720">
        <ele>139.5</ele>
        <time>2020-11-16T07:49:56Z</time>
      </trkpt>
      <trkpt lat="28.7441180" lon="-17.7329720">
        <ele>139.5</ele>
        <time>2020-11-16T07:49:57Z</time>
      </trkpt>
      <trkpt lat="28.7441630" lon="-17.7329780">
        <ele>139.9</ele>
        <time>2020-11-16T07:49:58Z</time>
      </trkpt>
      <trkpt lat="28.7441850" lon="-17.7329850">
        <ele>140.1</ele>
        <time>2020-11-16T07:49:59Z</time>
      </trkpt>
      <trkpt lat="28.7441850" lon="-17.7329850">
        <ele>140.1</ele>
        <time>2020-11-16T07:50:00Z</time>
      </trkpt>
      <trkpt lat="28.7442300" lon="-17.7329980">
        <ele>140.5</ele>
        <time>2020-11-16T07:50:01Z</time>
      </trkpt>
      <trkpt lat="28.7442520" lon="-17.7330050">
        <ele>140.7</ele>
        <time>2020-11-16T07:50:02Z</time>
      </trkpt>
      <trkpt lat="28.7442520" lon="-17.7330050">
        <ele>140.7</ele>
        <time>2020-11-16T07:50:03Z</time>
      </trkpt>
      <trkpt lat="28.7442970" lon="-17.7330200">
        <ele>141.1</ele>
        <time>2020-11-16T07:50:04Z</time>
      </trkpt>
      <trkpt lat="28.7442970" lon="-17.7330200">
        <ele>141.1</ele>
        <time>2020-11-16T07:50:05Z</time>
      </trkpt>
      <trkpt lat="28.7443420" lon="-17.7330370">
        <ele>141.6</ele>
        <time>2020-11-16T07:50:06Z</time>
      </trkpt>
      <trkpt lat="28.7443420" lon="-17.7330370">
        <ele>141.6</ele>
        <time>2020-11-16T07:50:07Z</time>
      </trkpt>
      <trkpt lat="28.7443870" lon="-17.7330550">
        <ele>142.0</ele>
        <time>2020-11-16T07:50:08Z</time>
      </trkpt>
      <trkpt lat="28.7443870" lon="-17.7330550">
        <ele>142.0</ele>
        <time>2020-11-16T07:50:09Z</time>
      </trkpt>
      <trkpt lat="28.7444320" lon="-17.7330670">
        <ele>142.4</ele>
        <time>2020-11-16T07:50:10Z</time>
      </trkpt>
      <trkpt lat="28.7444520" lon="-17.7330750">
        <ele>142.6</ele>
        <time>2020-11-16T07:50:11Z</time>
      </trkpt>
      <trkpt lat="28.7444520" lon="-17.7330750">
        <ele>142.6</ele>
        <time>2020-11-16T07:50:12Z</time>
      </trkpt>
      <trkpt lat="28.7444920" lon="-17.7331000">
        <ele>143.0</ele>
        <time>2020-11-16T07:50:13Z</time>
      </trkpt>
      <trkpt lat="28.7445100" lon="-17.7331150">
        <ele>143.2</ele>
        <time>2020-11-16T07:50:14Z</time>
      </trkpt>
      <trkpt lat="28.7445100" lon="-17.7331150">
        <ele>143.2</ele>
        <time>2020-11-16T07:50:15Z</time>
      </trkpt>
      <trkpt lat="28.7445430" lon="-17.7331520">
        <ele>143.5</ele>
        <time>2020-11-16T07:50:16Z</time>
      </trkpt>
      <trkpt lat="28.7445430" lon="-17.7331520">
        <ele>143.5</ele>
        <time>2020-11-16T07:50:17Z</time>
      </trkpt>
      <trkpt lat="28.7445750" lon="-17.7331900">
        <ele>143.9</ele>
        <time>2020-11-16T07:50:18Z</time>
      </trkpt>
      <trkpt lat="28.7445750" lon="-17.7331900">
        <ele>143.9</ele>
        <time>2020-11-16T07:50:19Z</time>
      </trkpt>
      <trkpt lat="28.7446020" lon="-17.7332350">
        <ele>144.2</ele>
        <time>2020-11-16T07:50:20Z</time>
      </trkpt>
      <trkpt lat="28.7446020" lon="-17.7332350">
        <ele>144.2</ele>
        <time>2020-11-16T07:50:21Z</time>
      </trkpt>
      <trkpt lat="28.7446220" lon="-17.7332880">
        <ele>144.5</ele>
        <time>2020-11-16T07:50:22Z</time>
      </trkpt>
      <trkpt lat="28.7446300" lon="-17.7333170">
        <ele>144.6</ele>
        <time>2020-11-16T07:50:23Z</time>
      </trkpt>
      <trkpt lat="28.7446370" lon="-17.7333430">
        <ele>144.7</ele>
        <time>2020-11-16T07:50:24Z</time>
      </trkpt>
      <trkpt lat="28.7446370" lon="-17.7333430">
        <ele>144.7</ele>
        <time>2020-11-16T07:50:25Z</time>
      </trkpt>
      <trkpt lat="28.7446520" lon="-17.7334000">
        <ele>145.0</ele>
        <time>2020-11-16T07:50:26Z</time>
      </trkpt>
      <trkpt lat="28.7446520" lon="-17.7334000">
        <ele>145.0</ele>
        <time>2020-11-16T07:50:27Z</time>
      </trkpt>
      <trkpt lat="28.7446600" lon="-17.7334550">
        <ele>145.3</ele>
        <time>2020-11-16T07:50:28Z</time>
      </trkpt>
      <trkpt lat="28.7446600" lon="-17.7334830">
        <ele>145.4</ele>
        <time>2020-11-16T07:50:29Z</time>
      </trkpt>
      <trkpt lat="28.7446600" lon="-17.7334830">
        <ele>145.4</ele>
        <time>2020-11-16T07:50:30Z</time>
      </trkpt>
      <trkpt lat="28.7446600" lon="-17.7335400">
        <ele>145.7</ele>
        <time>2020-11-16T07:50:31Z</time>
      </trkpt>
      <trkpt lat="28.7446600" lon="-17.7335400">
        <ele>145.7</ele>
        <time>2020-11-16T07:50:32Z</time>
      </trkpt>
      <trkpt lat="28.7446630" lon="-17.7335970">
        <ele>146.0</ele>
        <time>2020-11-16T07:50:33Z</time>
      </trkpt>
      <trkpt lat="28.7446670" lon="-17.7336230">
        <ele>146.2</ele>
        <time>2020-11-16T07:50:34Z</time>
      </trkpt>
      <trkpt lat="28.7446670" lon="-17.7336230">
        <ele>146.2</ele>
        <time>2020-11-16T07:50:35Z</time>
      </trkpt>
      <trkpt lat="28.7446770" lon="-17.7336780">
        <ele>146.5</ele>
        <time>2020-11-16T07:50:36Z</time>
      </trkpt>
      <trkpt lat="28.7446770" lon="-17.7336780">
        <ele>146.5</ele>
        <time>2020-11-16T07:50:37Z</time>
      </trkpt>
      <trkpt lat="28.7446870" lon="-17.7337320">
        <ele>146.9</ele>
        <time>2020-11-16T07:50:38Z</time>
      </trkpt>
      <trkpt lat="28.7446870" lon="-17.7337320">
        <ele>146.9</ele>
        <time>2020-11-16T07:50:39Z</time>
      </trkpt>
      <trkpt lat="28.7447000" lon="-17.7337850">
        <ele>147.3</ele>
        <time>2020-11-16T07:50:40Z</time>
      </trkpt>
      <trkpt lat="28.7447000" lon="-17.7337850">
        <ele>147.3</ele>
        <time>2020-11-16T07:50:41Z</time>
      </trkpt>
      <trkpt lat="28.7447170" lon="-17.7338370">
        <ele>147.8</ele>
        <time>2020-11-16T07:50:42Z</time>
      </trkpt>
      <trkpt lat="28.7447300" lon="-17.7338580">
        <ele>148.0</ele>
        <time>2020-11-16T07:50:43Z</time>
      </trkpt>
      <trkpt lat="28.7447470" lon="-17.7338780">
        <ele>148.2</ele>
        <time>2020-11-16T07:50:44Z</time>
      </trkpt>
      <trkpt lat="28.7447470" lon="-17.7338780">
        <ele>148.2</ele>
        <time>2020-11-16T07:50:45Z</time>
      </trkpt>
      <trkpt lat="28.7447870" lon="-17.7339070">
        <ele>148.6</ele>
        <time>2020-11-16T07:50:46Z</time>
      </trkpt>
      <trkpt lat="28.7447870" lon="-17.7339070">
        <ele>148.6</ele>
        <time>2020-11-16T07:50:47Z</time>
      </trkpt>
      <trkpt lat="28.7448320" lon="-17.7339230">
        <ele>149.0</ele>
        <time>2020-11-16T07:50:48Z</time>
      </trkpt>
      <trkpt lat="28.7448320" lon="-17.7339230">
        <ele>149.0</ele>
        <time>2020-11-16T07:50:49Z</time>
      </trkpt>
      <trkpt lat="28.7448820" lon="-17.7339270">
        <ele>149.5</ele>
        <time>2020-11-16T07:50:50Z</time>
      </trkpt>
      <trkpt lat="28.7449050" lon="-17.7339230">
        <ele>149.7</ele>
        <time>2020-11-16T07:50:51Z</time>
      </trkpt>
      <trkpt lat="28.7449050" lon="-17.7339230">
        <ele>149.7</ele>
        <time>2020-11-16T07:50:52Z</time>
      </trkpt>
      <trkpt lat="28.7449550" lon="-17.7339120">
        <ele>150.1</ele>
        <time>2020-11-16T07:50:53Z</time>
      </trkpt>
      <trkpt lat="28.7449550" lon="-17.7339120">
        <ele>150.1</ele>
        <time>2020-11-16T07:50:54Z</time>
      </trkpt>
      <trkpt lat="28.7450030" lon="-17.7338920">
        <ele>150.6</ele>
        <time>2020-11-16T07:50:55Z</time>
      </trkpt>
      <trkpt lat="28.7450030" lon="-17.7338920">
        <ele>150.6</ele>
        <time>2020-11-16T07:50:56Z</time>
      </trkpt>
      <trkpt lat="28.7450520" lon="-17.7338720">
        <ele>151.0</ele>
        <time>2020-11-16T07:50:57Z</time>
      </trkpt>
      <trkpt lat="28.7450520" lon="-17.7338720">
        <ele>151.0</ele>
        <time>2020-11-16T07:50:58Z</time>
      </trkpt>
      <trkpt lat="28.7451000" lon="-17.7338550">
        <ele>151.5</ele>
        <time>2020-11-16T07:50:59Z</time>
      </trkpt>
      <trkpt lat="28.7451000" lon="-17.7338550">
        <ele>151.5</ele>
        <time>2020-11-16T07:51:00Z</time>
      </trkpt>
      <trkpt lat="28.7451500" lon="-17.7338450">
        <ele>151.9</ele>
        <time>2020-11-16T07:51:01Z</time>
      </trkpt>
      <trkpt lat="28.7451500" lon="-17.7338450">
        <ele>151.9</ele>
        <time>2020-11-16T07:51:02Z</time>
      </trkpt>
      <trkpt lat="28.7451970" lon="-17.7338350">
        <ele>152.3</ele>
        <time>2020-11-16T07:51:03Z</time>
      </trkpt>
      <trkpt lat="28.7451970" lon="-17.7338350">
        <ele>152.3</ele>
        <time>2020-11-16T07:51:04Z</time>
      </trkpt>
      <trkpt lat="28.7452400" lon="-17.7338130">
        <ele>152.8</ele>
        <time>2020-11-16T07:51:05Z</time>
      </trkpt>
      <trkpt lat="28.7452400" lon="-17.7338130">
        <ele>152.8</ele>
        <time>2020-11-16T07:51:06Z</time>
      </trkpt>
      <trkpt lat="28.7452830" lon="-17.7338020">
        <ele>153.1</ele>
        <time>2020-11-16T07:51:07Z</time>
      </trkpt>
      <trkpt lat="28.7453070" lon="-17.7337980">
        <ele>153.3</ele>
        <time>2020-11-16T07:51:08Z</time>
      </trkpt>
      <trkpt lat="28.7453070" lon="-17.7337980">
        <ele>153.3</ele>
        <time>2020-11-16T07:51:09Z</time>
      </trkpt>
      <trkpt lat="28.7453480" lon="-17.7337850">
        <ele>153.7</ele>
        <time>2020-11-16T07:51:10Z</time>
      </trkpt>
      <trkpt lat="28.7453480" lon="-17.7337850">
        <ele>153.7</ele>
        <time>2020-11-16T07:51:11Z</time>
      </trkpt>
      <trkpt lat="28.7453920" lon="-17.7337670">
        <ele>154.1</ele>
        <time>2020-11-16T07:51:12Z</time>
      </trkpt>
      <trkpt lat="28.7453920" lon="-17.7337670">
        <ele>154.1</ele>
        <time>2020-11-16T07:51:13Z</time>
      </trkpt>
      <trkpt lat="28.7454330" lon="-17.7337550">
        <ele>154.4</ele>
        <time>2020-11-16T07:51:14Z</time>
      </trkpt>
      <trkpt lat="28.7454330" lon="-17.7337550">
        <ele>154.4</ele>
        <time>2020-11-16T07:51:15Z</time>
      </trkpt>
      <trkpt lat="28.7454770" lon="-17.7337520">
        <ele>154.7</ele>
        <time>2020-11-16T07:51:16Z</time>
      </trkpt>
      <trkpt lat="28.7454770" lon="-17.7337520">
        <ele>154.7</ele>
        <time>2020-11-16T07:51:17Z</time>
      </trkpt>
      <trkpt lat="28.7455230" lon="-17.7337450">
        <ele>155.1</ele>
        <time>2020-11-16T07:51:18Z</time>
      </trkpt>
      <trkpt lat="28.7455230" lon="-17.7337450">
        <ele>155.1</ele>
        <time>2020-11-16T07:51:19Z</time>
      </trkpt>
      <trkpt lat="28.7455680" lon="-17.7337370">
        <ele>155.4</ele>
        <time>2020-11-16T07:51:20Z</time>
      </trkpt>
      <trkpt lat="28.7455680" lon="-17.7337370">
        <ele>155.4</ele>
        <time>2020-11-16T07:51:21Z</time>
      </trkpt>
      <trkpt lat="28.7456120" lon="-17.7337330">
        <ele>155.7</ele>
        <time>2020-11-16T07:51:22Z</time>
      </trkpt>
      <trkpt lat="28.7456120" lon="-17.7337330">
        <ele>155.7</ele>
        <time>2020-11-16T07:51:23Z</time>
      </trkpt>
      <trkpt lat="28.7456400" lon="-17.7337230">
        <ele>156.0</ele>
        <time>2020-11-16T07:51:24Z</time>
      </trkpt>
      <trkpt lat="28.7456430" lon="-17.7337170">
        <ele>156.0</ele>
        <time>2020-11-16T07:51:25Z</time>
      </trkpt>
      <trkpt lat="28.7456470" lon="-17.7337100">
        <ele>156.1</ele>
        <time>2020-11-16T07:51:26Z</time>
      </trkpt>
      <trkpt lat="28.7456470" lon="-17.7337100">
        <ele>156.1</ele>
        <time>2020-11-16T07:51:27Z</time>
      </trkpt>
      <trkpt lat="28.7456450" lon="-17.7337030">
        <ele>156.1</ele>
        <time>2020-11-16T07:51:28Z</time>
      </trkpt>
      <trkpt lat="28.7456450" lon="-17.7337030">
        <ele>156.1</ele>
        <time>2020-11-16T07:51:29Z</time>
      </trkpt>
      <trkpt lat="28.7456450" lon="-17.7337030">
        <ele>156.1</ele>
        <time>2020-11-16T07:51:30Z</time>
      </trkpt>
      <trkpt lat="28.7456450" lon="-17.7337030">
        <ele>156.1</ele>
        <time>2020-11-16T07:51:31Z</time>
      </trkpt>
      <trkpt lat="28.7456450" lon="-17.7337030">
        <ele>156.1</ele>
        <time>2020-11-16T07:52:15Z</time>
      </trkpt>
      <trkpt lat="28.7456450" lon="-17.7337030">
        <ele>156.1</ele>
        <time>2020-11-16T07:52:16Z</time>
      </trkpt>
      <trkpt lat="28.7456980" lon="-17.7337180">
        <ele>156.6</ele>
        <time>2020-11-16T07:52:17Z</time>
      </trkpt>
      <trkpt lat="28.7456980" lon="-17.7337180">
        <ele>156.6</ele>
        <time>2020-11-16T07:52:18Z</time>
      </trkpt>
      <trkpt lat="28.7457430" lon="-17.7337250">
        <ele>157.0</ele>
        <time>2020-11-16T07:52:19Z</time>
      </trkpt>
      <trkpt lat="28.7457430" lon="-17.7337250">
        <ele>157.0</ele>
        <time>2020-11-16T07:52:20Z</time>
      </trkpt>
      <trkpt lat="28.7457900" lon="-17.7337250">
        <ele>157.4</ele>
        <time>2020-11-16T07:52:21Z</time>
      </trkpt>
      <trkpt lat="28.7457900" lon="-17.7337250">
        <ele>157.4</ele>
        <time>2020-11-16T07:52:22Z</time>
      </trkpt>
      <trkpt lat="28.7458370" lon="-17.7337230">
        <ele>157.8</ele>
        <time>2020-11-16T07:52:23Z</time>
      </trkpt>
      <trkpt lat="28.7458370" lon="-17.7337230">
        <ele>157.8</ele>
        <time>2020-11-16T07:52:24Z</time>
      </trkpt>
      <trkpt lat="28.7458820" lon="-17.7337200">
        <ele>158.2</ele>
        <time>2020-11-16T07:52:25Z</time>
      </trkpt>
      <trkpt lat="28.7458820" lon="-17.7337200">
        <ele>158.2</ele>
        <time>2020-11-16T07:52:26Z</time>
      </trkpt>
      <trkpt lat="28.7459270" lon="-17.7337130">
        <ele>158.5</ele>
        <time>2020-11-16T07:52:27Z</time>
      </trkpt>
      <trkpt lat="28.7459270" lon="-17.7337130">
        <ele>158.5</ele>
        <time>2020-11-16T07:52:28Z</time>
      </trkpt>
      <trkpt lat="28.7459720" lon="-17.7337070">
        <ele>158.9</ele>
        <time>2020-11-16T07:52:29Z</time>
      </trkpt>
      <trkpt lat="28.7459720" lon="-17.7337070">
        <ele>158.9</ele>
        <time>2020-11-16T07:52:30Z</time>
      </trkpt>
      <trkpt lat="28.7460180" lon="-17.7337030">
        <ele>159.3</ele>
        <time>2020-11-16T07:52:31Z</time>
      </trkpt>
      <trkpt lat="28.7460180" lon="-17.7337030">
        <ele>159.3</ele>
        <time>2020-11-16T07:52:32Z</time>
      </trkpt>
      <trkpt lat="28.7460630" lon="-17.7337030">
        <ele>159.7</ele>
        <time>2020-11-16T07:52:33Z</time>
      </trkpt>
      <trkpt lat="28.7460630" lon="-17.7337030">
        <ele>159.7</ele>
        <time>2020-11-16T07:52:34Z</time>
      </trkpt>
      <trkpt lat="28.7461080" lon="-17.7337050">
        <ele>160.1</ele>
        <time>2020-11-16T07:52:35Z</time>
      </trkpt>
      <trkpt lat="28.7461320" lon="-17.7337030">
        <ele>160.3</ele>
        <time>2020-11-16T07:52:36Z</time>
      </trkpt>
      <trkpt lat="28.7461320" lon="-17.7337030">
        <ele>160.3</ele>
        <time>2020-11-16T07:52:37Z</time>
      </trkpt>
      <trkpt lat="28.7461770" lon="-17.7337070">
        <ele>160.7</ele>
        <time>2020-11-16T07:52:38Z</time>
      </trkpt>
      <trkpt lat="28.7461980" lon="-17.7337070">
        <ele>160.8</ele>
        <time>2020-11-16T07:52:39Z</time>
      </trkpt>
      <trkpt lat="28.7461980" lon="-17.7337070">
        <ele>160.8</ele>
        <time>2020-11-16T07:52:40Z</time>
      </trkpt>
      <trkpt lat="28.7462420" lon="-17.7337000">
        <ele>161.2</ele>
        <time>2020-11-16T07:52:41Z</time>
      </trkpt>
      <trkpt lat="28.7462420" lon="-17.7337000">
        <ele>161.2</ele>
        <time>2020-11-16T07:52:42Z</time>
      </trkpt>
      <trkpt lat="28.7462900" lon="-17.7336930">
        <ele>161.6</ele>
        <time>2020-11-16T07:52:43Z</time>
      </trkpt>
      <trkpt lat="28.7463120" lon="-17.7336950">
        <ele>161.8</ele>
        <time>2020-11-16T07:52:44Z</time>
      </trkpt>
      <trkpt lat="28.7463350" lon="-17.7336980">
        <ele>162.0</ele>
        <time>2020-11-16T07:52:45Z</time>
      </trkpt>
      <trkpt lat="28.7463350" lon="-17.7336980">
        <ele>162.0</ele>
        <time>2020-11-16T07:52:46Z</time>
      </trkpt>
      <trkpt lat="28.7463800" lon="-17.7337000">
        <ele>162.4</ele>
        <time>2020-11-16T07:52:47Z</time>
      </trkpt>
      <trkpt lat="28.7464030" lon="-17.7336980">
        <ele>162.5</ele>
        <time>2020-11-16T07:52:48Z</time>
      </trkpt>
      <trkpt lat="28.7464270" lon="-17.7336980">
        <ele>162.7</ele>
        <time>2020-11-16T07:52:49Z</time>
      </trkpt>
      <trkpt lat="28.7464480" lon="-17.7337000">
        <ele>162.9</ele>
        <time>2020-11-16T07:52:50Z</time>
      </trkpt>
      <trkpt lat="28.7464480" lon="-17.7337000">
        <ele>162.9</ele>
        <time>2020-11-16T07:52:51Z</time>
      </trkpt>
      <trkpt lat="28.7464900" lon="-17.7337030">
        <ele>163.2</ele>
        <time>2020-11-16T07:52:52Z</time>
      </trkpt>
      <trkpt lat="28.7465120" lon="-17.7337030">
        <ele>163.4</ele>
        <time>2020-11-16T07:52:53Z</time>
      </trkpt>
      <trkpt lat="28.7465330" lon="-17.7337030">
        <ele>163.5</ele>
        <time>2020-11-16T07:52:54Z</time>
      </trkpt>
      <trkpt lat="28.7465570" lon="-17.7337030">
        <ele>163.7</ele>
        <time>2020-11-16T07:52:55Z</time>
      </trkpt>
      <trkpt lat="28.7465800" lon="-17.7337030">
        <ele>163.9</ele>
        <time>2020-11-16T07:52:56Z</time>
      </trkpt>
      <trkpt lat="28.7465800" lon="-17.7337030">
        <ele>163.9</ele>
        <time>2020-11-16T07:52:57Z</time>
      </trkpt>
      <trkpt lat="28.7466250" lon="-17.7337030">
        <ele>164.2</ele>
        <time>2020-11-16T07:52:58Z</time>
      </trkpt>
      <trkpt lat="28.7466470" lon="-17.7337030">
        <ele>164.4</ele>
        <time>2020-11-16T07:52:59Z</time>
      </trkpt>
      <trkpt lat="28.7466470" lon="-17.7337030">
        <ele>164.4</ele>
        <time>2020-11-16T07:53:00Z</time>
      </trkpt>
      <trkpt lat="28.7466900" lon="-17.7337070">
        <ele>164.7</ele>
        <time>2020-11-16T07:53:01Z</time>
      </trkpt>
      <trkpt lat="28.7466900" lon="-17.7337070">
        <ele>164.7</ele>
        <time>2020-11-16T07:53:02Z</time>
      </trkpt>
      <trkpt lat="28.7467330" lon="-17.7337180">
        <ele>165.1</ele>
        <time>2020-11-16T07:53:03Z</time>
      </trkpt>
      <trkpt lat="28.7467330" lon="-17.7337180">
        <ele>165.1</ele>
        <time>2020-11-16T07:53:04Z</time>
      </trkpt>
      <trkpt lat="28.7467800" lon="-17.7337200">
        <ele>165.5</ele>
        <time>2020-11-16T07:53:05Z</time>
      </trkpt>
      <trkpt lat="28.7468030" lon="-17.7337200">
        <ele>165.6</ele>
        <time>2020-11-16T07:53:06Z</time>
      </trkpt>
      <trkpt lat="28.7468030" lon="-17.7337200">
        <ele>165.6</ele>
        <time>2020-11-16T07:53:07Z</time>
      </trkpt>
      <trkpt lat="28.7468450" lon="-17.7337230">
        <ele>166.0</ele>
        <time>2020-11-16T07:53:08Z</time>
      </trkpt>
      <trkpt lat="28.7468450" lon="-17.7337230">
        <ele>166.0</ele>
        <time>2020-11-16T07:53:09Z</time>
      </trkpt>
      <trkpt lat="28.7468880" lon="-17.7337330">
        <ele>166.4</ele>
        <time>2020-11-16T07:53:10Z</time>
      </trkpt>
      <trkpt lat="28.7468880" lon="-17.7337330">
        <ele>166.4</ele>
        <time>2020-11-16T07:53:11Z</time>
      </trkpt>
      <trkpt lat="28.7469320" lon="-17.7337430">
        <ele>166.7</ele>
        <time>2020-11-16T07:53:12Z</time>
      </trkpt>
      <trkpt lat="28.7469550" lon="-17.7337450">
        <ele>166.9</ele>
        <time>2020-11-16T07:53:13Z</time>
      </trkpt>
      <trkpt lat="28.7469780" lon="-17.7337470">
        <ele>167.1</ele>
        <time>2020-11-16T07:53:14Z</time>
      </trkpt>
      <trkpt lat="28.7469780" lon="-17.7337470">
        <ele>167.1</ele>
        <time>2020-11-16T07:53:15Z</time>
      </trkpt>
      <trkpt lat="28.7470230" lon="-17.7337500">
        <ele>167.5</ele>
        <time>2020-11-16T07:53:16Z</time>
      </trkpt>
      <trkpt lat="28.7470470" lon="-17.7337530">
        <ele>167.7</ele>
        <time>2020-11-16T07:53:17Z</time>
      </trkpt>
      <trkpt lat="28.7470470" lon="-17.7337530">
        <ele>167.7</ele>
        <time>2020-11-16T07:53:18Z</time>
      </trkpt>
      <trkpt lat="28.7470880" lon="-17.7337620">
        <ele>168.1</ele>
        <time>2020-11-16T07:53:19Z</time>
      </trkpt>
      <trkpt lat="28.7471100" lon="-17.7337670">
        <ele>168.3</ele>
        <time>2020-11-16T07:53:20Z</time>
      </trkpt>
      <trkpt lat="28.7471100" lon="-17.7337670">
        <ele>168.3</ele>
        <time>2020-11-16T07:53:21Z</time>
      </trkpt>
      <trkpt lat="28.7471550" lon="-17.7337750">
        <ele>168.7</ele>
        <time>2020-11-16T07:53:22Z</time>
      </trkpt>
      <trkpt lat="28.7471750" lon="-17.7337820">
        <ele>168.9</ele>
        <time>2020-11-16T07:53:23Z</time>
      </trkpt>
      <trkpt lat="28.7471750" lon="-17.7337820">
        <ele>168.9</ele>
        <time>2020-11-16T07:53:24Z</time>
      </trkpt>
      <trkpt lat="28.7472150" lon="-17.7337970">
        <ele>169.2</ele>
        <time>2020-11-16T07:53:25Z</time>
      </trkpt>
      <trkpt lat="28.7472150" lon="-17.7337970">
        <ele>169.2</ele>
        <time>2020-11-16T07:53:26Z</time>
      </trkpt>
      <trkpt lat="28.7472570" lon="-17.7338180">
        <ele>169.6</ele>
        <time>2020-11-16T07:53:27Z</time>
      </trkpt>
      <trkpt lat="28.7472570" lon="-17.7338180">
        <ele>169.6</ele>
        <time>2020-11-16T07:53:28Z</time>
      </trkpt>
      <trkpt lat="28.7472970" lon="-17.7338400">
        <ele>170.0</ele>
        <time>2020-11-16T07:53:29Z</time>
      </trkpt>
      <trkpt lat="28.7472970" lon="-17.7338400">
        <ele>170.0</ele>
        <time>2020-11-16T07:53:30Z</time>
      </trkpt>
      <trkpt lat="28.7473370" lon="-17.7338650">
        <ele>170.4</ele>
        <time>2020-11-16T07:53:31Z</time>
      </trkpt>
      <trkpt lat="28.7473570" lon="-17.7338780">
        <ele>170.6</ele>
        <time>2020-11-16T07:53:32Z</time>
      </trkpt>
      <trkpt lat="28.7473570" lon="-17.7338780">
        <ele>170.6</ele>
        <time>2020-11-16T07:53:33Z</time>
      </trkpt>
      <trkpt lat="28.7473930" lon="-17.7339080">
        <ele>170.9</ele>
        <time>2020-11-16T07:53:34Z</time>
      </trkpt>
      <trkpt lat="28.7473930" lon="-17.7339080">
        <ele>170.9</ele>
        <time>2020-11-16T07:53:35Z</time>
      </trkpt>
      <trkpt lat="28.7474320" lon="-17.7339380">
        <ele>171.2</ele>
        <time>2020-11-16T07:53:36Z</time>
      </trkpt>
      <trkpt lat="28.7474320" lon="-17.7339380">
        <ele>171.2</ele>
        <time>2020-11-16T07:53:37Z</time>
      </trkpt>
      <trkpt lat="28.7474680" lon="-17.7339670">
        <ele>171.5</ele>
        <time>2020-11-16T07:53:38Z</time>
      </trkpt>
      <trkpt lat="28.7474870" lon="-17.7339830">
        <ele>171.7</ele>
        <time>2020-11-16T07:53:39Z</time>
      </trkpt>
      <trkpt lat="28.7474870" lon="-17.7339830">
        <ele>171.7</ele>
        <time>2020-11-16T07:53:40Z</time>
      </trkpt>
      <trkpt lat="28.7475250" lon="-17.7340120">
        <ele>172.0</ele>
        <time>2020-11-16T07:53:41Z</time>
      </trkpt>
      <trkpt lat="28.7475250" lon="-17.7340120">
        <ele>172.0</ele>
        <time>2020-11-16T07:53:42Z</time>
      </trkpt>
      <trkpt lat="28.7475630" lon="-17.7340420">
        <ele>172.3</ele>
        <time>2020-11-16T07:53:43Z</time>
      </trkpt>
      <trkpt lat="28.7475630" lon="-17.7340420">
        <ele>172.3</ele>
        <time>2020-11-16T07:53:44Z</time>
      </trkpt>
      <trkpt lat="28.7476000" lon="-17.7340730">
        <ele>172.6</ele>
        <time>2020-11-16T07:53:45Z</time>
      </trkpt>
      <trkpt lat="28.7476170" lon="-17.7340900">
        <ele>172.7</ele>
        <time>2020-11-16T07:53:46Z</time>
      </trkpt>
      <trkpt lat="28.7476170" lon="-17.7340900">
        <ele>172.7</ele>
        <time>2020-11-16T07:53:47Z</time>
      </trkpt>
      <trkpt lat="28.7476500" lon="-17.7341250">
        <ele>173.1</ele>
        <time>2020-11-16T07:53:48Z</time>
      </trkpt>
      <trkpt lat="28.7476500" lon="-17.7341250">
        <ele>173.1</ele>
        <time>2020-11-16T07:53:49Z</time>
      </trkpt>
      <trkpt lat="28.7476850" lon="-17.7341570">
        <ele>173.4</ele>
        <time>2020-11-16T07:53:50Z</time>
      </trkpt>
      <trkpt lat="28.7476850" lon="-17.7341570">
        <ele>173.4</ele>
        <time>2020-11-16T07:53:51Z</time>
      </trkpt>
      <trkpt lat="28.7477220" lon="-17.7341850">
        <ele>173.7</ele>
        <time>2020-11-16T07:53:52Z</time>
      </trkpt>
      <trkpt lat="28.7477400" lon="-17.7341980">
        <ele>173.9</ele>
        <time>2020-11-16T07:53:53Z</time>
      </trkpt>
      <trkpt lat="28.7477400" lon="-17.7341980">
        <ele>173.9</ele>
        <time>2020-11-16T07:53:54Z</time>
      </trkpt>
      <trkpt lat="28.7477730" lon="-17.7342300">
        <ele>174.2</ele>
        <time>2020-11-16T07:53:55Z</time>
      </trkpt>
      <trkpt lat="28.7477920" lon="-17.7342470">
        <ele>174.4</ele>
        <time>2020-11-16T07:53:56Z</time>
      </trkpt>
      <trkpt lat="28.7477920" lon="-17.7342470">
        <ele>174.4</ele>
        <time>2020-11-16T07:53:57Z</time>
      </trkpt>
      <trkpt lat="28.7478270" lon="-17.7342770">
        <ele>174.8</ele>
        <time>2020-11-16T07:53:58Z</time>
      </trkpt>
      <trkpt lat="28.7478450" lon="-17.7342900">
        <ele>175.0</ele>
        <time>2020-11-16T07:53:59Z</time>
      </trkpt>
      <trkpt lat="28.7478450" lon="-17.7342900">
        <ele>175.0</ele>
        <time>2020-11-16T07:54:00Z</time>
      </trkpt>
      <trkpt lat="28.7478820" lon="-17.7343180">
        <ele>175.5</ele>
        <time>2020-11-16T07:54:01Z</time>
      </trkpt>
      <trkpt lat="28.7479000" lon="-17.7343330">
        <ele>175.7</ele>
        <time>2020-11-16T07:54:02Z</time>
      </trkpt>
      <trkpt lat="28.7479000" lon="-17.7343330">
        <ele>175.7</ele>
        <time>2020-11-16T07:54:03Z</time>
      </trkpt>
      <trkpt lat="28.7479380" lon="-17.7343620">
        <ele>176.2</ele>
        <time>2020-11-16T07:54:04Z</time>
      </trkpt>
      <trkpt lat="28.7479380" lon="-17.7343620">
        <ele>176.2</ele>
        <time>2020-11-16T07:54:05Z</time>
      </trkpt>
      <trkpt lat="28.7479800" lon="-17.7343820">
        <ele>176.7</ele>
        <time>2020-11-16T07:54:06Z</time>
      </trkpt>
      <trkpt lat="28.7480020" lon="-17.7343930">
        <ele>177.0</ele>
        <time>2020-11-16T07:54:07Z</time>
      </trkpt>
      <trkpt lat="28.7480020" lon="-17.7343930">
        <ele>177.0</ele>
        <time>2020-11-16T07:54:08Z</time>
      </trkpt>
      <trkpt lat="28.7480430" lon="-17.7344150">
        <ele>177.5</ele>
        <time>2020-11-16T07:54:09Z</time>
      </trkpt>
      <trkpt lat="28.7480430" lon="-17.7344150">
        <ele>177.5</ele>
        <time>2020-11-16T07:54:10Z</time>
      </trkpt>
      <trkpt lat="28.7480850" lon="-17.7344400">
        <ele>178.0</ele>
        <time>2020-11-16T07:54:11Z</time>
      </trkpt>
      <trkpt lat="28.7480850" lon="-17.7344400">
        <ele>178.0</ele>
        <time>2020-11-16T07:54:12Z</time>
      </trkpt>
      <trkpt lat="28.7481250" lon="-17.7344620">
        <ele>178.5</ele>
        <time>2020-11-16T07:54:13Z</time>
      </trkpt>
      <trkpt lat="28.7481250" lon="-17.7344620">
        <ele>178.5</ele>
        <time>2020-11-16T07:54:14Z</time>
      </trkpt>
      <trkpt lat="28.7481670" lon="-17.7344800">
        <ele>179.0</ele>
        <time>2020-11-16T07:54:15Z</time>
      </trkpt>
      <trkpt lat="28.7481670" lon="-17.7344800">
        <ele>179.0</ele>
        <time>2020-11-16T07:54:16Z</time>
      </trkpt>
      <trkpt lat="28.7482080" lon="-17.7344950">
        <ele>179.5</ele>
        <time>2020-11-16T07:54:17Z</time>
      </trkpt>
      <trkpt lat="28.7482080" lon="-17.7344950">
        <ele>179.5</ele>
        <time>2020-11-16T07:54:18Z</time>
      </trkpt>
      <trkpt lat="28.7482520" lon="-17.7345150">
        <ele>180.0</ele>
        <time>2020-11-16T07:54:19Z</time>
      </trkpt>
      <trkpt lat="28.7482720" lon="-17.7345250">
        <ele>180.3</ele>
        <time>2020-11-16T07:54:20Z</time>
      </trkpt>
      <trkpt lat="28.7482720" lon="-17.7345250">
        <ele>180.3</ele>
        <time>2020-11-16T07:54:21Z</time>
      </trkpt>
      <trkpt lat="28.7483120" lon="-17.7345420">
        <ele>180.8</ele>
        <time>2020-11-16T07:54:22Z</time>
      </trkpt>
      <trkpt lat="28.7483320" lon="-17.7345530">
        <ele>181.0</ele>
        <time>2020-11-16T07:54:23Z</time>
      </trkpt>
      <trkpt lat="28.7483520" lon="-17.7345630">
        <ele>181.3</ele>
        <time>2020-11-16T07:54:24Z</time>
      </trkpt>
      <trkpt lat="28.7483520" lon="-17.7345630">
        <ele>181.3</ele>
        <time>2020-11-16T07:54:25Z</time>
      </trkpt>
      <trkpt lat="28.7483950" lon="-17.7345780">
        <ele>181.8</ele>
        <time>2020-11-16T07:54:26Z</time>
      </trkpt>
      <trkpt lat="28.7483950" lon="-17.7345780">
        <ele>181.8</ele>
        <time>2020-11-16T07:54:27Z</time>
      </trkpt>
      <trkpt lat="28.7484400" lon="-17.7345930">
        <ele>182.4</ele>
        <time>2020-11-16T07:54:28Z</time>
      </trkpt>
      <trkpt lat="28.7484400" lon="-17.7345930">
        <ele>182.4</ele>
        <time>2020-11-16T07:54:29Z</time>
      </trkpt>
      <trkpt lat="28.7484850" lon="-17.7346080">
        <ele>183.0</ele>
        <time>2020-11-16T07:54:30Z</time>
      </trkpt>
      <trkpt lat="28.7484850" lon="-17.7346080">
        <ele>183.0</ele>
        <time>2020-11-16T07:54:31Z</time>
      </trkpt>
      <trkpt lat="28.7485270" lon="-17.7346250">
        <ele>183.5</ele>
        <time>2020-11-16T07:54:32Z</time>
      </trkpt>
      <trkpt lat="28.7485470" lon="-17.7346370">
        <ele>183.8</ele>
        <time>2020-11-16T07:54:33Z</time>
      </trkpt>
      <trkpt lat="28.7485470" lon="-17.7346370">
        <ele>183.8</ele>
        <time>2020-11-16T07:54:34Z</time>
      </trkpt>
      <trkpt lat="28.7485870" lon="-17.7346600">
        <ele>184.3</ele>
        <time>2020-11-16T07:54:35Z</time>
      </trkpt>
      <trkpt lat="28.7486070" lon="-17.7346680">
        <ele>184.6</ele>
        <time>2020-11-16T07:54:36Z</time>
      </trkpt>
      <trkpt lat="28.7486070" lon="-17.7346680">
        <ele>184.6</ele>
        <time>2020-11-16T07:54:37Z</time>
      </trkpt>
      <trkpt lat="28.7486480" lon="-17.7346900">
        <ele>185.1</ele>
        <time>2020-11-16T07:54:38Z</time>
      </trkpt>
      <trkpt lat="28.7486480" lon="-17.7346900">
        <ele>185.1</ele>
        <time>2020-11-16T07:54:39Z</time>
      </trkpt>
      <trkpt lat="28.7486900" lon="-17.7347150">
        <ele>185.7</ele>
        <time>2020-11-16T07:54:40Z</time>
      </trkpt>
      <trkpt lat="28.7486900" lon="-17.7347150">
        <ele>185.7</ele>
        <time>2020-11-16T07:54:41Z</time>
      </trkpt>
      <trkpt lat="28.7487280" lon="-17.7347450">
        <ele>186.2</ele>
        <time>2020-11-16T07:54:42Z</time>
      </trkpt>
      <trkpt lat="28.7487470" lon="-17.7347600">
        <ele>186.5</ele>
        <time>2020-11-16T07:54:43Z</time>
      </trkpt>
      <trkpt lat="28.7487470" lon="-17.7347600">
        <ele>186.5</ele>
        <time>2020-11-16T07:54:44Z</time>
      </trkpt>
      <trkpt lat="28.7487850" lon="-17.7347900">
        <ele>187.0</ele>
        <time>2020-11-16T07:54:45Z</time>
      </trkpt>
      <trkpt lat="28.7487850" lon="-17.7347900">
        <ele>187.0</ele>
        <time>2020-11-16T07:54:46Z</time>
      </trkpt>
      <trkpt lat="28.7488200" lon="-17.7348230">
        <ele>187.5</ele>
        <time>2020-11-16T07:54:47Z</time>
      </trkpt>
      <trkpt lat="28.7488200" lon="-17.7348230">
        <ele>187.5</ele>
        <time>2020-11-16T07:54:48Z</time>
      </trkpt>
      <trkpt lat="28.7488530" lon="-17.7348620">
        <ele>188.0</ele>
        <time>2020-11-16T07:54:49Z</time>
      </trkpt>
      <trkpt lat="28.7488680" lon="-17.7348820">
        <ele>188.2</ele>
        <time>2020-11-16T07:54:50Z</time>
      </trkpt>
      <trkpt lat="28.7488680" lon="-17.7348820">
        <ele>188.2</ele>
        <time>2020-11-16T07:54:51Z</time>
      </trkpt>
      <trkpt lat="28.7488970" lon="-17.7349200">
        <ele>188.7</ele>
        <time>2020-11-16T07:54:52Z</time>
      </trkpt>
      <trkpt lat="28.7489080" lon="-17.7349420">
        <ele>188.9</ele>
        <time>2020-11-16T07:54:53Z</time>
      </trkpt>
      <trkpt lat="28.7489080" lon="-17.7349420">
        <ele>188.9</ele>
        <time>2020-11-16T07:54:54Z</time>
      </trkpt>
      <trkpt lat="28.7489320" lon="-17.7349850">
        <ele>189.4</ele>
        <time>2020-11-16T07:54:55Z</time>
      </trkpt>
      <trkpt lat="28.7489430" lon="-17.7350050">
        <ele>189.6</ele>
        <time>2020-11-16T07:54:56Z</time>
      </trkpt>
      <trkpt lat="28.7489430" lon="-17.7350050">
        <ele>189.6</ele>
        <time>2020-11-16T07:54:57Z</time>
      </trkpt>
      <trkpt lat="28.7489630" lon="-17.7350480">
        <ele>190.0</ele>
        <time>2020-11-16T07:54:58Z</time>
      </trkpt>
      <trkpt lat="28.7489630" lon="-17.7350480">
        <ele>190.0</ele>
        <time>2020-11-16T07:54:59Z</time>
      </trkpt>
      <trkpt lat="28.7489800" lon="-17.7350930">
        <ele>190.5</ele>
        <time>2020-11-16T07:55:00Z</time>
      </trkpt>
      <trkpt lat="28.7489880" lon="-17.7351150">
        <ele>190.7</ele>
        <time>2020-11-16T07:55:01Z</time>
      </trkpt>
      <trkpt lat="28.7489980" lon="-17.7351370">
        <ele>190.9</ele>
        <time>2020-11-16T07:55:02Z</time>
      </trkpt>
      <trkpt lat="28.7489980" lon="-17.7351370">
        <ele>190.9</ele>
        <time>2020-11-16T07:55:03Z</time>
      </trkpt>
      <trkpt lat="28.7490120" lon="-17.7351820">
        <ele>191.4</ele>
        <time>2020-11-16T07:55:04Z</time>
      </trkpt>
      <trkpt lat="28.7490180" lon="-17.7352050">
        <ele>191.6</ele>
        <time>2020-11-16T07:55:05Z</time>
      </trkpt>
      <trkpt lat="28.7490180" lon="-17.7352050">
        <ele>191.6</ele>
        <time>2020-11-16T07:55:06Z</time>
      </trkpt>
      <trkpt lat="28.7490300" lon="-17.7352500">
        <ele>192.1</ele>
        <time>2020-11-16T07:55:07Z</time>
      </trkpt>
      <trkpt lat="28.7490370" lon="-17.7352720">
        <ele>192.4</ele>
        <time>2020-11-16T07:55:08Z</time>
      </trkpt>
      <trkpt lat="28.7490370" lon="-17.7352720">
        <ele>192.4</ele>
        <time>2020-11-16T07:55:09Z</time>
      </trkpt>
      <trkpt lat="28.7490450" lon="-17.7353150">
        <ele>192.8</ele>
        <time>2020-11-16T07:55:10Z</time>
      </trkpt>
      <trkpt lat="28.7490500" lon="-17.7353380">
        <ele>193.1</ele>
        <time>2020-11-16T07:55:11Z</time>
      </trkpt>
      <trkpt lat="28.7490570" lon="-17.7353580">
        <ele>193.3</ele>
        <time>2020-11-16T07:55:12Z</time>
      </trkpt>
      <trkpt lat="28.7490570" lon="-17.7353580">
        <ele>193.3</ele>
        <time>2020-11-16T07:55:13Z</time>
      </trkpt>
      <trkpt lat="28.7490720" lon="-17.7354020">
        <ele>193.8</ele>
        <time>2020-11-16T07:55:14Z</time>
      </trkpt>
      <trkpt lat="28.7490720" lon="-17.7354020">
        <ele>193.8</ele>
        <time>2020-11-16T07:55:15Z</time>
      </trkpt>
      <trkpt lat="28.7490820" lon="-17.7354450">
        <ele>194.3</ele>
        <time>2020-11-16T07:55:16Z</time>
      </trkpt>
      <trkpt lat="28.7490850" lon="-17.7354680">
        <ele>194.5</ele>
        <time>2020-11-16T07:55:17Z</time>
      </trkpt>
      <trkpt lat="28.7490900" lon="-17.7354900">
        <ele>194.8</ele>
        <time>2020-11-16T07:55:18Z</time>
      </trkpt>
      <trkpt lat="28.7490900" lon="-17.7354900">
        <ele>194.8</ele>
        <time>2020-11-16T07:55:19Z</time>
      </trkpt>
      <trkpt lat="28.7490980" lon="-17.7355370">
        <ele>195.3</ele>
        <time>2020-11-16T07:55:20Z</time>
      </trkpt>
      <trkpt lat="28.7490980" lon="-17.7355370">
        <ele>195.3</ele>
        <time>2020-11-16T07:55:21Z</time>
      </trkpt>
      <trkpt lat="28.7491070" lon="-17.7355800">
        <ele>195.7</ele>
        <time>2020-11-16T07:55:22Z</time>
      </trkpt>
      <trkpt lat="28.7491120" lon="-17.7356020">
        <ele>195.9</ele>
        <time>2020-11-16T07:55:23Z</time>
      </trkpt>
      <trkpt lat="28.7491150" lon="-17.7356250">
        <ele>196.2</ele>
        <time>2020-11-16T07:55:24Z</time>
      </trkpt>
      <trkpt lat="28.7491150" lon="-17.7356250">
        <ele>196.2</ele>
        <time>2020-11-16T07:55:25Z</time>
      </trkpt>
      <trkpt lat="28.7491150" lon="-17.7356720">
        <ele>196.6</ele>
        <time>2020-11-16T07:55:26Z</time>
      </trkpt>
      <trkpt lat="28.7491150" lon="-17.7356970">
        <ele>196.8</ele>
        <time>2020-11-16T07:55:27Z</time>
      </trkpt>
      <trkpt lat="28.7491150" lon="-17.7356970">
        <ele>196.8</ele>
        <time>2020-11-16T07:55:28Z</time>
      </trkpt>
      <trkpt lat="28.7491180" lon="-17.7357470">
        <ele>197.3</ele>
        <time>2020-11-16T07:55:29Z</time>
      </trkpt>
      <trkpt lat="28.7491170" lon="-17.7357700">
        <ele>197.5</ele>
        <time>2020-11-16T07:55:30Z</time>
      </trkpt>
      <trkpt lat="28.7491170" lon="-17.7357700">
        <ele>197.5</ele>
        <time>2020-11-16T07:55:31Z</time>
      </trkpt>
      <trkpt lat="28.7491130" lon="-17.7358200">
        <ele>198.0</ele>
        <time>2020-11-16T07:55:32Z</time>
      </trkpt>
      <trkpt lat="28.7491120" lon="-17.7358450">
        <ele>198.3</ele>
        <time>2020-11-16T07:55:33Z</time>
      </trkpt>
      <trkpt lat="28.7491120" lon="-17.7358450">
        <ele>198.3</ele>
        <time>2020-11-16T07:55:34Z</time>
      </trkpt>
      <trkpt lat="28.7491080" lon="-17.7358930">
        <ele>198.7</ele>
        <time>2020-11-16T07:55:35Z</time>
      </trkpt>
      <trkpt lat="28.7491080" lon="-17.7358930">
        <ele>198.7</ele>
        <time>2020-11-16T07:55:36Z</time>
      </trkpt>
      <trkpt lat="28.7490950" lon="-17.7359400">
        <ele>199.2</ele>
        <time>2020-11-16T07:55:37Z</time>
      </trkpt>
      <trkpt lat="28.7490950" lon="-17.7359400">
        <ele>199.2</ele>
        <time>2020-11-16T07:55:38Z</time>
      </trkpt>
      <trkpt lat="28.7490770" lon="-17.7359870">
        <ele>199.7</ele>
        <time>2020-11-16T07:55:39Z</time>
      </trkpt>
      <trkpt lat="28.7490770" lon="-17.7359870">
        <ele>199.7</ele>
        <time>2020-11-16T07:55:40Z</time>
      </trkpt>
      <trkpt lat="28.7490580" lon="-17.7360320">
        <ele>200.2</ele>
        <time>2020-11-16T07:55:41Z</time>
      </trkpt>
      <trkpt lat="28.7490580" lon="-17.7360320">
        <ele>200.2</ele>
        <time>2020-11-16T07:55:42Z</time>
      </trkpt>
      <trkpt lat="28.7490380" lon="-17.7360730">
        <ele>200.6</ele>
        <time>2020-11-16T07:55:43Z</time>
      </trkpt>
      <trkpt lat="28.7490300" lon="-17.7360970">
        <ele>200.9</ele>
        <time>2020-11-16T07:55:44Z</time>
      </trkpt>
      <trkpt lat="28.7490300" lon="-17.7360970">
        <ele>200.9</ele>
        <time>2020-11-16T07:55:45Z</time>
      </trkpt>
      <trkpt lat="28.7490120" lon="-17.7361430">
        <ele>201.4</ele>
        <time>2020-11-16T07:55:46Z</time>
      </trkpt>
      <trkpt lat="28.7490030" lon="-17.7361670">
        <ele>201.6</ele>
        <time>2020-11-16T07:55:47Z</time>
      </trkpt>
      <trkpt lat="28.7490030" lon="-17.7361670">
        <ele>201.6</ele>
        <time>2020-11-16T07:55:48Z</time>
      </trkpt>
      <trkpt lat="28.7489830" lon="-17.7362130">
        <ele>202.1</ele>
        <time>2020-11-16T07:55:49Z</time>
      </trkpt>
      <trkpt lat="28.7489830" lon="-17.7362130">
        <ele>202.1</ele>
        <time>2020-11-16T07:55:50Z</time>
      </trkpt>
      <trkpt lat="28.7489670" lon="-17.7362600">
        <ele>202.6</ele>
        <time>2020-11-16T07:55:51Z</time>
      </trkpt>
      <trkpt lat="28.7489670" lon="-17.7362600">
        <ele>202.6</ele>
        <time>2020-11-16T07:55:52Z</time>
      </trkpt>
      <trkpt lat="28.7489480" lon="-17.7363080">
        <ele>203.1</ele>
        <time>2020-11-16T07:55:53Z</time>
      </trkpt>
      <trkpt lat="28.7489480" lon="-17.7363080">
        <ele>203.1</ele>
        <time>2020-11-16T07:55:54Z</time>
      </trkpt>
      <trkpt lat="28.7489330" lon="-17.7363580">
        <ele>203.5</ele>
        <time>2020-11-16T07:55:55Z</time>
      </trkpt>
      <trkpt lat="28.7489250" lon="-17.7363830">
        <ele>203.8</ele>
        <time>2020-11-16T07:55:56Z</time>
      </trkpt>
      <trkpt lat="28.7489250" lon="-17.7363830">
        <ele>203.8</ele>
        <time>2020-11-16T07:55:57Z</time>
      </trkpt>
      <trkpt lat="28.7489130" lon="-17.7364350">
        <ele>204.1</ele>
        <time>2020-11-16T07:55:58Z</time>
      </trkpt>
      <trkpt lat="28.7489100" lon="-17.7364620">
        <ele>204.2</ele>
        <time>2020-11-16T07:55:59Z</time>
      </trkpt>
      <trkpt lat="28.7489100" lon="-17.7364620">
        <ele>204.2</ele>
        <time>2020-11-16T07:56:00Z</time>
      </trkpt>
      <trkpt lat="28.7489030" lon="-17.7365170">
        <ele>204.3</ele>
        <time>2020-11-16T07:56:01Z</time>
      </trkpt>
      <trkpt lat="28.7489030" lon="-17.7365170">
        <ele>204.3</ele>
        <time>2020-11-16T07:56:02Z</time>
      </trkpt>
      <trkpt lat="28.7488970" lon="-17.7365720">
        <ele>204.3</ele>
        <time>2020-11-16T07:56:03Z</time>
      </trkpt>
      <trkpt lat="28.7488970" lon="-17.7366000">
        <ele>204.4</ele>
        <time>2020-11-16T07:56:04Z</time>
      </trkpt>
      <trkpt lat="28.7488970" lon="-17.7366000">
        <ele>204.4</ele>
        <time>2020-11-16T07:56:05Z</time>
      </trkpt>
      <trkpt lat="28.7488970" lon="-17.7366530">
        <ele>204.5</ele>
        <time>2020-11-16T07:56:06Z</time>
      </trkpt>
      <trkpt lat="28.7488980" lon="-17.7366820">
        <ele>204.5</ele>
        <time>2020-11-16T07:56:07Z</time>
      </trkpt>
      <trkpt lat="28.7488980" lon="-17.7366820">
        <ele>204.5</ele>
        <time>2020-11-16T07:56:08Z</time>
      </trkpt>
      <trkpt lat="28.7489030" lon="-17.7367370">
        <ele>204.6</ele>
        <time>2020-11-16T07:56:09Z</time>
      </trkpt>
      <trkpt lat="28.7489030" lon="-17.7367370">
        <ele>204.6</ele>
        <time>2020-11-16T07:56:10Z</time>
      </trkpt>
      <trkpt lat="28.7489100" lon="-17.7367900">
        <ele>204.6</ele>
        <time>2020-11-16T07:56:11Z</time>
      </trkpt>
      <trkpt lat="28.7489100" lon="-17.7367900">
        <ele>204.6</ele>
        <time>2020-11-16T07:56:12Z</time>
      </trkpt>
      <trkpt lat="28.7489180" lon="-17.7368470">
        <ele>204.7</ele>
        <time>2020-11-16T07:56:13Z</time>
      </trkpt>
      <trkpt lat="28.7489230" lon="-17.7368750">
        <ele>204.6</ele>
        <time>2020-11-16T07:56:14Z</time>
      </trkpt>
      <trkpt lat="28.7489230" lon="-17.7368750">
        <ele>204.6</ele>
        <time>2020-11-16T07:56:15Z</time>
      </trkpt>
      <trkpt lat="28.7489300" lon="-17.7369280">
        <ele>204.5</ele>
        <time>2020-11-16T07:56:16Z</time>
      </trkpt>
      <trkpt lat="28.7489330" lon="-17.7369570">
        <ele>204.4</ele>
        <time>2020-11-16T07:56:17Z</time>
      </trkpt>
      <trkpt lat="28.7489330" lon="-17.7369570">
        <ele>204.4</ele>
        <time>2020-11-16T07:56:18Z</time>
      </trkpt>
      <trkpt lat="28.7489420" lon="-17.7370100">
        <ele>204.3</ele>
        <time>2020-11-16T07:56:19Z</time>
      </trkpt>
      <trkpt lat="28.7489420" lon="-17.7370100">
        <ele>204.3</ele>
        <time>2020-11-16T07:56:20Z</time>
      </trkpt>
      <trkpt lat="28.7489530" lon="-17.7370650">
        <ele>204.2</ele>
        <time>2020-11-16T07:56:21Z</time>
      </trkpt>
      <trkpt lat="28.7489530" lon="-17.7370650">
        <ele>204.2</ele>
        <time>2020-11-16T07:56:22Z</time>
      </trkpt>
      <trkpt lat="28.7489630" lon="-17.7371180">
        <ele>204.1</ele>
        <time>2020-11-16T07:56:23Z</time>
      </trkpt>
      <trkpt lat="28.7489700" lon="-17.7371450">
        <ele>204.0</ele>
        <time>2020-11-16T07:56:24Z</time>
      </trkpt>
      <trkpt lat="28.7489700" lon="-17.7371450">
        <ele>204.0</ele>
        <time>2020-11-16T07:56:25Z</time>
      </trkpt>
      <trkpt lat="28.7489830" lon="-17.7372000">
        <ele>203.9</ele>
        <time>2020-11-16T07:56:26Z</time>
      </trkpt>
      <trkpt lat="28.7489830" lon="-17.7372000">
        <ele>203.9</ele>
        <time>2020-11-16T07:56:27Z</time>
      </trkpt>
      <trkpt lat="28.7489970" lon="-17.7372530">
        <ele>203.8</ele>
        <time>2020-11-16T07:56:28Z</time>
      </trkpt>
      <trkpt lat="28.7490020" lon="-17.7372800">
        <ele>203.7</ele>
        <time>2020-11-16T07:56:29Z</time>
      </trkpt>
      <trkpt lat="28.7490020" lon="-17.7372800">
        <ele>203.7</ele>
        <time>2020-11-16T07:56:30Z</time>
      </trkpt>
      <trkpt lat="28.7490080" lon="-17.7373330">
        <ele>203.6</ele>
        <time>2020-11-16T07:56:31Z</time>
      </trkpt>
      <trkpt lat="28.7490080" lon="-17.7373330">
        <ele>203.6</ele>
        <time>2020-11-16T07:56:32Z</time>
      </trkpt>
      <trkpt lat="28.7490200" lon="-17.7373850">
        <ele>203.6</ele>
        <time>2020-11-16T07:56:33Z</time>
      </trkpt>
      <trkpt lat="28.7490270" lon="-17.7374120">
        <ele>203.5</ele>
        <time>2020-11-16T07:56:34Z</time>
      </trkpt>
      <trkpt lat="28.7490270" lon="-17.7374120">
        <ele>203.5</ele>
        <time>2020-11-16T07:56:35Z</time>
      </trkpt>
      <trkpt lat="28.7490420" lon="-17.7374600">
        <ele>203.4</ele>
        <time>2020-11-16T07:56:36Z</time>
      </trkpt>
      <trkpt lat="28.7490420" lon="-17.7374600">
        <ele>203.4</ele>
        <time>2020-11-16T07:56:37Z</time>
      </trkpt>
      <trkpt lat="28.7490530" lon="-17.7375120">
        <ele>203.4</ele>
        <time>2020-11-16T07:56:38Z</time>
      </trkpt>
      <trkpt lat="28.7490530" lon="-17.7375120">
        <ele>203.4</ele>
        <time>2020-11-16T07:56:39Z</time>
      </trkpt>
      <trkpt lat="28.7490680" lon="-17.7375620">
        <ele>203.3</ele>
        <time>2020-11-16T07:56:40Z</time>
      </trkpt>
      <trkpt lat="28.7490680" lon="-17.7375620">
        <ele>203.3</ele>
        <time>2020-11-16T07:56:41Z</time>
      </trkpt>
      <trkpt lat="28.7490870" lon="-17.7376120">
        <ele>203.3</ele>
        <time>2020-11-16T07:56:42Z</time>
      </trkpt>
      <trkpt lat="28.7490920" lon="-17.7376350">
        <ele>203.2</ele>
        <time>2020-11-16T07:56:43Z</time>
      </trkpt>
      <trkpt lat="28.7490920" lon="-17.7376350">
        <ele>203.2</ele>
        <time>2020-11-16T07:56:44Z</time>
      </trkpt>
      <trkpt lat="28.7491020" lon="-17.7376850">
        <ele>203.2</ele>
        <time>2020-11-16T07:56:45Z</time>
      </trkpt>
      <trkpt lat="28.7491080" lon="-17.7377080">
        <ele>203.2</ele>
        <time>2020-11-16T07:56:46Z</time>
      </trkpt>
      <trkpt lat="28.7491080" lon="-17.7377080">
        <ele>203.2</ele>
        <time>2020-11-16T07:56:47Z</time>
      </trkpt>
      <trkpt lat="28.7491230" lon="-17.7377550">
        <ele>203.2</ele>
        <time>2020-11-16T07:56:48Z</time>
      </trkpt>
      <trkpt lat="28.7491230" lon="-17.7377550">
        <ele>203.2</ele>
        <time>2020-11-16T07:56:49Z</time>
      </trkpt>
      <trkpt lat="28.7491380" lon="-17.7378020">
        <ele>203.3</ele>
        <time>2020-11-16T07:56:50Z</time>
      </trkpt>
      <trkpt lat="28.7491380" lon="-17.7378020">
        <ele>203.3</ele>
        <time>2020-11-16T07:56:51Z</time>
      </trkpt>
      <trkpt lat="28.7491500" lon="-17.7378500">
        <ele>203.3</ele>
        <time>2020-11-16T07:56:52Z</time>
      </trkpt>
      <trkpt lat="28.7491530" lon="-17.7378750">
        <ele>203.4</ele>
        <time>2020-11-16T07:56:53Z</time>
      </trkpt>
      <trkpt lat="28.7491550" lon="-17.7378980">
        <ele>203.4</ele>
        <time>2020-11-16T07:56:54Z</time>
      </trkpt>
      <trkpt lat="28.7491550" lon="-17.7378980">
        <ele>203.4</ele>
        <time>2020-11-16T07:56:55Z</time>
      </trkpt>
      <trkpt lat="28.7491580" lon="-17.7379470">
        <ele>203.6</ele>
        <time>2020-11-16T07:56:56Z</time>
      </trkpt>
      <trkpt lat="28.7491600" lon="-17.7379700">
        <ele>203.6</ele>
        <time>2020-11-16T07:56:57Z</time>
      </trkpt>
      <trkpt lat="28.7491600" lon="-17.7379700">
        <ele>203.6</ele>
        <time>2020-11-16T07:56:58Z</time>
      </trkpt>
      <trkpt lat="28.7491600" lon="-17.7380170">
        <ele>203.8</ele>
        <time>2020-11-16T07:56:59Z</time>
      </trkpt>
      <trkpt lat="28.7491600" lon="-17.7380170">
        <ele>203.8</ele>
        <time>2020-11-16T07:57:00Z</time>
      </trkpt>
      <trkpt lat="28.7491570" lon="-17.7380630">
        <ele>204.0</ele>
        <time>2020-11-16T07:57:01Z</time>
      </trkpt>
      <trkpt lat="28.7491570" lon="-17.7380630">
        <ele>204.0</ele>
        <time>2020-11-16T07:57:02Z</time>
      </trkpt>
      <trkpt lat="28.7491500" lon="-17.7381080">
        <ele>204.1</ele>
        <time>2020-11-16T07:57:03Z</time>
      </trkpt>
      <trkpt lat="28.7491420" lon="-17.7381300">
        <ele>204.2</ele>
        <time>2020-11-16T07:57:04Z</time>
      </trkpt>
      <trkpt lat="28.7491420" lon="-17.7381300">
        <ele>204.2</ele>
        <time>2020-11-16T07:57:05Z</time>
      </trkpt>
      <trkpt lat="28.7491200" lon="-17.7381700">
        <ele>204.4</ele>
        <time>2020-11-16T07:57:06Z</time>
      </trkpt>
      <trkpt lat="28.7491200" lon="-17.7381700">
        <ele>204.4</ele>
        <time>2020-11-16T07:57:07Z</time>
      </trkpt>
      <trkpt lat="28.7490900" lon="-17.7382020">
        <ele>204.6</ele>
        <time>2020-11-16T07:57:08Z</time>
      </trkpt>
      <trkpt lat="28.7490900" lon="-17.7382020">
        <ele>204.6</ele>
        <time>2020-11-16T07:57:09Z</time>
      </trkpt>
      <trkpt lat="28.7490530" lon="-17.7382220">
        <ele>204.7</ele>
        <time>2020-11-16T07:57:10Z</time>
      </trkpt>
      <trkpt lat="28.7490530" lon="-17.7382220">
        <ele>204.7</ele>
        <time>2020-11-16T07:57:11Z</time>
      </trkpt>
      <trkpt lat="28.7490130" lon="-17.7382320">
        <ele>204.9</ele>
        <time>2020-11-16T07:57:12Z</time>
      </trkpt>
      <trkpt lat="28.7489920" lon="-17.7382350">
        <ele>205.0</ele>
        <time>2020-11-16T07:57:13Z</time>
      </trkpt>
      <trkpt lat="28.7489700" lon="-17.7382350">
        <ele>205.1</ele>
        <time>2020-11-16T07:57:14Z</time>
      </trkpt>
      <trkpt lat="28.7489700" lon="-17.7382350">
        <ele>205.1</ele>
        <time>2020-11-16T07:57:15Z</time>
      </trkpt>
      <trkpt lat="28.7489300" lon="-17.7382330">
        <ele>205.2</ele>
        <time>2020-11-16T07:57:16Z</time>
      </trkpt>
      <trkpt lat="28.7489300" lon="-17.7382330">
        <ele>205.2</ele>
        <time>2020-11-16T07:57:17Z</time>
      </trkpt>
      <trkpt lat="28.7488950" lon="-17.7382180">
        <ele>205.3</ele>
        <time>2020-11-16T07:57:18Z</time>
      </trkpt>
      <trkpt lat="28.7488780" lon="-17.7382080">
        <ele>205.3</ele>
        <time>2020-11-16T07:57:19Z</time>
      </trkpt>
      <trkpt lat="28.7488780" lon="-17.7382080">
        <ele>205.3</ele>
        <time>2020-11-16T07:57:20Z</time>
      </trkpt>
      <trkpt lat="28.7488430" lon="-17.7381920">
        <ele>205.6</ele>
        <time>2020-11-16T07:57:21Z</time>
      </trkpt>
      <trkpt lat="28.7488430" lon="-17.7381920">
        <ele>205.6</ele>
        <time>2020-11-16T07:57:22Z</time>
      </trkpt>
      <trkpt lat="28.7488120" lon="-17.7381630">
        <ele>206.0</ele>
        <time>2020-11-16T07:57:23Z</time>
      </trkpt>
      <trkpt lat="28.7488000" lon="-17.7381430">
        <ele>206.2</ele>
        <time>2020-11-16T07:57:24Z</time>
      </trkpt>
      <trkpt lat="28.7488000" lon="-17.7381430">
        <ele>206.2</ele>
        <time>2020-11-16T07:57:25Z</time>
      </trkpt>
      <trkpt lat="28.7487800" lon="-17.7380950">
        <ele>206.6</ele>
        <time>2020-11-16T07:57:26Z</time>
      </trkpt>
      <trkpt lat="28.7487800" lon="-17.7380950">
        <ele>206.6</ele>
        <time>2020-11-16T07:57:27Z</time>
      </trkpt>
      <trkpt lat="28.7487550" lon="-17.7380530">
        <ele>206.9</ele>
        <time>2020-11-16T07:57:28Z</time>
      </trkpt>
      <trkpt lat="28.7487430" lon="-17.7380330">
        <ele>207.1</ele>
        <time>2020-11-16T07:57:29Z</time>
      </trkpt>
      <trkpt lat="28.7487430" lon="-17.7380330">
        <ele>207.1</ele>
        <time>2020-11-16T07:57:30Z</time>
      </trkpt>
      <trkpt lat="28.7487200" lon="-17.7379950">
        <ele>207.4</ele>
        <time>2020-11-16T07:57:31Z</time>
      </trkpt>
      <trkpt lat="28.7487070" lon="-17.7379770">
        <ele>207.5</ele>
        <time>2020-11-16T07:57:32Z</time>
      </trkpt>
      <trkpt lat="28.7487070" lon="-17.7379770">
        <ele>207.5</ele>
        <time>2020-11-16T07:57:33Z</time>
      </trkpt>
      <trkpt lat="28.7486870" lon="-17.7379370">
        <ele>207.8</ele>
        <time>2020-11-16T07:57:34Z</time>
      </trkpt>
      <trkpt lat="28.7486870" lon="-17.7379370">
        <ele>207.8</ele>
        <time>2020-11-16T07:57:35Z</time>
      </trkpt>
      <trkpt lat="28.7486630" lon="-17.7378970">
        <ele>208.1</ele>
        <time>2020-11-16T07:57:36Z</time>
      </trkpt>
      <trkpt lat="28.7486630" lon="-17.7378970">
        <ele>208.1</ele>
        <time>2020-11-16T07:57:37Z</time>
      </trkpt>
      <trkpt lat="28.7486400" lon="-17.7378570">
        <ele>208.3</ele>
        <time>2020-11-16T07:57:38Z</time>
      </trkpt>
      <trkpt lat="28.7486320" lon="-17.7378350">
        <ele>208.5</ele>
        <time>2020-11-16T07:57:39Z</time>
      </trkpt>
      <trkpt lat="28.7486220" lon="-17.7378150">
        <ele>208.6</ele>
        <time>2020-11-16T07:57:40Z</time>
      </trkpt>
      <trkpt lat="28.7486220" lon="-17.7378150">
        <ele>208.6</ele>
        <time>2020-11-16T07:57:41Z</time>
      </trkpt>
      <trkpt lat="28.7486000" lon="-17.7377720">
        <ele>208.9</ele>
        <time>2020-11-16T07:57:42Z</time>
      </trkpt>
      <trkpt lat="28.7485880" lon="-17.7377480">
        <ele>209.0</ele>
        <time>2020-11-16T07:57:43Z</time>
      </trkpt>
      <trkpt lat="28.7485880" lon="-17.7377480">
        <ele>209.0</ele>
        <time>2020-11-16T07:57:44Z</time>
      </trkpt>
      <trkpt lat="28.7485670" lon="-17.7377020">
        <ele>209.3</ele>
        <time>2020-11-16T07:57:45Z</time>
      </trkpt>
      <trkpt lat="28.7485670" lon="-17.7377020">
        <ele>209.3</ele>
        <time>2020-11-16T07:57:46Z</time>
      </trkpt>
      <trkpt lat="28.7485480" lon="-17.7376530">
        <ele>209.5</ele>
        <time>2020-11-16T07:57:47Z</time>
      </trkpt>
      <trkpt lat="28.7485480" lon="-17.7376530">
        <ele>209.5</ele>
        <time>2020-11-16T07:57:48Z</time>
      </trkpt>
      <trkpt lat="28.7485270" lon="-17.7376080">
        <ele>209.8</ele>
        <time>2020-11-16T07:57:49Z</time>
      </trkpt>
      <trkpt lat="28.7485270" lon="-17.7376080">
        <ele>209.8</ele>
        <time>2020-11-16T07:57:50Z</time>
      </trkpt>
      <trkpt lat="28.7485120" lon="-17.7375620">
        <ele>210.0</ele>
        <time>2020-11-16T07:57:51Z</time>
      </trkpt>
      <trkpt lat="28.7485120" lon="-17.7375620">
        <ele>210.0</ele>
        <time>2020-11-16T07:57:52Z</time>
      </trkpt>
      <trkpt lat="28.7485020" lon="-17.7375120">
        <ele>210.2</ele>
        <time>2020-11-16T07:57:53Z</time>
      </trkpt>
      <trkpt lat="28.7484980" lon="-17.7374850">
        <ele>210.4</ele>
        <time>2020-11-16T07:57:54Z</time>
      </trkpt>
      <trkpt lat="28.7484980" lon="-17.7374850">
        <ele>210.4</ele>
        <time>2020-11-16T07:57:55Z</time>
      </trkpt>
      <trkpt lat="28.7484850" lon="-17.7374370">
        <ele>210.6</ele>
        <time>2020-11-16T07:57:56Z</time>
      </trkpt>
      <trkpt lat="28.7484750" lon="-17.7374150">
        <ele>210.7</ele>
        <time>2020-11-16T07:57:57Z</time>
      </trkpt>
      <trkpt lat="28.7484670" lon="-17.7373920">
        <ele>210.8</ele>
        <time>2020-11-16T07:57:58Z</time>
      </trkpt>
      <trkpt lat="28.7484670" lon="-17.7373920">
        <ele>210.8</ele>
        <time>2020-11-16T07:57:59Z</time>
      </trkpt>
      <trkpt lat="28.7484520" lon="-17.7373450">
        <ele>211.0</ele>
        <time>2020-11-16T07:58:00Z</time>
      </trkpt>
      <trkpt lat="28.7484450" lon="-17.7373220">
        <ele>211.1</ele>
        <time>2020-11-16T07:58:01Z</time>
      </trkpt>
      <trkpt lat="28.7484450" lon="-17.7373220">
        <ele>211.1</ele>
        <time>2020-11-16T07:58:02Z</time>
      </trkpt>
      <trkpt lat="28.7484350" lon="-17.7372720">
        <ele>211.4</ele>
        <time>2020-11-16T07:58:03Z</time>
      </trkpt>
      <trkpt lat="28.7484280" lon="-17.7372470">
        <ele>211.5</ele>
        <time>2020-11-16T07:58:04Z</time>
      </trkpt>
      <trkpt lat="28.7484280" lon="-17.7372470">
        <ele>211.5</ele>
        <time>2020-11-16T07:58:05Z</time>
      </trkpt>
      <trkpt lat="28.7484150" lon="-17.7372000">
        <ele>211.7</ele>
        <time>2020-11-16T07:58:06Z</time>
      </trkpt>
      <trkpt lat="28.7484150" lon="-17.7372000">
        <ele>211.7</ele>
        <time>2020-11-16T07:58:07Z</time>
      </trkpt>
      <trkpt lat="28.7484030" lon="-17.7371520">
        <ele>211.9</ele>
        <time>2020-11-16T07:58:08Z</time>
      </trkpt>
      <trkpt lat="28.7484030" lon="-17.7371520">
        <ele>211.9</ele>
        <time>2020-11-16T07:58:09Z</time>
      </trkpt>
      <trkpt lat="28.7483930" lon="-17.7371020">
        <ele>212.2</ele>
        <time>2020-11-16T07:58:10Z</time>
      </trkpt>
      <trkpt lat="28.7483930" lon="-17.7371020">
        <ele>212.2</ele>
        <time>2020-11-16T07:58:11Z</time>
      </trkpt>
      <trkpt lat="28.7483850" lon="-17.7370520">
        <ele>212.4</ele>
        <time>2020-11-16T07:58:12Z</time>
      </trkpt>
      <trkpt lat="28.7483850" lon="-17.7370520">
        <ele>212.4</ele>
        <time>2020-11-16T07:58:13Z</time>
      </trkpt>
      <trkpt lat="28.7483770" lon="-17.7370000">
        <ele>212.7</ele>
        <time>2020-11-16T07:58:14Z</time>
      </trkpt>
      <trkpt lat="28.7483770" lon="-17.7370000">
        <ele>212.7</ele>
        <time>2020-11-16T07:58:15Z</time>
      </trkpt>
      <trkpt lat="28.7483650" lon="-17.7369520">
        <ele>213.0</ele>
        <time>2020-11-16T07:58:16Z</time>
      </trkpt>
      <trkpt lat="28.7483650" lon="-17.7369520">
        <ele>213.0</ele>
        <time>2020-11-16T07:58:17Z</time>
      </trkpt>
      <trkpt lat="28.7483530" lon="-17.7369030">
        <ele>213.2</ele>
        <time>2020-11-16T07:58:18Z</time>
      </trkpt>
      <trkpt lat="28.7483480" lon="-17.7368800">
        <ele>213.4</ele>
        <time>2020-11-16T07:58:19Z</time>
      </trkpt>
      <trkpt lat="28.7483480" lon="-17.7368800">
        <ele>213.4</ele>
        <time>2020-11-16T07:58:20Z</time>
      </trkpt>
      <trkpt lat="28.7483380" lon="-17.7368320">
        <ele>213.6</ele>
        <time>2020-11-16T07:58:21Z</time>
      </trkpt>
      <trkpt lat="28.7483380" lon="-17.7368320">
        <ele>213.6</ele>
        <time>2020-11-16T07:58:22Z</time>
      </trkpt>
      <trkpt lat="28.7483300" lon="-17.7367820">
        <ele>213.9</ele>
        <time>2020-11-16T07:58:23Z</time>
      </trkpt>
      <trkpt lat="28.7483270" lon="-17.7367570">
        <ele>214.0</ele>
        <time>2020-11-16T07:58:24Z</time>
      </trkpt>
      <trkpt lat="28.7483230" lon="-17.7367320">
        <ele>214.2</ele>
        <time>2020-11-16T07:58:25Z</time>
      </trkpt>
      <trkpt lat="28.7483230" lon="-17.7367320">
        <ele>214.2</ele>
        <time>2020-11-16T07:58:26Z</time>
      </trkpt>
      <trkpt lat="28.7483170" lon="-17.7366820">
        <ele>214.4</ele>
        <time>2020-11-16T07:58:27Z</time>
      </trkpt>
      <trkpt lat="28.7483170" lon="-17.7366820">
        <ele>214.4</ele>
        <time>2020-11-16T07:58:28Z</time>
      </trkpt>
      <trkpt lat="28.7483070" lon="-17.7366330">
        <ele>214.7</ele>
        <time>2020-11-16T07:58:29Z</time>
      </trkpt>
      <trkpt lat="28.7483070" lon="-17.7366330">
        <ele>214.7</ele>
        <time>2020-11-16T07:58:30Z</time>
      </trkpt>
      <trkpt lat="28.7483020" lon="-17.7365830">
        <ele>215.0</ele>
        <time>2020-11-16T07:58:31Z</time>
      </trkpt>
      <trkpt lat="28.7483020" lon="-17.7365830">
        <ele>215.0</ele>
        <time>2020-11-16T07:58:32Z</time>
      </trkpt>
      <trkpt lat="28.7483030" lon="-17.7365320">
        <ele>215.3</ele>
        <time>2020-11-16T07:58:33Z</time>
      </trkpt>
      <trkpt lat="28.7483030" lon="-17.7365320">
        <ele>215.3</ele>
        <time>2020-11-16T07:58:34Z</time>
      </trkpt>
      <trkpt lat="28.7483080" lon="-17.7364800">
        <ele>215.6</ele>
        <time>2020-11-16T07:58:35Z</time>
      </trkpt>
      <trkpt lat="28.7483080" lon="-17.7364550">
        <ele>215.7</ele>
        <time>2020-11-16T07:58:36Z</time>
      </trkpt>
      <trkpt lat="28.7483080" lon="-17.7364550">
        <ele>215.7</ele>
        <time>2020-11-16T07:58:37Z</time>
      </trkpt>
      <trkpt lat="28.7483080" lon="-17.7364070">
        <ele>216.0</ele>
        <time>2020-11-16T07:58:38Z</time>
      </trkpt>
      <trkpt lat="28.7483120" lon="-17.7363820">
        <ele>216.1</ele>
        <time>2020-11-16T07:58:39Z</time>
      </trkpt>
      <trkpt lat="28.7483120" lon="-17.7363820">
        <ele>216.1</ele>
        <time>2020-11-16T07:58:40Z</time>
      </trkpt>
      <trkpt lat="28.7483150" lon="-17.7363330">
        <ele>216.4</ele>
        <time>2020-11-16T07:58:41Z</time>
      </trkpt>
      <trkpt lat="28.7483170" lon="-17.7363080">
        <ele>216.6</ele>
        <time>2020-11-16T07:58:42Z</time>
      </trkpt>
      <trkpt lat="28.7483170" lon="-17.7363080">
        <ele>216.6</ele>
        <time>2020-11-16T07:58:43Z</time>
      </trkpt>
      <trkpt lat="28.7483200" lon="-17.7362580">
        <ele>216.9</ele>
        <time>2020-11-16T07:58:44Z</time>
      </trkpt>
      <trkpt lat="28.7483220" lon="-17.7362330">
        <ele>217.1</ele>
        <time>2020-11-16T07:58:45Z</time>
      </trkpt>
      <trkpt lat="28.7483220" lon="-17.7362330">
        <ele>217.1</ele>
        <time>2020-11-16T07:58:46Z</time>
      </trkpt>
      <trkpt lat="28.7483280" lon="-17.7361830">
        <ele>217.4</ele>
        <time>2020-11-16T07:58:47Z</time>
      </trkpt>
      <trkpt lat="28.7483280" lon="-17.7361830">
        <ele>217.4</ele>
        <time>2020-11-16T07:58:48Z</time>
      </trkpt>
      <trkpt lat="28.7483350" lon="-17.7361350">
        <ele>217.8</ele>
        <time>2020-11-16T07:58:49Z</time>
      </trkpt>
      <trkpt lat="28.7483380" lon="-17.7361100">
        <ele>218.0</ele>
        <time>2020-11-16T07:58:50Z</time>
      </trkpt>
      <trkpt lat="28.7483380" lon="-17.7361100">
        <ele>218.0</ele>
        <time>2020-11-16T07:58:51Z</time>
      </trkpt>
      <trkpt lat="28.7483450" lon="-17.7360620">
        <ele>218.3</ele>
        <time>2020-11-16T07:58:52Z</time>
      </trkpt>
      <trkpt lat="28.7483500" lon="-17.7360380">
        <ele>218.5</ele>
        <time>2020-11-16T07:58:53Z</time>
      </trkpt>
      <trkpt lat="28.7483500" lon="-17.7360380">
        <ele>218.5</ele>
        <time>2020-11-16T07:58:54Z</time>
      </trkpt>
      <trkpt lat="28.7483580" lon="-17.7359880">
        <ele>218.9</ele>
        <time>2020-11-16T07:58:55Z</time>
      </trkpt>
      <trkpt lat="28.7483600" lon="-17.7359630">
        <ele>219.2</ele>
        <time>2020-11-16T07:58:56Z</time>
      </trkpt>
      <trkpt lat="28.7483600" lon="-17.7359630">
        <ele>219.2</ele>
        <time>2020-11-16T07:58:57Z</time>
      </trkpt>
      <trkpt lat="28.7483620" lon="-17.7359150">
        <ele>219.6</ele>
        <time>2020-11-16T07:58:58Z</time>
      </trkpt>
      <trkpt lat="28.7483650" lon="-17.7358930">
        <ele>219.8</ele>
        <time>2020-11-16T07:58:59Z</time>
      </trkpt>
      <trkpt lat="28.7483650" lon="-17.7358930">
        <ele>219.8</ele>
        <time>2020-11-16T07:59:00Z</time>
      </trkpt>
      <trkpt lat="28.7483680" lon="-17.7358450">
        <ele>220.2</ele>
        <time>2020-11-16T07:59:01Z</time>
      </trkpt>
      <trkpt lat="28.7483680" lon="-17.7358450">
        <ele>220.2</ele>
        <time>2020-11-16T07:59:02Z</time>
      </trkpt>
      <trkpt lat="28.7483680" lon="-17.7357970">
        <ele>220.7</ele>
        <time>2020-11-16T07:59:03Z</time>
      </trkpt>
      <trkpt lat="28.7483680" lon="-17.7357970">
        <ele>220.7</ele>
        <time>2020-11-16T07:59:04Z</time>
      </trkpt>
      <trkpt lat="28.7483630" lon="-17.7357520">
        <ele>221.1</ele>
        <time>2020-11-16T07:59:05Z</time>
      </trkpt>
      <trkpt lat="28.7483620" lon="-17.7357280">
        <ele>221.4</ele>
        <time>2020-11-16T07:59:06Z</time>
      </trkpt>
      <trkpt lat="28.7483620" lon="-17.7357280">
        <ele>221.4</ele>
        <time>2020-11-16T07:59:07Z</time>
      </trkpt>
      <trkpt lat="28.7483520" lon="-17.7356830">
        <ele>221.8</ele>
        <time>2020-11-16T07:59:08Z</time>
      </trkpt>
      <trkpt lat="28.7483450" lon="-17.7356620">
        <ele>222.1</ele>
        <time>2020-11-16T07:59:09Z</time>
      </trkpt>
      <trkpt lat="28.7483380" lon="-17.7356380">
        <ele>222.3</ele>
        <time>2020-11-16T07:59:10Z</time>
      </trkpt>
      <trkpt lat="28.7483380" lon="-17.7356380">
        <ele>222.3</ele>
        <time>2020-11-16T07:59:11Z</time>
      </trkpt>
      <trkpt lat="28.7483200" lon="-17.7355970">
        <ele>222.8</ele>
        <time>2020-11-16T07:59:12Z</time>
      </trkpt>
      <trkpt lat="28.7483200" lon="-17.7355970">
        <ele>222.8</ele>
        <time>2020-11-16T07:59:13Z</time>
      </trkpt>
      <trkpt lat="28.7483030" lon="-17.7355570">
        <ele>223.2</ele>
        <time>2020-11-16T07:59:14Z</time>
      </trkpt>
      <trkpt lat="28.7483030" lon="-17.7355570">
        <ele>223.2</ele>
        <time>2020-11-16T07:59:15Z</time>
      </trkpt>
      <trkpt lat="28.7482820" lon="-17.7355200">
        <ele>223.7</ele>
        <time>2020-11-16T07:59:16Z</time>
      </trkpt>
      <trkpt lat="28.7482820" lon="-17.7355200">
        <ele>223.7</ele>
        <time>2020-11-16T07:59:17Z</time>
      </trkpt>
      <trkpt lat="28.7482550" lon="-17.7354850">
        <ele>224.2</ele>
        <time>2020-11-16T07:59:18Z</time>
      </trkpt>
      <trkpt lat="28.7482400" lon="-17.7354700">
        <ele>224.4</ele>
        <time>2020-11-16T07:59:19Z</time>
      </trkpt>
      <trkpt lat="28.7482400" lon="-17.7354700">
        <ele>224.4</ele>
        <time>2020-11-16T07:59:20Z</time>
      </trkpt>
      <trkpt lat="28.7482070" lon="-17.7354430">
        <ele>224.9</ele>
        <time>2020-11-16T07:59:21Z</time>
      </trkpt>
      <trkpt lat="28.7481900" lon="-17.7354300">
        <ele>225.2</ele>
        <time>2020-11-16T07:59:22Z</time>
      </trkpt>
      <trkpt lat="28.7481900" lon="-17.7354300">
        <ele>225.2</ele>
        <time>2020-11-16T07:59:23Z</time>
      </trkpt>
      <trkpt lat="28.7481530" lon="-17.7354080">
        <ele>225.7</ele>
        <time>2020-11-16T07:59:24Z</time>
      </trkpt>
      <trkpt lat="28.7481530" lon="-17.7354080">
        <ele>225.7</ele>
        <time>2020-11-16T07:59:25Z</time>
      </trkpt>
      <trkpt lat="28.7481170" lon="-17.7353900">
        <ele>226.1</ele>
        <time>2020-11-16T07:59:26Z</time>
      </trkpt>
      <trkpt lat="28.7480980" lon="-17.7353800">
        <ele>226.3</ele>
        <time>2020-11-16T07:59:27Z</time>
      </trkpt>
      <trkpt lat="28.7480980" lon="-17.7353800">
        <ele>226.3</ele>
        <time>2020-11-16T07:59:28Z</time>
      </trkpt>
      <trkpt lat="28.7480620" lon="-17.7353600">
        <ele>226.8</ele>
        <time>2020-11-16T07:59:29Z</time>
      </trkpt>
      <trkpt lat="28.7480620" lon="-17.7353600">
        <ele>226.8</ele>
        <time>2020-11-16T07:59:30Z</time>
      </trkpt>
      <trkpt lat="28.7480270" lon="-17.7353380">
        <ele>227.2</ele>
        <time>2020-11-16T07:59:31Z</time>
      </trkpt>
      <trkpt lat="28.7480100" lon="-17.7353280">
        <ele>227.4</ele>
        <time>2020-11-16T07:59:32Z</time>
      </trkpt>
      <trkpt lat="28.7480100" lon="-17.7353280">
        <ele>227.4</ele>
        <time>2020-11-16T07:59:33Z</time>
      </trkpt>
      <trkpt lat="28.7479700" lon="-17.7353170">
        <ele>227.9</ele>
        <time>2020-11-16T07:59:34Z</time>
      </trkpt>
      <trkpt lat="28.7479700" lon="-17.7353170">
        <ele>227.9</ele>
        <time>2020-11-16T07:59:35Z</time>
      </trkpt>
      <trkpt lat="28.7479320" lon="-17.7353020">
        <ele>228.3</ele>
        <time>2020-11-16T07:59:36Z</time>
      </trkpt>
      <trkpt lat="28.7479320" lon="-17.7353020">
        <ele>228.3</ele>
        <time>2020-11-16T07:59:37Z</time>
      </trkpt>
      <trkpt lat="28.7478900" lon="-17.7352880">
        <ele>228.7</ele>
        <time>2020-11-16T07:59:38Z</time>
      </trkpt>
      <trkpt lat="28.7478900" lon="-17.7352880">
        <ele>228.7</ele>
        <time>2020-11-16T07:59:39Z</time>
      </trkpt>
      <trkpt lat="28.7478530" lon="-17.7352680">
        <ele>229.1</ele>
        <time>2020-11-16T07:59:40Z</time>
      </trkpt>
      <trkpt lat="28.7478530" lon="-17.7352680">
        <ele>229.1</ele>
        <time>2020-11-16T07:59:41Z</time>
      </trkpt>
      <trkpt lat="28.7478130" lon="-17.7352530">
        <ele>229.6</ele>
        <time>2020-11-16T07:59:42Z</time>
      </trkpt>
      <trkpt lat="28.7478130" lon="-17.7352530">
        <ele>229.6</ele>
        <time>2020-11-16T07:59:43Z</time>
      </trkpt>
      <trkpt lat="28.7477730" lon="-17.7352420">
        <ele>230.0</ele>
        <time>2020-11-16T07:59:44Z</time>
      </trkpt>
      <trkpt lat="28.7477730" lon="-17.7352420">
        <ele>230.0</ele>
        <time>2020-11-16T07:59:45Z</time>
      </trkpt>
      <trkpt lat="28.7477330" lon="-17.7352300">
        <ele>230.4</ele>
        <time>2020-11-16T07:59:46Z</time>
      </trkpt>
      <trkpt lat="28.7477330" lon="-17.7352300">
        <ele>230.4</ele>
        <time>2020-11-16T07:59:47Z</time>
      </trkpt>
      <trkpt lat="28.7476930" lon="-17.7352170">
        <ele>230.8</ele>
        <time>2020-11-16T07:59:48Z</time>
      </trkpt>
      <trkpt lat="28.7476930" lon="-17.7352170">
        <ele>230.8</ele>
        <time>2020-11-16T07:59:49Z</time>
      </trkpt>
      <trkpt lat="28.7476520" lon="-17.7352050">
        <ele>231.3</ele>
        <time>2020-11-16T07:59:50Z</time>
      </trkpt>
      <trkpt lat="28.7476520" lon="-17.7352050">
        <ele>231.3</ele>
        <time>2020-11-16T07:59:51Z</time>
      </trkpt>
      <trkpt lat="28.7476130" lon="-17.7351870">
        <ele>231.7</ele>
        <time>2020-11-16T07:59:52Z</time>
      </trkpt>
      <trkpt lat="28.7476130" lon="-17.7351870">
        <ele>231.7</ele>
        <time>2020-11-16T07:59:53Z</time>
      </trkpt>
      <trkpt lat="28.7475700" lon="-17.7351800">
        <ele>232.1</ele>
        <time>2020-11-16T07:59:54Z</time>
      </trkpt>
      <trkpt lat="28.7475700" lon="-17.7351800">
        <ele>232.1</ele>
        <time>2020-11-16T07:59:55Z</time>
      </trkpt>
      <trkpt lat="28.7475270" lon="-17.7351730">
        <ele>232.5</ele>
        <time>2020-11-16T07:59:56Z</time>
      </trkpt>
      <trkpt lat="28.7475270" lon="-17.7351730">
        <ele>232.5</ele>
        <time>2020-11-16T07:59:57Z</time>
      </trkpt>
      <trkpt lat="28.7474850" lon="-17.7351680">
        <ele>233.0</ele>
        <time>2020-11-16T07:59:58Z</time>
      </trkpt>
      <trkpt lat="28.7474850" lon="-17.7351680">
        <ele>233.0</ele>
        <time>2020-11-16T07:59:59Z</time>
      </trkpt>
      <trkpt lat="28.7474450" lon="-17.7351580">
        <ele>233.4</ele>
        <time>2020-11-16T08:00:00Z</time>
      </trkpt>
      <trkpt lat="28.7474450" lon="-17.7351580">
        <ele>233.4</ele>
        <time>2020-11-16T08:00:01Z</time>
      </trkpt>
      <trkpt lat="28.7474030" lon="-17.7351420">
        <ele>233.8</ele>
        <time>2020-11-16T08:00:02Z</time>
      </trkpt>
      <trkpt lat="28.7473830" lon="-17.7351370">
        <ele>234.0</ele>
        <time>2020-11-16T08:00:03Z</time>
      </trkpt>
      <trkpt lat="28.7473830" lon="-17.7351370">
        <ele>234.0</ele>
        <time>2020-11-16T08:00:04Z</time>
      </trkpt>
      <trkpt lat="28.7473400" lon="-17.7351380">
        <ele>234.4</ele>
        <time>2020-11-16T08:00:05Z</time>
      </trkpt>
      <trkpt lat="28.7473400" lon="-17.7351380">
        <ele>234.4</ele>
        <time>2020-11-16T08:00:06Z</time>
      </trkpt>
      <trkpt lat="28.7472970" lon="-17.7351420">
        <ele>234.8</ele>
        <time>2020-11-16T08:00:07Z</time>
      </trkpt>
      <trkpt lat="28.7472970" lon="-17.7351420">
        <ele>234.8</ele>
        <time>2020-11-16T08:00:08Z</time>
      </trkpt>
      <trkpt lat="28.7472570" lon="-17.7351370">
        <ele>235.2</ele>
        <time>2020-11-16T08:00:09Z</time>
      </trkpt>
      <trkpt lat="28.7472370" lon="-17.7351330">
        <ele>235.3</ele>
        <time>2020-11-16T08:00:10Z</time>
      </trkpt>
      <trkpt lat="28.7472370" lon="-17.7351330">
        <ele>235.3</ele>
        <time>2020-11-16T08:00:11Z</time>
      </trkpt>
      <trkpt lat="28.7471870" lon="-17.7351300">
        <ele>235.8</ele>
        <time>2020-11-16T08:00:12Z</time>
      </trkpt>
      <trkpt lat="28.7471870" lon="-17.7351300">
        <ele>235.8</ele>
        <time>2020-11-16T08:00:13Z</time>
      </trkpt>
      <trkpt lat="28.7471380" lon="-17.7351320">
        <ele>236.2</ele>
        <time>2020-11-16T08:00:14Z</time>
      </trkpt>
      <trkpt lat="28.7471380" lon="-17.7351320">
        <ele>236.2</ele>
        <time>2020-11-16T08:00:15Z</time>
      </trkpt>
      <trkpt lat="28.7470920" lon="-17.7351380">
        <ele>236.7</ele>
        <time>2020-11-16T08:00:16Z</time>
      </trkpt>
      <trkpt lat="28.7470920" lon="-17.7351380">
        <ele>236.7</ele>
        <time>2020-11-16T08:00:17Z</time>
      </trkpt>
      <trkpt lat="28.7470470" lon="-17.7351400">
        <ele>237.1</ele>
        <time>2020-11-16T08:00:18Z</time>
      </trkpt>
      <trkpt lat="28.7470250" lon="-17.7351400">
        <ele>237.3</ele>
        <time>2020-11-16T08:00:19Z</time>
      </trkpt>
      <trkpt lat="28.7470250" lon="-17.7351400">
        <ele>237.3</ele>
        <time>2020-11-16T08:00:20Z</time>
      </trkpt>
      <trkpt lat="28.7469800" lon="-17.7351450">
        <ele>237.7</ele>
        <time>2020-11-16T08:00:21Z</time>
      </trkpt>
      <trkpt lat="28.7469580" lon="-17.7351500">
        <ele>237.9</ele>
        <time>2020-11-16T08:00:22Z</time>
      </trkpt>
      <trkpt lat="28.7469580" lon="-17.7351500">
        <ele>237.9</ele>
        <time>2020-11-16T08:00:23Z</time>
      </trkpt>
      <trkpt lat="28.7469130" lon="-17.7351580">
        <ele>238.3</ele>
        <time>2020-11-16T08:00:24Z</time>
      </trkpt>
      <trkpt lat="28.7469130" lon="-17.7351580">
        <ele>238.3</ele>
        <time>2020-11-16T08:00:25Z</time>
      </trkpt>
      <trkpt lat="28.7468700" lon="-17.7351750">
        <ele>238.7</ele>
        <time>2020-11-16T08:00:26Z</time>
      </trkpt>
      <trkpt lat="28.7468700" lon="-17.7351750">
        <ele>238.7</ele>
        <time>2020-11-16T08:00:27Z</time>
      </trkpt>
      <trkpt lat="28.7468250" lon="-17.7351950">
        <ele>239.1</ele>
        <time>2020-11-16T08:00:28Z</time>
      </trkpt>
      <trkpt lat="28.7468250" lon="-17.7351950">
        <ele>239.1</ele>
        <time>2020-11-16T08:00:29Z</time>
      </trkpt>
      <trkpt lat="28.7467800" lon="-17.7352170">
        <ele>239.6</ele>
        <time>2020-11-16T08:00:30Z</time>
      </trkpt>
      <trkpt lat="28.7467570" lon="-17.7352220">
        <ele>239.8</ele>
        <time>2020-11-16T08:00:31Z</time>
      </trkpt>
      <trkpt lat="28.7467320" lon="-17.7352250">
        <ele>240.0</ele>
        <time>2020-11-16T08:00:32Z</time>
      </trkpt>
      <trkpt lat="28.7467320" lon="-17.7352250">
        <ele>240.0</ele>
        <time>2020-11-16T08:00:33Z</time>
      </trkpt>
      <trkpt lat="28.7466850" lon="-17.7352300">
        <ele>240.4</ele>
        <time>2020-11-16T08:00:34Z</time>
      </trkpt>
      <trkpt lat="28.7466630" lon="-17.7352320">
        <ele>240.7</ele>
        <time>2020-11-16T08:00:35Z</time>
      </trkpt>
      <trkpt lat="28.7466630" lon="-17.7352320">
        <ele>240.7</ele>
        <time>2020-11-16T08:00:36Z</time>
      </trkpt>
      <trkpt lat="28.7466170" lon="-17.7352400">
        <ele>241.1</ele>
        <time>2020-11-16T08:00:37Z</time>
      </trkpt>
      <trkpt lat="28.7466170" lon="-17.7352400">
        <ele>241.1</ele>
        <time>2020-11-16T08:00:38Z</time>
      </trkpt>
      <trkpt lat="28.7465700" lon="-17.7352480">
        <ele>241.5</ele>
        <time>2020-11-16T08:00:39Z</time>
      </trkpt>
      <trkpt lat="28.7465700" lon="-17.7352480">
        <ele>241.5</ele>
        <time>2020-11-16T08:00:40Z</time>
      </trkpt>
      <trkpt lat="28.7465230" lon="-17.7352630">
        <ele>242.0</ele>
        <time>2020-11-16T08:00:41Z</time>
      </trkpt>
      <trkpt lat="28.7465230" lon="-17.7352630">
        <ele>242.0</ele>
        <time>2020-11-16T08:00:42Z</time>
      </trkpt>
      <trkpt lat="28.7464800" lon="-17.7352830">
        <ele>242.4</ele>
        <time>2020-11-16T08:00:43Z</time>
      </trkpt>
      <trkpt lat="28.7464800" lon="-17.7352830">
        <ele>242.4</ele>
        <time>2020-11-16T08:00:44Z</time>
      </trkpt>
      <trkpt lat="28.7464370" lon="-17.7353050">
        <ele>242.9</ele>
        <time>2020-11-16T08:00:45Z</time>
      </trkpt>
      <trkpt lat="28.7464370" lon="-17.7353050">
        <ele>242.9</ele>
        <time>2020-11-16T08:00:46Z</time>
      </trkpt>
      <trkpt lat="28.7463920" lon="-17.7353200">
        <ele>243.3</ele>
        <time>2020-11-16T08:00:47Z</time>
      </trkpt>
      <trkpt lat="28.7463700" lon="-17.7353270">
        <ele>243.5</ele>
        <time>2020-11-16T08:00:48Z</time>
      </trkpt>
      <trkpt lat="28.7463700" lon="-17.7353270">
        <ele>243.5</ele>
        <time>2020-11-16T08:00:49Z</time>
      </trkpt>
      <trkpt lat="28.7463280" lon="-17.7353520">
        <ele>244.0</ele>
        <time>2020-11-16T08:00:50Z</time>
      </trkpt>
      <trkpt lat="28.7463070" lon="-17.7353650">
        <ele>244.3</ele>
        <time>2020-11-16T08:00:51Z</time>
      </trkpt>
      <trkpt lat="28.7463070" lon="-17.7353650">
        <ele>244.3</ele>
        <time>2020-11-16T08:00:52Z</time>
      </trkpt>
      <trkpt lat="28.7462670" lon="-17.7353920">
        <ele>244.7</ele>
        <time>2020-11-16T08:00:53Z</time>
      </trkpt>
      <trkpt lat="28.7462470" lon="-17.7354050">
        <ele>245.0</ele>
        <time>2020-11-16T08:00:54Z</time>
      </trkpt>
      <trkpt lat="28.7462470" lon="-17.7354050">
        <ele>245.0</ele>
        <time>2020-11-16T08:00:55Z</time>
      </trkpt>
      <trkpt lat="28.7462050" lon="-17.7354320">
        <ele>245.5</ele>
        <time>2020-11-16T08:00:56Z</time>
      </trkpt>
      <trkpt lat="28.7462050" lon="-17.7354320">
        <ele>245.5</ele>
        <time>2020-11-16T08:00:57Z</time>
      </trkpt>
      <trkpt lat="28.7461620" lon="-17.7354530">
        <ele>245.9</ele>
        <time>2020-11-16T08:00:58Z</time>
      </trkpt>
      <trkpt lat="28.7461620" lon="-17.7354530">
        <ele>245.9</ele>
        <time>2020-11-16T08:00:59Z</time>
      </trkpt>
      <trkpt lat="28.7461200" lon="-17.7354770">
        <ele>246.4</ele>
        <time>2020-11-16T08:01:00Z</time>
      </trkpt>
      <trkpt lat="28.7461200" lon="-17.7354770">
        <ele>246.4</ele>
        <time>2020-11-16T08:01:01Z</time>
      </trkpt>
      <trkpt lat="28.7460780" lon="-17.7354980">
        <ele>246.8</ele>
        <time>2020-11-16T08:01:02Z</time>
      </trkpt>
      <trkpt lat="28.7460780" lon="-17.7354980">
        <ele>246.8</ele>
        <time>2020-11-16T08:01:03Z</time>
      </trkpt>
      <trkpt lat="28.7460380" lon="-17.7355270">
        <ele>247.2</ele>
        <time>2020-11-16T08:01:04Z</time>
      </trkpt>
      <trkpt lat="28.7460380" lon="-17.7355270">
        <ele>247.2</ele>
        <time>2020-11-16T08:01:05Z</time>
      </trkpt>
      <trkpt lat="28.7460000" lon="-17.7355530">
        <ele>247.7</ele>
        <time>2020-11-16T08:01:06Z</time>
      </trkpt>
      <trkpt lat="28.7460000" lon="-17.7355530">
        <ele>247.7</ele>
        <time>2020-11-16T08:01:07Z</time>
      </trkpt>
      <trkpt lat="28.7459600" lon="-17.7355830">
        <ele>248.1</ele>
        <time>2020-11-16T08:01:08Z</time>
      </trkpt>
      <trkpt lat="28.7459600" lon="-17.7355830">
        <ele>248.1</ele>
        <time>2020-11-16T08:01:09Z</time>
      </trkpt>
      <trkpt lat="28.7459180" lon="-17.7356100">
        <ele>248.5</ele>
        <time>2020-11-16T08:01:10Z</time>
      </trkpt>
      <trkpt lat="28.7459000" lon="-17.7356230">
        <ele>248.7</ele>
        <time>2020-11-16T08:01:11Z</time>
      </trkpt>
      <trkpt lat="28.7459000" lon="-17.7356230">
        <ele>248.7</ele>
        <time>2020-11-16T08:01:12Z</time>
      </trkpt>
      <trkpt lat="28.7458630" lon="-17.7356550">
        <ele>249.1</ele>
        <time>2020-11-16T08:01:13Z</time>
      </trkpt>
      <trkpt lat="28.7458470" lon="-17.7356720">
        <ele>249.3</ele>
        <time>2020-11-16T08:01:14Z</time>
      </trkpt>
      <trkpt lat="28.7458470" lon="-17.7356720">
        <ele>249.3</ele>
        <time>2020-11-16T08:01:15Z</time>
      </trkpt>
      <trkpt lat="28.7458150" lon="-17.7357080">
        <ele>249.7</ele>
        <time>2020-11-16T08:01:16Z</time>
      </trkpt>
      <trkpt lat="28.7458150" lon="-17.7357080">
        <ele>249.7</ele>
        <time>2020-11-16T08:01:17Z</time>
      </trkpt>
      <trkpt lat="28.7457880" lon="-17.7357520">
        <ele>250.1</ele>
        <time>2020-11-16T08:01:18Z</time>
      </trkpt>
      <trkpt lat="28.7457880" lon="-17.7357520">
        <ele>250.1</ele>
        <time>2020-11-16T08:01:19Z</time>
      </trkpt>
      <trkpt lat="28.7457570" lon="-17.7357870">
        <ele>250.5</ele>
        <time>2020-11-16T08:01:20Z</time>
      </trkpt>
      <trkpt lat="28.7457570" lon="-17.7357870">
        <ele>250.5</ele>
        <time>2020-11-16T08:01:21Z</time>
      </trkpt>
      <trkpt lat="28.7457200" lon="-17.7358170">
        <ele>250.9</ele>
        <time>2020-11-16T08:01:22Z</time>
      </trkpt>
      <trkpt lat="28.7457030" lon="-17.7358350">
        <ele>251.1</ele>
        <time>2020-11-16T08:01:23Z</time>
      </trkpt>
      <trkpt lat="28.7457030" lon="-17.7358350">
        <ele>251.1</ele>
        <time>2020-11-16T08:01:24Z</time>
      </trkpt>
      <trkpt lat="28.7456780" lon="-17.7358780">
        <ele>251.5</ele>
        <time>2020-11-16T08:01:25Z</time>
      </trkpt>
      <trkpt lat="28.7456650" lon="-17.7358980">
        <ele>251.7</ele>
        <time>2020-11-16T08:01:26Z</time>
      </trkpt>
      <trkpt lat="28.7456650" lon="-17.7358980">
        <ele>251.7</ele>
        <time>2020-11-16T08:01:27Z</time>
      </trkpt>
      <trkpt lat="28.7456320" lon="-17.7359330">
        <ele>252.1</ele>
        <time>2020-11-16T08:01:28Z</time>
      </trkpt>
      <trkpt lat="28.7456320" lon="-17.7359330">
        <ele>252.1</ele>
        <time>2020-11-16T08:01:29Z</time>
      </trkpt>
      <trkpt lat="28.7455980" lon="-17.7359650">
        <ele>252.5</ele>
        <time>2020-11-16T08:01:30Z</time>
      </trkpt>
      <trkpt lat="28.7455980" lon="-17.7359650">
        <ele>252.5</ele>
        <time>2020-11-16T08:01:31Z</time>
      </trkpt>
      <trkpt lat="28.7455670" lon="-17.7360050">
        <ele>253.0</ele>
        <time>2020-11-16T08:01:32Z</time>
      </trkpt>
      <trkpt lat="28.7455670" lon="-17.7360050">
        <ele>253.0</ele>
        <time>2020-11-16T08:01:33Z</time>
      </trkpt>
      <trkpt lat="28.7455380" lon="-17.7360520">
        <ele>253.5</ele>
        <time>2020-11-16T08:01:34Z</time>
      </trkpt>
      <trkpt lat="28.7455380" lon="-17.7360520">
        <ele>253.5</ele>
        <time>2020-11-16T08:01:35Z</time>
      </trkpt>
      <trkpt lat="28.7455130" lon="-17.7360980">
        <ele>254.0</ele>
        <time>2020-11-16T08:01:36Z</time>
      </trkpt>
      <trkpt lat="28.7455130" lon="-17.7360980">
        <ele>254.0</ele>
        <time>2020-11-16T08:01:37Z</time>
      </trkpt>
      <trkpt lat="28.7454900" lon="-17.7361430">
        <ele>254.4</ele>
        <time>2020-11-16T08:01:38Z</time>
      </trkpt>
      <trkpt lat="28.7454900" lon="-17.7361430">
        <ele>254.4</ele>
        <time>2020-11-16T08:01:39Z</time>
      </trkpt>
      <trkpt lat="28.7454680" lon="-17.7361900">
        <ele>254.9</ele>
        <time>2020-11-16T08:01:40Z</time>
      </trkpt>
      <trkpt lat="28.7454600" lon="-17.7362130">
        <ele>255.1</ele>
        <time>2020-11-16T08:01:41Z</time>
      </trkpt>
      <trkpt lat="28.7454600" lon="-17.7362130">
        <ele>255.1</ele>
        <time>2020-11-16T08:01:42Z</time>
      </trkpt>
      <trkpt lat="28.7454430" lon="-17.7362580">
        <ele>255.6</ele>
        <time>2020-11-16T08:01:43Z</time>
      </trkpt>
      <trkpt lat="28.7454430" lon="-17.7362580">
        <ele>255.6</ele>
        <time>2020-11-16T08:01:44Z</time>
      </trkpt>
      <trkpt lat="28.7454250" lon="-17.7363000">
        <ele>256.0</ele>
        <time>2020-11-16T08:01:45Z</time>
      </trkpt>
      <trkpt lat="28.7454170" lon="-17.7363220">
        <ele>256.2</ele>
        <time>2020-11-16T08:01:46Z</time>
      </trkpt>
      <trkpt lat="28.7454170" lon="-17.7363220">
        <ele>256.2</ele>
        <time>2020-11-16T08:01:47Z</time>
      </trkpt>
      <trkpt lat="28.7454050" lon="-17.7363650">
        <ele>256.7</ele>
        <time>2020-11-16T08:01:48Z</time>
      </trkpt>
      <trkpt lat="28.7454050" lon="-17.7363650">
        <ele>256.7</ele>
        <time>2020-11-16T08:01:49Z</time>
      </trkpt>
      <trkpt lat="28.7453980" lon="-17.7364120">
        <ele>257.1</ele>
        <time>2020-11-16T08:01:50Z</time>
      </trkpt>
      <trkpt lat="28.7453980" lon="-17.7364120">
        <ele>257.1</ele>
        <time>2020-11-16T08:01:51Z</time>
      </trkpt>
      <trkpt lat="28.7453870" lon="-17.7364570">
        <ele>257.5</ele>
        <time>2020-11-16T08:01:52Z</time>
      </trkpt>
      <trkpt lat="28.7453870" lon="-17.7364570">
        <ele>257.5</ele>
        <time>2020-11-16T08:01:53Z</time>
      </trkpt>
      <trkpt lat="28.7453720" lon="-17.7365020">
        <ele>257.9</ele>
        <time>2020-11-16T08:01:54Z</time>
      </trkpt>
      <trkpt lat="28.7453650" lon="-17.7365230">
        <ele>258.1</ele>
        <time>2020-11-16T08:01:55Z</time>
      </trkpt>
      <trkpt lat="28.7453650" lon="-17.7365230">
        <ele>258.1</ele>
        <time>2020-11-16T08:01:56Z</time>
      </trkpt>
      <trkpt lat="28.7453530" lon="-17.7365720">
        <ele>258.6</ele>
        <time>2020-11-16T08:01:57Z</time>
      </trkpt>
      <trkpt lat="28.7453530" lon="-17.7365720">
        <ele>258.6</ele>
        <time>2020-11-16T08:01:58Z</time>
      </trkpt>
      <trkpt lat="28.7453450" lon="-17.7366180">
        <ele>259.0</ele>
        <time>2020-11-16T08:01:59Z</time>
      </trkpt>
      <trkpt lat="28.7453450" lon="-17.7366180">
        <ele>259.0</ele>
        <time>2020-11-16T08:02:00Z</time>
      </trkpt>
      <trkpt lat="28.7453400" lon="-17.7366670">
        <ele>259.4</ele>
        <time>2020-11-16T08:02:01Z</time>
      </trkpt>
      <trkpt lat="28.7453330" lon="-17.7366900">
        <ele>259.6</ele>
        <time>2020-11-16T08:02:02Z</time>
      </trkpt>
      <trkpt lat="28.7453330" lon="-17.7366900">
        <ele>259.6</ele>
        <time>2020-11-16T08:02:03Z</time>
      </trkpt>
      <trkpt lat="28.7453230" lon="-17.7367380">
        <ele>260.0</ele>
        <time>2020-11-16T08:02:04Z</time>
      </trkpt>
      <trkpt lat="28.7453230" lon="-17.7367380">
        <ele>260.0</ele>
        <time>2020-11-16T08:02:05Z</time>
      </trkpt>
      <trkpt lat="28.7453120" lon="-17.7367850">
        <ele>260.4</ele>
        <time>2020-11-16T08:02:06Z</time>
      </trkpt>
      <trkpt lat="28.7453120" lon="-17.7367850">
        <ele>260.4</ele>
        <time>2020-11-16T08:02:07Z</time>
      </trkpt>
      <trkpt lat="28.7453070" lon="-17.7368320">
        <ele>260.8</ele>
        <time>2020-11-16T08:02:08Z</time>
      </trkpt>
      <trkpt lat="28.7453070" lon="-17.7368320">
        <ele>260.8</ele>
        <time>2020-11-16T08:02:09Z</time>
      </trkpt>
      <trkpt lat="28.7452970" lon="-17.7368780">
        <ele>261.2</ele>
        <time>2020-11-16T08:02:10Z</time>
      </trkpt>
      <trkpt lat="28.7452970" lon="-17.7368780">
        <ele>261.2</ele>
        <time>2020-11-16T08:02:11Z</time>
      </trkpt>
      <trkpt lat="28.7452850" lon="-17.7369250">
        <ele>261.6</ele>
        <time>2020-11-16T08:02:12Z</time>
      </trkpt>
      <trkpt lat="28.7452850" lon="-17.7369250">
        <ele>261.6</ele>
        <time>2020-11-16T08:02:13Z</time>
      </trkpt>
      <trkpt lat="28.7452730" lon="-17.7369720">
        <ele>262.0</ele>
        <time>2020-11-16T08:02:14Z</time>
      </trkpt>
      <trkpt lat="28.7452730" lon="-17.7369720">
        <ele>262.0</ele>
        <time>2020-11-16T08:02:15Z</time>
      </trkpt>
      <trkpt lat="28.7452630" lon="-17.7370170">
        <ele>262.4</ele>
        <time>2020-11-16T08:02:16Z</time>
      </trkpt>
      <trkpt lat="28.7452630" lon="-17.7370170">
        <ele>262.4</ele>
        <time>2020-11-16T08:02:17Z</time>
      </trkpt>
      <trkpt lat="28.7452580" lon="-17.7370630">
        <ele>262.8</ele>
        <time>2020-11-16T08:02:18Z</time>
      </trkpt>
      <trkpt lat="28.7452580" lon="-17.7370630">
        <ele>262.8</ele>
        <time>2020-11-16T08:02:19Z</time>
      </trkpt>
      <trkpt lat="28.7452500" lon="-17.7371100">
        <ele>263.3</ele>
        <time>2020-11-16T08:02:20Z</time>
      </trkpt>
      <trkpt lat="28.7452500" lon="-17.7371100">
        <ele>263.3</ele>
        <time>2020-11-16T08:02:21Z</time>
      </trkpt>
      <trkpt lat="28.7452420" lon="-17.7371580">
        <ele>263.7</ele>
        <time>2020-11-16T08:02:22Z</time>
      </trkpt>
      <trkpt lat="28.7452350" lon="-17.7371820">
        <ele>263.9</ele>
        <time>2020-11-16T08:02:23Z</time>
      </trkpt>
      <trkpt lat="28.7452350" lon="-17.7371820">
        <ele>263.9</ele>
        <time>2020-11-16T08:02:24Z</time>
      </trkpt>
      <trkpt lat="28.7452250" lon="-17.7372270">
        <ele>264.3</ele>
        <time>2020-11-16T08:02:25Z</time>
      </trkpt>
      <trkpt lat="28.7452250" lon="-17.7372270">
        <ele>264.3</ele>
        <time>2020-11-16T08:02:26Z</time>
      </trkpt>
      <trkpt lat="28.7452170" lon="-17.7372750">
        <ele>264.7</ele>
        <time>2020-11-16T08:02:27Z</time>
      </trkpt>
      <trkpt lat="28.7452170" lon="-17.7372750">
        <ele>264.7</ele>
        <time>2020-11-16T08:02:28Z</time>
      </trkpt>
      <trkpt lat="28.7452050" lon="-17.7373170">
        <ele>265.1</ele>
        <time>2020-11-16T08:02:29Z</time>
      </trkpt>
      <trkpt lat="28.7452050" lon="-17.7373170">
        <ele>265.1</ele>
        <time>2020-11-16T08:02:30Z</time>
      </trkpt>
      <trkpt lat="28.7451900" lon="-17.7373620">
        <ele>265.5</ele>
        <time>2020-11-16T08:02:31Z</time>
      </trkpt>
      <trkpt lat="28.7451900" lon="-17.7373620">
        <ele>265.5</ele>
        <time>2020-11-16T08:02:32Z</time>
      </trkpt>
      <trkpt lat="28.7451750" lon="-17.7374070">
        <ele>265.9</ele>
        <time>2020-11-16T08:02:33Z</time>
      </trkpt>
      <trkpt lat="28.7451650" lon="-17.7374300">
        <ele>266.1</ele>
        <time>2020-11-16T08:02:34Z</time>
      </trkpt>
      <trkpt lat="28.7451650" lon="-17.7374300">
        <ele>266.1</ele>
        <time>2020-11-16T08:02:35Z</time>
      </trkpt>
      <trkpt lat="28.7451430" lon="-17.7374700">
        <ele>266.4</ele>
        <time>2020-11-16T08:02:36Z</time>
      </trkpt>
      <trkpt lat="28.7451430" lon="-17.7374700">
        <ele>266.4</ele>
        <time>2020-11-16T08:02:37Z</time>
      </trkpt>
      <trkpt lat="28.7451170" lon="-17.7375080">
        <ele>266.8</ele>
        <time>2020-11-16T08:02:38Z</time>
      </trkpt>
      <trkpt lat="28.7451170" lon="-17.7375080">
        <ele>266.8</ele>
        <time>2020-11-16T08:02:39Z</time>
      </trkpt>
      <trkpt lat="28.7450870" lon="-17.7375450">
        <ele>267.2</ele>
        <time>2020-11-16T08:02:40Z</time>
      </trkpt>
      <trkpt lat="28.7450670" lon="-17.7375620">
        <ele>267.4</ele>
        <time>2020-11-16T08:02:41Z</time>
      </trkpt>
      <trkpt lat="28.7450670" lon="-17.7375620">
        <ele>267.4</ele>
        <time>2020-11-16T08:02:42Z</time>
      </trkpt>
      <trkpt lat="28.7450280" lon="-17.7375930">
        <ele>267.7</ele>
        <time>2020-11-16T08:02:43Z</time>
      </trkpt>
      <trkpt lat="28.7450280" lon="-17.7375930">
        <ele>267.7</ele>
        <time>2020-11-16T08:02:44Z</time>
      </trkpt>
      <trkpt lat="28.7449870" lon="-17.7376130">
        <ele>268.0</ele>
        <time>2020-11-16T08:02:45Z</time>
      </trkpt>
      <trkpt lat="28.7449630" lon="-17.7376180">
        <ele>268.2</ele>
        <time>2020-11-16T08:02:46Z</time>
      </trkpt>
      <trkpt lat="28.7449630" lon="-17.7376180">
        <ele>268.2</ele>
        <time>2020-11-16T08:02:47Z</time>
      </trkpt>
      <trkpt lat="28.7449170" lon="-17.7376250">
        <ele>268.5</ele>
        <time>2020-11-16T08:02:48Z</time>
      </trkpt>
      <trkpt lat="28.7449170" lon="-17.7376250">
        <ele>268.5</ele>
        <time>2020-11-16T08:02:49Z</time>
      </trkpt>
      <trkpt lat="28.7448700" lon="-17.7376280">
        <ele>268.8</ele>
        <time>2020-11-16T08:02:50Z</time>
      </trkpt>
      <trkpt lat="28.7448700" lon="-17.7376280">
        <ele>268.8</ele>
        <time>2020-11-16T08:02:51Z</time>
      </trkpt>
      <trkpt lat="28.7448270" lon="-17.7376300">
        <ele>269.1</ele>
        <time>2020-11-16T08:02:52Z</time>
      </trkpt>
      <trkpt lat="28.7448050" lon="-17.7376300">
        <ele>269.2</ele>
        <time>2020-11-16T08:02:53Z</time>
      </trkpt>
      <trkpt lat="28.7448050" lon="-17.7376300">
        <ele>269.2</ele>
        <time>2020-11-16T08:02:54Z</time>
      </trkpt>
      <trkpt lat="28.7447580" lon="-17.7376370">
        <ele>269.5</ele>
        <time>2020-11-16T08:02:55Z</time>
      </trkpt>
      <trkpt lat="28.7447370" lon="-17.7376420">
        <ele>269.7</ele>
        <time>2020-11-16T08:02:56Z</time>
      </trkpt>
      <trkpt lat="28.7447370" lon="-17.7376420">
        <ele>269.7</ele>
        <time>2020-11-16T08:02:57Z</time>
      </trkpt>
      <trkpt lat="28.7446920" lon="-17.7376500">
        <ele>270.0</ele>
        <time>2020-11-16T08:02:58Z</time>
      </trkpt>
      <trkpt lat="28.7446920" lon="-17.7376500">
        <ele>270.0</ele>
        <time>2020-11-16T08:02:59Z</time>
      </trkpt>
      <trkpt lat="28.7446470" lon="-17.7376550">
        <ele>270.3</ele>
        <time>2020-11-16T08:03:00Z</time>
      </trkpt>
      <trkpt lat="28.7446250" lon="-17.7376570">
        <ele>270.5</ele>
        <time>2020-11-16T08:03:01Z</time>
      </trkpt>
      <trkpt lat="28.7446250" lon="-17.7376570">
        <ele>270.5</ele>
        <time>2020-11-16T08:03:02Z</time>
      </trkpt>
      <trkpt lat="28.7445820" lon="-17.7376670">
        <ele>270.9</ele>
        <time>2020-11-16T08:03:03Z</time>
      </trkpt>
      <trkpt lat="28.7445600" lon="-17.7376730">
        <ele>271.1</ele>
        <time>2020-11-16T08:03:04Z</time>
      </trkpt>
      <trkpt lat="28.7445600" lon="-17.7376730">
        <ele>271.1</ele>
        <time>2020-11-16T08:03:05Z</time>
      </trkpt>
      <trkpt lat="28.7445170" lon="-17.7376830">
        <ele>271.4</ele>
        <time>2020-11-16T08:03:06Z</time>
      </trkpt>
      <trkpt lat="28.7444950" lon="-17.7376900">
        <ele>271.6</ele>
        <time>2020-11-16T08:03:07Z</time>
      </trkpt>
      <trkpt lat="28.7444950" lon="-17.7376900">
        <ele>271.6</ele>
        <time>2020-11-16T08:03:08Z</time>
      </trkpt>
      <trkpt lat="28.7444520" lon="-17.7376980">
        <ele>272.0</ele>
        <time>2020-11-16T08:03:09Z</time>
      </trkpt>
      <trkpt lat="28.7444520" lon="-17.7376980">
        <ele>272.0</ele>
        <time>2020-11-16T08:03:10Z</time>
      </trkpt>
      <trkpt lat="28.7444080" lon="-17.7377120">
        <ele>272.5</ele>
        <time>2020-11-16T08:03:11Z</time>
      </trkpt>
      <trkpt lat="28.7444080" lon="-17.7377120">
        <ele>272.5</ele>
        <time>2020-11-16T08:03:12Z</time>
      </trkpt>
      <trkpt lat="28.7443670" lon="-17.7377230">
        <ele>272.9</ele>
        <time>2020-11-16T08:03:13Z</time>
      </trkpt>
      <trkpt lat="28.7443670" lon="-17.7377230">
        <ele>272.9</ele>
        <time>2020-11-16T08:03:14Z</time>
      </trkpt>
      <trkpt lat="28.7443230" lon="-17.7377300">
        <ele>273.3</ele>
        <time>2020-11-16T08:03:15Z</time>
      </trkpt>
      <trkpt lat="28.7443230" lon="-17.7377300">
        <ele>273.3</ele>
        <time>2020-11-16T08:03:16Z</time>
      </trkpt>
      <trkpt lat="28.7442820" lon="-17.7377300">
        <ele>273.7</ele>
        <time>2020-11-16T08:03:17Z</time>
      </trkpt>
      <trkpt lat="28.7442820" lon="-17.7377300">
        <ele>273.7</ele>
        <time>2020-11-16T08:03:18Z</time>
      </trkpt>
      <trkpt lat="28.7442380" lon="-17.7377230">
        <ele>274.2</ele>
        <time>2020-11-16T08:03:19Z</time>
      </trkpt>
      <trkpt lat="28.7442380" lon="-17.7377230">
        <ele>274.2</ele>
        <time>2020-11-16T08:03:20Z</time>
      </trkpt>
      <trkpt lat="28.7441950" lon="-17.7377150">
        <ele>274.6</ele>
        <time>2020-11-16T08:03:21Z</time>
      </trkpt>
      <trkpt lat="28.7441750" lon="-17.7377100">
        <ele>274.8</ele>
        <time>2020-11-16T08:03:22Z</time>
      </trkpt>
      <trkpt lat="28.7441750" lon="-17.7377100">
        <ele>274.8</ele>
        <time>2020-11-16T08:03:23Z</time>
      </trkpt>
      <trkpt lat="28.7441330" lon="-17.7376950">
        <ele>275.3</ele>
        <time>2020-11-16T08:03:24Z</time>
      </trkpt>
      <trkpt lat="28.7441330" lon="-17.7376950">
        <ele>275.3</ele>
        <time>2020-11-16T08:03:25Z</time>
      </trkpt>
      <trkpt lat="28.7440950" lon="-17.7376720">
        <ele>275.7</ele>
        <time>2020-11-16T08:03:26Z</time>
      </trkpt>
      <trkpt lat="28.7440950" lon="-17.7376720">
        <ele>275.7</ele>
        <time>2020-11-16T08:03:27Z</time>
      </trkpt>
      <trkpt lat="28.7440570" lon="-17.7376400">
        <ele>276.2</ele>
        <time>2020-11-16T08:03:28Z</time>
      </trkpt>
      <trkpt lat="28.7440570" lon="-17.7376400">
        <ele>276.2</ele>
        <time>2020-11-16T08:03:29Z</time>
      </trkpt>
      <trkpt lat="28.7440220" lon="-17.7376050">
        <ele>276.7</ele>
        <time>2020-11-16T08:03:30Z</time>
      </trkpt>
      <trkpt lat="28.7440050" lon="-17.7375880">
        <ele>276.9</ele>
        <time>2020-11-16T08:03:31Z</time>
      </trkpt>
      <trkpt lat="28.7440050" lon="-17.7375880">
        <ele>276.9</ele>
        <time>2020-11-16T08:03:32Z</time>
      </trkpt>
      <trkpt lat="28.7439750" lon="-17.7375500">
        <ele>277.3</ele>
        <time>2020-11-16T08:03:33Z</time>
      </trkpt>
      <trkpt lat="28.7439650" lon="-17.7375300">
        <ele>277.5</ele>
        <time>2020-11-16T08:03:34Z</time>
      </trkpt>
      <trkpt lat="28.7439650" lon="-17.7375300">
        <ele>277.5</ele>
        <time>2020-11-16T08:03:35Z</time>
      </trkpt>
      <trkpt lat="28.7439470" lon="-17.7374870">
        <ele>277.9</ele>
        <time>2020-11-16T08:03:36Z</time>
      </trkpt>
      <trkpt lat="28.7439470" lon="-17.7374870">
        <ele>277.9</ele>
        <time>2020-11-16T08:03:37Z</time>
      </trkpt>
      <trkpt lat="28.7439320" lon="-17.7374380">
        <ele>278.3</ele>
        <time>2020-11-16T08:03:38Z</time>
      </trkpt>
      <trkpt lat="28.7439320" lon="-17.7374380">
        <ele>278.3</ele>
        <time>2020-11-16T08:03:39Z</time>
      </trkpt>
      <trkpt lat="28.7439170" lon="-17.7373920">
        <ele>278.7</ele>
        <time>2020-11-16T08:03:40Z</time>
      </trkpt>
      <trkpt lat="28.7439170" lon="-17.7373920">
        <ele>278.7</ele>
        <time>2020-11-16T08:03:41Z</time>
      </trkpt>
      <trkpt lat="28.7439030" lon="-17.7373420">
        <ele>279.1</ele>
        <time>2020-11-16T08:03:42Z</time>
      </trkpt>
      <trkpt lat="28.7439030" lon="-17.7373420">
        <ele>279.1</ele>
        <time>2020-11-16T08:03:43Z</time>
      </trkpt>
      <trkpt lat="28.7438970" lon="-17.7372930">
        <ele>279.5</ele>
        <time>2020-11-16T08:03:44Z</time>
      </trkpt>
      <trkpt lat="28.7438970" lon="-17.7372930">
        <ele>279.5</ele>
        <time>2020-11-16T08:03:45Z</time>
      </trkpt>
      <trkpt lat="28.7438930" lon="-17.7372370">
        <ele>279.9</ele>
        <time>2020-11-16T08:03:46Z</time>
      </trkpt>
      <trkpt lat="28.7438930" lon="-17.7372370">
        <ele>279.9</ele>
        <time>2020-11-16T08:03:47Z</time>
      </trkpt>
      <trkpt lat="28.7438920" lon="-17.7371830">
        <ele>280.4</ele>
        <time>2020-11-16T08:03:48Z</time>
      </trkpt>
      <trkpt lat="28.7438900" lon="-17.7371580">
        <ele>280.6</ele>
        <time>2020-11-16T08:03:49Z</time>
      </trkpt>
      <trkpt lat="28.7438900" lon="-17.7371580">
        <ele>280.6</ele>
        <time>2020-11-16T08:03:50Z</time>
      </trkpt>
      <trkpt lat="28.7438920" lon="-17.7371080">
        <ele>281.0</ele>
        <time>2020-11-16T08:03:51Z</time>
      </trkpt>
      <trkpt lat="28.7438920" lon="-17.7371080">
        <ele>281.0</ele>
        <time>2020-11-16T08:03:52Z</time>
      </trkpt>
      <trkpt lat="28.7438930" lon="-17.7370620">
        <ele>281.4</ele>
        <time>2020-11-16T08:03:53Z</time>
      </trkpt>
      <trkpt lat="28.7438970" lon="-17.7370380">
        <ele>281.6</ele>
        <time>2020-11-16T08:03:54Z</time>
      </trkpt>
      <trkpt lat="28.7438970" lon="-17.7370380">
        <ele>281.6</ele>
        <time>2020-11-16T08:03:55Z</time>
      </trkpt>
      <trkpt lat="28.7438980" lon="-17.7369900">
        <ele>282.1</ele>
        <time>2020-11-16T08:03:56Z</time>
      </trkpt>
      <trkpt lat="28.7438980" lon="-17.7369900">
        <ele>282.1</ele>
        <time>2020-11-16T08:03:57Z</time>
      </trkpt>
      <trkpt lat="28.7439020" lon="-17.7369450">
        <ele>282.5</ele>
        <time>2020-11-16T08:03:58Z</time>
      </trkpt>
      <trkpt lat="28.7439030" lon="-17.7369220">
        <ele>282.7</ele>
        <time>2020-11-16T08:03:59Z</time>
      </trkpt>
      <trkpt lat="28.7439030" lon="-17.7368980">
        <ele>282.9</ele>
        <time>2020-11-16T08:04:00Z</time>
      </trkpt>
      <trkpt lat="28.7439030" lon="-17.7368980">
        <ele>282.9</ele>
        <time>2020-11-16T08:04:01Z</time>
      </trkpt>
      <trkpt lat="28.7438930" lon="-17.7368530">
        <ele>283.3</ele>
        <time>2020-11-16T08:04:02Z</time>
      </trkpt>
      <trkpt lat="28.7438880" lon="-17.7368280">
        <ele>283.5</ele>
        <time>2020-11-16T08:04:03Z</time>
      </trkpt>
      <trkpt lat="28.7438880" lon="-17.7368280">
        <ele>283.5</ele>
        <time>2020-11-16T08:04:04Z</time>
      </trkpt>
      <trkpt lat="28.7438820" lon="-17.7367780">
        <ele>284.0</ele>
        <time>2020-11-16T08:04:05Z</time>
      </trkpt>
      <trkpt lat="28.7438780" lon="-17.7367550">
        <ele>284.2</ele>
        <time>2020-11-16T08:04:06Z</time>
      </trkpt>
      <trkpt lat="28.7438780" lon="-17.7367550">
        <ele>284.2</ele>
        <time>2020-11-16T08:04:07Z</time>
      </trkpt>
      <trkpt lat="28.7438680" lon="-17.7367080">
        <ele>284.6</ele>
        <time>2020-11-16T08:04:08Z</time>
      </trkpt>
      <trkpt lat="28.7438630" lon="-17.7366850">
        <ele>284.8</ele>
        <time>2020-11-16T08:04:09Z</time>
      </trkpt>
      <trkpt lat="28.7438630" lon="-17.7366850">
        <ele>284.8</ele>
        <time>2020-11-16T08:04:10Z</time>
      </trkpt>
      <trkpt lat="28.7438500" lon="-17.7366400">
        <ele>285.3</ele>
        <time>2020-11-16T08:04:11Z</time>
      </trkpt>
      <trkpt lat="28.7438380" lon="-17.7366200">
        <ele>285.4</ele>
        <time>2020-11-16T08:04:12Z</time>
      </trkpt>
      <trkpt lat="28.7438380" lon="-17.7366200">
        <ele>285.4</ele>
        <time>2020-11-16T08:04:13Z</time>
      </trkpt>
      <trkpt lat="28.7438180" lon="-17.7365770">
        <ele>285.7</ele>
        <time>2020-11-16T08:04:14Z</time>
      </trkpt>
      <trkpt lat="28.7438180" lon="-17.7365770">
        <ele>285.7</ele>
        <time>2020-11-16T08:04:15Z</time>
      </trkpt>
      <trkpt lat="28.7438020" lon="-17.7365320">
        <ele>286.0</ele>
        <time>2020-11-16T08:04:16Z</time>
      </trkpt>
      <trkpt lat="28.7438020" lon="-17.7365320">
        <ele>286.0</ele>
        <time>2020-11-16T08:04:17Z</time>
      </trkpt>
      <trkpt lat="28.7437850" lon="-17.7364880">
        <ele>286.3</ele>
        <time>2020-11-16T08:04:18Z</time>
      </trkpt>
      <trkpt lat="28.7437850" lon="-17.7364880">
        <ele>286.3</ele>
        <time>2020-11-16T08:04:19Z</time>
      </trkpt>
      <trkpt lat="28.7437570" lon="-17.7364520">
        <ele>286.6</ele>
        <time>2020-11-16T08:04:20Z</time>
      </trkpt>
      <trkpt lat="28.7437570" lon="-17.7364520">
        <ele>286.6</ele>
        <time>2020-11-16T08:04:21Z</time>
      </trkpt>
      <trkpt lat="28.7437300" lon="-17.7364130">
        <ele>286.9</ele>
        <time>2020-11-16T08:04:22Z</time>
      </trkpt>
      <trkpt lat="28.7437170" lon="-17.7363970">
        <ele>287.0</ele>
        <time>2020-11-16T08:04:23Z</time>
      </trkpt>
      <trkpt lat="28.7437170" lon="-17.7363970">
        <ele>287.0</ele>
        <time>2020-11-16T08:04:24Z</time>
      </trkpt>
      <trkpt lat="28.7436930" lon="-17.7363570">
        <ele>287.3</ele>
        <time>2020-11-16T08:04:25Z</time>
      </trkpt>
      <trkpt lat="28.7436820" lon="-17.7363370">
        <ele>287.5</ele>
        <time>2020-11-16T08:04:26Z</time>
      </trkpt>
      <trkpt lat="28.7436820" lon="-17.7363370">
        <ele>287.5</ele>
        <time>2020-11-16T08:04:27Z</time>
      </trkpt>
      <trkpt lat="28.7436550" lon="-17.7362980">
        <ele>287.8</ele>
        <time>2020-11-16T08:04:28Z</time>
      </trkpt>
      <trkpt lat="28.7436550" lon="-17.7362980">
        <ele>287.8</ele>
        <time>2020-11-16T08:04:29Z</time>
      </trkpt>
      <trkpt lat="28.7436320" lon="-17.7362580">
        <ele>288.1</ele>
        <time>2020-11-16T08:04:30Z</time>
      </trkpt>
      <trkpt lat="28.7436320" lon="-17.7362580">
        <ele>288.1</ele>
        <time>2020-11-16T08:04:31Z</time>
      </trkpt>
      <trkpt lat="28.7436100" lon="-17.7362180">
        <ele>288.5</ele>
        <time>2020-11-16T08:04:32Z</time>
      </trkpt>
      <trkpt lat="28.7436100" lon="-17.7362180">
        <ele>288.5</ele>
        <time>2020-11-16T08:04:33Z</time>
      </trkpt>
      <trkpt lat="28.7435830" lon="-17.7361800">
        <ele>288.8</ele>
        <time>2020-11-16T08:04:34Z</time>
      </trkpt>
      <trkpt lat="28.7435830" lon="-17.7361800">
        <ele>288.8</ele>
        <time>2020-11-16T08:04:35Z</time>
      </trkpt>
      <trkpt lat="28.7435620" lon="-17.7361420">
        <ele>289.1</ele>
        <time>2020-11-16T08:04:36Z</time>
      </trkpt>
      <trkpt lat="28.7435620" lon="-17.7361420">
        <ele>289.1</ele>
        <time>2020-11-16T08:04:37Z</time>
      </trkpt>
      <trkpt lat="28.7435370" lon="-17.7361050">
        <ele>289.5</ele>
        <time>2020-11-16T08:04:38Z</time>
      </trkpt>
      <trkpt lat="28.7435370" lon="-17.7361050">
        <ele>289.5</ele>
        <time>2020-11-16T08:04:39Z</time>
      </trkpt>
      <trkpt lat="28.7435070" lon="-17.7360780">
        <ele>289.8</ele>
        <time>2020-11-16T08:04:40Z</time>
      </trkpt>
      <trkpt lat="28.7435070" lon="-17.7360780">
        <ele>289.8</ele>
        <time>2020-11-16T08:04:41Z</time>
      </trkpt>
      <trkpt lat="28.7434750" lon="-17.7360530">
        <ele>290.0</ele>
        <time>2020-11-16T08:04:42Z</time>
      </trkpt>
      <trkpt lat="28.7434750" lon="-17.7360530">
        <ele>290.0</ele>
        <time>2020-11-16T08:04:43Z</time>
      </trkpt>
      <trkpt lat="28.7434420" lon="-17.7360230">
        <ele>290.4</ele>
        <time>2020-11-16T08:04:44Z</time>
      </trkpt>
      <trkpt lat="28.7434420" lon="-17.7360230">
        <ele>290.4</ele>
        <time>2020-11-16T08:04:45Z</time>
      </trkpt>
      <trkpt lat="28.7434050" lon="-17.7360030">
        <ele>290.6</ele>
        <time>2020-11-16T08:04:46Z</time>
      </trkpt>
      <trkpt lat="28.7434050" lon="-17.7360030">
        <ele>290.6</ele>
        <time>2020-11-16T08:04:47Z</time>
      </trkpt>
      <trkpt lat="28.7433670" lon="-17.7359850">
        <ele>290.9</ele>
        <time>2020-11-16T08:04:48Z</time>
      </trkpt>
      <trkpt lat="28.7433670" lon="-17.7359850">
        <ele>290.9</ele>
        <time>2020-11-16T08:04:49Z</time>
      </trkpt>
      <trkpt lat="28.7433270" lon="-17.7359700">
        <ele>291.2</ele>
        <time>2020-11-16T08:04:50Z</time>
      </trkpt>
      <trkpt lat="28.7433270" lon="-17.7359700">
        <ele>291.2</ele>
        <time>2020-11-16T08:04:51Z</time>
      </trkpt>
      <trkpt lat="28.7432880" lon="-17.7359570">
        <ele>291.5</ele>
        <time>2020-11-16T08:04:52Z</time>
      </trkpt>
      <trkpt lat="28.7432700" lon="-17.7359500">
        <ele>291.6</ele>
        <time>2020-11-16T08:04:53Z</time>
      </trkpt>
      <trkpt lat="28.7432700" lon="-17.7359500">
        <ele>291.6</ele>
        <time>2020-11-16T08:04:54Z</time>
      </trkpt>
      <trkpt lat="28.7432300" lon="-17.7359400">
        <ele>292.0</ele>
        <time>2020-11-16T08:04:55Z</time>
      </trkpt>
      <trkpt lat="28.7432080" lon="-17.7359370">
        <ele>292.2</ele>
        <time>2020-11-16T08:04:56Z</time>
      </trkpt>
      <trkpt lat="28.7432080" lon="-17.7359370">
        <ele>292.2</ele>
        <time>2020-11-16T08:04:57Z</time>
      </trkpt>
      <trkpt lat="28.7431700" lon="-17.7359230">
        <ele>292.5</ele>
        <time>2020-11-16T08:04:58Z</time>
      </trkpt>
      <trkpt lat="28.7431520" lon="-17.7359180">
        <ele>292.7</ele>
        <time>2020-11-16T08:04:59Z</time>
      </trkpt>
      <trkpt lat="28.7431520" lon="-17.7359180">
        <ele>292.7</ele>
        <time>2020-11-16T08:05:00Z</time>
      </trkpt>
      <trkpt lat="28.7431100" lon="-17.7359120">
        <ele>293.0</ele>
        <time>2020-11-16T08:05:01Z</time>
      </trkpt>
      <trkpt lat="28.7431100" lon="-17.7359120">
        <ele>293.0</ele>
        <time>2020-11-16T08:05:02Z</time>
      </trkpt>
      <trkpt lat="28.7430700" lon="-17.7359050">
        <ele>293.4</ele>
        <time>2020-11-16T08:05:03Z</time>
      </trkpt>
      <trkpt lat="28.7430480" lon="-17.7359020">
        <ele>293.5</ele>
        <time>2020-11-16T08:05:04Z</time>
      </trkpt>
      <trkpt lat="28.7430480" lon="-17.7359020">
        <ele>293.5</ele>
        <time>2020-11-16T08:05:05Z</time>
      </trkpt>
      <trkpt lat="28.7430070" lon="-17.7359050">
        <ele>293.9</ele>
        <time>2020-11-16T08:05:06Z</time>
      </trkpt>
      <trkpt lat="28.7430070" lon="-17.7359050">
        <ele>293.9</ele>
        <time>2020-11-16T08:05:07Z</time>
      </trkpt>
      <trkpt lat="28.7429650" lon="-17.7359030">
        <ele>294.2</ele>
        <time>2020-11-16T08:05:08Z</time>
      </trkpt>
      <trkpt lat="28.7429650" lon="-17.7359030">
        <ele>294.2</ele>
        <time>2020-11-16T08:05:09Z</time>
      </trkpt>
      <trkpt lat="28.7429230" lon="-17.7359050">
        <ele>294.5</ele>
        <time>2020-11-16T08:05:10Z</time>
      </trkpt>
      <trkpt lat="28.7429230" lon="-17.7359050">
        <ele>294.5</ele>
        <time>2020-11-16T08:05:11Z</time>
      </trkpt>
      <trkpt lat="28.7428820" lon="-17.7359080">
        <ele>294.8</ele>
        <time>2020-11-16T08:05:12Z</time>
      </trkpt>
      <trkpt lat="28.7428820" lon="-17.7359080">
        <ele>294.8</ele>
        <time>2020-11-16T08:05:13Z</time>
      </trkpt>
      <trkpt lat="28.7428400" lon="-17.7359180">
        <ele>295.1</ele>
        <time>2020-11-16T08:05:14Z</time>
      </trkpt>
      <trkpt lat="28.7428400" lon="-17.7359180">
        <ele>295.1</ele>
        <time>2020-11-16T08:05:15Z</time>
      </trkpt>
      <trkpt lat="28.7427980" lon="-17.7359330">
        <ele>295.4</ele>
        <time>2020-11-16T08:05:16Z</time>
      </trkpt>
      <trkpt lat="28.7427980" lon="-17.7359330">
        <ele>295.4</ele>
        <time>2020-11-16T08:05:17Z</time>
      </trkpt>
      <trkpt lat="28.7427550" lon="-17.7359520">
        <ele>295.6</ele>
        <time>2020-11-16T08:05:18Z</time>
      </trkpt>
      <trkpt lat="28.7427550" lon="-17.7359520">
        <ele>295.6</ele>
        <time>2020-11-16T08:05:19Z</time>
      </trkpt>
      <trkpt lat="28.7427120" lon="-17.7359700">
        <ele>295.9</ele>
        <time>2020-11-16T08:05:20Z</time>
      </trkpt>
      <trkpt lat="28.7427120" lon="-17.7359700">
        <ele>295.9</ele>
        <time>2020-11-16T08:05:21Z</time>
      </trkpt>
      <trkpt lat="28.7426700" lon="-17.7359830">
        <ele>296.1</ele>
        <time>2020-11-16T08:05:22Z</time>
      </trkpt>
      <trkpt lat="28.7426480" lon="-17.7359920">
        <ele>296.2</ele>
        <time>2020-11-16T08:05:23Z</time>
      </trkpt>
      <trkpt lat="28.7426480" lon="-17.7359920">
        <ele>296.2</ele>
        <time>2020-11-16T08:05:24Z</time>
      </trkpt>
      <trkpt lat="28.7426080" lon="-17.7360080">
        <ele>296.4</ele>
        <time>2020-11-16T08:05:25Z</time>
      </trkpt>
      <trkpt lat="28.7426080" lon="-17.7360080">
        <ele>296.4</ele>
        <time>2020-11-16T08:05:26Z</time>
      </trkpt>
      <trkpt lat="28.7425680" lon="-17.7360300">
        <ele>296.6</ele>
        <time>2020-11-16T08:05:27Z</time>
      </trkpt>
      <trkpt lat="28.7425680" lon="-17.7360300">
        <ele>296.6</ele>
        <time>2020-11-16T08:05:28Z</time>
      </trkpt>
      <trkpt lat="28.7425300" lon="-17.7360530">
        <ele>296.8</ele>
        <time>2020-11-16T08:05:29Z</time>
      </trkpt>
      <trkpt lat="28.7425080" lon="-17.7360580">
        <ele>296.9</ele>
        <time>2020-11-16T08:05:30Z</time>
      </trkpt>
      <trkpt lat="28.7425080" lon="-17.7360580">
        <ele>296.9</ele>
        <time>2020-11-16T08:05:31Z</time>
      </trkpt>
      <trkpt lat="28.7424680" lon="-17.7360730">
        <ele>297.1</ele>
        <time>2020-11-16T08:05:32Z</time>
      </trkpt>
      <trkpt lat="28.7424680" lon="-17.7360730">
        <ele>297.1</ele>
        <time>2020-11-16T08:05:33Z</time>
      </trkpt>
      <trkpt lat="28.7424280" lon="-17.7360920">
        <ele>297.3</ele>
        <time>2020-11-16T08:05:34Z</time>
      </trkpt>
      <trkpt lat="28.7424080" lon="-17.7361020">
        <ele>297.4</ele>
        <time>2020-11-16T08:05:35Z</time>
      </trkpt>
      <trkpt lat="28.7424080" lon="-17.7361020">
        <ele>297.4</ele>
        <time>2020-11-16T08:05:36Z</time>
      </trkpt>
      <trkpt lat="28.7423720" lon="-17.7361230">
        <ele>297.7</ele>
        <time>2020-11-16T08:05:37Z</time>
      </trkpt>
      <trkpt lat="28.7423530" lon="-17.7361350">
        <ele>297.8</ele>
        <time>2020-11-16T08:05:38Z</time>
      </trkpt>
      <trkpt lat="28.7423530" lon="-17.7361350">
        <ele>297.8</ele>
        <time>2020-11-16T08:05:39Z</time>
      </trkpt>
      <trkpt lat="28.7423180" lon="-17.7361630">
        <ele>298.0</ele>
        <time>2020-11-16T08:05:40Z</time>
      </trkpt>
      <trkpt lat="28.7423180" lon="-17.7361630">
        <ele>298.0</ele>
        <time>2020-11-16T08:05:41Z</time>
      </trkpt>
      <trkpt lat="28.7422830" lon="-17.7361870">
        <ele>298.2</ele>
        <time>2020-11-16T08:05:42Z</time>
      </trkpt>
      <trkpt lat="28.7422830" lon="-17.7361870">
        <ele>298.2</ele>
        <time>2020-11-16T08:05:43Z</time>
      </trkpt>
      <trkpt lat="28.7422420" lon="-17.7362050">
        <ele>298.5</ele>
        <time>2020-11-16T08:05:44Z</time>
      </trkpt>
      <trkpt lat="28.7422420" lon="-17.7362050">
        <ele>298.5</ele>
        <time>2020-11-16T08:05:45Z</time>
      </trkpt>
      <trkpt lat="28.7422030" lon="-17.7362270">
        <ele>298.8</ele>
        <time>2020-11-16T08:05:46Z</time>
      </trkpt>
      <trkpt lat="28.7422030" lon="-17.7362270">
        <ele>298.8</ele>
        <time>2020-11-16T08:05:47Z</time>
      </trkpt>
      <trkpt lat="28.7421680" lon="-17.7362530">
        <ele>299.1</ele>
        <time>2020-11-16T08:05:48Z</time>
      </trkpt>
      <trkpt lat="28.7421680" lon="-17.7362530">
        <ele>299.1</ele>
        <time>2020-11-16T08:05:49Z</time>
      </trkpt>
      <trkpt lat="28.7421350" lon="-17.7362830">
        <ele>299.4</ele>
        <time>2020-11-16T08:05:50Z</time>
      </trkpt>
      <trkpt lat="28.7421350" lon="-17.7362830">
        <ele>299.4</ele>
        <time>2020-11-16T08:05:51Z</time>
      </trkpt>
      <trkpt lat="28.7421070" lon="-17.7363170">
        <ele>299.7</ele>
        <time>2020-11-16T08:05:52Z</time>
      </trkpt>
      <trkpt lat="28.7421070" lon="-17.7363170">
        <ele>299.7</ele>
        <time>2020-11-16T08:05:53Z</time>
      </trkpt>
      <trkpt lat="28.7420820" lon="-17.7363500">
        <ele>299.9</ele>
        <time>2020-11-16T08:05:54Z</time>
      </trkpt>
      <trkpt lat="28.7420720" lon="-17.7363680">
        <ele>300.0</ele>
        <time>2020-11-16T08:05:55Z</time>
      </trkpt>
      <trkpt lat="28.7420620" lon="-17.7363900">
        <ele>300.2</ele>
        <time>2020-11-16T08:05:56Z</time>
      </trkpt>
      <trkpt lat="28.7420620" lon="-17.7363900">
        <ele>300.2</ele>
        <time>2020-11-16T08:05:57Z</time>
      </trkpt>
      <trkpt lat="28.7420450" lon="-17.7364330">
        <ele>300.5</ele>
        <time>2020-11-16T08:05:58Z</time>
      </trkpt>
      <trkpt lat="28.7420380" lon="-17.7364570">
        <ele>300.6</ele>
        <time>2020-11-16T08:05:59Z</time>
      </trkpt>
      <trkpt lat="28.7420380" lon="-17.7364570">
        <ele>300.6</ele>
        <time>2020-11-16T08:06:00Z</time>
      </trkpt>
      <trkpt lat="28.7420230" lon="-17.7365050">
        <ele>300.9</ele>
        <time>2020-11-16T08:06:01Z</time>
      </trkpt>
      <trkpt lat="28.7420200" lon="-17.7365280">
        <ele>301.0</ele>
        <time>2020-11-16T08:06:02Z</time>
      </trkpt>
      <trkpt lat="28.7420200" lon="-17.7365280">
        <ele>301.0</ele>
        <time>2020-11-16T08:06:03Z</time>
      </trkpt>
      <trkpt lat="28.7420070" lon="-17.7365750">
        <ele>301.3</ele>
        <time>2020-11-16T08:06:04Z</time>
      </trkpt>
      <trkpt lat="28.7420070" lon="-17.7365750">
        <ele>301.3</ele>
        <time>2020-11-16T08:06:05Z</time>
      </trkpt>
      <trkpt lat="28.7419970" lon="-17.7366220">
        <ele>301.5</ele>
        <time>2020-11-16T08:06:06Z</time>
      </trkpt>
      <trkpt lat="28.7419970" lon="-17.7366220">
        <ele>301.5</ele>
        <time>2020-11-16T08:06:07Z</time>
      </trkpt>
      <trkpt lat="28.7419880" lon="-17.7366680">
        <ele>301.8</ele>
        <time>2020-11-16T08:06:08Z</time>
      </trkpt>
      <trkpt lat="28.7419880" lon="-17.7366680">
        <ele>301.8</ele>
        <time>2020-11-16T08:06:09Z</time>
      </trkpt>
      <trkpt lat="28.7419820" lon="-17.7367150">
        <ele>302.0</ele>
        <time>2020-11-16T08:06:10Z</time>
      </trkpt>
      <trkpt lat="28.7419820" lon="-17.7367150">
        <ele>302.0</ele>
        <time>2020-11-16T08:06:11Z</time>
      </trkpt>
      <trkpt lat="28.7419800" lon="-17.7367650">
        <ele>302.2</ele>
        <time>2020-11-16T08:06:12Z</time>
      </trkpt>
      <trkpt lat="28.7419800" lon="-17.7367900">
        <ele>302.3</ele>
        <time>2020-11-16T08:06:13Z</time>
      </trkpt>
      <trkpt lat="28.7419800" lon="-17.7367900">
        <ele>302.3</ele>
        <time>2020-11-16T08:06:14Z</time>
      </trkpt>
      <trkpt lat="28.7419780" lon="-17.7368380">
        <ele>302.5</ele>
        <time>2020-11-16T08:06:15Z</time>
      </trkpt>
      <trkpt lat="28.7419780" lon="-17.7368380">
        <ele>302.5</ele>
        <time>2020-11-16T08:06:16Z</time>
      </trkpt>
      <trkpt lat="28.7419780" lon="-17.7368850">
        <ele>302.7</ele>
        <time>2020-11-16T08:06:17Z</time>
      </trkpt>
      <trkpt lat="28.7419750" lon="-17.7369100">
        <ele>302.8</ele>
        <time>2020-11-16T08:06:18Z</time>
      </trkpt>
      <trkpt lat="28.7419750" lon="-17.7369100">
        <ele>302.8</ele>
        <time>2020-11-16T08:06:19Z</time>
      </trkpt>
      <trkpt lat="28.7419670" lon="-17.7369600">
        <ele>303.0</ele>
        <time>2020-11-16T08:06:20Z</time>
      </trkpt>
      <trkpt lat="28.7419670" lon="-17.7369600">
        <ele>303.0</ele>
        <time>2020-11-16T08:06:21Z</time>
      </trkpt>
      <trkpt lat="28.7419600" lon="-17.7370080">
        <ele>303.3</ele>
        <time>2020-11-16T08:06:22Z</time>
      </trkpt>
      <trkpt lat="28.7419620" lon="-17.7370320">
        <ele>303.4</ele>
        <time>2020-11-16T08:06:23Z</time>
      </trkpt>
      <trkpt lat="28.7419650" lon="-17.7370570">
        <ele>303.5</ele>
        <time>2020-11-16T08:06:24Z</time>
      </trkpt>
      <trkpt lat="28.7419650" lon="-17.7370570">
        <ele>303.5</ele>
        <time>2020-11-16T08:06:25Z</time>
      </trkpt>
      <trkpt lat="28.7419700" lon="-17.7371070">
        <ele>303.7</ele>
        <time>2020-11-16T08:06:26Z</time>
      </trkpt>
      <trkpt lat="28.7419700" lon="-17.7371070">
        <ele>303.7</ele>
        <time>2020-11-16T08:06:27Z</time>
      </trkpt>
      <trkpt lat="28.7419700" lon="-17.7371550">
        <ele>303.9</ele>
        <time>2020-11-16T08:06:28Z</time>
      </trkpt>
      <trkpt lat="28.7419720" lon="-17.7371800">
        <ele>304.0</ele>
        <time>2020-11-16T08:06:29Z</time>
      </trkpt>
      <trkpt lat="28.7419720" lon="-17.7371800">
        <ele>304.0</ele>
        <time>2020-11-16T08:06:30Z</time>
      </trkpt>
      <trkpt lat="28.7419750" lon="-17.7372300">
        <ele>304.3</ele>
        <time>2020-11-16T08:06:31Z</time>
      </trkpt>
      <trkpt lat="28.7419750" lon="-17.7372300">
        <ele>304.3</ele>
        <time>2020-11-16T08:06:32Z</time>
      </trkpt>
      <trkpt lat="28.7419800" lon="-17.7372780">
        <ele>304.5</ele>
        <time>2020-11-16T08:06:33Z</time>
      </trkpt>
      <trkpt lat="28.7419830" lon="-17.7373030">
        <ele>304.6</ele>
        <time>2020-11-16T08:06:34Z</time>
      </trkpt>
      <trkpt lat="28.7419830" lon="-17.7373030">
        <ele>304.6</ele>
        <time>2020-11-16T08:06:35Z</time>
      </trkpt>
      <trkpt lat="28.7419920" lon="-17.7373520">
        <ele>304.9</ele>
        <time>2020-11-16T08:06:36Z</time>
      </trkpt>
      <trkpt lat="28.7419920" lon="-17.7373520">
        <ele>304.9</ele>
        <time>2020-11-16T08:06:37Z</time>
      </trkpt>
      <trkpt lat="28.7420030" lon="-17.7374020">
        <ele>305.1</ele>
        <time>2020-11-16T08:06:38Z</time>
      </trkpt>
      <trkpt lat="28.7420030" lon="-17.7374020">
        <ele>305.1</ele>
        <time>2020-11-16T08:06:39Z</time>
      </trkpt>
      <trkpt lat="28.7420070" lon="-17.7374480">
        <ele>305.4</ele>
        <time>2020-11-16T08:06:40Z</time>
      </trkpt>
      <trkpt lat="28.7420070" lon="-17.7374480">
        <ele>305.4</ele>
        <time>2020-11-16T08:06:41Z</time>
      </trkpt>
      <trkpt lat="28.7420120" lon="-17.7374970">
        <ele>305.6</ele>
        <time>2020-11-16T08:06:42Z</time>
      </trkpt>
      <trkpt lat="28.7420120" lon="-17.7374970">
        <ele>305.6</ele>
        <time>2020-11-16T08:06:43Z</time>
      </trkpt>
      <trkpt lat="28.7420230" lon="-17.7375430">
        <ele>305.9</ele>
        <time>2020-11-16T08:06:44Z</time>
      </trkpt>
      <trkpt lat="28.7420230" lon="-17.7375430">
        <ele>305.9</ele>
        <time>2020-11-16T08:06:45Z</time>
      </trkpt>
      <trkpt lat="28.7420350" lon="-17.7375920">
        <ele>306.2</ele>
        <time>2020-11-16T08:06:46Z</time>
      </trkpt>
      <trkpt lat="28.7420350" lon="-17.7375920">
        <ele>306.2</ele>
        <time>2020-11-16T08:06:47Z</time>
      </trkpt>
      <trkpt lat="28.7420520" lon="-17.7376380">
        <ele>306.4</ele>
        <time>2020-11-16T08:06:48Z</time>
      </trkpt>
      <trkpt lat="28.7420580" lon="-17.7376620">
        <ele>306.6</ele>
        <time>2020-11-16T08:06:49Z</time>
      </trkpt>
      <trkpt lat="28.7420680" lon="-17.7376850">
        <ele>306.7</ele>
        <time>2020-11-16T08:06:50Z</time>
      </trkpt>
      <trkpt lat="28.7420680" lon="-17.7376850">
        <ele>306.7</ele>
        <time>2020-11-16T08:06:51Z</time>
      </trkpt>
      <trkpt lat="28.7420820" lon="-17.7377330">
        <ele>307.0</ele>
        <time>2020-11-16T08:06:52Z</time>
      </trkpt>
      <trkpt lat="28.7420820" lon="-17.7377330">
        <ele>307.0</ele>
        <time>2020-11-16T08:06:53Z</time>
      </trkpt>
      <trkpt lat="28.7420980" lon="-17.7377800">
        <ele>307.2</ele>
        <time>2020-11-16T08:06:54Z</time>
      </trkpt>
      <trkpt lat="28.7420980" lon="-17.7377800">
        <ele>307.2</ele>
        <time>2020-11-16T08:06:55Z</time>
      </trkpt>
      <trkpt lat="28.7421250" lon="-17.7378200">
        <ele>307.5</ele>
        <time>2020-11-16T08:06:56Z</time>
      </trkpt>
      <trkpt lat="28.7421250" lon="-17.7378200">
        <ele>307.5</ele>
        <time>2020-11-16T08:06:57Z</time>
      </trkpt>
      <trkpt lat="28.7421520" lon="-17.7378600">
        <ele>307.8</ele>
        <time>2020-11-16T08:06:58Z</time>
      </trkpt>
      <trkpt lat="28.7421520" lon="-17.7378600">
        <ele>307.8</ele>
        <time>2020-11-16T08:06:59Z</time>
      </trkpt>
      <trkpt lat="28.7421800" lon="-17.7379000">
        <ele>308.0</ele>
        <time>2020-11-16T08:07:00Z</time>
      </trkpt>
      <trkpt lat="28.7421930" lon="-17.7379200">
        <ele>308.2</ele>
        <time>2020-11-16T08:07:01Z</time>
      </trkpt>
      <trkpt lat="28.7421930" lon="-17.7379200">
        <ele>308.2</ele>
        <time>2020-11-16T08:07:02Z</time>
      </trkpt>
      <trkpt lat="28.7422200" lon="-17.7379620">
        <ele>308.4</ele>
        <time>2020-11-16T08:07:03Z</time>
      </trkpt>
      <trkpt lat="28.7422350" lon="-17.7379830">
        <ele>308.5</ele>
        <time>2020-11-16T08:07:04Z</time>
      </trkpt>
      <trkpt lat="28.7422350" lon="-17.7379830">
        <ele>308.5</ele>
        <time>2020-11-16T08:07:05Z</time>
      </trkpt>
      <trkpt lat="28.7422650" lon="-17.7380230">
        <ele>308.8</ele>
        <time>2020-11-16T08:07:06Z</time>
      </trkpt>
      <trkpt lat="28.7422650" lon="-17.7380230">
        <ele>308.8</ele>
        <time>2020-11-16T08:07:07Z</time>
      </trkpt>
      <trkpt lat="28.7422930" lon="-17.7380630">
        <ele>309.1</ele>
        <time>2020-11-16T08:07:08Z</time>
      </trkpt>
      <trkpt lat="28.7422930" lon="-17.7380630">
        <ele>309.1</ele>
        <time>2020-11-16T08:07:09Z</time>
      </trkpt>
      <trkpt lat="28.7423200" lon="-17.7381050">
        <ele>309.3</ele>
        <time>2020-11-16T08:07:10Z</time>
      </trkpt>
      <trkpt lat="28.7423200" lon="-17.7381050">
        <ele>309.3</ele>
        <time>2020-11-16T08:07:11Z</time>
      </trkpt>
      <trkpt lat="28.7423450" lon="-17.7381470">
        <ele>309.5</ele>
        <time>2020-11-16T08:07:12Z</time>
      </trkpt>
      <trkpt lat="28.7423580" lon="-17.7381670">
        <ele>309.7</ele>
        <time>2020-11-16T08:07:13Z</time>
      </trkpt>
      <trkpt lat="28.7423730" lon="-17.7381850">
        <ele>309.8</ele>
        <time>2020-11-16T08:07:14Z</time>
      </trkpt>
      <trkpt lat="28.7423730" lon="-17.7381850">
        <ele>309.8</ele>
        <time>2020-11-16T08:07:15Z</time>
      </trkpt>
      <trkpt lat="28.7424020" lon="-17.7382250">
        <ele>310.0</ele>
        <time>2020-11-16T08:07:16Z</time>
      </trkpt>
      <trkpt lat="28.7424020" lon="-17.7382250">
        <ele>310.0</ele>
        <time>2020-11-16T08:07:17Z</time>
      </trkpt>
      <trkpt lat="28.7424270" lon="-17.7382650">
        <ele>310.3</ele>
        <time>2020-11-16T08:07:18Z</time>
      </trkpt>
      <trkpt lat="28.7424420" lon="-17.7382850">
        <ele>310.4</ele>
        <time>2020-11-16T08:07:19Z</time>
      </trkpt>
      <trkpt lat="28.7424550" lon="-17.7383030">
        <ele>310.5</ele>
        <time>2020-11-16T08:07:20Z</time>
      </trkpt>
      <trkpt lat="28.7424550" lon="-17.7383030">
        <ele>310.5</ele>
        <time>2020-11-16T08:07:21Z</time>
      </trkpt>
      <trkpt lat="28.7424850" lon="-17.7383420">
        <ele>310.8</ele>
        <time>2020-11-16T08:07:22Z</time>
      </trkpt>
      <trkpt lat="28.7424850" lon="-17.7383420">
        <ele>310.8</ele>
        <time>2020-11-16T08:07:23Z</time>
      </trkpt>
      <trkpt lat="28.7425100" lon="-17.7383830">
        <ele>311.1</ele>
        <time>2020-11-16T08:07:24Z</time>
      </trkpt>
      <trkpt lat="28.7425100" lon="-17.7383830">
        <ele>311.1</ele>
        <time>2020-11-16T08:07:25Z</time>
      </trkpt>
      <trkpt lat="28.7425370" lon="-17.7384220">
        <ele>311.4</ele>
        <time>2020-11-16T08:07:26Z</time>
      </trkpt>
      <trkpt lat="28.7425500" lon="-17.7384420">
        <ele>311.5</ele>
        <time>2020-11-16T08:07:27Z</time>
      </trkpt>
      <trkpt lat="28.7425500" lon="-17.7384420">
        <ele>311.5</ele>
        <time>2020-11-16T08:07:28Z</time>
      </trkpt>
      <trkpt lat="28.7425730" lon="-17.7384830">
        <ele>311.8</ele>
        <time>2020-11-16T08:07:29Z</time>
      </trkpt>
      <trkpt lat="28.7425730" lon="-17.7384830">
        <ele>311.8</ele>
        <time>2020-11-16T08:07:30Z</time>
      </trkpt>
      <trkpt lat="28.7425980" lon="-17.7385250">
        <ele>312.1</ele>
        <time>2020-11-16T08:07:31Z</time>
      </trkpt>
      <trkpt lat="28.7426150" lon="-17.7385470">
        <ele>312.2</ele>
        <time>2020-11-16T08:07:32Z</time>
      </trkpt>
      <trkpt lat="28.7426300" lon="-17.7385700">
        <ele>312.4</ele>
        <time>2020-11-16T08:07:33Z</time>
      </trkpt>
      <trkpt lat="28.7426300" lon="-17.7385700">
        <ele>312.4</ele>
        <time>2020-11-16T08:07:34Z</time>
      </trkpt>
      <trkpt lat="28.7426520" lon="-17.7386150">
        <ele>312.7</ele>
        <time>2020-11-16T08:07:35Z</time>
      </trkpt>
      <trkpt lat="28.7426520" lon="-17.7386150">
        <ele>312.7</ele>
        <time>2020-11-16T08:07:36Z</time>
      </trkpt>
      <trkpt lat="28.7426670" lon="-17.7386600">
        <ele>313.0</ele>
        <time>2020-11-16T08:07:37Z</time>
      </trkpt>
      <trkpt lat="28.7426750" lon="-17.7386820">
        <ele>313.1</ele>
        <time>2020-11-16T08:07:38Z</time>
      </trkpt>
      <trkpt lat="28.7426750" lon="-17.7386820">
        <ele>313.1</ele>
        <time>2020-11-16T08:07:39Z</time>
      </trkpt>
      <trkpt lat="28.7426970" lon="-17.7387250">
        <ele>313.4</ele>
        <time>2020-11-16T08:07:40Z</time>
      </trkpt>
      <trkpt lat="28.7426970" lon="-17.7387250">
        <ele>313.4</ele>
        <time>2020-11-16T08:07:41Z</time>
      </trkpt>
      <trkpt lat="28.7427170" lon="-17.7387650">
        <ele>313.7</ele>
        <time>2020-11-16T08:07:42Z</time>
      </trkpt>
      <trkpt lat="28.7427170" lon="-17.7387650">
        <ele>313.7</ele>
        <time>2020-11-16T08:07:43Z</time>
      </trkpt>
      <trkpt lat="28.7427380" lon="-17.7388070">
        <ele>314.0</ele>
        <time>2020-11-16T08:07:44Z</time>
      </trkpt>
      <trkpt lat="28.7427380" lon="-17.7388070">
        <ele>314.0</ele>
        <time>2020-11-16T08:07:45Z</time>
      </trkpt>
      <trkpt lat="28.7427600" lon="-17.7388480">
        <ele>314.4</ele>
        <time>2020-11-16T08:07:46Z</time>
      </trkpt>
      <trkpt lat="28.7427600" lon="-17.7388480">
        <ele>314.4</ele>
        <time>2020-11-16T08:07:47Z</time>
      </trkpt>
      <trkpt lat="28.7427770" lon="-17.7388900">
        <ele>314.7</ele>
        <time>2020-11-16T08:07:48Z</time>
      </trkpt>
      <trkpt lat="28.7427770" lon="-17.7388900">
        <ele>314.7</ele>
        <time>2020-11-16T08:07:49Z</time>
      </trkpt>
      <trkpt lat="28.7427930" lon="-17.7389350">
        <ele>315.0</ele>
        <time>2020-11-16T08:07:50Z</time>
      </trkpt>
      <trkpt lat="28.7427930" lon="-17.7389350">
        <ele>315.0</ele>
        <time>2020-11-16T08:07:51Z</time>
      </trkpt>
      <trkpt lat="28.7428080" lon="-17.7389820">
        <ele>315.4</ele>
        <time>2020-11-16T08:07:52Z</time>
      </trkpt>
      <trkpt lat="28.7428180" lon="-17.7390030">
        <ele>315.5</ele>
        <time>2020-11-16T08:07:53Z</time>
      </trkpt>
      <trkpt lat="28.7428180" lon="-17.7390030">
        <ele>315.5</ele>
        <time>2020-11-16T08:07:54Z</time>
      </trkpt>
      <trkpt lat="28.7428320" lon="-17.7390520">
        <ele>315.9</ele>
        <time>2020-11-16T08:07:55Z</time>
      </trkpt>
      <trkpt lat="28.7428370" lon="-17.7390750">
        <ele>316.1</ele>
        <time>2020-11-16T08:07:56Z</time>
      </trkpt>
      <trkpt lat="28.7428370" lon="-17.7390750">
        <ele>316.1</ele>
        <time>2020-11-16T08:07:57Z</time>
      </trkpt>
      <trkpt lat="28.7428400" lon="-17.7391250">
        <ele>316.4</ele>
        <time>2020-11-16T08:07:58Z</time>
      </trkpt>
      <trkpt lat="28.7428400" lon="-17.7391520">
        <ele>316.5</ele>
        <time>2020-11-16T08:07:59Z</time>
      </trkpt>
      <trkpt lat="28.7428400" lon="-17.7391520">
        <ele>316.5</ele>
        <time>2020-11-16T08:08:00Z</time>
      </trkpt>
      <trkpt lat="28.7428330" lon="-17.7392030">
        <ele>316.9</ele>
        <time>2020-11-16T08:08:01Z</time>
      </trkpt>
      <trkpt lat="28.7428330" lon="-17.7392030">
        <ele>316.9</ele>
        <time>2020-11-16T08:08:02Z</time>
      </trkpt>
      <trkpt lat="28.7428130" lon="-17.7392530">
        <ele>317.3</ele>
        <time>2020-11-16T08:08:03Z</time>
      </trkpt>
      <trkpt lat="28.7428130" lon="-17.7392530">
        <ele>317.3</ele>
        <time>2020-11-16T08:08:04Z</time>
      </trkpt>
      <trkpt lat="28.7427870" lon="-17.7393000">
        <ele>317.6</ele>
        <time>2020-11-16T08:08:05Z</time>
      </trkpt>
      <trkpt lat="28.7427870" lon="-17.7393000">
        <ele>317.6</ele>
        <time>2020-11-16T08:08:06Z</time>
      </trkpt>
      <trkpt lat="28.7427620" lon="-17.7393470">
        <ele>317.9</ele>
        <time>2020-11-16T08:08:07Z</time>
      </trkpt>
      <trkpt lat="28.7427620" lon="-17.7393470">
        <ele>317.9</ele>
        <time>2020-11-16T08:08:08Z</time>
      </trkpt>
      <trkpt lat="28.7427320" lon="-17.7393900">
        <ele>318.3</ele>
        <time>2020-11-16T08:08:09Z</time>
      </trkpt>
      <trkpt lat="28.7427130" lon="-17.7394100">
        <ele>318.4</ele>
        <time>2020-11-16T08:08:10Z</time>
      </trkpt>
      <trkpt lat="28.7427130" lon="-17.7394100">
        <ele>318.4</ele>
        <time>2020-11-16T08:08:11Z</time>
      </trkpt>
      <trkpt lat="28.7426750" lon="-17.7394530">
        <ele>318.8</ele>
        <time>2020-11-16T08:08:12Z</time>
      </trkpt>
      <trkpt lat="28.7426750" lon="-17.7394530">
        <ele>318.8</ele>
        <time>2020-11-16T08:08:13Z</time>
      </trkpt>
      <trkpt lat="28.7426430" lon="-17.7395020">
        <ele>319.1</ele>
        <time>2020-11-16T08:08:14Z</time>
      </trkpt>
      <trkpt lat="28.7426430" lon="-17.7395020">
        <ele>319.1</ele>
        <time>2020-11-16T08:08:15Z</time>
      </trkpt>
      <trkpt lat="28.7426170" lon="-17.7395530">
        <ele>319.4</ele>
        <time>2020-11-16T08:08:16Z</time>
      </trkpt>
      <trkpt lat="28.7426170" lon="-17.7395530">
        <ele>319.4</ele>
        <time>2020-11-16T08:08:17Z</time>
      </trkpt>
      <trkpt lat="28.7425950" lon="-17.7396080">
        <ele>319.7</ele>
        <time>2020-11-16T08:08:18Z</time>
      </trkpt>
      <trkpt lat="28.7425950" lon="-17.7396080">
        <ele>319.7</ele>
        <time>2020-11-16T08:08:19Z</time>
      </trkpt>
      <trkpt lat="28.7425780" lon="-17.7396650">
        <ele>320.1</ele>
        <time>2020-11-16T08:08:20Z</time>
      </trkpt>
      <trkpt lat="28.7425780" lon="-17.7396650">
        <ele>320.1</ele>
        <time>2020-11-16T08:08:21Z</time>
      </trkpt>
      <trkpt lat="28.7425650" lon="-17.7397250">
        <ele>320.4</ele>
        <time>2020-11-16T08:08:22Z</time>
      </trkpt>
      <trkpt lat="28.7425580" lon="-17.7397530">
        <ele>320.5</ele>
        <time>2020-11-16T08:08:23Z</time>
      </trkpt>
      <trkpt lat="28.7425580" lon="-17.7397530">
        <ele>320.5</ele>
        <time>2020-11-16T08:08:24Z</time>
      </trkpt>
      <trkpt lat="28.7425450" lon="-17.7398100">
        <ele>320.8</ele>
        <time>2020-11-16T08:08:25Z</time>
      </trkpt>
      <trkpt lat="28.7425380" lon="-17.7398380">
        <ele>321.0</ele>
        <time>2020-11-16T08:08:26Z</time>
      </trkpt>
      <trkpt lat="28.7425380" lon="-17.7398380">
        <ele>321.0</ele>
        <time>2020-11-16T08:08:27Z</time>
      </trkpt>
      <trkpt lat="28.7425300" lon="-17.7398970">
        <ele>321.3</ele>
        <time>2020-11-16T08:08:28Z</time>
      </trkpt>
      <trkpt lat="28.7425250" lon="-17.7399250">
        <ele>321.5</ele>
        <time>2020-11-16T08:08:29Z</time>
      </trkpt>
      <trkpt lat="28.7425250" lon="-17.7399250">
        <ele>321.5</ele>
        <time>2020-11-16T08:08:30Z</time>
      </trkpt>
      <trkpt lat="28.7425150" lon="-17.7399830">
        <ele>321.9</ele>
        <time>2020-11-16T08:08:31Z</time>
      </trkpt>
      <trkpt lat="28.7425130" lon="-17.7400130">
        <ele>322.1</ele>
        <time>2020-11-16T08:08:32Z</time>
      </trkpt>
      <trkpt lat="28.7425130" lon="-17.7400130">
        <ele>322.1</ele>
        <time>2020-11-16T08:08:33Z</time>
      </trkpt>
      <trkpt lat="28.7425100" lon="-17.7400720">
        <ele>322.4</ele>
        <time>2020-11-16T08:08:34Z</time>
      </trkpt>
      <trkpt lat="28.7425080" lon="-17.7401020">
        <ele>322.6</ele>
        <time>2020-11-16T08:08:35Z</time>
      </trkpt>
      <trkpt lat="28.7425080" lon="-17.7401020">
        <ele>322.6</ele>
        <time>2020-11-16T08:08:36Z</time>
      </trkpt>
      <trkpt lat="28.7425100" lon="-17.7401600">
        <ele>323.1</ele>
        <time>2020-11-16T08:08:37Z</time>
      </trkpt>
      <trkpt lat="28.7425100" lon="-17.7401600">
        <ele>323.1</ele>
        <time>2020-11-16T08:08:38Z</time>
      </trkpt>
      <trkpt lat="28.7425020" lon="-17.7402150">
        <ele>323.4</ele>
        <time>2020-11-16T08:08:39Z</time>
      </trkpt>
      <trkpt lat="28.7425020" lon="-17.7402150">
        <ele>323.4</ele>
        <time>2020-11-16T08:08:40Z</time>
      </trkpt>
      <trkpt lat="28.7424930" lon="-17.7402720">
        <ele>323.9</ele>
        <time>2020-11-16T08:08:41Z</time>
      </trkpt>
      <trkpt lat="28.7424930" lon="-17.7402720">
        <ele>323.9</ele>
        <time>2020-11-16T08:08:42Z</time>
      </trkpt>
      <trkpt lat="28.7424870" lon="-17.7403280">
        <ele>324.3</ele>
        <time>2020-11-16T08:08:43Z</time>
      </trkpt>
      <trkpt lat="28.7424820" lon="-17.7403570">
        <ele>324.5</ele>
        <time>2020-11-16T08:08:44Z</time>
      </trkpt>
      <trkpt lat="28.7424820" lon="-17.7403570">
        <ele>324.5</ele>
        <time>2020-11-16T08:08:45Z</time>
      </trkpt>
      <trkpt lat="28.7424670" lon="-17.7404120">
        <ele>324.9</ele>
        <time>2020-11-16T08:08:46Z</time>
      </trkpt>
      <trkpt lat="28.7424570" lon="-17.7404380">
        <ele>325.1</ele>
        <time>2020-11-16T08:08:47Z</time>
      </trkpt>
      <trkpt lat="28.7424570" lon="-17.7404380">
        <ele>325.1</ele>
        <time>2020-11-16T08:08:48Z</time>
      </trkpt>
      <trkpt lat="28.7424330" lon="-17.7404900">
        <ele>325.5</ele>
        <time>2020-11-16T08:08:49Z</time>
      </trkpt>
      <trkpt lat="28.7424220" lon="-17.7405150">
        <ele>325.8</ele>
        <time>2020-11-16T08:08:50Z</time>
      </trkpt>
      <trkpt lat="28.7424220" lon="-17.7405150">
        <ele>325.8</ele>
        <time>2020-11-16T08:08:51Z</time>
      </trkpt>
      <trkpt lat="28.7423980" lon="-17.7405650">
        <ele>326.2</ele>
        <time>2020-11-16T08:08:52Z</time>
      </trkpt>
      <trkpt lat="28.7423980" lon="-17.7405650">
        <ele>326.2</ele>
        <time>2020-11-16T08:08:53Z</time>
      </trkpt>
      <trkpt lat="28.7423730" lon="-17.7406130">
        <ele>326.6</ele>
        <time>2020-11-16T08:08:54Z</time>
      </trkpt>
      <trkpt lat="28.7423620" lon="-17.7406380">
        <ele>326.8</ele>
        <time>2020-11-16T08:08:55Z</time>
      </trkpt>
      <trkpt lat="28.7423480" lon="-17.7406630">
        <ele>327.0</ele>
        <time>2020-11-16T08:08:56Z</time>
      </trkpt>
      <trkpt lat="28.7423480" lon="-17.7406630">
        <ele>327.0</ele>
        <time>2020-11-16T08:08:57Z</time>
      </trkpt>
      <trkpt lat="28.7423280" lon="-17.7407130">
        <ele>327.4</ele>
        <time>2020-11-16T08:08:58Z</time>
      </trkpt>
      <trkpt lat="28.7423280" lon="-17.7407130">
        <ele>327.4</ele>
        <time>2020-11-16T08:08:59Z</time>
      </trkpt>
      <trkpt lat="28.7423050" lon="-17.7407630">
        <ele>327.9</ele>
        <time>2020-11-16T08:09:00Z</time>
      </trkpt>
      <trkpt lat="28.7422900" lon="-17.7407850">
        <ele>328.1</ele>
        <time>2020-11-16T08:09:01Z</time>
      </trkpt>
      <trkpt lat="28.7422900" lon="-17.7407850">
        <ele>328.1</ele>
        <time>2020-11-16T08:09:02Z</time>
      </trkpt>
      <trkpt lat="28.7422600" lon="-17.7408280">
        <ele>328.5</ele>
        <time>2020-11-16T08:09:03Z</time>
      </trkpt>
      <trkpt lat="28.7422450" lon="-17.7408500">
        <ele>328.7</ele>
        <time>2020-11-16T08:09:04Z</time>
      </trkpt>
      <trkpt lat="28.7422450" lon="-17.7408500">
        <ele>328.7</ele>
        <time>2020-11-16T08:09:05Z</time>
      </trkpt>
      <trkpt lat="28.7422150" lon="-17.7408920">
        <ele>329.1</ele>
        <time>2020-11-16T08:09:06Z</time>
      </trkpt>
      <trkpt lat="28.7422020" lon="-17.7409150">
        <ele>329.4</ele>
        <time>2020-11-16T08:09:07Z</time>
      </trkpt>
      <trkpt lat="28.7422020" lon="-17.7409150">
        <ele>329.4</ele>
        <time>2020-11-16T08:09:08Z</time>
      </trkpt>
      <trkpt lat="28.7421730" lon="-17.7409550">
        <ele>329.8</ele>
        <time>2020-11-16T08:09:09Z</time>
      </trkpt>
      <trkpt lat="28.7421580" lon="-17.7409770">
        <ele>330.0</ele>
        <time>2020-11-16T08:09:10Z</time>
      </trkpt>
      <trkpt lat="28.7421580" lon="-17.7409770">
        <ele>330.0</ele>
        <time>2020-11-16T08:09:11Z</time>
      </trkpt>
      <trkpt lat="28.7421300" lon="-17.7410150">
        <ele>330.4</ele>
        <time>2020-11-16T08:09:12Z</time>
      </trkpt>
      <trkpt lat="28.7421300" lon="-17.7410150">
        <ele>330.4</ele>
        <time>2020-11-16T08:09:13Z</time>
      </trkpt>
      <trkpt lat="28.7421050" lon="-17.7410570">
        <ele>330.5</ele>
        <time>2020-11-16T08:09:14Z</time>
      </trkpt>
      <trkpt lat="28.7421050" lon="-17.7410570">
        <ele>330.5</ele>
        <time>2020-11-16T08:09:15Z</time>
      </trkpt>
      <trkpt lat="28.7420770" lon="-17.7410970">
        <ele>330.7</ele>
        <time>2020-11-16T08:09:16Z</time>
      </trkpt>
      <trkpt lat="28.7420770" lon="-17.7410970">
        <ele>330.7</ele>
        <time>2020-11-16T08:09:17Z</time>
      </trkpt>
      <trkpt lat="28.7420520" lon="-17.7411380">
        <ele>330.9</ele>
        <time>2020-11-16T08:09:18Z</time>
      </trkpt>
      <trkpt lat="28.7420520" lon="-17.7411380">
        <ele>330.9</ele>
        <time>2020-11-16T08:09:19Z</time>
      </trkpt>
      <trkpt lat="28.7420250" lon="-17.7411770">
        <ele>331.1</ele>
        <time>2020-11-16T08:09:20Z</time>
      </trkpt>
      <trkpt lat="28.7420250" lon="-17.7411770">
        <ele>331.1</ele>
        <time>2020-11-16T08:09:21Z</time>
      </trkpt>
      <trkpt lat="28.7419980" lon="-17.7412170">
        <ele>331.3</ele>
        <time>2020-11-16T08:09:22Z</time>
      </trkpt>
      <trkpt lat="28.7419980" lon="-17.7412170">
        <ele>331.3</ele>
        <time>2020-11-16T08:09:23Z</time>
      </trkpt>
      <trkpt lat="28.7419680" lon="-17.7412500">
        <ele>331.5</ele>
        <time>2020-11-16T08:09:24Z</time>
      </trkpt>
      <trkpt lat="28.7419680" lon="-17.7412500">
        <ele>331.5</ele>
        <time>2020-11-16T08:09:25Z</time>
      </trkpt>
      <trkpt lat="28.7419370" lon="-17.7412850">
        <ele>331.7</ele>
        <time>2020-11-16T08:09:26Z</time>
      </trkpt>
      <trkpt lat="28.7419370" lon="-17.7412850">
        <ele>331.7</ele>
        <time>2020-11-16T08:09:27Z</time>
      </trkpt>
      <trkpt lat="28.7418970" lon="-17.7413130">
        <ele>331.9</ele>
        <time>2020-11-16T08:09:28Z</time>
      </trkpt>
      <trkpt lat="28.7418750" lon="-17.7413230">
        <ele>332.2</ele>
        <time>2020-11-16T08:09:29Z</time>
      </trkpt>
      <trkpt lat="28.7418750" lon="-17.7413230">
        <ele>332.2</ele>
        <time>2020-11-16T08:09:30Z</time>
      </trkpt>
      <trkpt lat="28.7418320" lon="-17.7413420">
        <ele>332.8</ele>
        <time>2020-11-16T08:09:31Z</time>
      </trkpt>
      <trkpt lat="28.7418100" lon="-17.7413500">
        <ele>333.1</ele>
        <time>2020-11-16T08:09:32Z</time>
      </trkpt>
      <trkpt lat="28.7418100" lon="-17.7413500">
        <ele>333.1</ele>
        <time>2020-11-16T08:09:33Z</time>
      </trkpt>
      <trkpt lat="28.7417630" lon="-17.7413530">
        <ele>333.6</ele>
        <time>2020-11-16T08:09:34Z</time>
      </trkpt>
      <trkpt lat="28.7417630" lon="-17.7413530">
        <ele>333.6</ele>
        <time>2020-11-16T08:09:35Z</time>
      </trkpt>
      <trkpt lat="28.7417180" lon="-17.7413530">
        <ele>334.2</ele>
        <time>2020-11-16T08:09:36Z</time>
      </trkpt>
      <trkpt lat="28.7417180" lon="-17.7413530">
        <ele>334.2</ele>
        <time>2020-11-16T08:09:37Z</time>
      </trkpt>
      <trkpt lat="28.7416730" lon="-17.7413520">
        <ele>334.8</ele>
        <time>2020-11-16T08:09:38Z</time>
      </trkpt>
      <trkpt lat="28.7416730" lon="-17.7413520">
        <ele>334.8</ele>
        <time>2020-11-16T08:09:39Z</time>
      </trkpt>
      <trkpt lat="28.7416280" lon="-17.7413520">
        <ele>335.4</ele>
        <time>2020-11-16T08:09:40Z</time>
      </trkpt>
      <trkpt lat="28.7416280" lon="-17.7413520">
        <ele>335.4</ele>
        <time>2020-11-16T08:09:41Z</time>
      </trkpt>
      <trkpt lat="28.7415870" lon="-17.7413520">
        <ele>335.9</ele>
        <time>2020-11-16T08:09:42Z</time>
      </trkpt>
      <trkpt lat="28.7415870" lon="-17.7413520">
        <ele>335.9</ele>
        <time>2020-11-16T08:09:43Z</time>
      </trkpt>
      <trkpt lat="28.7415470" lon="-17.7413480">
        <ele>336.5</ele>
        <time>2020-11-16T08:09:44Z</time>
      </trkpt>
      <trkpt lat="28.7415470" lon="-17.7413480">
        <ele>336.5</ele>
        <time>2020-11-16T08:09:45Z</time>
      </trkpt>
      <trkpt lat="28.7415080" lon="-17.7413430">
        <ele>337.0</ele>
        <time>2020-11-16T08:09:46Z</time>
      </trkpt>
      <trkpt lat="28.7415080" lon="-17.7413430">
        <ele>337.0</ele>
        <time>2020-11-16T08:09:47Z</time>
      </trkpt>
      <trkpt lat="28.7414680" lon="-17.7413420">
        <ele>337.6</ele>
        <time>2020-11-16T08:09:48Z</time>
      </trkpt>
      <trkpt lat="28.7414680" lon="-17.7413420">
        <ele>337.6</ele>
        <time>2020-11-16T08:09:49Z</time>
      </trkpt>
      <trkpt lat="28.7414280" lon="-17.7413400">
        <ele>338.2</ele>
        <time>2020-11-16T08:09:50Z</time>
      </trkpt>
      <trkpt lat="28.7414280" lon="-17.7413400">
        <ele>338.2</ele>
        <time>2020-11-16T08:09:51Z</time>
      </trkpt>
      <trkpt lat="28.7413870" lon="-17.7413330">
        <ele>338.6</ele>
        <time>2020-11-16T08:09:52Z</time>
      </trkpt>
      <trkpt lat="28.7413670" lon="-17.7413320">
        <ele>338.8</ele>
        <time>2020-11-16T08:09:53Z</time>
      </trkpt>
      <trkpt lat="28.7413670" lon="-17.7413320">
        <ele>338.8</ele>
        <time>2020-11-16T08:09:54Z</time>
      </trkpt>
      <trkpt lat="28.7413270" lon="-17.7413320">
        <ele>339.1</ele>
        <time>2020-11-16T08:09:55Z</time>
      </trkpt>
      <trkpt lat="28.7413270" lon="-17.7413320">
        <ele>339.1</ele>
        <time>2020-11-16T08:09:56Z</time>
      </trkpt>
      <trkpt lat="28.7412900" lon="-17.7413300">
        <ele>339.4</ele>
        <time>2020-11-16T08:09:57Z</time>
      </trkpt>
      <trkpt lat="28.7412700" lon="-17.7413330">
        <ele>339.6</ele>
        <time>2020-11-16T08:09:58Z</time>
      </trkpt>
      <trkpt lat="28.7412500" lon="-17.7413350">
        <ele>339.7</ele>
        <time>2020-11-16T08:09:59Z</time>
      </trkpt>
      <trkpt lat="28.7412500" lon="-17.7413350">
        <ele>339.7</ele>
        <time>2020-11-16T08:10:00Z</time>
      </trkpt>
      <trkpt lat="28.7412120" lon="-17.7413350">
        <ele>340.0</ele>
        <time>2020-11-16T08:10:01Z</time>
      </trkpt>
      <trkpt lat="28.7411920" lon="-17.7413330">
        <ele>340.2</ele>
        <time>2020-11-16T08:10:02Z</time>
      </trkpt>
      <trkpt lat="28.7411920" lon="-17.7413330">
        <ele>340.2</ele>
        <time>2020-11-16T08:10:03Z</time>
      </trkpt>
      <trkpt lat="28.7411530" lon="-17.7413280">
        <ele>340.5</ele>
        <time>2020-11-16T08:10:04Z</time>
      </trkpt>
      <trkpt lat="28.7411530" lon="-17.7413280">
        <ele>340.5</ele>
        <time>2020-11-16T08:10:05Z</time>
      </trkpt>
      <trkpt lat="28.7411150" lon="-17.7413280">
        <ele>340.8</ele>
        <time>2020-11-16T08:10:06Z</time>
      </trkpt>
      <trkpt lat="28.7411150" lon="-17.7413280">
        <ele>340.8</ele>
        <time>2020-11-16T08:10:07Z</time>
      </trkpt>
      <trkpt lat="28.7410770" lon="-17.7413270">
        <ele>341.1</ele>
        <time>2020-11-16T08:10:08Z</time>
      </trkpt>
      <trkpt lat="28.7410770" lon="-17.7413270">
        <ele>341.1</ele>
        <time>2020-11-16T08:10:09Z</time>
      </trkpt>
      <trkpt lat="28.7410380" lon="-17.7413200">
        <ele>341.4</ele>
        <time>2020-11-16T08:10:10Z</time>
      </trkpt>
      <trkpt lat="28.7410380" lon="-17.7413200">
        <ele>341.4</ele>
        <time>2020-11-16T08:10:11Z</time>
      </trkpt>
      <trkpt lat="28.7410000" lon="-17.7413180">
        <ele>341.7</ele>
        <time>2020-11-16T08:10:12Z</time>
      </trkpt>
      <trkpt lat="28.7409820" lon="-17.7413170">
        <ele>341.8</ele>
        <time>2020-11-16T08:10:13Z</time>
      </trkpt>
      <trkpt lat="28.7409630" lon="-17.7413130">
        <ele>342.0</ele>
        <time>2020-11-16T08:10:14Z</time>
      </trkpt>
      <trkpt lat="28.7409630" lon="-17.7413130">
        <ele>342.0</ele>
        <time>2020-11-16T08:10:15Z</time>
      </trkpt>
      <trkpt lat="28.7409270" lon="-17.7413070">
        <ele>342.2</ele>
        <time>2020-11-16T08:10:16Z</time>
      </trkpt>
      <trkpt lat="28.7409270" lon="-17.7413070">
        <ele>342.2</ele>
        <time>2020-11-16T08:10:17Z</time>
      </trkpt>
      <trkpt lat="28.7408900" lon="-17.7413000">
        <ele>342.5</ele>
        <time>2020-11-16T08:10:18Z</time>
      </trkpt>
      <trkpt lat="28.7408900" lon="-17.7413000">
        <ele>342.5</ele>
        <time>2020-11-16T08:10:19Z</time>
      </trkpt>
      <trkpt lat="28.7408550" lon="-17.7412900">
        <ele>342.8</ele>
        <time>2020-11-16T08:10:20Z</time>
      </trkpt>
      <trkpt lat="28.7408550" lon="-17.7412900">
        <ele>342.8</ele>
        <time>2020-11-16T08:10:21Z</time>
      </trkpt>
      <trkpt lat="28.7408200" lon="-17.7412800">
        <ele>343.0</ele>
        <time>2020-11-16T08:10:22Z</time>
      </trkpt>
      <trkpt lat="28.7408020" lon="-17.7412750">
        <ele>343.1</ele>
        <time>2020-11-16T08:10:23Z</time>
      </trkpt>
      <trkpt lat="28.7407850" lon="-17.7412700">
        <ele>343.2</ele>
        <time>2020-11-16T08:10:24Z</time>
      </trkpt>
      <trkpt lat="28.7407850" lon="-17.7412700">
        <ele>343.2</ele>
        <time>2020-11-16T08:10:25Z</time>
      </trkpt>
      <trkpt lat="28.7407500" lon="-17.7412550">
        <ele>343.5</ele>
        <time>2020-11-16T08:10:26Z</time>
      </trkpt>
      <trkpt lat="28.7407500" lon="-17.7412550">
        <ele>343.5</ele>
        <time>2020-11-16T08:10:27Z</time>
      </trkpt>
      <trkpt lat="28.7407170" lon="-17.7412370">
        <ele>343.9</ele>
        <time>2020-11-16T08:10:28Z</time>
      </trkpt>
      <trkpt lat="28.7407170" lon="-17.7412370">
        <ele>343.9</ele>
        <time>2020-11-16T08:10:29Z</time>
      </trkpt>
      <trkpt lat="28.7406820" lon="-17.7412150">
        <ele>344.3</ele>
        <time>2020-11-16T08:10:30Z</time>
      </trkpt>
      <trkpt lat="28.7406670" lon="-17.7412050">
        <ele>344.5</ele>
        <time>2020-11-16T08:10:31Z</time>
      </trkpt>
      <trkpt lat="28.7406480" lon="-17.7411970">
        <ele>344.8</ele>
        <time>2020-11-16T08:10:32Z</time>
      </trkpt>
      <trkpt lat="28.7406480" lon="-17.7411970">
        <ele>344.8</ele>
        <time>2020-11-16T08:10:33Z</time>
      </trkpt>
      <trkpt lat="28.7406130" lon="-17.7411820">
        <ele>345.2</ele>
        <time>2020-11-16T08:10:34Z</time>
      </trkpt>
      <trkpt lat="28.7406130" lon="-17.7411820">
        <ele>345.2</ele>
        <time>2020-11-16T08:10:35Z</time>
      </trkpt>
      <trkpt lat="28.7405820" lon="-17.7411620">
        <ele>345.6</ele>
        <time>2020-11-16T08:10:36Z</time>
      </trkpt>
      <trkpt lat="28.7405820" lon="-17.7411620">
        <ele>345.6</ele>
        <time>2020-11-16T08:10:37Z</time>
      </trkpt>
      <trkpt lat="28.7405470" lon="-17.7411400">
        <ele>346.1</ele>
        <time>2020-11-16T08:10:38Z</time>
      </trkpt>
      <trkpt lat="28.7405300" lon="-17.7411300">
        <ele>346.3</ele>
        <time>2020-11-16T08:10:39Z</time>
      </trkpt>
      <trkpt lat="28.7405130" lon="-17.7411200">
        <ele>346.6</ele>
        <time>2020-11-16T08:10:40Z</time>
      </trkpt>
      <trkpt lat="28.7405130" lon="-17.7411200">
        <ele>346.6</ele>
        <time>2020-11-16T08:10:41Z</time>
      </trkpt>
      <trkpt lat="28.7404780" lon="-17.7411020">
        <ele>347.0</ele>
        <time>2020-11-16T08:10:42Z</time>
      </trkpt>
      <trkpt lat="28.7404600" lon="-17.7410920">
        <ele>347.3</ele>
        <time>2020-11-16T08:10:43Z</time>
      </trkpt>
      <trkpt lat="28.7404420" lon="-17.7410820">
        <ele>347.5</ele>
        <time>2020-11-16T08:10:44Z</time>
      </trkpt>
      <trkpt lat="28.7404420" lon="-17.7410820">
        <ele>347.5</ele>
        <time>2020-11-16T08:10:45Z</time>
      </trkpt>
      <trkpt lat="28.7404070" lon="-17.7410650">
        <ele>347.9</ele>
        <time>2020-11-16T08:10:46Z</time>
      </trkpt>
      <trkpt lat="28.7404070" lon="-17.7410650">
        <ele>347.9</ele>
        <time>2020-11-16T08:10:47Z</time>
      </trkpt>
      <trkpt lat="28.7403720" lon="-17.7410430">
        <ele>348.4</ele>
        <time>2020-11-16T08:10:48Z</time>
      </trkpt>
      <trkpt lat="28.7403530" lon="-17.7410370">
        <ele>348.6</ele>
        <time>2020-11-16T08:10:49Z</time>
      </trkpt>
      <trkpt lat="28.7403350" lon="-17.7410320">
        <ele>348.8</ele>
        <time>2020-11-16T08:10:50Z</time>
      </trkpt>
      <trkpt lat="28.7403350" lon="-17.7410320">
        <ele>348.8</ele>
        <time>2020-11-16T08:10:51Z</time>
      </trkpt>
      <trkpt lat="28.7402980" lon="-17.7410150">
        <ele>349.3</ele>
        <time>2020-11-16T08:10:52Z</time>
      </trkpt>
      <trkpt lat="28.7402980" lon="-17.7410150">
        <ele>349.3</ele>
        <time>2020-11-16T08:10:53Z</time>
      </trkpt>
      <trkpt lat="28.7402620" lon="-17.7410000">
        <ele>349.7</ele>
        <time>2020-11-16T08:10:54Z</time>
      </trkpt>
      <trkpt lat="28.7402620" lon="-17.7410000">
        <ele>349.7</ele>
        <time>2020-11-16T08:10:55Z</time>
      </trkpt>
      <trkpt lat="28.7402230" lon="-17.7409850">
        <ele>350.2</ele>
        <time>2020-11-16T08:10:56Z</time>
      </trkpt>
      <trkpt lat="28.7402230" lon="-17.7409850">
        <ele>350.2</ele>
        <time>2020-11-16T08:10:57Z</time>
      </trkpt>
      <trkpt lat="28.7401870" lon="-17.7409680">
        <ele>350.7</ele>
        <time>2020-11-16T08:10:58Z</time>
      </trkpt>
      <trkpt lat="28.7401870" lon="-17.7409680">
        <ele>350.7</ele>
        <time>2020-11-16T08:10:59Z</time>
      </trkpt>
      <trkpt lat="28.7401500" lon="-17.7409520">
        <ele>351.1</ele>
        <time>2020-11-16T08:11:00Z</time>
      </trkpt>
      <trkpt lat="28.7401500" lon="-17.7409520">
        <ele>351.1</ele>
        <time>2020-11-16T08:11:01Z</time>
      </trkpt>
      <trkpt lat="28.7401130" lon="-17.7409330">
        <ele>351.6</ele>
        <time>2020-11-16T08:11:02Z</time>
      </trkpt>
      <trkpt lat="28.7401130" lon="-17.7409330">
        <ele>351.6</ele>
        <time>2020-11-16T08:11:03Z</time>
      </trkpt>
      <trkpt lat="28.7400770" lon="-17.7409150">
        <ele>352.1</ele>
        <time>2020-11-16T08:11:04Z</time>
      </trkpt>
      <trkpt lat="28.7400580" lon="-17.7409050">
        <ele>352.3</ele>
        <time>2020-11-16T08:11:05Z</time>
      </trkpt>
      <trkpt lat="28.7400420" lon="-17.7408920">
        <ele>352.5</ele>
        <time>2020-11-16T08:11:06Z</time>
      </trkpt>
      <trkpt lat="28.7400420" lon="-17.7408920">
        <ele>352.5</ele>
        <time>2020-11-16T08:11:07Z</time>
      </trkpt>
      <trkpt lat="28.7400070" lon="-17.7408700">
        <ele>353.0</ele>
        <time>2020-11-16T08:11:08Z</time>
      </trkpt>
      <trkpt lat="28.7400070" lon="-17.7408700">
        <ele>353.0</ele>
        <time>2020-11-16T08:11:09Z</time>
      </trkpt>
      <trkpt lat="28.7399680" lon="-17.7408530">
        <ele>353.5</ele>
        <time>2020-11-16T08:11:10Z</time>
      </trkpt>
      <trkpt lat="28.7399680" lon="-17.7408530">
        <ele>353.5</ele>
        <time>2020-11-16T08:11:11Z</time>
      </trkpt>
      <trkpt lat="28.7399350" lon="-17.7408350">
        <ele>353.9</ele>
        <time>2020-11-16T08:11:12Z</time>
      </trkpt>
      <trkpt lat="28.7399180" lon="-17.7408230">
        <ele>354.2</ele>
        <time>2020-11-16T08:11:13Z</time>
      </trkpt>
      <trkpt lat="28.7399030" lon="-17.7408120">
        <ele>354.4</ele>
        <time>2020-11-16T08:11:14Z</time>
      </trkpt>
      <trkpt lat="28.7398870" lon="-17.7408020">
        <ele>354.6</ele>
        <time>2020-11-16T08:11:15Z</time>
      </trkpt>
      <trkpt lat="28.7398700" lon="-17.7407920">
        <ele>354.8</ele>
        <time>2020-11-16T08:11:16Z</time>
      </trkpt>
      <trkpt lat="28.7398700" lon="-17.7407920">
        <ele>354.8</ele>
        <time>2020-11-16T08:11:17Z</time>
      </trkpt>
      <trkpt lat="28.7398350" lon="-17.7407730">
        <ele>355.3</ele>
        <time>2020-11-16T08:11:18Z</time>
      </trkpt>
      <trkpt lat="28.7398350" lon="-17.7407730">
        <ele>355.3</ele>
        <time>2020-11-16T08:11:19Z</time>
      </trkpt>
      <trkpt lat="28.7398020" lon="-17.7407600">
        <ele>355.7</ele>
        <time>2020-11-16T08:11:20Z</time>
      </trkpt>
      <trkpt lat="28.7398020" lon="-17.7407600">
        <ele>355.7</ele>
        <time>2020-11-16T08:11:21Z</time>
      </trkpt>
      <trkpt lat="28.7397670" lon="-17.7407430">
        <ele>356.1</ele>
        <time>2020-11-16T08:11:22Z</time>
      </trkpt>
      <trkpt lat="28.7397670" lon="-17.7407430">
        <ele>356.1</ele>
        <time>2020-11-16T08:11:23Z</time>
      </trkpt>
      <trkpt lat="28.7397320" lon="-17.7407230">
        <ele>356.6</ele>
        <time>2020-11-16T08:11:24Z</time>
      </trkpt>
      <trkpt lat="28.7397320" lon="-17.7407230">
        <ele>356.6</ele>
        <time>2020-11-16T08:11:25Z</time>
      </trkpt>
      <trkpt lat="28.7396980" lon="-17.7407030">
        <ele>357.1</ele>
        <time>2020-11-16T08:11:26Z</time>
      </trkpt>
      <trkpt lat="28.7396980" lon="-17.7407030">
        <ele>357.1</ele>
        <time>2020-11-16T08:11:27Z</time>
      </trkpt>
      <trkpt lat="28.7396670" lon="-17.7406820">
        <ele>357.6</ele>
        <time>2020-11-16T08:11:28Z</time>
      </trkpt>
      <trkpt lat="28.7396670" lon="-17.7406820">
        <ele>357.6</ele>
        <time>2020-11-16T08:11:29Z</time>
      </trkpt>
      <trkpt lat="28.7396330" lon="-17.7406600">
        <ele>358.1</ele>
        <time>2020-11-16T08:11:30Z</time>
      </trkpt>
      <trkpt lat="28.7396170" lon="-17.7406500">
        <ele>358.3</ele>
        <time>2020-11-16T08:11:31Z</time>
      </trkpt>
      <trkpt lat="28.7396170" lon="-17.7406500">
        <ele>358.3</ele>
        <time>2020-11-16T08:11:32Z</time>
      </trkpt>
      <trkpt lat="28.7395800" lon="-17.7406370">
        <ele>358.8</ele>
        <time>2020-11-16T08:11:33Z</time>
      </trkpt>
      <trkpt lat="28.7395800" lon="-17.7406370">
        <ele>358.8</ele>
        <time>2020-11-16T08:11:34Z</time>
      </trkpt>
      <trkpt lat="28.7395430" lon="-17.7406180">
        <ele>359.4</ele>
        <time>2020-11-16T08:11:35Z</time>
      </trkpt>
      <trkpt lat="28.7395430" lon="-17.7406180">
        <ele>359.4</ele>
        <time>2020-11-16T08:11:36Z</time>
      </trkpt>
      <trkpt lat="28.7395080" lon="-17.7406000">
        <ele>359.9</ele>
        <time>2020-11-16T08:11:37Z</time>
      </trkpt>
      <trkpt lat="28.7395080" lon="-17.7406000">
        <ele>359.9</ele>
        <time>2020-11-16T08:11:38Z</time>
      </trkpt>
      <trkpt lat="28.7394700" lon="-17.7405900">
        <ele>360.4</ele>
        <time>2020-11-16T08:11:39Z</time>
      </trkpt>
      <trkpt lat="28.7394700" lon="-17.7405900">
        <ele>360.4</ele>
        <time>2020-11-16T08:11:40Z</time>
      </trkpt>
      <trkpt lat="28.7394320" lon="-17.7405850">
        <ele>361.0</ele>
        <time>2020-11-16T08:11:41Z</time>
      </trkpt>
      <trkpt lat="28.7394120" lon="-17.7405870">
        <ele>361.2</ele>
        <time>2020-11-16T08:11:42Z</time>
      </trkpt>
      <trkpt lat="28.7394120" lon="-17.7405870">
        <ele>361.2</ele>
        <time>2020-11-16T08:11:43Z</time>
      </trkpt>
      <trkpt lat="28.7393770" lon="-17.7406050">
        <ele>361.8</ele>
        <time>2020-11-16T08:11:44Z</time>
      </trkpt>
      <trkpt lat="28.7393770" lon="-17.7406050">
        <ele>361.8</ele>
        <time>2020-11-16T08:11:45Z</time>
      </trkpt>
      <trkpt lat="28.7393500" lon="-17.7406350">
        <ele>362.3</ele>
        <time>2020-11-16T08:11:46Z</time>
      </trkpt>
      <trkpt lat="28.7393370" lon="-17.7406500">
        <ele>362.5</ele>
        <time>2020-11-16T08:11:47Z</time>
      </trkpt>
      <trkpt lat="28.7393370" lon="-17.7406500">
        <ele>362.5</ele>
        <time>2020-11-16T08:11:48Z</time>
      </trkpt>
      <trkpt lat="28.7393220" lon="-17.7406870">
        <ele>363.0</ele>
        <time>2020-11-16T08:11:49Z</time>
      </trkpt>
      <trkpt lat="28.7393170" lon="-17.7407050">
        <ele>363.2</ele>
        <time>2020-11-16T08:11:50Z</time>
      </trkpt>
      <trkpt lat="28.7393170" lon="-17.7407050">
        <ele>363.2</ele>
        <time>2020-11-16T08:11:51Z</time>
      </trkpt>
      <trkpt lat="28.7393070" lon="-17.7407450">
        <ele>363.7</ele>
        <time>2020-11-16T08:11:52Z</time>
      </trkpt>
      <trkpt lat="28.7393070" lon="-17.7407450">
        <ele>363.7</ele>
        <time>2020-11-16T08:11:53Z</time>
      </trkpt>
      <trkpt lat="28.7393070" lon="-17.7407850">
        <ele>364.1</ele>
        <time>2020-11-16T08:11:54Z</time>
      </trkpt>
      <trkpt lat="28.7393070" lon="-17.7407850">
        <ele>364.1</ele>
        <time>2020-11-16T08:11:55Z</time>
      </trkpt>
      <trkpt lat="28.7393100" lon="-17.7408280">
        <ele>364.5</ele>
        <time>2020-11-16T08:11:56Z</time>
      </trkpt>
      <trkpt lat="28.7393100" lon="-17.7408280">
        <ele>364.5</ele>
        <time>2020-11-16T08:11:57Z</time>
      </trkpt>
      <trkpt lat="28.7393320" lon="-17.7408680">
        <ele>365.0</ele>
        <time>2020-11-16T08:11:58Z</time>
      </trkpt>
      <trkpt lat="28.7393320" lon="-17.7408680">
        <ele>365.0</ele>
        <time>2020-11-16T08:11:59Z</time>
      </trkpt>
      <trkpt lat="28.7393570" lon="-17.7409050">
        <ele>365.5</ele>
        <time>2020-11-16T08:12:00Z</time>
      </trkpt>
      <trkpt lat="28.7393570" lon="-17.7409050">
        <ele>365.5</ele>
        <time>2020-11-16T08:12:01Z</time>
      </trkpt>
      <trkpt lat="28.7393820" lon="-17.7409420">
        <ele>365.9</ele>
        <time>2020-11-16T08:12:02Z</time>
      </trkpt>
      <trkpt lat="28.7393820" lon="-17.7409420">
        <ele>365.9</ele>
        <time>2020-11-16T08:12:03Z</time>
      </trkpt>
      <trkpt lat="28.7394000" lon="-17.7409780">
        <ele>366.3</ele>
        <time>2020-11-16T08:12:04Z</time>
      </trkpt>
      <trkpt lat="28.7394100" lon="-17.7409950">
        <ele>366.5</ele>
        <time>2020-11-16T08:12:05Z</time>
      </trkpt>
      <trkpt lat="28.7394100" lon="-17.7409950">
        <ele>366.5</ele>
        <time>2020-11-16T08:12:06Z</time>
      </trkpt>
      <trkpt lat="28.7394300" lon="-17.7410320">
        <ele>366.8</ele>
        <time>2020-11-16T08:12:07Z</time>
      </trkpt>
      <trkpt lat="28.7394300" lon="-17.7410320">
        <ele>366.8</ele>
        <time>2020-11-16T08:12:08Z</time>
      </trkpt>
      <trkpt lat="28.7394520" lon="-17.7410670">
        <ele>367.2</ele>
        <time>2020-11-16T08:12:09Z</time>
      </trkpt>
      <trkpt lat="28.7394520" lon="-17.7410670">
        <ele>367.2</ele>
        <time>2020-11-16T08:12:10Z</time>
      </trkpt>
      <trkpt lat="28.7394730" lon="-17.7411020">
        <ele>367.6</ele>
        <time>2020-11-16T08:12:11Z</time>
      </trkpt>
      <trkpt lat="28.7394730" lon="-17.7411020">
        <ele>367.6</ele>
        <time>2020-11-16T08:12:12Z</time>
      </trkpt>
      <trkpt lat="28.7394900" lon="-17.7411370">
        <ele>367.9</ele>
        <time>2020-11-16T08:12:13Z</time>
      </trkpt>
      <trkpt lat="28.7395000" lon="-17.7411550">
        <ele>368.1</ele>
        <time>2020-11-16T08:12:14Z</time>
      </trkpt>
      <trkpt lat="28.7395000" lon="-17.7411550">
        <ele>368.1</ele>
        <time>2020-11-16T08:12:15Z</time>
      </trkpt>
      <trkpt lat="28.7395180" lon="-17.7411900">
        <ele>368.4</ele>
        <time>2020-11-16T08:12:16Z</time>
      </trkpt>
      <trkpt lat="28.7395280" lon="-17.7412070">
        <ele>368.6</ele>
        <time>2020-11-16T08:12:17Z</time>
      </trkpt>
      <trkpt lat="28.7395280" lon="-17.7412070">
        <ele>368.6</ele>
        <time>2020-11-16T08:12:18Z</time>
      </trkpt>
      <trkpt lat="28.7395480" lon="-17.7412420">
        <ele>369.0</ele>
        <time>2020-11-16T08:12:19Z</time>
      </trkpt>
      <trkpt lat="28.7395550" lon="-17.7412600">
        <ele>369.2</ele>
        <time>2020-11-16T08:12:20Z</time>
      </trkpt>
      <trkpt lat="28.7395550" lon="-17.7412600">
        <ele>369.2</ele>
        <time>2020-11-16T08:12:21Z</time>
      </trkpt>
      <trkpt lat="28.7395680" lon="-17.7412980">
        <ele>369.5</ele>
        <time>2020-11-16T08:12:22Z</time>
      </trkpt>
      <trkpt lat="28.7395680" lon="-17.7412980">
        <ele>369.5</ele>
        <time>2020-11-16T08:12:23Z</time>
      </trkpt>
      <trkpt lat="28.7395820" lon="-17.7413370">
        <ele>369.9</ele>
        <time>2020-11-16T08:12:24Z</time>
      </trkpt>
      <trkpt lat="28.7395820" lon="-17.7413370">
        <ele>369.9</ele>
        <time>2020-11-16T08:12:25Z</time>
      </trkpt>
      <trkpt lat="28.7396020" lon="-17.7413720">
        <ele>370.2</ele>
        <time>2020-11-16T08:12:26Z</time>
      </trkpt>
      <trkpt lat="28.7396020" lon="-17.7413720">
        <ele>370.2</ele>
        <time>2020-11-16T08:12:27Z</time>
      </trkpt>
      <trkpt lat="28.7396270" lon="-17.7414020">
        <ele>370.6</ele>
        <time>2020-11-16T08:12:28Z</time>
      </trkpt>
      <trkpt lat="28.7396270" lon="-17.7414020">
        <ele>370.6</ele>
        <time>2020-11-16T08:12:29Z</time>
      </trkpt>
      <trkpt lat="28.7396400" lon="-17.7414380">
        <ele>371.0</ele>
        <time>2020-11-16T08:12:30Z</time>
      </trkpt>
      <trkpt lat="28.7396400" lon="-17.7414380">
        <ele>371.0</ele>
        <time>2020-11-16T08:12:31Z</time>
      </trkpt>
      <trkpt lat="28.7396530" lon="-17.7414730">
        <ele>371.3</ele>
        <time>2020-11-16T08:12:32Z</time>
      </trkpt>
      <trkpt lat="28.7396630" lon="-17.7414900">
        <ele>371.5</ele>
        <time>2020-11-16T08:12:33Z</time>
      </trkpt>
      <trkpt lat="28.7396630" lon="-17.7414900">
        <ele>371.5</ele>
        <time>2020-11-16T08:12:34Z</time>
      </trkpt>
      <trkpt lat="28.7396820" lon="-17.7415230">
        <ele>371.9</ele>
        <time>2020-11-16T08:12:35Z</time>
      </trkpt>
      <trkpt lat="28.7396820" lon="-17.7415230">
        <ele>371.9</ele>
        <time>2020-11-16T08:12:36Z</time>
      </trkpt>
      <trkpt lat="28.7396930" lon="-17.7415600">
        <ele>372.3</ele>
        <time>2020-11-16T08:12:37Z</time>
      </trkpt>
      <trkpt lat="28.7397000" lon="-17.7415780">
        <ele>372.5</ele>
        <time>2020-11-16T08:12:38Z</time>
      </trkpt>
      <trkpt lat="28.7397070" lon="-17.7415980">
        <ele>372.7</ele>
        <time>2020-11-16T08:12:39Z</time>
      </trkpt>
      <trkpt lat="28.7397070" lon="-17.7415980">
        <ele>372.7</ele>
        <time>2020-11-16T08:12:40Z</time>
      </trkpt>
      <trkpt lat="28.7397250" lon="-17.7416320">
        <ele>373.1</ele>
        <time>2020-11-16T08:12:41Z</time>
      </trkpt>
      <trkpt lat="28.7397250" lon="-17.7416320">
        <ele>373.1</ele>
        <time>2020-11-16T08:12:42Z</time>
      </trkpt>
      <trkpt lat="28.7397400" lon="-17.7416680">
        <ele>373.6</ele>
        <time>2020-11-16T08:12:43Z</time>
      </trkpt>
      <trkpt lat="28.7397480" lon="-17.7416850">
        <ele>373.8</ele>
        <time>2020-11-16T08:12:44Z</time>
      </trkpt>
      <trkpt lat="28.7397480" lon="-17.7416850">
        <ele>373.8</ele>
        <time>2020-11-16T08:12:45Z</time>
      </trkpt>
      <trkpt lat="28.7397650" lon="-17.7417220">
        <ele>374.2</ele>
        <time>2020-11-16T08:12:46Z</time>
      </trkpt>
      <trkpt lat="28.7397680" lon="-17.7417430">
        <ele>374.5</ele>
        <time>2020-11-16T08:12:47Z</time>
      </trkpt>
      <trkpt lat="28.7397680" lon="-17.7417430">
        <ele>374.5</ele>
        <time>2020-11-16T08:12:48Z</time>
      </trkpt>
      <trkpt lat="28.7397730" lon="-17.7417880">
        <ele>374.9</ele>
        <time>2020-11-16T08:12:49Z</time>
      </trkpt>
      <trkpt lat="28.7397750" lon="-17.7418100">
        <ele>375.2</ele>
        <time>2020-11-16T08:12:50Z</time>
      </trkpt>
      <trkpt lat="28.7397750" lon="-17.7418100">
        <ele>375.2</ele>
        <time>2020-11-16T08:12:51Z</time>
      </trkpt>
      <trkpt lat="28.7397770" lon="-17.7418550">
        <ele>375.6</ele>
        <time>2020-11-16T08:12:52Z</time>
      </trkpt>
      <trkpt lat="28.7397770" lon="-17.7418550">
        <ele>375.6</ele>
        <time>2020-11-16T08:12:53Z</time>
      </trkpt>
      <trkpt lat="28.7397730" lon="-17.7419020">
        <ele>376.1</ele>
        <time>2020-11-16T08:12:54Z</time>
      </trkpt>
      <trkpt lat="28.7397730" lon="-17.7419020">
        <ele>376.1</ele>
        <time>2020-11-16T08:12:55Z</time>
      </trkpt>
      <trkpt lat="28.7397720" lon="-17.7419470">
        <ele>376.5</ele>
        <time>2020-11-16T08:12:56Z</time>
      </trkpt>
      <trkpt lat="28.7397720" lon="-17.7419470">
        <ele>376.5</ele>
        <time>2020-11-16T08:12:57Z</time>
      </trkpt>
      <trkpt lat="28.7397700" lon="-17.7419920">
        <ele>377.0</ele>
        <time>2020-11-16T08:12:58Z</time>
      </trkpt>
      <trkpt lat="28.7397700" lon="-17.7420130">
        <ele>377.1</ele>
        <time>2020-11-16T08:12:59Z</time>
      </trkpt>
      <trkpt lat="28.7397750" lon="-17.7420350">
        <ele>377.3</ele>
        <time>2020-11-16T08:13:00Z</time>
      </trkpt>
      <trkpt lat="28.7397750" lon="-17.7420350">
        <ele>377.3</ele>
        <time>2020-11-16T08:13:01Z</time>
      </trkpt>
      <trkpt lat="28.7397880" lon="-17.7420780">
        <ele>377.7</ele>
        <time>2020-11-16T08:13:02Z</time>
      </trkpt>
      <trkpt lat="28.7397880" lon="-17.7420780">
        <ele>377.7</ele>
        <time>2020-11-16T08:13:03Z</time>
      </trkpt>
      <trkpt lat="28.7398030" lon="-17.7421200">
        <ele>378.1</ele>
        <time>2020-11-16T08:13:04Z</time>
      </trkpt>
      <trkpt lat="28.7398030" lon="-17.7421200">
        <ele>378.1</ele>
        <time>2020-11-16T08:13:05Z</time>
      </trkpt>
      <trkpt lat="28.7398230" lon="-17.7421600">
        <ele>378.5</ele>
        <time>2020-11-16T08:13:06Z</time>
      </trkpt>
      <trkpt lat="28.7398370" lon="-17.7421780">
        <ele>378.7</ele>
        <time>2020-11-16T08:13:07Z</time>
      </trkpt>
      <trkpt lat="28.7398520" lon="-17.7421970">
        <ele>379.2</ele>
        <time>2020-11-16T08:13:08Z</time>
      </trkpt>
      <trkpt lat="28.7398520" lon="-17.7421970">
        <ele>379.2</ele>
        <time>2020-11-16T08:13:09Z</time>
      </trkpt>
      <trkpt lat="28.7398680" lon="-17.7422330">
        <ele>379.8</ele>
        <time>2020-11-16T08:13:10Z</time>
      </trkpt>
      <trkpt lat="28.7398750" lon="-17.7422520">
        <ele>380.2</ele>
        <time>2020-11-16T08:13:11Z</time>
      </trkpt>
      <trkpt lat="28.7398750" lon="-17.7422520">
        <ele>380.2</ele>
        <time>2020-11-16T08:13:12Z</time>
      </trkpt>
      <trkpt lat="28.7398920" lon="-17.7422870">
        <ele>380.9</ele>
        <time>2020-11-16T08:13:13Z</time>
      </trkpt>
      <trkpt lat="28.7398920" lon="-17.7422870">
        <ele>380.9</ele>
        <time>2020-11-16T08:13:14Z</time>
      </trkpt>
      <trkpt lat="28.7398980" lon="-17.7423250">
        <ele>381.6</ele>
        <time>2020-11-16T08:13:15Z</time>
      </trkpt>
      <trkpt lat="28.7398980" lon="-17.7423450">
        <ele>381.9</ele>
        <time>2020-11-16T08:13:16Z</time>
      </trkpt>
      <trkpt lat="28.7398980" lon="-17.7423450">
        <ele>381.9</ele>
        <time>2020-11-16T08:13:17Z</time>
      </trkpt>
      <trkpt lat="28.7399020" lon="-17.7423870">
        <ele>382.7</ele>
        <time>2020-11-16T08:13:18Z</time>
      </trkpt>
      <trkpt lat="28.7399020" lon="-17.7423870">
        <ele>382.7</ele>
        <time>2020-11-16T08:13:19Z</time>
      </trkpt>
      <trkpt lat="28.7398980" lon="-17.7424300">
        <ele>383.5</ele>
        <time>2020-11-16T08:13:20Z</time>
      </trkpt>
      <trkpt lat="28.7398880" lon="-17.7424480">
        <ele>383.9</ele>
        <time>2020-11-16T08:13:21Z</time>
      </trkpt>
      <trkpt lat="28.7398880" lon="-17.7424480">
        <ele>383.9</ele>
        <time>2020-11-16T08:13:22Z</time>
      </trkpt>
      <trkpt lat="28.7398630" lon="-17.7424800">
        <ele>384.7</ele>
        <time>2020-11-16T08:13:23Z</time>
      </trkpt>
      <trkpt lat="28.7398630" lon="-17.7424800">
        <ele>384.7</ele>
        <time>2020-11-16T08:13:24Z</time>
      </trkpt>
      <trkpt lat="28.7398330" lon="-17.7425020">
        <ele>384.9</ele>
        <time>2020-11-16T08:13:25Z</time>
      </trkpt>
      <trkpt lat="28.7398170" lon="-17.7425080">
        <ele>385.0</ele>
        <time>2020-11-16T08:13:26Z</time>
      </trkpt>
      <trkpt lat="28.7398170" lon="-17.7425080">
        <ele>385.0</ele>
        <time>2020-11-16T08:13:27Z</time>
      </trkpt>
      <trkpt lat="28.7397770" lon="-17.7425070">
        <ele>385.3</ele>
        <time>2020-11-16T08:13:28Z</time>
      </trkpt>
      <trkpt lat="28.7397770" lon="-17.7425070">
        <ele>385.3</ele>
        <time>2020-11-16T08:13:29Z</time>
      </trkpt>
      <trkpt lat="28.7397370" lon="-17.7424950">
        <ele>385.6</ele>
        <time>2020-11-16T08:13:30Z</time>
      </trkpt>
      <trkpt lat="28.7397370" lon="-17.7424950">
        <ele>385.6</ele>
        <time>2020-11-16T08:13:31Z</time>
      </trkpt>
      <trkpt lat="28.7396980" lon="-17.7424730">
        <ele>385.8</ele>
        <time>2020-11-16T08:13:32Z</time>
      </trkpt>
      <trkpt lat="28.7396980" lon="-17.7424730">
        <ele>385.8</ele>
        <time>2020-11-16T08:13:33Z</time>
      </trkpt>
      <trkpt lat="28.7396580" lon="-17.7424550">
        <ele>386.1</ele>
        <time>2020-11-16T08:13:34Z</time>
      </trkpt>
      <trkpt lat="28.7396580" lon="-17.7424550">
        <ele>386.1</ele>
        <time>2020-11-16T08:13:35Z</time>
      </trkpt>
      <trkpt lat="28.7396180" lon="-17.7424430">
        <ele>386.3</ele>
        <time>2020-11-16T08:13:36Z</time>
      </trkpt>
      <trkpt lat="28.7396000" lon="-17.7424370">
        <ele>386.4</ele>
        <time>2020-11-16T08:13:37Z</time>
      </trkpt>
      <trkpt lat="28.7396000" lon="-17.7424370">
        <ele>386.4</ele>
        <time>2020-11-16T08:13:38Z</time>
      </trkpt>
      <trkpt lat="28.7395620" lon="-17.7424250">
        <ele>386.6</ele>
        <time>2020-11-16T08:13:39Z</time>
      </trkpt>
      <trkpt lat="28.7395620" lon="-17.7424250">
        <ele>386.6</ele>
        <time>2020-11-16T08:13:40Z</time>
      </trkpt>
      <trkpt lat="28.7395250" lon="-17.7424100">
        <ele>386.9</ele>
        <time>2020-11-16T08:13:41Z</time>
      </trkpt>
      <trkpt lat="28.7395080" lon="-17.7423980">
        <ele>387.0</ele>
        <time>2020-11-16T08:13:42Z</time>
      </trkpt>
      <trkpt lat="28.7395080" lon="-17.7423980">
        <ele>387.0</ele>
        <time>2020-11-16T08:13:43Z</time>
      </trkpt>
      <trkpt lat="28.7394770" lon="-17.7423770">
        <ele>387.2</ele>
        <time>2020-11-16T08:13:44Z</time>
      </trkpt>
      <trkpt lat="28.7394770" lon="-17.7423770">
        <ele>387.2</ele>
        <time>2020-11-16T08:13:45Z</time>
      </trkpt>
      <trkpt lat="28.7394430" lon="-17.7423580">
        <ele>387.4</ele>
        <time>2020-11-16T08:13:46Z</time>
      </trkpt>
      <trkpt lat="28.7394270" lon="-17.7423480">
        <ele>387.5</ele>
        <time>2020-11-16T08:13:47Z</time>
      </trkpt>
      <trkpt lat="28.7394080" lon="-17.7423400">
        <ele>387.6</ele>
        <time>2020-11-16T08:13:48Z</time>
      </trkpt>
      <trkpt lat="28.7394080" lon="-17.7423400">
        <ele>387.6</ele>
        <time>2020-11-16T08:13:49Z</time>
      </trkpt>
      <trkpt lat="28.7393730" lon="-17.7423230">
        <ele>387.8</ele>
        <time>2020-11-16T08:13:50Z</time>
      </trkpt>
      <trkpt lat="28.7393730" lon="-17.7423230">
        <ele>387.8</ele>
        <time>2020-11-16T08:13:51Z</time>
      </trkpt>
      <trkpt lat="28.7393380" lon="-17.7423020">
        <ele>388.0</ele>
        <time>2020-11-16T08:13:52Z</time>
      </trkpt>
      <trkpt lat="28.7393200" lon="-17.7422920">
        <ele>388.1</ele>
        <time>2020-11-16T08:13:53Z</time>
      </trkpt>
      <trkpt lat="28.7393200" lon="-17.7422920">
        <ele>388.1</ele>
        <time>2020-11-16T08:13:54Z</time>
      </trkpt>
      <trkpt lat="28.7392870" lon="-17.7422730">
        <ele>388.3</ele>
        <time>2020-11-16T08:13:55Z</time>
      </trkpt>
      <trkpt lat="28.7392680" lon="-17.7422630">
        <ele>388.4</ele>
        <time>2020-11-16T08:13:56Z</time>
      </trkpt>
      <trkpt lat="28.7392680" lon="-17.7422630">
        <ele>388.4</ele>
        <time>2020-11-16T08:13:57Z</time>
      </trkpt>
      <trkpt lat="28.7392350" lon="-17.7422380">
        <ele>388.6</ele>
        <time>2020-11-16T08:13:58Z</time>
      </trkpt>
      <trkpt lat="28.7392350" lon="-17.7422380">
        <ele>388.6</ele>
        <time>2020-11-16T08:13:59Z</time>
      </trkpt>
      <trkpt lat="28.7392020" lon="-17.7422150">
        <ele>388.8</ele>
        <time>2020-11-16T08:14:00Z</time>
      </trkpt>
      <trkpt lat="28.7392020" lon="-17.7422150">
        <ele>388.8</ele>
        <time>2020-11-16T08:14:01Z</time>
      </trkpt>
      <trkpt lat="28.7391770" lon="-17.7421830">
        <ele>389.0</ele>
        <time>2020-11-16T08:14:02Z</time>
      </trkpt>
      <trkpt lat="28.7391770" lon="-17.7421830">
        <ele>389.0</ele>
        <time>2020-11-16T08:14:03Z</time>
      </trkpt>
      <trkpt lat="28.7391530" lon="-17.7421500">
        <ele>389.2</ele>
        <time>2020-11-16T08:14:04Z</time>
      </trkpt>
      <trkpt lat="28.7391530" lon="-17.7421500">
        <ele>389.2</ele>
        <time>2020-11-16T08:14:05Z</time>
      </trkpt>
      <trkpt lat="28.7391320" lon="-17.7421130">
        <ele>389.4</ele>
        <time>2020-11-16T08:14:06Z</time>
      </trkpt>
      <trkpt lat="28.7391320" lon="-17.7421130">
        <ele>389.4</ele>
        <time>2020-11-16T08:14:07Z</time>
      </trkpt>
      <trkpt lat="28.7391080" lon="-17.7420750">
        <ele>389.5</ele>
        <time>2020-11-16T08:14:08Z</time>
      </trkpt>
      <trkpt lat="28.7390970" lon="-17.7420580">
        <ele>389.6</ele>
        <time>2020-11-16T08:14:09Z</time>
      </trkpt>
      <trkpt lat="28.7390970" lon="-17.7420580">
        <ele>389.6</ele>
        <time>2020-11-16T08:14:10Z</time>
      </trkpt>
      <trkpt lat="28.7390720" lon="-17.7420250">
        <ele>389.8</ele>
        <time>2020-11-16T08:14:11Z</time>
      </trkpt>
      <trkpt lat="28.7390600" lon="-17.7420080">
        <ele>389.9</ele>
        <time>2020-11-16T08:14:12Z</time>
      </trkpt>
      <trkpt lat="28.7390600" lon="-17.7420080">
        <ele>389.9</ele>
        <time>2020-11-16T08:14:13Z</time>
      </trkpt>
      <trkpt lat="28.7390320" lon="-17.7419800">
        <ele>390.1</ele>
        <time>2020-11-16T08:14:14Z</time>
      </trkpt>
      <trkpt lat="28.7390320" lon="-17.7419800">
        <ele>390.1</ele>
        <time>2020-11-16T08:14:15Z</time>
      </trkpt>
      <trkpt lat="28.7390050" lon="-17.7419480">
        <ele>390.3</ele>
        <time>2020-11-16T08:14:16Z</time>
      </trkpt>
      <trkpt lat="28.7390050" lon="-17.7419480">
        <ele>390.3</ele>
        <time>2020-11-16T08:14:17Z</time>
      </trkpt>
      <trkpt lat="28.7389680" lon="-17.7419320">
        <ele>390.6</ele>
        <time>2020-11-16T08:14:18Z</time>
      </trkpt>
      <trkpt lat="28.7389480" lon="-17.7419270">
        <ele>390.7</ele>
        <time>2020-11-16T08:14:19Z</time>
      </trkpt>
      <trkpt lat="28.7389300" lon="-17.7419200">
        <ele>390.8</ele>
        <time>2020-11-16T08:14:20Z</time>
      </trkpt>
      <trkpt lat="28.7389300" lon="-17.7419200">
        <ele>390.8</ele>
        <time>2020-11-16T08:14:21Z</time>
      </trkpt>
      <trkpt lat="28.7388920" lon="-17.7419150">
        <ele>391.1</ele>
        <time>2020-11-16T08:14:22Z</time>
      </trkpt>
      <trkpt lat="28.7388720" lon="-17.7419120">
        <ele>391.2</ele>
        <time>2020-11-16T08:14:23Z</time>
      </trkpt>
      <trkpt lat="28.7388720" lon="-17.7419120">
        <ele>391.2</ele>
        <time>2020-11-16T08:14:24Z</time>
      </trkpt>
      <trkpt lat="28.7388320" lon="-17.7419100">
        <ele>391.5</ele>
        <time>2020-11-16T08:14:25Z</time>
      </trkpt>
      <trkpt lat="28.7388320" lon="-17.7419100">
        <ele>391.5</ele>
        <time>2020-11-16T08:14:26Z</time>
      </trkpt>
      <trkpt lat="28.7387950" lon="-17.7419180">
        <ele>391.7</ele>
        <time>2020-11-16T08:14:27Z</time>
      </trkpt>
      <trkpt lat="28.7387950" lon="-17.7419180">
        <ele>391.7</ele>
        <time>2020-11-16T08:14:28Z</time>
      </trkpt>
      <trkpt lat="28.7387580" lon="-17.7419330">
        <ele>392.0</ele>
        <time>2020-11-16T08:14:29Z</time>
      </trkpt>
      <trkpt lat="28.7387580" lon="-17.7419330">
        <ele>392.0</ele>
        <time>2020-11-16T08:14:30Z</time>
      </trkpt>
      <trkpt lat="28.7387230" lon="-17.7419570">
        <ele>392.3</ele>
        <time>2020-11-16T08:14:31Z</time>
      </trkpt>
      <trkpt lat="28.7387230" lon="-17.7419570">
        <ele>392.3</ele>
        <time>2020-11-16T08:14:32Z</time>
      </trkpt>
      <trkpt lat="28.7386920" lon="-17.7419850">
        <ele>392.5</ele>
        <time>2020-11-16T08:14:33Z</time>
      </trkpt>
      <trkpt lat="28.7386920" lon="-17.7419850">
        <ele>392.5</ele>
        <time>2020-11-16T08:14:34Z</time>
      </trkpt>
      <trkpt lat="28.7386550" lon="-17.7420030">
        <ele>392.8</ele>
        <time>2020-11-16T08:14:35Z</time>
      </trkpt>
      <trkpt lat="28.7386550" lon="-17.7420030">
        <ele>392.8</ele>
        <time>2020-11-16T08:14:36Z</time>
      </trkpt>
      <trkpt lat="28.7386170" lon="-17.7420250">
        <ele>393.0</ele>
        <time>2020-11-16T08:14:37Z</time>
      </trkpt>
      <trkpt lat="28.7385970" lon="-17.7420370">
        <ele>393.1</ele>
        <time>2020-11-16T08:14:38Z</time>
      </trkpt>
      <trkpt lat="28.7385970" lon="-17.7420370">
        <ele>393.1</ele>
        <time>2020-11-16T08:14:39Z</time>
      </trkpt>
      <trkpt lat="28.7385600" lon="-17.7420580">
        <ele>393.3</ele>
        <time>2020-11-16T08:14:40Z</time>
      </trkpt>
      <trkpt lat="28.7385400" lon="-17.7420720">
        <ele>393.4</ele>
        <time>2020-11-16T08:14:41Z</time>
      </trkpt>
      <trkpt lat="28.7385400" lon="-17.7420720">
        <ele>393.4</ele>
        <time>2020-11-16T08:14:42Z</time>
      </trkpt>
      <trkpt lat="28.7385070" lon="-17.7420930">
        <ele>393.6</ele>
        <time>2020-11-16T08:14:43Z</time>
      </trkpt>
      <trkpt lat="28.7385070" lon="-17.7420930">
        <ele>393.6</ele>
        <time>2020-11-16T08:14:44Z</time>
      </trkpt>
      <trkpt lat="28.7384750" lon="-17.7421200">
        <ele>393.8</ele>
        <time>2020-11-16T08:14:45Z</time>
      </trkpt>
      <trkpt lat="28.7384750" lon="-17.7421200">
        <ele>393.8</ele>
        <time>2020-11-16T08:14:46Z</time>
      </trkpt>
      <trkpt lat="28.7384470" lon="-17.7421520">
        <ele>394.0</ele>
        <time>2020-11-16T08:14:47Z</time>
      </trkpt>
      <trkpt lat="28.7384370" lon="-17.7421700">
        <ele>394.1</ele>
        <time>2020-11-16T08:14:48Z</time>
      </trkpt>
      <trkpt lat="28.7384280" lon="-17.7421900">
        <ele>394.2</ele>
        <time>2020-11-16T08:14:49Z</time>
      </trkpt>
      <trkpt lat="28.7384220" lon="-17.7422100">
        <ele>394.3</ele>
        <time>2020-11-16T08:14:50Z</time>
      </trkpt>
      <trkpt lat="28.7384220" lon="-17.7422100">
        <ele>394.3</ele>
        <time>2020-11-16T08:14:51Z</time>
      </trkpt>
      <trkpt lat="28.7384120" lon="-17.7422500">
        <ele>394.5</ele>
        <time>2020-11-16T08:14:52Z</time>
      </trkpt>
      <trkpt lat="28.7384120" lon="-17.7422500">
        <ele>394.5</ele>
        <time>2020-11-16T08:14:53Z</time>
      </trkpt>
      <trkpt lat="28.7384100" lon="-17.7422880">
        <ele>394.8</ele>
        <time>2020-11-16T08:14:54Z</time>
      </trkpt>
      <trkpt lat="28.7384100" lon="-17.7422880">
        <ele>394.8</ele>
        <time>2020-11-16T08:14:55Z</time>
      </trkpt>
      <trkpt lat="28.7384170" lon="-17.7423280">
        <ele>395.0</ele>
        <time>2020-11-16T08:14:56Z</time>
      </trkpt>
      <trkpt lat="28.7384220" lon="-17.7423480">
        <ele>395.2</ele>
        <time>2020-11-16T08:14:57Z</time>
      </trkpt>
      <trkpt lat="28.7384220" lon="-17.7423480">
        <ele>395.2</ele>
        <time>2020-11-16T08:14:58Z</time>
      </trkpt>
      <trkpt lat="28.7384420" lon="-17.7423850">
        <ele>395.4</ele>
        <time>2020-11-16T08:14:59Z</time>
      </trkpt>
      <trkpt lat="28.7384420" lon="-17.7423850">
        <ele>395.4</ele>
        <time>2020-11-16T08:15:00Z</time>
      </trkpt>
      <trkpt lat="28.7384720" lon="-17.7424130">
        <ele>395.7</ele>
        <time>2020-11-16T08:15:01Z</time>
      </trkpt>
      <trkpt lat="28.7384900" lon="-17.7424220">
        <ele>395.9</ele>
        <time>2020-11-16T08:15:02Z</time>
      </trkpt>
      <trkpt lat="28.7384900" lon="-17.7424220">
        <ele>395.9</ele>
        <time>2020-11-16T08:15:03Z</time>
      </trkpt>
      <trkpt lat="28.7385280" lon="-17.7424370">
        <ele>396.2</ele>
        <time>2020-11-16T08:15:04Z</time>
      </trkpt>
      <trkpt lat="28.7385480" lon="-17.7424450">
        <ele>396.4</ele>
        <time>2020-11-16T08:15:05Z</time>
      </trkpt>
      <trkpt lat="28.7385480" lon="-17.7424450">
        <ele>396.4</ele>
        <time>2020-11-16T08:15:06Z</time>
      </trkpt>
      <trkpt lat="28.7385850" lon="-17.7424580">
        <ele>396.6</ele>
        <time>2020-11-16T08:15:07Z</time>
      </trkpt>
      <trkpt lat="28.7386050" lon="-17.7424650">
        <ele>396.7</ele>
        <time>2020-11-16T08:15:08Z</time>
      </trkpt>
      <trkpt lat="28.7386050" lon="-17.7424650">
        <ele>396.7</ele>
        <time>2020-11-16T08:15:09Z</time>
      </trkpt>
      <trkpt lat="28.7386420" lon="-17.7424830">
        <ele>397.0</ele>
        <time>2020-11-16T08:15:10Z</time>
      </trkpt>
      <trkpt lat="28.7386420" lon="-17.7424830">
        <ele>397.0</ele>
        <time>2020-11-16T08:15:11Z</time>
      </trkpt>
      <trkpt lat="28.7386730" lon="-17.7425130">
        <ele>397.2</ele>
        <time>2020-11-16T08:15:12Z</time>
      </trkpt>
      <trkpt lat="28.7386730" lon="-17.7425130">
        <ele>397.2</ele>
        <time>2020-11-16T08:15:13Z</time>
      </trkpt>
      <trkpt lat="28.7387020" lon="-17.7425470">
        <ele>397.4</ele>
        <time>2020-11-16T08:15:14Z</time>
      </trkpt>
      <trkpt lat="28.7387020" lon="-17.7425470">
        <ele>397.4</ele>
        <time>2020-11-16T08:15:15Z</time>
      </trkpt>
      <trkpt lat="28.7387220" lon="-17.7425880">
        <ele>397.7</ele>
        <time>2020-11-16T08:15:16Z</time>
      </trkpt>
      <trkpt lat="28.7387220" lon="-17.7425880">
        <ele>397.7</ele>
        <time>2020-11-16T08:15:17Z</time>
      </trkpt>
      <trkpt lat="28.7387300" lon="-17.7426370">
        <ele>398.0</ele>
        <time>2020-11-16T08:15:18Z</time>
      </trkpt>
      <trkpt lat="28.7387300" lon="-17.7426370">
        <ele>398.0</ele>
        <time>2020-11-16T08:15:19Z</time>
      </trkpt>
      <trkpt lat="28.7387270" lon="-17.7426850">
        <ele>398.3</ele>
        <time>2020-11-16T08:15:20Z</time>
      </trkpt>
      <trkpt lat="28.7387270" lon="-17.7426850">
        <ele>398.3</ele>
        <time>2020-11-16T08:15:21Z</time>
      </trkpt>
      <trkpt lat="28.7387270" lon="-17.7427320">
        <ele>398.6</ele>
        <time>2020-11-16T08:15:22Z</time>
      </trkpt>
      <trkpt lat="28.7387250" lon="-17.7427530">
        <ele>398.7</ele>
        <time>2020-11-16T08:15:23Z</time>
      </trkpt>
      <trkpt lat="28.7387200" lon="-17.7427750">
        <ele>398.9</ele>
        <time>2020-11-16T08:15:24Z</time>
      </trkpt>
      <trkpt lat="28.7387200" lon="-17.7427750">
        <ele>398.9</ele>
        <time>2020-11-16T08:15:25Z</time>
      </trkpt>
      <trkpt lat="28.7387070" lon="-17.7428180">
        <ele>399.1</ele>
        <time>2020-11-16T08:15:26Z</time>
      </trkpt>
      <trkpt lat="28.7387070" lon="-17.7428180">
        <ele>399.1</ele>
        <time>2020-11-16T08:15:27Z</time>
      </trkpt>
      <trkpt lat="28.7386880" lon="-17.7428570">
        <ele>399.4</ele>
        <time>2020-11-16T08:15:28Z</time>
      </trkpt>
      <trkpt lat="28.7386800" lon="-17.7428750">
        <ele>399.5</ele>
        <time>2020-11-16T08:15:29Z</time>
      </trkpt>
      <trkpt lat="28.7386800" lon="-17.7428750">
        <ele>399.5</ele>
        <time>2020-11-16T08:15:30Z</time>
      </trkpt>
      <trkpt lat="28.7386550" lon="-17.7429120">
        <ele>399.7</ele>
        <time>2020-11-16T08:15:31Z</time>
      </trkpt>
      <trkpt lat="28.7386420" lon="-17.7429300">
        <ele>399.9</ele>
        <time>2020-11-16T08:15:32Z</time>
      </trkpt>
      <trkpt lat="28.7386420" lon="-17.7429300">
        <ele>399.9</ele>
        <time>2020-11-16T08:15:33Z</time>
      </trkpt>
      <trkpt lat="28.7386130" lon="-17.7429600">
        <ele>400.1</ele>
        <time>2020-11-16T08:15:34Z</time>
      </trkpt>
      <trkpt lat="28.7386130" lon="-17.7429600">
        <ele>400.1</ele>
        <time>2020-11-16T08:15:35Z</time>
      </trkpt>
      <trkpt lat="28.7385830" lon="-17.7429880">
        <ele>400.4</ele>
        <time>2020-11-16T08:15:36Z</time>
      </trkpt>
      <trkpt lat="28.7385830" lon="-17.7429880">
        <ele>400.4</ele>
        <time>2020-11-16T08:15:37Z</time>
      </trkpt>
      <trkpt lat="28.7385580" lon="-17.7430230">
        <ele>400.6</ele>
        <time>2020-11-16T08:15:38Z</time>
      </trkpt>
      <trkpt lat="28.7385450" lon="-17.7430420">
        <ele>400.8</ele>
        <time>2020-11-16T08:15:39Z</time>
      </trkpt>
      <trkpt lat="28.7385450" lon="-17.7430420">
        <ele>400.8</ele>
        <time>2020-11-16T08:15:40Z</time>
      </trkpt>
      <trkpt lat="28.7385180" lon="-17.7430750">
        <ele>401.1</ele>
        <time>2020-11-16T08:15:41Z</time>
      </trkpt>
      <trkpt lat="28.7385180" lon="-17.7430750">
        <ele>401.1</ele>
        <time>2020-11-16T08:15:42Z</time>
      </trkpt>
      <trkpt lat="28.7384870" lon="-17.7431050">
        <ele>401.4</ele>
        <time>2020-11-16T08:15:43Z</time>
      </trkpt>
      <trkpt lat="28.7384870" lon="-17.7431050">
        <ele>401.4</ele>
        <time>2020-11-16T08:15:44Z</time>
      </trkpt>
      <trkpt lat="28.7384600" lon="-17.7431330">
        <ele>401.6</ele>
        <time>2020-11-16T08:15:45Z</time>
      </trkpt>
      <trkpt lat="28.7384470" lon="-17.7431500">
        <ele>401.8</ele>
        <time>2020-11-16T08:15:46Z</time>
      </trkpt>
      <trkpt lat="28.7384320" lon="-17.7431630">
        <ele>401.9</ele>
        <time>2020-11-16T08:15:47Z</time>
      </trkpt>
      <trkpt lat="28.7384320" lon="-17.7431630">
        <ele>401.9</ele>
        <time>2020-11-16T08:15:48Z</time>
      </trkpt>
      <trkpt lat="28.7383980" lon="-17.7431830">
        <ele>402.2</ele>
        <time>2020-11-16T08:15:49Z</time>
      </trkpt>
      <trkpt lat="28.7383830" lon="-17.7431930">
        <ele>402.3</ele>
        <time>2020-11-16T08:15:50Z</time>
      </trkpt>
      <trkpt lat="28.7383830" lon="-17.7431930">
        <ele>402.3</ele>
        <time>2020-11-16T08:15:51Z</time>
      </trkpt>
      <trkpt lat="28.7383570" lon="-17.7432200">
        <ele>402.6</ele>
        <time>2020-11-16T08:15:52Z</time>
      </trkpt>
      <trkpt lat="28.7383430" lon="-17.7432350">
        <ele>402.7</ele>
        <time>2020-11-16T08:15:53Z</time>
      </trkpt>
      <trkpt lat="28.7383430" lon="-17.7432350">
        <ele>402.7</ele>
        <time>2020-11-16T08:15:54Z</time>
      </trkpt>
      <trkpt lat="28.7383170" lon="-17.7432650">
        <ele>403.0</ele>
        <time>2020-11-16T08:15:55Z</time>
      </trkpt>
      <trkpt lat="28.7383020" lon="-17.7432800">
        <ele>403.2</ele>
        <time>2020-11-16T08:15:56Z</time>
      </trkpt>
      <trkpt lat="28.7383020" lon="-17.7432800">
        <ele>403.2</ele>
        <time>2020-11-16T08:15:57Z</time>
      </trkpt>
      <trkpt lat="28.7382730" lon="-17.7433070">
        <ele>403.4</ele>
        <time>2020-11-16T08:15:58Z</time>
      </trkpt>
      <trkpt lat="28.7382730" lon="-17.7433070">
        <ele>403.4</ele>
        <time>2020-11-16T08:15:59Z</time>
      </trkpt>
      <trkpt lat="28.7382450" lon="-17.7433370">
        <ele>403.7</ele>
        <time>2020-11-16T08:16:00Z</time>
      </trkpt>
      <trkpt lat="28.7382450" lon="-17.7433370">
        <ele>403.7</ele>
        <time>2020-11-16T08:16:01Z</time>
      </trkpt>
      <trkpt lat="28.7382150" lon="-17.7433630">
        <ele>404.0</ele>
        <time>2020-11-16T08:16:02Z</time>
      </trkpt>
      <trkpt lat="28.7382150" lon="-17.7433630">
        <ele>404.0</ele>
        <time>2020-11-16T08:16:03Z</time>
      </trkpt>
      <trkpt lat="28.7381880" lon="-17.7433930">
        <ele>404.2</ele>
        <time>2020-11-16T08:16:04Z</time>
      </trkpt>
      <trkpt lat="28.7381750" lon="-17.7434080">
        <ele>404.4</ele>
        <time>2020-11-16T08:16:05Z</time>
      </trkpt>
      <trkpt lat="28.7381750" lon="-17.7434080">
        <ele>404.4</ele>
        <time>2020-11-16T08:16:06Z</time>
      </trkpt>
      <trkpt lat="28.7381530" lon="-17.7434420">
        <ele>404.6</ele>
        <time>2020-11-16T08:16:07Z</time>
      </trkpt>
      <trkpt lat="28.7381530" lon="-17.7434420">
        <ele>404.6</ele>
        <time>2020-11-16T08:16:08Z</time>
      </trkpt>
      <trkpt lat="28.7381320" lon="-17.7434770">
        <ele>404.9</ele>
        <time>2020-11-16T08:16:09Z</time>
      </trkpt>
      <trkpt lat="28.7381320" lon="-17.7434770">
        <ele>404.9</ele>
        <time>2020-11-16T08:16:10Z</time>
      </trkpt>
      <trkpt lat="28.7381130" lon="-17.7435130">
        <ele>405.2</ele>
        <time>2020-11-16T08:16:11Z</time>
      </trkpt>
      <trkpt lat="28.7381130" lon="-17.7435130">
        <ele>405.2</ele>
        <time>2020-11-16T08:16:12Z</time>
      </trkpt>
      <trkpt lat="28.7380920" lon="-17.7435480">
        <ele>405.4</ele>
        <time>2020-11-16T08:16:13Z</time>
      </trkpt>
      <trkpt lat="28.7380770" lon="-17.7435630">
        <ele>405.5</ele>
        <time>2020-11-16T08:16:14Z</time>
      </trkpt>
      <trkpt lat="28.7380770" lon="-17.7435630">
        <ele>405.5</ele>
        <time>2020-11-16T08:16:15Z</time>
      </trkpt>
      <trkpt lat="28.7380480" lon="-17.7435930">
        <ele>405.8</ele>
        <time>2020-11-16T08:16:16Z</time>
      </trkpt>
      <trkpt lat="28.7380480" lon="-17.7435930">
        <ele>405.8</ele>
        <time>2020-11-16T08:16:17Z</time>
      </trkpt>
      <trkpt lat="28.7380300" lon="-17.7436330">
        <ele>406.1</ele>
        <time>2020-11-16T08:16:18Z</time>
      </trkpt>
      <trkpt lat="28.7380250" lon="-17.7436550">
        <ele>406.2</ele>
        <time>2020-11-16T08:16:19Z</time>
      </trkpt>
      <trkpt lat="28.7380250" lon="-17.7436550">
        <ele>406.2</ele>
        <time>2020-11-16T08:16:20Z</time>
      </trkpt>
      <trkpt lat="28.7380150" lon="-17.7436970">
        <ele>406.4</ele>
        <time>2020-11-16T08:16:21Z</time>
      </trkpt>
      <trkpt lat="28.7380150" lon="-17.7436970">
        <ele>406.4</ele>
        <time>2020-11-16T08:16:22Z</time>
      </trkpt>
      <trkpt lat="28.7380130" lon="-17.7437380">
        <ele>406.7</ele>
        <time>2020-11-16T08:16:23Z</time>
      </trkpt>
      <trkpt lat="28.7380130" lon="-17.7437380">
        <ele>406.7</ele>
        <time>2020-11-16T08:16:24Z</time>
      </trkpt>
      <trkpt lat="28.7380220" lon="-17.7437800">
        <ele>407.3</ele>
        <time>2020-11-16T08:16:25Z</time>
      </trkpt>
      <trkpt lat="28.7380220" lon="-17.7437800">
        <ele>407.3</ele>
        <time>2020-11-16T08:16:26Z</time>
      </trkpt>
      <trkpt lat="28.7380470" lon="-17.7438150">
        <ele>407.6</ele>
        <time>2020-11-16T08:16:27Z</time>
      </trkpt>
      <trkpt lat="28.7380650" lon="-17.7438280">
        <ele>407.8</ele>
        <time>2020-11-16T08:16:28Z</time>
      </trkpt>
      <trkpt lat="28.7380650" lon="-17.7438280">
        <ele>407.8</ele>
        <time>2020-11-16T08:16:29Z</time>
      </trkpt>
      <trkpt lat="28.7381030" lon="-17.7438470">
        <ele>408.2</ele>
        <time>2020-11-16T08:16:30Z</time>
      </trkpt>
      <trkpt lat="28.7381030" lon="-17.7438470">
        <ele>408.2</ele>
        <time>2020-11-16T08:16:31Z</time>
      </trkpt>
      <trkpt lat="28.7381450" lon="-17.7438580">
        <ele>408.5</ele>
        <time>2020-11-16T08:16:32Z</time>
      </trkpt>
      <trkpt lat="28.7381670" lon="-17.7438650">
        <ele>408.7</ele>
        <time>2020-11-16T08:16:33Z</time>
      </trkpt>
      <trkpt lat="28.7381670" lon="-17.7438650">
        <ele>408.7</ele>
        <time>2020-11-16T08:16:34Z</time>
      </trkpt>
      <trkpt lat="28.7382120" lon="-17.7438680">
        <ele>409.1</ele>
        <time>2020-11-16T08:16:35Z</time>
      </trkpt>
      <trkpt lat="28.7382370" lon="-17.7438700">
        <ele>409.3</ele>
        <time>2020-11-16T08:16:36Z</time>
      </trkpt>
      <trkpt lat="28.7382370" lon="-17.7438700">
        <ele>409.3</ele>
        <time>2020-11-16T08:16:37Z</time>
      </trkpt>
      <trkpt lat="28.7382850" lon="-17.7438780">
        <ele>409.6</ele>
        <time>2020-11-16T08:16:38Z</time>
      </trkpt>
      <trkpt lat="28.7383080" lon="-17.7438830">
        <ele>409.8</ele>
        <time>2020-11-16T08:16:39Z</time>
      </trkpt>
      <trkpt lat="28.7383080" lon="-17.7438830">
        <ele>409.8</ele>
        <time>2020-11-16T08:16:40Z</time>
      </trkpt>
      <trkpt lat="28.7383580" lon="-17.7438900">
        <ele>410.1</ele>
        <time>2020-11-16T08:16:41Z</time>
      </trkpt>
      <trkpt lat="28.7383580" lon="-17.7438900">
        <ele>410.1</ele>
        <time>2020-11-16T08:16:42Z</time>
      </trkpt>
      <trkpt lat="28.7384100" lon="-17.7438950">
        <ele>410.4</ele>
        <time>2020-11-16T08:16:43Z</time>
      </trkpt>
      <trkpt lat="28.7384330" lon="-17.7439000">
        <ele>410.6</ele>
        <time>2020-11-16T08:16:44Z</time>
      </trkpt>
      <trkpt lat="28.7384330" lon="-17.7439000">
        <ele>410.6</ele>
        <time>2020-11-16T08:16:45Z</time>
      </trkpt>
      <trkpt lat="28.7384850" lon="-17.7439130">
        <ele>410.9</ele>
        <time>2020-11-16T08:16:46Z</time>
      </trkpt>
      <trkpt lat="28.7384850" lon="-17.7439130">
        <ele>410.9</ele>
        <time>2020-11-16T08:16:47Z</time>
      </trkpt>
      <trkpt lat="28.7385370" lon="-17.7439230">
        <ele>411.2</ele>
        <time>2020-11-16T08:16:48Z</time>
      </trkpt>
      <trkpt lat="28.7385650" lon="-17.7439270">
        <ele>411.4</ele>
        <time>2020-11-16T08:16:49Z</time>
      </trkpt>
      <trkpt lat="28.7385650" lon="-17.7439270">
        <ele>411.4</ele>
        <time>2020-11-16T08:16:50Z</time>
      </trkpt>
      <trkpt lat="28.7386180" lon="-17.7439320">
        <ele>411.7</ele>
        <time>2020-11-16T08:16:51Z</time>
      </trkpt>
      <trkpt lat="28.7386180" lon="-17.7439320">
        <ele>411.7</ele>
        <time>2020-11-16T08:16:52Z</time>
      </trkpt>
      <trkpt lat="28.7386730" lon="-17.7439370">
        <ele>412.0</ele>
        <time>2020-11-16T08:16:53Z</time>
      </trkpt>
      <trkpt lat="28.7387000" lon="-17.7439400">
        <ele>412.2</ele>
        <time>2020-11-16T08:16:54Z</time>
      </trkpt>
      <trkpt lat="28.7387000" lon="-17.7439400">
        <ele>412.2</ele>
        <time>2020-11-16T08:16:55Z</time>
      </trkpt>
      <trkpt lat="28.7387530" lon="-17.7439450">
        <ele>412.5</ele>
        <time>2020-11-16T08:16:56Z</time>
      </trkpt>
      <trkpt lat="28.7387530" lon="-17.7439450">
        <ele>412.5</ele>
        <time>2020-11-16T08:16:57Z</time>
      </trkpt>
      <trkpt lat="28.7388080" lon="-17.7439500">
        <ele>412.8</ele>
        <time>2020-11-16T08:16:58Z</time>
      </trkpt>
      <trkpt lat="28.7388080" lon="-17.7439500">
        <ele>412.8</ele>
        <time>2020-11-16T08:16:59Z</time>
      </trkpt>
      <trkpt lat="28.7388620" lon="-17.7439580">
        <ele>413.1</ele>
        <time>2020-11-16T08:17:00Z</time>
      </trkpt>
      <trkpt lat="28.7388620" lon="-17.7439580">
        <ele>413.1</ele>
        <time>2020-11-16T08:17:01Z</time>
      </trkpt>
      <trkpt lat="28.7389130" lon="-17.7439720">
        <ele>413.4</ele>
        <time>2020-11-16T08:17:02Z</time>
      </trkpt>
      <trkpt lat="28.7389130" lon="-17.7439720">
        <ele>413.4</ele>
        <time>2020-11-16T08:17:03Z</time>
      </trkpt>
      <trkpt lat="28.7389620" lon="-17.7439970">
        <ele>413.8</ele>
        <time>2020-11-16T08:17:04Z</time>
      </trkpt>
      <trkpt lat="28.7389830" lon="-17.7440120">
        <ele>414.0</ele>
        <time>2020-11-16T08:17:05Z</time>
      </trkpt>
      <trkpt lat="28.7389830" lon="-17.7440120">
        <ele>414.0</ele>
        <time>2020-11-16T08:17:06Z</time>
      </trkpt>
      <trkpt lat="28.7390220" lon="-17.7440530">
        <ele>414.4</ele>
        <time>2020-11-16T08:17:07Z</time>
      </trkpt>
      <trkpt lat="28.7390220" lon="-17.7440530">
        <ele>414.4</ele>
        <time>2020-11-16T08:17:08Z</time>
      </trkpt>
      <trkpt lat="28.7390450" lon="-17.7441050">
        <ele>414.8</ele>
        <time>2020-11-16T08:17:09Z</time>
      </trkpt>
      <trkpt lat="28.7390450" lon="-17.7441050">
        <ele>414.8</ele>
        <time>2020-11-16T08:17:10Z</time>
      </trkpt>
      <trkpt lat="28.7390650" lon="-17.7441600">
        <ele>415.3</ele>
        <time>2020-11-16T08:17:11Z</time>
      </trkpt>
      <trkpt lat="28.7390650" lon="-17.7441600">
        <ele>415.3</ele>
        <time>2020-11-16T08:17:12Z</time>
      </trkpt>
      <trkpt lat="28.7390820" lon="-17.7442120">
        <ele>415.7</ele>
        <time>2020-11-16T08:17:13Z</time>
      </trkpt>
      <trkpt lat="28.7390930" lon="-17.7442370">
        <ele>416.0</ele>
        <time>2020-11-16T08:17:14Z</time>
      </trkpt>
      <trkpt lat="28.7390930" lon="-17.7442370">
        <ele>416.0</ele>
        <time>2020-11-16T08:17:15Z</time>
      </trkpt>
      <trkpt lat="28.7391100" lon="-17.7442820">
        <ele>416.4</ele>
        <time>2020-11-16T08:17:16Z</time>
      </trkpt>
      <trkpt lat="28.7391100" lon="-17.7442820">
        <ele>416.4</ele>
        <time>2020-11-16T08:17:17Z</time>
      </trkpt>
      <trkpt lat="28.7391180" lon="-17.7443250">
        <ele>416.9</ele>
        <time>2020-11-16T08:17:18Z</time>
      </trkpt>
      <trkpt lat="28.7391180" lon="-17.7443250">
        <ele>416.9</ele>
        <time>2020-11-16T08:17:19Z</time>
      </trkpt>
      <trkpt lat="28.7391370" lon="-17.7443680">
        <ele>417.4</ele>
        <time>2020-11-16T08:17:20Z</time>
      </trkpt>
      <trkpt lat="28.7391370" lon="-17.7443680">
        <ele>417.4</ele>
        <time>2020-11-16T08:17:21Z</time>
      </trkpt>
      <trkpt lat="28.7391550" lon="-17.7444080">
        <ele>417.8</ele>
        <time>2020-11-16T08:17:22Z</time>
      </trkpt>
      <trkpt lat="28.7391620" lon="-17.7444280">
        <ele>418.1</ele>
        <time>2020-11-16T08:17:23Z</time>
      </trkpt>
      <trkpt lat="28.7391620" lon="-17.7444280">
        <ele>418.1</ele>
        <time>2020-11-16T08:17:24Z</time>
      </trkpt>
      <trkpt lat="28.7391770" lon="-17.7444680">
        <ele>418.5</ele>
        <time>2020-11-16T08:17:25Z</time>
      </trkpt>
      <trkpt lat="28.7391820" lon="-17.7444920">
        <ele>418.8</ele>
        <time>2020-11-16T08:17:26Z</time>
      </trkpt>
      <trkpt lat="28.7391820" lon="-17.7444920">
        <ele>418.8</ele>
        <time>2020-11-16T08:17:27Z</time>
      </trkpt>
      <trkpt lat="28.7391920" lon="-17.7445420">
        <ele>419.4</ele>
        <time>2020-11-16T08:17:28Z</time>
      </trkpt>
      <trkpt lat="28.7391980" lon="-17.7445680">
        <ele>419.7</ele>
        <time>2020-11-16T08:17:29Z</time>
      </trkpt>
      <trkpt lat="28.7392030" lon="-17.7445900">
        <ele>419.9</ele>
        <time>2020-11-16T08:17:30Z</time>
      </trkpt>
      <trkpt lat="28.7392030" lon="-17.7445900">
        <ele>419.9</ele>
        <time>2020-11-16T08:17:31Z</time>
      </trkpt>
      <trkpt lat="28.7392070" lon="-17.7446080">
        <ele>420.1</ele>
        <time>2020-11-16T08:17:32Z</time>
      </trkpt>
      <trkpt lat="28.7392070" lon="-17.7446080">
        <ele>420.1</ele>
        <time>2020-11-16T08:17:33Z</time>
      </trkpt>
      <trkpt lat="28.7391900" lon="-17.7446330">
        <ele>420.4</ele>
        <time>2020-11-16T08:17:34Z</time>
      </trkpt>
      <trkpt lat="28.7391780" lon="-17.7446480">
        <ele>421.0</ele>
        <time>2020-11-16T08:17:35Z</time>
      </trkpt>
      <trkpt lat="28.7391780" lon="-17.7446480">
        <ele>421.0</ele>
        <time>2020-11-16T08:17:36Z</time>
      </trkpt>
      <trkpt lat="28.7391470" lon="-17.7446830">
        <ele>421.0</ele>
        <time>2020-11-16T08:17:37Z</time>
      </trkpt>
      <trkpt lat="28.7391270" lon="-17.7446950">
        <ele>421.0</ele>
        <time>2020-11-16T08:17:38Z</time>
      </trkpt>
      <trkpt lat="28.7391050" lon="-17.7447080">
        <ele>421.0</ele>
        <time>2020-11-16T08:17:39Z</time>
      </trkpt>
      <trkpt lat="28.7391050" lon="-17.7447080">
        <ele>421.0</ele>
        <time>2020-11-16T08:17:40Z</time>
      </trkpt>
      <trkpt lat="28.7390620" lon="-17.7447300">
        <ele>421.0</ele>
        <time>2020-11-16T08:17:41Z</time>
      </trkpt>
      <trkpt lat="28.7390620" lon="-17.7447300">
        <ele>421.0</ele>
        <time>2020-11-16T08:17:42Z</time>
      </trkpt>
      <trkpt lat="28.7390100" lon="-17.7447530">
        <ele>421.1</ele>
        <time>2020-11-16T08:17:43Z</time>
      </trkpt>
      <trkpt lat="28.7389830" lon="-17.7447700">
        <ele>421.1</ele>
        <time>2020-11-16T08:17:44Z</time>
      </trkpt>
      <trkpt lat="28.7389830" lon="-17.7447700">
        <ele>421.1</ele>
        <time>2020-11-16T08:17:45Z</time>
      </trkpt>
      <trkpt lat="28.7389300" lon="-17.7448100">
        <ele>421.1</ele>
        <time>2020-11-16T08:17:46Z</time>
      </trkpt>
      <trkpt lat="28.7389000" lon="-17.7448330">
        <ele>421.1</ele>
        <time>2020-11-16T08:17:47Z</time>
      </trkpt>
      <trkpt lat="28.7389000" lon="-17.7448330">
        <ele>421.1</ele>
        <time>2020-11-16T08:17:48Z</time>
      </trkpt>
      <trkpt lat="28.7388350" lon="-17.7448680">
        <ele>421.2</ele>
        <time>2020-11-16T08:17:49Z</time>
      </trkpt>
      <trkpt lat="28.7387980" lon="-17.7448850">
        <ele>421.2</ele>
        <time>2020-11-16T08:17:50Z</time>
      </trkpt>
      <trkpt lat="28.7387980" lon="-17.7448850">
        <ele>421.2</ele>
        <time>2020-11-16T08:17:51Z</time>
      </trkpt>
      <trkpt lat="28.7387200" lon="-17.7449270">
        <ele>421.3</ele>
        <time>2020-11-16T08:17:52Z</time>
      </trkpt>
      <trkpt lat="28.7386800" lon="-17.7449520">
        <ele>421.3</ele>
        <time>2020-11-16T08:17:53Z</time>
      </trkpt>
      <trkpt lat="28.7386800" lon="-17.7449520">
        <ele>421.3</ele>
        <time>2020-11-16T08:17:54Z</time>
      </trkpt>
      <trkpt lat="28.7386000" lon="-17.7450000">
        <ele>421.2</ele>
        <time>2020-11-16T08:17:55Z</time>
      </trkpt>
      <trkpt lat="28.7385580" lon="-17.7450250">
        <ele>421.1</ele>
        <time>2020-11-16T08:17:56Z</time>
      </trkpt>
      <trkpt lat="28.7385580" lon="-17.7450250">
        <ele>421.1</ele>
        <time>2020-11-16T08:17:57Z</time>
      </trkpt>
      <trkpt lat="28.7384720" lon="-17.7450830">
        <ele>421.0</ele>
        <time>2020-11-16T08:17:58Z</time>
      </trkpt>
      <trkpt lat="28.7384270" lon="-17.7451130">
        <ele>420.9</ele>
        <time>2020-11-16T08:17:59Z</time>
      </trkpt>
      <trkpt lat="28.7384270" lon="-17.7451130">
        <ele>420.9</ele>
        <time>2020-11-16T08:18:00Z</time>
      </trkpt>
      <trkpt lat="28.7383380" lon="-17.7451730">
        <ele>420.9</ele>
        <time>2020-11-16T08:18:01Z</time>
      </trkpt>
      <trkpt lat="28.7383380" lon="-17.7451730">
        <ele>420.9</ele>
        <time>2020-11-16T08:18:02Z</time>
      </trkpt>
      <trkpt lat="28.7382520" lon="-17.7452380">
        <ele>420.8</ele>
        <time>2020-11-16T08:18:03Z</time>
      </trkpt>
      <trkpt lat="28.7382520" lon="-17.7452380">
        <ele>420.8</ele>
        <time>2020-11-16T08:18:04Z</time>
      </trkpt>
      <trkpt lat="28.7381670" lon="-17.7453030">
        <ele>420.8</ele>
        <time>2020-11-16T08:18:05Z</time>
      </trkpt>
      <trkpt lat="28.7381230" lon="-17.7453380">
        <ele>420.8</ele>
        <time>2020-11-16T08:18:06Z</time>
      </trkpt>
      <trkpt lat="28.7381230" lon="-17.7453380">
        <ele>420.8</ele>
        <time>2020-11-16T08:18:07Z</time>
      </trkpt>
      <trkpt lat="28.7380330" lon="-17.7454050">
        <ele>420.7</ele>
        <time>2020-11-16T08:18:08Z</time>
      </trkpt>
      <trkpt lat="28.7380330" lon="-17.7454050">
        <ele>420.7</ele>
        <time>2020-11-16T08:18:09Z</time>
      </trkpt>
      <trkpt lat="28.7379450" lon="-17.7454700">
        <ele>420.8</ele>
        <time>2020-11-16T08:18:10Z</time>
      </trkpt>
      <trkpt lat="28.7379020" lon="-17.7455030">
        <ele>420.8</ele>
        <time>2020-11-16T08:18:11Z</time>
      </trkpt>
      <trkpt lat="28.7378580" lon="-17.7455350">
        <ele>420.8</ele>
        <time>2020-11-16T08:18:12Z</time>
      </trkpt>
      <trkpt lat="28.7378580" lon="-17.7455350">
        <ele>420.8</ele>
        <time>2020-11-16T08:18:13Z</time>
      </trkpt>
      <trkpt lat="28.7377720" lon="-17.7456000">
        <ele>420.9</ele>
        <time>2020-11-16T08:18:14Z</time>
      </trkpt>
      <trkpt lat="28.7377280" lon="-17.7456300">
        <ele>420.9</ele>
        <time>2020-11-16T08:18:15Z</time>
      </trkpt>
      <trkpt lat="28.7377280" lon="-17.7456300">
        <ele>420.9</ele>
        <time>2020-11-16T08:18:16Z</time>
      </trkpt>
      <trkpt lat="28.7376430" lon="-17.7456900">
        <ele>420.9</ele>
        <time>2020-11-16T08:18:17Z</time>
      </trkpt>
      <trkpt lat="28.7376430" lon="-17.7456900">
        <ele>420.5</ele>
        <time>2020-11-16T08:18:18Z</time>
      </trkpt>
      <trkpt lat="28.7375780" lon="-17.7457670">
        <ele>418.8</ele>
        <time>2020-11-16T08:18:19Z</time>
      </trkpt>
      <trkpt lat="28.7375620" lon="-17.7458130">
        <ele>418.2</ele>
        <time>2020-11-16T08:18:20Z</time>
      </trkpt>
      <trkpt lat="28.7375620" lon="-17.7458130">
        <ele>418.2</ele>
        <time>2020-11-16T08:18:21Z</time>
      </trkpt>
      <trkpt lat="28.7375580" lon="-17.7459130">
        <ele>418.2</ele>
        <time>2020-11-16T08:18:22Z</time>
      </trkpt>
      <trkpt lat="28.7375580" lon="-17.7459130">
        <ele>420.0</ele>
        <time>2020-11-16T08:18:23Z</time>
      </trkpt>
      <trkpt lat="28.7375820" lon="-17.7460130">
        <ele>422.0</ele>
        <time>2020-11-16T08:18:24Z</time>
      </trkpt>
      <trkpt lat="28.7375950" lon="-17.7460650">
        <ele>421.6</ele>
        <time>2020-11-16T08:18:25Z</time>
      </trkpt>
      <trkpt lat="28.7375950" lon="-17.7460650">
        <ele>421.6</ele>
        <time>2020-11-16T08:18:26Z</time>
      </trkpt>
      <trkpt lat="28.7375970" lon="-17.7461700">
        <ele>421.0</ele>
        <time>2020-11-16T08:18:27Z</time>
      </trkpt>
      <trkpt lat="28.7375970" lon="-17.7461700">
        <ele>421.0</ele>
        <time>2020-11-16T08:18:28Z</time>
      </trkpt>
      <trkpt lat="28.7375450" lon="-17.7462520">
        <ele>420.8</ele>
        <time>2020-11-16T08:18:29Z</time>
      </trkpt>
      <trkpt lat="28.7375070" lon="-17.7462780">
        <ele>420.8</ele>
        <time>2020-11-16T08:18:30Z</time>
      </trkpt>
      <trkpt lat="28.7375070" lon="-17.7462780">
        <ele>420.8</ele>
        <time>2020-11-16T08:18:31Z</time>
      </trkpt>
      <trkpt lat="28.7374270" lon="-17.7463080">
        <ele>420.8</ele>
        <time>2020-11-16T08:18:32Z</time>
      </trkpt>
      <trkpt lat="28.7373850" lon="-17.7463050">
        <ele>420.8</ele>
        <time>2020-11-16T08:18:33Z</time>
      </trkpt>
      <trkpt lat="28.7373850" lon="-17.7463050">
        <ele>420.8</ele>
        <time>2020-11-16T08:18:34Z</time>
      </trkpt>
      <trkpt lat="28.7373020" lon="-17.7462800">
        <ele>420.7</ele>
        <time>2020-11-16T08:18:35Z</time>
      </trkpt>
      <trkpt lat="28.7372580" lon="-17.7462670">
        <ele>420.7</ele>
        <time>2020-11-16T08:18:36Z</time>
      </trkpt>
      <trkpt lat="28.7372580" lon="-17.7462670">
        <ele>420.7</ele>
        <time>2020-11-16T08:18:37Z</time>
      </trkpt>
      <trkpt lat="28.7371720" lon="-17.7462480">
        <ele>420.6</ele>
        <time>2020-11-16T08:18:38Z</time>
      </trkpt>
      <trkpt lat="28.7371720" lon="-17.7462480">
        <ele>420.6</ele>
        <time>2020-11-16T08:18:39Z</time>
      </trkpt>
      <trkpt lat="28.7370870" lon="-17.7462400">
        <ele>420.5</ele>
        <time>2020-11-16T08:18:40Z</time>
      </trkpt>
      <trkpt lat="28.7370430" lon="-17.7462370">
        <ele>420.5</ele>
        <time>2020-11-16T08:18:41Z</time>
      </trkpt>
      <trkpt lat="28.7370430" lon="-17.7462370">
        <ele>420.5</ele>
        <time>2020-11-16T08:18:42Z</time>
      </trkpt>
      <trkpt lat="28.7369550" lon="-17.7462380">
        <ele>420.9</ele>
        <time>2020-11-16T08:18:43Z</time>
      </trkpt>
      <trkpt lat="28.7369550" lon="-17.7462380">
        <ele>420.9</ele>
        <time>2020-11-16T08:18:44Z</time>
      </trkpt>
      <trkpt lat="28.7368670" lon="-17.7462380">
        <ele>421.6</ele>
        <time>2020-11-16T08:18:45Z</time>
      </trkpt>
      <trkpt lat="28.7368670" lon="-17.7462380">
        <ele>421.6</ele>
        <time>2020-11-16T08:18:46Z</time>
      </trkpt>
      <trkpt lat="28.7367770" lon="-17.7462430">
        <ele>422.5</ele>
        <time>2020-11-16T08:18:47Z</time>
      </trkpt>
      <trkpt lat="28.7367370" lon="-17.7462520">
        <ele>422.8</ele>
        <time>2020-11-16T08:18:48Z</time>
      </trkpt>
      <trkpt lat="28.7367370" lon="-17.7462520">
        <ele>422.8</ele>
        <time>2020-11-16T08:18:49Z</time>
      </trkpt>
      <trkpt lat="28.7366620" lon="-17.7462720">
        <ele>423.5</ele>
        <time>2020-11-16T08:18:50Z</time>
      </trkpt>
      <trkpt lat="28.7366620" lon="-17.7462720">
        <ele>423.5</ele>
        <time>2020-11-16T08:18:51Z</time>
      </trkpt>
      <trkpt lat="28.7365950" lon="-17.7462770">
        <ele>424.2</ele>
        <time>2020-11-16T08:18:52Z</time>
      </trkpt>
      <trkpt lat="28.7365950" lon="-17.7462770">
        <ele>424.2</ele>
        <time>2020-11-16T08:18:53Z</time>
      </trkpt>
      <trkpt lat="28.7365600" lon="-17.7462700">
        <ele>424.5</ele>
        <time>2020-11-16T08:18:54Z</time>
      </trkpt>
      <trkpt lat="28.7365600" lon="-17.7462700">
        <ele>424.5</ele>
        <time>2020-11-16T08:18:55Z</time>
      </trkpt>
      <trkpt lat="28.7365580" lon="-17.7462730">
        <ele>424.5</ele>
        <time>2020-11-16T08:18:56Z</time>
      </trkpt>
      <trkpt lat="28.7365580" lon="-17.7462750">
        <ele>424.5</ele>
        <time>2020-11-16T08:18:57Z</time>
      </trkpt>
      <trkpt lat="28.7365580" lon="-17.7462750">
        <ele>424.5</ele>
        <time>2020-11-16T08:19:37Z</time>
      </trkpt>
      <trkpt lat="28.7365200" lon="-17.7462820">
        <ele>424.9</ele>
        <time>2020-11-16T08:19:38Z</time>
      </trkpt>
      <trkpt lat="28.7365200" lon="-17.7462820">
        <ele>424.9</ele>
        <time>2020-11-16T08:19:39Z</time>
      </trkpt>
      <trkpt lat="28.7364780" lon="-17.7462800">
        <ele>425.4</ele>
        <time>2020-11-16T08:19:40Z</time>
      </trkpt>
      <trkpt lat="28.7364780" lon="-17.7462800">
        <ele>425.4</ele>
        <time>2020-11-16T08:19:41Z</time>
      </trkpt>
      <trkpt lat="28.7364300" lon="-17.7462750">
        <ele>426.0</ele>
        <time>2020-11-16T08:19:42Z</time>
      </trkpt>
      <trkpt lat="28.7364300" lon="-17.7462750">
        <ele>426.0</ele>
        <time>2020-11-16T08:19:43Z</time>
      </trkpt>
      <trkpt lat="28.7363780" lon="-17.7462600">
        <ele>426.7</ele>
        <time>2020-11-16T08:19:44Z</time>
      </trkpt>
      <trkpt lat="28.7363780" lon="-17.7462600">
        <ele>426.7</ele>
        <time>2020-11-16T08:19:45Z</time>
      </trkpt>
      <trkpt lat="28.7363270" lon="-17.7462480">
        <ele>427.6</ele>
        <time>2020-11-16T08:19:46Z</time>
      </trkpt>
      <trkpt lat="28.7363270" lon="-17.7462480">
        <ele>427.6</ele>
        <time>2020-11-16T08:19:47Z</time>
      </trkpt>
      <trkpt lat="28.7362780" lon="-17.7462420">
        <ele>428.5</ele>
        <time>2020-11-16T08:19:48Z</time>
      </trkpt>
      <trkpt lat="28.7362780" lon="-17.7462420">
        <ele>428.5</ele>
        <time>2020-11-16T08:19:49Z</time>
      </trkpt>
      <trkpt lat="28.7362400" lon="-17.7462380">
        <ele>429.2</ele>
        <time>2020-11-16T08:19:50Z</time>
      </trkpt>
      <trkpt lat="28.7362400" lon="-17.7462380">
        <ele>429.2</ele>
        <time>2020-11-16T08:19:51Z</time>
      </trkpt>
      <trkpt lat="28.7362030" lon="-17.7462320">
        <ele>430.0</ele>
        <time>2020-11-16T08:19:52Z</time>
      </trkpt>
      <trkpt lat="28.7361850" lon="-17.7462250">
        <ele>430.3</ele>
        <time>2020-11-16T08:19:53Z</time>
      </trkpt>
      <trkpt lat="28.7361850" lon="-17.7462250">
        <ele>430.3</ele>
        <time>2020-11-16T08:19:54Z</time>
      </trkpt>
      <trkpt lat="28.7361470" lon="-17.7462170">
        <ele>430.9</ele>
        <time>2020-11-16T08:19:55Z</time>
      </trkpt>
      <trkpt lat="28.7361280" lon="-17.7462150">
        <ele>431.2</ele>
        <time>2020-11-16T08:19:56Z</time>
      </trkpt>
      <trkpt lat="28.7361280" lon="-17.7462150">
        <ele>431.2</ele>
        <time>2020-11-16T08:19:57Z</time>
      </trkpt>
      <trkpt lat="28.7360880" lon="-17.7462070">
        <ele>431.9</ele>
        <time>2020-11-16T08:19:58Z</time>
      </trkpt>
      <trkpt lat="28.7360880" lon="-17.7462070">
        <ele>431.9</ele>
        <time>2020-11-16T08:19:59Z</time>
      </trkpt>
      <trkpt lat="28.7360470" lon="-17.7462070">
        <ele>432.5</ele>
        <time>2020-11-16T08:20:00Z</time>
      </trkpt>
      <trkpt lat="28.7360270" lon="-17.7462030">
        <ele>432.9</ele>
        <time>2020-11-16T08:20:01Z</time>
      </trkpt>
      <trkpt lat="28.7360270" lon="-17.7462030">
        <ele>432.9</ele>
        <time>2020-11-16T08:20:02Z</time>
      </trkpt>
      <trkpt lat="28.7359930" lon="-17.7461830">
        <ele>433.6</ele>
        <time>2020-11-16T08:20:03Z</time>
      </trkpt>
      <trkpt lat="28.7359930" lon="-17.7461830">
        <ele>433.6</ele>
        <time>2020-11-16T08:20:04Z</time>
      </trkpt>
      <trkpt lat="28.7359570" lon="-17.7461770">
        <ele>434.2</ele>
        <time>2020-11-16T08:20:05Z</time>
      </trkpt>
      <trkpt lat="28.7359370" lon="-17.7461720">
        <ele>434.6</ele>
        <time>2020-11-16T08:20:06Z</time>
      </trkpt>
      <trkpt lat="28.7359370" lon="-17.7461720">
        <ele>434.6</ele>
        <time>2020-11-16T08:20:07Z</time>
      </trkpt>
      <trkpt lat="28.7358920" lon="-17.7461670">
        <ele>435.3</ele>
        <time>2020-11-16T08:20:08Z</time>
      </trkpt>
      <trkpt lat="28.7358920" lon="-17.7461670">
        <ele>435.3</ele>
        <time>2020-11-16T08:20:09Z</time>
      </trkpt>
      <trkpt lat="28.7358480" lon="-17.7461630">
        <ele>435.9</ele>
        <time>2020-11-16T08:20:10Z</time>
      </trkpt>
      <trkpt lat="28.7358480" lon="-17.7461630">
        <ele>435.9</ele>
        <time>2020-11-16T08:20:11Z</time>
      </trkpt>
      <trkpt lat="28.7358120" lon="-17.7461600">
        <ele>436.4</ele>
        <time>2020-11-16T08:20:12Z</time>
      </trkpt>
      <trkpt lat="28.7357920" lon="-17.7461580">
        <ele>436.7</ele>
        <time>2020-11-16T08:20:13Z</time>
      </trkpt>
      <trkpt lat="28.7357730" lon="-17.7461530">
        <ele>436.9</ele>
        <time>2020-11-16T08:20:14Z</time>
      </trkpt>
      <trkpt lat="28.7357730" lon="-17.7461530">
        <ele>436.9</ele>
        <time>2020-11-16T08:20:15Z</time>
      </trkpt>
      <trkpt lat="28.7357370" lon="-17.7461400">
        <ele>437.4</ele>
        <time>2020-11-16T08:20:16Z</time>
      </trkpt>
      <trkpt lat="28.7357370" lon="-17.7461400">
        <ele>437.4</ele>
        <time>2020-11-16T08:20:17Z</time>
      </trkpt>
      <trkpt lat="28.7356980" lon="-17.7461330">
        <ele>438.0</ele>
        <time>2020-11-16T08:20:18Z</time>
      </trkpt>
      <trkpt lat="28.7356980" lon="-17.7461330">
        <ele>438.0</ele>
        <time>2020-11-16T08:20:19Z</time>
      </trkpt>
      <trkpt lat="28.7356580" lon="-17.7461270">
        <ele>438.5</ele>
        <time>2020-11-16T08:20:20Z</time>
      </trkpt>
      <trkpt lat="28.7356580" lon="-17.7461270">
        <ele>438.5</ele>
        <time>2020-11-16T08:20:21Z</time>
      </trkpt>
      <trkpt lat="28.7356230" lon="-17.7461230">
        <ele>439.0</ele>
        <time>2020-11-16T08:20:22Z</time>
      </trkpt>
      <trkpt lat="28.7356230" lon="-17.7461230">
        <ele>439.0</ele>
        <time>2020-11-16T08:20:23Z</time>
      </trkpt>
      <trkpt lat="28.7355850" lon="-17.7461330">
        <ele>439.6</ele>
        <time>2020-11-16T08:20:24Z</time>
      </trkpt>
      <trkpt lat="28.7355680" lon="-17.7461420">
        <ele>439.8</ele>
        <time>2020-11-16T08:20:25Z</time>
      </trkpt>
      <trkpt lat="28.7355680" lon="-17.7461420">
        <ele>439.8</ele>
        <time>2020-11-16T08:20:26Z</time>
      </trkpt>
      <trkpt lat="28.7355330" lon="-17.7461650">
        <ele>440.4</ele>
        <time>2020-11-16T08:20:27Z</time>
      </trkpt>
      <trkpt lat="28.7355330" lon="-17.7461650">
        <ele>440.4</ele>
        <time>2020-11-16T08:20:28Z</time>
      </trkpt>
      <trkpt lat="28.7355070" lon="-17.7461870">
        <ele>440.8</ele>
        <time>2020-11-16T08:20:29Z</time>
      </trkpt>
      <trkpt lat="28.7355070" lon="-17.7461870">
        <ele>440.8</ele>
        <time>2020-11-16T08:20:30Z</time>
      </trkpt>
      <trkpt lat="28.7354870" lon="-17.7462170">
        <ele>441.3</ele>
        <time>2020-11-16T08:20:31Z</time>
      </trkpt>
      <trkpt lat="28.7354800" lon="-17.7462320">
        <ele>441.5</ele>
        <time>2020-11-16T08:20:32Z</time>
      </trkpt>
      <trkpt lat="28.7354800" lon="-17.7462320">
        <ele>441.5</ele>
        <time>2020-11-16T08:20:33Z</time>
      </trkpt>
      <trkpt lat="28.7354770" lon="-17.7462680">
        <ele>442.0</ele>
        <time>2020-11-16T08:20:34Z</time>
      </trkpt>
      <trkpt lat="28.7354770" lon="-17.7462680">
        <ele>442.0</ele>
        <time>2020-11-16T08:20:35Z</time>
      </trkpt>
      <trkpt lat="28.7354800" lon="-17.7463050">
        <ele>442.4</ele>
        <time>2020-11-16T08:20:36Z</time>
      </trkpt>
      <trkpt lat="28.7354800" lon="-17.7463050">
        <ele>442.4</ele>
        <time>2020-11-16T08:20:37Z</time>
      </trkpt>
      <trkpt lat="28.7354800" lon="-17.7463450">
        <ele>442.8</ele>
        <time>2020-11-16T08:20:38Z</time>
      </trkpt>
      <trkpt lat="28.7354800" lon="-17.7463450">
        <ele>442.8</ele>
        <time>2020-11-16T08:20:39Z</time>
      </trkpt>
      <trkpt lat="28.7354930" lon="-17.7463830">
        <ele>443.3</ele>
        <time>2020-11-16T08:20:40Z</time>
      </trkpt>
      <trkpt lat="28.7354930" lon="-17.7463830">
        <ele>443.3</ele>
        <time>2020-11-16T08:20:41Z</time>
      </trkpt>
      <trkpt lat="28.7355080" lon="-17.7464200">
        <ele>443.7</ele>
        <time>2020-11-16T08:20:42Z</time>
      </trkpt>
      <trkpt lat="28.7355080" lon="-17.7464200">
        <ele>443.7</ele>
        <time>2020-11-16T08:20:43Z</time>
      </trkpt>
      <trkpt lat="28.7355280" lon="-17.7464480">
        <ele>444.0</ele>
        <time>2020-11-16T08:20:44Z</time>
      </trkpt>
      <trkpt lat="28.7355280" lon="-17.7464480">
        <ele>444.0</ele>
        <time>2020-11-16T08:20:45Z</time>
      </trkpt>
      <trkpt lat="28.7355480" lon="-17.7464730">
        <ele>444.3</ele>
        <time>2020-11-16T08:20:46Z</time>
      </trkpt>
      <trkpt lat="28.7355480" lon="-17.7464730">
        <ele>444.3</ele>
        <time>2020-11-16T08:20:47Z</time>
      </trkpt>
      <trkpt lat="28.7355720" lon="-17.7465030">
        <ele>444.7</ele>
        <time>2020-11-16T08:20:48Z</time>
      </trkpt>
      <trkpt lat="28.7355720" lon="-17.7465030">
        <ele>444.7</ele>
        <time>2020-11-16T08:20:49Z</time>
      </trkpt>
      <trkpt lat="28.7355950" lon="-17.7465330">
        <ele>445.0</ele>
        <time>2020-11-16T08:20:50Z</time>
      </trkpt>
      <trkpt lat="28.7356070" lon="-17.7465480">
        <ele>445.2</ele>
        <time>2020-11-16T08:20:51Z</time>
      </trkpt>
      <trkpt lat="28.7356070" lon="-17.7465480">
        <ele>445.2</ele>
        <time>2020-11-16T08:20:52Z</time>
      </trkpt>
      <trkpt lat="28.7356320" lon="-17.7465770">
        <ele>445.5</ele>
        <time>2020-11-16T08:20:53Z</time>
      </trkpt>
      <trkpt lat="28.7356320" lon="-17.7465770">
        <ele>445.5</ele>
        <time>2020-11-16T08:20:54Z</time>
      </trkpt>
      <trkpt lat="28.7356530" lon="-17.7466100">
        <ele>445.9</ele>
        <time>2020-11-16T08:20:55Z</time>
      </trkpt>
      <trkpt lat="28.7356530" lon="-17.7466100">
        <ele>445.9</ele>
        <time>2020-11-16T08:20:56Z</time>
      </trkpt>
      <trkpt lat="28.7356780" lon="-17.7466480">
        <ele>446.3</ele>
        <time>2020-11-16T08:20:57Z</time>
      </trkpt>
      <trkpt lat="28.7356780" lon="-17.7466480">
        <ele>446.3</ele>
        <time>2020-11-16T08:20:58Z</time>
      </trkpt>
      <trkpt lat="28.7357020" lon="-17.7466870">
        <ele>446.7</ele>
        <time>2020-11-16T08:20:59Z</time>
      </trkpt>
      <trkpt lat="28.7357120" lon="-17.7467070">
        <ele>446.8</ele>
        <time>2020-11-16T08:21:00Z</time>
      </trkpt>
      <trkpt lat="28.7357120" lon="-17.7467070">
        <ele>446.8</ele>
        <time>2020-11-16T08:21:01Z</time>
      </trkpt>
      <trkpt lat="28.7357220" lon="-17.7467520">
        <ele>447.2</ele>
        <time>2020-11-16T08:21:02Z</time>
      </trkpt>
      <trkpt lat="28.7357220" lon="-17.7467520">
        <ele>447.2</ele>
        <time>2020-11-16T08:21:03Z</time>
      </trkpt>
      <trkpt lat="28.7357350" lon="-17.7467880">
        <ele>447.5</ele>
        <time>2020-11-16T08:21:04Z</time>
      </trkpt>
      <trkpt lat="28.7357350" lon="-17.7467880">
        <ele>447.5</ele>
        <time>2020-11-16T08:21:05Z</time>
      </trkpt>
      <trkpt lat="28.7357470" lon="-17.7468250">
        <ele>447.9</ele>
        <time>2020-11-16T08:21:06Z</time>
      </trkpt>
      <trkpt lat="28.7357480" lon="-17.7468450">
        <ele>447.9</ele>
        <time>2020-11-16T08:21:07Z</time>
      </trkpt>
      <trkpt lat="28.7357480" lon="-17.7468450">
        <ele>447.9</ele>
        <time>2020-11-16T08:21:08Z</time>
      </trkpt>
      <trkpt lat="28.7357480" lon="-17.7468880">
        <ele>448.0</ele>
        <time>2020-11-16T08:21:09Z</time>
      </trkpt>
      <trkpt lat="28.7357480" lon="-17.7468880">
        <ele>448.0</ele>
        <time>2020-11-16T08:21:10Z</time>
      </trkpt>
      <trkpt lat="28.7357400" lon="-17.7469300">
        <ele>448.0</ele>
        <time>2020-11-16T08:21:11Z</time>
      </trkpt>
      <trkpt lat="28.7357400" lon="-17.7469300">
        <ele>448.0</ele>
        <time>2020-11-16T08:21:12Z</time>
      </trkpt>
      <trkpt lat="28.7357320" lon="-17.7469700">
        <ele>448.2</ele>
        <time>2020-11-16T08:21:13Z</time>
      </trkpt>
      <trkpt lat="28.7357270" lon="-17.7469920">
        <ele>448.4</ele>
        <time>2020-11-16T08:21:14Z</time>
      </trkpt>
      <trkpt lat="28.7357270" lon="-17.7469920">
        <ele>448.4</ele>
        <time>2020-11-16T08:21:15Z</time>
      </trkpt>
      <trkpt lat="28.7357180" lon="-17.7470350">
        <ele>448.7</ele>
        <time>2020-11-16T08:21:16Z</time>
      </trkpt>
      <trkpt lat="28.7357180" lon="-17.7470350">
        <ele>448.7</ele>
        <time>2020-11-16T08:21:17Z</time>
      </trkpt>
      <trkpt lat="28.7357070" lon="-17.7470680">
        <ele>448.9</ele>
        <time>2020-11-16T08:21:18Z</time>
      </trkpt>
      <trkpt lat="28.7356980" lon="-17.7470830">
        <ele>449.0</ele>
        <time>2020-11-16T08:21:19Z</time>
      </trkpt>
      <trkpt lat="28.7356980" lon="-17.7470830">
        <ele>449.0</ele>
        <time>2020-11-16T08:21:20Z</time>
      </trkpt>
      <trkpt lat="28.7356780" lon="-17.7471130">
        <ele>449.3</ele>
        <time>2020-11-16T08:21:21Z</time>
      </trkpt>
      <trkpt lat="28.7356780" lon="-17.7471130">
        <ele>449.3</ele>
        <time>2020-11-16T08:21:22Z</time>
      </trkpt>
      <trkpt lat="28.7356550" lon="-17.7471450">
        <ele>449.6</ele>
        <time>2020-11-16T08:21:23Z</time>
      </trkpt>
      <trkpt lat="28.7356550" lon="-17.7471450">
        <ele>449.6</ele>
        <time>2020-11-16T08:21:24Z</time>
      </trkpt>
      <trkpt lat="28.7356350" lon="-17.7471780">
        <ele>450.0</ele>
        <time>2020-11-16T08:21:25Z</time>
      </trkpt>
      <trkpt lat="28.7356350" lon="-17.7471780">
        <ele>450.0</ele>
        <time>2020-11-16T08:21:26Z</time>
      </trkpt>
      <trkpt lat="28.7356170" lon="-17.7472100">
        <ele>450.3</ele>
        <time>2020-11-16T08:21:27Z</time>
      </trkpt>
      <trkpt lat="28.7356170" lon="-17.7472100">
        <ele>450.3</ele>
        <time>2020-11-16T08:21:28Z</time>
      </trkpt>
      <trkpt lat="28.7355930" lon="-17.7472380">
        <ele>450.7</ele>
        <time>2020-11-16T08:21:29Z</time>
      </trkpt>
      <trkpt lat="28.7355930" lon="-17.7472380">
        <ele>450.7</ele>
        <time>2020-11-16T08:21:30Z</time>
      </trkpt>
      <trkpt lat="28.7355720" lon="-17.7472720">
        <ele>451.1</ele>
        <time>2020-11-16T08:21:31Z</time>
      </trkpt>
      <trkpt lat="28.7355600" lon="-17.7472900">
        <ele>451.3</ele>
        <time>2020-11-16T08:21:32Z</time>
      </trkpt>
      <trkpt lat="28.7355600" lon="-17.7472900">
        <ele>451.3</ele>
        <time>2020-11-16T08:21:33Z</time>
      </trkpt>
      <trkpt lat="28.7355420" lon="-17.7473230">
        <ele>451.6</ele>
        <time>2020-11-16T08:21:34Z</time>
      </trkpt>
      <trkpt lat="28.7355380" lon="-17.7473430">
        <ele>451.7</ele>
        <time>2020-11-16T08:21:35Z</time>
      </trkpt>
      <trkpt lat="28.7355370" lon="-17.7473630">
        <ele>451.9</ele>
        <time>2020-11-16T08:21:36Z</time>
      </trkpt>
      <trkpt lat="28.7355370" lon="-17.7473630">
        <ele>451.9</ele>
        <time>2020-11-16T08:21:37Z</time>
      </trkpt>
      <trkpt lat="28.7355450" lon="-17.7474050">
        <ele>452.2</ele>
        <time>2020-11-16T08:21:38Z</time>
      </trkpt>
      <trkpt lat="28.7355520" lon="-17.7474230">
        <ele>452.3</ele>
        <time>2020-11-16T08:21:39Z</time>
      </trkpt>
      <trkpt lat="28.7355520" lon="-17.7474230">
        <ele>452.3</ele>
        <time>2020-11-16T08:21:40Z</time>
      </trkpt>
      <trkpt lat="28.7355730" lon="-17.7474600">
        <ele>452.6</ele>
        <time>2020-11-16T08:21:41Z</time>
      </trkpt>
      <trkpt lat="28.7355870" lon="-17.7474770">
        <ele>452.8</ele>
        <time>2020-11-16T08:21:42Z</time>
      </trkpt>
      <trkpt lat="28.7355870" lon="-17.7474770">
        <ele>452.8</ele>
        <time>2020-11-16T08:21:43Z</time>
      </trkpt>
      <trkpt lat="28.7356130" lon="-17.7475120">
        <ele>453.1</ele>
        <time>2020-11-16T08:21:44Z</time>
      </trkpt>
      <trkpt lat="28.7356130" lon="-17.7475120">
        <ele>453.1</ele>
        <time>2020-11-16T08:21:45Z</time>
      </trkpt>
      <trkpt lat="28.7356380" lon="-17.7475450">
        <ele>453.3</ele>
        <time>2020-11-16T08:21:46Z</time>
      </trkpt>
      <trkpt lat="28.7356380" lon="-17.7475450">
        <ele>453.3</ele>
        <time>2020-11-16T08:21:47Z</time>
      </trkpt>
      <trkpt lat="28.7356680" lon="-17.7475700">
        <ele>453.6</ele>
        <time>2020-11-16T08:21:48Z</time>
      </trkpt>
      <trkpt lat="28.7356680" lon="-17.7475700">
        <ele>453.6</ele>
        <time>2020-11-16T08:21:49Z</time>
      </trkpt>
      <trkpt lat="28.7356950" lon="-17.7476000">
        <ele>453.9</ele>
        <time>2020-11-16T08:21:50Z</time>
      </trkpt>
      <trkpt lat="28.7356950" lon="-17.7476000">
        <ele>453.9</ele>
        <time>2020-11-16T08:21:51Z</time>
      </trkpt>
      <trkpt lat="28.7357220" lon="-17.7476300">
        <ele>454.1</ele>
        <time>2020-11-16T08:21:52Z</time>
      </trkpt>
      <trkpt lat="28.7357350" lon="-17.7476470">
        <ele>454.3</ele>
        <time>2020-11-16T08:21:53Z</time>
      </trkpt>
      <trkpt lat="28.7357500" lon="-17.7476630">
        <ele>454.4</ele>
        <time>2020-11-16T08:21:54Z</time>
      </trkpt>
      <trkpt lat="28.7357500" lon="-17.7476630">
        <ele>454.4</ele>
        <time>2020-11-16T08:21:55Z</time>
      </trkpt>
      <trkpt lat="28.7357780" lon="-17.7476950">
        <ele>454.7</ele>
        <time>2020-11-16T08:21:56Z</time>
      </trkpt>
      <trkpt lat="28.7357780" lon="-17.7476950">
        <ele>454.7</ele>
        <time>2020-11-16T08:21:57Z</time>
      </trkpt>
      <trkpt lat="28.7358030" lon="-17.7477270">
        <ele>454.9</ele>
        <time>2020-11-16T08:21:58Z</time>
      </trkpt>
      <trkpt lat="28.7358170" lon="-17.7477430">
        <ele>455.0</ele>
        <time>2020-11-16T08:21:59Z</time>
      </trkpt>
      <trkpt lat="28.7358170" lon="-17.7477430">
        <ele>455.0</ele>
        <time>2020-11-16T08:22:00Z</time>
      </trkpt>
      <trkpt lat="28.7358420" lon="-17.7477770">
        <ele>455.2</ele>
        <time>2020-11-16T08:22:01Z</time>
      </trkpt>
      <trkpt lat="28.7358520" lon="-17.7478020">
        <ele>455.4</ele>
        <time>2020-11-16T08:22:02Z</time>
      </trkpt>
      <trkpt lat="28.7358520" lon="-17.7478020">
        <ele>455.4</ele>
        <time>2020-11-16T08:22:03Z</time>
      </trkpt>
      <trkpt lat="28.7358750" lon="-17.7478430">
        <ele>455.6</ele>
        <time>2020-11-16T08:22:04Z</time>
      </trkpt>
      <trkpt lat="28.7358750" lon="-17.7478430">
        <ele>455.6</ele>
        <time>2020-11-16T08:22:05Z</time>
      </trkpt>
      <trkpt lat="28.7358880" lon="-17.7478830">
        <ele>455.9</ele>
        <time>2020-11-16T08:22:06Z</time>
      </trkpt>
      <trkpt lat="28.7358950" lon="-17.7479050">
        <ele>456.0</ele>
        <time>2020-11-16T08:22:07Z</time>
      </trkpt>
      <trkpt lat="28.7358950" lon="-17.7479050">
        <ele>456.0</ele>
        <time>2020-11-16T08:22:08Z</time>
      </trkpt>
      <trkpt lat="28.7359100" lon="-17.7479480">
        <ele>456.3</ele>
        <time>2020-11-16T08:22:09Z</time>
      </trkpt>
      <trkpt lat="28.7359100" lon="-17.7479480">
        <ele>456.3</ele>
        <time>2020-11-16T08:22:10Z</time>
      </trkpt>
      <trkpt lat="28.7359230" lon="-17.7479830">
        <ele>456.5</ele>
        <time>2020-11-16T08:22:11Z</time>
      </trkpt>
      <trkpt lat="28.7359230" lon="-17.7479830">
        <ele>456.5</ele>
        <time>2020-11-16T08:22:12Z</time>
      </trkpt>
      <trkpt lat="28.7359320" lon="-17.7480200">
        <ele>456.8</ele>
        <time>2020-11-16T08:22:13Z</time>
      </trkpt>
      <trkpt lat="28.7359350" lon="-17.7480420">
        <ele>457.0</ele>
        <time>2020-11-16T08:22:14Z</time>
      </trkpt>
      <trkpt lat="28.7359350" lon="-17.7480420">
        <ele>457.0</ele>
        <time>2020-11-16T08:22:15Z</time>
      </trkpt>
      <trkpt lat="28.7359370" lon="-17.7480820">
        <ele>457.3</ele>
        <time>2020-11-16T08:22:16Z</time>
      </trkpt>
      <trkpt lat="28.7359370" lon="-17.7480820">
        <ele>457.3</ele>
        <time>2020-11-16T08:22:17Z</time>
      </trkpt>
      <trkpt lat="28.7359330" lon="-17.7481200">
        <ele>457.6</ele>
        <time>2020-11-16T08:22:18Z</time>
      </trkpt>
      <trkpt lat="28.7359330" lon="-17.7481200">
        <ele>457.6</ele>
        <time>2020-11-16T08:22:19Z</time>
      </trkpt>
      <trkpt lat="28.7359300" lon="-17.7481600">
        <ele>458.0</ele>
        <time>2020-11-16T08:22:20Z</time>
      </trkpt>
      <trkpt lat="28.7359300" lon="-17.7481600">
        <ele>458.0</ele>
        <time>2020-11-16T08:22:21Z</time>
      </trkpt>
      <trkpt lat="28.7359300" lon="-17.7482020">
        <ele>458.3</ele>
        <time>2020-11-16T08:22:22Z</time>
      </trkpt>
      <trkpt lat="28.7359300" lon="-17.7482250">
        <ele>458.5</ele>
        <time>2020-11-16T08:22:23Z</time>
      </trkpt>
      <trkpt lat="28.7359300" lon="-17.7482250">
        <ele>458.5</ele>
        <time>2020-11-16T08:22:24Z</time>
      </trkpt>
      <trkpt lat="28.7359320" lon="-17.7482680">
        <ele>458.9</ele>
        <time>2020-11-16T08:22:25Z</time>
      </trkpt>
      <trkpt lat="28.7359320" lon="-17.7482870">
        <ele>459.1</ele>
        <time>2020-11-16T08:22:26Z</time>
      </trkpt>
      <trkpt lat="28.7359320" lon="-17.7482870">
        <ele>459.1</ele>
        <time>2020-11-16T08:22:27Z</time>
      </trkpt>
      <trkpt lat="28.7359300" lon="-17.7483300">
        <ele>459.5</ele>
        <time>2020-11-16T08:22:28Z</time>
      </trkpt>
      <trkpt lat="28.7359280" lon="-17.7483530">
        <ele>459.7</ele>
        <time>2020-11-16T08:22:29Z</time>
      </trkpt>
      <trkpt lat="28.7359280" lon="-17.7483530">
        <ele>459.7</ele>
        <time>2020-11-16T08:22:30Z</time>
      </trkpt>
      <trkpt lat="28.7359230" lon="-17.7484000">
        <ele>460.1</ele>
        <time>2020-11-16T08:22:31Z</time>
      </trkpt>
      <trkpt lat="28.7359230" lon="-17.7484000">
        <ele>460.1</ele>
        <time>2020-11-16T08:22:32Z</time>
      </trkpt>
      <trkpt lat="28.7359200" lon="-17.7484330">
        <ele>460.4</ele>
        <time>2020-11-16T08:22:33Z</time>
      </trkpt>
      <trkpt lat="28.7359230" lon="-17.7484580">
        <ele>460.6</ele>
        <time>2020-11-16T08:22:34Z</time>
      </trkpt>
      <trkpt lat="28.7359230" lon="-17.7484580">
        <ele>460.6</ele>
        <time>2020-11-16T08:22:35Z</time>
      </trkpt>
      <trkpt lat="28.7359330" lon="-17.7485030">
        <ele>460.9</ele>
        <time>2020-11-16T08:22:36Z</time>
      </trkpt>
      <trkpt lat="28.7359330" lon="-17.7485030">
        <ele>460.9</ele>
        <time>2020-11-16T08:22:37Z</time>
      </trkpt>
      <trkpt lat="28.7359380" lon="-17.7485430">
        <ele>461.2</ele>
        <time>2020-11-16T08:22:38Z</time>
      </trkpt>
      <trkpt lat="28.7359380" lon="-17.7485430">
        <ele>461.2</ele>
        <time>2020-11-16T08:22:39Z</time>
      </trkpt>
      <trkpt lat="28.7359470" lon="-17.7485820">
        <ele>461.5</ele>
        <time>2020-11-16T08:22:40Z</time>
      </trkpt>
      <trkpt lat="28.7359500" lon="-17.7486030">
        <ele>461.6</ele>
        <time>2020-11-16T08:22:41Z</time>
      </trkpt>
      <trkpt lat="28.7359500" lon="-17.7486030">
        <ele>461.6</ele>
        <time>2020-11-16T08:22:42Z</time>
      </trkpt>
      <trkpt lat="28.7359550" lon="-17.7486450">
        <ele>461.9</ele>
        <time>2020-11-16T08:22:43Z</time>
      </trkpt>
      <trkpt lat="28.7359550" lon="-17.7486450">
        <ele>461.9</ele>
        <time>2020-11-16T08:22:44Z</time>
      </trkpt>
      <trkpt lat="28.7359650" lon="-17.7486870">
        <ele>462.1</ele>
        <time>2020-11-16T08:22:45Z</time>
      </trkpt>
      <trkpt lat="28.7359650" lon="-17.7486870">
        <ele>462.1</ele>
        <time>2020-11-16T08:22:46Z</time>
      </trkpt>
      <trkpt lat="28.7359750" lon="-17.7487280">
        <ele>462.4</ele>
        <time>2020-11-16T08:22:47Z</time>
      </trkpt>
      <trkpt lat="28.7359750" lon="-17.7487280">
        <ele>462.4</ele>
        <time>2020-11-16T08:22:48Z</time>
      </trkpt>
      <trkpt lat="28.7359830" lon="-17.7487720">
        <ele>462.7</ele>
        <time>2020-11-16T08:22:49Z</time>
      </trkpt>
      <trkpt lat="28.7359920" lon="-17.7487920">
        <ele>462.8</ele>
        <time>2020-11-16T08:22:50Z</time>
      </trkpt>
      <trkpt lat="28.7359920" lon="-17.7487920">
        <ele>462.8</ele>
        <time>2020-11-16T08:22:51Z</time>
      </trkpt>
      <trkpt lat="28.7360100" lon="-17.7488320">
        <ele>463.1</ele>
        <time>2020-11-16T08:22:52Z</time>
      </trkpt>
      <trkpt lat="28.7360100" lon="-17.7488320">
        <ele>463.1</ele>
        <time>2020-11-16T08:22:53Z</time>
      </trkpt>
      <trkpt lat="28.7360280" lon="-17.7488680">
        <ele>463.3</ele>
        <time>2020-11-16T08:22:54Z</time>
      </trkpt>
      <trkpt lat="28.7360330" lon="-17.7488880">
        <ele>463.4</ele>
        <time>2020-11-16T08:22:55Z</time>
      </trkpt>
      <trkpt lat="28.7360330" lon="-17.7488880">
        <ele>463.4</ele>
        <time>2020-11-16T08:22:56Z</time>
      </trkpt>
      <trkpt lat="28.7360470" lon="-17.7489330">
        <ele>463.7</ele>
        <time>2020-11-16T08:22:57Z</time>
      </trkpt>
      <trkpt lat="28.7360470" lon="-17.7489330">
        <ele>463.7</ele>
        <time>2020-11-16T08:22:58Z</time>
      </trkpt>
      <trkpt lat="28.7360630" lon="-17.7489770">
        <ele>464.0</ele>
        <time>2020-11-16T08:22:59Z</time>
      </trkpt>
      <trkpt lat="28.7360630" lon="-17.7489770">
        <ele>464.0</ele>
        <time>2020-11-16T08:23:00Z</time>
      </trkpt>
      <trkpt lat="28.7360800" lon="-17.7490170">
        <ele>464.3</ele>
        <time>2020-11-16T08:23:01Z</time>
      </trkpt>
      <trkpt lat="28.7360800" lon="-17.7490170">
        <ele>464.3</ele>
        <time>2020-11-16T08:23:02Z</time>
      </trkpt>
      <trkpt lat="28.7361000" lon="-17.7490570">
        <ele>464.6</ele>
        <time>2020-11-16T08:23:03Z</time>
      </trkpt>
      <trkpt lat="28.7361000" lon="-17.7490570">
        <ele>464.6</ele>
        <time>2020-11-16T08:23:04Z</time>
      </trkpt>
      <trkpt lat="28.7361150" lon="-17.7491050">
        <ele>464.9</ele>
        <time>2020-11-16T08:23:05Z</time>
      </trkpt>
      <trkpt lat="28.7361220" lon="-17.7491280">
        <ele>465.1</ele>
        <time>2020-11-16T08:23:06Z</time>
      </trkpt>
      <trkpt lat="28.7361220" lon="-17.7491280">
        <ele>465.1</ele>
        <time>2020-11-16T08:23:07Z</time>
      </trkpt>
      <trkpt lat="28.7361420" lon="-17.7491730">
        <ele>465.4</ele>
        <time>2020-11-16T08:23:08Z</time>
      </trkpt>
      <trkpt lat="28.7361420" lon="-17.7491730">
        <ele>465.4</ele>
        <time>2020-11-16T08:23:09Z</time>
      </trkpt>
      <trkpt lat="28.7361650" lon="-17.7492130">
        <ele>465.7</ele>
        <time>2020-11-16T08:23:10Z</time>
      </trkpt>
      <trkpt lat="28.7361650" lon="-17.7492130">
        <ele>465.7</ele>
        <time>2020-11-16T08:23:11Z</time>
      </trkpt>
      <trkpt lat="28.7361870" lon="-17.7492550">
        <ele>465.9</ele>
        <time>2020-11-16T08:23:12Z</time>
      </trkpt>
      <trkpt lat="28.7361870" lon="-17.7492550">
        <ele>465.9</ele>
        <time>2020-11-16T08:23:13Z</time>
      </trkpt>
      <trkpt lat="28.7362050" lon="-17.7492950">
        <ele>466.2</ele>
        <time>2020-11-16T08:23:14Z</time>
      </trkpt>
      <trkpt lat="28.7362050" lon="-17.7492950">
        <ele>466.2</ele>
        <time>2020-11-16T08:23:15Z</time>
      </trkpt>
      <trkpt lat="28.7362150" lon="-17.7493370">
        <ele>466.5</ele>
        <time>2020-11-16T08:23:16Z</time>
      </trkpt>
      <trkpt lat="28.7362150" lon="-17.7493370">
        <ele>466.5</ele>
        <time>2020-11-16T08:23:17Z</time>
      </trkpt>
      <trkpt lat="28.7362300" lon="-17.7493750">
        <ele>466.7</ele>
        <time>2020-11-16T08:23:18Z</time>
      </trkpt>
      <trkpt lat="28.7362380" lon="-17.7493950">
        <ele>466.9</ele>
        <time>2020-11-16T08:23:19Z</time>
      </trkpt>
      <trkpt lat="28.7362380" lon="-17.7493950">
        <ele>466.9</ele>
        <time>2020-11-16T08:23:20Z</time>
      </trkpt>
      <trkpt lat="28.7362500" lon="-17.7494380">
        <ele>467.2</ele>
        <time>2020-11-16T08:23:21Z</time>
      </trkpt>
      <trkpt lat="28.7362530" lon="-17.7494580">
        <ele>467.3</ele>
        <time>2020-11-16T08:23:22Z</time>
      </trkpt>
      <trkpt lat="28.7362530" lon="-17.7494580">
        <ele>467.3</ele>
        <time>2020-11-16T08:23:23Z</time>
      </trkpt>
      <trkpt lat="28.7362530" lon="-17.7495000">
        <ele>467.6</ele>
        <time>2020-11-16T08:23:24Z</time>
      </trkpt>
      <trkpt lat="28.7362530" lon="-17.7495000">
        <ele>467.6</ele>
        <time>2020-11-16T08:23:25Z</time>
      </trkpt>
      <trkpt lat="28.7362330" lon="-17.7495370">
        <ele>467.9</ele>
        <time>2020-11-16T08:23:26Z</time>
      </trkpt>
      <trkpt lat="28.7362170" lon="-17.7495480">
        <ele>468.1</ele>
        <time>2020-11-16T08:23:27Z</time>
      </trkpt>
      <trkpt lat="28.7362170" lon="-17.7495480">
        <ele>468.1</ele>
        <time>2020-11-16T08:23:28Z</time>
      </trkpt>
      <trkpt lat="28.7361770" lon="-17.7495580">
        <ele>468.5</ele>
        <time>2020-11-16T08:23:29Z</time>
      </trkpt>
      <trkpt lat="28.7361570" lon="-17.7495550">
        <ele>468.6</ele>
        <time>2020-11-16T08:23:30Z</time>
      </trkpt>
      <trkpt lat="28.7361570" lon="-17.7495550">
        <ele>468.6</ele>
        <time>2020-11-16T08:23:31Z</time>
      </trkpt>
      <trkpt lat="28.7361170" lon="-17.7495400">
        <ele>469.0</ele>
        <time>2020-11-16T08:23:32Z</time>
      </trkpt>
      <trkpt lat="28.7361000" lon="-17.7495280">
        <ele>469.1</ele>
        <time>2020-11-16T08:23:33Z</time>
      </trkpt>
      <trkpt lat="28.7361000" lon="-17.7495280">
        <ele>469.1</ele>
        <time>2020-11-16T08:23:34Z</time>
      </trkpt>
      <trkpt lat="28.7360600" lon="-17.7495030">
        <ele>469.5</ele>
        <time>2020-11-16T08:23:35Z</time>
      </trkpt>
      <trkpt lat="28.7360600" lon="-17.7495030">
        <ele>469.5</ele>
        <time>2020-11-16T08:23:36Z</time>
      </trkpt>
      <trkpt lat="28.7360280" lon="-17.7494780">
        <ele>469.7</ele>
        <time>2020-11-16T08:23:37Z</time>
      </trkpt>
      <trkpt lat="28.7360130" lon="-17.7494650">
        <ele>469.8</ele>
        <time>2020-11-16T08:23:38Z</time>
      </trkpt>
      <trkpt lat="28.7360130" lon="-17.7494650">
        <ele>469.8</ele>
        <time>2020-11-16T08:23:39Z</time>
      </trkpt>
      <trkpt lat="28.7359850" lon="-17.7494330">
        <ele>470.1</ele>
        <time>2020-11-16T08:23:40Z</time>
      </trkpt>
      <trkpt lat="28.7359850" lon="-17.7494330">
        <ele>470.1</ele>
        <time>2020-11-16T08:23:41Z</time>
      </trkpt>
      <trkpt lat="28.7359530" lon="-17.7494050">
        <ele>470.3</ele>
        <time>2020-11-16T08:23:42Z</time>
      </trkpt>
      <trkpt lat="28.7359350" lon="-17.7493930">
        <ele>470.4</ele>
        <time>2020-11-16T08:23:43Z</time>
      </trkpt>
      <trkpt lat="28.7359180" lon="-17.7493800">
        <ele>470.5</ele>
        <time>2020-11-16T08:23:44Z</time>
      </trkpt>
      <trkpt lat="28.7359180" lon="-17.7493800">
        <ele>470.5</ele>
        <time>2020-11-16T08:23:45Z</time>
      </trkpt>
      <trkpt lat="28.7358850" lon="-17.7493520">
        <ele>470.7</ele>
        <time>2020-11-16T08:23:46Z</time>
      </trkpt>
      <trkpt lat="28.7358680" lon="-17.7493400">
        <ele>470.8</ele>
        <time>2020-11-16T08:23:47Z</time>
      </trkpt>
      <trkpt lat="28.7358680" lon="-17.7493400">
        <ele>470.8</ele>
        <time>2020-11-16T08:23:48Z</time>
      </trkpt>
      <trkpt lat="28.7358320" lon="-17.7493220">
        <ele>470.9</ele>
        <time>2020-11-16T08:23:49Z</time>
      </trkpt>
      <trkpt lat="28.7358150" lon="-17.7493100">
        <ele>471.0</ele>
        <time>2020-11-16T08:23:50Z</time>
      </trkpt>
      <trkpt lat="28.7357980" lon="-17.7492980">
        <ele>471.1</ele>
        <time>2020-11-16T08:23:51Z</time>
      </trkpt>
      <trkpt lat="28.7357980" lon="-17.7492980">
        <ele>471.1</ele>
        <time>2020-11-16T08:23:52Z</time>
      </trkpt>
      <trkpt lat="28.7357650" lon="-17.7492770">
        <ele>471.3</ele>
        <time>2020-11-16T08:23:53Z</time>
      </trkpt>
      <trkpt lat="28.7357500" lon="-17.7492650">
        <ele>471.3</ele>
        <time>2020-11-16T08:23:54Z</time>
      </trkpt>
      <trkpt lat="28.7357500" lon="-17.7492650">
        <ele>471.3</ele>
        <time>2020-11-16T08:23:55Z</time>
      </trkpt>
      <trkpt lat="28.7357180" lon="-17.7492420">
        <ele>471.5</ele>
        <time>2020-11-16T08:23:56Z</time>
      </trkpt>
      <trkpt lat="28.7357180" lon="-17.7492420">
        <ele>471.5</ele>
        <time>2020-11-16T08:23:57Z</time>
      </trkpt>
      <trkpt lat="28.7356870" lon="-17.7492130">
        <ele>471.7</ele>
        <time>2020-11-16T08:23:58Z</time>
      </trkpt>
      <trkpt lat="28.7356870" lon="-17.7492130">
        <ele>471.7</ele>
        <time>2020-11-16T08:23:59Z</time>
      </trkpt>
      <trkpt lat="28.7356530" lon="-17.7491880">
        <ele>471.9</ele>
        <time>2020-11-16T08:24:00Z</time>
      </trkpt>
      <trkpt lat="28.7356380" lon="-17.7491780">
        <ele>472.0</ele>
        <time>2020-11-16T08:24:01Z</time>
      </trkpt>
      <trkpt lat="28.7356220" lon="-17.7491670">
        <ele>472.1</ele>
        <time>2020-11-16T08:24:02Z</time>
      </trkpt>
      <trkpt lat="28.7356070" lon="-17.7491550">
        <ele>472.2</ele>
        <time>2020-11-16T08:24:03Z</time>
      </trkpt>
      <trkpt lat="28.7355900" lon="-17.7491420">
        <ele>472.3</ele>
        <time>2020-11-16T08:24:04Z</time>
      </trkpt>
      <trkpt lat="28.7355900" lon="-17.7491420">
        <ele>472.3</ele>
        <time>2020-11-16T08:24:05Z</time>
      </trkpt>
      <trkpt lat="28.7355500" lon="-17.7491150">
        <ele>472.6</ele>
        <time>2020-11-16T08:24:06Z</time>
      </trkpt>
      <trkpt lat="28.7355320" lon="-17.7491050">
        <ele>472.7</ele>
        <time>2020-11-16T08:24:07Z</time>
      </trkpt>
      <trkpt lat="28.7355320" lon="-17.7491050">
        <ele>472.7</ele>
        <time>2020-11-16T08:24:08Z</time>
      </trkpt>
      <trkpt lat="28.7355020" lon="-17.7490880">
        <ele>473.0</ele>
        <time>2020-11-16T08:24:09Z</time>
      </trkpt>
      <trkpt lat="28.7354880" lon="-17.7490820">
        <ele>473.1</ele>
        <time>2020-11-16T08:24:10Z</time>
      </trkpt>
      <trkpt lat="28.7354880" lon="-17.7490820">
        <ele>473.1</ele>
        <time>2020-11-16T08:24:11Z</time>
      </trkpt>
      <trkpt lat="28.7354570" lon="-17.7490680">
        <ele>473.4</ele>
        <time>2020-11-16T08:24:12Z</time>
      </trkpt>
      <trkpt lat="28.7354570" lon="-17.7490680">
        <ele>473.4</ele>
        <time>2020-11-16T08:24:13Z</time>
      </trkpt>
      <trkpt lat="28.7354250" lon="-17.7490520">
        <ele>473.7</ele>
        <time>2020-11-16T08:24:14Z</time>
      </trkpt>
      <trkpt lat="28.7354250" lon="-17.7490520">
        <ele>473.7</ele>
        <time>2020-11-16T08:24:15Z</time>
      </trkpt>
      <trkpt lat="28.7353920" lon="-17.7490320">
        <ele>474.0</ele>
        <time>2020-11-16T08:24:16Z</time>
      </trkpt>
      <trkpt lat="28.7353920" lon="-17.7490320">
        <ele>474.0</ele>
        <time>2020-11-16T08:24:17Z</time>
      </trkpt>
      <trkpt lat="28.7353620" lon="-17.7490130">
        <ele>474.3</ele>
        <time>2020-11-16T08:24:18Z</time>
      </trkpt>
      <trkpt lat="28.7353620" lon="-17.7490130">
        <ele>474.3</ele>
        <time>2020-11-16T08:24:19Z</time>
      </trkpt>
      <trkpt lat="28.7353270" lon="-17.7490000">
        <ele>474.6</ele>
        <time>2020-11-16T08:24:20Z</time>
      </trkpt>
      <trkpt lat="28.7353270" lon="-17.7490000">
        <ele>474.6</ele>
        <time>2020-11-16T08:24:21Z</time>
      </trkpt>
      <trkpt lat="28.7352930" lon="-17.7489800">
        <ele>474.9</ele>
        <time>2020-11-16T08:24:22Z</time>
      </trkpt>
      <trkpt lat="28.7352800" lon="-17.7489630">
        <ele>475.1</ele>
        <time>2020-11-16T08:24:23Z</time>
      </trkpt>
      <trkpt lat="28.7352800" lon="-17.7489630">
        <ele>475.1</ele>
        <time>2020-11-16T08:24:24Z</time>
      </trkpt>
      <trkpt lat="28.7352480" lon="-17.7489330">
        <ele>475.4</ele>
        <time>2020-11-16T08:24:25Z</time>
      </trkpt>
      <trkpt lat="28.7352350" lon="-17.7489170">
        <ele>475.6</ele>
        <time>2020-11-16T08:24:26Z</time>
      </trkpt>
      <trkpt lat="28.7352350" lon="-17.7489170">
        <ele>475.6</ele>
        <time>2020-11-16T08:24:27Z</time>
      </trkpt>
      <trkpt lat="28.7352070" lon="-17.7488870">
        <ele>475.9</ele>
        <time>2020-11-16T08:24:28Z</time>
      </trkpt>
      <trkpt lat="28.7352070" lon="-17.7488870">
        <ele>475.9</ele>
        <time>2020-11-16T08:24:29Z</time>
      </trkpt>
      <trkpt lat="28.7351820" lon="-17.7488530">
        <ele>476.3</ele>
        <time>2020-11-16T08:24:30Z</time>
      </trkpt>
      <trkpt lat="28.7351820" lon="-17.7488530">
        <ele>476.3</ele>
        <time>2020-11-16T08:24:31Z</time>
      </trkpt>
      <trkpt lat="28.7351520" lon="-17.7488200">
        <ele>476.6</ele>
        <time>2020-11-16T08:24:32Z</time>
      </trkpt>
      <trkpt lat="28.7351520" lon="-17.7488200">
        <ele>476.6</ele>
        <time>2020-11-16T08:24:33Z</time>
      </trkpt>
      <trkpt lat="28.7351300" lon="-17.7487870">
        <ele>477.0</ele>
        <time>2020-11-16T08:24:34Z</time>
      </trkpt>
      <trkpt lat="28.7351300" lon="-17.7487870">
        <ele>477.0</ele>
        <time>2020-11-16T08:24:35Z</time>
      </trkpt>
      <trkpt lat="28.7351130" lon="-17.7487450">
        <ele>477.3</ele>
        <time>2020-11-16T08:24:36Z</time>
      </trkpt>
      <trkpt lat="28.7350970" lon="-17.7487180">
        <ele>477.6</ele>
        <time>2020-11-16T08:24:37Z</time>
      </trkpt>
      <trkpt lat="28.7350970" lon="-17.7487180">
        <ele>477.6</ele>
        <time>2020-11-16T08:24:38Z</time>
      </trkpt>
      <trkpt lat="28.7350720" lon="-17.7486800">
        <ele>478.0</ele>
        <time>2020-11-16T08:24:39Z</time>
      </trkpt>
      <trkpt lat="28.7350620" lon="-17.7486620">
        <ele>478.1</ele>
        <time>2020-11-16T08:24:40Z</time>
      </trkpt>
      <trkpt lat="28.7350620" lon="-17.7486620">
        <ele>478.1</ele>
        <time>2020-11-16T08:24:41Z</time>
      </trkpt>
      <trkpt lat="28.7350430" lon="-17.7486220">
        <ele>478.5</ele>
        <time>2020-11-16T08:24:42Z</time>
      </trkpt>
      <trkpt lat="28.7350430" lon="-17.7486220">
        <ele>478.5</ele>
        <time>2020-11-16T08:24:43Z</time>
      </trkpt>
      <trkpt lat="28.7350180" lon="-17.7485900">
        <ele>478.8</ele>
        <time>2020-11-16T08:24:44Z</time>
      </trkpt>
      <trkpt lat="28.7350070" lon="-17.7485750">
        <ele>479.0</ele>
        <time>2020-11-16T08:24:45Z</time>
      </trkpt>
      <trkpt lat="28.7350070" lon="-17.7485750">
        <ele>479.0</ele>
        <time>2020-11-16T08:24:46Z</time>
      </trkpt>
      <trkpt lat="28.7349830" lon="-17.7485420">
        <ele>479.3</ele>
        <time>2020-11-16T08:24:47Z</time>
      </trkpt>
      <trkpt lat="28.7349830" lon="-17.7485420">
        <ele>479.3</ele>
        <time>2020-11-16T08:24:48Z</time>
      </trkpt>
      <trkpt lat="28.7349600" lon="-17.7485120">
        <ele>479.7</ele>
        <time>2020-11-16T08:24:49Z</time>
      </trkpt>
      <trkpt lat="28.7349470" lon="-17.7484970">
        <ele>479.9</ele>
        <time>2020-11-16T08:24:50Z</time>
      </trkpt>
      <trkpt lat="28.7349470" lon="-17.7484970">
        <ele>479.9</ele>
        <time>2020-11-16T08:24:51Z</time>
      </trkpt>
      <trkpt lat="28.7349230" lon="-17.7484700">
        <ele>480.3</ele>
        <time>2020-11-16T08:24:52Z</time>
      </trkpt>
      <trkpt lat="28.7349230" lon="-17.7484700">
        <ele>480.3</ele>
        <time>2020-11-16T08:24:53Z</time>
      </trkpt>
      <trkpt lat="28.7348980" lon="-17.7484400">
        <ele>480.7</ele>
        <time>2020-11-16T08:24:54Z</time>
      </trkpt>
      <trkpt lat="28.7348880" lon="-17.7484230">
        <ele>480.9</ele>
        <time>2020-11-16T08:24:55Z</time>
      </trkpt>
      <trkpt lat="28.7348880" lon="-17.7484230">
        <ele>480.9</ele>
        <time>2020-11-16T08:24:56Z</time>
      </trkpt>
      <trkpt lat="28.7348700" lon="-17.7483920">
        <ele>481.2</ele>
        <time>2020-11-16T08:24:57Z</time>
      </trkpt>
      <trkpt lat="28.7348650" lon="-17.7483730">
        <ele>481.4</ele>
        <time>2020-11-16T08:24:58Z</time>
      </trkpt>
      <trkpt lat="28.7348650" lon="-17.7483730">
        <ele>481.4</ele>
        <time>2020-11-16T08:24:59Z</time>
      </trkpt>
      <trkpt lat="28.7348530" lon="-17.7483250">
        <ele>481.2</ele>
        <time>2020-11-16T08:25:00Z</time>
      </trkpt>
      <trkpt lat="28.7348520" lon="-17.7483030">
        <ele>481.0</ele>
        <time>2020-11-16T08:25:01Z</time>
      </trkpt>
      <trkpt lat="28.7348520" lon="-17.7483030">
        <ele>481.0</ele>
        <time>2020-11-16T08:25:02Z</time>
      </trkpt>
      <trkpt lat="28.7348470" lon="-17.7482550">
        <ele>480.6</ele>
        <time>2020-11-16T08:25:03Z</time>
      </trkpt>
      <trkpt lat="28.7348420" lon="-17.7482330">
        <ele>480.4</ele>
        <time>2020-11-16T08:25:04Z</time>
      </trkpt>
      <trkpt lat="28.7348420" lon="-17.7482330">
        <ele>480.4</ele>
        <time>2020-11-16T08:25:05Z</time>
      </trkpt>
      <trkpt lat="28.7348350" lon="-17.7481950">
        <ele>480.0</ele>
        <time>2020-11-16T08:25:06Z</time>
      </trkpt>
      <trkpt lat="28.7348300" lon="-17.7481780">
        <ele>479.9</ele>
        <time>2020-11-16T08:25:07Z</time>
      </trkpt>
      <trkpt lat="28.7348300" lon="-17.7481780">
        <ele>479.9</ele>
        <time>2020-11-16T08:25:08Z</time>
      </trkpt>
      <trkpt lat="28.7348120" lon="-17.7481450">
        <ele>479.6</ele>
        <time>2020-11-16T08:25:09Z</time>
      </trkpt>
      <trkpt lat="28.7348080" lon="-17.7481270">
        <ele>479.4</ele>
        <time>2020-11-16T08:25:10Z</time>
      </trkpt>
      <trkpt lat="28.7348080" lon="-17.7481270">
        <ele>479.4</ele>
        <time>2020-11-16T08:25:11Z</time>
      </trkpt>
      <trkpt lat="28.7348070" lon="-17.7480870">
        <ele>479.1</ele>
        <time>2020-11-16T08:25:12Z</time>
      </trkpt>
      <trkpt lat="28.7348070" lon="-17.7480870">
        <ele>479.1</ele>
        <time>2020-11-16T08:25:13Z</time>
      </trkpt>
      <trkpt lat="28.7348070" lon="-17.7480470">
        <ele>478.7</ele>
        <time>2020-11-16T08:25:14Z</time>
      </trkpt>
      <trkpt lat="28.7348070" lon="-17.7480470">
        <ele>478.7</ele>
        <time>2020-11-16T08:25:15Z</time>
      </trkpt>
      <trkpt lat="28.7348030" lon="-17.7480070">
        <ele>478.4</ele>
        <time>2020-11-16T08:25:16Z</time>
      </trkpt>
      <trkpt lat="28.7348030" lon="-17.7480070">
        <ele>478.4</ele>
        <time>2020-11-16T08:25:17Z</time>
      </trkpt>
      <trkpt lat="28.7347950" lon="-17.7479680">
        <ele>478.0</ele>
        <time>2020-11-16T08:25:18Z</time>
      </trkpt>
      <trkpt lat="28.7347880" lon="-17.7479480">
        <ele>477.9</ele>
        <time>2020-11-16T08:25:19Z</time>
      </trkpt>
      <trkpt lat="28.7347880" lon="-17.7479480">
        <ele>477.9</ele>
        <time>2020-11-16T08:25:20Z</time>
      </trkpt>
      <trkpt lat="28.7347780" lon="-17.7479080">
        <ele>477.5</ele>
        <time>2020-11-16T08:25:21Z</time>
      </trkpt>
      <trkpt lat="28.7347780" lon="-17.7479080">
        <ele>477.5</ele>
        <time>2020-11-16T08:25:22Z</time>
      </trkpt>
      <trkpt lat="28.7347680" lon="-17.7478680">
        <ele>477.2</ele>
        <time>2020-11-16T08:25:23Z</time>
      </trkpt>
      <trkpt lat="28.7347680" lon="-17.7478680">
        <ele>477.2</ele>
        <time>2020-11-16T08:25:24Z</time>
      </trkpt>
      <trkpt lat="28.7347620" lon="-17.7478300">
        <ele>477.0</ele>
        <time>2020-11-16T08:25:25Z</time>
      </trkpt>
      <trkpt lat="28.7347600" lon="-17.7478120">
        <ele>476.8</ele>
        <time>2020-11-16T08:25:26Z</time>
      </trkpt>
      <trkpt lat="28.7347600" lon="-17.7477900">
        <ele>476.7</ele>
        <time>2020-11-16T08:25:27Z</time>
      </trkpt>
      <trkpt lat="28.7347600" lon="-17.7477900">
        <ele>476.7</ele>
        <time>2020-11-16T08:25:28Z</time>
      </trkpt>
      <trkpt lat="28.7347520" lon="-17.7477480">
        <ele>476.3</ele>
        <time>2020-11-16T08:25:29Z</time>
      </trkpt>
      <trkpt lat="28.7347520" lon="-17.7477480">
        <ele>476.3</ele>
        <time>2020-11-16T08:25:30Z</time>
      </trkpt>
      <trkpt lat="28.7347450" lon="-17.7477100">
        <ele>476.0</ele>
        <time>2020-11-16T08:25:31Z</time>
      </trkpt>
      <trkpt lat="28.7347450" lon="-17.7477100">
        <ele>476.0</ele>
        <time>2020-11-16T08:25:32Z</time>
      </trkpt>
      <trkpt lat="28.7347330" lon="-17.7476720">
        <ele>475.8</ele>
        <time>2020-11-16T08:25:33Z</time>
      </trkpt>
      <trkpt lat="28.7347330" lon="-17.7476720">
        <ele>475.8</ele>
        <time>2020-11-16T08:25:34Z</time>
      </trkpt>
      <trkpt lat="28.7347170" lon="-17.7476350">
        <ele>475.5</ele>
        <time>2020-11-16T08:25:35Z</time>
      </trkpt>
      <trkpt lat="28.7347170" lon="-17.7476350">
        <ele>475.5</ele>
        <time>2020-11-16T08:25:36Z</time>
      </trkpt>
      <trkpt lat="28.7346930" lon="-17.7476080">
        <ele>475.2</ele>
        <time>2020-11-16T08:25:37Z</time>
      </trkpt>
      <trkpt lat="28.7346930" lon="-17.7476080">
        <ele>475.2</ele>
        <time>2020-11-16T08:25:38Z</time>
      </trkpt>
      <trkpt lat="28.7346580" lon="-17.7475920">
        <ele>474.9</ele>
        <time>2020-11-16T08:25:39Z</time>
      </trkpt>
      <trkpt lat="28.7346580" lon="-17.7475920">
        <ele>474.9</ele>
        <time>2020-11-16T08:25:40Z</time>
      </trkpt>
      <trkpt lat="28.7346250" lon="-17.7475920">
        <ele>475.4</ele>
        <time>2020-11-16T08:25:41Z</time>
      </trkpt>
      <trkpt lat="28.7346250" lon="-17.7475920">
        <ele>475.4</ele>
        <time>2020-11-16T08:25:42Z</time>
      </trkpt>
      <trkpt lat="28.7345950" lon="-17.7476000">
        <ele>475.8</ele>
        <time>2020-11-16T08:25:43Z</time>
      </trkpt>
      <trkpt lat="28.7345950" lon="-17.7476000">
        <ele>475.8</ele>
        <time>2020-11-16T08:25:44Z</time>
      </trkpt>
      <trkpt lat="28.7345630" lon="-17.7476120">
        <ele>476.2</ele>
        <time>2020-11-16T08:25:45Z</time>
      </trkpt>
      <trkpt lat="28.7345630" lon="-17.7476120">
        <ele>476.2</ele>
        <time>2020-11-16T08:25:46Z</time>
      </trkpt>
      <trkpt lat="28.7345220" lon="-17.7476220">
        <ele>476.7</ele>
        <time>2020-11-16T08:25:47Z</time>
      </trkpt>
      <trkpt lat="28.7345220" lon="-17.7476220">
        <ele>476.7</ele>
        <time>2020-11-16T08:25:48Z</time>
      </trkpt>
      <trkpt lat="28.7344880" lon="-17.7476280">
        <ele>477.1</ele>
        <time>2020-11-16T08:25:49Z</time>
      </trkpt>
      <trkpt lat="28.7344880" lon="-17.7476280">
        <ele>477.1</ele>
        <time>2020-11-16T08:25:50Z</time>
      </trkpt>
      <trkpt lat="28.7344550" lon="-17.7476350">
        <ele>477.4</ele>
        <time>2020-11-16T08:25:51Z</time>
      </trkpt>
      <trkpt lat="28.7344550" lon="-17.7476350">
        <ele>477.4</ele>
        <time>2020-11-16T08:25:52Z</time>
      </trkpt>
      <trkpt lat="28.7344200" lon="-17.7476480">
        <ele>477.8</ele>
        <time>2020-11-16T08:25:53Z</time>
      </trkpt>
      <trkpt lat="28.7344000" lon="-17.7476520">
        <ele>478.0</ele>
        <time>2020-11-16T08:25:54Z</time>
      </trkpt>
      <trkpt lat="28.7344000" lon="-17.7476520">
        <ele>478.0</ele>
        <time>2020-11-16T08:25:55Z</time>
      </trkpt>
      <trkpt lat="28.7343630" lon="-17.7476630">
        <ele>478.4</ele>
        <time>2020-11-16T08:25:56Z</time>
      </trkpt>
      <trkpt lat="28.7343450" lon="-17.7476670">
        <ele>478.6</ele>
        <time>2020-11-16T08:25:57Z</time>
      </trkpt>
      <trkpt lat="28.7343450" lon="-17.7476670">
        <ele>478.6</ele>
        <time>2020-11-16T08:25:58Z</time>
      </trkpt>
      <trkpt lat="28.7343080" lon="-17.7476750">
        <ele>479.0</ele>
        <time>2020-11-16T08:25:59Z</time>
      </trkpt>
      <trkpt lat="28.7343080" lon="-17.7476750">
        <ele>479.0</ele>
        <time>2020-11-16T08:26:00Z</time>
      </trkpt>
      <trkpt lat="28.7342680" lon="-17.7476770">
        <ele>479.4</ele>
        <time>2020-11-16T08:26:01Z</time>
      </trkpt>
      <trkpt lat="28.7342480" lon="-17.7476730">
        <ele>479.6</ele>
        <time>2020-11-16T08:26:02Z</time>
      </trkpt>
      <trkpt lat="28.7342480" lon="-17.7476730">
        <ele>479.6</ele>
        <time>2020-11-16T08:26:03Z</time>
      </trkpt>
      <trkpt lat="28.7342100" lon="-17.7476800">
        <ele>479.9</ele>
        <time>2020-11-16T08:26:04Z</time>
      </trkpt>
      <trkpt lat="28.7342100" lon="-17.7476800">
        <ele>479.9</ele>
        <time>2020-11-16T08:26:05Z</time>
      </trkpt>
      <trkpt lat="28.7341700" lon="-17.7476950">
        <ele>480.3</ele>
        <time>2020-11-16T08:26:06Z</time>
      </trkpt>
      <trkpt lat="28.7341700" lon="-17.7476950">
        <ele>480.3</ele>
        <time>2020-11-16T08:26:07Z</time>
      </trkpt>
      <trkpt lat="28.7341300" lon="-17.7477200">
        <ele>480.7</ele>
        <time>2020-11-16T08:26:08Z</time>
      </trkpt>
      <trkpt lat="28.7341300" lon="-17.7477200">
        <ele>480.7</ele>
        <time>2020-11-16T08:26:09Z</time>
      </trkpt>
      <trkpt lat="28.7340850" lon="-17.7477420">
        <ele>481.0</ele>
        <time>2020-11-16T08:26:10Z</time>
      </trkpt>
      <trkpt lat="28.7340650" lon="-17.7477570">
        <ele>481.2</ele>
        <time>2020-11-16T08:26:11Z</time>
      </trkpt>
      <trkpt lat="28.7340650" lon="-17.7477570">
        <ele>481.2</ele>
        <time>2020-11-16T08:26:12Z</time>
      </trkpt>
      <trkpt lat="28.7340280" lon="-17.7477850">
        <ele>481.5</ele>
        <time>2020-11-16T08:26:13Z</time>
      </trkpt>
      <trkpt lat="28.7340280" lon="-17.7477850">
        <ele>481.5</ele>
        <time>2020-11-16T08:26:14Z</time>
      </trkpt>
      <trkpt lat="28.7339920" lon="-17.7478150">
        <ele>481.9</ele>
        <time>2020-11-16T08:26:15Z</time>
      </trkpt>
      <trkpt lat="28.7339920" lon="-17.7478150">
        <ele>481.9</ele>
        <time>2020-11-16T08:26:16Z</time>
      </trkpt>
      <trkpt lat="28.7339570" lon="-17.7478470">
        <ele>482.2</ele>
        <time>2020-11-16T08:26:17Z</time>
      </trkpt>
      <trkpt lat="28.7339380" lon="-17.7478620">
        <ele>482.3</ele>
        <time>2020-11-16T08:26:18Z</time>
      </trkpt>
      <trkpt lat="28.7339380" lon="-17.7478620">
        <ele>482.3</ele>
        <time>2020-11-16T08:26:19Z</time>
      </trkpt>
      <trkpt lat="28.7339070" lon="-17.7478930">
        <ele>482.6</ele>
        <time>2020-11-16T08:26:20Z</time>
      </trkpt>
      <trkpt lat="28.7338920" lon="-17.7479100">
        <ele>482.8</ele>
        <time>2020-11-16T08:26:21Z</time>
      </trkpt>
      <trkpt lat="28.7338750" lon="-17.7479270">
        <ele>482.9</ele>
        <time>2020-11-16T08:26:22Z</time>
      </trkpt>
      <trkpt lat="28.7338750" lon="-17.7479270">
        <ele>482.9</ele>
        <time>2020-11-16T08:26:23Z</time>
      </trkpt>
      <trkpt lat="28.7338480" lon="-17.7479670">
        <ele>483.2</ele>
        <time>2020-11-16T08:26:24Z</time>
      </trkpt>
      <trkpt lat="28.7338350" lon="-17.7479870">
        <ele>483.4</ele>
        <time>2020-11-16T08:26:25Z</time>
      </trkpt>
      <trkpt lat="28.7338350" lon="-17.7479870">
        <ele>483.4</ele>
        <time>2020-11-16T08:26:26Z</time>
      </trkpt>
      <trkpt lat="28.7338080" lon="-17.7480250">
        <ele>483.6</ele>
        <time>2020-11-16T08:26:27Z</time>
      </trkpt>
      <trkpt lat="28.7338080" lon="-17.7480250">
        <ele>483.6</ele>
        <time>2020-11-16T08:26:28Z</time>
      </trkpt>
      <trkpt lat="28.7337820" lon="-17.7480630">
        <ele>483.9</ele>
        <time>2020-11-16T08:26:29Z</time>
      </trkpt>
      <trkpt lat="28.7337670" lon="-17.7480820">
        <ele>484.1</ele>
        <time>2020-11-16T08:26:30Z</time>
      </trkpt>
      <trkpt lat="28.7337670" lon="-17.7480820">
        <ele>484.1</ele>
        <time>2020-11-16T08:26:31Z</time>
      </trkpt>
      <trkpt lat="28.7337330" lon="-17.7481120">
        <ele>484.4</ele>
        <time>2020-11-16T08:26:32Z</time>
      </trkpt>
      <trkpt lat="28.7337130" lon="-17.7481230">
        <ele>484.5</ele>
        <time>2020-11-16T08:26:33Z</time>
      </trkpt>
      <trkpt lat="28.7336970" lon="-17.7481400">
        <ele>484.7</ele>
        <time>2020-11-16T08:26:34Z</time>
      </trkpt>
      <trkpt lat="28.7336970" lon="-17.7481400">
        <ele>484.7</ele>
        <time>2020-11-16T08:26:35Z</time>
      </trkpt>
      <trkpt lat="28.7336680" lon="-17.7481700">
        <ele>484.9</ele>
        <time>2020-11-16T08:26:36Z</time>
      </trkpt>
      <trkpt lat="28.7336680" lon="-17.7481700">
        <ele>484.9</ele>
        <time>2020-11-16T08:26:37Z</time>
      </trkpt>
      <trkpt lat="28.7336380" lon="-17.7482000">
        <ele>485.2</ele>
        <time>2020-11-16T08:26:38Z</time>
      </trkpt>
      <trkpt lat="28.7336380" lon="-17.7482000">
        <ele>485.2</ele>
        <time>2020-11-16T08:26:39Z</time>
      </trkpt>
      <trkpt lat="28.7336130" lon="-17.7482380">
        <ele>485.4</ele>
        <time>2020-11-16T08:26:40Z</time>
      </trkpt>
      <trkpt lat="28.7335980" lon="-17.7482580">
        <ele>485.6</ele>
        <time>2020-11-16T08:26:41Z</time>
      </trkpt>
      <trkpt lat="28.7335980" lon="-17.7482580">
        <ele>485.6</ele>
        <time>2020-11-16T08:26:42Z</time>
      </trkpt>
      <trkpt lat="28.7335730" lon="-17.7483020">
        <ele>485.8</ele>
        <time>2020-11-16T08:26:43Z</time>
      </trkpt>
      <trkpt lat="28.7335730" lon="-17.7483020">
        <ele>485.8</ele>
        <time>2020-11-16T08:26:44Z</time>
      </trkpt>
      <trkpt lat="28.7335480" lon="-17.7483480">
        <ele>486.1</ele>
        <time>2020-11-16T08:26:45Z</time>
      </trkpt>
      <trkpt lat="28.7335480" lon="-17.7483480">
        <ele>486.1</ele>
        <time>2020-11-16T08:26:46Z</time>
      </trkpt>
      <trkpt lat="28.7335150" lon="-17.7483830">
        <ele>486.4</ele>
        <time>2020-11-16T08:26:47Z</time>
      </trkpt>
      <trkpt lat="28.7335150" lon="-17.7483830">
        <ele>486.4</ele>
        <time>2020-11-16T08:26:48Z</time>
      </trkpt>
      <trkpt lat="28.7334720" lon="-17.7484030">
        <ele>486.6</ele>
        <time>2020-11-16T08:26:49Z</time>
      </trkpt>
      <trkpt lat="28.7334520" lon="-17.7484080">
        <ele>486.7</ele>
        <time>2020-11-16T08:26:50Z</time>
      </trkpt>
      <trkpt lat="28.7334520" lon="-17.7484080">
        <ele>486.7</ele>
        <time>2020-11-16T08:26:51Z</time>
      </trkpt>
      <trkpt lat="28.7334100" lon="-17.7484080">
        <ele>487.0</ele>
        <time>2020-11-16T08:26:52Z</time>
      </trkpt>
      <trkpt lat="28.7334100" lon="-17.7484080">
        <ele>487.0</ele>
        <time>2020-11-16T08:26:53Z</time>
      </trkpt>
      <trkpt lat="28.7333670" lon="-17.7483980">
        <ele>487.3</ele>
        <time>2020-11-16T08:26:54Z</time>
      </trkpt>
      <trkpt lat="28.7333520" lon="-17.7483870">
        <ele>487.4</ele>
        <time>2020-11-16T08:26:55Z</time>
      </trkpt>
      <trkpt lat="28.7333520" lon="-17.7483870">
        <ele>487.4</ele>
        <time>2020-11-16T08:26:56Z</time>
      </trkpt>
      <trkpt lat="28.7333280" lon="-17.7483530">
        <ele>487.7</ele>
        <time>2020-11-16T08:26:57Z</time>
      </trkpt>
      <trkpt lat="28.7333280" lon="-17.7483530">
        <ele>487.7</ele>
        <time>2020-11-16T08:26:58Z</time>
      </trkpt>
      <trkpt lat="28.7333080" lon="-17.7483180">
        <ele>488.0</ele>
        <time>2020-11-16T08:26:59Z</time>
      </trkpt>
      <trkpt lat="28.7333080" lon="-17.7483180">
        <ele>488.0</ele>
        <time>2020-11-16T08:27:00Z</time>
      </trkpt>
      <trkpt lat="28.7332880" lon="-17.7482730">
        <ele>488.3</ele>
        <time>2020-11-16T08:27:01Z</time>
      </trkpt>
      <trkpt lat="28.7332880" lon="-17.7482730">
        <ele>488.3</ele>
        <time>2020-11-16T08:27:02Z</time>
      </trkpt>
      <trkpt lat="28.7332770" lon="-17.7482250">
        <ele>488.6</ele>
        <time>2020-11-16T08:27:03Z</time>
      </trkpt>
      <trkpt lat="28.7332770" lon="-17.7482250">
        <ele>488.6</ele>
        <time>2020-11-16T08:27:04Z</time>
      </trkpt>
      <trkpt lat="28.7332670" lon="-17.7481730">
        <ele>488.9</ele>
        <time>2020-11-16T08:27:05Z</time>
      </trkpt>
      <trkpt lat="28.7332670" lon="-17.7481730">
        <ele>488.9</ele>
        <time>2020-11-16T08:27:06Z</time>
      </trkpt>
      <trkpt lat="28.7332630" lon="-17.7481200">
        <ele>489.2</ele>
        <time>2020-11-16T08:27:07Z</time>
      </trkpt>
      <trkpt lat="28.7332630" lon="-17.7480930">
        <ele>489.4</ele>
        <time>2020-11-16T08:27:08Z</time>
      </trkpt>
      <trkpt lat="28.7332630" lon="-17.7480930">
        <ele>489.4</ele>
        <time>2020-11-16T08:27:09Z</time>
      </trkpt>
      <trkpt lat="28.7332600" lon="-17.7480430">
        <ele>489.6</ele>
        <time>2020-11-16T08:27:10Z</time>
      </trkpt>
      <trkpt lat="28.7332600" lon="-17.7480180">
        <ele>489.8</ele>
        <time>2020-11-16T08:27:11Z</time>
      </trkpt>
      <trkpt lat="28.7332600" lon="-17.7480180">
        <ele>489.8</ele>
        <time>2020-11-16T08:27:12Z</time>
      </trkpt>
      <trkpt lat="28.7332530" lon="-17.7479720">
        <ele>490.0</ele>
        <time>2020-11-16T08:27:13Z</time>
      </trkpt>
      <trkpt lat="28.7332520" lon="-17.7479430">
        <ele>490.2</ele>
        <time>2020-11-16T08:27:14Z</time>
      </trkpt>
      <trkpt lat="28.7332520" lon="-17.7479430">
        <ele>490.2</ele>
        <time>2020-11-16T08:27:15Z</time>
      </trkpt>
      <trkpt lat="28.7332430" lon="-17.7478900">
        <ele>490.4</ele>
        <time>2020-11-16T08:27:16Z</time>
      </trkpt>
      <trkpt lat="28.7332370" lon="-17.7478650">
        <ele>490.6</ele>
        <time>2020-11-16T08:27:17Z</time>
      </trkpt>
      <trkpt lat="28.7332370" lon="-17.7478650">
        <ele>490.6</ele>
        <time>2020-11-16T08:27:18Z</time>
      </trkpt>
      <trkpt lat="28.7332300" lon="-17.7478130">
        <ele>490.8</ele>
        <time>2020-11-16T08:27:19Z</time>
      </trkpt>
      <trkpt lat="28.7332150" lon="-17.7477820">
        <ele>490.9</ele>
        <time>2020-11-16T08:27:20Z</time>
      </trkpt>
      <trkpt lat="28.7332150" lon="-17.7477820">
        <ele>490.9</ele>
        <time>2020-11-16T08:27:21Z</time>
      </trkpt>
      <trkpt lat="28.7331980" lon="-17.7477300">
        <ele>491.2</ele>
        <time>2020-11-16T08:27:22Z</time>
      </trkpt>
      <trkpt lat="28.7331980" lon="-17.7477300">
        <ele>491.2</ele>
        <time>2020-11-16T08:27:23Z</time>
      </trkpt>
      <trkpt lat="28.7331820" lon="-17.7476830">
        <ele>491.4</ele>
        <time>2020-11-16T08:27:24Z</time>
      </trkpt>
      <trkpt lat="28.7331820" lon="-17.7476830">
        <ele>491.4</ele>
        <time>2020-11-16T08:27:25Z</time>
      </trkpt>
      <trkpt lat="28.7331680" lon="-17.7476370">
        <ele>491.6</ele>
        <time>2020-11-16T08:27:26Z</time>
      </trkpt>
      <trkpt lat="28.7331680" lon="-17.7476370">
        <ele>491.6</ele>
        <time>2020-11-16T08:27:27Z</time>
      </trkpt>
      <trkpt lat="28.7331570" lon="-17.7475870">
        <ele>491.8</ele>
        <time>2020-11-16T08:27:28Z</time>
      </trkpt>
      <trkpt lat="28.7331570" lon="-17.7475870">
        <ele>491.8</ele>
        <time>2020-11-16T08:27:29Z</time>
      </trkpt>
      <trkpt lat="28.7331420" lon="-17.7475350">
        <ele>492.0</ele>
        <time>2020-11-16T08:27:30Z</time>
      </trkpt>
      <trkpt lat="28.7331420" lon="-17.7475350">
        <ele>492.0</ele>
        <time>2020-11-16T08:27:31Z</time>
      </trkpt>
      <trkpt lat="28.7331320" lon="-17.7474880">
        <ele>492.3</ele>
        <time>2020-11-16T08:27:32Z</time>
      </trkpt>
      <trkpt lat="28.7331320" lon="-17.7474880">
        <ele>492.3</ele>
        <time>2020-11-16T08:27:33Z</time>
      </trkpt>
      <trkpt lat="28.7331220" lon="-17.7474400">
        <ele>492.5</ele>
        <time>2020-11-16T08:27:34Z</time>
      </trkpt>
      <trkpt lat="28.7331180" lon="-17.7474150">
        <ele>492.6</ele>
        <time>2020-11-16T08:27:35Z</time>
      </trkpt>
      <trkpt lat="28.7331180" lon="-17.7474150">
        <ele>492.6</ele>
        <time>2020-11-16T08:27:36Z</time>
      </trkpt>
      <trkpt lat="28.7331050" lon="-17.7473700">
        <ele>492.9</ele>
        <time>2020-11-16T08:27:37Z</time>
      </trkpt>
      <trkpt lat="28.7330980" lon="-17.7473470">
        <ele>493.0</ele>
        <time>2020-11-16T08:27:38Z</time>
      </trkpt>
      <trkpt lat="28.7330980" lon="-17.7473470">
        <ele>493.0</ele>
        <time>2020-11-16T08:27:39Z</time>
      </trkpt>
      <trkpt lat="28.7330800" lon="-17.7473000">
        <ele>493.3</ele>
        <time>2020-11-16T08:27:40Z</time>
      </trkpt>
      <trkpt lat="28.7330800" lon="-17.7473000">
        <ele>493.3</ele>
        <time>2020-11-16T08:27:41Z</time>
      </trkpt>
      <trkpt lat="28.7330630" lon="-17.7472570">
        <ele>493.6</ele>
        <time>2020-11-16T08:27:42Z</time>
      </trkpt>
      <trkpt lat="28.7330530" lon="-17.7472350">
        <ele>493.7</ele>
        <time>2020-11-16T08:27:43Z</time>
      </trkpt>
      <trkpt lat="28.7330430" lon="-17.7472150">
        <ele>493.9</ele>
        <time>2020-11-16T08:27:44Z</time>
      </trkpt>
      <trkpt lat="28.7330430" lon="-17.7472150">
        <ele>493.9</ele>
        <time>2020-11-16T08:27:45Z</time>
      </trkpt>
      <trkpt lat="28.7330230" lon="-17.7471730">
        <ele>494.2</ele>
        <time>2020-11-16T08:27:46Z</time>
      </trkpt>
      <trkpt lat="28.7330230" lon="-17.7471730">
        <ele>494.2</ele>
        <time>2020-11-16T08:27:47Z</time>
      </trkpt>
      <trkpt lat="28.7330020" lon="-17.7471400">
        <ele>494.6</ele>
        <time>2020-11-16T08:27:48Z</time>
      </trkpt>
      <trkpt lat="28.7329930" lon="-17.7471220">
        <ele>494.7</ele>
        <time>2020-11-16T08:27:49Z</time>
      </trkpt>
      <trkpt lat="28.7329920" lon="-17.7471020">
        <ele>494.9</ele>
        <time>2020-11-16T08:27:50Z</time>
      </trkpt>
      <trkpt lat="28.7329920" lon="-17.7471020">
        <ele>494.9</ele>
        <time>2020-11-16T08:27:51Z</time>
      </trkpt>
      <trkpt lat="28.7329870" lon="-17.7470620">
        <ele>495.3</ele>
        <time>2020-11-16T08:27:52Z</time>
      </trkpt>
      <trkpt lat="28.7329870" lon="-17.7470620">
        <ele>495.3</ele>
        <time>2020-11-16T08:27:53Z</time>
      </trkpt>
      <trkpt lat="28.7329720" lon="-17.7470220">
        <ele>495.9</ele>
        <time>2020-11-16T08:27:54Z</time>
      </trkpt>
      <trkpt lat="28.7329720" lon="-17.7470220">
        <ele>495.9</ele>
        <time>2020-11-16T08:27:55Z</time>
      </trkpt>
      <trkpt lat="28.7329480" lon="-17.7469870">
        <ele>496.4</ele>
        <time>2020-11-16T08:27:56Z</time>
      </trkpt>
      <trkpt lat="28.7329480" lon="-17.7469870">
        <ele>496.4</ele>
        <time>2020-11-16T08:27:57Z</time>
      </trkpt>
      <trkpt lat="28.7329250" lon="-17.7469530">
        <ele>497.1</ele>
        <time>2020-11-16T08:27:58Z</time>
      </trkpt>
      <trkpt lat="28.7329250" lon="-17.7469530">
        <ele>497.1</ele>
        <time>2020-11-16T08:27:59Z</time>
      </trkpt>
      <trkpt lat="28.7328970" lon="-17.7469230">
        <ele>497.7</ele>
        <time>2020-11-16T08:28:00Z</time>
      </trkpt>
      <trkpt lat="28.7328820" lon="-17.7469120">
        <ele>498.0</ele>
        <time>2020-11-16T08:28:01Z</time>
      </trkpt>
      <trkpt lat="28.7328820" lon="-17.7469120">
        <ele>498.0</ele>
        <time>2020-11-16T08:28:02Z</time>
      </trkpt>
      <trkpt lat="28.7328470" lon="-17.7468880">
        <ele>498.7</ele>
        <time>2020-11-16T08:28:03Z</time>
      </trkpt>
      <trkpt lat="28.7328280" lon="-17.7468780">
        <ele>499.1</ele>
        <time>2020-11-16T08:28:04Z</time>
      </trkpt>
      <trkpt lat="28.7328280" lon="-17.7468780">
        <ele>499.1</ele>
        <time>2020-11-16T08:28:05Z</time>
      </trkpt>
      <trkpt lat="28.7327930" lon="-17.7468650">
        <ele>499.7</ele>
        <time>2020-11-16T08:28:06Z</time>
      </trkpt>
      <trkpt lat="28.7327930" lon="-17.7468650">
        <ele>499.7</ele>
        <time>2020-11-16T08:28:07Z</time>
      </trkpt>
      <trkpt lat="28.7327530" lon="-17.7468670">
        <ele>500.3</ele>
        <time>2020-11-16T08:28:08Z</time>
      </trkpt>
      <trkpt lat="28.7327530" lon="-17.7468670">
        <ele>500.3</ele>
        <time>2020-11-16T08:28:09Z</time>
      </trkpt>
      <trkpt lat="28.7327130" lon="-17.7468730">
        <ele>500.9</ele>
        <time>2020-11-16T08:28:10Z</time>
      </trkpt>
      <trkpt lat="28.7327130" lon="-17.7468730">
        <ele>500.9</ele>
        <time>2020-11-16T08:28:11Z</time>
      </trkpt>
      <trkpt lat="28.7326770" lon="-17.7468880">
        <ele>501.4</ele>
        <time>2020-11-16T08:28:12Z</time>
      </trkpt>
      <trkpt lat="28.7326770" lon="-17.7468880">
        <ele>501.4</ele>
        <time>2020-11-16T08:28:13Z</time>
      </trkpt>
      <trkpt lat="28.7326430" lon="-17.7469120">
        <ele>501.9</ele>
        <time>2020-11-16T08:28:14Z</time>
      </trkpt>
      <trkpt lat="28.7326430" lon="-17.7469120">
        <ele>501.9</ele>
        <time>2020-11-16T08:28:15Z</time>
      </trkpt>
      <trkpt lat="28.7326070" lon="-17.7469320">
        <ele>502.4</ele>
        <time>2020-11-16T08:28:16Z</time>
      </trkpt>
      <trkpt lat="28.7326070" lon="-17.7469320">
        <ele>502.4</ele>
        <time>2020-11-16T08:28:17Z</time>
      </trkpt>
      <trkpt lat="28.7325730" lon="-17.7469580">
        <ele>502.9</ele>
        <time>2020-11-16T08:28:18Z</time>
      </trkpt>
      <trkpt lat="28.7325730" lon="-17.7469580">
        <ele>502.9</ele>
        <time>2020-11-16T08:28:19Z</time>
      </trkpt>
      <trkpt lat="28.7325420" lon="-17.7469830">
        <ele>503.3</ele>
        <time>2020-11-16T08:28:20Z</time>
      </trkpt>
      <trkpt lat="28.7325420" lon="-17.7469830">
        <ele>503.3</ele>
        <time>2020-11-16T08:28:21Z</time>
      </trkpt>
      <trkpt lat="28.7325130" lon="-17.7470120">
        <ele>503.8</ele>
        <time>2020-11-16T08:28:22Z</time>
      </trkpt>
      <trkpt lat="28.7324980" lon="-17.7470280">
        <ele>504.0</ele>
        <time>2020-11-16T08:28:23Z</time>
      </trkpt>
      <trkpt lat="28.7324870" lon="-17.7470450">
        <ele>504.1</ele>
        <time>2020-11-16T08:28:24Z</time>
      </trkpt>
      <trkpt lat="28.7324870" lon="-17.7470450">
        <ele>504.1</ele>
        <time>2020-11-16T08:28:25Z</time>
      </trkpt>
      <trkpt lat="28.7324730" lon="-17.7470850">
        <ele>504.5</ele>
        <time>2020-11-16T08:28:26Z</time>
      </trkpt>
      <trkpt lat="28.7324730" lon="-17.7470850">
        <ele>504.5</ele>
        <time>2020-11-16T08:28:27Z</time>
      </trkpt>
      <trkpt lat="28.7324930" lon="-17.7471230">
        <ele>504.8</ele>
        <time>2020-11-16T08:28:28Z</time>
      </trkpt>
      <trkpt lat="28.7325070" lon="-17.7471420">
        <ele>505.1</ele>
        <time>2020-11-16T08:28:29Z</time>
      </trkpt>
      <trkpt lat="28.7325070" lon="-17.7471420">
        <ele>505.1</ele>
        <time>2020-11-16T08:28:30Z</time>
      </trkpt>
      <trkpt lat="28.7325380" lon="-17.7471780">
        <ele>505.5</ele>
        <time>2020-11-16T08:28:31Z</time>
      </trkpt>
      <trkpt lat="28.7325500" lon="-17.7471980">
        <ele>505.6</ele>
        <time>2020-11-16T08:28:32Z</time>
      </trkpt>
      <trkpt lat="28.7325500" lon="-17.7471980">
        <ele>505.6</ele>
        <time>2020-11-16T08:28:33Z</time>
      </trkpt>
      <trkpt lat="28.7325700" lon="-17.7472320">
        <ele>506.0</ele>
        <time>2020-11-16T08:28:34Z</time>
      </trkpt>
      <trkpt lat="28.7325700" lon="-17.7472320">
        <ele>506.0</ele>
        <time>2020-11-16T08:28:35Z</time>
      </trkpt>
      <trkpt lat="28.7325970" lon="-17.7472680">
        <ele>506.3</ele>
        <time>2020-11-16T08:28:36Z</time>
      </trkpt>
      <trkpt lat="28.7325970" lon="-17.7472680">
        <ele>506.3</ele>
        <time>2020-11-16T08:28:37Z</time>
      </trkpt>
      <trkpt lat="28.7326200" lon="-17.7473050">
        <ele>506.7</ele>
        <time>2020-11-16T08:28:38Z</time>
      </trkpt>
      <trkpt lat="28.7326200" lon="-17.7473050">
        <ele>506.7</ele>
        <time>2020-11-16T08:28:39Z</time>
      </trkpt>
      <trkpt lat="28.7326450" lon="-17.7473430">
        <ele>507.0</ele>
        <time>2020-11-16T08:28:40Z</time>
      </trkpt>
      <trkpt lat="28.7326450" lon="-17.7473430">
        <ele>507.0</ele>
        <time>2020-11-16T08:28:41Z</time>
      </trkpt>
      <trkpt lat="28.7326720" lon="-17.7473820">
        <ele>507.4</ele>
        <time>2020-11-16T08:28:42Z</time>
      </trkpt>
      <trkpt lat="28.7326720" lon="-17.7473820">
        <ele>507.4</ele>
        <time>2020-11-16T08:28:43Z</time>
      </trkpt>
      <trkpt lat="28.7326950" lon="-17.7474250">
        <ele>507.7</ele>
        <time>2020-11-16T08:28:44Z</time>
      </trkpt>
      <trkpt lat="28.7326950" lon="-17.7474250">
        <ele>507.7</ele>
        <time>2020-11-16T08:28:45Z</time>
      </trkpt>
      <trkpt lat="28.7327130" lon="-17.7474700">
        <ele>508.1</ele>
        <time>2020-11-16T08:28:46Z</time>
      </trkpt>
      <trkpt lat="28.7327130" lon="-17.7474700">
        <ele>508.1</ele>
        <time>2020-11-16T08:28:47Z</time>
      </trkpt>
      <trkpt lat="28.7327180" lon="-17.7475120">
        <ele>508.3</ele>
        <time>2020-11-16T08:28:48Z</time>
      </trkpt>
      <trkpt lat="28.7327180" lon="-17.7475120">
        <ele>508.3</ele>
        <time>2020-11-16T08:28:49Z</time>
      </trkpt>
      <trkpt lat="28.7327230" lon="-17.7475530">
        <ele>508.6</ele>
        <time>2020-11-16T08:28:50Z</time>
      </trkpt>
      <trkpt lat="28.7327230" lon="-17.7475530">
        <ele>508.6</ele>
        <time>2020-11-16T08:28:51Z</time>
      </trkpt>
      <trkpt lat="28.7327270" lon="-17.7475980">
        <ele>508.9</ele>
        <time>2020-11-16T08:28:52Z</time>
      </trkpt>
      <trkpt lat="28.7327270" lon="-17.7475980">
        <ele>508.9</ele>
        <time>2020-11-16T08:28:53Z</time>
      </trkpt>
      <trkpt lat="28.7327280" lon="-17.7476470">
        <ele>509.2</ele>
        <time>2020-11-16T08:28:54Z</time>
      </trkpt>
      <trkpt lat="28.7327280" lon="-17.7476720">
        <ele>509.4</ele>
        <time>2020-11-16T08:28:55Z</time>
      </trkpt>
      <trkpt lat="28.7327300" lon="-17.7476980">
        <ele>509.5</ele>
        <time>2020-11-16T08:28:56Z</time>
      </trkpt>
      <trkpt lat="28.7327300" lon="-17.7476980">
        <ele>509.5</ele>
        <time>2020-11-16T08:28:57Z</time>
      </trkpt>
      <trkpt lat="28.7327300" lon="-17.7477530">
        <ele>509.9</ele>
        <time>2020-11-16T08:28:58Z</time>
      </trkpt>
      <trkpt lat="28.7327280" lon="-17.7477780">
        <ele>510.0</ele>
        <time>2020-11-16T08:28:59Z</time>
      </trkpt>
      <trkpt lat="28.7327280" lon="-17.7477780">
        <ele>510.0</ele>
        <time>2020-11-16T08:29:00Z</time>
      </trkpt>
      <trkpt lat="28.7327330" lon="-17.7478200">
        <ele>510.2</ele>
        <time>2020-11-16T08:29:01Z</time>
      </trkpt>
      <trkpt lat="28.7327350" lon="-17.7478400">
        <ele>510.3</ele>
        <time>2020-11-16T08:29:02Z</time>
      </trkpt>
      <trkpt lat="28.7327350" lon="-17.7478400">
        <ele>510.3</ele>
        <time>2020-11-16T08:29:03Z</time>
      </trkpt>
      <trkpt lat="28.7327380" lon="-17.7478830">
        <ele>510.5</ele>
        <time>2020-11-16T08:29:04Z</time>
      </trkpt>
      <trkpt lat="28.7327380" lon="-17.7478830">
        <ele>510.5</ele>
        <time>2020-11-16T08:29:05Z</time>
      </trkpt>
      <trkpt lat="28.7327500" lon="-17.7479280">
        <ele>510.8</ele>
        <time>2020-11-16T08:29:06Z</time>
      </trkpt>
      <trkpt lat="28.7327520" lon="-17.7479500">
        <ele>510.9</ele>
        <time>2020-11-16T08:29:07Z</time>
      </trkpt>
      <trkpt lat="28.7327570" lon="-17.7479720">
        <ele>511.0</ele>
        <time>2020-11-16T08:29:08Z</time>
      </trkpt>
      <trkpt lat="28.7327570" lon="-17.7479720">
        <ele>511.0</ele>
        <time>2020-11-16T08:29:09Z</time>
      </trkpt>
      <trkpt lat="28.7327630" lon="-17.7480130">
        <ele>511.2</ele>
        <time>2020-11-16T08:29:10Z</time>
      </trkpt>
      <trkpt lat="28.7327630" lon="-17.7480130">
        <ele>511.2</ele>
        <time>2020-11-16T08:29:11Z</time>
      </trkpt>
      <trkpt lat="28.7327700" lon="-17.7480630">
        <ele>511.4</ele>
        <time>2020-11-16T08:29:12Z</time>
      </trkpt>
      <trkpt lat="28.7327750" lon="-17.7480880">
        <ele>511.6</ele>
        <time>2020-11-16T08:29:13Z</time>
      </trkpt>
      <trkpt lat="28.7327820" lon="-17.7481150">
        <ele>511.7</ele>
        <time>2020-11-16T08:29:14Z</time>
      </trkpt>
      <trkpt lat="28.7327820" lon="-17.7481150">
        <ele>511.7</ele>
        <time>2020-11-16T08:29:15Z</time>
      </trkpt>
      <trkpt lat="28.7327950" lon="-17.7481620">
        <ele>512.0</ele>
        <time>2020-11-16T08:29:16Z</time>
      </trkpt>
      <trkpt lat="28.7327950" lon="-17.7481620">
        <ele>512.0</ele>
        <time>2020-11-16T08:29:17Z</time>
      </trkpt>
      <trkpt lat="28.7328030" lon="-17.7482120">
        <ele>512.3</ele>
        <time>2020-11-16T08:29:18Z</time>
      </trkpt>
      <trkpt lat="28.7328030" lon="-17.7482120">
        <ele>512.3</ele>
        <time>2020-11-16T08:29:19Z</time>
      </trkpt>
      <trkpt lat="28.7328100" lon="-17.7482570">
        <ele>512.5</ele>
        <time>2020-11-16T08:29:20Z</time>
      </trkpt>
      <trkpt lat="28.7328100" lon="-17.7482570">
        <ele>512.5</ele>
        <time>2020-11-16T08:29:21Z</time>
      </trkpt>
      <trkpt lat="28.7328150" lon="-17.7483020">
        <ele>512.8</ele>
        <time>2020-11-16T08:29:22Z</time>
      </trkpt>
      <trkpt lat="28.7328150" lon="-17.7483020">
        <ele>512.8</ele>
        <time>2020-11-16T08:29:23Z</time>
      </trkpt>
      <trkpt lat="28.7328230" lon="-17.7483480">
        <ele>513.0</ele>
        <time>2020-11-16T08:29:24Z</time>
      </trkpt>
      <trkpt lat="28.7328270" lon="-17.7483720">
        <ele>513.2</ele>
        <time>2020-11-16T08:29:25Z</time>
      </trkpt>
      <trkpt lat="28.7328300" lon="-17.7483980">
        <ele>513.3</ele>
        <time>2020-11-16T08:29:26Z</time>
      </trkpt>
      <trkpt lat="28.7328300" lon="-17.7483980">
        <ele>513.3</ele>
        <time>2020-11-16T08:29:27Z</time>
      </trkpt>
      <trkpt lat="28.7328300" lon="-17.7484620">
        <ele>513.6</ele>
        <time>2020-11-16T08:29:28Z</time>
      </trkpt>
      <trkpt lat="28.7328300" lon="-17.7484620">
        <ele>513.6</ele>
        <time>2020-11-16T08:29:29Z</time>
      </trkpt>
      <trkpt lat="28.7328330" lon="-17.7485270">
        <ele>514.0</ele>
        <time>2020-11-16T08:29:30Z</time>
      </trkpt>
      <trkpt lat="28.7328330" lon="-17.7485270">
        <ele>514.0</ele>
        <time>2020-11-16T08:29:31Z</time>
      </trkpt>
      <trkpt lat="28.7328420" lon="-17.7485730">
        <ele>514.2</ele>
        <time>2020-11-16T08:29:32Z</time>
      </trkpt>
      <trkpt lat="28.7328420" lon="-17.7485730">
        <ele>514.2</ele>
        <time>2020-11-16T08:29:33Z</time>
      </trkpt>
      <trkpt lat="28.7328550" lon="-17.7486230">
        <ele>514.5</ele>
        <time>2020-11-16T08:29:34Z</time>
      </trkpt>
      <trkpt lat="28.7328620" lon="-17.7486520">
        <ele>514.6</ele>
        <time>2020-11-16T08:29:35Z</time>
      </trkpt>
      <trkpt lat="28.7328750" lon="-17.7486770">
        <ele>514.7</ele>
        <time>2020-11-16T08:29:36Z</time>
      </trkpt>
      <trkpt lat="28.7328750" lon="-17.7486770">
        <ele>514.7</ele>
        <time>2020-11-16T08:29:37Z</time>
      </trkpt>
      <trkpt lat="28.7329030" lon="-17.7487300">
        <ele>514.9</ele>
        <time>2020-11-16T08:29:38Z</time>
      </trkpt>
      <trkpt lat="28.7329030" lon="-17.7487300">
        <ele>514.9</ele>
        <time>2020-11-16T08:29:39Z</time>
      </trkpt>
      <trkpt lat="28.7329320" lon="-17.7487780">
        <ele>515.0</ele>
        <time>2020-11-16T08:29:40Z</time>
      </trkpt>
      <trkpt lat="28.7329320" lon="-17.7487780">
        <ele>515.0</ele>
        <time>2020-11-16T08:29:41Z</time>
      </trkpt>
      <trkpt lat="28.7329720" lon="-17.7488170">
        <ele>515.2</ele>
        <time>2020-11-16T08:29:42Z</time>
      </trkpt>
      <trkpt lat="28.7329720" lon="-17.7488170">
        <ele>515.2</ele>
        <time>2020-11-16T08:29:43Z</time>
      </trkpt>
      <trkpt lat="28.7330120" lon="-17.7488500">
        <ele>515.4</ele>
        <time>2020-11-16T08:29:44Z</time>
      </trkpt>
      <trkpt lat="28.7330120" lon="-17.7488500">
        <ele>515.4</ele>
        <time>2020-11-16T08:29:45Z</time>
      </trkpt>
      <trkpt lat="28.7330520" lon="-17.7488850">
        <ele>515.5</ele>
        <time>2020-11-16T08:29:46Z</time>
      </trkpt>
      <trkpt lat="28.7330700" lon="-17.7489050">
        <ele>515.6</ele>
        <time>2020-11-16T08:29:47Z</time>
      </trkpt>
      <trkpt lat="28.7330700" lon="-17.7489050">
        <ele>515.6</ele>
        <time>2020-11-16T08:29:48Z</time>
      </trkpt>
      <trkpt lat="28.7331070" lon="-17.7489470">
        <ele>515.8</ele>
        <time>2020-11-16T08:29:49Z</time>
      </trkpt>
      <trkpt lat="28.7331070" lon="-17.7489470">
        <ele>515.8</ele>
        <time>2020-11-16T08:29:50Z</time>
      </trkpt>
      <trkpt lat="28.7331380" lon="-17.7489880">
        <ele>516.0</ele>
        <time>2020-11-16T08:29:51Z</time>
      </trkpt>
      <trkpt lat="28.7331530" lon="-17.7490120">
        <ele>516.1</ele>
        <time>2020-11-16T08:29:52Z</time>
      </trkpt>
      <trkpt lat="28.7331530" lon="-17.7490120">
        <ele>516.1</ele>
        <time>2020-11-16T08:29:53Z</time>
      </trkpt>
      <trkpt lat="28.7331830" lon="-17.7490570">
        <ele>516.3</ele>
        <time>2020-11-16T08:29:54Z</time>
      </trkpt>
      <trkpt lat="28.7331950" lon="-17.7490820">
        <ele>516.4</ele>
        <time>2020-11-16T08:29:55Z</time>
      </trkpt>
      <trkpt lat="28.7331950" lon="-17.7490820">
        <ele>516.4</ele>
        <time>2020-11-16T08:29:56Z</time>
      </trkpt>
      <trkpt lat="28.7332170" lon="-17.7491280">
        <ele>516.6</ele>
        <time>2020-11-16T08:29:57Z</time>
      </trkpt>
      <trkpt lat="28.7332170" lon="-17.7491280">
        <ele>516.6</ele>
        <time>2020-11-16T08:29:58Z</time>
      </trkpt>
      <trkpt lat="28.7332370" lon="-17.7491830">
        <ele>517.0</ele>
        <time>2020-11-16T08:29:59Z</time>
      </trkpt>
      <trkpt lat="28.7332370" lon="-17.7491830">
        <ele>517.0</ele>
        <time>2020-11-16T08:30:00Z</time>
      </trkpt>
      <trkpt lat="28.7332450" lon="-17.7492350">
        <ele>517.3</ele>
        <time>2020-11-16T08:30:01Z</time>
      </trkpt>
      <trkpt lat="28.7332530" lon="-17.7492550">
        <ele>517.5</ele>
        <time>2020-11-16T08:30:02Z</time>
      </trkpt>
      <trkpt lat="28.7332530" lon="-17.7492550">
        <ele>517.5</ele>
        <time>2020-11-16T08:30:03Z</time>
      </trkpt>
      <trkpt lat="28.7332600" lon="-17.7493000">
        <ele>517.8</ele>
        <time>2020-11-16T08:30:04Z</time>
      </trkpt>
      <trkpt lat="28.7332600" lon="-17.7493000">
        <ele>517.8</ele>
        <time>2020-11-16T08:30:05Z</time>
      </trkpt>
      <trkpt lat="28.7332750" lon="-17.7493480">
        <ele>518.2</ele>
        <time>2020-11-16T08:30:06Z</time>
      </trkpt>
      <trkpt lat="28.7332750" lon="-17.7493480">
        <ele>518.2</ele>
        <time>2020-11-16T08:30:07Z</time>
      </trkpt>
      <trkpt lat="28.7332950" lon="-17.7493950">
        <ele>518.7</ele>
        <time>2020-11-16T08:30:08Z</time>
      </trkpt>
      <trkpt lat="28.7332950" lon="-17.7493950">
        <ele>518.7</ele>
        <time>2020-11-16T08:30:09Z</time>
      </trkpt>
      <trkpt lat="28.7333130" lon="-17.7494350">
        <ele>519.1</ele>
        <time>2020-11-16T08:30:10Z</time>
      </trkpt>
      <trkpt lat="28.7333220" lon="-17.7494530">
        <ele>519.3</ele>
        <time>2020-11-16T08:30:11Z</time>
      </trkpt>
      <trkpt lat="28.7333220" lon="-17.7494530">
        <ele>519.3</ele>
        <time>2020-11-16T08:30:12Z</time>
      </trkpt>
      <trkpt lat="28.7333430" lon="-17.7494930">
        <ele>519.8</ele>
        <time>2020-11-16T08:30:13Z</time>
      </trkpt>
      <trkpt lat="28.7333430" lon="-17.7494930">
        <ele>519.8</ele>
        <time>2020-11-16T08:30:14Z</time>
      </trkpt>
      <trkpt lat="28.7333620" lon="-17.7495350">
        <ele>520.3</ele>
        <time>2020-11-16T08:30:15Z</time>
      </trkpt>
      <trkpt lat="28.7333620" lon="-17.7495350">
        <ele>520.3</ele>
        <time>2020-11-16T08:30:16Z</time>
      </trkpt>
      <trkpt lat="28.7333730" lon="-17.7495750">
        <ele>520.7</ele>
        <time>2020-11-16T08:30:17Z</time>
      </trkpt>
      <trkpt lat="28.7333830" lon="-17.7495950">
        <ele>520.9</ele>
        <time>2020-11-16T08:30:18Z</time>
      </trkpt>
      <trkpt lat="28.7333950" lon="-17.7496170">
        <ele>521.2</ele>
        <time>2020-11-16T08:30:19Z</time>
      </trkpt>
      <trkpt lat="28.7333950" lon="-17.7496170">
        <ele>521.2</ele>
        <time>2020-11-16T08:30:20Z</time>
      </trkpt>
      <trkpt lat="28.7334280" lon="-17.7496480">
        <ele>521.7</ele>
        <time>2020-11-16T08:30:21Z</time>
      </trkpt>
      <trkpt lat="28.7334280" lon="-17.7496480">
        <ele>521.7</ele>
        <time>2020-11-16T08:30:22Z</time>
      </trkpt>
      <trkpt lat="28.7334630" lon="-17.7496750">
        <ele>522.2</ele>
        <time>2020-11-16T08:30:23Z</time>
      </trkpt>
      <trkpt lat="28.7334630" lon="-17.7496750">
        <ele>522.2</ele>
        <time>2020-11-16T08:30:24Z</time>
      </trkpt>
      <trkpt lat="28.7335020" lon="-17.7497020">
        <ele>522.7</ele>
        <time>2020-11-16T08:30:25Z</time>
      </trkpt>
      <trkpt lat="28.7335180" lon="-17.7497080">
        <ele>522.9</ele>
        <time>2020-11-16T08:30:26Z</time>
      </trkpt>
      <trkpt lat="28.7335180" lon="-17.7497080">
        <ele>522.9</ele>
        <time>2020-11-16T08:30:27Z</time>
      </trkpt>
      <trkpt lat="28.7335550" lon="-17.7497100">
        <ele>523.3</ele>
        <time>2020-11-16T08:30:28Z</time>
      </trkpt>
      <trkpt lat="28.7335850" lon="-17.7497130">
        <ele>523.7</ele>
        <time>2020-11-16T08:30:29Z</time>
      </trkpt>
      <trkpt lat="28.7335850" lon="-17.7497130">
        <ele>523.7</ele>
        <time>2020-11-16T08:30:30Z</time>
      </trkpt>
      <trkpt lat="28.7336250" lon="-17.7497170">
        <ele>524.2</ele>
        <time>2020-11-16T08:30:31Z</time>
      </trkpt>
      <trkpt lat="28.7336470" lon="-17.7497180">
        <ele>524.4</ele>
        <time>2020-11-16T08:30:32Z</time>
      </trkpt>
      <trkpt lat="28.7336650" lon="-17.7497200">
        <ele>524.6</ele>
        <time>2020-11-16T08:30:33Z</time>
      </trkpt>
      <trkpt lat="28.7336650" lon="-17.7497200">
        <ele>524.6</ele>
        <time>2020-11-16T08:30:34Z</time>
      </trkpt>
      <trkpt lat="28.7337000" lon="-17.7497330">
        <ele>525.1</ele>
        <time>2020-11-16T08:30:35Z</time>
      </trkpt>
      <trkpt lat="28.7337220" lon="-17.7497450">
        <ele>526.2</ele>
        <time>2020-11-16T08:30:36Z</time>
      </trkpt>
      <trkpt lat="28.7337220" lon="-17.7497450">
        <ele>526.2</ele>
        <time>2020-11-16T08:30:37Z</time>
      </trkpt>
      <trkpt lat="28.7337480" lon="-17.7497830">
        <ele>526.7</ele>
        <time>2020-11-16T08:30:38Z</time>
      </trkpt>
      <trkpt lat="28.7337480" lon="-17.7497830">
        <ele>526.7</ele>
        <time>2020-11-16T08:30:39Z</time>
      </trkpt>
      <trkpt lat="28.7337620" lon="-17.7498250">
        <ele>527.2</ele>
        <time>2020-11-16T08:30:40Z</time>
      </trkpt>
      <trkpt lat="28.7337620" lon="-17.7498250">
        <ele>527.2</ele>
        <time>2020-11-16T08:30:41Z</time>
      </trkpt>
      <trkpt lat="28.7337600" lon="-17.7498700">
        <ele>527.7</ele>
        <time>2020-11-16T08:30:42Z</time>
      </trkpt>
      <trkpt lat="28.7337570" lon="-17.7498920">
        <ele>527.9</ele>
        <time>2020-11-16T08:30:43Z</time>
      </trkpt>
      <trkpt lat="28.7337570" lon="-17.7498920">
        <ele>527.9</ele>
        <time>2020-11-16T08:30:44Z</time>
      </trkpt>
      <trkpt lat="28.7337470" lon="-17.7499350">
        <ele>528.5</ele>
        <time>2020-11-16T08:30:45Z</time>
      </trkpt>
      <trkpt lat="28.7337420" lon="-17.7499580">
        <ele>528.8</ele>
        <time>2020-11-16T08:30:46Z</time>
      </trkpt>
      <trkpt lat="28.7337420" lon="-17.7499580">
        <ele>528.8</ele>
        <time>2020-11-16T08:30:47Z</time>
      </trkpt>
      <trkpt lat="28.7337370" lon="-17.7500030">
        <ele>529.3</ele>
        <time>2020-11-16T08:30:48Z</time>
      </trkpt>
      <trkpt lat="28.7337330" lon="-17.7500250">
        <ele>529.6</ele>
        <time>2020-11-16T08:30:49Z</time>
      </trkpt>
      <trkpt lat="28.7337330" lon="-17.7500470">
        <ele>529.9</ele>
        <time>2020-11-16T08:30:50Z</time>
      </trkpt>
      <trkpt lat="28.7337330" lon="-17.7500470">
        <ele>529.9</ele>
        <time>2020-11-16T08:30:51Z</time>
      </trkpt>
      <trkpt lat="28.7337320" lon="-17.7500870">
        <ele>530.4</ele>
        <time>2020-11-16T08:30:52Z</time>
      </trkpt>
      <trkpt lat="28.7337320" lon="-17.7500870">
        <ele>530.4</ele>
        <time>2020-11-16T08:30:53Z</time>
      </trkpt>
      <trkpt lat="28.7337330" lon="-17.7501230">
        <ele>530.8</ele>
        <time>2020-11-16T08:30:54Z</time>
      </trkpt>
      <trkpt lat="28.7337330" lon="-17.7501230">
        <ele>530.8</ele>
        <time>2020-11-16T08:30:55Z</time>
      </trkpt>
      <trkpt lat="28.7337300" lon="-17.7501570">
        <ele>531.3</ele>
        <time>2020-11-16T08:30:56Z</time>
      </trkpt>
      <trkpt lat="28.7337300" lon="-17.7501570">
        <ele>531.3</ele>
        <time>2020-11-16T08:30:57Z</time>
      </trkpt>
      <trkpt lat="28.7337300" lon="-17.7501970">
        <ele>531.8</ele>
        <time>2020-11-16T08:30:58Z</time>
      </trkpt>
      <trkpt lat="28.7337300" lon="-17.7501970">
        <ele>531.8</ele>
        <time>2020-11-16T08:30:59Z</time>
      </trkpt>
      <trkpt lat="28.7337350" lon="-17.7502450">
        <ele>532.4</ele>
        <time>2020-11-16T08:31:00Z</time>
      </trkpt>
      <trkpt lat="28.7337350" lon="-17.7502450">
        <ele>532.4</ele>
        <time>2020-11-16T08:31:01Z</time>
      </trkpt>
      <trkpt lat="28.7337350" lon="-17.7502780">
        <ele>532.9</ele>
        <time>2020-11-16T08:31:02Z</time>
      </trkpt>
      <trkpt lat="28.7337350" lon="-17.7503020">
        <ele>533.2</ele>
        <time>2020-11-16T08:31:03Z</time>
      </trkpt>
      <trkpt lat="28.7337350" lon="-17.7503020">
        <ele>533.2</ele>
        <time>2020-11-16T08:31:04Z</time>
      </trkpt>
      <trkpt lat="28.7337350" lon="-17.7503450">
        <ele>533.8</ele>
        <time>2020-11-16T08:31:05Z</time>
      </trkpt>
      <trkpt lat="28.7337380" lon="-17.7503630">
        <ele>534.1</ele>
        <time>2020-11-16T08:31:06Z</time>
      </trkpt>
      <trkpt lat="28.7337380" lon="-17.7503630">
        <ele>534.1</ele>
        <time>2020-11-16T08:31:07Z</time>
      </trkpt>
      <trkpt lat="28.7337330" lon="-17.7503980">
        <ele>534.4</ele>
        <time>2020-11-16T08:31:08Z</time>
      </trkpt>
      <trkpt lat="28.7337330" lon="-17.7503980">
        <ele>534.4</ele>
        <time>2020-11-16T08:31:09Z</time>
      </trkpt>
      <trkpt lat="28.7337300" lon="-17.7504350">
        <ele>534.7</ele>
        <time>2020-11-16T08:31:10Z</time>
      </trkpt>
      <trkpt lat="28.7337300" lon="-17.7504520">
        <ele>534.8</ele>
        <time>2020-11-16T08:31:11Z</time>
      </trkpt>
      <trkpt lat="28.7337300" lon="-17.7504680">
        <ele>534.9</ele>
        <time>2020-11-16T08:31:12Z</time>
      </trkpt>
      <trkpt lat="28.7337300" lon="-17.7504680">
        <ele>534.9</ele>
        <time>2020-11-16T08:31:13Z</time>
      </trkpt>
      <trkpt lat="28.7337320" lon="-17.7505050">
        <ele>535.2</ele>
        <time>2020-11-16T08:31:14Z</time>
      </trkpt>
      <trkpt lat="28.7337370" lon="-17.7505300">
        <ele>535.3</ele>
        <time>2020-11-16T08:31:15Z</time>
      </trkpt>
      <trkpt lat="28.7337370" lon="-17.7505300">
        <ele>535.3</ele>
        <time>2020-11-16T08:31:16Z</time>
      </trkpt>
      <trkpt lat="28.7337470" lon="-17.7505800">
        <ele>535.7</ele>
        <time>2020-11-16T08:31:17Z</time>
      </trkpt>
      <trkpt lat="28.7337500" lon="-17.7506020">
        <ele>535.8</ele>
        <time>2020-11-16T08:31:18Z</time>
      </trkpt>
      <trkpt lat="28.7337500" lon="-17.7506020">
        <ele>535.8</ele>
        <time>2020-11-16T08:31:19Z</time>
      </trkpt>
      <trkpt lat="28.7337570" lon="-17.7506450">
        <ele>536.1</ele>
        <time>2020-11-16T08:31:20Z</time>
      </trkpt>
      <trkpt lat="28.7337570" lon="-17.7506450">
        <ele>536.1</ele>
        <time>2020-11-16T08:31:21Z</time>
      </trkpt>
      <trkpt lat="28.7337570" lon="-17.7506880">
        <ele>536.5</ele>
        <time>2020-11-16T08:31:22Z</time>
      </trkpt>
      <trkpt lat="28.7337570" lon="-17.7506880">
        <ele>536.5</ele>
        <time>2020-11-16T08:31:23Z</time>
      </trkpt>
      <trkpt lat="28.7337520" lon="-17.7507420">
        <ele>536.9</ele>
        <time>2020-11-16T08:31:24Z</time>
      </trkpt>
      <trkpt lat="28.7337520" lon="-17.7507420">
        <ele>536.9</ele>
        <time>2020-11-16T08:31:25Z</time>
      </trkpt>
      <trkpt lat="28.7337530" lon="-17.7507850">
        <ele>537.2</ele>
        <time>2020-11-16T08:31:26Z</time>
      </trkpt>
      <trkpt lat="28.7337530" lon="-17.7507850">
        <ele>537.2</ele>
        <time>2020-11-16T08:31:27Z</time>
      </trkpt>
      <trkpt lat="28.7337680" lon="-17.7508200">
        <ele>537.5</ele>
        <time>2020-11-16T08:31:28Z</time>
      </trkpt>
      <trkpt lat="28.7337680" lon="-17.7508200">
        <ele>537.5</ele>
        <time>2020-11-16T08:31:29Z</time>
      </trkpt>
      <trkpt lat="28.7337830" lon="-17.7508630">
        <ele>537.9</ele>
        <time>2020-11-16T08:31:30Z</time>
      </trkpt>
      <trkpt lat="28.7337920" lon="-17.7508870">
        <ele>538.1</ele>
        <time>2020-11-16T08:31:31Z</time>
      </trkpt>
      <trkpt lat="28.7337920" lon="-17.7508870">
        <ele>538.1</ele>
        <time>2020-11-16T08:31:32Z</time>
      </trkpt>
      <trkpt lat="28.7338000" lon="-17.7509370">
        <ele>538.5</ele>
        <time>2020-11-16T08:31:33Z</time>
      </trkpt>
      <trkpt lat="28.7338000" lon="-17.7509370">
        <ele>538.5</ele>
        <time>2020-11-16T08:31:34Z</time>
      </trkpt>
      <trkpt lat="28.7338070" lon="-17.7509800">
        <ele>538.8</ele>
        <time>2020-11-16T08:31:35Z</time>
      </trkpt>
      <trkpt lat="28.7338070" lon="-17.7509800">
        <ele>538.8</ele>
        <time>2020-11-16T08:31:36Z</time>
      </trkpt>
      <trkpt lat="28.7338100" lon="-17.7510230">
        <ele>539.2</ele>
        <time>2020-11-16T08:31:37Z</time>
      </trkpt>
      <trkpt lat="28.7338120" lon="-17.7510450">
        <ele>539.4</ele>
        <time>2020-11-16T08:31:38Z</time>
      </trkpt>
      <trkpt lat="28.7338120" lon="-17.7510450">
        <ele>539.4</ele>
        <time>2020-11-16T08:31:39Z</time>
      </trkpt>
      <trkpt lat="28.7338150" lon="-17.7510900">
        <ele>539.8</ele>
        <time>2020-11-16T08:31:40Z</time>
      </trkpt>
      <trkpt lat="28.7338150" lon="-17.7510900">
        <ele>539.8</ele>
        <time>2020-11-16T08:31:41Z</time>
      </trkpt>
      <trkpt lat="28.7338170" lon="-17.7511300">
        <ele>540.2</ele>
        <time>2020-11-16T08:31:42Z</time>
      </trkpt>
      <trkpt lat="28.7338170" lon="-17.7511300">
        <ele>540.2</ele>
        <time>2020-11-16T08:31:43Z</time>
      </trkpt>
      <trkpt lat="28.7338130" lon="-17.7511680">
        <ele>540.5</ele>
        <time>2020-11-16T08:31:44Z</time>
      </trkpt>
      <trkpt lat="28.7338130" lon="-17.7511680">
        <ele>540.5</ele>
        <time>2020-11-16T08:31:45Z</time>
      </trkpt>
      <trkpt lat="28.7338170" lon="-17.7512150">
        <ele>541.0</ele>
        <time>2020-11-16T08:31:46Z</time>
      </trkpt>
      <trkpt lat="28.7338180" lon="-17.7512370">
        <ele>541.2</ele>
        <time>2020-11-16T08:31:47Z</time>
      </trkpt>
      <trkpt lat="28.7338180" lon="-17.7512370">
        <ele>541.2</ele>
        <time>2020-11-16T08:31:48Z</time>
      </trkpt>
      <trkpt lat="28.7338150" lon="-17.7512780">
        <ele>541.5</ele>
        <time>2020-11-16T08:31:49Z</time>
      </trkpt>
      <trkpt lat="28.7338180" lon="-17.7513030">
        <ele>541.7</ele>
        <time>2020-11-16T08:31:50Z</time>
      </trkpt>
      <trkpt lat="28.7338180" lon="-17.7513030">
        <ele>541.7</ele>
        <time>2020-11-16T08:31:51Z</time>
      </trkpt>
      <trkpt lat="28.7338220" lon="-17.7513530">
        <ele>542.1</ele>
        <time>2020-11-16T08:31:52Z</time>
      </trkpt>
      <trkpt lat="28.7338220" lon="-17.7513530">
        <ele>542.1</ele>
        <time>2020-11-16T08:31:53Z</time>
      </trkpt>
      <trkpt lat="28.7338230" lon="-17.7513970">
        <ele>542.4</ele>
        <time>2020-11-16T08:31:54Z</time>
      </trkpt>
      <trkpt lat="28.7338230" lon="-17.7513970">
        <ele>542.4</ele>
        <time>2020-11-16T08:31:55Z</time>
      </trkpt>
      <trkpt lat="28.7338180" lon="-17.7514400">
        <ele>542.7</ele>
        <time>2020-11-16T08:31:56Z</time>
      </trkpt>
      <trkpt lat="28.7338180" lon="-17.7514400">
        <ele>542.7</ele>
        <time>2020-11-16T08:31:57Z</time>
      </trkpt>
      <trkpt lat="28.7338180" lon="-17.7514800">
        <ele>543.0</ele>
        <time>2020-11-16T08:31:58Z</time>
      </trkpt>
      <trkpt lat="28.7338150" lon="-17.7514950">
        <ele>543.1</ele>
        <time>2020-11-16T08:31:59Z</time>
      </trkpt>
      <trkpt lat="28.7338150" lon="-17.7514950">
        <ele>543.1</ele>
        <time>2020-11-16T08:32:00Z</time>
      </trkpt>
      <trkpt lat="28.7338130" lon="-17.7515250">
        <ele>543.4</ele>
        <time>2020-11-16T08:32:01Z</time>
      </trkpt>
      <trkpt lat="28.7338130" lon="-17.7515250">
        <ele>543.4</ele>
        <time>2020-11-16T08:32:02Z</time>
      </trkpt>
      <trkpt lat="28.7337950" lon="-17.7515750">
        <ele>543.7</ele>
        <time>2020-11-16T08:32:03Z</time>
      </trkpt>
      <trkpt lat="28.7337950" lon="-17.7515750">
        <ele>543.7</ele>
        <time>2020-11-16T08:32:04Z</time>
      </trkpt>
      <trkpt lat="28.7337780" lon="-17.7516050">
        <ele>544.0</ele>
        <time>2020-11-16T08:32:05Z</time>
      </trkpt>
      <trkpt lat="28.7337770" lon="-17.7516220">
        <ele>544.1</ele>
        <time>2020-11-16T08:32:06Z</time>
      </trkpt>
      <trkpt lat="28.7337770" lon="-17.7516220">
        <ele>544.1</ele>
        <time>2020-11-16T08:32:07Z</time>
      </trkpt>
      <trkpt lat="28.7337770" lon="-17.7516670">
        <ele>544.4</ele>
        <time>2020-11-16T08:32:08Z</time>
      </trkpt>
      <trkpt lat="28.7337770" lon="-17.7516670">
        <ele>544.4</ele>
        <time>2020-11-16T08:32:09Z</time>
      </trkpt>
      <trkpt lat="28.7337620" lon="-17.7517170">
        <ele>544.7</ele>
        <time>2020-11-16T08:32:10Z</time>
      </trkpt>
      <trkpt lat="28.7337620" lon="-17.7517170">
        <ele>544.7</ele>
        <time>2020-11-16T08:32:11Z</time>
      </trkpt>
      <trkpt lat="28.7337430" lon="-17.7517670">
        <ele>545.0</ele>
        <time>2020-11-16T08:32:12Z</time>
      </trkpt>
      <trkpt lat="28.7337300" lon="-17.7517950">
        <ele>545.2</ele>
        <time>2020-11-16T08:32:13Z</time>
      </trkpt>
      <trkpt lat="28.7337120" lon="-17.7518230">
        <ele>545.4</ele>
        <time>2020-11-16T08:32:14Z</time>
      </trkpt>
      <trkpt lat="28.7337120" lon="-17.7518230">
        <ele>545.4</ele>
        <time>2020-11-16T08:32:15Z</time>
      </trkpt>
      <trkpt lat="28.7336820" lon="-17.7518720">
        <ele>545.8</ele>
        <time>2020-11-16T08:32:16Z</time>
      </trkpt>
      <trkpt lat="28.7336820" lon="-17.7518720">
        <ele>545.8</ele>
        <time>2020-11-16T08:32:17Z</time>
      </trkpt>
      <trkpt lat="28.7336670" lon="-17.7519200">
        <ele>546.1</ele>
        <time>2020-11-16T08:32:18Z</time>
      </trkpt>
      <trkpt lat="28.7336670" lon="-17.7519200">
        <ele>546.1</ele>
        <time>2020-11-16T08:32:19Z</time>
      </trkpt>
      <trkpt lat="28.7336800" lon="-17.7519650">
        <ele>546.4</ele>
        <time>2020-11-16T08:32:20Z</time>
      </trkpt>
      <trkpt lat="28.7336800" lon="-17.7519650">
        <ele>546.4</ele>
        <time>2020-11-16T08:32:21Z</time>
      </trkpt>
      <trkpt lat="28.7337070" lon="-17.7520230">
        <ele>546.9</ele>
        <time>2020-11-16T08:32:22Z</time>
      </trkpt>
      <trkpt lat="28.7337170" lon="-17.7520450">
        <ele>547.1</ele>
        <time>2020-11-16T08:32:23Z</time>
      </trkpt>
      <trkpt lat="28.7337170" lon="-17.7520450">
        <ele>547.1</ele>
        <time>2020-11-16T08:32:24Z</time>
      </trkpt>
      <trkpt lat="28.7337650" lon="-17.7520820">
        <ele>547.7</ele>
        <time>2020-11-16T08:32:25Z</time>
      </trkpt>
      <trkpt lat="28.7337870" lon="-17.7520980">
        <ele>547.9</ele>
        <time>2020-11-16T08:32:26Z</time>
      </trkpt>
      <trkpt lat="28.7337870" lon="-17.7520980">
        <ele>547.9</ele>
        <time>2020-11-16T08:32:27Z</time>
      </trkpt>
      <trkpt lat="28.7338200" lon="-17.7521280">
        <ele>548.4</ele>
        <time>2020-11-16T08:32:28Z</time>
      </trkpt>
      <trkpt lat="28.7338300" lon="-17.7521420">
        <ele>548.5</ele>
        <time>2020-11-16T08:32:29Z</time>
      </trkpt>
      <trkpt lat="28.7338430" lon="-17.7521520">
        <ele>548.7</ele>
        <time>2020-11-16T08:32:30Z</time>
      </trkpt>
      <trkpt lat="28.7338430" lon="-17.7521520">
        <ele>548.7</ele>
        <time>2020-11-16T08:32:31Z</time>
      </trkpt>
      <trkpt lat="28.7338830" lon="-17.7521750">
        <ele>549.1</ele>
        <time>2020-11-16T08:32:32Z</time>
      </trkpt>
      <trkpt lat="28.7338830" lon="-17.7521750">
        <ele>549.1</ele>
        <time>2020-11-16T08:32:33Z</time>
      </trkpt>
      <trkpt lat="28.7339050" lon="-17.7522100">
        <ele>549.5</ele>
        <time>2020-11-16T08:32:34Z</time>
      </trkpt>
      <trkpt lat="28.7339050" lon="-17.7522100">
        <ele>549.5</ele>
        <time>2020-11-16T08:32:35Z</time>
      </trkpt>
      <trkpt lat="28.7339080" lon="-17.7522500">
        <ele>549.8</ele>
        <time>2020-11-16T08:32:36Z</time>
      </trkpt>
      <trkpt lat="28.7339080" lon="-17.7522500">
        <ele>549.8</ele>
        <time>2020-11-16T08:32:37Z</time>
      </trkpt>
      <trkpt lat="28.7338930" lon="-17.7522850">
        <ele>550.1</ele>
        <time>2020-11-16T08:32:38Z</time>
      </trkpt>
      <trkpt lat="28.7338870" lon="-17.7523030">
        <ele>550.2</ele>
        <time>2020-11-16T08:32:39Z</time>
      </trkpt>
      <trkpt lat="28.7338870" lon="-17.7523030">
        <ele>550.2</ele>
        <time>2020-11-16T08:32:40Z</time>
      </trkpt>
      <trkpt lat="28.7338770" lon="-17.7523430">
        <ele>550.5</ele>
        <time>2020-11-16T08:32:41Z</time>
      </trkpt>
      <trkpt lat="28.7338770" lon="-17.7523430">
        <ele>550.5</ele>
        <time>2020-11-16T08:32:42Z</time>
      </trkpt>
      <trkpt lat="28.7338650" lon="-17.7523730">
        <ele>550.8</ele>
        <time>2020-11-16T08:32:43Z</time>
      </trkpt>
      <trkpt lat="28.7338620" lon="-17.7523870">
        <ele>550.9</ele>
        <time>2020-11-16T08:32:44Z</time>
      </trkpt>
      <trkpt lat="28.7338620" lon="-17.7523870">
        <ele>550.9</ele>
        <time>2020-11-16T08:32:45Z</time>
      </trkpt>
      <trkpt lat="28.7338420" lon="-17.7524330">
        <ele>551.2</ele>
        <time>2020-11-16T08:32:46Z</time>
      </trkpt>
      <trkpt lat="28.7338420" lon="-17.7524330">
        <ele>551.2</ele>
        <time>2020-11-16T08:32:47Z</time>
      </trkpt>
      <trkpt lat="28.7338300" lon="-17.7524830">
        <ele>551.6</ele>
        <time>2020-11-16T08:32:48Z</time>
      </trkpt>
      <trkpt lat="28.7338300" lon="-17.7524830">
        <ele>551.6</ele>
        <time>2020-11-16T08:32:49Z</time>
      </trkpt>
      <trkpt lat="28.7338350" lon="-17.7525350">
        <ele>552.0</ele>
        <time>2020-11-16T08:32:50Z</time>
      </trkpt>
      <trkpt lat="28.7338370" lon="-17.7525570">
        <ele>552.2</ele>
        <time>2020-11-16T08:32:51Z</time>
      </trkpt>
      <trkpt lat="28.7338370" lon="-17.7525570">
        <ele>552.2</ele>
        <time>2020-11-16T08:32:52Z</time>
      </trkpt>
      <trkpt lat="28.7338380" lon="-17.7526000">
        <ele>552.5</ele>
        <time>2020-11-16T08:32:53Z</time>
      </trkpt>
      <trkpt lat="28.7338380" lon="-17.7526000">
        <ele>552.5</ele>
        <time>2020-11-16T08:32:54Z</time>
      </trkpt>
      <trkpt lat="28.7338420" lon="-17.7526430">
        <ele>552.9</ele>
        <time>2020-11-16T08:32:55Z</time>
      </trkpt>
      <trkpt lat="28.7338480" lon="-17.7526650">
        <ele>553.1</ele>
        <time>2020-11-16T08:32:56Z</time>
      </trkpt>
      <trkpt lat="28.7338480" lon="-17.7526650">
        <ele>553.1</ele>
        <time>2020-11-16T08:32:57Z</time>
      </trkpt>
      <trkpt lat="28.7338570" lon="-17.7526980">
        <ele>553.4</ele>
        <time>2020-11-16T08:32:58Z</time>
      </trkpt>
      <trkpt lat="28.7338580" lon="-17.7527130">
        <ele>553.6</ele>
        <time>2020-11-16T08:32:59Z</time>
      </trkpt>
      <trkpt lat="28.7338580" lon="-17.7527130">
        <ele>553.6</ele>
        <time>2020-11-16T08:33:00Z</time>
      </trkpt>
      <trkpt lat="28.7338650" lon="-17.7527480">
        <ele>553.9</ele>
        <time>2020-11-16T08:33:01Z</time>
      </trkpt>
      <trkpt lat="28.7338700" lon="-17.7527670">
        <ele>554.1</ele>
        <time>2020-11-16T08:33:02Z</time>
      </trkpt>
      <trkpt lat="28.7338700" lon="-17.7527670">
        <ele>554.1</ele>
        <time>2020-11-16T08:33:03Z</time>
      </trkpt>
      <trkpt lat="28.7338770" lon="-17.7528230">
        <ele>554.7</ele>
        <time>2020-11-16T08:33:04Z</time>
      </trkpt>
      <trkpt lat="28.7338770" lon="-17.7528230">
        <ele>554.7</ele>
        <time>2020-11-16T08:33:05Z</time>
      </trkpt>
      <trkpt lat="28.7338850" lon="-17.7528770">
        <ele>555.2</ele>
        <time>2020-11-16T08:33:06Z</time>
      </trkpt>
      <trkpt lat="28.7338850" lon="-17.7528770">
        <ele>555.2</ele>
        <time>2020-11-16T08:33:07Z</time>
      </trkpt>
      <trkpt lat="28.7339030" lon="-17.7529200">
        <ele>555.7</ele>
        <time>2020-11-16T08:33:08Z</time>
      </trkpt>
      <trkpt lat="28.7339070" lon="-17.7529430">
        <ele>555.9</ele>
        <time>2020-11-16T08:33:09Z</time>
      </trkpt>
      <trkpt lat="28.7339070" lon="-17.7529430">
        <ele>555.9</ele>
        <time>2020-11-16T08:33:10Z</time>
      </trkpt>
      <trkpt lat="28.7339070" lon="-17.7529770">
        <ele>556.2</ele>
        <time>2020-11-16T08:33:11Z</time>
      </trkpt>
      <trkpt lat="28.7339070" lon="-17.7529770">
        <ele>556.2</ele>
        <time>2020-11-16T08:33:12Z</time>
      </trkpt>
      <trkpt lat="28.7339000" lon="-17.7530120">
        <ele>556.6</ele>
        <time>2020-11-16T08:33:13Z</time>
      </trkpt>
      <trkpt lat="28.7338980" lon="-17.7530280">
        <ele>556.7</ele>
        <time>2020-11-16T08:33:14Z</time>
      </trkpt>
      <trkpt lat="28.7338980" lon="-17.7530280">
        <ele>556.7</ele>
        <time>2020-11-16T08:33:15Z</time>
      </trkpt>
      <trkpt lat="28.7338920" lon="-17.7530620">
        <ele>557.1</ele>
        <time>2020-11-16T08:33:16Z</time>
      </trkpt>
      <trkpt lat="28.7338920" lon="-17.7530620">
        <ele>557.1</ele>
        <time>2020-11-16T08:33:17Z</time>
      </trkpt>
      <trkpt lat="28.7338830" lon="-17.7530950">
        <ele>557.4</ele>
        <time>2020-11-16T08:33:18Z</time>
      </trkpt>
      <trkpt lat="28.7338830" lon="-17.7530950">
        <ele>557.4</ele>
        <time>2020-11-16T08:33:19Z</time>
      </trkpt>
      <trkpt lat="28.7338680" lon="-17.7531300">
        <ele>557.7</ele>
        <time>2020-11-16T08:33:20Z</time>
      </trkpt>
      <trkpt lat="28.7338680" lon="-17.7531300">
        <ele>557.7</ele>
        <time>2020-11-16T08:33:21Z</time>
      </trkpt>
      <trkpt lat="28.7338570" lon="-17.7531650">
        <ele>558.1</ele>
        <time>2020-11-16T08:33:22Z</time>
      </trkpt>
      <trkpt lat="28.7338530" lon="-17.7531830">
        <ele>558.3</ele>
        <time>2020-11-16T08:33:23Z</time>
      </trkpt>
      <trkpt lat="28.7338530" lon="-17.7531830">
        <ele>558.3</ele>
        <time>2020-11-16T08:33:24Z</time>
      </trkpt>
      <trkpt lat="28.7338330" lon="-17.7532270">
        <ele>558.7</ele>
        <time>2020-11-16T08:33:25Z</time>
      </trkpt>
      <trkpt lat="28.7338330" lon="-17.7532270">
        <ele>558.7</ele>
        <time>2020-11-16T08:33:26Z</time>
      </trkpt>
      <trkpt lat="28.7338150" lon="-17.7532730">
        <ele>559.2</ele>
        <time>2020-11-16T08:33:27Z</time>
      </trkpt>
      <trkpt lat="28.7338150" lon="-17.7532730">
        <ele>559.2</ele>
        <time>2020-11-16T08:33:28Z</time>
      </trkpt>
      <trkpt lat="28.7337980" lon="-17.7533180">
        <ele>559.7</ele>
        <time>2020-11-16T08:33:29Z</time>
      </trkpt>
      <trkpt lat="28.7337880" lon="-17.7533400">
        <ele>559.9</ele>
        <time>2020-11-16T08:33:30Z</time>
      </trkpt>
      <trkpt lat="28.7337880" lon="-17.7533400">
        <ele>559.9</ele>
        <time>2020-11-16T08:33:31Z</time>
      </trkpt>
      <trkpt lat="28.7337700" lon="-17.7533820">
        <ele>560.3</ele>
        <time>2020-11-16T08:33:32Z</time>
      </trkpt>
      <trkpt lat="28.7337700" lon="-17.7533820">
        <ele>560.3</ele>
        <time>2020-11-16T08:33:33Z</time>
      </trkpt>
      <trkpt lat="28.7337520" lon="-17.7534200">
        <ele>560.7</ele>
        <time>2020-11-16T08:33:34Z</time>
      </trkpt>
      <trkpt lat="28.7337470" lon="-17.7534480">
        <ele>560.9</ele>
        <time>2020-11-16T08:33:35Z</time>
      </trkpt>
      <trkpt lat="28.7337470" lon="-17.7534480">
        <ele>560.9</ele>
        <time>2020-11-16T08:33:36Z</time>
      </trkpt>
      <trkpt lat="28.7337220" lon="-17.7534870">
        <ele>561.3</ele>
        <time>2020-11-16T08:33:37Z</time>
      </trkpt>
      <trkpt lat="28.7337050" lon="-17.7535050">
        <ele>561.5</ele>
        <time>2020-11-16T08:33:38Z</time>
      </trkpt>
      <trkpt lat="28.7337050" lon="-17.7535050">
        <ele>561.5</ele>
        <time>2020-11-16T08:33:39Z</time>
      </trkpt>
      <trkpt lat="28.7336820" lon="-17.7535400">
        <ele>561.8</ele>
        <time>2020-11-16T08:33:40Z</time>
      </trkpt>
      <trkpt lat="28.7336680" lon="-17.7535580">
        <ele>562.0</ele>
        <time>2020-11-16T08:33:41Z</time>
      </trkpt>
      <trkpt lat="28.7336680" lon="-17.7535580">
        <ele>562.0</ele>
        <time>2020-11-16T08:33:42Z</time>
      </trkpt>
      <trkpt lat="28.7336570" lon="-17.7536030">
        <ele>562.4</ele>
        <time>2020-11-16T08:33:43Z</time>
      </trkpt>
      <trkpt lat="28.7336570" lon="-17.7536030">
        <ele>562.4</ele>
        <time>2020-11-16T08:33:44Z</time>
      </trkpt>
      <trkpt lat="28.7336600" lon="-17.7536500">
        <ele>562.7</ele>
        <time>2020-11-16T08:33:45Z</time>
      </trkpt>
      <trkpt lat="28.7336600" lon="-17.7536500">
        <ele>562.7</ele>
        <time>2020-11-16T08:33:46Z</time>
      </trkpt>
      <trkpt lat="28.7336580" lon="-17.7537000">
        <ele>563.1</ele>
        <time>2020-11-16T08:33:47Z</time>
      </trkpt>
      <trkpt lat="28.7336580" lon="-17.7537220">
        <ele>563.3</ele>
        <time>2020-11-16T08:33:48Z</time>
      </trkpt>
      <trkpt lat="28.7336580" lon="-17.7537220">
        <ele>563.3</ele>
        <time>2020-11-16T08:33:49Z</time>
      </trkpt>
      <trkpt lat="28.7336530" lon="-17.7537620">
        <ele>563.6</ele>
        <time>2020-11-16T08:33:50Z</time>
      </trkpt>
      <trkpt lat="28.7336530" lon="-17.7537620">
        <ele>563.6</ele>
        <time>2020-11-16T08:33:51Z</time>
      </trkpt>
      <trkpt lat="28.7336430" lon="-17.7538020">
        <ele>563.9</ele>
        <time>2020-11-16T08:33:52Z</time>
      </trkpt>
      <trkpt lat="28.7336430" lon="-17.7538020">
        <ele>563.9</ele>
        <time>2020-11-16T08:33:53Z</time>
      </trkpt>
      <trkpt lat="28.7336350" lon="-17.7538400">
        <ele>564.1</ele>
        <time>2020-11-16T08:33:54Z</time>
      </trkpt>
      <trkpt lat="28.7336280" lon="-17.7538620">
        <ele>564.3</ele>
        <time>2020-11-16T08:33:55Z</time>
      </trkpt>
      <trkpt lat="28.7336280" lon="-17.7538620">
        <ele>564.3</ele>
        <time>2020-11-16T08:33:56Z</time>
      </trkpt>
      <trkpt lat="28.7336220" lon="-17.7539020">
        <ele>564.6</ele>
        <time>2020-11-16T08:33:57Z</time>
      </trkpt>
      <trkpt lat="28.7336220" lon="-17.7539020">
        <ele>564.6</ele>
        <time>2020-11-16T08:33:58Z</time>
      </trkpt>
      <trkpt lat="28.7336170" lon="-17.7539430">
        <ele>564.9</ele>
        <time>2020-11-16T08:33:59Z</time>
      </trkpt>
      <trkpt lat="28.7336170" lon="-17.7539430">
        <ele>564.9</ele>
        <time>2020-11-16T08:34:00Z</time>
      </trkpt>
      <trkpt lat="28.7336120" lon="-17.7539830">
        <ele>565.1</ele>
        <time>2020-11-16T08:34:01Z</time>
      </trkpt>
      <trkpt lat="28.7336100" lon="-17.7540050">
        <ele>565.3</ele>
        <time>2020-11-16T08:34:02Z</time>
      </trkpt>
      <trkpt lat="28.7336100" lon="-17.7540050">
        <ele>565.3</ele>
        <time>2020-11-16T08:34:03Z</time>
      </trkpt>
      <trkpt lat="28.7336100" lon="-17.7540470">
        <ele>565.6</ele>
        <time>2020-11-16T08:34:04Z</time>
      </trkpt>
      <trkpt lat="28.7336100" lon="-17.7540470">
        <ele>565.6</ele>
        <time>2020-11-16T08:34:05Z</time>
      </trkpt>
      <trkpt lat="28.7336120" lon="-17.7541020">
        <ele>565.9</ele>
        <time>2020-11-16T08:34:06Z</time>
      </trkpt>
      <trkpt lat="28.7336050" lon="-17.7541200">
        <ele>566.1</ele>
        <time>2020-11-16T08:34:07Z</time>
      </trkpt>
      <trkpt lat="28.7336050" lon="-17.7541370">
        <ele>566.2</ele>
        <time>2020-11-16T08:34:08Z</time>
      </trkpt>
      <trkpt lat="28.7336050" lon="-17.7541370">
        <ele>566.2</ele>
        <time>2020-11-16T08:34:09Z</time>
      </trkpt>
      <trkpt lat="28.7336230" lon="-17.7541920">
        <ele>566.7</ele>
        <time>2020-11-16T08:34:10Z</time>
      </trkpt>
      <trkpt lat="28.7336330" lon="-17.7542170">
        <ele>566.9</ele>
        <time>2020-11-16T08:34:11Z</time>
      </trkpt>
      <trkpt lat="28.7336330" lon="-17.7542170">
        <ele>566.9</ele>
        <time>2020-11-16T08:34:12Z</time>
      </trkpt>
      <trkpt lat="28.7336570" lon="-17.7542500">
        <ele>567.2</ele>
        <time>2020-11-16T08:34:13Z</time>
      </trkpt>
      <trkpt lat="28.7336700" lon="-17.7542620">
        <ele>567.4</ele>
        <time>2020-11-16T08:34:14Z</time>
      </trkpt>
      <trkpt lat="28.7336700" lon="-17.7542620">
        <ele>567.4</ele>
        <time>2020-11-16T08:34:15Z</time>
      </trkpt>
      <trkpt lat="28.7337000" lon="-17.7542870">
        <ele>567.8</ele>
        <time>2020-11-16T08:34:16Z</time>
      </trkpt>
      <trkpt lat="28.7337150" lon="-17.7543000">
        <ele>568.0</ele>
        <time>2020-11-16T08:34:17Z</time>
      </trkpt>
      <trkpt lat="28.7337150" lon="-17.7543000">
        <ele>568.0</ele>
        <time>2020-11-16T08:34:18Z</time>
      </trkpt>
      <trkpt lat="28.7337530" lon="-17.7543180">
        <ele>568.5</ele>
        <time>2020-11-16T08:34:19Z</time>
      </trkpt>
      <trkpt lat="28.7337730" lon="-17.7543280">
        <ele>568.8</ele>
        <time>2020-11-16T08:34:20Z</time>
      </trkpt>
      <trkpt lat="28.7337730" lon="-17.7543280">
        <ele>568.8</ele>
        <time>2020-11-16T08:34:21Z</time>
      </trkpt>
      <trkpt lat="28.7338080" lon="-17.7543470">
        <ele>569.3</ele>
        <time>2020-11-16T08:34:22Z</time>
      </trkpt>
      <trkpt lat="28.7338250" lon="-17.7543600">
        <ele>569.5</ele>
        <time>2020-11-16T08:34:23Z</time>
      </trkpt>
      <trkpt lat="28.7338250" lon="-17.7543600">
        <ele>569.5</ele>
        <time>2020-11-16T08:34:24Z</time>
      </trkpt>
      <trkpt lat="28.7338670" lon="-17.7543830">
        <ele>570.1</ele>
        <time>2020-11-16T08:34:25Z</time>
      </trkpt>
      <trkpt lat="28.7338670" lon="-17.7543830">
        <ele>570.1</ele>
        <time>2020-11-16T08:34:26Z</time>
      </trkpt>
      <trkpt lat="28.7339020" lon="-17.7544030">
        <ele>570.6</ele>
        <time>2020-11-16T08:34:27Z</time>
      </trkpt>
      <trkpt lat="28.7339020" lon="-17.7544030">
        <ele>570.6</ele>
        <time>2020-11-16T08:34:28Z</time>
      </trkpt>
      <trkpt lat="28.7339380" lon="-17.7544180">
        <ele>571.1</ele>
        <time>2020-11-16T08:34:29Z</time>
      </trkpt>
      <trkpt lat="28.7339530" lon="-17.7544280">
        <ele>571.3</ele>
        <time>2020-11-16T08:34:30Z</time>
      </trkpt>
      <trkpt lat="28.7339530" lon="-17.7544280">
        <ele>571.3</ele>
        <time>2020-11-16T08:34:31Z</time>
      </trkpt>
      <trkpt lat="28.7339920" lon="-17.7544380">
        <ele>571.8</ele>
        <time>2020-11-16T08:34:32Z</time>
      </trkpt>
      <trkpt lat="28.7339920" lon="-17.7544380">
        <ele>571.8</ele>
        <time>2020-11-16T08:34:33Z</time>
      </trkpt>
      <trkpt lat="28.7340400" lon="-17.7544370">
        <ele>572.3</ele>
        <time>2020-11-16T08:34:34Z</time>
      </trkpt>
      <trkpt lat="28.7340400" lon="-17.7544370">
        <ele>572.3</ele>
        <time>2020-11-16T08:34:35Z</time>
      </trkpt>
      <trkpt lat="28.7340820" lon="-17.7544300">
        <ele>572.8</ele>
        <time>2020-11-16T08:34:36Z</time>
      </trkpt>
      <trkpt lat="28.7340820" lon="-17.7544300">
        <ele>572.8</ele>
        <time>2020-11-16T08:34:37Z</time>
      </trkpt>
      <trkpt lat="28.7341200" lon="-17.7544270">
        <ele>573.2</ele>
        <time>2020-11-16T08:34:38Z</time>
      </trkpt>
      <trkpt lat="28.7341200" lon="-17.7544270">
        <ele>573.2</ele>
        <time>2020-11-16T08:34:39Z</time>
      </trkpt>
      <trkpt lat="28.7341600" lon="-17.7544420">
        <ele>573.6</ele>
        <time>2020-11-16T08:34:40Z</time>
      </trkpt>
      <trkpt lat="28.7341600" lon="-17.7544420">
        <ele>573.6</ele>
        <time>2020-11-16T08:34:41Z</time>
      </trkpt>
      <trkpt lat="28.7341980" lon="-17.7544580">
        <ele>574.0</ele>
        <time>2020-11-16T08:34:42Z</time>
      </trkpt>
      <trkpt lat="28.7342080" lon="-17.7544750">
        <ele>574.2</ele>
        <time>2020-11-16T08:34:43Z</time>
      </trkpt>
      <trkpt lat="28.7342080" lon="-17.7544750">
        <ele>574.2</ele>
        <time>2020-11-16T08:34:44Z</time>
      </trkpt>
      <trkpt lat="28.7342250" lon="-17.7545250">
        <ele>574.7</ele>
        <time>2020-11-16T08:34:45Z</time>
      </trkpt>
      <trkpt lat="28.7342250" lon="-17.7545250">
        <ele>574.7</ele>
        <time>2020-11-16T08:34:46Z</time>
      </trkpt>
      <trkpt lat="28.7342320" lon="-17.7545720">
        <ele>575.0</ele>
        <time>2020-11-16T08:34:47Z</time>
      </trkpt>
      <trkpt lat="28.7342320" lon="-17.7545720">
        <ele>575.0</ele>
        <time>2020-11-16T08:34:48Z</time>
      </trkpt>
      <trkpt lat="28.7342250" lon="-17.7546100">
        <ele>575.3</ele>
        <time>2020-11-16T08:34:49Z</time>
      </trkpt>
      <trkpt lat="28.7342220" lon="-17.7546330">
        <ele>575.4</ele>
        <time>2020-11-16T08:34:50Z</time>
      </trkpt>
      <trkpt lat="28.7342220" lon="-17.7546330">
        <ele>575.4</ele>
        <time>2020-11-16T08:34:51Z</time>
      </trkpt>
      <trkpt lat="28.7342080" lon="-17.7546880">
        <ele>575.6</ele>
        <time>2020-11-16T08:34:52Z</time>
      </trkpt>
      <trkpt lat="28.7342080" lon="-17.7546880">
        <ele>575.6</ele>
        <time>2020-11-16T08:34:53Z</time>
      </trkpt>
      <trkpt lat="28.7341950" lon="-17.7547470">
        <ele>575.8</ele>
        <time>2020-11-16T08:34:54Z</time>
      </trkpt>
      <trkpt lat="28.7341950" lon="-17.7547470">
        <ele>575.8</ele>
        <time>2020-11-16T08:34:55Z</time>
      </trkpt>
      <trkpt lat="28.7341770" lon="-17.7548000">
        <ele>576.0</ele>
        <time>2020-11-16T08:34:56Z</time>
      </trkpt>
      <trkpt lat="28.7341770" lon="-17.7548000">
        <ele>576.0</ele>
        <time>2020-11-16T08:34:57Z</time>
      </trkpt>
      <trkpt lat="28.7341600" lon="-17.7548520">
        <ele>576.2</ele>
        <time>2020-11-16T08:34:58Z</time>
      </trkpt>
      <trkpt lat="28.7341500" lon="-17.7548800">
        <ele>576.3</ele>
        <time>2020-11-16T08:34:59Z</time>
      </trkpt>
      <trkpt lat="28.7341500" lon="-17.7548800">
        <ele>576.3</ele>
        <time>2020-11-16T08:35:00Z</time>
      </trkpt>
      <trkpt lat="28.7341130" lon="-17.7549280">
        <ele>576.5</ele>
        <time>2020-11-16T08:35:01Z</time>
      </trkpt>
      <trkpt lat="28.7340980" lon="-17.7549480">
        <ele>576.6</ele>
        <time>2020-11-16T08:35:02Z</time>
      </trkpt>
      <trkpt lat="28.7340980" lon="-17.7549480">
        <ele>576.6</ele>
        <time>2020-11-16T08:35:03Z</time>
      </trkpt>
      <trkpt lat="28.7340800" lon="-17.7549930">
        <ele>576.8</ele>
        <time>2020-11-16T08:35:04Z</time>
      </trkpt>
      <trkpt lat="28.7340700" lon="-17.7550150">
        <ele>577.0</ele>
        <time>2020-11-16T08:35:05Z</time>
      </trkpt>
      <trkpt lat="28.7340600" lon="-17.7550330">
        <ele>577.1</ele>
        <time>2020-11-16T08:35:06Z</time>
      </trkpt>
      <trkpt lat="28.7340600" lon="-17.7550330">
        <ele>577.1</ele>
        <time>2020-11-16T08:35:07Z</time>
      </trkpt>
      <trkpt lat="28.7340770" lon="-17.7550830">
        <ele>577.5</ele>
        <time>2020-11-16T08:35:08Z</time>
      </trkpt>
      <trkpt lat="28.7340770" lon="-17.7550830">
        <ele>577.5</ele>
        <time>2020-11-16T08:35:09Z</time>
      </trkpt>
      <trkpt lat="28.7341080" lon="-17.7551380">
        <ele>578.0</ele>
        <time>2020-11-16T08:35:10Z</time>
      </trkpt>
      <trkpt lat="28.7341080" lon="-17.7551380">
        <ele>578.0</ele>
        <time>2020-11-16T08:35:11Z</time>
      </trkpt>
      <trkpt lat="28.7341120" lon="-17.7551930">
        <ele>578.5</ele>
        <time>2020-11-16T08:35:12Z</time>
      </trkpt>
      <trkpt lat="28.7341120" lon="-17.7551930">
        <ele>578.5</ele>
        <time>2020-11-16T08:35:13Z</time>
      </trkpt>
      <trkpt lat="28.7341300" lon="-17.7552350">
        <ele>578.9</ele>
        <time>2020-11-16T08:35:14Z</time>
      </trkpt>
      <trkpt lat="28.7341300" lon="-17.7552350">
        <ele>578.9</ele>
        <time>2020-11-16T08:35:15Z</time>
      </trkpt>
      <trkpt lat="28.7341430" lon="-17.7552770">
        <ele>579.3</ele>
        <time>2020-11-16T08:35:16Z</time>
      </trkpt>
      <trkpt lat="28.7341430" lon="-17.7552770">
        <ele>579.3</ele>
        <time>2020-11-16T08:35:17Z</time>
      </trkpt>
      <trkpt lat="28.7341670" lon="-17.7553170">
        <ele>579.8</ele>
        <time>2020-11-16T08:35:18Z</time>
      </trkpt>
      <trkpt lat="28.7341750" lon="-17.7553370">
        <ele>580.0</ele>
        <time>2020-11-16T08:35:19Z</time>
      </trkpt>
      <trkpt lat="28.7341750" lon="-17.7553500">
        <ele>580.1</ele>
        <time>2020-11-16T08:35:20Z</time>
      </trkpt>
      <trkpt lat="28.7341750" lon="-17.7553500">
        <ele>580.1</ele>
        <time>2020-11-16T08:35:21Z</time>
      </trkpt>
      <trkpt lat="28.7341820" lon="-17.7553700">
        <ele>580.3</ele>
        <time>2020-11-16T08:35:22Z</time>
      </trkpt>
      <trkpt lat="28.7341880" lon="-17.7553770">
        <ele>580.4</ele>
        <time>2020-11-16T08:35:23Z</time>
      </trkpt>
      <trkpt lat="28.7341880" lon="-17.7553770">
        <ele>580.4</ele>
        <time>2020-11-16T08:35:24Z</time>
      </trkpt>
      <trkpt lat="28.7342320" lon="-17.7553870">
        <ele>580.9</ele>
        <time>2020-11-16T08:35:25Z</time>
      </trkpt>
      <trkpt lat="28.7342820" lon="-17.7554000">
        <ele>581.5</ele>
        <time>2020-11-16T08:35:26Z</time>
      </trkpt>
      <trkpt lat="28.7342820" lon="-17.7554000">
        <ele>581.5</ele>
        <time>2020-11-16T08:35:27Z</time>
      </trkpt>
      <trkpt lat="28.7343370" lon="-17.7554130">
        <ele>582.2</ele>
        <time>2020-11-16T08:35:28Z</time>
      </trkpt>
      <trkpt lat="28.7343370" lon="-17.7554130">
        <ele>582.2</ele>
        <time>2020-11-16T08:35:29Z</time>
      </trkpt>
      <trkpt lat="28.7343970" lon="-17.7554280">
        <ele>583.0</ele>
        <time>2020-11-16T08:35:30Z</time>
      </trkpt>
      <trkpt lat="28.7343970" lon="-17.7554280">
        <ele>583.0</ele>
        <time>2020-11-16T08:35:31Z</time>
      </trkpt>
      <trkpt lat="28.7344370" lon="-17.7554450">
        <ele>583.5</ele>
        <time>2020-11-16T08:35:32Z</time>
      </trkpt>
      <trkpt lat="28.7344370" lon="-17.7554450">
        <ele>583.5</ele>
        <time>2020-11-16T08:35:33Z</time>
      </trkpt>
      <trkpt lat="28.7344820" lon="-17.7554480">
        <ele>584.1</ele>
        <time>2020-11-16T08:35:34Z</time>
      </trkpt>
      <trkpt lat="28.7345000" lon="-17.7554520">
        <ele>584.4</ele>
        <time>2020-11-16T08:35:35Z</time>
      </trkpt>
      <trkpt lat="28.7345000" lon="-17.7554520">
        <ele>584.4</ele>
        <time>2020-11-16T08:35:36Z</time>
      </trkpt>
      <trkpt lat="28.7345350" lon="-17.7554480">
        <ele>584.9</ele>
        <time>2020-11-16T08:35:37Z</time>
      </trkpt>
      <trkpt lat="28.7345520" lon="-17.7554370">
        <ele>585.2</ele>
        <time>2020-11-16T08:35:38Z</time>
      </trkpt>
      <trkpt lat="28.7345520" lon="-17.7554370">
        <ele>585.2</ele>
        <time>2020-11-16T08:35:39Z</time>
      </trkpt>
      <trkpt lat="28.7345970" lon="-17.7554570">
        <ele>585.8</ele>
        <time>2020-11-16T08:35:40Z</time>
      </trkpt>
      <trkpt lat="28.7345970" lon="-17.7554570">
        <ele>585.8</ele>
        <time>2020-11-16T08:35:41Z</time>
      </trkpt>
      <trkpt lat="28.7346300" lon="-17.7554930">
        <ele>586.5</ele>
        <time>2020-11-16T08:35:42Z</time>
      </trkpt>
      <trkpt lat="28.7346450" lon="-17.7555100">
        <ele>586.9</ele>
        <time>2020-11-16T08:35:43Z</time>
      </trkpt>
      <trkpt lat="28.7346570" lon="-17.7555270">
        <ele>587.2</ele>
        <time>2020-11-16T08:35:44Z</time>
      </trkpt>
      <trkpt lat="28.7346570" lon="-17.7555270">
        <ele>587.2</ele>
        <time>2020-11-16T08:35:45Z</time>
      </trkpt>
      <trkpt lat="28.7346800" lon="-17.7555580">
        <ele>587.7</ele>
        <time>2020-11-16T08:35:46Z</time>
      </trkpt>
      <trkpt lat="28.7346800" lon="-17.7555580">
        <ele>587.7</ele>
        <time>2020-11-16T08:35:47Z</time>
      </trkpt>
      <trkpt lat="28.7346980" lon="-17.7555880">
        <ele>588.2</ele>
        <time>2020-11-16T08:35:48Z</time>
      </trkpt>
      <trkpt lat="28.7346980" lon="-17.7555880">
        <ele>588.2</ele>
        <time>2020-11-16T08:35:49Z</time>
      </trkpt>
      <trkpt lat="28.7347150" lon="-17.7556250">
        <ele>588.8</ele>
        <time>2020-11-16T08:35:50Z</time>
      </trkpt>
      <trkpt lat="28.7347280" lon="-17.7556400">
        <ele>589.1</ele>
        <time>2020-11-16T08:35:51Z</time>
      </trkpt>
      <trkpt lat="28.7347280" lon="-17.7556400">
        <ele>589.1</ele>
        <time>2020-11-16T08:35:52Z</time>
      </trkpt>
      <trkpt lat="28.7347370" lon="-17.7556700">
        <ele>589.6</ele>
        <time>2020-11-16T08:35:53Z</time>
      </trkpt>
      <trkpt lat="28.7347380" lon="-17.7556880">
        <ele>589.8</ele>
        <time>2020-11-16T08:35:54Z</time>
      </trkpt>
      <trkpt lat="28.7347380" lon="-17.7557030">
        <ele>590.1</ele>
        <time>2020-11-16T08:35:55Z</time>
      </trkpt>
      <trkpt lat="28.7347330" lon="-17.7557250">
        <ele>590.4</ele>
        <time>2020-11-16T08:35:56Z</time>
      </trkpt>
      <trkpt lat="28.7347330" lon="-17.7557250">
        <ele>590.4</ele>
        <time>2020-11-16T08:35:57Z</time>
      </trkpt>
      <trkpt lat="28.7347370" lon="-17.7557650">
        <ele>590.9</ele>
        <time>2020-11-16T08:35:58Z</time>
      </trkpt>
      <trkpt lat="28.7347400" lon="-17.7557820">
        <ele>591.2</ele>
        <time>2020-11-16T08:35:59Z</time>
      </trkpt>
      <trkpt lat="28.7347420" lon="-17.7557970">
        <ele>591.4</ele>
        <time>2020-11-16T08:36:00Z</time>
      </trkpt>
      <trkpt lat="28.7347420" lon="-17.7558120">
        <ele>591.6</ele>
        <time>2020-11-16T08:36:01Z</time>
      </trkpt>
      <trkpt lat="28.7347420" lon="-17.7558120">
        <ele>591.6</ele>
        <time>2020-11-16T08:36:02Z</time>
      </trkpt>
      <trkpt lat="28.7347370" lon="-17.7558450">
        <ele>592.0</ele>
        <time>2020-11-16T08:36:03Z</time>
      </trkpt>
      <trkpt lat="28.7347370" lon="-17.7558450">
        <ele>592.0</ele>
        <time>2020-11-16T08:36:04Z</time>
      </trkpt>
      <trkpt lat="28.7347280" lon="-17.7558750">
        <ele>592.5</ele>
        <time>2020-11-16T08:36:05Z</time>
      </trkpt>
      <trkpt lat="28.7347280" lon="-17.7558750">
        <ele>592.5</ele>
        <time>2020-11-16T08:36:06Z</time>
      </trkpt>
      <trkpt lat="28.7347230" lon="-17.7559030">
        <ele>592.9</ele>
        <time>2020-11-16T08:36:07Z</time>
      </trkpt>
      <trkpt lat="28.7347230" lon="-17.7559030">
        <ele>592.9</ele>
        <time>2020-11-16T08:36:08Z</time>
      </trkpt>
      <trkpt lat="28.7347070" lon="-17.7559300">
        <ele>593.3</ele>
        <time>2020-11-16T08:36:09Z</time>
      </trkpt>
      <trkpt lat="28.7347000" lon="-17.7559530">
        <ele>593.6</ele>
        <time>2020-11-16T08:36:10Z</time>
      </trkpt>
      <trkpt lat="28.7347000" lon="-17.7559530">
        <ele>593.6</ele>
        <time>2020-11-16T08:36:11Z</time>
      </trkpt>
      <trkpt lat="28.7346980" lon="-17.7559870">
        <ele>594.1</ele>
        <time>2020-11-16T08:36:12Z</time>
      </trkpt>
      <trkpt lat="28.7346980" lon="-17.7559870">
        <ele>594.1</ele>
        <time>2020-11-16T08:36:13Z</time>
      </trkpt>
      <trkpt lat="28.7346970" lon="-17.7560130">
        <ele>594.4</ele>
        <time>2020-11-16T08:36:14Z</time>
      </trkpt>
      <trkpt lat="28.7346970" lon="-17.7560130">
        <ele>594.4</ele>
        <time>2020-11-16T08:36:15Z</time>
      </trkpt>
      <trkpt lat="28.7346920" lon="-17.7560370">
        <ele>594.8</ele>
        <time>2020-11-16T08:36:16Z</time>
      </trkpt>
      <trkpt lat="28.7346920" lon="-17.7560370">
        <ele>594.8</ele>
        <time>2020-11-16T08:36:17Z</time>
      </trkpt>
      <trkpt lat="28.7346900" lon="-17.7560700">
        <ele>595.2</ele>
        <time>2020-11-16T08:36:18Z</time>
      </trkpt>
      <trkpt lat="28.7346870" lon="-17.7560880">
        <ele>595.5</ele>
        <time>2020-11-16T08:36:19Z</time>
      </trkpt>
      <trkpt lat="28.7346870" lon="-17.7560880">
        <ele>595.5</ele>
        <time>2020-11-16T08:36:20Z</time>
      </trkpt>
      <trkpt lat="28.7346870" lon="-17.7561250">
        <ele>595.9</ele>
        <time>2020-11-16T08:36:21Z</time>
      </trkpt>
      <trkpt lat="28.7346870" lon="-17.7561250">
        <ele>595.9</ele>
        <time>2020-11-16T08:36:22Z</time>
      </trkpt>
      <trkpt lat="28.7346780" lon="-17.7561670">
        <ele>596.5</ele>
        <time>2020-11-16T08:36:23Z</time>
      </trkpt>
      <trkpt lat="28.7346850" lon="-17.7561880">
        <ele>596.8</ele>
        <time>2020-11-16T08:36:24Z</time>
      </trkpt>
      <trkpt lat="28.7346850" lon="-17.7561880">
        <ele>596.8</ele>
        <time>2020-11-16T08:36:25Z</time>
      </trkpt>
      <trkpt lat="28.7346880" lon="-17.7562280">
        <ele>597.3</ele>
        <time>2020-11-16T08:36:26Z</time>
      </trkpt>
      <trkpt lat="28.7346880" lon="-17.7562280">
        <ele>597.3</ele>
        <time>2020-11-16T08:36:27Z</time>
      </trkpt>
      <trkpt lat="28.7346880" lon="-17.7562670">
        <ele>597.8</ele>
        <time>2020-11-16T08:36:28Z</time>
      </trkpt>
      <trkpt lat="28.7346900" lon="-17.7562870">
        <ele>598.0</ele>
        <time>2020-11-16T08:36:29Z</time>
      </trkpt>
      <trkpt lat="28.7346900" lon="-17.7562870">
        <ele>598.0</ele>
        <time>2020-11-16T08:36:30Z</time>
      </trkpt>
      <trkpt lat="28.7346950" lon="-17.7563250">
        <ele>598.5</ele>
        <time>2020-11-16T08:36:31Z</time>
      </trkpt>
      <trkpt lat="28.7346970" lon="-17.7563400">
        <ele>598.7</ele>
        <time>2020-11-16T08:36:32Z</time>
      </trkpt>
      <trkpt lat="28.7346970" lon="-17.7563400">
        <ele>598.7</ele>
        <time>2020-11-16T08:36:33Z</time>
      </trkpt>
      <trkpt lat="28.7346880" lon="-17.7563720">
        <ele>599.1</ele>
        <time>2020-11-16T08:36:34Z</time>
      </trkpt>
      <trkpt lat="28.7346880" lon="-17.7563720">
        <ele>599.1</ele>
        <time>2020-11-16T08:36:35Z</time>
      </trkpt>
      <trkpt lat="28.7346800" lon="-17.7563980">
        <ele>599.4</ele>
        <time>2020-11-16T08:36:36Z</time>
      </trkpt>
      <trkpt lat="28.7346800" lon="-17.7563980">
        <ele>599.4</ele>
        <time>2020-11-16T08:36:37Z</time>
      </trkpt>
      <trkpt lat="28.7346720" lon="-17.7564380">
        <ele>600.0</ele>
        <time>2020-11-16T08:36:38Z</time>
      </trkpt>
      <trkpt lat="28.7346720" lon="-17.7564380">
        <ele>600.0</ele>
        <time>2020-11-16T08:36:39Z</time>
      </trkpt>
      <trkpt lat="28.7346650" lon="-17.7564680">
        <ele>600.4</ele>
        <time>2020-11-16T08:36:40Z</time>
      </trkpt>
      <trkpt lat="28.7346650" lon="-17.7564680">
        <ele>600.4</ele>
        <time>2020-11-16T08:36:41Z</time>
      </trkpt>
      <trkpt lat="28.7346300" lon="-17.7565180">
        <ele>601.2</ele>
        <time>2020-11-16T08:36:42Z</time>
      </trkpt>
      <trkpt lat="28.7346180" lon="-17.7565330">
        <ele>601.5</ele>
        <time>2020-11-16T08:36:43Z</time>
      </trkpt>
      <trkpt lat="28.7346180" lon="-17.7565330">
        <ele>601.5</ele>
        <time>2020-11-16T08:36:44Z</time>
      </trkpt>
      <trkpt lat="28.7346030" lon="-17.7565730">
        <ele>602.0</ele>
        <time>2020-11-16T08:36:45Z</time>
      </trkpt>
      <trkpt lat="28.7346030" lon="-17.7565730">
        <ele>602.0</ele>
        <time>2020-11-16T08:36:46Z</time>
      </trkpt>
      <trkpt lat="28.7346050" lon="-17.7566120">
        <ele>602.5</ele>
        <time>2020-11-16T08:36:47Z</time>
      </trkpt>
      <trkpt lat="28.7346050" lon="-17.7566120">
        <ele>602.5</ele>
        <time>2020-11-16T08:36:48Z</time>
      </trkpt>
      <trkpt lat="28.7346120" lon="-17.7566480">
        <ele>603.0</ele>
        <time>2020-11-16T08:36:49Z</time>
      </trkpt>
      <trkpt lat="28.7346130" lon="-17.7566670">
        <ele>603.3</ele>
        <time>2020-11-16T08:36:50Z</time>
      </trkpt>
      <trkpt lat="28.7346130" lon="-17.7566670">
        <ele>603.3</ele>
        <time>2020-11-16T08:36:51Z</time>
      </trkpt>
      <trkpt lat="28.7346150" lon="-17.7567000">
        <ele>603.8</ele>
        <time>2020-11-16T08:36:52Z</time>
      </trkpt>
      <trkpt lat="28.7346150" lon="-17.7567170">
        <ele>604.1</ele>
        <time>2020-11-16T08:36:53Z</time>
      </trkpt>
      <trkpt lat="28.7346150" lon="-17.7567170">
        <ele>604.1</ele>
        <time>2020-11-16T08:36:54Z</time>
      </trkpt>
      <trkpt lat="28.7346180" lon="-17.7567450">
        <ele>604.5</ele>
        <time>2020-11-16T08:36:55Z</time>
      </trkpt>
      <trkpt lat="28.7346180" lon="-17.7567450">
        <ele>604.5</ele>
        <time>2020-11-16T08:36:56Z</time>
      </trkpt>
      <trkpt lat="28.7346250" lon="-17.7567630">
        <ele>604.8</ele>
        <time>2020-11-16T08:36:57Z</time>
      </trkpt>
      <trkpt lat="28.7346320" lon="-17.7567770">
        <ele>605.0</ele>
        <time>2020-11-16T08:36:58Z</time>
      </trkpt>
      <trkpt lat="28.7346320" lon="-17.7567770">
        <ele>605.0</ele>
        <time>2020-11-16T08:36:59Z</time>
      </trkpt>
      <trkpt lat="28.7346400" lon="-17.7568030">
        <ele>605.4</ele>
        <time>2020-11-16T08:37:00Z</time>
      </trkpt>
      <trkpt lat="28.7346400" lon="-17.7568030">
        <ele>605.4</ele>
        <time>2020-11-16T08:37:01Z</time>
      </trkpt>
      <trkpt lat="28.7346470" lon="-17.7568120">
        <ele>605.6</ele>
        <time>2020-11-16T08:37:02Z</time>
      </trkpt>
      <trkpt lat="28.7346470" lon="-17.7568120">
        <ele>605.6</ele>
        <time>2020-11-16T08:37:03Z</time>
      </trkpt>
      <trkpt lat="28.7346550" lon="-17.7568130">
        <ele>605.8</ele>
        <time>2020-11-16T08:37:04Z</time>
      </trkpt>
      <trkpt lat="28.7346550" lon="-17.7568130">
        <ele>605.8</ele>
        <time>2020-11-16T08:37:05Z</time>
      </trkpt>
      <trkpt lat="28.7345920" lon="-17.7569750">
        <ele>608.0</ele>
        <time>2020-11-16T08:41:06Z</time>
      </trkpt>
      <trkpt lat="28.7345920" lon="-17.7569750">
        <ele>608.0</ele>
        <time>2020-11-16T08:41:07Z</time>
      </trkpt>
      <trkpt lat="28.7346000" lon="-17.7570000">
        <ele>608.3</ele>
        <time>2020-11-16T08:41:08Z</time>
      </trkpt>
      <trkpt lat="28.7346000" lon="-17.7570130">
        <ele>608.4</ele>
        <time>2020-11-16T08:41:09Z</time>
      </trkpt>
      <trkpt lat="28.7346000" lon="-17.7570130">
        <ele>608.4</ele>
        <time>2020-11-16T08:41:10Z</time>
      </trkpt>
      <trkpt lat="28.7346100" lon="-17.7570430">
        <ele>608.8</ele>
        <time>2020-11-16T08:41:11Z</time>
      </trkpt>
      <trkpt lat="28.7346100" lon="-17.7570430">
        <ele>608.8</ele>
        <time>2020-11-16T08:41:12Z</time>
      </trkpt>
      <trkpt lat="28.7346130" lon="-17.7570630">
        <ele>609.0</ele>
        <time>2020-11-16T08:41:13Z</time>
      </trkpt>
      <trkpt lat="28.7346150" lon="-17.7570820">
        <ele>609.2</ele>
        <time>2020-11-16T08:41:14Z</time>
      </trkpt>
      <trkpt lat="28.7346150" lon="-17.7570820">
        <ele>609.2</ele>
        <time>2020-11-16T08:41:15Z</time>
      </trkpt>
      <trkpt lat="28.7346470" lon="-17.7571150">
        <ele>609.7</ele>
        <time>2020-11-16T08:41:16Z</time>
      </trkpt>
      <trkpt lat="28.7346470" lon="-17.7571150">
        <ele>609.7</ele>
        <time>2020-11-16T08:41:17Z</time>
      </trkpt>
      <trkpt lat="28.7346530" lon="-17.7571200">
        <ele>609.8</ele>
        <time>2020-11-16T08:41:18Z</time>
      </trkpt>
      <trkpt lat="28.7346520" lon="-17.7571180">
        <ele>609.9</ele>
        <time>2020-11-16T08:41:19Z</time>
      </trkpt>
      <trkpt lat="28.7346520" lon="-17.7571180">
        <ele>609.9</ele>
        <time>2020-11-16T08:41:20Z</time>
      </trkpt>
      <trkpt lat="28.7346520" lon="-17.7571180">
        <ele>609.9</ele>
        <time>2020-11-16T08:41:21Z</time>
      </trkpt>
      <trkpt lat="28.7346520" lon="-17.7571180">
        <ele>609.9</ele>
        <time>2020-11-16T08:41:27Z</time>
      </trkpt>
      <trkpt lat="28.7346700" lon="-17.7571630">
        <ele>610.4</ele>
        <time>2020-11-16T08:41:28Z</time>
      </trkpt>
      <trkpt lat="28.7346730" lon="-17.7571750">
        <ele>610.6</ele>
        <time>2020-11-16T08:41:29Z</time>
      </trkpt>
      <trkpt lat="28.7346730" lon="-17.7571750">
        <ele>610.6</ele>
        <time>2020-11-16T08:41:30Z</time>
      </trkpt>
      <trkpt lat="28.7346820" lon="-17.7572030">
        <ele>610.9</ele>
        <time>2020-11-16T08:41:31Z</time>
      </trkpt>
      <trkpt lat="28.7346870" lon="-17.7572180">
        <ele>611.2</ele>
        <time>2020-11-16T08:41:32Z</time>
      </trkpt>
      <trkpt lat="28.7346870" lon="-17.7572180">
        <ele>611.2</ele>
        <time>2020-11-16T08:41:33Z</time>
      </trkpt>
      <trkpt lat="28.7346880" lon="-17.7572470">
        <ele>611.5</ele>
        <time>2020-11-16T08:41:34Z</time>
      </trkpt>
      <trkpt lat="28.7346880" lon="-17.7572470">
        <ele>611.5</ele>
        <time>2020-11-16T08:41:35Z</time>
      </trkpt>
      <trkpt lat="28.7346930" lon="-17.7572800">
        <ele>611.9</ele>
        <time>2020-11-16T08:41:36Z</time>
      </trkpt>
      <trkpt lat="28.7346930" lon="-17.7572980">
        <ele>612.2</ele>
        <time>2020-11-16T08:41:37Z</time>
      </trkpt>
      <trkpt lat="28.7346930" lon="-17.7572980">
        <ele>612.2</ele>
        <time>2020-11-16T08:41:38Z</time>
      </trkpt>
      <trkpt lat="28.7347030" lon="-17.7573370">
        <ele>612.7</ele>
        <time>2020-11-16T08:41:39Z</time>
      </trkpt>
      <trkpt lat="28.7347030" lon="-17.7573370">
        <ele>612.7</ele>
        <time>2020-11-16T08:41:40Z</time>
      </trkpt>
      <trkpt lat="28.7346750" lon="-17.7573620">
        <ele>613.3</ele>
        <time>2020-11-16T08:41:41Z</time>
      </trkpt>
      <trkpt lat="28.7346750" lon="-17.7573620">
        <ele>613.3</ele>
        <time>2020-11-16T08:41:42Z</time>
      </trkpt>
      <trkpt lat="28.7346750" lon="-17.7573950">
        <ele>613.7</ele>
        <time>2020-11-16T08:41:43Z</time>
      </trkpt>
      <trkpt lat="28.7346750" lon="-17.7573950">
        <ele>613.7</ele>
        <time>2020-11-16T08:41:44Z</time>
      </trkpt>
      <trkpt lat="28.7346620" lon="-17.7574270">
        <ele>614.2</ele>
        <time>2020-11-16T08:41:45Z</time>
      </trkpt>
      <trkpt lat="28.7346620" lon="-17.7574270">
        <ele>614.2</ele>
        <time>2020-11-16T08:41:46Z</time>
      </trkpt>
      <trkpt lat="28.7346420" lon="-17.7574580">
        <ele>614.7</ele>
        <time>2020-11-16T08:41:47Z</time>
      </trkpt>
      <trkpt lat="28.7346300" lon="-17.7574680">
        <ele>614.9</ele>
        <time>2020-11-16T08:41:48Z</time>
      </trkpt>
      <trkpt lat="28.7346300" lon="-17.7574680">
        <ele>614.9</ele>
        <time>2020-11-16T08:41:49Z</time>
      </trkpt>
      <trkpt lat="28.7345970" lon="-17.7574750">
        <ele>615.4</ele>
        <time>2020-11-16T08:41:50Z</time>
      </trkpt>
      <trkpt lat="28.7345820" lon="-17.7574750">
        <ele>615.6</ele>
        <time>2020-11-16T08:41:51Z</time>
      </trkpt>
      <trkpt lat="28.7345820" lon="-17.7574750">
        <ele>615.6</ele>
        <time>2020-11-16T08:41:52Z</time>
      </trkpt>
      <trkpt lat="28.7345430" lon="-17.7574820">
        <ele>616.2</ele>
        <time>2020-11-16T08:41:53Z</time>
      </trkpt>
      <trkpt lat="28.7345430" lon="-17.7574820">
        <ele>616.2</ele>
        <time>2020-11-16T08:41:54Z</time>
      </trkpt>
      <trkpt lat="28.7345030" lon="-17.7574820">
        <ele>616.7</ele>
        <time>2020-11-16T08:41:55Z</time>
      </trkpt>
      <trkpt lat="28.7345030" lon="-17.7574820">
        <ele>616.7</ele>
        <time>2020-11-16T08:41:56Z</time>
      </trkpt>
      <trkpt lat="28.7344750" lon="-17.7574730">
        <ele>617.1</ele>
        <time>2020-11-16T08:41:57Z</time>
      </trkpt>
      <trkpt lat="28.7344750" lon="-17.7574730">
        <ele>617.1</ele>
        <time>2020-11-16T08:41:58Z</time>
      </trkpt>
      <trkpt lat="28.7344530" lon="-17.7574770">
        <ele>617.4</ele>
        <time>2020-11-16T08:41:59Z</time>
      </trkpt>
      <trkpt lat="28.7344530" lon="-17.7574770">
        <ele>617.4</ele>
        <time>2020-11-16T08:42:00Z</time>
      </trkpt>
      <trkpt lat="28.7344330" lon="-17.7574830">
        <ele>617.7</ele>
        <time>2020-11-16T08:42:01Z</time>
      </trkpt>
      <trkpt lat="28.7344270" lon="-17.7574920">
        <ele>617.8</ele>
        <time>2020-11-16T08:42:02Z</time>
      </trkpt>
      <trkpt lat="28.7344270" lon="-17.7574920">
        <ele>617.8</ele>
        <time>2020-11-16T08:42:03Z</time>
      </trkpt>
      <trkpt lat="28.7344050" lon="-17.7575080">
        <ele>618.1</ele>
        <time>2020-11-16T08:42:04Z</time>
      </trkpt>
      <trkpt lat="28.7344050" lon="-17.7575080">
        <ele>618.1</ele>
        <time>2020-11-16T08:42:05Z</time>
      </trkpt>
      <trkpt lat="28.7343870" lon="-17.7575330">
        <ele>618.4</ele>
        <time>2020-11-16T08:42:06Z</time>
      </trkpt>
      <trkpt lat="28.7343770" lon="-17.7575520">
        <ele>618.6</ele>
        <time>2020-11-16T08:42:07Z</time>
      </trkpt>
      <trkpt lat="28.7343680" lon="-17.7575680">
        <ele>618.8</ele>
        <time>2020-11-16T08:42:08Z</time>
      </trkpt>
      <trkpt lat="28.7343680" lon="-17.7575680">
        <ele>618.8</ele>
        <time>2020-11-16T08:42:09Z</time>
      </trkpt>
      <trkpt lat="28.7343620" lon="-17.7576130">
        <ele>619.2</ele>
        <time>2020-11-16T08:42:10Z</time>
      </trkpt>
      <trkpt lat="28.7343570" lon="-17.7576530">
        <ele>619.5</ele>
        <time>2020-11-16T08:42:11Z</time>
      </trkpt>
      <trkpt lat="28.7343570" lon="-17.7576530">
        <ele>619.5</ele>
        <time>2020-11-16T08:42:12Z</time>
      </trkpt>
      <trkpt lat="28.7343470" lon="-17.7576920">
        <ele>619.9</ele>
        <time>2020-11-16T08:42:13Z</time>
      </trkpt>
      <trkpt lat="28.7343470" lon="-17.7576920">
        <ele>619.9</ele>
        <time>2020-11-16T08:42:14Z</time>
      </trkpt>
      <trkpt lat="28.7343430" lon="-17.7577220">
        <ele>620.1</ele>
        <time>2020-11-16T08:42:15Z</time>
      </trkpt>
      <trkpt lat="28.7343550" lon="-17.7577400">
        <ele>620.3</ele>
        <time>2020-11-16T08:42:16Z</time>
      </trkpt>
      <trkpt lat="28.7343550" lon="-17.7577400">
        <ele>620.3</ele>
        <time>2020-11-16T08:42:17Z</time>
      </trkpt>
      <trkpt lat="28.7343770" lon="-17.7577830">
        <ele>620.6</ele>
        <time>2020-11-16T08:42:18Z</time>
      </trkpt>
      <trkpt lat="28.7343770" lon="-17.7577830">
        <ele>620.6</ele>
        <time>2020-11-16T08:42:19Z</time>
      </trkpt>
      <trkpt lat="28.7343930" lon="-17.7578220">
        <ele>620.9</ele>
        <time>2020-11-16T08:42:20Z</time>
      </trkpt>
      <trkpt lat="28.7343930" lon="-17.7578220">
        <ele>620.9</ele>
        <time>2020-11-16T08:42:21Z</time>
      </trkpt>
      <trkpt lat="28.7344180" lon="-17.7578520">
        <ele>621.1</ele>
        <time>2020-11-16T08:42:22Z</time>
      </trkpt>
      <trkpt lat="28.7344330" lon="-17.7578650">
        <ele>621.2</ele>
        <time>2020-11-16T08:42:23Z</time>
      </trkpt>
      <trkpt lat="28.7344330" lon="-17.7578650">
        <ele>621.2</ele>
        <time>2020-11-16T08:42:24Z</time>
      </trkpt>
      <trkpt lat="28.7344650" lon="-17.7578970">
        <ele>621.5</ele>
        <time>2020-11-16T08:42:25Z</time>
      </trkpt>
      <trkpt lat="28.7344650" lon="-17.7578970">
        <ele>621.5</ele>
        <time>2020-11-16T08:42:26Z</time>
      </trkpt>
      <trkpt lat="28.7345080" lon="-17.7579270">
        <ele>621.9</ele>
        <time>2020-11-16T08:42:27Z</time>
      </trkpt>
      <trkpt lat="28.7345250" lon="-17.7579430">
        <ele>622.0</ele>
        <time>2020-11-16T08:42:28Z</time>
      </trkpt>
      <trkpt lat="28.7345250" lon="-17.7579430">
        <ele>622.0</ele>
        <time>2020-11-16T08:42:29Z</time>
      </trkpt>
      <trkpt lat="28.7345570" lon="-17.7579730">
        <ele>622.3</ele>
        <time>2020-11-16T08:42:30Z</time>
      </trkpt>
      <trkpt lat="28.7345570" lon="-17.7579730">
        <ele>622.3</ele>
        <time>2020-11-16T08:42:31Z</time>
      </trkpt>
      <trkpt lat="28.7345870" lon="-17.7580000">
        <ele>622.6</ele>
        <time>2020-11-16T08:42:32Z</time>
      </trkpt>
      <trkpt lat="28.7345870" lon="-17.7580000">
        <ele>622.6</ele>
        <time>2020-11-16T08:42:33Z</time>
      </trkpt>
      <trkpt lat="28.7346180" lon="-17.7580300">
        <ele>622.9</ele>
        <time>2020-11-16T08:42:34Z</time>
      </trkpt>
      <trkpt lat="28.7346180" lon="-17.7580300">
        <ele>622.9</ele>
        <time>2020-11-16T08:42:35Z</time>
      </trkpt>
      <trkpt lat="28.7346480" lon="-17.7580580">
        <ele>623.3</ele>
        <time>2020-11-16T08:42:36Z</time>
      </trkpt>
      <trkpt lat="28.7346480" lon="-17.7580580">
        <ele>623.3</ele>
        <time>2020-11-16T08:42:37Z</time>
      </trkpt>
      <trkpt lat="28.7346480" lon="-17.7580580">
        <ele>623.3</ele>
        <time>2020-11-16T08:42:38Z</time>
      </trkpt>
      <trkpt lat="28.7346670" lon="-17.7580850">
        <ele>623.5</ele>
        <time>2020-11-16T08:42:39Z</time>
      </trkpt>
      <trkpt lat="28.7346850" lon="-17.7581170">
        <ele>623.8</ele>
        <time>2020-11-16T08:42:40Z</time>
      </trkpt>
      <trkpt lat="28.7346850" lon="-17.7581170">
        <ele>623.8</ele>
        <time>2020-11-16T08:42:41Z</time>
      </trkpt>
      <trkpt lat="28.7347120" lon="-17.7581670">
        <ele>624.3</ele>
        <time>2020-11-16T08:42:42Z</time>
      </trkpt>
      <trkpt lat="28.7347370" lon="-17.7581870">
        <ele>624.6</ele>
        <time>2020-11-16T08:42:43Z</time>
      </trkpt>
      <trkpt lat="28.7347370" lon="-17.7581870">
        <ele>624.6</ele>
        <time>2020-11-16T08:42:44Z</time>
      </trkpt>
      <trkpt lat="28.7347770" lon="-17.7582270">
        <ele>625.1</ele>
        <time>2020-11-16T08:42:45Z</time>
      </trkpt>
      <trkpt lat="28.7347770" lon="-17.7582270">
        <ele>625.1</ele>
        <time>2020-11-16T08:42:46Z</time>
      </trkpt>
      <trkpt lat="28.7348180" lon="-17.7582580">
        <ele>625.6</ele>
        <time>2020-11-16T08:42:47Z</time>
      </trkpt>
      <trkpt lat="28.7348180" lon="-17.7582580">
        <ele>625.6</ele>
        <time>2020-11-16T08:42:48Z</time>
      </trkpt>
      <trkpt lat="28.7348400" lon="-17.7582870">
        <ele>626.0</ele>
        <time>2020-11-16T08:42:49Z</time>
      </trkpt>
      <trkpt lat="28.7348430" lon="-17.7582970">
        <ele>626.1</ele>
        <time>2020-11-16T08:42:50Z</time>
      </trkpt>
      <trkpt lat="28.7348430" lon="-17.7582970">
        <ele>626.1</ele>
        <time>2020-11-16T08:42:51Z</time>
      </trkpt>
      <trkpt lat="28.7348530" lon="-17.7583270">
        <ele>626.4</ele>
        <time>2020-11-16T08:42:52Z</time>
      </trkpt>
      <trkpt lat="28.7348550" lon="-17.7583400">
        <ele>626.6</ele>
        <time>2020-11-16T08:42:53Z</time>
      </trkpt>
      <trkpt lat="28.7348550" lon="-17.7583400">
        <ele>626.6</ele>
        <time>2020-11-16T08:42:54Z</time>
      </trkpt>
      <trkpt lat="28.7348520" lon="-17.7583720">
        <ele>626.9</ele>
        <time>2020-11-16T08:42:55Z</time>
      </trkpt>
      <trkpt lat="28.7348500" lon="-17.7583870">
        <ele>627.0</ele>
        <time>2020-11-16T08:42:56Z</time>
      </trkpt>
      <trkpt lat="28.7348500" lon="-17.7583870">
        <ele>627.0</ele>
        <time>2020-11-16T08:42:57Z</time>
      </trkpt>
      <trkpt lat="28.7348550" lon="-17.7584200">
        <ele>627.4</ele>
        <time>2020-11-16T08:42:58Z</time>
      </trkpt>
      <trkpt lat="28.7348550" lon="-17.7584430">
        <ele>627.6</ele>
        <time>2020-11-16T08:42:59Z</time>
      </trkpt>
      <trkpt lat="28.7348550" lon="-17.7584430">
        <ele>627.6</ele>
        <time>2020-11-16T08:43:00Z</time>
      </trkpt>
      <trkpt lat="28.7348520" lon="-17.7584970">
        <ele>628.1</ele>
        <time>2020-11-16T08:43:01Z</time>
      </trkpt>
      <trkpt lat="28.7348550" lon="-17.7585250">
        <ele>628.4</ele>
        <time>2020-11-16T08:43:02Z</time>
      </trkpt>
      <trkpt lat="28.7348550" lon="-17.7585250">
        <ele>628.4</ele>
        <time>2020-11-16T08:43:03Z</time>
      </trkpt>
      <trkpt lat="28.7348500" lon="-17.7585720">
        <ele>628.9</ele>
        <time>2020-11-16T08:43:04Z</time>
      </trkpt>
      <trkpt lat="28.7348500" lon="-17.7585720">
        <ele>628.9</ele>
        <time>2020-11-16T08:43:05Z</time>
      </trkpt>
      <trkpt lat="28.7348470" lon="-17.7586170">
        <ele>629.3</ele>
        <time>2020-11-16T08:43:06Z</time>
      </trkpt>
      <trkpt lat="28.7348470" lon="-17.7586170">
        <ele>629.3</ele>
        <time>2020-11-16T08:43:07Z</time>
      </trkpt>
      <trkpt lat="28.7348380" lon="-17.7586650">
        <ele>629.8</ele>
        <time>2020-11-16T08:43:08Z</time>
      </trkpt>
      <trkpt lat="28.7348380" lon="-17.7586650">
        <ele>629.8</ele>
        <time>2020-11-16T08:43:09Z</time>
      </trkpt>
      <trkpt lat="28.7348270" lon="-17.7587030">
        <ele>630.1</ele>
        <time>2020-11-16T08:43:10Z</time>
      </trkpt>
      <trkpt lat="28.7348270" lon="-17.7587030">
        <ele>630.1</ele>
        <time>2020-11-16T08:43:11Z</time>
      </trkpt>
      <trkpt lat="28.7348120" lon="-17.7587420">
        <ele>630.5</ele>
        <time>2020-11-16T08:43:12Z</time>
      </trkpt>
      <trkpt lat="28.7348120" lon="-17.7587420">
        <ele>630.5</ele>
        <time>2020-11-16T08:43:13Z</time>
      </trkpt>
      <trkpt lat="28.7348020" lon="-17.7587920">
        <ele>631.0</ele>
        <time>2020-11-16T08:43:14Z</time>
      </trkpt>
      <trkpt lat="28.7347920" lon="-17.7588150">
        <ele>631.2</ele>
        <time>2020-11-16T08:43:15Z</time>
      </trkpt>
      <trkpt lat="28.7347920" lon="-17.7588150">
        <ele>631.2</ele>
        <time>2020-11-16T08:43:16Z</time>
      </trkpt>
      <trkpt lat="28.7347650" lon="-17.7588650">
        <ele>631.7</ele>
        <time>2020-11-16T08:43:17Z</time>
      </trkpt>
      <trkpt lat="28.7347650" lon="-17.7588650">
        <ele>631.7</ele>
        <time>2020-11-16T08:43:18Z</time>
      </trkpt>
      <trkpt lat="28.7347470" lon="-17.7589030">
        <ele>632.1</ele>
        <time>2020-11-16T08:43:19Z</time>
      </trkpt>
      <trkpt lat="28.7347470" lon="-17.7589030">
        <ele>632.1</ele>
        <time>2020-11-16T08:43:20Z</time>
      </trkpt>
      <trkpt lat="28.7347300" lon="-17.7589450">
        <ele>632.6</ele>
        <time>2020-11-16T08:43:21Z</time>
      </trkpt>
      <trkpt lat="28.7347270" lon="-17.7589630">
        <ele>632.8</ele>
        <time>2020-11-16T08:43:22Z</time>
      </trkpt>
      <trkpt lat="28.7347270" lon="-17.7589630">
        <ele>632.8</ele>
        <time>2020-11-16T08:43:23Z</time>
      </trkpt>
      <trkpt lat="28.7347100" lon="-17.7590000">
        <ele>633.2</ele>
        <time>2020-11-16T08:43:24Z</time>
      </trkpt>
      <trkpt lat="28.7347100" lon="-17.7590000">
        <ele>633.2</ele>
        <time>2020-11-16T08:43:25Z</time>
      </trkpt>
      <trkpt lat="28.7346850" lon="-17.7590320">
        <ele>633.6</ele>
        <time>2020-11-16T08:43:26Z</time>
      </trkpt>
      <trkpt lat="28.7346850" lon="-17.7590320">
        <ele>633.6</ele>
        <time>2020-11-16T08:43:27Z</time>
      </trkpt>
      <trkpt lat="28.7346670" lon="-17.7590720">
        <ele>634.0</ele>
        <time>2020-11-16T08:43:28Z</time>
      </trkpt>
      <trkpt lat="28.7346670" lon="-17.7590720">
        <ele>634.0</ele>
        <time>2020-11-16T08:43:29Z</time>
      </trkpt>
      <trkpt lat="28.7346630" lon="-17.7591120">
        <ele>634.2</ele>
        <time>2020-11-16T08:43:30Z</time>
      </trkpt>
      <trkpt lat="28.7346680" lon="-17.7591330">
        <ele>634.4</ele>
        <time>2020-11-16T08:43:31Z</time>
      </trkpt>
      <trkpt lat="28.7346680" lon="-17.7591330">
        <ele>634.4</ele>
        <time>2020-11-16T08:43:32Z</time>
      </trkpt>
      <trkpt lat="28.7346870" lon="-17.7591720">
        <ele>634.6</ele>
        <time>2020-11-16T08:43:33Z</time>
      </trkpt>
      <trkpt lat="28.7346930" lon="-17.7591900">
        <ele>634.7</ele>
        <time>2020-11-16T08:43:34Z</time>
      </trkpt>
      <trkpt lat="28.7346930" lon="-17.7591900">
        <ele>634.7</ele>
        <time>2020-11-16T08:43:35Z</time>
      </trkpt>
      <trkpt lat="28.7347120" lon="-17.7592300">
        <ele>634.9</ele>
        <time>2020-11-16T08:43:36Z</time>
      </trkpt>
      <trkpt lat="28.7347120" lon="-17.7592300">
        <ele>634.9</ele>
        <time>2020-11-16T08:43:37Z</time>
      </trkpt>
      <trkpt lat="28.7347300" lon="-17.7592670">
        <ele>635.2</ele>
        <time>2020-11-16T08:43:38Z</time>
      </trkpt>
      <trkpt lat="28.7347300" lon="-17.7592670">
        <ele>635.2</ele>
        <time>2020-11-16T08:43:39Z</time>
      </trkpt>
      <trkpt lat="28.7347480" lon="-17.7593050">
        <ele>635.4</ele>
        <time>2020-11-16T08:43:40Z</time>
      </trkpt>
      <trkpt lat="28.7347480" lon="-17.7593050">
        <ele>635.4</ele>
        <time>2020-11-16T08:43:41Z</time>
      </trkpt>
      <trkpt lat="28.7347680" lon="-17.7593380">
        <ele>635.6</ele>
        <time>2020-11-16T08:43:42Z</time>
      </trkpt>
      <trkpt lat="28.7347680" lon="-17.7593380">
        <ele>635.6</ele>
        <time>2020-11-16T08:43:43Z</time>
      </trkpt>
      <trkpt lat="28.7347880" lon="-17.7593750">
        <ele>635.9</ele>
        <time>2020-11-16T08:43:44Z</time>
      </trkpt>
      <trkpt lat="28.7347880" lon="-17.7593750">
        <ele>635.9</ele>
        <time>2020-11-16T08:43:45Z</time>
      </trkpt>
      <trkpt lat="28.7348000" lon="-17.7594100">
        <ele>636.1</ele>
        <time>2020-11-16T08:43:46Z</time>
      </trkpt>
      <trkpt lat="28.7348000" lon="-17.7594100">
        <ele>636.1</ele>
        <time>2020-11-16T08:43:47Z</time>
      </trkpt>
      <trkpt lat="28.7348050" lon="-17.7594370">
        <ele>636.2</ele>
        <time>2020-11-16T08:43:48Z</time>
      </trkpt>
      <trkpt lat="28.7348050" lon="-17.7594370">
        <ele>636.2</ele>
        <time>2020-11-16T08:43:49Z</time>
      </trkpt>
      <trkpt lat="28.7348030" lon="-17.7594720">
        <ele>636.4</ele>
        <time>2020-11-16T08:43:50Z</time>
      </trkpt>
      <trkpt lat="28.7348030" lon="-17.7594720">
        <ele>636.4</ele>
        <time>2020-11-16T08:43:51Z</time>
      </trkpt>
      <trkpt lat="28.7347980" lon="-17.7595100">
        <ele>636.6</ele>
        <time>2020-11-16T08:43:52Z</time>
      </trkpt>
      <trkpt lat="28.7347980" lon="-17.7595100">
        <ele>636.6</ele>
        <time>2020-11-16T08:43:53Z</time>
      </trkpt>
      <trkpt lat="28.7347970" lon="-17.7595580">
        <ele>637.0</ele>
        <time>2020-11-16T08:43:54Z</time>
      </trkpt>
      <trkpt lat="28.7347970" lon="-17.7595580">
        <ele>637.0</ele>
        <time>2020-11-16T08:43:55Z</time>
      </trkpt>
      <trkpt lat="28.7347920" lon="-17.7596050">
        <ele>637.4</ele>
        <time>2020-11-16T08:43:56Z</time>
      </trkpt>
      <trkpt lat="28.7347900" lon="-17.7596280">
        <ele>637.6</ele>
        <time>2020-11-16T08:43:57Z</time>
      </trkpt>
      <trkpt lat="28.7347900" lon="-17.7596280">
        <ele>637.6</ele>
        <time>2020-11-16T08:43:58Z</time>
      </trkpt>
      <trkpt lat="28.7347880" lon="-17.7596720">
        <ele>638.0</ele>
        <time>2020-11-16T08:43:59Z</time>
      </trkpt>
      <trkpt lat="28.7347880" lon="-17.7596900">
        <ele>638.1</ele>
        <time>2020-11-16T08:44:00Z</time>
      </trkpt>
      <trkpt lat="28.7347880" lon="-17.7596900">
        <ele>638.1</ele>
        <time>2020-11-16T08:44:01Z</time>
      </trkpt>
      <trkpt lat="28.7347870" lon="-17.7597320">
        <ele>638.5</ele>
        <time>2020-11-16T08:44:02Z</time>
      </trkpt>
      <trkpt lat="28.7347850" lon="-17.7597530">
        <ele>638.7</ele>
        <time>2020-11-16T08:44:03Z</time>
      </trkpt>
      <trkpt lat="28.7347850" lon="-17.7597530">
        <ele>638.7</ele>
        <time>2020-11-16T08:44:04Z</time>
      </trkpt>
      <trkpt lat="28.7347800" lon="-17.7598000">
        <ele>639.1</ele>
        <time>2020-11-16T08:44:05Z</time>
      </trkpt>
      <trkpt lat="28.7347800" lon="-17.7598000">
        <ele>639.1</ele>
        <time>2020-11-16T08:44:06Z</time>
      </trkpt>
      <trkpt lat="28.7347770" lon="-17.7598430">
        <ele>639.5</ele>
        <time>2020-11-16T08:44:07Z</time>
      </trkpt>
      <trkpt lat="28.7347750" lon="-17.7598700">
        <ele>639.7</ele>
        <time>2020-11-16T08:44:08Z</time>
      </trkpt>
      <trkpt lat="28.7347750" lon="-17.7598700">
        <ele>639.7</ele>
        <time>2020-11-16T08:44:09Z</time>
      </trkpt>
      <trkpt lat="28.7347650" lon="-17.7599180">
        <ele>640.2</ele>
        <time>2020-11-16T08:44:10Z</time>
      </trkpt>
      <trkpt lat="28.7347650" lon="-17.7599180">
        <ele>640.2</ele>
        <time>2020-11-16T08:44:11Z</time>
      </trkpt>
      <trkpt lat="28.7347600" lon="-17.7599600">
        <ele>640.6</ele>
        <time>2020-11-16T08:44:12Z</time>
      </trkpt>
      <trkpt lat="28.7347600" lon="-17.7599600">
        <ele>640.6</ele>
        <time>2020-11-16T08:44:13Z</time>
      </trkpt>
      <trkpt lat="28.7347650" lon="-17.7600050">
        <ele>641.0</ele>
        <time>2020-11-16T08:44:14Z</time>
      </trkpt>
      <trkpt lat="28.7347650" lon="-17.7600050">
        <ele>641.0</ele>
        <time>2020-11-16T08:44:15Z</time>
      </trkpt>
      <trkpt lat="28.7347800" lon="-17.7600620">
        <ele>641.6</ele>
        <time>2020-11-16T08:44:16Z</time>
      </trkpt>
      <trkpt lat="28.7347800" lon="-17.7600620">
        <ele>641.6</ele>
        <time>2020-11-16T08:44:17Z</time>
      </trkpt>
      <trkpt lat="28.7348020" lon="-17.7601100">
        <ele>642.2</ele>
        <time>2020-11-16T08:44:18Z</time>
      </trkpt>
      <trkpt lat="28.7348020" lon="-17.7601100">
        <ele>642.2</ele>
        <time>2020-11-16T08:44:19Z</time>
      </trkpt>
      <trkpt lat="28.7348220" lon="-17.7601470">
        <ele>642.7</ele>
        <time>2020-11-16T08:44:20Z</time>
      </trkpt>
      <trkpt lat="28.7348220" lon="-17.7601470">
        <ele>642.7</ele>
        <time>2020-11-16T08:44:21Z</time>
      </trkpt>
      <trkpt lat="28.7348530" lon="-17.7601670">
        <ele>643.1</ele>
        <time>2020-11-16T08:44:22Z</time>
      </trkpt>
      <trkpt lat="28.7348680" lon="-17.7601800">
        <ele>643.3</ele>
        <time>2020-11-16T08:44:23Z</time>
      </trkpt>
      <trkpt lat="28.7348680" lon="-17.7601800">
        <ele>643.3</ele>
        <time>2020-11-16T08:44:24Z</time>
      </trkpt>
      <trkpt lat="28.7348950" lon="-17.7602120">
        <ele>643.8</ele>
        <time>2020-11-16T08:44:25Z</time>
      </trkpt>
      <trkpt lat="28.7349080" lon="-17.7602300">
        <ele>644.0</ele>
        <time>2020-11-16T08:44:26Z</time>
      </trkpt>
      <trkpt lat="28.7349080" lon="-17.7602300">
        <ele>644.0</ele>
        <time>2020-11-16T08:44:27Z</time>
      </trkpt>
      <trkpt lat="28.7349320" lon="-17.7602680">
        <ele>644.5</ele>
        <time>2020-11-16T08:44:28Z</time>
      </trkpt>
      <trkpt lat="28.7349420" lon="-17.7602870">
        <ele>644.7</ele>
        <time>2020-11-16T08:44:29Z</time>
      </trkpt>
      <trkpt lat="28.7349420" lon="-17.7602870">
        <ele>644.7</ele>
        <time>2020-11-16T08:44:30Z</time>
      </trkpt>
      <trkpt lat="28.7349620" lon="-17.7603180">
        <ele>645.1</ele>
        <time>2020-11-16T08:44:31Z</time>
      </trkpt>
      <trkpt lat="28.7349700" lon="-17.7603370">
        <ele>645.3</ele>
        <time>2020-11-16T08:44:32Z</time>
      </trkpt>
      <trkpt lat="28.7349700" lon="-17.7603370">
        <ele>645.3</ele>
        <time>2020-11-16T08:44:33Z</time>
      </trkpt>
      <trkpt lat="28.7349870" lon="-17.7603750">
        <ele>645.7</ele>
        <time>2020-11-16T08:44:34Z</time>
      </trkpt>
      <trkpt lat="28.7349970" lon="-17.7603920">
        <ele>645.9</ele>
        <time>2020-11-16T08:44:35Z</time>
      </trkpt>
      <trkpt lat="28.7349970" lon="-17.7603920">
        <ele>645.9</ele>
        <time>2020-11-16T08:44:36Z</time>
      </trkpt>
      <trkpt lat="28.7350230" lon="-17.7604220">
        <ele>646.3</ele>
        <time>2020-11-16T08:44:37Z</time>
      </trkpt>
      <trkpt lat="28.7350230" lon="-17.7604220">
        <ele>646.3</ele>
        <time>2020-11-16T08:44:38Z</time>
      </trkpt>
      <trkpt lat="28.7350570" lon="-17.7604470">
        <ele>646.7</ele>
        <time>2020-11-16T08:44:39Z</time>
      </trkpt>
      <trkpt lat="28.7350570" lon="-17.7604470">
        <ele>646.7</ele>
        <time>2020-11-16T08:44:40Z</time>
      </trkpt>
      <trkpt lat="28.7350830" lon="-17.7604750">
        <ele>647.1</ele>
        <time>2020-11-16T08:44:41Z</time>
      </trkpt>
      <trkpt lat="28.7350950" lon="-17.7604880">
        <ele>647.2</ele>
        <time>2020-11-16T08:44:42Z</time>
      </trkpt>
      <trkpt lat="28.7350950" lon="-17.7604880">
        <ele>647.2</ele>
        <time>2020-11-16T08:44:43Z</time>
      </trkpt>
      <trkpt lat="28.7351250" lon="-17.7605130">
        <ele>647.6</ele>
        <time>2020-11-16T08:44:44Z</time>
      </trkpt>
      <trkpt lat="28.7351250" lon="-17.7605130">
        <ele>647.6</ele>
        <time>2020-11-16T08:44:45Z</time>
      </trkpt>
      <trkpt lat="28.7351630" lon="-17.7605350">
        <ele>648.0</ele>
        <time>2020-11-16T08:44:46Z</time>
      </trkpt>
      <trkpt lat="28.7351630" lon="-17.7605350">
        <ele>648.0</ele>
        <time>2020-11-16T08:44:47Z</time>
      </trkpt>
      <trkpt lat="28.7352080" lon="-17.7605620">
        <ele>648.5</ele>
        <time>2020-11-16T08:44:48Z</time>
      </trkpt>
      <trkpt lat="28.7352220" lon="-17.7605750">
        <ele>648.7</ele>
        <time>2020-11-16T08:44:49Z</time>
      </trkpt>
      <trkpt lat="28.7352380" lon="-17.7605900">
        <ele>648.9</ele>
        <time>2020-11-16T08:44:50Z</time>
      </trkpt>
      <trkpt lat="28.7352380" lon="-17.7605900">
        <ele>648.9</ele>
        <time>2020-11-16T08:44:51Z</time>
      </trkpt>
      <trkpt lat="28.7352650" lon="-17.7606250">
        <ele>649.3</ele>
        <time>2020-11-16T08:44:52Z</time>
      </trkpt>
      <trkpt lat="28.7352650" lon="-17.7606250">
        <ele>649.3</ele>
        <time>2020-11-16T08:44:53Z</time>
      </trkpt>
      <trkpt lat="28.7352800" lon="-17.7606670">
        <ele>649.6</ele>
        <time>2020-11-16T08:44:54Z</time>
      </trkpt>
      <trkpt lat="28.7352920" lon="-17.7606850">
        <ele>649.8</ele>
        <time>2020-11-16T08:44:55Z</time>
      </trkpt>
      <trkpt lat="28.7352920" lon="-17.7606850">
        <ele>649.8</ele>
        <time>2020-11-16T08:44:56Z</time>
      </trkpt>
      <trkpt lat="28.7353080" lon="-17.7607270">
        <ele>650.2</ele>
        <time>2020-11-16T08:44:57Z</time>
      </trkpt>
      <trkpt lat="28.7353100" lon="-17.7607450">
        <ele>650.4</ele>
        <time>2020-11-16T08:44:58Z</time>
      </trkpt>
      <trkpt lat="28.7353100" lon="-17.7607450">
        <ele>650.4</ele>
        <time>2020-11-16T08:44:59Z</time>
      </trkpt>
      <trkpt lat="28.7353120" lon="-17.7607750">
        <ele>650.6</ele>
        <time>2020-11-16T08:45:00Z</time>
      </trkpt>
      <trkpt lat="28.7353120" lon="-17.7607750">
        <ele>650.6</ele>
        <time>2020-11-16T08:45:01Z</time>
      </trkpt>
      <trkpt lat="28.7353120" lon="-17.7608130">
        <ele>650.9</ele>
        <time>2020-11-16T08:45:02Z</time>
      </trkpt>
      <trkpt lat="28.7353120" lon="-17.7608130">
        <ele>650.9</ele>
        <time>2020-11-16T08:45:03Z</time>
      </trkpt>
      <trkpt lat="28.7353200" lon="-17.7608500">
        <ele>651.2</ele>
        <time>2020-11-16T08:45:04Z</time>
      </trkpt>
      <trkpt lat="28.7353200" lon="-17.7608500">
        <ele>651.2</ele>
        <time>2020-11-16T08:45:05Z</time>
      </trkpt>
      <trkpt lat="28.7353330" lon="-17.7608820">
        <ele>651.5</ele>
        <time>2020-11-16T08:45:06Z</time>
      </trkpt>
      <trkpt lat="28.7353370" lon="-17.7608980">
        <ele>651.7</ele>
        <time>2020-11-16T08:45:07Z</time>
      </trkpt>
      <trkpt lat="28.7353370" lon="-17.7608980">
        <ele>651.7</ele>
        <time>2020-11-16T08:45:08Z</time>
      </trkpt>
      <trkpt lat="28.7353470" lon="-17.7609400">
        <ele>652.0</ele>
        <time>2020-11-16T08:45:09Z</time>
      </trkpt>
      <trkpt lat="28.7353470" lon="-17.7609400">
        <ele>652.0</ele>
        <time>2020-11-16T08:45:10Z</time>
      </trkpt>
      <trkpt lat="28.7353650" lon="-17.7609820">
        <ele>652.4</ele>
        <time>2020-11-16T08:45:11Z</time>
      </trkpt>
      <trkpt lat="28.7353650" lon="-17.7609820">
        <ele>652.4</ele>
        <time>2020-11-16T08:45:12Z</time>
      </trkpt>
      <trkpt lat="28.7353750" lon="-17.7610220">
        <ele>652.7</ele>
        <time>2020-11-16T08:45:13Z</time>
      </trkpt>
      <trkpt lat="28.7353820" lon="-17.7610380">
        <ele>652.9</ele>
        <time>2020-11-16T08:45:14Z</time>
      </trkpt>
      <trkpt lat="28.7353820" lon="-17.7610380">
        <ele>652.9</ele>
        <time>2020-11-16T08:45:15Z</time>
      </trkpt>
      <trkpt lat="28.7354000" lon="-17.7610800">
        <ele>653.3</ele>
        <time>2020-11-16T08:45:16Z</time>
      </trkpt>
      <trkpt lat="28.7354000" lon="-17.7610800">
        <ele>653.3</ele>
        <time>2020-11-16T08:45:17Z</time>
      </trkpt>
      <trkpt lat="28.7354130" lon="-17.7611280">
        <ele>653.8</ele>
        <time>2020-11-16T08:45:18Z</time>
      </trkpt>
      <trkpt lat="28.7354180" lon="-17.7611530">
        <ele>654.0</ele>
        <time>2020-11-16T08:45:19Z</time>
      </trkpt>
      <trkpt lat="28.7354270" lon="-17.7611730">
        <ele>654.2</ele>
        <time>2020-11-16T08:45:20Z</time>
      </trkpt>
      <trkpt lat="28.7354270" lon="-17.7611730">
        <ele>654.2</ele>
        <time>2020-11-16T08:45:21Z</time>
      </trkpt>
      <trkpt lat="28.7354520" lon="-17.7612070">
        <ele>654.7</ele>
        <time>2020-11-16T08:45:22Z</time>
      </trkpt>
      <trkpt lat="28.7354670" lon="-17.7612270">
        <ele>655.0</ele>
        <time>2020-11-16T08:45:23Z</time>
      </trkpt>
      <trkpt lat="28.7354670" lon="-17.7612270">
        <ele>655.0</ele>
        <time>2020-11-16T08:45:24Z</time>
      </trkpt>
      <trkpt lat="28.7354920" lon="-17.7612600">
        <ele>655.5</ele>
        <time>2020-11-16T08:45:25Z</time>
      </trkpt>
      <trkpt lat="28.7354920" lon="-17.7612600">
        <ele>655.5</ele>
        <time>2020-11-16T08:45:26Z</time>
      </trkpt>
      <trkpt lat="28.7355170" lon="-17.7612870">
        <ele>656.0</ele>
        <time>2020-11-16T08:45:27Z</time>
      </trkpt>
      <trkpt lat="28.7355270" lon="-17.7613020">
        <ele>656.2</ele>
        <time>2020-11-16T08:45:28Z</time>
      </trkpt>
      <trkpt lat="28.7355270" lon="-17.7613020">
        <ele>656.2</ele>
        <time>2020-11-16T08:45:29Z</time>
      </trkpt>
      <trkpt lat="28.7355530" lon="-17.7613280">
        <ele>656.7</ele>
        <time>2020-11-16T08:45:30Z</time>
      </trkpt>
      <trkpt lat="28.7355530" lon="-17.7613280">
        <ele>656.7</ele>
        <time>2020-11-16T08:45:31Z</time>
      </trkpt>
      <trkpt lat="28.7355800" lon="-17.7613480">
        <ele>657.1</ele>
        <time>2020-11-16T08:45:32Z</time>
      </trkpt>
      <trkpt lat="28.7355800" lon="-17.7613480">
        <ele>657.1</ele>
        <time>2020-11-16T08:45:33Z</time>
      </trkpt>
      <trkpt lat="28.7356030" lon="-17.7613700">
        <ele>657.5</ele>
        <time>2020-11-16T08:45:34Z</time>
      </trkpt>
      <trkpt lat="28.7356030" lon="-17.7613700">
        <ele>657.5</ele>
        <time>2020-11-16T08:45:35Z</time>
      </trkpt>
      <trkpt lat="28.7356300" lon="-17.7613970">
        <ele>658.0</ele>
        <time>2020-11-16T08:45:36Z</time>
      </trkpt>
      <trkpt lat="28.7356300" lon="-17.7613970">
        <ele>658.0</ele>
        <time>2020-11-16T08:45:37Z</time>
      </trkpt>
      <trkpt lat="28.7356580" lon="-17.7614180">
        <ele>658.5</ele>
        <time>2020-11-16T08:45:38Z</time>
      </trkpt>
      <trkpt lat="28.7356580" lon="-17.7614180">
        <ele>658.5</ele>
        <time>2020-11-16T08:45:39Z</time>
      </trkpt>
      <trkpt lat="28.7356880" lon="-17.7614450">
        <ele>659.0</ele>
        <time>2020-11-16T08:45:40Z</time>
      </trkpt>
      <trkpt lat="28.7356880" lon="-17.7614450">
        <ele>659.0</ele>
        <time>2020-11-16T08:45:41Z</time>
      </trkpt>
      <trkpt lat="28.7357100" lon="-17.7614820">
        <ele>659.5</ele>
        <time>2020-11-16T08:45:42Z</time>
      </trkpt>
      <trkpt lat="28.7357100" lon="-17.7614820">
        <ele>659.5</ele>
        <time>2020-11-16T08:45:43Z</time>
      </trkpt>
      <trkpt lat="28.7357350" lon="-17.7615070">
        <ele>660.0</ele>
        <time>2020-11-16T08:45:44Z</time>
      </trkpt>
      <trkpt lat="28.7357350" lon="-17.7615070">
        <ele>660.0</ele>
        <time>2020-11-16T08:45:45Z</time>
      </trkpt>
      <trkpt lat="28.7357550" lon="-17.7615370">
        <ele>660.5</ele>
        <time>2020-11-16T08:45:46Z</time>
      </trkpt>
      <trkpt lat="28.7357550" lon="-17.7615370">
        <ele>660.5</ele>
        <time>2020-11-16T08:45:47Z</time>
      </trkpt>
      <trkpt lat="28.7357700" lon="-17.7615720">
        <ele>660.9</ele>
        <time>2020-11-16T08:45:48Z</time>
      </trkpt>
      <trkpt lat="28.7357700" lon="-17.7615720">
        <ele>660.9</ele>
        <time>2020-11-16T08:45:49Z</time>
      </trkpt>
      <trkpt lat="28.7357920" lon="-17.7616070">
        <ele>661.5</ele>
        <time>2020-11-16T08:45:50Z</time>
      </trkpt>
      <trkpt lat="28.7357920" lon="-17.7616070">
        <ele>661.5</ele>
        <time>2020-11-16T08:45:51Z</time>
      </trkpt>
      <trkpt lat="28.7358100" lon="-17.7616350">
        <ele>661.9</ele>
        <time>2020-11-16T08:45:52Z</time>
      </trkpt>
      <trkpt lat="28.7358100" lon="-17.7616350">
        <ele>661.9</ele>
        <time>2020-11-16T08:45:53Z</time>
      </trkpt>
      <trkpt lat="28.7358350" lon="-17.7616550">
        <ele>662.3</ele>
        <time>2020-11-16T08:45:54Z</time>
      </trkpt>
      <trkpt lat="28.7358480" lon="-17.7616670">
        <ele>662.6</ele>
        <time>2020-11-16T08:45:55Z</time>
      </trkpt>
      <trkpt lat="28.7358570" lon="-17.7616770">
        <ele>662.8</ele>
        <time>2020-11-16T08:45:56Z</time>
      </trkpt>
      <trkpt lat="28.7358570" lon="-17.7616770">
        <ele>662.8</ele>
        <time>2020-11-16T08:45:57Z</time>
      </trkpt>
      <trkpt lat="28.7358800" lon="-17.7617000">
        <ele>663.2</ele>
        <time>2020-11-16T08:45:58Z</time>
      </trkpt>
      <trkpt lat="28.7358930" lon="-17.7617100">
        <ele>663.4</ele>
        <time>2020-11-16T08:45:59Z</time>
      </trkpt>
      <trkpt lat="28.7358930" lon="-17.7617100">
        <ele>663.4</ele>
        <time>2020-11-16T08:46:00Z</time>
      </trkpt>
      <trkpt lat="28.7359200" lon="-17.7617320">
        <ele>663.9</ele>
        <time>2020-11-16T08:46:01Z</time>
      </trkpt>
      <trkpt lat="28.7359400" lon="-17.7617400">
        <ele>664.2</ele>
        <time>2020-11-16T08:46:02Z</time>
      </trkpt>
      <trkpt lat="28.7359400" lon="-17.7617400">
        <ele>664.2</ele>
        <time>2020-11-16T08:46:03Z</time>
      </trkpt>
      <trkpt lat="28.7359720" lon="-17.7617630">
        <ele>664.7</ele>
        <time>2020-11-16T08:46:04Z</time>
      </trkpt>
      <trkpt lat="28.7359720" lon="-17.7617630">
        <ele>664.7</ele>
        <time>2020-11-16T08:46:05Z</time>
      </trkpt>
      <trkpt lat="28.7359970" lon="-17.7617900">
        <ele>665.2</ele>
        <time>2020-11-16T08:46:06Z</time>
      </trkpt>
      <trkpt lat="28.7359970" lon="-17.7617900">
        <ele>665.2</ele>
        <time>2020-11-16T08:46:07Z</time>
      </trkpt>
      <trkpt lat="28.7360130" lon="-17.7618230">
        <ele>665.6</ele>
        <time>2020-11-16T08:46:08Z</time>
      </trkpt>
      <trkpt lat="28.7360130" lon="-17.7618230">
        <ele>665.6</ele>
        <time>2020-11-16T08:46:09Z</time>
      </trkpt>
      <trkpt lat="28.7360380" lon="-17.7618480">
        <ele>666.0</ele>
        <time>2020-11-16T08:46:10Z</time>
      </trkpt>
      <trkpt lat="28.7360380" lon="-17.7618480">
        <ele>666.0</ele>
        <time>2020-11-16T08:46:11Z</time>
      </trkpt>
      <trkpt lat="28.7360530" lon="-17.7618730">
        <ele>666.3</ele>
        <time>2020-11-16T08:46:12Z</time>
      </trkpt>
      <trkpt lat="28.7360600" lon="-17.7618980">
        <ele>666.6</ele>
        <time>2020-11-16T08:46:13Z</time>
      </trkpt>
      <trkpt lat="28.7360670" lon="-17.7619130">
        <ele>666.7</ele>
        <time>2020-11-16T08:46:14Z</time>
      </trkpt>
      <trkpt lat="28.7360770" lon="-17.7619300">
        <ele>666.9</ele>
        <time>2020-11-16T08:46:15Z</time>
      </trkpt>
      <trkpt lat="28.7360850" lon="-17.7619500">
        <ele>667.1</ele>
        <time>2020-11-16T08:46:16Z</time>
      </trkpt>
      <trkpt lat="28.7360850" lon="-17.7619500">
        <ele>667.1</ele>
        <time>2020-11-16T08:46:17Z</time>
      </trkpt>
      <trkpt lat="28.7361070" lon="-17.7619900">
        <ele>667.5</ele>
        <time>2020-11-16T08:46:18Z</time>
      </trkpt>
      <trkpt lat="28.7361070" lon="-17.7619900">
        <ele>667.5</ele>
        <time>2020-11-16T08:46:19Z</time>
      </trkpt>
      <trkpt lat="28.7361380" lon="-17.7620330">
        <ele>668.0</ele>
        <time>2020-11-16T08:46:20Z</time>
      </trkpt>
      <trkpt lat="28.7361380" lon="-17.7620330">
        <ele>668.0</ele>
        <time>2020-11-16T08:46:21Z</time>
      </trkpt>
      <trkpt lat="28.7361720" lon="-17.7620320">
        <ele>667.9</ele>
        <time>2020-11-16T08:46:22Z</time>
      </trkpt>
      <trkpt lat="28.7361870" lon="-17.7620250">
        <ele>667.8</ele>
        <time>2020-11-16T08:46:23Z</time>
      </trkpt>
      <trkpt lat="28.7361870" lon="-17.7620250">
        <ele>667.8</ele>
        <time>2020-11-16T08:46:24Z</time>
      </trkpt>
      <trkpt lat="28.7362230" lon="-17.7620100">
        <ele>667.6</ele>
        <time>2020-11-16T08:46:25Z</time>
      </trkpt>
      <trkpt lat="28.7362470" lon="-17.7620020">
        <ele>667.5</ele>
        <time>2020-11-16T08:46:26Z</time>
      </trkpt>
      <trkpt lat="28.7362470" lon="-17.7620020">
        <ele>667.5</ele>
        <time>2020-11-16T08:46:27Z</time>
      </trkpt>
      <trkpt lat="28.7362880" lon="-17.7619820">
        <ele>667.4</ele>
        <time>2020-11-16T08:46:28Z</time>
      </trkpt>
      <trkpt lat="28.7363070" lon="-17.7619680">
        <ele>667.3</ele>
        <time>2020-11-16T08:46:29Z</time>
      </trkpt>
      <trkpt lat="28.7363070" lon="-17.7619680">
        <ele>667.3</ele>
        <time>2020-11-16T08:46:30Z</time>
      </trkpt>
      <trkpt lat="28.7363480" lon="-17.7619470">
        <ele>667.2</ele>
        <time>2020-11-16T08:46:31Z</time>
      </trkpt>
      <trkpt lat="28.7363680" lon="-17.7619430">
        <ele>667.2</ele>
        <time>2020-11-16T08:46:32Z</time>
      </trkpt>
      <trkpt lat="28.7363680" lon="-17.7619430">
        <ele>667.2</ele>
        <time>2020-11-16T08:46:33Z</time>
      </trkpt>
      <trkpt lat="28.7363980" lon="-17.7619180">
        <ele>667.2</ele>
        <time>2020-11-16T08:46:34Z</time>
      </trkpt>
      <trkpt lat="28.7363980" lon="-17.7619180">
        <ele>667.2</ele>
        <time>2020-11-16T08:46:35Z</time>
      </trkpt>
      <trkpt lat="28.7364200" lon="-17.7618930">
        <ele>667.3</ele>
        <time>2020-11-16T08:46:36Z</time>
      </trkpt>
      <trkpt lat="28.7364200" lon="-17.7618930">
        <ele>667.3</ele>
        <time>2020-11-16T08:46:37Z</time>
      </trkpt>
      <trkpt lat="28.7364400" lon="-17.7618650">
        <ele>667.4</ele>
        <time>2020-11-16T08:46:38Z</time>
      </trkpt>
      <trkpt lat="28.7364400" lon="-17.7618650">
        <ele>667.4</ele>
        <time>2020-11-16T08:46:39Z</time>
      </trkpt>
      <trkpt lat="28.7364550" lon="-17.7618420">
        <ele>667.5</ele>
        <time>2020-11-16T08:46:40Z</time>
      </trkpt>
      <trkpt lat="28.7364550" lon="-17.7618420">
        <ele>667.5</ele>
        <time>2020-11-16T08:46:41Z</time>
      </trkpt>
      <trkpt lat="28.7364650" lon="-17.7618170">
        <ele>667.6</ele>
        <time>2020-11-16T08:46:42Z</time>
      </trkpt>
      <trkpt lat="28.7364720" lon="-17.7618030">
        <ele>667.7</ele>
        <time>2020-11-16T08:46:43Z</time>
      </trkpt>
      <trkpt lat="28.7364750" lon="-17.7617880">
        <ele>667.7</ele>
        <time>2020-11-16T08:46:44Z</time>
      </trkpt>
      <trkpt lat="28.7364750" lon="-17.7617880">
        <ele>667.7</ele>
        <time>2020-11-16T08:46:45Z</time>
      </trkpt>
      <trkpt lat="28.7364800" lon="-17.7617600">
        <ele>667.8</ele>
        <time>2020-11-16T08:46:46Z</time>
      </trkpt>
      <trkpt lat="28.7364800" lon="-17.7617430">
        <ele>667.8</ele>
        <time>2020-11-16T08:46:47Z</time>
      </trkpt>
      <trkpt lat="28.7364800" lon="-17.7617430">
        <ele>667.8</ele>
        <time>2020-11-16T08:46:48Z</time>
      </trkpt>
      <trkpt lat="28.7364720" lon="-17.7617180">
        <ele>667.6</ele>
        <time>2020-11-16T08:46:49Z</time>
      </trkpt>
      <trkpt lat="28.7364680" lon="-17.7617020">
        <ele>667.4</ele>
        <time>2020-11-16T08:46:50Z</time>
      </trkpt>
      <trkpt lat="28.7364680" lon="-17.7617020">
        <ele>667.4</ele>
        <time>2020-11-16T08:46:51Z</time>
      </trkpt>
      <trkpt lat="28.7364570" lon="-17.7616620">
        <ele>666.9</ele>
        <time>2020-11-16T08:46:52Z</time>
      </trkpt>
      <trkpt lat="28.7364570" lon="-17.7616620">
        <ele>666.9</ele>
        <time>2020-11-16T08:46:53Z</time>
      </trkpt>
      <trkpt lat="28.7364500" lon="-17.7616230">
        <ele>666.5</ele>
        <time>2020-11-16T08:46:54Z</time>
      </trkpt>
      <trkpt lat="28.7364500" lon="-17.7616020">
        <ele>666.2</ele>
        <time>2020-11-16T08:46:55Z</time>
      </trkpt>
      <trkpt lat="28.7364500" lon="-17.7616020">
        <ele>666.2</ele>
        <time>2020-11-16T08:46:56Z</time>
      </trkpt>
      <trkpt lat="28.7364330" lon="-17.7615650">
        <ele>665.7</ele>
        <time>2020-11-16T08:46:57Z</time>
      </trkpt>
      <trkpt lat="28.7364330" lon="-17.7615650">
        <ele>665.7</ele>
        <time>2020-11-16T08:46:58Z</time>
      </trkpt>
      <trkpt lat="28.7364230" lon="-17.7615270">
        <ele>665.2</ele>
        <time>2020-11-16T08:46:59Z</time>
      </trkpt>
      <trkpt lat="28.7364230" lon="-17.7615270">
        <ele>665.2</ele>
        <time>2020-11-16T08:47:00Z</time>
      </trkpt>
      <trkpt lat="28.7364200" lon="-17.7614870">
        <ele>664.8</ele>
        <time>2020-11-16T08:47:01Z</time>
      </trkpt>
      <trkpt lat="28.7364200" lon="-17.7614870">
        <ele>664.8</ele>
        <time>2020-11-16T08:47:02Z</time>
      </trkpt>
      <trkpt lat="28.7364220" lon="-17.7614470">
        <ele>664.6</ele>
        <time>2020-11-16T08:47:03Z</time>
      </trkpt>
      <trkpt lat="28.7364220" lon="-17.7614470">
        <ele>664.6</ele>
        <time>2020-11-16T08:47:04Z</time>
      </trkpt>
      <trkpt lat="28.7364280" lon="-17.7614170">
        <ele>664.8</ele>
        <time>2020-11-16T08:47:05Z</time>
      </trkpt>
      <trkpt lat="28.7364320" lon="-17.7614030">
        <ele>664.8</ele>
        <time>2020-11-16T08:47:06Z</time>
      </trkpt>
      <trkpt lat="28.7364320" lon="-17.7614030">
        <ele>664.8</ele>
        <time>2020-11-16T08:47:07Z</time>
      </trkpt>
      <trkpt lat="28.7364300" lon="-17.7613730">
        <ele>665.0</ele>
        <time>2020-11-16T08:47:08Z</time>
      </trkpt>
      <trkpt lat="28.7364300" lon="-17.7613730">
        <ele>665.0</ele>
        <time>2020-11-16T08:47:09Z</time>
      </trkpt>
      <trkpt lat="28.7364220" lon="-17.7613380">
        <ele>665.2</ele>
        <time>2020-11-16T08:47:10Z</time>
      </trkpt>
      <trkpt lat="28.7364220" lon="-17.7613380">
        <ele>665.2</ele>
        <time>2020-11-16T08:47:11Z</time>
      </trkpt>
      <trkpt lat="28.7364170" lon="-17.7613020">
        <ele>665.4</ele>
        <time>2020-11-16T08:47:12Z</time>
      </trkpt>
      <trkpt lat="28.7364170" lon="-17.7613020">
        <ele>665.4</ele>
        <time>2020-11-16T08:47:13Z</time>
      </trkpt>
      <trkpt lat="28.7364050" lon="-17.7612620">
        <ele>665.6</ele>
        <time>2020-11-16T08:47:14Z</time>
      </trkpt>
      <trkpt lat="28.7364050" lon="-17.7612620">
        <ele>665.6</ele>
        <time>2020-11-16T08:47:15Z</time>
      </trkpt>
      <trkpt lat="28.7363930" lon="-17.7612230">
        <ele>665.7</ele>
        <time>2020-11-16T08:47:16Z</time>
      </trkpt>
      <trkpt lat="28.7363930" lon="-17.7612230">
        <ele>665.7</ele>
        <time>2020-11-16T08:47:17Z</time>
      </trkpt>
      <trkpt lat="28.7363880" lon="-17.7611800">
        <ele>665.9</ele>
        <time>2020-11-16T08:47:18Z</time>
      </trkpt>
      <trkpt lat="28.7363830" lon="-17.7611580">
        <ele>666.0</ele>
        <time>2020-11-16T08:47:19Z</time>
      </trkpt>
      <trkpt lat="28.7363830" lon="-17.7611580">
        <ele>666.0</ele>
        <time>2020-11-16T08:47:20Z</time>
      </trkpt>
      <trkpt lat="28.7363830" lon="-17.7611120">
        <ele>666.2</ele>
        <time>2020-11-16T08:47:21Z</time>
      </trkpt>
      <trkpt lat="28.7363830" lon="-17.7610900">
        <ele>666.3</ele>
        <time>2020-11-16T08:47:22Z</time>
      </trkpt>
      <trkpt lat="28.7363830" lon="-17.7610900">
        <ele>666.3</ele>
        <time>2020-11-16T08:47:23Z</time>
      </trkpt>
      <trkpt lat="28.7363850" lon="-17.7610450">
        <ele>666.5</ele>
        <time>2020-11-16T08:47:24Z</time>
      </trkpt>
      <trkpt lat="28.7363850" lon="-17.7610450">
        <ele>666.5</ele>
        <time>2020-11-16T08:47:25Z</time>
      </trkpt>
      <trkpt lat="28.7363950" lon="-17.7609970">
        <ele>666.7</ele>
        <time>2020-11-16T08:47:26Z</time>
      </trkpt>
      <trkpt lat="28.7363950" lon="-17.7609970">
        <ele>666.7</ele>
        <time>2020-11-16T08:47:27Z</time>
      </trkpt>
      <trkpt lat="28.7363980" lon="-17.7609550">
        <ele>666.9</ele>
        <time>2020-11-16T08:47:28Z</time>
      </trkpt>
      <trkpt lat="28.7363980" lon="-17.7609380">
        <ele>666.9</ele>
        <time>2020-11-16T08:47:29Z</time>
      </trkpt>
      <trkpt lat="28.7363980" lon="-17.7609380">
        <ele>666.9</ele>
        <time>2020-11-16T08:47:30Z</time>
      </trkpt>
      <trkpt lat="28.7364100" lon="-17.7608950">
        <ele>667.1</ele>
        <time>2020-11-16T08:47:31Z</time>
      </trkpt>
      <trkpt lat="28.7364100" lon="-17.7608950">
        <ele>667.1</ele>
        <time>2020-11-16T08:47:32Z</time>
      </trkpt>
      <trkpt lat="28.7364250" lon="-17.7608520">
        <ele>667.3</ele>
        <time>2020-11-16T08:47:33Z</time>
      </trkpt>
      <trkpt lat="28.7364250" lon="-17.7608520">
        <ele>667.3</ele>
        <time>2020-11-16T08:47:34Z</time>
      </trkpt>
      <trkpt lat="28.7364430" lon="-17.7608130">
        <ele>667.5</ele>
        <time>2020-11-16T08:47:35Z</time>
      </trkpt>
      <trkpt lat="28.7364430" lon="-17.7608130">
        <ele>667.5</ele>
        <time>2020-11-16T08:47:36Z</time>
      </trkpt>
      <trkpt lat="28.7364580" lon="-17.7607720">
        <ele>667.7</ele>
        <time>2020-11-16T08:47:37Z</time>
      </trkpt>
      <trkpt lat="28.7364580" lon="-17.7607720">
        <ele>667.7</ele>
        <time>2020-11-16T08:47:38Z</time>
      </trkpt>
      <trkpt lat="28.7364700" lon="-17.7607300">
        <ele>667.9</ele>
        <time>2020-11-16T08:47:39Z</time>
      </trkpt>
      <trkpt lat="28.7364780" lon="-17.7607100">
        <ele>668.0</ele>
        <time>2020-11-16T08:47:40Z</time>
      </trkpt>
      <trkpt lat="28.7364780" lon="-17.7607100">
        <ele>668.0</ele>
        <time>2020-11-16T08:47:41Z</time>
      </trkpt>
      <trkpt lat="28.7364880" lon="-17.7606670">
        <ele>668.2</ele>
        <time>2020-11-16T08:47:42Z</time>
      </trkpt>
      <trkpt lat="28.7364880" lon="-17.7606670">
        <ele>668.2</ele>
        <time>2020-11-16T08:47:43Z</time>
      </trkpt>
      <trkpt lat="28.7364950" lon="-17.7606180">
        <ele>668.4</ele>
        <time>2020-11-16T08:47:44Z</time>
      </trkpt>
      <trkpt lat="28.7364950" lon="-17.7606180">
        <ele>668.4</ele>
        <time>2020-11-16T08:47:45Z</time>
      </trkpt>
      <trkpt lat="28.7365020" lon="-17.7605780">
        <ele>668.6</ele>
        <time>2020-11-16T08:47:46Z</time>
      </trkpt>
      <trkpt lat="28.7365020" lon="-17.7605780">
        <ele>668.6</ele>
        <time>2020-11-16T08:47:47Z</time>
      </trkpt>
      <trkpt lat="28.7365000" lon="-17.7605370">
        <ele>668.8</ele>
        <time>2020-11-16T08:47:48Z</time>
      </trkpt>
      <trkpt lat="28.7365000" lon="-17.7605370">
        <ele>668.8</ele>
        <time>2020-11-16T08:47:49Z</time>
      </trkpt>
      <trkpt lat="28.7365020" lon="-17.7604930">
        <ele>669.1</ele>
        <time>2020-11-16T08:47:50Z</time>
      </trkpt>
      <trkpt lat="28.7365020" lon="-17.7604930">
        <ele>669.1</ele>
        <time>2020-11-16T08:47:51Z</time>
      </trkpt>
      <trkpt lat="28.7365050" lon="-17.7604480">
        <ele>669.3</ele>
        <time>2020-11-16T08:47:52Z</time>
      </trkpt>
      <trkpt lat="28.7365050" lon="-17.7604480">
        <ele>669.3</ele>
        <time>2020-11-16T08:47:53Z</time>
      </trkpt>
      <trkpt lat="28.7365200" lon="-17.7604030">
        <ele>669.6</ele>
        <time>2020-11-16T08:47:54Z</time>
      </trkpt>
      <trkpt lat="28.7365200" lon="-17.7604030">
        <ele>669.6</ele>
        <time>2020-11-16T08:47:55Z</time>
      </trkpt>
      <trkpt lat="28.7365320" lon="-17.7603550">
        <ele>669.9</ele>
        <time>2020-11-16T08:47:56Z</time>
      </trkpt>
      <trkpt lat="28.7365320" lon="-17.7603550">
        <ele>669.9</ele>
        <time>2020-11-16T08:47:57Z</time>
      </trkpt>
      <trkpt lat="28.7365480" lon="-17.7603220">
        <ele>670.1</ele>
        <time>2020-11-16T08:47:58Z</time>
      </trkpt>
      <trkpt lat="28.7365520" lon="-17.7603000">
        <ele>670.2</ele>
        <time>2020-11-16T08:47:59Z</time>
      </trkpt>
      <trkpt lat="28.7365520" lon="-17.7603000">
        <ele>670.2</ele>
        <time>2020-11-16T08:48:00Z</time>
      </trkpt>
      <trkpt lat="28.7365700" lon="-17.7602580">
        <ele>670.4</ele>
        <time>2020-11-16T08:48:01Z</time>
      </trkpt>
      <trkpt lat="28.7365830" lon="-17.7602450">
        <ele>670.5</ele>
        <time>2020-11-16T08:48:02Z</time>
      </trkpt>
      <trkpt lat="28.7365830" lon="-17.7602450">
        <ele>670.5</ele>
        <time>2020-11-16T08:48:03Z</time>
      </trkpt>
      <trkpt lat="28.7366170" lon="-17.7602230">
        <ele>670.8</ele>
        <time>2020-11-16T08:48:04Z</time>
      </trkpt>
      <trkpt lat="28.7366170" lon="-17.7602230">
        <ele>670.8</ele>
        <time>2020-11-16T08:48:05Z</time>
      </trkpt>
      <trkpt lat="28.7366550" lon="-17.7602150">
        <ele>671.0</ele>
        <time>2020-11-16T08:48:06Z</time>
      </trkpt>
      <trkpt lat="28.7366550" lon="-17.7602150">
        <ele>671.0</ele>
        <time>2020-11-16T08:48:07Z</time>
      </trkpt>
      <trkpt lat="28.7366920" lon="-17.7602230">
        <ele>671.2</ele>
        <time>2020-11-16T08:48:08Z</time>
      </trkpt>
      <trkpt lat="28.7366920" lon="-17.7602230">
        <ele>671.2</ele>
        <time>2020-11-16T08:48:09Z</time>
      </trkpt>
      <trkpt lat="28.7367250" lon="-17.7602300">
        <ele>671.4</ele>
        <time>2020-11-16T08:48:10Z</time>
      </trkpt>
      <trkpt lat="28.7367250" lon="-17.7602300">
        <ele>671.4</ele>
        <time>2020-11-16T08:48:11Z</time>
      </trkpt>
      <trkpt lat="28.7367630" lon="-17.7602330">
        <ele>671.6</ele>
        <time>2020-11-16T08:48:12Z</time>
      </trkpt>
      <trkpt lat="28.7367630" lon="-17.7602330">
        <ele>671.6</ele>
        <time>2020-11-16T08:48:13Z</time>
      </trkpt>
      <trkpt lat="28.7367970" lon="-17.7602450">
        <ele>671.8</ele>
        <time>2020-11-16T08:48:14Z</time>
      </trkpt>
      <trkpt lat="28.7367970" lon="-17.7602450">
        <ele>671.8</ele>
        <time>2020-11-16T08:48:15Z</time>
      </trkpt>
      <trkpt lat="28.7368320" lon="-17.7602600">
        <ele>672.0</ele>
        <time>2020-11-16T08:48:16Z</time>
      </trkpt>
      <trkpt lat="28.7368320" lon="-17.7602600">
        <ele>672.0</ele>
        <time>2020-11-16T08:48:17Z</time>
      </trkpt>
      <trkpt lat="28.7368580" lon="-17.7602900">
        <ele>672.3</ele>
        <time>2020-11-16T08:48:18Z</time>
      </trkpt>
      <trkpt lat="28.7368580" lon="-17.7602900">
        <ele>672.3</ele>
        <time>2020-11-16T08:48:19Z</time>
      </trkpt>
      <trkpt lat="28.7368830" lon="-17.7603250">
        <ele>672.5</ele>
        <time>2020-11-16T08:48:20Z</time>
      </trkpt>
      <trkpt lat="28.7368970" lon="-17.7603400">
        <ele>672.7</ele>
        <time>2020-11-16T08:48:21Z</time>
      </trkpt>
      <trkpt lat="28.7368970" lon="-17.7603400">
        <ele>672.7</ele>
        <time>2020-11-16T08:48:22Z</time>
      </trkpt>
      <trkpt lat="28.7369200" lon="-17.7603770">
        <ele>672.9</ele>
        <time>2020-11-16T08:48:23Z</time>
      </trkpt>
      <trkpt lat="28.7369200" lon="-17.7603770">
        <ele>672.9</ele>
        <time>2020-11-16T08:48:24Z</time>
      </trkpt>
      <trkpt lat="28.7369430" lon="-17.7604050">
        <ele>673.2</ele>
        <time>2020-11-16T08:48:25Z</time>
      </trkpt>
      <trkpt lat="28.7369550" lon="-17.7604220">
        <ele>673.3</ele>
        <time>2020-11-16T08:48:26Z</time>
      </trkpt>
      <trkpt lat="28.7369550" lon="-17.7604220">
        <ele>673.3</ele>
        <time>2020-11-16T08:48:27Z</time>
      </trkpt>
      <trkpt lat="28.7369850" lon="-17.7604570">
        <ele>673.6</ele>
        <time>2020-11-16T08:48:28Z</time>
      </trkpt>
      <trkpt lat="28.7369850" lon="-17.7604570">
        <ele>673.6</ele>
        <time>2020-11-16T08:48:29Z</time>
      </trkpt>
      <trkpt lat="28.7370170" lon="-17.7604920">
        <ele>673.9</ele>
        <time>2020-11-16T08:48:30Z</time>
      </trkpt>
      <trkpt lat="28.7370170" lon="-17.7604920">
        <ele>673.9</ele>
        <time>2020-11-16T08:48:31Z</time>
      </trkpt>
      <trkpt lat="28.7370380" lon="-17.7605320">
        <ele>674.2</ele>
        <time>2020-11-16T08:48:32Z</time>
      </trkpt>
      <trkpt lat="28.7370380" lon="-17.7605320">
        <ele>674.2</ele>
        <time>2020-11-16T08:48:33Z</time>
      </trkpt>
      <trkpt lat="28.7370700" lon="-17.7605570">
        <ele>674.4</ele>
        <time>2020-11-16T08:48:34Z</time>
      </trkpt>
      <trkpt lat="28.7370700" lon="-17.7605570">
        <ele>674.4</ele>
        <time>2020-11-16T08:48:35Z</time>
      </trkpt>
      <trkpt lat="28.7371080" lon="-17.7605770">
        <ele>674.6</ele>
        <time>2020-11-16T08:48:36Z</time>
      </trkpt>
      <trkpt lat="28.7371270" lon="-17.7605830">
        <ele>674.6</ele>
        <time>2020-11-16T08:48:37Z</time>
      </trkpt>
      <trkpt lat="28.7371270" lon="-17.7605830">
        <ele>674.6</ele>
        <time>2020-11-16T08:48:38Z</time>
      </trkpt>
      <trkpt lat="28.7371630" lon="-17.7605880">
        <ele>674.8</ele>
        <time>2020-11-16T08:48:39Z</time>
      </trkpt>
      <trkpt lat="28.7371800" lon="-17.7605900">
        <ele>674.8</ele>
        <time>2020-11-16T08:48:40Z</time>
      </trkpt>
      <trkpt lat="28.7371800" lon="-17.7605900">
        <ele>674.8</ele>
        <time>2020-11-16T08:48:41Z</time>
      </trkpt>
      <trkpt lat="28.7372250" lon="-17.7606020">
        <ele>675.0</ele>
        <time>2020-11-16T08:48:42Z</time>
      </trkpt>
      <trkpt lat="28.7372250" lon="-17.7606020">
        <ele>675.0</ele>
        <time>2020-11-16T08:48:43Z</time>
      </trkpt>
      <trkpt lat="28.7372750" lon="-17.7606170">
        <ele>675.1</ele>
        <time>2020-11-16T08:48:44Z</time>
      </trkpt>
      <trkpt lat="28.7372750" lon="-17.7606170">
        <ele>675.1</ele>
        <time>2020-11-16T08:48:45Z</time>
      </trkpt>
      <trkpt lat="28.7373200" lon="-17.7606220">
        <ele>675.2</ele>
        <time>2020-11-16T08:48:46Z</time>
      </trkpt>
      <trkpt lat="28.7373200" lon="-17.7606220">
        <ele>675.2</ele>
        <time>2020-11-16T08:48:47Z</time>
      </trkpt>
      <trkpt lat="28.7373570" lon="-17.7606230">
        <ele>675.3</ele>
        <time>2020-11-16T08:48:48Z</time>
      </trkpt>
      <trkpt lat="28.7373570" lon="-17.7606230">
        <ele>675.3</ele>
        <time>2020-11-16T08:48:49Z</time>
      </trkpt>
      <trkpt lat="28.7373930" lon="-17.7606200">
        <ele>675.3</ele>
        <time>2020-11-16T08:48:50Z</time>
      </trkpt>
      <trkpt lat="28.7373930" lon="-17.7606200">
        <ele>675.3</ele>
        <time>2020-11-16T08:48:51Z</time>
      </trkpt>
      <trkpt lat="28.7374320" lon="-17.7606130">
        <ele>675.4</ele>
        <time>2020-11-16T08:48:52Z</time>
      </trkpt>
      <trkpt lat="28.7374320" lon="-17.7606130">
        <ele>675.4</ele>
        <time>2020-11-16T08:48:53Z</time>
      </trkpt>
      <trkpt lat="28.7374650" lon="-17.7606120">
        <ele>675.5</ele>
        <time>2020-11-16T08:48:54Z</time>
      </trkpt>
      <trkpt lat="28.7374650" lon="-17.7606120">
        <ele>675.5</ele>
        <time>2020-11-16T08:48:55Z</time>
      </trkpt>
      <trkpt lat="28.7375030" lon="-17.7606100">
        <ele>675.6</ele>
        <time>2020-11-16T08:48:56Z</time>
      </trkpt>
      <trkpt lat="28.7375030" lon="-17.7606100">
        <ele>675.6</ele>
        <time>2020-11-16T08:48:57Z</time>
      </trkpt>
      <trkpt lat="28.7375420" lon="-17.7606120">
        <ele>675.7</ele>
        <time>2020-11-16T08:48:58Z</time>
      </trkpt>
      <trkpt lat="28.7375420" lon="-17.7606120">
        <ele>675.7</ele>
        <time>2020-11-16T08:48:59Z</time>
      </trkpt>
      <trkpt lat="28.7375830" lon="-17.7606080">
        <ele>675.9</ele>
        <time>2020-11-16T08:49:00Z</time>
      </trkpt>
      <trkpt lat="28.7376020" lon="-17.7606020">
        <ele>676.0</ele>
        <time>2020-11-16T08:49:01Z</time>
      </trkpt>
      <trkpt lat="28.7376220" lon="-17.7605980">
        <ele>676.1</ele>
        <time>2020-11-16T08:49:02Z</time>
      </trkpt>
      <trkpt lat="28.7376370" lon="-17.7605950">
        <ele>676.2</ele>
        <time>2020-11-16T08:49:03Z</time>
      </trkpt>
      <trkpt lat="28.7376580" lon="-17.7605900">
        <ele>676.3</ele>
        <time>2020-11-16T08:49:04Z</time>
      </trkpt>
      <trkpt lat="28.7376580" lon="-17.7605900">
        <ele>676.3</ele>
        <time>2020-11-16T08:49:05Z</time>
      </trkpt>
      <trkpt lat="28.7376880" lon="-17.7605870">
        <ele>676.5</ele>
        <time>2020-11-16T08:49:06Z</time>
      </trkpt>
      <trkpt lat="28.7377020" lon="-17.7605870">
        <ele>676.5</ele>
        <time>2020-11-16T08:49:07Z</time>
      </trkpt>
      <trkpt lat="28.7377020" lon="-17.7605870">
        <ele>676.5</ele>
        <time>2020-11-16T08:49:08Z</time>
      </trkpt>
      <trkpt lat="28.7377250" lon="-17.7605830">
        <ele>676.7</ele>
        <time>2020-11-16T08:49:09Z</time>
      </trkpt>
      <trkpt lat="28.7377420" lon="-17.7605770">
        <ele>676.8</ele>
        <time>2020-11-16T08:49:10Z</time>
      </trkpt>
      <trkpt lat="28.7377420" lon="-17.7605770">
        <ele>676.8</ele>
        <time>2020-11-16T08:49:11Z</time>
      </trkpt>
      <trkpt lat="28.7377750" lon="-17.7605670">
        <ele>677.0</ele>
        <time>2020-11-16T08:49:12Z</time>
      </trkpt>
      <trkpt lat="28.7377750" lon="-17.7605670">
        <ele>677.0</ele>
        <time>2020-11-16T08:49:13Z</time>
      </trkpt>
      <trkpt lat="28.7378170" lon="-17.7605470">
        <ele>677.3</ele>
        <time>2020-11-16T08:49:14Z</time>
      </trkpt>
      <trkpt lat="28.7378420" lon="-17.7605380">
        <ele>677.5</ele>
        <time>2020-11-16T08:49:15Z</time>
      </trkpt>
      <trkpt lat="28.7378630" lon="-17.7605270">
        <ele>677.6</ele>
        <time>2020-11-16T08:49:16Z</time>
      </trkpt>
      <trkpt lat="28.7378630" lon="-17.7605270">
        <ele>677.6</ele>
        <time>2020-11-16T08:49:17Z</time>
      </trkpt>
      <trkpt lat="28.7379070" lon="-17.7605180">
        <ele>677.9</ele>
        <time>2020-11-16T08:49:18Z</time>
      </trkpt>
      <trkpt lat="28.7379070" lon="-17.7605180">
        <ele>677.9</ele>
        <time>2020-11-16T08:49:19Z</time>
      </trkpt>
      <trkpt lat="28.7379520" lon="-17.7605150">
        <ele>678.1</ele>
        <time>2020-11-16T08:49:20Z</time>
      </trkpt>
      <trkpt lat="28.7379520" lon="-17.7605150">
        <ele>678.1</ele>
        <time>2020-11-16T08:49:21Z</time>
      </trkpt>
      <trkpt lat="28.7379920" lon="-17.7605230">
        <ele>678.3</ele>
        <time>2020-11-16T08:49:22Z</time>
      </trkpt>
      <trkpt lat="28.7379920" lon="-17.7605230">
        <ele>678.3</ele>
        <time>2020-11-16T08:49:23Z</time>
      </trkpt>
      <trkpt lat="28.7380320" lon="-17.7605330">
        <ele>678.6</ele>
        <time>2020-11-16T08:49:24Z</time>
      </trkpt>
      <trkpt lat="28.7380320" lon="-17.7605330">
        <ele>678.6</ele>
        <time>2020-11-16T08:49:25Z</time>
      </trkpt>
      <trkpt lat="28.7380730" lon="-17.7605450">
        <ele>678.8</ele>
        <time>2020-11-16T08:49:26Z</time>
      </trkpt>
      <trkpt lat="28.7380730" lon="-17.7605450">
        <ele>678.8</ele>
        <time>2020-11-16T08:49:27Z</time>
      </trkpt>
      <trkpt lat="28.7381050" lon="-17.7605620">
        <ele>679.0</ele>
        <time>2020-11-16T08:49:28Z</time>
      </trkpt>
      <trkpt lat="28.7381050" lon="-17.7605620">
        <ele>679.0</ele>
        <time>2020-11-16T08:49:29Z</time>
      </trkpt>
      <trkpt lat="28.7381400" lon="-17.7605730">
        <ele>679.2</ele>
        <time>2020-11-16T08:49:30Z</time>
      </trkpt>
      <trkpt lat="28.7381400" lon="-17.7605730">
        <ele>679.2</ele>
        <time>2020-11-16T08:49:31Z</time>
      </trkpt>
      <trkpt lat="28.7381850" lon="-17.7605800">
        <ele>679.4</ele>
        <time>2020-11-16T08:49:32Z</time>
      </trkpt>
      <trkpt lat="28.7381850" lon="-17.7605800">
        <ele>679.4</ele>
        <time>2020-11-16T08:49:33Z</time>
      </trkpt>
      <trkpt lat="28.7382300" lon="-17.7605650">
        <ele>679.7</ele>
        <time>2020-11-16T08:49:34Z</time>
      </trkpt>
      <trkpt lat="28.7382520" lon="-17.7605570">
        <ele>679.9</ele>
        <time>2020-11-16T08:49:35Z</time>
      </trkpt>
      <trkpt lat="28.7382520" lon="-17.7605570">
        <ele>679.9</ele>
        <time>2020-11-16T08:49:36Z</time>
      </trkpt>
      <trkpt lat="28.7382730" lon="-17.7605420">
        <ele>680.0</ele>
        <time>2020-11-16T08:49:37Z</time>
      </trkpt>
      <trkpt lat="28.7382880" lon="-17.7605280">
        <ele>680.1</ele>
        <time>2020-11-16T08:49:38Z</time>
      </trkpt>
      <trkpt lat="28.7382880" lon="-17.7605280">
        <ele>680.1</ele>
        <time>2020-11-16T08:49:39Z</time>
      </trkpt>
      <trkpt lat="28.7383100" lon="-17.7604970">
        <ele>680.4</ele>
        <time>2020-11-16T08:49:40Z</time>
      </trkpt>
      <trkpt lat="28.7383100" lon="-17.7604970">
        <ele>680.4</ele>
        <time>2020-11-16T08:49:41Z</time>
      </trkpt>
      <trkpt lat="28.7383280" lon="-17.7604500">
        <ele>680.6</ele>
        <time>2020-11-16T08:49:42Z</time>
      </trkpt>
      <trkpt lat="28.7383280" lon="-17.7604500">
        <ele>680.6</ele>
        <time>2020-11-16T08:49:43Z</time>
      </trkpt>
      <trkpt lat="28.7383370" lon="-17.7604100">
        <ele>680.8</ele>
        <time>2020-11-16T08:49:44Z</time>
      </trkpt>
      <trkpt lat="28.7383370" lon="-17.7604100">
        <ele>680.8</ele>
        <time>2020-11-16T08:49:45Z</time>
      </trkpt>
      <trkpt lat="28.7383430" lon="-17.7603630">
        <ele>681.1</ele>
        <time>2020-11-16T08:49:46Z</time>
      </trkpt>
      <trkpt lat="28.7383430" lon="-17.7603630">
        <ele>681.1</ele>
        <time>2020-11-16T08:49:47Z</time>
      </trkpt>
      <trkpt lat="28.7383520" lon="-17.7603220">
        <ele>681.3</ele>
        <time>2020-11-16T08:49:48Z</time>
      </trkpt>
      <trkpt lat="28.7383520" lon="-17.7603220">
        <ele>681.3</ele>
        <time>2020-11-16T08:49:49Z</time>
      </trkpt>
      <trkpt lat="28.7383620" lon="-17.7602820">
        <ele>681.5</ele>
        <time>2020-11-16T08:49:50Z</time>
      </trkpt>
      <trkpt lat="28.7383620" lon="-17.7602820">
        <ele>681.5</ele>
        <time>2020-11-16T08:49:51Z</time>
      </trkpt>
      <trkpt lat="28.7383680" lon="-17.7602470">
        <ele>681.7</ele>
        <time>2020-11-16T08:49:52Z</time>
      </trkpt>
      <trkpt lat="28.7383680" lon="-17.7602470">
        <ele>681.7</ele>
        <time>2020-11-16T08:49:53Z</time>
      </trkpt>
      <trkpt lat="28.7383700" lon="-17.7602080">
        <ele>682.0</ele>
        <time>2020-11-16T08:49:54Z</time>
      </trkpt>
      <trkpt lat="28.7383650" lon="-17.7601870">
        <ele>682.1</ele>
        <time>2020-11-16T08:49:55Z</time>
      </trkpt>
      <trkpt lat="28.7383650" lon="-17.7601870">
        <ele>682.1</ele>
        <time>2020-11-16T08:49:56Z</time>
      </trkpt>
      <trkpt lat="28.7383580" lon="-17.7601320">
        <ele>682.5</ele>
        <time>2020-11-16T08:49:57Z</time>
      </trkpt>
      <trkpt lat="28.7383530" lon="-17.7601100">
        <ele>682.7</ele>
        <time>2020-11-16T08:49:58Z</time>
      </trkpt>
      <trkpt lat="28.7383530" lon="-17.7601100">
        <ele>682.7</ele>
        <time>2020-11-16T08:49:59Z</time>
      </trkpt>
      <trkpt lat="28.7383400" lon="-17.7600780">
        <ele>682.9</ele>
        <time>2020-11-16T08:50:00Z</time>
      </trkpt>
      <trkpt lat="28.7383350" lon="-17.7600630">
        <ele>683.0</ele>
        <time>2020-11-16T08:50:01Z</time>
      </trkpt>
      <trkpt lat="28.7383220" lon="-17.7600450">
        <ele>683.1</ele>
        <time>2020-11-16T08:50:02Z</time>
      </trkpt>
      <trkpt lat="28.7383220" lon="-17.7600450">
        <ele>683.1</ele>
        <time>2020-11-16T08:50:03Z</time>
      </trkpt>
      <trkpt lat="28.7383000" lon="-17.7600120">
        <ele>683.4</ele>
        <time>2020-11-16T08:50:04Z</time>
      </trkpt>
      <trkpt lat="28.7382920" lon="-17.7599930">
        <ele>683.5</ele>
        <time>2020-11-16T08:50:05Z</time>
      </trkpt>
      <trkpt lat="28.7382820" lon="-17.7599770">
        <ele>683.7</ele>
        <time>2020-11-16T08:50:06Z</time>
      </trkpt>
      <trkpt lat="28.7382820" lon="-17.7599770">
        <ele>683.7</ele>
        <time>2020-11-16T08:50:07Z</time>
      </trkpt>
      <trkpt lat="28.7382550" lon="-17.7599500">
        <ele>683.9</ele>
        <time>2020-11-16T08:50:08Z</time>
      </trkpt>
      <trkpt lat="28.7382550" lon="-17.7599500">
        <ele>683.9</ele>
        <time>2020-11-16T08:50:09Z</time>
      </trkpt>
      <trkpt lat="28.7382320" lon="-17.7599200">
        <ele>684.2</ele>
        <time>2020-11-16T08:50:10Z</time>
      </trkpt>
      <trkpt lat="28.7382320" lon="-17.7599200">
        <ele>684.2</ele>
        <time>2020-11-16T08:50:11Z</time>
      </trkpt>
      <trkpt lat="28.7382020" lon="-17.7598920">
        <ele>684.5</ele>
        <time>2020-11-16T08:50:12Z</time>
      </trkpt>
      <trkpt lat="28.7381850" lon="-17.7598780">
        <ele>684.6</ele>
        <time>2020-11-16T08:50:13Z</time>
      </trkpt>
      <trkpt lat="28.7381850" lon="-17.7598780">
        <ele>684.6</ele>
        <time>2020-11-16T08:50:14Z</time>
      </trkpt>
      <trkpt lat="28.7381530" lon="-17.7598520">
        <ele>684.9</ele>
        <time>2020-11-16T08:50:15Z</time>
      </trkpt>
      <trkpt lat="28.7381380" lon="-17.7598330">
        <ele>685.1</ele>
        <time>2020-11-16T08:50:16Z</time>
      </trkpt>
      <trkpt lat="28.7381380" lon="-17.7598330">
        <ele>685.1</ele>
        <time>2020-11-16T08:50:17Z</time>
      </trkpt>
      <trkpt lat="28.7381130" lon="-17.7597920">
        <ele>685.5</ele>
        <time>2020-11-16T08:50:18Z</time>
      </trkpt>
      <trkpt lat="28.7381130" lon="-17.7597920">
        <ele>685.5</ele>
        <time>2020-11-16T08:50:19Z</time>
      </trkpt>
      <trkpt lat="28.7381020" lon="-17.7597380">
        <ele>685.8</ele>
        <time>2020-11-16T08:50:20Z</time>
      </trkpt>
      <trkpt lat="28.7381030" lon="-17.7597120">
        <ele>686.0</ele>
        <time>2020-11-16T08:50:21Z</time>
      </trkpt>
      <trkpt lat="28.7381030" lon="-17.7597120">
        <ele>686.0</ele>
        <time>2020-11-16T08:50:22Z</time>
      </trkpt>
      <trkpt lat="28.7381150" lon="-17.7596680">
        <ele>686.4</ele>
        <time>2020-11-16T08:50:23Z</time>
      </trkpt>
      <trkpt lat="28.7381150" lon="-17.7596680">
        <ele>686.4</ele>
        <time>2020-11-16T08:50:24Z</time>
      </trkpt>
      <trkpt lat="28.7381350" lon="-17.7596280">
        <ele>686.7</ele>
        <time>2020-11-16T08:50:25Z</time>
      </trkpt>
      <trkpt lat="28.7381350" lon="-17.7596280">
        <ele>686.7</ele>
        <time>2020-11-16T08:50:26Z</time>
      </trkpt>
      <trkpt lat="28.7381580" lon="-17.7595970">
        <ele>687.0</ele>
        <time>2020-11-16T08:50:27Z</time>
      </trkpt>
      <trkpt lat="28.7381580" lon="-17.7595970">
        <ele>687.0</ele>
        <time>2020-11-16T08:50:28Z</time>
      </trkpt>
      <trkpt lat="28.7381680" lon="-17.7595780">
        <ele>687.1</ele>
        <time>2020-11-16T08:50:29Z</time>
      </trkpt>
      <trkpt lat="28.7381680" lon="-17.7595780">
        <ele>687.1</ele>
        <time>2020-11-16T08:50:30Z</time>
      </trkpt>
      <trkpt lat="28.7381650" lon="-17.7595780">
        <ele>687.2</ele>
        <time>2020-11-16T08:50:31Z</time>
      </trkpt>
      <trkpt lat="28.7381650" lon="-17.7595780">
        <ele>687.2</ele>
        <time>2020-11-16T08:50:32Z</time>
      </trkpt>
      <trkpt lat="28.7381650" lon="-17.7595780">
        <ele>687.2</ele>
        <time>2020-11-16T08:50:33Z</time>
      </trkpt>
      <trkpt lat="28.7381650" lon="-17.7595780">
        <ele>687.2</ele>
        <time>2020-11-16T08:50:34Z</time>
      </trkpt>
      <trkpt lat="28.7382120" lon="-17.7595480">
        <ele>687.6</ele>
        <time>2020-11-16T08:53:53Z</time>
      </trkpt>
      <trkpt lat="28.7382120" lon="-17.7595480">
        <ele>687.6</ele>
        <time>2020-11-16T08:53:54Z</time>
      </trkpt>
      <trkpt lat="28.7382400" lon="-17.7595280">
        <ele>687.8</ele>
        <time>2020-11-16T08:53:55Z</time>
      </trkpt>
      <trkpt lat="28.7382400" lon="-17.7595280">
        <ele>687.8</ele>
        <time>2020-11-16T08:53:56Z</time>
      </trkpt>
      <trkpt lat="28.7382750" lon="-17.7595220">
        <ele>688.0</ele>
        <time>2020-11-16T08:53:57Z</time>
      </trkpt>
      <trkpt lat="28.7382750" lon="-17.7595220">
        <ele>688.0</ele>
        <time>2020-11-16T08:53:58Z</time>
      </trkpt>
      <trkpt lat="28.7383050" lon="-17.7595020">
        <ele>688.3</ele>
        <time>2020-11-16T08:53:59Z</time>
      </trkpt>
      <trkpt lat="28.7383050" lon="-17.7595020">
        <ele>688.3</ele>
        <time>2020-11-16T08:54:00Z</time>
      </trkpt>
      <trkpt lat="28.7383350" lon="-17.7594750">
        <ele>688.5</ele>
        <time>2020-11-16T08:54:01Z</time>
      </trkpt>
      <trkpt lat="28.7383500" lon="-17.7594630">
        <ele>688.7</ele>
        <time>2020-11-16T08:54:02Z</time>
      </trkpt>
      <trkpt lat="28.7383500" lon="-17.7594630">
        <ele>688.7</ele>
        <time>2020-11-16T08:54:03Z</time>
      </trkpt>
      <trkpt lat="28.7383820" lon="-17.7594420">
        <ele>688.9</ele>
        <time>2020-11-16T08:54:04Z</time>
      </trkpt>
      <trkpt lat="28.7383820" lon="-17.7594420">
        <ele>688.9</ele>
        <time>2020-11-16T08:54:05Z</time>
      </trkpt>
      <trkpt lat="28.7384050" lon="-17.7594150">
        <ele>689.1</ele>
        <time>2020-11-16T08:54:06Z</time>
      </trkpt>
      <trkpt lat="28.7384130" lon="-17.7594030">
        <ele>689.2</ele>
        <time>2020-11-16T08:54:07Z</time>
      </trkpt>
      <trkpt lat="28.7384130" lon="-17.7594030">
        <ele>689.2</ele>
        <time>2020-11-16T08:54:08Z</time>
      </trkpt>
      <trkpt lat="28.7384380" lon="-17.7593850">
        <ele>689.5</ele>
        <time>2020-11-16T08:54:09Z</time>
      </trkpt>
      <trkpt lat="28.7384550" lon="-17.7593770">
        <ele>689.6</ele>
        <time>2020-11-16T08:54:10Z</time>
      </trkpt>
      <trkpt lat="28.7384550" lon="-17.7593770">
        <ele>689.6</ele>
        <time>2020-11-16T08:54:11Z</time>
      </trkpt>
      <trkpt lat="28.7384900" lon="-17.7593620">
        <ele>689.9</ele>
        <time>2020-11-16T08:54:12Z</time>
      </trkpt>
      <trkpt lat="28.7385070" lon="-17.7593570">
        <ele>690.0</ele>
        <time>2020-11-16T08:54:13Z</time>
      </trkpt>
      <trkpt lat="28.7385250" lon="-17.7593520">
        <ele>690.2</ele>
        <time>2020-11-16T08:54:14Z</time>
      </trkpt>
      <trkpt lat="28.7385250" lon="-17.7593520">
        <ele>690.2</ele>
        <time>2020-11-16T08:54:15Z</time>
      </trkpt>
      <trkpt lat="28.7385550" lon="-17.7593500">
        <ele>690.4</ele>
        <time>2020-11-16T08:54:16Z</time>
      </trkpt>
      <trkpt lat="28.7385700" lon="-17.7593500">
        <ele>690.5</ele>
        <time>2020-11-16T08:54:17Z</time>
      </trkpt>
      <trkpt lat="28.7385700" lon="-17.7593500">
        <ele>690.5</ele>
        <time>2020-11-16T08:54:18Z</time>
      </trkpt>
      <trkpt lat="28.7386030" lon="-17.7593570">
        <ele>690.8</ele>
        <time>2020-11-16T08:54:19Z</time>
      </trkpt>
      <trkpt lat="28.7386200" lon="-17.7593570">
        <ele>690.9</ele>
        <time>2020-11-16T08:54:20Z</time>
      </trkpt>
      <trkpt lat="28.7386200" lon="-17.7593570">
        <ele>690.9</ele>
        <time>2020-11-16T08:54:21Z</time>
      </trkpt>
      <trkpt lat="28.7386530" lon="-17.7593670">
        <ele>691.2</ele>
        <time>2020-11-16T08:54:22Z</time>
      </trkpt>
      <trkpt lat="28.7386530" lon="-17.7593670">
        <ele>691.2</ele>
        <time>2020-11-16T08:54:23Z</time>
      </trkpt>
      <trkpt lat="28.7386830" lon="-17.7593730">
        <ele>691.4</ele>
        <time>2020-11-16T08:54:24Z</time>
      </trkpt>
      <trkpt lat="28.7386830" lon="-17.7593730">
        <ele>691.4</ele>
        <time>2020-11-16T08:54:25Z</time>
      </trkpt>
      <trkpt lat="28.7387120" lon="-17.7593750">
        <ele>691.7</ele>
        <time>2020-11-16T08:54:26Z</time>
      </trkpt>
      <trkpt lat="28.7387120" lon="-17.7593750">
        <ele>691.7</ele>
        <time>2020-11-16T08:54:27Z</time>
      </trkpt>
      <trkpt lat="28.7387450" lon="-17.7593850">
        <ele>691.9</ele>
        <time>2020-11-16T08:54:28Z</time>
      </trkpt>
      <trkpt lat="28.7387630" lon="-17.7593920">
        <ele>692.1</ele>
        <time>2020-11-16T08:54:29Z</time>
      </trkpt>
      <trkpt lat="28.7387820" lon="-17.7594000">
        <ele>692.2</ele>
        <time>2020-11-16T08:54:30Z</time>
      </trkpt>
      <trkpt lat="28.7387820" lon="-17.7594000">
        <ele>692.2</ele>
        <time>2020-11-16T08:54:31Z</time>
      </trkpt>
      <trkpt lat="28.7388100" lon="-17.7594180">
        <ele>692.4</ele>
        <time>2020-11-16T08:54:32Z</time>
      </trkpt>
      <trkpt lat="28.7388100" lon="-17.7594180">
        <ele>692.4</ele>
        <time>2020-11-16T08:54:33Z</time>
      </trkpt>
      <trkpt lat="28.7388420" lon="-17.7594400">
        <ele>692.7</ele>
        <time>2020-11-16T08:54:34Z</time>
      </trkpt>
      <trkpt lat="28.7388420" lon="-17.7594400">
        <ele>692.7</ele>
        <time>2020-11-16T08:54:35Z</time>
      </trkpt>
      <trkpt lat="28.7388730" lon="-17.7594570">
        <ele>692.9</ele>
        <time>2020-11-16T08:54:36Z</time>
      </trkpt>
      <trkpt lat="28.7388730" lon="-17.7594570">
        <ele>692.9</ele>
        <time>2020-11-16T08:54:37Z</time>
      </trkpt>
      <trkpt lat="28.7389050" lon="-17.7594720">
        <ele>693.1</ele>
        <time>2020-11-16T08:54:38Z</time>
      </trkpt>
      <trkpt lat="28.7389050" lon="-17.7594720">
        <ele>693.1</ele>
        <time>2020-11-16T08:54:39Z</time>
      </trkpt>
      <trkpt lat="28.7389380" lon="-17.7594850">
        <ele>693.3</ele>
        <time>2020-11-16T08:54:40Z</time>
      </trkpt>
      <trkpt lat="28.7389530" lon="-17.7594900">
        <ele>693.4</ele>
        <time>2020-11-16T08:54:41Z</time>
      </trkpt>
      <trkpt lat="28.7389530" lon="-17.7594900">
        <ele>693.4</ele>
        <time>2020-11-16T08:54:42Z</time>
      </trkpt>
      <trkpt lat="28.7389900" lon="-17.7594970">
        <ele>693.6</ele>
        <time>2020-11-16T08:54:43Z</time>
      </trkpt>
      <trkpt lat="28.7390100" lon="-17.7594980">
        <ele>693.7</ele>
        <time>2020-11-16T08:54:44Z</time>
      </trkpt>
      <trkpt lat="28.7390100" lon="-17.7594980">
        <ele>693.7</ele>
        <time>2020-11-16T08:54:45Z</time>
      </trkpt>
      <trkpt lat="28.7390480" lon="-17.7594970">
        <ele>693.9</ele>
        <time>2020-11-16T08:54:46Z</time>
      </trkpt>
      <trkpt lat="28.7390480" lon="-17.7594970">
        <ele>693.9</ele>
        <time>2020-11-16T08:54:47Z</time>
      </trkpt>
      <trkpt lat="28.7390880" lon="-17.7595000">
        <ele>694.1</ele>
        <time>2020-11-16T08:54:48Z</time>
      </trkpt>
      <trkpt lat="28.7391070" lon="-17.7595020">
        <ele>694.2</ele>
        <time>2020-11-16T08:54:49Z</time>
      </trkpt>
      <trkpt lat="28.7391070" lon="-17.7595020">
        <ele>694.2</ele>
        <time>2020-11-16T08:54:50Z</time>
      </trkpt>
      <trkpt lat="28.7391520" lon="-17.7594970">
        <ele>694.3</ele>
        <time>2020-11-16T08:54:51Z</time>
      </trkpt>
      <trkpt lat="28.7391680" lon="-17.7594970">
        <ele>694.4</ele>
        <time>2020-11-16T08:54:52Z</time>
      </trkpt>
      <trkpt lat="28.7391680" lon="-17.7594970">
        <ele>694.4</ele>
        <time>2020-11-16T08:54:53Z</time>
      </trkpt>
      <trkpt lat="28.7392000" lon="-17.7594970">
        <ele>694.5</ele>
        <time>2020-11-16T08:54:54Z</time>
      </trkpt>
      <trkpt lat="28.7392000" lon="-17.7594970">
        <ele>694.5</ele>
        <time>2020-11-16T08:54:55Z</time>
      </trkpt>
      <trkpt lat="28.7392450" lon="-17.7594900">
        <ele>694.7</ele>
        <time>2020-11-16T08:54:56Z</time>
      </trkpt>
      <trkpt lat="28.7392450" lon="-17.7594900">
        <ele>694.7</ele>
        <time>2020-11-16T08:54:57Z</time>
      </trkpt>
      <trkpt lat="28.7392800" lon="-17.7594870">
        <ele>694.8</ele>
        <time>2020-11-16T08:54:58Z</time>
      </trkpt>
      <trkpt lat="28.7393030" lon="-17.7594830">
        <ele>694.9</ele>
        <time>2020-11-16T08:54:59Z</time>
      </trkpt>
      <trkpt lat="28.7393030" lon="-17.7594830">
        <ele>694.9</ele>
        <time>2020-11-16T08:55:00Z</time>
      </trkpt>
      <trkpt lat="28.7393400" lon="-17.7594830">
        <ele>695.1</ele>
        <time>2020-11-16T08:55:01Z</time>
      </trkpt>
      <trkpt lat="28.7393580" lon="-17.7594830">
        <ele>695.1</ele>
        <time>2020-11-16T08:55:02Z</time>
      </trkpt>
      <trkpt lat="28.7393580" lon="-17.7594830">
        <ele>695.1</ele>
        <time>2020-11-16T08:55:03Z</time>
      </trkpt>
      <trkpt lat="28.7393980" lon="-17.7594800">
        <ele>695.3</ele>
        <time>2020-11-16T08:55:04Z</time>
      </trkpt>
      <trkpt lat="28.7394170" lon="-17.7594800">
        <ele>695.3</ele>
        <time>2020-11-16T08:55:05Z</time>
      </trkpt>
      <trkpt lat="28.7394170" lon="-17.7594800">
        <ele>695.3</ele>
        <time>2020-11-16T08:55:06Z</time>
      </trkpt>
      <trkpt lat="28.7394620" lon="-17.7594780">
        <ele>695.4</ele>
        <time>2020-11-16T08:55:07Z</time>
      </trkpt>
      <trkpt lat="28.7394830" lon="-17.7594780">
        <ele>695.5</ele>
        <time>2020-11-16T08:55:08Z</time>
      </trkpt>
      <trkpt lat="28.7394830" lon="-17.7594780">
        <ele>695.5</ele>
        <time>2020-11-16T08:55:09Z</time>
      </trkpt>
      <trkpt lat="28.7395280" lon="-17.7594750">
        <ele>695.6</ele>
        <time>2020-11-16T08:55:10Z</time>
      </trkpt>
      <trkpt lat="28.7395280" lon="-17.7594750">
        <ele>695.6</ele>
        <time>2020-11-16T08:55:11Z</time>
      </trkpt>
      <trkpt lat="28.7395600" lon="-17.7594720">
        <ele>695.7</ele>
        <time>2020-11-16T08:55:12Z</time>
      </trkpt>
      <trkpt lat="28.7395780" lon="-17.7594680">
        <ele>695.8</ele>
        <time>2020-11-16T08:55:13Z</time>
      </trkpt>
      <trkpt lat="28.7395780" lon="-17.7594680">
        <ele>695.8</ele>
        <time>2020-11-16T08:55:14Z</time>
      </trkpt>
      <trkpt lat="28.7396230" lon="-17.7594600">
        <ele>696.0</ele>
        <time>2020-11-16T08:55:15Z</time>
      </trkpt>
      <trkpt lat="28.7396230" lon="-17.7594600">
        <ele>696.0</ele>
        <time>2020-11-16T08:55:16Z</time>
      </trkpt>
      <trkpt lat="28.7396680" lon="-17.7594520">
        <ele>696.1</ele>
        <time>2020-11-16T08:55:17Z</time>
      </trkpt>
      <trkpt lat="28.7396680" lon="-17.7594520">
        <ele>696.1</ele>
        <time>2020-11-16T08:55:18Z</time>
      </trkpt>
      <trkpt lat="28.7397120" lon="-17.7594400">
        <ele>696.3</ele>
        <time>2020-11-16T08:55:19Z</time>
      </trkpt>
      <trkpt lat="28.7397280" lon="-17.7594380">
        <ele>696.4</ele>
        <time>2020-11-16T08:55:20Z</time>
      </trkpt>
      <trkpt lat="28.7397280" lon="-17.7594380">
        <ele>696.4</ele>
        <time>2020-11-16T08:55:21Z</time>
      </trkpt>
      <trkpt lat="28.7397650" lon="-17.7594320">
        <ele>696.6</ele>
        <time>2020-11-16T08:55:22Z</time>
      </trkpt>
      <trkpt lat="28.7397650" lon="-17.7594320">
        <ele>696.6</ele>
        <time>2020-11-16T08:55:23Z</time>
      </trkpt>
      <trkpt lat="28.7398070" lon="-17.7594350">
        <ele>696.8</ele>
        <time>2020-11-16T08:55:24Z</time>
      </trkpt>
      <trkpt lat="28.7398070" lon="-17.7594350">
        <ele>696.8</ele>
        <time>2020-11-16T08:55:25Z</time>
      </trkpt>
      <trkpt lat="28.7398430" lon="-17.7594470">
        <ele>697.0</ele>
        <time>2020-11-16T08:55:26Z</time>
      </trkpt>
      <trkpt lat="28.7398430" lon="-17.7594470">
        <ele>697.0</ele>
        <time>2020-11-16T08:55:27Z</time>
      </trkpt>
      <trkpt lat="28.7398730" lon="-17.7594750">
        <ele>697.2</ele>
        <time>2020-11-16T08:55:28Z</time>
      </trkpt>
      <trkpt lat="28.7398880" lon="-17.7594870">
        <ele>697.3</ele>
        <time>2020-11-16T08:55:29Z</time>
      </trkpt>
      <trkpt lat="28.7398880" lon="-17.7594870">
        <ele>697.3</ele>
        <time>2020-11-16T08:55:30Z</time>
      </trkpt>
      <trkpt lat="28.7399020" lon="-17.7595200">
        <ele>697.5</ele>
        <time>2020-11-16T08:55:31Z</time>
      </trkpt>
      <trkpt lat="28.7399050" lon="-17.7595330">
        <ele>697.6</ele>
        <time>2020-11-16T08:55:32Z</time>
      </trkpt>
      <trkpt lat="28.7399050" lon="-17.7595330">
        <ele>697.6</ele>
        <time>2020-11-16T08:55:33Z</time>
      </trkpt>
      <trkpt lat="28.7398950" lon="-17.7595630">
        <ele>697.8</ele>
        <time>2020-11-16T08:55:34Z</time>
      </trkpt>
      <trkpt lat="28.7398950" lon="-17.7595630">
        <ele>697.8</ele>
        <time>2020-11-16T08:55:35Z</time>
      </trkpt>
      <trkpt lat="28.7398800" lon="-17.7596000">
        <ele>698.1</ele>
        <time>2020-11-16T08:55:36Z</time>
      </trkpt>
      <trkpt lat="28.7398800" lon="-17.7596000">
        <ele>698.1</ele>
        <time>2020-11-16T08:55:37Z</time>
      </trkpt>
      <trkpt lat="28.7398600" lon="-17.7596280">
        <ele>698.3</ele>
        <time>2020-11-16T08:55:38Z</time>
      </trkpt>
      <trkpt lat="28.7398600" lon="-17.7596280">
        <ele>698.3</ele>
        <time>2020-11-16T08:55:39Z</time>
      </trkpt>
      <trkpt lat="28.7398380" lon="-17.7596570">
        <ele>698.6</ele>
        <time>2020-11-16T08:55:40Z</time>
      </trkpt>
      <trkpt lat="28.7398300" lon="-17.7596720">
        <ele>699.0</ele>
        <time>2020-11-16T08:55:41Z</time>
      </trkpt>
      <trkpt lat="28.7398300" lon="-17.7596720">
        <ele>699.0</ele>
        <time>2020-11-16T08:55:42Z</time>
      </trkpt>
      <trkpt lat="28.7398070" lon="-17.7596950">
        <ele>699.3</ele>
        <time>2020-11-16T08:55:43Z</time>
      </trkpt>
      <trkpt lat="28.7398070" lon="-17.7596950">
        <ele>699.3</ele>
        <time>2020-11-16T08:55:44Z</time>
      </trkpt>
      <trkpt lat="28.7397880" lon="-17.7597170">
        <ele>699.6</ele>
        <time>2020-11-16T08:55:45Z</time>
      </trkpt>
      <trkpt lat="28.7397880" lon="-17.7597170">
        <ele>699.6</ele>
        <time>2020-11-16T08:55:46Z</time>
      </trkpt>
      <trkpt lat="28.7397750" lon="-17.7597500">
        <ele>700.0</ele>
        <time>2020-11-16T08:55:47Z</time>
      </trkpt>
      <trkpt lat="28.7397750" lon="-17.7597500">
        <ele>700.0</ele>
        <time>2020-11-16T08:55:48Z</time>
      </trkpt>
      <trkpt lat="28.7397620" lon="-17.7597830">
        <ele>700.4</ele>
        <time>2020-11-16T08:55:49Z</time>
      </trkpt>
      <trkpt lat="28.7397530" lon="-17.7597980">
        <ele>700.6</ele>
        <time>2020-11-16T08:55:50Z</time>
      </trkpt>
      <trkpt lat="28.7397530" lon="-17.7597980">
        <ele>700.6</ele>
        <time>2020-11-16T08:55:51Z</time>
      </trkpt>
      <trkpt lat="28.7397400" lon="-17.7598250">
        <ele>700.9</ele>
        <time>2020-11-16T08:55:52Z</time>
      </trkpt>
      <trkpt lat="28.7397380" lon="-17.7598370">
        <ele>701.0</ele>
        <time>2020-11-16T08:55:53Z</time>
      </trkpt>
      <trkpt lat="28.7397380" lon="-17.7598370">
        <ele>701.0</ele>
        <time>2020-11-16T08:55:54Z</time>
      </trkpt>
      <trkpt lat="28.7397380" lon="-17.7598380">
        <ele>701.0</ele>
        <time>2020-11-16T08:55:55Z</time>
      </trkpt>
      <trkpt lat="28.7397380" lon="-17.7598380">
        <ele>701.0</ele>
        <time>2020-11-16T08:55:56Z</time>
      </trkpt>
      <trkpt lat="28.7397380" lon="-17.7598380">
        <ele>701.0</ele>
        <time>2020-11-16T08:55:57Z</time>
      </trkpt>
      <trkpt lat="28.7397380" lon="-17.7598380">
        <ele>701.0</ele>
        <time>2020-11-16T08:55:58Z</time>
      </trkpt>
      <trkpt lat="28.7397170" lon="-17.7598900">
        <ele>701.6</ele>
        <time>2020-11-16T08:56:02Z</time>
      </trkpt>
      <trkpt lat="28.7397080" lon="-17.7599070">
        <ele>701.8</ele>
        <time>2020-11-16T08:56:03Z</time>
      </trkpt>
      <trkpt lat="28.7396970" lon="-17.7599220">
        <ele>701.9</ele>
        <time>2020-11-16T08:56:04Z</time>
      </trkpt>
      <trkpt lat="28.7396970" lon="-17.7599220">
        <ele>701.9</ele>
        <time>2020-11-16T08:56:05Z</time>
      </trkpt>
      <trkpt lat="28.7396820" lon="-17.7599550">
        <ele>702.3</ele>
        <time>2020-11-16T08:56:06Z</time>
      </trkpt>
      <trkpt lat="28.7396820" lon="-17.7599550">
        <ele>702.3</ele>
        <time>2020-11-16T08:56:07Z</time>
      </trkpt>
      <trkpt lat="28.7396700" lon="-17.7599850">
        <ele>702.7</ele>
        <time>2020-11-16T08:56:08Z</time>
      </trkpt>
      <trkpt lat="28.7396700" lon="-17.7599850">
        <ele>702.7</ele>
        <time>2020-11-16T08:56:09Z</time>
      </trkpt>
      <trkpt lat="28.7396570" lon="-17.7600180">
        <ele>703.0</ele>
        <time>2020-11-16T08:56:10Z</time>
      </trkpt>
      <trkpt lat="28.7396570" lon="-17.7600180">
        <ele>703.0</ele>
        <time>2020-11-16T08:56:11Z</time>
      </trkpt>
      <trkpt lat="28.7396420" lon="-17.7600530">
        <ele>703.4</ele>
        <time>2020-11-16T08:56:12Z</time>
      </trkpt>
      <trkpt lat="28.7396420" lon="-17.7600530">
        <ele>703.4</ele>
        <time>2020-11-16T08:56:13Z</time>
      </trkpt>
      <trkpt lat="28.7396280" lon="-17.7600920">
        <ele>703.8</ele>
        <time>2020-11-16T08:56:14Z</time>
      </trkpt>
      <trkpt lat="28.7396280" lon="-17.7600920">
        <ele>703.8</ele>
        <time>2020-11-16T08:56:15Z</time>
      </trkpt>
      <trkpt lat="28.7396120" lon="-17.7601270">
        <ele>704.2</ele>
        <time>2020-11-16T08:56:16Z</time>
      </trkpt>
      <trkpt lat="28.7396120" lon="-17.7601270">
        <ele>704.2</ele>
        <time>2020-11-16T08:56:17Z</time>
      </trkpt>
      <trkpt lat="28.7395930" lon="-17.7601620">
        <ele>704.6</ele>
        <time>2020-11-16T08:56:18Z</time>
      </trkpt>
      <trkpt lat="28.7395800" lon="-17.7601780">
        <ele>704.9</ele>
        <time>2020-11-16T08:56:19Z</time>
      </trkpt>
      <trkpt lat="28.7395720" lon="-17.7602000">
        <ele>705.1</ele>
        <time>2020-11-16T08:56:20Z</time>
      </trkpt>
      <trkpt lat="28.7395720" lon="-17.7602000">
        <ele>705.1</ele>
        <time>2020-11-16T08:56:21Z</time>
      </trkpt>
      <trkpt lat="28.7395520" lon="-17.7602350">
        <ele>705.5</ele>
        <time>2020-11-16T08:56:22Z</time>
      </trkpt>
      <trkpt lat="28.7395520" lon="-17.7602350">
        <ele>705.5</ele>
        <time>2020-11-16T08:56:23Z</time>
      </trkpt>
      <trkpt lat="28.7395300" lon="-17.7602650">
        <ele>705.9</ele>
        <time>2020-11-16T08:56:24Z</time>
      </trkpt>
      <trkpt lat="28.7395180" lon="-17.7602830">
        <ele>706.1</ele>
        <time>2020-11-16T08:56:25Z</time>
      </trkpt>
      <trkpt lat="28.7395070" lon="-17.7603000">
        <ele>706.4</ele>
        <time>2020-11-16T08:56:26Z</time>
      </trkpt>
      <trkpt lat="28.7395070" lon="-17.7603000">
        <ele>706.4</ele>
        <time>2020-11-16T08:56:27Z</time>
      </trkpt>
      <trkpt lat="28.7394870" lon="-17.7603370">
        <ele>706.8</ele>
        <time>2020-11-16T08:56:28Z</time>
      </trkpt>
      <trkpt lat="28.7394870" lon="-17.7603370">
        <ele>706.8</ele>
        <time>2020-11-16T08:56:29Z</time>
      </trkpt>
      <trkpt lat="28.7394630" lon="-17.7603680">
        <ele>707.3</ele>
        <time>2020-11-16T08:56:30Z</time>
      </trkpt>
      <trkpt lat="28.7394630" lon="-17.7603680">
        <ele>707.3</ele>
        <time>2020-11-16T08:56:31Z</time>
      </trkpt>
      <trkpt lat="28.7394500" lon="-17.7604100">
        <ele>707.8</ele>
        <time>2020-11-16T08:56:32Z</time>
      </trkpt>
      <trkpt lat="28.7394500" lon="-17.7604100">
        <ele>707.8</ele>
        <time>2020-11-16T08:56:33Z</time>
      </trkpt>
      <trkpt lat="28.7394330" lon="-17.7604470">
        <ele>708.3</ele>
        <time>2020-11-16T08:56:34Z</time>
      </trkpt>
      <trkpt lat="28.7394200" lon="-17.7604600">
        <ele>708.5</ele>
        <time>2020-11-16T08:56:35Z</time>
      </trkpt>
      <trkpt lat="28.7394200" lon="-17.7604600">
        <ele>708.5</ele>
        <time>2020-11-16T08:56:36Z</time>
      </trkpt>
      <trkpt lat="28.7393930" lon="-17.7604920">
        <ele>709.0</ele>
        <time>2020-11-16T08:56:37Z</time>
      </trkpt>
      <trkpt lat="28.7393800" lon="-17.7605100">
        <ele>709.3</ele>
        <time>2020-11-16T08:56:38Z</time>
      </trkpt>
      <trkpt lat="28.7393800" lon="-17.7605100">
        <ele>709.3</ele>
        <time>2020-11-16T08:56:39Z</time>
      </trkpt>
      <trkpt lat="28.7393600" lon="-17.7605370">
        <ele>709.8</ele>
        <time>2020-11-16T08:56:40Z</time>
      </trkpt>
      <trkpt lat="28.7393600" lon="-17.7605370">
        <ele>709.8</ele>
        <time>2020-11-16T08:56:41Z</time>
      </trkpt>
      <trkpt lat="28.7393370" lon="-17.7605630">
        <ele>710.2</ele>
        <time>2020-11-16T08:56:42Z</time>
      </trkpt>
      <trkpt lat="28.7393370" lon="-17.7605630">
        <ele>710.2</ele>
        <time>2020-11-16T08:56:43Z</time>
      </trkpt>
      <trkpt lat="28.7393200" lon="-17.7605900">
        <ele>710.7</ele>
        <time>2020-11-16T08:56:44Z</time>
      </trkpt>
      <trkpt lat="28.7393200" lon="-17.7605900">
        <ele>710.7</ele>
        <time>2020-11-16T08:56:45Z</time>
      </trkpt>
      <trkpt lat="28.7393050" lon="-17.7606250">
        <ele>711.1</ele>
        <time>2020-11-16T08:56:46Z</time>
      </trkpt>
      <trkpt lat="28.7393020" lon="-17.7606420">
        <ele>711.4</ele>
        <time>2020-11-16T08:56:47Z</time>
      </trkpt>
      <trkpt lat="28.7393020" lon="-17.7606420">
        <ele>711.4</ele>
        <time>2020-11-16T08:56:48Z</time>
      </trkpt>
      <trkpt lat="28.7392830" lon="-17.7606700">
        <ele>711.8</ele>
        <time>2020-11-16T08:56:49Z</time>
      </trkpt>
      <trkpt lat="28.7392780" lon="-17.7606870">
        <ele>712.0</ele>
        <time>2020-11-16T08:56:50Z</time>
      </trkpt>
      <trkpt lat="28.7392780" lon="-17.7606870">
        <ele>712.0</ele>
        <time>2020-11-16T08:56:51Z</time>
      </trkpt>
      <trkpt lat="28.7392630" lon="-17.7607100">
        <ele>712.3</ele>
        <time>2020-11-16T08:56:52Z</time>
      </trkpt>
      <trkpt lat="28.7392630" lon="-17.7607100">
        <ele>712.3</ele>
        <time>2020-11-16T08:56:53Z</time>
      </trkpt>
      <trkpt lat="28.7392500" lon="-17.7607430">
        <ele>712.8</ele>
        <time>2020-11-16T08:56:54Z</time>
      </trkpt>
      <trkpt lat="28.7392500" lon="-17.7607430">
        <ele>712.8</ele>
        <time>2020-11-16T08:56:55Z</time>
      </trkpt>
      <trkpt lat="28.7392420" lon="-17.7607800">
        <ele>713.2</ele>
        <time>2020-11-16T08:56:56Z</time>
      </trkpt>
      <trkpt lat="28.7392420" lon="-17.7607800">
        <ele>713.2</ele>
        <time>2020-11-16T08:56:57Z</time>
      </trkpt>
      <trkpt lat="28.7392330" lon="-17.7608200">
        <ele>713.6</ele>
        <time>2020-11-16T08:56:58Z</time>
      </trkpt>
      <trkpt lat="28.7392320" lon="-17.7608420">
        <ele>713.8</ele>
        <time>2020-11-16T08:56:59Z</time>
      </trkpt>
      <trkpt lat="28.7392270" lon="-17.7608600">
        <ele>714.0</ele>
        <time>2020-11-16T08:57:00Z</time>
      </trkpt>
      <trkpt lat="28.7392270" lon="-17.7608600">
        <ele>714.0</ele>
        <time>2020-11-16T08:57:01Z</time>
      </trkpt>
      <trkpt lat="28.7392130" lon="-17.7608930">
        <ele>714.4</ele>
        <time>2020-11-16T08:57:02Z</time>
      </trkpt>
      <trkpt lat="28.7392130" lon="-17.7608930">
        <ele>714.4</ele>
        <time>2020-11-16T08:57:03Z</time>
      </trkpt>
      <trkpt lat="28.7392020" lon="-17.7609380">
        <ele>714.9</ele>
        <time>2020-11-16T08:57:04Z</time>
      </trkpt>
      <trkpt lat="28.7391970" lon="-17.7609520">
        <ele>715.0</ele>
        <time>2020-11-16T08:57:05Z</time>
      </trkpt>
      <trkpt lat="28.7391970" lon="-17.7609520">
        <ele>715.0</ele>
        <time>2020-11-16T08:57:06Z</time>
      </trkpt>
      <trkpt lat="28.7391880" lon="-17.7609820">
        <ele>715.3</ele>
        <time>2020-11-16T08:57:07Z</time>
      </trkpt>
      <trkpt lat="28.7391880" lon="-17.7609820">
        <ele>715.3</ele>
        <time>2020-11-16T08:57:08Z</time>
      </trkpt>
      <trkpt lat="28.7391850" lon="-17.7610170">
        <ele>715.6</ele>
        <time>2020-11-16T08:57:09Z</time>
      </trkpt>
      <trkpt lat="28.7391850" lon="-17.7610400">
        <ele>715.8</ele>
        <time>2020-11-16T08:57:10Z</time>
      </trkpt>
      <trkpt lat="28.7391850" lon="-17.7610400">
        <ele>715.8</ele>
        <time>2020-11-16T08:57:11Z</time>
      </trkpt>
      <trkpt lat="28.7391830" lon="-17.7610820">
        <ele>716.1</ele>
        <time>2020-11-16T08:57:12Z</time>
      </trkpt>
      <trkpt lat="28.7391830" lon="-17.7610820">
        <ele>716.1</ele>
        <time>2020-11-16T08:57:13Z</time>
      </trkpt>
      <trkpt lat="28.7391800" lon="-17.7611180">
        <ele>716.4</ele>
        <time>2020-11-16T08:57:14Z</time>
      </trkpt>
      <trkpt lat="28.7391800" lon="-17.7611180">
        <ele>716.4</ele>
        <time>2020-11-16T08:57:15Z</time>
      </trkpt>
      <trkpt lat="28.7391770" lon="-17.7611500">
        <ele>716.7</ele>
        <time>2020-11-16T08:57:16Z</time>
      </trkpt>
      <trkpt lat="28.7391770" lon="-17.7611500">
        <ele>716.7</ele>
        <time>2020-11-16T08:57:17Z</time>
      </trkpt>
      <trkpt lat="28.7391750" lon="-17.7611900">
        <ele>717.1</ele>
        <time>2020-11-16T08:57:18Z</time>
      </trkpt>
      <trkpt lat="28.7391750" lon="-17.7611900">
        <ele>717.1</ele>
        <time>2020-11-16T08:57:19Z</time>
      </trkpt>
      <trkpt lat="28.7391750" lon="-17.7612280">
        <ele>717.5</ele>
        <time>2020-11-16T08:57:20Z</time>
      </trkpt>
      <trkpt lat="28.7391750" lon="-17.7612280">
        <ele>717.5</ele>
        <time>2020-11-16T08:57:21Z</time>
      </trkpt>
      <trkpt lat="28.7391880" lon="-17.7612680">
        <ele>718.0</ele>
        <time>2020-11-16T08:57:22Z</time>
      </trkpt>
      <trkpt lat="28.7391880" lon="-17.7612680">
        <ele>718.0</ele>
        <time>2020-11-16T08:57:23Z</time>
      </trkpt>
      <trkpt lat="28.7391800" lon="-17.7613000">
        <ele>718.3</ele>
        <time>2020-11-16T08:57:24Z</time>
      </trkpt>
      <trkpt lat="28.7391730" lon="-17.7613130">
        <ele>718.5</ele>
        <time>2020-11-16T08:57:25Z</time>
      </trkpt>
      <trkpt lat="28.7391600" lon="-17.7613250">
        <ele>718.7</ele>
        <time>2020-11-16T08:57:26Z</time>
      </trkpt>
      <trkpt lat="28.7391600" lon="-17.7613250">
        <ele>718.7</ele>
        <time>2020-11-16T08:57:27Z</time>
      </trkpt>
      <trkpt lat="28.7391350" lon="-17.7613580">
        <ele>719.2</ele>
        <time>2020-11-16T08:57:28Z</time>
      </trkpt>
      <trkpt lat="28.7391250" lon="-17.7613770">
        <ele>719.4</ele>
        <time>2020-11-16T08:57:29Z</time>
      </trkpt>
      <trkpt lat="28.7391250" lon="-17.7613770">
        <ele>719.4</ele>
        <time>2020-11-16T08:57:30Z</time>
      </trkpt>
      <trkpt lat="28.7391130" lon="-17.7614100">
        <ele>719.8</ele>
        <time>2020-11-16T08:57:31Z</time>
      </trkpt>
      <trkpt lat="28.7391080" lon="-17.7614300">
        <ele>720.0</ele>
        <time>2020-11-16T08:57:32Z</time>
      </trkpt>
      <trkpt lat="28.7391080" lon="-17.7614300">
        <ele>720.0</ele>
        <time>2020-11-16T08:57:33Z</time>
      </trkpt>
      <trkpt lat="28.7390970" lon="-17.7614770">
        <ele>720.7</ele>
        <time>2020-11-16T08:57:34Z</time>
      </trkpt>
      <trkpt lat="28.7390970" lon="-17.7614770">
        <ele>720.7</ele>
        <time>2020-11-16T08:57:35Z</time>
      </trkpt>
      <trkpt lat="28.7390880" lon="-17.7615250">
        <ele>721.2</ele>
        <time>2020-11-16T08:57:36Z</time>
      </trkpt>
      <trkpt lat="28.7390880" lon="-17.7615250">
        <ele>721.2</ele>
        <time>2020-11-16T08:57:37Z</time>
      </trkpt>
      <trkpt lat="28.7390750" lon="-17.7615520">
        <ele>721.6</ele>
        <time>2020-11-16T08:57:38Z</time>
      </trkpt>
      <trkpt lat="28.7390650" lon="-17.7615620">
        <ele>721.8</ele>
        <time>2020-11-16T08:57:39Z</time>
      </trkpt>
      <trkpt lat="28.7390650" lon="-17.7615620">
        <ele>721.8</ele>
        <time>2020-11-16T08:57:40Z</time>
      </trkpt>
      <trkpt lat="28.7390520" lon="-17.7615920">
        <ele>722.1</ele>
        <time>2020-11-16T08:57:41Z</time>
      </trkpt>
      <trkpt lat="28.7390470" lon="-17.7616100">
        <ele>722.3</ele>
        <time>2020-11-16T08:57:42Z</time>
      </trkpt>
      <trkpt lat="28.7390470" lon="-17.7616100">
        <ele>722.3</ele>
        <time>2020-11-16T08:57:43Z</time>
      </trkpt>
      <trkpt lat="28.7390370" lon="-17.7616400">
        <ele>722.7</ele>
        <time>2020-11-16T08:57:44Z</time>
      </trkpt>
      <trkpt lat="28.7390370" lon="-17.7616400">
        <ele>722.7</ele>
        <time>2020-11-16T08:57:45Z</time>
      </trkpt>
      <trkpt lat="28.7390200" lon="-17.7616650">
        <ele>723.0</ele>
        <time>2020-11-16T08:57:46Z</time>
      </trkpt>
      <trkpt lat="28.7390200" lon="-17.7616650">
        <ele>723.0</ele>
        <time>2020-11-16T08:57:47Z</time>
      </trkpt>
      <trkpt lat="28.7390020" lon="-17.7616950">
        <ele>723.4</ele>
        <time>2020-11-16T08:57:48Z</time>
      </trkpt>
      <trkpt lat="28.7390020" lon="-17.7616950">
        <ele>723.4</ele>
        <time>2020-11-16T08:57:49Z</time>
      </trkpt>
      <trkpt lat="28.7389870" lon="-17.7617250">
        <ele>723.8</ele>
        <time>2020-11-16T08:57:50Z</time>
      </trkpt>
      <trkpt lat="28.7389870" lon="-17.7617250">
        <ele>723.8</ele>
        <time>2020-11-16T08:57:51Z</time>
      </trkpt>
      <trkpt lat="28.7389720" lon="-17.7617500">
        <ele>724.2</ele>
        <time>2020-11-16T08:57:52Z</time>
      </trkpt>
      <trkpt lat="28.7389650" lon="-17.7617630">
        <ele>724.3</ele>
        <time>2020-11-16T08:57:53Z</time>
      </trkpt>
      <trkpt lat="28.7389650" lon="-17.7617630">
        <ele>724.3</ele>
        <time>2020-11-16T08:57:54Z</time>
      </trkpt>
      <trkpt lat="28.7389480" lon="-17.7617900">
        <ele>724.7</ele>
        <time>2020-11-16T08:57:55Z</time>
      </trkpt>
      <trkpt lat="28.7389400" lon="-17.7618020">
        <ele>724.9</ele>
        <time>2020-11-16T08:57:56Z</time>
      </trkpt>
      <trkpt lat="28.7389400" lon="-17.7618020">
        <ele>724.9</ele>
        <time>2020-11-16T08:57:57Z</time>
      </trkpt>
      <trkpt lat="28.7389230" lon="-17.7618250">
        <ele>725.2</ele>
        <time>2020-11-16T08:57:58Z</time>
      </trkpt>
      <trkpt lat="28.7389130" lon="-17.7618370">
        <ele>725.4</ele>
        <time>2020-11-16T08:57:59Z</time>
      </trkpt>
      <trkpt lat="28.7389000" lon="-17.7618480">
        <ele>725.6</ele>
        <time>2020-11-16T08:58:00Z</time>
      </trkpt>
      <trkpt lat="28.7388850" lon="-17.7618550">
        <ele>725.8</ele>
        <time>2020-11-16T08:58:01Z</time>
      </trkpt>
      <trkpt lat="28.7388850" lon="-17.7618550">
        <ele>725.8</ele>
        <time>2020-11-16T08:58:02Z</time>
      </trkpt>
      <trkpt lat="28.7388600" lon="-17.7618730">
        <ele>726.2</ele>
        <time>2020-11-16T08:58:03Z</time>
      </trkpt>
      <trkpt lat="28.7388480" lon="-17.7618850">
        <ele>726.4</ele>
        <time>2020-11-16T08:58:04Z</time>
      </trkpt>
      <trkpt lat="28.7388480" lon="-17.7618850">
        <ele>726.4</ele>
        <time>2020-11-16T08:58:05Z</time>
      </trkpt>
      <trkpt lat="28.7388270" lon="-17.7619170">
        <ele>726.8</ele>
        <time>2020-11-16T08:58:06Z</time>
      </trkpt>
      <trkpt lat="28.7388270" lon="-17.7619170">
        <ele>726.8</ele>
        <time>2020-11-16T08:58:07Z</time>
      </trkpt>
      <trkpt lat="28.7388030" lon="-17.7619350">
        <ele>727.2</ele>
        <time>2020-11-16T08:58:08Z</time>
      </trkpt>
      <trkpt lat="28.7387920" lon="-17.7619430">
        <ele>727.4</ele>
        <time>2020-11-16T08:58:09Z</time>
      </trkpt>
      <trkpt lat="28.7387920" lon="-17.7619430">
        <ele>727.4</ele>
        <time>2020-11-16T08:58:10Z</time>
      </trkpt>
      <trkpt lat="28.7387670" lon="-17.7619600">
        <ele>727.7</ele>
        <time>2020-11-16T08:58:11Z</time>
      </trkpt>
      <trkpt lat="28.7387670" lon="-17.7619600">
        <ele>727.7</ele>
        <time>2020-11-16T08:58:12Z</time>
      </trkpt>
      <trkpt lat="28.7387350" lon="-17.7619750">
        <ele>728.2</ele>
        <time>2020-11-16T08:58:13Z</time>
      </trkpt>
      <trkpt lat="28.7387220" lon="-17.7619820">
        <ele>728.3</ele>
        <time>2020-11-16T08:58:14Z</time>
      </trkpt>
      <trkpt lat="28.7387070" lon="-17.7619880">
        <ele>728.5</ele>
        <time>2020-11-16T08:58:15Z</time>
      </trkpt>
      <trkpt lat="28.7387070" lon="-17.7619880">
        <ele>728.5</ele>
        <time>2020-11-16T08:58:16Z</time>
      </trkpt>
      <trkpt lat="28.7386780" lon="-17.7619970">
        <ele>728.9</ele>
        <time>2020-11-16T08:58:17Z</time>
      </trkpt>
      <trkpt lat="28.7386780" lon="-17.7619970">
        <ele>728.9</ele>
        <time>2020-11-16T08:58:18Z</time>
      </trkpt>
      <trkpt lat="28.7386500" lon="-17.7620030">
        <ele>729.3</ele>
        <time>2020-11-16T08:58:19Z</time>
      </trkpt>
      <trkpt lat="28.7386350" lon="-17.7620050">
        <ele>729.5</ele>
        <time>2020-11-16T08:58:20Z</time>
      </trkpt>
      <trkpt lat="28.7386350" lon="-17.7620050">
        <ele>729.5</ele>
        <time>2020-11-16T08:58:21Z</time>
      </trkpt>
      <trkpt lat="28.7386030" lon="-17.7620070">
        <ele>729.9</ele>
        <time>2020-11-16T08:58:22Z</time>
      </trkpt>
      <trkpt lat="28.7386030" lon="-17.7620070">
        <ele>729.9</ele>
        <time>2020-11-16T08:58:23Z</time>
      </trkpt>
      <trkpt lat="28.7385620" lon="-17.7620150">
        <ele>730.4</ele>
        <time>2020-11-16T08:58:24Z</time>
      </trkpt>
      <trkpt lat="28.7385620" lon="-17.7620150">
        <ele>730.4</ele>
        <time>2020-11-16T08:58:25Z</time>
      </trkpt>
      <trkpt lat="28.7385280" lon="-17.7620320">
        <ele>730.9</ele>
        <time>2020-11-16T08:58:26Z</time>
      </trkpt>
      <trkpt lat="28.7385280" lon="-17.7620320">
        <ele>730.9</ele>
        <time>2020-11-16T08:58:27Z</time>
      </trkpt>
      <trkpt lat="28.7385000" lon="-17.7620450">
        <ele>731.3</ele>
        <time>2020-11-16T08:58:28Z</time>
      </trkpt>
      <trkpt lat="28.7385000" lon="-17.7620450">
        <ele>731.3</ele>
        <time>2020-11-16T08:58:29Z</time>
      </trkpt>
      <trkpt lat="28.7384670" lon="-17.7620530">
        <ele>731.7</ele>
        <time>2020-11-16T08:58:30Z</time>
      </trkpt>
      <trkpt lat="28.7384670" lon="-17.7620530">
        <ele>731.7</ele>
        <time>2020-11-16T08:58:31Z</time>
      </trkpt>
      <trkpt lat="28.7384370" lon="-17.7620650">
        <ele>732.1</ele>
        <time>2020-11-16T08:58:32Z</time>
      </trkpt>
      <trkpt lat="28.7384220" lon="-17.7620700">
        <ele>732.3</ele>
        <time>2020-11-16T08:58:33Z</time>
      </trkpt>
      <trkpt lat="28.7384220" lon="-17.7620700">
        <ele>732.3</ele>
        <time>2020-11-16T08:58:34Z</time>
      </trkpt>
      <trkpt lat="28.7383880" lon="-17.7620750">
        <ele>732.7</ele>
        <time>2020-11-16T08:58:35Z</time>
      </trkpt>
      <trkpt lat="28.7383750" lon="-17.7620800">
        <ele>732.9</ele>
        <time>2020-11-16T08:58:36Z</time>
      </trkpt>
      <trkpt lat="28.7383750" lon="-17.7620800">
        <ele>732.9</ele>
        <time>2020-11-16T08:58:37Z</time>
      </trkpt>
      <trkpt lat="28.7383450" lon="-17.7620800">
        <ele>733.3</ele>
        <time>2020-11-16T08:58:38Z</time>
      </trkpt>
      <trkpt lat="28.7383450" lon="-17.7620800">
        <ele>733.3</ele>
        <time>2020-11-16T08:58:39Z</time>
      </trkpt>
      <trkpt lat="28.7383220" lon="-17.7620770">
        <ele>733.6</ele>
        <time>2020-11-16T08:58:40Z</time>
      </trkpt>
      <trkpt lat="28.7383220" lon="-17.7620770">
        <ele>733.6</ele>
        <time>2020-11-16T08:58:41Z</time>
      </trkpt>
      <trkpt lat="28.7382920" lon="-17.7620850">
        <ele>734.0</ele>
        <time>2020-11-16T08:58:42Z</time>
      </trkpt>
      <trkpt lat="28.7382730" lon="-17.7620900">
        <ele>734.2</ele>
        <time>2020-11-16T08:58:43Z</time>
      </trkpt>
      <trkpt lat="28.7382730" lon="-17.7620900">
        <ele>734.2</ele>
        <time>2020-11-16T08:58:44Z</time>
      </trkpt>
      <trkpt lat="28.7382400" lon="-17.7621020">
        <ele>734.6</ele>
        <time>2020-11-16T08:58:45Z</time>
      </trkpt>
      <trkpt lat="28.7382220" lon="-17.7621130">
        <ele>734.9</ele>
        <time>2020-11-16T08:58:46Z</time>
      </trkpt>
      <trkpt lat="28.7382220" lon="-17.7621130">
        <ele>734.9</ele>
        <time>2020-11-16T08:58:47Z</time>
      </trkpt>
      <trkpt lat="28.7381900" lon="-17.7621420">
        <ele>735.4</ele>
        <time>2020-11-16T08:58:48Z</time>
      </trkpt>
      <trkpt lat="28.7381900" lon="-17.7621420">
        <ele>735.4</ele>
        <time>2020-11-16T08:58:49Z</time>
      </trkpt>
      <trkpt lat="28.7381680" lon="-17.7621750">
        <ele>735.9</ele>
        <time>2020-11-16T08:58:50Z</time>
      </trkpt>
      <trkpt lat="28.7381680" lon="-17.7621750">
        <ele>735.9</ele>
        <time>2020-11-16T08:58:51Z</time>
      </trkpt>
      <trkpt lat="28.7381550" lon="-17.7622100">
        <ele>736.3</ele>
        <time>2020-11-16T08:58:52Z</time>
      </trkpt>
      <trkpt lat="28.7381430" lon="-17.7622280">
        <ele>736.6</ele>
        <time>2020-11-16T08:58:53Z</time>
      </trkpt>
      <trkpt lat="28.7381380" lon="-17.7622450">
        <ele>736.8</ele>
        <time>2020-11-16T08:58:54Z</time>
      </trkpt>
      <trkpt lat="28.7381380" lon="-17.7622450">
        <ele>736.8</ele>
        <time>2020-11-16T08:58:55Z</time>
      </trkpt>
      <trkpt lat="28.7381470" lon="-17.7622720">
        <ele>737.1</ele>
        <time>2020-11-16T08:58:56Z</time>
      </trkpt>
      <trkpt lat="28.7381470" lon="-17.7622720">
        <ele>737.1</ele>
        <time>2020-11-16T08:58:57Z</time>
      </trkpt>
      <trkpt lat="28.7381550" lon="-17.7623020">
        <ele>737.4</ele>
        <time>2020-11-16T08:58:58Z</time>
      </trkpt>
      <trkpt lat="28.7381550" lon="-17.7623020">
        <ele>737.4</ele>
        <time>2020-11-16T08:58:59Z</time>
      </trkpt>
      <trkpt lat="28.7381600" lon="-17.7623280">
        <ele>737.7</ele>
        <time>2020-11-16T08:59:00Z</time>
      </trkpt>
      <trkpt lat="28.7381650" lon="-17.7623420">
        <ele>737.9</ele>
        <time>2020-11-16T08:59:01Z</time>
      </trkpt>
      <trkpt lat="28.7381700" lon="-17.7623530">
        <ele>738.0</ele>
        <time>2020-11-16T08:59:02Z</time>
      </trkpt>
      <trkpt lat="28.7381750" lon="-17.7623670">
        <ele>738.2</ele>
        <time>2020-11-16T08:59:03Z</time>
      </trkpt>
      <trkpt lat="28.7381820" lon="-17.7623820">
        <ele>738.4</ele>
        <time>2020-11-16T08:59:04Z</time>
      </trkpt>
      <trkpt lat="28.7381820" lon="-17.7623820">
        <ele>738.4</ele>
        <time>2020-11-16T08:59:05Z</time>
      </trkpt>
      <trkpt lat="28.7381980" lon="-17.7624020">
        <ele>738.7</ele>
        <time>2020-11-16T08:59:06Z</time>
      </trkpt>
      <trkpt lat="28.7381980" lon="-17.7624020">
        <ele>738.7</ele>
        <time>2020-11-16T08:59:07Z</time>
      </trkpt>
      <trkpt lat="28.7382150" lon="-17.7624200">
        <ele>739.0</ele>
        <time>2020-11-16T08:59:08Z</time>
      </trkpt>
      <trkpt lat="28.7382180" lon="-17.7624280">
        <ele>739.1</ele>
        <time>2020-11-16T08:59:09Z</time>
      </trkpt>
      <trkpt lat="28.7382180" lon="-17.7624280">
        <ele>739.1</ele>
        <time>2020-11-16T08:59:10Z</time>
      </trkpt>
      <trkpt lat="28.7382370" lon="-17.7624520">
        <ele>739.4</ele>
        <time>2020-11-16T08:59:11Z</time>
      </trkpt>
      <trkpt lat="28.7382370" lon="-17.7624520">
        <ele>739.4</ele>
        <time>2020-11-16T08:59:12Z</time>
      </trkpt>
      <trkpt lat="28.7382480" lon="-17.7624780">
        <ele>739.8</ele>
        <time>2020-11-16T08:59:13Z</time>
      </trkpt>
      <trkpt lat="28.7382550" lon="-17.7624900">
        <ele>739.9</ele>
        <time>2020-11-16T08:59:14Z</time>
      </trkpt>
      <trkpt lat="28.7382550" lon="-17.7624900">
        <ele>739.9</ele>
        <time>2020-11-16T08:59:15Z</time>
      </trkpt>
      <trkpt lat="28.7382800" lon="-17.7625080">
        <ele>740.3</ele>
        <time>2020-11-16T08:59:16Z</time>
      </trkpt>
      <trkpt lat="28.7382800" lon="-17.7625080">
        <ele>740.3</ele>
        <time>2020-11-16T08:59:17Z</time>
      </trkpt>
      <trkpt lat="28.7383030" lon="-17.7625250">
        <ele>740.6</ele>
        <time>2020-11-16T08:59:18Z</time>
      </trkpt>
      <trkpt lat="28.7383030" lon="-17.7625250">
        <ele>740.6</ele>
        <time>2020-11-16T08:59:19Z</time>
      </trkpt>
      <trkpt lat="28.7383250" lon="-17.7625520">
        <ele>741.0</ele>
        <time>2020-11-16T08:59:20Z</time>
      </trkpt>
      <trkpt lat="28.7383250" lon="-17.7625520">
        <ele>741.0</ele>
        <time>2020-11-16T08:59:21Z</time>
      </trkpt>
      <trkpt lat="28.7383420" lon="-17.7625720">
        <ele>741.4</ele>
        <time>2020-11-16T08:59:22Z</time>
      </trkpt>
      <trkpt lat="28.7383420" lon="-17.7625720">
        <ele>741.4</ele>
        <time>2020-11-16T08:59:23Z</time>
      </trkpt>
      <trkpt lat="28.7383780" lon="-17.7625950">
        <ele>741.9</ele>
        <time>2020-11-16T08:59:24Z</time>
      </trkpt>
      <trkpt lat="28.7383780" lon="-17.7625950">
        <ele>741.9</ele>
        <time>2020-11-16T08:59:25Z</time>
      </trkpt>
      <trkpt lat="28.7383900" lon="-17.7626130">
        <ele>742.1</ele>
        <time>2020-11-16T08:59:26Z</time>
      </trkpt>
      <trkpt lat="28.7383900" lon="-17.7626130">
        <ele>742.1</ele>
        <time>2020-11-16T08:59:27Z</time>
      </trkpt>
      <trkpt lat="28.7383980" lon="-17.7626370">
        <ele>742.4</ele>
        <time>2020-11-16T08:59:28Z</time>
      </trkpt>
      <trkpt lat="28.7384000" lon="-17.7626480">
        <ele>742.5</ele>
        <time>2020-11-16T08:59:29Z</time>
      </trkpt>
      <trkpt lat="28.7384000" lon="-17.7626480">
        <ele>742.5</ele>
        <time>2020-11-16T08:59:30Z</time>
      </trkpt>
      <trkpt lat="28.7384000" lon="-17.7626630">
        <ele>742.7</ele>
        <time>2020-11-16T08:59:31Z</time>
      </trkpt>
      <trkpt lat="28.7384050" lon="-17.7626770">
        <ele>742.9</ele>
        <time>2020-11-16T08:59:32Z</time>
      </trkpt>
      <trkpt lat="28.7384050" lon="-17.7626770">
        <ele>742.9</ele>
        <time>2020-11-16T08:59:33Z</time>
      </trkpt>
      <trkpt lat="28.7384180" lon="-17.7627050">
        <ele>743.2</ele>
        <time>2020-11-16T08:59:34Z</time>
      </trkpt>
      <trkpt lat="28.7384180" lon="-17.7627050">
        <ele>743.2</ele>
        <time>2020-11-16T08:59:35Z</time>
      </trkpt>
      <trkpt lat="28.7384280" lon="-17.7627380">
        <ele>743.6</ele>
        <time>2020-11-16T08:59:36Z</time>
      </trkpt>
      <trkpt lat="28.7384300" lon="-17.7627570">
        <ele>743.8</ele>
        <time>2020-11-16T08:59:37Z</time>
      </trkpt>
      <trkpt lat="28.7384280" lon="-17.7627770">
        <ele>744.1</ele>
        <time>2020-11-16T08:59:38Z</time>
      </trkpt>
      <trkpt lat="28.7384280" lon="-17.7627770">
        <ele>744.1</ele>
        <time>2020-11-16T08:59:39Z</time>
      </trkpt>
      <trkpt lat="28.7384130" lon="-17.7628230">
        <ele>744.6</ele>
        <time>2020-11-16T08:59:40Z</time>
      </trkpt>
      <trkpt lat="28.7384130" lon="-17.7628230">
        <ele>744.6</ele>
        <time>2020-11-16T08:59:41Z</time>
      </trkpt>
      <trkpt lat="28.7383970" lon="-17.7628600">
        <ele>745.1</ele>
        <time>2020-11-16T08:59:42Z</time>
      </trkpt>
      <trkpt lat="28.7383920" lon="-17.7628730">
        <ele>745.2</ele>
        <time>2020-11-16T08:59:43Z</time>
      </trkpt>
      <trkpt lat="28.7383920" lon="-17.7628730">
        <ele>745.2</ele>
        <time>2020-11-16T08:59:44Z</time>
      </trkpt>
      <trkpt lat="28.7383930" lon="-17.7629050">
        <ele>745.6</ele>
        <time>2020-11-16T08:59:45Z</time>
      </trkpt>
      <trkpt lat="28.7383970" lon="-17.7629180">
        <ele>745.7</ele>
        <time>2020-11-16T08:59:46Z</time>
      </trkpt>
      <trkpt lat="28.7383970" lon="-17.7629180">
        <ele>745.7</ele>
        <time>2020-11-16T08:59:47Z</time>
      </trkpt>
      <trkpt lat="28.7384120" lon="-17.7629430">
        <ele>746.1</ele>
        <time>2020-11-16T08:59:48Z</time>
      </trkpt>
      <trkpt lat="28.7384120" lon="-17.7629430">
        <ele>746.1</ele>
        <time>2020-11-16T08:59:49Z</time>
      </trkpt>
      <trkpt lat="28.7384150" lon="-17.7629730">
        <ele>746.4</ele>
        <time>2020-11-16T08:59:50Z</time>
      </trkpt>
      <trkpt lat="28.7384150" lon="-17.7629730">
        <ele>746.4</ele>
        <time>2020-11-16T08:59:51Z</time>
      </trkpt>
      <trkpt lat="28.7384130" lon="-17.7630000">
        <ele>746.7</ele>
        <time>2020-11-16T08:59:52Z</time>
      </trkpt>
      <trkpt lat="28.7384130" lon="-17.7630000">
        <ele>746.7</ele>
        <time>2020-11-16T08:59:53Z</time>
      </trkpt>
      <trkpt lat="28.7384220" lon="-17.7630470">
        <ele>747.2</ele>
        <time>2020-11-16T08:59:54Z</time>
      </trkpt>
      <trkpt lat="28.7384220" lon="-17.7630470">
        <ele>747.2</ele>
        <time>2020-11-16T08:59:55Z</time>
      </trkpt>
      <trkpt lat="28.7384230" lon="-17.7630850">
        <ele>747.7</ele>
        <time>2020-11-16T08:59:56Z</time>
      </trkpt>
      <trkpt lat="28.7384230" lon="-17.7630850">
        <ele>747.7</ele>
        <time>2020-11-16T08:59:57Z</time>
      </trkpt>
      <trkpt lat="28.7384180" lon="-17.7631180">
        <ele>748.0</ele>
        <time>2020-11-16T08:59:58Z</time>
      </trkpt>
      <trkpt lat="28.7384180" lon="-17.7631180">
        <ele>748.0</ele>
        <time>2020-11-16T08:59:59Z</time>
      </trkpt>
      <trkpt lat="28.7384200" lon="-17.7631520">
        <ele>748.4</ele>
        <time>2020-11-16T09:00:00Z</time>
      </trkpt>
      <trkpt lat="28.7384150" lon="-17.7631770">
        <ele>748.7</ele>
        <time>2020-11-16T09:00:01Z</time>
      </trkpt>
      <trkpt lat="28.7384100" lon="-17.7632080">
        <ele>749.0</ele>
        <time>2020-11-16T09:00:02Z</time>
      </trkpt>
      <trkpt lat="28.7384100" lon="-17.7632080">
        <ele>749.0</ele>
        <time>2020-11-16T09:00:03Z</time>
      </trkpt>
      <trkpt lat="28.7384130" lon="-17.7632520">
        <ele>749.5</ele>
        <time>2020-11-16T09:00:04Z</time>
      </trkpt>
      <trkpt lat="28.7384130" lon="-17.7632520">
        <ele>749.5</ele>
        <time>2020-11-16T09:00:05Z</time>
      </trkpt>
      <trkpt lat="28.7384130" lon="-17.7632880">
        <ele>749.9</ele>
        <time>2020-11-16T09:00:06Z</time>
      </trkpt>
      <trkpt lat="28.7384130" lon="-17.7632880">
        <ele>749.9</ele>
        <time>2020-11-16T09:00:07Z</time>
      </trkpt>
      <trkpt lat="28.7384120" lon="-17.7633220">
        <ele>750.3</ele>
        <time>2020-11-16T09:00:08Z</time>
      </trkpt>
      <trkpt lat="28.7384120" lon="-17.7633220">
        <ele>750.3</ele>
        <time>2020-11-16T09:00:09Z</time>
      </trkpt>
      <trkpt lat="28.7384100" lon="-17.7633480">
        <ele>750.6</ele>
        <time>2020-11-16T09:00:10Z</time>
      </trkpt>
      <trkpt lat="28.7384100" lon="-17.7633480">
        <ele>750.6</ele>
        <time>2020-11-16T09:00:11Z</time>
      </trkpt>
      <trkpt lat="28.7384100" lon="-17.7633480">
        <ele>750.6</ele>
        <time>2020-11-16T09:00:12Z</time>
      </trkpt>
      <trkpt lat="28.7384080" lon="-17.7633800">
        <ele>751.0</ele>
        <time>2020-11-16T09:00:13Z</time>
      </trkpt>
      <trkpt lat="28.7384070" lon="-17.7634100">
        <ele>751.3</ele>
        <time>2020-11-16T09:00:14Z</time>
      </trkpt>
      <trkpt lat="28.7384070" lon="-17.7634100">
        <ele>751.3</ele>
        <time>2020-11-16T09:00:15Z</time>
      </trkpt>
      <trkpt lat="28.7384100" lon="-17.7634380">
        <ele>751.6</ele>
        <time>2020-11-16T09:00:16Z</time>
      </trkpt>
      <trkpt lat="28.7384100" lon="-17.7634570">
        <ele>751.8</ele>
        <time>2020-11-16T09:00:17Z</time>
      </trkpt>
      <trkpt lat="28.7384100" lon="-17.7634570">
        <ele>751.8</ele>
        <time>2020-11-16T09:00:18Z</time>
      </trkpt>
      <trkpt lat="28.7384100" lon="-17.7634850">
        <ele>752.1</ele>
        <time>2020-11-16T09:00:19Z</time>
      </trkpt>
      <trkpt lat="28.7384100" lon="-17.7634850">
        <ele>752.1</ele>
        <time>2020-11-16T09:00:20Z</time>
      </trkpt>
      <trkpt lat="28.7384100" lon="-17.7635170">
        <ele>752.5</ele>
        <time>2020-11-16T09:00:21Z</time>
      </trkpt>
      <trkpt lat="28.7384100" lon="-17.7635170">
        <ele>752.5</ele>
        <time>2020-11-16T09:00:22Z</time>
      </trkpt>
      <trkpt lat="28.7384030" lon="-17.7635570">
        <ele>752.9</ele>
        <time>2020-11-16T09:00:23Z</time>
      </trkpt>
      <trkpt lat="28.7384030" lon="-17.7635770">
        <ele>753.2</ele>
        <time>2020-11-16T09:00:24Z</time>
      </trkpt>
      <trkpt lat="28.7383980" lon="-17.7636180">
        <ele>753.6</ele>
        <time>2020-11-16T09:00:25Z</time>
      </trkpt>
      <trkpt lat="28.7383980" lon="-17.7636180">
        <ele>753.6</ele>
        <time>2020-11-16T09:00:26Z</time>
      </trkpt>
      <trkpt lat="28.7383950" lon="-17.7636480">
        <ele>754.0</ele>
        <time>2020-11-16T09:00:27Z</time>
      </trkpt>
      <trkpt lat="28.7383980" lon="-17.7636600">
        <ele>754.1</ele>
        <time>2020-11-16T09:00:28Z</time>
      </trkpt>
      <trkpt lat="28.7383980" lon="-17.7636600">
        <ele>754.1</ele>
        <time>2020-11-16T09:00:29Z</time>
      </trkpt>
      <trkpt lat="28.7383970" lon="-17.7636830">
        <ele>754.3</ele>
        <time>2020-11-16T09:00:30Z</time>
      </trkpt>
      <trkpt lat="28.7383970" lon="-17.7636830">
        <ele>754.3</ele>
        <time>2020-11-16T09:00:31Z</time>
      </trkpt>
      <trkpt lat="28.7383850" lon="-17.7637200">
        <ele>754.8</ele>
        <time>2020-11-16T09:00:32Z</time>
      </trkpt>
      <trkpt lat="28.7383850" lon="-17.7637200">
        <ele>754.8</ele>
        <time>2020-11-16T09:00:33Z</time>
      </trkpt>
      <trkpt lat="28.7383750" lon="-17.7637530">
        <ele>755.2</ele>
        <time>2020-11-16T09:00:34Z</time>
      </trkpt>
      <trkpt lat="28.7383700" lon="-17.7637700">
        <ele>755.4</ele>
        <time>2020-11-16T09:00:35Z</time>
      </trkpt>
      <trkpt lat="28.7383700" lon="-17.7637700">
        <ele>755.4</ele>
        <time>2020-11-16T09:00:36Z</time>
      </trkpt>
      <trkpt lat="28.7383620" lon="-17.7638000">
        <ele>755.7</ele>
        <time>2020-11-16T09:00:37Z</time>
      </trkpt>
      <trkpt lat="28.7383620" lon="-17.7638000">
        <ele>755.7</ele>
        <time>2020-11-16T09:00:38Z</time>
      </trkpt>
      <trkpt lat="28.7383580" lon="-17.7638320">
        <ele>756.1</ele>
        <time>2020-11-16T09:00:39Z</time>
      </trkpt>
      <trkpt lat="28.7383580" lon="-17.7638320">
        <ele>756.1</ele>
        <time>2020-11-16T09:00:40Z</time>
      </trkpt>
      <trkpt lat="28.7383520" lon="-17.7638620">
        <ele>756.4</ele>
        <time>2020-11-16T09:00:41Z</time>
      </trkpt>
      <trkpt lat="28.7383520" lon="-17.7638620">
        <ele>756.4</ele>
        <time>2020-11-16T09:00:42Z</time>
      </trkpt>
      <trkpt lat="28.7383500" lon="-17.7638830">
        <ele>756.7</ele>
        <time>2020-11-16T09:00:43Z</time>
      </trkpt>
      <trkpt lat="28.7383420" lon="-17.7638970">
        <ele>756.8</ele>
        <time>2020-11-16T09:00:44Z</time>
      </trkpt>
      <trkpt lat="28.7383420" lon="-17.7638970">
        <ele>756.8</ele>
        <time>2020-11-16T09:00:45Z</time>
      </trkpt>
      <trkpt lat="28.7383330" lon="-17.7639130">
        <ele>757.1</ele>
        <time>2020-11-16T09:00:46Z</time>
      </trkpt>
      <trkpt lat="28.7383330" lon="-17.7639130">
        <ele>757.1</ele>
        <time>2020-11-16T09:00:47Z</time>
      </trkpt>
      <trkpt lat="28.7383170" lon="-17.7639470">
        <ele>757.5</ele>
        <time>2020-11-16T09:00:48Z</time>
      </trkpt>
      <trkpt lat="28.7383070" lon="-17.7639650">
        <ele>757.7</ele>
        <time>2020-11-16T09:00:49Z</time>
      </trkpt>
      <trkpt lat="28.7383000" lon="-17.7639800">
        <ele>757.9</ele>
        <time>2020-11-16T09:00:50Z</time>
      </trkpt>
      <trkpt lat="28.7383000" lon="-17.7639800">
        <ele>757.9</ele>
        <time>2020-11-16T09:00:51Z</time>
      </trkpt>
      <trkpt lat="28.7382830" lon="-17.7640220">
        <ele>758.4</ele>
        <time>2020-11-16T09:00:52Z</time>
      </trkpt>
      <trkpt lat="28.7382780" lon="-17.7640480">
        <ele>758.7</ele>
        <time>2020-11-16T09:00:53Z</time>
      </trkpt>
      <trkpt lat="28.7382780" lon="-17.7640480">
        <ele>758.7</ele>
        <time>2020-11-16T09:00:54Z</time>
      </trkpt>
      <trkpt lat="28.7382680" lon="-17.7640970">
        <ele>759.3</ele>
        <time>2020-11-16T09:00:55Z</time>
      </trkpt>
      <trkpt lat="28.7382700" lon="-17.7641230">
        <ele>759.6</ele>
        <time>2020-11-16T09:00:56Z</time>
      </trkpt>
      <trkpt lat="28.7382700" lon="-17.7641230">
        <ele>759.6</ele>
        <time>2020-11-16T09:00:57Z</time>
      </trkpt>
      <trkpt lat="28.7382620" lon="-17.7641530">
        <ele>759.9</ele>
        <time>2020-11-16T09:00:58Z</time>
      </trkpt>
      <trkpt lat="28.7382550" lon="-17.7641730">
        <ele>760.2</ele>
        <time>2020-11-16T09:00:59Z</time>
      </trkpt>
      <trkpt lat="28.7382550" lon="-17.7641730">
        <ele>760.2</ele>
        <time>2020-11-16T09:01:00Z</time>
      </trkpt>
      <trkpt lat="28.7382420" lon="-17.7642080">
        <ele>760.6</ele>
        <time>2020-11-16T09:01:01Z</time>
      </trkpt>
      <trkpt lat="28.7382350" lon="-17.7642250">
        <ele>760.8</ele>
        <time>2020-11-16T09:01:02Z</time>
      </trkpt>
      <trkpt lat="28.7382350" lon="-17.7642250">
        <ele>760.8</ele>
        <time>2020-11-16T09:01:03Z</time>
      </trkpt>
      <trkpt lat="28.7382200" lon="-17.7642580">
        <ele>761.2</ele>
        <time>2020-11-16T09:01:04Z</time>
      </trkpt>
      <trkpt lat="28.7382100" lon="-17.7642730">
        <ele>761.4</ele>
        <time>2020-11-16T09:01:05Z</time>
      </trkpt>
      <trkpt lat="28.7382100" lon="-17.7642730">
        <ele>761.4</ele>
        <time>2020-11-16T09:01:06Z</time>
      </trkpt>
      <trkpt lat="28.7381880" lon="-17.7642980">
        <ele>761.8</ele>
        <time>2020-11-16T09:01:07Z</time>
      </trkpt>
      <trkpt lat="28.7381750" lon="-17.7643070">
        <ele>762.0</ele>
        <time>2020-11-16T09:01:08Z</time>
      </trkpt>
      <trkpt lat="28.7381750" lon="-17.7643070">
        <ele>762.0</ele>
        <time>2020-11-16T09:01:09Z</time>
      </trkpt>
      <trkpt lat="28.7381480" lon="-17.7643220">
        <ele>762.4</ele>
        <time>2020-11-16T09:01:10Z</time>
      </trkpt>
      <trkpt lat="28.7381480" lon="-17.7643220">
        <ele>762.4</ele>
        <time>2020-11-16T09:01:11Z</time>
      </trkpt>
      <trkpt lat="28.7381200" lon="-17.7643330">
        <ele>762.7</ele>
        <time>2020-11-16T09:01:12Z</time>
      </trkpt>
      <trkpt lat="28.7381030" lon="-17.7643400">
        <ele>763.0</ele>
        <time>2020-11-16T09:01:13Z</time>
      </trkpt>
      <trkpt lat="28.7380900" lon="-17.7643470">
        <ele>763.2</ele>
        <time>2020-11-16T09:01:14Z</time>
      </trkpt>
      <trkpt lat="28.7380900" lon="-17.7643470">
        <ele>763.2</ele>
        <time>2020-11-16T09:01:15Z</time>
      </trkpt>
      <trkpt lat="28.7380620" lon="-17.7643580">
        <ele>763.5</ele>
        <time>2020-11-16T09:01:16Z</time>
      </trkpt>
      <trkpt lat="28.7380620" lon="-17.7643580">
        <ele>763.5</ele>
        <time>2020-11-16T09:01:17Z</time>
      </trkpt>
      <trkpt lat="28.7380330" lon="-17.7643680">
        <ele>763.9</ele>
        <time>2020-11-16T09:01:18Z</time>
      </trkpt>
      <trkpt lat="28.7380330" lon="-17.7643680">
        <ele>763.9</ele>
        <time>2020-11-16T09:01:19Z</time>
      </trkpt>
      <trkpt lat="28.7380030" lon="-17.7643770">
        <ele>764.3</ele>
        <time>2020-11-16T09:01:20Z</time>
      </trkpt>
      <trkpt lat="28.7380030" lon="-17.7643770">
        <ele>764.3</ele>
        <time>2020-11-16T09:01:21Z</time>
      </trkpt>
      <trkpt lat="28.7379780" lon="-17.7643880">
        <ele>764.7</ele>
        <time>2020-11-16T09:01:22Z</time>
      </trkpt>
      <trkpt lat="28.7379650" lon="-17.7643930">
        <ele>764.8</ele>
        <time>2020-11-16T09:01:23Z</time>
      </trkpt>
      <trkpt lat="28.7379650" lon="-17.7643930">
        <ele>764.8</ele>
        <time>2020-11-16T09:01:24Z</time>
      </trkpt>
      <trkpt lat="28.7379430" lon="-17.7644030">
        <ele>765.1</ele>
        <time>2020-11-16T09:01:25Z</time>
      </trkpt>
      <trkpt lat="28.7379430" lon="-17.7644030">
        <ele>765.1</ele>
        <time>2020-11-16T09:01:26Z</time>
      </trkpt>
      <trkpt lat="28.7379000" lon="-17.7644180">
        <ele>765.7</ele>
        <time>2020-11-16T09:01:27Z</time>
      </trkpt>
      <trkpt lat="28.7379000" lon="-17.7644180">
        <ele>765.7</ele>
        <time>2020-11-16T09:01:28Z</time>
      </trkpt>
      <trkpt lat="28.7378630" lon="-17.7644280">
        <ele>766.2</ele>
        <time>2020-11-16T09:01:29Z</time>
      </trkpt>
      <trkpt lat="28.7378480" lon="-17.7644330">
        <ele>766.4</ele>
        <time>2020-11-16T09:01:30Z</time>
      </trkpt>
      <trkpt lat="28.7378480" lon="-17.7644330">
        <ele>766.4</ele>
        <time>2020-11-16T09:01:31Z</time>
      </trkpt>
      <trkpt lat="28.7378200" lon="-17.7644400">
        <ele>766.7</ele>
        <time>2020-11-16T09:01:32Z</time>
      </trkpt>
      <trkpt lat="28.7378200" lon="-17.7644400">
        <ele>766.7</ele>
        <time>2020-11-16T09:01:33Z</time>
      </trkpt>
      <trkpt lat="28.7377850" lon="-17.7644480">
        <ele>767.2</ele>
        <time>2020-11-16T09:01:34Z</time>
      </trkpt>
      <trkpt lat="28.7377850" lon="-17.7644480">
        <ele>767.2</ele>
        <time>2020-11-16T09:01:35Z</time>
      </trkpt>
      <trkpt lat="28.7377650" lon="-17.7644580">
        <ele>767.5</ele>
        <time>2020-11-16T09:01:36Z</time>
      </trkpt>
      <trkpt lat="28.7377500" lon="-17.7644620">
        <ele>767.7</ele>
        <time>2020-11-16T09:01:37Z</time>
      </trkpt>
      <trkpt lat="28.7377330" lon="-17.7644670">
        <ele>767.9</ele>
        <time>2020-11-16T09:01:38Z</time>
      </trkpt>
      <trkpt lat="28.7377330" lon="-17.7644670">
        <ele>767.9</ele>
        <time>2020-11-16T09:01:39Z</time>
      </trkpt>
      <trkpt lat="28.7377050" lon="-17.7644820">
        <ele>768.3</ele>
        <time>2020-11-16T09:01:40Z</time>
      </trkpt>
      <trkpt lat="28.7377050" lon="-17.7644820">
        <ele>768.3</ele>
        <time>2020-11-16T09:01:41Z</time>
      </trkpt>
      <trkpt lat="28.7376820" lon="-17.7645000">
        <ele>768.6</ele>
        <time>2020-11-16T09:01:42Z</time>
      </trkpt>
      <trkpt lat="28.7376820" lon="-17.7645000">
        <ele>768.6</ele>
        <time>2020-11-16T09:01:43Z</time>
      </trkpt>
      <trkpt lat="28.7376630" lon="-17.7645250">
        <ele>769.0</ele>
        <time>2020-11-16T09:01:44Z</time>
      </trkpt>
      <trkpt lat="28.7376600" lon="-17.7645400">
        <ele>769.2</ele>
        <time>2020-11-16T09:01:45Z</time>
      </trkpt>
      <trkpt lat="28.7376600" lon="-17.7645400">
        <ele>769.2</ele>
        <time>2020-11-16T09:01:46Z</time>
      </trkpt>
      <trkpt lat="28.7376420" lon="-17.7645700">
        <ele>769.6</ele>
        <time>2020-11-16T09:01:47Z</time>
      </trkpt>
      <trkpt lat="28.7376420" lon="-17.7645700">
        <ele>769.6</ele>
        <time>2020-11-16T09:01:48Z</time>
      </trkpt>
      <trkpt lat="28.7376180" lon="-17.7645930">
        <ele>770.0</ele>
        <time>2020-11-16T09:01:49Z</time>
      </trkpt>
      <trkpt lat="28.7376070" lon="-17.7646070">
        <ele>770.2</ele>
        <time>2020-11-16T09:01:50Z</time>
      </trkpt>
      <trkpt lat="28.7376070" lon="-17.7646070">
        <ele>770.2</ele>
        <time>2020-11-16T09:01:51Z</time>
      </trkpt>
      <trkpt lat="28.7375920" lon="-17.7646320">
        <ele>770.5</ele>
        <time>2020-11-16T09:01:52Z</time>
      </trkpt>
      <trkpt lat="28.7375920" lon="-17.7646320">
        <ele>770.5</ele>
        <time>2020-11-16T09:01:53Z</time>
      </trkpt>
      <trkpt lat="28.7375830" lon="-17.7646620">
        <ele>770.9</ele>
        <time>2020-11-16T09:01:54Z</time>
      </trkpt>
      <trkpt lat="28.7375780" lon="-17.7646800">
        <ele>771.1</ele>
        <time>2020-11-16T09:01:55Z</time>
      </trkpt>
      <trkpt lat="28.7375770" lon="-17.7646980">
        <ele>771.3</ele>
        <time>2020-11-16T09:01:56Z</time>
      </trkpt>
      <trkpt lat="28.7375770" lon="-17.7646980">
        <ele>771.3</ele>
        <time>2020-11-16T09:01:57Z</time>
      </trkpt>
      <trkpt lat="28.7375870" lon="-17.7647400">
        <ele>771.8</ele>
        <time>2020-11-16T09:01:58Z</time>
      </trkpt>
      <trkpt lat="28.7375870" lon="-17.7647400">
        <ele>771.8</ele>
        <time>2020-11-16T09:01:59Z</time>
      </trkpt>
      <trkpt lat="28.7375880" lon="-17.7647930">
        <ele>772.3</ele>
        <time>2020-11-16T09:02:00Z</time>
      </trkpt>
      <trkpt lat="28.7375900" lon="-17.7648150">
        <ele>772.6</ele>
        <time>2020-11-16T09:02:01Z</time>
      </trkpt>
      <trkpt lat="28.7375900" lon="-17.7648300">
        <ele>772.8</ele>
        <time>2020-11-16T09:02:02Z</time>
      </trkpt>
      <trkpt lat="28.7375900" lon="-17.7648300">
        <ele>772.8</ele>
        <time>2020-11-16T09:02:03Z</time>
      </trkpt>
      <trkpt lat="28.7375870" lon="-17.7648700">
        <ele>773.2</ele>
        <time>2020-11-16T09:02:04Z</time>
      </trkpt>
      <trkpt lat="28.7375900" lon="-17.7648900">
        <ele>773.4</ele>
        <time>2020-11-16T09:02:05Z</time>
      </trkpt>
      <trkpt lat="28.7375900" lon="-17.7649120">
        <ele>773.7</ele>
        <time>2020-11-16T09:02:06Z</time>
      </trkpt>
      <trkpt lat="28.7375900" lon="-17.7649120">
        <ele>773.7</ele>
        <time>2020-11-16T09:02:07Z</time>
      </trkpt>
      <trkpt lat="28.7375820" lon="-17.7649450">
        <ele>774.1</ele>
        <time>2020-11-16T09:02:08Z</time>
      </trkpt>
      <trkpt lat="28.7375820" lon="-17.7649450">
        <ele>774.1</ele>
        <time>2020-11-16T09:02:09Z</time>
      </trkpt>
      <trkpt lat="28.7375750" lon="-17.7649770">
        <ele>774.4</ele>
        <time>2020-11-16T09:02:10Z</time>
      </trkpt>
      <trkpt lat="28.7375700" lon="-17.7649930">
        <ele>774.6</ele>
        <time>2020-11-16T09:02:11Z</time>
      </trkpt>
      <trkpt lat="28.7375700" lon="-17.7649930">
        <ele>774.6</ele>
        <time>2020-11-16T09:02:12Z</time>
      </trkpt>
      <trkpt lat="28.7375580" lon="-17.7650170">
        <ele>774.9</ele>
        <time>2020-11-16T09:02:13Z</time>
      </trkpt>
      <trkpt lat="28.7375580" lon="-17.7650170">
        <ele>774.9</ele>
        <time>2020-11-16T09:02:14Z</time>
      </trkpt>
      <trkpt lat="28.7375500" lon="-17.7650480">
        <ele>775.3</ele>
        <time>2020-11-16T09:02:15Z</time>
      </trkpt>
      <trkpt lat="28.7375500" lon="-17.7650480">
        <ele>775.3</ele>
        <time>2020-11-16T09:02:16Z</time>
      </trkpt>
      <trkpt lat="28.7375370" lon="-17.7650750">
        <ele>775.6</ele>
        <time>2020-11-16T09:02:17Z</time>
      </trkpt>
      <trkpt lat="28.7375370" lon="-17.7650750">
        <ele>775.6</ele>
        <time>2020-11-16T09:02:18Z</time>
      </trkpt>
      <trkpt lat="28.7375300" lon="-17.7650980">
        <ele>775.9</ele>
        <time>2020-11-16T09:02:19Z</time>
      </trkpt>
      <trkpt lat="28.7375280" lon="-17.7651080">
        <ele>776.0</ele>
        <time>2020-11-16T09:02:20Z</time>
      </trkpt>
      <trkpt lat="28.7375280" lon="-17.7651080">
        <ele>776.0</ele>
        <time>2020-11-16T09:02:21Z</time>
      </trkpt>
      <trkpt lat="28.7375170" lon="-17.7651320">
        <ele>776.3</ele>
        <time>2020-11-16T09:02:22Z</time>
      </trkpt>
      <trkpt lat="28.7375170" lon="-17.7651320">
        <ele>776.3</ele>
        <time>2020-11-16T09:02:23Z</time>
      </trkpt>
      <trkpt lat="28.7375020" lon="-17.7651750">
        <ele>776.8</ele>
        <time>2020-11-16T09:02:24Z</time>
      </trkpt>
      <trkpt lat="28.7374880" lon="-17.7651900">
        <ele>777.1</ele>
        <time>2020-11-16T09:02:25Z</time>
      </trkpt>
      <trkpt lat="28.7374900" lon="-17.7652020">
        <ele>777.2</ele>
        <time>2020-11-16T09:02:26Z</time>
      </trkpt>
      <trkpt lat="28.7374920" lon="-17.7652170">
        <ele>777.4</ele>
        <time>2020-11-16T09:02:27Z</time>
      </trkpt>
      <trkpt lat="28.7374920" lon="-17.7652170">
        <ele>777.4</ele>
        <time>2020-11-16T09:02:28Z</time>
      </trkpt>
      <trkpt lat="28.7374900" lon="-17.7652530">
        <ele>777.8</ele>
        <time>2020-11-16T09:02:29Z</time>
      </trkpt>
      <trkpt lat="28.7374900" lon="-17.7652530">
        <ele>777.8</ele>
        <time>2020-11-16T09:02:30Z</time>
      </trkpt>
      <trkpt lat="28.7374850" lon="-17.7653000">
        <ele>778.3</ele>
        <time>2020-11-16T09:02:31Z</time>
      </trkpt>
      <trkpt lat="28.7374850" lon="-17.7653000">
        <ele>778.3</ele>
        <time>2020-11-16T09:02:32Z</time>
      </trkpt>
      <trkpt lat="28.7374850" lon="-17.7653300">
        <ele>778.6</ele>
        <time>2020-11-16T09:02:33Z</time>
      </trkpt>
      <trkpt lat="28.7374850" lon="-17.7653300">
        <ele>778.6</ele>
        <time>2020-11-16T09:02:34Z</time>
      </trkpt>
      <trkpt lat="28.7374820" lon="-17.7653630">
        <ele>779.0</ele>
        <time>2020-11-16T09:02:35Z</time>
      </trkpt>
      <trkpt lat="28.7374820" lon="-17.7653630">
        <ele>779.0</ele>
        <time>2020-11-16T09:02:36Z</time>
      </trkpt>
      <trkpt lat="28.7374750" lon="-17.7654030">
        <ele>779.5</ele>
        <time>2020-11-16T09:02:37Z</time>
      </trkpt>
      <trkpt lat="28.7374700" lon="-17.7654200">
        <ele>779.7</ele>
        <time>2020-11-16T09:02:38Z</time>
      </trkpt>
      <trkpt lat="28.7374700" lon="-17.7654200">
        <ele>779.7</ele>
        <time>2020-11-16T09:02:39Z</time>
      </trkpt>
      <trkpt lat="28.7374600" lon="-17.7654570">
        <ele>780.1</ele>
        <time>2020-11-16T09:02:40Z</time>
      </trkpt>
      <trkpt lat="28.7374520" lon="-17.7654750">
        <ele>780.3</ele>
        <time>2020-11-16T09:02:41Z</time>
      </trkpt>
      <trkpt lat="28.7374470" lon="-17.7654930">
        <ele>780.5</ele>
        <time>2020-11-16T09:02:42Z</time>
      </trkpt>
      <trkpt lat="28.7374470" lon="-17.7654930">
        <ele>780.5</ele>
        <time>2020-11-16T09:02:43Z</time>
      </trkpt>
      <trkpt lat="28.7374330" lon="-17.7655300">
        <ele>781.0</ele>
        <time>2020-11-16T09:02:44Z</time>
      </trkpt>
      <trkpt lat="28.7374330" lon="-17.7655300">
        <ele>781.0</ele>
        <time>2020-11-16T09:02:45Z</time>
      </trkpt>
      <trkpt lat="28.7374170" lon="-17.7655770">
        <ele>781.5</ele>
        <time>2020-11-16T09:02:46Z</time>
      </trkpt>
      <trkpt lat="28.7374170" lon="-17.7655770">
        <ele>781.5</ele>
        <time>2020-11-16T09:02:47Z</time>
      </trkpt>
      <trkpt lat="28.7374050" lon="-17.7656100">
        <ele>781.9</ele>
        <time>2020-11-16T09:02:48Z</time>
      </trkpt>
      <trkpt lat="28.7374050" lon="-17.7656100">
        <ele>781.9</ele>
        <time>2020-11-16T09:02:49Z</time>
      </trkpt>
      <trkpt lat="28.7374000" lon="-17.7656420">
        <ele>782.3</ele>
        <time>2020-11-16T09:02:50Z</time>
      </trkpt>
      <trkpt lat="28.7374000" lon="-17.7656420">
        <ele>782.3</ele>
        <time>2020-11-16T09:02:51Z</time>
      </trkpt>
      <trkpt lat="28.7373930" lon="-17.7656800">
        <ele>782.7</ele>
        <time>2020-11-16T09:02:52Z</time>
      </trkpt>
      <trkpt lat="28.7373930" lon="-17.7656800">
        <ele>782.7</ele>
        <time>2020-11-16T09:02:53Z</time>
      </trkpt>
      <trkpt lat="28.7373850" lon="-17.7657020">
        <ele>783.0</ele>
        <time>2020-11-16T09:02:54Z</time>
      </trkpt>
      <trkpt lat="28.7373850" lon="-17.7657020">
        <ele>783.0</ele>
        <time>2020-11-16T09:02:55Z</time>
      </trkpt>
      <trkpt lat="28.7373700" lon="-17.7657280">
        <ele>783.3</ele>
        <time>2020-11-16T09:02:56Z</time>
      </trkpt>
      <trkpt lat="28.7373700" lon="-17.7657280">
        <ele>783.3</ele>
        <time>2020-11-16T09:02:57Z</time>
      </trkpt>
      <trkpt lat="28.7373470" lon="-17.7657470">
        <ele>783.7</ele>
        <time>2020-11-16T09:02:58Z</time>
      </trkpt>
      <trkpt lat="28.7373320" lon="-17.7657580">
        <ele>783.9</ele>
        <time>2020-11-16T09:02:59Z</time>
      </trkpt>
      <trkpt lat="28.7373320" lon="-17.7657580">
        <ele>783.9</ele>
        <time>2020-11-16T09:03:00Z</time>
      </trkpt>
      <trkpt lat="28.7373000" lon="-17.7657980">
        <ele>784.5</ele>
        <time>2020-11-16T09:03:01Z</time>
      </trkpt>
      <trkpt lat="28.7373000" lon="-17.7657980">
        <ele>784.5</ele>
        <time>2020-11-16T09:03:02Z</time>
      </trkpt>
      <trkpt lat="28.7372850" lon="-17.7658300">
        <ele>784.9</ele>
        <time>2020-11-16T09:03:03Z</time>
      </trkpt>
      <trkpt lat="28.7372850" lon="-17.7658300">
        <ele>784.9</ele>
        <time>2020-11-16T09:03:04Z</time>
      </trkpt>
      <trkpt lat="28.7372730" lon="-17.7658570">
        <ele>785.2</ele>
        <time>2020-11-16T09:03:05Z</time>
      </trkpt>
      <trkpt lat="28.7372730" lon="-17.7658570">
        <ele>785.2</ele>
        <time>2020-11-16T09:03:06Z</time>
      </trkpt>
      <trkpt lat="28.7372580" lon="-17.7658750">
        <ele>785.5</ele>
        <time>2020-11-16T09:03:07Z</time>
      </trkpt>
      <trkpt lat="28.7372520" lon="-17.7658780">
        <ele>785.6</ele>
        <time>2020-11-16T09:03:08Z</time>
      </trkpt>
      <trkpt lat="28.7372520" lon="-17.7658780">
        <ele>785.6</ele>
        <time>2020-11-16T09:03:09Z</time>
      </trkpt>
      <trkpt lat="28.7372350" lon="-17.7658980">
        <ele>785.9</ele>
        <time>2020-11-16T09:03:10Z</time>
      </trkpt>
      <trkpt lat="28.7372230" lon="-17.7659080">
        <ele>786.1</ele>
        <time>2020-11-16T09:03:11Z</time>
      </trkpt>
      <trkpt lat="28.7372230" lon="-17.7659080">
        <ele>786.1</ele>
        <time>2020-11-16T09:03:12Z</time>
      </trkpt>
      <trkpt lat="28.7372000" lon="-17.7659270">
        <ele>786.5</ele>
        <time>2020-11-16T09:03:13Z</time>
      </trkpt>
      <trkpt lat="28.7371800" lon="-17.7659380">
        <ele>786.7</ele>
        <time>2020-11-16T09:03:14Z</time>
      </trkpt>
      <trkpt lat="28.7371800" lon="-17.7659380">
        <ele>786.7</ele>
        <time>2020-11-16T09:03:15Z</time>
      </trkpt>
      <trkpt lat="28.7371500" lon="-17.7659600">
        <ele>787.2</ele>
        <time>2020-11-16T09:03:16Z</time>
      </trkpt>
      <trkpt lat="28.7371500" lon="-17.7659600">
        <ele>787.2</ele>
        <time>2020-11-16T09:03:17Z</time>
      </trkpt>
      <trkpt lat="28.7371170" lon="-17.7659830">
        <ele>787.7</ele>
        <time>2020-11-16T09:03:18Z</time>
      </trkpt>
      <trkpt lat="28.7371170" lon="-17.7659830">
        <ele>787.7</ele>
        <time>2020-11-16T09:03:19Z</time>
      </trkpt>
      <trkpt lat="28.7370850" lon="-17.7660030">
        <ele>788.2</ele>
        <time>2020-11-16T09:03:20Z</time>
      </trkpt>
      <trkpt lat="28.7370630" lon="-17.7660070">
        <ele>788.4</ele>
        <time>2020-11-16T09:03:21Z</time>
      </trkpt>
      <trkpt lat="28.7370630" lon="-17.7660070">
        <ele>788.4</ele>
        <time>2020-11-16T09:03:22Z</time>
      </trkpt>
      <trkpt lat="28.7370320" lon="-17.7660230">
        <ele>788.9</ele>
        <time>2020-11-16T09:03:23Z</time>
      </trkpt>
      <trkpt lat="28.7370170" lon="-17.7660350">
        <ele>789.1</ele>
        <time>2020-11-16T09:03:24Z</time>
      </trkpt>
      <trkpt lat="28.7370170" lon="-17.7660350">
        <ele>789.1</ele>
        <time>2020-11-16T09:03:25Z</time>
      </trkpt>
      <trkpt lat="28.7369820" lon="-17.7660530">
        <ele>789.6</ele>
        <time>2020-11-16T09:03:26Z</time>
      </trkpt>
      <trkpt lat="28.7369820" lon="-17.7660530">
        <ele>789.6</ele>
        <time>2020-11-16T09:03:27Z</time>
      </trkpt>
      <trkpt lat="28.7369450" lon="-17.7660700">
        <ele>790.1</ele>
        <time>2020-11-16T09:03:28Z</time>
      </trkpt>
      <trkpt lat="28.7369450" lon="-17.7660700">
        <ele>790.1</ele>
        <time>2020-11-16T09:03:29Z</time>
      </trkpt>
      <trkpt lat="28.7369120" lon="-17.7660820">
        <ele>790.5</ele>
        <time>2020-11-16T09:03:30Z</time>
      </trkpt>
      <trkpt lat="28.7368950" lon="-17.7660900">
        <ele>790.8</ele>
        <time>2020-11-16T09:03:31Z</time>
      </trkpt>
      <trkpt lat="28.7368730" lon="-17.7661020">
        <ele>791.1</ele>
        <time>2020-11-16T09:03:32Z</time>
      </trkpt>
      <trkpt lat="28.7368730" lon="-17.7661020">
        <ele>791.1</ele>
        <time>2020-11-16T09:03:33Z</time>
      </trkpt>
      <trkpt lat="28.7368430" lon="-17.7661220">
        <ele>791.5</ele>
        <time>2020-11-16T09:03:34Z</time>
      </trkpt>
      <trkpt lat="28.7368430" lon="-17.7661220">
        <ele>791.5</ele>
        <time>2020-11-16T09:03:35Z</time>
      </trkpt>
      <trkpt lat="28.7368100" lon="-17.7661450">
        <ele>792.0</ele>
        <time>2020-11-16T09:03:36Z</time>
      </trkpt>
      <trkpt lat="28.7367980" lon="-17.7661600">
        <ele>792.2</ele>
        <time>2020-11-16T09:03:37Z</time>
      </trkpt>
      <trkpt lat="28.7367850" lon="-17.7661730">
        <ele>792.4</ele>
        <time>2020-11-16T09:03:38Z</time>
      </trkpt>
      <trkpt lat="28.7367850" lon="-17.7661730">
        <ele>792.4</ele>
        <time>2020-11-16T09:03:39Z</time>
      </trkpt>
      <trkpt lat="28.7367570" lon="-17.7662030">
        <ele>792.9</ele>
        <time>2020-11-16T09:03:40Z</time>
      </trkpt>
      <trkpt lat="28.7367570" lon="-17.7662030">
        <ele>792.9</ele>
        <time>2020-11-16T09:03:41Z</time>
      </trkpt>
      <trkpt lat="28.7367270" lon="-17.7662220">
        <ele>793.4</ele>
        <time>2020-11-16T09:03:42Z</time>
      </trkpt>
      <trkpt lat="28.7367270" lon="-17.7662220">
        <ele>793.4</ele>
        <time>2020-11-16T09:03:43Z</time>
      </trkpt>
      <trkpt lat="28.7366950" lon="-17.7662400">
        <ele>793.8</ele>
        <time>2020-11-16T09:03:44Z</time>
      </trkpt>
      <trkpt lat="28.7366950" lon="-17.7662400">
        <ele>793.8</ele>
        <time>2020-11-16T09:03:45Z</time>
      </trkpt>
      <trkpt lat="28.7366700" lon="-17.7662600">
        <ele>794.2</ele>
        <time>2020-11-16T09:03:46Z</time>
      </trkpt>
      <trkpt lat="28.7366600" lon="-17.7662670">
        <ele>794.4</ele>
        <time>2020-11-16T09:03:47Z</time>
      </trkpt>
      <trkpt lat="28.7366600" lon="-17.7662670">
        <ele>794.4</ele>
        <time>2020-11-16T09:03:48Z</time>
      </trkpt>
      <trkpt lat="28.7366400" lon="-17.7662870">
        <ele>794.7</ele>
        <time>2020-11-16T09:03:49Z</time>
      </trkpt>
      <trkpt lat="28.7366300" lon="-17.7662950">
        <ele>794.8</ele>
        <time>2020-11-16T09:03:50Z</time>
      </trkpt>
      <trkpt lat="28.7366300" lon="-17.7662950">
        <ele>794.8</ele>
        <time>2020-11-16T09:03:51Z</time>
      </trkpt>
      <trkpt lat="28.7366050" lon="-17.7663130">
        <ele>795.2</ele>
        <time>2020-11-16T09:03:52Z</time>
      </trkpt>
      <trkpt lat="28.7365920" lon="-17.7663250">
        <ele>795.4</ele>
        <time>2020-11-16T09:03:53Z</time>
      </trkpt>
      <trkpt lat="28.7365920" lon="-17.7663250">
        <ele>795.4</ele>
        <time>2020-11-16T09:03:54Z</time>
      </trkpt>
      <trkpt lat="28.7365670" lon="-17.7663450">
        <ele>795.8</ele>
        <time>2020-11-16T09:03:55Z</time>
      </trkpt>
      <trkpt lat="28.7365530" lon="-17.7663550">
        <ele>796.0</ele>
        <time>2020-11-16T09:03:56Z</time>
      </trkpt>
      <trkpt lat="28.7365530" lon="-17.7663550">
        <ele>796.0</ele>
        <time>2020-11-16T09:03:57Z</time>
      </trkpt>
      <trkpt lat="28.7365280" lon="-17.7663720">
        <ele>796.4</ele>
        <time>2020-11-16T09:03:58Z</time>
      </trkpt>
      <trkpt lat="28.7365280" lon="-17.7663720">
        <ele>796.4</ele>
        <time>2020-11-16T09:03:59Z</time>
      </trkpt>
      <trkpt lat="28.7365000" lon="-17.7663930">
        <ele>796.8</ele>
        <time>2020-11-16T09:04:00Z</time>
      </trkpt>
      <trkpt lat="28.7365000" lon="-17.7663930">
        <ele>796.8</ele>
        <time>2020-11-16T09:04:01Z</time>
      </trkpt>
      <trkpt lat="28.7364680" lon="-17.7664270">
        <ele>797.3</ele>
        <time>2020-11-16T09:04:02Z</time>
      </trkpt>
      <trkpt lat="28.7364580" lon="-17.7664480">
        <ele>797.6</ele>
        <time>2020-11-16T09:04:03Z</time>
      </trkpt>
      <trkpt lat="28.7364580" lon="-17.7664480">
        <ele>797.6</ele>
        <time>2020-11-16T09:04:04Z</time>
      </trkpt>
      <trkpt lat="28.7364300" lon="-17.7664780">
        <ele>798.1</ele>
        <time>2020-11-16T09:04:05Z</time>
      </trkpt>
      <trkpt lat="28.7364300" lon="-17.7664780">
        <ele>798.1</ele>
        <time>2020-11-16T09:04:06Z</time>
      </trkpt>
      <trkpt lat="28.7364100" lon="-17.7665050">
        <ele>798.5</ele>
        <time>2020-11-16T09:04:07Z</time>
      </trkpt>
      <trkpt lat="28.7364100" lon="-17.7665050">
        <ele>798.5</ele>
        <time>2020-11-16T09:04:08Z</time>
      </trkpt>
      <trkpt lat="28.7363900" lon="-17.7665380">
        <ele>798.9</ele>
        <time>2020-11-16T09:04:09Z</time>
      </trkpt>
      <trkpt lat="28.7363900" lon="-17.7665380">
        <ele>798.9</ele>
        <time>2020-11-16T09:04:10Z</time>
      </trkpt>
      <trkpt lat="28.7363700" lon="-17.7665680">
        <ele>799.4</ele>
        <time>2020-11-16T09:04:11Z</time>
      </trkpt>
      <trkpt lat="28.7363580" lon="-17.7665830">
        <ele>799.6</ele>
        <time>2020-11-16T09:04:12Z</time>
      </trkpt>
      <trkpt lat="28.7363580" lon="-17.7665830">
        <ele>799.6</ele>
        <time>2020-11-16T09:04:13Z</time>
      </trkpt>
      <trkpt lat="28.7363370" lon="-17.7666130">
        <ele>800.0</ele>
        <time>2020-11-16T09:04:14Z</time>
      </trkpt>
      <trkpt lat="28.7363370" lon="-17.7666130">
        <ele>800.0</ele>
        <time>2020-11-16T09:04:15Z</time>
      </trkpt>
      <trkpt lat="28.7363080" lon="-17.7666450">
        <ele>800.5</ele>
        <time>2020-11-16T09:04:16Z</time>
      </trkpt>
      <trkpt lat="28.7362930" lon="-17.7666570">
        <ele>800.8</ele>
        <time>2020-11-16T09:04:17Z</time>
      </trkpt>
      <trkpt lat="28.7362930" lon="-17.7666570">
        <ele>800.8</ele>
        <time>2020-11-16T09:04:18Z</time>
      </trkpt>
      <trkpt lat="28.7362630" lon="-17.7666900">
        <ele>801.3</ele>
        <time>2020-11-16T09:04:19Z</time>
      </trkpt>
      <trkpt lat="28.7362630" lon="-17.7666900">
        <ele>801.3</ele>
        <time>2020-11-16T09:04:20Z</time>
      </trkpt>
      <trkpt lat="28.7362420" lon="-17.7667270">
        <ele>801.8</ele>
        <time>2020-11-16T09:04:21Z</time>
      </trkpt>
      <trkpt lat="28.7362330" lon="-17.7667430">
        <ele>802.0</ele>
        <time>2020-11-16T09:04:22Z</time>
      </trkpt>
      <trkpt lat="28.7362330" lon="-17.7667430">
        <ele>802.0</ele>
        <time>2020-11-16T09:04:23Z</time>
      </trkpt>
      <trkpt lat="28.7362120" lon="-17.7667730">
        <ele>802.4</ele>
        <time>2020-11-16T09:04:24Z</time>
      </trkpt>
      <trkpt lat="28.7362030" lon="-17.7667870">
        <ele>802.6</ele>
        <time>2020-11-16T09:04:25Z</time>
      </trkpt>
      <trkpt lat="28.7362030" lon="-17.7667870">
        <ele>802.6</ele>
        <time>2020-11-16T09:04:26Z</time>
      </trkpt>
      <trkpt lat="28.7361850" lon="-17.7668130">
        <ele>803.0</ele>
        <time>2020-11-16T09:04:27Z</time>
      </trkpt>
      <trkpt lat="28.7361780" lon="-17.7668270">
        <ele>803.2</ele>
        <time>2020-11-16T09:04:28Z</time>
      </trkpt>
      <trkpt lat="28.7361780" lon="-17.7668270">
        <ele>803.2</ele>
        <time>2020-11-16T09:04:29Z</time>
      </trkpt>
      <trkpt lat="28.7361700" lon="-17.7668620">
        <ele>803.6</ele>
        <time>2020-11-16T09:04:30Z</time>
      </trkpt>
      <trkpt lat="28.7361700" lon="-17.7668620">
        <ele>803.6</ele>
        <time>2020-11-16T09:04:31Z</time>
      </trkpt>
      <trkpt lat="28.7361570" lon="-17.7668980">
        <ele>804.0</ele>
        <time>2020-11-16T09:04:32Z</time>
      </trkpt>
      <trkpt lat="28.7361530" lon="-17.7669200">
        <ele>804.2</ele>
        <time>2020-11-16T09:04:33Z</time>
      </trkpt>
      <trkpt lat="28.7361530" lon="-17.7669200">
        <ele>804.2</ele>
        <time>2020-11-16T09:04:34Z</time>
      </trkpt>
      <trkpt lat="28.7361420" lon="-17.7669650">
        <ele>804.8</ele>
        <time>2020-11-16T09:04:35Z</time>
      </trkpt>
      <trkpt lat="28.7361420" lon="-17.7669650">
        <ele>804.8</ele>
        <time>2020-11-16T09:04:36Z</time>
      </trkpt>
      <trkpt lat="28.7361280" lon="-17.7669950">
        <ele>805.1</ele>
        <time>2020-11-16T09:04:37Z</time>
      </trkpt>
      <trkpt lat="28.7361120" lon="-17.7670050">
        <ele>805.4</ele>
        <time>2020-11-16T09:04:38Z</time>
      </trkpt>
      <trkpt lat="28.7361120" lon="-17.7670050">
        <ele>805.4</ele>
        <time>2020-11-16T09:04:39Z</time>
      </trkpt>
      <trkpt lat="28.7360980" lon="-17.7670350">
        <ele>805.8</ele>
        <time>2020-11-16T09:04:40Z</time>
      </trkpt>
      <trkpt lat="28.7360980" lon="-17.7670350">
        <ele>805.8</ele>
        <time>2020-11-16T09:04:41Z</time>
      </trkpt>
      <trkpt lat="28.7360850" lon="-17.7670680">
        <ele>806.2</ele>
        <time>2020-11-16T09:04:42Z</time>
      </trkpt>
      <trkpt lat="28.7360780" lon="-17.7670820">
        <ele>806.3</ele>
        <time>2020-11-16T09:04:43Z</time>
      </trkpt>
      <trkpt lat="28.7360720" lon="-17.7670970">
        <ele>806.5</ele>
        <time>2020-11-16T09:04:44Z</time>
      </trkpt>
      <trkpt lat="28.7360720" lon="-17.7670970">
        <ele>806.5</ele>
        <time>2020-11-16T09:04:45Z</time>
      </trkpt>
      <trkpt lat="28.7360580" lon="-17.7671270">
        <ele>806.9</ele>
        <time>2020-11-16T09:04:46Z</time>
      </trkpt>
      <trkpt lat="28.7360580" lon="-17.7671270">
        <ele>806.9</ele>
        <time>2020-11-16T09:04:47Z</time>
      </trkpt>
      <trkpt lat="28.7360580" lon="-17.7671270">
        <ele>806.9</ele>
        <time>2020-11-16T09:04:48Z</time>
      </trkpt>
      <trkpt lat="28.7360400" lon="-17.7671750">
        <ele>807.5</ele>
        <time>2020-11-16T09:04:49Z</time>
      </trkpt>
      <trkpt lat="28.7360400" lon="-17.7671750">
        <ele>807.5</ele>
        <time>2020-11-16T09:04:50Z</time>
      </trkpt>
      <trkpt lat="28.7360300" lon="-17.7672070">
        <ele>807.9</ele>
        <time>2020-11-16T09:04:51Z</time>
      </trkpt>
      <trkpt lat="28.7360300" lon="-17.7672070">
        <ele>807.9</ele>
        <time>2020-11-16T09:04:52Z</time>
      </trkpt>
      <trkpt lat="28.7360200" lon="-17.7672400">
        <ele>808.2</ele>
        <time>2020-11-16T09:04:53Z</time>
      </trkpt>
      <trkpt lat="28.7360180" lon="-17.7672550">
        <ele>808.4</ele>
        <time>2020-11-16T09:04:54Z</time>
      </trkpt>
      <trkpt lat="28.7360180" lon="-17.7672550">
        <ele>808.4</ele>
        <time>2020-11-16T09:04:55Z</time>
      </trkpt>
      <trkpt lat="28.7360120" lon="-17.7672870">
        <ele>808.8</ele>
        <time>2020-11-16T09:04:56Z</time>
      </trkpt>
      <trkpt lat="28.7360080" lon="-17.7673030">
        <ele>809.0</ele>
        <time>2020-11-16T09:04:57Z</time>
      </trkpt>
      <trkpt lat="28.7360080" lon="-17.7673030">
        <ele>809.0</ele>
        <time>2020-11-16T09:04:58Z</time>
      </trkpt>
      <trkpt lat="28.7360030" lon="-17.7673350">
        <ele>809.3</ele>
        <time>2020-11-16T09:04:59Z</time>
      </trkpt>
      <trkpt lat="28.7360050" lon="-17.7673520">
        <ele>809.5</ele>
        <time>2020-11-16T09:05:00Z</time>
      </trkpt>
      <trkpt lat="28.7360050" lon="-17.7673520">
        <ele>809.5</ele>
        <time>2020-11-16T09:05:01Z</time>
      </trkpt>
      <trkpt lat="28.7360020" lon="-17.7673820">
        <ele>809.9</ele>
        <time>2020-11-16T09:05:02Z</time>
      </trkpt>
      <trkpt lat="28.7360020" lon="-17.7673820">
        <ele>809.9</ele>
        <time>2020-11-16T09:05:03Z</time>
      </trkpt>
      <trkpt lat="28.7359920" lon="-17.7674120">
        <ele>810.2</ele>
        <time>2020-11-16T09:05:04Z</time>
      </trkpt>
      <trkpt lat="28.7359920" lon="-17.7674120">
        <ele>810.2</ele>
        <time>2020-11-16T09:05:05Z</time>
      </trkpt>
      <trkpt lat="28.7360000" lon="-17.7674530">
        <ele>810.6</ele>
        <time>2020-11-16T09:05:06Z</time>
      </trkpt>
      <trkpt lat="28.7360000" lon="-17.7674530">
        <ele>810.6</ele>
        <time>2020-11-16T09:05:07Z</time>
      </trkpt>
      <trkpt lat="28.7360130" lon="-17.7674900">
        <ele>810.9</ele>
        <time>2020-11-16T09:05:08Z</time>
      </trkpt>
      <trkpt lat="28.7360130" lon="-17.7674900">
        <ele>810.9</ele>
        <time>2020-11-16T09:05:09Z</time>
      </trkpt>
      <trkpt lat="28.7360230" lon="-17.7675270">
        <ele>811.1</ele>
        <time>2020-11-16T09:05:10Z</time>
      </trkpt>
      <trkpt lat="28.7360180" lon="-17.7675530">
        <ele>811.3</ele>
        <time>2020-11-16T09:05:11Z</time>
      </trkpt>
      <trkpt lat="28.7360180" lon="-17.7675530">
        <ele>811.3</ele>
        <time>2020-11-16T09:05:12Z</time>
      </trkpt>
      <trkpt lat="28.7360080" lon="-17.7675950">
        <ele>811.6</ele>
        <time>2020-11-16T09:05:13Z</time>
      </trkpt>
      <trkpt lat="28.7360080" lon="-17.7675950">
        <ele>811.6</ele>
        <time>2020-11-16T09:05:14Z</time>
      </trkpt>
      <trkpt lat="28.7360130" lon="-17.7676250">
        <ele>811.8</ele>
        <time>2020-11-16T09:05:15Z</time>
      </trkpt>
      <trkpt lat="28.7360130" lon="-17.7676250">
        <ele>811.8</ele>
        <time>2020-11-16T09:05:16Z</time>
      </trkpt>
      <trkpt lat="28.7360200" lon="-17.7676650">
        <ele>812.2</ele>
        <time>2020-11-16T09:05:17Z</time>
      </trkpt>
      <trkpt lat="28.7360200" lon="-17.7676650">
        <ele>812.2</ele>
        <time>2020-11-16T09:05:18Z</time>
      </trkpt>
      <trkpt lat="28.7360280" lon="-17.7677050">
        <ele>812.5</ele>
        <time>2020-11-16T09:05:19Z</time>
      </trkpt>
      <trkpt lat="28.7360280" lon="-17.7677250">
        <ele>812.7</ele>
        <time>2020-11-16T09:05:20Z</time>
      </trkpt>
      <trkpt lat="28.7360320" lon="-17.7677420">
        <ele>812.9</ele>
        <time>2020-11-16T09:05:21Z</time>
      </trkpt>
      <trkpt lat="28.7360350" lon="-17.7677570">
        <ele>813.0</ele>
        <time>2020-11-16T09:05:22Z</time>
      </trkpt>
      <trkpt lat="28.7360350" lon="-17.7677570">
        <ele>813.0</ele>
        <time>2020-11-16T09:05:23Z</time>
      </trkpt>
      <trkpt lat="28.7360480" lon="-17.7677970">
        <ele>813.4</ele>
        <time>2020-11-16T09:05:24Z</time>
      </trkpt>
      <trkpt lat="28.7360480" lon="-17.7677970">
        <ele>813.4</ele>
        <time>2020-11-16T09:05:25Z</time>
      </trkpt>
      <trkpt lat="28.7360580" lon="-17.7678370">
        <ele>813.7</ele>
        <time>2020-11-16T09:05:26Z</time>
      </trkpt>
      <trkpt lat="28.7360580" lon="-17.7678370">
        <ele>813.7</ele>
        <time>2020-11-16T09:05:27Z</time>
      </trkpt>
      <trkpt lat="28.7360700" lon="-17.7678750">
        <ele>814.1</ele>
        <time>2020-11-16T09:05:28Z</time>
      </trkpt>
      <trkpt lat="28.7360700" lon="-17.7678750">
        <ele>814.1</ele>
        <time>2020-11-16T09:05:29Z</time>
      </trkpt>
      <trkpt lat="28.7360770" lon="-17.7679130">
        <ele>814.4</ele>
        <time>2020-11-16T09:05:30Z</time>
      </trkpt>
      <trkpt lat="28.7360770" lon="-17.7679130">
        <ele>814.4</ele>
        <time>2020-11-16T09:05:31Z</time>
      </trkpt>
      <trkpt lat="28.7360770" lon="-17.7679450">
        <ele>814.6</ele>
        <time>2020-11-16T09:05:32Z</time>
      </trkpt>
      <trkpt lat="28.7360770" lon="-17.7679450">
        <ele>814.6</ele>
        <time>2020-11-16T09:05:33Z</time>
      </trkpt>
      <trkpt lat="28.7360950" lon="-17.7679770">
        <ele>814.9</ele>
        <time>2020-11-16T09:05:34Z</time>
      </trkpt>
      <trkpt lat="28.7360950" lon="-17.7679770">
        <ele>814.9</ele>
        <time>2020-11-16T09:05:35Z</time>
      </trkpt>
      <trkpt lat="28.7361080" lon="-17.7680020">
        <ele>815.2</ele>
        <time>2020-11-16T09:05:36Z</time>
      </trkpt>
      <trkpt lat="28.7361080" lon="-17.7680020">
        <ele>815.2</ele>
        <time>2020-11-16T09:05:37Z</time>
      </trkpt>
      <trkpt lat="28.7361250" lon="-17.7680370">
        <ele>815.4</ele>
        <time>2020-11-16T09:05:38Z</time>
      </trkpt>
      <trkpt lat="28.7361370" lon="-17.7680520">
        <ele>815.6</ele>
        <time>2020-11-16T09:05:39Z</time>
      </trkpt>
      <trkpt lat="28.7361430" lon="-17.7680730">
        <ele>815.7</ele>
        <time>2020-11-16T09:05:40Z</time>
      </trkpt>
      <trkpt lat="28.7361430" lon="-17.7680730">
        <ele>815.7</ele>
        <time>2020-11-16T09:05:41Z</time>
      </trkpt>
      <trkpt lat="28.7361630" lon="-17.7681050">
        <ele>816.0</ele>
        <time>2020-11-16T09:05:42Z</time>
      </trkpt>
      <trkpt lat="28.7361630" lon="-17.7681050">
        <ele>816.0</ele>
        <time>2020-11-16T09:05:43Z</time>
      </trkpt>
      <trkpt lat="28.7361850" lon="-17.7681320">
        <ele>816.3</ele>
        <time>2020-11-16T09:05:44Z</time>
      </trkpt>
      <trkpt lat="28.7361850" lon="-17.7681320">
        <ele>816.3</ele>
        <time>2020-11-16T09:05:45Z</time>
      </trkpt>
      <trkpt lat="28.7362080" lon="-17.7681530">
        <ele>816.5</ele>
        <time>2020-11-16T09:05:46Z</time>
      </trkpt>
      <trkpt lat="28.7362080" lon="-17.7681530">
        <ele>816.5</ele>
        <time>2020-11-16T09:05:47Z</time>
      </trkpt>
      <trkpt lat="28.7362250" lon="-17.7681750">
        <ele>816.7</ele>
        <time>2020-11-16T09:05:48Z</time>
      </trkpt>
      <trkpt lat="28.7362250" lon="-17.7681750">
        <ele>816.7</ele>
        <time>2020-11-16T09:05:49Z</time>
      </trkpt>
      <trkpt lat="28.7362470" lon="-17.7681900">
        <ele>816.9</ele>
        <time>2020-11-16T09:05:50Z</time>
      </trkpt>
      <trkpt lat="28.7362470" lon="-17.7681900">
        <ele>816.9</ele>
        <time>2020-11-16T09:05:51Z</time>
      </trkpt>
      <trkpt lat="28.7362680" lon="-17.7682130">
        <ele>817.2</ele>
        <time>2020-11-16T09:05:52Z</time>
      </trkpt>
      <trkpt lat="28.7362830" lon="-17.7682250">
        <ele>817.3</ele>
        <time>2020-11-16T09:05:53Z</time>
      </trkpt>
      <trkpt lat="28.7362830" lon="-17.7682250">
        <ele>817.3</ele>
        <time>2020-11-16T09:05:54Z</time>
      </trkpt>
      <trkpt lat="28.7363100" lon="-17.7682520">
        <ele>817.6</ele>
        <time>2020-11-16T09:05:55Z</time>
      </trkpt>
      <trkpt lat="28.7363100" lon="-17.7682520">
        <ele>817.6</ele>
        <time>2020-11-16T09:05:56Z</time>
      </trkpt>
      <trkpt lat="28.7363350" lon="-17.7682700">
        <ele>817.9</ele>
        <time>2020-11-16T09:05:57Z</time>
      </trkpt>
      <trkpt lat="28.7363500" lon="-17.7682880">
        <ele>818.1</ele>
        <time>2020-11-16T09:05:58Z</time>
      </trkpt>
      <trkpt lat="28.7363500" lon="-17.7682880">
        <ele>818.1</ele>
        <time>2020-11-16T09:05:59Z</time>
      </trkpt>
      <trkpt lat="28.7363720" lon="-17.7683200">
        <ele>818.4</ele>
        <time>2020-11-16T09:06:00Z</time>
      </trkpt>
      <trkpt lat="28.7363850" lon="-17.7683380">
        <ele>818.6</ele>
        <time>2020-11-16T09:06:01Z</time>
      </trkpt>
      <trkpt lat="28.7363970" lon="-17.7683520">
        <ele>818.7</ele>
        <time>2020-11-16T09:06:02Z</time>
      </trkpt>
      <trkpt lat="28.7363970" lon="-17.7683520">
        <ele>818.7</ele>
        <time>2020-11-16T09:06:03Z</time>
      </trkpt>
      <trkpt lat="28.7364180" lon="-17.7683720">
        <ele>818.9</ele>
        <time>2020-11-16T09:06:04Z</time>
      </trkpt>
      <trkpt lat="28.7364180" lon="-17.7683720">
        <ele>818.9</ele>
        <time>2020-11-16T09:06:05Z</time>
      </trkpt>
      <trkpt lat="28.7364400" lon="-17.7683930">
        <ele>819.2</ele>
        <time>2020-11-16T09:06:06Z</time>
      </trkpt>
      <trkpt lat="28.7364400" lon="-17.7683930">
        <ele>819.2</ele>
        <time>2020-11-16T09:06:07Z</time>
      </trkpt>
      <trkpt lat="28.7364720" lon="-17.7684150">
        <ele>819.6</ele>
        <time>2020-11-16T09:06:08Z</time>
      </trkpt>
      <trkpt lat="28.7364720" lon="-17.7684150">
        <ele>819.6</ele>
        <time>2020-11-16T09:06:09Z</time>
      </trkpt>
      <trkpt lat="28.7364850" lon="-17.7684450">
        <ele>819.8</ele>
        <time>2020-11-16T09:06:10Z</time>
      </trkpt>
      <trkpt lat="28.7364850" lon="-17.7684450">
        <ele>819.8</ele>
        <time>2020-11-16T09:06:11Z</time>
      </trkpt>
      <trkpt lat="28.7365030" lon="-17.7684730">
        <ele>820.1</ele>
        <time>2020-11-16T09:06:12Z</time>
      </trkpt>
      <trkpt lat="28.7365130" lon="-17.7684850">
        <ele>820.3</ele>
        <time>2020-11-16T09:06:13Z</time>
      </trkpt>
      <trkpt lat="28.7365130" lon="-17.7684850">
        <ele>820.3</ele>
        <time>2020-11-16T09:06:14Z</time>
      </trkpt>
      <trkpt lat="28.7365320" lon="-17.7685120">
        <ele>820.6</ele>
        <time>2020-11-16T09:06:15Z</time>
      </trkpt>
      <trkpt lat="28.7365320" lon="-17.7685120">
        <ele>820.6</ele>
        <time>2020-11-16T09:06:16Z</time>
      </trkpt>
      <trkpt lat="28.7365420" lon="-17.7685400">
        <ele>820.9</ele>
        <time>2020-11-16T09:06:17Z</time>
      </trkpt>
      <trkpt lat="28.7365420" lon="-17.7685400">
        <ele>820.9</ele>
        <time>2020-11-16T09:06:18Z</time>
      </trkpt>
      <trkpt lat="28.7365570" lon="-17.7685650">
        <ele>821.1</ele>
        <time>2020-11-16T09:06:19Z</time>
      </trkpt>
      <trkpt lat="28.7365650" lon="-17.7685770">
        <ele>821.3</ele>
        <time>2020-11-16T09:06:20Z</time>
      </trkpt>
      <trkpt lat="28.7365650" lon="-17.7685770">
        <ele>821.3</ele>
        <time>2020-11-16T09:06:21Z</time>
      </trkpt>
      <trkpt lat="28.7365770" lon="-17.7685980">
        <ele>821.5</ele>
        <time>2020-11-16T09:06:22Z</time>
      </trkpt>
      <trkpt lat="28.7365770" lon="-17.7685980">
        <ele>821.5</ele>
        <time>2020-11-16T09:06:23Z</time>
      </trkpt>
      <trkpt lat="28.7365900" lon="-17.7686250">
        <ele>821.8</ele>
        <time>2020-11-16T09:06:24Z</time>
      </trkpt>
      <trkpt lat="28.7366000" lon="-17.7686370">
        <ele>821.9</ele>
        <time>2020-11-16T09:06:25Z</time>
      </trkpt>
      <trkpt lat="28.7366000" lon="-17.7686370">
        <ele>821.9</ele>
        <time>2020-11-16T09:06:26Z</time>
      </trkpt>
      <trkpt lat="28.7366250" lon="-17.7686620">
        <ele>822.3</ele>
        <time>2020-11-16T09:06:27Z</time>
      </trkpt>
      <trkpt lat="28.7366250" lon="-17.7686620">
        <ele>822.3</ele>
        <time>2020-11-16T09:06:28Z</time>
      </trkpt>
      <trkpt lat="28.7366380" lon="-17.7686820">
        <ele>822.5</ele>
        <time>2020-11-16T09:06:29Z</time>
      </trkpt>
      <trkpt lat="28.7366430" lon="-17.7686950">
        <ele>822.6</ele>
        <time>2020-11-16T09:06:30Z</time>
      </trkpt>
      <trkpt lat="28.7366480" lon="-17.7687120">
        <ele>822.8</ele>
        <time>2020-11-16T09:06:31Z</time>
      </trkpt>
      <trkpt lat="28.7366480" lon="-17.7687120">
        <ele>822.8</ele>
        <time>2020-11-16T09:06:32Z</time>
      </trkpt>
      <trkpt lat="28.7366630" lon="-17.7687330">
        <ele>823.1</ele>
        <time>2020-11-16T09:06:33Z</time>
      </trkpt>
      <trkpt lat="28.7366630" lon="-17.7687330">
        <ele>823.1</ele>
        <time>2020-11-16T09:06:34Z</time>
      </trkpt>
      <trkpt lat="28.7366730" lon="-17.7687630">
        <ele>823.3</ele>
        <time>2020-11-16T09:06:35Z</time>
      </trkpt>
      <trkpt lat="28.7366730" lon="-17.7687630">
        <ele>823.3</ele>
        <time>2020-11-16T09:06:36Z</time>
      </trkpt>
      <trkpt lat="28.7366850" lon="-17.7687900">
        <ele>823.6</ele>
        <time>2020-11-16T09:06:37Z</time>
      </trkpt>
      <trkpt lat="28.7367070" lon="-17.7688070">
        <ele>823.8</ele>
        <time>2020-11-16T09:06:38Z</time>
      </trkpt>
      <trkpt lat="28.7367070" lon="-17.7688070">
        <ele>823.8</ele>
        <time>2020-11-16T09:06:39Z</time>
      </trkpt>
      <trkpt lat="28.7367300" lon="-17.7688300">
        <ele>824.1</ele>
        <time>2020-11-16T09:06:40Z</time>
      </trkpt>
      <trkpt lat="28.7367450" lon="-17.7688430">
        <ele>824.2</ele>
        <time>2020-11-16T09:06:41Z</time>
      </trkpt>
      <trkpt lat="28.7367450" lon="-17.7688430">
        <ele>824.2</ele>
        <time>2020-11-16T09:06:42Z</time>
      </trkpt>
      <trkpt lat="28.7367700" lon="-17.7688630">
        <ele>824.5</ele>
        <time>2020-11-16T09:06:43Z</time>
      </trkpt>
      <trkpt lat="28.7367870" lon="-17.7688770">
        <ele>824.6</ele>
        <time>2020-11-16T09:06:44Z</time>
      </trkpt>
      <trkpt lat="28.7368020" lon="-17.7688930">
        <ele>824.8</ele>
        <time>2020-11-16T09:06:45Z</time>
      </trkpt>
      <trkpt lat="28.7368020" lon="-17.7688930">
        <ele>824.8</ele>
        <time>2020-11-16T09:06:46Z</time>
      </trkpt>
      <trkpt lat="28.7368320" lon="-17.7689150">
        <ele>825.1</ele>
        <time>2020-11-16T09:06:47Z</time>
      </trkpt>
      <trkpt lat="28.7368320" lon="-17.7689150">
        <ele>825.1</ele>
        <time>2020-11-16T09:06:48Z</time>
      </trkpt>
      <trkpt lat="28.7368520" lon="-17.7689430">
        <ele>825.3</ele>
        <time>2020-11-16T09:06:49Z</time>
      </trkpt>
      <trkpt lat="28.7368600" lon="-17.7689650">
        <ele>825.5</ele>
        <time>2020-11-16T09:06:50Z</time>
      </trkpt>
      <trkpt lat="28.7368600" lon="-17.7689650">
        <ele>825.5</ele>
        <time>2020-11-16T09:06:51Z</time>
      </trkpt>
      <trkpt lat="28.7368780" lon="-17.7689930">
        <ele>825.8</ele>
        <time>2020-11-16T09:06:52Z</time>
      </trkpt>
      <trkpt lat="28.7368780" lon="-17.7689930">
        <ele>825.8</ele>
        <time>2020-11-16T09:06:53Z</time>
      </trkpt>
      <trkpt lat="28.7368970" lon="-17.7690280">
        <ele>826.1</ele>
        <time>2020-11-16T09:06:54Z</time>
      </trkpt>
      <trkpt lat="28.7368970" lon="-17.7690280">
        <ele>826.1</ele>
        <time>2020-11-16T09:06:55Z</time>
      </trkpt>
      <trkpt lat="28.7369130" lon="-17.7690630">
        <ele>826.4</ele>
        <time>2020-11-16T09:06:56Z</time>
      </trkpt>
      <trkpt lat="28.7369130" lon="-17.7690630">
        <ele>826.4</ele>
        <time>2020-11-16T09:06:57Z</time>
      </trkpt>
      <trkpt lat="28.7369270" lon="-17.7690880">
        <ele>826.6</ele>
        <time>2020-11-16T09:06:58Z</time>
      </trkpt>
      <trkpt lat="28.7369270" lon="-17.7690880">
        <ele>826.6</ele>
        <time>2020-11-16T09:06:59Z</time>
      </trkpt>
      <trkpt lat="28.7369370" lon="-17.7691150">
        <ele>826.8</ele>
        <time>2020-11-16T09:07:00Z</time>
      </trkpt>
      <trkpt lat="28.7369430" lon="-17.7691280">
        <ele>826.9</ele>
        <time>2020-11-16T09:07:01Z</time>
      </trkpt>
      <trkpt lat="28.7369470" lon="-17.7691470">
        <ele>827.0</ele>
        <time>2020-11-16T09:07:02Z</time>
      </trkpt>
      <trkpt lat="28.7369480" lon="-17.7691630">
        <ele>827.1</ele>
        <time>2020-11-16T09:07:03Z</time>
      </trkpt>
      <trkpt lat="28.7369480" lon="-17.7691630">
        <ele>827.1</ele>
        <time>2020-11-16T09:07:04Z</time>
      </trkpt>
      <trkpt lat="28.7369520" lon="-17.7692000">
        <ele>827.4</ele>
        <time>2020-11-16T09:07:05Z</time>
      </trkpt>
      <trkpt lat="28.7369520" lon="-17.7692000">
        <ele>827.4</ele>
        <time>2020-11-16T09:07:06Z</time>
      </trkpt>
      <trkpt lat="28.7369580" lon="-17.7692350">
        <ele>827.7</ele>
        <time>2020-11-16T09:07:07Z</time>
      </trkpt>
      <trkpt lat="28.7369620" lon="-17.7692520">
        <ele>827.8</ele>
        <time>2020-11-16T09:07:08Z</time>
      </trkpt>
      <trkpt lat="28.7369620" lon="-17.7692520">
        <ele>827.8</ele>
        <time>2020-11-16T09:07:09Z</time>
      </trkpt>
      <trkpt lat="28.7369670" lon="-17.7693050">
        <ele>828.3</ele>
        <time>2020-11-16T09:07:10Z</time>
      </trkpt>
      <trkpt lat="28.7369670" lon="-17.7693050">
        <ele>828.3</ele>
        <time>2020-11-16T09:07:11Z</time>
      </trkpt>
      <trkpt lat="28.7369680" lon="-17.7693400">
        <ele>828.6</ele>
        <time>2020-11-16T09:07:12Z</time>
      </trkpt>
      <trkpt lat="28.7369680" lon="-17.7693400">
        <ele>828.6</ele>
        <time>2020-11-16T09:07:13Z</time>
      </trkpt>
      <trkpt lat="28.7369580" lon="-17.7693550">
        <ele>828.8</ele>
        <time>2020-11-16T09:07:14Z</time>
      </trkpt>
      <trkpt lat="28.7369580" lon="-17.7693550">
        <ele>828.8</ele>
        <time>2020-11-16T09:07:15Z</time>
      </trkpt>
      <trkpt lat="28.7369570" lon="-17.7693650">
        <ele>828.9</ele>
        <time>2020-11-16T09:07:16Z</time>
      </trkpt>
      <trkpt lat="28.7369580" lon="-17.7693770">
        <ele>829.0</ele>
        <time>2020-11-16T09:07:17Z</time>
      </trkpt>
      <trkpt lat="28.7369580" lon="-17.7693770">
        <ele>829.0</ele>
        <time>2020-11-16T09:07:18Z</time>
      </trkpt>
      <trkpt lat="28.7369580" lon="-17.7694020">
        <ele>829.2</ele>
        <time>2020-11-16T09:07:19Z</time>
      </trkpt>
      <trkpt lat="28.7369600" lon="-17.7694170">
        <ele>829.4</ele>
        <time>2020-11-16T09:07:20Z</time>
      </trkpt>
      <trkpt lat="28.7369600" lon="-17.7694170">
        <ele>829.4</ele>
        <time>2020-11-16T09:07:21Z</time>
      </trkpt>
      <trkpt lat="28.7369550" lon="-17.7694550">
        <ele>829.7</ele>
        <time>2020-11-16T09:07:22Z</time>
      </trkpt>
      <trkpt lat="28.7369570" lon="-17.7694750">
        <ele>829.9</ele>
        <time>2020-11-16T09:07:23Z</time>
      </trkpt>
      <trkpt lat="28.7369620" lon="-17.7694920">
        <ele>830.1</ele>
        <time>2020-11-16T09:07:24Z</time>
      </trkpt>
      <trkpt lat="28.7369620" lon="-17.7694920">
        <ele>830.1</ele>
        <time>2020-11-16T09:07:25Z</time>
      </trkpt>
      <trkpt lat="28.7369620" lon="-17.7695320">
        <ele>830.5</ele>
        <time>2020-11-16T09:07:26Z</time>
      </trkpt>
      <trkpt lat="28.7369620" lon="-17.7695320">
        <ele>830.5</ele>
        <time>2020-11-16T09:07:27Z</time>
      </trkpt>
      <trkpt lat="28.7369730" lon="-17.7695680">
        <ele>830.9</ele>
        <time>2020-11-16T09:07:28Z</time>
      </trkpt>
      <trkpt lat="28.7369770" lon="-17.7695870">
        <ele>831.1</ele>
        <time>2020-11-16T09:07:29Z</time>
      </trkpt>
      <trkpt lat="28.7369770" lon="-17.7695870">
        <ele>831.1</ele>
        <time>2020-11-16T09:07:30Z</time>
      </trkpt>
      <trkpt lat="28.7369830" lon="-17.7696230">
        <ele>831.4</ele>
        <time>2020-11-16T09:07:31Z</time>
      </trkpt>
      <trkpt lat="28.7369830" lon="-17.7696230">
        <ele>831.4</ele>
        <time>2020-11-16T09:07:32Z</time>
      </trkpt>
      <trkpt lat="28.7370120" lon="-17.7696630">
        <ele>831.9</ele>
        <time>2020-11-16T09:07:33Z</time>
      </trkpt>
      <trkpt lat="28.7370250" lon="-17.7696870">
        <ele>832.2</ele>
        <time>2020-11-16T09:07:34Z</time>
      </trkpt>
      <trkpt lat="28.7370380" lon="-17.7697030">
        <ele>832.4</ele>
        <time>2020-11-16T09:07:35Z</time>
      </trkpt>
      <trkpt lat="28.7370380" lon="-17.7697030">
        <ele>832.4</ele>
        <time>2020-11-16T09:07:36Z</time>
      </trkpt>
      <trkpt lat="28.7370650" lon="-17.7697400">
        <ele>832.8</ele>
        <time>2020-11-16T09:07:37Z</time>
      </trkpt>
      <trkpt lat="28.7370650" lon="-17.7697400">
        <ele>832.8</ele>
        <time>2020-11-16T09:07:38Z</time>
      </trkpt>
      <trkpt lat="28.7370820" lon="-17.7697780">
        <ele>833.2</ele>
        <time>2020-11-16T09:07:39Z</time>
      </trkpt>
      <trkpt lat="28.7370820" lon="-17.7697780">
        <ele>833.2</ele>
        <time>2020-11-16T09:07:40Z</time>
      </trkpt>
      <trkpt lat="28.7370980" lon="-17.7698280">
        <ele>833.6</ele>
        <time>2020-11-16T09:07:41Z</time>
      </trkpt>
      <trkpt lat="28.7370980" lon="-17.7698280">
        <ele>833.6</ele>
        <time>2020-11-16T09:07:42Z</time>
      </trkpt>
      <trkpt lat="28.7371030" lon="-17.7698720">
        <ele>834.0</ele>
        <time>2020-11-16T09:07:43Z</time>
      </trkpt>
      <trkpt lat="28.7371000" lon="-17.7698930">
        <ele>834.2</ele>
        <time>2020-11-16T09:07:44Z</time>
      </trkpt>
      <trkpt lat="28.7371000" lon="-17.7698930">
        <ele>834.2</ele>
        <time>2020-11-16T09:07:45Z</time>
      </trkpt>
      <trkpt lat="28.7370880" lon="-17.7699330">
        <ele>834.5</ele>
        <time>2020-11-16T09:07:46Z</time>
      </trkpt>
      <trkpt lat="28.7370780" lon="-17.7699500">
        <ele>834.7</ele>
        <time>2020-11-16T09:07:47Z</time>
      </trkpt>
      <trkpt lat="28.7370780" lon="-17.7699500">
        <ele>834.7</ele>
        <time>2020-11-16T09:07:48Z</time>
      </trkpt>
      <trkpt lat="28.7370500" lon="-17.7699770">
        <ele>835.1</ele>
        <time>2020-11-16T09:07:49Z</time>
      </trkpt>
      <trkpt lat="28.7370500" lon="-17.7699770">
        <ele>835.1</ele>
        <time>2020-11-16T09:07:50Z</time>
      </trkpt>
      <trkpt lat="28.7370280" lon="-17.7699980">
        <ele>835.3</ele>
        <time>2020-11-16T09:07:51Z</time>
      </trkpt>
      <trkpt lat="28.7370150" lon="-17.7700020">
        <ele>835.5</ele>
        <time>2020-11-16T09:07:52Z</time>
      </trkpt>
      <trkpt lat="28.7370150" lon="-17.7700020">
        <ele>835.5</ele>
        <time>2020-11-16T09:07:53Z</time>
      </trkpt>
      <trkpt lat="28.7369780" lon="-17.7699850">
        <ele>835.9</ele>
        <time>2020-11-16T09:07:54Z</time>
      </trkpt>
      <trkpt lat="28.7369780" lon="-17.7699850">
        <ele>835.9</ele>
        <time>2020-11-16T09:07:55Z</time>
      </trkpt>
      <trkpt lat="28.7369500" lon="-17.7699670">
        <ele>836.2</ele>
        <time>2020-11-16T09:07:56Z</time>
      </trkpt>
      <trkpt lat="28.7369500" lon="-17.7699620">
        <ele>836.3</ele>
        <time>2020-11-16T09:07:57Z</time>
      </trkpt>
      <trkpt lat="28.7369500" lon="-17.7699620">
        <ele>836.3</ele>
        <time>2020-11-16T09:07:58Z</time>
      </trkpt>
      <trkpt lat="28.7369500" lon="-17.7699550">
        <ele>836.4</ele>
        <time>2020-11-16T09:07:59Z</time>
      </trkpt>
      <trkpt lat="28.7369500" lon="-17.7699550">
        <ele>836.4</ele>
        <time>2020-11-16T09:08:00Z</time>
      </trkpt>
      <trkpt lat="28.7369500" lon="-17.7699550">
        <ele>836.4</ele>
        <time>2020-11-16T09:08:19Z</time>
      </trkpt>
      <trkpt lat="28.7369300" lon="-17.7698980">
        <ele>837.0</ele>
        <time>2020-11-16T09:08:20Z</time>
      </trkpt>
      <trkpt lat="28.7369300" lon="-17.7698980">
        <ele>837.0</ele>
        <time>2020-11-16T09:08:21Z</time>
      </trkpt>
      <trkpt lat="28.7369070" lon="-17.7698720">
        <ele>837.3</ele>
        <time>2020-11-16T09:08:22Z</time>
      </trkpt>
      <trkpt lat="28.7369070" lon="-17.7698720">
        <ele>837.3</ele>
        <time>2020-11-16T09:08:23Z</time>
      </trkpt>
      <trkpt lat="28.7368820" lon="-17.7698550">
        <ele>837.7</ele>
        <time>2020-11-16T09:08:24Z</time>
      </trkpt>
      <trkpt lat="28.7368820" lon="-17.7698550">
        <ele>837.7</ele>
        <time>2020-11-16T09:08:25Z</time>
      </trkpt>
      <trkpt lat="28.7368620" lon="-17.7698350">
        <ele>838.0</ele>
        <time>2020-11-16T09:08:26Z</time>
      </trkpt>
      <trkpt lat="28.7368500" lon="-17.7698230">
        <ele>838.2</ele>
        <time>2020-11-16T09:08:27Z</time>
      </trkpt>
      <trkpt lat="28.7368500" lon="-17.7698230">
        <ele>838.2</ele>
        <time>2020-11-16T09:08:28Z</time>
      </trkpt>
      <trkpt lat="28.7368280" lon="-17.7698030">
        <ele>838.5</ele>
        <time>2020-11-16T09:08:29Z</time>
      </trkpt>
      <trkpt lat="28.7368200" lon="-17.7697930">
        <ele>838.6</ele>
        <time>2020-11-16T09:08:30Z</time>
      </trkpt>
      <trkpt lat="28.7368200" lon="-17.7697930">
        <ele>838.6</ele>
        <time>2020-11-16T09:08:31Z</time>
      </trkpt>
      <trkpt lat="28.7368050" lon="-17.7697730">
        <ele>838.8</ele>
        <time>2020-11-16T09:08:32Z</time>
      </trkpt>
      <trkpt lat="28.7367950" lon="-17.7697650">
        <ele>839.0</ele>
        <time>2020-11-16T09:08:33Z</time>
      </trkpt>
      <trkpt lat="28.7367950" lon="-17.7697650">
        <ele>839.0</ele>
        <time>2020-11-16T09:08:34Z</time>
      </trkpt>
      <trkpt lat="28.7367580" lon="-17.7697500">
        <ele>839.4</ele>
        <time>2020-11-16T09:08:35Z</time>
      </trkpt>
      <trkpt lat="28.7367580" lon="-17.7697500">
        <ele>839.4</ele>
        <time>2020-11-16T09:08:36Z</time>
      </trkpt>
      <trkpt lat="28.7367250" lon="-17.7697320">
        <ele>839.7</ele>
        <time>2020-11-16T09:08:37Z</time>
      </trkpt>
      <trkpt lat="28.7367150" lon="-17.7697230">
        <ele>839.9</ele>
        <time>2020-11-16T09:08:38Z</time>
      </trkpt>
      <trkpt lat="28.7367150" lon="-17.7697230">
        <ele>839.9</ele>
        <time>2020-11-16T09:08:39Z</time>
      </trkpt>
      <trkpt lat="28.7366930" lon="-17.7697100">
        <ele>840.1</ele>
        <time>2020-11-16T09:08:40Z</time>
      </trkpt>
      <trkpt lat="28.7366930" lon="-17.7697100">
        <ele>840.1</ele>
        <time>2020-11-16T09:08:41Z</time>
      </trkpt>
      <trkpt lat="28.7366700" lon="-17.7696970">
        <ele>840.4</ele>
        <time>2020-11-16T09:08:42Z</time>
      </trkpt>
      <trkpt lat="28.7366570" lon="-17.7696850">
        <ele>840.5</ele>
        <time>2020-11-16T09:08:43Z</time>
      </trkpt>
      <trkpt lat="28.7366470" lon="-17.7696770">
        <ele>840.6</ele>
        <time>2020-11-16T09:08:44Z</time>
      </trkpt>
      <trkpt lat="28.7366470" lon="-17.7696770">
        <ele>840.6</ele>
        <time>2020-11-16T09:08:45Z</time>
      </trkpt>
      <trkpt lat="28.7366270" lon="-17.7696550">
        <ele>840.9</ele>
        <time>2020-11-16T09:08:46Z</time>
      </trkpt>
      <trkpt lat="28.7366270" lon="-17.7696550">
        <ele>840.9</ele>
        <time>2020-11-16T09:08:47Z</time>
      </trkpt>
      <trkpt lat="28.7365930" lon="-17.7696370">
        <ele>841.3</ele>
        <time>2020-11-16T09:08:48Z</time>
      </trkpt>
      <trkpt lat="28.7365820" lon="-17.7696230">
        <ele>841.5</ele>
        <time>2020-11-16T09:08:49Z</time>
      </trkpt>
      <trkpt lat="28.7365680" lon="-17.7696180">
        <ele>841.6</ele>
        <time>2020-11-16T09:08:50Z</time>
      </trkpt>
      <trkpt lat="28.7365680" lon="-17.7696180">
        <ele>841.6</ele>
        <time>2020-11-16T09:08:51Z</time>
      </trkpt>
      <trkpt lat="28.7365380" lon="-17.7696070">
        <ele>841.9</ele>
        <time>2020-11-16T09:08:52Z</time>
      </trkpt>
      <trkpt lat="28.7365200" lon="-17.7695920">
        <ele>842.1</ele>
        <time>2020-11-16T09:08:53Z</time>
      </trkpt>
      <trkpt lat="28.7365200" lon="-17.7695920">
        <ele>842.1</ele>
        <time>2020-11-16T09:08:54Z</time>
      </trkpt>
      <trkpt lat="28.7364970" lon="-17.7695700">
        <ele>842.4</ele>
        <time>2020-11-16T09:08:55Z</time>
      </trkpt>
      <trkpt lat="28.7364870" lon="-17.7695620">
        <ele>842.6</ele>
        <time>2020-11-16T09:08:56Z</time>
      </trkpt>
      <trkpt lat="28.7364870" lon="-17.7695620">
        <ele>842.6</ele>
        <time>2020-11-16T09:08:57Z</time>
      </trkpt>
      <trkpt lat="28.7364620" lon="-17.7695520">
        <ele>842.8</ele>
        <time>2020-11-16T09:08:58Z</time>
      </trkpt>
      <trkpt lat="28.7364620" lon="-17.7695520">
        <ele>842.8</ele>
        <time>2020-11-16T09:08:59Z</time>
      </trkpt>
      <trkpt lat="28.7364350" lon="-17.7695500">
        <ele>843.1</ele>
        <time>2020-11-16T09:09:00Z</time>
      </trkpt>
      <trkpt lat="28.7364200" lon="-17.7695520">
        <ele>843.2</ele>
        <time>2020-11-16T09:09:01Z</time>
      </trkpt>
      <trkpt lat="28.7364200" lon="-17.7695520">
        <ele>843.2</ele>
        <time>2020-11-16T09:09:02Z</time>
      </trkpt>
      <trkpt lat="28.7364000" lon="-17.7695680">
        <ele>843.5</ele>
        <time>2020-11-16T09:09:03Z</time>
      </trkpt>
      <trkpt lat="28.7363900" lon="-17.7695820">
        <ele>843.6</ele>
        <time>2020-11-16T09:09:04Z</time>
      </trkpt>
      <trkpt lat="28.7363900" lon="-17.7695820">
        <ele>843.6</ele>
        <time>2020-11-16T09:09:05Z</time>
      </trkpt>
      <trkpt lat="28.7363770" lon="-17.7696150">
        <ele>844.0</ele>
        <time>2020-11-16T09:09:06Z</time>
      </trkpt>
      <trkpt lat="28.7363770" lon="-17.7696150">
        <ele>844.0</ele>
        <time>2020-11-16T09:09:07Z</time>
      </trkpt>
      <trkpt lat="28.7363630" lon="-17.7696430">
        <ele>844.3</ele>
        <time>2020-11-16T09:09:08Z</time>
      </trkpt>
      <trkpt lat="28.7363630" lon="-17.7696430">
        <ele>844.3</ele>
        <time>2020-11-16T09:09:09Z</time>
      </trkpt>
      <trkpt lat="28.7363470" lon="-17.7696650">
        <ele>844.6</ele>
        <time>2020-11-16T09:09:10Z</time>
      </trkpt>
      <trkpt lat="28.7363470" lon="-17.7696650">
        <ele>844.6</ele>
        <time>2020-11-16T09:09:11Z</time>
      </trkpt>
      <trkpt lat="28.7363330" lon="-17.7696870">
        <ele>844.9</ele>
        <time>2020-11-16T09:09:12Z</time>
      </trkpt>
      <trkpt lat="28.7363300" lon="-17.7696900">
        <ele>844.9</ele>
        <time>2020-11-16T09:09:13Z</time>
      </trkpt>
      <trkpt lat="28.7363280" lon="-17.7696920">
        <ele>844.9</ele>
        <time>2020-11-16T09:09:14Z</time>
      </trkpt>
      <trkpt lat="28.7363280" lon="-17.7696920">
        <ele>844.9</ele>
        <time>2020-11-16T09:09:15Z</time>
      </trkpt>
      <trkpt lat="28.7363300" lon="-17.7697020">
        <ele>845.1</ele>
        <time>2020-11-16T09:09:16Z</time>
      </trkpt>
      <trkpt lat="28.7363300" lon="-17.7697020">
        <ele>845.1</ele>
        <time>2020-11-16T09:09:17Z</time>
      </trkpt>
      <trkpt lat="28.7363300" lon="-17.7697020">
        <ele>845.1</ele>
        <time>2020-11-16T09:09:18Z</time>
      </trkpt>
      <trkpt lat="28.7363300" lon="-17.7697020">
        <ele>845.1</ele>
        <time>2020-11-16T09:09:19Z</time>
      </trkpt>
      <trkpt lat="28.7363300" lon="-17.7697020">
        <ele>845.1</ele>
        <time>2020-11-16T09:09:20Z</time>
      </trkpt>
      <trkpt lat="28.7363300" lon="-17.7697020">
        <ele>845.1</ele>
        <time>2020-11-16T09:09:21Z</time>
      </trkpt>
      <trkpt lat="28.7363200" lon="-17.7697300">
        <ele>845.4</ele>
        <time>2020-11-16T09:09:23Z</time>
      </trkpt>
      <trkpt lat="28.7363200" lon="-17.7697300">
        <ele>845.4</ele>
        <time>2020-11-16T09:09:24Z</time>
      </trkpt>
      <trkpt lat="28.7363320" lon="-17.7697530">
        <ele>845.7</ele>
        <time>2020-11-16T09:09:25Z</time>
      </trkpt>
      <trkpt lat="28.7363320" lon="-17.7697530">
        <ele>845.7</ele>
        <time>2020-11-16T09:09:26Z</time>
      </trkpt>
      <trkpt lat="28.7363270" lon="-17.7697880">
        <ele>846.0</ele>
        <time>2020-11-16T09:09:27Z</time>
      </trkpt>
      <trkpt lat="28.7363270" lon="-17.7697880">
        <ele>846.0</ele>
        <time>2020-11-16T09:09:28Z</time>
      </trkpt>
      <trkpt lat="28.7363230" lon="-17.7698080">
        <ele>846.3</ele>
        <time>2020-11-16T09:09:29Z</time>
      </trkpt>
      <trkpt lat="28.7363230" lon="-17.7698080">
        <ele>846.3</ele>
        <time>2020-11-16T09:09:30Z</time>
      </trkpt>
      <trkpt lat="28.7363280" lon="-17.7698300">
        <ele>846.5</ele>
        <time>2020-11-16T09:09:31Z</time>
      </trkpt>
      <trkpt lat="28.7363320" lon="-17.7698420">
        <ele>846.6</ele>
        <time>2020-11-16T09:09:32Z</time>
      </trkpt>
      <trkpt lat="28.7363320" lon="-17.7698420">
        <ele>846.6</ele>
        <time>2020-11-16T09:09:33Z</time>
      </trkpt>
      <trkpt lat="28.7363270" lon="-17.7698650">
        <ele>846.9</ele>
        <time>2020-11-16T09:09:34Z</time>
      </trkpt>
      <trkpt lat="28.7363270" lon="-17.7698650">
        <ele>846.9</ele>
        <time>2020-11-16T09:09:35Z</time>
      </trkpt>
      <trkpt lat="28.7363150" lon="-17.7698900">
        <ele>847.1</ele>
        <time>2020-11-16T09:09:36Z</time>
      </trkpt>
      <trkpt lat="28.7363150" lon="-17.7698900">
        <ele>847.1</ele>
        <time>2020-11-16T09:09:37Z</time>
      </trkpt>
      <trkpt lat="28.7363030" lon="-17.7699070">
        <ele>847.3</ele>
        <time>2020-11-16T09:09:38Z</time>
      </trkpt>
      <trkpt lat="28.7362980" lon="-17.7699150">
        <ele>847.4</ele>
        <time>2020-11-16T09:09:39Z</time>
      </trkpt>
      <trkpt lat="28.7362900" lon="-17.7699170">
        <ele>847.5</ele>
        <time>2020-11-16T09:09:40Z</time>
      </trkpt>
      <trkpt lat="28.7362900" lon="-17.7699170">
        <ele>847.5</ele>
        <time>2020-11-16T09:09:41Z</time>
      </trkpt>
      <trkpt lat="28.7362850" lon="-17.7699400">
        <ele>847.7</ele>
        <time>2020-11-16T09:09:42Z</time>
      </trkpt>
      <trkpt lat="28.7362780" lon="-17.7699500">
        <ele>847.9</ele>
        <time>2020-11-16T09:09:43Z</time>
      </trkpt>
      <trkpt lat="28.7362780" lon="-17.7699500">
        <ele>847.9</ele>
        <time>2020-11-16T09:09:44Z</time>
      </trkpt>
      <trkpt lat="28.7362650" lon="-17.7699700">
        <ele>848.1</ele>
        <time>2020-11-16T09:09:45Z</time>
      </trkpt>
      <trkpt lat="28.7362570" lon="-17.7699830">
        <ele>848.2</ele>
        <time>2020-11-16T09:09:46Z</time>
      </trkpt>
      <trkpt lat="28.7362570" lon="-17.7699830">
        <ele>848.2</ele>
        <time>2020-11-16T09:09:47Z</time>
      </trkpt>
      <trkpt lat="28.7362470" lon="-17.7700070">
        <ele>848.4</ele>
        <time>2020-11-16T09:09:48Z</time>
      </trkpt>
      <trkpt lat="28.7362470" lon="-17.7700070">
        <ele>848.4</ele>
        <time>2020-11-16T09:09:49Z</time>
      </trkpt>
      <trkpt lat="28.7362370" lon="-17.7700230">
        <ele>848.6</ele>
        <time>2020-11-16T09:09:50Z</time>
      </trkpt>
      <trkpt lat="28.7362370" lon="-17.7700230">
        <ele>848.6</ele>
        <time>2020-11-16T09:09:51Z</time>
      </trkpt>
      <trkpt lat="28.7362230" lon="-17.7700370">
        <ele>848.7</ele>
        <time>2020-11-16T09:09:52Z</time>
      </trkpt>
      <trkpt lat="28.7362230" lon="-17.7700370">
        <ele>848.7</ele>
        <time>2020-11-16T09:09:53Z</time>
      </trkpt>
      <trkpt lat="28.7362100" lon="-17.7700550">
        <ele>848.9</ele>
        <time>2020-11-16T09:09:54Z</time>
      </trkpt>
      <trkpt lat="28.7362050" lon="-17.7700650">
        <ele>849.0</ele>
        <time>2020-11-16T09:09:55Z</time>
      </trkpt>
      <trkpt lat="28.7362050" lon="-17.7700650">
        <ele>849.0</ele>
        <time>2020-11-16T09:09:56Z</time>
      </trkpt>
      <trkpt lat="28.7361870" lon="-17.7700900">
        <ele>849.2</ele>
        <time>2020-11-16T09:09:57Z</time>
      </trkpt>
      <trkpt lat="28.7361870" lon="-17.7700900">
        <ele>849.2</ele>
        <time>2020-11-16T09:09:58Z</time>
      </trkpt>
      <trkpt lat="28.7361700" lon="-17.7701120">
        <ele>849.5</ele>
        <time>2020-11-16T09:09:59Z</time>
      </trkpt>
      <trkpt lat="28.7361700" lon="-17.7701120">
        <ele>849.5</ele>
        <time>2020-11-16T09:10:00Z</time>
      </trkpt>
      <trkpt lat="28.7361530" lon="-17.7701300">
        <ele>849.7</ele>
        <time>2020-11-16T09:10:01Z</time>
      </trkpt>
      <trkpt lat="28.7361470" lon="-17.7701350">
        <ele>849.7</ele>
        <time>2020-11-16T09:10:02Z</time>
      </trkpt>
      <trkpt lat="28.7361470" lon="-17.7701350">
        <ele>849.7</ele>
        <time>2020-11-16T09:10:03Z</time>
      </trkpt>
      <trkpt lat="28.7361320" lon="-17.7701470">
        <ele>849.9</ele>
        <time>2020-11-16T09:10:04Z</time>
      </trkpt>
      <trkpt lat="28.7361320" lon="-17.7701470">
        <ele>849.9</ele>
        <time>2020-11-16T09:10:05Z</time>
      </trkpt>
      <trkpt lat="28.7361120" lon="-17.7701580">
        <ele>850.1</ele>
        <time>2020-11-16T09:10:06Z</time>
      </trkpt>
      <trkpt lat="28.7361120" lon="-17.7701580">
        <ele>850.1</ele>
        <time>2020-11-16T09:10:07Z</time>
      </trkpt>
      <trkpt lat="28.7360930" lon="-17.7701700">
        <ele>850.3</ele>
        <time>2020-11-16T09:10:08Z</time>
      </trkpt>
      <trkpt lat="28.7360830" lon="-17.7701720">
        <ele>850.3</ele>
        <time>2020-11-16T09:10:09Z</time>
      </trkpt>
      <trkpt lat="28.7360830" lon="-17.7701720">
        <ele>850.3</ele>
        <time>2020-11-16T09:10:10Z</time>
      </trkpt>
      <trkpt lat="28.7360650" lon="-17.7701870">
        <ele>850.5</ele>
        <time>2020-11-16T09:10:11Z</time>
      </trkpt>
      <trkpt lat="28.7360650" lon="-17.7701870">
        <ele>850.5</ele>
        <time>2020-11-16T09:10:12Z</time>
      </trkpt>
      <trkpt lat="28.7360500" lon="-17.7702000">
        <ele>850.7</ele>
        <time>2020-11-16T09:10:13Z</time>
      </trkpt>
      <trkpt lat="28.7360500" lon="-17.7702000">
        <ele>850.7</ele>
        <time>2020-11-16T09:10:14Z</time>
      </trkpt>
      <trkpt lat="28.7360330" lon="-17.7702100">
        <ele>850.9</ele>
        <time>2020-11-16T09:10:15Z</time>
      </trkpt>
      <trkpt lat="28.7360230" lon="-17.7702180">
        <ele>851.0</ele>
        <time>2020-11-16T09:10:16Z</time>
      </trkpt>
      <trkpt lat="28.7360230" lon="-17.7702180">
        <ele>851.0</ele>
        <time>2020-11-16T09:10:17Z</time>
      </trkpt>
      <trkpt lat="28.7360070" lon="-17.7702400">
        <ele>851.2</ele>
        <time>2020-11-16T09:10:18Z</time>
      </trkpt>
      <trkpt lat="28.7359970" lon="-17.7702480">
        <ele>851.3</ele>
        <time>2020-11-16T09:10:19Z</time>
      </trkpt>
      <trkpt lat="28.7359970" lon="-17.7702480">
        <ele>851.3</ele>
        <time>2020-11-16T09:10:20Z</time>
      </trkpt>
      <trkpt lat="28.7359830" lon="-17.7702680">
        <ele>851.6</ele>
        <time>2020-11-16T09:10:21Z</time>
      </trkpt>
      <trkpt lat="28.7359770" lon="-17.7702780">
        <ele>851.7</ele>
        <time>2020-11-16T09:10:22Z</time>
      </trkpt>
      <trkpt lat="28.7359770" lon="-17.7702780">
        <ele>851.7</ele>
        <time>2020-11-16T09:10:23Z</time>
      </trkpt>
      <trkpt lat="28.7359600" lon="-17.7702970">
        <ele>852.0</ele>
        <time>2020-11-16T09:10:24Z</time>
      </trkpt>
      <trkpt lat="28.7359520" lon="-17.7703080">
        <ele>852.1</ele>
        <time>2020-11-16T09:10:25Z</time>
      </trkpt>
      <trkpt lat="28.7359520" lon="-17.7703080">
        <ele>852.1</ele>
        <time>2020-11-16T09:10:26Z</time>
      </trkpt>
      <trkpt lat="28.7359350" lon="-17.7703250">
        <ele>852.4</ele>
        <time>2020-11-16T09:10:27Z</time>
      </trkpt>
      <trkpt lat="28.7359150" lon="-17.7703350">
        <ele>852.7</ele>
        <time>2020-11-16T09:10:28Z</time>
      </trkpt>
      <trkpt lat="28.7359150" lon="-17.7703350">
        <ele>852.7</ele>
        <time>2020-11-16T09:10:29Z</time>
      </trkpt>
      <trkpt lat="28.7359180" lon="-17.7703530">
        <ele>852.9</ele>
        <time>2020-11-16T09:10:30Z</time>
      </trkpt>
      <trkpt lat="28.7359070" lon="-17.7703530">
        <ele>853.0</ele>
        <time>2020-11-16T09:10:31Z</time>
      </trkpt>
      <trkpt lat="28.7359070" lon="-17.7703530">
        <ele>853.0</ele>
        <time>2020-11-16T09:10:32Z</time>
      </trkpt>
      <trkpt lat="28.7358980" lon="-17.7703630">
        <ele>853.1</ele>
        <time>2020-11-16T09:10:33Z</time>
      </trkpt>
      <trkpt lat="28.7358970" lon="-17.7703650">
        <ele>853.2</ele>
        <time>2020-11-16T09:10:34Z</time>
      </trkpt>
      <trkpt lat="28.7358970" lon="-17.7703650">
        <ele>853.2</ele>
        <time>2020-11-16T09:10:35Z</time>
      </trkpt>
      <trkpt lat="28.7358970" lon="-17.7703670">
        <ele>853.2</ele>
        <time>2020-11-16T09:10:36Z</time>
      </trkpt>
      <trkpt lat="28.7358970" lon="-17.7703670">
        <ele>853.2</ele>
        <time>2020-11-16T09:10:37Z</time>
      </trkpt>
      <trkpt lat="28.7358970" lon="-17.7703670">
        <ele>853.2</ele>
        <time>2020-11-16T09:10:38Z</time>
      </trkpt>
      <trkpt lat="28.7358970" lon="-17.7703670">
        <ele>853.2</ele>
        <time>2020-11-16T09:10:42Z</time>
      </trkpt>
      <trkpt lat="28.7358820" lon="-17.7704120">
        <ele>853.7</ele>
        <time>2020-11-16T09:10:43Z</time>
      </trkpt>
      <trkpt lat="28.7358820" lon="-17.7704120">
        <ele>853.7</ele>
        <time>2020-11-16T09:10:44Z</time>
      </trkpt>
      <trkpt lat="28.7358800" lon="-17.7704330">
        <ele>853.9</ele>
        <time>2020-11-16T09:10:45Z</time>
      </trkpt>
      <trkpt lat="28.7358800" lon="-17.7704450">
        <ele>854.0</ele>
        <time>2020-11-16T09:10:46Z</time>
      </trkpt>
      <trkpt lat="28.7358800" lon="-17.7704450">
        <ele>854.0</ele>
        <time>2020-11-16T09:10:47Z</time>
      </trkpt>
      <trkpt lat="28.7358850" lon="-17.7704670">
        <ele>854.2</ele>
        <time>2020-11-16T09:10:48Z</time>
      </trkpt>
      <trkpt lat="28.7358880" lon="-17.7704770">
        <ele>854.3</ele>
        <time>2020-11-16T09:10:49Z</time>
      </trkpt>
      <trkpt lat="28.7358880" lon="-17.7704850">
        <ele>854.4</ele>
        <time>2020-11-16T09:10:50Z</time>
      </trkpt>
      <trkpt lat="28.7358880" lon="-17.7704850">
        <ele>854.4</ele>
        <time>2020-11-16T09:10:51Z</time>
      </trkpt>
      <trkpt lat="28.7358950" lon="-17.7705070">
        <ele>854.6</ele>
        <time>2020-11-16T09:10:52Z</time>
      </trkpt>
      <trkpt lat="28.7358950" lon="-17.7705070">
        <ele>854.6</ele>
        <time>2020-11-16T09:10:53Z</time>
      </trkpt>
      <trkpt lat="28.7359180" lon="-17.7705450">
        <ele>855.0</ele>
        <time>2020-11-16T09:10:54Z</time>
      </trkpt>
      <trkpt lat="28.7359200" lon="-17.7705500">
        <ele>855.1</ele>
        <time>2020-11-16T09:10:55Z</time>
      </trkpt>
      <trkpt lat="28.7359200" lon="-17.7705500">
        <ele>855.1</ele>
        <time>2020-11-16T09:10:56Z</time>
      </trkpt>
      <trkpt lat="28.7359220" lon="-17.7705530">
        <ele>855.1</ele>
        <time>2020-11-16T09:10:57Z</time>
      </trkpt>
      <trkpt lat="28.7359270" lon="-17.7705620">
        <ele>855.2</ele>
        <time>2020-11-16T09:10:58Z</time>
      </trkpt>
      <trkpt lat="28.7359270" lon="-17.7705620">
        <ele>855.2</ele>
        <time>2020-11-16T09:10:59Z</time>
      </trkpt>
      <trkpt lat="28.7359300" lon="-17.7705820">
        <ele>855.4</ele>
        <time>2020-11-16T09:11:00Z</time>
      </trkpt>
      <trkpt lat="28.7359350" lon="-17.7705900">
        <ele>855.5</ele>
        <time>2020-11-16T09:11:01Z</time>
      </trkpt>
      <trkpt lat="28.7359350" lon="-17.7705900">
        <ele>855.5</ele>
        <time>2020-11-16T09:11:02Z</time>
      </trkpt>
      <trkpt lat="28.7359430" lon="-17.7706080">
        <ele>855.7</ele>
        <time>2020-11-16T09:11:03Z</time>
      </trkpt>
      <trkpt lat="28.7359430" lon="-17.7706080">
        <ele>855.7</ele>
        <time>2020-11-16T09:11:04Z</time>
      </trkpt>
      <trkpt lat="28.7359420" lon="-17.7706370">
        <ele>856.0</ele>
        <time>2020-11-16T09:11:05Z</time>
      </trkpt>
      <trkpt lat="28.7359420" lon="-17.7706370">
        <ele>856.0</ele>
        <time>2020-11-16T09:11:06Z</time>
      </trkpt>
      <trkpt lat="28.7359370" lon="-17.7706580">
        <ele>856.2</ele>
        <time>2020-11-16T09:11:07Z</time>
      </trkpt>
      <trkpt lat="28.7359370" lon="-17.7706580">
        <ele>856.2</ele>
        <time>2020-11-16T09:11:08Z</time>
      </trkpt>
      <trkpt lat="28.7359380" lon="-17.7706770">
        <ele>856.4</ele>
        <time>2020-11-16T09:11:09Z</time>
      </trkpt>
      <trkpt lat="28.7359420" lon="-17.7706870">
        <ele>856.5</ele>
        <time>2020-11-16T09:11:10Z</time>
      </trkpt>
      <trkpt lat="28.7359420" lon="-17.7706870">
        <ele>856.5</ele>
        <time>2020-11-16T09:11:11Z</time>
      </trkpt>
      <trkpt lat="28.7359430" lon="-17.7707050">
        <ele>856.7</ele>
        <time>2020-11-16T09:11:12Z</time>
      </trkpt>
      <trkpt lat="28.7359430" lon="-17.7707050">
        <ele>856.7</ele>
        <time>2020-11-16T09:11:13Z</time>
      </trkpt>
      <trkpt lat="28.7359480" lon="-17.7707170">
        <ele>856.8</ele>
        <time>2020-11-16T09:11:14Z</time>
      </trkpt>
      <trkpt lat="28.7359480" lon="-17.7707170">
        <ele>856.8</ele>
        <time>2020-11-16T09:11:15Z</time>
      </trkpt>
      <trkpt lat="28.7359530" lon="-17.7707200">
        <ele>856.8</ele>
        <time>2020-11-16T09:11:16Z</time>
      </trkpt>
      <trkpt lat="28.7359530" lon="-17.7707200">
        <ele>856.8</ele>
        <time>2020-11-16T09:11:17Z</time>
      </trkpt>
      <trkpt lat="28.7359480" lon="-17.7707200">
        <ele>856.9</ele>
        <time>2020-11-16T09:11:18Z</time>
      </trkpt>
      <trkpt lat="28.7359480" lon="-17.7707200">
        <ele>856.9</ele>
        <time>2020-11-16T09:11:19Z</time>
      </trkpt>
      <trkpt lat="28.7359480" lon="-17.7707200">
        <ele>856.9</ele>
        <time>2020-11-16T09:11:35Z</time>
      </trkpt>
      <trkpt lat="28.7359680" lon="-17.7707270">
        <ele>857.1</ele>
        <time>2020-11-16T09:11:36Z</time>
      </trkpt>
      <trkpt lat="28.7359680" lon="-17.7707270">
        <ele>857.1</ele>
        <time>2020-11-16T09:11:37Z</time>
      </trkpt>
      <trkpt lat="28.7359900" lon="-17.7707430">
        <ele>857.3</ele>
        <time>2020-11-16T09:11:38Z</time>
      </trkpt>
      <trkpt lat="28.7360000" lon="-17.7707520">
        <ele>857.5</ele>
        <time>2020-11-16T09:11:39Z</time>
      </trkpt>
      <trkpt lat="28.7360000" lon="-17.7707520">
        <ele>857.5</ele>
        <time>2020-11-16T09:11:40Z</time>
      </trkpt>
      <trkpt lat="28.7360180" lon="-17.7707680">
        <ele>857.7</ele>
        <time>2020-11-16T09:11:41Z</time>
      </trkpt>
      <trkpt lat="28.7360180" lon="-17.7707680">
        <ele>857.7</ele>
        <time>2020-11-16T09:11:42Z</time>
      </trkpt>
      <trkpt lat="28.7360330" lon="-17.7707830">
        <ele>857.9</ele>
        <time>2020-11-16T09:11:43Z</time>
      </trkpt>
      <trkpt lat="28.7360430" lon="-17.7707930">
        <ele>858.0</ele>
        <time>2020-11-16T09:11:44Z</time>
      </trkpt>
      <trkpt lat="28.7360430" lon="-17.7707930">
        <ele>858.0</ele>
        <time>2020-11-16T09:11:45Z</time>
      </trkpt>
      <trkpt lat="28.7360620" lon="-17.7708130">
        <ele>858.2</ele>
        <time>2020-11-16T09:11:46Z</time>
      </trkpt>
      <trkpt lat="28.7360620" lon="-17.7708130">
        <ele>858.2</ele>
        <time>2020-11-16T09:11:47Z</time>
      </trkpt>
      <trkpt lat="28.7360770" lon="-17.7708330">
        <ele>858.5</ele>
        <time>2020-11-16T09:11:48Z</time>
      </trkpt>
      <trkpt lat="28.7360830" lon="-17.7708450">
        <ele>858.6</ele>
        <time>2020-11-16T09:11:49Z</time>
      </trkpt>
      <trkpt lat="28.7360830" lon="-17.7708450">
        <ele>858.6</ele>
        <time>2020-11-16T09:11:50Z</time>
      </trkpt>
      <trkpt lat="28.7361020" lon="-17.7708630">
        <ele>858.8</ele>
        <time>2020-11-16T09:11:51Z</time>
      </trkpt>
      <trkpt lat="28.7361100" lon="-17.7708770">
        <ele>858.9</ele>
        <time>2020-11-16T09:11:52Z</time>
      </trkpt>
      <trkpt lat="28.7361100" lon="-17.7708770">
        <ele>858.9</ele>
        <time>2020-11-16T09:11:53Z</time>
      </trkpt>
      <trkpt lat="28.7361200" lon="-17.7709000">
        <ele>859.2</ele>
        <time>2020-11-16T09:11:54Z</time>
      </trkpt>
      <trkpt lat="28.7361200" lon="-17.7709000">
        <ele>859.2</ele>
        <time>2020-11-16T09:11:55Z</time>
      </trkpt>
      <trkpt lat="28.7361300" lon="-17.7709200">
        <ele>859.3</ele>
        <time>2020-11-16T09:11:56Z</time>
      </trkpt>
      <trkpt lat="28.7361300" lon="-17.7709200">
        <ele>859.3</ele>
        <time>2020-11-16T09:11:57Z</time>
      </trkpt>
      <trkpt lat="28.7361400" lon="-17.7709420">
        <ele>859.5</ele>
        <time>2020-11-16T09:11:58Z</time>
      </trkpt>
      <trkpt lat="28.7361400" lon="-17.7709420">
        <ele>859.5</ele>
        <time>2020-11-16T09:11:59Z</time>
      </trkpt>
      <trkpt lat="28.7361500" lon="-17.7709680">
        <ele>859.8</ele>
        <time>2020-11-16T09:12:00Z</time>
      </trkpt>
      <trkpt lat="28.7361550" lon="-17.7709780">
        <ele>859.8</ele>
        <time>2020-11-16T09:12:01Z</time>
      </trkpt>
      <trkpt lat="28.7361550" lon="-17.7709780">
        <ele>859.8</ele>
        <time>2020-11-16T09:12:02Z</time>
      </trkpt>
      <trkpt lat="28.7361570" lon="-17.7709980">
        <ele>860.0</ele>
        <time>2020-11-16T09:12:03Z</time>
      </trkpt>
      <trkpt lat="28.7361600" lon="-17.7710080">
        <ele>860.1</ele>
        <time>2020-11-16T09:12:04Z</time>
      </trkpt>
      <trkpt lat="28.7361600" lon="-17.7710080">
        <ele>860.1</ele>
        <time>2020-11-16T09:12:05Z</time>
      </trkpt>
      <trkpt lat="28.7361780" lon="-17.7710320">
        <ele>860.4</ele>
        <time>2020-11-16T09:12:06Z</time>
      </trkpt>
      <trkpt lat="28.7361830" lon="-17.7710450">
        <ele>860.5</ele>
        <time>2020-11-16T09:12:07Z</time>
      </trkpt>
      <trkpt lat="28.7361830" lon="-17.7710450">
        <ele>860.5</ele>
        <time>2020-11-16T09:12:08Z</time>
      </trkpt>
      <trkpt lat="28.7362000" lon="-17.7710650">
        <ele>860.7</ele>
        <time>2020-11-16T09:12:09Z</time>
      </trkpt>
      <trkpt lat="28.7362050" lon="-17.7710730">
        <ele>860.8</ele>
        <time>2020-11-16T09:12:10Z</time>
      </trkpt>
      <trkpt lat="28.7362050" lon="-17.7710730">
        <ele>860.8</ele>
        <time>2020-11-16T09:12:11Z</time>
      </trkpt>
      <trkpt lat="28.7362100" lon="-17.7710950">
        <ele>861.0</ele>
        <time>2020-11-16T09:12:12Z</time>
      </trkpt>
      <trkpt lat="28.7362100" lon="-17.7710950">
        <ele>861.0</ele>
        <time>2020-11-16T09:12:13Z</time>
      </trkpt>
      <trkpt lat="28.7362150" lon="-17.7711150">
        <ele>861.2</ele>
        <time>2020-11-16T09:12:14Z</time>
      </trkpt>
      <trkpt lat="28.7362150" lon="-17.7711150">
        <ele>861.2</ele>
        <time>2020-11-16T09:12:15Z</time>
      </trkpt>
      <trkpt lat="28.7362150" lon="-17.7711350">
        <ele>861.4</ele>
        <time>2020-11-16T09:12:16Z</time>
      </trkpt>
      <trkpt lat="28.7362150" lon="-17.7711350">
        <ele>861.4</ele>
        <time>2020-11-16T09:12:17Z</time>
      </trkpt>
      <trkpt lat="28.7362150" lon="-17.7711520">
        <ele>861.5</ele>
        <time>2020-11-16T09:12:18Z</time>
      </trkpt>
      <trkpt lat="28.7362100" lon="-17.7711600">
        <ele>861.6</ele>
        <time>2020-11-16T09:12:19Z</time>
      </trkpt>
      <trkpt lat="28.7362100" lon="-17.7711600">
        <ele>861.6</ele>
        <time>2020-11-16T09:12:20Z</time>
      </trkpt>
      <trkpt lat="28.7362120" lon="-17.7711770">
        <ele>861.8</ele>
        <time>2020-11-16T09:12:21Z</time>
      </trkpt>
      <trkpt lat="28.7362120" lon="-17.7711770">
        <ele>861.8</ele>
        <time>2020-11-16T09:12:22Z</time>
      </trkpt>
      <trkpt lat="28.7362120" lon="-17.7711830">
        <ele>861.8</ele>
        <time>2020-11-16T09:12:23Z</time>
      </trkpt>
      <trkpt lat="28.7362120" lon="-17.7711830">
        <ele>861.8</ele>
        <time>2020-11-16T09:12:24Z</time>
      </trkpt>
      <trkpt lat="28.7362170" lon="-17.7712000">
        <ele>862.0</ele>
        <time>2020-11-16T09:12:25Z</time>
      </trkpt>
      <trkpt lat="28.7362200" lon="-17.7712070">
        <ele>862.1</ele>
        <time>2020-11-16T09:12:26Z</time>
      </trkpt>
      <trkpt lat="28.7362200" lon="-17.7712070">
        <ele>862.1</ele>
        <time>2020-11-16T09:12:27Z</time>
      </trkpt>
      <trkpt lat="28.7362180" lon="-17.7712200">
        <ele>862.2</ele>
        <time>2020-11-16T09:12:28Z</time>
      </trkpt>
      <trkpt lat="28.7362180" lon="-17.7712200">
        <ele>862.2</ele>
        <time>2020-11-16T09:12:29Z</time>
      </trkpt>
      <trkpt lat="28.7362150" lon="-17.7712220">
        <ele>862.2</ele>
        <time>2020-11-16T09:12:30Z</time>
      </trkpt>
      <trkpt lat="28.7362150" lon="-17.7712220">
        <ele>862.2</ele>
        <time>2020-11-16T09:12:31Z</time>
      </trkpt>
      <trkpt lat="28.7362070" lon="-17.7712200">
        <ele>862.3</ele>
        <time>2020-11-16T09:12:32Z</time>
      </trkpt>
      <trkpt lat="28.7362070" lon="-17.7712200">
        <ele>862.3</ele>
        <time>2020-11-16T09:13:06Z</time>
      </trkpt>
      <trkpt lat="28.7362620" lon="-17.7712620">
        <ele>863.0</ele>
        <time>2020-11-16T09:13:07Z</time>
      </trkpt>
      <trkpt lat="28.7362620" lon="-17.7712620">
        <ele>863.0</ele>
        <time>2020-11-16T09:13:08Z</time>
      </trkpt>
      <trkpt lat="28.7362530" lon="-17.7712650">
        <ele>863.1</ele>
        <time>2020-11-16T09:13:09Z</time>
      </trkpt>
      <trkpt lat="28.7362530" lon="-17.7712670">
        <ele>863.2</ele>
        <time>2020-11-16T09:13:10Z</time>
      </trkpt>
      <trkpt lat="28.7362530" lon="-17.7712670">
        <ele>863.2</ele>
        <time>2020-11-16T09:13:11Z</time>
      </trkpt>
      <trkpt lat="28.7362520" lon="-17.7712680">
        <ele>863.2</ele>
        <time>2020-11-16T09:13:17Z</time>
      </trkpt>
      <trkpt lat="28.7362600" lon="-17.7713180">
        <ele>863.7</ele>
        <time>2020-11-16T09:13:18Z</time>
      </trkpt>
      <trkpt lat="28.7362600" lon="-17.7713180">
        <ele>863.7</ele>
        <time>2020-11-16T09:13:19Z</time>
      </trkpt>
      <trkpt lat="28.7362600" lon="-17.7713400">
        <ele>863.9</ele>
        <time>2020-11-16T09:13:20Z</time>
      </trkpt>
      <trkpt lat="28.7362600" lon="-17.7713400">
        <ele>863.9</ele>
        <time>2020-11-16T09:13:21Z</time>
      </trkpt>
      <trkpt lat="28.7362730" lon="-17.7713550">
        <ele>864.1</ele>
        <time>2020-11-16T09:13:22Z</time>
      </trkpt>
      <trkpt lat="28.7362730" lon="-17.7713550">
        <ele>864.1</ele>
        <time>2020-11-16T09:13:23Z</time>
      </trkpt>
      <trkpt lat="28.7362730" lon="-17.7713720">
        <ele>864.3</ele>
        <time>2020-11-16T09:13:24Z</time>
      </trkpt>
      <trkpt lat="28.7362730" lon="-17.7713720">
        <ele>864.3</ele>
        <time>2020-11-16T09:13:25Z</time>
      </trkpt>
      <trkpt lat="28.7362970" lon="-17.7713920">
        <ele>864.6</ele>
        <time>2020-11-16T09:13:26Z</time>
      </trkpt>
      <trkpt lat="28.7363130" lon="-17.7714030">
        <ele>864.8</ele>
        <time>2020-11-16T09:13:27Z</time>
      </trkpt>
      <trkpt lat="28.7363250" lon="-17.7714170">
        <ele>865.0</ele>
        <time>2020-11-16T09:13:28Z</time>
      </trkpt>
      <trkpt lat="28.7363250" lon="-17.7714170">
        <ele>865.0</ele>
        <time>2020-11-16T09:13:29Z</time>
      </trkpt>
      <trkpt lat="28.7363250" lon="-17.7714170">
        <ele>865.0</ele>
        <time>2020-11-16T09:13:30Z</time>
      </trkpt>
      <trkpt lat="28.7363400" lon="-17.7714480">
        <ele>865.3</ele>
        <time>2020-11-16T09:13:31Z</time>
      </trkpt>
      <trkpt lat="28.7363630" lon="-17.7714780">
        <ele>865.7</ele>
        <time>2020-11-16T09:13:32Z</time>
      </trkpt>
      <trkpt lat="28.7363630" lon="-17.7714780">
        <ele>865.7</ele>
        <time>2020-11-16T09:13:33Z</time>
      </trkpt>
      <trkpt lat="28.7363950" lon="-17.7715070">
        <ele>866.1</ele>
        <time>2020-11-16T09:13:34Z</time>
      </trkpt>
      <trkpt lat="28.7363950" lon="-17.7715070">
        <ele>866.1</ele>
        <time>2020-11-16T09:13:35Z</time>
      </trkpt>
      <trkpt lat="28.7364270" lon="-17.7715330">
        <ele>866.5</ele>
        <time>2020-11-16T09:13:36Z</time>
      </trkpt>
      <trkpt lat="28.7364400" lon="-17.7715500">
        <ele>866.7</ele>
        <time>2020-11-16T09:13:37Z</time>
      </trkpt>
      <trkpt lat="28.7364570" lon="-17.7715620">
        <ele>866.9</ele>
        <time>2020-11-16T09:13:38Z</time>
      </trkpt>
      <trkpt lat="28.7364570" lon="-17.7715620">
        <ele>866.9</ele>
        <time>2020-11-16T09:13:39Z</time>
      </trkpt>
      <trkpt lat="28.7364880" lon="-17.7715880">
        <ele>867.3</ele>
        <time>2020-11-16T09:13:40Z</time>
      </trkpt>
      <trkpt lat="28.7364880" lon="-17.7715880">
        <ele>867.3</ele>
        <time>2020-11-16T09:13:41Z</time>
      </trkpt>
      <trkpt lat="28.7365150" lon="-17.7716100">
        <ele>867.7</ele>
        <time>2020-11-16T09:13:42Z</time>
      </trkpt>
      <trkpt lat="28.7365150" lon="-17.7716100">
        <ele>867.7</ele>
        <time>2020-11-16T09:13:43Z</time>
      </trkpt>
      <trkpt lat="28.7365420" lon="-17.7716350">
        <ele>868.0</ele>
        <time>2020-11-16T09:13:44Z</time>
      </trkpt>
      <trkpt lat="28.7365420" lon="-17.7716350">
        <ele>868.0</ele>
        <time>2020-11-16T09:13:45Z</time>
      </trkpt>
      <trkpt lat="28.7365680" lon="-17.7716570">
        <ele>868.3</ele>
        <time>2020-11-16T09:13:46Z</time>
      </trkpt>
      <trkpt lat="28.7365680" lon="-17.7716570">
        <ele>868.3</ele>
        <time>2020-11-16T09:13:47Z</time>
      </trkpt>
      <trkpt lat="28.7366050" lon="-17.7716920">
        <ele>868.8</ele>
        <time>2020-11-16T09:13:48Z</time>
      </trkpt>
      <trkpt lat="28.7366200" lon="-17.7717120">
        <ele>869.0</ele>
        <time>2020-11-16T09:13:49Z</time>
      </trkpt>
      <trkpt lat="28.7366300" lon="-17.7717320">
        <ele>869.2</ele>
        <time>2020-11-16T09:13:50Z</time>
      </trkpt>
      <trkpt lat="28.7366300" lon="-17.7717320">
        <ele>869.2</ele>
        <time>2020-11-16T09:13:51Z</time>
      </trkpt>
      <trkpt lat="28.7366400" lon="-17.7717600">
        <ele>869.5</ele>
        <time>2020-11-16T09:13:52Z</time>
      </trkpt>
      <trkpt lat="28.7366400" lon="-17.7717600">
        <ele>869.5</ele>
        <time>2020-11-16T09:13:53Z</time>
      </trkpt>
      <trkpt lat="28.7366520" lon="-17.7717920">
        <ele>869.8</ele>
        <time>2020-11-16T09:13:54Z</time>
      </trkpt>
      <trkpt lat="28.7366520" lon="-17.7717920">
        <ele>869.8</ele>
        <time>2020-11-16T09:13:55Z</time>
      </trkpt>
      <trkpt lat="28.7366730" lon="-17.7718330">
        <ele>870.2</ele>
        <time>2020-11-16T09:13:56Z</time>
      </trkpt>
      <trkpt lat="28.7366730" lon="-17.7718330">
        <ele>870.2</ele>
        <time>2020-11-16T09:13:57Z</time>
      </trkpt>
      <trkpt lat="28.7366680" lon="-17.7718650">
        <ele>870.5</ele>
        <time>2020-11-16T09:13:58Z</time>
      </trkpt>
      <trkpt lat="28.7366680" lon="-17.7718650">
        <ele>870.5</ele>
        <time>2020-11-16T09:13:59Z</time>
      </trkpt>
      <trkpt lat="28.7366620" lon="-17.7718830">
        <ele>870.7</ele>
        <time>2020-11-16T09:14:00Z</time>
      </trkpt>
      <trkpt lat="28.7366620" lon="-17.7718830">
        <ele>870.7</ele>
        <time>2020-11-16T09:14:01Z</time>
      </trkpt>
      <trkpt lat="28.7366450" lon="-17.7718950">
        <ele>871.0</ele>
        <time>2020-11-16T09:14:02Z</time>
      </trkpt>
      <trkpt lat="28.7366450" lon="-17.7718950">
        <ele>871.0</ele>
        <time>2020-11-16T09:14:03Z</time>
      </trkpt>
      <trkpt lat="28.7366250" lon="-17.7719080">
        <ele>871.2</ele>
        <time>2020-11-16T09:14:04Z</time>
      </trkpt>
      <trkpt lat="28.7366150" lon="-17.7719220">
        <ele>871.4</ele>
        <time>2020-11-16T09:14:05Z</time>
      </trkpt>
      <trkpt lat="28.7366030" lon="-17.7719370">
        <ele>871.6</ele>
        <time>2020-11-16T09:14:06Z</time>
      </trkpt>
      <trkpt lat="28.7366030" lon="-17.7719370">
        <ele>871.6</ele>
        <time>2020-11-16T09:14:07Z</time>
      </trkpt>
      <trkpt lat="28.7365800" lon="-17.7719630">
        <ele>872.0</ele>
        <time>2020-11-16T09:14:08Z</time>
      </trkpt>
      <trkpt lat="28.7365800" lon="-17.7719630">
        <ele>872.0</ele>
        <time>2020-11-16T09:14:09Z</time>
      </trkpt>
      <trkpt lat="28.7365650" lon="-17.7719870">
        <ele>872.3</ele>
        <time>2020-11-16T09:14:10Z</time>
      </trkpt>
      <trkpt lat="28.7365630" lon="-17.7719930">
        <ele>872.4</ele>
        <time>2020-11-16T09:14:11Z</time>
      </trkpt>
      <trkpt lat="28.7365630" lon="-17.7719930">
        <ele>872.4</ele>
        <time>2020-11-16T09:14:12Z</time>
      </trkpt>
      <trkpt lat="28.7365580" lon="-17.7720100">
        <ele>872.5</ele>
        <time>2020-11-16T09:14:13Z</time>
      </trkpt>
      <trkpt lat="28.7365580" lon="-17.7720130">
        <ele>872.6</ele>
        <time>2020-11-16T09:14:14Z</time>
      </trkpt>
      <trkpt lat="28.7365580" lon="-17.7720130">
        <ele>872.6</ele>
        <time>2020-11-16T09:14:15Z</time>
      </trkpt>
      <trkpt lat="28.7365570" lon="-17.7720150">
        <ele>872.6</ele>
        <time>2020-11-16T09:14:16Z</time>
      </trkpt>
      <trkpt lat="28.7365570" lon="-17.7720150">
        <ele>872.6</ele>
        <time>2020-11-16T09:14:21Z</time>
      </trkpt>
      <trkpt lat="28.7365570" lon="-17.7720150">
        <ele>872.6</ele>
        <time>2020-11-16T09:14:22Z</time>
      </trkpt>
      <trkpt lat="28.7365380" lon="-17.7720730">
        <ele>873.2</ele>
        <time>2020-11-16T09:14:23Z</time>
      </trkpt>
      <trkpt lat="28.7365380" lon="-17.7720730">
        <ele>873.2</ele>
        <time>2020-11-16T09:14:24Z</time>
      </trkpt>
      <trkpt lat="28.7365330" lon="-17.7720950">
        <ele>873.4</ele>
        <time>2020-11-16T09:14:25Z</time>
      </trkpt>
      <trkpt lat="28.7365320" lon="-17.7721080">
        <ele>873.5</ele>
        <time>2020-11-16T09:14:26Z</time>
      </trkpt>
      <trkpt lat="28.7365320" lon="-17.7721080">
        <ele>873.5</ele>
        <time>2020-11-16T09:14:27Z</time>
      </trkpt>
      <trkpt lat="28.7365220" lon="-17.7721480">
        <ele>873.9</ele>
        <time>2020-11-16T09:14:28Z</time>
      </trkpt>
      <trkpt lat="28.7365220" lon="-17.7721480">
        <ele>873.9</ele>
        <time>2020-11-16T09:14:29Z</time>
      </trkpt>
      <trkpt lat="28.7365250" lon="-17.7721980">
        <ele>874.4</ele>
        <time>2020-11-16T09:14:30Z</time>
      </trkpt>
      <trkpt lat="28.7365250" lon="-17.7722170">
        <ele>874.6</ele>
        <time>2020-11-16T09:14:31Z</time>
      </trkpt>
      <trkpt lat="28.7365250" lon="-17.7722170">
        <ele>874.6</ele>
        <time>2020-11-16T09:14:32Z</time>
      </trkpt>
      <trkpt lat="28.7365330" lon="-17.7722550">
        <ele>875.0</ele>
        <time>2020-11-16T09:14:33Z</time>
      </trkpt>
      <trkpt lat="28.7365380" lon="-17.7722750">
        <ele>875.2</ele>
        <time>2020-11-16T09:14:34Z</time>
      </trkpt>
      <trkpt lat="28.7365380" lon="-17.7722750">
        <ele>875.2</ele>
        <time>2020-11-16T09:14:35Z</time>
      </trkpt>
      <trkpt lat="28.7365550" lon="-17.7723280">
        <ele>875.7</ele>
        <time>2020-11-16T09:14:36Z</time>
      </trkpt>
      <trkpt lat="28.7365620" lon="-17.7723530">
        <ele>876.0</ele>
        <time>2020-11-16T09:14:37Z</time>
      </trkpt>
      <trkpt lat="28.7365630" lon="-17.7723680">
        <ele>876.1</ele>
        <time>2020-11-16T09:14:38Z</time>
      </trkpt>
      <trkpt lat="28.7365630" lon="-17.7723680">
        <ele>876.1</ele>
        <time>2020-11-16T09:14:39Z</time>
      </trkpt>
      <trkpt lat="28.7365680" lon="-17.7723980">
        <ele>876.4</ele>
        <time>2020-11-16T09:14:40Z</time>
      </trkpt>
      <trkpt lat="28.7365680" lon="-17.7723980">
        <ele>876.4</ele>
        <time>2020-11-16T09:14:41Z</time>
      </trkpt>
      <trkpt lat="28.7365750" lon="-17.7724250">
        <ele>876.7</ele>
        <time>2020-11-16T09:14:42Z</time>
      </trkpt>
      <trkpt lat="28.7365770" lon="-17.7724380">
        <ele>876.8</ele>
        <time>2020-11-16T09:14:43Z</time>
      </trkpt>
      <trkpt lat="28.7365770" lon="-17.7724380">
        <ele>876.8</ele>
        <time>2020-11-16T09:14:44Z</time>
      </trkpt>
      <trkpt lat="28.7365800" lon="-17.7724680">
        <ele>877.1</ele>
        <time>2020-11-16T09:14:45Z</time>
      </trkpt>
      <trkpt lat="28.7365800" lon="-17.7724680">
        <ele>877.1</ele>
        <time>2020-11-16T09:14:46Z</time>
      </trkpt>
      <trkpt lat="28.7365750" lon="-17.7724720">
        <ele>877.2</ele>
        <time>2020-11-16T09:14:47Z</time>
      </trkpt>
      <trkpt lat="28.7365750" lon="-17.7724720">
        <ele>877.2</ele>
        <time>2020-11-16T09:14:48Z</time>
      </trkpt>
      <trkpt lat="28.7365720" lon="-17.7724780">
        <ele>877.2</ele>
        <time>2020-11-16T09:14:49Z</time>
      </trkpt>
      <trkpt lat="28.7365720" lon="-17.7724780">
        <ele>877.2</ele>
        <time>2020-11-16T09:14:50Z</time>
      </trkpt>
      <trkpt lat="28.7365720" lon="-17.7724780">
        <ele>877.2</ele>
        <time>2020-11-16T09:14:51Z</time>
      </trkpt>
      <trkpt lat="28.7365720" lon="-17.7724780">
        <ele>877.2</ele>
        <time>2020-11-16T09:14:52Z</time>
      </trkpt>
      <trkpt lat="28.7365500" lon="-17.7725950">
        <ele>878.3</ele>
        <time>2020-11-16T09:15:10Z</time>
      </trkpt>
      <trkpt lat="28.7365500" lon="-17.7725950">
        <ele>878.3</ele>
        <time>2020-11-16T09:15:11Z</time>
      </trkpt>
      <trkpt lat="28.7365500" lon="-17.7726180">
        <ele>878.4</ele>
        <time>2020-11-16T09:15:12Z</time>
      </trkpt>
      <trkpt lat="28.7365420" lon="-17.7726300">
        <ele>878.5</ele>
        <time>2020-11-16T09:15:13Z</time>
      </trkpt>
      <trkpt lat="28.7365420" lon="-17.7726300">
        <ele>878.5</ele>
        <time>2020-11-16T09:15:14Z</time>
      </trkpt>
      <trkpt lat="28.7365370" lon="-17.7726720">
        <ele>878.8</ele>
        <time>2020-11-16T09:15:15Z</time>
      </trkpt>
      <trkpt lat="28.7365370" lon="-17.7726720">
        <ele>878.8</ele>
        <time>2020-11-16T09:15:16Z</time>
      </trkpt>
      <trkpt lat="28.7365430" lon="-17.7727180">
        <ele>879.1</ele>
        <time>2020-11-16T09:15:17Z</time>
      </trkpt>
      <trkpt lat="28.7365370" lon="-17.7727480">
        <ele>879.3</ele>
        <time>2020-11-16T09:15:18Z</time>
      </trkpt>
      <trkpt lat="28.7365370" lon="-17.7727480">
        <ele>879.3</ele>
        <time>2020-11-16T09:15:19Z</time>
      </trkpt>
      <trkpt lat="28.7365330" lon="-17.7727780">
        <ele>879.5</ele>
        <time>2020-11-16T09:15:20Z</time>
      </trkpt>
      <trkpt lat="28.7365330" lon="-17.7727780">
        <ele>879.5</ele>
        <time>2020-11-16T09:15:21Z</time>
      </trkpt>
      <trkpt lat="28.7365330" lon="-17.7727930">
        <ele>879.5</ele>
        <time>2020-11-16T09:15:22Z</time>
      </trkpt>
      <trkpt lat="28.7365330" lon="-17.7727930">
        <ele>879.5</ele>
        <time>2020-11-16T09:15:41Z</time>
      </trkpt>
      <trkpt lat="28.7365350" lon="-17.7728300">
        <ele>879.7</ele>
        <time>2020-11-16T09:15:42Z</time>
      </trkpt>
      <trkpt lat="28.7365350" lon="-17.7728300">
        <ele>879.7</ele>
        <time>2020-11-16T09:15:43Z</time>
      </trkpt>
      <trkpt lat="28.7365420" lon="-17.7728430">
        <ele>879.8</ele>
        <time>2020-11-16T09:15:44Z</time>
      </trkpt>
      <trkpt lat="28.7365420" lon="-17.7728430">
        <ele>879.8</ele>
        <time>2020-11-16T09:15:45Z</time>
      </trkpt>
      <trkpt lat="28.7365570" lon="-17.7728550">
        <ele>879.9</ele>
        <time>2020-11-16T09:15:46Z</time>
      </trkpt>
      <trkpt lat="28.7365570" lon="-17.7728550">
        <ele>879.9</ele>
        <time>2020-11-16T09:15:47Z</time>
      </trkpt>
      <trkpt lat="28.7365950" lon="-17.7728730">
        <ele>880.0</ele>
        <time>2020-11-16T09:15:48Z</time>
      </trkpt>
      <trkpt lat="28.7365950" lon="-17.7728730">
        <ele>880.0</ele>
        <time>2020-11-16T09:15:49Z</time>
      </trkpt>
      <trkpt lat="28.7366370" lon="-17.7729030">
        <ele>880.2</ele>
        <time>2020-11-16T09:15:50Z</time>
      </trkpt>
      <trkpt lat="28.7366470" lon="-17.7729130">
        <ele>880.3</ele>
        <time>2020-11-16T09:15:51Z</time>
      </trkpt>
      <trkpt lat="28.7366470" lon="-17.7729130">
        <ele>880.3</ele>
        <time>2020-11-16T09:15:52Z</time>
      </trkpt>
      <trkpt lat="28.7367030" lon="-17.7729400">
        <ele>880.6</ele>
        <time>2020-11-16T09:15:53Z</time>
      </trkpt>
      <trkpt lat="28.7367030" lon="-17.7729400">
        <ele>880.6</ele>
        <time>2020-11-16T09:15:54Z</time>
      </trkpt>
      <trkpt lat="28.7367430" lon="-17.7729600">
        <ele>880.8</ele>
        <time>2020-11-16T09:15:55Z</time>
      </trkpt>
      <trkpt lat="28.7367570" lon="-17.7729620">
        <ele>880.8</ele>
        <time>2020-11-16T09:15:56Z</time>
      </trkpt>
      <trkpt lat="28.7367570" lon="-17.7729620">
        <ele>880.8</ele>
        <time>2020-11-16T09:15:57Z</time>
      </trkpt>
      <trkpt lat="28.7367700" lon="-17.7729630">
        <ele>880.9</ele>
        <time>2020-11-16T09:15:58Z</time>
      </trkpt>
      <trkpt lat="28.7367700" lon="-17.7729630">
        <ele>880.9</ele>
        <time>2020-11-16T09:15:59Z</time>
      </trkpt>
      <trkpt lat="28.7367850" lon="-17.7729600">
        <ele>881.0</ele>
        <time>2020-11-16T09:16:00Z</time>
      </trkpt>
      <trkpt lat="28.7367970" lon="-17.7729580">
        <ele>881.1</ele>
        <time>2020-11-16T09:16:01Z</time>
      </trkpt>
      <trkpt lat="28.7367970" lon="-17.7729580">
        <ele>881.1</ele>
        <time>2020-11-16T09:16:02Z</time>
      </trkpt>
      <trkpt lat="28.7368200" lon="-17.7729470">
        <ele>881.2</ele>
        <time>2020-11-16T09:16:03Z</time>
      </trkpt>
      <trkpt lat="28.7368370" lon="-17.7729450">
        <ele>881.3</ele>
        <time>2020-11-16T09:16:04Z</time>
      </trkpt>
      <trkpt lat="28.7368370" lon="-17.7729450">
        <ele>881.3</ele>
        <time>2020-11-16T09:16:05Z</time>
      </trkpt>
      <trkpt lat="28.7368630" lon="-17.7729330">
        <ele>881.5</ele>
        <time>2020-11-16T09:16:06Z</time>
      </trkpt>
      <trkpt lat="28.7368750" lon="-17.7729270">
        <ele>881.6</ele>
        <time>2020-11-16T09:16:07Z</time>
      </trkpt>
      <trkpt lat="28.7368750" lon="-17.7729270">
        <ele>881.6</ele>
        <time>2020-11-16T09:16:08Z</time>
      </trkpt>
      <trkpt lat="28.7369000" lon="-17.7729170">
        <ele>881.8</ele>
        <time>2020-11-16T09:16:09Z</time>
      </trkpt>
      <trkpt lat="28.7369000" lon="-17.7729170">
        <ele>881.8</ele>
        <time>2020-11-16T09:16:10Z</time>
      </trkpt>
      <trkpt lat="28.7369180" lon="-17.7729020">
        <ele>882.0</ele>
        <time>2020-11-16T09:16:11Z</time>
      </trkpt>
      <trkpt lat="28.7369180" lon="-17.7729020">
        <ele>882.0</ele>
        <time>2020-11-16T09:16:12Z</time>
      </trkpt>
      <trkpt lat="28.7369500" lon="-17.7728870">
        <ele>882.2</ele>
        <time>2020-11-16T09:16:13Z</time>
      </trkpt>
      <trkpt lat="28.7369630" lon="-17.7728830">
        <ele>882.4</ele>
        <time>2020-11-16T09:16:14Z</time>
      </trkpt>
      <trkpt lat="28.7369630" lon="-17.7728830">
        <ele>882.4</ele>
        <time>2020-11-16T09:16:15Z</time>
      </trkpt>
      <trkpt lat="28.7369920" lon="-17.7728620">
        <ele>882.7</ele>
        <time>2020-11-16T09:16:16Z</time>
      </trkpt>
      <trkpt lat="28.7369920" lon="-17.7728620">
        <ele>882.7</ele>
        <time>2020-11-16T09:16:17Z</time>
      </trkpt>
      <trkpt lat="28.7370200" lon="-17.7728500">
        <ele>883.0</ele>
        <time>2020-11-16T09:16:18Z</time>
      </trkpt>
      <trkpt lat="28.7370350" lon="-17.7728400">
        <ele>883.1</ele>
        <time>2020-11-16T09:16:19Z</time>
      </trkpt>
      <trkpt lat="28.7370350" lon="-17.7728400">
        <ele>883.1</ele>
        <time>2020-11-16T09:16:20Z</time>
      </trkpt>
      <trkpt lat="28.7370570" lon="-17.7728230">
        <ele>883.4</ele>
        <time>2020-11-16T09:16:21Z</time>
      </trkpt>
      <trkpt lat="28.7370570" lon="-17.7728230">
        <ele>883.4</ele>
        <time>2020-11-16T09:16:22Z</time>
      </trkpt>
      <trkpt lat="28.7370950" lon="-17.7727930">
        <ele>883.9</ele>
        <time>2020-11-16T09:16:23Z</time>
      </trkpt>
      <trkpt lat="28.7370950" lon="-17.7727930">
        <ele>883.9</ele>
        <time>2020-11-16T09:16:24Z</time>
      </trkpt>
      <trkpt lat="28.7371600" lon="-17.7727430">
        <ele>884.7</ele>
        <time>2020-11-16T09:16:25Z</time>
      </trkpt>
      <trkpt lat="28.7371780" lon="-17.7727270">
        <ele>884.9</ele>
        <time>2020-11-16T09:16:26Z</time>
      </trkpt>
      <trkpt lat="28.7371780" lon="-17.7727270">
        <ele>884.9</ele>
        <time>2020-11-16T09:16:27Z</time>
      </trkpt>
      <trkpt lat="28.7372050" lon="-17.7726950">
        <ele>885.3</ele>
        <time>2020-11-16T09:16:28Z</time>
      </trkpt>
      <trkpt lat="28.7372050" lon="-17.7726950">
        <ele>885.3</ele>
        <time>2020-11-16T09:16:29Z</time>
      </trkpt>
      <trkpt lat="28.7372270" lon="-17.7726650">
        <ele>885.6</ele>
        <time>2020-11-16T09:16:30Z</time>
      </trkpt>
      <trkpt lat="28.7372270" lon="-17.7726650">
        <ele>885.6</ele>
        <time>2020-11-16T09:16:31Z</time>
      </trkpt>
      <trkpt lat="28.7372450" lon="-17.7726520">
        <ele>885.8</ele>
        <time>2020-11-16T09:16:32Z</time>
      </trkpt>
      <trkpt lat="28.7372530" lon="-17.7726480">
        <ele>885.8</ele>
        <time>2020-11-16T09:16:33Z</time>
      </trkpt>
      <trkpt lat="28.7372580" lon="-17.7726420">
        <ele>885.9</ele>
        <time>2020-11-16T09:16:34Z</time>
      </trkpt>
      <trkpt lat="28.7372670" lon="-17.7726370">
        <ele>886.0</ele>
        <time>2020-11-16T09:16:35Z</time>
      </trkpt>
      <trkpt lat="28.7372670" lon="-17.7726370">
        <ele>886.0</ele>
        <time>2020-11-16T09:16:36Z</time>
      </trkpt>
      <trkpt lat="28.7372850" lon="-17.7726250">
        <ele>886.1</ele>
        <time>2020-11-16T09:16:37Z</time>
      </trkpt>
      <trkpt lat="28.7372850" lon="-17.7726250">
        <ele>886.1</ele>
        <time>2020-11-16T09:16:38Z</time>
      </trkpt>
      <trkpt lat="28.7373120" lon="-17.7726250">
        <ele>886.3</ele>
        <time>2020-11-16T09:16:39Z</time>
      </trkpt>
      <trkpt lat="28.7373270" lon="-17.7726320">
        <ele>886.4</ele>
        <time>2020-11-16T09:16:40Z</time>
      </trkpt>
      <trkpt lat="28.7373270" lon="-17.7726320">
        <ele>886.4</ele>
        <time>2020-11-16T09:16:41Z</time>
      </trkpt>
      <trkpt lat="28.7373600" lon="-17.7726500">
        <ele>886.7</ele>
        <time>2020-11-16T09:16:42Z</time>
      </trkpt>
      <trkpt lat="28.7373600" lon="-17.7726500">
        <ele>886.7</ele>
        <time>2020-11-16T09:16:43Z</time>
      </trkpt>
      <trkpt lat="28.7373950" lon="-17.7726630">
        <ele>886.9</ele>
        <time>2020-11-16T09:16:44Z</time>
      </trkpt>
      <trkpt lat="28.7373950" lon="-17.7726630">
        <ele>886.9</ele>
        <time>2020-11-16T09:16:45Z</time>
      </trkpt>
      <trkpt lat="28.7374220" lon="-17.7726780">
        <ele>887.2</ele>
        <time>2020-11-16T09:16:46Z</time>
      </trkpt>
      <trkpt lat="28.7374220" lon="-17.7726780">
        <ele>887.2</ele>
        <time>2020-11-16T09:16:47Z</time>
      </trkpt>
      <trkpt lat="28.7374420" lon="-17.7726900">
        <ele>887.3</ele>
        <time>2020-11-16T09:16:48Z</time>
      </trkpt>
      <trkpt lat="28.7374420" lon="-17.7726900">
        <ele>887.3</ele>
        <time>2020-11-16T09:16:49Z</time>
      </trkpt>
      <trkpt lat="28.7374670" lon="-17.7727000">
        <ele>887.5</ele>
        <time>2020-11-16T09:16:50Z</time>
      </trkpt>
      <trkpt lat="28.7374670" lon="-17.7727000">
        <ele>887.5</ele>
        <time>2020-11-16T09:16:51Z</time>
      </trkpt>
      <trkpt lat="28.7374870" lon="-17.7727180">
        <ele>887.7</ele>
        <time>2020-11-16T09:16:52Z</time>
      </trkpt>
      <trkpt lat="28.7374870" lon="-17.7727180">
        <ele>887.7</ele>
        <time>2020-11-16T09:16:53Z</time>
      </trkpt>
      <trkpt lat="28.7375050" lon="-17.7727380">
        <ele>887.9</ele>
        <time>2020-11-16T09:16:54Z</time>
      </trkpt>
      <trkpt lat="28.7375230" lon="-17.7727500">
        <ele>888.0</ele>
        <time>2020-11-16T09:16:55Z</time>
      </trkpt>
      <trkpt lat="28.7375350" lon="-17.7727550">
        <ele>888.1</ele>
        <time>2020-11-16T09:16:56Z</time>
      </trkpt>
      <trkpt lat="28.7375350" lon="-17.7727550">
        <ele>888.1</ele>
        <time>2020-11-16T09:16:57Z</time>
      </trkpt>
      <trkpt lat="28.7375580" lon="-17.7727680">
        <ele>888.3</ele>
        <time>2020-11-16T09:16:58Z</time>
      </trkpt>
      <trkpt lat="28.7375580" lon="-17.7727680">
        <ele>888.3</ele>
        <time>2020-11-16T09:16:59Z</time>
      </trkpt>
      <trkpt lat="28.7375830" lon="-17.7727850">
        <ele>888.6</ele>
        <time>2020-11-16T09:17:00Z</time>
      </trkpt>
      <trkpt lat="28.7375930" lon="-17.7728030">
        <ele>888.8</ele>
        <time>2020-11-16T09:17:01Z</time>
      </trkpt>
      <trkpt lat="28.7375930" lon="-17.7728030">
        <ele>888.8</ele>
        <time>2020-11-16T09:17:02Z</time>
      </trkpt>
      <trkpt lat="28.7376100" lon="-17.7728330">
        <ele>889.2</ele>
        <time>2020-11-16T09:17:03Z</time>
      </trkpt>
      <trkpt lat="28.7376120" lon="-17.7728500">
        <ele>889.3</ele>
        <time>2020-11-16T09:17:04Z</time>
      </trkpt>
      <trkpt lat="28.7376120" lon="-17.7728500">
        <ele>889.3</ele>
        <time>2020-11-16T09:17:05Z</time>
      </trkpt>
      <trkpt lat="28.7376230" lon="-17.7728820">
        <ele>889.7</ele>
        <time>2020-11-16T09:17:06Z</time>
      </trkpt>
      <trkpt lat="28.7376230" lon="-17.7728820">
        <ele>889.7</ele>
        <time>2020-11-16T09:17:07Z</time>
      </trkpt>
      <trkpt lat="28.7376230" lon="-17.7729070">
        <ele>889.9</ele>
        <time>2020-11-16T09:17:08Z</time>
      </trkpt>
      <trkpt lat="28.7376270" lon="-17.7729230">
        <ele>890.1</ele>
        <time>2020-11-16T09:17:09Z</time>
      </trkpt>
      <trkpt lat="28.7376280" lon="-17.7729380">
        <ele>890.2</ele>
        <time>2020-11-16T09:17:10Z</time>
      </trkpt>
      <trkpt lat="28.7376280" lon="-17.7729380">
        <ele>890.2</ele>
        <time>2020-11-16T09:17:11Z</time>
      </trkpt>
      <trkpt lat="28.7376130" lon="-17.7729500">
        <ele>890.4</ele>
        <time>2020-11-16T09:17:12Z</time>
      </trkpt>
      <trkpt lat="28.7376130" lon="-17.7729500">
        <ele>890.4</ele>
        <time>2020-11-16T09:17:13Z</time>
      </trkpt>
      <trkpt lat="28.7375980" lon="-17.7729680">
        <ele>890.6</ele>
        <time>2020-11-16T09:17:14Z</time>
      </trkpt>
      <trkpt lat="28.7375980" lon="-17.7729680">
        <ele>890.6</ele>
        <time>2020-11-16T09:17:15Z</time>
      </trkpt>
      <trkpt lat="28.7375830" lon="-17.7729900">
        <ele>890.9</ele>
        <time>2020-11-16T09:17:16Z</time>
      </trkpt>
      <trkpt lat="28.7375830" lon="-17.7729900">
        <ele>890.9</ele>
        <time>2020-11-16T09:17:17Z</time>
      </trkpt>
      <trkpt lat="28.7375700" lon="-17.7730080">
        <ele>891.1</ele>
        <time>2020-11-16T09:17:18Z</time>
      </trkpt>
      <trkpt lat="28.7375650" lon="-17.7730180">
        <ele>891.2</ele>
        <time>2020-11-16T09:17:19Z</time>
      </trkpt>
      <trkpt lat="28.7375650" lon="-17.7730180">
        <ele>891.2</ele>
        <time>2020-11-16T09:17:20Z</time>
      </trkpt>
      <trkpt lat="28.7375630" lon="-17.7730330">
        <ele>891.4</ele>
        <time>2020-11-16T09:17:21Z</time>
      </trkpt>
      <trkpt lat="28.7375580" lon="-17.7730480">
        <ele>891.5</ele>
        <time>2020-11-16T09:17:22Z</time>
      </trkpt>
      <trkpt lat="28.7375550" lon="-17.7730600">
        <ele>891.6</ele>
        <time>2020-11-16T09:17:23Z</time>
      </trkpt>
      <trkpt lat="28.7375550" lon="-17.7730600">
        <ele>891.6</ele>
        <time>2020-11-16T09:17:24Z</time>
      </trkpt>
      <trkpt lat="28.7375330" lon="-17.7730820">
        <ele>892.0</ele>
        <time>2020-11-16T09:17:25Z</time>
      </trkpt>
      <trkpt lat="28.7375330" lon="-17.7730820">
        <ele>892.0</ele>
        <time>2020-11-16T09:17:26Z</time>
      </trkpt>
      <trkpt lat="28.7374970" lon="-17.7731320">
        <ele>892.6</ele>
        <time>2020-11-16T09:17:27Z</time>
      </trkpt>
      <trkpt lat="28.7374970" lon="-17.7731320">
        <ele>892.6</ele>
        <time>2020-11-16T09:17:28Z</time>
      </trkpt>
      <trkpt lat="28.7374750" lon="-17.7731670">
        <ele>893.0</ele>
        <time>2020-11-16T09:17:29Z</time>
      </trkpt>
      <trkpt lat="28.7374750" lon="-17.7731670">
        <ele>893.0</ele>
        <time>2020-11-16T09:17:30Z</time>
      </trkpt>
      <trkpt lat="28.7374600" lon="-17.7731870">
        <ele>893.3</ele>
        <time>2020-11-16T09:17:31Z</time>
      </trkpt>
      <trkpt lat="28.7374530" lon="-17.7732030">
        <ele>893.4</ele>
        <time>2020-11-16T09:17:32Z</time>
      </trkpt>
      <trkpt lat="28.7374530" lon="-17.7732030">
        <ele>893.4</ele>
        <time>2020-11-16T09:17:33Z</time>
      </trkpt>
      <trkpt lat="28.7374450" lon="-17.7732270">
        <ele>893.7</ele>
        <time>2020-11-16T09:17:34Z</time>
      </trkpt>
      <trkpt lat="28.7374450" lon="-17.7732270">
        <ele>893.7</ele>
        <time>2020-11-16T09:17:35Z</time>
      </trkpt>
      <trkpt lat="28.7374370" lon="-17.7732450">
        <ele>893.9</ele>
        <time>2020-11-16T09:17:36Z</time>
      </trkpt>
      <trkpt lat="28.7374370" lon="-17.7732450">
        <ele>893.9</ele>
        <time>2020-11-16T09:17:37Z</time>
      </trkpt>
      <trkpt lat="28.7374250" lon="-17.7732720">
        <ele>894.2</ele>
        <time>2020-11-16T09:17:38Z</time>
      </trkpt>
      <trkpt lat="28.7374250" lon="-17.7732720">
        <ele>894.2</ele>
        <time>2020-11-16T09:17:39Z</time>
      </trkpt>
      <trkpt lat="28.7374080" lon="-17.7732950">
        <ele>894.4</ele>
        <time>2020-11-16T09:17:40Z</time>
      </trkpt>
      <trkpt lat="28.7374080" lon="-17.7732950">
        <ele>894.4</ele>
        <time>2020-11-16T09:17:41Z</time>
      </trkpt>
      <trkpt lat="28.7373880" lon="-17.7733320">
        <ele>894.8</ele>
        <time>2020-11-16T09:17:42Z</time>
      </trkpt>
      <trkpt lat="28.7373800" lon="-17.7733470">
        <ele>895.0</ele>
        <time>2020-11-16T09:17:43Z</time>
      </trkpt>
      <trkpt lat="28.7373800" lon="-17.7733470">
        <ele>895.0</ele>
        <time>2020-11-16T09:17:44Z</time>
      </trkpt>
      <trkpt lat="28.7373750" lon="-17.7733820">
        <ele>895.3</ele>
        <time>2020-11-16T09:17:45Z</time>
      </trkpt>
      <trkpt lat="28.7373700" lon="-17.7733980">
        <ele>895.4</ele>
        <time>2020-11-16T09:17:46Z</time>
      </trkpt>
      <trkpt lat="28.7373700" lon="-17.7733980">
        <ele>895.4</ele>
        <time>2020-11-16T09:17:47Z</time>
      </trkpt>
      <trkpt lat="28.7373720" lon="-17.7734250">
        <ele>895.7</ele>
        <time>2020-11-16T09:17:48Z</time>
      </trkpt>
      <trkpt lat="28.7373720" lon="-17.7734250">
        <ele>895.7</ele>
        <time>2020-11-16T09:17:49Z</time>
      </trkpt>
      <trkpt lat="28.7373670" lon="-17.7734620">
        <ele>896.0</ele>
        <time>2020-11-16T09:17:50Z</time>
      </trkpt>
      <trkpt lat="28.7373670" lon="-17.7734620">
        <ele>896.0</ele>
        <time>2020-11-16T09:17:51Z</time>
      </trkpt>
      <trkpt lat="28.7373670" lon="-17.7734880">
        <ele>896.2</ele>
        <time>2020-11-16T09:17:52Z</time>
      </trkpt>
      <trkpt lat="28.7373670" lon="-17.7734880">
        <ele>896.2</ele>
        <time>2020-11-16T09:17:53Z</time>
      </trkpt>
      <trkpt lat="28.7373700" lon="-17.7735180">
        <ele>896.5</ele>
        <time>2020-11-16T09:17:54Z</time>
      </trkpt>
      <trkpt lat="28.7373700" lon="-17.7735180">
        <ele>896.5</ele>
        <time>2020-11-16T09:17:55Z</time>
      </trkpt>
      <trkpt lat="28.7373720" lon="-17.7735420">
        <ele>896.7</ele>
        <time>2020-11-16T09:17:56Z</time>
      </trkpt>
      <trkpt lat="28.7373720" lon="-17.7735420">
        <ele>896.7</ele>
        <time>2020-11-16T09:17:57Z</time>
      </trkpt>
      <trkpt lat="28.7373650" lon="-17.7735630">
        <ele>896.9</ele>
        <time>2020-11-16T09:17:58Z</time>
      </trkpt>
      <trkpt lat="28.7373650" lon="-17.7735630">
        <ele>896.9</ele>
        <time>2020-11-16T09:17:59Z</time>
      </trkpt>
      <trkpt lat="28.7373470" lon="-17.7736030">
        <ele>897.3</ele>
        <time>2020-11-16T09:18:00Z</time>
      </trkpt>
      <trkpt lat="28.7373430" lon="-17.7736250">
        <ele>897.5</ele>
        <time>2020-11-16T09:18:01Z</time>
      </trkpt>
      <trkpt lat="28.7373280" lon="-17.7736450">
        <ele>897.8</ele>
        <time>2020-11-16T09:18:02Z</time>
      </trkpt>
      <trkpt lat="28.7373280" lon="-17.7736450">
        <ele>897.8</ele>
        <time>2020-11-16T09:18:03Z</time>
      </trkpt>
      <trkpt lat="28.7373130" lon="-17.7736750">
        <ele>898.1</ele>
        <time>2020-11-16T09:18:04Z</time>
      </trkpt>
      <trkpt lat="28.7373130" lon="-17.7736750">
        <ele>898.1</ele>
        <time>2020-11-16T09:18:05Z</time>
      </trkpt>
      <trkpt lat="28.7372980" lon="-17.7737070">
        <ele>898.4</ele>
        <time>2020-11-16T09:18:06Z</time>
      </trkpt>
      <trkpt lat="28.7372980" lon="-17.7737070">
        <ele>898.4</ele>
        <time>2020-11-16T09:18:07Z</time>
      </trkpt>
      <trkpt lat="28.7372750" lon="-17.7737450">
        <ele>898.8</ele>
        <time>2020-11-16T09:18:08Z</time>
      </trkpt>
      <trkpt lat="28.7372600" lon="-17.7737580">
        <ele>898.9</ele>
        <time>2020-11-16T09:18:09Z</time>
      </trkpt>
      <trkpt lat="28.7372550" lon="-17.7737680">
        <ele>899.0</ele>
        <time>2020-11-16T09:18:10Z</time>
      </trkpt>
      <trkpt lat="28.7372550" lon="-17.7737680">
        <ele>899.0</ele>
        <time>2020-11-16T09:18:11Z</time>
      </trkpt>
      <trkpt lat="28.7372550" lon="-17.7737920">
        <ele>899.2</ele>
        <time>2020-11-16T09:18:12Z</time>
      </trkpt>
      <trkpt lat="28.7372550" lon="-17.7737920">
        <ele>899.2</ele>
        <time>2020-11-16T09:18:13Z</time>
      </trkpt>
      <trkpt lat="28.7372480" lon="-17.7738330">
        <ele>899.5</ele>
        <time>2020-11-16T09:18:14Z</time>
      </trkpt>
      <trkpt lat="28.7372480" lon="-17.7738330">
        <ele>899.5</ele>
        <time>2020-11-16T09:18:15Z</time>
      </trkpt>
      <trkpt lat="28.7372380" lon="-17.7738730">
        <ele>899.7</ele>
        <time>2020-11-16T09:18:16Z</time>
      </trkpt>
      <trkpt lat="28.7372380" lon="-17.7738730">
        <ele>899.7</ele>
        <time>2020-11-16T09:18:17Z</time>
      </trkpt>
      <trkpt lat="28.7372200" lon="-17.7739120">
        <ele>900.0</ele>
        <time>2020-11-16T09:18:18Z</time>
      </trkpt>
      <trkpt lat="28.7372200" lon="-17.7739120">
        <ele>900.0</ele>
        <time>2020-11-16T09:18:19Z</time>
      </trkpt>
      <trkpt lat="28.7372200" lon="-17.7739530">
        <ele>900.2</ele>
        <time>2020-11-16T09:18:20Z</time>
      </trkpt>
      <trkpt lat="28.7372200" lon="-17.7739530">
        <ele>900.2</ele>
        <time>2020-11-16T09:18:21Z</time>
      </trkpt>
      <trkpt lat="28.7372380" lon="-17.7739880">
        <ele>900.5</ele>
        <time>2020-11-16T09:18:22Z</time>
      </trkpt>
      <trkpt lat="28.7372380" lon="-17.7739880">
        <ele>900.5</ele>
        <time>2020-11-16T09:18:23Z</time>
      </trkpt>
      <trkpt lat="28.7372600" lon="-17.7740050">
        <ele>900.7</ele>
        <time>2020-11-16T09:18:24Z</time>
      </trkpt>
      <trkpt lat="28.7372600" lon="-17.7740050">
        <ele>900.7</ele>
        <time>2020-11-16T09:18:25Z</time>
      </trkpt>
      <trkpt lat="28.7372680" lon="-17.7740080">
        <ele>900.7</ele>
        <time>2020-11-16T09:18:26Z</time>
      </trkpt>
      <trkpt lat="28.7372680" lon="-17.7740080">
        <ele>900.7</ele>
        <time>2020-11-16T09:18:27Z</time>
      </trkpt>
      <trkpt lat="28.7372750" lon="-17.7740170">
        <ele>900.8</ele>
        <time>2020-11-16T09:18:28Z</time>
      </trkpt>
      <trkpt lat="28.7372750" lon="-17.7740170">
        <ele>900.8</ele>
        <time>2020-11-16T09:18:38Z</time>
      </trkpt>
      <trkpt lat="28.7372750" lon="-17.7740170">
        <ele>900.8</ele>
        <time>2020-11-16T09:18:39Z</time>
      </trkpt>
      <trkpt lat="28.7373300" lon="-17.7740880">
        <ele>901.4</ele>
        <time>2020-11-16T09:18:40Z</time>
      </trkpt>
      <trkpt lat="28.7373300" lon="-17.7740880">
        <ele>901.4</ele>
        <time>2020-11-16T09:18:41Z</time>
      </trkpt>
      <trkpt lat="28.7373520" lon="-17.7740970">
        <ele>901.6</ele>
        <time>2020-11-16T09:18:42Z</time>
      </trkpt>
      <trkpt lat="28.7373600" lon="-17.7740980">
        <ele>901.6</ele>
        <time>2020-11-16T09:18:43Z</time>
      </trkpt>
      <trkpt lat="28.7373600" lon="-17.7740980">
        <ele>901.6</ele>
        <time>2020-11-16T09:18:44Z</time>
      </trkpt>
      <trkpt lat="28.7373730" lon="-17.7740980">
        <ele>901.7</ele>
        <time>2020-11-16T09:18:45Z</time>
      </trkpt>
      <trkpt lat="28.7373820" lon="-17.7740950">
        <ele>901.8</ele>
        <time>2020-11-16T09:18:46Z</time>
      </trkpt>
      <trkpt lat="28.7373820" lon="-17.7740950">
        <ele>901.8</ele>
        <time>2020-11-16T09:18:47Z</time>
      </trkpt>
      <trkpt lat="28.7373980" lon="-17.7741020">
        <ele>901.9</ele>
        <time>2020-11-16T09:18:48Z</time>
      </trkpt>
      <trkpt lat="28.7373980" lon="-17.7741020">
        <ele>901.9</ele>
        <time>2020-11-16T09:18:49Z</time>
      </trkpt>
      <trkpt lat="28.7374100" lon="-17.7741220">
        <ele>902.1</ele>
        <time>2020-11-16T09:18:50Z</time>
      </trkpt>
      <trkpt lat="28.7374100" lon="-17.7741220">
        <ele>902.1</ele>
        <time>2020-11-16T09:18:51Z</time>
      </trkpt>
      <trkpt lat="28.7374150" lon="-17.7741500">
        <ele>902.2</ele>
        <time>2020-11-16T09:18:52Z</time>
      </trkpt>
      <trkpt lat="28.7374150" lon="-17.7741500">
        <ele>902.2</ele>
        <time>2020-11-16T09:18:53Z</time>
      </trkpt>
      <trkpt lat="28.7374320" lon="-17.7741680">
        <ele>902.4</ele>
        <time>2020-11-16T09:18:54Z</time>
      </trkpt>
      <trkpt lat="28.7374320" lon="-17.7741680">
        <ele>902.4</ele>
        <time>2020-11-16T09:18:55Z</time>
      </trkpt>
      <trkpt lat="28.7374320" lon="-17.7741680">
        <ele>902.4</ele>
        <time>2020-11-16T09:18:56Z</time>
      </trkpt>
      <trkpt lat="28.7374320" lon="-17.7741680">
        <ele>902.4</ele>
        <time>2020-11-16T09:18:57Z</time>
      </trkpt>
      <trkpt lat="28.7374320" lon="-17.7741680">
        <ele>902.4</ele>
        <time>2020-11-16T09:19:08Z</time>
      </trkpt>
      <trkpt lat="28.7374320" lon="-17.7741680">
        <ele>902.4</ele>
        <time>2020-11-16T09:19:09Z</time>
      </trkpt>
      <trkpt lat="28.7374900" lon="-17.7742320">
        <ele>903.0</ele>
        <time>2020-11-16T09:19:10Z</time>
      </trkpt>
      <trkpt lat="28.7374900" lon="-17.7742320">
        <ele>903.0</ele>
        <time>2020-11-16T09:19:11Z</time>
      </trkpt>
      <trkpt lat="28.7374980" lon="-17.7742370">
        <ele>903.1</ele>
        <time>2020-11-16T09:19:12Z</time>
      </trkpt>
      <trkpt lat="28.7374980" lon="-17.7742370">
        <ele>903.1</ele>
        <time>2020-11-16T09:19:13Z</time>
      </trkpt>
      <trkpt lat="28.7375050" lon="-17.7742450">
        <ele>903.2</ele>
        <time>2020-11-16T09:19:14Z</time>
      </trkpt>
      <trkpt lat="28.7375050" lon="-17.7742450">
        <ele>903.2</ele>
        <time>2020-11-16T09:19:15Z</time>
      </trkpt>
      <trkpt lat="28.7375100" lon="-17.7742570">
        <ele>903.3</ele>
        <time>2020-11-16T09:19:16Z</time>
      </trkpt>
      <trkpt lat="28.7375100" lon="-17.7742570">
        <ele>903.3</ele>
        <time>2020-11-16T09:19:17Z</time>
      </trkpt>
      <trkpt lat="28.7375130" lon="-17.7742570">
        <ele>903.3</ele>
        <time>2020-11-16T09:19:18Z</time>
      </trkpt>
      <trkpt lat="28.7375130" lon="-17.7742570">
        <ele>903.3</ele>
        <time>2020-11-16T09:19:19Z</time>
      </trkpt>
      <trkpt lat="28.7375130" lon="-17.7742570">
        <ele>903.3</ele>
        <time>2020-11-16T09:19:32Z</time>
      </trkpt>
      <trkpt lat="28.7375800" lon="-17.7743000">
        <ele>903.9</ele>
        <time>2020-11-16T09:19:33Z</time>
      </trkpt>
      <trkpt lat="28.7375850" lon="-17.7743020">
        <ele>904.0</ele>
        <time>2020-11-16T09:19:34Z</time>
      </trkpt>
      <trkpt lat="28.7375850" lon="-17.7743020">
        <ele>904.0</ele>
        <time>2020-11-16T09:19:35Z</time>
      </trkpt>
      <trkpt lat="28.7376080" lon="-17.7743200">
        <ele>904.2</ele>
        <time>2020-11-16T09:19:36Z</time>
      </trkpt>
      <trkpt lat="28.7376080" lon="-17.7743200">
        <ele>904.2</ele>
        <time>2020-11-16T09:19:37Z</time>
      </trkpt>
      <trkpt lat="28.7376500" lon="-17.7743370">
        <ele>904.5</ele>
        <time>2020-11-16T09:19:38Z</time>
      </trkpt>
      <trkpt lat="28.7376500" lon="-17.7743370">
        <ele>904.5</ele>
        <time>2020-11-16T09:19:39Z</time>
      </trkpt>
      <trkpt lat="28.7376900" lon="-17.7743700">
        <ele>904.9</ele>
        <time>2020-11-16T09:19:40Z</time>
      </trkpt>
      <trkpt lat="28.7376900" lon="-17.7743700">
        <ele>904.9</ele>
        <time>2020-11-16T09:19:41Z</time>
      </trkpt>
      <trkpt lat="28.7377070" lon="-17.7744020">
        <ele>905.1</ele>
        <time>2020-11-16T09:19:42Z</time>
      </trkpt>
      <trkpt lat="28.7377070" lon="-17.7744020">
        <ele>905.1</ele>
        <time>2020-11-16T09:19:43Z</time>
      </trkpt>
      <trkpt lat="28.7377280" lon="-17.7744330">
        <ele>905.4</ele>
        <time>2020-11-16T09:19:44Z</time>
      </trkpt>
      <trkpt lat="28.7377280" lon="-17.7744330">
        <ele>905.4</ele>
        <time>2020-11-16T09:19:45Z</time>
      </trkpt>
      <trkpt lat="28.7377350" lon="-17.7744680">
        <ele>905.6</ele>
        <time>2020-11-16T09:19:46Z</time>
      </trkpt>
      <trkpt lat="28.7377350" lon="-17.7744680">
        <ele>905.6</ele>
        <time>2020-11-16T09:19:47Z</time>
      </trkpt>
      <trkpt lat="28.7377500" lon="-17.7745030">
        <ele>905.8</ele>
        <time>2020-11-16T09:19:48Z</time>
      </trkpt>
      <trkpt lat="28.7377580" lon="-17.7745180">
        <ele>905.9</ele>
        <time>2020-11-16T09:19:49Z</time>
      </trkpt>
      <trkpt lat="28.7377650" lon="-17.7745330">
        <ele>906.0</ele>
        <time>2020-11-16T09:19:50Z</time>
      </trkpt>
      <trkpt lat="28.7377650" lon="-17.7745330">
        <ele>906.0</ele>
        <time>2020-11-16T09:19:51Z</time>
      </trkpt>
      <trkpt lat="28.7377770" lon="-17.7745700">
        <ele>906.3</ele>
        <time>2020-11-16T09:19:52Z</time>
      </trkpt>
      <trkpt lat="28.7377770" lon="-17.7745700">
        <ele>906.3</ele>
        <time>2020-11-16T09:19:53Z</time>
      </trkpt>
      <trkpt lat="28.7377970" lon="-17.7746070">
        <ele>906.6</ele>
        <time>2020-11-16T09:19:54Z</time>
      </trkpt>
      <trkpt lat="28.7377970" lon="-17.7746070">
        <ele>906.6</ele>
        <time>2020-11-16T09:19:55Z</time>
      </trkpt>
      <trkpt lat="28.7378120" lon="-17.7746430">
        <ele>906.9</ele>
        <time>2020-11-16T09:19:56Z</time>
      </trkpt>
      <trkpt lat="28.7378120" lon="-17.7746430">
        <ele>906.9</ele>
        <time>2020-11-16T09:19:57Z</time>
      </trkpt>
      <trkpt lat="28.7378220" lon="-17.7746800">
        <ele>907.1</ele>
        <time>2020-11-16T09:19:58Z</time>
      </trkpt>
      <trkpt lat="28.7378230" lon="-17.7747000">
        <ele>907.3</ele>
        <time>2020-11-16T09:19:59Z</time>
      </trkpt>
      <trkpt lat="28.7378230" lon="-17.7747000">
        <ele>907.3</ele>
        <time>2020-11-16T09:20:00Z</time>
      </trkpt>
      <trkpt lat="28.7378320" lon="-17.7747280">
        <ele>907.5</ele>
        <time>2020-11-16T09:20:01Z</time>
      </trkpt>
      <trkpt lat="28.7378380" lon="-17.7747470">
        <ele>907.6</ele>
        <time>2020-11-16T09:20:02Z</time>
      </trkpt>
      <trkpt lat="28.7378380" lon="-17.7747470">
        <ele>907.6</ele>
        <time>2020-11-16T09:20:03Z</time>
      </trkpt>
      <trkpt lat="28.7378500" lon="-17.7747870">
        <ele>907.9</ele>
        <time>2020-11-16T09:20:04Z</time>
      </trkpt>
      <trkpt lat="28.7378500" lon="-17.7747870">
        <ele>907.9</ele>
        <time>2020-11-16T09:20:05Z</time>
      </trkpt>
      <trkpt lat="28.7378580" lon="-17.7748220">
        <ele>908.2</ele>
        <time>2020-11-16T09:20:06Z</time>
      </trkpt>
      <trkpt lat="28.7378580" lon="-17.7748220">
        <ele>908.2</ele>
        <time>2020-11-16T09:20:07Z</time>
      </trkpt>
      <trkpt lat="28.7378700" lon="-17.7748530">
        <ele>908.4</ele>
        <time>2020-11-16T09:20:08Z</time>
      </trkpt>
      <trkpt lat="28.7378700" lon="-17.7748530">
        <ele>908.4</ele>
        <time>2020-11-16T09:20:09Z</time>
      </trkpt>
      <trkpt lat="28.7378850" lon="-17.7748880">
        <ele>908.8</ele>
        <time>2020-11-16T09:20:10Z</time>
      </trkpt>
      <trkpt lat="28.7378850" lon="-17.7748880">
        <ele>908.8</ele>
        <time>2020-11-16T09:20:11Z</time>
      </trkpt>
      <trkpt lat="28.7378970" lon="-17.7749300">
        <ele>909.1</ele>
        <time>2020-11-16T09:20:12Z</time>
      </trkpt>
      <trkpt lat="28.7378970" lon="-17.7749300">
        <ele>909.1</ele>
        <time>2020-11-16T09:20:13Z</time>
      </trkpt>
      <trkpt lat="28.7379080" lon="-17.7749650">
        <ele>909.4</ele>
        <time>2020-11-16T09:20:14Z</time>
      </trkpt>
      <trkpt lat="28.7379080" lon="-17.7749650">
        <ele>909.4</ele>
        <time>2020-11-16T09:20:15Z</time>
      </trkpt>
      <trkpt lat="28.7379200" lon="-17.7750020">
        <ele>909.7</ele>
        <time>2020-11-16T09:20:16Z</time>
      </trkpt>
      <trkpt lat="28.7379200" lon="-17.7750020">
        <ele>909.7</ele>
        <time>2020-11-16T09:20:17Z</time>
      </trkpt>
      <trkpt lat="28.7379250" lon="-17.7750350">
        <ele>910.0</ele>
        <time>2020-11-16T09:20:18Z</time>
      </trkpt>
      <trkpt lat="28.7379250" lon="-17.7750350">
        <ele>910.0</ele>
        <time>2020-11-16T09:20:19Z</time>
      </trkpt>
      <trkpt lat="28.7379150" lon="-17.7750720">
        <ele>910.3</ele>
        <time>2020-11-16T09:20:20Z</time>
      </trkpt>
      <trkpt lat="28.7379150" lon="-17.7750720">
        <ele>910.3</ele>
        <time>2020-11-16T09:20:21Z</time>
      </trkpt>
      <trkpt lat="28.7379130" lon="-17.7751000">
        <ele>910.5</ele>
        <time>2020-11-16T09:20:22Z</time>
      </trkpt>
      <trkpt lat="28.7379130" lon="-17.7751000">
        <ele>910.5</ele>
        <time>2020-11-16T09:20:23Z</time>
      </trkpt>
      <trkpt lat="28.7379120" lon="-17.7751250">
        <ele>910.7</ele>
        <time>2020-11-16T09:20:24Z</time>
      </trkpt>
      <trkpt lat="28.7379120" lon="-17.7751250">
        <ele>910.7</ele>
        <time>2020-11-16T09:20:25Z</time>
      </trkpt>
      <trkpt lat="28.7379080" lon="-17.7751530">
        <ele>910.9</ele>
        <time>2020-11-16T09:20:26Z</time>
      </trkpt>
      <trkpt lat="28.7379080" lon="-17.7751530">
        <ele>910.9</ele>
        <time>2020-11-16T09:20:27Z</time>
      </trkpt>
      <trkpt lat="28.7379020" lon="-17.7751800">
        <ele>911.1</ele>
        <time>2020-11-16T09:20:28Z</time>
      </trkpt>
      <trkpt lat="28.7379020" lon="-17.7751800">
        <ele>911.1</ele>
        <time>2020-11-16T09:20:29Z</time>
      </trkpt>
      <trkpt lat="28.7378930" lon="-17.7751980">
        <ele>911.3</ele>
        <time>2020-11-16T09:20:30Z</time>
      </trkpt>
      <trkpt lat="28.7378930" lon="-17.7751980">
        <ele>911.3</ele>
        <time>2020-11-16T09:20:31Z</time>
      </trkpt>
      <trkpt lat="28.7378870" lon="-17.7752180">
        <ele>911.5</ele>
        <time>2020-11-16T09:20:32Z</time>
      </trkpt>
      <trkpt lat="28.7378870" lon="-17.7752180">
        <ele>911.5</ele>
        <time>2020-11-16T09:20:33Z</time>
      </trkpt>
      <trkpt lat="28.7378850" lon="-17.7752380">
        <ele>911.6</ele>
        <time>2020-11-16T09:20:34Z</time>
      </trkpt>
      <trkpt lat="28.7378850" lon="-17.7752380">
        <ele>911.6</ele>
        <time>2020-11-16T09:20:35Z</time>
      </trkpt>
      <trkpt lat="28.7378870" lon="-17.7752730">
        <ele>911.9</ele>
        <time>2020-11-16T09:20:36Z</time>
      </trkpt>
      <trkpt lat="28.7378880" lon="-17.7752900">
        <ele>912.0</ele>
        <time>2020-11-16T09:20:37Z</time>
      </trkpt>
      <trkpt lat="28.7378880" lon="-17.7752900">
        <ele>912.0</ele>
        <time>2020-11-16T09:20:38Z</time>
      </trkpt>
      <trkpt lat="28.7378870" lon="-17.7753050">
        <ele>912.1</ele>
        <time>2020-11-16T09:20:39Z</time>
      </trkpt>
      <trkpt lat="28.7378880" lon="-17.7753070">
        <ele>912.2</ele>
        <time>2020-11-16T09:20:40Z</time>
      </trkpt>
      <trkpt lat="28.7378880" lon="-17.7753070">
        <ele>912.2</ele>
        <time>2020-11-16T09:20:41Z</time>
      </trkpt>
      <trkpt lat="28.7378680" lon="-17.7753220">
        <ele>912.4</ele>
        <time>2020-11-16T09:20:42Z</time>
      </trkpt>
      <trkpt lat="28.7378680" lon="-17.7753220">
        <ele>912.4</ele>
        <time>2020-11-16T09:20:43Z</time>
      </trkpt>
      <trkpt lat="28.7378730" lon="-17.7753450">
        <ele>912.6</ele>
        <time>2020-11-16T09:20:44Z</time>
      </trkpt>
      <trkpt lat="28.7378730" lon="-17.7753450">
        <ele>912.6</ele>
        <time>2020-11-16T09:20:45Z</time>
      </trkpt>
      <trkpt lat="28.7378650" lon="-17.7753600">
        <ele>912.7</ele>
        <time>2020-11-16T09:20:46Z</time>
      </trkpt>
      <trkpt lat="28.7378650" lon="-17.7753600">
        <ele>912.7</ele>
        <time>2020-11-16T09:20:47Z</time>
      </trkpt>
      <trkpt lat="28.7378520" lon="-17.7753780">
        <ele>912.9</ele>
        <time>2020-11-16T09:20:48Z</time>
      </trkpt>
      <trkpt lat="28.7378520" lon="-17.7753780">
        <ele>912.9</ele>
        <time>2020-11-16T09:20:49Z</time>
      </trkpt>
      <trkpt lat="28.7378600" lon="-17.7754000">
        <ele>913.1</ele>
        <time>2020-11-16T09:20:50Z</time>
      </trkpt>
      <trkpt lat="28.7378600" lon="-17.7754000">
        <ele>913.1</ele>
        <time>2020-11-16T09:20:51Z</time>
      </trkpt>
      <trkpt lat="28.7378630" lon="-17.7754250">
        <ele>913.3</ele>
        <time>2020-11-16T09:20:52Z</time>
      </trkpt>
      <trkpt lat="28.7378630" lon="-17.7754250">
        <ele>913.3</ele>
        <time>2020-11-16T09:20:53Z</time>
      </trkpt>
      <trkpt lat="28.7378450" lon="-17.7754330">
        <ele>913.5</ele>
        <time>2020-11-16T09:20:54Z</time>
      </trkpt>
      <trkpt lat="28.7378450" lon="-17.7754330">
        <ele>913.5</ele>
        <time>2020-11-16T09:20:55Z</time>
      </trkpt>
      <trkpt lat="28.7378470" lon="-17.7754520">
        <ele>913.7</ele>
        <time>2020-11-16T09:20:56Z</time>
      </trkpt>
      <trkpt lat="28.7378470" lon="-17.7754520">
        <ele>913.7</ele>
        <time>2020-11-16T09:20:57Z</time>
      </trkpt>
      <trkpt lat="28.7378530" lon="-17.7754780">
        <ele>913.9</ele>
        <time>2020-11-16T09:20:58Z</time>
      </trkpt>
      <trkpt lat="28.7378530" lon="-17.7754780">
        <ele>913.9</ele>
        <time>2020-11-16T09:20:59Z</time>
      </trkpt>
      <trkpt lat="28.7378650" lon="-17.7755080">
        <ele>914.2</ele>
        <time>2020-11-16T09:21:00Z</time>
      </trkpt>
      <trkpt lat="28.7378650" lon="-17.7755080">
        <ele>914.2</ele>
        <time>2020-11-16T09:21:01Z</time>
      </trkpt>
      <trkpt lat="28.7378680" lon="-17.7755380">
        <ele>914.4</ele>
        <time>2020-11-16T09:21:02Z</time>
      </trkpt>
      <trkpt lat="28.7378680" lon="-17.7755380">
        <ele>914.4</ele>
        <time>2020-11-16T09:21:03Z</time>
      </trkpt>
      <trkpt lat="28.7378670" lon="-17.7755650">
        <ele>914.7</ele>
        <time>2020-11-16T09:21:04Z</time>
      </trkpt>
      <trkpt lat="28.7378670" lon="-17.7755770">
        <ele>914.8</ele>
        <time>2020-11-16T09:21:05Z</time>
      </trkpt>
      <trkpt lat="28.7378670" lon="-17.7755770">
        <ele>914.8</ele>
        <time>2020-11-16T09:21:06Z</time>
      </trkpt>
      <trkpt lat="28.7378730" lon="-17.7756030">
        <ele>915.0</ele>
        <time>2020-11-16T09:21:07Z</time>
      </trkpt>
      <trkpt lat="28.7378730" lon="-17.7756030">
        <ele>915.0</ele>
        <time>2020-11-16T09:21:08Z</time>
      </trkpt>
      <trkpt lat="28.7378770" lon="-17.7756280">
        <ele>915.2</ele>
        <time>2020-11-16T09:21:09Z</time>
      </trkpt>
      <trkpt lat="28.7378770" lon="-17.7756280">
        <ele>915.2</ele>
        <time>2020-11-16T09:21:10Z</time>
      </trkpt>
      <trkpt lat="28.7378820" lon="-17.7756550">
        <ele>915.5</ele>
        <time>2020-11-16T09:21:11Z</time>
      </trkpt>
      <trkpt lat="28.7378820" lon="-17.7756680">
        <ele>915.6</ele>
        <time>2020-11-16T09:21:12Z</time>
      </trkpt>
      <trkpt lat="28.7378820" lon="-17.7756680">
        <ele>915.6</ele>
        <time>2020-11-16T09:21:13Z</time>
      </trkpt>
      <trkpt lat="28.7378830" lon="-17.7756950">
        <ele>915.8</ele>
        <time>2020-11-16T09:21:14Z</time>
      </trkpt>
      <trkpt lat="28.7378830" lon="-17.7756950">
        <ele>915.8</ele>
        <time>2020-11-16T09:21:15Z</time>
      </trkpt>
      <trkpt lat="28.7378850" lon="-17.7757220">
        <ele>916.1</ele>
        <time>2020-11-16T09:21:16Z</time>
      </trkpt>
      <trkpt lat="28.7378850" lon="-17.7757220">
        <ele>916.1</ele>
        <time>2020-11-16T09:21:17Z</time>
      </trkpt>
      <trkpt lat="28.7379170" lon="-17.7757500">
        <ele>916.5</ele>
        <time>2020-11-16T09:21:18Z</time>
      </trkpt>
      <trkpt lat="28.7379170" lon="-17.7757500">
        <ele>916.5</ele>
        <time>2020-11-16T09:21:19Z</time>
      </trkpt>
      <trkpt lat="28.7379180" lon="-17.7757730">
        <ele>916.7</ele>
        <time>2020-11-16T09:21:20Z</time>
      </trkpt>
      <trkpt lat="28.7379180" lon="-17.7757730">
        <ele>916.7</ele>
        <time>2020-11-16T09:21:21Z</time>
      </trkpt>
      <trkpt lat="28.7379250" lon="-17.7757970">
        <ele>917.0</ele>
        <time>2020-11-16T09:21:22Z</time>
      </trkpt>
      <trkpt lat="28.7379250" lon="-17.7757970">
        <ele>917.0</ele>
        <time>2020-11-16T09:21:23Z</time>
      </trkpt>
      <trkpt lat="28.7379370" lon="-17.7758230">
        <ele>917.3</ele>
        <time>2020-11-16T09:21:24Z</time>
      </trkpt>
      <trkpt lat="28.7379370" lon="-17.7758230">
        <ele>917.3</ele>
        <time>2020-11-16T09:21:25Z</time>
      </trkpt>
      <trkpt lat="28.7379380" lon="-17.7758470">
        <ele>917.5</ele>
        <time>2020-11-16T09:21:26Z</time>
      </trkpt>
      <trkpt lat="28.7379380" lon="-17.7758470">
        <ele>917.5</ele>
        <time>2020-11-16T09:21:27Z</time>
      </trkpt>
      <trkpt lat="28.7379320" lon="-17.7758600">
        <ele>917.7</ele>
        <time>2020-11-16T09:21:28Z</time>
      </trkpt>
      <trkpt lat="28.7379320" lon="-17.7758600">
        <ele>917.7</ele>
        <time>2020-11-16T09:21:29Z</time>
      </trkpt>
      <trkpt lat="28.7379270" lon="-17.7758770">
        <ele>917.8</ele>
        <time>2020-11-16T09:21:30Z</time>
      </trkpt>
      <trkpt lat="28.7379250" lon="-17.7758870">
        <ele>917.9</ele>
        <time>2020-11-16T09:21:31Z</time>
      </trkpt>
      <trkpt lat="28.7379250" lon="-17.7758870">
        <ele>917.9</ele>
        <time>2020-11-16T09:21:32Z</time>
      </trkpt>
      <trkpt lat="28.7379180" lon="-17.7758950">
        <ele>918.0</ele>
        <time>2020-11-16T09:21:33Z</time>
      </trkpt>
      <trkpt lat="28.7379130" lon="-17.7758950">
        <ele>918.1</ele>
        <time>2020-11-16T09:21:34Z</time>
      </trkpt>
      <trkpt lat="28.7379130" lon="-17.7758950">
        <ele>918.1</ele>
        <time>2020-11-16T09:21:35Z</time>
      </trkpt>
      <trkpt lat="28.7379050" lon="-17.7759000">
        <ele>918.2</ele>
        <time>2020-11-16T09:21:36Z</time>
      </trkpt>
      <trkpt lat="28.7379050" lon="-17.7759000">
        <ele>918.2</ele>
        <time>2020-11-16T09:21:37Z</time>
      </trkpt>
      <trkpt lat="28.7378980" lon="-17.7759080">
        <ele>918.3</ele>
        <time>2020-11-16T09:21:38Z</time>
      </trkpt>
      <trkpt lat="28.7378980" lon="-17.7759080">
        <ele>918.3</ele>
        <time>2020-11-16T09:21:39Z</time>
      </trkpt>
      <trkpt lat="28.7378930" lon="-17.7759200">
        <ele>918.5</ele>
        <time>2020-11-16T09:21:40Z</time>
      </trkpt>
      <trkpt lat="28.7378930" lon="-17.7759200">
        <ele>918.5</ele>
        <time>2020-11-16T09:21:41Z</time>
      </trkpt>
      <trkpt lat="28.7378920" lon="-17.7759320">
        <ele>918.6</ele>
        <time>2020-11-16T09:21:42Z</time>
      </trkpt>
      <trkpt lat="28.7378920" lon="-17.7759320">
        <ele>918.6</ele>
        <time>2020-11-16T09:21:43Z</time>
      </trkpt>
      <trkpt lat="28.7378920" lon="-17.7759570">
        <ele>918.8</ele>
        <time>2020-11-16T09:21:44Z</time>
      </trkpt>
      <trkpt lat="28.7378920" lon="-17.7759570">
        <ele>918.8</ele>
        <time>2020-11-16T09:21:45Z</time>
      </trkpt>
      <trkpt lat="28.7378880" lon="-17.7759730">
        <ele>919.0</ele>
        <time>2020-11-16T09:21:46Z</time>
      </trkpt>
      <trkpt lat="28.7378950" lon="-17.7759830">
        <ele>919.1</ele>
        <time>2020-11-16T09:21:47Z</time>
      </trkpt>
      <trkpt lat="28.7378950" lon="-17.7759830">
        <ele>919.1</ele>
        <time>2020-11-16T09:21:48Z</time>
      </trkpt>
      <trkpt lat="28.7378950" lon="-17.7759830">
        <ele>919.1</ele>
        <time>2020-11-16T09:21:49Z</time>
      </trkpt>
      <trkpt lat="28.7378950" lon="-17.7759830">
        <ele>919.1</ele>
        <time>2020-11-16T09:21:50Z</time>
      </trkpt>
      <trkpt lat="28.7378950" lon="-17.7759830">
        <ele>919.1</ele>
        <time>2020-11-16T09:21:51Z</time>
      </trkpt>
      <trkpt lat="28.7378820" lon="-17.7760420">
        <ele>919.8</ele>
        <time>2020-11-16T09:21:57Z</time>
      </trkpt>
      <trkpt lat="28.7378820" lon="-17.7760420">
        <ele>919.8</ele>
        <time>2020-11-16T09:21:58Z</time>
      </trkpt>
      <trkpt lat="28.7378900" lon="-17.7760630">
        <ele>920.0</ele>
        <time>2020-11-16T09:21:59Z</time>
      </trkpt>
      <trkpt lat="28.7378880" lon="-17.7760750">
        <ele>920.1</ele>
        <time>2020-11-16T09:22:00Z</time>
      </trkpt>
      <trkpt lat="28.7378880" lon="-17.7760750">
        <ele>920.1</ele>
        <time>2020-11-16T09:22:01Z</time>
      </trkpt>
      <trkpt lat="28.7378850" lon="-17.7760880">
        <ele>920.3</ele>
        <time>2020-11-16T09:22:02Z</time>
      </trkpt>
      <trkpt lat="28.7378880" lon="-17.7760980">
        <ele>920.4</ele>
        <time>2020-11-16T09:22:03Z</time>
      </trkpt>
      <trkpt lat="28.7378880" lon="-17.7760980">
        <ele>920.4</ele>
        <time>2020-11-16T09:22:04Z</time>
      </trkpt>
      <trkpt lat="28.7378900" lon="-17.7761230">
        <ele>920.7</ele>
        <time>2020-11-16T09:22:05Z</time>
      </trkpt>
      <trkpt lat="28.7378920" lon="-17.7761300">
        <ele>920.8</ele>
        <time>2020-11-16T09:22:06Z</time>
      </trkpt>
      <trkpt lat="28.7378920" lon="-17.7761300">
        <ele>920.8</ele>
        <time>2020-11-16T09:22:07Z</time>
      </trkpt>
      <trkpt lat="28.7378920" lon="-17.7761520">
        <ele>921.0</ele>
        <time>2020-11-16T09:22:08Z</time>
      </trkpt>
      <trkpt lat="28.7378920" lon="-17.7761520">
        <ele>921.0</ele>
        <time>2020-11-16T09:22:09Z</time>
      </trkpt>
      <trkpt lat="28.7378980" lon="-17.7761700">
        <ele>921.2</ele>
        <time>2020-11-16T09:22:10Z</time>
      </trkpt>
      <trkpt lat="28.7378980" lon="-17.7761700">
        <ele>921.2</ele>
        <time>2020-11-16T09:22:11Z</time>
      </trkpt>
      <trkpt lat="28.7379030" lon="-17.7761880">
        <ele>921.5</ele>
        <time>2020-11-16T09:22:12Z</time>
      </trkpt>
      <trkpt lat="28.7379080" lon="-17.7761950">
        <ele>921.6</ele>
        <time>2020-11-16T09:22:13Z</time>
      </trkpt>
      <trkpt lat="28.7379080" lon="-17.7761950">
        <ele>921.6</ele>
        <time>2020-11-16T09:22:14Z</time>
      </trkpt>
      <trkpt lat="28.7378980" lon="-17.7761970">
        <ele>921.7</ele>
        <time>2020-11-16T09:22:15Z</time>
      </trkpt>
      <trkpt lat="28.7378950" lon="-17.7762000">
        <ele>921.8</ele>
        <time>2020-11-16T09:22:16Z</time>
      </trkpt>
      <trkpt lat="28.7378950" lon="-17.7762000">
        <ele>921.8</ele>
        <time>2020-11-16T09:22:17Z</time>
      </trkpt>
      <trkpt lat="28.7378920" lon="-17.7762020">
        <ele>921.8</ele>
        <time>2020-11-16T09:22:18Z</time>
      </trkpt>
      <trkpt lat="28.7379250" lon="-17.7762100">
        <ele>922.3</ele>
        <time>2020-11-16T09:25:01Z</time>
      </trkpt>
      <trkpt lat="28.7379370" lon="-17.7762130">
        <ele>922.4</ele>
        <time>2020-11-16T09:25:02Z</time>
      </trkpt>
      <trkpt lat="28.7379370" lon="-17.7762130">
        <ele>922.4</ele>
        <time>2020-11-16T09:25:03Z</time>
      </trkpt>
      <trkpt lat="28.7379580" lon="-17.7762200">
        <ele>922.7</ele>
        <time>2020-11-16T09:25:04Z</time>
      </trkpt>
      <trkpt lat="28.7379580" lon="-17.7762200">
        <ele>922.7</ele>
        <time>2020-11-16T09:25:05Z</time>
      </trkpt>
      <trkpt lat="28.7379770" lon="-17.7762200">
        <ele>923.0</ele>
        <time>2020-11-16T09:25:06Z</time>
      </trkpt>
      <trkpt lat="28.7379880" lon="-17.7762220">
        <ele>923.2</ele>
        <time>2020-11-16T09:25:07Z</time>
      </trkpt>
      <trkpt lat="28.7379880" lon="-17.7762220">
        <ele>923.2</ele>
        <time>2020-11-16T09:25:08Z</time>
      </trkpt>
      <trkpt lat="28.7380730" lon="-17.7761830">
        <ele>924.4</ele>
        <time>2020-11-16T09:25:16Z</time>
      </trkpt>
      <trkpt lat="28.7380730" lon="-17.7761830">
        <ele>924.4</ele>
        <time>2020-11-16T09:25:17Z</time>
      </trkpt>
      <trkpt lat="28.7380900" lon="-17.7761780">
        <ele>924.7</ele>
        <time>2020-11-16T09:25:18Z</time>
      </trkpt>
      <trkpt lat="28.7380900" lon="-17.7761780">
        <ele>924.7</ele>
        <time>2020-11-16T09:25:19Z</time>
      </trkpt>
      <trkpt lat="28.7381280" lon="-17.7761830">
        <ele>925.2</ele>
        <time>2020-11-16T09:25:20Z</time>
      </trkpt>
      <trkpt lat="28.7381280" lon="-17.7761830">
        <ele>925.2</ele>
        <time>2020-11-16T09:25:21Z</time>
      </trkpt>
      <trkpt lat="28.7381350" lon="-17.7761830">
        <ele>925.3</ele>
        <time>2020-11-16T09:25:22Z</time>
      </trkpt>
      <trkpt lat="28.7383280" lon="-17.7760820">
        <ele>928.5</ele>
        <time>2020-11-16T09:26:22Z</time>
      </trkpt>
      <trkpt lat="28.7383280" lon="-17.7760820">
        <ele>928.5</ele>
        <time>2020-11-16T09:26:23Z</time>
      </trkpt>
      <trkpt lat="28.7383470" lon="-17.7760800">
        <ele>928.8</ele>
        <time>2020-11-16T09:26:24Z</time>
      </trkpt>
      <trkpt lat="28.7383470" lon="-17.7760800">
        <ele>928.8</ele>
        <time>2020-11-16T09:26:25Z</time>
      </trkpt>
      <trkpt lat="28.7383600" lon="-17.7760770">
        <ele>929.0</ele>
        <time>2020-11-16T09:26:26Z</time>
      </trkpt>
      <trkpt lat="28.7383600" lon="-17.7760770">
        <ele>929.0</ele>
        <time>2020-11-16T09:26:28Z</time>
      </trkpt>
      <trkpt lat="28.7383800" lon="-17.7760650">
        <ele>929.3</ele>
        <time>2020-11-16T09:26:29Z</time>
      </trkpt>
      <trkpt lat="28.7383800" lon="-17.7760650">
        <ele>929.3</ele>
        <time>2020-11-16T09:26:30Z</time>
      </trkpt>
      <trkpt lat="28.7384070" lon="-17.7760500">
        <ele>929.7</ele>
        <time>2020-11-16T09:26:31Z</time>
      </trkpt>
      <trkpt lat="28.7384070" lon="-17.7760500">
        <ele>929.7</ele>
        <time>2020-11-16T09:26:32Z</time>
      </trkpt>
      <trkpt lat="28.7384370" lon="-17.7760380">
        <ele>930.1</ele>
        <time>2020-11-16T09:26:33Z</time>
      </trkpt>
      <trkpt lat="28.7384520" lon="-17.7760350">
        <ele>930.3</ele>
        <time>2020-11-16T09:26:34Z</time>
      </trkpt>
      <trkpt lat="28.7384520" lon="-17.7760350">
        <ele>930.3</ele>
        <time>2020-11-16T09:26:35Z</time>
      </trkpt>
      <trkpt lat="28.7384730" lon="-17.7760180">
        <ele>930.6</ele>
        <time>2020-11-16T09:26:36Z</time>
      </trkpt>
      <trkpt lat="28.7384730" lon="-17.7760180">
        <ele>930.6</ele>
        <time>2020-11-16T09:26:37Z</time>
      </trkpt>
      <trkpt lat="28.7385050" lon="-17.7760000">
        <ele>931.0</ele>
        <time>2020-11-16T09:26:38Z</time>
      </trkpt>
      <trkpt lat="28.7385050" lon="-17.7760000">
        <ele>931.0</ele>
        <time>2020-11-16T09:26:39Z</time>
      </trkpt>
      <trkpt lat="28.7385270" lon="-17.7759770">
        <ele>931.4</ele>
        <time>2020-11-16T09:26:40Z</time>
      </trkpt>
      <trkpt lat="28.7385270" lon="-17.7759770">
        <ele>931.4</ele>
        <time>2020-11-16T09:26:41Z</time>
      </trkpt>
      <trkpt lat="28.7385670" lon="-17.7759620">
        <ele>931.9</ele>
        <time>2020-11-16T09:26:42Z</time>
      </trkpt>
      <trkpt lat="28.7385670" lon="-17.7759620">
        <ele>931.9</ele>
        <time>2020-11-16T09:26:43Z</time>
      </trkpt>
      <trkpt lat="28.7385930" lon="-17.7759450">
        <ele>932.2</ele>
        <time>2020-11-16T09:26:44Z</time>
      </trkpt>
      <trkpt lat="28.7385930" lon="-17.7759450">
        <ele>932.2</ele>
        <time>2020-11-16T09:26:45Z</time>
      </trkpt>
      <trkpt lat="28.7386120" lon="-17.7759350">
        <ele>932.4</ele>
        <time>2020-11-16T09:26:46Z</time>
      </trkpt>
      <trkpt lat="28.7386120" lon="-17.7759350">
        <ele>932.4</ele>
        <time>2020-11-16T09:26:47Z</time>
      </trkpt>
      <trkpt lat="28.7386320" lon="-17.7759170">
        <ele>932.7</ele>
        <time>2020-11-16T09:26:48Z</time>
      </trkpt>
      <trkpt lat="28.7386320" lon="-17.7759170">
        <ele>932.7</ele>
        <time>2020-11-16T09:26:49Z</time>
      </trkpt>
      <trkpt lat="28.7386670" lon="-17.7759000">
        <ele>933.1</ele>
        <time>2020-11-16T09:26:50Z</time>
      </trkpt>
      <trkpt lat="28.7386670" lon="-17.7759000">
        <ele>933.1</ele>
        <time>2020-11-16T09:26:51Z</time>
      </trkpt>
      <trkpt lat="28.7386880" lon="-17.7758750">
        <ele>933.4</ele>
        <time>2020-11-16T09:26:52Z</time>
      </trkpt>
      <trkpt lat="28.7386880" lon="-17.7758750">
        <ele>933.4</ele>
        <time>2020-11-16T09:26:53Z</time>
      </trkpt>
      <trkpt lat="28.7387170" lon="-17.7758680">
        <ele>933.7</ele>
        <time>2020-11-16T09:26:54Z</time>
      </trkpt>
      <trkpt lat="28.7387170" lon="-17.7758680">
        <ele>933.7</ele>
        <time>2020-11-16T09:26:55Z</time>
      </trkpt>
      <trkpt lat="28.7387330" lon="-17.7758450">
        <ele>934.0</ele>
        <time>2020-11-16T09:26:56Z</time>
      </trkpt>
      <trkpt lat="28.7387330" lon="-17.7758450">
        <ele>934.0</ele>
        <time>2020-11-16T09:26:57Z</time>
      </trkpt>
      <trkpt lat="28.7387480" lon="-17.7758220">
        <ele>934.3</ele>
        <time>2020-11-16T09:26:58Z</time>
      </trkpt>
      <trkpt lat="28.7387580" lon="-17.7758150">
        <ele>934.4</ele>
        <time>2020-11-16T09:26:59Z</time>
      </trkpt>
      <trkpt lat="28.7387580" lon="-17.7758150">
        <ele>934.4</ele>
        <time>2020-11-16T09:27:00Z</time>
      </trkpt>
      <trkpt lat="28.7387900" lon="-17.7757680">
        <ele>935.0</ele>
        <time>2020-11-16T09:27:01Z</time>
      </trkpt>
      <trkpt lat="28.7388030" lon="-17.7757700">
        <ele>935.1</ele>
        <time>2020-11-16T09:27:02Z</time>
      </trkpt>
      <trkpt lat="28.7388030" lon="-17.7757700">
        <ele>935.1</ele>
        <time>2020-11-16T09:27:03Z</time>
      </trkpt>
      <trkpt lat="28.7388370" lon="-17.7757670">
        <ele>935.5</ele>
        <time>2020-11-16T09:27:04Z</time>
      </trkpt>
      <trkpt lat="28.7388520" lon="-17.7757720">
        <ele>935.6</ele>
        <time>2020-11-16T09:27:05Z</time>
      </trkpt>
      <trkpt lat="28.7388520" lon="-17.7757720">
        <ele>935.6</ele>
        <time>2020-11-16T09:27:06Z</time>
      </trkpt>
      <trkpt lat="28.7388820" lon="-17.7757880">
        <ele>936.0</ele>
        <time>2020-11-16T09:27:07Z</time>
      </trkpt>
      <trkpt lat="28.7388820" lon="-17.7757880">
        <ele>936.0</ele>
        <time>2020-11-16T09:27:08Z</time>
      </trkpt>
      <trkpt lat="28.7389030" lon="-17.7758020">
        <ele>936.2</ele>
        <time>2020-11-16T09:27:09Z</time>
      </trkpt>
      <trkpt lat="28.7389030" lon="-17.7758020">
        <ele>936.2</ele>
        <time>2020-11-16T09:27:10Z</time>
      </trkpt>
      <trkpt lat="28.7389180" lon="-17.7758170">
        <ele>936.4</ele>
        <time>2020-11-16T09:27:11Z</time>
      </trkpt>
      <trkpt lat="28.7389250" lon="-17.7758280">
        <ele>936.6</ele>
        <time>2020-11-16T09:27:12Z</time>
      </trkpt>
      <trkpt lat="28.7389250" lon="-17.7758280">
        <ele>936.6</ele>
        <time>2020-11-16T09:27:13Z</time>
      </trkpt>
      <trkpt lat="28.7389370" lon="-17.7758430">
        <ele>936.7</ele>
        <time>2020-11-16T09:27:14Z</time>
      </trkpt>
      <trkpt lat="28.7389370" lon="-17.7758430">
        <ele>936.7</ele>
        <time>2020-11-16T09:27:15Z</time>
      </trkpt>
      <trkpt lat="28.7389450" lon="-17.7758630">
        <ele>936.9</ele>
        <time>2020-11-16T09:27:16Z</time>
      </trkpt>
      <trkpt lat="28.7389450" lon="-17.7758630">
        <ele>936.9</ele>
        <time>2020-11-16T09:27:17Z</time>
      </trkpt>
      <trkpt lat="28.7389430" lon="-17.7758780">
        <ele>937.1</ele>
        <time>2020-11-16T09:27:18Z</time>
      </trkpt>
      <trkpt lat="28.7389430" lon="-17.7758780">
        <ele>937.1</ele>
        <time>2020-11-16T09:27:19Z</time>
      </trkpt>
      <trkpt lat="28.7389450" lon="-17.7759000">
        <ele>937.2</ele>
        <time>2020-11-16T09:27:20Z</time>
      </trkpt>
      <trkpt lat="28.7389450" lon="-17.7759000">
        <ele>937.2</ele>
        <time>2020-11-16T09:27:21Z</time>
      </trkpt>
      <trkpt lat="28.7389380" lon="-17.7759250">
        <ele>937.5</ele>
        <time>2020-11-16T09:27:22Z</time>
      </trkpt>
      <trkpt lat="28.7389380" lon="-17.7759250">
        <ele>937.5</ele>
        <time>2020-11-16T09:27:23Z</time>
      </trkpt>
      <trkpt lat="28.7389330" lon="-17.7759530">
        <ele>937.7</ele>
        <time>2020-11-16T09:27:24Z</time>
      </trkpt>
      <trkpt lat="28.7389280" lon="-17.7759680">
        <ele>937.9</ele>
        <time>2020-11-16T09:27:25Z</time>
      </trkpt>
      <trkpt lat="28.7389300" lon="-17.7759850">
        <ele>938.0</ele>
        <time>2020-11-16T09:27:26Z</time>
      </trkpt>
      <trkpt lat="28.7389300" lon="-17.7759850">
        <ele>938.0</ele>
        <time>2020-11-16T09:27:27Z</time>
      </trkpt>
      <trkpt lat="28.7389370" lon="-17.7760220">
        <ele>938.4</ele>
        <time>2020-11-16T09:27:28Z</time>
      </trkpt>
      <trkpt lat="28.7389380" lon="-17.7760350">
        <ele>938.5</ele>
        <time>2020-11-16T09:27:29Z</time>
      </trkpt>
      <trkpt lat="28.7389380" lon="-17.7760350">
        <ele>938.5</ele>
        <time>2020-11-16T09:27:30Z</time>
      </trkpt>
      <trkpt lat="28.7389330" lon="-17.7760600">
        <ele>938.7</ele>
        <time>2020-11-16T09:27:31Z</time>
      </trkpt>
      <trkpt lat="28.7389370" lon="-17.7760880">
        <ele>939.0</ele>
        <time>2020-11-16T09:27:32Z</time>
      </trkpt>
      <trkpt lat="28.7389370" lon="-17.7760880">
        <ele>939.0</ele>
        <time>2020-11-16T09:27:33Z</time>
      </trkpt>
      <trkpt lat="28.7389300" lon="-17.7761450">
        <ele>939.6</ele>
        <time>2020-11-16T09:27:34Z</time>
      </trkpt>
      <trkpt lat="28.7389250" lon="-17.7761480">
        <ele>939.6</ele>
        <time>2020-11-16T09:27:35Z</time>
      </trkpt>
      <trkpt lat="28.7389250" lon="-17.7761480">
        <ele>939.6</ele>
        <time>2020-11-16T09:27:36Z</time>
      </trkpt>
      <trkpt lat="28.7389050" lon="-17.7761970">
        <ele>940.2</ele>
        <time>2020-11-16T09:27:37Z</time>
      </trkpt>
      <trkpt lat="28.7389150" lon="-17.7762180">
        <ele>940.5</ele>
        <time>2020-11-16T09:27:38Z</time>
      </trkpt>
      <trkpt lat="28.7389150" lon="-17.7762180">
        <ele>940.5</ele>
        <time>2020-11-16T09:27:39Z</time>
      </trkpt>
      <trkpt lat="28.7389200" lon="-17.7762520">
        <ele>940.8</ele>
        <time>2020-11-16T09:27:40Z</time>
      </trkpt>
      <trkpt lat="28.7389200" lon="-17.7762520">
        <ele>940.8</ele>
        <time>2020-11-16T09:27:41Z</time>
      </trkpt>
      <trkpt lat="28.7389230" lon="-17.7762700">
        <ele>941.0</ele>
        <time>2020-11-16T09:27:42Z</time>
      </trkpt>
      <trkpt lat="28.7389230" lon="-17.7762700">
        <ele>941.0</ele>
        <time>2020-11-16T09:27:43Z</time>
      </trkpt>
      <trkpt lat="28.7389250" lon="-17.7762970">
        <ele>941.3</ele>
        <time>2020-11-16T09:27:44Z</time>
      </trkpt>
      <trkpt lat="28.7389250" lon="-17.7762970">
        <ele>941.3</ele>
        <time>2020-11-16T09:27:45Z</time>
      </trkpt>
      <trkpt lat="28.7389370" lon="-17.7763200">
        <ele>941.6</ele>
        <time>2020-11-16T09:27:46Z</time>
      </trkpt>
      <trkpt lat="28.7389420" lon="-17.7763320">
        <ele>941.7</ele>
        <time>2020-11-16T09:27:47Z</time>
      </trkpt>
      <trkpt lat="28.7389420" lon="-17.7763320">
        <ele>941.7</ele>
        <time>2020-11-16T09:27:48Z</time>
      </trkpt>
      <trkpt lat="28.7389470" lon="-17.7763520">
        <ele>942.0</ele>
        <time>2020-11-16T09:27:49Z</time>
      </trkpt>
      <trkpt lat="28.7389500" lon="-17.7763600">
        <ele>942.1</ele>
        <time>2020-11-16T09:27:50Z</time>
      </trkpt>
      <trkpt lat="28.7389500" lon="-17.7763600">
        <ele>942.1</ele>
        <time>2020-11-16T09:27:51Z</time>
      </trkpt>
      <trkpt lat="28.7389500" lon="-17.7763850">
        <ele>942.3</ele>
        <time>2020-11-16T09:27:52Z</time>
      </trkpt>
      <trkpt lat="28.7389520" lon="-17.7763970">
        <ele>942.4</ele>
        <time>2020-11-16T09:27:53Z</time>
      </trkpt>
      <trkpt lat="28.7389520" lon="-17.7763970">
        <ele>942.4</ele>
        <time>2020-11-16T09:27:54Z</time>
      </trkpt>
      <trkpt lat="28.7389500" lon="-17.7764270">
        <ele>942.8</ele>
        <time>2020-11-16T09:27:55Z</time>
      </trkpt>
      <trkpt lat="28.7389470" lon="-17.7764380">
        <ele>942.9</ele>
        <time>2020-11-16T09:27:56Z</time>
      </trkpt>
      <trkpt lat="28.7389470" lon="-17.7764380">
        <ele>942.9</ele>
        <time>2020-11-16T09:27:57Z</time>
      </trkpt>
      <trkpt lat="28.7389450" lon="-17.7764600">
        <ele>943.1</ele>
        <time>2020-11-16T09:27:58Z</time>
      </trkpt>
      <trkpt lat="28.7389450" lon="-17.7764600">
        <ele>943.1</ele>
        <time>2020-11-16T09:27:59Z</time>
      </trkpt>
      <trkpt lat="28.7389450" lon="-17.7764820">
        <ele>943.3</ele>
        <time>2020-11-16T09:28:00Z</time>
      </trkpt>
      <trkpt lat="28.7389450" lon="-17.7764820">
        <ele>943.3</ele>
        <time>2020-11-16T09:28:01Z</time>
      </trkpt>
      <trkpt lat="28.7389480" lon="-17.7765050">
        <ele>943.6</ele>
        <time>2020-11-16T09:28:02Z</time>
      </trkpt>
      <trkpt lat="28.7389500" lon="-17.7765170">
        <ele>943.7</ele>
        <time>2020-11-16T09:28:03Z</time>
      </trkpt>
      <trkpt lat="28.7389500" lon="-17.7765170">
        <ele>943.7</ele>
        <time>2020-11-16T09:28:04Z</time>
      </trkpt>
      <trkpt lat="28.7389470" lon="-17.7765420">
        <ele>944.0</ele>
        <time>2020-11-16T09:28:05Z</time>
      </trkpt>
      <trkpt lat="28.7389470" lon="-17.7765420">
        <ele>944.0</ele>
        <time>2020-11-16T09:28:06Z</time>
      </trkpt>
      <trkpt lat="28.7389570" lon="-17.7765780">
        <ele>944.4</ele>
        <time>2020-11-16T09:28:07Z</time>
      </trkpt>
      <trkpt lat="28.7389570" lon="-17.7765780">
        <ele>944.4</ele>
        <time>2020-11-16T09:28:08Z</time>
      </trkpt>
      <trkpt lat="28.7389530" lon="-17.7766100">
        <ele>944.7</ele>
        <time>2020-11-16T09:28:09Z</time>
      </trkpt>
      <trkpt lat="28.7389580" lon="-17.7766230">
        <ele>944.9</ele>
        <time>2020-11-16T09:28:10Z</time>
      </trkpt>
      <trkpt lat="28.7389580" lon="-17.7766230">
        <ele>944.9</ele>
        <time>2020-11-16T09:28:11Z</time>
      </trkpt>
      <trkpt lat="28.7389320" lon="-17.7766720">
        <ele>945.5</ele>
        <time>2020-11-16T09:28:12Z</time>
      </trkpt>
      <trkpt lat="28.7389320" lon="-17.7766720">
        <ele>945.5</ele>
        <time>2020-11-16T09:28:13Z</time>
      </trkpt>
      <trkpt lat="28.7389220" lon="-17.7767180">
        <ele>946.0</ele>
        <time>2020-11-16T09:28:14Z</time>
      </trkpt>
      <trkpt lat="28.7389220" lon="-17.7767180">
        <ele>946.0</ele>
        <time>2020-11-16T09:28:15Z</time>
      </trkpt>
      <trkpt lat="28.7389150" lon="-17.7767470">
        <ele>946.4</ele>
        <time>2020-11-16T09:28:16Z</time>
      </trkpt>
      <trkpt lat="28.7389150" lon="-17.7767470">
        <ele>946.4</ele>
        <time>2020-11-16T09:28:17Z</time>
      </trkpt>
      <trkpt lat="28.7389250" lon="-17.7767780">
        <ele>946.7</ele>
        <time>2020-11-16T09:28:18Z</time>
      </trkpt>
      <trkpt lat="28.7389250" lon="-17.7767780">
        <ele>946.7</ele>
        <time>2020-11-16T09:28:19Z</time>
      </trkpt>
      <trkpt lat="28.7389300" lon="-17.7767980">
        <ele>947.0</ele>
        <time>2020-11-16T09:28:20Z</time>
      </trkpt>
      <trkpt lat="28.7389300" lon="-17.7767980">
        <ele>947.0</ele>
        <time>2020-11-16T09:28:21Z</time>
      </trkpt>
      <trkpt lat="28.7389250" lon="-17.7768230">
        <ele>947.3</ele>
        <time>2020-11-16T09:28:22Z</time>
      </trkpt>
      <trkpt lat="28.7389250" lon="-17.7768230">
        <ele>947.3</ele>
        <time>2020-11-16T09:28:23Z</time>
      </trkpt>
      <trkpt lat="28.7389250" lon="-17.7768620">
        <ele>947.7</ele>
        <time>2020-11-16T09:28:24Z</time>
      </trkpt>
      <trkpt lat="28.7389220" lon="-17.7768780">
        <ele>947.9</ele>
        <time>2020-11-16T09:28:25Z</time>
      </trkpt>
      <trkpt lat="28.7389170" lon="-17.7768920">
        <ele>948.1</ele>
        <time>2020-11-16T09:28:26Z</time>
      </trkpt>
      <trkpt lat="28.7389170" lon="-17.7768920">
        <ele>948.1</ele>
        <time>2020-11-16T09:28:27Z</time>
      </trkpt>
      <trkpt lat="28.7389070" lon="-17.7769080">
        <ele>948.3</ele>
        <time>2020-11-16T09:28:28Z</time>
      </trkpt>
      <trkpt lat="28.7389070" lon="-17.7769080">
        <ele>948.3</ele>
        <time>2020-11-16T09:28:29Z</time>
      </trkpt>
      <trkpt lat="28.7389130" lon="-17.7769330">
        <ele>948.5</ele>
        <time>2020-11-16T09:28:30Z</time>
      </trkpt>
      <trkpt lat="28.7389130" lon="-17.7769330">
        <ele>948.5</ele>
        <time>2020-11-16T09:28:31Z</time>
      </trkpt>
      <trkpt lat="28.7389130" lon="-17.7769330">
        <ele>948.5</ele>
        <time>2020-11-16T09:28:35Z</time>
      </trkpt>
      <trkpt lat="28.7389130" lon="-17.7769330">
        <ele>948.5</ele>
        <time>2020-11-16T09:28:36Z</time>
      </trkpt>
      <trkpt lat="28.7389270" lon="-17.7769920">
        <ele>949.2</ele>
        <time>2020-11-16T09:28:37Z</time>
      </trkpt>
      <trkpt lat="28.7389280" lon="-17.7770070">
        <ele>949.3</ele>
        <time>2020-11-16T09:28:38Z</time>
      </trkpt>
      <trkpt lat="28.7389350" lon="-17.7770180">
        <ele>949.5</ele>
        <time>2020-11-16T09:28:39Z</time>
      </trkpt>
      <trkpt lat="28.7389370" lon="-17.7770320">
        <ele>949.6</ele>
        <time>2020-11-16T09:28:40Z</time>
      </trkpt>
      <trkpt lat="28.7389370" lon="-17.7770320">
        <ele>949.6</ele>
        <time>2020-11-16T09:28:41Z</time>
      </trkpt>
      <trkpt lat="28.7389180" lon="-17.7770500">
        <ele>949.9</ele>
        <time>2020-11-16T09:28:42Z</time>
      </trkpt>
      <trkpt lat="28.7389130" lon="-17.7770630">
        <ele>950.0</ele>
        <time>2020-11-16T09:28:43Z</time>
      </trkpt>
      <trkpt lat="28.7389130" lon="-17.7770630">
        <ele>950.0</ele>
        <time>2020-11-16T09:28:44Z</time>
      </trkpt>
      <trkpt lat="28.7388750" lon="-17.7770820">
        <ele>950.5</ele>
        <time>2020-11-16T09:28:45Z</time>
      </trkpt>
      <trkpt lat="28.7388700" lon="-17.7770970">
        <ele>950.6</ele>
        <time>2020-11-16T09:28:46Z</time>
      </trkpt>
      <trkpt lat="28.7388700" lon="-17.7770970">
        <ele>950.6</ele>
        <time>2020-11-16T09:28:47Z</time>
      </trkpt>
      <trkpt lat="28.7388630" lon="-17.7771230">
        <ele>950.9</ele>
        <time>2020-11-16T09:28:48Z</time>
      </trkpt>
      <trkpt lat="28.7388630" lon="-17.7771230">
        <ele>950.9</ele>
        <time>2020-11-16T09:28:49Z</time>
      </trkpt>
      <trkpt lat="28.7388530" lon="-17.7771580">
        <ele>951.2</ele>
        <time>2020-11-16T09:28:50Z</time>
      </trkpt>
      <trkpt lat="28.7388530" lon="-17.7771580">
        <ele>951.2</ele>
        <time>2020-11-16T09:28:51Z</time>
      </trkpt>
      <trkpt lat="28.7388370" lon="-17.7771870">
        <ele>951.4</ele>
        <time>2020-11-16T09:28:52Z</time>
      </trkpt>
      <trkpt lat="28.7388330" lon="-17.7772080">
        <ele>951.6</ele>
        <time>2020-11-16T09:28:53Z</time>
      </trkpt>
      <trkpt lat="28.7388300" lon="-17.7772220">
        <ele>951.7</ele>
        <time>2020-11-16T09:28:54Z</time>
      </trkpt>
      <trkpt lat="28.7388300" lon="-17.7772220">
        <ele>951.7</ele>
        <time>2020-11-16T09:28:55Z</time>
      </trkpt>
      <trkpt lat="28.7388230" lon="-17.7772570">
        <ele>952.1</ele>
        <time>2020-11-16T09:28:56Z</time>
      </trkpt>
      <trkpt lat="28.7388230" lon="-17.7772570">
        <ele>952.1</ele>
        <time>2020-11-16T09:28:57Z</time>
      </trkpt>
      <trkpt lat="28.7388150" lon="-17.7772830">
        <ele>952.3</ele>
        <time>2020-11-16T09:28:58Z</time>
      </trkpt>
      <trkpt lat="28.7388050" lon="-17.7772880">
        <ele>952.4</ele>
        <time>2020-11-16T09:28:59Z</time>
      </trkpt>
      <trkpt lat="28.7388030" lon="-17.7773000">
        <ele>952.5</ele>
        <time>2020-11-16T09:29:00Z</time>
      </trkpt>
      <trkpt lat="28.7388030" lon="-17.7773000">
        <ele>952.5</ele>
        <time>2020-11-16T09:29:01Z</time>
      </trkpt>
      <trkpt lat="28.7387950" lon="-17.7773300">
        <ele>952.8</ele>
        <time>2020-11-16T09:29:02Z</time>
      </trkpt>
      <trkpt lat="28.7387900" lon="-17.7773450">
        <ele>952.9</ele>
        <time>2020-11-16T09:29:03Z</time>
      </trkpt>
      <trkpt lat="28.7387900" lon="-17.7773450">
        <ele>952.9</ele>
        <time>2020-11-16T09:29:04Z</time>
      </trkpt>
      <trkpt lat="28.7387720" lon="-17.7773630">
        <ele>953.2</ele>
        <time>2020-11-16T09:29:05Z</time>
      </trkpt>
      <trkpt lat="28.7387620" lon="-17.7773720">
        <ele>953.3</ele>
        <time>2020-11-16T09:29:06Z</time>
      </trkpt>
      <trkpt lat="28.7387620" lon="-17.7773720">
        <ele>953.3</ele>
        <time>2020-11-16T09:29:07Z</time>
      </trkpt>
      <trkpt lat="28.7387480" lon="-17.7773930">
        <ele>953.6</ele>
        <time>2020-11-16T09:29:08Z</time>
      </trkpt>
      <trkpt lat="28.7387480" lon="-17.7773930">
        <ele>953.6</ele>
        <time>2020-11-16T09:29:09Z</time>
      </trkpt>
      <trkpt lat="28.7387350" lon="-17.7774150">
        <ele>953.9</ele>
        <time>2020-11-16T09:29:10Z</time>
      </trkpt>
      <trkpt lat="28.7387350" lon="-17.7774150">
        <ele>953.9</ele>
        <time>2020-11-16T09:29:11Z</time>
      </trkpt>
      <trkpt lat="28.7387220" lon="-17.7774350">
        <ele>954.1</ele>
        <time>2020-11-16T09:29:12Z</time>
      </trkpt>
      <trkpt lat="28.7387220" lon="-17.7774350">
        <ele>954.1</ele>
        <time>2020-11-16T09:29:13Z</time>
      </trkpt>
      <trkpt lat="28.7387200" lon="-17.7774450">
        <ele>954.2</ele>
        <time>2020-11-16T09:29:14Z</time>
      </trkpt>
      <trkpt lat="28.7387200" lon="-17.7774450">
        <ele>954.2</ele>
        <time>2020-11-16T09:29:15Z</time>
      </trkpt>
      <trkpt lat="28.7387180" lon="-17.7774470">
        <ele>954.3</ele>
        <time>2020-11-16T09:29:16Z</time>
      </trkpt>
      <trkpt lat="28.7387180" lon="-17.7774470">
        <ele>954.3</ele>
        <time>2020-11-16T09:29:26Z</time>
      </trkpt>
      <trkpt lat="28.7387180" lon="-17.7774470">
        <ele>954.3</ele>
        <time>2020-11-16T09:29:27Z</time>
      </trkpt>
      <trkpt lat="28.7387020" lon="-17.7775430">
        <ele>955.3</ele>
        <time>2020-11-16T09:29:28Z</time>
      </trkpt>
      <trkpt lat="28.7387020" lon="-17.7775430">
        <ele>955.3</ele>
        <time>2020-11-16T09:29:29Z</time>
      </trkpt>
      <trkpt lat="28.7386870" lon="-17.7775580">
        <ele>955.6</ele>
        <time>2020-11-16T09:29:30Z</time>
      </trkpt>
      <trkpt lat="28.7386800" lon="-17.7775670">
        <ele>955.7</ele>
        <time>2020-11-16T09:29:31Z</time>
      </trkpt>
      <trkpt lat="28.7386800" lon="-17.7775670">
        <ele>955.7</ele>
        <time>2020-11-16T09:29:32Z</time>
      </trkpt>
      <trkpt lat="28.7386630" lon="-17.7775670">
        <ele>955.9</ele>
        <time>2020-11-16T09:29:33Z</time>
      </trkpt>
      <trkpt lat="28.7386630" lon="-17.7775730">
        <ele>956.0</ele>
        <time>2020-11-16T09:29:34Z</time>
      </trkpt>
      <trkpt lat="28.7386630" lon="-17.7775730">
        <ele>956.0</ele>
        <time>2020-11-16T09:29:35Z</time>
      </trkpt>
      <trkpt lat="28.7386530" lon="-17.7775880">
        <ele>956.2</ele>
        <time>2020-11-16T09:29:36Z</time>
      </trkpt>
      <trkpt lat="28.7386530" lon="-17.7775880">
        <ele>956.2</ele>
        <time>2020-11-16T09:29:37Z</time>
      </trkpt>
      <trkpt lat="28.7386400" lon="-17.7776020">
        <ele>956.4</ele>
        <time>2020-11-16T09:29:38Z</time>
      </trkpt>
      <trkpt lat="28.7386370" lon="-17.7776100">
        <ele>956.5</ele>
        <time>2020-11-16T09:29:39Z</time>
      </trkpt>
      <trkpt lat="28.7386300" lon="-17.7776180">
        <ele>956.6</ele>
        <time>2020-11-16T09:29:40Z</time>
      </trkpt>
      <trkpt lat="28.7386300" lon="-17.7776180">
        <ele>956.6</ele>
        <time>2020-11-16T09:29:41Z</time>
      </trkpt>
      <trkpt lat="28.7386250" lon="-17.7776430">
        <ele>956.9</ele>
        <time>2020-11-16T09:29:42Z</time>
      </trkpt>
      <trkpt lat="28.7386250" lon="-17.7776430">
        <ele>956.9</ele>
        <time>2020-11-16T09:29:43Z</time>
      </trkpt>
      <trkpt lat="28.7386100" lon="-17.7776600">
        <ele>957.2</ele>
        <time>2020-11-16T09:29:44Z</time>
      </trkpt>
      <trkpt lat="28.7386100" lon="-17.7776600">
        <ele>957.2</ele>
        <time>2020-11-16T09:29:45Z</time>
      </trkpt>
      <trkpt lat="28.7385950" lon="-17.7776770">
        <ele>957.4</ele>
        <time>2020-11-16T09:29:46Z</time>
      </trkpt>
      <trkpt lat="28.7385950" lon="-17.7776770">
        <ele>957.4</ele>
        <time>2020-11-16T09:29:47Z</time>
      </trkpt>
      <trkpt lat="28.7385770" lon="-17.7776880">
        <ele>957.7</ele>
        <time>2020-11-16T09:29:48Z</time>
      </trkpt>
      <trkpt lat="28.7385700" lon="-17.7776880">
        <ele>957.8</ele>
        <time>2020-11-16T09:29:49Z</time>
      </trkpt>
      <trkpt lat="28.7385630" lon="-17.7776820">
        <ele>957.9</ele>
        <time>2020-11-16T09:29:50Z</time>
      </trkpt>
      <trkpt lat="28.7385630" lon="-17.7776820">
        <ele>957.9</ele>
        <time>2020-11-16T09:29:51Z</time>
      </trkpt>
      <trkpt lat="28.7385630" lon="-17.7776850">
        <ele>957.9</ele>
        <time>2020-11-16T09:29:52Z</time>
      </trkpt>
      <trkpt lat="28.7385630" lon="-17.7776850">
        <ele>957.9</ele>
        <time>2020-11-16T09:29:53Z</time>
      </trkpt>
      <trkpt lat="28.7385620" lon="-17.7776870">
        <ele>957.9</ele>
        <time>2020-11-16T09:29:54Z</time>
      </trkpt>
      <trkpt lat="28.7385620" lon="-17.7776870">
        <ele>957.9</ele>
        <time>2020-11-16T09:29:55Z</time>
      </trkpt>
      <trkpt lat="28.7385650" lon="-17.7776900">
        <ele>958.0</ele>
        <time>2020-11-16T09:29:56Z</time>
      </trkpt>
      <trkpt lat="28.7385650" lon="-17.7776900">
        <ele>958.0</ele>
        <time>2020-11-16T09:29:57Z</time>
      </trkpt>
      <trkpt lat="28.7386680" lon="-17.7778000">
        <ele>959.8</ele>
        <time>2020-11-16T09:30:15Z</time>
      </trkpt>
      <trkpt lat="28.7386700" lon="-17.7778020">
        <ele>959.8</ele>
        <time>2020-11-16T09:30:16Z</time>
      </trkpt>
      <trkpt lat="28.7386700" lon="-17.7778020">
        <ele>959.8</ele>
        <time>2020-11-16T09:30:17Z</time>
      </trkpt>
      <trkpt lat="28.7386730" lon="-17.7778070">
        <ele>959.9</ele>
        <time>2020-11-16T09:30:18Z</time>
      </trkpt>
      <trkpt lat="28.7386730" lon="-17.7778070">
        <ele>959.9</ele>
        <time>2020-11-16T09:30:19Z</time>
      </trkpt>
      <trkpt lat="28.7386780" lon="-17.7778070">
        <ele>960.0</ele>
        <time>2020-11-16T09:30:20Z</time>
      </trkpt>
      <trkpt lat="28.7386780" lon="-17.7778070">
        <ele>960.0</ele>
        <time>2020-11-16T09:30:21Z</time>
      </trkpt>
      <trkpt lat="28.7386820" lon="-17.7778080">
        <ele>960.0</ele>
        <time>2020-11-16T09:30:22Z</time>
      </trkpt>
      <trkpt lat="28.7386820" lon="-17.7778080">
        <ele>960.1</ele>
        <time>2020-11-16T09:30:23Z</time>
      </trkpt>
      <trkpt lat="28.7386670" lon="-17.7778320">
        <ele>960.4</ele>
        <time>2020-11-16T09:30:39Z</time>
      </trkpt>
      <trkpt lat="28.7386550" lon="-17.7778330">
        <ele>960.6</ele>
        <time>2020-11-16T09:30:40Z</time>
      </trkpt>
      <trkpt lat="28.7386550" lon="-17.7778330">
        <ele>960.6</ele>
        <time>2020-11-16T09:30:41Z</time>
      </trkpt>
      <trkpt lat="28.7385970" lon="-17.7778170">
        <ele>961.4</ele>
        <time>2020-11-16T09:30:42Z</time>
      </trkpt>
      <trkpt lat="28.7385900" lon="-17.7778170">
        <ele>961.5</ele>
        <time>2020-11-16T09:30:43Z</time>
      </trkpt>
      <trkpt lat="28.7385900" lon="-17.7778170">
        <ele>961.5</ele>
        <time>2020-11-16T09:30:44Z</time>
      </trkpt>
      <trkpt lat="28.7385650" lon="-17.7778320">
        <ele>961.9</ele>
        <time>2020-11-16T09:30:45Z</time>
      </trkpt>
      <trkpt lat="28.7385670" lon="-17.7778380">
        <ele>961.9</ele>
        <time>2020-11-16T09:30:46Z</time>
      </trkpt>
      <trkpt lat="28.7385670" lon="-17.7778380">
        <ele>961.9</ele>
        <time>2020-11-16T09:30:47Z</time>
      </trkpt>
      <trkpt lat="28.7385570" lon="-17.7778580">
        <ele>962.2</ele>
        <time>2020-11-16T09:30:48Z</time>
      </trkpt>
      <trkpt lat="28.7385600" lon="-17.7778670">
        <ele>962.3</ele>
        <time>2020-11-16T09:30:49Z</time>
      </trkpt>
      <trkpt lat="28.7385600" lon="-17.7778770">
        <ele>962.4</ele>
        <time>2020-11-16T09:30:50Z</time>
      </trkpt>
      <trkpt lat="28.7385600" lon="-17.7778770">
        <ele>962.4</ele>
        <time>2020-11-16T09:30:51Z</time>
      </trkpt>
      <trkpt lat="28.7385480" lon="-17.7778850">
        <ele>962.6</ele>
        <time>2020-11-16T09:30:52Z</time>
      </trkpt>
      <trkpt lat="28.7385480" lon="-17.7778900">
        <ele>962.7</ele>
        <time>2020-11-16T09:30:53Z</time>
      </trkpt>
      <trkpt lat="28.7385480" lon="-17.7778900">
        <ele>962.7</ele>
        <time>2020-11-16T09:30:54Z</time>
      </trkpt>
      <trkpt lat="28.7385470" lon="-17.7779080">
        <ele>962.9</ele>
        <time>2020-11-16T09:30:55Z</time>
      </trkpt>
      <trkpt lat="28.7385450" lon="-17.7779150">
        <ele>963.0</ele>
        <time>2020-11-16T09:30:56Z</time>
      </trkpt>
      <trkpt lat="28.7385450" lon="-17.7779150">
        <ele>963.0</ele>
        <time>2020-11-16T09:30:57Z</time>
      </trkpt>
      <trkpt lat="28.7385400" lon="-17.7779370">
        <ele>963.3</ele>
        <time>2020-11-16T09:30:58Z</time>
      </trkpt>
      <trkpt lat="28.7385400" lon="-17.7779370">
        <ele>963.3</ele>
        <time>2020-11-16T09:30:59Z</time>
      </trkpt>
      <trkpt lat="28.7385350" lon="-17.7779580">
        <ele>963.6</ele>
        <time>2020-11-16T09:31:00Z</time>
      </trkpt>
      <trkpt lat="28.7385370" lon="-17.7779700">
        <ele>963.7</ele>
        <time>2020-11-16T09:31:01Z</time>
      </trkpt>
      <trkpt lat="28.7385370" lon="-17.7779820">
        <ele>963.9</ele>
        <time>2020-11-16T09:31:02Z</time>
      </trkpt>
      <trkpt lat="28.7385370" lon="-17.7779820">
        <ele>963.9</ele>
        <time>2020-11-16T09:31:03Z</time>
      </trkpt>
      <trkpt lat="28.7385330" lon="-17.7780050">
        <ele>964.2</ele>
        <time>2020-11-16T09:31:04Z</time>
      </trkpt>
      <trkpt lat="28.7385330" lon="-17.7780050">
        <ele>964.2</ele>
        <time>2020-11-16T09:31:05Z</time>
      </trkpt>
      <trkpt lat="28.7385250" lon="-17.7780230">
        <ele>964.5</ele>
        <time>2020-11-16T09:31:06Z</time>
      </trkpt>
      <trkpt lat="28.7385250" lon="-17.7780230">
        <ele>964.5</ele>
        <time>2020-11-16T09:31:07Z</time>
      </trkpt>
      <trkpt lat="28.7385320" lon="-17.7780380">
        <ele>964.7</ele>
        <time>2020-11-16T09:31:08Z</time>
      </trkpt>
      <trkpt lat="28.7385320" lon="-17.7780380">
        <ele>964.7</ele>
        <time>2020-11-16T09:31:09Z</time>
      </trkpt>
      <trkpt lat="28.7385300" lon="-17.7780530">
        <ele>964.9</ele>
        <time>2020-11-16T09:31:10Z</time>
      </trkpt>
      <trkpt lat="28.7385300" lon="-17.7780530">
        <ele>964.9</ele>
        <time>2020-11-16T09:31:11Z</time>
      </trkpt>
      <trkpt lat="28.7385280" lon="-17.7780670">
        <ele>965.1</ele>
        <time>2020-11-16T09:31:12Z</time>
      </trkpt>
      <trkpt lat="28.7385280" lon="-17.7780670">
        <ele>965.1</ele>
        <time>2020-11-16T09:31:13Z</time>
      </trkpt>
      <trkpt lat="28.7385330" lon="-17.7780730">
        <ele>965.2</ele>
        <time>2020-11-16T09:31:14Z</time>
      </trkpt>
      <trkpt lat="28.7385330" lon="-17.7780730">
        <ele>965.2</ele>
        <time>2020-11-16T09:31:15Z</time>
      </trkpt>
      <trkpt lat="28.7385300" lon="-17.7780750">
        <ele>965.3</ele>
        <time>2020-11-16T09:31:16Z</time>
      </trkpt>
      <trkpt lat="28.7385300" lon="-17.7780750">
        <ele>965.3</ele>
        <time>2020-11-16T09:31:17Z</time>
      </trkpt>
      <trkpt lat="28.7385300" lon="-17.7780750">
        <ele>965.3</ele>
        <time>2020-11-16T09:31:18Z</time>
      </trkpt>
      <trkpt lat="28.7385300" lon="-17.7780750">
        <ele>965.3</ele>
        <time>2020-11-16T09:31:19Z</time>
      </trkpt>
      <trkpt lat="28.7385300" lon="-17.7780750">
        <ele>965.3</ele>
        <time>2020-11-16T09:31:20Z</time>
      </trkpt>
      <trkpt lat="28.7386000" lon="-17.7780700">
        <ele>966.4</ele>
        <time>2020-11-16T09:31:40Z</time>
      </trkpt>
      <trkpt lat="28.7386000" lon="-17.7780700">
        <ele>966.4</ele>
        <time>2020-11-16T09:31:41Z</time>
      </trkpt>
      <trkpt lat="28.7386250" lon="-17.7780700">
        <ele>966.8</ele>
        <time>2020-11-16T09:31:42Z</time>
      </trkpt>
      <trkpt lat="28.7386250" lon="-17.7780700">
        <ele>966.8</ele>
        <time>2020-11-16T09:31:43Z</time>
      </trkpt>
      <trkpt lat="28.7386400" lon="-17.7780680">
        <ele>967.0</ele>
        <time>2020-11-16T09:31:44Z</time>
      </trkpt>
      <trkpt lat="28.7386400" lon="-17.7780680">
        <ele>967.0</ele>
        <time>2020-11-16T09:31:45Z</time>
      </trkpt>
      <trkpt lat="28.7386530" lon="-17.7780650">
        <ele>967.2</ele>
        <time>2020-11-16T09:31:46Z</time>
      </trkpt>
      <trkpt lat="28.7386530" lon="-17.7780650">
        <ele>967.2</ele>
        <time>2020-11-16T09:31:47Z</time>
      </trkpt>
      <trkpt lat="28.7386680" lon="-17.7780620">
        <ele>967.4</ele>
        <time>2020-11-16T09:31:48Z</time>
      </trkpt>
      <trkpt lat="28.7386780" lon="-17.7780630">
        <ele>967.6</ele>
        <time>2020-11-16T09:31:49Z</time>
      </trkpt>
      <trkpt lat="28.7387030" lon="-17.7780620">
        <ele>967.9</ele>
        <time>2020-11-16T09:31:50Z</time>
      </trkpt>
      <trkpt lat="28.7387200" lon="-17.7780570">
        <ele>968.2</ele>
        <time>2020-11-16T09:31:51Z</time>
      </trkpt>
      <trkpt lat="28.7387200" lon="-17.7780570">
        <ele>968.2</ele>
        <time>2020-11-16T09:31:52Z</time>
      </trkpt>
      <trkpt lat="28.7387600" lon="-17.7780500">
        <ele>968.8</ele>
        <time>2020-11-16T09:31:53Z</time>
      </trkpt>
      <trkpt lat="28.7387820" lon="-17.7780450">
        <ele>969.1</ele>
        <time>2020-11-16T09:31:54Z</time>
      </trkpt>
      <trkpt lat="28.7387820" lon="-17.7780450">
        <ele>969.1</ele>
        <time>2020-11-16T09:31:55Z</time>
      </trkpt>
      <trkpt lat="28.7388130" lon="-17.7780330">
        <ele>969.6</ele>
        <time>2020-11-16T09:31:56Z</time>
      </trkpt>
      <trkpt lat="28.7388130" lon="-17.7780330">
        <ele>969.6</ele>
        <time>2020-11-16T09:31:57Z</time>
      </trkpt>
      <trkpt lat="28.7388530" lon="-17.7780350">
        <ele>970.2</ele>
        <time>2020-11-16T09:31:58Z</time>
      </trkpt>
      <trkpt lat="28.7388530" lon="-17.7780350">
        <ele>970.2</ele>
        <time>2020-11-16T09:31:59Z</time>
      </trkpt>
      <trkpt lat="28.7388770" lon="-17.7780130">
        <ele>970.6</ele>
        <time>2020-11-16T09:32:00Z</time>
      </trkpt>
      <trkpt lat="28.7388770" lon="-17.7780130">
        <ele>970.6</ele>
        <time>2020-11-16T09:32:01Z</time>
      </trkpt>
      <trkpt lat="28.7388980" lon="-17.7780050">
        <ele>971.0</ele>
        <time>2020-11-16T09:32:02Z</time>
      </trkpt>
      <trkpt lat="28.7389130" lon="-17.7779970">
        <ele>971.3</ele>
        <time>2020-11-16T09:32:03Z</time>
      </trkpt>
      <trkpt lat="28.7389270" lon="-17.7780070">
        <ele>971.5</ele>
        <time>2020-11-16T09:32:04Z</time>
      </trkpt>
      <trkpt lat="28.7389270" lon="-17.7780070">
        <ele>971.5</ele>
        <time>2020-11-16T09:32:05Z</time>
      </trkpt>
      <trkpt lat="28.7389430" lon="-17.7779980">
        <ele>971.8</ele>
        <time>2020-11-16T09:32:06Z</time>
      </trkpt>
      <trkpt lat="28.7389630" lon="-17.7779930">
        <ele>972.1</ele>
        <time>2020-11-16T09:32:07Z</time>
      </trkpt>
      <trkpt lat="28.7389720" lon="-17.7779920">
        <ele>972.2</ele>
        <time>2020-11-16T09:32:08Z</time>
      </trkpt>
      <trkpt lat="28.7389720" lon="-17.7779920">
        <ele>972.2</ele>
        <time>2020-11-16T09:32:09Z</time>
      </trkpt>
      <trkpt lat="28.7390120" lon="-17.7780030">
        <ele>972.7</ele>
        <time>2020-11-16T09:32:10Z</time>
      </trkpt>
      <trkpt lat="28.7390120" lon="-17.7780030">
        <ele>972.7</ele>
        <time>2020-11-16T09:32:11Z</time>
      </trkpt>
      <trkpt lat="28.7390320" lon="-17.7780020">
        <ele>973.0</ele>
        <time>2020-11-16T09:32:12Z</time>
      </trkpt>
      <trkpt lat="28.7390320" lon="-17.7780020">
        <ele>973.0</ele>
        <time>2020-11-16T09:32:13Z</time>
      </trkpt>
      <trkpt lat="28.7390630" lon="-17.7780080">
        <ele>973.4</ele>
        <time>2020-11-16T09:32:14Z</time>
      </trkpt>
      <trkpt lat="28.7390630" lon="-17.7780080">
        <ele>973.4</ele>
        <time>2020-11-16T09:32:15Z</time>
      </trkpt>
      <trkpt lat="28.7390970" lon="-17.7780200">
        <ele>973.8</ele>
        <time>2020-11-16T09:32:16Z</time>
      </trkpt>
      <trkpt lat="28.7391200" lon="-17.7780220">
        <ele>974.1</ele>
        <time>2020-11-16T09:32:17Z</time>
      </trkpt>
      <trkpt lat="28.7391200" lon="-17.7780220">
        <ele>974.1</ele>
        <time>2020-11-16T09:32:18Z</time>
      </trkpt>
      <trkpt lat="28.7391650" lon="-17.7780050">
        <ele>974.7</ele>
        <time>2020-11-16T09:32:19Z</time>
      </trkpt>
      <trkpt lat="28.7391900" lon="-17.7779980">
        <ele>975.0</ele>
        <time>2020-11-16T09:32:20Z</time>
      </trkpt>
      <trkpt lat="28.7391900" lon="-17.7779980">
        <ele>975.0</ele>
        <time>2020-11-16T09:32:21Z</time>
      </trkpt>
      <trkpt lat="28.7392220" lon="-17.7780050">
        <ele>975.4</ele>
        <time>2020-11-16T09:32:22Z</time>
      </trkpt>
      <trkpt lat="28.7392220" lon="-17.7780050">
        <ele>975.4</ele>
        <time>2020-11-16T09:32:23Z</time>
      </trkpt>
      <trkpt lat="28.7392520" lon="-17.7780100">
        <ele>975.7</ele>
        <time>2020-11-16T09:32:24Z</time>
      </trkpt>
      <trkpt lat="28.7392820" lon="-17.7780270">
        <ele>976.1</ele>
        <time>2020-11-16T09:32:25Z</time>
      </trkpt>
      <trkpt lat="28.7392820" lon="-17.7780270">
        <ele>976.1</ele>
        <time>2020-11-16T09:32:26Z</time>
      </trkpt>
      <trkpt lat="28.7393000" lon="-17.7780230">
        <ele>976.3</ele>
        <time>2020-11-16T09:32:27Z</time>
      </trkpt>
      <trkpt lat="28.7393180" lon="-17.7780120">
        <ele>976.6</ele>
        <time>2020-11-16T09:32:28Z</time>
      </trkpt>
      <trkpt lat="28.7393180" lon="-17.7780120">
        <ele>977.5</ele>
        <time>2020-11-16T09:32:29Z</time>
      </trkpt>
      <trkpt lat="28.7393470" lon="-17.7779880">
        <ele>977.6</ele>
        <time>2020-11-16T09:32:30Z</time>
      </trkpt>
      <trkpt lat="28.7393470" lon="-17.7779880">
        <ele>978.6</ele>
        <time>2020-11-16T09:32:31Z</time>
      </trkpt>
      <trkpt lat="28.7393780" lon="-17.7779880">
        <ele>978.6</ele>
        <time>2020-11-16T09:32:32Z</time>
      </trkpt>
      <trkpt lat="28.7393780" lon="-17.7779880">
        <ele>979.6</ele>
        <time>2020-11-16T09:32:33Z</time>
      </trkpt>
      <trkpt lat="28.7394030" lon="-17.7779750">
        <ele>979.2</ele>
        <time>2020-11-16T09:32:34Z</time>
      </trkpt>
      <trkpt lat="28.7394100" lon="-17.7779680">
        <ele>979.1</ele>
        <time>2020-11-16T09:32:35Z</time>
      </trkpt>
      <trkpt lat="28.7394100" lon="-17.7779680">
        <ele>980.0</ele>
        <time>2020-11-16T09:32:36Z</time>
      </trkpt>
      <trkpt lat="28.7394270" lon="-17.7779550">
        <ele>981.0</ele>
        <time>2020-11-16T09:32:37Z</time>
      </trkpt>
      <trkpt lat="28.7394270" lon="-17.7779550">
        <ele>981.9</ele>
        <time>2020-11-16T09:32:38Z</time>
      </trkpt>
      <trkpt lat="28.7394530" lon="-17.7779420">
        <ele>981.7</ele>
        <time>2020-11-16T09:32:39Z</time>
      </trkpt>
      <trkpt lat="28.7394650" lon="-17.7779350">
        <ele>981.4</ele>
        <time>2020-11-16T09:32:40Z</time>
      </trkpt>
      <trkpt lat="28.7394650" lon="-17.7779350">
        <ele>982.4</ele>
        <time>2020-11-16T09:32:41Z</time>
      </trkpt>
      <trkpt lat="28.7394780" lon="-17.7779220">
        <ele>983.3</ele>
        <time>2020-11-16T09:32:42Z</time>
      </trkpt>
      <trkpt lat="28.7394780" lon="-17.7779220">
        <ele>984.2</ele>
        <time>2020-11-16T09:32:43Z</time>
      </trkpt>
      <trkpt lat="28.7395130" lon="-17.7779020">
        <ele>983.9</ele>
        <time>2020-11-16T09:32:44Z</time>
      </trkpt>
      <trkpt lat="28.7395130" lon="-17.7779020">
        <ele>984.9</ele>
        <time>2020-11-16T09:32:45Z</time>
      </trkpt>
      <trkpt lat="28.7395430" lon="-17.7778900">
        <ele>983.2</ele>
        <time>2020-11-16T09:32:46Z</time>
      </trkpt>
      <trkpt lat="28.7395430" lon="-17.7778900">
        <ele>984.1</ele>
        <time>2020-11-16T09:32:47Z</time>
      </trkpt>
      <trkpt lat="28.7395700" lon="-17.7778770">
        <ele>983.5</ele>
        <time>2020-11-16T09:32:48Z</time>
      </trkpt>
      <trkpt lat="28.7395870" lon="-17.7778700">
        <ele>984.5</ele>
        <time>2020-11-16T09:32:49Z</time>
      </trkpt>
      <trkpt lat="28.7396000" lon="-17.7778700">
        <ele>983.7</ele>
        <time>2020-11-16T09:32:50Z</time>
      </trkpt>
      <trkpt lat="28.7396000" lon="-17.7778700">
        <ele>984.6</ele>
        <time>2020-11-16T09:32:51Z</time>
      </trkpt>
      <trkpt lat="28.7396350" lon="-17.7778650">
        <ele>983.7</ele>
        <time>2020-11-16T09:32:52Z</time>
      </trkpt>
      <trkpt lat="28.7396350" lon="-17.7778650">
        <ele>984.7</ele>
        <time>2020-11-16T09:32:53Z</time>
      </trkpt>
      <trkpt lat="28.7396770" lon="-17.7778580">
        <ele>983.7</ele>
        <time>2020-11-16T09:32:54Z</time>
      </trkpt>
      <trkpt lat="28.7396930" lon="-17.7778430">
        <ele>983.5</ele>
        <time>2020-11-16T09:32:55Z</time>
      </trkpt>
      <trkpt lat="28.7396930" lon="-17.7778430">
        <ele>984.4</ele>
        <time>2020-11-16T09:32:56Z</time>
      </trkpt>
      <trkpt lat="28.7397180" lon="-17.7778230">
        <ele>983.4</ele>
        <time>2020-11-16T09:32:57Z</time>
      </trkpt>
      <trkpt lat="28.7397470" lon="-17.7778120">
        <ele>982.3</ele>
        <time>2020-11-16T09:32:58Z</time>
      </trkpt>
      <trkpt lat="28.7397470" lon="-17.7778120">
        <ele>983.2</ele>
        <time>2020-11-16T09:32:59Z</time>
      </trkpt>
      <trkpt lat="28.7397730" lon="-17.7777980">
        <ele>983.0</ele>
        <time>2020-11-16T09:33:00Z</time>
      </trkpt>
      <trkpt lat="28.7397820" lon="-17.7777930">
        <ele>981.9</ele>
        <time>2020-11-16T09:33:01Z</time>
      </trkpt>
      <trkpt lat="28.7398020" lon="-17.7777850">
        <ele>982.9</ele>
        <time>2020-11-16T09:33:02Z</time>
      </trkpt>
      <trkpt lat="28.7398020" lon="-17.7777850">
        <ele>983.8</ele>
        <time>2020-11-16T09:33:03Z</time>
      </trkpt>
      <trkpt lat="28.7398100" lon="-17.7777670">
        <ele>983.6</ele>
        <time>2020-11-16T09:33:04Z</time>
      </trkpt>
      <trkpt lat="28.7398100" lon="-17.7777670">
        <ele>984.6</ele>
        <time>2020-11-16T09:33:05Z</time>
      </trkpt>
      <trkpt lat="28.7398380" lon="-17.7777520">
        <ele>983.5</ele>
        <time>2020-11-16T09:33:06Z</time>
      </trkpt>
      <trkpt lat="28.7398380" lon="-17.7777520">
        <ele>984.4</ele>
        <time>2020-11-16T09:33:07Z</time>
      </trkpt>
      <trkpt lat="28.7398670" lon="-17.7777470">
        <ele>983.2</ele>
        <time>2020-11-16T09:33:08Z</time>
      </trkpt>
      <trkpt lat="28.7398670" lon="-17.7777470">
        <ele>984.1</ele>
        <time>2020-11-16T09:33:09Z</time>
      </trkpt>
      <trkpt lat="28.7398930" lon="-17.7777420">
        <ele>982.8</ele>
        <time>2020-11-16T09:33:10Z</time>
      </trkpt>
      <trkpt lat="28.7398930" lon="-17.7777420">
        <ele>983.7</ele>
        <time>2020-11-16T09:33:11Z</time>
      </trkpt>
      <trkpt lat="28.7399250" lon="-17.7777480">
        <ele>984.6</ele>
        <time>2020-11-16T09:33:12Z</time>
      </trkpt>
      <trkpt lat="28.7399370" lon="-17.7777570">
        <ele>983.2</ele>
        <time>2020-11-16T09:33:13Z</time>
      </trkpt>
      <trkpt lat="28.7399530" lon="-17.7777700">
        <ele>985.1</ele>
        <time>2020-11-16T09:33:14Z</time>
      </trkpt>
      <trkpt lat="28.7399530" lon="-17.7777700">
        <ele>986.0</ele>
        <time>2020-11-16T09:33:15Z</time>
      </trkpt>
      <trkpt lat="28.7399650" lon="-17.7777870">
        <ele>986.9</ele>
        <time>2020-11-16T09:33:16Z</time>
      </trkpt>
      <trkpt lat="28.7399650" lon="-17.7777870">
        <ele>987.9</ele>
        <time>2020-11-16T09:33:17Z</time>
      </trkpt>
      <trkpt lat="28.7399770" lon="-17.7778070">
        <ele>986.4</ele>
        <time>2020-11-16T09:33:18Z</time>
      </trkpt>
      <trkpt lat="28.7399770" lon="-17.7778070">
        <ele>987.3</ele>
        <time>2020-11-16T09:33:19Z</time>
      </trkpt>
      <trkpt lat="28.7399800" lon="-17.7778300">
        <ele>989.2</ele>
        <time>2020-11-16T09:33:20Z</time>
      </trkpt>
      <trkpt lat="28.7399800" lon="-17.7778300">
        <ele>990.1</ele>
        <time>2020-11-16T09:33:21Z</time>
      </trkpt>
      <trkpt lat="28.7399950" lon="-17.7778680">
        <ele>991.9</ele>
        <time>2020-11-16T09:33:22Z</time>
      </trkpt>
      <trkpt lat="28.7400000" lon="-17.7778830">
        <ele>992.8</ele>
        <time>2020-11-16T09:33:23Z</time>
      </trkpt>
      <trkpt lat="28.7400000" lon="-17.7778830">
        <ele>992.8</ele>
        <time>2020-11-16T09:33:24Z</time>
      </trkpt>
      <trkpt lat="28.7399880" lon="-17.7778920">
        <ele>993.1</ele>
        <time>2020-11-16T09:33:25Z</time>
      </trkpt>
      <trkpt lat="28.7399880" lon="-17.7778920">
        <ele>993.1</ele>
        <time>2020-11-16T09:33:26Z</time>
      </trkpt>
      <trkpt lat="28.7399800" lon="-17.7779020">
        <ele>993.4</ele>
        <time>2020-11-16T09:33:27Z</time>
      </trkpt>
      <trkpt lat="28.7399650" lon="-17.7779030">
        <ele>993.7</ele>
        <time>2020-11-16T09:33:28Z</time>
      </trkpt>
      <trkpt lat="28.7399650" lon="-17.7779030">
        <ele>993.7</ele>
        <time>2020-11-16T09:33:29Z</time>
      </trkpt>
      <trkpt lat="28.7399450" lon="-17.7779130">
        <ele>994.1</ele>
        <time>2020-11-16T09:33:30Z</time>
      </trkpt>
      <trkpt lat="28.7399450" lon="-17.7779130">
        <ele>994.1</ele>
        <time>2020-11-16T09:33:31Z</time>
      </trkpt>
      <trkpt lat="28.7399280" lon="-17.7779230">
        <ele>994.5</ele>
        <time>2020-11-16T09:33:32Z</time>
      </trkpt>
      <trkpt lat="28.7399280" lon="-17.7779230">
        <ele>994.5</ele>
        <time>2020-11-16T09:33:33Z</time>
      </trkpt>
      <trkpt lat="28.7399170" lon="-17.7779300">
        <ele>994.8</ele>
        <time>2020-11-16T09:33:34Z</time>
      </trkpt>
      <trkpt lat="28.7399170" lon="-17.7779300">
        <ele>994.8</ele>
        <time>2020-11-16T09:33:35Z</time>
      </trkpt>
      <trkpt lat="28.7398970" lon="-17.7779320">
        <ele>995.1</ele>
        <time>2020-11-16T09:33:36Z</time>
      </trkpt>
      <trkpt lat="28.7398970" lon="-17.7779320">
        <ele>995.1</ele>
        <time>2020-11-16T09:33:37Z</time>
      </trkpt>
      <trkpt lat="28.7398820" lon="-17.7779400">
        <ele>995.4</ele>
        <time>2020-11-16T09:33:38Z</time>
      </trkpt>
      <trkpt lat="28.7398820" lon="-17.7779400">
        <ele>995.4</ele>
        <time>2020-11-16T09:33:39Z</time>
      </trkpt>
      <trkpt lat="28.7398650" lon="-17.7779470">
        <ele>995.8</ele>
        <time>2020-11-16T09:33:40Z</time>
      </trkpt>
      <trkpt lat="28.7398650" lon="-17.7779470">
        <ele>995.8</ele>
        <time>2020-11-16T09:33:41Z</time>
      </trkpt>
      <trkpt lat="28.7398470" lon="-17.7779580">
        <ele>996.1</ele>
        <time>2020-11-16T09:33:42Z</time>
      </trkpt>
      <trkpt lat="28.7398330" lon="-17.7779630">
        <ele>996.4</ele>
        <time>2020-11-16T09:33:43Z</time>
      </trkpt>
      <trkpt lat="28.7398200" lon="-17.7779670">
        <ele>996.6</ele>
        <time>2020-11-16T09:33:44Z</time>
      </trkpt>
      <trkpt lat="28.7398200" lon="-17.7779670">
        <ele>996.6</ele>
        <time>2020-11-16T09:33:45Z</time>
      </trkpt>
      <trkpt lat="28.7397830" lon="-17.7779680">
        <ele>997.3</ele>
        <time>2020-11-16T09:33:46Z</time>
      </trkpt>
      <trkpt lat="28.7397830" lon="-17.7779680">
        <ele>997.3</ele>
        <time>2020-11-16T09:33:47Z</time>
      </trkpt>
      <trkpt lat="28.7397580" lon="-17.7779830">
        <ele>997.8</ele>
        <time>2020-11-16T09:33:48Z</time>
      </trkpt>
      <trkpt lat="28.7397580" lon="-17.7779830">
        <ele>997.8</ele>
        <time>2020-11-16T09:33:49Z</time>
      </trkpt>
      <trkpt lat="28.7397420" lon="-17.7780030">
        <ele>998.2</ele>
        <time>2020-11-16T09:33:50Z</time>
      </trkpt>
      <trkpt lat="28.7397420" lon="-17.7780030">
        <ele>998.2</ele>
        <time>2020-11-16T09:33:51Z</time>
      </trkpt>
      <trkpt lat="28.7397220" lon="-17.7780420">
        <ele>998.9</ele>
        <time>2020-11-16T09:33:52Z</time>
      </trkpt>
      <trkpt lat="28.7397220" lon="-17.7780420">
        <ele>998.9</ele>
        <time>2020-11-16T09:33:53Z</time>
      </trkpt>
      <trkpt lat="28.7396970" lon="-17.7780650">
        <ele>999.4</ele>
        <time>2020-11-16T09:33:54Z</time>
      </trkpt>
      <trkpt lat="28.7396900" lon="-17.7780770">
        <ele>999.7</ele>
        <time>2020-11-16T09:33:55Z</time>
      </trkpt>
      <trkpt lat="28.7396900" lon="-17.7780770">
        <ele>999.7</ele>
        <time>2020-11-16T09:33:56Z</time>
      </trkpt>
      <trkpt lat="28.7396730" lon="-17.7781250">
        <ele>1000.4</ele>
        <time>2020-11-16T09:33:57Z</time>
      </trkpt>
      <trkpt lat="28.7396730" lon="-17.7781250">
        <ele>1000.4</ele>
        <time>2020-11-16T09:33:58Z</time>
      </trkpt>
      <trkpt lat="28.7396700" lon="-17.7781570">
        <ele>1000.9</ele>
        <time>2020-11-16T09:33:59Z</time>
      </trkpt>
      <trkpt lat="28.7396700" lon="-17.7781570">
        <ele>1000.9</ele>
        <time>2020-11-16T09:34:00Z</time>
      </trkpt>
      <trkpt lat="28.7396720" lon="-17.7781870">
        <ele>1001.3</ele>
        <time>2020-11-16T09:34:01Z</time>
      </trkpt>
      <trkpt lat="28.7396600" lon="-17.7781950">
        <ele>1001.5</ele>
        <time>2020-11-16T09:34:02Z</time>
      </trkpt>
      <trkpt lat="28.7396600" lon="-17.7781950">
        <ele>1001.5</ele>
        <time>2020-11-16T09:34:03Z</time>
      </trkpt>
      <trkpt lat="28.7396470" lon="-17.7782200">
        <ele>1002.0</ele>
        <time>2020-11-16T09:34:04Z</time>
      </trkpt>
      <trkpt lat="28.7396470" lon="-17.7782200">
        <ele>1002.0</ele>
        <time>2020-11-16T09:34:05Z</time>
      </trkpt>
      <trkpt lat="28.7396300" lon="-17.7782450">
        <ele>1002.4</ele>
        <time>2020-11-16T09:34:06Z</time>
      </trkpt>
      <trkpt lat="28.7396300" lon="-17.7782450">
        <ele>1002.4</ele>
        <time>2020-11-16T09:34:07Z</time>
      </trkpt>
      <trkpt lat="28.7396070" lon="-17.7782550">
        <ele>1002.9</ele>
        <time>2020-11-16T09:34:08Z</time>
      </trkpt>
      <trkpt lat="28.7396070" lon="-17.7782550">
        <ele>1002.9</ele>
        <time>2020-11-16T09:34:09Z</time>
      </trkpt>
      <trkpt lat="28.7395950" lon="-17.7782670">
        <ele>1003.1</ele>
        <time>2020-11-16T09:34:10Z</time>
      </trkpt>
      <trkpt lat="28.7396020" lon="-17.7782780">
        <ele>1003.4</ele>
        <time>2020-11-16T09:34:11Z</time>
      </trkpt>
      <trkpt lat="28.7396020" lon="-17.7782780">
        <ele>1003.4</ele>
        <time>2020-11-16T09:34:12Z</time>
      </trkpt>
      <trkpt lat="28.7396120" lon="-17.7782950">
        <ele>1003.7</ele>
        <time>2020-11-16T09:34:13Z</time>
      </trkpt>
      <trkpt lat="28.7396180" lon="-17.7783030">
        <ele>1003.8</ele>
        <time>2020-11-16T09:34:14Z</time>
      </trkpt>
      <trkpt lat="28.7396180" lon="-17.7783030">
        <ele>1003.8</ele>
        <time>2020-11-16T09:34:15Z</time>
      </trkpt>
      <trkpt lat="28.7396350" lon="-17.7783200">
        <ele>1004.2</ele>
        <time>2020-11-16T09:34:16Z</time>
      </trkpt>
      <trkpt lat="28.7396350" lon="-17.7783200">
        <ele>1004.2</ele>
        <time>2020-11-16T09:34:17Z</time>
      </trkpt>
      <trkpt lat="28.7396430" lon="-17.7783400">
        <ele>1004.6</ele>
        <time>2020-11-16T09:34:18Z</time>
      </trkpt>
      <trkpt lat="28.7396430" lon="-17.7783400">
        <ele>1004.6</ele>
        <time>2020-11-16T09:34:19Z</time>
      </trkpt>
      <trkpt lat="28.7396420" lon="-17.7783780">
        <ele>1005.1</ele>
        <time>2020-11-16T09:34:20Z</time>
      </trkpt>
      <trkpt lat="28.7396420" lon="-17.7783780">
        <ele>1005.1</ele>
        <time>2020-11-16T09:34:21Z</time>
      </trkpt>
      <trkpt lat="28.7396480" lon="-17.7784200">
        <ele>1005.8</ele>
        <time>2020-11-16T09:34:22Z</time>
      </trkpt>
      <trkpt lat="28.7396520" lon="-17.7784400">
        <ele>1006.1</ele>
        <time>2020-11-16T09:34:23Z</time>
      </trkpt>
      <trkpt lat="28.7396520" lon="-17.7784400">
        <ele>1006.1</ele>
        <time>2020-11-16T09:34:24Z</time>
      </trkpt>
      <trkpt lat="28.7396370" lon="-17.7784700">
        <ele>1006.6</ele>
        <time>2020-11-16T09:34:25Z</time>
      </trkpt>
      <trkpt lat="28.7396330" lon="-17.7784830">
        <ele>1006.9</ele>
        <time>2020-11-16T09:34:26Z</time>
      </trkpt>
      <trkpt lat="28.7396330" lon="-17.7784830">
        <ele>1006.9</ele>
        <time>2020-11-16T09:34:27Z</time>
      </trkpt>
      <trkpt lat="28.7396080" lon="-17.7784970">
        <ele>1007.4</ele>
        <time>2020-11-16T09:34:28Z</time>
      </trkpt>
      <trkpt lat="28.7395900" lon="-17.7785030">
        <ele>1007.7</ele>
        <time>2020-11-16T09:34:29Z</time>
      </trkpt>
      <trkpt lat="28.7395900" lon="-17.7785030">
        <ele>1007.7</ele>
        <time>2020-11-16T09:34:30Z</time>
      </trkpt>
      <trkpt lat="28.7395700" lon="-17.7785280">
        <ele>1008.3</ele>
        <time>2020-11-16T09:34:31Z</time>
      </trkpt>
      <trkpt lat="28.7395700" lon="-17.7785280">
        <ele>1008.3</ele>
        <time>2020-11-16T09:34:32Z</time>
      </trkpt>
      <trkpt lat="28.7395530" lon="-17.7785450">
        <ele>1008.7</ele>
        <time>2020-11-16T09:34:33Z</time>
      </trkpt>
      <trkpt lat="28.7395480" lon="-17.7785470">
        <ele>1008.8</ele>
        <time>2020-11-16T09:34:34Z</time>
      </trkpt>
      <trkpt lat="28.7395480" lon="-17.7785470">
        <ele>1008.8</ele>
        <time>2020-11-16T09:34:35Z</time>
      </trkpt>
      <trkpt lat="28.7395330" lon="-17.7785670">
        <ele>1009.2</ele>
        <time>2020-11-16T09:34:36Z</time>
      </trkpt>
      <trkpt lat="28.7395330" lon="-17.7785670">
        <ele>1009.2</ele>
        <time>2020-11-16T09:34:37Z</time>
      </trkpt>
      <trkpt lat="28.7395270" lon="-17.7785870">
        <ele>1009.6</ele>
        <time>2020-11-16T09:34:38Z</time>
      </trkpt>
      <trkpt lat="28.7395270" lon="-17.7785870">
        <ele>1009.6</ele>
        <time>2020-11-16T09:34:39Z</time>
      </trkpt>
      <trkpt lat="28.7394980" lon="-17.7785980">
        <ele>1010.0</ele>
        <time>2020-11-16T09:34:40Z</time>
      </trkpt>
      <trkpt lat="28.7394980" lon="-17.7785980">
        <ele>1010.0</ele>
        <time>2020-11-16T09:34:41Z</time>
      </trkpt>
      <trkpt lat="28.7394780" lon="-17.7786070">
        <ele>1010.3</ele>
        <time>2020-11-16T09:34:42Z</time>
      </trkpt>
      <trkpt lat="28.7394730" lon="-17.7786150">
        <ele>1010.4</ele>
        <time>2020-11-16T09:34:43Z</time>
      </trkpt>
      <trkpt lat="28.7394730" lon="-17.7786150">
        <ele>1010.4</ele>
        <time>2020-11-16T09:34:44Z</time>
      </trkpt>
      <trkpt lat="28.7394580" lon="-17.7786320">
        <ele>1010.6</ele>
        <time>2020-11-16T09:34:45Z</time>
      </trkpt>
      <trkpt lat="28.7394580" lon="-17.7786320">
        <ele>1010.6</ele>
        <time>2020-11-16T09:34:46Z</time>
      </trkpt>
      <trkpt lat="28.7394520" lon="-17.7786480">
        <ele>1010.8</ele>
        <time>2020-11-16T09:34:47Z</time>
      </trkpt>
      <trkpt lat="28.7394520" lon="-17.7786480">
        <ele>1010.8</ele>
        <time>2020-11-16T09:34:48Z</time>
      </trkpt>
      <trkpt lat="28.7394370" lon="-17.7786600">
        <ele>1011.0</ele>
        <time>2020-11-16T09:34:49Z</time>
      </trkpt>
      <trkpt lat="28.7394320" lon="-17.7786700">
        <ele>1011.1</ele>
        <time>2020-11-16T09:34:50Z</time>
      </trkpt>
      <trkpt lat="28.7394320" lon="-17.7786700">
        <ele>1011.1</ele>
        <time>2020-11-16T09:34:51Z</time>
      </trkpt>
      <trkpt lat="28.7394220" lon="-17.7786900">
        <ele>1011.3</ele>
        <time>2020-11-16T09:34:52Z</time>
      </trkpt>
      <trkpt lat="28.7394220" lon="-17.7786900">
        <ele>1011.3</ele>
        <time>2020-11-16T09:34:53Z</time>
      </trkpt>
      <trkpt lat="28.7394070" lon="-17.7787070">
        <ele>1011.5</ele>
        <time>2020-11-16T09:34:54Z</time>
      </trkpt>
      <trkpt lat="28.7394070" lon="-17.7787070">
        <ele>1011.5</ele>
        <time>2020-11-16T09:34:55Z</time>
      </trkpt>
      <trkpt lat="28.7393900" lon="-17.7787170">
        <ele>1011.7</ele>
        <time>2020-11-16T09:34:56Z</time>
      </trkpt>
      <trkpt lat="28.7393900" lon="-17.7787170">
        <ele>1011.7</ele>
        <time>2020-11-16T09:34:57Z</time>
      </trkpt>
      <trkpt lat="28.7393800" lon="-17.7787420">
        <ele>1011.9</ele>
        <time>2020-11-16T09:34:58Z</time>
      </trkpt>
      <trkpt lat="28.7393830" lon="-17.7787620">
        <ele>1012.1</ele>
        <time>2020-11-16T09:34:59Z</time>
      </trkpt>
      <trkpt lat="28.7393830" lon="-17.7787620">
        <ele>1012.1</ele>
        <time>2020-11-16T09:35:00Z</time>
      </trkpt>
      <trkpt lat="28.7393450" lon="-17.7787850">
        <ele>1012.5</ele>
        <time>2020-11-16T09:35:01Z</time>
      </trkpt>
      <trkpt lat="28.7393450" lon="-17.7787850">
        <ele>1012.5</ele>
        <time>2020-11-16T09:35:02Z</time>
      </trkpt>
      <trkpt lat="28.7393330" lon="-17.7788080">
        <ele>1012.7</ele>
        <time>2020-11-16T09:35:03Z</time>
      </trkpt>
      <trkpt lat="28.7393330" lon="-17.7788080">
        <ele>1012.7</ele>
        <time>2020-11-16T09:35:04Z</time>
      </trkpt>
      <trkpt lat="28.7393250" lon="-17.7788180">
        <ele>1012.8</ele>
        <time>2020-11-16T09:35:05Z</time>
      </trkpt>
      <trkpt lat="28.7393250" lon="-17.7788180">
        <ele>1012.8</ele>
        <time>2020-11-16T09:35:06Z</time>
      </trkpt>
      <trkpt lat="28.7393250" lon="-17.7788180">
        <ele>1012.8</ele>
        <time>2020-11-16T09:35:07Z</time>
      </trkpt>
      <trkpt lat="28.7393230" lon="-17.7788400">
        <ele>1013.1</ele>
        <time>2020-11-16T09:35:08Z</time>
      </trkpt>
      <trkpt lat="28.7393230" lon="-17.7788400">
        <ele>1013.1</ele>
        <time>2020-11-16T09:35:09Z</time>
      </trkpt>
      <trkpt lat="28.7393170" lon="-17.7788550">
        <ele>1013.2</ele>
        <time>2020-11-16T09:35:10Z</time>
      </trkpt>
      <trkpt lat="28.7393170" lon="-17.7788550">
        <ele>1013.2</ele>
        <time>2020-11-16T09:35:11Z</time>
      </trkpt>
      <trkpt lat="28.7393150" lon="-17.7788720">
        <ele>1013.4</ele>
        <time>2020-11-16T09:35:12Z</time>
      </trkpt>
      <trkpt lat="28.7393150" lon="-17.7788720">
        <ele>1013.4</ele>
        <time>2020-11-16T09:35:13Z</time>
      </trkpt>
      <trkpt lat="28.7393220" lon="-17.7788870">
        <ele>1013.6</ele>
        <time>2020-11-16T09:35:14Z</time>
      </trkpt>
      <trkpt lat="28.7393220" lon="-17.7788870">
        <ele>1013.6</ele>
        <time>2020-11-16T09:35:15Z</time>
      </trkpt>
      <trkpt lat="28.7393230" lon="-17.7789100">
        <ele>1013.8</ele>
        <time>2020-11-16T09:35:16Z</time>
      </trkpt>
      <trkpt lat="28.7393230" lon="-17.7789100">
        <ele>1013.8</ele>
        <time>2020-11-16T09:35:17Z</time>
      </trkpt>
      <trkpt lat="28.7393080" lon="-17.7789280">
        <ele>1014.1</ele>
        <time>2020-11-16T09:35:18Z</time>
      </trkpt>
      <trkpt lat="28.7393080" lon="-17.7789280">
        <ele>1014.1</ele>
        <time>2020-11-16T09:35:19Z</time>
      </trkpt>
      <trkpt lat="28.7392980" lon="-17.7789470">
        <ele>1014.3</ele>
        <time>2020-11-16T09:35:20Z</time>
      </trkpt>
      <trkpt lat="28.7392980" lon="-17.7789470">
        <ele>1014.3</ele>
        <time>2020-11-16T09:35:21Z</time>
      </trkpt>
      <trkpt lat="28.7392800" lon="-17.7789630">
        <ele>1014.5</ele>
        <time>2020-11-16T09:35:22Z</time>
      </trkpt>
      <trkpt lat="28.7392800" lon="-17.7789630">
        <ele>1014.5</ele>
        <time>2020-11-16T09:35:23Z</time>
      </trkpt>
      <trkpt lat="28.7392680" lon="-17.7789820">
        <ele>1014.8</ele>
        <time>2020-11-16T09:35:24Z</time>
      </trkpt>
      <trkpt lat="28.7392680" lon="-17.7789820">
        <ele>1014.8</ele>
        <time>2020-11-16T09:35:25Z</time>
      </trkpt>
      <trkpt lat="28.7392550" lon="-17.7790000">
        <ele>1015.0</ele>
        <time>2020-11-16T09:35:26Z</time>
      </trkpt>
      <trkpt lat="28.7392550" lon="-17.7790000">
        <ele>1015.0</ele>
        <time>2020-11-16T09:35:27Z</time>
      </trkpt>
      <trkpt lat="28.7392450" lon="-17.7790200">
        <ele>1015.2</ele>
        <time>2020-11-16T09:35:28Z</time>
      </trkpt>
      <trkpt lat="28.7392450" lon="-17.7790200">
        <ele>1015.2</ele>
        <time>2020-11-16T09:35:29Z</time>
      </trkpt>
      <trkpt lat="28.7392350" lon="-17.7790280">
        <ele>1015.4</ele>
        <time>2020-11-16T09:35:30Z</time>
      </trkpt>
      <trkpt lat="28.7392280" lon="-17.7790320">
        <ele>1015.5</ele>
        <time>2020-11-16T09:35:31Z</time>
      </trkpt>
      <trkpt lat="28.7392280" lon="-17.7790320">
        <ele>1015.5</ele>
        <time>2020-11-16T09:35:32Z</time>
      </trkpt>
      <trkpt lat="28.7392280" lon="-17.7790470">
        <ele>1015.6</ele>
        <time>2020-11-16T09:35:33Z</time>
      </trkpt>
      <trkpt lat="28.7392250" lon="-17.7790550">
        <ele>1015.7</ele>
        <time>2020-11-16T09:35:34Z</time>
      </trkpt>
      <trkpt lat="28.7392250" lon="-17.7790550">
        <ele>1015.7</ele>
        <time>2020-11-16T09:35:35Z</time>
      </trkpt>
      <trkpt lat="28.7392200" lon="-17.7790650">
        <ele>1015.8</ele>
        <time>2020-11-16T09:35:36Z</time>
      </trkpt>
      <trkpt lat="28.7392170" lon="-17.7790770">
        <ele>1015.9</ele>
        <time>2020-11-16T09:35:37Z</time>
      </trkpt>
      <trkpt lat="28.7392170" lon="-17.7790770">
        <ele>1015.9</ele>
        <time>2020-11-16T09:35:38Z</time>
      </trkpt>
      <trkpt lat="28.7392120" lon="-17.7791020">
        <ele>1016.2</ele>
        <time>2020-11-16T09:35:39Z</time>
      </trkpt>
      <trkpt lat="28.7392150" lon="-17.7791180">
        <ele>1016.3</ele>
        <time>2020-11-16T09:35:40Z</time>
      </trkpt>
      <trkpt lat="28.7392150" lon="-17.7791180">
        <ele>1016.3</ele>
        <time>2020-11-16T09:35:41Z</time>
      </trkpt>
      <trkpt lat="28.7392130" lon="-17.7791480">
        <ele>1016.6</ele>
        <time>2020-11-16T09:35:42Z</time>
      </trkpt>
      <trkpt lat="28.7392130" lon="-17.7791480">
        <ele>1016.6</ele>
        <time>2020-11-16T09:35:43Z</time>
      </trkpt>
      <trkpt lat="28.7392120" lon="-17.7791650">
        <ele>1016.8</ele>
        <time>2020-11-16T09:35:44Z</time>
      </trkpt>
      <trkpt lat="28.7392120" lon="-17.7791650">
        <ele>1016.8</ele>
        <time>2020-11-16T09:35:45Z</time>
      </trkpt>
      <trkpt lat="28.7392130" lon="-17.7791850">
        <ele>1017.0</ele>
        <time>2020-11-16T09:35:46Z</time>
      </trkpt>
      <trkpt lat="28.7392130" lon="-17.7791850">
        <ele>1017.0</ele>
        <time>2020-11-16T09:35:47Z</time>
      </trkpt>
      <trkpt lat="28.7392100" lon="-17.7792020">
        <ele>1017.1</ele>
        <time>2020-11-16T09:35:48Z</time>
      </trkpt>
      <trkpt lat="28.7392100" lon="-17.7792020">
        <ele>1017.1</ele>
        <time>2020-11-16T09:35:49Z</time>
      </trkpt>
      <trkpt lat="28.7392050" lon="-17.7792180">
        <ele>1017.3</ele>
        <time>2020-11-16T09:35:50Z</time>
      </trkpt>
      <trkpt lat="28.7392050" lon="-17.7792180">
        <ele>1017.3</ele>
        <time>2020-11-16T09:35:51Z</time>
      </trkpt>
      <trkpt lat="28.7392000" lon="-17.7792330">
        <ele>1017.4</ele>
        <time>2020-11-16T09:35:52Z</time>
      </trkpt>
      <trkpt lat="28.7392000" lon="-17.7792330">
        <ele>1017.4</ele>
        <time>2020-11-16T09:35:53Z</time>
      </trkpt>
      <trkpt lat="28.7391930" lon="-17.7792480">
        <ele>1017.6</ele>
        <time>2020-11-16T09:35:54Z</time>
      </trkpt>
      <trkpt lat="28.7391850" lon="-17.7792570">
        <ele>1017.7</ele>
        <time>2020-11-16T09:35:55Z</time>
      </trkpt>
      <trkpt lat="28.7391770" lon="-17.7792680">
        <ele>1017.9</ele>
        <time>2020-11-16T09:35:56Z</time>
      </trkpt>
      <trkpt lat="28.7391770" lon="-17.7792680">
        <ele>1017.9</ele>
        <time>2020-11-16T09:35:57Z</time>
      </trkpt>
      <trkpt lat="28.7391630" lon="-17.7792830">
        <ele>1018.0</ele>
        <time>2020-11-16T09:35:58Z</time>
      </trkpt>
      <trkpt lat="28.7391630" lon="-17.7792830">
        <ele>1018.0</ele>
        <time>2020-11-16T09:35:59Z</time>
      </trkpt>
      <trkpt lat="28.7391530" lon="-17.7792900">
        <ele>1018.2</ele>
        <time>2020-11-16T09:36:00Z</time>
      </trkpt>
      <trkpt lat="28.7391450" lon="-17.7792950">
        <ele>1018.3</ele>
        <time>2020-11-16T09:36:01Z</time>
      </trkpt>
      <trkpt lat="28.7391400" lon="-17.7793030">
        <ele>1018.3</ele>
        <time>2020-11-16T09:36:02Z</time>
      </trkpt>
      <trkpt lat="28.7391400" lon="-17.7793030">
        <ele>1018.3</ele>
        <time>2020-11-16T09:36:03Z</time>
      </trkpt>
      <trkpt lat="28.7391200" lon="-17.7793130">
        <ele>1018.6</ele>
        <time>2020-11-16T09:36:04Z</time>
      </trkpt>
      <trkpt lat="28.7391200" lon="-17.7793130">
        <ele>1018.6</ele>
        <time>2020-11-16T09:36:05Z</time>
      </trkpt>
      <trkpt lat="28.7390950" lon="-17.7793250">
        <ele>1018.8</ele>
        <time>2020-11-16T09:36:06Z</time>
      </trkpt>
      <trkpt lat="28.7390830" lon="-17.7793320">
        <ele>1019.0</ele>
        <time>2020-11-16T09:36:07Z</time>
      </trkpt>
      <trkpt lat="28.7390750" lon="-17.7793370">
        <ele>1019.1</ele>
        <time>2020-11-16T09:36:08Z</time>
      </trkpt>
      <trkpt lat="28.7390750" lon="-17.7793370">
        <ele>1019.1</ele>
        <time>2020-11-16T09:36:09Z</time>
      </trkpt>
      <trkpt lat="28.7390630" lon="-17.7793520">
        <ele>1019.2</ele>
        <time>2020-11-16T09:36:10Z</time>
      </trkpt>
      <trkpt lat="28.7390630" lon="-17.7793520">
        <ele>1019.2</ele>
        <time>2020-11-16T09:36:11Z</time>
      </trkpt>
      <trkpt lat="28.7390520" lon="-17.7793600">
        <ele>1019.4</ele>
        <time>2020-11-16T09:36:12Z</time>
      </trkpt>
      <trkpt lat="28.7390480" lon="-17.7793650">
        <ele>1019.4</ele>
        <time>2020-11-16T09:36:13Z</time>
      </trkpt>
      <trkpt lat="28.7390430" lon="-17.7793700">
        <ele>1019.5</ele>
        <time>2020-11-16T09:36:14Z</time>
      </trkpt>
      <trkpt lat="28.7390430" lon="-17.7793700">
        <ele>1019.5</ele>
        <time>2020-11-16T09:36:15Z</time>
      </trkpt>
      <trkpt lat="28.7390320" lon="-17.7793780">
        <ele>1019.6</ele>
        <time>2020-11-16T09:36:16Z</time>
      </trkpt>
      <trkpt lat="28.7390320" lon="-17.7793780">
        <ele>1019.6</ele>
        <time>2020-11-16T09:36:17Z</time>
      </trkpt>
      <trkpt lat="28.7390220" lon="-17.7793930">
        <ele>1019.8</ele>
        <time>2020-11-16T09:36:18Z</time>
      </trkpt>
      <trkpt lat="28.7390150" lon="-17.7794000">
        <ele>1019.9</ele>
        <time>2020-11-16T09:36:19Z</time>
      </trkpt>
      <trkpt lat="28.7390100" lon="-17.7794080">
        <ele>1020.0</ele>
        <time>2020-11-16T09:36:20Z</time>
      </trkpt>
      <trkpt lat="28.7390100" lon="-17.7794080">
        <ele>1020.0</ele>
        <time>2020-11-16T09:36:21Z</time>
      </trkpt>
      <trkpt lat="28.7390070" lon="-17.7794370">
        <ele>1020.2</ele>
        <time>2020-11-16T09:36:22Z</time>
      </trkpt>
      <trkpt lat="28.7390050" lon="-17.7794480">
        <ele>1020.3</ele>
        <time>2020-11-16T09:36:23Z</time>
      </trkpt>
      <trkpt lat="28.7390050" lon="-17.7794480">
        <ele>1020.3</ele>
        <time>2020-11-16T09:36:24Z</time>
      </trkpt>
      <trkpt lat="28.7390000" lon="-17.7794670">
        <ele>1020.5</ele>
        <time>2020-11-16T09:36:25Z</time>
      </trkpt>
      <trkpt lat="28.7389970" lon="-17.7794780">
        <ele>1020.6</ele>
        <time>2020-11-16T09:36:26Z</time>
      </trkpt>
      <trkpt lat="28.7389970" lon="-17.7794780">
        <ele>1020.6</ele>
        <time>2020-11-16T09:36:27Z</time>
      </trkpt>
      <trkpt lat="28.7389900" lon="-17.7794950">
        <ele>1020.8</ele>
        <time>2020-11-16T09:36:28Z</time>
      </trkpt>
      <trkpt lat="28.7389870" lon="-17.7795030">
        <ele>1020.8</ele>
        <time>2020-11-16T09:36:29Z</time>
      </trkpt>
      <trkpt lat="28.7389830" lon="-17.7795120">
        <ele>1020.9</ele>
        <time>2020-11-16T09:36:30Z</time>
      </trkpt>
      <trkpt lat="28.7389830" lon="-17.7795120">
        <ele>1020.9</ele>
        <time>2020-11-16T09:36:31Z</time>
      </trkpt>
      <trkpt lat="28.7389750" lon="-17.7795320">
        <ele>1021.2</ele>
        <time>2020-11-16T09:36:32Z</time>
      </trkpt>
      <trkpt lat="28.7389700" lon="-17.7795400">
        <ele>1021.3</ele>
        <time>2020-11-16T09:36:33Z</time>
      </trkpt>
      <trkpt lat="28.7389670" lon="-17.7795500">
        <ele>1021.4</ele>
        <time>2020-11-16T09:36:34Z</time>
      </trkpt>
      <trkpt lat="28.7389670" lon="-17.7795500">
        <ele>1021.4</ele>
        <time>2020-11-16T09:36:35Z</time>
      </trkpt>
      <trkpt lat="28.7389580" lon="-17.7795670">
        <ele>1021.6</ele>
        <time>2020-11-16T09:36:36Z</time>
      </trkpt>
      <trkpt lat="28.7389580" lon="-17.7795670">
        <ele>1021.6</ele>
        <time>2020-11-16T09:36:37Z</time>
      </trkpt>
      <trkpt lat="28.7389480" lon="-17.7795880">
        <ele>1021.8</ele>
        <time>2020-11-16T09:36:38Z</time>
      </trkpt>
      <trkpt lat="28.7389480" lon="-17.7795880">
        <ele>1021.8</ele>
        <time>2020-11-16T09:36:39Z</time>
      </trkpt>
      <trkpt lat="28.7389400" lon="-17.7796020">
        <ele>1022.0</ele>
        <time>2020-11-16T09:36:40Z</time>
      </trkpt>
      <trkpt lat="28.7389400" lon="-17.7796020">
        <ele>1022.0</ele>
        <time>2020-11-16T09:36:41Z</time>
      </trkpt>
      <trkpt lat="28.7389450" lon="-17.7796200">
        <ele>1022.2</ele>
        <time>2020-11-16T09:36:42Z</time>
      </trkpt>
      <trkpt lat="28.7389430" lon="-17.7796320">
        <ele>1022.3</ele>
        <time>2020-11-16T09:36:43Z</time>
      </trkpt>
      <trkpt lat="28.7389400" lon="-17.7796430">
        <ele>1022.5</ele>
        <time>2020-11-16T09:36:44Z</time>
      </trkpt>
      <trkpt lat="28.7389400" lon="-17.7796430">
        <ele>1022.5</ele>
        <time>2020-11-16T09:36:45Z</time>
      </trkpt>
      <trkpt lat="28.7389370" lon="-17.7796620">
        <ele>1022.7</ele>
        <time>2020-11-16T09:36:46Z</time>
      </trkpt>
      <trkpt lat="28.7389370" lon="-17.7796620">
        <ele>1022.7</ele>
        <time>2020-11-16T09:36:47Z</time>
      </trkpt>
      <trkpt lat="28.7389380" lon="-17.7796730">
        <ele>1022.8</ele>
        <time>2020-11-16T09:36:48Z</time>
      </trkpt>
      <trkpt lat="28.7389370" lon="-17.7796830">
        <ele>1022.9</ele>
        <time>2020-11-16T09:36:49Z</time>
      </trkpt>
      <trkpt lat="28.7389330" lon="-17.7796870">
        <ele>1023.0</ele>
        <time>2020-11-16T09:36:50Z</time>
      </trkpt>
      <trkpt lat="28.7389330" lon="-17.7796870">
        <ele>1023.0</ele>
        <time>2020-11-16T09:36:51Z</time>
      </trkpt>
      <trkpt lat="28.7389280" lon="-17.7797020">
        <ele>1023.2</ele>
        <time>2020-11-16T09:36:52Z</time>
      </trkpt>
      <trkpt lat="28.7389280" lon="-17.7797080">
        <ele>1023.2</ele>
        <time>2020-11-16T09:36:53Z</time>
      </trkpt>
      <trkpt lat="28.7389280" lon="-17.7797080">
        <ele>1023.2</ele>
        <time>2020-11-16T09:36:54Z</time>
      </trkpt>
      <trkpt lat="28.7389270" lon="-17.7797270">
        <ele>1023.4</ele>
        <time>2020-11-16T09:36:55Z</time>
      </trkpt>
      <trkpt lat="28.7389250" lon="-17.7797370">
        <ele>1023.6</ele>
        <time>2020-11-16T09:36:56Z</time>
      </trkpt>
      <trkpt lat="28.7389250" lon="-17.7797370">
        <ele>1023.6</ele>
        <time>2020-11-16T09:36:57Z</time>
      </trkpt>
      <trkpt lat="28.7389230" lon="-17.7797530">
        <ele>1023.7</ele>
        <time>2020-11-16T09:36:58Z</time>
      </trkpt>
      <trkpt lat="28.7389230" lon="-17.7797530">
        <ele>1023.7</ele>
        <time>2020-11-16T09:36:59Z</time>
      </trkpt>
      <trkpt lat="28.7389220" lon="-17.7797620">
        <ele>1023.8</ele>
        <time>2020-11-16T09:37:00Z</time>
      </trkpt>
      <trkpt lat="28.7389220" lon="-17.7797620">
        <ele>1023.8</ele>
        <time>2020-11-16T09:37:01Z</time>
      </trkpt>
      <trkpt lat="28.7389130" lon="-17.7797730">
        <ele>1024.0</ele>
        <time>2020-11-16T09:37:02Z</time>
      </trkpt>
      <trkpt lat="28.7389130" lon="-17.7797730">
        <ele>1024.0</ele>
        <time>2020-11-16T09:37:03Z</time>
      </trkpt>
      <trkpt lat="28.7389130" lon="-17.7797900">
        <ele>1024.2</ele>
        <time>2020-11-16T09:37:04Z</time>
      </trkpt>
      <trkpt lat="28.7389120" lon="-17.7797950">
        <ele>1024.3</ele>
        <time>2020-11-16T09:37:05Z</time>
      </trkpt>
      <trkpt lat="28.7389120" lon="-17.7797950">
        <ele>1024.3</ele>
        <time>2020-11-16T09:37:06Z</time>
      </trkpt>
      <trkpt lat="28.7389120" lon="-17.7798100">
        <ele>1024.4</ele>
        <time>2020-11-16T09:37:07Z</time>
      </trkpt>
      <trkpt lat="28.7389120" lon="-17.7798100">
        <ele>1024.4</ele>
        <time>2020-11-16T09:37:08Z</time>
      </trkpt>
      <trkpt lat="28.7389080" lon="-17.7798300">
        <ele>1024.7</ele>
        <time>2020-11-16T09:37:09Z</time>
      </trkpt>
      <trkpt lat="28.7389050" lon="-17.7798350">
        <ele>1024.7</ele>
        <time>2020-11-16T09:37:10Z</time>
      </trkpt>
      <trkpt lat="28.7389050" lon="-17.7798350">
        <ele>1024.7</ele>
        <time>2020-11-16T09:37:11Z</time>
      </trkpt>
      <trkpt lat="28.7388980" lon="-17.7798520">
        <ele>1024.9</ele>
        <time>2020-11-16T09:37:12Z</time>
      </trkpt>
      <trkpt lat="28.7389000" lon="-17.7798620">
        <ele>1025.0</ele>
        <time>2020-11-16T09:37:13Z</time>
      </trkpt>
      <trkpt lat="28.7389000" lon="-17.7798620">
        <ele>1025.0</ele>
        <time>2020-11-16T09:37:14Z</time>
      </trkpt>
      <trkpt lat="28.7389000" lon="-17.7798750">
        <ele>1025.2</ele>
        <time>2020-11-16T09:37:15Z</time>
      </trkpt>
      <trkpt lat="28.7389020" lon="-17.7798880">
        <ele>1025.3</ele>
        <time>2020-11-16T09:37:16Z</time>
      </trkpt>
      <trkpt lat="28.7389020" lon="-17.7798880">
        <ele>1025.3</ele>
        <time>2020-11-16T09:37:17Z</time>
      </trkpt>
      <trkpt lat="28.7389030" lon="-17.7799070">
        <ele>1025.5</ele>
        <time>2020-11-16T09:37:18Z</time>
      </trkpt>
      <trkpt lat="28.7389030" lon="-17.7799070">
        <ele>1025.5</ele>
        <time>2020-11-16T09:37:19Z</time>
      </trkpt>
      <trkpt lat="28.7389030" lon="-17.7799430">
        <ele>1025.8</ele>
        <time>2020-11-16T09:37:20Z</time>
      </trkpt>
      <trkpt lat="28.7389030" lon="-17.7799520">
        <ele>1025.9</ele>
        <time>2020-11-16T09:37:21Z</time>
      </trkpt>
      <trkpt lat="28.7389030" lon="-17.7799520">
        <ele>1025.9</ele>
        <time>2020-11-16T09:37:22Z</time>
      </trkpt>
      <trkpt lat="28.7389100" lon="-17.7799700">
        <ele>1026.1</ele>
        <time>2020-11-16T09:37:23Z</time>
      </trkpt>
      <trkpt lat="28.7389120" lon="-17.7799770">
        <ele>1026.2</ele>
        <time>2020-11-16T09:37:24Z</time>
      </trkpt>
      <trkpt lat="28.7389150" lon="-17.7799850">
        <ele>1026.3</ele>
        <time>2020-11-16T09:37:25Z</time>
      </trkpt>
      <trkpt lat="28.7389150" lon="-17.7799850">
        <ele>1026.3</ele>
        <time>2020-11-16T09:37:26Z</time>
      </trkpt>
      <trkpt lat="28.7389150" lon="-17.7800070">
        <ele>1026.5</ele>
        <time>2020-11-16T09:37:27Z</time>
      </trkpt>
      <trkpt lat="28.7389150" lon="-17.7800070">
        <ele>1026.5</ele>
        <time>2020-11-16T09:37:28Z</time>
      </trkpt>
      <trkpt lat="28.7389180" lon="-17.7800300">
        <ele>1026.7</ele>
        <time>2020-11-16T09:37:29Z</time>
      </trkpt>
      <trkpt lat="28.7389220" lon="-17.7800350">
        <ele>1026.8</ele>
        <time>2020-11-16T09:37:30Z</time>
      </trkpt>
      <trkpt lat="28.7389220" lon="-17.7800350">
        <ele>1026.8</ele>
        <time>2020-11-16T09:37:31Z</time>
      </trkpt>
      <trkpt lat="28.7389270" lon="-17.7800430">
        <ele>1026.9</ele>
        <time>2020-11-16T09:37:32Z</time>
      </trkpt>
      <trkpt lat="28.7389270" lon="-17.7800430">
        <ele>1026.9</ele>
        <time>2020-11-16T09:37:33Z</time>
      </trkpt>
      <trkpt lat="28.7389380" lon="-17.7800570">
        <ele>1027.1</ele>
        <time>2020-11-16T09:37:34Z</time>
      </trkpt>
      <trkpt lat="28.7389380" lon="-17.7800570">
        <ele>1027.1</ele>
        <time>2020-11-16T09:37:35Z</time>
      </trkpt>
      <trkpt lat="28.7389430" lon="-17.7800570">
        <ele>1027.2</ele>
        <time>2020-11-16T09:37:36Z</time>
      </trkpt>
      <trkpt lat="28.7389450" lon="-17.7800680">
        <ele>1027.3</ele>
        <time>2020-11-16T09:37:37Z</time>
      </trkpt>
      <trkpt lat="28.7389450" lon="-17.7800680">
        <ele>1027.3</ele>
        <time>2020-11-16T09:37:38Z</time>
      </trkpt>
      <trkpt lat="28.7389420" lon="-17.7800870">
        <ele>1027.5</ele>
        <time>2020-11-16T09:37:39Z</time>
      </trkpt>
      <trkpt lat="28.7389430" lon="-17.7800970">
        <ele>1027.6</ele>
        <time>2020-11-16T09:37:40Z</time>
      </trkpt>
      <trkpt lat="28.7389400" lon="-17.7801020">
        <ele>1027.7</ele>
        <time>2020-11-16T09:37:41Z</time>
      </trkpt>
      <trkpt lat="28.7389400" lon="-17.7801020">
        <ele>1027.7</ele>
        <time>2020-11-16T09:37:42Z</time>
      </trkpt>
      <trkpt lat="28.7389330" lon="-17.7801100">
        <ele>1027.8</ele>
        <time>2020-11-16T09:37:43Z</time>
      </trkpt>
      <trkpt lat="28.7389330" lon="-17.7801100">
        <ele>1027.8</ele>
        <time>2020-11-16T09:37:44Z</time>
      </trkpt>
      <trkpt lat="28.7389350" lon="-17.7801220">
        <ele>1028.0</ele>
        <time>2020-11-16T09:37:45Z</time>
      </trkpt>
      <trkpt lat="28.7389350" lon="-17.7801220">
        <ele>1028.0</ele>
        <time>2020-11-16T09:37:46Z</time>
      </trkpt>
      <trkpt lat="28.7389350" lon="-17.7801220">
        <ele>1028.0</ele>
        <time>2020-11-16T09:37:47Z</time>
      </trkpt>
      <trkpt lat="28.7389350" lon="-17.7801220">
        <ele>1028.0</ele>
        <time>2020-11-16T09:37:48Z</time>
      </trkpt>
      <trkpt lat="28.7389350" lon="-17.7801220">
        <ele>1028.0</ele>
        <time>2020-11-16T09:37:49Z</time>
      </trkpt>
      <trkpt lat="28.7390050" lon="-17.7801670">
        <ele>1029.1</ele>
        <time>2020-11-16T09:37:55Z</time>
      </trkpt>
      <trkpt lat="28.7390050" lon="-17.7801670">
        <ele>1029.1</ele>
        <time>2020-11-16T09:37:56Z</time>
      </trkpt>
      <trkpt lat="28.7390270" lon="-17.7801700">
        <ele>1029.4</ele>
        <time>2020-11-16T09:37:57Z</time>
      </trkpt>
      <trkpt lat="28.7390420" lon="-17.7801700">
        <ele>1029.6</ele>
        <time>2020-11-16T09:37:58Z</time>
      </trkpt>
      <trkpt lat="28.7390420" lon="-17.7801700">
        <ele>1029.6</ele>
        <time>2020-11-16T09:37:59Z</time>
      </trkpt>
      <trkpt lat="28.7390530" lon="-17.7801800">
        <ele>1029.8</ele>
        <time>2020-11-16T09:38:00Z</time>
      </trkpt>
      <trkpt lat="28.7390530" lon="-17.7801800">
        <ele>1029.8</ele>
        <time>2020-11-16T09:38:04Z</time>
      </trkpt>
      <trkpt lat="28.7390530" lon="-17.7801800">
        <ele>1029.8</ele>
        <time>2020-11-16T09:38:05Z</time>
      </trkpt>
      <trkpt lat="28.7391280" lon="-17.7801930">
        <ele>1030.7</ele>
        <time>2020-11-16T09:38:06Z</time>
      </trkpt>
      <trkpt lat="28.7391280" lon="-17.7801930">
        <ele>1030.7</ele>
        <time>2020-11-16T09:38:07Z</time>
      </trkpt>
      <trkpt lat="28.7391500" lon="-17.7802020">
        <ele>1031.0</ele>
        <time>2020-11-16T09:38:08Z</time>
      </trkpt>
      <trkpt lat="28.7391500" lon="-17.7802020">
        <ele>1031.0</ele>
        <time>2020-11-16T09:38:09Z</time>
      </trkpt>
      <trkpt lat="28.7391750" lon="-17.7802170">
        <ele>1031.4</ele>
        <time>2020-11-16T09:38:10Z</time>
      </trkpt>
      <trkpt lat="28.7391830" lon="-17.7802180">
        <ele>1031.5</ele>
        <time>2020-11-16T09:38:11Z</time>
      </trkpt>
      <trkpt lat="28.7391830" lon="-17.7802180">
        <ele>1031.5</ele>
        <time>2020-11-16T09:38:12Z</time>
      </trkpt>
      <trkpt lat="28.7391970" lon="-17.7802270">
        <ele>1031.7</ele>
        <time>2020-11-16T09:38:13Z</time>
      </trkpt>
      <trkpt lat="28.7391970" lon="-17.7802270">
        <ele>1031.7</ele>
        <time>2020-11-16T09:38:14Z</time>
      </trkpt>
      <trkpt lat="28.7392080" lon="-17.7802330">
        <ele>1031.8</ele>
        <time>2020-11-16T09:38:15Z</time>
      </trkpt>
      <trkpt lat="28.7392080" lon="-17.7802330">
        <ele>1031.8</ele>
        <time>2020-11-16T09:38:16Z</time>
      </trkpt>
      <trkpt lat="28.7392080" lon="-17.7802330">
        <ele>1031.8</ele>
        <time>2020-11-16T09:38:17Z</time>
      </trkpt>
      <trkpt lat="28.7392080" lon="-17.7802330">
        <ele>1031.8</ele>
        <time>2020-11-16T09:38:18Z</time>
      </trkpt>
      <trkpt lat="28.7392800" lon="-17.7802600">
        <ele>1032.7</ele>
        <time>2020-11-16T09:38:19Z</time>
      </trkpt>
      <trkpt lat="28.7393220" lon="-17.7802750">
        <ele>1033.3</ele>
        <time>2020-11-16T09:38:20Z</time>
      </trkpt>
      <trkpt lat="28.7393220" lon="-17.7802750">
        <ele>1033.3</ele>
        <time>2020-11-16T09:38:21Z</time>
      </trkpt>
      <trkpt lat="28.7393650" lon="-17.7802780">
        <ele>1033.8</ele>
        <time>2020-11-16T09:38:22Z</time>
      </trkpt>
      <trkpt lat="28.7393650" lon="-17.7802780">
        <ele>1033.8</ele>
        <time>2020-11-16T09:38:23Z</time>
      </trkpt>
      <trkpt lat="28.7393770" lon="-17.7802820">
        <ele>1034.0</ele>
        <time>2020-11-16T09:38:24Z</time>
      </trkpt>
      <trkpt lat="28.7393770" lon="-17.7802820">
        <ele>1034.0</ele>
        <time>2020-11-16T09:38:25Z</time>
      </trkpt>
      <trkpt lat="28.7393880" lon="-17.7802820">
        <ele>1034.1</ele>
        <time>2020-11-16T09:38:26Z</time>
      </trkpt>
      <trkpt lat="28.7393880" lon="-17.7802820">
        <ele>1034.1</ele>
        <time>2020-11-16T09:38:27Z</time>
      </trkpt>
      <trkpt lat="28.7394200" lon="-17.7802780">
        <ele>1034.5</ele>
        <time>2020-11-16T09:38:28Z</time>
      </trkpt>
      <trkpt lat="28.7394200" lon="-17.7802780">
        <ele>1034.5</ele>
        <time>2020-11-16T09:38:29Z</time>
      </trkpt>
      <trkpt lat="28.7394320" lon="-17.7802800">
        <ele>1034.7</ele>
        <time>2020-11-16T09:38:30Z</time>
      </trkpt>
      <trkpt lat="28.7394280" lon="-17.7802780">
        <ele>1034.8</ele>
        <time>2020-11-16T09:38:31Z</time>
      </trkpt>
      <trkpt lat="28.7394280" lon="-17.7802780">
        <ele>1034.8</ele>
        <time>2020-11-16T09:38:32Z</time>
      </trkpt>
      <trkpt lat="28.7394280" lon="-17.7802780">
        <ele>1034.8</ele>
        <time>2020-11-16T09:38:33Z</time>
      </trkpt>
      <trkpt lat="28.7394280" lon="-17.7802780">
        <ele>1034.8</ele>
        <time>2020-11-16T09:39:13Z</time>
      </trkpt>
      <trkpt lat="28.7394280" lon="-17.7802780">
        <ele>1034.8</ele>
        <time>2020-11-16T09:39:14Z</time>
      </trkpt>
      <trkpt lat="28.7394800" lon="-17.7802770">
        <ele>1035.4</ele>
        <time>2020-11-16T09:39:15Z</time>
      </trkpt>
      <trkpt lat="28.7394850" lon="-17.7802820">
        <ele>1035.4</ele>
        <time>2020-11-16T09:39:16Z</time>
      </trkpt>
      <trkpt lat="28.7394850" lon="-17.7802820">
        <ele>1035.4</ele>
        <time>2020-11-16T09:39:17Z</time>
      </trkpt>
      <trkpt lat="28.7394930" lon="-17.7802800">
        <ele>1035.5</ele>
        <time>2020-11-16T09:39:18Z</time>
      </trkpt>
      <trkpt lat="28.7394930" lon="-17.7802800">
        <ele>1035.5</ele>
        <time>2020-11-16T09:39:34Z</time>
      </trkpt>
      <trkpt lat="28.7394930" lon="-17.7802800">
        <ele>1035.5</ele>
        <time>2020-11-16T09:39:35Z</time>
      </trkpt>
      <trkpt lat="28.7395550" lon="-17.7802650">
        <ele>1036.1</ele>
        <time>2020-11-16T09:39:36Z</time>
      </trkpt>
      <trkpt lat="28.7395550" lon="-17.7802650">
        <ele>1036.1</ele>
        <time>2020-11-16T09:39:37Z</time>
      </trkpt>
      <trkpt lat="28.7395650" lon="-17.7802520">
        <ele>1036.3</ele>
        <time>2020-11-16T09:39:38Z</time>
      </trkpt>
      <trkpt lat="28.7395730" lon="-17.7802450">
        <ele>1036.4</ele>
        <time>2020-11-16T09:39:39Z</time>
      </trkpt>
      <trkpt lat="28.7395730" lon="-17.7802450">
        <ele>1036.4</ele>
        <time>2020-11-16T09:39:40Z</time>
      </trkpt>
      <trkpt lat="28.7395850" lon="-17.7802450">
        <ele>1036.5</ele>
        <time>2020-11-16T09:39:41Z</time>
      </trkpt>
      <trkpt lat="28.7395850" lon="-17.7802450">
        <ele>1036.5</ele>
        <time>2020-11-16T09:39:45Z</time>
      </trkpt>
      <trkpt lat="28.7396300" lon="-17.7802370">
        <ele>1036.9</ele>
        <time>2020-11-16T09:39:52Z</time>
      </trkpt>
      <trkpt lat="28.7396300" lon="-17.7802370">
        <ele>1036.9</ele>
        <time>2020-11-16T09:39:53Z</time>
      </trkpt>
      <trkpt lat="28.7396630" lon="-17.7802770">
        <ele>1037.4</ele>
        <time>2020-11-16T09:39:54Z</time>
      </trkpt>
      <trkpt lat="28.7396630" lon="-17.7802770">
        <ele>1037.4</ele>
        <time>2020-11-16T09:39:55Z</time>
      </trkpt>
      <trkpt lat="28.7396750" lon="-17.7802850">
        <ele>1037.6</ele>
        <time>2020-11-16T09:39:56Z</time>
      </trkpt>
      <trkpt lat="28.7396750" lon="-17.7802850">
        <ele>1037.6</ele>
        <time>2020-11-16T09:39:57Z</time>
      </trkpt>
      <trkpt lat="28.7396620" lon="-17.7802770">
        <ele>1037.7</ele>
        <time>2020-11-16T09:39:58Z</time>
      </trkpt>
      <trkpt lat="28.7396620" lon="-17.7802770">
        <ele>1037.7</ele>
        <time>2020-11-16T09:39:59Z</time>
      </trkpt>
      <trkpt lat="28.7396770" lon="-17.7802770">
        <ele>1037.9</ele>
        <time>2020-11-16T09:40:00Z</time>
      </trkpt>
      <trkpt lat="28.7396770" lon="-17.7802770">
        <ele>1037.9</ele>
        <time>2020-11-16T09:40:01Z</time>
      </trkpt>
      <trkpt lat="28.7396820" lon="-17.7802900">
        <ele>1038.1</ele>
        <time>2020-11-16T09:40:02Z</time>
      </trkpt>
      <trkpt lat="28.7396870" lon="-17.7802930">
        <ele>1038.1</ele>
        <time>2020-11-16T09:40:03Z</time>
      </trkpt>
      <trkpt lat="28.7396870" lon="-17.7802930">
        <ele>1038.1</ele>
        <time>2020-11-16T09:40:04Z</time>
      </trkpt>
      <trkpt lat="28.7397020" lon="-17.7803020">
        <ele>1038.4</ele>
        <time>2020-11-16T09:40:05Z</time>
      </trkpt>
      <trkpt lat="28.7397020" lon="-17.7803020">
        <ele>1038.4</ele>
        <time>2020-11-16T09:40:06Z</time>
      </trkpt>
      <trkpt lat="28.7397170" lon="-17.7803130">
        <ele>1038.6</ele>
        <time>2020-11-16T09:40:07Z</time>
      </trkpt>
      <trkpt lat="28.7397170" lon="-17.7803130">
        <ele>1038.6</ele>
        <time>2020-11-16T09:40:08Z</time>
      </trkpt>
      <trkpt lat="28.7397230" lon="-17.7803170">
        <ele>1038.7</ele>
        <time>2020-11-16T09:40:09Z</time>
      </trkpt>
      <trkpt lat="28.7397250" lon="-17.7803220">
        <ele>1038.7</ele>
        <time>2020-11-16T09:40:10Z</time>
      </trkpt>
      <trkpt lat="28.7397250" lon="-17.7803220">
        <ele>1038.7</ele>
        <time>2020-11-16T09:40:11Z</time>
      </trkpt>
      <trkpt lat="28.7397300" lon="-17.7803320">
        <ele>1038.9</ele>
        <time>2020-11-16T09:40:12Z</time>
      </trkpt>
      <trkpt lat="28.7397300" lon="-17.7803320">
        <ele>1038.9</ele>
        <time>2020-11-16T09:40:13Z</time>
      </trkpt>
      <trkpt lat="28.7397370" lon="-17.7803420">
        <ele>1039.0</ele>
        <time>2020-11-16T09:40:14Z</time>
      </trkpt>
      <trkpt lat="28.7397370" lon="-17.7803420">
        <ele>1039.0</ele>
        <time>2020-11-16T09:40:15Z</time>
      </trkpt>
      <trkpt lat="28.7397400" lon="-17.7803570">
        <ele>1039.2</ele>
        <time>2020-11-16T09:40:16Z</time>
      </trkpt>
      <trkpt lat="28.7397400" lon="-17.7803570">
        <ele>1039.2</ele>
        <time>2020-11-16T09:40:17Z</time>
      </trkpt>
      <trkpt lat="28.7397530" lon="-17.7803720">
        <ele>1039.5</ele>
        <time>2020-11-16T09:40:18Z</time>
      </trkpt>
      <trkpt lat="28.7397530" lon="-17.7803720">
        <ele>1039.5</ele>
        <time>2020-11-16T09:40:19Z</time>
      </trkpt>
      <trkpt lat="28.7397670" lon="-17.7803900">
        <ele>1039.7</ele>
        <time>2020-11-16T09:40:20Z</time>
      </trkpt>
      <trkpt lat="28.7397720" lon="-17.7803950">
        <ele>1039.8</ele>
        <time>2020-11-16T09:40:21Z</time>
      </trkpt>
      <trkpt lat="28.7397720" lon="-17.7803950">
        <ele>1039.8</ele>
        <time>2020-11-16T09:40:22Z</time>
      </trkpt>
      <trkpt lat="28.7397850" lon="-17.7804100">
        <ele>1040.1</ele>
        <time>2020-11-16T09:40:23Z</time>
      </trkpt>
      <trkpt lat="28.7397880" lon="-17.7804150">
        <ele>1040.1</ele>
        <time>2020-11-16T09:40:24Z</time>
      </trkpt>
      <trkpt lat="28.7397880" lon="-17.7804150">
        <ele>1040.1</ele>
        <time>2020-11-16T09:40:25Z</time>
      </trkpt>
      <trkpt lat="28.7397870" lon="-17.7804270">
        <ele>1040.3</ele>
        <time>2020-11-16T09:40:26Z</time>
      </trkpt>
      <trkpt lat="28.7397870" lon="-17.7804270">
        <ele>1040.3</ele>
        <time>2020-11-16T09:40:27Z</time>
      </trkpt>
      <trkpt lat="28.7397800" lon="-17.7804430">
        <ele>1040.5</ele>
        <time>2020-11-16T09:40:28Z</time>
      </trkpt>
      <trkpt lat="28.7397800" lon="-17.7804430">
        <ele>1040.5</ele>
        <time>2020-11-16T09:40:29Z</time>
      </trkpt>
      <trkpt lat="28.7397770" lon="-17.7804680">
        <ele>1040.7</ele>
        <time>2020-11-16T09:40:30Z</time>
      </trkpt>
      <trkpt lat="28.7397770" lon="-17.7804680">
        <ele>1040.7</ele>
        <time>2020-11-16T09:40:31Z</time>
      </trkpt>
      <trkpt lat="28.7397720" lon="-17.7804920">
        <ele>1041.0</ele>
        <time>2020-11-16T09:40:32Z</time>
      </trkpt>
      <trkpt lat="28.7397720" lon="-17.7804920">
        <ele>1041.0</ele>
        <time>2020-11-16T09:40:33Z</time>
      </trkpt>
      <trkpt lat="28.7397680" lon="-17.7805080">
        <ele>1041.2</ele>
        <time>2020-11-16T09:40:34Z</time>
      </trkpt>
      <trkpt lat="28.7397680" lon="-17.7805080">
        <ele>1041.2</ele>
        <time>2020-11-16T09:40:35Z</time>
      </trkpt>
      <trkpt lat="28.7397630" lon="-17.7805180">
        <ele>1041.3</ele>
        <time>2020-11-16T09:40:36Z</time>
      </trkpt>
      <trkpt lat="28.7397630" lon="-17.7805180">
        <ele>1041.3</ele>
        <time>2020-11-16T09:40:37Z</time>
      </trkpt>
      <trkpt lat="28.7397700" lon="-17.7805330">
        <ele>1041.4</ele>
        <time>2020-11-16T09:40:38Z</time>
      </trkpt>
      <trkpt lat="28.7397700" lon="-17.7805330">
        <ele>1041.4</ele>
        <time>2020-11-16T09:40:39Z</time>
      </trkpt>
      <trkpt lat="28.7397720" lon="-17.7805450">
        <ele>1041.6</ele>
        <time>2020-11-16T09:40:40Z</time>
      </trkpt>
      <trkpt lat="28.7397680" lon="-17.7805520">
        <ele>1041.7</ele>
        <time>2020-11-16T09:40:41Z</time>
      </trkpt>
      <trkpt lat="28.7397700" lon="-17.7805550">
        <ele>1041.7</ele>
        <time>2020-11-16T09:40:42Z</time>
      </trkpt>
      <trkpt lat="28.7397700" lon="-17.7805550">
        <ele>1041.7</ele>
        <time>2020-11-16T09:40:43Z</time>
      </trkpt>
      <trkpt lat="28.7397720" lon="-17.7805670">
        <ele>1041.8</ele>
        <time>2020-11-16T09:40:44Z</time>
      </trkpt>
      <trkpt lat="28.7397720" lon="-17.7805670">
        <ele>1041.8</ele>
        <time>2020-11-16T09:40:45Z</time>
      </trkpt>
      <trkpt lat="28.7397700" lon="-17.7805700">
        <ele>1041.9</ele>
        <time>2020-11-16T09:40:46Z</time>
      </trkpt>
      <trkpt lat="28.7397700" lon="-17.7805700">
        <ele>1041.9</ele>
        <time>2020-11-16T09:40:47Z</time>
      </trkpt>
      <trkpt lat="28.7397700" lon="-17.7805700">
        <ele>1041.9</ele>
        <time>2020-11-16T09:40:48Z</time>
      </trkpt>
      <trkpt lat="28.7397700" lon="-17.7805700">
        <ele>1041.9</ele>
        <time>2020-11-16T09:41:10Z</time>
      </trkpt>
      <trkpt lat="28.7397700" lon="-17.7805700">
        <ele>1041.9</ele>
        <time>2020-11-16T09:41:11Z</time>
      </trkpt>
      <trkpt lat="28.7397520" lon="-17.7806070">
        <ele>1042.3</ele>
        <time>2020-11-16T09:41:12Z</time>
      </trkpt>
      <trkpt lat="28.7397520" lon="-17.7806070">
        <ele>1042.3</ele>
        <time>2020-11-16T09:41:14Z</time>
      </trkpt>
      <trkpt lat="28.7397520" lon="-17.7806070">
        <ele>1042.3</ele>
        <time>2020-11-16T09:41:15Z</time>
      </trkpt>
      <trkpt lat="28.7397380" lon="-17.7806450">
        <ele>1042.7</ele>
        <time>2020-11-16T09:41:16Z</time>
      </trkpt>
      <trkpt lat="28.7397380" lon="-17.7806450">
        <ele>1042.7</ele>
        <time>2020-11-16T09:41:17Z</time>
      </trkpt>
      <trkpt lat="28.7397380" lon="-17.7806670">
        <ele>1043.0</ele>
        <time>2020-11-16T09:41:18Z</time>
      </trkpt>
      <trkpt lat="28.7397380" lon="-17.7806670">
        <ele>1043.0</ele>
        <time>2020-11-16T09:41:19Z</time>
      </trkpt>
      <trkpt lat="28.7397450" lon="-17.7807080">
        <ele>1043.3</ele>
        <time>2020-11-16T09:41:20Z</time>
      </trkpt>
      <trkpt lat="28.7397450" lon="-17.7807080">
        <ele>1043.3</ele>
        <time>2020-11-16T09:41:21Z</time>
      </trkpt>
      <trkpt lat="28.7397500" lon="-17.7807470">
        <ele>1043.7</ele>
        <time>2020-11-16T09:41:22Z</time>
      </trkpt>
      <trkpt lat="28.7397500" lon="-17.7807650">
        <ele>1043.9</ele>
        <time>2020-11-16T09:41:23Z</time>
      </trkpt>
      <trkpt lat="28.7397500" lon="-17.7807650">
        <ele>1043.9</ele>
        <time>2020-11-16T09:41:24Z</time>
      </trkpt>
      <trkpt lat="28.7397530" lon="-17.7807950">
        <ele>1044.1</ele>
        <time>2020-11-16T09:41:25Z</time>
      </trkpt>
      <trkpt lat="28.7397530" lon="-17.7807950">
        <ele>1044.1</ele>
        <time>2020-11-16T09:41:26Z</time>
      </trkpt>
      <trkpt lat="28.7397580" lon="-17.7808180">
        <ele>1044.3</ele>
        <time>2020-11-16T09:41:27Z</time>
      </trkpt>
      <trkpt lat="28.7397580" lon="-17.7808180">
        <ele>1044.3</ele>
        <time>2020-11-16T09:41:28Z</time>
      </trkpt>
      <trkpt lat="28.7397670" lon="-17.7808520">
        <ele>1044.7</ele>
        <time>2020-11-16T09:41:29Z</time>
      </trkpt>
      <trkpt lat="28.7397670" lon="-17.7808520">
        <ele>1044.7</ele>
        <time>2020-11-16T09:41:30Z</time>
      </trkpt>
      <trkpt lat="28.7397780" lon="-17.7808820">
        <ele>1045.0</ele>
        <time>2020-11-16T09:41:31Z</time>
      </trkpt>
      <trkpt lat="28.7397800" lon="-17.7808970">
        <ele>1045.1</ele>
        <time>2020-11-16T09:41:32Z</time>
      </trkpt>
      <trkpt lat="28.7397800" lon="-17.7808970">
        <ele>1045.1</ele>
        <time>2020-11-16T09:41:33Z</time>
      </trkpt>
      <trkpt lat="28.7397700" lon="-17.7809200">
        <ele>1045.4</ele>
        <time>2020-11-16T09:41:34Z</time>
      </trkpt>
      <trkpt lat="28.7397700" lon="-17.7809200">
        <ele>1045.4</ele>
        <time>2020-11-16T09:41:35Z</time>
      </trkpt>
      <trkpt lat="28.7397670" lon="-17.7809550">
        <ele>1045.7</ele>
        <time>2020-11-16T09:41:36Z</time>
      </trkpt>
      <trkpt lat="28.7397670" lon="-17.7809750">
        <ele>1045.9</ele>
        <time>2020-11-16T09:41:37Z</time>
      </trkpt>
      <trkpt lat="28.7397670" lon="-17.7809750">
        <ele>1045.9</ele>
        <time>2020-11-16T09:41:38Z</time>
      </trkpt>
      <trkpt lat="28.7397520" lon="-17.7809980">
        <ele>1046.1</ele>
        <time>2020-11-16T09:41:39Z</time>
      </trkpt>
      <trkpt lat="28.7397520" lon="-17.7809980">
        <ele>1046.1</ele>
        <time>2020-11-16T09:41:40Z</time>
      </trkpt>
      <trkpt lat="28.7397420" lon="-17.7810200">
        <ele>1046.3</ele>
        <time>2020-11-16T09:41:41Z</time>
      </trkpt>
      <trkpt lat="28.7397420" lon="-17.7810200">
        <ele>1046.3</ele>
        <time>2020-11-16T09:41:42Z</time>
      </trkpt>
      <trkpt lat="28.7397300" lon="-17.7810400">
        <ele>1046.5</ele>
        <time>2020-11-16T09:41:43Z</time>
      </trkpt>
      <trkpt lat="28.7397270" lon="-17.7810530">
        <ele>1046.6</ele>
        <time>2020-11-16T09:41:44Z</time>
      </trkpt>
      <trkpt lat="28.7397180" lon="-17.7810620">
        <ele>1046.7</ele>
        <time>2020-11-16T09:41:45Z</time>
      </trkpt>
      <trkpt lat="28.7397180" lon="-17.7810620">
        <ele>1046.7</ele>
        <time>2020-11-16T09:41:46Z</time>
      </trkpt>
      <trkpt lat="28.7397080" lon="-17.7810850">
        <ele>1046.9</ele>
        <time>2020-11-16T09:41:47Z</time>
      </trkpt>
      <trkpt lat="28.7397080" lon="-17.7810850">
        <ele>1046.9</ele>
        <time>2020-11-16T09:41:48Z</time>
      </trkpt>
      <trkpt lat="28.7397020" lon="-17.7811050">
        <ele>1047.1</ele>
        <time>2020-11-16T09:41:49Z</time>
      </trkpt>
      <trkpt lat="28.7396980" lon="-17.7811150">
        <ele>1047.2</ele>
        <time>2020-11-16T09:41:50Z</time>
      </trkpt>
      <trkpt lat="28.7396980" lon="-17.7811150">
        <ele>1047.2</ele>
        <time>2020-11-16T09:41:51Z</time>
      </trkpt>
      <trkpt lat="28.7396920" lon="-17.7811400">
        <ele>1047.4</ele>
        <time>2020-11-16T09:41:52Z</time>
      </trkpt>
      <trkpt lat="28.7396900" lon="-17.7811530">
        <ele>1047.5</ele>
        <time>2020-11-16T09:41:53Z</time>
      </trkpt>
      <trkpt lat="28.7396920" lon="-17.7811700">
        <ele>1047.6</ele>
        <time>2020-11-16T09:41:54Z</time>
      </trkpt>
      <trkpt lat="28.7396920" lon="-17.7811700">
        <ele>1047.6</ele>
        <time>2020-11-16T09:41:55Z</time>
      </trkpt>
      <trkpt lat="28.7396880" lon="-17.7811930">
        <ele>1047.8</ele>
        <time>2020-11-16T09:41:56Z</time>
      </trkpt>
      <trkpt lat="28.7396870" lon="-17.7812070">
        <ele>1047.9</ele>
        <time>2020-11-16T09:41:57Z</time>
      </trkpt>
      <trkpt lat="28.7396870" lon="-17.7812070">
        <ele>1047.9</ele>
        <time>2020-11-16T09:41:58Z</time>
      </trkpt>
      <trkpt lat="28.7396750" lon="-17.7812430">
        <ele>1048.3</ele>
        <time>2020-11-16T09:41:59Z</time>
      </trkpt>
      <trkpt lat="28.7396620" lon="-17.7812650">
        <ele>1048.5</ele>
        <time>2020-11-16T09:42:00Z</time>
      </trkpt>
      <trkpt lat="28.7396620" lon="-17.7812650">
        <ele>1048.5</ele>
        <time>2020-11-16T09:42:01Z</time>
      </trkpt>
      <trkpt lat="28.7396420" lon="-17.7813080">
        <ele>1048.9</ele>
        <time>2020-11-16T09:42:02Z</time>
      </trkpt>
      <trkpt lat="28.7396420" lon="-17.7813270">
        <ele>1049.1</ele>
        <time>2020-11-16T09:42:03Z</time>
      </trkpt>
      <trkpt lat="28.7396420" lon="-17.7813270">
        <ele>1049.1</ele>
        <time>2020-11-16T09:42:04Z</time>
      </trkpt>
      <trkpt lat="28.7396370" lon="-17.7813580">
        <ele>1049.3</ele>
        <time>2020-11-16T09:42:05Z</time>
      </trkpt>
      <trkpt lat="28.7396370" lon="-17.7813580">
        <ele>1049.3</ele>
        <time>2020-11-16T09:42:06Z</time>
      </trkpt>
      <trkpt lat="28.7396330" lon="-17.7813870">
        <ele>1049.6</ele>
        <time>2020-11-16T09:42:07Z</time>
      </trkpt>
      <trkpt lat="28.7396280" lon="-17.7813970">
        <ele>1049.7</ele>
        <time>2020-11-16T09:42:08Z</time>
      </trkpt>
      <trkpt lat="28.7396280" lon="-17.7814120">
        <ele>1049.8</ele>
        <time>2020-11-16T09:42:09Z</time>
      </trkpt>
      <trkpt lat="28.7396280" lon="-17.7814120">
        <ele>1049.8</ele>
        <time>2020-11-16T09:42:10Z</time>
      </trkpt>
      <trkpt lat="28.7396200" lon="-17.7814430">
        <ele>1050.1</ele>
        <time>2020-11-16T09:42:11Z</time>
      </trkpt>
      <trkpt lat="28.7396200" lon="-17.7814430">
        <ele>1050.1</ele>
        <time>2020-11-16T09:42:12Z</time>
      </trkpt>
      <trkpt lat="28.7396200" lon="-17.7814720">
        <ele>1050.4</ele>
        <time>2020-11-16T09:42:13Z</time>
      </trkpt>
      <trkpt lat="28.7396200" lon="-17.7814720">
        <ele>1050.4</ele>
        <time>2020-11-16T09:42:14Z</time>
      </trkpt>
      <trkpt lat="28.7396080" lon="-17.7814900">
        <ele>1050.6</ele>
        <time>2020-11-16T09:42:15Z</time>
      </trkpt>
      <trkpt lat="28.7396080" lon="-17.7814900">
        <ele>1050.6</ele>
        <time>2020-11-16T09:42:16Z</time>
      </trkpt>
      <trkpt lat="28.7396100" lon="-17.7815000">
        <ele>1050.7</ele>
        <time>2020-11-16T09:42:17Z</time>
      </trkpt>
      <trkpt lat="28.7396100" lon="-17.7815000">
        <ele>1050.7</ele>
        <time>2020-11-16T09:42:18Z</time>
      </trkpt>
      <trkpt lat="28.7396080" lon="-17.7815100">
        <ele>1050.8</ele>
        <time>2020-11-16T09:42:19Z</time>
      </trkpt>
      <trkpt lat="28.7396100" lon="-17.7815170">
        <ele>1050.8</ele>
        <time>2020-11-16T09:42:20Z</time>
      </trkpt>
      <trkpt lat="28.7396100" lon="-17.7815170">
        <ele>1050.8</ele>
        <time>2020-11-16T09:42:21Z</time>
      </trkpt>
      <trkpt lat="28.7396030" lon="-17.7815270">
        <ele>1050.9</ele>
        <time>2020-11-16T09:42:22Z</time>
      </trkpt>
      <trkpt lat="28.7396030" lon="-17.7815270">
        <ele>1050.9</ele>
        <time>2020-11-16T09:42:23Z</time>
      </trkpt>
      <trkpt lat="28.7396080" lon="-17.7815630">
        <ele>1051.3</ele>
        <time>2020-11-16T09:42:24Z</time>
      </trkpt>
      <trkpt lat="28.7396030" lon="-17.7815770">
        <ele>1051.4</ele>
        <time>2020-11-16T09:42:25Z</time>
      </trkpt>
      <trkpt lat="28.7396030" lon="-17.7815770">
        <ele>1051.4</ele>
        <time>2020-11-16T09:42:26Z</time>
      </trkpt>
      <trkpt lat="28.7396000" lon="-17.7815980">
        <ele>1051.7</ele>
        <time>2020-11-16T09:42:27Z</time>
      </trkpt>
      <trkpt lat="28.7396000" lon="-17.7815980">
        <ele>1051.7</ele>
        <time>2020-11-16T09:42:28Z</time>
      </trkpt>
      <trkpt lat="28.7395970" lon="-17.7816230">
        <ele>1051.9</ele>
        <time>2020-11-16T09:42:29Z</time>
      </trkpt>
      <trkpt lat="28.7395970" lon="-17.7816230">
        <ele>1051.9</ele>
        <time>2020-11-16T09:42:30Z</time>
      </trkpt>
      <trkpt lat="28.7395950" lon="-17.7816420">
        <ele>1052.1</ele>
        <time>2020-11-16T09:42:31Z</time>
      </trkpt>
      <trkpt lat="28.7395830" lon="-17.7816480">
        <ele>1052.3</ele>
        <time>2020-11-16T09:42:32Z</time>
      </trkpt>
      <trkpt lat="28.7395830" lon="-17.7816480">
        <ele>1052.3</ele>
        <time>2020-11-16T09:42:33Z</time>
      </trkpt>
      <trkpt lat="28.7395730" lon="-17.7816670">
        <ele>1052.5</ele>
        <time>2020-11-16T09:42:34Z</time>
      </trkpt>
      <trkpt lat="28.7395730" lon="-17.7816670">
        <ele>1052.5</ele>
        <time>2020-11-16T09:42:35Z</time>
      </trkpt>
      <trkpt lat="28.7395670" lon="-17.7816850">
        <ele>1052.7</ele>
        <time>2020-11-16T09:42:36Z</time>
      </trkpt>
      <trkpt lat="28.7395670" lon="-17.7816850">
        <ele>1052.7</ele>
        <time>2020-11-16T09:42:37Z</time>
      </trkpt>
      <trkpt lat="28.7395570" lon="-17.7817020">
        <ele>1052.9</ele>
        <time>2020-11-16T09:42:38Z</time>
      </trkpt>
      <trkpt lat="28.7395570" lon="-17.7817020">
        <ele>1052.9</ele>
        <time>2020-11-16T09:42:39Z</time>
      </trkpt>
      <trkpt lat="28.7395470" lon="-17.7817150">
        <ele>1053.1</ele>
        <time>2020-11-16T09:42:40Z</time>
      </trkpt>
      <trkpt lat="28.7395400" lon="-17.7817270">
        <ele>1053.2</ele>
        <time>2020-11-16T09:42:41Z</time>
      </trkpt>
      <trkpt lat="28.7395400" lon="-17.7817270">
        <ele>1053.2</ele>
        <time>2020-11-16T09:42:42Z</time>
      </trkpt>
      <trkpt lat="28.7395320" lon="-17.7817420">
        <ele>1053.4</ele>
        <time>2020-11-16T09:42:43Z</time>
      </trkpt>
      <trkpt lat="28.7395320" lon="-17.7817420">
        <ele>1053.4</ele>
        <time>2020-11-16T09:42:44Z</time>
      </trkpt>
      <trkpt lat="28.7395180" lon="-17.7817530">
        <ele>1053.6</ele>
        <time>2020-11-16T09:42:45Z</time>
      </trkpt>
      <trkpt lat="28.7395150" lon="-17.7817600">
        <ele>1053.7</ele>
        <time>2020-11-16T09:42:46Z</time>
      </trkpt>
      <trkpt lat="28.7395150" lon="-17.7817600">
        <ele>1053.7</ele>
        <time>2020-11-16T09:42:47Z</time>
      </trkpt>
      <trkpt lat="28.7395080" lon="-17.7817780">
        <ele>1053.9</ele>
        <time>2020-11-16T09:42:48Z</time>
      </trkpt>
      <trkpt lat="28.7395070" lon="-17.7817880">
        <ele>1054.0</ele>
        <time>2020-11-16T09:42:49Z</time>
      </trkpt>
      <trkpt lat="28.7395070" lon="-17.7818000">
        <ele>1054.1</ele>
        <time>2020-11-16T09:42:50Z</time>
      </trkpt>
      <trkpt lat="28.7395070" lon="-17.7818000">
        <ele>1054.1</ele>
        <time>2020-11-16T09:42:51Z</time>
      </trkpt>
      <trkpt lat="28.7395080" lon="-17.7818330">
        <ele>1054.4</ele>
        <time>2020-11-16T09:42:52Z</time>
      </trkpt>
      <trkpt lat="28.7395120" lon="-17.7818470">
        <ele>1054.6</ele>
        <time>2020-11-16T09:42:53Z</time>
      </trkpt>
      <trkpt lat="28.7395120" lon="-17.7818620">
        <ele>1054.7</ele>
        <time>2020-11-16T09:42:54Z</time>
      </trkpt>
      <trkpt lat="28.7395120" lon="-17.7818620">
        <ele>1054.7</ele>
        <time>2020-11-16T09:42:55Z</time>
      </trkpt>
      <trkpt lat="28.7395100" lon="-17.7818820">
        <ele>1054.9</ele>
        <time>2020-11-16T09:42:56Z</time>
      </trkpt>
      <trkpt lat="28.7395100" lon="-17.7818820">
        <ele>1054.9</ele>
        <time>2020-11-16T09:42:57Z</time>
      </trkpt>
      <trkpt lat="28.7395050" lon="-17.7818930">
        <ele>1055.0</ele>
        <time>2020-11-16T09:42:58Z</time>
      </trkpt>
      <trkpt lat="28.7395050" lon="-17.7818930">
        <ele>1055.0</ele>
        <time>2020-11-16T09:42:59Z</time>
      </trkpt>
      <trkpt lat="28.7395080" lon="-17.7819120">
        <ele>1055.2</ele>
        <time>2020-11-16T09:43:00Z</time>
      </trkpt>
      <trkpt lat="28.7395080" lon="-17.7819220">
        <ele>1055.3</ele>
        <time>2020-11-16T09:43:01Z</time>
      </trkpt>
      <trkpt lat="28.7395080" lon="-17.7819280">
        <ele>1055.4</ele>
        <time>2020-11-16T09:43:02Z</time>
      </trkpt>
      <trkpt lat="28.7395080" lon="-17.7819280">
        <ele>1055.4</ele>
        <time>2020-11-16T09:43:03Z</time>
      </trkpt>
      <trkpt lat="28.7395080" lon="-17.7819380">
        <ele>1055.5</ele>
        <time>2020-11-16T09:43:04Z</time>
      </trkpt>
      <trkpt lat="28.7395100" lon="-17.7819430">
        <ele>1055.5</ele>
        <time>2020-11-16T09:43:05Z</time>
      </trkpt>
      <trkpt lat="28.7395100" lon="-17.7819430">
        <ele>1055.5</ele>
        <time>2020-11-16T09:43:06Z</time>
      </trkpt>
      <trkpt lat="28.7395130" lon="-17.7819530">
        <ele>1055.6</ele>
        <time>2020-11-16T09:43:07Z</time>
      </trkpt>
      <trkpt lat="28.7395150" lon="-17.7819580">
        <ele>1055.7</ele>
        <time>2020-11-16T09:43:08Z</time>
      </trkpt>
      <trkpt lat="28.7395150" lon="-17.7819580">
        <ele>1055.7</ele>
        <time>2020-11-16T09:43:09Z</time>
      </trkpt>
      <trkpt lat="28.7395120" lon="-17.7819780">
        <ele>1055.9</ele>
        <time>2020-11-16T09:43:10Z</time>
      </trkpt>
      <trkpt lat="28.7395120" lon="-17.7819780">
        <ele>1055.9</ele>
        <time>2020-11-16T09:43:11Z</time>
      </trkpt>
      <trkpt lat="28.7395130" lon="-17.7819950">
        <ele>1056.0</ele>
        <time>2020-11-16T09:43:12Z</time>
      </trkpt>
      <trkpt lat="28.7395130" lon="-17.7819950">
        <ele>1056.0</ele>
        <time>2020-11-16T09:43:13Z</time>
      </trkpt>
      <trkpt lat="28.7395100" lon="-17.7820120">
        <ele>1056.2</ele>
        <time>2020-11-16T09:43:14Z</time>
      </trkpt>
      <trkpt lat="28.7395070" lon="-17.7820180">
        <ele>1056.3</ele>
        <time>2020-11-16T09:43:15Z</time>
      </trkpt>
      <trkpt lat="28.7395070" lon="-17.7820180">
        <ele>1056.3</ele>
        <time>2020-11-16T09:43:16Z</time>
      </trkpt>
      <trkpt lat="28.7395070" lon="-17.7820320">
        <ele>1056.4</ele>
        <time>2020-11-16T09:43:17Z</time>
      </trkpt>
      <trkpt lat="28.7395070" lon="-17.7820320">
        <ele>1056.4</ele>
        <time>2020-11-16T09:43:18Z</time>
      </trkpt>
      <trkpt lat="28.7395050" lon="-17.7820530">
        <ele>1056.6</ele>
        <time>2020-11-16T09:43:19Z</time>
      </trkpt>
      <trkpt lat="28.7395000" lon="-17.7820620">
        <ele>1056.7</ele>
        <time>2020-11-16T09:43:20Z</time>
      </trkpt>
      <trkpt lat="28.7395000" lon="-17.7820700">
        <ele>1056.8</ele>
        <time>2020-11-16T09:43:21Z</time>
      </trkpt>
      <trkpt lat="28.7395000" lon="-17.7820700">
        <ele>1056.8</ele>
        <time>2020-11-16T09:43:22Z</time>
      </trkpt>
      <trkpt lat="28.7395020" lon="-17.7820900">
        <ele>1056.9</ele>
        <time>2020-11-16T09:43:23Z</time>
      </trkpt>
      <trkpt lat="28.7395020" lon="-17.7820980">
        <ele>1057.0</ele>
        <time>2020-11-16T09:43:24Z</time>
      </trkpt>
      <trkpt lat="28.7395020" lon="-17.7820980">
        <ele>1057.0</ele>
        <time>2020-11-16T09:43:25Z</time>
      </trkpt>
      <trkpt lat="28.7395170" lon="-17.7821220">
        <ele>1057.3</ele>
        <time>2020-11-16T09:43:26Z</time>
      </trkpt>
      <trkpt lat="28.7395170" lon="-17.7821220">
        <ele>1057.3</ele>
        <time>2020-11-16T09:43:27Z</time>
      </trkpt>
      <trkpt lat="28.7395230" lon="-17.7821430">
        <ele>1057.5</ele>
        <time>2020-11-16T09:43:28Z</time>
      </trkpt>
      <trkpt lat="28.7395250" lon="-17.7821530">
        <ele>1057.6</ele>
        <time>2020-11-16T09:43:29Z</time>
      </trkpt>
      <trkpt lat="28.7395250" lon="-17.7821530">
        <ele>1057.6</ele>
        <time>2020-11-16T09:43:30Z</time>
      </trkpt>
      <trkpt lat="28.7395200" lon="-17.7821730">
        <ele>1057.8</ele>
        <time>2020-11-16T09:43:31Z</time>
      </trkpt>
      <trkpt lat="28.7395200" lon="-17.7821730">
        <ele>1057.8</ele>
        <time>2020-11-16T09:43:32Z</time>
      </trkpt>
      <trkpt lat="28.7395220" lon="-17.7821880">
        <ele>1057.9</ele>
        <time>2020-11-16T09:43:33Z</time>
      </trkpt>
      <trkpt lat="28.7395220" lon="-17.7821880">
        <ele>1057.9</ele>
        <time>2020-11-16T09:43:34Z</time>
      </trkpt>
      <trkpt lat="28.7395250" lon="-17.7822050">
        <ele>1058.1</ele>
        <time>2020-11-16T09:43:35Z</time>
      </trkpt>
      <trkpt lat="28.7395250" lon="-17.7822120">
        <ele>1058.1</ele>
        <time>2020-11-16T09:43:36Z</time>
      </trkpt>
      <trkpt lat="28.7395250" lon="-17.7822120">
        <ele>1058.1</ele>
        <time>2020-11-16T09:43:37Z</time>
      </trkpt>
      <trkpt lat="28.7395270" lon="-17.7822230">
        <ele>1058.2</ele>
        <time>2020-11-16T09:43:38Z</time>
      </trkpt>
      <trkpt lat="28.7395250" lon="-17.7822330">
        <ele>1058.3</ele>
        <time>2020-11-16T09:43:39Z</time>
      </trkpt>
      <trkpt lat="28.7395220" lon="-17.7822480">
        <ele>1058.4</ele>
        <time>2020-11-16T09:43:40Z</time>
      </trkpt>
      <trkpt lat="28.7395220" lon="-17.7822480">
        <ele>1058.4</ele>
        <time>2020-11-16T09:43:41Z</time>
      </trkpt>
      <trkpt lat="28.7395130" lon="-17.7822720">
        <ele>1058.7</ele>
        <time>2020-11-16T09:43:42Z</time>
      </trkpt>
      <trkpt lat="28.7395130" lon="-17.7822720">
        <ele>1058.7</ele>
        <time>2020-11-16T09:43:43Z</time>
      </trkpt>
      <trkpt lat="28.7395170" lon="-17.7822930">
        <ele>1058.8</ele>
        <time>2020-11-16T09:43:44Z</time>
      </trkpt>
      <trkpt lat="28.7395170" lon="-17.7822930">
        <ele>1058.8</ele>
        <time>2020-11-16T09:43:45Z</time>
      </trkpt>
      <trkpt lat="28.7395150" lon="-17.7823080">
        <ele>1059.0</ele>
        <time>2020-11-16T09:43:46Z</time>
      </trkpt>
      <trkpt lat="28.7395150" lon="-17.7823150">
        <ele>1059.0</ele>
        <time>2020-11-16T09:43:47Z</time>
      </trkpt>
      <trkpt lat="28.7395150" lon="-17.7823150">
        <ele>1059.0</ele>
        <time>2020-11-16T09:43:48Z</time>
      </trkpt>
      <trkpt lat="28.7395230" lon="-17.7823320">
        <ele>1059.2</ele>
        <time>2020-11-16T09:43:49Z</time>
      </trkpt>
      <trkpt lat="28.7395250" lon="-17.7823380">
        <ele>1059.2</ele>
        <time>2020-11-16T09:43:50Z</time>
      </trkpt>
      <trkpt lat="28.7395350" lon="-17.7823430">
        <ele>1059.3</ele>
        <time>2020-11-16T09:43:51Z</time>
      </trkpt>
      <trkpt lat="28.7395350" lon="-17.7823430">
        <ele>1059.3</ele>
        <time>2020-11-16T09:43:52Z</time>
      </trkpt>
      <trkpt lat="28.7395500" lon="-17.7823480">
        <ele>1059.5</ele>
        <time>2020-11-16T09:43:53Z</time>
      </trkpt>
      <trkpt lat="28.7395500" lon="-17.7823480">
        <ele>1059.5</ele>
        <time>2020-11-16T09:43:54Z</time>
      </trkpt>
      <trkpt lat="28.7395670" lon="-17.7823570">
        <ele>1059.7</ele>
        <time>2020-11-16T09:43:55Z</time>
      </trkpt>
      <trkpt lat="28.7395700" lon="-17.7823550">
        <ele>1059.7</ele>
        <time>2020-11-16T09:43:56Z</time>
      </trkpt>
      <trkpt lat="28.7395700" lon="-17.7823550">
        <ele>1059.7</ele>
        <time>2020-11-16T09:43:57Z</time>
      </trkpt>
      <trkpt lat="28.7395880" lon="-17.7823670">
        <ele>1060.0</ele>
        <time>2020-11-16T09:43:58Z</time>
      </trkpt>
      <trkpt lat="28.7395880" lon="-17.7823670">
        <ele>1060.0</ele>
        <time>2020-11-16T09:43:59Z</time>
      </trkpt>
      <trkpt lat="28.7396030" lon="-17.7823850">
        <ele>1060.2</ele>
        <time>2020-11-16T09:44:00Z</time>
      </trkpt>
      <trkpt lat="28.7396200" lon="-17.7823980">
        <ele>1060.5</ele>
        <time>2020-11-16T09:44:01Z</time>
      </trkpt>
      <trkpt lat="28.7396320" lon="-17.7824050">
        <ele>1060.7</ele>
        <time>2020-11-16T09:44:02Z</time>
      </trkpt>
      <trkpt lat="28.7396320" lon="-17.7824050">
        <ele>1060.7</ele>
        <time>2020-11-16T09:44:03Z</time>
      </trkpt>
      <trkpt lat="28.7396470" lon="-17.7824180">
        <ele>1060.9</ele>
        <time>2020-11-16T09:44:04Z</time>
      </trkpt>
      <trkpt lat="28.7396470" lon="-17.7824180">
        <ele>1060.9</ele>
        <time>2020-11-16T09:44:05Z</time>
      </trkpt>
      <trkpt lat="28.7396680" lon="-17.7824450">
        <ele>1061.3</ele>
        <time>2020-11-16T09:44:06Z</time>
      </trkpt>
      <trkpt lat="28.7396720" lon="-17.7824520">
        <ele>1061.4</ele>
        <time>2020-11-16T09:44:07Z</time>
      </trkpt>
      <trkpt lat="28.7396720" lon="-17.7824520">
        <ele>1061.4</ele>
        <time>2020-11-16T09:44:08Z</time>
      </trkpt>
      <trkpt lat="28.7397100" lon="-17.7824750">
        <ele>1061.9</ele>
        <time>2020-11-16T09:44:09Z</time>
      </trkpt>
      <trkpt lat="28.7397100" lon="-17.7824750">
        <ele>1061.9</ele>
        <time>2020-11-16T09:44:10Z</time>
      </trkpt>
      <trkpt lat="28.7397300" lon="-17.7824950">
        <ele>1062.2</ele>
        <time>2020-11-16T09:44:11Z</time>
      </trkpt>
      <trkpt lat="28.7397380" lon="-17.7825070">
        <ele>1062.4</ele>
        <time>2020-11-16T09:44:12Z</time>
      </trkpt>
      <trkpt lat="28.7397380" lon="-17.7825070">
        <ele>1062.4</ele>
        <time>2020-11-16T09:44:13Z</time>
      </trkpt>
      <trkpt lat="28.7397550" lon="-17.7825080">
        <ele>1062.6</ele>
        <time>2020-11-16T09:44:14Z</time>
      </trkpt>
      <trkpt lat="28.7397550" lon="-17.7825080">
        <ele>1062.6</ele>
        <time>2020-11-16T09:44:15Z</time>
      </trkpt>
      <trkpt lat="28.7398380" lon="-17.7825600">
        <ele>1063.7</ele>
        <time>2020-11-16T09:44:16Z</time>
      </trkpt>
      <trkpt lat="28.7398620" lon="-17.7825650">
        <ele>1064.0</ele>
        <time>2020-11-16T09:44:17Z</time>
      </trkpt>
      <trkpt lat="28.7398620" lon="-17.7825650">
        <ele>1064.0</ele>
        <time>2020-11-16T09:44:18Z</time>
      </trkpt>
      <trkpt lat="28.7398850" lon="-17.7825680">
        <ele>1064.3</ele>
        <time>2020-11-16T09:44:19Z</time>
      </trkpt>
      <trkpt lat="28.7398850" lon="-17.7825680">
        <ele>1064.3</ele>
        <time>2020-11-16T09:44:20Z</time>
      </trkpt>
      <trkpt lat="28.7399200" lon="-17.7825700">
        <ele>1064.6</ele>
        <time>2020-11-16T09:44:21Z</time>
      </trkpt>
      <trkpt lat="28.7399200" lon="-17.7825700">
        <ele>1064.6</ele>
        <time>2020-11-16T09:44:22Z</time>
      </trkpt>
      <trkpt lat="28.7399580" lon="-17.7825800">
        <ele>1065.0</ele>
        <time>2020-11-16T09:44:23Z</time>
      </trkpt>
      <trkpt lat="28.7399580" lon="-17.7825800">
        <ele>1065.0</ele>
        <time>2020-11-16T09:44:24Z</time>
      </trkpt>
      <trkpt lat="28.7399780" lon="-17.7825850">
        <ele>1065.2</ele>
        <time>2020-11-16T09:44:25Z</time>
      </trkpt>
      <trkpt lat="28.7399780" lon="-17.7825850">
        <ele>1065.2</ele>
        <time>2020-11-16T09:44:26Z</time>
      </trkpt>
      <trkpt lat="28.7400050" lon="-17.7825900">
        <ele>1065.5</ele>
        <time>2020-11-16T09:44:27Z</time>
      </trkpt>
      <trkpt lat="28.7400050" lon="-17.7825900">
        <ele>1065.5</ele>
        <time>2020-11-16T09:44:28Z</time>
      </trkpt>
      <trkpt lat="28.7400320" lon="-17.7825880">
        <ele>1065.7</ele>
        <time>2020-11-16T09:44:29Z</time>
      </trkpt>
      <trkpt lat="28.7400320" lon="-17.7825880">
        <ele>1065.7</ele>
        <time>2020-11-16T09:44:30Z</time>
      </trkpt>
      <trkpt lat="28.7400450" lon="-17.7825930">
        <ele>1065.8</ele>
        <time>2020-11-16T09:44:31Z</time>
      </trkpt>
      <trkpt lat="28.7400470" lon="-17.7825930">
        <ele>1065.8</ele>
        <time>2020-11-16T09:44:32Z</time>
      </trkpt>
      <trkpt lat="28.7400530" lon="-17.7825980">
        <ele>1065.9</ele>
        <time>2020-11-16T09:44:33Z</time>
      </trkpt>
      <trkpt lat="28.7400530" lon="-17.7825980">
        <ele>1065.9</ele>
        <time>2020-11-16T09:44:34Z</time>
      </trkpt>
      <trkpt lat="28.7400670" lon="-17.7826030">
        <ele>1066.0</ele>
        <time>2020-11-16T09:44:35Z</time>
      </trkpt>
      <trkpt lat="28.7400670" lon="-17.7826030">
        <ele>1066.0</ele>
        <time>2020-11-16T09:44:36Z</time>
      </trkpt>
      <trkpt lat="28.7400830" lon="-17.7825980">
        <ele>1066.1</ele>
        <time>2020-11-16T09:44:37Z</time>
      </trkpt>
      <trkpt lat="28.7400900" lon="-17.7826000">
        <ele>1066.2</ele>
        <time>2020-11-16T09:44:38Z</time>
      </trkpt>
      <trkpt lat="28.7400900" lon="-17.7826000">
        <ele>1066.2</ele>
        <time>2020-11-16T09:44:39Z</time>
      </trkpt>
      <trkpt lat="28.7400930" lon="-17.7825970">
        <ele>1066.2</ele>
        <time>2020-11-16T09:44:40Z</time>
      </trkpt>
      <trkpt lat="28.7400930" lon="-17.7825970">
        <ele>1066.2</ele>
        <time>2020-11-16T09:44:41Z</time>
      </trkpt>
      <trkpt lat="28.7401080" lon="-17.7825900">
        <ele>1066.3</ele>
        <time>2020-11-16T09:44:42Z</time>
      </trkpt>
      <trkpt lat="28.7401080" lon="-17.7825900">
        <ele>1066.3</ele>
        <time>2020-11-16T09:44:43Z</time>
      </trkpt>
      <trkpt lat="28.7401230" lon="-17.7825770">
        <ele>1066.5</ele>
        <time>2020-11-16T09:44:44Z</time>
      </trkpt>
      <trkpt lat="28.7401230" lon="-17.7825770">
        <ele>1066.5</ele>
        <time>2020-11-16T09:44:45Z</time>
      </trkpt>
      <trkpt lat="28.7401400" lon="-17.7825500">
        <ele>1066.7</ele>
        <time>2020-11-16T09:44:46Z</time>
      </trkpt>
      <trkpt lat="28.7401400" lon="-17.7825500">
        <ele>1066.7</ele>
        <time>2020-11-16T09:44:47Z</time>
      </trkpt>
      <trkpt lat="28.7401600" lon="-17.7825300">
        <ele>1067.0</ele>
        <time>2020-11-16T09:44:48Z</time>
      </trkpt>
      <trkpt lat="28.7401730" lon="-17.7825280">
        <ele>1067.1</ele>
        <time>2020-11-16T09:44:49Z</time>
      </trkpt>
      <trkpt lat="28.7401730" lon="-17.7825280">
        <ele>1067.1</ele>
        <time>2020-11-16T09:44:50Z</time>
      </trkpt>
      <trkpt lat="28.7401930" lon="-17.7825280">
        <ele>1067.3</ele>
        <time>2020-11-16T09:44:51Z</time>
      </trkpt>
      <trkpt lat="28.7401930" lon="-17.7825280">
        <ele>1067.3</ele>
        <time>2020-11-16T09:44:52Z</time>
      </trkpt>
      <trkpt lat="28.7402180" lon="-17.7825270">
        <ele>1067.5</ele>
        <time>2020-11-16T09:44:53Z</time>
      </trkpt>
      <trkpt lat="28.7402180" lon="-17.7825270">
        <ele>1067.5</ele>
        <time>2020-11-16T09:44:54Z</time>
      </trkpt>
      <trkpt lat="28.7402370" lon="-17.7825270">
        <ele>1067.7</ele>
        <time>2020-11-16T09:44:55Z</time>
      </trkpt>
      <trkpt lat="28.7402400" lon="-17.7825320">
        <ele>1067.7</ele>
        <time>2020-11-16T09:44:56Z</time>
      </trkpt>
      <trkpt lat="28.7402450" lon="-17.7825350">
        <ele>1067.8</ele>
        <time>2020-11-16T09:44:57Z</time>
      </trkpt>
      <trkpt lat="28.7402530" lon="-17.7825400">
        <ele>1067.9</ele>
        <time>2020-11-16T09:44:58Z</time>
      </trkpt>
      <trkpt lat="28.7402530" lon="-17.7825400">
        <ele>1067.9</ele>
        <time>2020-11-16T09:44:59Z</time>
      </trkpt>
      <trkpt lat="28.7402830" lon="-17.7825580">
        <ele>1068.2</ele>
        <time>2020-11-16T09:45:00Z</time>
      </trkpt>
      <trkpt lat="28.7402830" lon="-17.7825580">
        <ele>1068.2</ele>
        <time>2020-11-16T09:45:01Z</time>
      </trkpt>
      <trkpt lat="28.7403050" lon="-17.7825850">
        <ele>1068.4</ele>
        <time>2020-11-16T09:45:02Z</time>
      </trkpt>
      <trkpt lat="28.7403050" lon="-17.7825850">
        <ele>1068.4</ele>
        <time>2020-11-16T09:45:03Z</time>
      </trkpt>
      <trkpt lat="28.7403280" lon="-17.7826130">
        <ele>1068.7</ele>
        <time>2020-11-16T09:45:04Z</time>
      </trkpt>
      <trkpt lat="28.7403280" lon="-17.7826130">
        <ele>1068.7</ele>
        <time>2020-11-16T09:45:05Z</time>
      </trkpt>
      <trkpt lat="28.7403420" lon="-17.7826320">
        <ele>1068.9</ele>
        <time>2020-11-16T09:45:06Z</time>
      </trkpt>
      <trkpt lat="28.7403420" lon="-17.7826320">
        <ele>1068.9</ele>
        <time>2020-11-16T09:45:07Z</time>
      </trkpt>
      <trkpt lat="28.7403480" lon="-17.7826520">
        <ele>1069.1</ele>
        <time>2020-11-16T09:45:08Z</time>
      </trkpt>
      <trkpt lat="28.7403480" lon="-17.7826520">
        <ele>1069.1</ele>
        <time>2020-11-16T09:45:09Z</time>
      </trkpt>
      <trkpt lat="28.7403530" lon="-17.7826630">
        <ele>1069.1</ele>
        <time>2020-11-16T09:45:10Z</time>
      </trkpt>
      <trkpt lat="28.7403530" lon="-17.7826630">
        <ele>1069.1</ele>
        <time>2020-11-16T09:45:11Z</time>
      </trkpt>
      <trkpt lat="28.7403600" lon="-17.7826750">
        <ele>1069.3</ele>
        <time>2020-11-16T09:45:12Z</time>
      </trkpt>
      <trkpt lat="28.7403570" lon="-17.7826830">
        <ele>1069.3</ele>
        <time>2020-11-16T09:45:13Z</time>
      </trkpt>
      <trkpt lat="28.7403570" lon="-17.7826830">
        <ele>1069.3</ele>
        <time>2020-11-16T09:45:14Z</time>
      </trkpt>
      <trkpt lat="28.7403550" lon="-17.7827000">
        <ele>1069.4</ele>
        <time>2020-11-16T09:45:15Z</time>
      </trkpt>
      <trkpt lat="28.7403600" lon="-17.7827050">
        <ele>1069.5</ele>
        <time>2020-11-16T09:45:16Z</time>
      </trkpt>
      <trkpt lat="28.7403600" lon="-17.7827050">
        <ele>1069.5</ele>
        <time>2020-11-16T09:45:17Z</time>
      </trkpt>
      <trkpt lat="28.7403680" lon="-17.7827150">
        <ele>1069.6</ele>
        <time>2020-11-16T09:45:18Z</time>
      </trkpt>
      <trkpt lat="28.7403680" lon="-17.7827150">
        <ele>1069.6</ele>
        <time>2020-11-16T09:45:19Z</time>
      </trkpt>
      <trkpt lat="28.7403680" lon="-17.7827220">
        <ele>1069.6</ele>
        <time>2020-11-16T09:45:20Z</time>
      </trkpt>
      <trkpt lat="28.7403680" lon="-17.7827220">
        <ele>1069.6</ele>
        <time>2020-11-16T09:45:21Z</time>
      </trkpt>
      <trkpt lat="28.7403720" lon="-17.7827330">
        <ele>1069.7</ele>
        <time>2020-11-16T09:45:22Z</time>
      </trkpt>
      <trkpt lat="28.7403720" lon="-17.7827330">
        <ele>1069.7</ele>
        <time>2020-11-16T09:45:23Z</time>
      </trkpt>
      <trkpt lat="28.7403780" lon="-17.7827480">
        <ele>1069.8</ele>
        <time>2020-11-16T09:45:24Z</time>
      </trkpt>
      <trkpt lat="28.7403780" lon="-17.7827480">
        <ele>1069.8</ele>
        <time>2020-11-16T09:45:25Z</time>
      </trkpt>
      <trkpt lat="28.7403800" lon="-17.7827570">
        <ele>1069.9</ele>
        <time>2020-11-16T09:45:26Z</time>
      </trkpt>
      <trkpt lat="28.7403800" lon="-17.7827570">
        <ele>1069.9</ele>
        <time>2020-11-16T09:45:27Z</time>
      </trkpt>
      <trkpt lat="28.7403900" lon="-17.7827680">
        <ele>1070.0</ele>
        <time>2020-11-16T09:45:28Z</time>
      </trkpt>
      <trkpt lat="28.7403970" lon="-17.7827850">
        <ele>1070.2</ele>
        <time>2020-11-16T09:45:29Z</time>
      </trkpt>
      <trkpt lat="28.7403970" lon="-17.7827850">
        <ele>1070.2</ele>
        <time>2020-11-16T09:45:30Z</time>
      </trkpt>
      <trkpt lat="28.7404050" lon="-17.7828050">
        <ele>1070.3</ele>
        <time>2020-11-16T09:45:31Z</time>
      </trkpt>
      <trkpt lat="28.7404150" lon="-17.7828150">
        <ele>1070.5</ele>
        <time>2020-11-16T09:45:32Z</time>
      </trkpt>
      <trkpt lat="28.7404150" lon="-17.7828150">
        <ele>1070.5</ele>
        <time>2020-11-16T09:45:33Z</time>
      </trkpt>
      <trkpt lat="28.7404400" lon="-17.7828400">
        <ele>1070.8</ele>
        <time>2020-11-16T09:45:34Z</time>
      </trkpt>
      <trkpt lat="28.7404400" lon="-17.7828400">
        <ele>1070.8</ele>
        <time>2020-11-16T09:45:35Z</time>
      </trkpt>
      <trkpt lat="28.7404400" lon="-17.7828600">
        <ele>1070.9</ele>
        <time>2020-11-16T09:45:36Z</time>
      </trkpt>
      <trkpt lat="28.7404400" lon="-17.7828600">
        <ele>1070.9</ele>
        <time>2020-11-16T09:45:37Z</time>
      </trkpt>
      <trkpt lat="28.7404170" lon="-17.7828920">
        <ele>1071.3</ele>
        <time>2020-11-16T09:45:38Z</time>
      </trkpt>
      <trkpt lat="28.7404180" lon="-17.7829030">
        <ele>1071.4</ele>
        <time>2020-11-16T09:45:39Z</time>
      </trkpt>
      <trkpt lat="28.7404220" lon="-17.7829130">
        <ele>1071.4</ele>
        <time>2020-11-16T09:45:40Z</time>
      </trkpt>
      <trkpt lat="28.7404220" lon="-17.7829130">
        <ele>1071.4</ele>
        <time>2020-11-16T09:45:41Z</time>
      </trkpt>
      <trkpt lat="28.7404300" lon="-17.7829370">
        <ele>1071.7</ele>
        <time>2020-11-16T09:45:42Z</time>
      </trkpt>
      <trkpt lat="28.7404430" lon="-17.7829480">
        <ele>1071.8</ele>
        <time>2020-11-16T09:45:43Z</time>
      </trkpt>
      <trkpt lat="28.7404430" lon="-17.7829580">
        <ele>1071.9</ele>
        <time>2020-11-16T09:45:44Z</time>
      </trkpt>
      <trkpt lat="28.7404430" lon="-17.7829580">
        <ele>1071.9</ele>
        <time>2020-11-16T09:45:45Z</time>
      </trkpt>
      <trkpt lat="28.7404550" lon="-17.7829800">
        <ele>1072.1</ele>
        <time>2020-11-16T09:45:46Z</time>
      </trkpt>
      <trkpt lat="28.7404550" lon="-17.7829800">
        <ele>1072.1</ele>
        <time>2020-11-16T09:45:47Z</time>
      </trkpt>
      <trkpt lat="28.7404720" lon="-17.7830100">
        <ele>1072.3</ele>
        <time>2020-11-16T09:45:48Z</time>
      </trkpt>
      <trkpt lat="28.7404720" lon="-17.7830100">
        <ele>1072.3</ele>
        <time>2020-11-16T09:45:49Z</time>
      </trkpt>
      <trkpt lat="28.7404720" lon="-17.7830250">
        <ele>1072.4</ele>
        <time>2020-11-16T09:45:50Z</time>
      </trkpt>
      <trkpt lat="28.7404720" lon="-17.7830250">
        <ele>1072.4</ele>
        <time>2020-11-16T09:45:51Z</time>
      </trkpt>
      <trkpt lat="28.7404700" lon="-17.7830400">
        <ele>1072.5</ele>
        <time>2020-11-16T09:45:52Z</time>
      </trkpt>
      <trkpt lat="28.7404700" lon="-17.7830400">
        <ele>1072.5</ele>
        <time>2020-11-16T09:45:53Z</time>
      </trkpt>
      <trkpt lat="28.7404720" lon="-17.7830520">
        <ele>1072.6</ele>
        <time>2020-11-16T09:45:54Z</time>
      </trkpt>
      <trkpt lat="28.7404700" lon="-17.7830620">
        <ele>1072.7</ele>
        <time>2020-11-16T09:45:55Z</time>
      </trkpt>
      <trkpt lat="28.7404700" lon="-17.7830620">
        <ele>1072.7</ele>
        <time>2020-11-16T09:45:56Z</time>
      </trkpt>
      <trkpt lat="28.7404770" lon="-17.7830780">
        <ele>1072.8</ele>
        <time>2020-11-16T09:45:57Z</time>
      </trkpt>
      <trkpt lat="28.7404770" lon="-17.7830780">
        <ele>1072.8</ele>
        <time>2020-11-16T09:45:58Z</time>
      </trkpt>
      <trkpt lat="28.7404730" lon="-17.7830830">
        <ele>1072.8</ele>
        <time>2020-11-16T09:45:59Z</time>
      </trkpt>
      <trkpt lat="28.7404730" lon="-17.7830920">
        <ele>1072.9</ele>
        <time>2020-11-16T09:46:00Z</time>
      </trkpt>
      <trkpt lat="28.7404720" lon="-17.7830980">
        <ele>1072.9</ele>
        <time>2020-11-16T09:46:01Z</time>
      </trkpt>
      <trkpt lat="28.7404720" lon="-17.7830980">
        <ele>1072.9</ele>
        <time>2020-11-16T09:46:02Z</time>
      </trkpt>
      <trkpt lat="28.7404720" lon="-17.7830980">
        <ele>1072.9</ele>
        <time>2020-11-16T09:46:03Z</time>
      </trkpt>
      <trkpt lat="28.7404780" lon="-17.7831280">
        <ele>1073.1</ele>
        <time>2020-11-16T09:46:04Z</time>
      </trkpt>
      <trkpt lat="28.7404780" lon="-17.7831280">
        <ele>1073.1</ele>
        <time>2020-11-16T09:46:05Z</time>
      </trkpt>
      <trkpt lat="28.7404880" lon="-17.7831480">
        <ele>1073.2</ele>
        <time>2020-11-16T09:46:06Z</time>
      </trkpt>
      <trkpt lat="28.7404880" lon="-17.7831480">
        <ele>1073.2</ele>
        <time>2020-11-16T09:46:07Z</time>
      </trkpt>
      <trkpt lat="28.7404850" lon="-17.7831650">
        <ele>1073.3</ele>
        <time>2020-11-16T09:46:08Z</time>
      </trkpt>
      <trkpt lat="28.7404850" lon="-17.7831650">
        <ele>1073.3</ele>
        <time>2020-11-16T09:46:09Z</time>
      </trkpt>
      <trkpt lat="28.7404900" lon="-17.7831880">
        <ele>1073.5</ele>
        <time>2020-11-16T09:46:10Z</time>
      </trkpt>
      <trkpt lat="28.7404880" lon="-17.7831980">
        <ele>1073.5</ele>
        <time>2020-11-16T09:46:11Z</time>
      </trkpt>
      <trkpt lat="28.7404880" lon="-17.7831980">
        <ele>1073.5</ele>
        <time>2020-11-16T09:46:12Z</time>
      </trkpt>
      <trkpt lat="28.7404970" lon="-17.7832270">
        <ele>1073.7</ele>
        <time>2020-11-16T09:46:13Z</time>
      </trkpt>
      <trkpt lat="28.7404970" lon="-17.7832420">
        <ele>1073.8</ele>
        <time>2020-11-16T09:46:14Z</time>
      </trkpt>
      <trkpt lat="28.7404970" lon="-17.7832420">
        <ele>1073.8</ele>
        <time>2020-11-16T09:46:15Z</time>
      </trkpt>
      <trkpt lat="28.7404980" lon="-17.7832830">
        <ele>1074.0</ele>
        <time>2020-11-16T09:46:16Z</time>
      </trkpt>
      <trkpt lat="28.7404980" lon="-17.7832830">
        <ele>1074.0</ele>
        <time>2020-11-16T09:46:17Z</time>
      </trkpt>
      <trkpt lat="28.7405030" lon="-17.7833370">
        <ele>1074.4</ele>
        <time>2020-11-16T09:46:18Z</time>
      </trkpt>
      <trkpt lat="28.7405030" lon="-17.7833370">
        <ele>1074.4</ele>
        <time>2020-11-16T09:46:19Z</time>
      </trkpt>
      <trkpt lat="28.7405180" lon="-17.7833580">
        <ele>1074.5</ele>
        <time>2020-11-16T09:46:20Z</time>
      </trkpt>
      <trkpt lat="28.7405180" lon="-17.7833580">
        <ele>1074.5</ele>
        <time>2020-11-16T09:46:21Z</time>
      </trkpt>
      <trkpt lat="28.7405330" lon="-17.7833750">
        <ele>1074.6</ele>
        <time>2020-11-16T09:46:22Z</time>
      </trkpt>
      <trkpt lat="28.7405330" lon="-17.7833750">
        <ele>1074.6</ele>
        <time>2020-11-16T09:46:23Z</time>
      </trkpt>
      <trkpt lat="28.7405480" lon="-17.7833830">
        <ele>1074.8</ele>
        <time>2020-11-16T09:46:24Z</time>
      </trkpt>
      <trkpt lat="28.7405500" lon="-17.7833870">
        <ele>1074.8</ele>
        <time>2020-11-16T09:46:25Z</time>
      </trkpt>
      <trkpt lat="28.7405500" lon="-17.7833870">
        <ele>1074.8</ele>
        <time>2020-11-16T09:46:26Z</time>
      </trkpt>
      <trkpt lat="28.7405880" lon="-17.7834030">
        <ele>1075.1</ele>
        <time>2020-11-16T09:46:27Z</time>
      </trkpt>
      <trkpt lat="28.7405880" lon="-17.7834030">
        <ele>1075.1</ele>
        <time>2020-11-16T09:46:28Z</time>
      </trkpt>
      <trkpt lat="28.7406100" lon="-17.7834100">
        <ele>1075.2</ele>
        <time>2020-11-16T09:46:29Z</time>
      </trkpt>
      <trkpt lat="28.7406100" lon="-17.7834100">
        <ele>1075.2</ele>
        <time>2020-11-16T09:46:30Z</time>
      </trkpt>
      <trkpt lat="28.7406370" lon="-17.7834120">
        <ele>1075.5</ele>
        <time>2020-11-16T09:46:31Z</time>
      </trkpt>
      <trkpt lat="28.7406500" lon="-17.7834120">
        <ele>1075.6</ele>
        <time>2020-11-16T09:46:32Z</time>
      </trkpt>
      <trkpt lat="28.7406500" lon="-17.7834120">
        <ele>1075.6</ele>
        <time>2020-11-16T09:46:33Z</time>
      </trkpt>
      <trkpt lat="28.7406780" lon="-17.7834120">
        <ele>1075.8</ele>
        <time>2020-11-16T09:46:34Z</time>
      </trkpt>
      <trkpt lat="28.7406780" lon="-17.7834120">
        <ele>1075.8</ele>
        <time>2020-11-16T09:46:35Z</time>
      </trkpt>
      <trkpt lat="28.7406950" lon="-17.7834100">
        <ele>1075.9</ele>
        <time>2020-11-16T09:46:36Z</time>
      </trkpt>
      <trkpt lat="28.7406950" lon="-17.7834100">
        <ele>1075.9</ele>
        <time>2020-11-16T09:46:37Z</time>
      </trkpt>
      <trkpt lat="28.7407170" lon="-17.7834100">
        <ele>1076.1</ele>
        <time>2020-11-16T09:46:38Z</time>
      </trkpt>
      <trkpt lat="28.7407170" lon="-17.7834100">
        <ele>1076.1</ele>
        <time>2020-11-16T09:46:39Z</time>
      </trkpt>
      <trkpt lat="28.7407370" lon="-17.7834100">
        <ele>1076.3</ele>
        <time>2020-11-16T09:46:40Z</time>
      </trkpt>
      <trkpt lat="28.7407370" lon="-17.7834100">
        <ele>1076.3</ele>
        <time>2020-11-16T09:46:41Z</time>
      </trkpt>
      <trkpt lat="28.7407570" lon="-17.7834050">
        <ele>1076.5</ele>
        <time>2020-11-16T09:46:42Z</time>
      </trkpt>
      <trkpt lat="28.7407570" lon="-17.7834050">
        <ele>1076.5</ele>
        <time>2020-11-16T09:46:43Z</time>
      </trkpt>
      <trkpt lat="28.7408000" lon="-17.7834400">
        <ele>1076.9</ele>
        <time>2020-11-16T09:46:44Z</time>
      </trkpt>
      <trkpt lat="28.7408000" lon="-17.7834400">
        <ele>1076.9</ele>
        <time>2020-11-16T09:46:45Z</time>
      </trkpt>
      <trkpt lat="28.7408280" lon="-17.7834570">
        <ele>1077.1</ele>
        <time>2020-11-16T09:46:46Z</time>
      </trkpt>
      <trkpt lat="28.7408370" lon="-17.7834580">
        <ele>1077.2</ele>
        <time>2020-11-16T09:46:47Z</time>
      </trkpt>
      <trkpt lat="28.7408370" lon="-17.7834580">
        <ele>1077.2</ele>
        <time>2020-11-16T09:46:48Z</time>
      </trkpt>
      <trkpt lat="28.7408430" lon="-17.7834580">
        <ele>1077.3</ele>
        <time>2020-11-16T09:46:49Z</time>
      </trkpt>
      <trkpt lat="28.7408430" lon="-17.7834580">
        <ele>1077.3</ele>
        <time>2020-11-16T09:46:50Z</time>
      </trkpt>
      <trkpt lat="28.7408470" lon="-17.7834550">
        <ele>1077.3</ele>
        <time>2020-11-16T09:46:51Z</time>
      </trkpt>
      <trkpt lat="28.7408470" lon="-17.7834550">
        <ele>1077.3</ele>
        <time>2020-11-16T09:48:52Z</time>
      </trkpt>
      <trkpt lat="28.7409000" lon="-17.7834400">
        <ele>1077.8</ele>
        <time>2020-11-16T09:48:53Z</time>
      </trkpt>
      <trkpt lat="28.7409000" lon="-17.7834400">
        <ele>1077.8</ele>
        <time>2020-11-16T09:48:54Z</time>
      </trkpt>
      <trkpt lat="28.7409130" lon="-17.7834370">
        <ele>1077.9</ele>
        <time>2020-11-16T09:48:55Z</time>
      </trkpt>
      <trkpt lat="28.7409200" lon="-17.7834330">
        <ele>1077.9</ele>
        <time>2020-11-16T09:48:56Z</time>
      </trkpt>
      <trkpt lat="28.7409200" lon="-17.7834330">
        <ele>1077.9</ele>
        <time>2020-11-16T09:48:57Z</time>
      </trkpt>
      <trkpt lat="28.7409400" lon="-17.7834330">
        <ele>1078.1</ele>
        <time>2020-11-16T09:48:58Z</time>
      </trkpt>
      <trkpt lat="28.7409480" lon="-17.7834380">
        <ele>1078.1</ele>
        <time>2020-11-16T09:48:59Z</time>
      </trkpt>
      <trkpt lat="28.7409570" lon="-17.7834420">
        <ele>1078.2</ele>
        <time>2020-11-16T09:49:00Z</time>
      </trkpt>
      <trkpt lat="28.7409570" lon="-17.7834420">
        <ele>1078.2</ele>
        <time>2020-11-16T09:49:01Z</time>
      </trkpt>
      <trkpt lat="28.7409720" lon="-17.7834520">
        <ele>1078.4</ele>
        <time>2020-11-16T09:49:02Z</time>
      </trkpt>
      <trkpt lat="28.7409720" lon="-17.7834520">
        <ele>1078.4</ele>
        <time>2020-11-16T09:49:03Z</time>
      </trkpt>
      <trkpt lat="28.7409820" lon="-17.7834550">
        <ele>1078.5</ele>
        <time>2020-11-16T09:49:04Z</time>
      </trkpt>
      <trkpt lat="28.7409880" lon="-17.7834620">
        <ele>1078.5</ele>
        <time>2020-11-16T09:49:05Z</time>
      </trkpt>
      <trkpt lat="28.7410030" lon="-17.7834720">
        <ele>1078.7</ele>
        <time>2020-11-16T09:49:06Z</time>
      </trkpt>
      <trkpt lat="28.7410030" lon="-17.7834720">
        <ele>1078.7</ele>
        <time>2020-11-16T09:49:07Z</time>
      </trkpt>
      <trkpt lat="28.7410170" lon="-17.7834850">
        <ele>1078.8</ele>
        <time>2020-11-16T09:49:08Z</time>
      </trkpt>
      <trkpt lat="28.7410170" lon="-17.7834850">
        <ele>1078.8</ele>
        <time>2020-11-16T09:49:09Z</time>
      </trkpt>
      <trkpt lat="28.7410280" lon="-17.7834970">
        <ele>1079.0</ele>
        <time>2020-11-16T09:49:10Z</time>
      </trkpt>
      <trkpt lat="28.7410320" lon="-17.7835000">
        <ele>1079.0</ele>
        <time>2020-11-16T09:49:11Z</time>
      </trkpt>
      <trkpt lat="28.7410320" lon="-17.7835000">
        <ele>1079.0</ele>
        <time>2020-11-16T09:49:12Z</time>
      </trkpt>
      <trkpt lat="28.7410480" lon="-17.7835130">
        <ele>1079.2</ele>
        <time>2020-11-16T09:49:13Z</time>
      </trkpt>
      <trkpt lat="28.7410480" lon="-17.7835130">
        <ele>1079.2</ele>
        <time>2020-11-16T09:49:14Z</time>
      </trkpt>
      <trkpt lat="28.7410580" lon="-17.7835220">
        <ele>1079.3</ele>
        <time>2020-11-16T09:49:15Z</time>
      </trkpt>
      <trkpt lat="28.7410670" lon="-17.7835250">
        <ele>1079.4</ele>
        <time>2020-11-16T09:49:16Z</time>
      </trkpt>
      <trkpt lat="28.7410670" lon="-17.7835250">
        <ele>1079.4</ele>
        <time>2020-11-16T09:49:17Z</time>
      </trkpt>
      <trkpt lat="28.7410920" lon="-17.7835370">
        <ele>1079.7</ele>
        <time>2020-11-16T09:49:18Z</time>
      </trkpt>
      <trkpt lat="28.7410970" lon="-17.7835480">
        <ele>1079.8</ele>
        <time>2020-11-16T09:49:19Z</time>
      </trkpt>
      <trkpt lat="28.7410970" lon="-17.7835480">
        <ele>1079.8</ele>
        <time>2020-11-16T09:49:20Z</time>
      </trkpt>
      <trkpt lat="28.7411050" lon="-17.7835620">
        <ele>1080.0</ele>
        <time>2020-11-16T09:49:21Z</time>
      </trkpt>
      <trkpt lat="28.7411050" lon="-17.7835620">
        <ele>1080.0</ele>
        <time>2020-11-16T09:49:22Z</time>
      </trkpt>
      <trkpt lat="28.7411200" lon="-17.7835700">
        <ele>1080.2</ele>
        <time>2020-11-16T09:49:23Z</time>
      </trkpt>
      <trkpt lat="28.7411280" lon="-17.7835780">
        <ele>1080.3</ele>
        <time>2020-11-16T09:49:24Z</time>
      </trkpt>
      <trkpt lat="28.7411280" lon="-17.7835780">
        <ele>1080.3</ele>
        <time>2020-11-16T09:49:25Z</time>
      </trkpt>
      <trkpt lat="28.7411380" lon="-17.7835880">
        <ele>1080.4</ele>
        <time>2020-11-16T09:49:26Z</time>
      </trkpt>
      <trkpt lat="28.7411430" lon="-17.7835920">
        <ele>1080.5</ele>
        <time>2020-11-16T09:49:27Z</time>
      </trkpt>
      <trkpt lat="28.7411430" lon="-17.7835920">
        <ele>1080.5</ele>
        <time>2020-11-16T09:49:28Z</time>
      </trkpt>
      <trkpt lat="28.7411570" lon="-17.7835900">
        <ele>1080.6</ele>
        <time>2020-11-16T09:49:29Z</time>
      </trkpt>
      <trkpt lat="28.7411570" lon="-17.7835900">
        <ele>1080.6</ele>
        <time>2020-11-16T09:49:30Z</time>
      </trkpt>
      <trkpt lat="28.7411680" lon="-17.7835970">
        <ele>1080.7</ele>
        <time>2020-11-16T09:49:31Z</time>
      </trkpt>
      <trkpt lat="28.7411730" lon="-17.7835980">
        <ele>1080.8</ele>
        <time>2020-11-16T09:49:32Z</time>
      </trkpt>
      <trkpt lat="28.7411730" lon="-17.7835980">
        <ele>1080.8</ele>
        <time>2020-11-16T09:49:33Z</time>
      </trkpt>
      <trkpt lat="28.7411820" lon="-17.7836050">
        <ele>1080.9</ele>
        <time>2020-11-16T09:49:34Z</time>
      </trkpt>
      <trkpt lat="28.7411820" lon="-17.7836050">
        <ele>1080.9</ele>
        <time>2020-11-16T09:49:35Z</time>
      </trkpt>
      <trkpt lat="28.7411970" lon="-17.7836020">
        <ele>1081.0</ele>
        <time>2020-11-16T09:49:36Z</time>
      </trkpt>
      <trkpt lat="28.7412080" lon="-17.7835970">
        <ele>1081.2</ele>
        <time>2020-11-16T09:49:37Z</time>
      </trkpt>
      <trkpt lat="28.7412080" lon="-17.7835970">
        <ele>1081.2</ele>
        <time>2020-11-16T09:49:38Z</time>
      </trkpt>
      <trkpt lat="28.7412220" lon="-17.7835900">
        <ele>1081.3</ele>
        <time>2020-11-16T09:49:39Z</time>
      </trkpt>
      <trkpt lat="28.7412220" lon="-17.7835900">
        <ele>1081.3</ele>
        <time>2020-11-16T09:49:40Z</time>
      </trkpt>
      <trkpt lat="28.7412250" lon="-17.7835830">
        <ele>1081.4</ele>
        <time>2020-11-16T09:49:41Z</time>
      </trkpt>
      <trkpt lat="28.7412250" lon="-17.7835830">
        <ele>1081.4</ele>
        <time>2020-11-16T09:49:42Z</time>
      </trkpt>
      <trkpt lat="28.7412330" lon="-17.7835850">
        <ele>1081.5</ele>
        <time>2020-11-16T09:49:43Z</time>
      </trkpt>
      <trkpt lat="28.7412370" lon="-17.7835830">
        <ele>1081.5</ele>
        <time>2020-11-16T09:49:44Z</time>
      </trkpt>
      <trkpt lat="28.7412370" lon="-17.7835830">
        <ele>1081.5</ele>
        <time>2020-11-16T09:49:45Z</time>
      </trkpt>
      <trkpt lat="28.7412380" lon="-17.7835880">
        <ele>1081.5</ele>
        <time>2020-11-16T09:49:46Z</time>
      </trkpt>
      <trkpt lat="28.7412380" lon="-17.7835880">
        <ele>1081.5</ele>
        <time>2020-11-16T09:49:47Z</time>
      </trkpt>
      <trkpt lat="28.7412370" lon="-17.7835920">
        <ele>1081.6</ele>
        <time>2020-11-16T09:49:48Z</time>
      </trkpt>
      <trkpt lat="28.7412370" lon="-17.7835920">
        <ele>1081.6</ele>
        <time>2020-11-16T09:49:49Z</time>
      </trkpt>
      <trkpt lat="28.7412350" lon="-17.7836030">
        <ele>1081.7</ele>
        <time>2020-11-16T09:49:50Z</time>
      </trkpt>
      <trkpt lat="28.7412350" lon="-17.7836030">
        <ele>1081.7</ele>
        <time>2020-11-16T09:49:51Z</time>
      </trkpt>
      <trkpt lat="28.7412350" lon="-17.7836030">
        <ele>1081.7</ele>
        <time>2020-11-16T09:49:52Z</time>
      </trkpt>
      <trkpt lat="28.7412350" lon="-17.7836030">
        <ele>1081.7</ele>
        <time>2020-11-16T09:49:53Z</time>
      </trkpt>
      <trkpt lat="28.7413800" lon="-17.7833980">
        <ele>1083.6</ele>
        <time>2020-11-16T09:50:50Z</time>
      </trkpt>
      <trkpt lat="28.7413800" lon="-17.7833980">
        <ele>1083.6</ele>
        <time>2020-11-16T09:50:51Z</time>
      </trkpt>
      <trkpt lat="28.7413870" lon="-17.7833730">
        <ele>1083.8</ele>
        <time>2020-11-16T09:50:52Z</time>
      </trkpt>
      <trkpt lat="28.7413870" lon="-17.7833730">
        <ele>1083.8</ele>
        <time>2020-11-16T09:50:53Z</time>
      </trkpt>
      <trkpt lat="28.7414080" lon="-17.7833530">
        <ele>1084.0</ele>
        <time>2020-11-16T09:50:54Z</time>
      </trkpt>
      <trkpt lat="28.7414080" lon="-17.7833530">
        <ele>1084.0</ele>
        <time>2020-11-16T09:50:55Z</time>
      </trkpt>
      <trkpt lat="28.7414200" lon="-17.7833400">
        <ele>1084.1</ele>
        <time>2020-11-16T09:50:56Z</time>
      </trkpt>
      <trkpt lat="28.7414200" lon="-17.7833400">
        <ele>1084.1</ele>
        <time>2020-11-16T09:50:57Z</time>
      </trkpt>
      <trkpt lat="28.7414250" lon="-17.7833280">
        <ele>1084.2</ele>
        <time>2020-11-16T09:50:58Z</time>
      </trkpt>
      <trkpt lat="28.7414630" lon="-17.7832850">
        <ele>1084.6</ele>
        <time>2020-11-16T09:51:05Z</time>
      </trkpt>
      <trkpt lat="28.7414630" lon="-17.7832850">
        <ele>1084.6</ele>
        <time>2020-11-16T09:51:06Z</time>
      </trkpt>
      <trkpt lat="28.7414680" lon="-17.7832720">
        <ele>1084.7</ele>
        <time>2020-11-16T09:51:07Z</time>
      </trkpt>
      <trkpt lat="28.7414720" lon="-17.7832630">
        <ele>1084.7</ele>
        <time>2020-11-16T09:51:08Z</time>
      </trkpt>
      <trkpt lat="28.7414480" lon="-17.7831470">
        <ele>1085.4</ele>
        <time>2020-11-16T09:51:15Z</time>
      </trkpt>
      <trkpt lat="28.7414480" lon="-17.7831470">
        <ele>1085.4</ele>
        <time>2020-11-16T09:51:16Z</time>
      </trkpt>
      <trkpt lat="28.7414270" lon="-17.7831330">
        <ele>1085.5</ele>
        <time>2020-11-16T09:51:17Z</time>
      </trkpt>
      <trkpt lat="28.7414130" lon="-17.7831230">
        <ele>1085.6</ele>
        <time>2020-11-16T09:51:18Z</time>
      </trkpt>
      <trkpt lat="28.7414080" lon="-17.7831150">
        <ele>1085.6</ele>
        <time>2020-11-16T09:51:19Z</time>
      </trkpt>
      <trkpt lat="28.7414080" lon="-17.7831150">
        <ele>1085.6</ele>
        <time>2020-11-16T09:51:20Z</time>
      </trkpt>
      <trkpt lat="28.7414080" lon="-17.7830980">
        <ele>1085.7</ele>
        <time>2020-11-16T09:51:21Z</time>
      </trkpt>
      <trkpt lat="28.7414080" lon="-17.7830980">
        <ele>1085.7</ele>
        <time>2020-11-16T09:51:22Z</time>
      </trkpt>
      <trkpt lat="28.7414020" lon="-17.7830880">
        <ele>1085.8</ele>
        <time>2020-11-16T09:51:23Z</time>
      </trkpt>
      <trkpt lat="28.7414020" lon="-17.7830880">
        <ele>1085.8</ele>
        <time>2020-11-16T09:51:24Z</time>
      </trkpt>
      <trkpt lat="28.7414020" lon="-17.7830880">
        <ele>1085.8</ele>
        <time>2020-11-16T09:51:25Z</time>
      </trkpt>
      <trkpt lat="28.7414020" lon="-17.7830880">
        <ele>1085.8</ele>
        <time>2020-11-16T09:51:26Z</time>
      </trkpt>
      <trkpt lat="28.7414020" lon="-17.7830880">
        <ele>1085.8</ele>
        <time>2020-11-16T09:51:37Z</time>
      </trkpt>
      <trkpt lat="28.7414700" lon="-17.7830550">
        <ele>1086.3</ele>
        <time>2020-11-16T09:51:38Z</time>
      </trkpt>
      <trkpt lat="28.7414700" lon="-17.7830550">
        <ele>1086.3</ele>
        <time>2020-11-16T09:51:39Z</time>
      </trkpt>
      <trkpt lat="28.7414650" lon="-17.7830400">
        <ele>1086.3</ele>
        <time>2020-11-16T09:51:47Z</time>
      </trkpt>
      <trkpt lat="28.7414650" lon="-17.7830400">
        <ele>1086.3</ele>
        <time>2020-11-16T09:51:48Z</time>
      </trkpt>
      <trkpt lat="28.7414520" lon="-17.7829580">
        <ele>1086.8</ele>
        <time>2020-11-16T09:51:49Z</time>
      </trkpt>
      <trkpt lat="28.7414520" lon="-17.7829580">
        <ele>1086.8</ele>
        <time>2020-11-16T09:51:50Z</time>
      </trkpt>
      <trkpt lat="28.7414750" lon="-17.7829330">
        <ele>1087.0</ele>
        <time>2020-11-16T09:51:51Z</time>
      </trkpt>
      <trkpt lat="28.7414750" lon="-17.7829330">
        <ele>1087.0</ele>
        <time>2020-11-16T09:51:52Z</time>
      </trkpt>
      <trkpt lat="28.7414870" lon="-17.7829100">
        <ele>1087.2</ele>
        <time>2020-11-16T09:51:53Z</time>
      </trkpt>
      <trkpt lat="28.7414870" lon="-17.7829100">
        <ele>1087.2</ele>
        <time>2020-11-16T09:51:54Z</time>
      </trkpt>
      <trkpt lat="28.7414900" lon="-17.7828880">
        <ele>1087.3</ele>
        <time>2020-11-16T09:51:55Z</time>
      </trkpt>
      <trkpt lat="28.7414930" lon="-17.7828830">
        <ele>1087.3</ele>
        <time>2020-11-16T09:51:56Z</time>
      </trkpt>
      <trkpt lat="28.7414930" lon="-17.7828830">
        <ele>1087.3</ele>
        <time>2020-11-16T09:51:57Z</time>
      </trkpt>
      <trkpt lat="28.7414920" lon="-17.7828720">
        <ele>1087.4</ele>
        <time>2020-11-16T09:51:58Z</time>
      </trkpt>
      <trkpt lat="28.7414920" lon="-17.7828720">
        <ele>1087.4</ele>
        <time>2020-11-16T09:51:59Z</time>
      </trkpt>
      <trkpt lat="28.7415030" lon="-17.7828570">
        <ele>1087.5</ele>
        <time>2020-11-16T09:52:00Z</time>
      </trkpt>
      <trkpt lat="28.7415030" lon="-17.7828570">
        <ele>1087.5</ele>
        <time>2020-11-16T09:52:01Z</time>
      </trkpt>
      <trkpt lat="28.7415030" lon="-17.7828320">
        <ele>1087.7</ele>
        <time>2020-11-16T09:52:02Z</time>
      </trkpt>
      <trkpt lat="28.7415030" lon="-17.7828220">
        <ele>1087.7</ele>
        <time>2020-11-16T09:52:03Z</time>
      </trkpt>
      <trkpt lat="28.7415020" lon="-17.7828180">
        <ele>1087.8</ele>
        <time>2020-11-16T09:52:04Z</time>
      </trkpt>
      <trkpt lat="28.7415020" lon="-17.7828180">
        <ele>1087.8</ele>
        <time>2020-11-16T09:52:05Z</time>
      </trkpt>
      <trkpt lat="28.7415100" lon="-17.7828150">
        <ele>1087.8</ele>
        <time>2020-11-16T09:52:06Z</time>
      </trkpt>
      <trkpt lat="28.7415100" lon="-17.7828150">
        <ele>1087.8</ele>
        <time>2020-11-16T09:52:07Z</time>
      </trkpt>
      <trkpt lat="28.7415100" lon="-17.7828150">
        <ele>1087.8</ele>
        <time>2020-11-16T09:52:08Z</time>
      </trkpt>
      <trkpt lat="28.7415100" lon="-17.7828150">
        <ele>1087.8</ele>
        <time>2020-11-16T09:52:09Z</time>
      </trkpt>
      <trkpt lat="28.7415100" lon="-17.7828150">
        <ele>1087.8</ele>
        <time>2020-11-16T09:52:16Z</time>
      </trkpt>
      <trkpt lat="28.7415100" lon="-17.7828150">
        <ele>1087.8</ele>
        <time>2020-11-16T09:52:17Z</time>
      </trkpt>
      <trkpt lat="28.7415700" lon="-17.7827430">
        <ele>1088.4</ele>
        <time>2020-11-16T09:52:18Z</time>
      </trkpt>
      <trkpt lat="28.7415700" lon="-17.7827430">
        <ele>1088.4</ele>
        <time>2020-11-16T09:52:19Z</time>
      </trkpt>
      <trkpt lat="28.7415980" lon="-17.7827270">
        <ele>1088.6</ele>
        <time>2020-11-16T09:52:20Z</time>
      </trkpt>
      <trkpt lat="28.7416080" lon="-17.7827180">
        <ele>1088.6</ele>
        <time>2020-11-16T09:52:21Z</time>
      </trkpt>
      <trkpt lat="28.7416080" lon="-17.7827180">
        <ele>1088.6</ele>
        <time>2020-11-16T09:52:22Z</time>
      </trkpt>
      <trkpt lat="28.7416230" lon="-17.7827100">
        <ele>1088.7</ele>
        <time>2020-11-16T09:52:23Z</time>
      </trkpt>
      <trkpt lat="28.7416230" lon="-17.7827100">
        <ele>1088.7</ele>
        <time>2020-11-16T09:52:24Z</time>
      </trkpt>
      <trkpt lat="28.7416400" lon="-17.7826900">
        <ele>1088.8</ele>
        <time>2020-11-16T09:52:25Z</time>
      </trkpt>
      <trkpt lat="28.7416400" lon="-17.7826900">
        <ele>1088.8</ele>
        <time>2020-11-16T09:52:26Z</time>
      </trkpt>
      <trkpt lat="28.7416750" lon="-17.7826720">
        <ele>1089.0</ele>
        <time>2020-11-16T09:52:27Z</time>
      </trkpt>
      <trkpt lat="28.7416870" lon="-17.7826570">
        <ele>1089.1</ele>
        <time>2020-11-16T09:52:28Z</time>
      </trkpt>
      <trkpt lat="28.7416870" lon="-17.7826570">
        <ele>1089.1</ele>
        <time>2020-11-16T09:52:29Z</time>
      </trkpt>
      <trkpt lat="28.7417080" lon="-17.7826320">
        <ele>1089.2</ele>
        <time>2020-11-16T09:52:30Z</time>
      </trkpt>
      <trkpt lat="28.7417080" lon="-17.7826320">
        <ele>1089.2</ele>
        <time>2020-11-16T09:52:31Z</time>
      </trkpt>
      <trkpt lat="28.7417380" lon="-17.7826050">
        <ele>1089.4</ele>
        <time>2020-11-16T09:52:32Z</time>
      </trkpt>
      <trkpt lat="28.7417380" lon="-17.7826050">
        <ele>1089.4</ele>
        <time>2020-11-16T09:52:33Z</time>
      </trkpt>
      <trkpt lat="28.7417550" lon="-17.7825880">
        <ele>1089.5</ele>
        <time>2020-11-16T09:52:34Z</time>
      </trkpt>
      <trkpt lat="28.7417550" lon="-17.7825880">
        <ele>1089.5</ele>
        <time>2020-11-16T09:52:35Z</time>
      </trkpt>
      <trkpt lat="28.7417750" lon="-17.7825670">
        <ele>1089.7</ele>
        <time>2020-11-16T09:52:36Z</time>
      </trkpt>
      <trkpt lat="28.7417750" lon="-17.7825670">
        <ele>1089.7</ele>
        <time>2020-11-16T09:52:37Z</time>
      </trkpt>
      <trkpt lat="28.7417920" lon="-17.7825450">
        <ele>1089.8</ele>
        <time>2020-11-16T09:52:38Z</time>
      </trkpt>
      <trkpt lat="28.7417970" lon="-17.7825400">
        <ele>1089.8</ele>
        <time>2020-11-16T09:52:39Z</time>
      </trkpt>
      <trkpt lat="28.7417970" lon="-17.7825400">
        <ele>1089.8</ele>
        <time>2020-11-16T09:52:40Z</time>
      </trkpt>
      <trkpt lat="28.7418130" lon="-17.7825270">
        <ele>1089.9</ele>
        <time>2020-11-16T09:52:41Z</time>
      </trkpt>
      <trkpt lat="28.7418130" lon="-17.7825270">
        <ele>1089.9</ele>
        <time>2020-11-16T09:52:42Z</time>
      </trkpt>
      <trkpt lat="28.7418200" lon="-17.7825080">
        <ele>1090.0</ele>
        <time>2020-11-16T09:52:43Z</time>
      </trkpt>
      <trkpt lat="28.7418230" lon="-17.7824970">
        <ele>1090.0</ele>
        <time>2020-11-16T09:52:44Z</time>
      </trkpt>
      <trkpt lat="28.7418230" lon="-17.7824970">
        <ele>1090.0</ele>
        <time>2020-11-16T09:52:45Z</time>
      </trkpt>
      <trkpt lat="28.7418320" lon="-17.7824750">
        <ele>1090.1</ele>
        <time>2020-11-16T09:52:46Z</time>
      </trkpt>
      <trkpt lat="28.7418320" lon="-17.7824750">
        <ele>1090.1</ele>
        <time>2020-11-16T09:52:47Z</time>
      </trkpt>
      <trkpt lat="28.7418580" lon="-17.7824430">
        <ele>1090.3</ele>
        <time>2020-11-16T09:52:48Z</time>
      </trkpt>
      <trkpt lat="28.7418720" lon="-17.7824250">
        <ele>1090.4</ele>
        <time>2020-11-16T09:52:49Z</time>
      </trkpt>
      <trkpt lat="28.7418720" lon="-17.7824250">
        <ele>1090.4</ele>
        <time>2020-11-16T09:52:50Z</time>
      </trkpt>
      <trkpt lat="28.7419070" lon="-17.7823970">
        <ele>1090.6</ele>
        <time>2020-11-16T09:52:51Z</time>
      </trkpt>
      <trkpt lat="28.7419120" lon="-17.7823730">
        <ele>1090.8</ele>
        <time>2020-11-16T09:52:52Z</time>
      </trkpt>
      <trkpt lat="28.7419120" lon="-17.7823730">
        <ele>1090.8</ele>
        <time>2020-11-16T09:52:53Z</time>
      </trkpt>
      <trkpt lat="28.7419250" lon="-17.7823200">
        <ele>1091.1</ele>
        <time>2020-11-16T09:52:54Z</time>
      </trkpt>
      <trkpt lat="28.7419370" lon="-17.7822970">
        <ele>1091.3</ele>
        <time>2020-11-16T09:52:55Z</time>
      </trkpt>
      <trkpt lat="28.7419370" lon="-17.7822970">
        <ele>1091.3</ele>
        <time>2020-11-16T09:52:56Z</time>
      </trkpt>
      <trkpt lat="28.7419470" lon="-17.7822500">
        <ele>1091.6</ele>
        <time>2020-11-16T09:52:57Z</time>
      </trkpt>
      <trkpt lat="28.7419480" lon="-17.7822250">
        <ele>1091.7</ele>
        <time>2020-11-16T09:52:58Z</time>
      </trkpt>
      <trkpt lat="28.7419480" lon="-17.7822250">
        <ele>1091.7</ele>
        <time>2020-11-16T09:52:59Z</time>
      </trkpt>
      <trkpt lat="28.7419600" lon="-17.7821900">
        <ele>1092.0</ele>
        <time>2020-11-16T09:53:00Z</time>
      </trkpt>
      <trkpt lat="28.7419600" lon="-17.7821900">
        <ele>1092.0</ele>
        <time>2020-11-16T09:53:01Z</time>
      </trkpt>
      <trkpt lat="28.7419700" lon="-17.7821670">
        <ele>1092.1</ele>
        <time>2020-11-16T09:53:02Z</time>
      </trkpt>
      <trkpt lat="28.7419700" lon="-17.7821670">
        <ele>1092.1</ele>
        <time>2020-11-16T09:53:03Z</time>
      </trkpt>
      <trkpt lat="28.7419830" lon="-17.7821480">
        <ele>1092.3</ele>
        <time>2020-11-16T09:53:04Z</time>
      </trkpt>
      <trkpt lat="28.7419830" lon="-17.7821480">
        <ele>1092.3</ele>
        <time>2020-11-16T09:53:05Z</time>
      </trkpt>
      <trkpt lat="28.7420200" lon="-17.7821300">
        <ele>1092.6</ele>
        <time>2020-11-16T09:53:06Z</time>
      </trkpt>
      <trkpt lat="28.7420200" lon="-17.7821300">
        <ele>1092.6</ele>
        <time>2020-11-16T09:53:07Z</time>
      </trkpt>
      <trkpt lat="28.7420600" lon="-17.7821220">
        <ele>1092.9</ele>
        <time>2020-11-16T09:53:08Z</time>
      </trkpt>
      <trkpt lat="28.7420600" lon="-17.7821220">
        <ele>1092.9</ele>
        <time>2020-11-16T09:53:09Z</time>
      </trkpt>
      <trkpt lat="28.7420750" lon="-17.7821220">
        <ele>1093.0</ele>
        <time>2020-11-16T09:53:10Z</time>
      </trkpt>
      <trkpt lat="28.7420750" lon="-17.7821220">
        <ele>1093.0</ele>
        <time>2020-11-16T09:53:11Z</time>
      </trkpt>
      <trkpt lat="28.7420920" lon="-17.7821380">
        <ele>1093.1</ele>
        <time>2020-11-16T09:53:12Z</time>
      </trkpt>
      <trkpt lat="28.7421050" lon="-17.7821480">
        <ele>1093.3</ele>
        <time>2020-11-16T09:53:13Z</time>
      </trkpt>
      <trkpt lat="28.7421130" lon="-17.7821550">
        <ele>1093.3</ele>
        <time>2020-11-16T09:53:14Z</time>
      </trkpt>
      <trkpt lat="28.7421130" lon="-17.7821550">
        <ele>1093.3</ele>
        <time>2020-11-16T09:53:15Z</time>
      </trkpt>
      <trkpt lat="28.7421200" lon="-17.7821680">
        <ele>1093.5</ele>
        <time>2020-11-16T09:53:16Z</time>
      </trkpt>
      <trkpt lat="28.7421200" lon="-17.7821680">
        <ele>1093.5</ele>
        <time>2020-11-16T09:53:17Z</time>
      </trkpt>
      <trkpt lat="28.7421430" lon="-17.7821950">
        <ele>1093.7</ele>
        <time>2020-11-16T09:53:18Z</time>
      </trkpt>
      <trkpt lat="28.7421430" lon="-17.7821950">
        <ele>1093.7</ele>
        <time>2020-11-16T09:53:19Z</time>
      </trkpt>
      <trkpt lat="28.7421580" lon="-17.7822200">
        <ele>1093.9</ele>
        <time>2020-11-16T09:53:20Z</time>
      </trkpt>
      <trkpt lat="28.7421650" lon="-17.7822280">
        <ele>1094.0</ele>
        <time>2020-11-16T09:53:21Z</time>
      </trkpt>
      <trkpt lat="28.7421650" lon="-17.7822280">
        <ele>1094.0</ele>
        <time>2020-11-16T09:53:22Z</time>
      </trkpt>
      <trkpt lat="28.7421800" lon="-17.7822500">
        <ele>1094.2</ele>
        <time>2020-11-16T09:53:23Z</time>
      </trkpt>
      <trkpt lat="28.7421800" lon="-17.7822500">
        <ele>1094.2</ele>
        <time>2020-11-16T09:53:24Z</time>
      </trkpt>
      <trkpt lat="28.7421930" lon="-17.7822700">
        <ele>1094.4</ele>
        <time>2020-11-16T09:53:25Z</time>
      </trkpt>
      <trkpt lat="28.7421930" lon="-17.7822700">
        <ele>1094.4</ele>
        <time>2020-11-16T09:53:26Z</time>
      </trkpt>
      <trkpt lat="28.7422070" lon="-17.7822920">
        <ele>1094.7</ele>
        <time>2020-11-16T09:53:27Z</time>
      </trkpt>
      <trkpt lat="28.7422150" lon="-17.7823080">
        <ele>1094.8</ele>
        <time>2020-11-16T09:53:28Z</time>
      </trkpt>
      <trkpt lat="28.7422220" lon="-17.7823180">
        <ele>1094.9</ele>
        <time>2020-11-16T09:53:29Z</time>
      </trkpt>
      <trkpt lat="28.7422220" lon="-17.7823180">
        <ele>1094.9</ele>
        <time>2020-11-16T09:53:30Z</time>
      </trkpt>
      <trkpt lat="28.7422400" lon="-17.7823350">
        <ele>1095.2</ele>
        <time>2020-11-16T09:53:31Z</time>
      </trkpt>
      <trkpt lat="28.7422470" lon="-17.7823400">
        <ele>1095.2</ele>
        <time>2020-11-16T09:53:32Z</time>
      </trkpt>
      <trkpt lat="28.7422470" lon="-17.7823400">
        <ele>1095.2</ele>
        <time>2020-11-16T09:53:33Z</time>
      </trkpt>
      <trkpt lat="28.7422620" lon="-17.7823470">
        <ele>1095.4</ele>
        <time>2020-11-16T09:53:34Z</time>
      </trkpt>
      <trkpt lat="28.7422620" lon="-17.7823470">
        <ele>1095.4</ele>
        <time>2020-11-16T09:53:35Z</time>
      </trkpt>
      <trkpt lat="28.7422800" lon="-17.7823480">
        <ele>1095.6</ele>
        <time>2020-11-16T09:53:36Z</time>
      </trkpt>
      <trkpt lat="28.7422800" lon="-17.7823480">
        <ele>1095.6</ele>
        <time>2020-11-16T09:53:37Z</time>
      </trkpt>
      <trkpt lat="28.7422850" lon="-17.7823550">
        <ele>1095.7</ele>
        <time>2020-11-16T09:53:38Z</time>
      </trkpt>
      <trkpt lat="28.7422930" lon="-17.7823520">
        <ele>1095.8</ele>
        <time>2020-11-16T09:53:39Z</time>
      </trkpt>
      <trkpt lat="28.7423100" lon="-17.7823530">
        <ele>1095.9</ele>
        <time>2020-11-16T09:53:40Z</time>
      </trkpt>
      <trkpt lat="28.7423100" lon="-17.7823530">
        <ele>1095.9</ele>
        <time>2020-11-16T09:53:41Z</time>
      </trkpt>
      <trkpt lat="28.7423320" lon="-17.7823580">
        <ele>1096.2</ele>
        <time>2020-11-16T09:53:42Z</time>
      </trkpt>
      <trkpt lat="28.7423420" lon="-17.7823550">
        <ele>1096.3</ele>
        <time>2020-11-16T09:53:43Z</time>
      </trkpt>
      <trkpt lat="28.7423570" lon="-17.7823520">
        <ele>1096.4</ele>
        <time>2020-11-16T09:53:44Z</time>
      </trkpt>
      <trkpt lat="28.7423570" lon="-17.7823520">
        <ele>1096.4</ele>
        <time>2020-11-16T09:53:45Z</time>
      </trkpt>
      <trkpt lat="28.7423850" lon="-17.7823330">
        <ele>1096.8</ele>
        <time>2020-11-16T09:53:46Z</time>
      </trkpt>
      <trkpt lat="28.7423850" lon="-17.7823330">
        <ele>1096.8</ele>
        <time>2020-11-16T09:53:47Z</time>
      </trkpt>
      <trkpt lat="28.7424230" lon="-17.7823350">
        <ele>1097.2</ele>
        <time>2020-11-16T09:53:48Z</time>
      </trkpt>
      <trkpt lat="28.7424230" lon="-17.7823350">
        <ele>1097.2</ele>
        <time>2020-11-16T09:53:49Z</time>
      </trkpt>
      <trkpt lat="28.7424520" lon="-17.7823350">
        <ele>1097.5</ele>
        <time>2020-11-16T09:53:50Z</time>
      </trkpt>
      <trkpt lat="28.7424520" lon="-17.7823350">
        <ele>1097.5</ele>
        <time>2020-11-16T09:53:51Z</time>
      </trkpt>
      <trkpt lat="28.7424950" lon="-17.7823270">
        <ele>1098.0</ele>
        <time>2020-11-16T09:53:52Z</time>
      </trkpt>
      <trkpt lat="28.7424950" lon="-17.7823270">
        <ele>1098.0</ele>
        <time>2020-11-16T09:53:53Z</time>
      </trkpt>
      <trkpt lat="28.7425320" lon="-17.7823280">
        <ele>1098.3</ele>
        <time>2020-11-16T09:53:54Z</time>
      </trkpt>
      <trkpt lat="28.7425480" lon="-17.7823320">
        <ele>1098.4</ele>
        <time>2020-11-16T09:53:55Z</time>
      </trkpt>
      <trkpt lat="28.7425480" lon="-17.7823320">
        <ele>1098.4</ele>
        <time>2020-11-16T09:53:56Z</time>
      </trkpt>
      <trkpt lat="28.7425770" lon="-17.7823400">
        <ele>1098.7</ele>
        <time>2020-11-16T09:53:57Z</time>
      </trkpt>
      <trkpt lat="28.7425770" lon="-17.7823400">
        <ele>1098.7</ele>
        <time>2020-11-16T09:53:58Z</time>
      </trkpt>
      <trkpt lat="28.7425920" lon="-17.7823500">
        <ele>1098.8</ele>
        <time>2020-11-16T09:53:59Z</time>
      </trkpt>
      <trkpt lat="28.7425920" lon="-17.7823500">
        <ele>1100.4</ele>
        <time>2020-11-16T09:54:00Z</time>
      </trkpt>
      <trkpt lat="28.7426070" lon="-17.7823630">
        <ele>1100.7</ele>
        <time>2020-11-16T09:54:01Z</time>
      </trkpt>
      <trkpt lat="28.7426070" lon="-17.7823630">
        <ele>1100.7</ele>
        <time>2020-11-16T09:54:02Z</time>
      </trkpt>
      <trkpt lat="28.7426270" lon="-17.7823850">
        <ele>1101.1</ele>
        <time>2020-11-16T09:54:03Z</time>
      </trkpt>
      <trkpt lat="28.7426350" lon="-17.7823970">
        <ele>1101.3</ele>
        <time>2020-11-16T09:54:04Z</time>
      </trkpt>
      <trkpt lat="28.7426350" lon="-17.7823970">
        <ele>1101.3</ele>
        <time>2020-11-16T09:54:05Z</time>
      </trkpt>
      <trkpt lat="28.7426350" lon="-17.7824180">
        <ele>1101.6</ele>
        <time>2020-11-16T09:54:06Z</time>
      </trkpt>
      <trkpt lat="28.7426350" lon="-17.7824180">
        <ele>1101.6</ele>
        <time>2020-11-16T09:54:07Z</time>
      </trkpt>
      <trkpt lat="28.7426370" lon="-17.7824270">
        <ele>1101.7</ele>
        <time>2020-11-16T09:54:08Z</time>
      </trkpt>
      <trkpt lat="28.7426370" lon="-17.7824270">
        <ele>1101.7</ele>
        <time>2020-11-16T09:54:09Z</time>
      </trkpt>
      <trkpt lat="28.7426470" lon="-17.7824530">
        <ele>1102.0</ele>
        <time>2020-11-16T09:54:10Z</time>
      </trkpt>
      <trkpt lat="28.7426470" lon="-17.7824530">
        <ele>1102.0</ele>
        <time>2020-11-16T09:54:11Z</time>
      </trkpt>
      <trkpt lat="28.7426470" lon="-17.7824720">
        <ele>1102.3</ele>
        <time>2020-11-16T09:54:12Z</time>
      </trkpt>
      <trkpt lat="28.7426470" lon="-17.7824830">
        <ele>1102.4</ele>
        <time>2020-11-16T09:54:13Z</time>
      </trkpt>
      <trkpt lat="28.7426470" lon="-17.7824830">
        <ele>1102.4</ele>
        <time>2020-11-16T09:54:14Z</time>
      </trkpt>
      <trkpt lat="28.7426450" lon="-17.7824970">
        <ele>1102.6</ele>
        <time>2020-11-16T09:54:15Z</time>
      </trkpt>
      <trkpt lat="28.7426430" lon="-17.7825030">
        <ele>1102.7</ele>
        <time>2020-11-16T09:54:16Z</time>
      </trkpt>
      <trkpt lat="28.7426430" lon="-17.7825030">
        <ele>1102.7</ele>
        <time>2020-11-16T09:54:17Z</time>
      </trkpt>
      <trkpt lat="28.7426520" lon="-17.7825250">
        <ele>1103.0</ele>
        <time>2020-11-16T09:54:18Z</time>
      </trkpt>
      <trkpt lat="28.7426570" lon="-17.7825430">
        <ele>1103.3</ele>
        <time>2020-11-16T09:54:19Z</time>
      </trkpt>
      <trkpt lat="28.7426630" lon="-17.7825570">
        <ele>1103.5</ele>
        <time>2020-11-16T09:54:20Z</time>
      </trkpt>
      <trkpt lat="28.7426630" lon="-17.7825570">
        <ele>1103.5</ele>
        <time>2020-11-16T09:54:21Z</time>
      </trkpt>
      <trkpt lat="28.7426780" lon="-17.7825980">
        <ele>1104.1</ele>
        <time>2020-11-16T09:54:22Z</time>
      </trkpt>
      <trkpt lat="28.7426780" lon="-17.7825980">
        <ele>1104.1</ele>
        <time>2020-11-16T09:54:23Z</time>
      </trkpt>
      <trkpt lat="28.7426830" lon="-17.7826280">
        <ele>1104.6</ele>
        <time>2020-11-16T09:54:24Z</time>
      </trkpt>
      <trkpt lat="28.7426770" lon="-17.7826380">
        <ele>1104.8</ele>
        <time>2020-11-16T09:54:25Z</time>
      </trkpt>
      <trkpt lat="28.7426770" lon="-17.7826380">
        <ele>1104.8</ele>
        <time>2020-11-16T09:54:26Z</time>
      </trkpt>
      <trkpt lat="28.7426880" lon="-17.7826650">
        <ele>1105.2</ele>
        <time>2020-11-16T09:54:27Z</time>
      </trkpt>
      <trkpt lat="28.7426880" lon="-17.7826650">
        <ele>1105.2</ele>
        <time>2020-11-16T09:54:28Z</time>
      </trkpt>
      <trkpt lat="28.7426920" lon="-17.7826970">
        <ele>1105.6</ele>
        <time>2020-11-16T09:54:29Z</time>
      </trkpt>
      <trkpt lat="28.7426920" lon="-17.7826970">
        <ele>1105.6</ele>
        <time>2020-11-16T09:54:30Z</time>
      </trkpt>
      <trkpt lat="28.7427020" lon="-17.7827480">
        <ele>1106.4</ele>
        <time>2020-11-16T09:54:31Z</time>
      </trkpt>
      <trkpt lat="28.7427020" lon="-17.7827480">
        <ele>1106.4</ele>
        <time>2020-11-16T09:54:32Z</time>
      </trkpt>
      <trkpt lat="28.7426980" lon="-17.7827920">
        <ele>1107.0</ele>
        <time>2020-11-16T09:54:33Z</time>
      </trkpt>
      <trkpt lat="28.7426880" lon="-17.7828080">
        <ele>1107.3</ele>
        <time>2020-11-16T09:54:34Z</time>
      </trkpt>
      <trkpt lat="28.7426880" lon="-17.7828080">
        <ele>1107.3</ele>
        <time>2020-11-16T09:54:35Z</time>
      </trkpt>
      <trkpt lat="28.7426700" lon="-17.7828380">
        <ele>1107.8</ele>
        <time>2020-11-16T09:54:36Z</time>
      </trkpt>
      <trkpt lat="28.7426650" lon="-17.7828550">
        <ele>1108.1</ele>
        <time>2020-11-16T09:54:37Z</time>
      </trkpt>
      <trkpt lat="28.7426580" lon="-17.7828700">
        <ele>1108.3</ele>
        <time>2020-11-16T09:54:38Z</time>
      </trkpt>
      <trkpt lat="28.7426580" lon="-17.7828700">
        <ele>1108.3</ele>
        <time>2020-11-16T09:54:39Z</time>
      </trkpt>
      <trkpt lat="28.7426370" lon="-17.7829150">
        <ele>1109.0</ele>
        <time>2020-11-16T09:54:40Z</time>
      </trkpt>
      <trkpt lat="28.7426370" lon="-17.7829150">
        <ele>1109.0</ele>
        <time>2020-11-16T09:54:41Z</time>
      </trkpt>
      <trkpt lat="28.7426150" lon="-17.7829600">
        <ele>1109.7</ele>
        <time>2020-11-16T09:54:42Z</time>
      </trkpt>
      <trkpt lat="28.7426050" lon="-17.7829770">
        <ele>1110.0</ele>
        <time>2020-11-16T09:54:43Z</time>
      </trkpt>
      <trkpt lat="28.7426050" lon="-17.7829770">
        <ele>1110.0</ele>
        <time>2020-11-16T09:54:44Z</time>
      </trkpt>
      <trkpt lat="28.7425930" lon="-17.7830080">
        <ele>1110.4</ele>
        <time>2020-11-16T09:54:45Z</time>
      </trkpt>
      <trkpt lat="28.7425850" lon="-17.7830220">
        <ele>1110.7</ele>
        <time>2020-11-16T09:54:46Z</time>
      </trkpt>
      <trkpt lat="28.7425850" lon="-17.7830220">
        <ele>1110.7</ele>
        <time>2020-11-16T09:54:47Z</time>
      </trkpt>
      <trkpt lat="28.7425730" lon="-17.7830480">
        <ele>1111.1</ele>
        <time>2020-11-16T09:54:48Z</time>
      </trkpt>
      <trkpt lat="28.7425730" lon="-17.7830480">
        <ele>1111.1</ele>
        <time>2020-11-16T09:54:49Z</time>
      </trkpt>
      <trkpt lat="28.7425680" lon="-17.7830700">
        <ele>1111.4</ele>
        <time>2020-11-16T09:54:50Z</time>
      </trkpt>
      <trkpt lat="28.7425680" lon="-17.7830700">
        <ele>1111.4</ele>
        <time>2020-11-16T09:54:51Z</time>
      </trkpt>
      <trkpt lat="28.7425520" lon="-17.7831080">
        <ele>1112.0</ele>
        <time>2020-11-16T09:54:52Z</time>
      </trkpt>
      <trkpt lat="28.7425520" lon="-17.7831080">
        <ele>1112.0</ele>
        <time>2020-11-16T09:54:53Z</time>
      </trkpt>
      <trkpt lat="28.7425370" lon="-17.7831430">
        <ele>1112.6</ele>
        <time>2020-11-16T09:54:54Z</time>
      </trkpt>
      <trkpt lat="28.7425370" lon="-17.7831430">
        <ele>1112.6</ele>
        <time>2020-11-16T09:54:55Z</time>
      </trkpt>
      <trkpt lat="28.7425380" lon="-17.7831820">
        <ele>1113.1</ele>
        <time>2020-11-16T09:54:56Z</time>
      </trkpt>
      <trkpt lat="28.7425380" lon="-17.7831820">
        <ele>1113.1</ele>
        <time>2020-11-16T09:54:57Z</time>
      </trkpt>
      <trkpt lat="28.7425250" lon="-17.7832020">
        <ele>1113.5</ele>
        <time>2020-11-16T09:54:58Z</time>
      </trkpt>
      <trkpt lat="28.7425250" lon="-17.7832020">
        <ele>1113.5</ele>
        <time>2020-11-16T09:54:59Z</time>
      </trkpt>
      <trkpt lat="28.7425170" lon="-17.7832220">
        <ele>1113.8</ele>
        <time>2020-11-16T09:55:00Z</time>
      </trkpt>
      <trkpt lat="28.7425170" lon="-17.7832220">
        <ele>1113.8</ele>
        <time>2020-11-16T09:55:01Z</time>
      </trkpt>
      <trkpt lat="28.7425130" lon="-17.7832420">
        <ele>1114.1</ele>
        <time>2020-11-16T09:55:02Z</time>
      </trkpt>
      <trkpt lat="28.7425100" lon="-17.7832400">
        <ele>1114.1</ele>
        <time>2020-11-16T09:55:03Z</time>
      </trkpt>
      <trkpt lat="28.7425030" lon="-17.7832450">
        <ele>1114.2</ele>
        <time>2020-11-16T09:55:04Z</time>
      </trkpt>
      <trkpt lat="28.7425030" lon="-17.7832450">
        <ele>1114.2</ele>
        <time>2020-11-16T09:55:05Z</time>
      </trkpt>
      <trkpt lat="28.7425000" lon="-17.7832500">
        <ele>1114.3</ele>
        <time>2020-11-16T09:55:06Z</time>
      </trkpt>
      <trkpt lat="28.7425000" lon="-17.7832500">
        <ele>1114.3</ele>
        <time>2020-11-16T09:56:31Z</time>
      </trkpt>
      <trkpt lat="28.7426430" lon="-17.7833350">
        <ele>1116.8</ele>
        <time>2020-11-16T09:56:32Z</time>
      </trkpt>
      <trkpt lat="28.7426470" lon="-17.7833400">
        <ele>1116.9</ele>
        <time>2020-11-16T09:56:33Z</time>
      </trkpt>
      <trkpt lat="28.7426500" lon="-17.7833520">
        <ele>1117.1</ele>
        <time>2020-11-16T09:56:34Z</time>
      </trkpt>
      <trkpt lat="28.7426500" lon="-17.7833520">
        <ele>1117.1</ele>
        <time>2020-11-16T09:56:35Z</time>
      </trkpt>
      <trkpt lat="28.7426580" lon="-17.7833580">
        <ele>1117.2</ele>
        <time>2020-11-16T09:56:36Z</time>
      </trkpt>
      <trkpt lat="28.7426650" lon="-17.7833680">
        <ele>1117.4</ele>
        <time>2020-11-16T09:56:37Z</time>
      </trkpt>
      <trkpt lat="28.7426680" lon="-17.7833750">
        <ele>1117.5</ele>
        <time>2020-11-16T09:56:38Z</time>
      </trkpt>
      <trkpt lat="28.7426680" lon="-17.7833750">
        <ele>1117.5</ele>
        <time>2020-11-16T09:56:39Z</time>
      </trkpt>
      <trkpt lat="28.7426950" lon="-17.7833950">
        <ele>1118.0</ele>
        <time>2020-11-16T09:56:40Z</time>
      </trkpt>
      <trkpt lat="28.7426950" lon="-17.7833950">
        <ele>1118.0</ele>
        <time>2020-11-16T09:56:41Z</time>
      </trkpt>
      <trkpt lat="28.7427000" lon="-17.7834020">
        <ele>1118.1</ele>
        <time>2020-11-16T09:56:42Z</time>
      </trkpt>
      <trkpt lat="28.7427000" lon="-17.7834020">
        <ele>1118.1</ele>
        <time>2020-11-16T09:56:43Z</time>
      </trkpt>
      <trkpt lat="28.7427230" lon="-17.7834070">
        <ele>1118.5</ele>
        <time>2020-11-16T09:56:44Z</time>
      </trkpt>
      <trkpt lat="28.7427230" lon="-17.7834070">
        <ele>1118.5</ele>
        <time>2020-11-16T09:56:45Z</time>
      </trkpt>
      <trkpt lat="28.7427400" lon="-17.7834250">
        <ele>1118.9</ele>
        <time>2020-11-16T09:56:46Z</time>
      </trkpt>
      <trkpt lat="28.7427400" lon="-17.7834250">
        <ele>1118.9</ele>
        <time>2020-11-16T09:56:47Z</time>
      </trkpt>
      <trkpt lat="28.7427550" lon="-17.7834420">
        <ele>1119.2</ele>
        <time>2020-11-16T09:56:48Z</time>
      </trkpt>
      <trkpt lat="28.7427550" lon="-17.7834420">
        <ele>1119.2</ele>
        <time>2020-11-16T09:56:49Z</time>
      </trkpt>
      <trkpt lat="28.7427580" lon="-17.7834700">
        <ele>1119.6</ele>
        <time>2020-11-16T09:56:50Z</time>
      </trkpt>
      <trkpt lat="28.7427580" lon="-17.7834700">
        <ele>1119.6</ele>
        <time>2020-11-16T09:56:51Z</time>
      </trkpt>
      <trkpt lat="28.7427620" lon="-17.7834980">
        <ele>1119.9</ele>
        <time>2020-11-16T09:56:52Z</time>
      </trkpt>
      <trkpt lat="28.7427620" lon="-17.7834980">
        <ele>1119.9</ele>
        <time>2020-11-16T09:56:53Z</time>
      </trkpt>
      <trkpt lat="28.7427670" lon="-17.7835150">
        <ele>1120.2</ele>
        <time>2020-11-16T09:56:54Z</time>
      </trkpt>
      <trkpt lat="28.7427670" lon="-17.7835150">
        <ele>1120.2</ele>
        <time>2020-11-16T09:56:55Z</time>
      </trkpt>
      <trkpt lat="28.7427730" lon="-17.7835300">
        <ele>1120.4</ele>
        <time>2020-11-16T09:56:56Z</time>
      </trkpt>
      <trkpt lat="28.7427730" lon="-17.7835300">
        <ele>1120.4</ele>
        <time>2020-11-16T09:56:57Z</time>
      </trkpt>
      <trkpt lat="28.7427750" lon="-17.7835370">
        <ele>1120.5</ele>
        <time>2020-11-16T09:56:58Z</time>
      </trkpt>
      <trkpt lat="28.7427750" lon="-17.7835370">
        <ele>1120.5</ele>
        <time>2020-11-16T09:56:59Z</time>
      </trkpt>
      <trkpt lat="28.7427730" lon="-17.7835570">
        <ele>1120.8</ele>
        <time>2020-11-16T09:57:00Z</time>
      </trkpt>
      <trkpt lat="28.7427730" lon="-17.7835570">
        <ele>1120.8</ele>
        <time>2020-11-16T09:57:01Z</time>
      </trkpt>
      <trkpt lat="28.7427600" lon="-17.7835570">
        <ele>1121.0</ele>
        <time>2020-11-16T09:57:02Z</time>
      </trkpt>
      <trkpt lat="28.7427600" lon="-17.7835570">
        <ele>1121.0</ele>
        <time>2020-11-16T09:57:03Z</time>
      </trkpt>
      <trkpt lat="28.7427550" lon="-17.7835570">
        <ele>1121.1</ele>
        <time>2020-11-16T09:57:04Z</time>
      </trkpt>
      <trkpt lat="28.7427550" lon="-17.7835570">
        <ele>1121.1</ele>
        <time>2020-11-16T09:57:05Z</time>
      </trkpt>
      <trkpt lat="28.7427550" lon="-17.7835570">
        <ele>1121.1</ele>
        <time>2020-11-16T09:57:06Z</time>
      </trkpt>
      <trkpt lat="28.7427550" lon="-17.7835570">
        <ele>1121.1</ele>
        <time>2020-11-16T09:57:25Z</time>
      </trkpt>
      <trkpt lat="28.7427250" lon="-17.7836430">
        <ele>1122.3</ele>
        <time>2020-11-16T09:57:26Z</time>
      </trkpt>
      <trkpt lat="28.7427250" lon="-17.7836430">
        <ele>1122.3</ele>
        <time>2020-11-16T09:57:27Z</time>
      </trkpt>
      <trkpt lat="28.7427250" lon="-17.7836630">
        <ele>1122.6</ele>
        <time>2020-11-16T09:57:28Z</time>
      </trkpt>
      <trkpt lat="28.7427250" lon="-17.7836630">
        <ele>1122.6</ele>
        <time>2020-11-16T09:57:29Z</time>
      </trkpt>
      <trkpt lat="28.7427250" lon="-17.7836870">
        <ele>1122.9</ele>
        <time>2020-11-16T09:57:30Z</time>
      </trkpt>
      <trkpt lat="28.7427250" lon="-17.7836870">
        <ele>1122.9</ele>
        <time>2020-11-16T09:57:31Z</time>
      </trkpt>
      <trkpt lat="28.7427330" lon="-17.7837200">
        <ele>1123.6</ele>
        <time>2020-11-16T09:57:32Z</time>
      </trkpt>
      <trkpt lat="28.7427330" lon="-17.7837200">
        <ele>1123.6</ele>
        <time>2020-11-16T09:57:33Z</time>
      </trkpt>
      <trkpt lat="28.7427430" lon="-17.7837450">
        <ele>1123.9</ele>
        <time>2020-11-16T09:57:34Z</time>
      </trkpt>
      <trkpt lat="28.7427430" lon="-17.7837450">
        <ele>1123.9</ele>
        <time>2020-11-16T09:57:35Z</time>
      </trkpt>
      <trkpt lat="28.7427400" lon="-17.7837880">
        <ele>1124.4</ele>
        <time>2020-11-16T09:57:36Z</time>
      </trkpt>
      <trkpt lat="28.7427400" lon="-17.7837880">
        <ele>1124.4</ele>
        <time>2020-11-16T09:57:37Z</time>
      </trkpt>
      <trkpt lat="28.7427580" lon="-17.7838220">
        <ele>1124.8</ele>
        <time>2020-11-16T09:57:38Z</time>
      </trkpt>
      <trkpt lat="28.7427580" lon="-17.7838220">
        <ele>1124.8</ele>
        <time>2020-11-16T09:57:39Z</time>
      </trkpt>
      <trkpt lat="28.7427730" lon="-17.7838700">
        <ele>1125.4</ele>
        <time>2020-11-16T09:57:40Z</time>
      </trkpt>
      <trkpt lat="28.7427730" lon="-17.7838700">
        <ele>1125.4</ele>
        <time>2020-11-16T09:57:41Z</time>
      </trkpt>
      <trkpt lat="28.7427830" lon="-17.7839100">
        <ele>1125.9</ele>
        <time>2020-11-16T09:57:42Z</time>
      </trkpt>
      <trkpt lat="28.7427830" lon="-17.7839100">
        <ele>1125.9</ele>
        <time>2020-11-16T09:57:43Z</time>
      </trkpt>
      <trkpt lat="28.7427880" lon="-17.7839380">
        <ele>1126.2</ele>
        <time>2020-11-16T09:57:44Z</time>
      </trkpt>
      <trkpt lat="28.7427880" lon="-17.7839380">
        <ele>1126.2</ele>
        <time>2020-11-16T09:57:45Z</time>
      </trkpt>
      <trkpt lat="28.7427920" lon="-17.7839550">
        <ele>1126.4</ele>
        <time>2020-11-16T09:57:46Z</time>
      </trkpt>
      <trkpt lat="28.7427920" lon="-17.7839550">
        <ele>1126.4</ele>
        <time>2020-11-16T09:57:47Z</time>
      </trkpt>
      <trkpt lat="28.7427930" lon="-17.7839630">
        <ele>1126.5</ele>
        <time>2020-11-16T09:57:48Z</time>
      </trkpt>
      <trkpt lat="28.7427930" lon="-17.7839630">
        <ele>1126.5</ele>
        <time>2020-11-16T09:57:49Z</time>
      </trkpt>
      <trkpt lat="28.7427920" lon="-17.7839720">
        <ele>1126.6</ele>
        <time>2020-11-16T09:57:50Z</time>
      </trkpt>
      <trkpt lat="28.7427920" lon="-17.7839720">
        <ele>1126.6</ele>
        <time>2020-11-16T09:57:51Z</time>
      </trkpt>
      <trkpt lat="28.7427950" lon="-17.7839780">
        <ele>1126.7</ele>
        <time>2020-11-16T09:57:52Z</time>
      </trkpt>
      <trkpt lat="28.7427950" lon="-17.7839780">
        <ele>1126.7</ele>
        <time>2020-11-16T09:57:53Z</time>
      </trkpt>
      <trkpt lat="28.7428030" lon="-17.7839920">
        <ele>1126.9</ele>
        <time>2020-11-16T09:57:54Z</time>
      </trkpt>
      <trkpt lat="28.7428030" lon="-17.7839920">
        <ele>1126.9</ele>
        <time>2020-11-16T09:57:55Z</time>
      </trkpt>
      <trkpt lat="28.7428050" lon="-17.7839980">
        <ele>1127.0</ele>
        <time>2020-11-16T09:57:56Z</time>
      </trkpt>
      <trkpt lat="28.7427980" lon="-17.7839950">
        <ele>1127.1</ele>
        <time>2020-11-16T09:57:57Z</time>
      </trkpt>
      <trkpt lat="28.7427980" lon="-17.7839950">
        <ele>1127.1</ele>
        <time>2020-11-16T09:57:58Z</time>
      </trkpt>
      <trkpt lat="28.7427980" lon="-17.7839950">
        <ele>1127.1</ele>
        <time>2020-11-16T09:57:59Z</time>
      </trkpt>
      <trkpt lat="28.7427980" lon="-17.7839950">
        <ele>1127.1</ele>
        <time>2020-11-16T09:58:00Z</time>
      </trkpt>
      <trkpt lat="28.7427970" lon="-17.7840320">
        <ele>1127.5</ele>
        <time>2020-11-16T09:58:12Z</time>
      </trkpt>
      <trkpt lat="28.7427830" lon="-17.7840350">
        <ele>1127.7</ele>
        <time>2020-11-16T09:58:13Z</time>
      </trkpt>
      <trkpt lat="28.7427830" lon="-17.7840350">
        <ele>1127.7</ele>
        <time>2020-11-16T09:58:14Z</time>
      </trkpt>
      <trkpt lat="28.7427650" lon="-17.7840680">
        <ele>1128.1</ele>
        <time>2020-11-16T09:58:15Z</time>
      </trkpt>
      <trkpt lat="28.7427530" lon="-17.7840830">
        <ele>1128.3</ele>
        <time>2020-11-16T09:58:16Z</time>
      </trkpt>
      <trkpt lat="28.7427530" lon="-17.7840830">
        <ele>1128.3</ele>
        <time>2020-11-16T09:58:17Z</time>
      </trkpt>
      <trkpt lat="28.7427280" lon="-17.7841020">
        <ele>1128.7</ele>
        <time>2020-11-16T09:58:18Z</time>
      </trkpt>
      <trkpt lat="28.7427280" lon="-17.7841020">
        <ele>1128.7</ele>
        <time>2020-11-16T09:58:19Z</time>
      </trkpt>
      <trkpt lat="28.7427050" lon="-17.7841230">
        <ele>1129.0</ele>
        <time>2020-11-16T09:58:20Z</time>
      </trkpt>
      <trkpt lat="28.7426980" lon="-17.7841330">
        <ele>1129.2</ele>
        <time>2020-11-16T09:58:21Z</time>
      </trkpt>
      <trkpt lat="28.7426800" lon="-17.7841520">
        <ele>1129.5</ele>
        <time>2020-11-16T09:58:22Z</time>
      </trkpt>
      <trkpt lat="28.7426800" lon="-17.7841520">
        <ele>1129.5</ele>
        <time>2020-11-16T09:58:23Z</time>
      </trkpt>
      <trkpt lat="28.7426650" lon="-17.7841820">
        <ele>1129.8</ele>
        <time>2020-11-16T09:58:24Z</time>
      </trkpt>
      <trkpt lat="28.7426650" lon="-17.7841820">
        <ele>1129.8</ele>
        <time>2020-11-16T09:58:25Z</time>
      </trkpt>
      <trkpt lat="28.7426470" lon="-17.7842150">
        <ele>1130.3</ele>
        <time>2020-11-16T09:58:26Z</time>
      </trkpt>
      <trkpt lat="28.7426470" lon="-17.7842150">
        <ele>1130.3</ele>
        <time>2020-11-16T09:58:27Z</time>
      </trkpt>
      <trkpt lat="28.7426250" lon="-17.7842520">
        <ele>1130.7</ele>
        <time>2020-11-16T09:58:28Z</time>
      </trkpt>
      <trkpt lat="28.7426250" lon="-17.7842520">
        <ele>1130.7</ele>
        <time>2020-11-16T09:58:29Z</time>
      </trkpt>
      <trkpt lat="28.7426120" lon="-17.7842830">
        <ele>1130.7</ele>
        <time>2020-11-16T09:58:30Z</time>
      </trkpt>
      <trkpt lat="28.7426080" lon="-17.7843070">
        <ele>1131.5</ele>
        <time>2020-11-16T09:58:31Z</time>
      </trkpt>
      <trkpt lat="28.7426080" lon="-17.7843070">
        <ele>1131.4</ele>
        <time>2020-11-16T09:58:32Z</time>
      </trkpt>
      <trkpt lat="28.7426050" lon="-17.7843320">
        <ele>1131.4</ele>
        <time>2020-11-16T09:58:33Z</time>
      </trkpt>
      <trkpt lat="28.7426030" lon="-17.7843430">
        <ele>1132.2</ele>
        <time>2020-11-16T09:58:34Z</time>
      </trkpt>
      <trkpt lat="28.7426030" lon="-17.7843430">
        <ele>1132.2</ele>
        <time>2020-11-16T09:58:35Z</time>
      </trkpt>
      <trkpt lat="28.7426100" lon="-17.7843600">
        <ele>1132.1</ele>
        <time>2020-11-16T09:58:36Z</time>
      </trkpt>
      <trkpt lat="28.7426100" lon="-17.7843600">
        <ele>1132.1</ele>
        <time>2020-11-16T09:58:37Z</time>
      </trkpt>
      <trkpt lat="28.7426120" lon="-17.7843770">
        <ele>1132.9</ele>
        <time>2020-11-16T09:58:38Z</time>
      </trkpt>
      <trkpt lat="28.7426120" lon="-17.7843770">
        <ele>1132.9</ele>
        <time>2020-11-16T09:58:39Z</time>
      </trkpt>
      <trkpt lat="28.7426270" lon="-17.7843980">
        <ele>1132.8</ele>
        <time>2020-11-16T09:58:40Z</time>
      </trkpt>
      <trkpt lat="28.7426270" lon="-17.7843980">
        <ele>1132.8</ele>
        <time>2020-11-16T09:58:41Z</time>
      </trkpt>
      <trkpt lat="28.7426470" lon="-17.7844100">
        <ele>1131.6</ele>
        <time>2020-11-16T09:58:42Z</time>
      </trkpt>
      <trkpt lat="28.7426470" lon="-17.7844100">
        <ele>1131.6</ele>
        <time>2020-11-16T09:58:43Z</time>
      </trkpt>
      <trkpt lat="28.7426820" lon="-17.7844170">
        <ele>1130.4</ele>
        <time>2020-11-16T09:58:44Z</time>
      </trkpt>
      <trkpt lat="28.7426970" lon="-17.7844250">
        <ele>1131.1</ele>
        <time>2020-11-16T09:58:45Z</time>
      </trkpt>
      <trkpt lat="28.7427170" lon="-17.7844280">
        <ele>1129.8</ele>
        <time>2020-11-16T09:58:46Z</time>
      </trkpt>
      <trkpt lat="28.7427170" lon="-17.7844280">
        <ele>1129.8</ele>
        <time>2020-11-16T09:58:47Z</time>
      </trkpt>
      <trkpt lat="28.7427570" lon="-17.7844450">
        <ele>1128.3</ele>
        <time>2020-11-16T09:58:48Z</time>
      </trkpt>
      <trkpt lat="28.7427750" lon="-17.7844500">
        <ele>1128.3</ele>
        <time>2020-11-16T09:58:49Z</time>
      </trkpt>
      <trkpt lat="28.7427950" lon="-17.7844630">
        <ele>1127.4</ele>
        <time>2020-11-16T09:58:50Z</time>
      </trkpt>
      <trkpt lat="28.7427950" lon="-17.7844630">
        <ele>1127.4</ele>
        <time>2020-11-16T09:58:51Z</time>
      </trkpt>
      <trkpt lat="28.7428330" lon="-17.7844770">
        <ele>1125.6</ele>
        <time>2020-11-16T09:58:52Z</time>
      </trkpt>
      <trkpt lat="28.7428330" lon="-17.7844770">
        <ele>1125.6</ele>
        <time>2020-11-16T09:58:53Z</time>
      </trkpt>
      <trkpt lat="28.7428620" lon="-17.7844900">
        <ele>1125.6</ele>
        <time>2020-11-16T09:58:54Z</time>
      </trkpt>
      <trkpt lat="28.7428620" lon="-17.7844900">
        <ele>1125.5</ele>
        <time>2020-11-16T09:58:55Z</time>
      </trkpt>
      <trkpt lat="28.7428500" lon="-17.7845120">
        <ele>1126.1</ele>
        <time>2020-11-16T09:58:56Z</time>
      </trkpt>
      <trkpt lat="28.7428500" lon="-17.7845120">
        <ele>1126.0</ele>
        <time>2020-11-16T09:58:57Z</time>
      </trkpt>
      <trkpt lat="28.7428430" lon="-17.7845370">
        <ele>1126.0</ele>
        <time>2020-11-16T09:58:58Z</time>
      </trkpt>
      <trkpt lat="28.7428430" lon="-17.7845370">
        <ele>1126.0</ele>
        <time>2020-11-16T09:58:59Z</time>
      </trkpt>
      <trkpt lat="28.7428370" lon="-17.7845620">
        <ele>1126.5</ele>
        <time>2020-11-16T09:59:00Z</time>
      </trkpt>
      <trkpt lat="28.7428280" lon="-17.7845800">
        <ele>1126.5</ele>
        <time>2020-11-16T09:59:01Z</time>
      </trkpt>
      <trkpt lat="28.7428280" lon="-17.7845800">
        <ele>1126.4</ele>
        <time>2020-11-16T09:59:02Z</time>
      </trkpt>
      <trkpt lat="28.7427800" lon="-17.7845850">
        <ele>1129.9</ele>
        <time>2020-11-16T09:59:03Z</time>
      </trkpt>
      <trkpt lat="28.7427700" lon="-17.7846030">
        <ele>1130.5</ele>
        <time>2020-11-16T09:59:04Z</time>
      </trkpt>
      <trkpt lat="28.7427700" lon="-17.7846030">
        <ele>1130.5</ele>
        <time>2020-11-16T09:59:05Z</time>
      </trkpt>
      <trkpt lat="28.7427480" lon="-17.7846200">
        <ele>1132.0</ele>
        <time>2020-11-16T09:59:06Z</time>
      </trkpt>
      <trkpt lat="28.7427480" lon="-17.7846200">
        <ele>1132.0</ele>
        <time>2020-11-16T09:59:07Z</time>
      </trkpt>
      <trkpt lat="28.7427270" lon="-17.7846270">
        <ele>1131.9</ele>
        <time>2020-11-16T09:59:08Z</time>
      </trkpt>
      <trkpt lat="28.7427270" lon="-17.7846270">
        <ele>1131.9</ele>
        <time>2020-11-16T09:59:09Z</time>
      </trkpt>
      <trkpt lat="28.7427080" lon="-17.7846320">
        <ele>1133.3</ele>
        <time>2020-11-16T09:59:10Z</time>
      </trkpt>
      <trkpt lat="28.7427000" lon="-17.7846350">
        <ele>1134.1</ele>
        <time>2020-11-16T09:59:11Z</time>
      </trkpt>
      <trkpt lat="28.7427000" lon="-17.7846350">
        <ele>1134.0</ele>
        <time>2020-11-16T09:59:12Z</time>
      </trkpt>
      <trkpt lat="28.7426780" lon="-17.7846350">
        <ele>1134.0</ele>
        <time>2020-11-16T09:59:13Z</time>
      </trkpt>
      <trkpt lat="28.7426580" lon="-17.7846250">
        <ele>1134.6</ele>
        <time>2020-11-16T09:59:14Z</time>
      </trkpt>
      <trkpt lat="28.7426580" lon="-17.7846250">
        <ele>1134.5</ele>
        <time>2020-11-16T09:59:15Z</time>
      </trkpt>
      <trkpt lat="28.7426280" lon="-17.7846170">
        <ele>1135.8</ele>
        <time>2020-11-16T09:59:16Z</time>
      </trkpt>
      <trkpt lat="28.7426280" lon="-17.7846170">
        <ele>1135.8</ele>
        <time>2020-11-16T09:59:17Z</time>
      </trkpt>
      <trkpt lat="28.7426070" lon="-17.7845880">
        <ele>1134.9</ele>
        <time>2020-11-16T09:59:18Z</time>
      </trkpt>
      <trkpt lat="28.7426030" lon="-17.7845720">
        <ele>1134.8</ele>
        <time>2020-11-16T09:59:19Z</time>
      </trkpt>
      <trkpt lat="28.7426030" lon="-17.7845720">
        <ele>1134.8</ele>
        <time>2020-11-16T09:59:20Z</time>
      </trkpt>
      <trkpt lat="28.7425870" lon="-17.7845550">
        <ele>1136.1</ele>
        <time>2020-11-16T09:59:21Z</time>
      </trkpt>
      <trkpt lat="28.7425730" lon="-17.7845420">
        <ele>1135.1</ele>
        <time>2020-11-16T09:59:22Z</time>
      </trkpt>
      <trkpt lat="28.7425730" lon="-17.7845420">
        <ele>1135.1</ele>
        <time>2020-11-16T09:59:23Z</time>
      </trkpt>
      <trkpt lat="28.7425250" lon="-17.7845100">
        <ele>1137.7</ele>
        <time>2020-11-16T09:59:24Z</time>
      </trkpt>
      <trkpt lat="28.7425100" lon="-17.7845070">
        <ele>1137.6</ele>
        <time>2020-11-16T09:59:25Z</time>
      </trkpt>
      <trkpt lat="28.7425050" lon="-17.7844870">
        <ele>1136.6</ele>
        <time>2020-11-16T09:59:26Z</time>
      </trkpt>
      <trkpt lat="28.7425050" lon="-17.7844870">
        <ele>1136.6</ele>
        <time>2020-11-16T09:59:27Z</time>
      </trkpt>
      <trkpt lat="28.7424870" lon="-17.7844550">
        <ele>1136.7</ele>
        <time>2020-11-16T09:59:28Z</time>
      </trkpt>
      <trkpt lat="28.7424870" lon="-17.7844550">
        <ele>1136.6</ele>
        <time>2020-11-16T09:59:29Z</time>
      </trkpt>
      <trkpt lat="28.7424820" lon="-17.7844200">
        <ele>1136.6</ele>
        <time>2020-11-16T09:59:30Z</time>
      </trkpt>
      <trkpt lat="28.7424770" lon="-17.7844030">
        <ele>1135.5</ele>
        <time>2020-11-16T09:59:31Z</time>
      </trkpt>
      <trkpt lat="28.7424730" lon="-17.7843880">
        <ele>1135.5</ele>
        <time>2020-11-16T09:59:32Z</time>
      </trkpt>
      <trkpt lat="28.7424730" lon="-17.7843880">
        <ele>1135.5</ele>
        <time>2020-11-16T09:59:33Z</time>
      </trkpt>
      <trkpt lat="28.7424700" lon="-17.7843520">
        <ele>1134.5</ele>
        <time>2020-11-16T09:59:34Z</time>
      </trkpt>
      <trkpt lat="28.7424700" lon="-17.7843520">
        <ele>1134.4</ele>
        <time>2020-11-16T09:59:35Z</time>
      </trkpt>
      <trkpt lat="28.7424680" lon="-17.7843230">
        <ele>1133.4</ele>
        <time>2020-11-16T09:59:36Z</time>
      </trkpt>
      <trkpt lat="28.7424720" lon="-17.7843050">
        <ele>1133.4</ele>
        <time>2020-11-16T09:59:37Z</time>
      </trkpt>
      <trkpt lat="28.7424780" lon="-17.7842870">
        <ele>1132.4</ele>
        <time>2020-11-16T09:59:38Z</time>
      </trkpt>
      <trkpt lat="28.7424780" lon="-17.7842870">
        <ele>1132.3</ele>
        <time>2020-11-16T09:59:39Z</time>
      </trkpt>
      <trkpt lat="28.7424950" lon="-17.7842570">
        <ele>1131.3</ele>
        <time>2020-11-16T09:59:40Z</time>
      </trkpt>
      <trkpt lat="28.7425030" lon="-17.7842420">
        <ele>1131.5</ele>
        <time>2020-11-16T09:59:41Z</time>
      </trkpt>
      <trkpt lat="28.7425130" lon="-17.7842250">
        <ele>1131.7</ele>
        <time>2020-11-16T09:59:42Z</time>
      </trkpt>
      <trkpt lat="28.7425130" lon="-17.7842250">
        <ele>1131.7</ele>
        <time>2020-11-16T09:59:43Z</time>
      </trkpt>
      <trkpt lat="28.7425280" lon="-17.7841930">
        <ele>1132.1</ele>
        <time>2020-11-16T09:59:44Z</time>
      </trkpt>
      <trkpt lat="28.7425280" lon="-17.7841930">
        <ele>1132.1</ele>
        <time>2020-11-16T09:59:45Z</time>
      </trkpt>
      <trkpt lat="28.7425380" lon="-17.7841670">
        <ele>1132.4</ele>
        <time>2020-11-16T09:59:46Z</time>
      </trkpt>
      <trkpt lat="28.7425420" lon="-17.7841530">
        <ele>1132.5</ele>
        <time>2020-11-16T09:59:47Z</time>
      </trkpt>
      <trkpt lat="28.7425420" lon="-17.7841530">
        <ele>1132.5</ele>
        <time>2020-11-16T09:59:48Z</time>
      </trkpt>
      <trkpt lat="28.7425630" lon="-17.7841230">
        <ele>1132.9</ele>
        <time>2020-11-16T09:59:49Z</time>
      </trkpt>
      <trkpt lat="28.7425630" lon="-17.7841230">
        <ele>1132.9</ele>
        <time>2020-11-16T09:59:50Z</time>
      </trkpt>
      <trkpt lat="28.7425780" lon="-17.7840920">
        <ele>1133.3</ele>
        <time>2020-11-16T09:59:51Z</time>
      </trkpt>
      <trkpt lat="28.7425780" lon="-17.7840920">
        <ele>1133.3</ele>
        <time>2020-11-16T09:59:52Z</time>
      </trkpt>
      <trkpt lat="28.7425830" lon="-17.7840530">
        <ele>1133.7</ele>
        <time>2020-11-16T09:59:53Z</time>
      </trkpt>
      <trkpt lat="28.7425830" lon="-17.7840530">
        <ele>1133.7</ele>
        <time>2020-11-16T09:59:54Z</time>
      </trkpt>
      <trkpt lat="28.7425780" lon="-17.7840030">
        <ele>1134.2</ele>
        <time>2020-11-16T09:59:55Z</time>
      </trkpt>
      <trkpt lat="28.7425680" lon="-17.7839800">
        <ele>1134.5</ele>
        <time>2020-11-16T09:59:56Z</time>
      </trkpt>
      <trkpt lat="28.7425680" lon="-17.7839800">
        <ele>1134.5</ele>
        <time>2020-11-16T09:59:57Z</time>
      </trkpt>
      <trkpt lat="28.7425480" lon="-17.7839520">
        <ele>1134.8</ele>
        <time>2020-11-16T09:59:58Z</time>
      </trkpt>
      <trkpt lat="28.7425380" lon="-17.7839430">
        <ele>1135.0</ele>
        <time>2020-11-16T09:59:59Z</time>
      </trkpt>
      <trkpt lat="28.7425380" lon="-17.7839430">
        <ele>1135.0</ele>
        <time>2020-11-16T10:00:00Z</time>
      </trkpt>
      <trkpt lat="28.7425320" lon="-17.7839270">
        <ele>1135.2</ele>
        <time>2020-11-16T10:00:01Z</time>
      </trkpt>
      <trkpt lat="28.7425250" lon="-17.7839200">
        <ele>1135.3</ele>
        <time>2020-11-16T10:00:02Z</time>
      </trkpt>
      <trkpt lat="28.7425250" lon="-17.7839200">
        <ele>1135.3</ele>
        <time>2020-11-16T10:00:03Z</time>
      </trkpt>
      <trkpt lat="28.7425080" lon="-17.7838970">
        <ele>1135.6</ele>
        <time>2020-11-16T10:00:04Z</time>
      </trkpt>
      <trkpt lat="28.7425080" lon="-17.7838970">
        <ele>1135.6</ele>
        <time>2020-11-16T10:00:05Z</time>
      </trkpt>
      <trkpt lat="28.7424880" lon="-17.7838670">
        <ele>1135.9</ele>
        <time>2020-11-16T10:00:06Z</time>
      </trkpt>
      <trkpt lat="28.7424800" lon="-17.7838520">
        <ele>1136.1</ele>
        <time>2020-11-16T10:00:07Z</time>
      </trkpt>
      <trkpt lat="28.7424700" lon="-17.7838350">
        <ele>1136.3</ele>
        <time>2020-11-16T10:00:08Z</time>
      </trkpt>
      <trkpt lat="28.7424700" lon="-17.7838350">
        <ele>1136.3</ele>
        <time>2020-11-16T10:00:09Z</time>
      </trkpt>
      <trkpt lat="28.7424500" lon="-17.7838080">
        <ele>1136.7</ele>
        <time>2020-11-16T10:00:10Z</time>
      </trkpt>
      <trkpt lat="28.7424500" lon="-17.7838080">
        <ele>1136.7</ele>
        <time>2020-11-16T10:00:11Z</time>
      </trkpt>
      <trkpt lat="28.7424420" lon="-17.7837780">
        <ele>1137.0</ele>
        <time>2020-11-16T10:00:12Z</time>
      </trkpt>
      <trkpt lat="28.7424420" lon="-17.7837780">
        <ele>1137.0</ele>
        <time>2020-11-16T10:00:13Z</time>
      </trkpt>
      <trkpt lat="28.7424080" lon="-17.7837570">
        <ele>1137.4</ele>
        <time>2020-11-16T10:00:14Z</time>
      </trkpt>
      <trkpt lat="28.7424080" lon="-17.7837570">
        <ele>1137.4</ele>
        <time>2020-11-16T10:00:15Z</time>
      </trkpt>
      <trkpt lat="28.7423720" lon="-17.7837250">
        <ele>1137.8</ele>
        <time>2020-11-16T10:00:16Z</time>
      </trkpt>
      <trkpt lat="28.7423550" lon="-17.7837150">
        <ele>1138.0</ele>
        <time>2020-11-16T10:00:17Z</time>
      </trkpt>
      <trkpt lat="28.7423550" lon="-17.7837150">
        <ele>1138.0</ele>
        <time>2020-11-16T10:00:18Z</time>
      </trkpt>
      <trkpt lat="28.7423230" lon="-17.7836930">
        <ele>1138.4</ele>
        <time>2020-11-16T10:00:19Z</time>
      </trkpt>
      <trkpt lat="28.7423080" lon="-17.7836880">
        <ele>1138.5</ele>
        <time>2020-11-16T10:00:20Z</time>
      </trkpt>
      <trkpt lat="28.7422970" lon="-17.7836780">
        <ele>1138.7</ele>
        <time>2020-11-16T10:00:21Z</time>
      </trkpt>
      <trkpt lat="28.7422970" lon="-17.7836780">
        <ele>1138.7</ele>
        <time>2020-11-16T10:00:22Z</time>
      </trkpt>
      <trkpt lat="28.7422750" lon="-17.7836470">
        <ele>1139.0</ele>
        <time>2020-11-16T10:00:23Z</time>
      </trkpt>
      <trkpt lat="28.7422750" lon="-17.7836470">
        <ele>1139.0</ele>
        <time>2020-11-16T10:00:24Z</time>
      </trkpt>
      <trkpt lat="28.7422350" lon="-17.7836320">
        <ele>1139.4</ele>
        <time>2020-11-16T10:00:25Z</time>
      </trkpt>
      <trkpt lat="28.7422350" lon="-17.7836320">
        <ele>1139.4</ele>
        <time>2020-11-16T10:00:26Z</time>
      </trkpt>
      <trkpt lat="28.7422250" lon="-17.7835950">
        <ele>1139.6</ele>
        <time>2020-11-16T10:00:27Z</time>
      </trkpt>
      <trkpt lat="28.7422250" lon="-17.7835950">
        <ele>1139.6</ele>
        <time>2020-11-16T10:00:28Z</time>
      </trkpt>
      <trkpt lat="28.7422250" lon="-17.7835600">
        <ele>1139.9</ele>
        <time>2020-11-16T10:00:29Z</time>
      </trkpt>
      <trkpt lat="28.7422170" lon="-17.7835470">
        <ele>1140.0</ele>
        <time>2020-11-16T10:00:30Z</time>
      </trkpt>
      <trkpt lat="28.7422170" lon="-17.7835470">
        <ele>1140.0</ele>
        <time>2020-11-16T10:00:31Z</time>
      </trkpt>
      <trkpt lat="28.7422170" lon="-17.7835330">
        <ele>1140.1</ele>
        <time>2020-11-16T10:00:32Z</time>
      </trkpt>
      <trkpt lat="28.7422170" lon="-17.7835330">
        <ele>1140.1</ele>
        <time>2020-11-16T10:00:33Z</time>
      </trkpt>
      <trkpt lat="28.7422170" lon="-17.7835120">
        <ele>1140.3</ele>
        <time>2020-11-16T10:00:34Z</time>
      </trkpt>
      <trkpt lat="28.7422200" lon="-17.7835050">
        <ele>1140.3</ele>
        <time>2020-11-16T10:00:35Z</time>
      </trkpt>
      <trkpt lat="28.7422200" lon="-17.7835050">
        <ele>1140.3</ele>
        <time>2020-11-16T10:00:36Z</time>
      </trkpt>
      <trkpt lat="28.7422130" lon="-17.7834630">
        <ele>1140.6</ele>
        <time>2020-11-16T10:00:37Z</time>
      </trkpt>
      <trkpt lat="28.7422130" lon="-17.7834630">
        <ele>1140.6</ele>
        <time>2020-11-16T10:00:38Z</time>
      </trkpt>
      <trkpt lat="28.7422100" lon="-17.7834270">
        <ele>1140.9</ele>
        <time>2020-11-16T10:00:39Z</time>
      </trkpt>
      <trkpt lat="28.7422100" lon="-17.7834270">
        <ele>1140.9</ele>
        <time>2020-11-16T10:00:40Z</time>
      </trkpt>
      <trkpt lat="28.7421980" lon="-17.7833970">
        <ele>1141.1</ele>
        <time>2020-11-16T10:00:41Z</time>
      </trkpt>
      <trkpt lat="28.7421980" lon="-17.7833970">
        <ele>1141.1</ele>
        <time>2020-11-16T10:00:42Z</time>
      </trkpt>
      <trkpt lat="28.7421730" lon="-17.7833900">
        <ele>1141.4</ele>
        <time>2020-11-16T10:00:43Z</time>
      </trkpt>
      <trkpt lat="28.7421570" lon="-17.7833930">
        <ele>1141.5</ele>
        <time>2020-11-16T10:00:44Z</time>
      </trkpt>
      <trkpt lat="28.7421570" lon="-17.7833930">
        <ele>1141.5</ele>
        <time>2020-11-16T10:00:45Z</time>
      </trkpt>
      <trkpt lat="28.7421230" lon="-17.7834030">
        <ele>1141.9</ele>
        <time>2020-11-16T10:00:46Z</time>
      </trkpt>
      <trkpt lat="28.7421230" lon="-17.7834030">
        <ele>1141.9</ele>
        <time>2020-11-16T10:00:47Z</time>
      </trkpt>
      <trkpt lat="28.7421050" lon="-17.7834280">
        <ele>1142.2</ele>
        <time>2020-11-16T10:00:48Z</time>
      </trkpt>
      <trkpt lat="28.7421000" lon="-17.7834400">
        <ele>1142.3</ele>
        <time>2020-11-16T10:00:49Z</time>
      </trkpt>
      <trkpt lat="28.7421000" lon="-17.7834400">
        <ele>1142.3</ele>
        <time>2020-11-16T10:00:50Z</time>
      </trkpt>
      <trkpt lat="28.7420720" lon="-17.7834700">
        <ele>1142.7</ele>
        <time>2020-11-16T10:00:51Z</time>
      </trkpt>
      <trkpt lat="28.7420620" lon="-17.7834830">
        <ele>1142.8</ele>
        <time>2020-11-16T10:00:52Z</time>
      </trkpt>
      <trkpt lat="28.7420530" lon="-17.7834970">
        <ele>1143.0</ele>
        <time>2020-11-16T10:00:53Z</time>
      </trkpt>
      <trkpt lat="28.7420530" lon="-17.7834970">
        <ele>1143.0</ele>
        <time>2020-11-16T10:00:54Z</time>
      </trkpt>
      <trkpt lat="28.7420530" lon="-17.7835200">
        <ele>1143.2</ele>
        <time>2020-11-16T10:00:55Z</time>
      </trkpt>
      <trkpt lat="28.7420530" lon="-17.7835200">
        <ele>1143.2</ele>
        <time>2020-11-16T10:00:56Z</time>
      </trkpt>
      <trkpt lat="28.7420650" lon="-17.7835470">
        <ele>1143.4</ele>
        <time>2020-11-16T10:00:57Z</time>
      </trkpt>
      <trkpt lat="28.7420650" lon="-17.7835470">
        <ele>1143.4</ele>
        <time>2020-11-16T10:00:58Z</time>
      </trkpt>
      <trkpt lat="28.7420720" lon="-17.7835750">
        <ele>1143.7</ele>
        <time>2020-11-16T10:00:59Z</time>
      </trkpt>
      <trkpt lat="28.7420780" lon="-17.7835870">
        <ele>1143.8</ele>
        <time>2020-11-16T10:01:00Z</time>
      </trkpt>
      <trkpt lat="28.7420780" lon="-17.7835870">
        <ele>1143.8</ele>
        <time>2020-11-16T10:01:01Z</time>
      </trkpt>
      <trkpt lat="28.7421030" lon="-17.7836100">
        <ele>1144.1</ele>
        <time>2020-11-16T10:01:02Z</time>
      </trkpt>
      <trkpt lat="28.7421030" lon="-17.7836100">
        <ele>1144.1</ele>
        <time>2020-11-16T10:01:03Z</time>
      </trkpt>
      <trkpt lat="28.7421080" lon="-17.7836280">
        <ele>1144.3</ele>
        <time>2020-11-16T10:01:04Z</time>
      </trkpt>
      <trkpt lat="28.7421130" lon="-17.7836320">
        <ele>1144.3</ele>
        <time>2020-11-16T10:01:05Z</time>
      </trkpt>
      <trkpt lat="28.7421130" lon="-17.7836320">
        <ele>1144.3</ele>
        <time>2020-11-16T10:01:06Z</time>
      </trkpt>
      <trkpt lat="28.7421220" lon="-17.7836480">
        <ele>1144.5</ele>
        <time>2020-11-16T10:01:07Z</time>
      </trkpt>
      <trkpt lat="28.7421220" lon="-17.7836480">
        <ele>1144.5</ele>
        <time>2020-11-16T10:01:08Z</time>
      </trkpt>
      <trkpt lat="28.7421320" lon="-17.7836620">
        <ele>1144.6</ele>
        <time>2020-11-16T10:01:09Z</time>
      </trkpt>
      <trkpt lat="28.7421320" lon="-17.7836620">
        <ele>1144.6</ele>
        <time>2020-11-16T10:01:10Z</time>
      </trkpt>
      <trkpt lat="28.7421500" lon="-17.7836850">
        <ele>1144.9</ele>
        <time>2020-11-16T10:01:11Z</time>
      </trkpt>
      <trkpt lat="28.7421500" lon="-17.7836850">
        <ele>1144.9</ele>
        <time>2020-11-16T10:01:12Z</time>
      </trkpt>
      <trkpt lat="28.7421700" lon="-17.7837130">
        <ele>1145.1</ele>
        <time>2020-11-16T10:01:13Z</time>
      </trkpt>
      <trkpt lat="28.7421700" lon="-17.7837130">
        <ele>1145.1</ele>
        <time>2020-11-16T10:01:14Z</time>
      </trkpt>
      <trkpt lat="28.7421880" lon="-17.7837400">
        <ele>1145.4</ele>
        <time>2020-11-16T10:01:15Z</time>
      </trkpt>
      <trkpt lat="28.7422000" lon="-17.7837500">
        <ele>1145.5</ele>
        <time>2020-11-16T10:01:16Z</time>
      </trkpt>
      <trkpt lat="28.7422000" lon="-17.7837500">
        <ele>1145.5</ele>
        <time>2020-11-16T10:01:17Z</time>
      </trkpt>
      <trkpt lat="28.7422200" lon="-17.7837750">
        <ele>1145.8</ele>
        <time>2020-11-16T10:01:18Z</time>
      </trkpt>
      <trkpt lat="28.7422200" lon="-17.7837750">
        <ele>1145.8</ele>
        <time>2020-11-16T10:01:19Z</time>
      </trkpt>
      <trkpt lat="28.7422480" lon="-17.7838080">
        <ele>1146.2</ele>
        <time>2020-11-16T10:01:20Z</time>
      </trkpt>
      <trkpt lat="28.7422480" lon="-17.7838080">
        <ele>1146.2</ele>
        <time>2020-11-16T10:01:21Z</time>
      </trkpt>
      <trkpt lat="28.7422800" lon="-17.7838280">
        <ele>1146.5</ele>
        <time>2020-11-16T10:01:22Z</time>
      </trkpt>
      <trkpt lat="28.7422930" lon="-17.7838450">
        <ele>1146.7</ele>
        <time>2020-11-16T10:01:23Z</time>
      </trkpt>
      <trkpt lat="28.7422930" lon="-17.7838450">
        <ele>1146.7</ele>
        <time>2020-11-16T10:01:24Z</time>
      </trkpt>
      <trkpt lat="28.7423000" lon="-17.7838700">
        <ele>1147.0</ele>
        <time>2020-11-16T10:01:25Z</time>
      </trkpt>
      <trkpt lat="28.7423000" lon="-17.7838700">
        <ele>1147.0</ele>
        <time>2020-11-16T10:01:26Z</time>
      </trkpt>
      <trkpt lat="28.7423180" lon="-17.7839000">
        <ele>1147.3</ele>
        <time>2020-11-16T10:01:27Z</time>
      </trkpt>
      <trkpt lat="28.7423180" lon="-17.7839000">
        <ele>1147.3</ele>
        <time>2020-11-16T10:01:28Z</time>
      </trkpt>
      <trkpt lat="28.7423430" lon="-17.7839320">
        <ele>1147.8</ele>
        <time>2020-11-16T10:01:29Z</time>
      </trkpt>
      <trkpt lat="28.7423430" lon="-17.7839320">
        <ele>1147.8</ele>
        <time>2020-11-16T10:01:30Z</time>
      </trkpt>
      <trkpt lat="28.7423720" lon="-17.7839820">
        <ele>1148.4</ele>
        <time>2020-11-16T10:01:31Z</time>
      </trkpt>
      <trkpt lat="28.7423820" lon="-17.7840080">
        <ele>1148.8</ele>
        <time>2020-11-16T10:01:32Z</time>
      </trkpt>
      <trkpt lat="28.7423820" lon="-17.7840080">
        <ele>1148.8</ele>
        <time>2020-11-16T10:01:33Z</time>
      </trkpt>
      <trkpt lat="28.7423870" lon="-17.7840450">
        <ele>1149.2</ele>
        <time>2020-11-16T10:01:34Z</time>
      </trkpt>
      <trkpt lat="28.7423870" lon="-17.7840450">
        <ele>1149.2</ele>
        <time>2020-11-16T10:01:35Z</time>
      </trkpt>
      <trkpt lat="28.7423770" lon="-17.7840620">
        <ele>1149.4</ele>
        <time>2020-11-16T10:01:36Z</time>
      </trkpt>
      <trkpt lat="28.7423750" lon="-17.7840730">
        <ele>1149.6</ele>
        <time>2020-11-16T10:01:37Z</time>
      </trkpt>
      <trkpt lat="28.7423750" lon="-17.7840730">
        <ele>1149.6</ele>
        <time>2020-11-16T10:01:38Z</time>
      </trkpt>
      <trkpt lat="28.7423680" lon="-17.7840980">
        <ele>1149.9</ele>
        <time>2020-11-16T10:01:39Z</time>
      </trkpt>
      <trkpt lat="28.7423680" lon="-17.7840980">
        <ele>1149.9</ele>
        <time>2020-11-16T10:01:40Z</time>
      </trkpt>
      <trkpt lat="28.7423630" lon="-17.7841350">
        <ele>1150.3</ele>
        <time>2020-11-16T10:01:41Z</time>
      </trkpt>
      <trkpt lat="28.7423630" lon="-17.7841350">
        <ele>1150.3</ele>
        <time>2020-11-16T10:01:42Z</time>
      </trkpt>
      <trkpt lat="28.7423620" lon="-17.7841680">
        <ele>1150.6</ele>
        <time>2020-11-16T10:01:43Z</time>
      </trkpt>
      <trkpt lat="28.7423620" lon="-17.7841680">
        <ele>1150.6</ele>
        <time>2020-11-16T10:01:44Z</time>
      </trkpt>
      <trkpt lat="28.7423570" lon="-17.7842080">
        <ele>1151.1</ele>
        <time>2020-11-16T10:01:45Z</time>
      </trkpt>
      <trkpt lat="28.7423570" lon="-17.7842080">
        <ele>1151.1</ele>
        <time>2020-11-16T10:01:46Z</time>
      </trkpt>
      <trkpt lat="28.7423500" lon="-17.7842470">
        <ele>1151.5</ele>
        <time>2020-11-16T10:01:47Z</time>
      </trkpt>
      <trkpt lat="28.7423380" lon="-17.7842580">
        <ele>1151.7</ele>
        <time>2020-11-16T10:01:48Z</time>
      </trkpt>
      <trkpt lat="28.7423380" lon="-17.7842580">
        <ele>1151.7</ele>
        <time>2020-11-16T10:01:49Z</time>
      </trkpt>
      <trkpt lat="28.7423270" lon="-17.7842920">
        <ele>1152.0</ele>
        <time>2020-11-16T10:01:50Z</time>
      </trkpt>
      <trkpt lat="28.7423270" lon="-17.7842920">
        <ele>1152.0</ele>
        <time>2020-11-16T10:01:51Z</time>
      </trkpt>
      <trkpt lat="28.7423280" lon="-17.7843280">
        <ele>1152.4</ele>
        <time>2020-11-16T10:01:52Z</time>
      </trkpt>
      <trkpt lat="28.7423280" lon="-17.7843430">
        <ele>1152.5</ele>
        <time>2020-11-16T10:01:53Z</time>
      </trkpt>
      <trkpt lat="28.7423280" lon="-17.7843430">
        <ele>1152.5</ele>
        <time>2020-11-16T10:01:54Z</time>
      </trkpt>
      <trkpt lat="28.7423200" lon="-17.7843750">
        <ele>1152.8</ele>
        <time>2020-11-16T10:01:55Z</time>
      </trkpt>
      <trkpt lat="28.7423200" lon="-17.7843750">
        <ele>1152.8</ele>
        <time>2020-11-16T10:01:56Z</time>
      </trkpt>
      <trkpt lat="28.7423150" lon="-17.7844050">
        <ele>1153.1</ele>
        <time>2020-11-16T10:01:57Z</time>
      </trkpt>
      <trkpt lat="28.7423150" lon="-17.7844050">
        <ele>1153.1</ele>
        <time>2020-11-16T10:01:58Z</time>
      </trkpt>
      <trkpt lat="28.7423050" lon="-17.7844270">
        <ele>1153.3</ele>
        <time>2020-11-16T10:01:59Z</time>
      </trkpt>
      <trkpt lat="28.7423050" lon="-17.7844270">
        <ele>1153.3</ele>
        <time>2020-11-16T10:02:00Z</time>
      </trkpt>
      <trkpt lat="28.7422930" lon="-17.7844500">
        <ele>1153.5</ele>
        <time>2020-11-16T10:02:01Z</time>
      </trkpt>
      <trkpt lat="28.7422930" lon="-17.7844500">
        <ele>1153.5</ele>
        <time>2020-11-16T10:02:02Z</time>
      </trkpt>
      <trkpt lat="28.7422670" lon="-17.7844900">
        <ele>1154.0</ele>
        <time>2020-11-16T10:02:03Z</time>
      </trkpt>
      <trkpt lat="28.7422600" lon="-17.7845220">
        <ele>1154.3</ele>
        <time>2020-11-16T10:02:04Z</time>
      </trkpt>
      <trkpt lat="28.7422600" lon="-17.7845220">
        <ele>1154.3</ele>
        <time>2020-11-16T10:02:05Z</time>
      </trkpt>
      <trkpt lat="28.7422400" lon="-17.7845530">
        <ele>1154.6</ele>
        <time>2020-11-16T10:02:06Z</time>
      </trkpt>
      <trkpt lat="28.7422400" lon="-17.7845530">
        <ele>1154.6</ele>
        <time>2020-11-16T10:02:07Z</time>
      </trkpt>
      <trkpt lat="28.7422280" lon="-17.7845800">
        <ele>1154.9</ele>
        <time>2020-11-16T10:02:08Z</time>
      </trkpt>
      <trkpt lat="28.7422280" lon="-17.7845800">
        <ele>1154.9</ele>
        <time>2020-11-16T10:02:09Z</time>
      </trkpt>
      <trkpt lat="28.7422300" lon="-17.7846080">
        <ele>1155.2</ele>
        <time>2020-11-16T10:02:10Z</time>
      </trkpt>
      <trkpt lat="28.7422280" lon="-17.7846220">
        <ele>1155.4</ele>
        <time>2020-11-16T10:02:11Z</time>
      </trkpt>
      <trkpt lat="28.7422280" lon="-17.7846220">
        <ele>1155.4</ele>
        <time>2020-11-16T10:02:12Z</time>
      </trkpt>
      <trkpt lat="28.7422150" lon="-17.7846500">
        <ele>1155.7</ele>
        <time>2020-11-16T10:02:13Z</time>
      </trkpt>
      <trkpt lat="28.7422070" lon="-17.7846600">
        <ele>1155.8</ele>
        <time>2020-11-16T10:02:14Z</time>
      </trkpt>
      <trkpt lat="28.7422070" lon="-17.7846600">
        <ele>1155.8</ele>
        <time>2020-11-16T10:02:15Z</time>
      </trkpt>
      <trkpt lat="28.7422070" lon="-17.7846970">
        <ele>1156.2</ele>
        <time>2020-11-16T10:02:16Z</time>
      </trkpt>
      <trkpt lat="28.7422030" lon="-17.7847150">
        <ele>1156.4</ele>
        <time>2020-11-16T10:02:17Z</time>
      </trkpt>
      <trkpt lat="28.7422030" lon="-17.7847150">
        <ele>1156.4</ele>
        <time>2020-11-16T10:02:18Z</time>
      </trkpt>
      <trkpt lat="28.7421880" lon="-17.7847570">
        <ele>1156.9</ele>
        <time>2020-11-16T10:02:19Z</time>
      </trkpt>
      <trkpt lat="28.7421820" lon="-17.7847750">
        <ele>1157.0</ele>
        <time>2020-11-16T10:02:20Z</time>
      </trkpt>
      <trkpt lat="28.7421820" lon="-17.7847750">
        <ele>1157.0</ele>
        <time>2020-11-16T10:02:21Z</time>
      </trkpt>
      <trkpt lat="28.7421670" lon="-17.7848170">
        <ele>1157.4</ele>
        <time>2020-11-16T10:02:22Z</time>
      </trkpt>
      <trkpt lat="28.7421670" lon="-17.7848170">
        <ele>1157.4</ele>
        <time>2020-11-16T10:02:23Z</time>
      </trkpt>
      <trkpt lat="28.7421520" lon="-17.7848550">
        <ele>1157.8</ele>
        <time>2020-11-16T10:02:24Z</time>
      </trkpt>
      <trkpt lat="28.7421430" lon="-17.7848670">
        <ele>1157.9</ele>
        <time>2020-11-16T10:02:25Z</time>
      </trkpt>
      <trkpt lat="28.7421400" lon="-17.7848800">
        <ele>1158.0</ele>
        <time>2020-11-16T10:02:26Z</time>
      </trkpt>
      <trkpt lat="28.7421400" lon="-17.7848800">
        <ele>1158.0</ele>
        <time>2020-11-16T10:02:27Z</time>
      </trkpt>
      <trkpt lat="28.7421320" lon="-17.7849150">
        <ele>1158.3</ele>
        <time>2020-11-16T10:02:28Z</time>
      </trkpt>
      <trkpt lat="28.7421320" lon="-17.7849150">
        <ele>1158.4</ele>
        <time>2020-11-16T10:02:29Z</time>
      </trkpt>
      <trkpt lat="28.7421270" lon="-17.7849470">
        <ele>1159.4</ele>
        <time>2020-11-16T10:02:30Z</time>
      </trkpt>
      <trkpt lat="28.7421270" lon="-17.7849470">
        <ele>1159.5</ele>
        <time>2020-11-16T10:02:31Z</time>
      </trkpt>
      <trkpt lat="28.7421080" lon="-17.7849950">
        <ele>1161.3</ele>
        <time>2020-11-16T10:02:32Z</time>
      </trkpt>
      <trkpt lat="28.7421020" lon="-17.7850250">
        <ele>1162.2</ele>
        <time>2020-11-16T10:02:33Z</time>
      </trkpt>
      <trkpt lat="28.7421100" lon="-17.7850420">
        <ele>1162.3</ele>
        <time>2020-11-16T10:02:34Z</time>
      </trkpt>
      <trkpt lat="28.7421100" lon="-17.7850420">
        <ele>1162.4</ele>
        <time>2020-11-16T10:02:35Z</time>
      </trkpt>
      <trkpt lat="28.7421530" lon="-17.7850630">
        <ele>1161.2</ele>
        <time>2020-11-16T10:02:36Z</time>
      </trkpt>
      <trkpt lat="28.7421530" lon="-17.7850630">
        <ele>1161.3</ele>
        <time>2020-11-16T10:02:37Z</time>
      </trkpt>
      <trkpt lat="28.7421920" lon="-17.7850930">
        <ele>1160.1</ele>
        <time>2020-11-16T10:02:38Z</time>
      </trkpt>
      <trkpt lat="28.7421920" lon="-17.7850930">
        <ele>1160.1</ele>
        <time>2020-11-16T10:02:39Z</time>
      </trkpt>
      <trkpt lat="28.7422300" lon="-17.7851250">
        <ele>1160.7</ele>
        <time>2020-11-16T10:02:40Z</time>
      </trkpt>
      <trkpt lat="28.7422300" lon="-17.7851250">
        <ele>1160.7</ele>
        <time>2020-11-16T10:02:41Z</time>
      </trkpt>
      <trkpt lat="28.7422720" lon="-17.7851550">
        <ele>1161.3</ele>
        <time>2020-11-16T10:02:42Z</time>
      </trkpt>
      <trkpt lat="28.7422880" lon="-17.7851670">
        <ele>1161.5</ele>
        <time>2020-11-16T10:02:43Z</time>
      </trkpt>
      <trkpt lat="28.7422880" lon="-17.7851670">
        <ele>1161.5</ele>
        <time>2020-11-16T10:02:44Z</time>
      </trkpt>
      <trkpt lat="28.7423200" lon="-17.7851880">
        <ele>1161.9</ele>
        <time>2020-11-16T10:02:45Z</time>
      </trkpt>
      <trkpt lat="28.7423200" lon="-17.7851880">
        <ele>1161.9</ele>
        <time>2020-11-16T10:02:46Z</time>
      </trkpt>
      <trkpt lat="28.7423500" lon="-17.7852020">
        <ele>1162.2</ele>
        <time>2020-11-16T10:02:47Z</time>
      </trkpt>
      <trkpt lat="28.7423650" lon="-17.7852070">
        <ele>1162.3</ele>
        <time>2020-11-16T10:02:48Z</time>
      </trkpt>
      <trkpt lat="28.7423650" lon="-17.7852070">
        <ele>1162.3</ele>
        <time>2020-11-16T10:02:49Z</time>
      </trkpt>
      <trkpt lat="28.7423920" lon="-17.7852200">
        <ele>1162.6</ele>
        <time>2020-11-16T10:02:50Z</time>
      </trkpt>
      <trkpt lat="28.7423920" lon="-17.7852200">
        <ele>1162.6</ele>
        <time>2020-11-16T10:02:51Z</time>
      </trkpt>
      <trkpt lat="28.7424030" lon="-17.7852450">
        <ele>1162.8</ele>
        <time>2020-11-16T10:02:52Z</time>
      </trkpt>
      <trkpt lat="28.7424030" lon="-17.7852450">
        <ele>1162.8</ele>
        <time>2020-11-16T10:02:53Z</time>
      </trkpt>
      <trkpt lat="28.7424050" lon="-17.7852720">
        <ele>1163.0</ele>
        <time>2020-11-16T10:02:54Z</time>
      </trkpt>
      <trkpt lat="28.7424050" lon="-17.7852720">
        <ele>1163.0</ele>
        <time>2020-11-16T10:02:55Z</time>
      </trkpt>
      <trkpt lat="28.7423980" lon="-17.7852980">
        <ele>1163.2</ele>
        <time>2020-11-16T10:02:56Z</time>
      </trkpt>
      <trkpt lat="28.7423980" lon="-17.7852980">
        <ele>1163.2</ele>
        <time>2020-11-16T10:02:57Z</time>
      </trkpt>
      <trkpt lat="28.7423950" lon="-17.7853270">
        <ele>1163.4</ele>
        <time>2020-11-16T10:02:58Z</time>
      </trkpt>
      <trkpt lat="28.7423950" lon="-17.7853350">
        <ele>1163.4</ele>
        <time>2020-11-16T10:02:59Z</time>
      </trkpt>
      <trkpt lat="28.7423950" lon="-17.7853350">
        <ele>1163.4</ele>
        <time>2020-11-16T10:03:00Z</time>
      </trkpt>
      <trkpt lat="28.7423900" lon="-17.7853630">
        <ele>1163.6</ele>
        <time>2020-11-16T10:03:01Z</time>
      </trkpt>
      <trkpt lat="28.7423900" lon="-17.7853630">
        <ele>1163.6</ele>
        <time>2020-11-16T10:03:02Z</time>
      </trkpt>
      <trkpt lat="28.7423650" lon="-17.7853880">
        <ele>1163.9</ele>
        <time>2020-11-16T10:03:03Z</time>
      </trkpt>
      <trkpt lat="28.7423500" lon="-17.7853800">
        <ele>1164.0</ele>
        <time>2020-11-16T10:03:04Z</time>
      </trkpt>
      <trkpt lat="28.7423500" lon="-17.7853800">
        <ele>1164.0</ele>
        <time>2020-11-16T10:03:05Z</time>
      </trkpt>
      <trkpt lat="28.7423150" lon="-17.7853680">
        <ele>1164.3</ele>
        <time>2020-11-16T10:03:06Z</time>
      </trkpt>
      <trkpt lat="28.7423150" lon="-17.7853680">
        <ele>1164.3</ele>
        <time>2020-11-16T10:03:07Z</time>
      </trkpt>
      <trkpt lat="28.7422900" lon="-17.7853670">
        <ele>1164.5</ele>
        <time>2020-11-16T10:03:08Z</time>
      </trkpt>
      <trkpt lat="28.7422880" lon="-17.7853770">
        <ele>1164.6</ele>
        <time>2020-11-16T10:03:09Z</time>
      </trkpt>
      <trkpt lat="28.7422880" lon="-17.7853770">
        <ele>1164.6</ele>
        <time>2020-11-16T10:03:10Z</time>
      </trkpt>
      <trkpt lat="28.7422670" lon="-17.7853680">
        <ele>1164.8</ele>
        <time>2020-11-16T10:03:11Z</time>
      </trkpt>
      <trkpt lat="28.7422570" lon="-17.7853650">
        <ele>1164.8</ele>
        <time>2020-11-16T10:03:12Z</time>
      </trkpt>
      <trkpt lat="28.7422570" lon="-17.7853650">
        <ele>1164.8</ele>
        <time>2020-11-16T10:03:13Z</time>
      </trkpt>
      <trkpt lat="28.7422350" lon="-17.7853500">
        <ele>1165.1</ele>
        <time>2020-11-16T10:03:14Z</time>
      </trkpt>
      <trkpt lat="28.7422220" lon="-17.7853470">
        <ele>1165.2</ele>
        <time>2020-11-16T10:03:15Z</time>
      </trkpt>
      <trkpt lat="28.7422220" lon="-17.7853470">
        <ele>1165.2</ele>
        <time>2020-11-16T10:03:16Z</time>
      </trkpt>
      <trkpt lat="28.7422050" lon="-17.7853280">
        <ele>1165.4</ele>
        <time>2020-11-16T10:03:17Z</time>
      </trkpt>
      <trkpt lat="28.7422050" lon="-17.7853280">
        <ele>1165.4</ele>
        <time>2020-11-16T10:03:18Z</time>
      </trkpt>
      <trkpt lat="28.7421770" lon="-17.7853030">
        <ele>1165.7</ele>
        <time>2020-11-16T10:03:19Z</time>
      </trkpt>
      <trkpt lat="28.7421650" lon="-17.7852930">
        <ele>1165.8</ele>
        <time>2020-11-16T10:03:20Z</time>
      </trkpt>
      <trkpt lat="28.7421480" lon="-17.7852800">
        <ele>1166.0</ele>
        <time>2020-11-16T10:03:21Z</time>
      </trkpt>
      <trkpt lat="28.7421480" lon="-17.7852800">
        <ele>1166.0</ele>
        <time>2020-11-16T10:03:22Z</time>
      </trkpt>
      <trkpt lat="28.7421150" lon="-17.7852600">
        <ele>1166.3</ele>
        <time>2020-11-16T10:03:23Z</time>
      </trkpt>
      <trkpt lat="28.7421020" lon="-17.7852450">
        <ele>1166.5</ele>
        <time>2020-11-16T10:03:24Z</time>
      </trkpt>
      <trkpt lat="28.7421020" lon="-17.7852450">
        <ele>1166.5</ele>
        <time>2020-11-16T10:03:25Z</time>
      </trkpt>
      <trkpt lat="28.7420720" lon="-17.7852150">
        <ele>1166.8</ele>
        <time>2020-11-16T10:03:26Z</time>
      </trkpt>
      <trkpt lat="28.7420720" lon="-17.7852150">
        <ele>1166.8</ele>
        <time>2020-11-16T10:03:27Z</time>
      </trkpt>
      <trkpt lat="28.7420450" lon="-17.7851850">
        <ele>1167.2</ele>
        <time>2020-11-16T10:03:28Z</time>
      </trkpt>
      <trkpt lat="28.7420270" lon="-17.7851670">
        <ele>1167.5</ele>
        <time>2020-11-16T10:03:29Z</time>
      </trkpt>
      <trkpt lat="28.7420270" lon="-17.7851670">
        <ele>1167.5</ele>
        <time>2020-11-16T10:03:30Z</time>
      </trkpt>
      <trkpt lat="28.7420050" lon="-17.7851350">
        <ele>1167.8</ele>
        <time>2020-11-16T10:03:31Z</time>
      </trkpt>
      <trkpt lat="28.7420050" lon="-17.7851350">
        <ele>1167.8</ele>
        <time>2020-11-16T10:03:32Z</time>
      </trkpt>
      <trkpt lat="28.7419880" lon="-17.7851130">
        <ele>1168.1</ele>
        <time>2020-11-16T10:03:33Z</time>
      </trkpt>
      <trkpt lat="28.7419880" lon="-17.7851130">
        <ele>1168.1</ele>
        <time>2020-11-16T10:03:34Z</time>
      </trkpt>
      <trkpt lat="28.7419750" lon="-17.7850920">
        <ele>1168.3</ele>
        <time>2020-11-16T10:03:35Z</time>
      </trkpt>
      <trkpt lat="28.7419750" lon="-17.7850920">
        <ele>1168.3</ele>
        <time>2020-11-16T10:03:36Z</time>
      </trkpt>
      <trkpt lat="28.7419600" lon="-17.7850770">
        <ele>1168.5</ele>
        <time>2020-11-16T10:03:37Z</time>
      </trkpt>
      <trkpt lat="28.7419530" lon="-17.7850670">
        <ele>1168.6</ele>
        <time>2020-11-16T10:03:38Z</time>
      </trkpt>
      <trkpt lat="28.7419480" lon="-17.7850570">
        <ele>1168.7</ele>
        <time>2020-11-16T10:03:39Z</time>
      </trkpt>
      <trkpt lat="28.7419480" lon="-17.7850570">
        <ele>1168.7</ele>
        <time>2020-11-16T10:03:40Z</time>
      </trkpt>
      <trkpt lat="28.7419350" lon="-17.7850350">
        <ele>1168.9</ele>
        <time>2020-11-16T10:03:41Z</time>
      </trkpt>
      <trkpt lat="28.7419280" lon="-17.7850150">
        <ele>1169.1</ele>
        <time>2020-11-16T10:03:42Z</time>
      </trkpt>
      <trkpt lat="28.7419280" lon="-17.7850150">
        <ele>1169.1</ele>
        <time>2020-11-16T10:03:43Z</time>
      </trkpt>
      <trkpt lat="28.7419120" lon="-17.7849680">
        <ele>1169.6</ele>
        <time>2020-11-16T10:03:44Z</time>
      </trkpt>
      <trkpt lat="28.7419250" lon="-17.7849430">
        <ele>1169.8</ele>
        <time>2020-11-16T10:03:45Z</time>
      </trkpt>
      <trkpt lat="28.7419250" lon="-17.7849430">
        <ele>1169.8</ele>
        <time>2020-11-16T10:03:46Z</time>
      </trkpt>
      <trkpt lat="28.7419230" lon="-17.7848830">
        <ele>1170.3</ele>
        <time>2020-11-16T10:03:47Z</time>
      </trkpt>
      <trkpt lat="28.7419270" lon="-17.7848580">
        <ele>1170.6</ele>
        <time>2020-11-16T10:03:48Z</time>
      </trkpt>
      <trkpt lat="28.7419320" lon="-17.7848420">
        <ele>1170.7</ele>
        <time>2020-11-16T10:03:49Z</time>
      </trkpt>
      <trkpt lat="28.7419320" lon="-17.7848420">
        <ele>1170.7</ele>
        <time>2020-11-16T10:03:50Z</time>
      </trkpt>
      <trkpt lat="28.7419470" lon="-17.7847950">
        <ele>1171.2</ele>
        <time>2020-11-16T10:03:51Z</time>
      </trkpt>
      <trkpt lat="28.7419470" lon="-17.7847950">
        <ele>1171.2</ele>
        <time>2020-11-16T10:03:52Z</time>
      </trkpt>
      <trkpt lat="28.7419470" lon="-17.7847570">
        <ele>1171.5</ele>
        <time>2020-11-16T10:03:53Z</time>
      </trkpt>
      <trkpt lat="28.7419470" lon="-17.7847570">
        <ele>1171.5</ele>
        <time>2020-11-16T10:03:54Z</time>
      </trkpt>
      <trkpt lat="28.7419300" lon="-17.7847300">
        <ele>1171.9</ele>
        <time>2020-11-16T10:03:55Z</time>
      </trkpt>
      <trkpt lat="28.7419250" lon="-17.7847170">
        <ele>1172.0</ele>
        <time>2020-11-16T10:03:56Z</time>
      </trkpt>
      <trkpt lat="28.7419250" lon="-17.7847170">
        <ele>1172.0</ele>
        <time>2020-11-16T10:03:57Z</time>
      </trkpt>
      <trkpt lat="28.7419130" lon="-17.7846930">
        <ele>1172.2</ele>
        <time>2020-11-16T10:03:58Z</time>
      </trkpt>
      <trkpt lat="28.7419130" lon="-17.7846930">
        <ele>1172.2</ele>
        <time>2020-11-16T10:03:59Z</time>
      </trkpt>
      <trkpt lat="28.7418900" lon="-17.7846950">
        <ele>1172.5</ele>
        <time>2020-11-16T10:04:00Z</time>
      </trkpt>
      <trkpt lat="28.7418820" lon="-17.7846930">
        <ele>1172.6</ele>
        <time>2020-11-16T10:04:01Z</time>
      </trkpt>
      <trkpt lat="28.7418820" lon="-17.7846930">
        <ele>1172.6</ele>
        <time>2020-11-16T10:04:02Z</time>
      </trkpt>
      <trkpt lat="28.7418600" lon="-17.7847050">
        <ele>1172.8</ele>
        <time>2020-11-16T10:04:03Z</time>
      </trkpt>
      <trkpt lat="28.7418480" lon="-17.7847120">
        <ele>1173.0</ele>
        <time>2020-11-16T10:04:04Z</time>
      </trkpt>
      <trkpt lat="28.7418380" lon="-17.7847130">
        <ele>1173.1</ele>
        <time>2020-11-16T10:04:05Z</time>
      </trkpt>
      <trkpt lat="28.7418380" lon="-17.7847130">
        <ele>1173.1</ele>
        <time>2020-11-16T10:04:06Z</time>
      </trkpt>
      <trkpt lat="28.7418150" lon="-17.7847170">
        <ele>1173.3</ele>
        <time>2020-11-16T10:04:07Z</time>
      </trkpt>
      <trkpt lat="28.7418000" lon="-17.7847170">
        <ele>1173.4</ele>
        <time>2020-11-16T10:04:08Z</time>
      </trkpt>
      <trkpt lat="28.7418000" lon="-17.7847170">
        <ele>1173.4</ele>
        <time>2020-11-16T10:04:09Z</time>
      </trkpt>
      <trkpt lat="28.7417670" lon="-17.7847150">
        <ele>1173.7</ele>
        <time>2020-11-16T10:04:10Z</time>
      </trkpt>
      <trkpt lat="28.7417670" lon="-17.7847150">
        <ele>1173.7</ele>
        <time>2020-11-16T10:04:11Z</time>
      </trkpt>
      <trkpt lat="28.7417450" lon="-17.7847180">
        <ele>1173.9</ele>
        <time>2020-11-16T10:04:12Z</time>
      </trkpt>
      <trkpt lat="28.7417350" lon="-17.7847200">
        <ele>1174.0</ele>
        <time>2020-11-16T10:04:13Z</time>
      </trkpt>
      <trkpt lat="28.7417230" lon="-17.7847180">
        <ele>1174.1</ele>
        <time>2020-11-16T10:04:14Z</time>
      </trkpt>
      <trkpt lat="28.7417230" lon="-17.7847180">
        <ele>1174.1</ele>
        <time>2020-11-16T10:04:15Z</time>
      </trkpt>
      <trkpt lat="28.7416900" lon="-17.7847130">
        <ele>1174.5</ele>
        <time>2020-11-16T10:04:16Z</time>
      </trkpt>
      <trkpt lat="28.7416770" lon="-17.7847120">
        <ele>1174.6</ele>
        <time>2020-11-16T10:04:17Z</time>
      </trkpt>
      <trkpt lat="28.7416770" lon="-17.7847120">
        <ele>1174.6</ele>
        <time>2020-11-16T10:04:18Z</time>
      </trkpt>
      <trkpt lat="28.7416470" lon="-17.7847070">
        <ele>1174.9</ele>
        <time>2020-11-16T10:04:19Z</time>
      </trkpt>
      <trkpt lat="28.7416300" lon="-17.7847070">
        <ele>1175.0</ele>
        <time>2020-11-16T10:04:20Z</time>
      </trkpt>
      <trkpt lat="28.7415870" lon="-17.7847130">
        <ele>1175.5</ele>
        <time>2020-11-16T10:04:21Z</time>
      </trkpt>
      <trkpt lat="28.7415870" lon="-17.7847130">
        <ele>1175.5</ele>
        <time>2020-11-16T10:04:22Z</time>
      </trkpt>
      <trkpt lat="28.7415520" lon="-17.7847220">
        <ele>1175.9</ele>
        <time>2020-11-16T10:04:23Z</time>
      </trkpt>
      <trkpt lat="28.7415520" lon="-17.7847220">
        <ele>1175.9</ele>
        <time>2020-11-16T10:04:24Z</time>
      </trkpt>
      <trkpt lat="28.7415420" lon="-17.7847320">
        <ele>1176.0</ele>
        <time>2020-11-16T10:04:25Z</time>
      </trkpt>
      <trkpt lat="28.7415330" lon="-17.7847420">
        <ele>1176.2</ele>
        <time>2020-11-16T10:04:26Z</time>
      </trkpt>
      <trkpt lat="28.7415330" lon="-17.7847420">
        <ele>1176.2</ele>
        <time>2020-11-16T10:04:27Z</time>
      </trkpt>
      <trkpt lat="28.7415070" lon="-17.7847670">
        <ele>1176.6</ele>
        <time>2020-11-16T10:04:28Z</time>
      </trkpt>
      <trkpt lat="28.7415070" lon="-17.7847670">
        <ele>1176.6</ele>
        <time>2020-11-16T10:04:29Z</time>
      </trkpt>
      <trkpt lat="28.7414780" lon="-17.7847980">
        <ele>1177.1</ele>
        <time>2020-11-16T10:04:30Z</time>
      </trkpt>
      <trkpt lat="28.7414780" lon="-17.7847980">
        <ele>1177.1</ele>
        <time>2020-11-16T10:04:31Z</time>
      </trkpt>
      <trkpt lat="28.7414420" lon="-17.7848200">
        <ele>1177.7</ele>
        <time>2020-11-16T10:04:32Z</time>
      </trkpt>
      <trkpt lat="28.7414420" lon="-17.7848200">
        <ele>1177.7</ele>
        <time>2020-11-16T10:04:33Z</time>
      </trkpt>
      <trkpt lat="28.7414130" lon="-17.7848350">
        <ele>1178.1</ele>
        <time>2020-11-16T10:04:34Z</time>
      </trkpt>
      <trkpt lat="28.7413980" lon="-17.7848450">
        <ele>1178.4</ele>
        <time>2020-11-16T10:04:35Z</time>
      </trkpt>
      <trkpt lat="28.7413980" lon="-17.7848450">
        <ele>1178.4</ele>
        <time>2020-11-16T10:04:36Z</time>
      </trkpt>
      <trkpt lat="28.7413680" lon="-17.7848670">
        <ele>1178.9</ele>
        <time>2020-11-16T10:04:37Z</time>
      </trkpt>
      <trkpt lat="28.7413680" lon="-17.7848670">
        <ele>1178.9</ele>
        <time>2020-11-16T10:04:38Z</time>
      </trkpt>
      <trkpt lat="28.7413450" lon="-17.7848950">
        <ele>1179.3</ele>
        <time>2020-11-16T10:04:39Z</time>
      </trkpt>
      <trkpt lat="28.7413450" lon="-17.7848950">
        <ele>1179.3</ele>
        <time>2020-11-16T10:04:40Z</time>
      </trkpt>
      <trkpt lat="28.7413300" lon="-17.7849230">
        <ele>1179.7</ele>
        <time>2020-11-16T10:04:41Z</time>
      </trkpt>
      <trkpt lat="28.7413250" lon="-17.7849370">
        <ele>1179.9</ele>
        <time>2020-11-16T10:04:42Z</time>
      </trkpt>
      <trkpt lat="28.7413250" lon="-17.7849370">
        <ele>1179.9</ele>
        <time>2020-11-16T10:04:43Z</time>
      </trkpt>
      <trkpt lat="28.7413220" lon="-17.7849670">
        <ele>1180.2</ele>
        <time>2020-11-16T10:04:44Z</time>
      </trkpt>
      <trkpt lat="28.7413220" lon="-17.7849670">
        <ele>1180.2</ele>
        <time>2020-11-16T10:04:45Z</time>
      </trkpt>
      <trkpt lat="28.7413270" lon="-17.7849970">
        <ele>1180.6</ele>
        <time>2020-11-16T10:04:46Z</time>
      </trkpt>
      <trkpt lat="28.7413270" lon="-17.7849970">
        <ele>1180.6</ele>
        <time>2020-11-16T10:04:47Z</time>
      </trkpt>
      <trkpt lat="28.7413270" lon="-17.7850370">
        <ele>1181.0</ele>
        <time>2020-11-16T10:04:48Z</time>
      </trkpt>
      <trkpt lat="28.7413270" lon="-17.7850370">
        <ele>1181.0</ele>
        <time>2020-11-16T10:04:49Z</time>
      </trkpt>
      <trkpt lat="28.7413200" lon="-17.7850720">
        <ele>1181.4</ele>
        <time>2020-11-16T10:04:50Z</time>
      </trkpt>
      <trkpt lat="28.7413200" lon="-17.7850720">
        <ele>1181.4</ele>
        <time>2020-11-16T10:04:51Z</time>
      </trkpt>
      <trkpt lat="28.7413100" lon="-17.7851100">
        <ele>1181.8</ele>
        <time>2020-11-16T10:04:52Z</time>
      </trkpt>
      <trkpt lat="28.7413220" lon="-17.7851470">
        <ele>1182.3</ele>
        <time>2020-11-16T10:04:53Z</time>
      </trkpt>
      <trkpt lat="28.7413220" lon="-17.7851470">
        <ele>1182.3</ele>
        <time>2020-11-16T10:04:54Z</time>
      </trkpt>
      <trkpt lat="28.7413320" lon="-17.7851880">
        <ele>1182.7</ele>
        <time>2020-11-16T10:04:55Z</time>
      </trkpt>
      <trkpt lat="28.7413320" lon="-17.7851880">
        <ele>1182.7</ele>
        <time>2020-11-16T10:04:56Z</time>
      </trkpt>
      <trkpt lat="28.7413150" lon="-17.7852030">
        <ele>1183.0</ele>
        <time>2020-11-16T10:04:57Z</time>
      </trkpt>
      <trkpt lat="28.7413150" lon="-17.7852030">
        <ele>1183.0</ele>
        <time>2020-11-16T10:04:58Z</time>
      </trkpt>
      <trkpt lat="28.7413020" lon="-17.7852180">
        <ele>1183.2</ele>
        <time>2020-11-16T10:04:59Z</time>
      </trkpt>
      <trkpt lat="28.7413020" lon="-17.7852180">
        <ele>1183.2</ele>
        <time>2020-11-16T10:05:00Z</time>
      </trkpt>
      <trkpt lat="28.7412970" lon="-17.7852430">
        <ele>1183.5</ele>
        <time>2020-11-16T10:05:01Z</time>
      </trkpt>
      <trkpt lat="28.7412970" lon="-17.7852530">
        <ele>1183.6</ele>
        <time>2020-11-16T10:05:02Z</time>
      </trkpt>
      <trkpt lat="28.7412970" lon="-17.7852530">
        <ele>1183.6</ele>
        <time>2020-11-16T10:05:03Z</time>
      </trkpt>
      <trkpt lat="28.7412880" lon="-17.7852730">
        <ele>1183.8</ele>
        <time>2020-11-16T10:05:04Z</time>
      </trkpt>
      <trkpt lat="28.7412870" lon="-17.7852800">
        <ele>1183.9</ele>
        <time>2020-11-16T10:05:05Z</time>
      </trkpt>
      <trkpt lat="28.7412880" lon="-17.7852880">
        <ele>1184.0</ele>
        <time>2020-11-16T10:05:06Z</time>
      </trkpt>
      <trkpt lat="28.7412900" lon="-17.7853050">
        <ele>1184.2</ele>
        <time>2020-11-16T10:05:07Z</time>
      </trkpt>
      <trkpt lat="28.7412900" lon="-17.7853050">
        <ele>1184.2</ele>
        <time>2020-11-16T10:05:08Z</time>
      </trkpt>
      <trkpt lat="28.7412850" lon="-17.7853330">
        <ele>1184.5</ele>
        <time>2020-11-16T10:05:09Z</time>
      </trkpt>
      <trkpt lat="28.7412850" lon="-17.7853330">
        <ele>1184.5</ele>
        <time>2020-11-16T10:05:10Z</time>
      </trkpt>
      <trkpt lat="28.7412930" lon="-17.7853650">
        <ele>1184.8</ele>
        <time>2020-11-16T10:05:11Z</time>
      </trkpt>
      <trkpt lat="28.7412930" lon="-17.7853650">
        <ele>1184.8</ele>
        <time>2020-11-16T10:05:12Z</time>
      </trkpt>
      <trkpt lat="28.7412870" lon="-17.7853880">
        <ele>1185.1</ele>
        <time>2020-11-16T10:05:13Z</time>
      </trkpt>
      <trkpt lat="28.7412870" lon="-17.7853880">
        <ele>1185.1</ele>
        <time>2020-11-16T10:05:14Z</time>
      </trkpt>
      <trkpt lat="28.7412900" lon="-17.7854230">
        <ele>1185.5</ele>
        <time>2020-11-16T10:05:15Z</time>
      </trkpt>
      <trkpt lat="28.7412900" lon="-17.7854230">
        <ele>1185.5</ele>
        <time>2020-11-16T10:05:16Z</time>
      </trkpt>
      <trkpt lat="28.7412950" lon="-17.7854630">
        <ele>1185.9</ele>
        <time>2020-11-16T10:05:17Z</time>
      </trkpt>
      <trkpt lat="28.7412920" lon="-17.7854850">
        <ele>1186.2</ele>
        <time>2020-11-16T10:05:18Z</time>
      </trkpt>
      <trkpt lat="28.7412920" lon="-17.7854850">
        <ele>1186.2</ele>
        <time>2020-11-16T10:05:19Z</time>
      </trkpt>
      <trkpt lat="28.7412880" lon="-17.7855220">
        <ele>1186.6</ele>
        <time>2020-11-16T10:05:20Z</time>
      </trkpt>
      <trkpt lat="28.7412880" lon="-17.7855220">
        <ele>1186.6</ele>
        <time>2020-11-16T10:05:21Z</time>
      </trkpt>
      <trkpt lat="28.7412850" lon="-17.7855500">
        <ele>1186.9</ele>
        <time>2020-11-16T10:05:22Z</time>
      </trkpt>
      <trkpt lat="28.7412850" lon="-17.7855500">
        <ele>1186.9</ele>
        <time>2020-11-16T10:05:23Z</time>
      </trkpt>
      <trkpt lat="28.7412980" lon="-17.7855820">
        <ele>1187.3</ele>
        <time>2020-11-16T10:05:24Z</time>
      </trkpt>
      <trkpt lat="28.7412980" lon="-17.7855820">
        <ele>1187.3</ele>
        <time>2020-11-16T10:05:25Z</time>
      </trkpt>
      <trkpt lat="28.7413070" lon="-17.7856080">
        <ele>1187.6</ele>
        <time>2020-11-16T10:05:26Z</time>
      </trkpt>
      <trkpt lat="28.7413070" lon="-17.7856080">
        <ele>1187.6</ele>
        <time>2020-11-16T10:05:27Z</time>
      </trkpt>
      <trkpt lat="28.7413080" lon="-17.7856480">
        <ele>1188.1</ele>
        <time>2020-11-16T10:05:28Z</time>
      </trkpt>
      <trkpt lat="28.7413080" lon="-17.7856480">
        <ele>1188.1</ele>
        <time>2020-11-16T10:05:29Z</time>
      </trkpt>
      <trkpt lat="28.7413150" lon="-17.7856920">
        <ele>1188.6</ele>
        <time>2020-11-16T10:05:30Z</time>
      </trkpt>
      <trkpt lat="28.7413150" lon="-17.7856920">
        <ele>1188.6</ele>
        <time>2020-11-16T10:05:31Z</time>
      </trkpt>
      <trkpt lat="28.7413200" lon="-17.7857130">
        <ele>1188.8</ele>
        <time>2020-11-16T10:05:32Z</time>
      </trkpt>
      <trkpt lat="28.7413200" lon="-17.7857130">
        <ele>1188.8</ele>
        <time>2020-11-16T10:05:33Z</time>
      </trkpt>
      <trkpt lat="28.7413250" lon="-17.7857470">
        <ele>1189.2</ele>
        <time>2020-11-16T10:05:34Z</time>
      </trkpt>
      <trkpt lat="28.7413250" lon="-17.7857470">
        <ele>1189.2</ele>
        <time>2020-11-16T10:05:35Z</time>
      </trkpt>
      <trkpt lat="28.7413100" lon="-17.7857720">
        <ele>1189.5</ele>
        <time>2020-11-16T10:05:36Z</time>
      </trkpt>
      <trkpt lat="28.7413100" lon="-17.7857720">
        <ele>1189.5</ele>
        <time>2020-11-16T10:05:37Z</time>
      </trkpt>
      <trkpt lat="28.7413030" lon="-17.7858030">
        <ele>1189.9</ele>
        <time>2020-11-16T10:05:38Z</time>
      </trkpt>
      <trkpt lat="28.7413030" lon="-17.7858030">
        <ele>1189.9</ele>
        <time>2020-11-16T10:05:39Z</time>
      </trkpt>
      <trkpt lat="28.7412970" lon="-17.7858350">
        <ele>1190.2</ele>
        <time>2020-11-16T10:05:40Z</time>
      </trkpt>
      <trkpt lat="28.7412970" lon="-17.7858350">
        <ele>1190.2</ele>
        <time>2020-11-16T10:05:41Z</time>
      </trkpt>
      <trkpt lat="28.7412930" lon="-17.7858680">
        <ele>1190.6</ele>
        <time>2020-11-16T10:05:42Z</time>
      </trkpt>
      <trkpt lat="28.7412930" lon="-17.7858680">
        <ele>1190.6</ele>
        <time>2020-11-16T10:05:43Z</time>
      </trkpt>
      <trkpt lat="28.7412920" lon="-17.7858870">
        <ele>1190.8</ele>
        <time>2020-11-16T10:05:44Z</time>
      </trkpt>
      <trkpt lat="28.7412880" lon="-17.7859230">
        <ele>1191.2</ele>
        <time>2020-11-16T10:05:45Z</time>
      </trkpt>
      <trkpt lat="28.7412880" lon="-17.7859230">
        <ele>1191.2</ele>
        <time>2020-11-16T10:05:46Z</time>
      </trkpt>
      <trkpt lat="28.7412780" lon="-17.7859530">
        <ele>1191.5</ele>
        <time>2020-11-16T10:05:47Z</time>
      </trkpt>
      <trkpt lat="28.7412730" lon="-17.7859650">
        <ele>1191.6</ele>
        <time>2020-11-16T10:05:48Z</time>
      </trkpt>
      <trkpt lat="28.7412700" lon="-17.7859780">
        <ele>1191.8</ele>
        <time>2020-11-16T10:05:49Z</time>
      </trkpt>
      <trkpt lat="28.7412700" lon="-17.7859780">
        <ele>1191.8</ele>
        <time>2020-11-16T10:05:50Z</time>
      </trkpt>
      <trkpt lat="28.7412630" lon="-17.7859980">
        <ele>1192.0</ele>
        <time>2020-11-16T10:05:51Z</time>
      </trkpt>
      <trkpt lat="28.7412530" lon="-17.7860130">
        <ele>1192.2</ele>
        <time>2020-11-16T10:05:52Z</time>
      </trkpt>
      <trkpt lat="28.7412530" lon="-17.7860130">
        <ele>1192.2</ele>
        <time>2020-11-16T10:05:53Z</time>
      </trkpt>
      <trkpt lat="28.7412550" lon="-17.7860430">
        <ele>1192.5</ele>
        <time>2020-11-16T10:05:54Z</time>
      </trkpt>
      <trkpt lat="28.7412500" lon="-17.7860620">
        <ele>1192.7</ele>
        <time>2020-11-16T10:05:55Z</time>
      </trkpt>
      <trkpt lat="28.7412400" lon="-17.7860750">
        <ele>1192.8</ele>
        <time>2020-11-16T10:05:56Z</time>
      </trkpt>
      <trkpt lat="28.7412400" lon="-17.7860750">
        <ele>1192.8</ele>
        <time>2020-11-16T10:05:57Z</time>
      </trkpt>
      <trkpt lat="28.7412300" lon="-17.7861000">
        <ele>1193.1</ele>
        <time>2020-11-16T10:05:58Z</time>
      </trkpt>
      <trkpt lat="28.7412270" lon="-17.7861130">
        <ele>1193.3</ele>
        <time>2020-11-16T10:05:59Z</time>
      </trkpt>
      <trkpt lat="28.7412270" lon="-17.7861130">
        <ele>1193.3</ele>
        <time>2020-11-16T10:06:00Z</time>
      </trkpt>
      <trkpt lat="28.7412170" lon="-17.7861420">
        <ele>1193.6</ele>
        <time>2020-11-16T10:06:01Z</time>
      </trkpt>
      <trkpt lat="28.7412080" lon="-17.7861500">
        <ele>1193.8</ele>
        <time>2020-11-16T10:06:02Z</time>
      </trkpt>
      <trkpt lat="28.7412080" lon="-17.7861500">
        <ele>1193.8</ele>
        <time>2020-11-16T10:06:03Z</time>
      </trkpt>
      <trkpt lat="28.7411620" lon="-17.7861720">
        <ele>1194.4</ele>
        <time>2020-11-16T10:06:04Z</time>
      </trkpt>
      <trkpt lat="28.7411500" lon="-17.7861880">
        <ele>1194.6</ele>
        <time>2020-11-16T10:06:05Z</time>
      </trkpt>
      <trkpt lat="28.7411500" lon="-17.7861880">
        <ele>1194.6</ele>
        <time>2020-11-16T10:06:06Z</time>
      </trkpt>
      <trkpt lat="28.7410870" lon="-17.7861630">
        <ele>1195.5</ele>
        <time>2020-11-16T10:06:07Z</time>
      </trkpt>
      <trkpt lat="28.7410700" lon="-17.7861530">
        <ele>1195.7</ele>
        <time>2020-11-16T10:06:08Z</time>
      </trkpt>
      <trkpt lat="28.7410670" lon="-17.7861520">
        <ele>1195.8</ele>
        <time>2020-11-16T10:06:09Z</time>
      </trkpt>
      <trkpt lat="28.7410670" lon="-17.7861520">
        <ele>1195.8</ele>
        <time>2020-11-16T10:06:10Z</time>
      </trkpt>
      <trkpt lat="28.7410520" lon="-17.7861330">
        <ele>1196.1</ele>
        <time>2020-11-16T10:06:11Z</time>
      </trkpt>
      <trkpt lat="28.7410470" lon="-17.7861230">
        <ele>1196.2</ele>
        <time>2020-11-16T10:06:12Z</time>
      </trkpt>
      <trkpt lat="28.7410470" lon="-17.7861230">
        <ele>1196.2</ele>
        <time>2020-11-16T10:06:13Z</time>
      </trkpt>
      <trkpt lat="28.7410370" lon="-17.7861120">
        <ele>1196.4</ele>
        <time>2020-11-16T10:06:14Z</time>
      </trkpt>
      <trkpt lat="28.7410370" lon="-17.7861120">
        <ele>1196.4</ele>
        <time>2020-11-16T10:06:15Z</time>
      </trkpt>
      <trkpt lat="28.7410430" lon="-17.7860950">
        <ele>1196.6</ele>
        <time>2020-11-16T10:06:16Z</time>
      </trkpt>
      <trkpt lat="28.7410430" lon="-17.7860870">
        <ele>1196.7</ele>
        <time>2020-11-16T10:06:17Z</time>
      </trkpt>
      <trkpt lat="28.7410430" lon="-17.7860870">
        <ele>1196.7</ele>
        <time>2020-11-16T10:06:18Z</time>
      </trkpt>
      <trkpt lat="28.7410480" lon="-17.7860620">
        <ele>1197.0</ele>
        <time>2020-11-16T10:06:19Z</time>
      </trkpt>
      <trkpt lat="28.7410450" lon="-17.7860400">
        <ele>1197.3</ele>
        <time>2020-11-16T10:06:20Z</time>
      </trkpt>
      <trkpt lat="28.7410450" lon="-17.7860400">
        <ele>1197.3</ele>
        <time>2020-11-16T10:06:21Z</time>
      </trkpt>
      <trkpt lat="28.7410400" lon="-17.7860180">
        <ele>1197.5</ele>
        <time>2020-11-16T10:06:22Z</time>
      </trkpt>
      <trkpt lat="28.7410400" lon="-17.7860180">
        <ele>1197.5</ele>
        <time>2020-11-16T10:06:23Z</time>
      </trkpt>
      <trkpt lat="28.7410450" lon="-17.7859950">
        <ele>1197.8</ele>
        <time>2020-11-16T10:06:24Z</time>
      </trkpt>
      <trkpt lat="28.7410280" lon="-17.7859750">
        <ele>1198.1</ele>
        <time>2020-11-16T10:06:25Z</time>
      </trkpt>
      <trkpt lat="28.7410280" lon="-17.7859750">
        <ele>1198.1</ele>
        <time>2020-11-16T10:06:26Z</time>
      </trkpt>
      <trkpt lat="28.7410120" lon="-17.7859470">
        <ele>1198.5</ele>
        <time>2020-11-16T10:06:27Z</time>
      </trkpt>
      <trkpt lat="28.7410120" lon="-17.7859470">
        <ele>1198.5</ele>
        <time>2020-11-16T10:06:28Z</time>
      </trkpt>
      <trkpt lat="28.7409950" lon="-17.7859230">
        <ele>1198.9</ele>
        <time>2020-11-16T10:06:29Z</time>
      </trkpt>
      <trkpt lat="28.7409950" lon="-17.7859230">
        <ele>1198.9</ele>
        <time>2020-11-16T10:06:30Z</time>
      </trkpt>
      <trkpt lat="28.7409730" lon="-17.7858850">
        <ele>1199.4</ele>
        <time>2020-11-16T10:06:31Z</time>
      </trkpt>
      <trkpt lat="28.7409730" lon="-17.7858850">
        <ele>1199.4</ele>
        <time>2020-11-16T10:06:32Z</time>
      </trkpt>
      <trkpt lat="28.7409480" lon="-17.7858530">
        <ele>1199.9</ele>
        <time>2020-11-16T10:06:33Z</time>
      </trkpt>
      <trkpt lat="28.7409480" lon="-17.7858530">
        <ele>1199.9</ele>
        <time>2020-11-16T10:06:34Z</time>
      </trkpt>
      <trkpt lat="28.7409350" lon="-17.7858320">
        <ele>1200.2</ele>
        <time>2020-11-16T10:06:35Z</time>
      </trkpt>
      <trkpt lat="28.7409350" lon="-17.7858320">
        <ele>1200.2</ele>
        <time>2020-11-16T10:06:36Z</time>
      </trkpt>
      <trkpt lat="28.7409470" lon="-17.7858030">
        <ele>1200.6</ele>
        <time>2020-11-16T10:06:37Z</time>
      </trkpt>
      <trkpt lat="28.7409380" lon="-17.7857880">
        <ele>1200.8</ele>
        <time>2020-11-16T10:06:38Z</time>
      </trkpt>
      <trkpt lat="28.7409380" lon="-17.7857880">
        <ele>1200.8</ele>
        <time>2020-11-16T10:06:39Z</time>
      </trkpt>
      <trkpt lat="28.7409020" lon="-17.7857580">
        <ele>1201.3</ele>
        <time>2020-11-16T10:06:40Z</time>
      </trkpt>
      <trkpt lat="28.7408900" lon="-17.7857520">
        <ele>1201.4</ele>
        <time>2020-11-16T10:06:41Z</time>
      </trkpt>
      <trkpt lat="28.7408900" lon="-17.7857520">
        <ele>1201.4</ele>
        <time>2020-11-16T10:06:42Z</time>
      </trkpt>
      <trkpt lat="28.7408570" lon="-17.7857420">
        <ele>1201.7</ele>
        <time>2020-11-16T10:06:43Z</time>
      </trkpt>
      <trkpt lat="28.7408570" lon="-17.7857420">
        <ele>1201.7</ele>
        <time>2020-11-16T10:06:44Z</time>
      </trkpt>
      <trkpt lat="28.7408120" lon="-17.7857170">
        <ele>1202.2</ele>
        <time>2020-11-16T10:06:45Z</time>
      </trkpt>
      <trkpt lat="28.7408120" lon="-17.7857170">
        <ele>1202.2</ele>
        <time>2020-11-16T10:06:46Z</time>
      </trkpt>
      <trkpt lat="28.7407720" lon="-17.7857080">
        <ele>1202.6</ele>
        <time>2020-11-16T10:06:47Z</time>
      </trkpt>
      <trkpt lat="28.7407720" lon="-17.7857080">
        <ele>1202.6</ele>
        <time>2020-11-16T10:06:48Z</time>
      </trkpt>
      <trkpt lat="28.7407330" lon="-17.7856950">
        <ele>1202.9</ele>
        <time>2020-11-16T10:06:49Z</time>
      </trkpt>
      <trkpt lat="28.7407330" lon="-17.7856950">
        <ele>1202.9</ele>
        <time>2020-11-16T10:06:50Z</time>
      </trkpt>
      <trkpt lat="28.7406930" lon="-17.7856820">
        <ele>1203.3</ele>
        <time>2020-11-16T10:06:51Z</time>
      </trkpt>
      <trkpt lat="28.7406770" lon="-17.7856820">
        <ele>1203.5</ele>
        <time>2020-11-16T10:06:52Z</time>
      </trkpt>
      <trkpt lat="28.7406770" lon="-17.7856820">
        <ele>1203.5</ele>
        <time>2020-11-16T10:06:53Z</time>
      </trkpt>
      <trkpt lat="28.7406570" lon="-17.7856880">
        <ele>1203.7</ele>
        <time>2020-11-16T10:06:54Z</time>
      </trkpt>
      <trkpt lat="28.7406570" lon="-17.7856880">
        <ele>1203.7</ele>
        <time>2020-11-16T10:06:55Z</time>
      </trkpt>
      <trkpt lat="28.7406300" lon="-17.7857000">
        <ele>1204.0</ele>
        <time>2020-11-16T10:06:56Z</time>
      </trkpt>
      <trkpt lat="28.7406270" lon="-17.7857120">
        <ele>1204.1</ele>
        <time>2020-11-16T10:06:57Z</time>
      </trkpt>
      <trkpt lat="28.7406270" lon="-17.7857120">
        <ele>1204.1</ele>
        <time>2020-11-16T10:06:58Z</time>
      </trkpt>
      <trkpt lat="28.7406050" lon="-17.7857250">
        <ele>1204.4</ele>
        <time>2020-11-16T10:06:59Z</time>
      </trkpt>
      <trkpt lat="28.7406050" lon="-17.7857250">
        <ele>1204.4</ele>
        <time>2020-11-16T10:07:00Z</time>
      </trkpt>
      <trkpt lat="28.7405820" lon="-17.7857450">
        <ele>1204.7</ele>
        <time>2020-11-16T10:07:01Z</time>
      </trkpt>
      <trkpt lat="28.7405820" lon="-17.7857450">
        <ele>1204.7</ele>
        <time>2020-11-16T10:07:02Z</time>
      </trkpt>
      <trkpt lat="28.7405550" lon="-17.7857550">
        <ele>1205.0</ele>
        <time>2020-11-16T10:07:03Z</time>
      </trkpt>
      <trkpt lat="28.7405550" lon="-17.7857550">
        <ele>1205.0</ele>
        <time>2020-11-16T10:07:04Z</time>
      </trkpt>
      <trkpt lat="28.7405150" lon="-17.7857620">
        <ele>1205.4</ele>
        <time>2020-11-16T10:07:05Z</time>
      </trkpt>
      <trkpt lat="28.7405150" lon="-17.7857620">
        <ele>1205.4</ele>
        <time>2020-11-16T10:07:06Z</time>
      </trkpt>
      <trkpt lat="28.7404770" lon="-17.7857580">
        <ele>1205.8</ele>
        <time>2020-11-16T10:07:07Z</time>
      </trkpt>
      <trkpt lat="28.7404620" lon="-17.7857680">
        <ele>1206.0</ele>
        <time>2020-11-16T10:07:08Z</time>
      </trkpt>
      <trkpt lat="28.7404620" lon="-17.7857680">
        <ele>1206.0</ele>
        <time>2020-11-16T10:07:09Z</time>
      </trkpt>
      <trkpt lat="28.7404270" lon="-17.7857900">
        <ele>1206.4</ele>
        <time>2020-11-16T10:07:10Z</time>
      </trkpt>
      <trkpt lat="28.7404270" lon="-17.7857900">
        <ele>1206.4</ele>
        <time>2020-11-16T10:07:11Z</time>
      </trkpt>
      <trkpt lat="28.7403900" lon="-17.7858080">
        <ele>1206.8</ele>
        <time>2020-11-16T10:07:12Z</time>
      </trkpt>
      <trkpt lat="28.7403900" lon="-17.7858080">
        <ele>1206.8</ele>
        <time>2020-11-16T10:07:13Z</time>
      </trkpt>
      <trkpt lat="28.7403570" lon="-17.7858300">
        <ele>1207.2</ele>
        <time>2020-11-16T10:07:14Z</time>
      </trkpt>
      <trkpt lat="28.7403250" lon="-17.7858520">
        <ele>1207.5</ele>
        <time>2020-11-16T10:07:15Z</time>
      </trkpt>
      <trkpt lat="28.7403250" lon="-17.7858520">
        <ele>1207.5</ele>
        <time>2020-11-16T10:07:16Z</time>
      </trkpt>
      <trkpt lat="28.7402930" lon="-17.7858780">
        <ele>1207.9</ele>
        <time>2020-11-16T10:07:17Z</time>
      </trkpt>
      <trkpt lat="28.7402930" lon="-17.7858780">
        <ele>1207.9</ele>
        <time>2020-11-16T10:07:18Z</time>
      </trkpt>
      <trkpt lat="28.7402930" lon="-17.7859120">
        <ele>1208.2</ele>
        <time>2020-11-16T10:07:19Z</time>
      </trkpt>
      <trkpt lat="28.7402930" lon="-17.7859120">
        <ele>1208.2</ele>
        <time>2020-11-16T10:07:20Z</time>
      </trkpt>
      <trkpt lat="28.7402900" lon="-17.7859500">
        <ele>1208.5</ele>
        <time>2020-11-16T10:07:21Z</time>
      </trkpt>
      <trkpt lat="28.7402900" lon="-17.7859500">
        <ele>1208.5</ele>
        <time>2020-11-16T10:07:22Z</time>
      </trkpt>
      <trkpt lat="28.7402820" lon="-17.7859800">
        <ele>1208.8</ele>
        <time>2020-11-16T10:07:23Z</time>
      </trkpt>
      <trkpt lat="28.7402820" lon="-17.7859800">
        <ele>1208.8</ele>
        <time>2020-11-16T10:07:24Z</time>
      </trkpt>
      <trkpt lat="28.7402750" lon="-17.7860200">
        <ele>1209.1</ele>
        <time>2020-11-16T10:07:25Z</time>
      </trkpt>
      <trkpt lat="28.7402830" lon="-17.7860470">
        <ele>1209.3</ele>
        <time>2020-11-16T10:07:26Z</time>
      </trkpt>
      <trkpt lat="28.7402830" lon="-17.7860470">
        <ele>1209.3</ele>
        <time>2020-11-16T10:07:27Z</time>
      </trkpt>
      <trkpt lat="28.7402680" lon="-17.7860780">
        <ele>1209.6</ele>
        <time>2020-11-16T10:07:28Z</time>
      </trkpt>
      <trkpt lat="28.7402680" lon="-17.7860780">
        <ele>1209.6</ele>
        <time>2020-11-16T10:07:29Z</time>
      </trkpt>
      <trkpt lat="28.7402500" lon="-17.7861050">
        <ele>1209.9</ele>
        <time>2020-11-16T10:07:30Z</time>
      </trkpt>
      <trkpt lat="28.7402400" lon="-17.7861200">
        <ele>1210.0</ele>
        <time>2020-11-16T10:07:31Z</time>
      </trkpt>
      <trkpt lat="28.7402400" lon="-17.7861200">
        <ele>1210.0</ele>
        <time>2020-11-16T10:07:32Z</time>
      </trkpt>
      <trkpt lat="28.7402280" lon="-17.7861470">
        <ele>1210.3</ele>
        <time>2020-11-16T10:07:33Z</time>
      </trkpt>
      <trkpt lat="28.7402280" lon="-17.7861470">
        <ele>1210.3</ele>
        <time>2020-11-16T10:07:34Z</time>
      </trkpt>
      <trkpt lat="28.7402170" lon="-17.7861750">
        <ele>1210.5</ele>
        <time>2020-11-16T10:07:35Z</time>
      </trkpt>
      <trkpt lat="28.7402170" lon="-17.7861750">
        <ele>1210.5</ele>
        <time>2020-11-16T10:07:36Z</time>
      </trkpt>
      <trkpt lat="28.7401980" lon="-17.7862050">
        <ele>1210.8</ele>
        <time>2020-11-16T10:07:37Z</time>
      </trkpt>
      <trkpt lat="28.7401870" lon="-17.7862180">
        <ele>1211.0</ele>
        <time>2020-11-16T10:07:38Z</time>
      </trkpt>
      <trkpt lat="28.7401870" lon="-17.7862180">
        <ele>1211.0</ele>
        <time>2020-11-16T10:07:39Z</time>
      </trkpt>
      <trkpt lat="28.7401720" lon="-17.7862450">
        <ele>1211.3</ele>
        <time>2020-11-16T10:07:40Z</time>
      </trkpt>
      <trkpt lat="28.7401720" lon="-17.7862450">
        <ele>1211.3</ele>
        <time>2020-11-16T10:07:41Z</time>
      </trkpt>
      <trkpt lat="28.7401620" lon="-17.7862780">
        <ele>1211.6</ele>
        <time>2020-11-16T10:07:42Z</time>
      </trkpt>
      <trkpt lat="28.7401620" lon="-17.7862780">
        <ele>1211.6</ele>
        <time>2020-11-16T10:07:43Z</time>
      </trkpt>
      <trkpt lat="28.7401400" lon="-17.7863030">
        <ele>1211.9</ele>
        <time>2020-11-16T10:07:44Z</time>
      </trkpt>
      <trkpt lat="28.7401400" lon="-17.7863030">
        <ele>1211.9</ele>
        <time>2020-11-16T10:07:45Z</time>
      </trkpt>
      <trkpt lat="28.7401230" lon="-17.7863470">
        <ele>1212.3</ele>
        <time>2020-11-16T10:07:46Z</time>
      </trkpt>
      <trkpt lat="28.7401130" lon="-17.7863620">
        <ele>1212.4</ele>
        <time>2020-11-16T10:07:47Z</time>
      </trkpt>
      <trkpt lat="28.7401130" lon="-17.7863620">
        <ele>1212.4</ele>
        <time>2020-11-16T10:07:48Z</time>
      </trkpt>
      <trkpt lat="28.7401020" lon="-17.7863920">
        <ele>1212.7</ele>
        <time>2020-11-16T10:07:49Z</time>
      </trkpt>
      <trkpt lat="28.7401000" lon="-17.7864020">
        <ele>1212.7</ele>
        <time>2020-11-16T10:07:50Z</time>
      </trkpt>
      <trkpt lat="28.7400850" lon="-17.7864130">
        <ele>1212.9</ele>
        <time>2020-11-16T10:07:51Z</time>
      </trkpt>
      <trkpt lat="28.7400850" lon="-17.7864130">
        <ele>1212.9</ele>
        <time>2020-11-16T10:07:52Z</time>
      </trkpt>
      <trkpt lat="28.7400670" lon="-17.7864250">
        <ele>1213.1</ele>
        <time>2020-11-16T10:07:53Z</time>
      </trkpt>
      <trkpt lat="28.7400670" lon="-17.7864250">
        <ele>1213.1</ele>
        <time>2020-11-16T10:07:54Z</time>
      </trkpt>
      <trkpt lat="28.7400330" lon="-17.7864150">
        <ele>1213.3</ele>
        <time>2020-11-16T10:07:55Z</time>
      </trkpt>
      <trkpt lat="28.7400070" lon="-17.7863980">
        <ele>1213.6</ele>
        <time>2020-11-16T10:07:56Z</time>
      </trkpt>
      <trkpt lat="28.7400070" lon="-17.7863980">
        <ele>1213.6</ele>
        <time>2020-11-16T10:07:57Z</time>
      </trkpt>
      <trkpt lat="28.7399830" lon="-17.7863800">
        <ele>1213.8</ele>
        <time>2020-11-16T10:07:58Z</time>
      </trkpt>
      <trkpt lat="28.7399830" lon="-17.7863800">
        <ele>1213.8</ele>
        <time>2020-11-16T10:07:59Z</time>
      </trkpt>
      <trkpt lat="28.7399650" lon="-17.7863600">
        <ele>1213.9</ele>
        <time>2020-11-16T10:08:00Z</time>
      </trkpt>
      <trkpt lat="28.7399580" lon="-17.7863530">
        <ele>1214.0</ele>
        <time>2020-11-16T10:08:01Z</time>
      </trkpt>
      <trkpt lat="28.7399450" lon="-17.7863420">
        <ele>1214.1</ele>
        <time>2020-11-16T10:08:02Z</time>
      </trkpt>
      <trkpt lat="28.7399450" lon="-17.7863420">
        <ele>1214.1</ele>
        <time>2020-11-16T10:08:03Z</time>
      </trkpt>
      <trkpt lat="28.7399180" lon="-17.7863250">
        <ele>1214.3</ele>
        <time>2020-11-16T10:08:04Z</time>
      </trkpt>
      <trkpt lat="28.7399180" lon="-17.7863250">
        <ele>1214.3</ele>
        <time>2020-11-16T10:08:05Z</time>
      </trkpt>
      <trkpt lat="28.7398880" lon="-17.7863100">
        <ele>1214.6</ele>
        <time>2020-11-16T10:08:06Z</time>
      </trkpt>
      <trkpt lat="28.7398730" lon="-17.7863030">
        <ele>1214.7</ele>
        <time>2020-11-16T10:08:07Z</time>
      </trkpt>
      <trkpt lat="28.7398730" lon="-17.7863030">
        <ele>1214.7</ele>
        <time>2020-11-16T10:08:08Z</time>
      </trkpt>
      <trkpt lat="28.7398500" lon="-17.7863050">
        <ele>1214.9</ele>
        <time>2020-11-16T10:08:09Z</time>
      </trkpt>
      <trkpt lat="28.7398420" lon="-17.7863050">
        <ele>1215.0</ele>
        <time>2020-11-16T10:08:10Z</time>
      </trkpt>
      <trkpt lat="28.7398420" lon="-17.7863050">
        <ele>1215.0</ele>
        <time>2020-11-16T10:08:11Z</time>
      </trkpt>
      <trkpt lat="28.7398050" lon="-17.7862880">
        <ele>1215.3</ele>
        <time>2020-11-16T10:08:12Z</time>
      </trkpt>
      <trkpt lat="28.7397950" lon="-17.7862900">
        <ele>1215.4</ele>
        <time>2020-11-16T10:08:13Z</time>
      </trkpt>
      <trkpt lat="28.7397870" lon="-17.7862920">
        <ele>1215.5</ele>
        <time>2020-11-16T10:08:14Z</time>
      </trkpt>
      <trkpt lat="28.7397870" lon="-17.7862920">
        <ele>1215.5</ele>
        <time>2020-11-16T10:08:15Z</time>
      </trkpt>
      <trkpt lat="28.7397570" lon="-17.7862880">
        <ele>1215.8</ele>
        <time>2020-11-16T10:08:16Z</time>
      </trkpt>
      <trkpt lat="28.7397570" lon="-17.7862880">
        <ele>1215.8</ele>
        <time>2020-11-16T10:08:17Z</time>
      </trkpt>
      <trkpt lat="28.7397320" lon="-17.7862880">
        <ele>1216.0</ele>
        <time>2020-11-16T10:08:18Z</time>
      </trkpt>
      <trkpt lat="28.7397180" lon="-17.7862900">
        <ele>1216.1</ele>
        <time>2020-11-16T10:08:19Z</time>
      </trkpt>
      <trkpt lat="28.7397180" lon="-17.7862900">
        <ele>1216.1</ele>
        <time>2020-11-16T10:08:20Z</time>
      </trkpt>
      <trkpt lat="28.7396950" lon="-17.7862920">
        <ele>1216.3</ele>
        <time>2020-11-16T10:08:21Z</time>
      </trkpt>
      <trkpt lat="28.7396820" lon="-17.7862920">
        <ele>1216.5</ele>
        <time>2020-11-16T10:08:22Z</time>
      </trkpt>
      <trkpt lat="28.7396820" lon="-17.7862920">
        <ele>1216.5</ele>
        <time>2020-11-16T10:08:23Z</time>
      </trkpt>
      <trkpt lat="28.7396530" lon="-17.7862880">
        <ele>1216.7</ele>
        <time>2020-11-16T10:08:24Z</time>
      </trkpt>
      <trkpt lat="28.7396280" lon="-17.7862980">
        <ele>1217.0</ele>
        <time>2020-11-16T10:08:25Z</time>
      </trkpt>
      <trkpt lat="28.7396280" lon="-17.7862980">
        <ele>1217.0</ele>
        <time>2020-11-16T10:08:26Z</time>
      </trkpt>
      <trkpt lat="28.7396170" lon="-17.7863120">
        <ele>1217.2</ele>
        <time>2020-11-16T10:08:27Z</time>
      </trkpt>
      <trkpt lat="28.7396170" lon="-17.7863120">
        <ele>1217.2</ele>
        <time>2020-11-16T10:08:28Z</time>
      </trkpt>
      <trkpt lat="28.7395830" lon="-17.7863120">
        <ele>1217.5</ele>
        <time>2020-11-16T10:08:29Z</time>
      </trkpt>
      <trkpt lat="28.7395650" lon="-17.7863220">
        <ele>1217.7</ele>
        <time>2020-11-16T10:08:30Z</time>
      </trkpt>
      <trkpt lat="28.7395650" lon="-17.7863220">
        <ele>1217.7</ele>
        <time>2020-11-16T10:08:31Z</time>
      </trkpt>
      <trkpt lat="28.7395400" lon="-17.7863330">
        <ele>1218.0</ele>
        <time>2020-11-16T10:08:32Z</time>
      </trkpt>
      <trkpt lat="28.7395400" lon="-17.7863330">
        <ele>1218.0</ele>
        <time>2020-11-16T10:08:33Z</time>
      </trkpt>
      <trkpt lat="28.7395150" lon="-17.7863350">
        <ele>1218.2</ele>
        <time>2020-11-16T10:08:34Z</time>
      </trkpt>
      <trkpt lat="28.7395150" lon="-17.7863350">
        <ele>1218.2</ele>
        <time>2020-11-16T10:08:35Z</time>
      </trkpt>
      <trkpt lat="28.7394930" lon="-17.7863300">
        <ele>1218.4</ele>
        <time>2020-11-16T10:08:36Z</time>
      </trkpt>
      <trkpt lat="28.7394930" lon="-17.7863300">
        <ele>1218.4</ele>
        <time>2020-11-16T10:08:37Z</time>
      </trkpt>
      <trkpt lat="28.7394370" lon="-17.7863180">
        <ele>1219.0</ele>
        <time>2020-11-16T10:08:38Z</time>
      </trkpt>
      <trkpt lat="28.7394020" lon="-17.7863080">
        <ele>1219.3</ele>
        <time>2020-11-16T10:08:39Z</time>
      </trkpt>
      <trkpt lat="28.7394020" lon="-17.7863080">
        <ele>1219.3</ele>
        <time>2020-11-16T10:08:40Z</time>
      </trkpt>
      <trkpt lat="28.7393720" lon="-17.7863370">
        <ele>1219.7</ele>
        <time>2020-11-16T10:08:41Z</time>
      </trkpt>
      <trkpt lat="28.7393720" lon="-17.7863370">
        <ele>1219.7</ele>
        <time>2020-11-16T10:08:42Z</time>
      </trkpt>
      <trkpt lat="28.7393480" lon="-17.7863680">
        <ele>1220.0</ele>
        <time>2020-11-16T10:08:43Z</time>
      </trkpt>
      <trkpt lat="28.7393220" lon="-17.7863730">
        <ele>1220.3</ele>
        <time>2020-11-16T10:08:44Z</time>
      </trkpt>
      <trkpt lat="28.7393220" lon="-17.7863730">
        <ele>1220.3</ele>
        <time>2020-11-16T10:08:45Z</time>
      </trkpt>
      <trkpt lat="28.7392920" lon="-17.7863950">
        <ele>1220.7</ele>
        <time>2020-11-16T10:08:46Z</time>
      </trkpt>
      <trkpt lat="28.7392920" lon="-17.7863950">
        <ele>1220.7</ele>
        <time>2020-11-16T10:08:47Z</time>
      </trkpt>
      <trkpt lat="28.7392770" lon="-17.7864270">
        <ele>1221.0</ele>
        <time>2020-11-16T10:08:48Z</time>
      </trkpt>
      <trkpt lat="28.7392650" lon="-17.7864620">
        <ele>1221.4</ele>
        <time>2020-11-16T10:08:49Z</time>
      </trkpt>
      <trkpt lat="28.7392650" lon="-17.7864620">
        <ele>1221.4</ele>
        <time>2020-11-16T10:08:50Z</time>
      </trkpt>
      <trkpt lat="28.7392470" lon="-17.7864980">
        <ele>1221.8</ele>
        <time>2020-11-16T10:08:51Z</time>
      </trkpt>
      <trkpt lat="28.7392470" lon="-17.7864980">
        <ele>1221.8</ele>
        <time>2020-11-16T10:08:52Z</time>
      </trkpt>
      <trkpt lat="28.7392530" lon="-17.7865300">
        <ele>1222.1</ele>
        <time>2020-11-16T10:08:53Z</time>
      </trkpt>
      <trkpt lat="28.7392530" lon="-17.7865300">
        <ele>1222.1</ele>
        <time>2020-11-16T10:08:54Z</time>
      </trkpt>
      <trkpt lat="28.7392550" lon="-17.7865720">
        <ele>1222.5</ele>
        <time>2020-11-16T10:08:55Z</time>
      </trkpt>
      <trkpt lat="28.7392500" lon="-17.7865850">
        <ele>1222.7</ele>
        <time>2020-11-16T10:08:56Z</time>
      </trkpt>
      <trkpt lat="28.7392500" lon="-17.7865850">
        <ele>1222.7</ele>
        <time>2020-11-16T10:08:57Z</time>
      </trkpt>
      <trkpt lat="28.7392400" lon="-17.7866100">
        <ele>1223.0</ele>
        <time>2020-11-16T10:08:58Z</time>
      </trkpt>
      <trkpt lat="28.7392330" lon="-17.7866230">
        <ele>1223.1</ele>
        <time>2020-11-16T10:08:59Z</time>
      </trkpt>
      <trkpt lat="28.7392220" lon="-17.7866380">
        <ele>1223.3</ele>
        <time>2020-11-16T10:09:00Z</time>
      </trkpt>
      <trkpt lat="28.7392220" lon="-17.7866380">
        <ele>1223.3</ele>
        <time>2020-11-16T10:09:01Z</time>
      </trkpt>
      <trkpt lat="28.7391950" lon="-17.7866700">
        <ele>1223.5</ele>
        <time>2020-11-16T10:09:02Z</time>
      </trkpt>
      <trkpt lat="28.7391950" lon="-17.7866700">
        <ele>1223.5</ele>
        <time>2020-11-16T10:09:03Z</time>
      </trkpt>
      <trkpt lat="28.7391800" lon="-17.7867070">
        <ele>1223.6</ele>
        <time>2020-11-16T10:09:04Z</time>
      </trkpt>
      <trkpt lat="28.7391800" lon="-17.7867070">
        <ele>1223.6</ele>
        <time>2020-11-16T10:09:05Z</time>
      </trkpt>
      <trkpt lat="28.7391730" lon="-17.7867430">
        <ele>1223.7</ele>
        <time>2020-11-16T10:09:06Z</time>
      </trkpt>
      <trkpt lat="28.7391730" lon="-17.7867430">
        <ele>1223.7</ele>
        <time>2020-11-16T10:09:07Z</time>
      </trkpt>
      <trkpt lat="28.7391650" lon="-17.7867880">
        <ele>1223.9</ele>
        <time>2020-11-16T10:09:08Z</time>
      </trkpt>
      <trkpt lat="28.7391650" lon="-17.7867880">
        <ele>1223.9</ele>
        <time>2020-11-16T10:09:09Z</time>
      </trkpt>
      <trkpt lat="28.7391530" lon="-17.7868300">
        <ele>1224.0</ele>
        <time>2020-11-16T10:09:10Z</time>
      </trkpt>
      <trkpt lat="28.7391420" lon="-17.7868450">
        <ele>1224.1</ele>
        <time>2020-11-16T10:09:11Z</time>
      </trkpt>
      <trkpt lat="28.7391420" lon="-17.7868450">
        <ele>1224.1</ele>
        <time>2020-11-16T10:09:12Z</time>
      </trkpt>
      <trkpt lat="28.7391270" lon="-17.7868820">
        <ele>1224.3</ele>
        <time>2020-11-16T10:09:13Z</time>
      </trkpt>
      <trkpt lat="28.7391120" lon="-17.7868950">
        <ele>1224.4</ele>
        <time>2020-11-16T10:09:14Z</time>
      </trkpt>
      <trkpt lat="28.7391120" lon="-17.7868950">
        <ele>1224.4</ele>
        <time>2020-11-16T10:09:15Z</time>
      </trkpt>
      <trkpt lat="28.7390920" lon="-17.7869230">
        <ele>1224.5</ele>
        <time>2020-11-16T10:09:16Z</time>
      </trkpt>
      <trkpt lat="28.7390920" lon="-17.7869230">
        <ele>1224.5</ele>
        <time>2020-11-16T10:09:17Z</time>
      </trkpt>
      <trkpt lat="28.7390800" lon="-17.7869470">
        <ele>1224.6</ele>
        <time>2020-11-16T10:09:18Z</time>
      </trkpt>
      <trkpt lat="28.7390800" lon="-17.7869470">
        <ele>1224.6</ele>
        <time>2020-11-16T10:09:19Z</time>
      </trkpt>
      <trkpt lat="28.7390700" lon="-17.7869780">
        <ele>1224.8</ele>
        <time>2020-11-16T10:09:20Z</time>
      </trkpt>
      <trkpt lat="28.7390630" lon="-17.7869920">
        <ele>1224.9</ele>
        <time>2020-11-16T10:09:21Z</time>
      </trkpt>
      <trkpt lat="28.7390550" lon="-17.7870020">
        <ele>1224.9</ele>
        <time>2020-11-16T10:09:22Z</time>
      </trkpt>
      <trkpt lat="28.7390550" lon="-17.7870020">
        <ele>1224.9</ele>
        <time>2020-11-16T10:09:23Z</time>
      </trkpt>
      <trkpt lat="28.7390250" lon="-17.7870200">
        <ele>1225.1</ele>
        <time>2020-11-16T10:09:24Z</time>
      </trkpt>
      <trkpt lat="28.7390250" lon="-17.7870200">
        <ele>1225.1</ele>
        <time>2020-11-16T10:09:25Z</time>
      </trkpt>
      <trkpt lat="28.7390020" lon="-17.7870380">
        <ele>1225.3</ele>
        <time>2020-11-16T10:09:26Z</time>
      </trkpt>
      <trkpt lat="28.7390020" lon="-17.7870380">
        <ele>1225.3</ele>
        <time>2020-11-16T10:09:27Z</time>
      </trkpt>
      <trkpt lat="28.7389900" lon="-17.7870700">
        <ele>1225.5</ele>
        <time>2020-11-16T10:09:28Z</time>
      </trkpt>
      <trkpt lat="28.7389900" lon="-17.7870700">
        <ele>1225.5</ele>
        <time>2020-11-16T10:09:29Z</time>
      </trkpt>
      <trkpt lat="28.7389850" lon="-17.7870880">
        <ele>1225.6</ele>
        <time>2020-11-16T10:09:30Z</time>
      </trkpt>
      <trkpt lat="28.7389770" lon="-17.7870970">
        <ele>1225.7</ele>
        <time>2020-11-16T10:09:31Z</time>
      </trkpt>
      <trkpt lat="28.7389770" lon="-17.7870970">
        <ele>1225.7</ele>
        <time>2020-11-16T10:09:32Z</time>
      </trkpt>
      <trkpt lat="28.7389650" lon="-17.7871220">
        <ele>1225.8</ele>
        <time>2020-11-16T10:09:33Z</time>
      </trkpt>
      <trkpt lat="28.7389600" lon="-17.7871480">
        <ele>1226.0</ele>
        <time>2020-11-16T10:09:34Z</time>
      </trkpt>
      <trkpt lat="28.7389600" lon="-17.7871480">
        <ele>1226.0</ele>
        <time>2020-11-16T10:09:35Z</time>
      </trkpt>
      <trkpt lat="28.7389530" lon="-17.7871730">
        <ele>1226.2</ele>
        <time>2020-11-16T10:09:36Z</time>
      </trkpt>
      <trkpt lat="28.7389530" lon="-17.7871730">
        <ele>1226.2</ele>
        <time>2020-11-16T10:09:37Z</time>
      </trkpt>
      <trkpt lat="28.7389370" lon="-17.7872000">
        <ele>1226.4</ele>
        <time>2020-11-16T10:09:38Z</time>
      </trkpt>
      <trkpt lat="28.7389370" lon="-17.7872000">
        <ele>1226.4</ele>
        <time>2020-11-16T10:09:39Z</time>
      </trkpt>
      <trkpt lat="28.7389300" lon="-17.7872200">
        <ele>1226.5</ele>
        <time>2020-11-16T10:09:40Z</time>
      </trkpt>
      <trkpt lat="28.7389300" lon="-17.7872200">
        <ele>1226.5</ele>
        <time>2020-11-16T10:09:41Z</time>
      </trkpt>
      <trkpt lat="28.7389180" lon="-17.7872400">
        <ele>1226.6</ele>
        <time>2020-11-16T10:09:42Z</time>
      </trkpt>
      <trkpt lat="28.7389120" lon="-17.7872530">
        <ele>1226.7</ele>
        <time>2020-11-16T10:09:43Z</time>
      </trkpt>
      <trkpt lat="28.7389120" lon="-17.7872530">
        <ele>1226.7</ele>
        <time>2020-11-16T10:09:44Z</time>
      </trkpt>
      <trkpt lat="28.7389100" lon="-17.7872780">
        <ele>1226.9</ele>
        <time>2020-11-16T10:09:45Z</time>
      </trkpt>
      <trkpt lat="28.7389100" lon="-17.7872780">
        <ele>1226.9</ele>
        <time>2020-11-16T10:09:46Z</time>
      </trkpt>
      <trkpt lat="28.7389200" lon="-17.7873320">
        <ele>1227.2</ele>
        <time>2020-11-16T10:09:47Z</time>
      </trkpt>
      <trkpt lat="28.7389200" lon="-17.7873320">
        <ele>1227.2</ele>
        <time>2020-11-16T10:09:48Z</time>
      </trkpt>
      <trkpt lat="28.7389130" lon="-17.7873700">
        <ele>1227.4</ele>
        <time>2020-11-16T10:09:49Z</time>
      </trkpt>
      <trkpt lat="28.7389130" lon="-17.7873700">
        <ele>1227.4</ele>
        <time>2020-11-16T10:09:50Z</time>
      </trkpt>
      <trkpt lat="28.7389100" lon="-17.7874080">
        <ele>1227.7</ele>
        <time>2020-11-16T10:09:51Z</time>
      </trkpt>
      <trkpt lat="28.7389100" lon="-17.7874080">
        <ele>1227.7</ele>
        <time>2020-11-16T10:09:52Z</time>
      </trkpt>
      <trkpt lat="28.7389030" lon="-17.7874400">
        <ele>1227.9</ele>
        <time>2020-11-16T10:09:53Z</time>
      </trkpt>
      <trkpt lat="28.7389030" lon="-17.7874400">
        <ele>1227.9</ele>
        <time>2020-11-16T10:09:54Z</time>
      </trkpt>
      <trkpt lat="28.7389170" lon="-17.7874650">
        <ele>1228.1</ele>
        <time>2020-11-16T10:09:55Z</time>
      </trkpt>
      <trkpt lat="28.7389170" lon="-17.7874650">
        <ele>1228.1</ele>
        <time>2020-11-16T10:09:56Z</time>
      </trkpt>
      <trkpt lat="28.7389480" lon="-17.7874930">
        <ele>1228.5</ele>
        <time>2020-11-16T10:09:57Z</time>
      </trkpt>
      <trkpt lat="28.7389680" lon="-17.7875030">
        <ele>1228.9</ele>
        <time>2020-11-16T10:09:58Z</time>
      </trkpt>
      <trkpt lat="28.7389680" lon="-17.7875030">
        <ele>1228.9</ele>
        <time>2020-11-16T10:09:59Z</time>
      </trkpt>
      <trkpt lat="28.7390020" lon="-17.7875120">
        <ele>1229.1</ele>
        <time>2020-11-16T10:10:00Z</time>
      </trkpt>
      <trkpt lat="28.7390180" lon="-17.7875080">
        <ele>1229.3</ele>
        <time>2020-11-16T10:10:01Z</time>
      </trkpt>
      <trkpt lat="28.7390180" lon="-17.7875080">
        <ele>1229.3</ele>
        <time>2020-11-16T10:10:02Z</time>
      </trkpt>
      <trkpt lat="28.7390470" lon="-17.7875000">
        <ele>1229.5</ele>
        <time>2020-11-16T10:10:03Z</time>
      </trkpt>
      <trkpt lat="28.7390470" lon="-17.7875000">
        <ele>1229.5</ele>
        <time>2020-11-16T10:10:04Z</time>
      </trkpt>
      <trkpt lat="28.7390680" lon="-17.7874830">
        <ele>1229.8</ele>
        <time>2020-11-16T10:10:05Z</time>
      </trkpt>
      <trkpt lat="28.7390680" lon="-17.7874830">
        <ele>1229.8</ele>
        <time>2020-11-16T10:10:06Z</time>
      </trkpt>
      <trkpt lat="28.7390870" lon="-17.7874830">
        <ele>1229.9</ele>
        <time>2020-11-16T10:10:07Z</time>
      </trkpt>
      <trkpt lat="28.7390870" lon="-17.7874830">
        <ele>1229.9</ele>
        <time>2020-11-16T10:10:08Z</time>
      </trkpt>
      <trkpt lat="28.7391070" lon="-17.7874670">
        <ele>1230.1</ele>
        <time>2020-11-16T10:10:09Z</time>
      </trkpt>
      <trkpt lat="28.7391070" lon="-17.7874670">
        <ele>1230.1</ele>
        <time>2020-11-16T10:10:10Z</time>
      </trkpt>
      <trkpt lat="28.7391220" lon="-17.7874350">
        <ele>1230.4</ele>
        <time>2020-11-16T10:10:11Z</time>
      </trkpt>
      <trkpt lat="28.7391220" lon="-17.7874350">
        <ele>1230.4</ele>
        <time>2020-11-16T10:10:12Z</time>
      </trkpt>
      <trkpt lat="28.7391350" lon="-17.7874170">
        <ele>1230.6</ele>
        <time>2020-11-16T10:10:13Z</time>
      </trkpt>
      <trkpt lat="28.7391420" lon="-17.7874100">
        <ele>1230.7</ele>
        <time>2020-11-16T10:10:14Z</time>
      </trkpt>
      <trkpt lat="28.7391420" lon="-17.7874100">
        <ele>1230.7</ele>
        <time>2020-11-16T10:10:15Z</time>
      </trkpt>
      <trkpt lat="28.7391570" lon="-17.7873930">
        <ele>1230.9</ele>
        <time>2020-11-16T10:10:16Z</time>
      </trkpt>
      <trkpt lat="28.7391650" lon="-17.7873800">
        <ele>1231.0</ele>
        <time>2020-11-16T10:10:17Z</time>
      </trkpt>
      <trkpt lat="28.7391770" lon="-17.7873620">
        <ele>1231.2</ele>
        <time>2020-11-16T10:10:18Z</time>
      </trkpt>
      <trkpt lat="28.7391770" lon="-17.7873620">
        <ele>1231.2</ele>
        <time>2020-11-16T10:10:19Z</time>
      </trkpt>
      <trkpt lat="28.7392000" lon="-17.7873400">
        <ele>1231.4</ele>
        <time>2020-11-16T10:10:20Z</time>
      </trkpt>
      <trkpt lat="28.7392000" lon="-17.7873400">
        <ele>1231.4</ele>
        <time>2020-11-16T10:10:21Z</time>
      </trkpt>
      <trkpt lat="28.7392220" lon="-17.7873000">
        <ele>1231.8</ele>
        <time>2020-11-16T10:10:22Z</time>
      </trkpt>
      <trkpt lat="28.7392370" lon="-17.7872850">
        <ele>1231.9</ele>
        <time>2020-11-16T10:10:23Z</time>
      </trkpt>
      <trkpt lat="28.7392370" lon="-17.7872850">
        <ele>1231.9</ele>
        <time>2020-11-16T10:10:24Z</time>
      </trkpt>
      <trkpt lat="28.7392730" lon="-17.7872600">
        <ele>1232.2</ele>
        <time>2020-11-16T10:10:25Z</time>
      </trkpt>
      <trkpt lat="28.7392970" lon="-17.7872530">
        <ele>1232.4</ele>
        <time>2020-11-16T10:10:26Z</time>
      </trkpt>
      <trkpt lat="28.7392970" lon="-17.7872530">
        <ele>1232.4</ele>
        <time>2020-11-16T10:10:27Z</time>
      </trkpt>
      <trkpt lat="28.7393220" lon="-17.7872350">
        <ele>1232.5</ele>
        <time>2020-11-16T10:10:28Z</time>
      </trkpt>
      <trkpt lat="28.7393220" lon="-17.7872350">
        <ele>1232.5</ele>
        <time>2020-11-16T10:10:29Z</time>
      </trkpt>
      <trkpt lat="28.7393500" lon="-17.7872370">
        <ele>1232.7</ele>
        <time>2020-11-16T10:10:30Z</time>
      </trkpt>
      <trkpt lat="28.7393650" lon="-17.7872350">
        <ele>1232.8</ele>
        <time>2020-11-16T10:10:31Z</time>
      </trkpt>
      <trkpt lat="28.7393650" lon="-17.7872350">
        <ele>1232.8</ele>
        <time>2020-11-16T10:10:32Z</time>
      </trkpt>
      <trkpt lat="28.7393770" lon="-17.7872230">
        <ele>1232.9</ele>
        <time>2020-11-16T10:10:33Z</time>
      </trkpt>
      <trkpt lat="28.7393800" lon="-17.7872270">
        <ele>1233.0</ele>
        <time>2020-11-16T10:10:34Z</time>
      </trkpt>
      <trkpt lat="28.7393800" lon="-17.7872270">
        <ele>1233.0</ele>
        <time>2020-11-16T10:10:35Z</time>
      </trkpt>
      <trkpt lat="28.7393930" lon="-17.7872280">
        <ele>1233.0</ele>
        <time>2020-11-16T10:10:36Z</time>
      </trkpt>
      <trkpt lat="28.7393930" lon="-17.7872280">
        <ele>1233.0</ele>
        <time>2020-11-16T10:10:37Z</time>
      </trkpt>
      <trkpt lat="28.7394150" lon="-17.7872250">
        <ele>1233.2</ele>
        <time>2020-11-16T10:10:38Z</time>
      </trkpt>
      <trkpt lat="28.7394150" lon="-17.7872250">
        <ele>1233.2</ele>
        <time>2020-11-16T10:10:39Z</time>
      </trkpt>
      <trkpt lat="28.7394270" lon="-17.7872250">
        <ele>1233.3</ele>
        <time>2020-11-16T10:10:40Z</time>
      </trkpt>
      <trkpt lat="28.7394270" lon="-17.7872230">
        <ele>1233.3</ele>
        <time>2020-11-16T10:10:41Z</time>
      </trkpt>
      <trkpt lat="28.7394270" lon="-17.7872230">
        <ele>1233.3</ele>
        <time>2020-11-16T10:10:42Z</time>
      </trkpt>
      <trkpt lat="28.7394250" lon="-17.7872250">
        <ele>1233.3</ele>
        <time>2020-11-16T10:10:43Z</time>
      </trkpt>
      <trkpt lat="28.7394250" lon="-17.7872250">
        <ele>1233.3</ele>
        <time>2020-11-16T10:10:44Z</time>
      </trkpt>
      <trkpt lat="28.7394250" lon="-17.7872250">
        <ele>1233.3</ele>
        <time>2020-11-16T10:10:45Z</time>
      </trkpt>
      <trkpt lat="28.7394380" lon="-17.7872150">
        <ele>1233.4</ele>
        <time>2020-11-16T10:11:17Z</time>
      </trkpt>
      <trkpt lat="28.7394380" lon="-17.7872150">
        <ele>1233.4</ele>
        <time>2020-11-16T10:11:18Z</time>
      </trkpt>
      <trkpt lat="28.7394430" lon="-17.7872150">
        <ele>1233.5</ele>
        <time>2020-11-16T10:11:19Z</time>
      </trkpt>
      <trkpt lat="28.7394430" lon="-17.7872150">
        <ele>1233.5</ele>
        <time>2020-11-16T10:11:20Z</time>
      </trkpt>
      <trkpt lat="28.7394470" lon="-17.7872200">
        <ele>1233.5</ele>
        <time>2020-11-16T10:11:30Z</time>
      </trkpt>
      <trkpt lat="28.7395120" lon="-17.7872280">
        <ele>1234.2</ele>
        <time>2020-11-16T10:11:31Z</time>
      </trkpt>
      <trkpt lat="28.7395120" lon="-17.7872280">
        <ele>1234.2</ele>
        <time>2020-11-16T10:11:32Z</time>
      </trkpt>
      <trkpt lat="28.7395330" lon="-17.7872370">
        <ele>1234.4</ele>
        <time>2020-11-16T10:11:33Z</time>
      </trkpt>
      <trkpt lat="28.7395330" lon="-17.7872370">
        <ele>1234.4</ele>
        <time>2020-11-16T10:11:34Z</time>
      </trkpt>
      <trkpt lat="28.7395570" lon="-17.7872350">
        <ele>1234.7</ele>
        <time>2020-11-16T10:11:35Z</time>
      </trkpt>
      <trkpt lat="28.7395650" lon="-17.7872320">
        <ele>1234.7</ele>
        <time>2020-11-16T10:11:36Z</time>
      </trkpt>
      <trkpt lat="28.7395650" lon="-17.7872320">
        <ele>1234.7</ele>
        <time>2020-11-16T10:11:37Z</time>
      </trkpt>
      <trkpt lat="28.7395870" lon="-17.7872300">
        <ele>1234.9</ele>
        <time>2020-11-16T10:11:38Z</time>
      </trkpt>
      <trkpt lat="28.7395930" lon="-17.7872220">
        <ele>1235.0</ele>
        <time>2020-11-16T10:11:39Z</time>
      </trkpt>
      <trkpt lat="28.7396080" lon="-17.7872200">
        <ele>1235.2</ele>
        <time>2020-11-16T10:11:40Z</time>
      </trkpt>
      <trkpt lat="28.7396080" lon="-17.7872200">
        <ele>1235.2</ele>
        <time>2020-11-16T10:11:41Z</time>
      </trkpt>
      <trkpt lat="28.7396400" lon="-17.7872230">
        <ele>1235.5</ele>
        <time>2020-11-16T10:11:42Z</time>
      </trkpt>
      <trkpt lat="28.7396400" lon="-17.7872230">
        <ele>1235.5</ele>
        <time>2020-11-16T10:11:43Z</time>
      </trkpt>
      <trkpt lat="28.7396720" lon="-17.7872230">
        <ele>1235.8</ele>
        <time>2020-11-16T10:11:44Z</time>
      </trkpt>
      <trkpt lat="28.7396870" lon="-17.7872280">
        <ele>1236.0</ele>
        <time>2020-11-16T10:11:45Z</time>
      </trkpt>
      <trkpt lat="28.7396870" lon="-17.7872280">
        <ele>1236.0</ele>
        <time>2020-11-16T10:11:46Z</time>
      </trkpt>
      <trkpt lat="28.7397280" lon="-17.7872350">
        <ele>1236.4</ele>
        <time>2020-11-16T10:11:47Z</time>
      </trkpt>
      <trkpt lat="28.7397280" lon="-17.7872350">
        <ele>1236.4</ele>
        <time>2020-11-16T10:11:48Z</time>
      </trkpt>
      <trkpt lat="28.7397580" lon="-17.7872400">
        <ele>1236.8</ele>
        <time>2020-11-16T10:11:49Z</time>
      </trkpt>
      <trkpt lat="28.7397580" lon="-17.7872400">
        <ele>1236.8</ele>
        <time>2020-11-16T10:11:50Z</time>
      </trkpt>
      <trkpt lat="28.7397950" lon="-17.7872570">
        <ele>1237.2</ele>
        <time>2020-11-16T10:11:51Z</time>
      </trkpt>
      <trkpt lat="28.7398100" lon="-17.7872650">
        <ele>1237.3</ele>
        <time>2020-11-16T10:11:52Z</time>
      </trkpt>
      <trkpt lat="28.7398100" lon="-17.7872650">
        <ele>1237.3</ele>
        <time>2020-11-16T10:11:53Z</time>
      </trkpt>
      <trkpt lat="28.7398450" lon="-17.7872770">
        <ele>1237.7</ele>
        <time>2020-11-16T10:11:54Z</time>
      </trkpt>
      <trkpt lat="28.7398450" lon="-17.7872770">
        <ele>1237.7</ele>
        <time>2020-11-16T10:11:55Z</time>
      </trkpt>
      <trkpt lat="28.7398880" lon="-17.7872830">
        <ele>1238.1</ele>
        <time>2020-11-16T10:11:56Z</time>
      </trkpt>
      <trkpt lat="28.7398880" lon="-17.7872830">
        <ele>1238.1</ele>
        <time>2020-11-16T10:11:57Z</time>
      </trkpt>
      <trkpt lat="28.7399180" lon="-17.7872950">
        <ele>1238.4</ele>
        <time>2020-11-16T10:11:58Z</time>
      </trkpt>
      <trkpt lat="28.7399180" lon="-17.7872950">
        <ele>1238.4</ele>
        <time>2020-11-16T10:11:59Z</time>
      </trkpt>
      <trkpt lat="28.7399520" lon="-17.7873130">
        <ele>1238.8</ele>
        <time>2020-11-16T10:12:00Z</time>
      </trkpt>
      <trkpt lat="28.7399520" lon="-17.7873130">
        <ele>1238.8</ele>
        <time>2020-11-16T10:12:01Z</time>
      </trkpt>
      <trkpt lat="28.7399780" lon="-17.7873280">
        <ele>1239.1</ele>
        <time>2020-11-16T10:12:02Z</time>
      </trkpt>
      <trkpt lat="28.7399780" lon="-17.7873280">
        <ele>1239.1</ele>
        <time>2020-11-16T10:12:03Z</time>
      </trkpt>
      <trkpt lat="28.7399950" lon="-17.7873400">
        <ele>1239.3</ele>
        <time>2020-11-16T10:12:04Z</time>
      </trkpt>
      <trkpt lat="28.7400070" lon="-17.7873480">
        <ele>1239.5</ele>
        <time>2020-11-16T10:12:05Z</time>
      </trkpt>
      <trkpt lat="28.7400070" lon="-17.7873480">
        <ele>1239.5</ele>
        <time>2020-11-16T10:12:06Z</time>
      </trkpt>
      <trkpt lat="28.7400280" lon="-17.7873630">
        <ele>1239.8</ele>
        <time>2020-11-16T10:12:07Z</time>
      </trkpt>
      <trkpt lat="28.7400450" lon="-17.7873720">
        <ele>1240.0</ele>
        <time>2020-11-16T10:12:08Z</time>
      </trkpt>
      <trkpt lat="28.7400450" lon="-17.7873720">
        <ele>1240.0</ele>
        <time>2020-11-16T10:12:09Z</time>
      </trkpt>
      <trkpt lat="28.7400730" lon="-17.7873970">
        <ele>1240.5</ele>
        <time>2020-11-16T10:12:10Z</time>
      </trkpt>
      <trkpt lat="28.7400870" lon="-17.7874070">
        <ele>1240.7</ele>
        <time>2020-11-16T10:12:11Z</time>
      </trkpt>
      <trkpt lat="28.7400870" lon="-17.7874070">
        <ele>1240.7</ele>
        <time>2020-11-16T10:12:12Z</time>
      </trkpt>
      <trkpt lat="28.7401150" lon="-17.7874220">
        <ele>1241.0</ele>
        <time>2020-11-16T10:12:13Z</time>
      </trkpt>
      <trkpt lat="28.7401280" lon="-17.7874350">
        <ele>1241.2</ele>
        <time>2020-11-16T10:12:14Z</time>
      </trkpt>
      <trkpt lat="28.7401280" lon="-17.7874350">
        <ele>1241.2</ele>
        <time>2020-11-16T10:12:15Z</time>
      </trkpt>
      <trkpt lat="28.7401570" lon="-17.7874580">
        <ele>1241.6</ele>
        <time>2020-11-16T10:12:16Z</time>
      </trkpt>
      <trkpt lat="28.7401570" lon="-17.7874580">
        <ele>1241.6</ele>
        <time>2020-11-16T10:12:17Z</time>
      </trkpt>
      <trkpt lat="28.7401850" lon="-17.7874750">
        <ele>1241.9</ele>
        <time>2020-11-16T10:12:18Z</time>
      </trkpt>
      <trkpt lat="28.7401950" lon="-17.7874800">
        <ele>1242.0</ele>
        <time>2020-11-16T10:12:19Z</time>
      </trkpt>
      <trkpt lat="28.7401950" lon="-17.7874800">
        <ele>1242.0</ele>
        <time>2020-11-16T10:12:20Z</time>
      </trkpt>
      <trkpt lat="28.7402120" lon="-17.7874850">
        <ele>1242.2</ele>
        <time>2020-11-16T10:12:21Z</time>
      </trkpt>
      <trkpt lat="28.7402120" lon="-17.7874850">
        <ele>1242.2</ele>
        <time>2020-11-16T10:12:22Z</time>
      </trkpt>
      <trkpt lat="28.7402330" lon="-17.7874870">
        <ele>1242.4</ele>
        <time>2020-11-16T10:12:23Z</time>
      </trkpt>
      <trkpt lat="28.7402330" lon="-17.7874870">
        <ele>1242.4</ele>
        <time>2020-11-16T10:12:24Z</time>
      </trkpt>
      <trkpt lat="28.7402570" lon="-17.7874850">
        <ele>1242.7</ele>
        <time>2020-11-16T10:12:25Z</time>
      </trkpt>
      <trkpt lat="28.7402650" lon="-17.7874850">
        <ele>1242.8</ele>
        <time>2020-11-16T10:12:26Z</time>
      </trkpt>
      <trkpt lat="28.7402650" lon="-17.7874850">
        <ele>1242.8</ele>
        <time>2020-11-16T10:12:27Z</time>
      </trkpt>
      <trkpt lat="28.7402930" lon="-17.7874930">
        <ele>1243.0</ele>
        <time>2020-11-16T10:12:28Z</time>
      </trkpt>
      <trkpt lat="28.7402930" lon="-17.7874930">
        <ele>1243.0</ele>
        <time>2020-11-16T10:12:29Z</time>
      </trkpt>
      <trkpt lat="28.7403270" lon="-17.7875130">
        <ele>1243.4</ele>
        <time>2020-11-16T10:12:30Z</time>
      </trkpt>
      <trkpt lat="28.7403270" lon="-17.7875130">
        <ele>1243.4</ele>
        <time>2020-11-16T10:12:31Z</time>
      </trkpt>
      <trkpt lat="28.7403600" lon="-17.7875270">
        <ele>1243.8</ele>
        <time>2020-11-16T10:12:32Z</time>
      </trkpt>
      <trkpt lat="28.7403770" lon="-17.7875320">
        <ele>1244.0</ele>
        <time>2020-11-16T10:12:33Z</time>
      </trkpt>
      <trkpt lat="28.7403770" lon="-17.7875320">
        <ele>1244.0</ele>
        <time>2020-11-16T10:12:34Z</time>
      </trkpt>
      <trkpt lat="28.7404120" lon="-17.7875620">
        <ele>1244.5</ele>
        <time>2020-11-16T10:12:35Z</time>
      </trkpt>
      <trkpt lat="28.7404120" lon="-17.7875620">
        <ele>1244.5</ele>
        <time>2020-11-16T10:12:36Z</time>
      </trkpt>
      <trkpt lat="28.7404430" lon="-17.7875820">
        <ele>1244.9</ele>
        <time>2020-11-16T10:12:37Z</time>
      </trkpt>
      <trkpt lat="28.7404430" lon="-17.7875820">
        <ele>1244.9</ele>
        <time>2020-11-16T10:12:38Z</time>
      </trkpt>
      <trkpt lat="28.7404720" lon="-17.7875970">
        <ele>1245.2</ele>
        <time>2020-11-16T10:12:39Z</time>
      </trkpt>
      <trkpt lat="28.7404720" lon="-17.7875970">
        <ele>1245.2</ele>
        <time>2020-11-16T10:12:40Z</time>
      </trkpt>
      <trkpt lat="28.7405050" lon="-17.7876170">
        <ele>1245.5</ele>
        <time>2020-11-16T10:12:41Z</time>
      </trkpt>
      <trkpt lat="28.7405050" lon="-17.7876170">
        <ele>1245.5</ele>
        <time>2020-11-16T10:12:42Z</time>
      </trkpt>
      <trkpt lat="28.7405320" lon="-17.7876480">
        <ele>1246.2</ele>
        <time>2020-11-16T10:12:43Z</time>
      </trkpt>
      <trkpt lat="28.7405450" lon="-17.7876600">
        <ele>1245.8</ele>
        <time>2020-11-16T10:12:44Z</time>
      </trkpt>
      <trkpt lat="28.7405450" lon="-17.7876600">
        <ele>1245.8</ele>
        <time>2020-11-16T10:12:45Z</time>
      </trkpt>
      <trkpt lat="28.7405620" lon="-17.7876800">
        <ele>1245.8</ele>
        <time>2020-11-16T10:12:46Z</time>
      </trkpt>
      <trkpt lat="28.7405620" lon="-17.7876800">
        <ele>1245.8</ele>
        <time>2020-11-16T10:12:47Z</time>
      </trkpt>
      <trkpt lat="28.7405830" lon="-17.7876950">
        <ele>1245.9</ele>
        <time>2020-11-16T10:12:48Z</time>
      </trkpt>
      <trkpt lat="28.7405900" lon="-17.7877030">
        <ele>1245.9</ele>
        <time>2020-11-16T10:12:49Z</time>
      </trkpt>
      <trkpt lat="28.7405900" lon="-17.7877030">
        <ele>1245.9</ele>
        <time>2020-11-16T10:12:50Z</time>
      </trkpt>
      <trkpt lat="28.7406050" lon="-17.7877270">
        <ele>1246.5</ele>
        <time>2020-11-16T10:12:51Z</time>
      </trkpt>
      <trkpt lat="28.7406050" lon="-17.7877270">
        <ele>1246.4</ele>
        <time>2020-11-16T10:12:52Z</time>
      </trkpt>
      <trkpt lat="28.7406230" lon="-17.7877480">
        <ele>1245.9</ele>
        <time>2020-11-16T10:12:53Z</time>
      </trkpt>
      <trkpt lat="28.7406230" lon="-17.7877480">
        <ele>1245.9</ele>
        <time>2020-11-16T10:12:54Z</time>
      </trkpt>
      <trkpt lat="28.7406650" lon="-17.7877800">
        <ele>1245.8</ele>
        <time>2020-11-16T10:12:55Z</time>
      </trkpt>
      <trkpt lat="28.7406650" lon="-17.7877800">
        <ele>1245.7</ele>
        <time>2020-11-16T10:12:56Z</time>
      </trkpt>
      <trkpt lat="28.7406970" lon="-17.7878000">
        <ele>1245.0</ele>
        <time>2020-11-16T10:12:57Z</time>
      </trkpt>
      <trkpt lat="28.7407120" lon="-17.7878150">
        <ele>1245.4</ele>
        <time>2020-11-16T10:12:58Z</time>
      </trkpt>
      <trkpt lat="28.7407120" lon="-17.7878150">
        <ele>1245.4</ele>
        <time>2020-11-16T10:12:59Z</time>
      </trkpt>
      <trkpt lat="28.7407350" lon="-17.7878380">
        <ele>1244.5</ele>
        <time>2020-11-16T10:13:00Z</time>
      </trkpt>
      <trkpt lat="28.7407350" lon="-17.7878380">
        <ele>1244.5</ele>
        <time>2020-11-16T10:13:01Z</time>
      </trkpt>
      <trkpt lat="28.7407720" lon="-17.7878530">
        <ele>1243.8</ele>
        <time>2020-11-16T10:13:02Z</time>
      </trkpt>
      <trkpt lat="28.7407720" lon="-17.7878530">
        <ele>1243.8</ele>
        <time>2020-11-16T10:13:03Z</time>
      </trkpt>
      <trkpt lat="28.7408000" lon="-17.7878770">
        <ele>1242.6</ele>
        <time>2020-11-16T10:13:04Z</time>
      </trkpt>
      <trkpt lat="28.7408000" lon="-17.7878770">
        <ele>1242.6</ele>
        <time>2020-11-16T10:13:05Z</time>
      </trkpt>
      <trkpt lat="28.7408350" lon="-17.7878950">
        <ele>1241.2</ele>
        <time>2020-11-16T10:13:06Z</time>
      </trkpt>
      <trkpt lat="28.7408350" lon="-17.7878950">
        <ele>1241.2</ele>
        <time>2020-11-16T10:13:07Z</time>
      </trkpt>
      <trkpt lat="28.7408580" lon="-17.7878970">
        <ele>1241.4</ele>
        <time>2020-11-16T10:13:08Z</time>
      </trkpt>
      <trkpt lat="28.7408580" lon="-17.7878970">
        <ele>1241.4</ele>
        <time>2020-11-16T10:13:09Z</time>
      </trkpt>
      <trkpt lat="28.7408970" lon="-17.7879080">
        <ele>1239.8</ele>
        <time>2020-11-16T10:13:10Z</time>
      </trkpt>
      <trkpt lat="28.7409080" lon="-17.7879200">
        <ele>1239.8</ele>
        <time>2020-11-16T10:13:11Z</time>
      </trkpt>
      <trkpt lat="28.7409080" lon="-17.7879200">
        <ele>1239.8</ele>
        <time>2020-11-16T10:13:12Z</time>
      </trkpt>
      <trkpt lat="28.7409380" lon="-17.7879300">
        <ele>1238.2</ele>
        <time>2020-11-16T10:13:13Z</time>
      </trkpt>
      <trkpt lat="28.7409380" lon="-17.7879300">
        <ele>1238.2</ele>
        <time>2020-11-16T10:13:14Z</time>
      </trkpt>
      <trkpt lat="28.7409780" lon="-17.7879370">
        <ele>1236.6</ele>
        <time>2020-11-16T10:13:15Z</time>
      </trkpt>
      <trkpt lat="28.7409950" lon="-17.7879420">
        <ele>1235.0</ele>
        <time>2020-11-16T10:13:16Z</time>
      </trkpt>
      <trkpt lat="28.7409950" lon="-17.7879420">
        <ele>1235.0</ele>
        <time>2020-11-16T10:13:17Z</time>
      </trkpt>
      <trkpt lat="28.7410300" lon="-17.7879470">
        <ele>1233.4</ele>
        <time>2020-11-16T10:13:18Z</time>
      </trkpt>
      <trkpt lat="28.7410300" lon="-17.7879470">
        <ele>1233.3</ele>
        <time>2020-11-16T10:13:19Z</time>
      </trkpt>
      <trkpt lat="28.7410680" lon="-17.7879520">
        <ele>1231.7</ele>
        <time>2020-11-16T10:13:20Z</time>
      </trkpt>
      <trkpt lat="28.7410850" lon="-17.7879580">
        <ele>1231.6</ele>
        <time>2020-11-16T10:13:21Z</time>
      </trkpt>
      <trkpt lat="28.7410850" lon="-17.7879580">
        <ele>1231.6</ele>
        <time>2020-11-16T10:13:22Z</time>
      </trkpt>
      <trkpt lat="28.7411120" lon="-17.7879850">
        <ele>1229.7</ele>
        <time>2020-11-16T10:13:23Z</time>
      </trkpt>
      <trkpt lat="28.7411120" lon="-17.7879850">
        <ele>1229.7</ele>
        <time>2020-11-16T10:13:24Z</time>
      </trkpt>
      <trkpt lat="28.7411280" lon="-17.7880080">
        <ele>1229.7</ele>
        <time>2020-11-16T10:13:25Z</time>
      </trkpt>
      <trkpt lat="28.7411280" lon="-17.7880080">
        <ele>1229.6</ele>
        <time>2020-11-16T10:13:26Z</time>
      </trkpt>
      <trkpt lat="28.7411330" lon="-17.7880320">
        <ele>1229.4</ele>
        <time>2020-11-16T10:13:27Z</time>
      </trkpt>
      <trkpt lat="28.7411330" lon="-17.7880320">
        <ele>1229.4</ele>
        <time>2020-11-16T10:13:28Z</time>
      </trkpt>
      <trkpt lat="28.7411220" lon="-17.7880430">
        <ele>1229.4</ele>
        <time>2020-11-16T10:13:29Z</time>
      </trkpt>
      <trkpt lat="28.7411220" lon="-17.7880430">
        <ele>1229.3</ele>
        <time>2020-11-16T10:13:30Z</time>
      </trkpt>
      <trkpt lat="28.7411000" lon="-17.7880550">
        <ele>1229.3</ele>
        <time>2020-11-16T10:13:31Z</time>
      </trkpt>
      <trkpt lat="28.7410950" lon="-17.7880620">
        <ele>1231.1</ele>
        <time>2020-11-16T10:13:32Z</time>
      </trkpt>
      <trkpt lat="28.7410950" lon="-17.7880620">
        <ele>1231.0</ele>
        <time>2020-11-16T10:13:33Z</time>
      </trkpt>
      <trkpt lat="28.7410850" lon="-17.7880750">
        <ele>1230.8</ele>
        <time>2020-11-16T10:13:34Z</time>
      </trkpt>
      <trkpt lat="28.7410850" lon="-17.7880750">
        <ele>1230.8</ele>
        <time>2020-11-16T10:13:35Z</time>
      </trkpt>
      <trkpt lat="28.7410830" lon="-17.7880900">
        <ele>1230.8</ele>
        <time>2020-11-16T10:13:36Z</time>
      </trkpt>
      <trkpt lat="28.7410720" lon="-17.7880880">
        <ele>1230.8</ele>
        <time>2020-11-16T10:13:37Z</time>
      </trkpt>
      <trkpt lat="28.7410680" lon="-17.7880950">
        <ele>1230.7</ele>
        <time>2020-11-16T10:13:38Z</time>
      </trkpt>
      <trkpt lat="28.7410680" lon="-17.7880950">
        <ele>1230.7</ele>
        <time>2020-11-16T10:13:39Z</time>
      </trkpt>
      <trkpt lat="28.7410650" lon="-17.7880920">
        <ele>1230.7</ele>
        <time>2020-11-16T10:13:40Z</time>
      </trkpt>
      <trkpt lat="28.7410650" lon="-17.7880920">
        <ele>1230.7</ele>
        <time>2020-11-16T10:13:41Z</time>
      </trkpt>
      <trkpt lat="28.7410500" lon="-17.7880820">
        <ele>1232.4</ele>
        <time>2020-11-16T10:13:42Z</time>
      </trkpt>
      <trkpt lat="28.7410500" lon="-17.7880820">
        <ele>1232.3</ele>
        <time>2020-11-16T10:13:43Z</time>
      </trkpt>
      <trkpt lat="28.7410230" lon="-17.7880730">
        <ele>1232.3</ele>
        <time>2020-11-16T10:13:44Z</time>
      </trkpt>
      <trkpt lat="28.7409900" lon="-17.7880680">
        <ele>1234.0</ele>
        <time>2020-11-16T10:13:45Z</time>
      </trkpt>
      <trkpt lat="28.7409900" lon="-17.7880680">
        <ele>1234.0</ele>
        <time>2020-11-16T10:13:46Z</time>
      </trkpt>
      <trkpt lat="28.7409650" lon="-17.7880630">
        <ele>1235.8</ele>
        <time>2020-11-16T10:13:47Z</time>
      </trkpt>
      <trkpt lat="28.7409600" lon="-17.7880670">
        <ele>1235.6</ele>
        <time>2020-11-16T10:13:48Z</time>
      </trkpt>
      <trkpt lat="28.7409480" lon="-17.7880650">
        <ele>1235.7</ele>
        <time>2020-11-16T10:13:49Z</time>
      </trkpt>
      <trkpt lat="28.7409330" lon="-17.7880600">
        <ele>1237.4</ele>
        <time>2020-11-16T10:13:50Z</time>
      </trkpt>
      <trkpt lat="28.7409330" lon="-17.7880600">
        <ele>1237.4</ele>
        <time>2020-11-16T10:13:51Z</time>
      </trkpt>
      <trkpt lat="28.7408900" lon="-17.7880450">
        <ele>1239.0</ele>
        <time>2020-11-16T10:13:52Z</time>
      </trkpt>
      <trkpt lat="28.7408900" lon="-17.7880450">
        <ele>1239.0</ele>
        <time>2020-11-16T10:13:53Z</time>
      </trkpt>
      <trkpt lat="28.7408620" lon="-17.7880350">
        <ele>1240.6</ele>
        <time>2020-11-16T10:13:54Z</time>
      </trkpt>
      <trkpt lat="28.7408470" lon="-17.7880320">
        <ele>1240.6</ele>
        <time>2020-11-16T10:13:55Z</time>
      </trkpt>
      <trkpt lat="28.7408470" lon="-17.7880320">
        <ele>1240.5</ele>
        <time>2020-11-16T10:13:56Z</time>
      </trkpt>
      <trkpt lat="28.7408200" lon="-17.7880320">
        <ele>1242.0</ele>
        <time>2020-11-16T10:13:57Z</time>
      </trkpt>
      <trkpt lat="28.7408200" lon="-17.7880320">
        <ele>1242.0</ele>
        <time>2020-11-16T10:13:58Z</time>
      </trkpt>
      <trkpt lat="28.7408030" lon="-17.7880380">
        <ele>1242.0</ele>
        <time>2020-11-16T10:13:59Z</time>
      </trkpt>
      <trkpt lat="28.7408030" lon="-17.7880380">
        <ele>1242.0</ele>
        <time>2020-11-16T10:14:00Z</time>
      </trkpt>
      <trkpt lat="28.7407880" lon="-17.7880480">
        <ele>1243.3</ele>
        <time>2020-11-16T10:14:01Z</time>
      </trkpt>
      <trkpt lat="28.7407830" lon="-17.7880570">
        <ele>1243.3</ele>
        <time>2020-11-16T10:14:02Z</time>
      </trkpt>
      <trkpt lat="28.7407830" lon="-17.7880570">
        <ele>1243.3</ele>
        <time>2020-11-16T10:14:03Z</time>
      </trkpt>
      <trkpt lat="28.7407370" lon="-17.7880500">
        <ele>1244.4</ele>
        <time>2020-11-16T10:14:04Z</time>
      </trkpt>
      <trkpt lat="28.7407170" lon="-17.7880500">
        <ele>1245.5</ele>
        <time>2020-11-16T10:14:05Z</time>
      </trkpt>
      <trkpt lat="28.7407170" lon="-17.7880500">
        <ele>1245.5</ele>
        <time>2020-11-16T10:14:06Z</time>
      </trkpt>
      <trkpt lat="28.7406830" lon="-17.7880730">
        <ele>1246.7</ele>
        <time>2020-11-16T10:14:07Z</time>
      </trkpt>
      <trkpt lat="28.7406830" lon="-17.7880730">
        <ele>1246.6</ele>
        <time>2020-11-16T10:14:08Z</time>
      </trkpt>
      <trkpt lat="28.7406450" lon="-17.7880920">
        <ele>1247.6</ele>
        <time>2020-11-16T10:14:09Z</time>
      </trkpt>
      <trkpt lat="28.7406450" lon="-17.7880920">
        <ele>1247.6</ele>
        <time>2020-11-16T10:14:10Z</time>
      </trkpt>
      <trkpt lat="28.7406030" lon="-17.7881100">
        <ele>1248.8</ele>
        <time>2020-11-16T10:14:11Z</time>
      </trkpt>
      <trkpt lat="28.7406030" lon="-17.7881100">
        <ele>1248.8</ele>
        <time>2020-11-16T10:14:12Z</time>
      </trkpt>
      <trkpt lat="28.7405650" lon="-17.7881250">
        <ele>1249.7</ele>
        <time>2020-11-16T10:14:13Z</time>
      </trkpt>
      <trkpt lat="28.7405650" lon="-17.7881250">
        <ele>1249.7</ele>
        <time>2020-11-16T10:14:14Z</time>
      </trkpt>
      <trkpt lat="28.7405350" lon="-17.7881500">
        <ele>1249.7</ele>
        <time>2020-11-16T10:14:15Z</time>
      </trkpt>
      <trkpt lat="28.7405350" lon="-17.7881500">
        <ele>1249.7</ele>
        <time>2020-11-16T10:14:16Z</time>
      </trkpt>
      <trkpt lat="28.7405120" lon="-17.7881650">
        <ele>1250.9</ele>
        <time>2020-11-16T10:14:17Z</time>
      </trkpt>
      <trkpt lat="28.7405120" lon="-17.7881650">
        <ele>1250.9</ele>
        <time>2020-11-16T10:14:18Z</time>
      </trkpt>
      <trkpt lat="28.7404980" lon="-17.7881830">
        <ele>1250.9</ele>
        <time>2020-11-16T10:14:19Z</time>
      </trkpt>
      <trkpt lat="28.7404870" lon="-17.7881870">
        <ele>1251.6</ele>
        <time>2020-11-16T10:14:20Z</time>
      </trkpt>
      <trkpt lat="28.7404870" lon="-17.7881870">
        <ele>1251.6</ele>
        <time>2020-11-16T10:14:21Z</time>
      </trkpt>
      <trkpt lat="28.7404730" lon="-17.7882030">
        <ele>1252.0</ele>
        <time>2020-11-16T10:14:22Z</time>
      </trkpt>
      <trkpt lat="28.7404730" lon="-17.7882030">
        <ele>1252.0</ele>
        <time>2020-11-16T10:14:23Z</time>
      </trkpt>
      <trkpt lat="28.7404450" lon="-17.7882070">
        <ele>1252.6</ele>
        <time>2020-11-16T10:14:24Z</time>
      </trkpt>
      <trkpt lat="28.7404450" lon="-17.7882070">
        <ele>1252.6</ele>
        <time>2020-11-16T10:14:25Z</time>
      </trkpt>
      <trkpt lat="28.7404230" lon="-17.7882080">
        <ele>1252.6</ele>
        <time>2020-11-16T10:14:26Z</time>
      </trkpt>
      <trkpt lat="28.7404230" lon="-17.7882080">
        <ele>1252.6</ele>
        <time>2020-11-16T10:14:27Z</time>
      </trkpt>
      <trkpt lat="28.7403920" lon="-17.7882130">
        <ele>1253.1</ele>
        <time>2020-11-16T10:14:28Z</time>
      </trkpt>
      <trkpt lat="28.7403920" lon="-17.7882130">
        <ele>1253.1</ele>
        <time>2020-11-16T10:14:29Z</time>
      </trkpt>
      <trkpt lat="28.7403750" lon="-17.7882450">
        <ele>1254.0</ele>
        <time>2020-11-16T10:14:30Z</time>
      </trkpt>
      <trkpt lat="28.7403600" lon="-17.7882620">
        <ele>1254.0</ele>
        <time>2020-11-16T10:14:31Z</time>
      </trkpt>
      <trkpt lat="28.7403600" lon="-17.7882620">
        <ele>1254.0</ele>
        <time>2020-11-16T10:14:32Z</time>
      </trkpt>
      <trkpt lat="28.7403470" lon="-17.7882970">
        <ele>1254.4</ele>
        <time>2020-11-16T10:14:33Z</time>
      </trkpt>
      <trkpt lat="28.7403470" lon="-17.7882970">
        <ele>1254.4</ele>
        <time>2020-11-16T10:14:34Z</time>
      </trkpt>
      <trkpt lat="28.7403350" lon="-17.7883170">
        <ele>1254.9</ele>
        <time>2020-11-16T10:14:35Z</time>
      </trkpt>
      <trkpt lat="28.7403180" lon="-17.7883200">
        <ele>1254.8</ele>
        <time>2020-11-16T10:14:36Z</time>
      </trkpt>
      <trkpt lat="28.7403180" lon="-17.7883200">
        <ele>1254.8</ele>
        <time>2020-11-16T10:14:37Z</time>
      </trkpt>
      <trkpt lat="28.7402780" lon="-17.7883450">
        <ele>1255.8</ele>
        <time>2020-11-16T10:14:38Z</time>
      </trkpt>
      <trkpt lat="28.7402780" lon="-17.7883450">
        <ele>1255.7</ele>
        <time>2020-11-16T10:14:39Z</time>
      </trkpt>
      <trkpt lat="28.7402400" lon="-17.7883700">
        <ele>1256.7</ele>
        <time>2020-11-16T10:14:40Z</time>
      </trkpt>
      <trkpt lat="28.7402000" lon="-17.7883650">
        <ele>1256.5</ele>
        <time>2020-11-16T10:14:41Z</time>
      </trkpt>
      <trkpt lat="28.7402000" lon="-17.7883650">
        <ele>1256.5</ele>
        <time>2020-11-16T10:14:42Z</time>
      </trkpt>
      <trkpt lat="28.7401570" lon="-17.7883950">
        <ele>1257.3</ele>
        <time>2020-11-16T10:14:43Z</time>
      </trkpt>
      <trkpt lat="28.7401570" lon="-17.7883950">
        <ele>1257.3</ele>
        <time>2020-11-16T10:14:44Z</time>
      </trkpt>
      <trkpt lat="28.7401220" lon="-17.7884080">
        <ele>1257.5</ele>
        <time>2020-11-16T10:14:45Z</time>
      </trkpt>
      <trkpt lat="28.7400880" lon="-17.7884350">
        <ele>1258.2</ele>
        <time>2020-11-16T10:14:46Z</time>
      </trkpt>
      <trkpt lat="28.7400880" lon="-17.7884350">
        <ele>1258.1</ele>
        <time>2020-11-16T10:14:47Z</time>
      </trkpt>
      <trkpt lat="28.7400650" lon="-17.7884800">
        <ele>1258.8</ele>
        <time>2020-11-16T10:14:48Z</time>
      </trkpt>
      <trkpt lat="28.7400630" lon="-17.7884900">
        <ele>1258.8</ele>
        <time>2020-11-16T10:14:49Z</time>
      </trkpt>
      <trkpt lat="28.7400630" lon="-17.7884900">
        <ele>1258.7</ele>
        <time>2020-11-16T10:14:50Z</time>
      </trkpt>
      <trkpt lat="28.7400500" lon="-17.7885200">
        <ele>1259.3</ele>
        <time>2020-11-16T10:14:51Z</time>
      </trkpt>
      <trkpt lat="28.7400500" lon="-17.7885200">
        <ele>1259.3</ele>
        <time>2020-11-16T10:14:52Z</time>
      </trkpt>
      <trkpt lat="28.7400330" lon="-17.7885470">
        <ele>1259.8</ele>
        <time>2020-11-16T10:14:53Z</time>
      </trkpt>
      <trkpt lat="28.7400280" lon="-17.7885580">
        <ele>1259.7</ele>
        <time>2020-11-16T10:14:54Z</time>
      </trkpt>
      <trkpt lat="28.7400280" lon="-17.7885580">
        <ele>1259.7</ele>
        <time>2020-11-16T10:14:55Z</time>
      </trkpt>
      <trkpt lat="28.7400120" lon="-17.7885830">
        <ele>1260.2</ele>
        <time>2020-11-16T10:14:56Z</time>
      </trkpt>
      <trkpt lat="28.7400120" lon="-17.7885830">
        <ele>1260.2</ele>
        <time>2020-11-16T10:14:57Z</time>
      </trkpt>
      <trkpt lat="28.7399920" lon="-17.7886200">
        <ele>1260.1</ele>
        <time>2020-11-16T10:14:58Z</time>
      </trkpt>
      <trkpt lat="28.7399820" lon="-17.7886400">
        <ele>1260.5</ele>
        <time>2020-11-16T10:14:59Z</time>
      </trkpt>
      <trkpt lat="28.7399820" lon="-17.7886400">
        <ele>1260.5</ele>
        <time>2020-11-16T10:15:00Z</time>
      </trkpt>
      <trkpt lat="28.7399670" lon="-17.7886670">
        <ele>1260.3</ele>
        <time>2020-11-16T10:15:01Z</time>
      </trkpt>
      <trkpt lat="28.7399600" lon="-17.7886830">
        <ele>1260.7</ele>
        <time>2020-11-16T10:15:02Z</time>
      </trkpt>
      <trkpt lat="28.7399600" lon="-17.7886830">
        <ele>1260.7</ele>
        <time>2020-11-16T10:15:03Z</time>
      </trkpt>
      <trkpt lat="28.7399420" lon="-17.7887050">
        <ele>1260.7</ele>
        <time>2020-11-16T10:15:04Z</time>
      </trkpt>
      <trkpt lat="28.7399420" lon="-17.7887050">
        <ele>1260.7</ele>
        <time>2020-11-16T10:15:05Z</time>
      </trkpt>
      <trkpt lat="28.7399200" lon="-17.7887330">
        <ele>1261.0</ele>
        <time>2020-11-16T10:15:06Z</time>
      </trkpt>
      <trkpt lat="28.7399200" lon="-17.7887330">
        <ele>1260.9</ele>
        <time>2020-11-16T10:15:07Z</time>
      </trkpt>
      <trkpt lat="28.7399070" lon="-17.7887670">
        <ele>1261.4</ele>
        <time>2020-11-16T10:15:08Z</time>
      </trkpt>
      <trkpt lat="28.7398970" lon="-17.7887770">
        <ele>1261.4</ele>
        <time>2020-11-16T10:15:09Z</time>
      </trkpt>
      <trkpt lat="28.7398970" lon="-17.7887770">
        <ele>1261.4</ele>
        <time>2020-11-16T10:15:10Z</time>
      </trkpt>
      <trkpt lat="28.7398730" lon="-17.7887970">
        <ele>1261.7</ele>
        <time>2020-11-16T10:15:11Z</time>
      </trkpt>
      <trkpt lat="28.7398730" lon="-17.7887970">
        <ele>1261.7</ele>
        <time>2020-11-16T10:15:12Z</time>
      </trkpt>
      <trkpt lat="28.7398500" lon="-17.7888120">
        <ele>1261.5</ele>
        <time>2020-11-16T10:15:13Z</time>
      </trkpt>
      <trkpt lat="28.7398500" lon="-17.7888120">
        <ele>1261.4</ele>
        <time>2020-11-16T10:15:14Z</time>
      </trkpt>
      <trkpt lat="28.7398270" lon="-17.7888300">
        <ele>1261.4</ele>
        <time>2020-11-16T10:15:15Z</time>
      </trkpt>
      <trkpt lat="28.7398270" lon="-17.7888300">
        <ele>1261.4</ele>
        <time>2020-11-16T10:15:16Z</time>
      </trkpt>
      <trkpt lat="28.7397950" lon="-17.7888500">
        <ele>1261.7</ele>
        <time>2020-11-16T10:15:17Z</time>
      </trkpt>
      <trkpt lat="28.7397950" lon="-17.7888500">
        <ele>1261.7</ele>
        <time>2020-11-16T10:15:18Z</time>
      </trkpt>
      <trkpt lat="28.7397730" lon="-17.7888720">
        <ele>1261.3</ele>
        <time>2020-11-16T10:15:19Z</time>
      </trkpt>
      <trkpt lat="28.7397730" lon="-17.7888720">
        <ele>1261.3</ele>
        <time>2020-11-16T10:15:20Z</time>
      </trkpt>
      <trkpt lat="28.7397570" lon="-17.7888850">
        <ele>1261.9</ele>
        <time>2020-11-16T10:15:21Z</time>
      </trkpt>
      <trkpt lat="28.7397570" lon="-17.7888850">
        <ele>1261.9</ele>
        <time>2020-11-16T10:15:22Z</time>
      </trkpt>
      <trkpt lat="28.7397480" lon="-17.7889000">
        <ele>1261.9</ele>
        <time>2020-11-16T10:15:23Z</time>
      </trkpt>
      <trkpt lat="28.7397430" lon="-17.7889070">
        <ele>1261.8</ele>
        <time>2020-11-16T10:15:24Z</time>
      </trkpt>
      <trkpt lat="28.7397430" lon="-17.7889070">
        <ele>1261.8</ele>
        <time>2020-11-16T10:15:25Z</time>
      </trkpt>
      <trkpt lat="28.7397370" lon="-17.7889200">
        <ele>1261.3</ele>
        <time>2020-11-16T10:15:26Z</time>
      </trkpt>
      <trkpt lat="28.7397370" lon="-17.7889200">
        <ele>1261.3</ele>
        <time>2020-11-16T10:15:27Z</time>
      </trkpt>
      <trkpt lat="28.7397230" lon="-17.7889250">
        <ele>1261.3</ele>
        <time>2020-11-16T10:15:28Z</time>
      </trkpt>
      <trkpt lat="28.7397230" lon="-17.7889250">
        <ele>1261.3</ele>
        <time>2020-11-16T10:15:29Z</time>
      </trkpt>
      <trkpt lat="28.7397030" lon="-17.7889370">
        <ele>1261.3</ele>
        <time>2020-11-16T10:15:30Z</time>
      </trkpt>
      <trkpt lat="28.7396880" lon="-17.7889400">
        <ele>1261.3</ele>
        <time>2020-11-16T10:15:31Z</time>
      </trkpt>
      <trkpt lat="28.7396880" lon="-17.7889400">
        <ele>1261.3</ele>
        <time>2020-11-16T10:15:32Z</time>
      </trkpt>
      <trkpt lat="28.7396520" lon="-17.7889550">
        <ele>1260.6</ele>
        <time>2020-11-16T10:15:33Z</time>
      </trkpt>
      <trkpt lat="28.7396520" lon="-17.7889550">
        <ele>1260.5</ele>
        <time>2020-11-16T10:15:34Z</time>
      </trkpt>
      <trkpt lat="28.7396000" lon="-17.7889650">
        <ele>1259.8</ele>
        <time>2020-11-16T10:15:35Z</time>
      </trkpt>
      <trkpt lat="28.7396000" lon="-17.7889650">
        <ele>1259.8</ele>
        <time>2020-11-16T10:15:36Z</time>
      </trkpt>
      <trkpt lat="28.7395580" lon="-17.7889930">
        <ele>1259.5</ele>
        <time>2020-11-16T10:15:37Z</time>
      </trkpt>
      <trkpt lat="28.7395400" lon="-17.7890020">
        <ele>1258.6</ele>
        <time>2020-11-16T10:15:38Z</time>
      </trkpt>
      <trkpt lat="28.7395400" lon="-17.7890020">
        <ele>1258.6</ele>
        <time>2020-11-16T10:15:39Z</time>
      </trkpt>
      <trkpt lat="28.7395120" lon="-17.7890150">
        <ele>1258.2</ele>
        <time>2020-11-16T10:15:40Z</time>
      </trkpt>
      <trkpt lat="28.7395120" lon="-17.7890150">
        <ele>1258.2</ele>
        <time>2020-11-16T10:15:41Z</time>
      </trkpt>
      <trkpt lat="28.7394700" lon="-17.7890250">
        <ele>1257.2</ele>
        <time>2020-11-16T10:15:42Z</time>
      </trkpt>
      <trkpt lat="28.7394700" lon="-17.7890250">
        <ele>1257.2</ele>
        <time>2020-11-16T10:15:43Z</time>
      </trkpt>
      <trkpt lat="28.7394430" lon="-17.7890570">
        <ele>1257.7</ele>
        <time>2020-11-16T10:15:44Z</time>
      </trkpt>
      <trkpt lat="28.7394430" lon="-17.7890570">
        <ele>1257.7</ele>
        <time>2020-11-16T10:15:45Z</time>
      </trkpt>
      <trkpt lat="28.7394270" lon="-17.7890980">
        <ele>1257.3</ele>
        <time>2020-11-16T10:15:46Z</time>
      </trkpt>
      <trkpt lat="28.7394270" lon="-17.7890980">
        <ele>1257.3</ele>
        <time>2020-11-16T10:15:47Z</time>
      </trkpt>
      <trkpt lat="28.7394150" lon="-17.7891420">
        <ele>1257.8</ele>
        <time>2020-11-16T10:15:48Z</time>
      </trkpt>
      <trkpt lat="28.7394150" lon="-17.7891420">
        <ele>1257.8</ele>
        <time>2020-11-16T10:15:49Z</time>
      </trkpt>
      <trkpt lat="28.7394180" lon="-17.7892100">
        <ele>1258.3</ele>
        <time>2020-11-16T10:15:50Z</time>
      </trkpt>
      <trkpt lat="28.7394170" lon="-17.7892330">
        <ele>1258.8</ele>
        <time>2020-11-16T10:15:51Z</time>
      </trkpt>
      <trkpt lat="28.7394170" lon="-17.7892330">
        <ele>1258.8</ele>
        <time>2020-11-16T10:15:52Z</time>
      </trkpt>
      <trkpt lat="28.7394050" lon="-17.7892800">
        <ele>1259.3</ele>
        <time>2020-11-16T10:15:53Z</time>
      </trkpt>
      <trkpt lat="28.7394050" lon="-17.7892800">
        <ele>1259.3</ele>
        <time>2020-11-16T10:15:54Z</time>
      </trkpt>
      <trkpt lat="28.7393880" lon="-17.7893500">
        <ele>1259.1</ele>
        <time>2020-11-16T10:15:55Z</time>
      </trkpt>
      <trkpt lat="28.7393880" lon="-17.7893850">
        <ele>1259.8</ele>
        <time>2020-11-16T10:15:56Z</time>
      </trkpt>
      <trkpt lat="28.7393880" lon="-17.7893850">
        <ele>1259.7</ele>
        <time>2020-11-16T10:15:57Z</time>
      </trkpt>
      <trkpt lat="28.7393870" lon="-17.7894330">
        <ele>1260.5</ele>
        <time>2020-11-16T10:15:58Z</time>
      </trkpt>
      <trkpt lat="28.7393870" lon="-17.7894330">
        <ele>1260.4</ele>
        <time>2020-11-16T10:15:59Z</time>
      </trkpt>
      <trkpt lat="28.7393830" lon="-17.7894820">
        <ele>1261.2</ele>
        <time>2020-11-16T10:16:00Z</time>
      </trkpt>
      <trkpt lat="28.7393830" lon="-17.7894820">
        <ele>1261.2</ele>
        <time>2020-11-16T10:16:01Z</time>
      </trkpt>
      <trkpt lat="28.7393870" lon="-17.7895130">
        <ele>1261.9</ele>
        <time>2020-11-16T10:16:02Z</time>
      </trkpt>
      <trkpt lat="28.7393870" lon="-17.7895280">
        <ele>1262.5</ele>
        <time>2020-11-16T10:16:03Z</time>
      </trkpt>
      <trkpt lat="28.7393870" lon="-17.7895280">
        <ele>1262.5</ele>
        <time>2020-11-16T10:16:04Z</time>
      </trkpt>
      <trkpt lat="28.7393780" lon="-17.7895620">
        <ele>1262.5</ele>
        <time>2020-11-16T10:16:05Z</time>
      </trkpt>
      <trkpt lat="28.7393780" lon="-17.7895620">
        <ele>1262.5</ele>
        <time>2020-11-16T10:16:06Z</time>
      </trkpt>
      <trkpt lat="28.7393870" lon="-17.7895980">
        <ele>1263.1</ele>
        <time>2020-11-16T10:16:07Z</time>
      </trkpt>
      <trkpt lat="28.7393870" lon="-17.7895980">
        <ele>1263.1</ele>
        <time>2020-11-16T10:16:08Z</time>
      </trkpt>
      <trkpt lat="28.7393880" lon="-17.7896350">
        <ele>1263.6</ele>
        <time>2020-11-16T10:16:09Z</time>
      </trkpt>
      <trkpt lat="28.7393920" lon="-17.7896500">
        <ele>1263.6</ele>
        <time>2020-11-16T10:16:10Z</time>
      </trkpt>
      <trkpt lat="28.7393920" lon="-17.7896500">
        <ele>1263.6</ele>
        <time>2020-11-16T10:16:11Z</time>
      </trkpt>
      <trkpt lat="28.7393900" lon="-17.7896970">
        <ele>1264.2</ele>
        <time>2020-11-16T10:16:12Z</time>
      </trkpt>
      <trkpt lat="28.7393900" lon="-17.7896970">
        <ele>1264.2</ele>
        <time>2020-11-16T10:16:13Z</time>
      </trkpt>
      <trkpt lat="28.7393970" lon="-17.7897370">
        <ele>1264.8</ele>
        <time>2020-11-16T10:16:14Z</time>
      </trkpt>
      <trkpt lat="28.7393970" lon="-17.7897370">
        <ele>1264.8</ele>
        <time>2020-11-16T10:16:15Z</time>
      </trkpt>
      <trkpt lat="28.7393970" lon="-17.7897730">
        <ele>1265.5</ele>
        <time>2020-11-16T10:16:16Z</time>
      </trkpt>
      <trkpt lat="28.7393980" lon="-17.7897850">
        <ele>1266.3</ele>
        <time>2020-11-16T10:16:17Z</time>
      </trkpt>
      <trkpt lat="28.7393980" lon="-17.7897850">
        <ele>1266.2</ele>
        <time>2020-11-16T10:16:18Z</time>
      </trkpt>
      <trkpt lat="28.7393980" lon="-17.7898200">
        <ele>1266.2</ele>
        <time>2020-11-16T10:16:19Z</time>
      </trkpt>
      <trkpt lat="28.7393980" lon="-17.7898200">
        <ele>1266.2</ele>
        <time>2020-11-16T10:16:20Z</time>
      </trkpt>
      <trkpt lat="28.7394050" lon="-17.7898600">
        <ele>1267.5</ele>
        <time>2020-11-16T10:16:21Z</time>
      </trkpt>
      <trkpt lat="28.7394070" lon="-17.7898800">
        <ele>1268.5</ele>
        <time>2020-11-16T10:16:22Z</time>
      </trkpt>
      <trkpt lat="28.7394070" lon="-17.7898800">
        <ele>1268.4</ele>
        <time>2020-11-16T10:16:23Z</time>
      </trkpt>
      <trkpt lat="28.7394020" lon="-17.7899320">
        <ele>1269.2</ele>
        <time>2020-11-16T10:16:24Z</time>
      </trkpt>
      <trkpt lat="28.7394020" lon="-17.7899320">
        <ele>1269.1</ele>
        <time>2020-11-16T10:16:25Z</time>
      </trkpt>
      <trkpt lat="28.7394030" lon="-17.7899800">
        <ele>1270.3</ele>
        <time>2020-11-16T10:16:26Z</time>
      </trkpt>
      <trkpt lat="28.7394030" lon="-17.7899800">
        <ele>1270.2</ele>
        <time>2020-11-16T10:16:27Z</time>
      </trkpt>
      <trkpt lat="28.7393880" lon="-17.7900320">
        <ele>1271.4</ele>
        <time>2020-11-16T10:16:28Z</time>
      </trkpt>
      <trkpt lat="28.7393880" lon="-17.7900320">
        <ele>1271.3</ele>
        <time>2020-11-16T10:16:29Z</time>
      </trkpt>
      <trkpt lat="28.7393920" lon="-17.7900920">
        <ele>1273.4</ele>
        <time>2020-11-16T10:16:30Z</time>
      </trkpt>
      <trkpt lat="28.7393920" lon="-17.7900920">
        <ele>1273.4</ele>
        <time>2020-11-16T10:16:31Z</time>
      </trkpt>
      <trkpt lat="28.7393750" lon="-17.7901270">
        <ele>1274.3</ele>
        <time>2020-11-16T10:16:32Z</time>
      </trkpt>
      <trkpt lat="28.7393750" lon="-17.7901270">
        <ele>1274.3</ele>
        <time>2020-11-16T10:16:33Z</time>
      </trkpt>
      <trkpt lat="28.7393450" lon="-17.7901600">
        <ele>1273.9</ele>
        <time>2020-11-16T10:16:34Z</time>
      </trkpt>
      <trkpt lat="28.7393330" lon="-17.7901780">
        <ele>1274.7</ele>
        <time>2020-11-16T10:16:35Z</time>
      </trkpt>
      <trkpt lat="28.7393330" lon="-17.7901780">
        <ele>1274.7</ele>
        <time>2020-11-16T10:16:36Z</time>
      </trkpt>
      <trkpt lat="28.7393100" lon="-17.7902020">
        <ele>1274.2</ele>
        <time>2020-11-16T10:16:37Z</time>
      </trkpt>
      <trkpt lat="28.7393030" lon="-17.7902080">
        <ele>1274.2</ele>
        <time>2020-11-16T10:16:38Z</time>
      </trkpt>
      <trkpt lat="28.7392850" lon="-17.7902080">
        <ele>1273.6</ele>
        <time>2020-11-16T10:16:39Z</time>
      </trkpt>
      <trkpt lat="28.7392850" lon="-17.7902080">
        <ele>1273.6</ele>
        <time>2020-11-16T10:16:40Z</time>
      </trkpt>
      <trkpt lat="28.7392600" lon="-17.7902080">
        <ele>1273.5</ele>
        <time>2020-11-16T10:16:41Z</time>
      </trkpt>
      <trkpt lat="28.7392600" lon="-17.7902080">
        <ele>1273.5</ele>
        <time>2020-11-16T10:16:42Z</time>
      </trkpt>
      <trkpt lat="28.7392380" lon="-17.7902030">
        <ele>1272.8</ele>
        <time>2020-11-16T10:16:43Z</time>
      </trkpt>
      <trkpt lat="28.7392180" lon="-17.7902020">
        <ele>1272.8</ele>
        <time>2020-11-16T10:16:44Z</time>
      </trkpt>
      <trkpt lat="28.7392180" lon="-17.7902020">
        <ele>1272.8</ele>
        <time>2020-11-16T10:16:45Z</time>
      </trkpt>
      <trkpt lat="28.7391970" lon="-17.7902150">
        <ele>1272.8</ele>
        <time>2020-11-16T10:16:46Z</time>
      </trkpt>
      <trkpt lat="28.7391970" lon="-17.7902150">
        <ele>1272.8</ele>
        <time>2020-11-16T10:16:47Z</time>
      </trkpt>
      <trkpt lat="28.7391570" lon="-17.7902330">
        <ele>1271.9</ele>
        <time>2020-11-16T10:16:48Z</time>
      </trkpt>
      <trkpt lat="28.7391570" lon="-17.7902330">
        <ele>1271.9</ele>
        <time>2020-11-16T10:16:49Z</time>
      </trkpt>
      <trkpt lat="28.7391280" lon="-17.7902400">
        <ele>1270.9</ele>
        <time>2020-11-16T10:16:50Z</time>
      </trkpt>
      <trkpt lat="28.7391280" lon="-17.7902400">
        <ele>1270.9</ele>
        <time>2020-11-16T10:16:51Z</time>
      </trkpt>
      <trkpt lat="28.7390970" lon="-17.7902570">
        <ele>1270.9</ele>
        <time>2020-11-16T10:16:52Z</time>
      </trkpt>
      <trkpt lat="28.7390970" lon="-17.7902570">
        <ele>1270.9</ele>
        <time>2020-11-16T10:16:53Z</time>
      </trkpt>
      <trkpt lat="28.7390780" lon="-17.7902750">
        <ele>1270.8</ele>
        <time>2020-11-16T10:16:54Z</time>
      </trkpt>
      <trkpt lat="28.7390720" lon="-17.7902930">
        <ele>1270.8</ele>
        <time>2020-11-16T10:16:55Z</time>
      </trkpt>
      <trkpt lat="28.7390720" lon="-17.7902930">
        <ele>1270.8</ele>
        <time>2020-11-16T10:16:56Z</time>
      </trkpt>
      <trkpt lat="28.7390470" lon="-17.7903370">
        <ele>1270.8</ele>
        <time>2020-11-16T10:16:57Z</time>
      </trkpt>
      <trkpt lat="28.7390170" lon="-17.7903620">
        <ele>1270.6</ele>
        <time>2020-11-16T10:16:58Z</time>
      </trkpt>
      <trkpt lat="28.7390170" lon="-17.7903620">
        <ele>1270.6</ele>
        <time>2020-11-16T10:16:59Z</time>
      </trkpt>
      <trkpt lat="28.7390170" lon="-17.7904330">
        <ele>1272.3</ele>
        <time>2020-11-16T10:17:00Z</time>
      </trkpt>
      <trkpt lat="28.7390170" lon="-17.7904330">
        <ele>1272.3</ele>
        <time>2020-11-16T10:17:01Z</time>
      </trkpt>
      <trkpt lat="28.7390000" lon="-17.7904680">
        <ele>1272.3</ele>
        <time>2020-11-16T10:17:02Z</time>
      </trkpt>
      <trkpt lat="28.7390000" lon="-17.7904680">
        <ele>1272.3</ele>
        <time>2020-11-16T10:17:03Z</time>
      </trkpt>
      <trkpt lat="28.7389970" lon="-17.7905130">
        <ele>1273.0</ele>
        <time>2020-11-16T10:17:04Z</time>
      </trkpt>
      <trkpt lat="28.7389970" lon="-17.7905130">
        <ele>1273.0</ele>
        <time>2020-11-16T10:17:05Z</time>
      </trkpt>
      <trkpt lat="28.7389980" lon="-17.7905420">
        <ele>1273.8</ele>
        <time>2020-11-16T10:17:06Z</time>
      </trkpt>
      <trkpt lat="28.7389980" lon="-17.7905420">
        <ele>1273.7</ele>
        <time>2020-11-16T10:17:07Z</time>
      </trkpt>
      <trkpt lat="28.7389970" lon="-17.7905620">
        <ele>1274.4</ele>
        <time>2020-11-16T10:17:08Z</time>
      </trkpt>
      <trkpt lat="28.7389970" lon="-17.7905620">
        <ele>1274.4</ele>
        <time>2020-11-16T10:17:09Z</time>
      </trkpt>
      <trkpt lat="28.7389800" lon="-17.7905950">
        <ele>1273.3</ele>
        <time>2020-11-16T10:17:10Z</time>
      </trkpt>
      <trkpt lat="28.7389800" lon="-17.7905950">
        <ele>1273.3</ele>
        <time>2020-11-16T10:17:11Z</time>
      </trkpt>
      <trkpt lat="28.7389700" lon="-17.7906420">
        <ele>1274.8</ele>
        <time>2020-11-16T10:17:12Z</time>
      </trkpt>
      <trkpt lat="28.7389700" lon="-17.7906420">
        <ele>1274.7</ele>
        <time>2020-11-16T10:17:13Z</time>
      </trkpt>
      <trkpt lat="28.7389700" lon="-17.7906800">
        <ele>1274.7</ele>
        <time>2020-11-16T10:17:14Z</time>
      </trkpt>
      <trkpt lat="28.7389700" lon="-17.7906800">
        <ele>1274.7</ele>
        <time>2020-11-16T10:17:15Z</time>
      </trkpt>
      <trkpt lat="28.7389730" lon="-17.7907200">
        <ele>1275.4</ele>
        <time>2020-11-16T10:17:16Z</time>
      </trkpt>
      <trkpt lat="28.7389730" lon="-17.7907200">
        <ele>1275.4</ele>
        <time>2020-11-16T10:17:17Z</time>
      </trkpt>
      <trkpt lat="28.7389750" lon="-17.7907570">
        <ele>1276.2</ele>
        <time>2020-11-16T10:17:18Z</time>
      </trkpt>
      <trkpt lat="28.7389770" lon="-17.7907730">
        <ele>1277.1</ele>
        <time>2020-11-16T10:17:19Z</time>
      </trkpt>
      <trkpt lat="28.7389770" lon="-17.7907730">
        <ele>1277.0</ele>
        <time>2020-11-16T10:17:20Z</time>
      </trkpt>
      <trkpt lat="28.7389830" lon="-17.7908070">
        <ele>1277.0</ele>
        <time>2020-11-16T10:17:21Z</time>
      </trkpt>
      <trkpt lat="28.7389830" lon="-17.7908070">
        <ele>1277.0</ele>
        <time>2020-11-16T10:17:22Z</time>
      </trkpt>
      <trkpt lat="28.7389870" lon="-17.7908400">
        <ele>1277.8</ele>
        <time>2020-11-16T10:17:23Z</time>
      </trkpt>
      <trkpt lat="28.7389870" lon="-17.7908400">
        <ele>1277.8</ele>
        <time>2020-11-16T10:17:24Z</time>
      </trkpt>
      <trkpt lat="28.7389800" lon="-17.7908720">
        <ele>1278.6</ele>
        <time>2020-11-16T10:17:25Z</time>
      </trkpt>
      <trkpt lat="28.7389770" lon="-17.7908920">
        <ele>1278.6</ele>
        <time>2020-11-16T10:17:26Z</time>
      </trkpt>
      <trkpt lat="28.7389770" lon="-17.7908920">
        <ele>1278.6</ele>
        <time>2020-11-16T10:17:27Z</time>
      </trkpt>
      <trkpt lat="28.7389920" lon="-17.7909520">
        <ele>1281.2</ele>
        <time>2020-11-16T10:17:28Z</time>
      </trkpt>
      <trkpt lat="28.7389920" lon="-17.7909520">
        <ele>1281.1</ele>
        <time>2020-11-16T10:17:29Z</time>
      </trkpt>
      <trkpt lat="28.7390300" lon="-17.7910270">
        <ele>1282.8</ele>
        <time>2020-11-16T10:17:30Z</time>
      </trkpt>
      <trkpt lat="28.7390300" lon="-17.7910270">
        <ele>1282.7</ele>
        <time>2020-11-16T10:17:31Z</time>
      </trkpt>
      <trkpt lat="28.7390270" lon="-17.7910820">
        <ele>1283.3</ele>
        <time>2020-11-16T10:17:32Z</time>
      </trkpt>
      <trkpt lat="28.7390270" lon="-17.7910820">
        <ele>1283.3</ele>
        <time>2020-11-16T10:17:33Z</time>
      </trkpt>
      <trkpt lat="28.7390280" lon="-17.7911150">
        <ele>1285.0</ele>
        <time>2020-11-16T10:17:34Z</time>
      </trkpt>
      <trkpt lat="28.7390270" lon="-17.7911330">
        <ele>1284.1</ele>
        <time>2020-11-16T10:17:35Z</time>
      </trkpt>
      <trkpt lat="28.7390270" lon="-17.7911330">
        <ele>1284.1</ele>
        <time>2020-11-16T10:17:36Z</time>
      </trkpt>
      <trkpt lat="28.7390220" lon="-17.7911720">
        <ele>1284.9</ele>
        <time>2020-11-16T10:17:37Z</time>
      </trkpt>
      <trkpt lat="28.7390220" lon="-17.7911720">
        <ele>1284.9</ele>
        <time>2020-11-16T10:17:38Z</time>
      </trkpt>
      <trkpt lat="28.7390150" lon="-17.7912070">
        <ele>1285.7</ele>
        <time>2020-11-16T10:17:39Z</time>
      </trkpt>
      <trkpt lat="28.7390150" lon="-17.7912070">
        <ele>1285.6</ele>
        <time>2020-11-16T10:17:40Z</time>
      </trkpt>
      <trkpt lat="28.7389930" lon="-17.7912370">
        <ele>1285.6</ele>
        <time>2020-11-16T10:17:41Z</time>
      </trkpt>
      <trkpt lat="28.7389930" lon="-17.7912370">
        <ele>1285.6</ele>
        <time>2020-11-16T10:17:42Z</time>
      </trkpt>
      <trkpt lat="28.7389700" lon="-17.7912700">
        <ele>1285.4</ele>
        <time>2020-11-16T10:17:43Z</time>
      </trkpt>
      <trkpt lat="28.7389700" lon="-17.7912700">
        <ele>1285.4</ele>
        <time>2020-11-16T10:17:44Z</time>
      </trkpt>
      <trkpt lat="28.7389520" lon="-17.7912930">
        <ele>1285.0</ele>
        <time>2020-11-16T10:17:45Z</time>
      </trkpt>
      <trkpt lat="28.7389520" lon="-17.7912930">
        <ele>1285.0</ele>
        <time>2020-11-16T10:17:46Z</time>
      </trkpt>
      <trkpt lat="28.7389280" lon="-17.7913050">
        <ele>1285.0</ele>
        <time>2020-11-16T10:17:47Z</time>
      </trkpt>
      <trkpt lat="28.7389170" lon="-17.7913180">
        <ele>1285.0</ele>
        <time>2020-11-16T10:17:48Z</time>
      </trkpt>
      <trkpt lat="28.7389170" lon="-17.7913180">
        <ele>1284.9</ele>
        <time>2020-11-16T10:17:49Z</time>
      </trkpt>
      <trkpt lat="28.7388820" lon="-17.7913170">
        <ele>1283.7</ele>
        <time>2020-11-16T10:17:50Z</time>
      </trkpt>
      <trkpt lat="28.7388820" lon="-17.7913170">
        <ele>1283.7</ele>
        <time>2020-11-16T10:17:51Z</time>
      </trkpt>
      <trkpt lat="28.7388500" lon="-17.7913200">
        <ele>1282.4</ele>
        <time>2020-11-16T10:17:52Z</time>
      </trkpt>
      <trkpt lat="28.7388500" lon="-17.7913200">
        <ele>1282.4</ele>
        <time>2020-11-16T10:17:53Z</time>
      </trkpt>
      <trkpt lat="28.7388180" lon="-17.7913420">
        <ele>1282.1</ele>
        <time>2020-11-16T10:17:54Z</time>
      </trkpt>
      <trkpt lat="28.7388180" lon="-17.7913420">
        <ele>1282.1</ele>
        <time>2020-11-16T10:17:55Z</time>
      </trkpt>
      <trkpt lat="28.7387720" lon="-17.7913670">
        <ele>1280.9</ele>
        <time>2020-11-16T10:17:56Z</time>
      </trkpt>
      <trkpt lat="28.7387720" lon="-17.7913670">
        <ele>1280.9</ele>
        <time>2020-11-16T10:17:57Z</time>
      </trkpt>
      <trkpt lat="28.7387270" lon="-17.7913980">
        <ele>1280.0</ele>
        <time>2020-11-16T10:17:58Z</time>
      </trkpt>
      <trkpt lat="28.7387270" lon="-17.7913980">
        <ele>1280.0</ele>
        <time>2020-11-16T10:17:59Z</time>
      </trkpt>
      <trkpt lat="28.7386800" lon="-17.7914280">
        <ele>1278.5</ele>
        <time>2020-11-16T10:18:00Z</time>
      </trkpt>
      <trkpt lat="28.7386650" lon="-17.7914520">
        <ele>1278.5</ele>
        <time>2020-11-16T10:18:01Z</time>
      </trkpt>
      <trkpt lat="28.7386650" lon="-17.7914520">
        <ele>1278.4</ele>
        <time>2020-11-16T10:18:02Z</time>
      </trkpt>
      <trkpt lat="28.7386570" lon="-17.7914970">
        <ele>1279.5</ele>
        <time>2020-11-16T10:18:03Z</time>
      </trkpt>
      <trkpt lat="28.7386550" lon="-17.7915170">
        <ele>1280.6</ele>
        <time>2020-11-16T10:18:04Z</time>
      </trkpt>
      <trkpt lat="28.7386550" lon="-17.7915170">
        <ele>1280.6</ele>
        <time>2020-11-16T10:18:05Z</time>
      </trkpt>
      <trkpt lat="28.7386470" lon="-17.7915600">
        <ele>1280.3</ele>
        <time>2020-11-16T10:18:06Z</time>
      </trkpt>
      <trkpt lat="28.7386470" lon="-17.7915600">
        <ele>1280.2</ele>
        <time>2020-11-16T10:18:07Z</time>
      </trkpt>
      <trkpt lat="28.7386400" lon="-17.7915980">
        <ele>1281.3</ele>
        <time>2020-11-16T10:18:08Z</time>
      </trkpt>
      <trkpt lat="28.7386400" lon="-17.7915980">
        <ele>1281.3</ele>
        <time>2020-11-16T10:18:09Z</time>
      </trkpt>
      <trkpt lat="28.7386350" lon="-17.7916330">
        <ele>1282.5</ele>
        <time>2020-11-16T10:18:10Z</time>
      </trkpt>
      <trkpt lat="28.7386320" lon="-17.7916450">
        <ele>1282.4</ele>
        <time>2020-11-16T10:18:11Z</time>
      </trkpt>
      <trkpt lat="28.7386320" lon="-17.7916450">
        <ele>1282.4</ele>
        <time>2020-11-16T10:18:12Z</time>
      </trkpt>
      <trkpt lat="28.7386230" lon="-17.7916700">
        <ele>1282.4</ele>
        <time>2020-11-16T10:18:13Z</time>
      </trkpt>
      <trkpt lat="28.7386220" lon="-17.7916920">
        <ele>1283.5</ele>
        <time>2020-11-16T10:18:14Z</time>
      </trkpt>
      <trkpt lat="28.7386180" lon="-17.7917100">
        <ele>1283.5</ele>
        <time>2020-11-16T10:18:15Z</time>
      </trkpt>
      <trkpt lat="28.7386180" lon="-17.7917100">
        <ele>1283.5</ele>
        <time>2020-11-16T10:18:16Z</time>
      </trkpt>
      <trkpt lat="28.7386130" lon="-17.7917420">
        <ele>1283.1</ele>
        <time>2020-11-16T10:18:17Z</time>
      </trkpt>
      <trkpt lat="28.7386130" lon="-17.7917420">
        <ele>1283.0</ele>
        <time>2020-11-16T10:18:18Z</time>
      </trkpt>
      <trkpt lat="28.7386200" lon="-17.7917880">
        <ele>1285.6</ele>
        <time>2020-11-16T10:18:19Z</time>
      </trkpt>
      <trkpt lat="28.7386230" lon="-17.7918120">
        <ele>1286.6</ele>
        <time>2020-11-16T10:18:20Z</time>
      </trkpt>
      <trkpt lat="28.7386230" lon="-17.7918120">
        <ele>1286.5</ele>
        <time>2020-11-16T10:18:21Z</time>
      </trkpt>
      <trkpt lat="28.7386320" lon="-17.7918600">
        <ele>1287.5</ele>
        <time>2020-11-16T10:18:22Z</time>
      </trkpt>
      <trkpt lat="28.7386320" lon="-17.7918600">
        <ele>1287.5</ele>
        <time>2020-11-16T10:18:23Z</time>
      </trkpt>
      <trkpt lat="28.7386330" lon="-17.7919030">
        <ele>1288.4</ele>
        <time>2020-11-16T10:18:24Z</time>
      </trkpt>
      <trkpt lat="28.7386330" lon="-17.7919030">
        <ele>1288.4</ele>
        <time>2020-11-16T10:18:25Z</time>
      </trkpt>
      <trkpt lat="28.7386280" lon="-17.7919400">
        <ele>1289.4</ele>
        <time>2020-11-16T10:18:26Z</time>
      </trkpt>
      <trkpt lat="28.7386180" lon="-17.7919650">
        <ele>1289.4</ele>
        <time>2020-11-16T10:18:27Z</time>
      </trkpt>
      <trkpt lat="28.7386180" lon="-17.7919650">
        <ele>1289.3</ele>
        <time>2020-11-16T10:18:28Z</time>
      </trkpt>
      <trkpt lat="28.7386080" lon="-17.7920150">
        <ele>1288.9</ele>
        <time>2020-11-16T10:18:29Z</time>
      </trkpt>
      <trkpt lat="28.7386080" lon="-17.7920150">
        <ele>1288.9</ele>
        <time>2020-11-16T10:18:30Z</time>
      </trkpt>
      <trkpt lat="28.7385880" lon="-17.7920520">
        <ele>1289.9</ele>
        <time>2020-11-16T10:18:31Z</time>
      </trkpt>
      <trkpt lat="28.7385880" lon="-17.7920520">
        <ele>1289.9</ele>
        <time>2020-11-16T10:18:32Z</time>
      </trkpt>
      <trkpt lat="28.7385850" lon="-17.7920900">
        <ele>1290.9</ele>
        <time>2020-11-16T10:18:33Z</time>
      </trkpt>
      <trkpt lat="28.7385850" lon="-17.7920900">
        <ele>1290.9</ele>
        <time>2020-11-16T10:18:34Z</time>
      </trkpt>
      <trkpt lat="28.7385850" lon="-17.7921380">
        <ele>1292.0</ele>
        <time>2020-11-16T10:18:35Z</time>
      </trkpt>
      <trkpt lat="28.7385930" lon="-17.7921750">
        <ele>1293.1</ele>
        <time>2020-11-16T10:18:36Z</time>
      </trkpt>
      <trkpt lat="28.7385930" lon="-17.7921750">
        <ele>1293.1</ele>
        <time>2020-11-16T10:18:37Z</time>
      </trkpt>
      <trkpt lat="28.7385980" lon="-17.7922130">
        <ele>1294.2</ele>
        <time>2020-11-16T10:18:38Z</time>
      </trkpt>
      <trkpt lat="28.7385980" lon="-17.7922130">
        <ele>1294.2</ele>
        <time>2020-11-16T10:18:39Z</time>
      </trkpt>
      <trkpt lat="28.7385900" lon="-17.7922470">
        <ele>1295.2</ele>
        <time>2020-11-16T10:18:40Z</time>
      </trkpt>
      <trkpt lat="28.7385780" lon="-17.7922580">
        <ele>1295.2</ele>
        <time>2020-11-16T10:18:41Z</time>
      </trkpt>
      <trkpt lat="28.7385780" lon="-17.7922580">
        <ele>1295.2</ele>
        <time>2020-11-16T10:18:42Z</time>
      </trkpt>
      <trkpt lat="28.7385720" lon="-17.7923150">
        <ele>1294.9</ele>
        <time>2020-11-16T10:18:43Z</time>
      </trkpt>
      <trkpt lat="28.7385720" lon="-17.7923150">
        <ele>1294.9</ele>
        <time>2020-11-16T10:18:44Z</time>
      </trkpt>
      <trkpt lat="28.7385700" lon="-17.7923870">
        <ele>1296.8</ele>
        <time>2020-11-16T10:18:45Z</time>
      </trkpt>
      <trkpt lat="28.7385650" lon="-17.7924100">
        <ele>1297.8</ele>
        <time>2020-11-16T10:18:46Z</time>
      </trkpt>
      <trkpt lat="28.7385580" lon="-17.7924320">
        <ele>1297.8</ele>
        <time>2020-11-16T10:18:47Z</time>
      </trkpt>
      <trkpt lat="28.7385580" lon="-17.7924320">
        <ele>1297.8</ele>
        <time>2020-11-16T10:18:48Z</time>
      </trkpt>
      <trkpt lat="28.7385370" lon="-17.7924770">
        <ele>1297.6</ele>
        <time>2020-11-16T10:18:49Z</time>
      </trkpt>
      <trkpt lat="28.7385370" lon="-17.7924770">
        <ele>1297.6</ele>
        <time>2020-11-16T10:18:50Z</time>
      </trkpt>
      <trkpt lat="28.7385180" lon="-17.7925180">
        <ele>1298.7</ele>
        <time>2020-11-16T10:18:51Z</time>
      </trkpt>
      <trkpt lat="28.7385180" lon="-17.7925180">
        <ele>1298.7</ele>
        <time>2020-11-16T10:18:52Z</time>
      </trkpt>
      <trkpt lat="28.7385080" lon="-17.7925400">
        <ele>1299.7</ele>
        <time>2020-11-16T10:18:53Z</time>
      </trkpt>
      <trkpt lat="28.7385030" lon="-17.7925530">
        <ele>1299.7</ele>
        <time>2020-11-16T10:18:54Z</time>
      </trkpt>
      <trkpt lat="28.7385030" lon="-17.7925530">
        <ele>1299.7</ele>
        <time>2020-11-16T10:18:55Z</time>
      </trkpt>
      <trkpt lat="28.7385030" lon="-17.7925850">
        <ele>1300.7</ele>
        <time>2020-11-16T10:18:56Z</time>
      </trkpt>
      <trkpt lat="28.7385030" lon="-17.7925850">
        <ele>1300.7</ele>
        <time>2020-11-16T10:18:57Z</time>
      </trkpt>
      <trkpt lat="28.7384870" lon="-17.7926180">
        <ele>1300.8</ele>
        <time>2020-11-16T10:18:58Z</time>
      </trkpt>
      <trkpt lat="28.7384730" lon="-17.7926330">
        <ele>1300.8</ele>
        <time>2020-11-16T10:18:59Z</time>
      </trkpt>
      <trkpt lat="28.7384730" lon="-17.7926330">
        <ele>1300.8</ele>
        <time>2020-11-16T10:19:00Z</time>
      </trkpt>
      <trkpt lat="28.7384530" lon="-17.7926630">
        <ele>1300.8</ele>
        <time>2020-11-16T10:19:01Z</time>
      </trkpt>
      <trkpt lat="28.7384480" lon="-17.7926800">
        <ele>1300.8</ele>
        <time>2020-11-16T10:19:02Z</time>
      </trkpt>
      <trkpt lat="28.7384480" lon="-17.7926800">
        <ele>1300.8</ele>
        <time>2020-11-16T10:19:03Z</time>
      </trkpt>
      <trkpt lat="28.7383980" lon="-17.7926900">
        <ele>1299.8</ele>
        <time>2020-11-16T10:19:04Z</time>
      </trkpt>
      <trkpt lat="28.7383900" lon="-17.7927030">
        <ele>1300.8</ele>
        <time>2020-11-16T10:19:05Z</time>
      </trkpt>
      <trkpt lat="28.7383900" lon="-17.7927030">
        <ele>1300.8</ele>
        <time>2020-11-16T10:19:06Z</time>
      </trkpt>
      <trkpt lat="28.7383720" lon="-17.7927370">
        <ele>1299.8</ele>
        <time>2020-11-16T10:19:07Z</time>
      </trkpt>
      <trkpt lat="28.7383670" lon="-17.7927430">
        <ele>1299.7</ele>
        <time>2020-11-16T10:19:08Z</time>
      </trkpt>
      <trkpt lat="28.7383670" lon="-17.7927430">
        <ele>1299.7</ele>
        <time>2020-11-16T10:19:09Z</time>
      </trkpt>
      <trkpt lat="28.7383120" lon="-17.7927430">
        <ele>1297.6</ele>
        <time>2020-11-16T10:19:10Z</time>
      </trkpt>
      <trkpt lat="28.7383120" lon="-17.7927430">
        <ele>1297.6</ele>
        <time>2020-11-16T10:19:11Z</time>
      </trkpt>
      <trkpt lat="28.7382730" lon="-17.7927420">
        <ele>1296.5</ele>
        <time>2020-11-16T10:19:12Z</time>
      </trkpt>
      <trkpt lat="28.7382730" lon="-17.7927420">
        <ele>1296.5</ele>
        <time>2020-11-16T10:19:13Z</time>
      </trkpt>
      <trkpt lat="28.7382570" lon="-17.7927400">
        <ele>1296.5</ele>
        <time>2020-11-16T10:19:14Z</time>
      </trkpt>
      <trkpt lat="28.7382570" lon="-17.7927400">
        <ele>1296.5</ele>
        <time>2020-11-16T10:19:15Z</time>
      </trkpt>
      <trkpt lat="28.7382350" lon="-17.7927150">
        <ele>1295.5</ele>
        <time>2020-11-16T10:19:16Z</time>
      </trkpt>
      <trkpt lat="28.7382350" lon="-17.7927150">
        <ele>1295.5</ele>
        <time>2020-11-16T10:19:17Z</time>
      </trkpt>
      <trkpt lat="28.7382170" lon="-17.7926930">
        <ele>1294.3</ele>
        <time>2020-11-16T10:19:18Z</time>
      </trkpt>
      <trkpt lat="28.7382170" lon="-17.7926930">
        <ele>1294.3</ele>
        <time>2020-11-16T10:19:19Z</time>
      </trkpt>
      <trkpt lat="28.7382080" lon="-17.7926770">
        <ele>1294.3</ele>
        <time>2020-11-16T10:19:20Z</time>
      </trkpt>
      <trkpt lat="28.7382080" lon="-17.7926770">
        <ele>1294.3</ele>
        <time>2020-11-16T10:19:21Z</time>
      </trkpt>
      <trkpt lat="28.7381900" lon="-17.7926600">
        <ele>1293.4</ele>
        <time>2020-11-16T10:19:22Z</time>
      </trkpt>
      <trkpt lat="28.7381900" lon="-17.7926600">
        <ele>1293.3</ele>
        <time>2020-11-16T10:19:23Z</time>
      </trkpt>
      <trkpt lat="28.7381750" lon="-17.7926320">
        <ele>1292.2</ele>
        <time>2020-11-16T10:19:24Z</time>
      </trkpt>
      <trkpt lat="28.7381750" lon="-17.7926320">
        <ele>1292.1</ele>
        <time>2020-11-16T10:19:25Z</time>
      </trkpt>
      <trkpt lat="28.7381630" lon="-17.7926000">
        <ele>1290.9</ele>
        <time>2020-11-16T10:19:26Z</time>
      </trkpt>
      <trkpt lat="28.7381630" lon="-17.7926000">
        <ele>1290.9</ele>
        <time>2020-11-16T10:19:27Z</time>
      </trkpt>
      <trkpt lat="28.7381470" lon="-17.7925730">
        <ele>1290.0</ele>
        <time>2020-11-16T10:19:28Z</time>
      </trkpt>
      <trkpt lat="28.7381320" lon="-17.7925550">
        <ele>1288.7</ele>
        <time>2020-11-16T10:19:29Z</time>
      </trkpt>
      <trkpt lat="28.7381320" lon="-17.7925550">
        <ele>1288.7</ele>
        <time>2020-11-16T10:19:30Z</time>
      </trkpt>
      <trkpt lat="28.7381030" lon="-17.7925250">
        <ele>1288.9</ele>
        <time>2020-11-16T10:19:31Z</time>
      </trkpt>
      <trkpt lat="28.7381030" lon="-17.7925250">
        <ele>1288.9</ele>
        <time>2020-11-16T10:19:32Z</time>
      </trkpt>
      <trkpt lat="28.7380680" lon="-17.7924930">
        <ele>1289.2</ele>
        <time>2020-11-16T10:19:33Z</time>
      </trkpt>
      <trkpt lat="28.7380680" lon="-17.7924930">
        <ele>1289.2</ele>
        <time>2020-11-16T10:19:34Z</time>
      </trkpt>
      <trkpt lat="28.7380170" lon="-17.7924530">
        <ele>1289.5</ele>
        <time>2020-11-16T10:19:35Z</time>
      </trkpt>
      <trkpt lat="28.7380170" lon="-17.7924530">
        <ele>1289.5</ele>
        <time>2020-11-16T10:19:36Z</time>
      </trkpt>
      <trkpt lat="28.7379880" lon="-17.7924230">
        <ele>1289.7</ele>
        <time>2020-11-16T10:19:37Z</time>
      </trkpt>
      <trkpt lat="28.7379880" lon="-17.7924230">
        <ele>1289.7</ele>
        <time>2020-11-16T10:19:38Z</time>
      </trkpt>
      <trkpt lat="28.7379530" lon="-17.7924020">
        <ele>1290.0</ele>
        <time>2020-11-16T10:19:39Z</time>
      </trkpt>
      <trkpt lat="28.7379430" lon="-17.7923880">
        <ele>1290.0</ele>
        <time>2020-11-16T10:19:40Z</time>
      </trkpt>
      <trkpt lat="28.7379430" lon="-17.7923880">
        <ele>1290.0</ele>
        <time>2020-11-16T10:19:41Z</time>
      </trkpt>
      <trkpt lat="28.7379070" lon="-17.7923580">
        <ele>1290.3</ele>
        <time>2020-11-16T10:19:42Z</time>
      </trkpt>
      <trkpt lat="28.7379070" lon="-17.7923580">
        <ele>1290.3</ele>
        <time>2020-11-16T10:19:43Z</time>
      </trkpt>
      <trkpt lat="28.7378800" lon="-17.7923400">
        <ele>1290.5</ele>
        <time>2020-11-16T10:19:44Z</time>
      </trkpt>
      <trkpt lat="28.7378800" lon="-17.7923400">
        <ele>1290.5</ele>
        <time>2020-11-16T10:19:45Z</time>
      </trkpt>
      <trkpt lat="28.7378400" lon="-17.7923080">
        <ele>1290.8</ele>
        <time>2020-11-16T10:19:46Z</time>
      </trkpt>
      <trkpt lat="28.7378250" lon="-17.7922970">
        <ele>1290.9</ele>
        <time>2020-11-16T10:19:47Z</time>
      </trkpt>
      <trkpt lat="28.7378250" lon="-17.7922970">
        <ele>1290.9</ele>
        <time>2020-11-16T10:19:48Z</time>
      </trkpt>
      <trkpt lat="28.7377970" lon="-17.7922630">
        <ele>1291.1</ele>
        <time>2020-11-16T10:19:49Z</time>
      </trkpt>
      <trkpt lat="28.7377820" lon="-17.7922470">
        <ele>1291.3</ele>
        <time>2020-11-16T10:19:50Z</time>
      </trkpt>
      <trkpt lat="28.7377650" lon="-17.7922320">
        <ele>1291.4</ele>
        <time>2020-11-16T10:19:51Z</time>
      </trkpt>
      <trkpt lat="28.7377650" lon="-17.7922320">
        <ele>1291.4</ele>
        <time>2020-11-16T10:19:52Z</time>
      </trkpt>
      <trkpt lat="28.7377380" lon="-17.7922030">
        <ele>1291.7</ele>
        <time>2020-11-16T10:19:53Z</time>
      </trkpt>
      <trkpt lat="28.7377380" lon="-17.7922030">
        <ele>1291.7</ele>
        <time>2020-11-16T10:19:54Z</time>
      </trkpt>
      <trkpt lat="28.7377270" lon="-17.7921670">
        <ele>1291.9</ele>
        <time>2020-11-16T10:19:55Z</time>
      </trkpt>
      <trkpt lat="28.7377200" lon="-17.7921530">
        <ele>1292.0</ele>
        <time>2020-11-16T10:19:56Z</time>
      </trkpt>
      <trkpt lat="28.7377200" lon="-17.7921530">
        <ele>1292.0</ele>
        <time>2020-11-16T10:19:57Z</time>
      </trkpt>
      <trkpt lat="28.7376980" lon="-17.7921250">
        <ele>1292.2</ele>
        <time>2020-11-16T10:19:58Z</time>
      </trkpt>
      <trkpt lat="28.7376980" lon="-17.7921250">
        <ele>1292.1</ele>
        <time>2020-11-16T10:19:59Z</time>
      </trkpt>
      <trkpt lat="28.7376730" lon="-17.7920950">
        <ele>1292.4</ele>
        <time>2020-11-16T10:20:00Z</time>
      </trkpt>
      <trkpt lat="28.7376620" lon="-17.7920770">
        <ele>1292.5</ele>
        <time>2020-11-16T10:20:01Z</time>
      </trkpt>
      <trkpt lat="28.7376430" lon="-17.7920550">
        <ele>1292.7</ele>
        <time>2020-11-16T10:20:02Z</time>
      </trkpt>
      <trkpt lat="28.7376430" lon="-17.7920550">
        <ele>1292.7</ele>
        <time>2020-11-16T10:20:03Z</time>
      </trkpt>
      <trkpt lat="28.7376150" lon="-17.7920230">
        <ele>1292.9</ele>
        <time>2020-11-16T10:20:04Z</time>
      </trkpt>
      <trkpt lat="28.7376050" lon="-17.7920120">
        <ele>1293.0</ele>
        <time>2020-11-16T10:20:05Z</time>
      </trkpt>
      <trkpt lat="28.7376050" lon="-17.7920120">
        <ele>1293.0</ele>
        <time>2020-11-16T10:20:06Z</time>
      </trkpt>
      <trkpt lat="28.7376000" lon="-17.7919850">
        <ele>1293.2</ele>
        <time>2020-11-16T10:20:07Z</time>
      </trkpt>
      <trkpt lat="28.7376000" lon="-17.7919850">
        <ele>1293.2</ele>
        <time>2020-11-16T10:20:08Z</time>
      </trkpt>
      <trkpt lat="28.7375920" lon="-17.7919650">
        <ele>1293.3</ele>
        <time>2020-11-16T10:20:09Z</time>
      </trkpt>
      <trkpt lat="28.7375800" lon="-17.7919520">
        <ele>1293.4</ele>
        <time>2020-11-16T10:20:10Z</time>
      </trkpt>
      <trkpt lat="28.7375800" lon="-17.7919520">
        <ele>1293.4</ele>
        <time>2020-11-16T10:20:11Z</time>
      </trkpt>
      <trkpt lat="28.7375430" lon="-17.7919150">
        <ele>1293.7</ele>
        <time>2020-11-16T10:20:12Z</time>
      </trkpt>
      <trkpt lat="28.7375300" lon="-17.7918980">
        <ele>1293.8</ele>
        <time>2020-11-16T10:20:13Z</time>
      </trkpt>
      <trkpt lat="28.7375170" lon="-17.7918870">
        <ele>1293.9</ele>
        <time>2020-11-16T10:20:14Z</time>
      </trkpt>
      <trkpt lat="28.7375170" lon="-17.7918870">
        <ele>1293.9</ele>
        <time>2020-11-16T10:20:15Z</time>
      </trkpt>
      <trkpt lat="28.7374880" lon="-17.7918600">
        <ele>1294.1</ele>
        <time>2020-11-16T10:20:16Z</time>
      </trkpt>
      <trkpt lat="28.7374880" lon="-17.7918600">
        <ele>1294.1</ele>
        <time>2020-11-16T10:20:17Z</time>
      </trkpt>
      <trkpt lat="28.7374400" lon="-17.7918230">
        <ele>1294.4</ele>
        <time>2020-11-16T10:20:18Z</time>
      </trkpt>
      <trkpt lat="28.7374170" lon="-17.7918120">
        <ele>1294.5</ele>
        <time>2020-11-16T10:20:19Z</time>
      </trkpt>
      <trkpt lat="28.7373930" lon="-17.7918150">
        <ele>1294.6</ele>
        <time>2020-11-16T10:20:20Z</time>
      </trkpt>
      <trkpt lat="28.7373930" lon="-17.7918150">
        <ele>1294.6</ele>
        <time>2020-11-16T10:20:21Z</time>
      </trkpt>
      <trkpt lat="28.7373350" lon="-17.7918130">
        <ele>1294.8</ele>
        <time>2020-11-16T10:20:22Z</time>
      </trkpt>
      <trkpt lat="28.7373130" lon="-17.7918200">
        <ele>1295.0</ele>
        <time>2020-11-16T10:20:23Z</time>
      </trkpt>
      <trkpt lat="28.7373130" lon="-17.7918200">
        <ele>1294.9</ele>
        <time>2020-11-16T10:20:24Z</time>
      </trkpt>
      <trkpt lat="28.7372580" lon="-17.7918300">
        <ele>1295.1</ele>
        <time>2020-11-16T10:20:25Z</time>
      </trkpt>
      <trkpt lat="28.7372420" lon="-17.7918470">
        <ele>1295.2</ele>
        <time>2020-11-16T10:20:26Z</time>
      </trkpt>
      <trkpt lat="28.7372420" lon="-17.7918470">
        <ele>1295.2</ele>
        <time>2020-11-16T10:20:27Z</time>
      </trkpt>
      <trkpt lat="28.7372050" lon="-17.7918750">
        <ele>1295.4</ele>
        <time>2020-11-16T10:20:28Z</time>
      </trkpt>
      <trkpt lat="28.7372050" lon="-17.7918750">
        <ele>1295.4</ele>
        <time>2020-11-16T10:20:29Z</time>
      </trkpt>
      <trkpt lat="28.7371830" lon="-17.7919020">
        <ele>1295.6</ele>
        <time>2020-11-16T10:20:30Z</time>
      </trkpt>
      <trkpt lat="28.7371830" lon="-17.7919020">
        <ele>1295.6</ele>
        <time>2020-11-16T10:20:31Z</time>
      </trkpt>
      <trkpt lat="28.7371670" lon="-17.7919350">
        <ele>1295.7</ele>
        <time>2020-11-16T10:20:32Z</time>
      </trkpt>
      <trkpt lat="28.7371670" lon="-17.7919350">
        <ele>1295.7</ele>
        <time>2020-11-16T10:20:33Z</time>
      </trkpt>
      <trkpt lat="28.7371700" lon="-17.7919720">
        <ele>1295.8</ele>
        <time>2020-11-16T10:20:34Z</time>
      </trkpt>
      <trkpt lat="28.7371700" lon="-17.7919920">
        <ele>1295.9</ele>
        <time>2020-11-16T10:20:35Z</time>
      </trkpt>
      <trkpt lat="28.7371700" lon="-17.7919920">
        <ele>1295.9</ele>
        <time>2020-11-16T10:20:36Z</time>
      </trkpt>
      <trkpt lat="28.7371750" lon="-17.7920280">
        <ele>1296.1</ele>
        <time>2020-11-16T10:20:37Z</time>
      </trkpt>
      <trkpt lat="28.7371800" lon="-17.7920380">
        <ele>1296.1</ele>
        <time>2020-11-16T10:20:38Z</time>
      </trkpt>
      <trkpt lat="28.7371800" lon="-17.7920380">
        <ele>1296.1</ele>
        <time>2020-11-16T10:20:39Z</time>
      </trkpt>
      <trkpt lat="28.7371770" lon="-17.7920500">
        <ele>1296.2</ele>
        <time>2020-11-16T10:20:40Z</time>
      </trkpt>
      <trkpt lat="28.7371770" lon="-17.7920500">
        <ele>1296.2</ele>
        <time>2020-11-16T10:20:41Z</time>
      </trkpt>
      <trkpt lat="28.7371850" lon="-17.7920770">
        <ele>1296.3</ele>
        <time>2020-11-16T10:20:42Z</time>
      </trkpt>
      <trkpt lat="28.7371850" lon="-17.7920770">
        <ele>1296.3</ele>
        <time>2020-11-16T10:20:43Z</time>
      </trkpt>
      <trkpt lat="28.7372100" lon="-17.7921330">
        <ele>1296.7</ele>
        <time>2020-11-16T10:20:44Z</time>
      </trkpt>
      <trkpt lat="28.7372100" lon="-17.7921330">
        <ele>1296.7</ele>
        <time>2020-11-16T10:20:45Z</time>
      </trkpt>
      <trkpt lat="28.7372230" lon="-17.7921630">
        <ele>1296.9</ele>
        <time>2020-11-16T10:20:46Z</time>
      </trkpt>
      <trkpt lat="28.7372230" lon="-17.7921630">
        <ele>1296.9</ele>
        <time>2020-11-16T10:20:47Z</time>
      </trkpt>
      <trkpt lat="28.7372320" lon="-17.7921900">
        <ele>1297.1</ele>
        <time>2020-11-16T10:20:48Z</time>
      </trkpt>
      <trkpt lat="28.7372430" lon="-17.7922050">
        <ele>1297.2</ele>
        <time>2020-11-16T10:20:49Z</time>
      </trkpt>
      <trkpt lat="28.7372470" lon="-17.7922180">
        <ele>1297.3</ele>
        <time>2020-11-16T10:20:50Z</time>
      </trkpt>
      <trkpt lat="28.7372470" lon="-17.7922180">
        <ele>1297.3</ele>
        <time>2020-11-16T10:20:51Z</time>
      </trkpt>
      <trkpt lat="28.7372480" lon="-17.7922320">
        <ele>1297.4</ele>
        <time>2020-11-16T10:20:52Z</time>
      </trkpt>
      <trkpt lat="28.7372480" lon="-17.7922320">
        <ele>1297.4</ele>
        <time>2020-11-16T10:20:53Z</time>
      </trkpt>
      <trkpt lat="28.7372530" lon="-17.7922580">
        <ele>1297.6</ele>
        <time>2020-11-16T10:20:54Z</time>
      </trkpt>
      <trkpt lat="28.7372570" lon="-17.7922650">
        <ele>1297.7</ele>
        <time>2020-11-16T10:20:55Z</time>
      </trkpt>
      <trkpt lat="28.7372570" lon="-17.7922650">
        <ele>1297.7</ele>
        <time>2020-11-16T10:20:56Z</time>
      </trkpt>
      <trkpt lat="28.7372600" lon="-17.7922870">
        <ele>1297.8</ele>
        <time>2020-11-16T10:20:57Z</time>
      </trkpt>
      <trkpt lat="28.7372600" lon="-17.7922870">
        <ele>1297.8</ele>
        <time>2020-11-16T10:20:58Z</time>
      </trkpt>
      <trkpt lat="28.7372880" lon="-17.7923320">
        <ele>1298.2</ele>
        <time>2020-11-16T10:20:59Z</time>
      </trkpt>
      <trkpt lat="28.7372980" lon="-17.7923470">
        <ele>1298.4</ele>
        <time>2020-11-16T10:21:00Z</time>
      </trkpt>
      <trkpt lat="28.7372980" lon="-17.7923470">
        <ele>1298.4</ele>
        <time>2020-11-16T10:21:01Z</time>
      </trkpt>
      <trkpt lat="28.7373300" lon="-17.7924220">
        <ele>1298.9</ele>
        <time>2020-11-16T10:21:02Z</time>
      </trkpt>
      <trkpt lat="28.7373300" lon="-17.7924220">
        <ele>1298.9</ele>
        <time>2020-11-16T10:21:03Z</time>
      </trkpt>
      <trkpt lat="28.7373600" lon="-17.7924700">
        <ele>1299.2</ele>
        <time>2020-11-16T10:21:04Z</time>
      </trkpt>
      <trkpt lat="28.7373700" lon="-17.7924880">
        <ele>1299.3</ele>
        <time>2020-11-16T10:21:05Z</time>
      </trkpt>
      <trkpt lat="28.7373700" lon="-17.7924880">
        <ele>1299.3</ele>
        <time>2020-11-16T10:21:06Z</time>
      </trkpt>
      <trkpt lat="28.7374030" lon="-17.7925530">
        <ele>1299.7</ele>
        <time>2020-11-16T10:21:07Z</time>
      </trkpt>
      <trkpt lat="28.7374150" lon="-17.7925720">
        <ele>1299.8</ele>
        <time>2020-11-16T10:21:08Z</time>
      </trkpt>
      <trkpt lat="28.7374230" lon="-17.7925920">
        <ele>1299.9</ele>
        <time>2020-11-16T10:21:09Z</time>
      </trkpt>
      <trkpt lat="28.7374230" lon="-17.7925920">
        <ele>1299.9</ele>
        <time>2020-11-16T10:21:10Z</time>
      </trkpt>
      <trkpt lat="28.7374380" lon="-17.7926220">
        <ele>1300.1</ele>
        <time>2020-11-16T10:21:11Z</time>
      </trkpt>
      <trkpt lat="28.7374380" lon="-17.7926220">
        <ele>1300.1</ele>
        <time>2020-11-16T10:21:12Z</time>
      </trkpt>
      <trkpt lat="28.7374620" lon="-17.7926400">
        <ele>1300.3</ele>
        <time>2020-11-16T10:21:13Z</time>
      </trkpt>
      <trkpt lat="28.7374730" lon="-17.7926480">
        <ele>1300.4</ele>
        <time>2020-11-16T10:21:14Z</time>
      </trkpt>
      <trkpt lat="28.7374730" lon="-17.7926480">
        <ele>1300.4</ele>
        <time>2020-11-16T10:21:15Z</time>
      </trkpt>
      <trkpt lat="28.7374920" lon="-17.7926630">
        <ele>1300.5</ele>
        <time>2020-11-16T10:21:16Z</time>
      </trkpt>
      <trkpt lat="28.7374920" lon="-17.7926630">
        <ele>1300.5</ele>
        <time>2020-11-16T10:21:17Z</time>
      </trkpt>
      <trkpt lat="28.7375120" lon="-17.7926720">
        <ele>1300.6</ele>
        <time>2020-11-16T10:21:18Z</time>
      </trkpt>
      <trkpt lat="28.7375120" lon="-17.7926720">
        <ele>1300.6</ele>
        <time>2020-11-16T10:21:19Z</time>
      </trkpt>
      <trkpt lat="28.7375370" lon="-17.7926700">
        <ele>1300.8</ele>
        <time>2020-11-16T10:21:20Z</time>
      </trkpt>
      <trkpt lat="28.7375450" lon="-17.7926620">
        <ele>1300.8</ele>
        <time>2020-11-16T10:21:21Z</time>
      </trkpt>
      <trkpt lat="28.7375450" lon="-17.7926620">
        <ele>1300.8</ele>
        <time>2020-11-16T10:21:22Z</time>
      </trkpt>
      <trkpt lat="28.7375650" lon="-17.7926520">
        <ele>1301.0</ele>
        <time>2020-11-16T10:21:23Z</time>
      </trkpt>
      <trkpt lat="28.7375650" lon="-17.7926520">
        <ele>1301.0</ele>
        <time>2020-11-16T10:21:24Z</time>
      </trkpt>
      <trkpt lat="28.7375950" lon="-17.7926620">
        <ele>1301.2</ele>
        <time>2020-11-16T10:21:25Z</time>
      </trkpt>
      <trkpt lat="28.7375950" lon="-17.7926620">
        <ele>1301.2</ele>
        <time>2020-11-16T10:21:26Z</time>
      </trkpt>
      <trkpt lat="28.7376280" lon="-17.7926620">
        <ele>1301.4</ele>
        <time>2020-11-16T10:21:27Z</time>
      </trkpt>
      <trkpt lat="28.7376280" lon="-17.7926620">
        <ele>1301.4</ele>
        <time>2020-11-16T10:21:28Z</time>
      </trkpt>
      <trkpt lat="28.7376630" lon="-17.7926670">
        <ele>1301.6</ele>
        <time>2020-11-16T10:21:29Z</time>
      </trkpt>
      <trkpt lat="28.7376630" lon="-17.7926670">
        <ele>1301.6</ele>
        <time>2020-11-16T10:21:30Z</time>
      </trkpt>
      <trkpt lat="28.7376950" lon="-17.7926800">
        <ele>1301.8</ele>
        <time>2020-11-16T10:21:31Z</time>
      </trkpt>
      <trkpt lat="28.7377100" lon="-17.7926830">
        <ele>1301.9</ele>
        <time>2020-11-16T10:21:32Z</time>
      </trkpt>
      <trkpt lat="28.7377100" lon="-17.7926830">
        <ele>1301.9</ele>
        <time>2020-11-16T10:21:33Z</time>
      </trkpt>
      <trkpt lat="28.7377680" lon="-17.7927220">
        <ele>1302.3</ele>
        <time>2020-11-16T10:21:34Z</time>
      </trkpt>
      <trkpt lat="28.7377680" lon="-17.7927220">
        <ele>1302.3</ele>
        <time>2020-11-16T10:21:35Z</time>
      </trkpt>
      <trkpt lat="28.7378080" lon="-17.7927530">
        <ele>1302.5</ele>
        <time>2020-11-16T10:21:36Z</time>
      </trkpt>
      <trkpt lat="28.7378080" lon="-17.7927530">
        <ele>1302.5</ele>
        <time>2020-11-16T10:21:37Z</time>
      </trkpt>
      <trkpt lat="28.7378350" lon="-17.7927850">
        <ele>1302.7</ele>
        <time>2020-11-16T10:21:38Z</time>
      </trkpt>
      <trkpt lat="28.7378400" lon="-17.7927920">
        <ele>1302.8</ele>
        <time>2020-11-16T10:21:39Z</time>
      </trkpt>
      <trkpt lat="28.7378400" lon="-17.7927920">
        <ele>1302.8</ele>
        <time>2020-11-16T10:21:40Z</time>
      </trkpt>
      <trkpt lat="28.7378570" lon="-17.7928130">
        <ele>1302.9</ele>
        <time>2020-11-16T10:21:41Z</time>
      </trkpt>
      <trkpt lat="28.7378570" lon="-17.7928130">
        <ele>1302.9</ele>
        <time>2020-11-16T10:21:42Z</time>
      </trkpt>
      <trkpt lat="28.7378700" lon="-17.7928430">
        <ele>1303.1</ele>
        <time>2020-11-16T10:21:43Z</time>
      </trkpt>
      <trkpt lat="28.7378780" lon="-17.7928530">
        <ele>1303.1</ele>
        <time>2020-11-16T10:21:44Z</time>
      </trkpt>
      <trkpt lat="28.7378870" lon="-17.7928650">
        <ele>1303.2</ele>
        <time>2020-11-16T10:21:45Z</time>
      </trkpt>
      <trkpt lat="28.7378870" lon="-17.7928650">
        <ele>1303.2</ele>
        <time>2020-11-16T10:21:46Z</time>
      </trkpt>
      <trkpt lat="28.7378980" lon="-17.7928770">
        <ele>1303.3</ele>
        <time>2020-11-16T10:21:47Z</time>
      </trkpt>
      <trkpt lat="28.7378980" lon="-17.7928770">
        <ele>1303.3</ele>
        <time>2020-11-16T10:21:48Z</time>
      </trkpt>
      <trkpt lat="28.7379200" lon="-17.7928930">
        <ele>1303.4</ele>
        <time>2020-11-16T10:21:49Z</time>
      </trkpt>
      <trkpt lat="28.7379250" lon="-17.7929000">
        <ele>1303.4</ele>
        <time>2020-11-16T10:21:50Z</time>
      </trkpt>
      <trkpt lat="28.7379250" lon="-17.7929000">
        <ele>1303.4</ele>
        <time>2020-11-16T10:21:51Z</time>
      </trkpt>
      <trkpt lat="28.7379450" lon="-17.7929220">
        <ele>1303.5</ele>
        <time>2020-11-16T10:21:52Z</time>
      </trkpt>
      <trkpt lat="28.7379450" lon="-17.7929220">
        <ele>1303.5</ele>
        <time>2020-11-16T10:21:53Z</time>
      </trkpt>
      <trkpt lat="28.7379950" lon="-17.7929750">
        <ele>1303.8</ele>
        <time>2020-11-16T10:21:54Z</time>
      </trkpt>
      <trkpt lat="28.7379950" lon="-17.7929750">
        <ele>1303.8</ele>
        <time>2020-11-16T10:21:55Z</time>
      </trkpt>
      <trkpt lat="28.7380470" lon="-17.7930200">
        <ele>1304.1</ele>
        <time>2020-11-16T10:21:56Z</time>
      </trkpt>
      <trkpt lat="28.7380470" lon="-17.7930200">
        <ele>1304.1</ele>
        <time>2020-11-16T10:21:57Z</time>
      </trkpt>
      <trkpt lat="28.7380730" lon="-17.7930570">
        <ele>1304.3</ele>
        <time>2020-11-16T10:21:58Z</time>
      </trkpt>
      <trkpt lat="28.7380900" lon="-17.7930730">
        <ele>1304.3</ele>
        <time>2020-11-16T10:21:59Z</time>
      </trkpt>
      <trkpt lat="28.7380900" lon="-17.7930730">
        <ele>1304.3</ele>
        <time>2020-11-16T10:22:00Z</time>
      </trkpt>
      <trkpt lat="28.7381250" lon="-17.7931070">
        <ele>1304.5</ele>
        <time>2020-11-16T10:22:01Z</time>
      </trkpt>
      <trkpt lat="28.7381380" lon="-17.7931230">
        <ele>1304.6</ele>
        <time>2020-11-16T10:22:02Z</time>
      </trkpt>
      <trkpt lat="28.7381380" lon="-17.7931230">
        <ele>1304.6</ele>
        <time>2020-11-16T10:22:03Z</time>
      </trkpt>
      <trkpt lat="28.7381650" lon="-17.7931520">
        <ele>1304.7</ele>
        <time>2020-11-16T10:22:04Z</time>
      </trkpt>
      <trkpt lat="28.7381650" lon="-17.7931520">
        <ele>1304.7</ele>
        <time>2020-11-16T10:22:05Z</time>
      </trkpt>
      <trkpt lat="28.7381920" lon="-17.7931780">
        <ele>1304.8</ele>
        <time>2020-11-16T10:22:06Z</time>
      </trkpt>
      <trkpt lat="28.7381920" lon="-17.7931780">
        <ele>1304.8</ele>
        <time>2020-11-16T10:22:07Z</time>
      </trkpt>
      <trkpt lat="28.7382250" lon="-17.7932000">
        <ele>1304.9</ele>
        <time>2020-11-16T10:22:08Z</time>
      </trkpt>
      <trkpt lat="28.7382400" lon="-17.7932130">
        <ele>1304.9</ele>
        <time>2020-11-16T10:22:09Z</time>
      </trkpt>
      <trkpt lat="28.7382400" lon="-17.7932130">
        <ele>1304.9</ele>
        <time>2020-11-16T10:22:10Z</time>
      </trkpt>
      <trkpt lat="28.7382780" lon="-17.7932280">
        <ele>1305.1</ele>
        <time>2020-11-16T10:22:11Z</time>
      </trkpt>
      <trkpt lat="28.7382780" lon="-17.7932280">
        <ele>1305.1</ele>
        <time>2020-11-16T10:22:12Z</time>
      </trkpt>
      <trkpt lat="28.7383000" lon="-17.7932470">
        <ele>1305.1</ele>
        <time>2020-11-16T10:22:13Z</time>
      </trkpt>
      <trkpt lat="28.7383080" lon="-17.7932570">
        <ele>1305.2</ele>
        <time>2020-11-16T10:22:14Z</time>
      </trkpt>
      <trkpt lat="28.7383080" lon="-17.7932570">
        <ele>1305.2</ele>
        <time>2020-11-16T10:22:15Z</time>
      </trkpt>
      <trkpt lat="28.7383300" lon="-17.7932850">
        <ele>1305.3</ele>
        <time>2020-11-16T10:22:16Z</time>
      </trkpt>
      <trkpt lat="28.7383480" lon="-17.7932970">
        <ele>1305.3</ele>
        <time>2020-11-16T10:22:17Z</time>
      </trkpt>
      <trkpt lat="28.7383480" lon="-17.7932970">
        <ele>1305.3</ele>
        <time>2020-11-16T10:22:18Z</time>
      </trkpt>
      <trkpt lat="28.7383880" lon="-17.7933130">
        <ele>1305.5</ele>
        <time>2020-11-16T10:22:19Z</time>
      </trkpt>
      <trkpt lat="28.7384100" lon="-17.7933230">
        <ele>1305.6</ele>
        <time>2020-11-16T10:22:20Z</time>
      </trkpt>
      <trkpt lat="28.7384300" lon="-17.7933400">
        <ele>1305.7</ele>
        <time>2020-11-16T10:22:21Z</time>
      </trkpt>
      <trkpt lat="28.7384300" lon="-17.7933400">
        <ele>1305.7</ele>
        <time>2020-11-16T10:22:22Z</time>
      </trkpt>
      <trkpt lat="28.7384650" lon="-17.7933580">
        <ele>1305.8</ele>
        <time>2020-11-16T10:22:23Z</time>
      </trkpt>
      <trkpt lat="28.7384850" lon="-17.7933630">
        <ele>1305.9</ele>
        <time>2020-11-16T10:22:24Z</time>
      </trkpt>
      <trkpt lat="28.7384850" lon="-17.7933630">
        <ele>1305.9</ele>
        <time>2020-11-16T10:22:25Z</time>
      </trkpt>
      <trkpt lat="28.7385280" lon="-17.7933550">
        <ele>1306.1</ele>
        <time>2020-11-16T10:22:26Z</time>
      </trkpt>
      <trkpt lat="28.7385480" lon="-17.7933470">
        <ele>1306.2</ele>
        <time>2020-11-16T10:22:27Z</time>
      </trkpt>
      <trkpt lat="28.7385480" lon="-17.7933470">
        <ele>1306.2</ele>
        <time>2020-11-16T10:22:28Z</time>
      </trkpt>
      <trkpt lat="28.7385830" lon="-17.7933220">
        <ele>1306.4</ele>
        <time>2020-11-16T10:22:29Z</time>
      </trkpt>
      <trkpt lat="28.7385830" lon="-17.7933220">
        <ele>1306.4</ele>
        <time>2020-11-16T10:22:30Z</time>
      </trkpt>
      <trkpt lat="28.7386150" lon="-17.7932900">
        <ele>1306.6</ele>
        <time>2020-11-16T10:22:31Z</time>
      </trkpt>
      <trkpt lat="28.7386150" lon="-17.7932900">
        <ele>1306.6</ele>
        <time>2020-11-16T10:22:32Z</time>
      </trkpt>
      <trkpt lat="28.7386320" lon="-17.7932620">
        <ele>1306.7</ele>
        <time>2020-11-16T10:22:33Z</time>
      </trkpt>
      <trkpt lat="28.7386320" lon="-17.7932620">
        <ele>1306.7</ele>
        <time>2020-11-16T10:22:34Z</time>
      </trkpt>
      <trkpt lat="28.7386530" lon="-17.7932420">
        <ele>1306.8</ele>
        <time>2020-11-16T10:22:35Z</time>
      </trkpt>
      <trkpt lat="28.7386730" lon="-17.7932370">
        <ele>1307.0</ele>
        <time>2020-11-16T10:22:36Z</time>
      </trkpt>
      <trkpt lat="28.7386730" lon="-17.7932370">
        <ele>1307.0</ele>
        <time>2020-11-16T10:22:37Z</time>
      </trkpt>
      <trkpt lat="28.7387020" lon="-17.7932100">
        <ele>1307.1</ele>
        <time>2020-11-16T10:22:38Z</time>
      </trkpt>
      <trkpt lat="28.7387020" lon="-17.7932100">
        <ele>1307.1</ele>
        <time>2020-11-16T10:22:39Z</time>
      </trkpt>
      <trkpt lat="28.7387270" lon="-17.7931920">
        <ele>1307.3</ele>
        <time>2020-11-16T10:22:40Z</time>
      </trkpt>
      <trkpt lat="28.7387370" lon="-17.7931820">
        <ele>1307.4</ele>
        <time>2020-11-16T10:22:41Z</time>
      </trkpt>
      <trkpt lat="28.7387370" lon="-17.7931820">
        <ele>1307.4</ele>
        <time>2020-11-16T10:22:42Z</time>
      </trkpt>
      <trkpt lat="28.7387630" lon="-17.7931520">
        <ele>1307.5</ele>
        <time>2020-11-16T10:22:43Z</time>
      </trkpt>
      <trkpt lat="28.7387630" lon="-17.7931520">
        <ele>1307.5</ele>
        <time>2020-11-16T10:22:44Z</time>
      </trkpt>
      <trkpt lat="28.7387800" lon="-17.7931220">
        <ele>1307.7</ele>
        <time>2020-11-16T10:22:45Z</time>
      </trkpt>
      <trkpt lat="28.7387800" lon="-17.7931220">
        <ele>1307.7</ele>
        <time>2020-11-16T10:22:46Z</time>
      </trkpt>
      <trkpt lat="28.7387880" lon="-17.7930900">
        <ele>1307.9</ele>
        <time>2020-11-16T10:22:47Z</time>
      </trkpt>
      <trkpt lat="28.7387900" lon="-17.7930770">
        <ele>1307.9</ele>
        <time>2020-11-16T10:22:48Z</time>
      </trkpt>
      <trkpt lat="28.7387900" lon="-17.7930770">
        <ele>1307.9</ele>
        <time>2020-11-16T10:22:49Z</time>
      </trkpt>
      <trkpt lat="28.7388000" lon="-17.7930600">
        <ele>1308.0</ele>
        <time>2020-11-16T10:22:50Z</time>
      </trkpt>
      <trkpt lat="28.7388000" lon="-17.7930600">
        <ele>1308.0</ele>
        <time>2020-11-16T10:22:51Z</time>
      </trkpt>
      <trkpt lat="28.7388070" lon="-17.7930330">
        <ele>1308.1</ele>
        <time>2020-11-16T10:22:52Z</time>
      </trkpt>
      <trkpt lat="28.7388070" lon="-17.7930330">
        <ele>1308.1</ele>
        <time>2020-11-16T10:22:53Z</time>
      </trkpt>
      <trkpt lat="28.7388280" lon="-17.7929970">
        <ele>1308.3</ele>
        <time>2020-11-16T10:22:54Z</time>
      </trkpt>
      <trkpt lat="28.7388280" lon="-17.7929970">
        <ele>1308.3</ele>
        <time>2020-11-16T10:22:55Z</time>
      </trkpt>
      <trkpt lat="28.7388400" lon="-17.7929620">
        <ele>1308.5</ele>
        <time>2020-11-16T10:22:56Z</time>
      </trkpt>
      <trkpt lat="28.7388400" lon="-17.7929620">
        <ele>1308.5</ele>
        <time>2020-11-16T10:22:57Z</time>
      </trkpt>
      <trkpt lat="28.7388500" lon="-17.7929330">
        <ele>1308.6</ele>
        <time>2020-11-16T10:22:58Z</time>
      </trkpt>
      <trkpt lat="28.7388550" lon="-17.7929230">
        <ele>1308.7</ele>
        <time>2020-11-16T10:22:59Z</time>
      </trkpt>
      <trkpt lat="28.7388550" lon="-17.7929230">
        <ele>1308.7</ele>
        <time>2020-11-16T10:23:00Z</time>
      </trkpt>
      <trkpt lat="28.7388750" lon="-17.7928950">
        <ele>1308.9</ele>
        <time>2020-11-16T10:23:01Z</time>
      </trkpt>
      <trkpt lat="28.7388820" lon="-17.7928850">
        <ele>1308.9</ele>
        <time>2020-11-16T10:23:02Z</time>
      </trkpt>
      <trkpt lat="28.7388880" lon="-17.7928770">
        <ele>1309.0</ele>
        <time>2020-11-16T10:23:03Z</time>
      </trkpt>
      <trkpt lat="28.7388880" lon="-17.7928770">
        <ele>1309.0</ele>
        <time>2020-11-16T10:23:04Z</time>
      </trkpt>
      <trkpt lat="28.7389030" lon="-17.7928230">
        <ele>1309.2</ele>
        <time>2020-11-16T10:23:05Z</time>
      </trkpt>
      <trkpt lat="28.7389030" lon="-17.7928230">
        <ele>1309.2</ele>
        <time>2020-11-16T10:23:06Z</time>
      </trkpt>
      <trkpt lat="28.7389250" lon="-17.7927870">
        <ele>1309.4</ele>
        <time>2020-11-16T10:23:07Z</time>
      </trkpt>
      <trkpt lat="28.7389420" lon="-17.7927720">
        <ele>1309.5</ele>
        <time>2020-11-16T10:23:08Z</time>
      </trkpt>
      <trkpt lat="28.7389420" lon="-17.7927720">
        <ele>1309.5</ele>
        <time>2020-11-16T10:23:09Z</time>
      </trkpt>
      <trkpt lat="28.7389530" lon="-17.7927330">
        <ele>1309.7</ele>
        <time>2020-11-16T10:23:10Z</time>
      </trkpt>
      <trkpt lat="28.7389530" lon="-17.7927330">
        <ele>1309.7</ele>
        <time>2020-11-16T10:23:11Z</time>
      </trkpt>
      <trkpt lat="28.7389680" lon="-17.7926950">
        <ele>1309.9</ele>
        <time>2020-11-16T10:23:12Z</time>
      </trkpt>
      <trkpt lat="28.7389680" lon="-17.7926950">
        <ele>1309.9</ele>
        <time>2020-11-16T10:23:13Z</time>
      </trkpt>
      <trkpt lat="28.7389880" lon="-17.7926620">
        <ele>1310.0</ele>
        <time>2020-11-16T10:23:14Z</time>
      </trkpt>
      <trkpt lat="28.7389950" lon="-17.7926450">
        <ele>1310.1</ele>
        <time>2020-11-16T10:23:15Z</time>
      </trkpt>
      <trkpt lat="28.7389950" lon="-17.7926450">
        <ele>1310.1</ele>
        <time>2020-11-16T10:23:16Z</time>
      </trkpt>
      <trkpt lat="28.7390170" lon="-17.7926130">
        <ele>1310.3</ele>
        <time>2020-11-16T10:23:17Z</time>
      </trkpt>
      <trkpt lat="28.7390170" lon="-17.7926130">
        <ele>1310.3</ele>
        <time>2020-11-16T10:23:18Z</time>
      </trkpt>
      <trkpt lat="28.7390380" lon="-17.7925780">
        <ele>1310.5</ele>
        <time>2020-11-16T10:23:19Z</time>
      </trkpt>
      <trkpt lat="28.7390380" lon="-17.7925780">
        <ele>1310.5</ele>
        <time>2020-11-16T10:23:20Z</time>
      </trkpt>
      <trkpt lat="28.7390580" lon="-17.7925550">
        <ele>1310.7</ele>
        <time>2020-11-16T10:23:21Z</time>
      </trkpt>
      <trkpt lat="28.7390580" lon="-17.7925550">
        <ele>1310.7</ele>
        <time>2020-11-16T10:23:22Z</time>
      </trkpt>
      <trkpt lat="28.7390680" lon="-17.7925180">
        <ele>1310.9</ele>
        <time>2020-11-16T10:23:23Z</time>
      </trkpt>
      <trkpt lat="28.7390680" lon="-17.7925180">
        <ele>1310.9</ele>
        <time>2020-11-16T10:23:24Z</time>
      </trkpt>
      <trkpt lat="28.7390780" lon="-17.7924780">
        <ele>1311.1</ele>
        <time>2020-11-16T10:23:25Z</time>
      </trkpt>
      <trkpt lat="28.7390850" lon="-17.7924600">
        <ele>1311.2</ele>
        <time>2020-11-16T10:23:26Z</time>
      </trkpt>
      <trkpt lat="28.7390850" lon="-17.7924600">
        <ele>1311.2</ele>
        <time>2020-11-16T10:23:27Z</time>
      </trkpt>
      <trkpt lat="28.7390950" lon="-17.7924320">
        <ele>1311.3</ele>
        <time>2020-11-16T10:23:28Z</time>
      </trkpt>
      <trkpt lat="28.7390950" lon="-17.7924320">
        <ele>1311.3</ele>
        <time>2020-11-16T10:23:29Z</time>
      </trkpt>
      <trkpt lat="28.7390930" lon="-17.7923900">
        <ele>1311.5</ele>
        <time>2020-11-16T10:23:30Z</time>
      </trkpt>
      <trkpt lat="28.7390930" lon="-17.7923900">
        <ele>1311.5</ele>
        <time>2020-11-16T10:23:31Z</time>
      </trkpt>
      <trkpt lat="28.7391020" lon="-17.7923450">
        <ele>1311.7</ele>
        <time>2020-11-16T10:23:32Z</time>
      </trkpt>
      <trkpt lat="28.7391020" lon="-17.7923450">
        <ele>1311.7</ele>
        <time>2020-11-16T10:23:33Z</time>
      </trkpt>
      <trkpt lat="28.7391230" lon="-17.7923200">
        <ele>1311.9</ele>
        <time>2020-11-16T10:23:34Z</time>
      </trkpt>
      <trkpt lat="28.7391370" lon="-17.7923070">
        <ele>1312.0</ele>
        <time>2020-11-16T10:23:35Z</time>
      </trkpt>
      <trkpt lat="28.7391370" lon="-17.7923070">
        <ele>1312.0</ele>
        <time>2020-11-16T10:23:36Z</time>
      </trkpt>
      <trkpt lat="28.7391570" lon="-17.7922750">
        <ele>1312.2</ele>
        <time>2020-11-16T10:23:37Z</time>
      </trkpt>
      <trkpt lat="28.7391630" lon="-17.7922530">
        <ele>1312.3</ele>
        <time>2020-11-16T10:23:38Z</time>
      </trkpt>
      <trkpt lat="28.7391630" lon="-17.7922530">
        <ele>1312.3</ele>
        <time>2020-11-16T10:23:39Z</time>
      </trkpt>
      <trkpt lat="28.7391700" lon="-17.7922020">
        <ele>1312.5</ele>
        <time>2020-11-16T10:23:40Z</time>
      </trkpt>
      <trkpt lat="28.7391700" lon="-17.7922020">
        <ele>1312.5</ele>
        <time>2020-11-16T10:23:41Z</time>
      </trkpt>
      <trkpt lat="28.7391820" lon="-17.7921700">
        <ele>1312.7</ele>
        <time>2020-11-16T10:23:42Z</time>
      </trkpt>
      <trkpt lat="28.7391820" lon="-17.7921700">
        <ele>1312.7</ele>
        <time>2020-11-16T10:23:43Z</time>
      </trkpt>
      <trkpt lat="28.7391900" lon="-17.7921400">
        <ele>1312.8</ele>
        <time>2020-11-16T10:23:44Z</time>
      </trkpt>
      <trkpt lat="28.7391900" lon="-17.7921400">
        <ele>1312.8</ele>
        <time>2020-11-16T10:23:45Z</time>
      </trkpt>
      <trkpt lat="28.7391930" lon="-17.7921100">
        <ele>1313.0</ele>
        <time>2020-11-16T10:23:46Z</time>
      </trkpt>
      <trkpt lat="28.7391930" lon="-17.7921100">
        <ele>1313.0</ele>
        <time>2020-11-16T10:23:47Z</time>
      </trkpt>
      <trkpt lat="28.7392080" lon="-17.7920870">
        <ele>1313.1</ele>
        <time>2020-11-16T10:23:48Z</time>
      </trkpt>
      <trkpt lat="28.7392080" lon="-17.7920870">
        <ele>1313.1</ele>
        <time>2020-11-16T10:23:49Z</time>
      </trkpt>
      <trkpt lat="28.7392370" lon="-17.7920520">
        <ele>1313.3</ele>
        <time>2020-11-16T10:23:50Z</time>
      </trkpt>
      <trkpt lat="28.7392370" lon="-17.7920520">
        <ele>1313.3</ele>
        <time>2020-11-16T10:23:51Z</time>
      </trkpt>
      <trkpt lat="28.7392650" lon="-17.7920250">
        <ele>1313.5</ele>
        <time>2020-11-16T10:23:52Z</time>
      </trkpt>
      <trkpt lat="28.7392650" lon="-17.7920250">
        <ele>1313.5</ele>
        <time>2020-11-16T10:23:53Z</time>
      </trkpt>
      <trkpt lat="28.7392970" lon="-17.7919930">
        <ele>1313.7</ele>
        <time>2020-11-16T10:23:54Z</time>
      </trkpt>
      <trkpt lat="28.7392970" lon="-17.7919930">
        <ele>1313.7</ele>
        <time>2020-11-16T10:23:55Z</time>
      </trkpt>
      <trkpt lat="28.7393300" lon="-17.7919630">
        <ele>1313.9</ele>
        <time>2020-11-16T10:23:56Z</time>
      </trkpt>
      <trkpt lat="28.7393300" lon="-17.7919630">
        <ele>1313.9</ele>
        <time>2020-11-16T10:23:57Z</time>
      </trkpt>
      <trkpt lat="28.7393520" lon="-17.7919220">
        <ele>1314.1</ele>
        <time>2020-11-16T10:23:58Z</time>
      </trkpt>
      <trkpt lat="28.7393520" lon="-17.7919220">
        <ele>1314.1</ele>
        <time>2020-11-16T10:23:59Z</time>
      </trkpt>
      <trkpt lat="28.7393780" lon="-17.7919030">
        <ele>1314.3</ele>
        <time>2020-11-16T10:24:00Z</time>
      </trkpt>
      <trkpt lat="28.7393780" lon="-17.7919030">
        <ele>1314.3</ele>
        <time>2020-11-16T10:24:01Z</time>
      </trkpt>
      <trkpt lat="28.7394070" lon="-17.7918850">
        <ele>1314.5</ele>
        <time>2020-11-16T10:24:02Z</time>
      </trkpt>
      <trkpt lat="28.7394200" lon="-17.7918750">
        <ele>1314.5</ele>
        <time>2020-11-16T10:24:03Z</time>
      </trkpt>
      <trkpt lat="28.7394330" lon="-17.7918770">
        <ele>1314.6</ele>
        <time>2020-11-16T10:24:04Z</time>
      </trkpt>
      <trkpt lat="28.7394330" lon="-17.7918770">
        <ele>1314.6</ele>
        <time>2020-11-16T10:24:05Z</time>
      </trkpt>
      <trkpt lat="28.7394630" lon="-17.7918750">
        <ele>1314.7</ele>
        <time>2020-11-16T10:24:06Z</time>
      </trkpt>
      <trkpt lat="28.7394780" lon="-17.7918720">
        <ele>1314.8</ele>
        <time>2020-11-16T10:24:07Z</time>
      </trkpt>
      <trkpt lat="28.7394880" lon="-17.7918720">
        <ele>1314.8</ele>
        <time>2020-11-16T10:24:08Z</time>
      </trkpt>
      <trkpt lat="28.7394880" lon="-17.7918720">
        <ele>1314.8</ele>
        <time>2020-11-16T10:24:09Z</time>
      </trkpt>
      <trkpt lat="28.7395100" lon="-17.7918850">
        <ele>1314.9</ele>
        <time>2020-11-16T10:24:10Z</time>
      </trkpt>
      <trkpt lat="28.7395100" lon="-17.7918850">
        <ele>1314.9</ele>
        <time>2020-11-16T10:24:11Z</time>
      </trkpt>
      <trkpt lat="28.7395220" lon="-17.7918830">
        <ele>1315.0</ele>
        <time>2020-11-16T10:24:12Z</time>
      </trkpt>
      <trkpt lat="28.7395220" lon="-17.7918830">
        <ele>1315.0</ele>
        <time>2020-11-16T10:24:13Z</time>
      </trkpt>
      <trkpt lat="28.7395220" lon="-17.7919030">
        <ele>1315.0</ele>
        <time>2020-11-16T10:24:14Z</time>
      </trkpt>
      <trkpt lat="28.7395220" lon="-17.7919030">
        <ele>1315.0</ele>
        <time>2020-11-16T10:24:15Z</time>
      </trkpt>
      <trkpt lat="28.7395170" lon="-17.7919330">
        <ele>1315.1</ele>
        <time>2020-11-16T10:24:16Z</time>
      </trkpt>
      <trkpt lat="28.7395170" lon="-17.7919330">
        <ele>1315.1</ele>
        <time>2020-11-16T10:24:17Z</time>
      </trkpt>
      <trkpt lat="28.7394950" lon="-17.7919400">
        <ele>1315.2</ele>
        <time>2020-11-16T10:24:18Z</time>
      </trkpt>
      <trkpt lat="28.7394870" lon="-17.7919520">
        <ele>1315.2</ele>
        <time>2020-11-16T10:24:19Z</time>
      </trkpt>
      <trkpt lat="28.7394870" lon="-17.7919520">
        <ele>1315.2</ele>
        <time>2020-11-16T10:24:20Z</time>
      </trkpt>
      <trkpt lat="28.7394900" lon="-17.7919730">
        <ele>1315.3</ele>
        <time>2020-11-16T10:24:21Z</time>
      </trkpt>
      <trkpt lat="28.7394900" lon="-17.7919730">
        <ele>1315.3</ele>
        <time>2020-11-16T10:24:22Z</time>
      </trkpt>
      <trkpt lat="28.7394830" lon="-17.7919850">
        <ele>1315.4</ele>
        <time>2020-11-16T10:24:23Z</time>
      </trkpt>
      <trkpt lat="28.7394680" lon="-17.7919880">
        <ele>1315.4</ele>
        <time>2020-11-16T10:24:24Z</time>
      </trkpt>
      <trkpt lat="28.7394680" lon="-17.7919880">
        <ele>1315.4</ele>
        <time>2020-11-16T10:24:25Z</time>
      </trkpt>
      <trkpt lat="28.7394500" lon="-17.7920100">
        <ele>1315.5</ele>
        <time>2020-11-16T10:24:26Z</time>
      </trkpt>
      <trkpt lat="28.7394500" lon="-17.7920100">
        <ele>1315.5</ele>
        <time>2020-11-16T10:24:27Z</time>
      </trkpt>
      <trkpt lat="28.7394300" lon="-17.7920250">
        <ele>1315.6</ele>
        <time>2020-11-16T10:24:28Z</time>
      </trkpt>
      <trkpt lat="28.7394300" lon="-17.7920250">
        <ele>1315.6</ele>
        <time>2020-11-16T10:24:29Z</time>
      </trkpt>
      <trkpt lat="28.7394120" lon="-17.7920350">
        <ele>1315.6</ele>
        <time>2020-11-16T10:24:30Z</time>
      </trkpt>
      <trkpt lat="28.7394120" lon="-17.7920350">
        <ele>1315.6</ele>
        <time>2020-11-16T10:24:31Z</time>
      </trkpt>
      <trkpt lat="28.7394000" lon="-17.7920620">
        <ele>1316.2</ele>
        <time>2020-11-16T10:24:32Z</time>
      </trkpt>
      <trkpt lat="28.7394000" lon="-17.7920620">
        <ele>1316.2</ele>
        <time>2020-11-16T10:24:33Z</time>
      </trkpt>
      <trkpt lat="28.7393950" lon="-17.7921030">
        <ele>1316.8</ele>
        <time>2020-11-16T10:24:34Z</time>
      </trkpt>
      <trkpt lat="28.7393880" lon="-17.7921120">
        <ele>1316.9</ele>
        <time>2020-11-16T10:24:35Z</time>
      </trkpt>
      <trkpt lat="28.7393880" lon="-17.7921120">
        <ele>1316.9</ele>
        <time>2020-11-16T10:24:36Z</time>
      </trkpt>
      <trkpt lat="28.7393720" lon="-17.7921330">
        <ele>1317.3</ele>
        <time>2020-11-16T10:24:37Z</time>
      </trkpt>
      <trkpt lat="28.7393620" lon="-17.7921600">
        <ele>1317.7</ele>
        <time>2020-11-16T10:24:38Z</time>
      </trkpt>
      <trkpt lat="28.7393620" lon="-17.7921600">
        <ele>1317.7</ele>
        <time>2020-11-16T10:24:39Z</time>
      </trkpt>
      <trkpt lat="28.7393620" lon="-17.7922230">
        <ele>1318.6</ele>
        <time>2020-11-16T10:24:40Z</time>
      </trkpt>
      <trkpt lat="28.7393620" lon="-17.7922230">
        <ele>1318.6</ele>
        <time>2020-11-16T10:24:41Z</time>
      </trkpt>
      <trkpt lat="28.7393770" lon="-17.7922900">
        <ele>1319.5</ele>
        <time>2020-11-16T10:24:42Z</time>
      </trkpt>
      <trkpt lat="28.7393770" lon="-17.7922900">
        <ele>1319.5</ele>
        <time>2020-11-16T10:24:43Z</time>
      </trkpt>
      <trkpt lat="28.7393980" lon="-17.7923630">
        <ele>1320.6</ele>
        <time>2020-11-16T10:24:44Z</time>
      </trkpt>
      <trkpt lat="28.7393980" lon="-17.7923630">
        <ele>1320.6</ele>
        <time>2020-11-16T10:24:45Z</time>
      </trkpt>
      <trkpt lat="28.7394180" lon="-17.7924170">
        <ele>1321.4</ele>
        <time>2020-11-16T10:24:46Z</time>
      </trkpt>
      <trkpt lat="28.7394180" lon="-17.7924170">
        <ele>1321.4</ele>
        <time>2020-11-16T10:24:47Z</time>
      </trkpt>
      <trkpt lat="28.7394230" lon="-17.7924550">
        <ele>1321.9</ele>
        <time>2020-11-16T10:24:48Z</time>
      </trkpt>
      <trkpt lat="28.7394200" lon="-17.7924700">
        <ele>1322.2</ele>
        <time>2020-11-16T10:24:49Z</time>
      </trkpt>
      <trkpt lat="28.7394180" lon="-17.7924900">
        <ele>1322.4</ele>
        <time>2020-11-16T10:24:50Z</time>
      </trkpt>
      <trkpt lat="28.7394180" lon="-17.7924900">
        <ele>1322.4</ele>
        <time>2020-11-16T10:24:51Z</time>
      </trkpt>
      <trkpt lat="28.7394380" lon="-17.7925530">
        <ele>1323.3</ele>
        <time>2020-11-16T10:24:52Z</time>
      </trkpt>
      <trkpt lat="28.7394380" lon="-17.7925530">
        <ele>1323.3</ele>
        <time>2020-11-16T10:24:53Z</time>
      </trkpt>
      <trkpt lat="28.7394380" lon="-17.7925980">
        <ele>1323.9</ele>
        <time>2020-11-16T10:24:54Z</time>
      </trkpt>
      <trkpt lat="28.7394330" lon="-17.7926130">
        <ele>1324.1</ele>
        <time>2020-11-16T10:24:55Z</time>
      </trkpt>
      <trkpt lat="28.7394330" lon="-17.7926130">
        <ele>1324.1</ele>
        <time>2020-11-16T10:24:56Z</time>
      </trkpt>
      <trkpt lat="28.7394220" lon="-17.7926520">
        <ele>1324.6</ele>
        <time>2020-11-16T10:24:57Z</time>
      </trkpt>
      <trkpt lat="28.7394200" lon="-17.7926650">
        <ele>1324.8</ele>
        <time>2020-11-16T10:24:58Z</time>
      </trkpt>
      <trkpt lat="28.7394200" lon="-17.7926650">
        <ele>1324.8</ele>
        <time>2020-11-16T10:24:59Z</time>
      </trkpt>
      <trkpt lat="28.7394200" lon="-17.7927020">
        <ele>1325.2</ele>
        <time>2020-11-16T10:25:00Z</time>
      </trkpt>
      <trkpt lat="28.7394230" lon="-17.7927250">
        <ele>1325.5</ele>
        <time>2020-11-16T10:25:01Z</time>
      </trkpt>
      <trkpt lat="28.7394230" lon="-17.7927470">
        <ele>1325.8</ele>
        <time>2020-11-16T10:25:02Z</time>
      </trkpt>
      <trkpt lat="28.7394230" lon="-17.7927470">
        <ele>1325.8</ele>
        <time>2020-11-16T10:25:03Z</time>
      </trkpt>
      <trkpt lat="28.7394180" lon="-17.7927900">
        <ele>1326.3</ele>
        <time>2020-11-16T10:25:04Z</time>
      </trkpt>
      <trkpt lat="28.7394180" lon="-17.7927900">
        <ele>1326.3</ele>
        <time>2020-11-16T10:25:05Z</time>
      </trkpt>
      <trkpt lat="28.7394180" lon="-17.7928420">
        <ele>1326.8</ele>
        <time>2020-11-16T10:25:06Z</time>
      </trkpt>
      <trkpt lat="28.7394180" lon="-17.7928420">
        <ele>1326.8</ele>
        <time>2020-11-16T10:25:07Z</time>
      </trkpt>
      <trkpt lat="28.7394200" lon="-17.7929070">
        <ele>1327.5</ele>
        <time>2020-11-16T10:25:08Z</time>
      </trkpt>
      <trkpt lat="28.7394200" lon="-17.7929070">
        <ele>1327.5</ele>
        <time>2020-11-16T10:25:09Z</time>
      </trkpt>
      <trkpt lat="28.7393970" lon="-17.7929570">
        <ele>1328.1</ele>
        <time>2020-11-16T10:25:10Z</time>
      </trkpt>
      <trkpt lat="28.7393970" lon="-17.7929570">
        <ele>1328.1</ele>
        <time>2020-11-16T10:25:11Z</time>
      </trkpt>
      <trkpt lat="28.7393650" lon="-17.7929900">
        <ele>1328.5</ele>
        <time>2020-11-16T10:25:12Z</time>
      </trkpt>
      <trkpt lat="28.7393650" lon="-17.7929900">
        <ele>1328.5</ele>
        <time>2020-11-16T10:25:13Z</time>
      </trkpt>
      <trkpt lat="28.7393350" lon="-17.7930320">
        <ele>1329.0</ele>
        <time>2020-11-16T10:25:14Z</time>
      </trkpt>
      <trkpt lat="28.7393350" lon="-17.7930320">
        <ele>1329.0</ele>
        <time>2020-11-16T10:25:15Z</time>
      </trkpt>
      <trkpt lat="28.7393100" lon="-17.7930900">
        <ele>1329.6</ele>
        <time>2020-11-16T10:25:16Z</time>
      </trkpt>
      <trkpt lat="28.7393100" lon="-17.7930900">
        <ele>1329.6</ele>
        <time>2020-11-16T10:25:17Z</time>
      </trkpt>
      <trkpt lat="28.7392970" lon="-17.7931420">
        <ele>1330.2</ele>
        <time>2020-11-16T10:25:18Z</time>
      </trkpt>
      <trkpt lat="28.7392970" lon="-17.7931420">
        <ele>1330.2</ele>
        <time>2020-11-16T10:25:19Z</time>
      </trkpt>
      <trkpt lat="28.7392800" lon="-17.7931880">
        <ele>1330.5</ele>
        <time>2020-11-16T10:25:20Z</time>
      </trkpt>
      <trkpt lat="28.7392800" lon="-17.7932200">
        <ele>1330.8</ele>
        <time>2020-11-16T10:25:21Z</time>
      </trkpt>
      <trkpt lat="28.7392800" lon="-17.7932200">
        <ele>1330.8</ele>
        <time>2020-11-16T10:25:22Z</time>
      </trkpt>
      <trkpt lat="28.7392750" lon="-17.7932720">
        <ele>1331.2</ele>
        <time>2020-11-16T10:25:23Z</time>
      </trkpt>
      <trkpt lat="28.7392750" lon="-17.7932720">
        <ele>1331.2</ele>
        <time>2020-11-16T10:25:24Z</time>
      </trkpt>
      <trkpt lat="28.7392670" lon="-17.7933180">
        <ele>1331.5</ele>
        <time>2020-11-16T10:25:25Z</time>
      </trkpt>
      <trkpt lat="28.7392670" lon="-17.7933180">
        <ele>1331.5</ele>
        <time>2020-11-16T10:25:26Z</time>
      </trkpt>
      <trkpt lat="28.7392600" lon="-17.7933600">
        <ele>1331.9</ele>
        <time>2020-11-16T10:25:27Z</time>
      </trkpt>
      <trkpt lat="28.7392600" lon="-17.7933600">
        <ele>1331.9</ele>
        <time>2020-11-16T10:25:28Z</time>
      </trkpt>
      <trkpt lat="28.7392680" lon="-17.7933980">
        <ele>1332.2</ele>
        <time>2020-11-16T10:25:29Z</time>
      </trkpt>
      <trkpt lat="28.7392680" lon="-17.7933980">
        <ele>1332.2</ele>
        <time>2020-11-16T10:25:30Z</time>
      </trkpt>
      <trkpt lat="28.7392720" lon="-17.7934320">
        <ele>1332.4</ele>
        <time>2020-11-16T10:25:31Z</time>
      </trkpt>
      <trkpt lat="28.7392800" lon="-17.7934650">
        <ele>1332.7</ele>
        <time>2020-11-16T10:25:32Z</time>
      </trkpt>
      <trkpt lat="28.7392800" lon="-17.7934650">
        <ele>1332.7</ele>
        <time>2020-11-16T10:25:33Z</time>
      </trkpt>
      <trkpt lat="28.7392820" lon="-17.7935150">
        <ele>1333.1</ele>
        <time>2020-11-16T10:25:34Z</time>
      </trkpt>
      <trkpt lat="28.7392820" lon="-17.7935150">
        <ele>1333.1</ele>
        <time>2020-11-16T10:25:35Z</time>
      </trkpt>
      <trkpt lat="28.7392680" lon="-17.7935500">
        <ele>1333.4</ele>
        <time>2020-11-16T10:25:36Z</time>
      </trkpt>
      <trkpt lat="28.7392680" lon="-17.7935500">
        <ele>1333.4</ele>
        <time>2020-11-16T10:25:37Z</time>
      </trkpt>
      <trkpt lat="28.7392500" lon="-17.7935950">
        <ele>1333.7</ele>
        <time>2020-11-16T10:25:38Z</time>
      </trkpt>
      <trkpt lat="28.7392500" lon="-17.7935950">
        <ele>1333.7</ele>
        <time>2020-11-16T10:25:39Z</time>
      </trkpt>
      <trkpt lat="28.7392300" lon="-17.7936300">
        <ele>1334.0</ele>
        <time>2020-11-16T10:25:40Z</time>
      </trkpt>
      <trkpt lat="28.7392180" lon="-17.7936520">
        <ele>1334.2</ele>
        <time>2020-11-16T10:25:41Z</time>
      </trkpt>
      <trkpt lat="28.7392180" lon="-17.7936520">
        <ele>1334.2</ele>
        <time>2020-11-16T10:25:42Z</time>
      </trkpt>
      <trkpt lat="28.7391980" lon="-17.7936870">
        <ele>1334.6</ele>
        <time>2020-11-16T10:25:43Z</time>
      </trkpt>
      <trkpt lat="28.7391950" lon="-17.7937080">
        <ele>1334.7</ele>
        <time>2020-11-16T10:25:44Z</time>
      </trkpt>
      <trkpt lat="28.7391950" lon="-17.7937080">
        <ele>1334.7</ele>
        <time>2020-11-16T10:25:45Z</time>
      </trkpt>
      <trkpt lat="28.7391630" lon="-17.7937300">
        <ele>1335.0</ele>
        <time>2020-11-16T10:25:46Z</time>
      </trkpt>
      <trkpt lat="28.7391630" lon="-17.7937300">
        <ele>1335.0</ele>
        <time>2020-11-16T10:25:47Z</time>
      </trkpt>
      <trkpt lat="28.7391330" lon="-17.7937580">
        <ele>1335.4</ele>
        <time>2020-11-16T10:25:48Z</time>
      </trkpt>
      <trkpt lat="28.7391330" lon="-17.7937580">
        <ele>1335.4</ele>
        <time>2020-11-16T10:25:49Z</time>
      </trkpt>
      <trkpt lat="28.7391020" lon="-17.7937980">
        <ele>1335.8</ele>
        <time>2020-11-16T10:25:50Z</time>
      </trkpt>
      <trkpt lat="28.7391020" lon="-17.7937980">
        <ele>1335.8</ele>
        <time>2020-11-16T10:25:51Z</time>
      </trkpt>
      <trkpt lat="28.7390700" lon="-17.7938300">
        <ele>1336.1</ele>
        <time>2020-11-16T10:25:52Z</time>
      </trkpt>
      <trkpt lat="28.7390700" lon="-17.7938300">
        <ele>1336.1</ele>
        <time>2020-11-16T10:25:53Z</time>
      </trkpt>
      <trkpt lat="28.7390430" lon="-17.7938530">
        <ele>1336.4</ele>
        <time>2020-11-16T10:25:54Z</time>
      </trkpt>
      <trkpt lat="28.7390430" lon="-17.7938530">
        <ele>1336.4</ele>
        <time>2020-11-16T10:25:55Z</time>
      </trkpt>
      <trkpt lat="28.7390200" lon="-17.7938770">
        <ele>1336.7</ele>
        <time>2020-11-16T10:25:56Z</time>
      </trkpt>
      <trkpt lat="28.7390200" lon="-17.7938770">
        <ele>1336.7</ele>
        <time>2020-11-16T10:25:57Z</time>
      </trkpt>
      <trkpt lat="28.7389950" lon="-17.7939000">
        <ele>1337.0</ele>
        <time>2020-11-16T10:25:58Z</time>
      </trkpt>
      <trkpt lat="28.7389830" lon="-17.7939150">
        <ele>1337.1</ele>
        <time>2020-11-16T10:25:59Z</time>
      </trkpt>
      <trkpt lat="28.7389830" lon="-17.7939150">
        <ele>1337.1</ele>
        <time>2020-11-16T10:26:00Z</time>
      </trkpt>
      <trkpt lat="28.7389600" lon="-17.7939470">
        <ele>1337.5</ele>
        <time>2020-11-16T10:26:01Z</time>
      </trkpt>
      <trkpt lat="28.7389600" lon="-17.7939470">
        <ele>1337.5</ele>
        <time>2020-11-16T10:26:02Z</time>
      </trkpt>
      <trkpt lat="28.7389370" lon="-17.7939670">
        <ele>1337.7</ele>
        <time>2020-11-16T10:26:03Z</time>
      </trkpt>
      <trkpt lat="28.7389320" lon="-17.7939770">
        <ele>1337.8</ele>
        <time>2020-11-16T10:26:04Z</time>
      </trkpt>
      <trkpt lat="28.7389320" lon="-17.7939770">
        <ele>1337.8</ele>
        <time>2020-11-16T10:26:05Z</time>
      </trkpt>
      <trkpt lat="28.7389070" lon="-17.7939870">
        <ele>1338.0</ele>
        <time>2020-11-16T10:26:06Z</time>
      </trkpt>
      <trkpt lat="28.7389070" lon="-17.7939870">
        <ele>1338.0</ele>
        <time>2020-11-16T10:26:07Z</time>
      </trkpt>
      <trkpt lat="28.7388900" lon="-17.7940020">
        <ele>1338.2</ele>
        <time>2020-11-16T10:26:08Z</time>
      </trkpt>
      <trkpt lat="28.7388730" lon="-17.7940070">
        <ele>1338.4</ele>
        <time>2020-11-16T10:26:09Z</time>
      </trkpt>
      <trkpt lat="28.7388730" lon="-17.7940070">
        <ele>1338.4</ele>
        <time>2020-11-16T10:26:10Z</time>
      </trkpt>
      <trkpt lat="28.7388650" lon="-17.7940750">
        <ele>1338.9</ele>
        <time>2020-11-16T10:26:11Z</time>
      </trkpt>
      <trkpt lat="28.7388650" lon="-17.7940750">
        <ele>1338.9</ele>
        <time>2020-11-16T10:26:12Z</time>
      </trkpt>
      <trkpt lat="28.7388850" lon="-17.7941930">
        <ele>1339.8</ele>
        <time>2020-11-16T10:26:13Z</time>
      </trkpt>
      <trkpt lat="28.7388850" lon="-17.7941930">
        <ele>1339.8</ele>
        <time>2020-11-16T10:26:14Z</time>
      </trkpt>
      <trkpt lat="28.7388520" lon="-17.7942280">
        <ele>1340.2</ele>
        <time>2020-11-16T10:26:15Z</time>
      </trkpt>
      <trkpt lat="28.7388520" lon="-17.7942280">
        <ele>1340.2</ele>
        <time>2020-11-16T10:26:16Z</time>
      </trkpt>
      <trkpt lat="28.7387970" lon="-17.7942600">
        <ele>1340.7</ele>
        <time>2020-11-16T10:26:17Z</time>
      </trkpt>
      <trkpt lat="28.7387970" lon="-17.7942600">
        <ele>1340.7</ele>
        <time>2020-11-16T10:26:18Z</time>
      </trkpt>
      <trkpt lat="28.7387600" lon="-17.7942830">
        <ele>1341.1</ele>
        <time>2020-11-16T10:26:19Z</time>
      </trkpt>
      <trkpt lat="28.7387450" lon="-17.7942930">
        <ele>1341.2</ele>
        <time>2020-11-16T10:26:20Z</time>
      </trkpt>
      <trkpt lat="28.7387450" lon="-17.7942930">
        <ele>1341.2</ele>
        <time>2020-11-16T10:26:21Z</time>
      </trkpt>
      <trkpt lat="28.7387130" lon="-17.7943200">
        <ele>1341.6</ele>
        <time>2020-11-16T10:26:22Z</time>
      </trkpt>
      <trkpt lat="28.7387130" lon="-17.7943200">
        <ele>1341.6</ele>
        <time>2020-11-16T10:26:23Z</time>
      </trkpt>
      <trkpt lat="28.7386850" lon="-17.7943330">
        <ele>1341.8</ele>
        <time>2020-11-16T10:26:24Z</time>
      </trkpt>
      <trkpt lat="28.7386780" lon="-17.7943450">
        <ele>1341.9</ele>
        <time>2020-11-16T10:26:25Z</time>
      </trkpt>
      <trkpt lat="28.7386780" lon="-17.7943450">
        <ele>1341.9</ele>
        <time>2020-11-16T10:26:26Z</time>
      </trkpt>
      <trkpt lat="28.7386580" lon="-17.7943550">
        <ele>1342.1</ele>
        <time>2020-11-16T10:26:27Z</time>
      </trkpt>
      <trkpt lat="28.7386580" lon="-17.7943550">
        <ele>1342.1</ele>
        <time>2020-11-16T10:26:28Z</time>
      </trkpt>
      <trkpt lat="28.7386550" lon="-17.7943880">
        <ele>1342.4</ele>
        <time>2020-11-16T10:26:29Z</time>
      </trkpt>
      <trkpt lat="28.7386550" lon="-17.7943880">
        <ele>1342.4</ele>
        <time>2020-11-16T10:26:30Z</time>
      </trkpt>
      <trkpt lat="28.7386470" lon="-17.7944350">
        <ele>1342.7</ele>
        <time>2020-11-16T10:26:31Z</time>
      </trkpt>
      <trkpt lat="28.7386470" lon="-17.7944350">
        <ele>1342.7</ele>
        <time>2020-11-16T10:26:32Z</time>
      </trkpt>
      <trkpt lat="28.7386630" lon="-17.7945180">
        <ele>1343.4</ele>
        <time>2020-11-16T10:26:33Z</time>
      </trkpt>
      <trkpt lat="28.7386720" lon="-17.7945500">
        <ele>1343.6</ele>
        <time>2020-11-16T10:26:34Z</time>
      </trkpt>
      <trkpt lat="28.7386720" lon="-17.7945500">
        <ele>1343.6</ele>
        <time>2020-11-16T10:26:35Z</time>
      </trkpt>
      <trkpt lat="28.7386620" lon="-17.7946050">
        <ele>1344.1</ele>
        <time>2020-11-16T10:26:36Z</time>
      </trkpt>
      <trkpt lat="28.7386620" lon="-17.7946050">
        <ele>1344.1</ele>
        <time>2020-11-16T10:26:37Z</time>
      </trkpt>
      <trkpt lat="28.7386470" lon="-17.7946420">
        <ele>1344.4</ele>
        <time>2020-11-16T10:26:38Z</time>
      </trkpt>
      <trkpt lat="28.7386470" lon="-17.7946420">
        <ele>1344.4</ele>
        <time>2020-11-16T10:26:39Z</time>
      </trkpt>
      <trkpt lat="28.7386250" lon="-17.7946800">
        <ele>1344.7</ele>
        <time>2020-11-16T10:26:40Z</time>
      </trkpt>
      <trkpt lat="28.7386080" lon="-17.7946900">
        <ele>1344.9</ele>
        <time>2020-11-16T10:26:41Z</time>
      </trkpt>
      <trkpt lat="28.7386080" lon="-17.7946900">
        <ele>1344.9</ele>
        <time>2020-11-16T10:26:42Z</time>
      </trkpt>
      <trkpt lat="28.7385980" lon="-17.7947430">
        <ele>1345.3</ele>
        <time>2020-11-16T10:26:43Z</time>
      </trkpt>
      <trkpt lat="28.7385980" lon="-17.7947430">
        <ele>1345.3</ele>
        <time>2020-11-16T10:26:44Z</time>
      </trkpt>
      <trkpt lat="28.7385570" lon="-17.7947520">
        <ele>1345.7</ele>
        <time>2020-11-16T10:26:45Z</time>
      </trkpt>
      <trkpt lat="28.7385420" lon="-17.7947620">
        <ele>1345.8</ele>
        <time>2020-11-16T10:26:46Z</time>
      </trkpt>
      <trkpt lat="28.7385280" lon="-17.7947700">
        <ele>1345.9</ele>
        <time>2020-11-16T10:26:47Z</time>
      </trkpt>
      <trkpt lat="28.7385280" lon="-17.7947700">
        <ele>1345.9</ele>
        <time>2020-11-16T10:26:48Z</time>
      </trkpt>
      <trkpt lat="28.7384980" lon="-17.7947750">
        <ele>1346.2</ele>
        <time>2020-11-16T10:26:49Z</time>
      </trkpt>
      <trkpt lat="28.7384850" lon="-17.7947780">
        <ele>1346.3</ele>
        <time>2020-11-16T10:26:50Z</time>
      </trkpt>
      <trkpt lat="28.7384850" lon="-17.7947780">
        <ele>1346.3</ele>
        <time>2020-11-16T10:26:51Z</time>
      </trkpt>
      <trkpt lat="28.7384700" lon="-17.7948000">
        <ele>1346.5</ele>
        <time>2020-11-16T10:26:52Z</time>
      </trkpt>
      <trkpt lat="28.7384700" lon="-17.7948000">
        <ele>1346.5</ele>
        <time>2020-11-16T10:26:53Z</time>
      </trkpt>
      <trkpt lat="28.7384600" lon="-17.7948470">
        <ele>1346.9</ele>
        <time>2020-11-16T10:26:54Z</time>
      </trkpt>
      <trkpt lat="28.7384600" lon="-17.7948470">
        <ele>1346.9</ele>
        <time>2020-11-16T10:26:55Z</time>
      </trkpt>
      <trkpt lat="28.7384480" lon="-17.7948920">
        <ele>1347.3</ele>
        <time>2020-11-16T10:26:56Z</time>
      </trkpt>
      <trkpt lat="28.7384420" lon="-17.7949130">
        <ele>1347.4</ele>
        <time>2020-11-16T10:26:57Z</time>
      </trkpt>
      <trkpt lat="28.7384420" lon="-17.7949130">
        <ele>1347.4</ele>
        <time>2020-11-16T10:26:58Z</time>
      </trkpt>
      <trkpt lat="28.7384300" lon="-17.7949380">
        <ele>1347.6</ele>
        <time>2020-11-16T10:26:59Z</time>
      </trkpt>
      <trkpt lat="28.7384380" lon="-17.7949700">
        <ele>1347.9</ele>
        <time>2020-11-16T10:27:00Z</time>
      </trkpt>
      <trkpt lat="28.7384380" lon="-17.7949700">
        <ele>1347.9</ele>
        <time>2020-11-16T10:27:01Z</time>
      </trkpt>
      <trkpt lat="28.7384450" lon="-17.7950050">
        <ele>1348.2</ele>
        <time>2020-11-16T10:27:02Z</time>
      </trkpt>
      <trkpt lat="28.7384450" lon="-17.7950050">
        <ele>1348.2</ele>
        <time>2020-11-16T10:27:03Z</time>
      </trkpt>
      <trkpt lat="28.7384550" lon="-17.7950320">
        <ele>1348.4</ele>
        <time>2020-11-16T10:27:04Z</time>
      </trkpt>
      <trkpt lat="28.7384550" lon="-17.7950320">
        <ele>1348.4</ele>
        <time>2020-11-16T10:27:05Z</time>
      </trkpt>
      <trkpt lat="28.7384580" lon="-17.7950930">
        <ele>1348.9</ele>
        <time>2020-11-16T10:27:06Z</time>
      </trkpt>
      <trkpt lat="28.7384670" lon="-17.7951550">
        <ele>1349.3</ele>
        <time>2020-11-16T10:27:07Z</time>
      </trkpt>
      <trkpt lat="28.7384670" lon="-17.7951550">
        <ele>1349.3</ele>
        <time>2020-11-16T10:27:08Z</time>
      </trkpt>
      <trkpt lat="28.7384720" lon="-17.7952450">
        <ele>1350.0</ele>
        <time>2020-11-16T10:27:09Z</time>
      </trkpt>
      <trkpt lat="28.7384750" lon="-17.7952780">
        <ele>1350.3</ele>
        <time>2020-11-16T10:27:10Z</time>
      </trkpt>
      <trkpt lat="28.7384750" lon="-17.7952780">
        <ele>1350.3</ele>
        <time>2020-11-16T10:27:11Z</time>
      </trkpt>
      <trkpt lat="28.7384820" lon="-17.7953430">
        <ele>1350.8</ele>
        <time>2020-11-16T10:27:12Z</time>
      </trkpt>
      <trkpt lat="28.7384800" lon="-17.7953680">
        <ele>1351.0</ele>
        <time>2020-11-16T10:27:13Z</time>
      </trkpt>
      <trkpt lat="28.7384800" lon="-17.7953680">
        <ele>1351.0</ele>
        <time>2020-11-16T10:27:14Z</time>
      </trkpt>
      <trkpt lat="28.7384730" lon="-17.7954080">
        <ele>1351.3</ele>
        <time>2020-11-16T10:27:15Z</time>
      </trkpt>
      <trkpt lat="28.7384730" lon="-17.7954080">
        <ele>1351.3</ele>
        <time>2020-11-16T10:27:16Z</time>
      </trkpt>
      <trkpt lat="28.7384770" lon="-17.7954330">
        <ele>1351.5</ele>
        <time>2020-11-16T10:27:17Z</time>
      </trkpt>
      <trkpt lat="28.7384770" lon="-17.7954330">
        <ele>1351.5</ele>
        <time>2020-11-16T10:27:18Z</time>
      </trkpt>
      <trkpt lat="28.7384750" lon="-17.7954550">
        <ele>1351.6</ele>
        <time>2020-11-16T10:27:19Z</time>
      </trkpt>
      <trkpt lat="28.7384780" lon="-17.7954750">
        <ele>1351.8</ele>
        <time>2020-11-16T10:27:20Z</time>
      </trkpt>
      <trkpt lat="28.7384780" lon="-17.7954750">
        <ele>1351.8</ele>
        <time>2020-11-16T10:27:21Z</time>
      </trkpt>
      <trkpt lat="28.7384680" lon="-17.7955000">
        <ele>1352.0</ele>
        <time>2020-11-16T10:27:22Z</time>
      </trkpt>
      <trkpt lat="28.7384680" lon="-17.7955000">
        <ele>1352.0</ele>
        <time>2020-11-16T10:27:23Z</time>
      </trkpt>
      <trkpt lat="28.7384700" lon="-17.7955520">
        <ele>1352.4</ele>
        <time>2020-11-16T10:27:24Z</time>
      </trkpt>
      <trkpt lat="28.7384700" lon="-17.7955520">
        <ele>1352.4</ele>
        <time>2020-11-16T10:27:25Z</time>
      </trkpt>
      <trkpt lat="28.7384720" lon="-17.7956020">
        <ele>1352.8</ele>
        <time>2020-11-16T10:27:26Z</time>
      </trkpt>
      <trkpt lat="28.7384720" lon="-17.7956020">
        <ele>1352.8</ele>
        <time>2020-11-16T10:27:27Z</time>
      </trkpt>
      <trkpt lat="28.7384920" lon="-17.7956850">
        <ele>1353.4</ele>
        <time>2020-11-16T10:27:28Z</time>
      </trkpt>
      <trkpt lat="28.7384920" lon="-17.7956850">
        <ele>1353.4</ele>
        <time>2020-11-16T10:27:29Z</time>
      </trkpt>
      <trkpt lat="28.7384930" lon="-17.7957370">
        <ele>1353.8</ele>
        <time>2020-11-16T10:27:30Z</time>
      </trkpt>
      <trkpt lat="28.7384970" lon="-17.7957650">
        <ele>1354.0</ele>
        <time>2020-11-16T10:27:31Z</time>
      </trkpt>
      <trkpt lat="28.7384970" lon="-17.7957650">
        <ele>1354.0</ele>
        <time>2020-11-16T10:27:32Z</time>
      </trkpt>
      <trkpt lat="28.7384950" lon="-17.7958130">
        <ele>1354.4</ele>
        <time>2020-11-16T10:27:33Z</time>
      </trkpt>
      <trkpt lat="28.7384950" lon="-17.7958130">
        <ele>1354.4</ele>
        <time>2020-11-16T10:27:34Z</time>
      </trkpt>
      <trkpt lat="28.7384870" lon="-17.7958520">
        <ele>1354.7</ele>
        <time>2020-11-16T10:27:35Z</time>
      </trkpt>
      <trkpt lat="28.7384870" lon="-17.7958520">
        <ele>1354.7</ele>
        <time>2020-11-16T10:27:36Z</time>
      </trkpt>
      <trkpt lat="28.7384830" lon="-17.7959020">
        <ele>1355.1</ele>
        <time>2020-11-16T10:27:37Z</time>
      </trkpt>
      <trkpt lat="28.7384830" lon="-17.7959020">
        <ele>1355.1</ele>
        <time>2020-11-16T10:27:38Z</time>
      </trkpt>
      <trkpt lat="28.7384680" lon="-17.7959620">
        <ele>1355.5</ele>
        <time>2020-11-16T10:27:39Z</time>
      </trkpt>
      <trkpt lat="28.7384680" lon="-17.7959620">
        <ele>1355.5</ele>
        <time>2020-11-16T10:27:40Z</time>
      </trkpt>
      <trkpt lat="28.7384320" lon="-17.7959930">
        <ele>1355.9</ele>
        <time>2020-11-16T10:27:41Z</time>
      </trkpt>
      <trkpt lat="28.7384180" lon="-17.7960180">
        <ele>1356.2</ele>
        <time>2020-11-16T10:27:42Z</time>
      </trkpt>
      <trkpt lat="28.7384180" lon="-17.7960180">
        <ele>1356.2</ele>
        <time>2020-11-16T10:27:43Z</time>
      </trkpt>
      <trkpt lat="28.7383900" lon="-17.7960600">
        <ele>1356.6</ele>
        <time>2020-11-16T10:27:44Z</time>
      </trkpt>
      <trkpt lat="28.7383900" lon="-17.7960600">
        <ele>1356.6</ele>
        <time>2020-11-16T10:27:45Z</time>
      </trkpt>
      <trkpt lat="28.7383670" lon="-17.7960930">
        <ele>1356.9</ele>
        <time>2020-11-16T10:27:46Z</time>
      </trkpt>
      <trkpt lat="28.7383620" lon="-17.7961150">
        <ele>1357.0</ele>
        <time>2020-11-16T10:27:47Z</time>
      </trkpt>
      <trkpt lat="28.7383530" lon="-17.7961180">
        <ele>1357.1</ele>
        <time>2020-11-16T10:27:48Z</time>
      </trkpt>
      <trkpt lat="28.7383530" lon="-17.7961180">
        <ele>1357.1</ele>
        <time>2020-11-16T10:27:49Z</time>
      </trkpt>
      <trkpt lat="28.7383480" lon="-17.7961330">
        <ele>1357.2</ele>
        <time>2020-11-16T10:27:50Z</time>
      </trkpt>
      <trkpt lat="28.7383480" lon="-17.7961330">
        <ele>1357.2</ele>
        <time>2020-11-16T10:27:51Z</time>
      </trkpt>
      <trkpt lat="28.7383420" lon="-17.7961570">
        <ele>1357.4</ele>
        <time>2020-11-16T10:27:52Z</time>
      </trkpt>
      <trkpt lat="28.7383420" lon="-17.7961570">
        <ele>1357.4</ele>
        <time>2020-11-16T10:27:53Z</time>
      </trkpt>
      <trkpt lat="28.7383200" lon="-17.7961720">
        <ele>1357.7</ele>
        <time>2020-11-16T10:27:54Z</time>
      </trkpt>
      <trkpt lat="28.7383200" lon="-17.7961720">
        <ele>1357.7</ele>
        <time>2020-11-16T10:27:55Z</time>
      </trkpt>
      <trkpt lat="28.7382970" lon="-17.7961900">
        <ele>1357.9</ele>
        <time>2020-11-16T10:27:56Z</time>
      </trkpt>
      <trkpt lat="28.7382970" lon="-17.7961900">
        <ele>1357.9</ele>
        <time>2020-11-16T10:27:57Z</time>
      </trkpt>
      <trkpt lat="28.7382780" lon="-17.7962270">
        <ele>1358.2</ele>
        <time>2020-11-16T10:27:58Z</time>
      </trkpt>
      <trkpt lat="28.7382780" lon="-17.7962270">
        <ele>1358.2</ele>
        <time>2020-11-16T10:27:59Z</time>
      </trkpt>
      <trkpt lat="28.7382700" lon="-17.7962730">
        <ele>1358.6</ele>
        <time>2020-11-16T10:28:00Z</time>
      </trkpt>
      <trkpt lat="28.7382680" lon="-17.7963050">
        <ele>1358.8</ele>
        <time>2020-11-16T10:28:01Z</time>
      </trkpt>
      <trkpt lat="28.7382680" lon="-17.7963050">
        <ele>1358.8</ele>
        <time>2020-11-16T10:28:02Z</time>
      </trkpt>
      <trkpt lat="28.7382250" lon="-17.7963330">
        <ele>1359.3</ele>
        <time>2020-11-16T10:28:03Z</time>
      </trkpt>
      <trkpt lat="28.7382250" lon="-17.7963330">
        <ele>1359.3</ele>
        <time>2020-11-16T10:28:04Z</time>
      </trkpt>
      <trkpt lat="28.7382130" lon="-17.7963880">
        <ele>1359.7</ele>
        <time>2020-11-16T10:28:05Z</time>
      </trkpt>
      <trkpt lat="28.7382130" lon="-17.7963880">
        <ele>1359.7</ele>
        <time>2020-11-16T10:28:06Z</time>
      </trkpt>
      <trkpt lat="28.7381870" lon="-17.7964230">
        <ele>1360.0</ele>
        <time>2020-11-16T10:28:07Z</time>
      </trkpt>
      <trkpt lat="28.7381820" lon="-17.7964450">
        <ele>1360.2</ele>
        <time>2020-11-16T10:28:08Z</time>
      </trkpt>
      <trkpt lat="28.7381820" lon="-17.7964450">
        <ele>1360.2</ele>
        <time>2020-11-16T10:28:09Z</time>
      </trkpt>
      <trkpt lat="28.7381870" lon="-17.7965050">
        <ele>1360.7</ele>
        <time>2020-11-16T10:28:10Z</time>
      </trkpt>
      <trkpt lat="28.7381870" lon="-17.7965050">
        <ele>1360.7</ele>
        <time>2020-11-16T10:28:11Z</time>
      </trkpt>
      <trkpt lat="28.7381670" lon="-17.7965370">
        <ele>1361.0</ele>
        <time>2020-11-16T10:28:12Z</time>
      </trkpt>
      <trkpt lat="28.7381580" lon="-17.7965470">
        <ele>1361.1</ele>
        <time>2020-11-16T10:28:13Z</time>
      </trkpt>
      <trkpt lat="28.7381550" lon="-17.7965680">
        <ele>1361.2</ele>
        <time>2020-11-16T10:28:14Z</time>
      </trkpt>
      <trkpt lat="28.7381550" lon="-17.7965680">
        <ele>1361.2</ele>
        <time>2020-11-16T10:28:15Z</time>
      </trkpt>
      <trkpt lat="28.7381370" lon="-17.7966070">
        <ele>1361.6</ele>
        <time>2020-11-16T10:28:16Z</time>
      </trkpt>
      <trkpt lat="28.7381370" lon="-17.7966070">
        <ele>1361.6</ele>
        <time>2020-11-16T10:28:17Z</time>
      </trkpt>
      <trkpt lat="28.7381000" lon="-17.7966270">
        <ele>1361.9</ele>
        <time>2020-11-16T10:28:18Z</time>
      </trkpt>
      <trkpt lat="28.7381000" lon="-17.7966270">
        <ele>1361.9</ele>
        <time>2020-11-16T10:28:19Z</time>
      </trkpt>
      <trkpt lat="28.7380720" lon="-17.7966450">
        <ele>1362.2</ele>
        <time>2020-11-16T10:28:20Z</time>
      </trkpt>
      <trkpt lat="28.7380720" lon="-17.7966450">
        <ele>1362.2</ele>
        <time>2020-11-16T10:28:21Z</time>
      </trkpt>
      <trkpt lat="28.7380430" lon="-17.7966520">
        <ele>1362.4</ele>
        <time>2020-11-16T10:28:22Z</time>
      </trkpt>
      <trkpt lat="28.7380430" lon="-17.7966520">
        <ele>1362.4</ele>
        <time>2020-11-16T10:28:23Z</time>
      </trkpt>
      <trkpt lat="28.7380170" lon="-17.7966830">
        <ele>1362.8</ele>
        <time>2020-11-16T10:28:24Z</time>
      </trkpt>
      <trkpt lat="28.7380170" lon="-17.7966830">
        <ele>1362.8</ele>
        <time>2020-11-16T10:28:25Z</time>
      </trkpt>
      <trkpt lat="28.7379930" lon="-17.7967320">
        <ele>1363.2</ele>
        <time>2020-11-16T10:28:26Z</time>
      </trkpt>
      <trkpt lat="28.7379930" lon="-17.7967320">
        <ele>1363.2</ele>
        <time>2020-11-16T10:28:27Z</time>
      </trkpt>
      <trkpt lat="28.7379670" lon="-17.7967650">
        <ele>1363.5</ele>
        <time>2020-11-16T10:28:28Z</time>
      </trkpt>
      <trkpt lat="28.7379670" lon="-17.7967650">
        <ele>1363.5</ele>
        <time>2020-11-16T10:28:29Z</time>
      </trkpt>
      <trkpt lat="28.7379350" lon="-17.7967720">
        <ele>1363.8</ele>
        <time>2020-11-16T10:28:30Z</time>
      </trkpt>
      <trkpt lat="28.7379350" lon="-17.7967720">
        <ele>1363.8</ele>
        <time>2020-11-16T10:28:31Z</time>
      </trkpt>
      <trkpt lat="28.7379020" lon="-17.7967930">
        <ele>1364.1</ele>
        <time>2020-11-16T10:28:32Z</time>
      </trkpt>
      <trkpt lat="28.7378730" lon="-17.7967900">
        <ele>1364.4</ele>
        <time>2020-11-16T10:28:33Z</time>
      </trkpt>
      <trkpt lat="28.7378730" lon="-17.7967900">
        <ele>1364.4</ele>
        <time>2020-11-16T10:28:34Z</time>
      </trkpt>
      <trkpt lat="28.7378580" lon="-17.7968370">
        <ele>1364.8</ele>
        <time>2020-11-16T10:28:35Z</time>
      </trkpt>
      <trkpt lat="28.7378480" lon="-17.7968520">
        <ele>1364.9</ele>
        <time>2020-11-16T10:28:36Z</time>
      </trkpt>
      <trkpt lat="28.7378480" lon="-17.7968520">
        <ele>1364.9</ele>
        <time>2020-11-16T10:28:37Z</time>
      </trkpt>
      <trkpt lat="28.7378180" lon="-17.7968700">
        <ele>1365.2</ele>
        <time>2020-11-16T10:28:38Z</time>
      </trkpt>
      <trkpt lat="28.7378000" lon="-17.7968850">
        <ele>1365.4</ele>
        <time>2020-11-16T10:28:39Z</time>
      </trkpt>
      <trkpt lat="28.7378000" lon="-17.7968850">
        <ele>1365.4</ele>
        <time>2020-11-16T10:28:40Z</time>
      </trkpt>
      <trkpt lat="28.7377580" lon="-17.7968970">
        <ele>1365.8</ele>
        <time>2020-11-16T10:28:41Z</time>
      </trkpt>
      <trkpt lat="28.7377580" lon="-17.7968970">
        <ele>1365.8</ele>
        <time>2020-11-16T10:28:42Z</time>
      </trkpt>
      <trkpt lat="28.7377170" lon="-17.7968850">
        <ele>1366.1</ele>
        <time>2020-11-16T10:28:43Z</time>
      </trkpt>
      <trkpt lat="28.7377020" lon="-17.7968880">
        <ele>1366.3</ele>
        <time>2020-11-16T10:28:44Z</time>
      </trkpt>
      <trkpt lat="28.7377020" lon="-17.7968880">
        <ele>1366.3</ele>
        <time>2020-11-16T10:28:45Z</time>
      </trkpt>
      <trkpt lat="28.7376670" lon="-17.7968970">
        <ele>1366.6</ele>
        <time>2020-11-16T10:28:46Z</time>
      </trkpt>
      <trkpt lat="28.7376670" lon="-17.7968970">
        <ele>1366.6</ele>
        <time>2020-11-16T10:28:47Z</time>
      </trkpt>
      <trkpt lat="28.7376420" lon="-17.7969180">
        <ele>1366.9</ele>
        <time>2020-11-16T10:28:48Z</time>
      </trkpt>
      <trkpt lat="28.7376420" lon="-17.7969180">
        <ele>1366.9</ele>
        <time>2020-11-16T10:28:49Z</time>
      </trkpt>
      <trkpt lat="28.7376230" lon="-17.7969520">
        <ele>1367.2</ele>
        <time>2020-11-16T10:28:50Z</time>
      </trkpt>
      <trkpt lat="28.7376180" lon="-17.7969670">
        <ele>1367.3</ele>
        <time>2020-11-16T10:28:51Z</time>
      </trkpt>
      <trkpt lat="28.7376180" lon="-17.7969670">
        <ele>1367.3</ele>
        <time>2020-11-16T10:28:52Z</time>
      </trkpt>
      <trkpt lat="28.7376200" lon="-17.7970100">
        <ele>1367.6</ele>
        <time>2020-11-16T10:28:53Z</time>
      </trkpt>
      <trkpt lat="28.7376220" lon="-17.7970270">
        <ele>1367.7</ele>
        <time>2020-11-16T10:28:54Z</time>
      </trkpt>
      <trkpt lat="28.7376120" lon="-17.7970280">
        <ele>1367.8</ele>
        <time>2020-11-16T10:28:55Z</time>
      </trkpt>
      <trkpt lat="28.7376120" lon="-17.7970280">
        <ele>1367.8</ele>
        <time>2020-11-16T10:28:56Z</time>
      </trkpt>
      <trkpt lat="28.7376150" lon="-17.7970550">
        <ele>1368.0</ele>
        <time>2020-11-16T10:28:57Z</time>
      </trkpt>
      <trkpt lat="28.7376150" lon="-17.7970550">
        <ele>1368.0</ele>
        <time>2020-11-16T10:28:58Z</time>
      </trkpt>
      <trkpt lat="28.7376180" lon="-17.7970880">
        <ele>1368.3</ele>
        <time>2020-11-16T10:28:59Z</time>
      </trkpt>
      <trkpt lat="28.7376200" lon="-17.7971170">
        <ele>1368.5</ele>
        <time>2020-11-16T10:29:00Z</time>
      </trkpt>
      <trkpt lat="28.7376180" lon="-17.7971380">
        <ele>1368.7</ele>
        <time>2020-11-16T10:29:01Z</time>
      </trkpt>
      <trkpt lat="28.7376180" lon="-17.7971380">
        <ele>1368.7</ele>
        <time>2020-11-16T10:29:02Z</time>
      </trkpt>
      <trkpt lat="28.7376270" lon="-17.7971870">
        <ele>1369.0</ele>
        <time>2020-11-16T10:29:03Z</time>
      </trkpt>
      <trkpt lat="28.7376270" lon="-17.7971870">
        <ele>1369.0</ele>
        <time>2020-11-16T10:29:04Z</time>
      </trkpt>
      <trkpt lat="28.7376300" lon="-17.7972120">
        <ele>1369.2</ele>
        <time>2020-11-16T10:29:05Z</time>
      </trkpt>
      <trkpt lat="28.7376300" lon="-17.7972120">
        <ele>1369.2</ele>
        <time>2020-11-16T10:29:06Z</time>
      </trkpt>
      <trkpt lat="28.7376480" lon="-17.7972570">
        <ele>1369.6</ele>
        <time>2020-11-16T10:29:07Z</time>
      </trkpt>
      <trkpt lat="28.7376480" lon="-17.7972570">
        <ele>1369.6</ele>
        <time>2020-11-16T10:29:08Z</time>
      </trkpt>
      <trkpt lat="28.7376570" lon="-17.7973180">
        <ele>1370.1</ele>
        <time>2020-11-16T10:29:09Z</time>
      </trkpt>
      <trkpt lat="28.7376570" lon="-17.7973180">
        <ele>1370.1</ele>
        <time>2020-11-16T10:29:10Z</time>
      </trkpt>
      <trkpt lat="28.7376670" lon="-17.7973600">
        <ele>1370.4</ele>
        <time>2020-11-16T10:29:11Z</time>
      </trkpt>
      <trkpt lat="28.7376670" lon="-17.7973600">
        <ele>1370.4</ele>
        <time>2020-11-16T10:29:12Z</time>
      </trkpt>
      <trkpt lat="28.7376820" lon="-17.7973970">
        <ele>1370.7</ele>
        <time>2020-11-16T10:29:13Z</time>
      </trkpt>
      <trkpt lat="28.7376820" lon="-17.7973970">
        <ele>1370.7</ele>
        <time>2020-11-16T10:29:14Z</time>
      </trkpt>
      <trkpt lat="28.7377020" lon="-17.7974750">
        <ele>1371.3</ele>
        <time>2020-11-16T10:29:15Z</time>
      </trkpt>
      <trkpt lat="28.7377170" lon="-17.7975280">
        <ele>1371.8</ele>
        <time>2020-11-16T10:29:16Z</time>
      </trkpt>
      <trkpt lat="28.7377170" lon="-17.7975280">
        <ele>1371.8</ele>
        <time>2020-11-16T10:29:17Z</time>
      </trkpt>
      <trkpt lat="28.7377400" lon="-17.7976170">
        <ele>1372.5</ele>
        <time>2020-11-16T10:29:18Z</time>
      </trkpt>
      <trkpt lat="28.7377400" lon="-17.7976170">
        <ele>1372.9</ele>
        <time>2020-11-16T10:29:19Z</time>
      </trkpt>
      <trkpt lat="28.7377320" lon="-17.7976820">
        <ele>1375.2</ele>
        <time>2020-11-16T10:29:20Z</time>
      </trkpt>
      <trkpt lat="28.7377320" lon="-17.7976820">
        <ele>1375.7</ele>
        <time>2020-11-16T10:29:21Z</time>
      </trkpt>
      <trkpt lat="28.7377130" lon="-17.7977380">
        <ele>1377.0</ele>
        <time>2020-11-16T10:29:22Z</time>
      </trkpt>
      <trkpt lat="28.7377020" lon="-17.7977580">
        <ele>1376.0</ele>
        <time>2020-11-16T10:29:23Z</time>
      </trkpt>
      <trkpt lat="28.7377020" lon="-17.7977580">
        <ele>1376.4</ele>
        <time>2020-11-16T10:29:24Z</time>
      </trkpt>
      <trkpt lat="28.7376750" lon="-17.7977900">
        <ele>1377.8</ele>
        <time>2020-11-16T10:29:25Z</time>
      </trkpt>
      <trkpt lat="28.7376750" lon="-17.7977900">
        <ele>1378.2</ele>
        <time>2020-11-16T10:29:26Z</time>
      </trkpt>
      <trkpt lat="28.7376550" lon="-17.7978120">
        <ele>1378.0</ele>
        <time>2020-11-16T10:29:27Z</time>
      </trkpt>
      <trkpt lat="28.7376550" lon="-17.7978120">
        <ele>1378.5</ele>
        <time>2020-11-16T10:29:28Z</time>
      </trkpt>
      <trkpt lat="28.7376600" lon="-17.7978270">
        <ele>1378.9</ele>
        <time>2020-11-16T10:29:29Z</time>
      </trkpt>
      <trkpt lat="28.7376600" lon="-17.7978270">
        <ele>1379.3</ele>
        <time>2020-11-16T10:29:30Z</time>
      </trkpt>
      <trkpt lat="28.7376630" lon="-17.7978280">
        <ele>1379.8</ele>
        <time>2020-11-16T10:29:31Z</time>
      </trkpt>
      <trkpt lat="28.7376630" lon="-17.7978280">
        <ele>1380.2</ele>
        <time>2020-11-16T10:29:32Z</time>
      </trkpt>
      <trkpt lat="28.7376630" lon="-17.7978280">
        <ele>1380.7</ele>
        <time>2020-11-16T10:29:33Z</time>
      </trkpt>
      <trkpt lat="28.7376630" lon="-17.7978280">
        <ele>1381.1</ele>
        <time>2020-11-16T10:29:46Z</time>
      </trkpt>
      <trkpt lat="28.7376480" lon="-17.7978180">
        <ele>1381.5</ele>
        <time>2020-11-16T10:29:47Z</time>
      </trkpt>
      <trkpt lat="28.7376380" lon="-17.7977980">
        <ele>1381.1</ele>
        <time>2020-11-16T10:29:48Z</time>
      </trkpt>
      <trkpt lat="28.7376380" lon="-17.7977980">
        <ele>1381.5</ele>
        <time>2020-11-16T10:29:49Z</time>
      </trkpt>
      <trkpt lat="28.7376300" lon="-17.7977830">
        <ele>1380.4</ele>
        <time>2020-11-16T10:32:26Z</time>
      </trkpt>
      <trkpt lat="28.7375280" lon="-17.7978680">
        <ele>1379.9</ele>
        <time>2020-11-16T10:32:27Z</time>
      </trkpt>
      <trkpt lat="28.7375120" lon="-17.7978750">
        <ele>1378.8</ele>
        <time>2020-11-16T10:32:28Z</time>
      </trkpt>
      <trkpt lat="28.7375120" lon="-17.7978750">
        <ele>1379.3</ele>
        <time>2020-11-16T10:32:29Z</time>
      </trkpt>
      <trkpt lat="28.7374820" lon="-17.7978820">
        <ele>1378.2</ele>
        <time>2020-11-16T10:32:30Z</time>
      </trkpt>
      <trkpt lat="28.7374820" lon="-17.7978820">
        <ele>1378.6</ele>
        <time>2020-11-16T10:32:31Z</time>
      </trkpt>
      <trkpt lat="28.7374520" lon="-17.7979100">
        <ele>1379.8</ele>
        <time>2020-11-16T10:32:32Z</time>
      </trkpt>
      <trkpt lat="28.7374520" lon="-17.7979100">
        <ele>1380.2</ele>
        <time>2020-11-16T10:32:33Z</time>
      </trkpt>
      <trkpt lat="28.7374220" lon="-17.7979280">
        <ele>1379.1</ele>
        <time>2020-11-16T10:32:34Z</time>
      </trkpt>
      <trkpt lat="28.7374220" lon="-17.7979280">
        <ele>1379.6</ele>
        <time>2020-11-16T10:32:35Z</time>
      </trkpt>
      <trkpt lat="28.7373920" lon="-17.7979520">
        <ele>1379.0</ele>
        <time>2020-11-16T10:32:36Z</time>
      </trkpt>
      <trkpt lat="28.7373920" lon="-17.7979520">
        <ele>1379.4</ele>
        <time>2020-11-16T10:32:37Z</time>
      </trkpt>
      <trkpt lat="28.7373650" lon="-17.7979830">
        <ele>1378.6</ele>
        <time>2020-11-16T10:32:38Z</time>
      </trkpt>
      <trkpt lat="28.7373650" lon="-17.7979830">
        <ele>1379.1</ele>
        <time>2020-11-16T10:32:39Z</time>
      </trkpt>
      <trkpt lat="28.7373430" lon="-17.7980270">
        <ele>1379.8</ele>
        <time>2020-11-16T10:32:40Z</time>
      </trkpt>
      <trkpt lat="28.7373430" lon="-17.7980270">
        <ele>1379.8</ele>
        <time>2020-11-16T10:32:41Z</time>
      </trkpt>
      <trkpt lat="28.7373150" lon="-17.7980580">
        <ele>1380.1</ele>
        <time>2020-11-16T10:32:42Z</time>
      </trkpt>
      <trkpt lat="28.7373150" lon="-17.7980580">
        <ele>1380.1</ele>
        <time>2020-11-16T10:32:43Z</time>
      </trkpt>
      <trkpt lat="28.7372920" lon="-17.7980980">
        <ele>1380.3</ele>
        <time>2020-11-16T10:32:44Z</time>
      </trkpt>
      <trkpt lat="28.7372920" lon="-17.7980980">
        <ele>1380.3</ele>
        <time>2020-11-16T10:32:45Z</time>
      </trkpt>
      <trkpt lat="28.7372720" lon="-17.7981330">
        <ele>1380.5</ele>
        <time>2020-11-16T10:32:46Z</time>
      </trkpt>
      <trkpt lat="28.7372530" lon="-17.7981420">
        <ele>1380.7</ele>
        <time>2020-11-16T10:32:47Z</time>
      </trkpt>
      <trkpt lat="28.7372530" lon="-17.7981420">
        <ele>1380.7</ele>
        <time>2020-11-16T10:32:48Z</time>
      </trkpt>
      <trkpt lat="28.7372220" lon="-17.7981670">
        <ele>1380.9</ele>
        <time>2020-11-16T10:32:49Z</time>
      </trkpt>
      <trkpt lat="28.7372220" lon="-17.7981670">
        <ele>1380.9</ele>
        <time>2020-11-16T10:32:50Z</time>
      </trkpt>
      <trkpt lat="28.7371880" lon="-17.7981830">
        <ele>1381.1</ele>
        <time>2020-11-16T10:32:51Z</time>
      </trkpt>
      <trkpt lat="28.7371880" lon="-17.7981830">
        <ele>1381.1</ele>
        <time>2020-11-16T10:32:52Z</time>
      </trkpt>
      <trkpt lat="28.7371580" lon="-17.7982020">
        <ele>1381.4</ele>
        <time>2020-11-16T10:32:53Z</time>
      </trkpt>
      <trkpt lat="28.7371580" lon="-17.7982020">
        <ele>1381.4</ele>
        <time>2020-11-16T10:32:54Z</time>
      </trkpt>
      <trkpt lat="28.7371380" lon="-17.7982270">
        <ele>1381.5</ele>
        <time>2020-11-16T10:32:55Z</time>
      </trkpt>
      <trkpt lat="28.7371380" lon="-17.7982270">
        <ele>1381.5</ele>
        <time>2020-11-16T10:32:56Z</time>
      </trkpt>
      <trkpt lat="28.7371150" lon="-17.7982520">
        <ele>1381.7</ele>
        <time>2020-11-16T10:32:57Z</time>
      </trkpt>
      <trkpt lat="28.7371130" lon="-17.7982700">
        <ele>1381.8</ele>
        <time>2020-11-16T10:32:58Z</time>
      </trkpt>
      <trkpt lat="28.7371130" lon="-17.7982700">
        <ele>1381.8</ele>
        <time>2020-11-16T10:32:59Z</time>
      </trkpt>
      <trkpt lat="28.7371050" lon="-17.7982950">
        <ele>1382.0</ele>
        <time>2020-11-16T10:33:00Z</time>
      </trkpt>
      <trkpt lat="28.7371050" lon="-17.7982950">
        <ele>1382.0</ele>
        <time>2020-11-16T10:33:01Z</time>
      </trkpt>
      <trkpt lat="28.7371120" lon="-17.7983350">
        <ele>1382.2</ele>
        <time>2020-11-16T10:33:02Z</time>
      </trkpt>
      <trkpt lat="28.7371120" lon="-17.7983350">
        <ele>1382.2</ele>
        <time>2020-11-16T10:33:03Z</time>
      </trkpt>
      <trkpt lat="28.7371280" lon="-17.7983620">
        <ele>1382.4</ele>
        <time>2020-11-16T10:33:04Z</time>
      </trkpt>
      <trkpt lat="28.7371280" lon="-17.7983620">
        <ele>1382.4</ele>
        <time>2020-11-16T10:33:05Z</time>
      </trkpt>
      <trkpt lat="28.7371430" lon="-17.7983880">
        <ele>1382.6</ele>
        <time>2020-11-16T10:33:06Z</time>
      </trkpt>
      <trkpt lat="28.7371600" lon="-17.7984000">
        <ele>1382.7</ele>
        <time>2020-11-16T10:33:07Z</time>
      </trkpt>
      <trkpt lat="28.7371600" lon="-17.7984000">
        <ele>1382.7</ele>
        <time>2020-11-16T10:33:08Z</time>
      </trkpt>
      <trkpt lat="28.7371900" lon="-17.7984130">
        <ele>1382.9</ele>
        <time>2020-11-16T10:33:09Z</time>
      </trkpt>
      <trkpt lat="28.7371900" lon="-17.7984130">
        <ele>1382.9</ele>
        <time>2020-11-16T10:33:10Z</time>
      </trkpt>
      <trkpt lat="28.7372150" lon="-17.7984030">
        <ele>1383.1</ele>
        <time>2020-11-16T10:33:11Z</time>
      </trkpt>
      <trkpt lat="28.7372150" lon="-17.7984030">
        <ele>1383.1</ele>
        <time>2020-11-16T10:33:12Z</time>
      </trkpt>
      <trkpt lat="28.7372370" lon="-17.7983870">
        <ele>1383.2</ele>
        <time>2020-11-16T10:33:13Z</time>
      </trkpt>
      <trkpt lat="28.7372420" lon="-17.7983650">
        <ele>1383.3</ele>
        <time>2020-11-16T10:33:14Z</time>
      </trkpt>
      <trkpt lat="28.7372420" lon="-17.7983650">
        <ele>1383.3</ele>
        <time>2020-11-16T10:33:15Z</time>
      </trkpt>
      <trkpt lat="28.7372600" lon="-17.7983300">
        <ele>1383.6</ele>
        <time>2020-11-16T10:33:16Z</time>
      </trkpt>
      <trkpt lat="28.7372600" lon="-17.7983300">
        <ele>1383.6</ele>
        <time>2020-11-16T10:33:17Z</time>
      </trkpt>
      <trkpt lat="28.7372820" lon="-17.7983000">
        <ele>1383.8</ele>
        <time>2020-11-16T10:33:18Z</time>
      </trkpt>
      <trkpt lat="28.7372820" lon="-17.7983000">
        <ele>1383.8</ele>
        <time>2020-11-16T10:33:19Z</time>
      </trkpt>
      <trkpt lat="28.7373100" lon="-17.7982820">
        <ele>1384.0</ele>
        <time>2020-11-16T10:33:20Z</time>
      </trkpt>
      <trkpt lat="28.7373100" lon="-17.7982820">
        <ele>1384.0</ele>
        <time>2020-11-16T10:33:21Z</time>
      </trkpt>
      <trkpt lat="28.7373280" lon="-17.7982530">
        <ele>1384.2</ele>
        <time>2020-11-16T10:33:22Z</time>
      </trkpt>
      <trkpt lat="28.7373350" lon="-17.7982380">
        <ele>1384.3</ele>
        <time>2020-11-16T10:33:23Z</time>
      </trkpt>
      <trkpt lat="28.7373400" lon="-17.7982200">
        <ele>1384.4</ele>
        <time>2020-11-16T10:33:24Z</time>
      </trkpt>
      <trkpt lat="28.7373400" lon="-17.7982200">
        <ele>1384.4</ele>
        <time>2020-11-16T10:33:25Z</time>
      </trkpt>
      <trkpt lat="28.7373670" lon="-17.7981870">
        <ele>1384.6</ele>
        <time>2020-11-16T10:33:26Z</time>
      </trkpt>
      <trkpt lat="28.7373670" lon="-17.7981870">
        <ele>1384.6</ele>
        <time>2020-11-16T10:33:27Z</time>
      </trkpt>
      <trkpt lat="28.7373980" lon="-17.7981450">
        <ele>1384.9</ele>
        <time>2020-11-16T10:33:28Z</time>
      </trkpt>
      <trkpt lat="28.7373980" lon="-17.7981450">
        <ele>1384.9</ele>
        <time>2020-11-16T10:33:29Z</time>
      </trkpt>
      <trkpt lat="28.7374250" lon="-17.7981170">
        <ele>1385.1</ele>
        <time>2020-11-16T10:33:30Z</time>
      </trkpt>
      <trkpt lat="28.7374250" lon="-17.7981170">
        <ele>1385.1</ele>
        <time>2020-11-16T10:33:31Z</time>
      </trkpt>
      <trkpt lat="28.7374530" lon="-17.7981000">
        <ele>1385.3</ele>
        <time>2020-11-16T10:33:32Z</time>
      </trkpt>
      <trkpt lat="28.7374530" lon="-17.7981000">
        <ele>1385.3</ele>
        <time>2020-11-16T10:33:33Z</time>
      </trkpt>
      <trkpt lat="28.7374830" lon="-17.7980880">
        <ele>1385.5</ele>
        <time>2020-11-16T10:33:34Z</time>
      </trkpt>
      <trkpt lat="28.7374830" lon="-17.7980880">
        <ele>1385.5</ele>
        <time>2020-11-16T10:33:35Z</time>
      </trkpt>
      <trkpt lat="28.7375150" lon="-17.7980720">
        <ele>1385.8</ele>
        <time>2020-11-16T10:33:36Z</time>
      </trkpt>
      <trkpt lat="28.7375320" lon="-17.7980680">
        <ele>1385.9</ele>
        <time>2020-11-16T10:33:37Z</time>
      </trkpt>
      <trkpt lat="28.7375450" lon="-17.7980620">
        <ele>1386.0</ele>
        <time>2020-11-16T10:33:38Z</time>
      </trkpt>
      <trkpt lat="28.7375450" lon="-17.7980620">
        <ele>1386.0</ele>
        <time>2020-11-16T10:33:39Z</time>
      </trkpt>
      <trkpt lat="28.7375750" lon="-17.7980380">
        <ele>1386.2</ele>
        <time>2020-11-16T10:33:40Z</time>
      </trkpt>
      <trkpt lat="28.7375920" lon="-17.7980250">
        <ele>1386.3</ele>
        <time>2020-11-16T10:33:41Z</time>
      </trkpt>
      <trkpt lat="28.7375920" lon="-17.7980250">
        <ele>1386.3</ele>
        <time>2020-11-16T10:33:42Z</time>
      </trkpt>
      <trkpt lat="28.7376250" lon="-17.7980070">
        <ele>1386.5</ele>
        <time>2020-11-16T10:33:43Z</time>
      </trkpt>
      <trkpt lat="28.7376250" lon="-17.7980070">
        <ele>1386.5</ele>
        <time>2020-11-16T10:33:44Z</time>
      </trkpt>
      <trkpt lat="28.7376550" lon="-17.7979870">
        <ele>1386.8</ele>
        <time>2020-11-16T10:33:45Z</time>
      </trkpt>
      <trkpt lat="28.7376720" lon="-17.7979780">
        <ele>1386.9</ele>
        <time>2020-11-16T10:33:46Z</time>
      </trkpt>
      <trkpt lat="28.7376720" lon="-17.7979780">
        <ele>1386.9</ele>
        <time>2020-11-16T10:33:47Z</time>
      </trkpt>
      <trkpt lat="28.7377070" lon="-17.7979620">
        <ele>1387.1</ele>
        <time>2020-11-16T10:33:48Z</time>
      </trkpt>
      <trkpt lat="28.7377230" lon="-17.7979520">
        <ele>1387.2</ele>
        <time>2020-11-16T10:33:49Z</time>
      </trkpt>
      <trkpt lat="28.7377430" lon="-17.7979480">
        <ele>1387.4</ele>
        <time>2020-11-16T10:33:50Z</time>
      </trkpt>
      <trkpt lat="28.7377430" lon="-17.7979480">
        <ele>1387.4</ele>
        <time>2020-11-16T10:33:51Z</time>
      </trkpt>
      <trkpt lat="28.7377700" lon="-17.7979280">
        <ele>1387.6</ele>
        <time>2020-11-16T10:33:52Z</time>
      </trkpt>
      <trkpt lat="28.7377870" lon="-17.7979250">
        <ele>1387.7</ele>
        <time>2020-11-16T10:33:53Z</time>
      </trkpt>
      <trkpt lat="28.7377870" lon="-17.7979250">
        <ele>1387.7</ele>
        <time>2020-11-16T10:33:54Z</time>
      </trkpt>
      <trkpt lat="28.7378120" lon="-17.7979000">
        <ele>1387.9</ele>
        <time>2020-11-16T10:33:55Z</time>
      </trkpt>
      <trkpt lat="28.7378120" lon="-17.7979000">
        <ele>1387.9</ele>
        <time>2020-11-16T10:33:56Z</time>
      </trkpt>
      <trkpt lat="28.7378380" lon="-17.7978820">
        <ele>1388.1</ele>
        <time>2020-11-16T10:33:57Z</time>
      </trkpt>
      <trkpt lat="28.7378380" lon="-17.7978820">
        <ele>1388.1</ele>
        <time>2020-11-16T10:33:58Z</time>
      </trkpt>
      <trkpt lat="28.7378900" lon="-17.7978620">
        <ele>1388.4</ele>
        <time>2020-11-16T10:33:59Z</time>
      </trkpt>
      <trkpt lat="28.7378900" lon="-17.7978620">
        <ele>1388.4</ele>
        <time>2020-11-16T10:34:00Z</time>
      </trkpt>
      <trkpt lat="28.7379270" lon="-17.7978370">
        <ele>1388.7</ele>
        <time>2020-11-16T10:34:01Z</time>
      </trkpt>
      <trkpt lat="28.7379420" lon="-17.7978300">
        <ele>1388.8</ele>
        <time>2020-11-16T10:34:02Z</time>
      </trkpt>
      <trkpt lat="28.7379420" lon="-17.7978300">
        <ele>1388.8</ele>
        <time>2020-11-16T10:34:03Z</time>
      </trkpt>
      <trkpt lat="28.7379600" lon="-17.7978120">
        <ele>1388.9</ele>
        <time>2020-11-16T10:34:04Z</time>
      </trkpt>
      <trkpt lat="28.7379650" lon="-17.7978030">
        <ele>1389.0</ele>
        <time>2020-11-16T10:34:05Z</time>
      </trkpt>
      <trkpt lat="28.7379720" lon="-17.7977920">
        <ele>1389.1</ele>
        <time>2020-11-16T10:34:06Z</time>
      </trkpt>
      <trkpt lat="28.7379720" lon="-17.7977920">
        <ele>1389.1</ele>
        <time>2020-11-16T10:34:07Z</time>
      </trkpt>
      <trkpt lat="28.7379780" lon="-17.7977600">
        <ele>1389.2</ele>
        <time>2020-11-16T10:34:08Z</time>
      </trkpt>
      <trkpt lat="28.7379780" lon="-17.7977600">
        <ele>1389.2</ele>
        <time>2020-11-16T10:34:09Z</time>
      </trkpt>
      <trkpt lat="28.7379730" lon="-17.7977200">
        <ele>1389.5</ele>
        <time>2020-11-16T10:34:10Z</time>
      </trkpt>
      <trkpt lat="28.7379750" lon="-17.7977070">
        <ele>1389.5</ele>
        <time>2020-11-16T10:34:11Z</time>
      </trkpt>
      <trkpt lat="28.7379750" lon="-17.7977070">
        <ele>1389.5</ele>
        <time>2020-11-16T10:34:12Z</time>
      </trkpt>
      <trkpt lat="28.7379750" lon="-17.7976830">
        <ele>1389.7</ele>
        <time>2020-11-16T10:34:13Z</time>
      </trkpt>
      <trkpt lat="28.7379750" lon="-17.7976830">
        <ele>1389.7</ele>
        <time>2020-11-16T10:34:14Z</time>
      </trkpt>
      <trkpt lat="28.7379600" lon="-17.7976480">
        <ele>1389.9</ele>
        <time>2020-11-16T10:34:15Z</time>
      </trkpt>
      <trkpt lat="28.7379550" lon="-17.7976320">
        <ele>1390.0</ele>
        <time>2020-11-16T10:34:16Z</time>
      </trkpt>
      <trkpt lat="28.7379550" lon="-17.7976320">
        <ele>1390.0</ele>
        <time>2020-11-16T10:34:17Z</time>
      </trkpt>
      <trkpt lat="28.7379500" lon="-17.7975970">
        <ele>1390.2</ele>
        <time>2020-11-16T10:34:18Z</time>
      </trkpt>
      <trkpt lat="28.7379550" lon="-17.7975770">
        <ele>1390.3</ele>
        <time>2020-11-16T10:34:19Z</time>
      </trkpt>
      <trkpt lat="28.7379570" lon="-17.7975570">
        <ele>1390.4</ele>
        <time>2020-11-16T10:34:20Z</time>
      </trkpt>
      <trkpt lat="28.7379570" lon="-17.7975570">
        <ele>1390.4</ele>
        <time>2020-11-16T10:34:21Z</time>
      </trkpt>
      <trkpt lat="28.7379500" lon="-17.7975170">
        <ele>1390.6</ele>
        <time>2020-11-16T10:34:22Z</time>
      </trkpt>
      <trkpt lat="28.7379500" lon="-17.7975170">
        <ele>1390.6</ele>
        <time>2020-11-16T10:34:23Z</time>
      </trkpt>
      <trkpt lat="28.7379670" lon="-17.7974720">
        <ele>1390.9</ele>
        <time>2020-11-16T10:34:24Z</time>
      </trkpt>
      <trkpt lat="28.7379750" lon="-17.7974500">
        <ele>1391.0</ele>
        <time>2020-11-16T10:34:25Z</time>
      </trkpt>
      <trkpt lat="28.7379850" lon="-17.7974320">
        <ele>1391.1</ele>
        <time>2020-11-16T10:34:26Z</time>
      </trkpt>
      <trkpt lat="28.7379850" lon="-17.7974320">
        <ele>1391.1</ele>
        <time>2020-11-16T10:34:27Z</time>
      </trkpt>
      <trkpt lat="28.7380020" lon="-17.7973930">
        <ele>1391.4</ele>
        <time>2020-11-16T10:34:28Z</time>
      </trkpt>
      <trkpt lat="28.7380020" lon="-17.7973930">
        <ele>1391.4</ele>
        <time>2020-11-16T10:34:29Z</time>
      </trkpt>
      <trkpt lat="28.7380200" lon="-17.7973250">
        <ele>1391.8</ele>
        <time>2020-11-16T10:34:30Z</time>
      </trkpt>
      <trkpt lat="28.7380200" lon="-17.7973250">
        <ele>1391.8</ele>
        <time>2020-11-16T10:34:31Z</time>
      </trkpt>
      <trkpt lat="28.7380280" lon="-17.7972720">
        <ele>1392.1</ele>
        <time>2020-11-16T10:34:32Z</time>
      </trkpt>
      <trkpt lat="28.7380280" lon="-17.7972720">
        <ele>1392.1</ele>
        <time>2020-11-16T10:34:33Z</time>
      </trkpt>
      <trkpt lat="28.7380530" lon="-17.7972630">
        <ele>1392.2</ele>
        <time>2020-11-16T10:34:34Z</time>
      </trkpt>
      <trkpt lat="28.7380800" lon="-17.7972600">
        <ele>1392.4</ele>
        <time>2020-11-16T10:34:35Z</time>
      </trkpt>
      <trkpt lat="28.7380800" lon="-17.7972600">
        <ele>1392.4</ele>
        <time>2020-11-16T10:34:36Z</time>
      </trkpt>
      <trkpt lat="28.7381130" lon="-17.7972450">
        <ele>1392.6</ele>
        <time>2020-11-16T10:34:37Z</time>
      </trkpt>
      <trkpt lat="28.7381330" lon="-17.7972270">
        <ele>1392.8</ele>
        <time>2020-11-16T10:34:38Z</time>
      </trkpt>
      <trkpt lat="28.7381330" lon="-17.7972270">
        <ele>1392.8</ele>
        <time>2020-11-16T10:34:39Z</time>
      </trkpt>
      <trkpt lat="28.7381620" lon="-17.7971950">
        <ele>1393.0</ele>
        <time>2020-11-16T10:34:40Z</time>
      </trkpt>
      <trkpt lat="28.7381770" lon="-17.7971820">
        <ele>1393.1</ele>
        <time>2020-11-16T10:34:41Z</time>
      </trkpt>
      <trkpt lat="28.7381770" lon="-17.7971820">
        <ele>1393.1</ele>
        <time>2020-11-16T10:34:42Z</time>
      </trkpt>
      <trkpt lat="28.7382030" lon="-17.7971620">
        <ele>1393.3</ele>
        <time>2020-11-16T10:34:43Z</time>
      </trkpt>
      <trkpt lat="28.7382030" lon="-17.7971620">
        <ele>1393.3</ele>
        <time>2020-11-16T10:34:44Z</time>
      </trkpt>
      <trkpt lat="28.7382270" lon="-17.7971470">
        <ele>1393.5</ele>
        <time>2020-11-16T10:34:45Z</time>
      </trkpt>
      <trkpt lat="28.7382270" lon="-17.7971470">
        <ele>1393.5</ele>
        <time>2020-11-16T10:34:46Z</time>
      </trkpt>
      <trkpt lat="28.7382550" lon="-17.7971200">
        <ele>1393.7</ele>
        <time>2020-11-16T10:34:47Z</time>
      </trkpt>
      <trkpt lat="28.7382550" lon="-17.7971200">
        <ele>1393.7</ele>
        <time>2020-11-16T10:34:48Z</time>
      </trkpt>
      <trkpt lat="28.7382930" lon="-17.7971050">
        <ele>1394.0</ele>
        <time>2020-11-16T10:34:49Z</time>
      </trkpt>
      <trkpt lat="28.7382930" lon="-17.7971050">
        <ele>1394.0</ele>
        <time>2020-11-16T10:34:50Z</time>
      </trkpt>
      <trkpt lat="28.7383180" lon="-17.7970780">
        <ele>1394.2</ele>
        <time>2020-11-16T10:34:51Z</time>
      </trkpt>
      <trkpt lat="28.7383180" lon="-17.7970780">
        <ele>1394.2</ele>
        <time>2020-11-16T10:34:52Z</time>
      </trkpt>
      <trkpt lat="28.7383380" lon="-17.7970430">
        <ele>1394.4</ele>
        <time>2020-11-16T10:34:53Z</time>
      </trkpt>
      <trkpt lat="28.7383480" lon="-17.7970330">
        <ele>1394.5</ele>
        <time>2020-11-16T10:34:54Z</time>
      </trkpt>
      <trkpt lat="28.7383480" lon="-17.7970330">
        <ele>1394.5</ele>
        <time>2020-11-16T10:34:55Z</time>
      </trkpt>
      <trkpt lat="28.7383700" lon="-17.7970000">
        <ele>1394.8</ele>
        <time>2020-11-16T10:34:56Z</time>
      </trkpt>
      <trkpt lat="28.7383820" lon="-17.7969800">
        <ele>1394.9</ele>
        <time>2020-11-16T10:34:57Z</time>
      </trkpt>
      <trkpt lat="28.7383820" lon="-17.7969800">
        <ele>1394.9</ele>
        <time>2020-11-16T10:34:58Z</time>
      </trkpt>
      <trkpt lat="28.7384050" lon="-17.7969350">
        <ele>1395.2</ele>
        <time>2020-11-16T10:34:59Z</time>
      </trkpt>
      <trkpt lat="28.7384050" lon="-17.7969350">
        <ele>1395.2</ele>
        <time>2020-11-16T10:35:00Z</time>
      </trkpt>
      <trkpt lat="28.7384300" lon="-17.7968900">
        <ele>1395.5</ele>
        <time>2020-11-16T10:35:01Z</time>
      </trkpt>
      <trkpt lat="28.7384300" lon="-17.7968900">
        <ele>1395.5</ele>
        <time>2020-11-16T10:35:02Z</time>
      </trkpt>
      <trkpt lat="28.7384550" lon="-17.7968470">
        <ele>1395.7</ele>
        <time>2020-11-16T10:35:03Z</time>
      </trkpt>
      <trkpt lat="28.7384550" lon="-17.7968470">
        <ele>1395.7</ele>
        <time>2020-11-16T10:35:04Z</time>
      </trkpt>
      <trkpt lat="28.7384770" lon="-17.7968150">
        <ele>1396.0</ele>
        <time>2020-11-16T10:35:05Z</time>
      </trkpt>
      <trkpt lat="28.7384770" lon="-17.7968150">
        <ele>1396.0</ele>
        <time>2020-11-16T10:35:06Z</time>
      </trkpt>
      <trkpt lat="28.7384950" lon="-17.7967900">
        <ele>1396.1</ele>
        <time>2020-11-16T10:35:07Z</time>
      </trkpt>
      <trkpt lat="28.7385030" lon="-17.7967800">
        <ele>1396.2</ele>
        <time>2020-11-16T10:35:08Z</time>
      </trkpt>
      <trkpt lat="28.7385030" lon="-17.7967800">
        <ele>1396.2</ele>
        <time>2020-11-16T10:35:09Z</time>
      </trkpt>
      <trkpt lat="28.7385280" lon="-17.7967520">
        <ele>1396.4</ele>
        <time>2020-11-16T10:35:10Z</time>
      </trkpt>
      <trkpt lat="28.7385430" lon="-17.7967400">
        <ele>1396.6</ele>
        <time>2020-11-16T10:35:11Z</time>
      </trkpt>
      <trkpt lat="28.7385430" lon="-17.7967400">
        <ele>1396.6</ele>
        <time>2020-11-16T10:35:12Z</time>
      </trkpt>
      <trkpt lat="28.7385780" lon="-17.7967250">
        <ele>1396.8</ele>
        <time>2020-11-16T10:35:13Z</time>
      </trkpt>
      <trkpt lat="28.7385780" lon="-17.7967250">
        <ele>1396.8</ele>
        <time>2020-11-16T10:35:14Z</time>
      </trkpt>
      <trkpt lat="28.7386080" lon="-17.7967250">
        <ele>1397.0</ele>
        <time>2020-11-16T10:35:15Z</time>
      </trkpt>
      <trkpt lat="28.7386080" lon="-17.7967250">
        <ele>1397.0</ele>
        <time>2020-11-16T10:35:16Z</time>
      </trkpt>
      <trkpt lat="28.7386450" lon="-17.7967600">
        <ele>1397.3</ele>
        <time>2020-11-16T10:35:17Z</time>
      </trkpt>
      <trkpt lat="28.7386450" lon="-17.7967600">
        <ele>1397.3</ele>
        <time>2020-11-16T10:35:18Z</time>
      </trkpt>
      <trkpt lat="28.7386680" lon="-17.7967970">
        <ele>1397.5</ele>
        <time>2020-11-16T10:35:19Z</time>
      </trkpt>
      <trkpt lat="28.7386680" lon="-17.7967970">
        <ele>1397.5</ele>
        <time>2020-11-16T10:35:20Z</time>
      </trkpt>
      <trkpt lat="28.7386850" lon="-17.7968270">
        <ele>1397.7</ele>
        <time>2020-11-16T10:35:21Z</time>
      </trkpt>
      <trkpt lat="28.7386850" lon="-17.7968270">
        <ele>1397.7</ele>
        <time>2020-11-16T10:35:22Z</time>
      </trkpt>
      <trkpt lat="28.7387030" lon="-17.7968550">
        <ele>1397.9</ele>
        <time>2020-11-16T10:35:23Z</time>
      </trkpt>
      <trkpt lat="28.7387120" lon="-17.7968670">
        <ele>1398.0</ele>
        <time>2020-11-16T10:35:24Z</time>
      </trkpt>
      <trkpt lat="28.7387120" lon="-17.7968670">
        <ele>1398.0</ele>
        <time>2020-11-16T10:35:25Z</time>
      </trkpt>
      <trkpt lat="28.7387270" lon="-17.7968930">
        <ele>1398.2</ele>
        <time>2020-11-16T10:35:26Z</time>
      </trkpt>
      <trkpt lat="28.7387270" lon="-17.7968930">
        <ele>1398.2</ele>
        <time>2020-11-16T10:35:27Z</time>
      </trkpt>
      <trkpt lat="28.7387430" lon="-17.7969130">
        <ele>1398.3</ele>
        <time>2020-11-16T10:35:28Z</time>
      </trkpt>
      <trkpt lat="28.7387430" lon="-17.7969130">
        <ele>1398.3</ele>
        <time>2020-11-16T10:35:29Z</time>
      </trkpt>
      <trkpt lat="28.7387630" lon="-17.7969400">
        <ele>1398.3</ele>
        <time>2020-11-16T10:35:30Z</time>
      </trkpt>
      <trkpt lat="28.7387630" lon="-17.7969400">
        <ele>1398.3</ele>
        <time>2020-11-16T10:35:31Z</time>
      </trkpt>
      <trkpt lat="28.7387820" lon="-17.7969670">
        <ele>1398.3</ele>
        <time>2020-11-16T10:35:32Z</time>
      </trkpt>
      <trkpt lat="28.7387820" lon="-17.7969670">
        <ele>1398.3</ele>
        <time>2020-11-16T10:35:33Z</time>
      </trkpt>
      <trkpt lat="28.7387920" lon="-17.7969970">
        <ele>1398.3</ele>
        <time>2020-11-16T10:35:34Z</time>
      </trkpt>
      <trkpt lat="28.7388030" lon="-17.7970150">
        <ele>1398.3</ele>
        <time>2020-11-16T10:35:35Z</time>
      </trkpt>
      <trkpt lat="28.7388030" lon="-17.7970150">
        <ele>1398.3</ele>
        <time>2020-11-16T10:35:36Z</time>
      </trkpt>
      <trkpt lat="28.7388170" lon="-17.7970380">
        <ele>1398.4</ele>
        <time>2020-11-16T10:35:37Z</time>
      </trkpt>
      <trkpt lat="28.7388250" lon="-17.7970550">
        <ele>1398.4</ele>
        <time>2020-11-16T10:35:38Z</time>
      </trkpt>
      <trkpt lat="28.7388250" lon="-17.7970550">
        <ele>1398.4</ele>
        <time>2020-11-16T10:35:39Z</time>
      </trkpt>
      <trkpt lat="28.7388330" lon="-17.7970880">
        <ele>1398.5</ele>
        <time>2020-11-16T10:35:40Z</time>
      </trkpt>
      <trkpt lat="28.7388330" lon="-17.7970880">
        <ele>1398.5</ele>
        <time>2020-11-16T10:35:41Z</time>
      </trkpt>
      <trkpt lat="28.7388380" lon="-17.7971220">
        <ele>1398.6</ele>
        <time>2020-11-16T10:35:42Z</time>
      </trkpt>
      <trkpt lat="28.7388380" lon="-17.7971220">
        <ele>1398.6</ele>
        <time>2020-11-16T10:35:43Z</time>
      </trkpt>
      <trkpt lat="28.7388470" lon="-17.7971650">
        <ele>1398.7</ele>
        <time>2020-11-16T10:35:44Z</time>
      </trkpt>
      <trkpt lat="28.7388520" lon="-17.7971880">
        <ele>1398.8</ele>
        <time>2020-11-16T10:35:45Z</time>
      </trkpt>
      <trkpt lat="28.7388520" lon="-17.7971880">
        <ele>1398.8</ele>
        <time>2020-11-16T10:35:46Z</time>
      </trkpt>
      <trkpt lat="28.7388680" lon="-17.7972180">
        <ele>1398.9</ele>
        <time>2020-11-16T10:35:47Z</time>
      </trkpt>
      <trkpt lat="28.7388820" lon="-17.7972380">
        <ele>1398.9</ele>
        <time>2020-11-16T10:35:48Z</time>
      </trkpt>
      <trkpt lat="28.7388820" lon="-17.7972380">
        <ele>1398.9</ele>
        <time>2020-11-16T10:35:49Z</time>
      </trkpt>
      <trkpt lat="28.7388950" lon="-17.7972820">
        <ele>1399.1</ele>
        <time>2020-11-16T10:35:50Z</time>
      </trkpt>
      <trkpt lat="28.7388980" lon="-17.7972970">
        <ele>1399.1</ele>
        <time>2020-11-16T10:35:51Z</time>
      </trkpt>
      <trkpt lat="28.7388980" lon="-17.7972970">
        <ele>1399.1</ele>
        <time>2020-11-16T10:35:52Z</time>
      </trkpt>
      <trkpt lat="28.7389230" lon="-17.7973380">
        <ele>1399.3</ele>
        <time>2020-11-16T10:35:53Z</time>
      </trkpt>
      <trkpt lat="28.7389230" lon="-17.7973380">
        <ele>1399.3</ele>
        <time>2020-11-16T10:35:54Z</time>
      </trkpt>
      <trkpt lat="28.7389370" lon="-17.7973800">
        <ele>1399.4</ele>
        <time>2020-11-16T10:35:55Z</time>
      </trkpt>
      <trkpt lat="28.7389400" lon="-17.7974000">
        <ele>1399.5</ele>
        <time>2020-11-16T10:35:56Z</time>
      </trkpt>
      <trkpt lat="28.7389400" lon="-17.7974000">
        <ele>1399.5</ele>
        <time>2020-11-16T10:35:57Z</time>
      </trkpt>
      <trkpt lat="28.7389500" lon="-17.7974230">
        <ele>1399.6</ele>
        <time>2020-11-16T10:35:58Z</time>
      </trkpt>
      <trkpt lat="28.7389500" lon="-17.7974230">
        <ele>1399.6</ele>
        <time>2020-11-16T10:35:59Z</time>
      </trkpt>
      <trkpt lat="28.7389550" lon="-17.7974500">
        <ele>1399.7</ele>
        <time>2020-11-16T10:36:00Z</time>
      </trkpt>
      <trkpt lat="28.7389580" lon="-17.7974630">
        <ele>1399.8</ele>
        <time>2020-11-16T10:36:01Z</time>
      </trkpt>
      <trkpt lat="28.7389580" lon="-17.7974630">
        <ele>1399.8</ele>
        <time>2020-11-16T10:36:02Z</time>
      </trkpt>
      <trkpt lat="28.7389520" lon="-17.7974830">
        <ele>1399.8</ele>
        <time>2020-11-16T10:36:03Z</time>
      </trkpt>
      <trkpt lat="28.7389450" lon="-17.7974980">
        <ele>1399.9</ele>
        <time>2020-11-16T10:36:04Z</time>
      </trkpt>
      <trkpt lat="28.7389450" lon="-17.7974980">
        <ele>1399.9</ele>
        <time>2020-11-16T10:36:05Z</time>
      </trkpt>
      <trkpt lat="28.7389280" lon="-17.7975430">
        <ele>1400.1</ele>
        <time>2020-11-16T10:36:06Z</time>
      </trkpt>
      <trkpt lat="28.7389280" lon="-17.7975430">
        <ele>1400.1</ele>
        <time>2020-11-16T10:36:07Z</time>
      </trkpt>
      <trkpt lat="28.7389220" lon="-17.7975900">
        <ele>1400.2</ele>
        <time>2020-11-16T10:36:08Z</time>
      </trkpt>
      <trkpt lat="28.7389220" lon="-17.7975900">
        <ele>1400.2</ele>
        <time>2020-11-16T10:36:09Z</time>
      </trkpt>
      <trkpt lat="28.7389180" lon="-17.7976330">
        <ele>1400.4</ele>
        <time>2020-11-16T10:36:10Z</time>
      </trkpt>
      <trkpt lat="28.7389180" lon="-17.7976330">
        <ele>1400.4</ele>
        <time>2020-11-16T10:36:11Z</time>
      </trkpt>
      <trkpt lat="28.7389050" lon="-17.7976780">
        <ele>1400.6</ele>
        <time>2020-11-16T10:36:12Z</time>
      </trkpt>
      <trkpt lat="28.7389050" lon="-17.7976780">
        <ele>1400.6</ele>
        <time>2020-11-16T10:36:13Z</time>
      </trkpt>
      <trkpt lat="28.7389000" lon="-17.7977320">
        <ele>1400.8</ele>
        <time>2020-11-16T10:36:14Z</time>
      </trkpt>
      <trkpt lat="28.7389000" lon="-17.7977320">
        <ele>1400.8</ele>
        <time>2020-11-16T10:36:15Z</time>
      </trkpt>
      <trkpt lat="28.7388850" lon="-17.7977680">
        <ele>1401.0</ele>
        <time>2020-11-16T10:36:16Z</time>
      </trkpt>
      <trkpt lat="28.7388850" lon="-17.7977680">
        <ele>1401.0</ele>
        <time>2020-11-16T10:36:17Z</time>
      </trkpt>
      <trkpt lat="28.7388620" lon="-17.7978030">
        <ele>1401.2</ele>
        <time>2020-11-16T10:36:18Z</time>
      </trkpt>
      <trkpt lat="28.7388620" lon="-17.7978030">
        <ele>1401.2</ele>
        <time>2020-11-16T10:36:19Z</time>
      </trkpt>
      <trkpt lat="28.7388380" lon="-17.7978320">
        <ele>1401.3</ele>
        <time>2020-11-16T10:36:20Z</time>
      </trkpt>
      <trkpt lat="28.7388380" lon="-17.7978320">
        <ele>1401.3</ele>
        <time>2020-11-16T10:36:21Z</time>
      </trkpt>
      <trkpt lat="28.7388050" lon="-17.7978420">
        <ele>1401.5</ele>
        <time>2020-11-16T10:36:22Z</time>
      </trkpt>
      <trkpt lat="28.7388030" lon="-17.7978580">
        <ele>1401.5</ele>
        <time>2020-11-16T10:36:23Z</time>
      </trkpt>
      <trkpt lat="28.7388030" lon="-17.7978580">
        <ele>1401.5</ele>
        <time>2020-11-16T10:36:24Z</time>
      </trkpt>
      <trkpt lat="28.7387870" lon="-17.7978830">
        <ele>1401.7</ele>
        <time>2020-11-16T10:36:25Z</time>
      </trkpt>
      <trkpt lat="28.7387770" lon="-17.7978930">
        <ele>1401.7</ele>
        <time>2020-11-16T10:36:26Z</time>
      </trkpt>
      <trkpt lat="28.7387770" lon="-17.7978930">
        <ele>1401.7</ele>
        <time>2020-11-16T10:36:27Z</time>
      </trkpt>
      <trkpt lat="28.7387820" lon="-17.7979280">
        <ele>1401.9</ele>
        <time>2020-11-16T10:36:28Z</time>
      </trkpt>
      <trkpt lat="28.7387820" lon="-17.7979280">
        <ele>1401.9</ele>
        <time>2020-11-16T10:36:29Z</time>
      </trkpt>
      <trkpt lat="28.7387850" lon="-17.7979550">
        <ele>1402.0</ele>
        <time>2020-11-16T10:36:30Z</time>
      </trkpt>
      <trkpt lat="28.7387850" lon="-17.7979550">
        <ele>1402.0</ele>
        <time>2020-11-16T10:36:31Z</time>
      </trkpt>
      <trkpt lat="28.7387970" lon="-17.7979850">
        <ele>1402.1</ele>
        <time>2020-11-16T10:36:32Z</time>
      </trkpt>
      <trkpt lat="28.7387970" lon="-17.7979850">
        <ele>1402.1</ele>
        <time>2020-11-16T10:36:33Z</time>
      </trkpt>
      <trkpt lat="28.7388230" lon="-17.7980280">
        <ele>1402.3</ele>
        <time>2020-11-16T10:36:34Z</time>
      </trkpt>
      <trkpt lat="28.7388230" lon="-17.7980280">
        <ele>1402.3</ele>
        <time>2020-11-16T10:36:35Z</time>
      </trkpt>
      <trkpt lat="28.7388480" lon="-17.7980680">
        <ele>1402.5</ele>
        <time>2020-11-16T10:36:36Z</time>
      </trkpt>
      <trkpt lat="28.7388550" lon="-17.7980850">
        <ele>1402.5</ele>
        <time>2020-11-16T10:36:37Z</time>
      </trkpt>
      <trkpt lat="28.7388550" lon="-17.7980850">
        <ele>1402.5</ele>
        <time>2020-11-16T10:36:38Z</time>
      </trkpt>
      <trkpt lat="28.7388580" lon="-17.7981180">
        <ele>1402.7</ele>
        <time>2020-11-16T10:36:39Z</time>
      </trkpt>
      <trkpt lat="28.7388580" lon="-17.7981180">
        <ele>1402.7</ele>
        <time>2020-11-16T10:36:40Z</time>
      </trkpt>
      <trkpt lat="28.7388630" lon="-17.7981370">
        <ele>1402.8</ele>
        <time>2020-11-16T10:36:41Z</time>
      </trkpt>
      <trkpt lat="28.7388630" lon="-17.7981370">
        <ele>1402.8</ele>
        <time>2020-11-16T10:36:42Z</time>
      </trkpt>
      <trkpt lat="28.7388800" lon="-17.7981770">
        <ele>1402.9</ele>
        <time>2020-11-16T10:36:43Z</time>
      </trkpt>
      <trkpt lat="28.7388920" lon="-17.7981950">
        <ele>1403.0</ele>
        <time>2020-11-16T10:36:44Z</time>
      </trkpt>
      <trkpt lat="28.7388920" lon="-17.7981950">
        <ele>1403.0</ele>
        <time>2020-11-16T10:36:45Z</time>
      </trkpt>
      <trkpt lat="28.7389280" lon="-17.7982480">
        <ele>1403.3</ele>
        <time>2020-11-16T10:36:46Z</time>
      </trkpt>
      <trkpt lat="28.7389280" lon="-17.7982480">
        <ele>1403.3</ele>
        <time>2020-11-16T10:36:47Z</time>
      </trkpt>
      <trkpt lat="28.7389570" lon="-17.7982920">
        <ele>1403.6</ele>
        <time>2020-11-16T10:36:48Z</time>
      </trkpt>
      <trkpt lat="28.7389570" lon="-17.7982920">
        <ele>1403.6</ele>
        <time>2020-11-16T10:36:49Z</time>
      </trkpt>
      <trkpt lat="28.7389630" lon="-17.7983450">
        <ele>1403.8</ele>
        <time>2020-11-16T10:36:50Z</time>
      </trkpt>
      <trkpt lat="28.7389750" lon="-17.7983700">
        <ele>1403.9</ele>
        <time>2020-11-16T10:36:51Z</time>
      </trkpt>
      <trkpt lat="28.7389750" lon="-17.7983700">
        <ele>1403.9</ele>
        <time>2020-11-16T10:36:52Z</time>
      </trkpt>
      <trkpt lat="28.7389750" lon="-17.7983950">
        <ele>1404.0</ele>
        <time>2020-11-16T10:36:53Z</time>
      </trkpt>
      <trkpt lat="28.7389750" lon="-17.7983950">
        <ele>1404.0</ele>
        <time>2020-11-16T10:36:54Z</time>
      </trkpt>
      <trkpt lat="28.7389820" lon="-17.7984180">
        <ele>1404.1</ele>
        <time>2020-11-16T10:36:55Z</time>
      </trkpt>
      <trkpt lat="28.7389820" lon="-17.7984180">
        <ele>1404.1</ele>
        <time>2020-11-16T10:36:56Z</time>
      </trkpt>
      <trkpt lat="28.7390130" lon="-17.7984520">
        <ele>1404.3</ele>
        <time>2020-11-16T10:36:57Z</time>
      </trkpt>
      <trkpt lat="28.7390400" lon="-17.7984720">
        <ele>1404.5</ele>
        <time>2020-11-16T10:36:58Z</time>
      </trkpt>
      <trkpt lat="28.7390400" lon="-17.7984720">
        <ele>1404.5</ele>
        <time>2020-11-16T10:36:59Z</time>
      </trkpt>
      <trkpt lat="28.7390880" lon="-17.7985170">
        <ele>1404.8</ele>
        <time>2020-11-16T10:37:00Z</time>
      </trkpt>
      <trkpt lat="28.7390880" lon="-17.7985170">
        <ele>1404.8</ele>
        <time>2020-11-16T10:37:01Z</time>
      </trkpt>
      <trkpt lat="28.7391050" lon="-17.7985650">
        <ele>1405.1</ele>
        <time>2020-11-16T10:37:02Z</time>
      </trkpt>
      <trkpt lat="28.7391050" lon="-17.7985650">
        <ele>1405.1</ele>
        <time>2020-11-16T10:37:03Z</time>
      </trkpt>
      <trkpt lat="28.7391180" lon="-17.7985970">
        <ele>1405.2</ele>
        <time>2020-11-16T10:37:04Z</time>
      </trkpt>
      <trkpt lat="28.7391180" lon="-17.7985970">
        <ele>1405.2</ele>
        <time>2020-11-16T10:37:05Z</time>
      </trkpt>
      <trkpt lat="28.7391250" lon="-17.7986320">
        <ele>1405.4</ele>
        <time>2020-11-16T10:37:06Z</time>
      </trkpt>
      <trkpt lat="28.7391250" lon="-17.7986320">
        <ele>1405.4</ele>
        <time>2020-11-16T10:37:07Z</time>
      </trkpt>
      <trkpt lat="28.7391350" lon="-17.7986730">
        <ele>1405.6</ele>
        <time>2020-11-16T10:37:08Z</time>
      </trkpt>
      <trkpt lat="28.7391350" lon="-17.7986730">
        <ele>1405.6</ele>
        <time>2020-11-16T10:37:09Z</time>
      </trkpt>
      <trkpt lat="28.7391480" lon="-17.7987200">
        <ele>1405.8</ele>
        <time>2020-11-16T10:37:10Z</time>
      </trkpt>
      <trkpt lat="28.7391430" lon="-17.7987400">
        <ele>1405.9</ele>
        <time>2020-11-16T10:37:11Z</time>
      </trkpt>
      <trkpt lat="28.7391430" lon="-17.7987400">
        <ele>1405.9</ele>
        <time>2020-11-16T10:37:12Z</time>
      </trkpt>
      <trkpt lat="28.7391420" lon="-17.7987980">
        <ele>1406.2</ele>
        <time>2020-11-16T10:37:13Z</time>
      </trkpt>
      <trkpt lat="28.7391370" lon="-17.7988130">
        <ele>1406.2</ele>
        <time>2020-11-16T10:37:14Z</time>
      </trkpt>
      <trkpt lat="28.7391370" lon="-17.7988130">
        <ele>1406.2</ele>
        <time>2020-11-16T10:37:15Z</time>
      </trkpt>
      <trkpt lat="28.7391320" lon="-17.7988400">
        <ele>1406.3</ele>
        <time>2020-11-16T10:37:16Z</time>
      </trkpt>
      <trkpt lat="28.7391320" lon="-17.7988400">
        <ele>1406.3</ele>
        <time>2020-11-16T10:37:17Z</time>
      </trkpt>
      <trkpt lat="28.7391320" lon="-17.7988600">
        <ele>1406.4</ele>
        <time>2020-11-16T10:37:18Z</time>
      </trkpt>
      <trkpt lat="28.7391300" lon="-17.7988730">
        <ele>1406.5</ele>
        <time>2020-11-16T10:37:19Z</time>
      </trkpt>
      <trkpt lat="28.7391300" lon="-17.7988900">
        <ele>1406.5</ele>
        <time>2020-11-16T10:37:20Z</time>
      </trkpt>
      <trkpt lat="28.7391300" lon="-17.7988900">
        <ele>1406.5</ele>
        <time>2020-11-16T10:37:21Z</time>
      </trkpt>
      <trkpt lat="28.7391250" lon="-17.7989200">
        <ele>1406.6</ele>
        <time>2020-11-16T10:37:22Z</time>
      </trkpt>
      <trkpt lat="28.7391250" lon="-17.7989200">
        <ele>1406.6</ele>
        <time>2020-11-16T10:37:23Z</time>
      </trkpt>
      <trkpt lat="28.7391180" lon="-17.7989550">
        <ele>1406.8</ele>
        <time>2020-11-16T10:37:24Z</time>
      </trkpt>
      <trkpt lat="28.7391180" lon="-17.7989550">
        <ele>1406.8</ele>
        <time>2020-11-16T10:37:25Z</time>
      </trkpt>
      <trkpt lat="28.7391180" lon="-17.7989830">
        <ele>1406.9</ele>
        <time>2020-11-16T10:37:26Z</time>
      </trkpt>
      <trkpt lat="28.7391170" lon="-17.7989950">
        <ele>1406.9</ele>
        <time>2020-11-16T10:37:27Z</time>
      </trkpt>
      <trkpt lat="28.7391170" lon="-17.7989950">
        <ele>1406.9</ele>
        <time>2020-11-16T10:37:28Z</time>
      </trkpt>
      <trkpt lat="28.7391020" lon="-17.7990080">
        <ele>1407.0</ele>
        <time>2020-11-16T10:37:29Z</time>
      </trkpt>
      <trkpt lat="28.7391070" lon="-17.7990280">
        <ele>1407.0</ele>
        <time>2020-11-16T10:37:30Z</time>
      </trkpt>
      <trkpt lat="28.7391130" lon="-17.7990430">
        <ele>1407.1</ele>
        <time>2020-11-16T10:37:31Z</time>
      </trkpt>
      <trkpt lat="28.7391100" lon="-17.7990620">
        <ele>1407.2</ele>
        <time>2020-11-16T10:37:32Z</time>
      </trkpt>
      <trkpt lat="28.7391100" lon="-17.7990620">
        <ele>1407.2</ele>
        <time>2020-11-16T10:37:33Z</time>
      </trkpt>
      <trkpt lat="28.7391080" lon="-17.7990920">
        <ele>1407.3</ele>
        <time>2020-11-16T10:37:34Z</time>
      </trkpt>
      <trkpt lat="28.7391080" lon="-17.7990920">
        <ele>1407.3</ele>
        <time>2020-11-16T10:37:35Z</time>
      </trkpt>
      <trkpt lat="28.7391120" lon="-17.7991020">
        <ele>1407.3</ele>
        <time>2020-11-16T10:37:36Z</time>
      </trkpt>
      <trkpt lat="28.7391120" lon="-17.7991020">
        <ele>1407.3</ele>
        <time>2020-11-16T10:37:37Z</time>
      </trkpt>
      <trkpt lat="28.7391230" lon="-17.7991130">
        <ele>1407.3</ele>
        <time>2020-11-16T10:37:38Z</time>
      </trkpt>
      <trkpt lat="28.7391230" lon="-17.7991130">
        <ele>1407.3</ele>
        <time>2020-11-16T10:37:39Z</time>
      </trkpt>
      <trkpt lat="28.7391770" lon="-17.7992050">
        <ele>1407.7</ele>
        <time>2020-11-16T10:37:40Z</time>
      </trkpt>
      <trkpt lat="28.7391830" lon="-17.7992170">
        <ele>1407.7</ele>
        <time>2020-11-16T10:37:41Z</time>
      </trkpt>
      <trkpt lat="28.7391830" lon="-17.7992170">
        <ele>1407.7</ele>
        <time>2020-11-16T10:37:42Z</time>
      </trkpt>
      <trkpt lat="28.7392100" lon="-17.7992400">
        <ele>1407.8</ele>
        <time>2020-11-16T10:37:43Z</time>
      </trkpt>
      <trkpt lat="28.7392100" lon="-17.7992400">
        <ele>1407.8</ele>
        <time>2020-11-16T10:37:44Z</time>
      </trkpt>
      <trkpt lat="28.7392500" lon="-17.7992780">
        <ele>1408.0</ele>
        <time>2020-11-16T10:37:45Z</time>
      </trkpt>
      <trkpt lat="28.7392500" lon="-17.7992780">
        <ele>1408.0</ele>
        <time>2020-11-16T10:37:46Z</time>
      </trkpt>
      <trkpt lat="28.7392730" lon="-17.7993220">
        <ele>1408.2</ele>
        <time>2020-11-16T10:37:47Z</time>
      </trkpt>
      <trkpt lat="28.7392870" lon="-17.7993370">
        <ele>1408.2</ele>
        <time>2020-11-16T10:37:48Z</time>
      </trkpt>
      <trkpt lat="28.7392870" lon="-17.7993370">
        <ele>1408.2</ele>
        <time>2020-11-16T10:37:49Z</time>
      </trkpt>
      <trkpt lat="28.7393300" lon="-17.7993730">
        <ele>1408.4</ele>
        <time>2020-11-16T10:37:50Z</time>
      </trkpt>
      <trkpt lat="28.7393300" lon="-17.7993730">
        <ele>1408.4</ele>
        <time>2020-11-16T10:37:51Z</time>
      </trkpt>
      <trkpt lat="28.7393780" lon="-17.7994080">
        <ele>1408.6</ele>
        <time>2020-11-16T10:37:52Z</time>
      </trkpt>
      <trkpt lat="28.7393780" lon="-17.7994080">
        <ele>1408.6</ele>
        <time>2020-11-16T10:37:53Z</time>
      </trkpt>
      <trkpt lat="28.7394120" lon="-17.7994430">
        <ele>1408.8</ele>
        <time>2020-11-16T10:37:54Z</time>
      </trkpt>
      <trkpt lat="28.7394120" lon="-17.7994430">
        <ele>1408.8</ele>
        <time>2020-11-16T10:37:55Z</time>
      </trkpt>
      <trkpt lat="28.7394470" lon="-17.7994800">
        <ele>1409.0</ele>
        <time>2020-11-16T10:37:56Z</time>
      </trkpt>
      <trkpt lat="28.7394620" lon="-17.7995050">
        <ele>1409.1</ele>
        <time>2020-11-16T10:37:57Z</time>
      </trkpt>
      <trkpt lat="28.7394620" lon="-17.7995050">
        <ele>1409.1</ele>
        <time>2020-11-16T10:37:58Z</time>
      </trkpt>
      <trkpt lat="28.7394930" lon="-17.7995550">
        <ele>1409.3</ele>
        <time>2020-11-16T10:37:59Z</time>
      </trkpt>
      <trkpt lat="28.7394930" lon="-17.7995550">
        <ele>1409.3</ele>
        <time>2020-11-16T10:38:00Z</time>
      </trkpt>
      <trkpt lat="28.7395270" lon="-17.7996550">
        <ele>1409.8</ele>
        <time>2020-11-16T10:38:01Z</time>
      </trkpt>
      <trkpt lat="28.7395470" lon="-17.7996830">
        <ele>1410.0</ele>
        <time>2020-11-16T10:38:02Z</time>
      </trkpt>
      <trkpt lat="28.7395470" lon="-17.7996830">
        <ele>1410.0</ele>
        <time>2020-11-16T10:38:03Z</time>
      </trkpt>
      <trkpt lat="28.7395770" lon="-17.7997050">
        <ele>1410.2</ele>
        <time>2020-11-16T10:38:04Z</time>
      </trkpt>
      <trkpt lat="28.7395770" lon="-17.7997050">
        <ele>1410.2</ele>
        <time>2020-11-16T10:38:05Z</time>
      </trkpt>
      <trkpt lat="28.7395930" lon="-17.7997370">
        <ele>1410.4</ele>
        <time>2020-11-16T10:38:06Z</time>
      </trkpt>
      <trkpt lat="28.7395930" lon="-17.7997370">
        <ele>1410.4</ele>
        <time>2020-11-16T10:38:07Z</time>
      </trkpt>
      <trkpt lat="28.7396030" lon="-17.7997630">
        <ele>1410.5</ele>
        <time>2020-11-16T10:38:08Z</time>
      </trkpt>
      <trkpt lat="28.7396030" lon="-17.7997630">
        <ele>1410.5</ele>
        <time>2020-11-16T10:38:09Z</time>
      </trkpt>
      <trkpt lat="28.7396270" lon="-17.7997700">
        <ele>1410.7</ele>
        <time>2020-11-16T10:38:10Z</time>
      </trkpt>
      <trkpt lat="28.7396380" lon="-17.7997730">
        <ele>1410.8</ele>
        <time>2020-11-16T10:38:11Z</time>
      </trkpt>
      <trkpt lat="28.7396380" lon="-17.7997730">
        <ele>1410.8</ele>
        <time>2020-11-16T10:38:12Z</time>
      </trkpt>
      <trkpt lat="28.7396600" lon="-17.7997770">
        <ele>1410.9</ele>
        <time>2020-11-16T10:38:13Z</time>
      </trkpt>
      <trkpt lat="28.7396730" lon="-17.7997880">
        <ele>1411.0</ele>
        <time>2020-11-16T10:38:14Z</time>
      </trkpt>
      <trkpt lat="28.7396730" lon="-17.7997880">
        <ele>1411.0</ele>
        <time>2020-11-16T10:38:15Z</time>
      </trkpt>
      <trkpt lat="28.7396930" lon="-17.7998070">
        <ele>1411.1</ele>
        <time>2020-11-16T10:38:16Z</time>
      </trkpt>
      <trkpt lat="28.7396930" lon="-17.7998070">
        <ele>1411.1</ele>
        <time>2020-11-16T10:38:17Z</time>
      </trkpt>
      <trkpt lat="28.7397170" lon="-17.7998380">
        <ele>1411.3</ele>
        <time>2020-11-16T10:38:18Z</time>
      </trkpt>
      <trkpt lat="28.7397330" lon="-17.7998620">
        <ele>1411.5</ele>
        <time>2020-11-16T10:38:19Z</time>
      </trkpt>
      <trkpt lat="28.7397530" lon="-17.7998870">
        <ele>1411.6</ele>
        <time>2020-11-16T10:38:20Z</time>
      </trkpt>
      <trkpt lat="28.7397530" lon="-17.7998870">
        <ele>1411.6</ele>
        <time>2020-11-16T10:38:21Z</time>
      </trkpt>
      <trkpt lat="28.7397750" lon="-17.7999200">
        <ele>1411.8</ele>
        <time>2020-11-16T10:38:22Z</time>
      </trkpt>
      <trkpt lat="28.7397750" lon="-17.7999200">
        <ele>1411.8</ele>
        <time>2020-11-16T10:38:23Z</time>
      </trkpt>
      <trkpt lat="28.7397900" lon="-17.7999500">
        <ele>1411.9</ele>
        <time>2020-11-16T10:38:24Z</time>
      </trkpt>
      <trkpt lat="28.7397900" lon="-17.7999500">
        <ele>1411.9</ele>
        <time>2020-11-16T10:38:25Z</time>
      </trkpt>
      <trkpt lat="28.7398270" lon="-17.8000020">
        <ele>1412.2</ele>
        <time>2020-11-16T10:38:26Z</time>
      </trkpt>
      <trkpt lat="28.7398270" lon="-17.8000020">
        <ele>1412.2</ele>
        <time>2020-11-16T10:38:27Z</time>
      </trkpt>
      <trkpt lat="28.7398450" lon="-17.8000430">
        <ele>1412.4</ele>
        <time>2020-11-16T10:38:28Z</time>
      </trkpt>
      <trkpt lat="28.7398500" lon="-17.8000650">
        <ele>1412.5</ele>
        <time>2020-11-16T10:38:29Z</time>
      </trkpt>
      <trkpt lat="28.7398500" lon="-17.8000650">
        <ele>1412.5</ele>
        <time>2020-11-16T10:38:30Z</time>
      </trkpt>
      <trkpt lat="28.7398570" lon="-17.8001220">
        <ele>1412.8</ele>
        <time>2020-11-16T10:38:31Z</time>
      </trkpt>
      <trkpt lat="28.7398570" lon="-17.8001220">
        <ele>1412.8</ele>
        <time>2020-11-16T10:38:32Z</time>
      </trkpt>
      <trkpt lat="28.7398720" lon="-17.8001870">
        <ele>1413.1</ele>
        <time>2020-11-16T10:38:33Z</time>
      </trkpt>
      <trkpt lat="28.7398670" lon="-17.8002070">
        <ele>1413.2</ele>
        <time>2020-11-16T10:38:34Z</time>
      </trkpt>
      <trkpt lat="28.7398670" lon="-17.8002070">
        <ele>1413.2</ele>
        <time>2020-11-16T10:38:35Z</time>
      </trkpt>
      <trkpt lat="28.7398420" lon="-17.8002320">
        <ele>1413.3</ele>
        <time>2020-11-16T10:38:36Z</time>
      </trkpt>
      <trkpt lat="28.7398420" lon="-17.8002320">
        <ele>1413.3</ele>
        <time>2020-11-16T10:38:37Z</time>
      </trkpt>
      <trkpt lat="28.7398230" lon="-17.8002600">
        <ele>1413.5</ele>
        <time>2020-11-16T10:38:38Z</time>
      </trkpt>
      <trkpt lat="28.7398230" lon="-17.8002600">
        <ele>1413.5</ele>
        <time>2020-11-16T10:38:39Z</time>
      </trkpt>
      <trkpt lat="28.7398100" lon="-17.8002770">
        <ele>1413.6</ele>
        <time>2020-11-16T10:38:40Z</time>
      </trkpt>
      <trkpt lat="28.7398100" lon="-17.8002770">
        <ele>1413.6</ele>
        <time>2020-11-16T10:38:41Z</time>
      </trkpt>
      <trkpt lat="28.7397970" lon="-17.8002970">
        <ele>1413.7</ele>
        <time>2020-11-16T10:38:42Z</time>
      </trkpt>
      <trkpt lat="28.7397970" lon="-17.8002970">
        <ele>1413.7</ele>
        <time>2020-11-16T10:38:43Z</time>
      </trkpt>
      <trkpt lat="28.7397770" lon="-17.8003070">
        <ele>1413.8</ele>
        <time>2020-11-16T10:38:44Z</time>
      </trkpt>
      <trkpt lat="28.7397770" lon="-17.8003070">
        <ele>1413.8</ele>
        <time>2020-11-16T10:38:45Z</time>
      </trkpt>
      <trkpt lat="28.7397570" lon="-17.8003200">
        <ele>1413.9</ele>
        <time>2020-11-16T10:38:46Z</time>
      </trkpt>
      <trkpt lat="28.7397500" lon="-17.8003280">
        <ele>1414.0</ele>
        <time>2020-11-16T10:38:47Z</time>
      </trkpt>
      <trkpt lat="28.7397330" lon="-17.8003330">
        <ele>1414.1</ele>
        <time>2020-11-16T10:38:48Z</time>
      </trkpt>
      <trkpt lat="28.7397330" lon="-17.8003330">
        <ele>1414.1</ele>
        <time>2020-11-16T10:38:49Z</time>
      </trkpt>
      <trkpt lat="28.7397070" lon="-17.8003300">
        <ele>1414.2</ele>
        <time>2020-11-16T10:38:50Z</time>
      </trkpt>
      <trkpt lat="28.7397070" lon="-17.8003300">
        <ele>1414.2</ele>
        <time>2020-11-16T10:38:51Z</time>
      </trkpt>
      <trkpt lat="28.7396780" lon="-17.8003230">
        <ele>1414.4</ele>
        <time>2020-11-16T10:38:52Z</time>
      </trkpt>
      <trkpt lat="28.7396780" lon="-17.8003230">
        <ele>1414.4</ele>
        <time>2020-11-16T10:38:53Z</time>
      </trkpt>
      <trkpt lat="28.7396600" lon="-17.8003030">
        <ele>1414.5</ele>
        <time>2020-11-16T10:38:54Z</time>
      </trkpt>
      <trkpt lat="28.7396480" lon="-17.8002950">
        <ele>1414.5</ele>
        <time>2020-11-16T10:38:55Z</time>
      </trkpt>
      <trkpt lat="28.7396480" lon="-17.8002950">
        <ele>1414.5</ele>
        <time>2020-11-16T10:38:56Z</time>
      </trkpt>
      <trkpt lat="28.7396380" lon="-17.8002780">
        <ele>1414.6</ele>
        <time>2020-11-16T10:38:57Z</time>
      </trkpt>
      <trkpt lat="28.7396350" lon="-17.8002700">
        <ele>1414.6</ele>
        <time>2020-11-16T10:38:58Z</time>
      </trkpt>
      <trkpt lat="28.7396350" lon="-17.8002700">
        <ele>1414.6</ele>
        <time>2020-11-16T10:38:59Z</time>
      </trkpt>
      <trkpt lat="28.7396280" lon="-17.8002620">
        <ele>1414.7</ele>
        <time>2020-11-16T10:39:00Z</time>
      </trkpt>
      <trkpt lat="28.7396280" lon="-17.8002600">
        <ele>1414.7</ele>
        <time>2020-11-16T10:39:01Z</time>
      </trkpt>
      <trkpt lat="28.7396280" lon="-17.8002600">
        <ele>1414.7</ele>
        <time>2020-11-16T10:39:02Z</time>
      </trkpt>
      <trkpt lat="28.7396380" lon="-17.8002430">
        <ele>1414.8</ele>
        <time>2020-11-16T10:39:03Z</time>
      </trkpt>
      <trkpt lat="28.7396420" lon="-17.8002320">
        <ele>1414.8</ele>
        <time>2020-11-16T10:39:04Z</time>
      </trkpt>
      <trkpt lat="28.7396420" lon="-17.8002320">
        <ele>1414.8</ele>
        <time>2020-11-16T10:39:05Z</time>
      </trkpt>
      <trkpt lat="28.7396470" lon="-17.8002100">
        <ele>1414.9</ele>
        <time>2020-11-16T10:39:06Z</time>
      </trkpt>
      <trkpt lat="28.7396470" lon="-17.8002100">
        <ele>1414.9</ele>
        <time>2020-11-16T10:39:07Z</time>
      </trkpt>
      <trkpt lat="28.7396430" lon="-17.8001750">
        <ele>1415.1</ele>
        <time>2020-11-16T10:39:08Z</time>
      </trkpt>
      <trkpt lat="28.7396430" lon="-17.8001750">
        <ele>1415.1</ele>
        <time>2020-11-16T10:39:09Z</time>
      </trkpt>
      <trkpt lat="28.7396350" lon="-17.8001380">
        <ele>1415.2</ele>
        <time>2020-11-16T10:39:10Z</time>
      </trkpt>
      <trkpt lat="28.7396350" lon="-17.8001380">
        <ele>1415.2</ele>
        <time>2020-11-16T10:39:11Z</time>
      </trkpt>
      <trkpt lat="28.7396280" lon="-17.8001080">
        <ele>1415.3</ele>
        <time>2020-11-16T10:39:12Z</time>
      </trkpt>
      <trkpt lat="28.7396280" lon="-17.8001080">
        <ele>1415.3</ele>
        <time>2020-11-16T10:39:13Z</time>
      </trkpt>
      <trkpt lat="28.7396220" lon="-17.8000880">
        <ele>1415.4</ele>
        <time>2020-11-16T10:39:14Z</time>
      </trkpt>
      <trkpt lat="28.7396180" lon="-17.8000800">
        <ele>1415.4</ele>
        <time>2020-11-16T10:39:15Z</time>
      </trkpt>
      <trkpt lat="28.7396180" lon="-17.8000800">
        <ele>1415.4</ele>
        <time>2020-11-16T10:39:16Z</time>
      </trkpt>
      <trkpt lat="28.7396050" lon="-17.8000470">
        <ele>1415.6</ele>
        <time>2020-11-16T10:39:17Z</time>
      </trkpt>
      <trkpt lat="28.7396050" lon="-17.8000470">
        <ele>1415.6</ele>
        <time>2020-11-16T10:39:18Z</time>
      </trkpt>
      <trkpt lat="28.7395780" lon="-17.8000030">
        <ele>1415.8</ele>
        <time>2020-11-16T10:39:19Z</time>
      </trkpt>
      <trkpt lat="28.7395780" lon="-17.8000030">
        <ele>1415.8</ele>
        <time>2020-11-16T10:39:20Z</time>
      </trkpt>
      <trkpt lat="28.7395280" lon="-17.7999680">
        <ele>1416.1</ele>
        <time>2020-11-16T10:39:21Z</time>
      </trkpt>
      <trkpt lat="28.7395280" lon="-17.7999680">
        <ele>1416.1</ele>
        <time>2020-11-16T10:39:22Z</time>
      </trkpt>
      <trkpt lat="28.7394980" lon="-17.7999380">
        <ele>1416.3</ele>
        <time>2020-11-16T10:39:23Z</time>
      </trkpt>
      <trkpt lat="28.7394880" lon="-17.7999250">
        <ele>1416.3</ele>
        <time>2020-11-16T10:39:24Z</time>
      </trkpt>
      <trkpt lat="28.7394880" lon="-17.7999250">
        <ele>1416.3</ele>
        <time>2020-11-16T10:39:25Z</time>
      </trkpt>
      <trkpt lat="28.7394670" lon="-17.7998780">
        <ele>1416.5</ele>
        <time>2020-11-16T10:39:26Z</time>
      </trkpt>
      <trkpt lat="28.7394620" lon="-17.7998620">
        <ele>1416.6</ele>
        <time>2020-11-16T10:39:27Z</time>
      </trkpt>
      <trkpt lat="28.7394400" lon="-17.7998380">
        <ele>1416.8</ele>
        <time>2020-11-16T10:39:28Z</time>
      </trkpt>
      <trkpt lat="28.7394400" lon="-17.7998380">
        <ele>1416.8</ele>
        <time>2020-11-16T10:39:29Z</time>
      </trkpt>
      <trkpt lat="28.7393870" lon="-17.7997850">
        <ele>1417.1</ele>
        <time>2020-11-16T10:39:30Z</time>
      </trkpt>
      <trkpt lat="28.7393570" lon="-17.7997600">
        <ele>1417.3</ele>
        <time>2020-11-16T10:39:31Z</time>
      </trkpt>
      <trkpt lat="28.7393270" lon="-17.7997350">
        <ele>1417.4</ele>
        <time>2020-11-16T10:39:32Z</time>
      </trkpt>
      <trkpt lat="28.7393270" lon="-17.7997350">
        <ele>1417.4</ele>
        <time>2020-11-16T10:39:33Z</time>
      </trkpt>
      <trkpt lat="28.7392800" lon="-17.7997030">
        <ele>1417.6</ele>
        <time>2020-11-16T10:39:34Z</time>
      </trkpt>
      <trkpt lat="28.7392800" lon="-17.7997030">
        <ele>1417.6</ele>
        <time>2020-11-16T10:39:35Z</time>
      </trkpt>
      <trkpt lat="28.7392300" lon="-17.7996870">
        <ele>1417.9</ele>
        <time>2020-11-16T10:39:36Z</time>
      </trkpt>
      <trkpt lat="28.7392120" lon="-17.7996750">
        <ele>1417.9</ele>
        <time>2020-11-16T10:39:37Z</time>
      </trkpt>
      <trkpt lat="28.7391920" lon="-17.7996620">
        <ele>1418.0</ele>
        <time>2020-11-16T10:39:38Z</time>
      </trkpt>
      <trkpt lat="28.7391920" lon="-17.7996620">
        <ele>1418.0</ele>
        <time>2020-11-16T10:39:39Z</time>
      </trkpt>
      <trkpt lat="28.7391570" lon="-17.7996420">
        <ele>1418.2</ele>
        <time>2020-11-16T10:39:40Z</time>
      </trkpt>
      <trkpt lat="28.7391430" lon="-17.7996330">
        <ele>1418.3</ele>
        <time>2020-11-16T10:39:41Z</time>
      </trkpt>
      <trkpt lat="28.7391430" lon="-17.7996330">
        <ele>1418.3</ele>
        <time>2020-11-16T10:39:42Z</time>
      </trkpt>
      <trkpt lat="28.7391180" lon="-17.7996070">
        <ele>1418.4</ele>
        <time>2020-11-16T10:39:43Z</time>
      </trkpt>
      <trkpt lat="28.7391100" lon="-17.7995950">
        <ele>1418.4</ele>
        <time>2020-11-16T10:39:44Z</time>
      </trkpt>
      <trkpt lat="28.7391100" lon="-17.7995950">
        <ele>1418.4</ele>
        <time>2020-11-16T10:39:45Z</time>
      </trkpt>
      <trkpt lat="28.7390950" lon="-17.7995750">
        <ele>1418.5</ele>
        <time>2020-11-16T10:39:46Z</time>
      </trkpt>
      <trkpt lat="28.7390950" lon="-17.7995750">
        <ele>1418.5</ele>
        <time>2020-11-16T10:39:47Z</time>
      </trkpt>
      <trkpt lat="28.7390870" lon="-17.7995580">
        <ele>1418.6</ele>
        <time>2020-11-16T10:39:48Z</time>
      </trkpt>
      <trkpt lat="28.7390870" lon="-17.7995580">
        <ele>1418.6</ele>
        <time>2020-11-16T10:39:49Z</time>
      </trkpt>
      <trkpt lat="28.7390600" lon="-17.7995400">
        <ele>1418.7</ele>
        <time>2020-11-16T10:39:50Z</time>
      </trkpt>
      <trkpt lat="28.7390600" lon="-17.7995400">
        <ele>1418.7</ele>
        <time>2020-11-16T10:39:51Z</time>
      </trkpt>
      <trkpt lat="28.7390450" lon="-17.7995180">
        <ele>1418.8</ele>
        <time>2020-11-16T10:39:52Z</time>
      </trkpt>
      <trkpt lat="28.7390450" lon="-17.7995180">
        <ele>1418.8</ele>
        <time>2020-11-16T10:39:53Z</time>
      </trkpt>
      <trkpt lat="28.7390270" lon="-17.7994920">
        <ele>1419.0</ele>
        <time>2020-11-16T10:39:54Z</time>
      </trkpt>
      <trkpt lat="28.7390270" lon="-17.7994920">
        <ele>1419.0</ele>
        <time>2020-11-16T10:39:55Z</time>
      </trkpt>
      <trkpt lat="28.7390130" lon="-17.7994680">
        <ele>1419.1</ele>
        <time>2020-11-16T10:39:56Z</time>
      </trkpt>
      <trkpt lat="28.7390130" lon="-17.7994680">
        <ele>1419.1</ele>
        <time>2020-11-16T10:39:57Z</time>
      </trkpt>
      <trkpt lat="28.7390000" lon="-17.7994430">
        <ele>1419.2</ele>
        <time>2020-11-16T10:39:58Z</time>
      </trkpt>
      <trkpt lat="28.7389970" lon="-17.7994330">
        <ele>1419.2</ele>
        <time>2020-11-16T10:39:59Z</time>
      </trkpt>
      <trkpt lat="28.7389950" lon="-17.7994200">
        <ele>1419.3</ele>
        <time>2020-11-16T10:40:00Z</time>
      </trkpt>
      <trkpt lat="28.7389950" lon="-17.7994200">
        <ele>1419.3</ele>
        <time>2020-11-16T10:40:01Z</time>
      </trkpt>
      <trkpt lat="28.7389870" lon="-17.7993880">
        <ele>1419.4</ele>
        <time>2020-11-16T10:40:02Z</time>
      </trkpt>
      <trkpt lat="28.7389870" lon="-17.7993880">
        <ele>1419.4</ele>
        <time>2020-11-16T10:40:03Z</time>
      </trkpt>
      <trkpt lat="28.7389750" lon="-17.7993630">
        <ele>1419.5</ele>
        <time>2020-11-16T10:40:04Z</time>
      </trkpt>
      <trkpt lat="28.7389750" lon="-17.7993630">
        <ele>1419.5</ele>
        <time>2020-11-16T10:40:05Z</time>
      </trkpt>
      <trkpt lat="28.7389650" lon="-17.7993400">
        <ele>1419.6</ele>
        <time>2020-11-16T10:40:06Z</time>
      </trkpt>
      <trkpt lat="28.7389630" lon="-17.7993280">
        <ele>1419.6</ele>
        <time>2020-11-16T10:40:07Z</time>
      </trkpt>
      <trkpt lat="28.7389630" lon="-17.7993280">
        <ele>1419.6</ele>
        <time>2020-11-16T10:40:08Z</time>
      </trkpt>
      <trkpt lat="28.7389600" lon="-17.7993050">
        <ele>1419.7</ele>
        <time>2020-11-16T10:40:09Z</time>
      </trkpt>
      <trkpt lat="28.7389600" lon="-17.7992920">
        <ele>1419.7</ele>
        <time>2020-11-16T10:40:10Z</time>
      </trkpt>
      <trkpt lat="28.7389600" lon="-17.7992920">
        <ele>1419.7</ele>
        <time>2020-11-16T10:40:11Z</time>
      </trkpt>
      <trkpt lat="28.7389600" lon="-17.7992580">
        <ele>1419.8</ele>
        <time>2020-11-16T10:40:12Z</time>
      </trkpt>
      <trkpt lat="28.7389600" lon="-17.7992580">
        <ele>1419.8</ele>
        <time>2020-11-16T10:40:13Z</time>
      </trkpt>
      <trkpt lat="28.7389370" lon="-17.7992080">
        <ele>1419.9</ele>
        <time>2020-11-16T10:40:14Z</time>
      </trkpt>
      <trkpt lat="28.7389250" lon="-17.7991970">
        <ele>1419.9</ele>
        <time>2020-11-16T10:40:15Z</time>
      </trkpt>
      <trkpt lat="28.7389250" lon="-17.7991970">
        <ele>1419.9</ele>
        <time>2020-11-16T10:40:16Z</time>
      </trkpt>
      <trkpt lat="28.7389130" lon="-17.7991730">
        <ele>1420.0</ele>
        <time>2020-11-16T10:40:17Z</time>
      </trkpt>
      <trkpt lat="28.7389130" lon="-17.7991730">
        <ele>1420.0</ele>
        <time>2020-11-16T10:40:18Z</time>
      </trkpt>
      <trkpt lat="28.7389050" lon="-17.7991500">
        <ele>1420.0</ele>
        <time>2020-11-16T10:40:19Z</time>
      </trkpt>
      <trkpt lat="28.7389050" lon="-17.7991370">
        <ele>1420.0</ele>
        <time>2020-11-16T10:40:20Z</time>
      </trkpt>
      <trkpt lat="28.7389050" lon="-17.7991370">
        <ele>1420.0</ele>
        <time>2020-11-16T10:40:21Z</time>
      </trkpt>
      <trkpt lat="28.7389080" lon="-17.7991130">
        <ele>1420.1</ele>
        <time>2020-11-16T10:40:22Z</time>
      </trkpt>
      <trkpt lat="28.7389100" lon="-17.7991020">
        <ele>1420.1</ele>
        <time>2020-11-16T10:40:23Z</time>
      </trkpt>
      <trkpt lat="28.7389100" lon="-17.7991020">
        <ele>1420.1</ele>
        <time>2020-11-16T10:40:24Z</time>
      </trkpt>
      <trkpt lat="28.7389030" lon="-17.7990630">
        <ele>1420.2</ele>
        <time>2020-11-16T10:40:25Z</time>
      </trkpt>
      <trkpt lat="28.7388870" lon="-17.7990300">
        <ele>1420.2</ele>
        <time>2020-11-16T10:40:26Z</time>
      </trkpt>
      <trkpt lat="28.7388870" lon="-17.7990300">
        <ele>1420.2</ele>
        <time>2020-11-16T10:40:27Z</time>
      </trkpt>
      <trkpt lat="28.7388580" lon="-17.7989780">
        <ele>1420.3</ele>
        <time>2020-11-16T10:40:28Z</time>
      </trkpt>
      <trkpt lat="28.7388580" lon="-17.7989780">
        <ele>1420.3</ele>
        <time>2020-11-16T10:40:29Z</time>
      </trkpt>
      <trkpt lat="28.7388470" lon="-17.7989380">
        <ele>1420.4</ele>
        <time>2020-11-16T10:40:30Z</time>
      </trkpt>
      <trkpt lat="28.7388470" lon="-17.7989380">
        <ele>1420.4</ele>
        <time>2020-11-16T10:40:31Z</time>
      </trkpt>
      <trkpt lat="28.7388300" lon="-17.7989080">
        <ele>1420.5</ele>
        <time>2020-11-16T10:40:32Z</time>
      </trkpt>
      <trkpt lat="28.7388300" lon="-17.7989080">
        <ele>1420.5</ele>
        <time>2020-11-16T10:40:33Z</time>
      </trkpt>
      <trkpt lat="28.7388070" lon="-17.7988820">
        <ele>1420.5</ele>
        <time>2020-11-16T10:40:34Z</time>
      </trkpt>
      <trkpt lat="28.7388070" lon="-17.7988820">
        <ele>1420.5</ele>
        <time>2020-11-16T10:40:35Z</time>
      </trkpt>
      <trkpt lat="28.7387870" lon="-17.7988500">
        <ele>1420.6</ele>
        <time>2020-11-16T10:40:36Z</time>
      </trkpt>
      <trkpt lat="28.7387700" lon="-17.7988400">
        <ele>1420.7</ele>
        <time>2020-11-16T10:40:37Z</time>
      </trkpt>
      <trkpt lat="28.7387700" lon="-17.7988400">
        <ele>1420.7</ele>
        <time>2020-11-16T10:40:38Z</time>
      </trkpt>
      <trkpt lat="28.7387400" lon="-17.7988320">
        <ele>1420.7</ele>
        <time>2020-11-16T10:40:39Z</time>
      </trkpt>
      <trkpt lat="28.7387400" lon="-17.7988320">
        <ele>1420.7</ele>
        <time>2020-11-16T10:40:40Z</time>
      </trkpt>
      <trkpt lat="28.7387120" lon="-17.7988120">
        <ele>1420.8</ele>
        <time>2020-11-16T10:40:41Z</time>
      </trkpt>
      <trkpt lat="28.7386970" lon="-17.7987980">
        <ele>1420.8</ele>
        <time>2020-11-16T10:40:42Z</time>
      </trkpt>
      <trkpt lat="28.7386970" lon="-17.7987980">
        <ele>1420.8</ele>
        <time>2020-11-16T10:40:43Z</time>
      </trkpt>
      <trkpt lat="28.7386630" lon="-17.7987650">
        <ele>1420.9</ele>
        <time>2020-11-16T10:40:44Z</time>
      </trkpt>
      <trkpt lat="28.7386630" lon="-17.7987650">
        <ele>1420.9</ele>
        <time>2020-11-16T10:40:45Z</time>
      </trkpt>
      <trkpt lat="28.7386320" lon="-17.7987330">
        <ele>1421.0</ele>
        <time>2020-11-16T10:40:46Z</time>
      </trkpt>
      <trkpt lat="28.7386180" lon="-17.7987170">
        <ele>1421.1</ele>
        <time>2020-11-16T10:40:47Z</time>
      </trkpt>
      <trkpt lat="28.7386180" lon="-17.7987170">
        <ele>1421.1</ele>
        <time>2020-11-16T10:40:48Z</time>
      </trkpt>
      <trkpt lat="28.7385970" lon="-17.7986930">
        <ele>1421.1</ele>
        <time>2020-11-16T10:40:49Z</time>
      </trkpt>
      <trkpt lat="28.7385830" lon="-17.7986820">
        <ele>1421.2</ele>
        <time>2020-11-16T10:40:50Z</time>
      </trkpt>
      <trkpt lat="28.7385830" lon="-17.7986820">
        <ele>1421.2</ele>
        <time>2020-11-16T10:40:51Z</time>
      </trkpt>
      <trkpt lat="28.7385480" lon="-17.7986550">
        <ele>1421.3</ele>
        <time>2020-11-16T10:40:52Z</time>
      </trkpt>
      <trkpt lat="28.7385480" lon="-17.7986550">
        <ele>1421.3</ele>
        <time>2020-11-16T10:40:53Z</time>
      </trkpt>
      <trkpt lat="28.7385080" lon="-17.7986470">
        <ele>1421.4</ele>
        <time>2020-11-16T10:40:54Z</time>
      </trkpt>
      <trkpt lat="28.7384920" lon="-17.7986500">
        <ele>1421.7</ele>
        <time>2020-11-16T10:40:55Z</time>
      </trkpt>
      <trkpt lat="28.7384920" lon="-17.7986500">
        <ele>1421.7</ele>
        <time>2020-11-16T10:40:56Z</time>
      </trkpt>
      <trkpt lat="28.7384700" lon="-17.7986780">
        <ele>1422.1</ele>
        <time>2020-11-16T10:40:57Z</time>
      </trkpt>
      <trkpt lat="28.7384700" lon="-17.7986780">
        <ele>1422.1</ele>
        <time>2020-11-16T10:40:58Z</time>
      </trkpt>
      <trkpt lat="28.7384600" lon="-17.7987030">
        <ele>1422.4</ele>
        <time>2020-11-16T10:40:59Z</time>
      </trkpt>
      <trkpt lat="28.7384600" lon="-17.7987030">
        <ele>1422.4</ele>
        <time>2020-11-16T10:41:00Z</time>
      </trkpt>
      <trkpt lat="28.7384620" lon="-17.7987480">
        <ele>1423.0</ele>
        <time>2020-11-16T10:41:01Z</time>
      </trkpt>
      <trkpt lat="28.7384650" lon="-17.7987680">
        <ele>1423.2</ele>
        <time>2020-11-16T10:41:02Z</time>
      </trkpt>
      <trkpt lat="28.7384650" lon="-17.7987680">
        <ele>1423.2</ele>
        <time>2020-11-16T10:41:03Z</time>
      </trkpt>
      <trkpt lat="28.7384770" lon="-17.7988030">
        <ele>1423.7</ele>
        <time>2020-11-16T10:41:04Z</time>
      </trkpt>
      <trkpt lat="28.7384770" lon="-17.7988030">
        <ele>1423.7</ele>
        <time>2020-11-16T10:41:05Z</time>
      </trkpt>
      <trkpt lat="28.7384870" lon="-17.7988330">
        <ele>1424.0</ele>
        <time>2020-11-16T10:41:06Z</time>
      </trkpt>
      <trkpt lat="28.7384920" lon="-17.7988480">
        <ele>1424.2</ele>
        <time>2020-11-16T10:41:07Z</time>
      </trkpt>
      <trkpt lat="28.7384920" lon="-17.7988480">
        <ele>1424.2</ele>
        <time>2020-11-16T10:41:08Z</time>
      </trkpt>
      <trkpt lat="28.7385020" lon="-17.7988830">
        <ele>1424.7</ele>
        <time>2020-11-16T10:41:09Z</time>
      </trkpt>
      <trkpt lat="28.7385030" lon="-17.7989050">
        <ele>1425.0</ele>
        <time>2020-11-16T10:41:10Z</time>
      </trkpt>
      <trkpt lat="28.7385070" lon="-17.7989270">
        <ele>1425.2</ele>
        <time>2020-11-16T10:41:11Z</time>
      </trkpt>
      <trkpt lat="28.7385070" lon="-17.7989270">
        <ele>1425.2</ele>
        <time>2020-11-16T10:41:12Z</time>
      </trkpt>
      <trkpt lat="28.7385200" lon="-17.7989530">
        <ele>1425.6</ele>
        <time>2020-11-16T10:41:13Z</time>
      </trkpt>
      <trkpt lat="28.7385220" lon="-17.7989670">
        <ele>1425.8</ele>
        <time>2020-11-16T10:41:14Z</time>
      </trkpt>
      <trkpt lat="28.7385220" lon="-17.7989670">
        <ele>1425.8</ele>
        <time>2020-11-16T10:41:15Z</time>
      </trkpt>
      <trkpt lat="28.7385220" lon="-17.7990220">
        <ele>1426.5</ele>
        <time>2020-11-16T10:41:16Z</time>
      </trkpt>
      <trkpt lat="28.7385220" lon="-17.7990220">
        <ele>1426.5</ele>
        <time>2020-11-16T10:41:17Z</time>
      </trkpt>
      <trkpt lat="28.7385230" lon="-17.7990500">
        <ele>1426.9</ele>
        <time>2020-11-16T10:41:18Z</time>
      </trkpt>
      <trkpt lat="28.7385230" lon="-17.7990500">
        <ele>1426.9</ele>
        <time>2020-11-16T10:41:19Z</time>
      </trkpt>
      <trkpt lat="28.7385280" lon="-17.7990870">
        <ele>1427.5</ele>
        <time>2020-11-16T10:41:20Z</time>
      </trkpt>
      <trkpt lat="28.7385280" lon="-17.7990870">
        <ele>1427.5</ele>
        <time>2020-11-16T10:41:21Z</time>
      </trkpt>
      <trkpt lat="28.7385470" lon="-17.7991230">
        <ele>1428.1</ele>
        <time>2020-11-16T10:41:22Z</time>
      </trkpt>
      <trkpt lat="28.7385530" lon="-17.7991350">
        <ele>1428.3</ele>
        <time>2020-11-16T10:41:23Z</time>
      </trkpt>
      <trkpt lat="28.7385680" lon="-17.7991570">
        <ele>1428.7</ele>
        <time>2020-11-16T10:41:24Z</time>
      </trkpt>
      <trkpt lat="28.7385680" lon="-17.7991570">
        <ele>1428.7</ele>
        <time>2020-11-16T10:41:25Z</time>
      </trkpt>
      <trkpt lat="28.7385780" lon="-17.7991980">
        <ele>1429.3</ele>
        <time>2020-11-16T10:41:26Z</time>
      </trkpt>
      <trkpt lat="28.7385830" lon="-17.7992180">
        <ele>1429.7</ele>
        <time>2020-11-16T10:41:27Z</time>
      </trkpt>
      <trkpt lat="28.7385830" lon="-17.7992180">
        <ele>1429.7</ele>
        <time>2020-11-16T10:41:28Z</time>
      </trkpt>
      <trkpt lat="28.7385830" lon="-17.7992480">
        <ele>1430.1</ele>
        <time>2020-11-16T10:41:29Z</time>
      </trkpt>
      <trkpt lat="28.7385830" lon="-17.7992480">
        <ele>1430.1</ele>
        <time>2020-11-16T10:41:30Z</time>
      </trkpt>
      <trkpt lat="28.7385850" lon="-17.7992850">
        <ele>1430.7</ele>
        <time>2020-11-16T10:41:31Z</time>
      </trkpt>
      <trkpt lat="28.7385920" lon="-17.7993050">
        <ele>1431.0</ele>
        <time>2020-11-16T10:41:32Z</time>
      </trkpt>
      <trkpt lat="28.7385920" lon="-17.7993050">
        <ele>1431.0</ele>
        <time>2020-11-16T10:41:33Z</time>
      </trkpt>
      <trkpt lat="28.7386000" lon="-17.7993320">
        <ele>1431.4</ele>
        <time>2020-11-16T10:41:34Z</time>
      </trkpt>
      <trkpt lat="28.7386000" lon="-17.7993320">
        <ele>1431.4</ele>
        <time>2020-11-16T10:41:35Z</time>
      </trkpt>
      <trkpt lat="28.7386070" lon="-17.7993620">
        <ele>1431.9</ele>
        <time>2020-11-16T10:41:36Z</time>
      </trkpt>
      <trkpt lat="28.7386070" lon="-17.7993620">
        <ele>1431.9</ele>
        <time>2020-11-16T10:41:37Z</time>
      </trkpt>
      <trkpt lat="28.7386150" lon="-17.7993920">
        <ele>1432.4</ele>
        <time>2020-11-16T10:41:38Z</time>
      </trkpt>
      <trkpt lat="28.7386180" lon="-17.7994050">
        <ele>1432.6</ele>
        <time>2020-11-16T10:41:39Z</time>
      </trkpt>
      <trkpt lat="28.7386180" lon="-17.7994050">
        <ele>1432.6</ele>
        <time>2020-11-16T10:41:40Z</time>
      </trkpt>
      <trkpt lat="28.7386230" lon="-17.7994250">
        <ele>1432.9</ele>
        <time>2020-11-16T10:41:41Z</time>
      </trkpt>
      <trkpt lat="28.7386230" lon="-17.7994250">
        <ele>1432.9</ele>
        <time>2020-11-16T10:41:42Z</time>
      </trkpt>
      <trkpt lat="28.7386400" lon="-17.7994570">
        <ele>1433.5</ele>
        <time>2020-11-16T10:41:43Z</time>
      </trkpt>
      <trkpt lat="28.7386400" lon="-17.7994570">
        <ele>1433.5</ele>
        <time>2020-11-16T10:41:44Z</time>
      </trkpt>
      <trkpt lat="28.7386580" lon="-17.7994980">
        <ele>1434.3</ele>
        <time>2020-11-16T10:41:45Z</time>
      </trkpt>
      <trkpt lat="28.7386680" lon="-17.7995200">
        <ele>1434.8</ele>
        <time>2020-11-16T10:41:46Z</time>
      </trkpt>
      <trkpt lat="28.7386680" lon="-17.7995200">
        <ele>1434.8</ele>
        <time>2020-11-16T10:41:47Z</time>
      </trkpt>
      <trkpt lat="28.7386850" lon="-17.7995480">
        <ele>1435.4</ele>
        <time>2020-11-16T10:41:48Z</time>
      </trkpt>
      <trkpt lat="28.7386850" lon="-17.7995480">
        <ele>1435.4</ele>
        <time>2020-11-16T10:41:49Z</time>
      </trkpt>
      <trkpt lat="28.7387020" lon="-17.7995730">
        <ele>1436.1</ele>
        <time>2020-11-16T10:41:50Z</time>
      </trkpt>
      <trkpt lat="28.7387020" lon="-17.7995730">
        <ele>1436.1</ele>
        <time>2020-11-16T10:41:51Z</time>
      </trkpt>
      <trkpt lat="28.7387200" lon="-17.7995980">
        <ele>1436.7</ele>
        <time>2020-11-16T10:41:52Z</time>
      </trkpt>
      <trkpt lat="28.7387200" lon="-17.7995980">
        <ele>1436.7</ele>
        <time>2020-11-16T10:41:53Z</time>
      </trkpt>
      <trkpt lat="28.7387400" lon="-17.7996350">
        <ele>1437.7</ele>
        <time>2020-11-16T10:41:54Z</time>
      </trkpt>
      <trkpt lat="28.7387400" lon="-17.7996350">
        <ele>1437.7</ele>
        <time>2020-11-16T10:41:55Z</time>
      </trkpt>
      <trkpt lat="28.7387550" lon="-17.7996680">
        <ele>1438.5</ele>
        <time>2020-11-16T10:41:56Z</time>
      </trkpt>
      <trkpt lat="28.7387620" lon="-17.7996820">
        <ele>1438.8</ele>
        <time>2020-11-16T10:41:57Z</time>
      </trkpt>
      <trkpt lat="28.7387620" lon="-17.7996820">
        <ele>1438.8</ele>
        <time>2020-11-16T10:41:58Z</time>
      </trkpt>
      <trkpt lat="28.7387800" lon="-17.7997150">
        <ele>1439.7</ele>
        <time>2020-11-16T10:41:59Z</time>
      </trkpt>
      <trkpt lat="28.7387800" lon="-17.7997150">
        <ele>1439.7</ele>
        <time>2020-11-16T10:42:00Z</time>
      </trkpt>
      <trkpt lat="28.7388050" lon="-17.7997480">
        <ele>1440.6</ele>
        <time>2020-11-16T10:42:01Z</time>
      </trkpt>
      <trkpt lat="28.7388150" lon="-17.7997630">
        <ele>1441.0</ele>
        <time>2020-11-16T10:42:02Z</time>
      </trkpt>
      <trkpt lat="28.7388150" lon="-17.7997630">
        <ele>1441.0</ele>
        <time>2020-11-16T10:42:03Z</time>
      </trkpt>
      <trkpt lat="28.7388330" lon="-17.7997900">
        <ele>1441.7</ele>
        <time>2020-11-16T10:42:04Z</time>
      </trkpt>
      <trkpt lat="28.7388330" lon="-17.7997900">
        <ele>1441.7</ele>
        <time>2020-11-16T10:42:05Z</time>
      </trkpt>
      <trkpt lat="28.7388550" lon="-17.7998150">
        <ele>1442.4</ele>
        <time>2020-11-16T10:42:06Z</time>
      </trkpt>
      <trkpt lat="28.7388550" lon="-17.7998150">
        <ele>1442.4</ele>
        <time>2020-11-16T10:42:07Z</time>
      </trkpt>
      <trkpt lat="28.7388720" lon="-17.7998300">
        <ele>1442.9</ele>
        <time>2020-11-16T10:42:08Z</time>
      </trkpt>
      <trkpt lat="28.7388720" lon="-17.7998300">
        <ele>1442.9</ele>
        <time>2020-11-16T10:42:09Z</time>
      </trkpt>
      <trkpt lat="28.7388880" lon="-17.7998550">
        <ele>1443.5</ele>
        <time>2020-11-16T10:42:10Z</time>
      </trkpt>
      <trkpt lat="28.7388880" lon="-17.7998550">
        <ele>1443.5</ele>
        <time>2020-11-16T10:42:11Z</time>
      </trkpt>
      <trkpt lat="28.7389070" lon="-17.7998770">
        <ele>1444.2</ele>
        <time>2020-11-16T10:42:12Z</time>
      </trkpt>
      <trkpt lat="28.7389070" lon="-17.7998770">
        <ele>1444.2</ele>
        <time>2020-11-16T10:42:13Z</time>
      </trkpt>
      <trkpt lat="28.7389280" lon="-17.7998970">
        <ele>1444.9</ele>
        <time>2020-11-16T10:42:14Z</time>
      </trkpt>
      <trkpt lat="28.7389280" lon="-17.7998970">
        <ele>1444.9</ele>
        <time>2020-11-16T10:42:15Z</time>
      </trkpt>
      <trkpt lat="28.7389520" lon="-17.7999170">
        <ele>1445.7</ele>
        <time>2020-11-16T10:42:16Z</time>
      </trkpt>
      <trkpt lat="28.7389630" lon="-17.7999330">
        <ele>1446.2</ele>
        <time>2020-11-16T10:42:17Z</time>
      </trkpt>
      <trkpt lat="28.7389730" lon="-17.7999400">
        <ele>1446.5</ele>
        <time>2020-11-16T10:42:18Z</time>
      </trkpt>
      <trkpt lat="28.7389730" lon="-17.7999400">
        <ele>1446.5</ele>
        <time>2020-11-16T10:42:19Z</time>
      </trkpt>
      <trkpt lat="28.7390120" lon="-17.7999780">
        <ele>1448.0</ele>
        <time>2020-11-16T10:42:20Z</time>
      </trkpt>
      <trkpt lat="28.7390120" lon="-17.7999780">
        <ele>1448.0</ele>
        <time>2020-11-16T10:42:21Z</time>
      </trkpt>
      <trkpt lat="28.7390270" lon="-17.7999930">
        <ele>1448.6</ele>
        <time>2020-11-16T10:42:22Z</time>
      </trkpt>
      <trkpt lat="28.7390330" lon="-17.8000020">
        <ele>1448.9</ele>
        <time>2020-11-16T10:42:23Z</time>
      </trkpt>
      <trkpt lat="28.7390430" lon="-17.8000150">
        <ele>1449.3</ele>
        <time>2020-11-16T10:42:24Z</time>
      </trkpt>
      <trkpt lat="28.7390430" lon="-17.8000150">
        <ele>1449.3</ele>
        <time>2020-11-16T10:42:25Z</time>
      </trkpt>
      <trkpt lat="28.7390700" lon="-17.8000530">
        <ele>1450.6</ele>
        <time>2020-11-16T10:42:26Z</time>
      </trkpt>
      <trkpt lat="28.7390700" lon="-17.8000530">
        <ele>1450.6</ele>
        <time>2020-11-16T10:42:27Z</time>
      </trkpt>
      <trkpt lat="28.7390920" lon="-17.8000900">
        <ele>1451.8</ele>
        <time>2020-11-16T10:42:28Z</time>
      </trkpt>
      <trkpt lat="28.7391030" lon="-17.8001070">
        <ele>1452.3</ele>
        <time>2020-11-16T10:42:29Z</time>
      </trkpt>
      <trkpt lat="28.7391030" lon="-17.8001070">
        <ele>1452.3</ele>
        <time>2020-11-16T10:42:30Z</time>
      </trkpt>
      <trkpt lat="28.7391200" lon="-17.8001320">
        <ele>1453.1</ele>
        <time>2020-11-16T10:42:31Z</time>
      </trkpt>
      <trkpt lat="28.7391270" lon="-17.8001450">
        <ele>1453.5</ele>
        <time>2020-11-16T10:42:32Z</time>
      </trkpt>
      <trkpt lat="28.7391270" lon="-17.8001450">
        <ele>1453.5</ele>
        <time>2020-11-16T10:42:33Z</time>
      </trkpt>
      <trkpt lat="28.7391420" lon="-17.8001850">
        <ele>1454.6</ele>
        <time>2020-11-16T10:42:34Z</time>
      </trkpt>
      <trkpt lat="28.7391420" lon="-17.8001850">
        <ele>1454.6</ele>
        <time>2020-11-16T10:42:35Z</time>
      </trkpt>
      <trkpt lat="28.7391520" lon="-17.8002180">
        <ele>1455.5</ele>
        <time>2020-11-16T10:42:36Z</time>
      </trkpt>
      <trkpt lat="28.7391520" lon="-17.8002180">
        <ele>1455.5</ele>
        <time>2020-11-16T10:42:37Z</time>
      </trkpt>
      <trkpt lat="28.7391680" lon="-17.8002470">
        <ele>1456.3</ele>
        <time>2020-11-16T10:42:38Z</time>
      </trkpt>
      <trkpt lat="28.7391680" lon="-17.8002470">
        <ele>1456.3</ele>
        <time>2020-11-16T10:42:39Z</time>
      </trkpt>
      <trkpt lat="28.7391750" lon="-17.8002770">
        <ele>1457.1</ele>
        <time>2020-11-16T10:42:40Z</time>
      </trkpt>
      <trkpt lat="28.7391750" lon="-17.8002770">
        <ele>1457.1</ele>
        <time>2020-11-16T10:42:41Z</time>
      </trkpt>
      <trkpt lat="28.7391780" lon="-17.8003130">
        <ele>1458.0</ele>
        <time>2020-11-16T10:42:42Z</time>
      </trkpt>
      <trkpt lat="28.7391780" lon="-17.8003130">
        <ele>1458.0</ele>
        <time>2020-11-16T10:42:43Z</time>
      </trkpt>
      <trkpt lat="28.7391720" lon="-17.8003430">
        <ele>1458.7</ele>
        <time>2020-11-16T10:42:44Z</time>
      </trkpt>
      <trkpt lat="28.7391720" lon="-17.8003430">
        <ele>1458.7</ele>
        <time>2020-11-16T10:42:45Z</time>
      </trkpt>
      <trkpt lat="28.7391620" lon="-17.8003780">
        <ele>1459.6</ele>
        <time>2020-11-16T10:42:46Z</time>
      </trkpt>
      <trkpt lat="28.7391580" lon="-17.8003900">
        <ele>1459.9</ele>
        <time>2020-11-16T10:42:47Z</time>
      </trkpt>
      <trkpt lat="28.7391580" lon="-17.8003900">
        <ele>1459.9</ele>
        <time>2020-11-16T10:42:48Z</time>
      </trkpt>
      <trkpt lat="28.7391550" lon="-17.8004300">
        <ele>1460.8</ele>
        <time>2020-11-16T10:42:49Z</time>
      </trkpt>
      <trkpt lat="28.7391600" lon="-17.8004380">
        <ele>1461.0</ele>
        <time>2020-11-16T10:42:50Z</time>
      </trkpt>
      <trkpt lat="28.7391600" lon="-17.8004380">
        <ele>1461.0</ele>
        <time>2020-11-16T10:42:51Z</time>
      </trkpt>
      <trkpt lat="28.7391430" lon="-17.8004520">
        <ele>1461.6</ele>
        <time>2020-11-16T10:42:52Z</time>
      </trkpt>
      <trkpt lat="28.7391430" lon="-17.8004520">
        <ele>1461.6</ele>
        <time>2020-11-16T10:42:53Z</time>
      </trkpt>
      <trkpt lat="28.7391270" lon="-17.8004770">
        <ele>1462.3</ele>
        <time>2020-11-16T10:42:54Z</time>
      </trkpt>
      <trkpt lat="28.7391170" lon="-17.8004880">
        <ele>1462.6</ele>
        <time>2020-11-16T10:42:55Z</time>
      </trkpt>
      <trkpt lat="28.7391080" lon="-17.8005100">
        <ele>1463.1</ele>
        <time>2020-11-16T10:42:56Z</time>
      </trkpt>
      <trkpt lat="28.7391080" lon="-17.8005100">
        <ele>1463.1</ele>
        <time>2020-11-16T10:42:57Z</time>
      </trkpt>
      <trkpt lat="28.7390830" lon="-17.8005350">
        <ele>1463.9</ele>
        <time>2020-11-16T10:42:58Z</time>
      </trkpt>
      <trkpt lat="28.7390730" lon="-17.8005520">
        <ele>1464.3</ele>
        <time>2020-11-16T10:42:59Z</time>
      </trkpt>
      <trkpt lat="28.7390730" lon="-17.8005520">
        <ele>1464.3</ele>
        <time>2020-11-16T10:43:00Z</time>
      </trkpt>
      <trkpt lat="28.7390620" lon="-17.8005880">
        <ele>1465.1</ele>
        <time>2020-11-16T10:43:01Z</time>
      </trkpt>
      <trkpt lat="28.7390620" lon="-17.8005880">
        <ele>1465.1</ele>
        <time>2020-11-16T10:43:02Z</time>
      </trkpt>
      <trkpt lat="28.7390680" lon="-17.8006280">
        <ele>1465.8</ele>
        <time>2020-11-16T10:43:03Z</time>
      </trkpt>
      <trkpt lat="28.7390680" lon="-17.8006280">
        <ele>1465.8</ele>
        <time>2020-11-16T10:43:04Z</time>
      </trkpt>
      <trkpt lat="28.7390730" lon="-17.8006620">
        <ele>1466.5</ele>
        <time>2020-11-16T10:43:05Z</time>
      </trkpt>
      <trkpt lat="28.7390770" lon="-17.8006920">
        <ele>1467.0</ele>
        <time>2020-11-16T10:43:06Z</time>
      </trkpt>
      <trkpt lat="28.7390770" lon="-17.8006920">
        <ele>1467.0</ele>
        <time>2020-11-16T10:43:07Z</time>
      </trkpt>
      <trkpt lat="28.7390820" lon="-17.8007480">
        <ele>1467.9</ele>
        <time>2020-11-16T10:43:08Z</time>
      </trkpt>
      <trkpt lat="28.7390820" lon="-17.8007480">
        <ele>1467.9</ele>
        <time>2020-11-16T10:43:09Z</time>
      </trkpt>
      <trkpt lat="28.7390900" lon="-17.8008030">
        <ele>1468.9</ele>
        <time>2020-11-16T10:43:10Z</time>
      </trkpt>
      <trkpt lat="28.7390900" lon="-17.8008030">
        <ele>1468.9</ele>
        <time>2020-11-16T10:43:11Z</time>
      </trkpt>
      <trkpt lat="28.7390900" lon="-17.8008400">
        <ele>1469.5</ele>
        <time>2020-11-16T10:43:12Z</time>
      </trkpt>
      <trkpt lat="28.7390900" lon="-17.8008400">
        <ele>1469.5</ele>
        <time>2020-11-16T10:43:13Z</time>
      </trkpt>
      <trkpt lat="28.7390830" lon="-17.8008680">
        <ele>1470.0</ele>
        <time>2020-11-16T10:43:14Z</time>
      </trkpt>
      <trkpt lat="28.7390830" lon="-17.8008680">
        <ele>1470.0</ele>
        <time>2020-11-16T10:43:15Z</time>
      </trkpt>
      <trkpt lat="28.7390820" lon="-17.8008880">
        <ele>1470.4</ele>
        <time>2020-11-16T10:43:16Z</time>
      </trkpt>
      <trkpt lat="28.7390800" lon="-17.8009020">
        <ele>1470.7</ele>
        <time>2020-11-16T10:43:17Z</time>
      </trkpt>
      <trkpt lat="28.7390800" lon="-17.8009020">
        <ele>1470.7</ele>
        <time>2020-11-16T10:43:18Z</time>
      </trkpt>
      <trkpt lat="28.7390900" lon="-17.8009500">
        <ele>1471.6</ele>
        <time>2020-11-16T10:43:19Z</time>
      </trkpt>
      <trkpt lat="28.7390900" lon="-17.8009500">
        <ele>1471.6</ele>
        <time>2020-11-16T10:43:20Z</time>
      </trkpt>
      <trkpt lat="28.7391170" lon="-17.8010180">
        <ele>1473.0</ele>
        <time>2020-11-16T10:43:21Z</time>
      </trkpt>
      <trkpt lat="28.7391170" lon="-17.8010180">
        <ele>1473.0</ele>
        <time>2020-11-16T10:43:22Z</time>
      </trkpt>
      <trkpt lat="28.7391330" lon="-17.8010770">
        <ele>1474.3</ele>
        <time>2020-11-16T10:43:23Z</time>
      </trkpt>
      <trkpt lat="28.7391380" lon="-17.8011030">
        <ele>1474.9</ele>
        <time>2020-11-16T10:43:24Z</time>
      </trkpt>
      <trkpt lat="28.7391380" lon="-17.8011030">
        <ele>1474.9</ele>
        <time>2020-11-16T10:43:25Z</time>
      </trkpt>
      <trkpt lat="28.7391420" lon="-17.8011580">
        <ele>1476.1</ele>
        <time>2020-11-16T10:43:26Z</time>
      </trkpt>
      <trkpt lat="28.7391420" lon="-17.8011580">
        <ele>1476.1</ele>
        <time>2020-11-16T10:43:27Z</time>
      </trkpt>
      <trkpt lat="28.7391320" lon="-17.8011980">
        <ele>1477.1</ele>
        <time>2020-11-16T10:43:28Z</time>
      </trkpt>
      <trkpt lat="28.7391320" lon="-17.8011980">
        <ele>1477.1</ele>
        <time>2020-11-16T10:43:29Z</time>
      </trkpt>
      <trkpt lat="28.7391350" lon="-17.8012180">
        <ele>1477.6</ele>
        <time>2020-11-16T10:43:30Z</time>
      </trkpt>
      <trkpt lat="28.7391350" lon="-17.8012180">
        <ele>1477.6</ele>
        <time>2020-11-16T10:43:31Z</time>
      </trkpt>
      <trkpt lat="28.7391370" lon="-17.8012450">
        <ele>1478.2</ele>
        <time>2020-11-16T10:43:32Z</time>
      </trkpt>
      <trkpt lat="28.7391370" lon="-17.8012450">
        <ele>1478.2</ele>
        <time>2020-11-16T10:43:33Z</time>
      </trkpt>
      <trkpt lat="28.7391300" lon="-17.8012730">
        <ele>1478.9</ele>
        <time>2020-11-16T10:43:34Z</time>
      </trkpt>
      <trkpt lat="28.7391280" lon="-17.8012880">
        <ele>1479.3</ele>
        <time>2020-11-16T10:43:35Z</time>
      </trkpt>
      <trkpt lat="28.7391280" lon="-17.8012880">
        <ele>1479.3</ele>
        <time>2020-11-16T10:43:36Z</time>
      </trkpt>
      <trkpt lat="28.7391200" lon="-17.8013200">
        <ele>1480.0</ele>
        <time>2020-11-16T10:43:37Z</time>
      </trkpt>
      <trkpt lat="28.7391250" lon="-17.8013270">
        <ele>1480.3</ele>
        <time>2020-11-16T10:43:38Z</time>
      </trkpt>
      <trkpt lat="28.7391250" lon="-17.8013270">
        <ele>1480.3</ele>
        <time>2020-11-16T10:43:39Z</time>
      </trkpt>
      <trkpt lat="28.7391250" lon="-17.8013630">
        <ele>1481.1</ele>
        <time>2020-11-16T10:43:40Z</time>
      </trkpt>
      <trkpt lat="28.7391250" lon="-17.8013630">
        <ele>1481.1</ele>
        <time>2020-11-16T10:43:41Z</time>
      </trkpt>
      <trkpt lat="28.7391080" lon="-17.8013850">
        <ele>1481.8</ele>
        <time>2020-11-16T10:43:42Z</time>
      </trkpt>
      <trkpt lat="28.7391080" lon="-17.8013850">
        <ele>1481.8</ele>
        <time>2020-11-16T10:43:43Z</time>
      </trkpt>
      <trkpt lat="28.7391080" lon="-17.8014130">
        <ele>1482.5</ele>
        <time>2020-11-16T10:43:44Z</time>
      </trkpt>
      <trkpt lat="28.7391080" lon="-17.8014130">
        <ele>1482.5</ele>
        <time>2020-11-16T10:43:45Z</time>
      </trkpt>
      <trkpt lat="28.7391000" lon="-17.8014500">
        <ele>1483.4</ele>
        <time>2020-11-16T10:43:46Z</time>
      </trkpt>
      <trkpt lat="28.7391000" lon="-17.8014500">
        <ele>1483.4</ele>
        <time>2020-11-16T10:43:47Z</time>
      </trkpt>
      <trkpt lat="28.7390930" lon="-17.8014970">
        <ele>1484.0</ele>
        <time>2020-11-16T10:43:48Z</time>
      </trkpt>
      <trkpt lat="28.7390930" lon="-17.8014970">
        <ele>1484.0</ele>
        <time>2020-11-16T10:43:49Z</time>
      </trkpt>
      <trkpt lat="28.7390920" lon="-17.8015330">
        <ele>1484.1</ele>
        <time>2020-11-16T10:43:50Z</time>
      </trkpt>
      <trkpt lat="28.7390920" lon="-17.8015330">
        <ele>1484.1</ele>
        <time>2020-11-16T10:43:51Z</time>
      </trkpt>
      <trkpt lat="28.7390870" lon="-17.8015620">
        <ele>1484.2</ele>
        <time>2020-11-16T10:43:52Z</time>
      </trkpt>
      <trkpt lat="28.7390870" lon="-17.8015620">
        <ele>1484.2</ele>
        <time>2020-11-16T10:43:53Z</time>
      </trkpt>
      <trkpt lat="28.7390880" lon="-17.8015850">
        <ele>1484.3</ele>
        <time>2020-11-16T10:43:54Z</time>
      </trkpt>
      <trkpt lat="28.7390880" lon="-17.8015850">
        <ele>1484.3</ele>
        <time>2020-11-16T10:43:55Z</time>
      </trkpt>
      <trkpt lat="28.7390950" lon="-17.8016080">
        <ele>1484.3</ele>
        <time>2020-11-16T10:43:56Z</time>
      </trkpt>
      <trkpt lat="28.7390950" lon="-17.8016080">
        <ele>1484.3</ele>
        <time>2020-11-16T10:43:57Z</time>
      </trkpt>
      <trkpt lat="28.7390870" lon="-17.8016450">
        <ele>1484.5</ele>
        <time>2020-11-16T10:43:58Z</time>
      </trkpt>
      <trkpt lat="28.7390800" lon="-17.8016570">
        <ele>1484.5</ele>
        <time>2020-11-16T10:43:59Z</time>
      </trkpt>
      <trkpt lat="28.7390800" lon="-17.8016570">
        <ele>1484.5</ele>
        <time>2020-11-16T10:44:00Z</time>
      </trkpt>
      <trkpt lat="28.7390630" lon="-17.8016970">
        <ele>1484.7</ele>
        <time>2020-11-16T10:44:01Z</time>
      </trkpt>
      <trkpt lat="28.7390630" lon="-17.8016970">
        <ele>1484.7</ele>
        <time>2020-11-16T10:44:02Z</time>
      </trkpt>
      <trkpt lat="28.7390630" lon="-17.8017200">
        <ele>1484.8</ele>
        <time>2020-11-16T10:44:03Z</time>
      </trkpt>
      <trkpt lat="28.7390630" lon="-17.8017200">
        <ele>1484.8</ele>
        <time>2020-11-16T10:44:04Z</time>
      </trkpt>
      <trkpt lat="28.7390630" lon="-17.8017420">
        <ele>1484.9</ele>
        <time>2020-11-16T10:44:05Z</time>
      </trkpt>
      <trkpt lat="28.7390630" lon="-17.8017420">
        <ele>1484.9</ele>
        <time>2020-11-16T10:44:06Z</time>
      </trkpt>
      <trkpt lat="28.7390570" lon="-17.8017730">
        <ele>1485.1</ele>
        <time>2020-11-16T10:44:07Z</time>
      </trkpt>
      <trkpt lat="28.7390550" lon="-17.8017920">
        <ele>1485.1</ele>
        <time>2020-11-16T10:44:08Z</time>
      </trkpt>
      <trkpt lat="28.7390550" lon="-17.8017920">
        <ele>1485.1</ele>
        <time>2020-11-16T10:44:09Z</time>
      </trkpt>
      <trkpt lat="28.7390570" lon="-17.8018150">
        <ele>1485.3</ele>
        <time>2020-11-16T10:44:10Z</time>
      </trkpt>
      <trkpt lat="28.7390570" lon="-17.8018150">
        <ele>1485.3</ele>
        <time>2020-11-16T10:44:11Z</time>
      </trkpt>
      <trkpt lat="28.7390700" lon="-17.8018750">
        <ele>1485.5</ele>
        <time>2020-11-16T10:44:12Z</time>
      </trkpt>
      <trkpt lat="28.7390700" lon="-17.8018750">
        <ele>1485.5</ele>
        <time>2020-11-16T10:44:13Z</time>
      </trkpt>
      <trkpt lat="28.7390600" lon="-17.8019320">
        <ele>1485.8</ele>
        <time>2020-11-16T10:44:14Z</time>
      </trkpt>
      <trkpt lat="28.7390600" lon="-17.8019320">
        <ele>1485.8</ele>
        <time>2020-11-16T10:44:15Z</time>
      </trkpt>
      <trkpt lat="28.7390520" lon="-17.8019880">
        <ele>1486.0</ele>
        <time>2020-11-16T10:44:16Z</time>
      </trkpt>
      <trkpt lat="28.7390470" lon="-17.8020220">
        <ele>1486.2</ele>
        <time>2020-11-16T10:44:17Z</time>
      </trkpt>
      <trkpt lat="28.7390470" lon="-17.8020220">
        <ele>1486.2</ele>
        <time>2020-11-16T10:44:18Z</time>
      </trkpt>
      <trkpt lat="28.7390400" lon="-17.8020680">
        <ele>1486.4</ele>
        <time>2020-11-16T10:44:19Z</time>
      </trkpt>
      <trkpt lat="28.7390380" lon="-17.8020920">
        <ele>1486.5</ele>
        <time>2020-11-16T10:44:20Z</time>
      </trkpt>
      <trkpt lat="28.7390380" lon="-17.8020920">
        <ele>1486.5</ele>
        <time>2020-11-16T10:44:21Z</time>
      </trkpt>
      <trkpt lat="28.7390350" lon="-17.8021170">
        <ele>1486.6</ele>
        <time>2020-11-16T10:44:22Z</time>
      </trkpt>
      <trkpt lat="28.7390350" lon="-17.8021320">
        <ele>1486.6</ele>
        <time>2020-11-16T10:44:23Z</time>
      </trkpt>
      <trkpt lat="28.7390350" lon="-17.8021320">
        <ele>1486.6</ele>
        <time>2020-11-16T10:44:24Z</time>
      </trkpt>
      <trkpt lat="28.7390230" lon="-17.8021520">
        <ele>1486.7</ele>
        <time>2020-11-16T10:44:25Z</time>
      </trkpt>
      <trkpt lat="28.7390230" lon="-17.8021520">
        <ele>1486.7</ele>
        <time>2020-11-16T10:44:26Z</time>
      </trkpt>
      <trkpt lat="28.7390120" lon="-17.8021720">
        <ele>1486.8</ele>
        <time>2020-11-16T10:44:27Z</time>
      </trkpt>
      <trkpt lat="28.7390120" lon="-17.8021720">
        <ele>1486.8</ele>
        <time>2020-11-16T10:44:28Z</time>
      </trkpt>
      <trkpt lat="28.7390170" lon="-17.8022130">
        <ele>1486.9</ele>
        <time>2020-11-16T10:44:29Z</time>
      </trkpt>
      <trkpt lat="28.7390170" lon="-17.8022130">
        <ele>1486.9</ele>
        <time>2020-11-16T10:44:30Z</time>
      </trkpt>
      <trkpt lat="28.7390050" lon="-17.8022430">
        <ele>1487.0</ele>
        <time>2020-11-16T10:44:31Z</time>
      </trkpt>
      <trkpt lat="28.7390000" lon="-17.8022570">
        <ele>1487.1</ele>
        <time>2020-11-16T10:44:32Z</time>
      </trkpt>
      <trkpt lat="28.7390000" lon="-17.8022570">
        <ele>1487.1</ele>
        <time>2020-11-16T10:44:33Z</time>
      </trkpt>
      <trkpt lat="28.7389900" lon="-17.8022870">
        <ele>1487.1</ele>
        <time>2020-11-16T10:44:34Z</time>
      </trkpt>
      <trkpt lat="28.7389900" lon="-17.8022870">
        <ele>1487.1</ele>
        <time>2020-11-16T10:44:35Z</time>
      </trkpt>
      <trkpt lat="28.7389730" lon="-17.8023130">
        <ele>1487.2</ele>
        <time>2020-11-16T10:44:36Z</time>
      </trkpt>
      <trkpt lat="28.7389670" lon="-17.8023230">
        <ele>1487.2</ele>
        <time>2020-11-16T10:44:37Z</time>
      </trkpt>
      <trkpt lat="28.7389670" lon="-17.8023230">
        <ele>1487.2</ele>
        <time>2020-11-16T10:44:38Z</time>
      </trkpt>
      <trkpt lat="28.7389480" lon="-17.8023480">
        <ele>1487.3</ele>
        <time>2020-11-16T10:44:39Z</time>
      </trkpt>
      <trkpt lat="28.7389480" lon="-17.8023480">
        <ele>1487.3</ele>
        <time>2020-11-16T10:44:40Z</time>
      </trkpt>
      <trkpt lat="28.7389450" lon="-17.8023880">
        <ele>1487.3</ele>
        <time>2020-11-16T10:44:41Z</time>
      </trkpt>
      <trkpt lat="28.7389330" lon="-17.8024120">
        <ele>1487.4</ele>
        <time>2020-11-16T10:44:42Z</time>
      </trkpt>
      <trkpt lat="28.7389330" lon="-17.8024120">
        <ele>1487.4</ele>
        <time>2020-11-16T10:44:43Z</time>
      </trkpt>
      <trkpt lat="28.7389100" lon="-17.8024470">
        <ele>1487.4</ele>
        <time>2020-11-16T10:44:44Z</time>
      </trkpt>
      <trkpt lat="28.7389100" lon="-17.8024470">
        <ele>1487.4</ele>
        <time>2020-11-16T10:44:45Z</time>
      </trkpt>
      <trkpt lat="28.7388700" lon="-17.8025270">
        <ele>1487.6</ele>
        <time>2020-11-16T10:44:46Z</time>
      </trkpt>
      <trkpt lat="28.7388700" lon="-17.8025270">
        <ele>1487.6</ele>
        <time>2020-11-16T10:44:47Z</time>
      </trkpt>
      <trkpt lat="28.7388830" lon="-17.8025670">
        <ele>1487.6</ele>
        <time>2020-11-16T10:44:48Z</time>
      </trkpt>
      <trkpt lat="28.7388830" lon="-17.8025670">
        <ele>1487.6</ele>
        <time>2020-11-16T10:44:49Z</time>
      </trkpt>
      <trkpt lat="28.7388850" lon="-17.8025970">
        <ele>1487.6</ele>
        <time>2020-11-16T10:44:50Z</time>
      </trkpt>
      <trkpt lat="28.7388850" lon="-17.8025970">
        <ele>1487.6</ele>
        <time>2020-11-16T10:44:51Z</time>
      </trkpt>
      <trkpt lat="28.7388930" lon="-17.8026270">
        <ele>1487.6</ele>
        <time>2020-11-16T10:44:52Z</time>
      </trkpt>
      <trkpt lat="28.7389000" lon="-17.8026450">
        <ele>1487.6</ele>
        <time>2020-11-16T10:44:53Z</time>
      </trkpt>
      <trkpt lat="28.7389000" lon="-17.8026450">
        <ele>1487.6</ele>
        <time>2020-11-16T10:44:54Z</time>
      </trkpt>
      <trkpt lat="28.7389000" lon="-17.8026770">
        <ele>1487.6</ele>
        <time>2020-11-16T10:44:55Z</time>
      </trkpt>
      <trkpt lat="28.7389000" lon="-17.8026770">
        <ele>1487.6</ele>
        <time>2020-11-16T10:44:56Z</time>
      </trkpt>
      <trkpt lat="28.7388950" lon="-17.8027150">
        <ele>1487.5</ele>
        <time>2020-11-16T10:44:57Z</time>
      </trkpt>
      <trkpt lat="28.7388950" lon="-17.8027150">
        <ele>1487.5</ele>
        <time>2020-11-16T10:44:58Z</time>
      </trkpt>
      <trkpt lat="28.7389000" lon="-17.8027670">
        <ele>1487.5</ele>
        <time>2020-11-16T10:44:59Z</time>
      </trkpt>
      <trkpt lat="28.7389050" lon="-17.8028000">
        <ele>1487.5</ele>
        <time>2020-11-16T10:45:00Z</time>
      </trkpt>
      <trkpt lat="28.7389050" lon="-17.8028000">
        <ele>1487.5</ele>
        <time>2020-11-16T10:45:01Z</time>
      </trkpt>
      <trkpt lat="28.7389030" lon="-17.8028380">
        <ele>1487.4</ele>
        <time>2020-11-16T10:45:02Z</time>
      </trkpt>
      <trkpt lat="28.7389030" lon="-17.8028380">
        <ele>1487.4</ele>
        <time>2020-11-16T10:45:03Z</time>
      </trkpt>
      <trkpt lat="28.7389020" lon="-17.8028730">
        <ele>1487.4</ele>
        <time>2020-11-16T10:45:04Z</time>
      </trkpt>
      <trkpt lat="28.7389030" lon="-17.8029030">
        <ele>1487.3</ele>
        <time>2020-11-16T10:45:05Z</time>
      </trkpt>
      <trkpt lat="28.7389030" lon="-17.8029030">
        <ele>1487.3</ele>
        <time>2020-11-16T10:45:06Z</time>
      </trkpt>
      <trkpt lat="28.7389200" lon="-17.8029280">
        <ele>1487.2</ele>
        <time>2020-11-16T10:45:07Z</time>
      </trkpt>
      <trkpt lat="28.7389270" lon="-17.8029430">
        <ele>1487.2</ele>
        <time>2020-11-16T10:45:08Z</time>
      </trkpt>
      <trkpt lat="28.7389270" lon="-17.8029430">
        <ele>1487.2</ele>
        <time>2020-11-16T10:45:09Z</time>
      </trkpt>
      <trkpt lat="28.7389680" lon="-17.8029320">
        <ele>1487.0</ele>
        <time>2020-11-16T10:45:10Z</time>
      </trkpt>
      <trkpt lat="28.7389850" lon="-17.8029270">
        <ele>1487.0</ele>
        <time>2020-11-16T10:45:11Z</time>
      </trkpt>
      <trkpt lat="28.7389850" lon="-17.8029270">
        <ele>1487.0</ele>
        <time>2020-11-16T10:45:12Z</time>
      </trkpt>
      <trkpt lat="28.7390070" lon="-17.8029120">
        <ele>1486.9</ele>
        <time>2020-11-16T10:45:13Z</time>
      </trkpt>
      <trkpt lat="28.7390170" lon="-17.8029030">
        <ele>1486.8</ele>
        <time>2020-11-16T10:45:14Z</time>
      </trkpt>
      <trkpt lat="28.7390170" lon="-17.8029030">
        <ele>1486.8</ele>
        <time>2020-11-16T10:45:15Z</time>
      </trkpt>
      <trkpt lat="28.7390500" lon="-17.8028980">
        <ele>1486.7</ele>
        <time>2020-11-16T10:45:16Z</time>
      </trkpt>
      <trkpt lat="28.7390500" lon="-17.8028980">
        <ele>1486.7</ele>
        <time>2020-11-16T10:45:17Z</time>
      </trkpt>
      <trkpt lat="28.7390950" lon="-17.8029130">
        <ele>1486.6</ele>
        <time>2020-11-16T10:45:18Z</time>
      </trkpt>
      <trkpt lat="28.7390950" lon="-17.8029130">
        <ele>1486.6</ele>
        <time>2020-11-16T10:45:19Z</time>
      </trkpt>
      <trkpt lat="28.7391370" lon="-17.8029320">
        <ele>1486.6</ele>
        <time>2020-11-16T10:45:20Z</time>
      </trkpt>
      <trkpt lat="28.7391500" lon="-17.8029250">
        <ele>1486.6</ele>
        <time>2020-11-16T10:45:21Z</time>
      </trkpt>
      <trkpt lat="28.7391500" lon="-17.8029250">
        <ele>1486.6</ele>
        <time>2020-11-16T10:45:22Z</time>
      </trkpt>
      <trkpt lat="28.7391750" lon="-17.8028970">
        <ele>1486.6</ele>
        <time>2020-11-16T10:45:23Z</time>
      </trkpt>
      <trkpt lat="28.7391880" lon="-17.8028830">
        <ele>1486.6</ele>
        <time>2020-11-16T10:45:24Z</time>
      </trkpt>
      <trkpt lat="28.7391880" lon="-17.8028830">
        <ele>1486.6</ele>
        <time>2020-11-16T10:45:25Z</time>
      </trkpt>
      <trkpt lat="28.7392050" lon="-17.8028620">
        <ele>1486.7</ele>
        <time>2020-11-16T10:45:26Z</time>
      </trkpt>
      <trkpt lat="28.7392050" lon="-17.8028620">
        <ele>1486.7</ele>
        <time>2020-11-16T10:45:27Z</time>
      </trkpt>
      <trkpt lat="28.7392300" lon="-17.8028420">
        <ele>1486.8</ele>
        <time>2020-11-16T10:45:28Z</time>
      </trkpt>
      <trkpt lat="28.7392300" lon="-17.8028420">
        <ele>1486.8</ele>
        <time>2020-11-16T10:45:29Z</time>
      </trkpt>
      <trkpt lat="28.7392570" lon="-17.8028330">
        <ele>1486.9</ele>
        <time>2020-11-16T10:45:30Z</time>
      </trkpt>
      <trkpt lat="28.7392680" lon="-17.8028250">
        <ele>1486.9</ele>
        <time>2020-11-16T10:45:31Z</time>
      </trkpt>
      <trkpt lat="28.7392820" lon="-17.8028200">
        <ele>1487.0</ele>
        <time>2020-11-16T10:45:32Z</time>
      </trkpt>
      <trkpt lat="28.7392820" lon="-17.8028200">
        <ele>1487.0</ele>
        <time>2020-11-16T10:45:33Z</time>
      </trkpt>
      <trkpt lat="28.7393030" lon="-17.8028170">
        <ele>1487.1</ele>
        <time>2020-11-16T10:45:34Z</time>
      </trkpt>
      <trkpt lat="28.7393180" lon="-17.8028080">
        <ele>1487.2</ele>
        <time>2020-11-16T10:45:35Z</time>
      </trkpt>
      <trkpt lat="28.7393180" lon="-17.8028080">
        <ele>1487.2</ele>
        <time>2020-11-16T10:45:36Z</time>
      </trkpt>
      <trkpt lat="28.7393480" lon="-17.8027850">
        <ele>1487.3</ele>
        <time>2020-11-16T10:45:37Z</time>
      </trkpt>
      <trkpt lat="28.7393480" lon="-17.8027850">
        <ele>1487.3</ele>
        <time>2020-11-16T10:45:38Z</time>
      </trkpt>
      <trkpt lat="28.7393780" lon="-17.8027630">
        <ele>1487.5</ele>
        <time>2020-11-16T10:45:39Z</time>
      </trkpt>
      <trkpt lat="28.7393780" lon="-17.8027630">
        <ele>1487.5</ele>
        <time>2020-11-16T10:45:40Z</time>
      </trkpt>
      <trkpt lat="28.7394100" lon="-17.8027530">
        <ele>1487.7</ele>
        <time>2020-11-16T10:45:41Z</time>
      </trkpt>
      <trkpt lat="28.7394100" lon="-17.8027530">
        <ele>1487.7</ele>
        <time>2020-11-16T10:45:42Z</time>
      </trkpt>
      <trkpt lat="28.7394320" lon="-17.8027330">
        <ele>1487.9</ele>
        <time>2020-11-16T10:45:43Z</time>
      </trkpt>
      <trkpt lat="28.7394320" lon="-17.8027330">
        <ele>1487.9</ele>
        <time>2020-11-16T10:45:44Z</time>
      </trkpt>
      <trkpt lat="28.7394600" lon="-17.8027130">
        <ele>1488.1</ele>
        <time>2020-11-16T10:45:45Z</time>
      </trkpt>
      <trkpt lat="28.7394750" lon="-17.8027000">
        <ele>1488.2</ele>
        <time>2020-11-16T10:45:46Z</time>
      </trkpt>
      <trkpt lat="28.7394900" lon="-17.8026900">
        <ele>1488.3</ele>
        <time>2020-11-16T10:45:47Z</time>
      </trkpt>
      <trkpt lat="28.7395270" lon="-17.8026820">
        <ele>1488.6</ele>
        <time>2020-11-16T10:45:48Z</time>
      </trkpt>
      <trkpt lat="28.7395270" lon="-17.8026820">
        <ele>1488.6</ele>
        <time>2020-11-16T10:45:49Z</time>
      </trkpt>
      <trkpt lat="28.7395620" lon="-17.8026530">
        <ele>1488.9</ele>
        <time>2020-11-16T10:45:50Z</time>
      </trkpt>
      <trkpt lat="28.7395620" lon="-17.8026530">
        <ele>1488.9</ele>
        <time>2020-11-16T10:45:51Z</time>
      </trkpt>
      <trkpt lat="28.7395750" lon="-17.8026180">
        <ele>1489.1</ele>
        <time>2020-11-16T10:45:52Z</time>
      </trkpt>
      <trkpt lat="28.7395750" lon="-17.8026180">
        <ele>1489.1</ele>
        <time>2020-11-16T10:45:53Z</time>
      </trkpt>
      <trkpt lat="28.7395870" lon="-17.8025930">
        <ele>1489.3</ele>
        <time>2020-11-16T10:45:54Z</time>
      </trkpt>
      <trkpt lat="28.7395880" lon="-17.8025780">
        <ele>1489.4</ele>
        <time>2020-11-16T10:45:55Z</time>
      </trkpt>
      <trkpt lat="28.7395880" lon="-17.8025780">
        <ele>1489.4</ele>
        <time>2020-11-16T10:45:56Z</time>
      </trkpt>
      <trkpt lat="28.7395980" lon="-17.8025580">
        <ele>1489.5</ele>
        <time>2020-11-16T10:45:57Z</time>
      </trkpt>
      <trkpt lat="28.7395950" lon="-17.8025450">
        <ele>1489.6</ele>
        <time>2020-11-16T10:45:58Z</time>
      </trkpt>
      <trkpt lat="28.7395950" lon="-17.8025450">
        <ele>1489.6</ele>
        <time>2020-11-16T10:45:59Z</time>
      </trkpt>
      <trkpt lat="28.7396100" lon="-17.8025270">
        <ele>1489.8</ele>
        <time>2020-11-16T10:46:00Z</time>
      </trkpt>
      <trkpt lat="28.7396180" lon="-17.8025130">
        <ele>1489.9</ele>
        <time>2020-11-16T10:46:01Z</time>
      </trkpt>
      <trkpt lat="28.7396180" lon="-17.8025130">
        <ele>1489.9</ele>
        <time>2020-11-16T10:46:02Z</time>
      </trkpt>
      <trkpt lat="28.7396380" lon="-17.8024950">
        <ele>1490.2</ele>
        <time>2020-11-16T10:46:03Z</time>
      </trkpt>
      <trkpt lat="28.7396520" lon="-17.8024750">
        <ele>1490.4</ele>
        <time>2020-11-16T10:46:04Z</time>
      </trkpt>
      <trkpt lat="28.7396520" lon="-17.8024750">
        <ele>1490.4</ele>
        <time>2020-11-16T10:46:05Z</time>
      </trkpt>
      <trkpt lat="28.7396670" lon="-17.8024420">
        <ele>1490.6</ele>
        <time>2020-11-16T10:46:06Z</time>
      </trkpt>
      <trkpt lat="28.7396670" lon="-17.8024420">
        <ele>1490.6</ele>
        <time>2020-11-16T10:46:07Z</time>
      </trkpt>
      <trkpt lat="28.7396780" lon="-17.8024030">
        <ele>1491.0</ele>
        <time>2020-11-16T10:46:08Z</time>
      </trkpt>
      <trkpt lat="28.7396780" lon="-17.8024030">
        <ele>1491.0</ele>
        <time>2020-11-16T10:46:09Z</time>
      </trkpt>
      <trkpt lat="28.7396900" lon="-17.8023720">
        <ele>1491.2</ele>
        <time>2020-11-16T10:46:10Z</time>
      </trkpt>
      <trkpt lat="28.7396900" lon="-17.8023720">
        <ele>1491.2</ele>
        <time>2020-11-16T10:46:11Z</time>
      </trkpt>
      <trkpt lat="28.7396980" lon="-17.8023430">
        <ele>1491.4</ele>
        <time>2020-11-16T10:46:12Z</time>
      </trkpt>
      <trkpt lat="28.7397050" lon="-17.8023280">
        <ele>1491.5</ele>
        <time>2020-11-16T10:46:13Z</time>
      </trkpt>
      <trkpt lat="28.7397050" lon="-17.8023280">
        <ele>1491.5</ele>
        <time>2020-11-16T10:46:14Z</time>
      </trkpt>
      <trkpt lat="28.7397300" lon="-17.8023020">
        <ele>1491.7</ele>
        <time>2020-11-16T10:46:15Z</time>
      </trkpt>
      <trkpt lat="28.7397300" lon="-17.8023020">
        <ele>1491.7</ele>
        <time>2020-11-16T10:46:16Z</time>
      </trkpt>
      <trkpt lat="28.7397520" lon="-17.8022670">
        <ele>1491.9</ele>
        <time>2020-11-16T10:46:17Z</time>
      </trkpt>
      <trkpt lat="28.7397520" lon="-17.8022670">
        <ele>1491.9</ele>
        <time>2020-11-16T10:46:18Z</time>
      </trkpt>
      <trkpt lat="28.7398020" lon="-17.8022450">
        <ele>1492.1</ele>
        <time>2020-11-16T10:46:19Z</time>
      </trkpt>
      <trkpt lat="28.7398220" lon="-17.8022370">
        <ele>1492.2</ele>
        <time>2020-11-16T10:46:20Z</time>
      </trkpt>
      <trkpt lat="28.7398220" lon="-17.8022370">
        <ele>1492.2</ele>
        <time>2020-11-16T10:46:21Z</time>
      </trkpt>
      <trkpt lat="28.7398530" lon="-17.8022130">
        <ele>1492.4</ele>
        <time>2020-11-16T10:46:22Z</time>
      </trkpt>
      <trkpt lat="28.7398650" lon="-17.8022050">
        <ele>1492.5</ele>
        <time>2020-11-16T10:46:23Z</time>
      </trkpt>
      <trkpt lat="28.7398650" lon="-17.8022050">
        <ele>1492.5</ele>
        <time>2020-11-16T10:46:24Z</time>
      </trkpt>
      <trkpt lat="28.7398770" lon="-17.8021850">
        <ele>1492.6</ele>
        <time>2020-11-16T10:46:25Z</time>
      </trkpt>
      <trkpt lat="28.7398880" lon="-17.8021750">
        <ele>1492.6</ele>
        <time>2020-11-16T10:46:26Z</time>
      </trkpt>
      <trkpt lat="28.7398880" lon="-17.8021750">
        <ele>1492.6</ele>
        <time>2020-11-16T10:46:27Z</time>
      </trkpt>
      <trkpt lat="28.7399180" lon="-17.8021570">
        <ele>1492.8</ele>
        <time>2020-11-16T10:46:28Z</time>
      </trkpt>
      <trkpt lat="28.7399350" lon="-17.8021550">
        <ele>1492.9</ele>
        <time>2020-11-16T10:46:29Z</time>
      </trkpt>
      <trkpt lat="28.7399350" lon="-17.8021550">
        <ele>1492.9</ele>
        <time>2020-11-16T10:46:30Z</time>
      </trkpt>
      <trkpt lat="28.7399630" lon="-17.8021630">
        <ele>1493.0</ele>
        <time>2020-11-16T10:46:31Z</time>
      </trkpt>
      <trkpt lat="28.7399630" lon="-17.8021630">
        <ele>1493.0</ele>
        <time>2020-11-16T10:46:32Z</time>
      </trkpt>
      <trkpt lat="28.7399870" lon="-17.8021800">
        <ele>1493.2</ele>
        <time>2020-11-16T10:46:33Z</time>
      </trkpt>
      <trkpt lat="28.7399870" lon="-17.8021800">
        <ele>1493.2</ele>
        <time>2020-11-16T10:46:34Z</time>
      </trkpt>
      <trkpt lat="28.7400180" lon="-17.8022120">
        <ele>1493.4</ele>
        <time>2020-11-16T10:46:35Z</time>
      </trkpt>
      <trkpt lat="28.7400180" lon="-17.8022120">
        <ele>1493.4</ele>
        <time>2020-11-16T10:46:36Z</time>
      </trkpt>
      <trkpt lat="28.7400480" lon="-17.8022520">
        <ele>1493.6</ele>
        <time>2020-11-16T10:46:37Z</time>
      </trkpt>
      <trkpt lat="28.7400550" lon="-17.8022620">
        <ele>1493.7</ele>
        <time>2020-11-16T10:46:38Z</time>
      </trkpt>
      <trkpt lat="28.7400550" lon="-17.8022620">
        <ele>1493.7</ele>
        <time>2020-11-16T10:46:39Z</time>
      </trkpt>
      <trkpt lat="28.7400700" lon="-17.8022870">
        <ele>1493.9</ele>
        <time>2020-11-16T10:46:40Z</time>
      </trkpt>
      <trkpt lat="28.7400770" lon="-17.8023000">
        <ele>1493.9</ele>
        <time>2020-11-16T10:46:41Z</time>
      </trkpt>
      <trkpt lat="28.7400770" lon="-17.8023000">
        <ele>1493.9</ele>
        <time>2020-11-16T10:46:42Z</time>
      </trkpt>
      <trkpt lat="28.7400850" lon="-17.8023250">
        <ele>1494.1</ele>
        <time>2020-11-16T10:46:43Z</time>
      </trkpt>
      <trkpt lat="28.7400870" lon="-17.8023430">
        <ele>1494.2</ele>
        <time>2020-11-16T10:46:44Z</time>
      </trkpt>
      <trkpt lat="28.7400870" lon="-17.8023430">
        <ele>1494.2</ele>
        <time>2020-11-16T10:46:45Z</time>
      </trkpt>
      <trkpt lat="28.7400930" lon="-17.8023630">
        <ele>1494.3</ele>
        <time>2020-11-16T10:46:46Z</time>
      </trkpt>
      <trkpt lat="28.7400930" lon="-17.8023630">
        <ele>1494.3</ele>
        <time>2020-11-16T10:46:47Z</time>
      </trkpt>
      <trkpt lat="28.7400900" lon="-17.8023780">
        <ele>1494.4</ele>
        <time>2020-11-16T10:46:48Z</time>
      </trkpt>
      <trkpt lat="28.7400820" lon="-17.8023870">
        <ele>1494.4</ele>
        <time>2020-11-16T10:46:49Z</time>
      </trkpt>
      <trkpt lat="28.7400800" lon="-17.8023950">
        <ele>1494.5</ele>
        <time>2020-11-16T10:46:50Z</time>
      </trkpt>
      <trkpt lat="28.7400800" lon="-17.8023950">
        <ele>1494.5</ele>
        <time>2020-11-16T10:46:51Z</time>
      </trkpt>
      <trkpt lat="28.7400750" lon="-17.8024120">
        <ele>1494.6</ele>
        <time>2020-11-16T10:46:52Z</time>
      </trkpt>
      <trkpt lat="28.7400750" lon="-17.8024120">
        <ele>1494.6</ele>
        <time>2020-11-16T10:46:53Z</time>
      </trkpt>
      <trkpt lat="28.7400750" lon="-17.8024420">
        <ele>1494.7</ele>
        <time>2020-11-16T10:46:54Z</time>
      </trkpt>
      <trkpt lat="28.7400750" lon="-17.8024420">
        <ele>1494.7</ele>
        <time>2020-11-16T10:46:55Z</time>
      </trkpt>
      <trkpt lat="28.7400880" lon="-17.8024680">
        <ele>1494.9</ele>
        <time>2020-11-16T10:46:56Z</time>
      </trkpt>
      <trkpt lat="28.7400880" lon="-17.8024680">
        <ele>1494.9</ele>
        <time>2020-11-16T10:46:57Z</time>
      </trkpt>
      <trkpt lat="28.7401020" lon="-17.8024950">
        <ele>1495.0</ele>
        <time>2020-11-16T10:46:58Z</time>
      </trkpt>
      <trkpt lat="28.7401020" lon="-17.8024950">
        <ele>1495.0</ele>
        <time>2020-11-16T10:46:59Z</time>
      </trkpt>
      <trkpt lat="28.7401080" lon="-17.8025250">
        <ele>1495.2</ele>
        <time>2020-11-16T10:47:00Z</time>
      </trkpt>
      <trkpt lat="28.7401080" lon="-17.8025250">
        <ele>1495.2</ele>
        <time>2020-11-16T10:47:01Z</time>
      </trkpt>
      <trkpt lat="28.7401080" lon="-17.8025620">
        <ele>1495.4</ele>
        <time>2020-11-16T10:47:02Z</time>
      </trkpt>
      <trkpt lat="28.7401080" lon="-17.8025620">
        <ele>1495.4</ele>
        <time>2020-11-16T10:47:03Z</time>
      </trkpt>
      <trkpt lat="28.7401100" lon="-17.8025880">
        <ele>1495.6</ele>
        <time>2020-11-16T10:47:04Z</time>
      </trkpt>
      <trkpt lat="28.7401100" lon="-17.8025880">
        <ele>1495.6</ele>
        <time>2020-11-16T10:47:05Z</time>
      </trkpt>
      <trkpt lat="28.7401080" lon="-17.8026150">
        <ele>1495.7</ele>
        <time>2020-11-16T10:47:06Z</time>
      </trkpt>
      <trkpt lat="28.7401080" lon="-17.8026150">
        <ele>1495.7</ele>
        <time>2020-11-16T10:47:07Z</time>
      </trkpt>
      <trkpt lat="28.7401020" lon="-17.8026520">
        <ele>1496.0</ele>
        <time>2020-11-16T10:47:08Z</time>
      </trkpt>
      <trkpt lat="28.7401020" lon="-17.8026520">
        <ele>1496.0</ele>
        <time>2020-11-16T10:47:09Z</time>
      </trkpt>
      <trkpt lat="28.7401000" lon="-17.8026820">
        <ele>1496.1</ele>
        <time>2020-11-16T10:47:10Z</time>
      </trkpt>
      <trkpt lat="28.7401050" lon="-17.8026980">
        <ele>1496.2</ele>
        <time>2020-11-16T10:47:11Z</time>
      </trkpt>
      <trkpt lat="28.7401050" lon="-17.8026980">
        <ele>1496.2</ele>
        <time>2020-11-16T10:47:12Z</time>
      </trkpt>
      <trkpt lat="28.7401120" lon="-17.8027270">
        <ele>1496.4</ele>
        <time>2020-11-16T10:47:13Z</time>
      </trkpt>
      <trkpt lat="28.7401120" lon="-17.8027350">
        <ele>1496.4</ele>
        <time>2020-11-16T10:47:14Z</time>
      </trkpt>
      <trkpt lat="28.7401120" lon="-17.8027350">
        <ele>1496.4</ele>
        <time>2020-11-16T10:47:15Z</time>
      </trkpt>
      <trkpt lat="28.7401050" lon="-17.8027400">
        <ele>1496.5</ele>
        <time>2020-11-16T10:47:16Z</time>
      </trkpt>
      <trkpt lat="28.7400970" lon="-17.8027530">
        <ele>1496.6</ele>
        <time>2020-11-16T10:47:17Z</time>
      </trkpt>
      <trkpt lat="28.7400970" lon="-17.8027530">
        <ele>1496.6</ele>
        <time>2020-11-16T10:47:18Z</time>
      </trkpt>
      <trkpt lat="28.7401020" lon="-17.8027850">
        <ele>1496.8</ele>
        <time>2020-11-16T10:47:19Z</time>
      </trkpt>
      <trkpt lat="28.7401020" lon="-17.8027850">
        <ele>1496.8</ele>
        <time>2020-11-16T10:47:20Z</time>
      </trkpt>
      <trkpt lat="28.7401030" lon="-17.8028130">
        <ele>1496.9</ele>
        <time>2020-11-16T10:47:21Z</time>
      </trkpt>
      <trkpt lat="28.7401030" lon="-17.8028130">
        <ele>1496.9</ele>
        <time>2020-11-16T10:47:22Z</time>
      </trkpt>
      <trkpt lat="28.7401080" lon="-17.8028400">
        <ele>1497.0</ele>
        <time>2020-11-16T10:47:23Z</time>
      </trkpt>
      <trkpt lat="28.7401100" lon="-17.8028550">
        <ele>1497.1</ele>
        <time>2020-11-16T10:47:24Z</time>
      </trkpt>
      <trkpt lat="28.7401100" lon="-17.8028550">
        <ele>1497.1</ele>
        <time>2020-11-16T10:47:25Z</time>
      </trkpt>
      <trkpt lat="28.7401180" lon="-17.8028970">
        <ele>1497.3</ele>
        <time>2020-11-16T10:47:26Z</time>
      </trkpt>
      <trkpt lat="28.7401180" lon="-17.8028970">
        <ele>1497.3</ele>
        <time>2020-11-16T10:47:27Z</time>
      </trkpt>
      <trkpt lat="28.7401180" lon="-17.8029330">
        <ele>1497.5</ele>
        <time>2020-11-16T10:47:28Z</time>
      </trkpt>
      <trkpt lat="28.7401180" lon="-17.8029330">
        <ele>1497.5</ele>
        <time>2020-11-16T10:47:29Z</time>
      </trkpt>
      <trkpt lat="28.7401300" lon="-17.8029530">
        <ele>1497.6</ele>
        <time>2020-11-16T10:47:30Z</time>
      </trkpt>
      <trkpt lat="28.7401300" lon="-17.8029530">
        <ele>1497.6</ele>
        <time>2020-11-16T10:47:31Z</time>
      </trkpt>
      <trkpt lat="28.7401450" lon="-17.8029880">
        <ele>1497.8</ele>
        <time>2020-11-16T10:47:32Z</time>
      </trkpt>
      <trkpt lat="28.7401450" lon="-17.8029880">
        <ele>1497.8</ele>
        <time>2020-11-16T10:47:33Z</time>
      </trkpt>
      <trkpt lat="28.7401580" lon="-17.8030150">
        <ele>1498.0</ele>
        <time>2020-11-16T10:47:34Z</time>
      </trkpt>
      <trkpt lat="28.7401580" lon="-17.8030150">
        <ele>1498.0</ele>
        <time>2020-11-16T10:47:35Z</time>
      </trkpt>
      <trkpt lat="28.7401800" lon="-17.8030420">
        <ele>1498.1</ele>
        <time>2020-11-16T10:47:36Z</time>
      </trkpt>
      <trkpt lat="28.7401870" lon="-17.8030570">
        <ele>1498.2</ele>
        <time>2020-11-16T10:47:37Z</time>
      </trkpt>
      <trkpt lat="28.7401870" lon="-17.8030570">
        <ele>1498.2</ele>
        <time>2020-11-16T10:47:38Z</time>
      </trkpt>
      <trkpt lat="28.7402300" lon="-17.8031050">
        <ele>1498.5</ele>
        <time>2020-11-16T10:47:39Z</time>
      </trkpt>
      <trkpt lat="28.7402620" lon="-17.8031330">
        <ele>1498.6</ele>
        <time>2020-11-16T10:47:40Z</time>
      </trkpt>
      <trkpt lat="28.7402620" lon="-17.8031330">
        <ele>1498.6</ele>
        <time>2020-11-16T10:47:41Z</time>
      </trkpt>
      <trkpt lat="28.7402930" lon="-17.8031750">
        <ele>1498.7</ele>
        <time>2020-11-16T10:47:42Z</time>
      </trkpt>
      <trkpt lat="28.7402930" lon="-17.8031750">
        <ele>1498.7</ele>
        <time>2020-11-16T10:47:43Z</time>
      </trkpt>
      <trkpt lat="28.7403300" lon="-17.8032380">
        <ele>1498.8</ele>
        <time>2020-11-16T10:47:44Z</time>
      </trkpt>
      <trkpt lat="28.7403300" lon="-17.8032380">
        <ele>1498.8</ele>
        <time>2020-11-16T10:47:45Z</time>
      </trkpt>
      <trkpt lat="28.7403550" lon="-17.8032870">
        <ele>1498.8</ele>
        <time>2020-11-16T10:47:46Z</time>
      </trkpt>
      <trkpt lat="28.7403550" lon="-17.8032870">
        <ele>1498.8</ele>
        <time>2020-11-16T10:47:47Z</time>
      </trkpt>
      <trkpt lat="28.7403700" lon="-17.8033080">
        <ele>1498.8</ele>
        <time>2020-11-16T10:47:48Z</time>
      </trkpt>
      <trkpt lat="28.7403700" lon="-17.8033080">
        <ele>1498.8</ele>
        <time>2020-11-16T10:47:49Z</time>
      </trkpt>
      <trkpt lat="28.7403900" lon="-17.8033370">
        <ele>1499.1</ele>
        <time>2020-11-16T10:47:50Z</time>
      </trkpt>
      <trkpt lat="28.7404030" lon="-17.8033470">
        <ele>1499.2</ele>
        <time>2020-11-16T10:47:51Z</time>
      </trkpt>
      <trkpt lat="28.7404030" lon="-17.8033470">
        <ele>1499.2</ele>
        <time>2020-11-16T10:47:52Z</time>
      </trkpt>
      <trkpt lat="28.7404270" lon="-17.8033750">
        <ele>1499.5</ele>
        <time>2020-11-16T10:47:53Z</time>
      </trkpt>
      <trkpt lat="28.7404270" lon="-17.8033750">
        <ele>1499.5</ele>
        <time>2020-11-16T10:47:54Z</time>
      </trkpt>
      <trkpt lat="28.7404370" lon="-17.8033970">
        <ele>1499.7</ele>
        <time>2020-11-16T10:47:55Z</time>
      </trkpt>
      <trkpt lat="28.7404430" lon="-17.8034100">
        <ele>1499.8</ele>
        <time>2020-11-16T10:47:56Z</time>
      </trkpt>
      <trkpt lat="28.7404430" lon="-17.8034100">
        <ele>1499.8</ele>
        <time>2020-11-16T10:47:57Z</time>
      </trkpt>
      <trkpt lat="28.7404570" lon="-17.8034320">
        <ele>1500.0</ele>
        <time>2020-11-16T10:47:58Z</time>
      </trkpt>
      <trkpt lat="28.7404630" lon="-17.8034380">
        <ele>1500.0</ele>
        <time>2020-11-16T10:47:59Z</time>
      </trkpt>
      <trkpt lat="28.7404630" lon="-17.8034380">
        <ele>1500.0</ele>
        <time>2020-11-16T10:48:00Z</time>
      </trkpt>
      <trkpt lat="28.7404820" lon="-17.8034630">
        <ele>1500.3</ele>
        <time>2020-11-16T10:48:01Z</time>
      </trkpt>
      <trkpt lat="28.7404870" lon="-17.8034780">
        <ele>1500.4</ele>
        <time>2020-11-16T10:48:02Z</time>
      </trkpt>
      <trkpt lat="28.7404870" lon="-17.8034780">
        <ele>1500.4</ele>
        <time>2020-11-16T10:48:03Z</time>
      </trkpt>
      <trkpt lat="28.7405020" lon="-17.8035070">
        <ele>1500.6</ele>
        <time>2020-11-16T10:48:04Z</time>
      </trkpt>
      <trkpt lat="28.7405000" lon="-17.8035280">
        <ele>1500.8</ele>
        <time>2020-11-16T10:48:05Z</time>
      </trkpt>
      <trkpt lat="28.7405000" lon="-17.8035280">
        <ele>1500.8</ele>
        <time>2020-11-16T10:48:06Z</time>
      </trkpt>
      <trkpt lat="28.7405030" lon="-17.8035670">
        <ele>1501.0</ele>
        <time>2020-11-16T10:48:07Z</time>
      </trkpt>
      <trkpt lat="28.7405100" lon="-17.8035820">
        <ele>1501.2</ele>
        <time>2020-11-16T10:48:08Z</time>
      </trkpt>
      <trkpt lat="28.7405100" lon="-17.8035820">
        <ele>1501.2</ele>
        <time>2020-11-16T10:48:09Z</time>
      </trkpt>
      <trkpt lat="28.7405200" lon="-17.8036230">
        <ele>1501.5</ele>
        <time>2020-11-16T10:48:10Z</time>
      </trkpt>
      <trkpt lat="28.7405200" lon="-17.8036230">
        <ele>1501.5</ele>
        <time>2020-11-16T10:48:11Z</time>
      </trkpt>
      <trkpt lat="28.7405320" lon="-17.8036550">
        <ele>1501.7</ele>
        <time>2020-11-16T10:48:12Z</time>
      </trkpt>
      <trkpt lat="28.7405320" lon="-17.8036550">
        <ele>1501.7</ele>
        <time>2020-11-16T10:48:13Z</time>
      </trkpt>
      <trkpt lat="28.7405430" lon="-17.8036950">
        <ele>1502.0</ele>
        <time>2020-11-16T10:48:14Z</time>
      </trkpt>
      <trkpt lat="28.7405430" lon="-17.8036950">
        <ele>1502.0</ele>
        <time>2020-11-16T10:48:15Z</time>
      </trkpt>
      <trkpt lat="28.7405530" lon="-17.8037480">
        <ele>1502.4</ele>
        <time>2020-11-16T10:48:16Z</time>
      </trkpt>
      <trkpt lat="28.7405630" lon="-17.8037720">
        <ele>1502.6</ele>
        <time>2020-11-16T10:48:17Z</time>
      </trkpt>
      <trkpt lat="28.7405630" lon="-17.8037720">
        <ele>1502.6</ele>
        <time>2020-11-16T10:48:18Z</time>
      </trkpt>
      <trkpt lat="28.7405700" lon="-17.8038300">
        <ele>1503.0</ele>
        <time>2020-11-16T10:48:19Z</time>
      </trkpt>
      <trkpt lat="28.7405850" lon="-17.8038430">
        <ele>1503.2</ele>
        <time>2020-11-16T10:48:20Z</time>
      </trkpt>
      <trkpt lat="28.7405850" lon="-17.8038430">
        <ele>1503.2</ele>
        <time>2020-11-16T10:48:21Z</time>
      </trkpt>
      <trkpt lat="28.7406150" lon="-17.8038680">
        <ele>1503.5</ele>
        <time>2020-11-16T10:48:22Z</time>
      </trkpt>
      <trkpt lat="28.7406270" lon="-17.8038820">
        <ele>1503.6</ele>
        <time>2020-11-16T10:48:23Z</time>
      </trkpt>
      <trkpt lat="28.7406270" lon="-17.8038820">
        <ele>1503.6</ele>
        <time>2020-11-16T10:48:24Z</time>
      </trkpt>
      <trkpt lat="28.7406520" lon="-17.8039000">
        <ele>1503.9</ele>
        <time>2020-11-16T10:48:25Z</time>
      </trkpt>
      <trkpt lat="28.7406670" lon="-17.8039100">
        <ele>1504.0</ele>
        <time>2020-11-16T10:48:26Z</time>
      </trkpt>
      <trkpt lat="28.7406670" lon="-17.8039100">
        <ele>1504.0</ele>
        <time>2020-11-16T10:48:27Z</time>
      </trkpt>
      <trkpt lat="28.7406980" lon="-17.8039350">
        <ele>1504.3</ele>
        <time>2020-11-16T10:48:28Z</time>
      </trkpt>
      <trkpt lat="28.7406980" lon="-17.8039350">
        <ele>1504.3</ele>
        <time>2020-11-16T10:48:29Z</time>
      </trkpt>
      <trkpt lat="28.7407270" lon="-17.8039450">
        <ele>1504.6</ele>
        <time>2020-11-16T10:48:30Z</time>
      </trkpt>
      <trkpt lat="28.7407270" lon="-17.8039450">
        <ele>1504.6</ele>
        <time>2020-11-16T10:48:31Z</time>
      </trkpt>
      <trkpt lat="28.7407520" lon="-17.8039500">
        <ele>1504.8</ele>
        <time>2020-11-16T10:48:32Z</time>
      </trkpt>
      <trkpt lat="28.7407520" lon="-17.8039500">
        <ele>1504.8</ele>
        <time>2020-11-16T10:48:33Z</time>
      </trkpt>
      <trkpt lat="28.7407700" lon="-17.8039650">
        <ele>1504.9</ele>
        <time>2020-11-16T10:48:34Z</time>
      </trkpt>
      <trkpt lat="28.7407700" lon="-17.8039650">
        <ele>1504.9</ele>
        <time>2020-11-16T10:48:35Z</time>
      </trkpt>
      <trkpt lat="28.7407820" lon="-17.8039830">
        <ele>1505.1</ele>
        <time>2020-11-16T10:48:36Z</time>
      </trkpt>
      <trkpt lat="28.7407920" lon="-17.8039930">
        <ele>1505.2</ele>
        <time>2020-11-16T10:48:37Z</time>
      </trkpt>
      <trkpt lat="28.7408000" lon="-17.8040080">
        <ele>1505.3</ele>
        <time>2020-11-16T10:48:38Z</time>
      </trkpt>
      <trkpt lat="28.7408000" lon="-17.8040080">
        <ele>1505.3</ele>
        <time>2020-11-16T10:48:39Z</time>
      </trkpt>
      <trkpt lat="28.7408100" lon="-17.8040470">
        <ele>1505.6</ele>
        <time>2020-11-16T10:48:40Z</time>
      </trkpt>
      <trkpt lat="28.7408100" lon="-17.8040470">
        <ele>1505.6</ele>
        <time>2020-11-16T10:48:41Z</time>
      </trkpt>
      <trkpt lat="28.7408230" lon="-17.8040780">
        <ele>1505.9</ele>
        <time>2020-11-16T10:48:42Z</time>
      </trkpt>
      <trkpt lat="28.7408230" lon="-17.8040780">
        <ele>1505.9</ele>
        <time>2020-11-16T10:48:43Z</time>
      </trkpt>
      <trkpt lat="28.7408380" lon="-17.8041220">
        <ele>1506.2</ele>
        <time>2020-11-16T10:48:44Z</time>
      </trkpt>
      <trkpt lat="28.7408470" lon="-17.8041450">
        <ele>1506.4</ele>
        <time>2020-11-16T10:48:45Z</time>
      </trkpt>
      <trkpt lat="28.7408470" lon="-17.8041450">
        <ele>1506.4</ele>
        <time>2020-11-16T10:48:46Z</time>
      </trkpt>
      <trkpt lat="28.7408700" lon="-17.8042070">
        <ele>1506.9</ele>
        <time>2020-11-16T10:48:47Z</time>
      </trkpt>
      <trkpt lat="28.7408700" lon="-17.8042070">
        <ele>1506.9</ele>
        <time>2020-11-16T10:48:48Z</time>
      </trkpt>
      <trkpt lat="28.7408870" lon="-17.8042330">
        <ele>1507.1</ele>
        <time>2020-11-16T10:48:49Z</time>
      </trkpt>
      <trkpt lat="28.7408900" lon="-17.8042430">
        <ele>1507.2</ele>
        <time>2020-11-16T10:48:50Z</time>
      </trkpt>
      <trkpt lat="28.7408900" lon="-17.8042430">
        <ele>1507.2</ele>
        <time>2020-11-16T10:48:51Z</time>
      </trkpt>
      <trkpt lat="28.7408830" lon="-17.8042550">
        <ele>1507.3</ele>
        <time>2020-11-16T10:48:52Z</time>
      </trkpt>
      <trkpt lat="28.7408870" lon="-17.8042730">
        <ele>1507.4</ele>
        <time>2020-11-16T10:48:53Z</time>
      </trkpt>
      <trkpt lat="28.7408880" lon="-17.8042970">
        <ele>1507.6</ele>
        <time>2020-11-16T10:48:54Z</time>
      </trkpt>
      <trkpt lat="28.7408880" lon="-17.8042970">
        <ele>1507.6</ele>
        <time>2020-11-16T10:48:55Z</time>
      </trkpt>
      <trkpt lat="28.7409000" lon="-17.8043300">
        <ele>1507.8</ele>
        <time>2020-11-16T10:48:56Z</time>
      </trkpt>
      <trkpt lat="28.7409000" lon="-17.8043300">
        <ele>1507.8</ele>
        <time>2020-11-16T10:48:57Z</time>
      </trkpt>
      <trkpt lat="28.7409080" lon="-17.8043600">
        <ele>1508.1</ele>
        <time>2020-11-16T10:48:58Z</time>
      </trkpt>
      <trkpt lat="28.7409080" lon="-17.8043600">
        <ele>1508.1</ele>
        <time>2020-11-16T10:48:59Z</time>
      </trkpt>
      <trkpt lat="28.7409150" lon="-17.8043830">
        <ele>1508.2</ele>
        <time>2020-11-16T10:49:00Z</time>
      </trkpt>
      <trkpt lat="28.7409150" lon="-17.8043830">
        <ele>1508.2</ele>
        <time>2020-11-16T10:49:01Z</time>
      </trkpt>
      <trkpt lat="28.7409130" lon="-17.8044100">
        <ele>1508.4</ele>
        <time>2020-11-16T10:49:02Z</time>
      </trkpt>
      <trkpt lat="28.7409130" lon="-17.8044100">
        <ele>1508.4</ele>
        <time>2020-11-16T10:49:03Z</time>
      </trkpt>
      <trkpt lat="28.7409150" lon="-17.8044480">
        <ele>1508.7</ele>
        <time>2020-11-16T10:49:04Z</time>
      </trkpt>
      <trkpt lat="28.7409150" lon="-17.8044480">
        <ele>1508.7</ele>
        <time>2020-11-16T10:49:05Z</time>
      </trkpt>
      <trkpt lat="28.7409200" lon="-17.8045000">
        <ele>1509.1</ele>
        <time>2020-11-16T10:49:06Z</time>
      </trkpt>
      <trkpt lat="28.7409200" lon="-17.8045220">
        <ele>1509.2</ele>
        <time>2020-11-16T10:49:07Z</time>
      </trkpt>
      <trkpt lat="28.7409200" lon="-17.8045220">
        <ele>1509.2</ele>
        <time>2020-11-16T10:49:08Z</time>
      </trkpt>
      <trkpt lat="28.7409120" lon="-17.8045500">
        <ele>1509.5</ele>
        <time>2020-11-16T10:49:09Z</time>
      </trkpt>
      <trkpt lat="28.7409070" lon="-17.8045630">
        <ele>1509.6</ele>
        <time>2020-11-16T10:49:10Z</time>
      </trkpt>
      <trkpt lat="28.7409070" lon="-17.8045630">
        <ele>1509.6</ele>
        <time>2020-11-16T10:49:11Z</time>
      </trkpt>
      <trkpt lat="28.7409030" lon="-17.8045900">
        <ele>1509.8</ele>
        <time>2020-11-16T10:49:12Z</time>
      </trkpt>
      <trkpt lat="28.7409030" lon="-17.8045900">
        <ele>1509.8</ele>
        <time>2020-11-16T10:49:13Z</time>
      </trkpt>
      <trkpt lat="28.7408980" lon="-17.8046120">
        <ele>1509.9</ele>
        <time>2020-11-16T10:49:14Z</time>
      </trkpt>
      <trkpt lat="28.7408980" lon="-17.8046120">
        <ele>1509.9</ele>
        <time>2020-11-16T10:49:15Z</time>
      </trkpt>
      <trkpt lat="28.7408980" lon="-17.8046380">
        <ele>1510.1</ele>
        <time>2020-11-16T10:49:16Z</time>
      </trkpt>
      <trkpt lat="28.7409030" lon="-17.8046520">
        <ele>1510.2</ele>
        <time>2020-11-16T10:49:17Z</time>
      </trkpt>
      <trkpt lat="28.7409030" lon="-17.8046520">
        <ele>1510.2</ele>
        <time>2020-11-16T10:49:18Z</time>
      </trkpt>
      <trkpt lat="28.7409020" lon="-17.8046650">
        <ele>1510.3</ele>
        <time>2020-11-16T10:49:19Z</time>
      </trkpt>
      <trkpt lat="28.7409070" lon="-17.8046800">
        <ele>1510.4</ele>
        <time>2020-11-16T10:49:20Z</time>
      </trkpt>
      <trkpt lat="28.7409070" lon="-17.8046800">
        <ele>1510.4</ele>
        <time>2020-11-16T10:49:21Z</time>
      </trkpt>
      <trkpt lat="28.7408950" lon="-17.8047180">
        <ele>1510.7</ele>
        <time>2020-11-16T10:49:22Z</time>
      </trkpt>
      <trkpt lat="28.7408920" lon="-17.8047330">
        <ele>1510.8</ele>
        <time>2020-11-16T10:49:23Z</time>
      </trkpt>
      <trkpt lat="28.7408900" lon="-17.8047520">
        <ele>1511.0</ele>
        <time>2020-11-16T10:49:24Z</time>
      </trkpt>
      <trkpt lat="28.7408900" lon="-17.8047520">
        <ele>1511.0</ele>
        <time>2020-11-16T10:49:25Z</time>
      </trkpt>
      <trkpt lat="28.7409020" lon="-17.8047770">
        <ele>1511.2</ele>
        <time>2020-11-16T10:49:26Z</time>
      </trkpt>
      <trkpt lat="28.7409020" lon="-17.8047770">
        <ele>1511.2</ele>
        <time>2020-11-16T10:49:27Z</time>
      </trkpt>
      <trkpt lat="28.7409620" lon="-17.8048450">
        <ele>1511.9</ele>
        <time>2020-11-16T10:49:28Z</time>
      </trkpt>
      <trkpt lat="28.7409620" lon="-17.8048450">
        <ele>1511.9</ele>
        <time>2020-11-16T10:49:29Z</time>
      </trkpt>
      <trkpt lat="28.7410020" lon="-17.8049030">
        <ele>1512.4</ele>
        <time>2020-11-16T10:49:30Z</time>
      </trkpt>
      <trkpt lat="28.7410120" lon="-17.8049670">
        <ele>1512.8</ele>
        <time>2020-11-16T10:49:31Z</time>
      </trkpt>
      <trkpt lat="28.7410120" lon="-17.8049670">
        <ele>1512.8</ele>
        <time>2020-11-16T10:49:32Z</time>
      </trkpt>
      <trkpt lat="28.7410370" lon="-17.8050150">
        <ele>1513.2</ele>
        <time>2020-11-16T10:49:33Z</time>
      </trkpt>
      <trkpt lat="28.7410430" lon="-17.8050320">
        <ele>1513.4</ele>
        <time>2020-11-16T10:49:34Z</time>
      </trkpt>
      <trkpt lat="28.7410430" lon="-17.8050320">
        <ele>1513.4</ele>
        <time>2020-11-16T10:49:35Z</time>
      </trkpt>
      <trkpt lat="28.7410550" lon="-17.8050570">
        <ele>1513.6</ele>
        <time>2020-11-16T10:49:36Z</time>
      </trkpt>
      <trkpt lat="28.7410550" lon="-17.8050570">
        <ele>1513.6</ele>
        <time>2020-11-16T10:49:37Z</time>
      </trkpt>
      <trkpt lat="28.7410630" lon="-17.8050880">
        <ele>1513.8</ele>
        <time>2020-11-16T10:49:38Z</time>
      </trkpt>
      <trkpt lat="28.7410630" lon="-17.8050880">
        <ele>1513.8</ele>
        <time>2020-11-16T10:49:39Z</time>
      </trkpt>
      <trkpt lat="28.7410700" lon="-17.8051230">
        <ele>1514.1</ele>
        <time>2020-11-16T10:49:40Z</time>
      </trkpt>
      <trkpt lat="28.7410720" lon="-17.8051400">
        <ele>1514.2</ele>
        <time>2020-11-16T10:49:41Z</time>
      </trkpt>
      <trkpt lat="28.7410720" lon="-17.8051400">
        <ele>1514.2</ele>
        <time>2020-11-16T10:49:42Z</time>
      </trkpt>
      <trkpt lat="28.7410750" lon="-17.8051730">
        <ele>1514.4</ele>
        <time>2020-11-16T10:49:43Z</time>
      </trkpt>
      <trkpt lat="28.7410750" lon="-17.8051730">
        <ele>1514.4</ele>
        <time>2020-11-16T10:49:44Z</time>
      </trkpt>
      <trkpt lat="28.7410830" lon="-17.8052130">
        <ele>1514.7</ele>
        <time>2020-11-16T10:49:45Z</time>
      </trkpt>
      <trkpt lat="28.7410830" lon="-17.8052130">
        <ele>1514.7</ele>
        <time>2020-11-16T10:49:46Z</time>
      </trkpt>
      <trkpt lat="28.7410880" lon="-17.8052550">
        <ele>1515.0</ele>
        <time>2020-11-16T10:49:47Z</time>
      </trkpt>
      <trkpt lat="28.7410880" lon="-17.8052550">
        <ele>1515.0</ele>
        <time>2020-11-16T10:49:48Z</time>
      </trkpt>
      <trkpt lat="28.7410920" lon="-17.8052850">
        <ele>1515.2</ele>
        <time>2020-11-16T10:49:49Z</time>
      </trkpt>
      <trkpt lat="28.7410920" lon="-17.8052850">
        <ele>1515.2</ele>
        <time>2020-11-16T10:49:50Z</time>
      </trkpt>
      <trkpt lat="28.7411150" lon="-17.8053250">
        <ele>1515.6</ele>
        <time>2020-11-16T10:49:51Z</time>
      </trkpt>
      <trkpt lat="28.7411230" lon="-17.8053430">
        <ele>1515.7</ele>
        <time>2020-11-16T10:49:52Z</time>
      </trkpt>
      <trkpt lat="28.7411230" lon="-17.8053430">
        <ele>1515.7</ele>
        <time>2020-11-16T10:49:53Z</time>
      </trkpt>
      <trkpt lat="28.7411550" lon="-17.8053830">
        <ele>1516.1</ele>
        <time>2020-11-16T10:49:54Z</time>
      </trkpt>
      <trkpt lat="28.7411720" lon="-17.8054020">
        <ele>1516.3</ele>
        <time>2020-11-16T10:49:55Z</time>
      </trkpt>
      <trkpt lat="28.7411720" lon="-17.8054020">
        <ele>1516.3</ele>
        <time>2020-11-16T10:49:56Z</time>
      </trkpt>
      <trkpt lat="28.7411950" lon="-17.8054350">
        <ele>1516.6</ele>
        <time>2020-11-16T10:49:57Z</time>
      </trkpt>
      <trkpt lat="28.7412070" lon="-17.8054500">
        <ele>1516.8</ele>
        <time>2020-11-16T10:49:58Z</time>
      </trkpt>
      <trkpt lat="28.7412070" lon="-17.8054500">
        <ele>1516.8</ele>
        <time>2020-11-16T10:49:59Z</time>
      </trkpt>
      <trkpt lat="28.7412330" lon="-17.8054880">
        <ele>1517.1</ele>
        <time>2020-11-16T10:50:00Z</time>
      </trkpt>
      <trkpt lat="28.7412430" lon="-17.8055070">
        <ele>1517.3</ele>
        <time>2020-11-16T10:50:01Z</time>
      </trkpt>
      <trkpt lat="28.7412450" lon="-17.8055320">
        <ele>1517.4</ele>
        <time>2020-11-16T10:50:02Z</time>
      </trkpt>
      <trkpt lat="28.7412450" lon="-17.8055320">
        <ele>1517.4</ele>
        <time>2020-11-16T10:50:03Z</time>
      </trkpt>
      <trkpt lat="28.7412680" lon="-17.8055580">
        <ele>1517.7</ele>
        <time>2020-11-16T10:50:04Z</time>
      </trkpt>
      <trkpt lat="28.7412680" lon="-17.8055580">
        <ele>1517.7</ele>
        <time>2020-11-16T10:50:05Z</time>
      </trkpt>
      <trkpt lat="28.7412850" lon="-17.8055730">
        <ele>1517.9</ele>
        <time>2020-11-16T10:50:06Z</time>
      </trkpt>
      <trkpt lat="28.7412850" lon="-17.8055730">
        <ele>1517.9</ele>
        <time>2020-11-16T10:50:07Z</time>
      </trkpt>
      <trkpt lat="28.7413070" lon="-17.8055770">
        <ele>1518.1</ele>
        <time>2020-11-16T10:50:08Z</time>
      </trkpt>
      <trkpt lat="28.7413070" lon="-17.8055770">
        <ele>1518.1</ele>
        <time>2020-11-16T10:50:09Z</time>
      </trkpt>
      <trkpt lat="28.7413330" lon="-17.8055830">
        <ele>1518.3</ele>
        <time>2020-11-16T10:50:10Z</time>
      </trkpt>
      <trkpt lat="28.7413330" lon="-17.8055830">
        <ele>1519.5</ele>
        <time>2020-11-16T10:50:11Z</time>
      </trkpt>
      <trkpt lat="28.7413680" lon="-17.8056070">
        <ele>1520.4</ele>
        <time>2020-11-16T10:50:12Z</time>
      </trkpt>
      <trkpt lat="28.7413680" lon="-17.8056070">
        <ele>1521.6</ele>
        <time>2020-11-16T10:50:13Z</time>
      </trkpt>
      <trkpt lat="28.7413930" lon="-17.8056250">
        <ele>1523.8</ele>
        <time>2020-11-16T10:50:14Z</time>
      </trkpt>
      <trkpt lat="28.7413930" lon="-17.8056250">
        <ele>1525.0</ele>
        <time>2020-11-16T10:50:15Z</time>
      </trkpt>
      <trkpt lat="28.7414270" lon="-17.8056380">
        <ele>1526.0</ele>
        <time>2020-11-16T10:50:16Z</time>
      </trkpt>
      <trkpt lat="28.7414420" lon="-17.8056520">
        <ele>1527.1</ele>
        <time>2020-11-16T10:50:17Z</time>
      </trkpt>
      <trkpt lat="28.7414420" lon="-17.8056520">
        <ele>1528.3</ele>
        <time>2020-11-16T10:50:18Z</time>
      </trkpt>
      <trkpt lat="28.7414820" lon="-17.8056620">
        <ele>1529.3</ele>
        <time>2020-11-16T10:50:19Z</time>
      </trkpt>
      <trkpt lat="28.7415030" lon="-17.8056670">
        <ele>1531.5</ele>
        <time>2020-11-16T10:50:20Z</time>
      </trkpt>
      <trkpt lat="28.7415030" lon="-17.8056670">
        <ele>1532.7</ele>
        <time>2020-11-16T10:50:21Z</time>
      </trkpt>
      <trkpt lat="28.7415350" lon="-17.8056820">
        <ele>1533.8</ele>
        <time>2020-11-16T10:50:22Z</time>
      </trkpt>
      <trkpt lat="28.7415470" lon="-17.8056900">
        <ele>1533.7</ele>
        <time>2020-11-16T10:50:23Z</time>
      </trkpt>
      <trkpt lat="28.7415470" lon="-17.8056900">
        <ele>1533.7</ele>
        <time>2020-11-16T10:50:24Z</time>
      </trkpt>
      <trkpt lat="28.7415780" lon="-17.8056950">
        <ele>1533.4</ele>
        <time>2020-11-16T10:50:25Z</time>
      </trkpt>
      <trkpt lat="28.7416000" lon="-17.8056930">
        <ele>1533.3</ele>
        <time>2020-11-16T10:50:26Z</time>
      </trkpt>
      <trkpt lat="28.7416000" lon="-17.8056930">
        <ele>1533.3</ele>
        <time>2020-11-16T10:50:27Z</time>
      </trkpt>
      <trkpt lat="28.7416480" lon="-17.8056980">
        <ele>1532.9</ele>
        <time>2020-11-16T10:50:28Z</time>
      </trkpt>
      <trkpt lat="28.7416720" lon="-17.8056920">
        <ele>1532.7</ele>
        <time>2020-11-16T10:50:29Z</time>
      </trkpt>
      <trkpt lat="28.7416720" lon="-17.8056920">
        <ele>1532.7</ele>
        <time>2020-11-16T10:50:30Z</time>
      </trkpt>
      <trkpt lat="28.7417100" lon="-17.8056820">
        <ele>1532.4</ele>
        <time>2020-11-16T10:50:31Z</time>
      </trkpt>
      <trkpt lat="28.7417280" lon="-17.8056870">
        <ele>1532.2</ele>
        <time>2020-11-16T10:50:32Z</time>
      </trkpt>
      <trkpt lat="28.7417280" lon="-17.8056870">
        <ele>1532.2</ele>
        <time>2020-11-16T10:50:33Z</time>
      </trkpt>
      <trkpt lat="28.7417870" lon="-17.8056980">
        <ele>1531.7</ele>
        <time>2020-11-16T10:50:34Z</time>
      </trkpt>
      <trkpt lat="28.7417870" lon="-17.8056980">
        <ele>1531.7</ele>
        <time>2020-11-16T10:50:35Z</time>
      </trkpt>
      <trkpt lat="28.7418320" lon="-17.8057020">
        <ele>1531.4</ele>
        <time>2020-11-16T10:50:36Z</time>
      </trkpt>
      <trkpt lat="28.7418320" lon="-17.8057020">
        <ele>1531.4</ele>
        <time>2020-11-16T10:50:37Z</time>
      </trkpt>
      <trkpt lat="28.7418780" lon="-17.8057020">
        <ele>1531.0</ele>
        <time>2020-11-16T10:50:38Z</time>
      </trkpt>
      <trkpt lat="28.7418980" lon="-17.8057020">
        <ele>1530.8</ele>
        <time>2020-11-16T10:50:39Z</time>
      </trkpt>
      <trkpt lat="28.7418980" lon="-17.8057020">
        <ele>1530.8</ele>
        <time>2020-11-16T10:50:40Z</time>
      </trkpt>
      <trkpt lat="28.7419330" lon="-17.8056970">
        <ele>1530.6</ele>
        <time>2020-11-16T10:50:41Z</time>
      </trkpt>
      <trkpt lat="28.7419330" lon="-17.8056970">
        <ele>1530.6</ele>
        <time>2020-11-16T10:50:42Z</time>
      </trkpt>
      <trkpt lat="28.7419600" lon="-17.8057030">
        <ele>1530.3</ele>
        <time>2020-11-16T10:50:43Z</time>
      </trkpt>
      <trkpt lat="28.7419600" lon="-17.8057030">
        <ele>1530.3</ele>
        <time>2020-11-16T10:50:44Z</time>
      </trkpt>
      <trkpt lat="28.7419870" lon="-17.8056970">
        <ele>1530.1</ele>
        <time>2020-11-16T10:50:45Z</time>
      </trkpt>
      <trkpt lat="28.7420020" lon="-17.8056950">
        <ele>1530.0</ele>
        <time>2020-11-16T10:50:46Z</time>
      </trkpt>
      <trkpt lat="28.7420020" lon="-17.8056950">
        <ele>1530.0</ele>
        <time>2020-11-16T10:50:47Z</time>
      </trkpt>
      <trkpt lat="28.7420320" lon="-17.8056920">
        <ele>1529.8</ele>
        <time>2020-11-16T10:50:48Z</time>
      </trkpt>
      <trkpt lat="28.7420470" lon="-17.8056880">
        <ele>1529.6</ele>
        <time>2020-11-16T10:50:49Z</time>
      </trkpt>
      <trkpt lat="28.7420470" lon="-17.8056880">
        <ele>1529.6</ele>
        <time>2020-11-16T10:50:50Z</time>
      </trkpt>
      <trkpt lat="28.7420770" lon="-17.8056770">
        <ele>1529.4</ele>
        <time>2020-11-16T10:50:51Z</time>
      </trkpt>
      <trkpt lat="28.7420920" lon="-17.8056730">
        <ele>1529.3</ele>
        <time>2020-11-16T10:50:52Z</time>
      </trkpt>
      <trkpt lat="28.7420920" lon="-17.8056730">
        <ele>1529.3</ele>
        <time>2020-11-16T10:50:53Z</time>
      </trkpt>
      <trkpt lat="28.7421250" lon="-17.8056750">
        <ele>1529.0</ele>
        <time>2020-11-16T10:50:54Z</time>
      </trkpt>
      <trkpt lat="28.7421250" lon="-17.8056750">
        <ele>1529.0</ele>
        <time>2020-11-16T10:50:55Z</time>
      </trkpt>
      <trkpt lat="28.7421570" lon="-17.8056780">
        <ele>1528.7</ele>
        <time>2020-11-16T10:50:56Z</time>
      </trkpt>
      <trkpt lat="28.7421570" lon="-17.8056780">
        <ele>1528.7</ele>
        <time>2020-11-16T10:50:57Z</time>
      </trkpt>
      <trkpt lat="28.7421920" lon="-17.8056720">
        <ele>1528.5</ele>
        <time>2020-11-16T10:50:58Z</time>
      </trkpt>
      <trkpt lat="28.7421920" lon="-17.8056720">
        <ele>1528.5</ele>
        <time>2020-11-16T10:50:59Z</time>
      </trkpt>
      <trkpt lat="28.7422280" lon="-17.8056570">
        <ele>1528.1</ele>
        <time>2020-11-16T10:51:00Z</time>
      </trkpt>
      <trkpt lat="28.7422470" lon="-17.8056470">
        <ele>1528.0</ele>
        <time>2020-11-16T10:51:01Z</time>
      </trkpt>
      <trkpt lat="28.7422470" lon="-17.8056470">
        <ele>1528.0</ele>
        <time>2020-11-16T10:51:02Z</time>
      </trkpt>
      <trkpt lat="28.7422830" lon="-17.8056230">
        <ele>1527.6</ele>
        <time>2020-11-16T10:51:03Z</time>
      </trkpt>
      <trkpt lat="28.7422830" lon="-17.8056230">
        <ele>1527.6</ele>
        <time>2020-11-16T10:51:04Z</time>
      </trkpt>
      <trkpt lat="28.7423300" lon="-17.8056000">
        <ele>1527.2</ele>
        <time>2020-11-16T10:51:05Z</time>
      </trkpt>
      <trkpt lat="28.7423300" lon="-17.8056000">
        <ele>1527.2</ele>
        <time>2020-11-16T10:51:06Z</time>
      </trkpt>
      <trkpt lat="28.7423580" lon="-17.8055800">
        <ele>1527.0</ele>
        <time>2020-11-16T10:51:07Z</time>
      </trkpt>
      <trkpt lat="28.7423730" lon="-17.8055750">
        <ele>1526.8</ele>
        <time>2020-11-16T10:51:08Z</time>
      </trkpt>
      <trkpt lat="28.7423730" lon="-17.8055750">
        <ele>1527.0</ele>
        <time>2020-11-16T10:51:09Z</time>
      </trkpt>
      <trkpt lat="28.7424070" lon="-17.8055900">
        <ele>1527.3</ele>
        <time>2020-11-16T10:51:10Z</time>
      </trkpt>
      <trkpt lat="28.7424070" lon="-17.8055900">
        <ele>1527.3</ele>
        <time>2020-11-16T10:51:11Z</time>
      </trkpt>
      <trkpt lat="28.7424300" lon="-17.8056270">
        <ele>1527.6</ele>
        <time>2020-11-16T10:51:12Z</time>
      </trkpt>
      <trkpt lat="28.7424300" lon="-17.8056270">
        <ele>1527.6</ele>
        <time>2020-11-16T10:51:13Z</time>
      </trkpt>
      <trkpt lat="28.7424350" lon="-17.8056570">
        <ele>1527.8</ele>
        <time>2020-11-16T10:51:14Z</time>
      </trkpt>
      <trkpt lat="28.7424350" lon="-17.8056570">
        <ele>1527.8</ele>
        <time>2020-11-16T10:51:15Z</time>
      </trkpt>
      <trkpt lat="28.7424320" lon="-17.8056830">
        <ele>1528.0</ele>
        <time>2020-11-16T10:51:16Z</time>
      </trkpt>
      <trkpt lat="28.7424320" lon="-17.8056830">
        <ele>1528.0</ele>
        <time>2020-11-16T10:51:17Z</time>
      </trkpt>
      <trkpt lat="28.7424130" lon="-17.8057030">
        <ele>1528.2</ele>
        <time>2020-11-16T10:51:18Z</time>
      </trkpt>
      <trkpt lat="28.7423970" lon="-17.8057120">
        <ele>1528.3</ele>
        <time>2020-11-16T10:51:19Z</time>
      </trkpt>
      <trkpt lat="28.7423970" lon="-17.8057120">
        <ele>1528.3</ele>
        <time>2020-11-16T10:51:20Z</time>
      </trkpt>
      <trkpt lat="28.7423630" lon="-17.8057250">
        <ele>1528.6</ele>
        <time>2020-11-16T10:51:21Z</time>
      </trkpt>
      <trkpt lat="28.7423630" lon="-17.8057250">
        <ele>1528.6</ele>
        <time>2020-11-16T10:51:22Z</time>
      </trkpt>
      <trkpt lat="28.7423400" lon="-17.8057330">
        <ele>1528.8</ele>
        <time>2020-11-16T10:51:23Z</time>
      </trkpt>
      <trkpt lat="28.7423300" lon="-17.8057370">
        <ele>1528.8</ele>
        <time>2020-11-16T10:51:24Z</time>
      </trkpt>
      <trkpt lat="28.7423300" lon="-17.8057370">
        <ele>1528.8</ele>
        <time>2020-11-16T10:51:25Z</time>
      </trkpt>
      <trkpt lat="28.7423030" lon="-17.8057450">
        <ele>1529.0</ele>
        <time>2020-11-16T10:51:26Z</time>
      </trkpt>
      <trkpt lat="28.7423030" lon="-17.8057450">
        <ele>1529.0</ele>
        <time>2020-11-16T10:51:27Z</time>
      </trkpt>
      <trkpt lat="28.7422770" lon="-17.8057400">
        <ele>1529.2</ele>
        <time>2020-11-16T10:51:28Z</time>
      </trkpt>
      <trkpt lat="28.7422770" lon="-17.8057400">
        <ele>1529.2</ele>
        <time>2020-11-16T10:51:29Z</time>
      </trkpt>
      <trkpt lat="28.7422480" lon="-17.8057230">
        <ele>1529.5</ele>
        <time>2020-11-16T10:51:30Z</time>
      </trkpt>
      <trkpt lat="28.7422480" lon="-17.8057230">
        <ele>1529.5</ele>
        <time>2020-11-16T10:51:31Z</time>
      </trkpt>
      <trkpt lat="28.7422150" lon="-17.8057230">
        <ele>1529.7</ele>
        <time>2020-11-16T10:51:32Z</time>
      </trkpt>
      <trkpt lat="28.7422150" lon="-17.8057230">
        <ele>1529.7</ele>
        <time>2020-11-16T10:51:33Z</time>
      </trkpt>
      <trkpt lat="28.7421800" lon="-17.8057300">
        <ele>1530.0</ele>
        <time>2020-11-16T10:51:34Z</time>
      </trkpt>
      <trkpt lat="28.7421620" lon="-17.8057350">
        <ele>1530.1</ele>
        <time>2020-11-16T10:51:35Z</time>
      </trkpt>
      <trkpt lat="28.7421620" lon="-17.8057350">
        <ele>1530.1</ele>
        <time>2020-11-16T10:51:36Z</time>
      </trkpt>
      <trkpt lat="28.7421350" lon="-17.8057380">
        <ele>1530.3</ele>
        <time>2020-11-16T10:51:37Z</time>
      </trkpt>
      <trkpt lat="28.7421180" lon="-17.8057450">
        <ele>1530.5</ele>
        <time>2020-11-16T10:51:38Z</time>
      </trkpt>
      <trkpt lat="28.7421180" lon="-17.8057450">
        <ele>1530.5</ele>
        <time>2020-11-16T10:51:39Z</time>
      </trkpt>
      <trkpt lat="28.7420850" lon="-17.8057430">
        <ele>1530.7</ele>
        <time>2020-11-16T10:51:40Z</time>
      </trkpt>
      <trkpt lat="28.7420850" lon="-17.8057430">
        <ele>1530.7</ele>
        <time>2020-11-16T10:51:41Z</time>
      </trkpt>
      <trkpt lat="28.7420500" lon="-17.8057470">
        <ele>1531.0</ele>
        <time>2020-11-16T10:51:42Z</time>
      </trkpt>
      <trkpt lat="28.7420500" lon="-17.8057470">
        <ele>1531.0</ele>
        <time>2020-11-16T10:51:43Z</time>
      </trkpt>
      <trkpt lat="28.7420200" lon="-17.8057600">
        <ele>1531.2</ele>
        <time>2020-11-16T10:51:44Z</time>
      </trkpt>
      <trkpt lat="28.7420030" lon="-17.8057600">
        <ele>1531.3</ele>
        <time>2020-11-16T10:51:45Z</time>
      </trkpt>
      <trkpt lat="28.7420030" lon="-17.8057600">
        <ele>1531.3</ele>
        <time>2020-11-16T10:51:46Z</time>
      </trkpt>
      <trkpt lat="28.7419650" lon="-17.8057670">
        <ele>1531.6</ele>
        <time>2020-11-16T10:51:47Z</time>
      </trkpt>
      <trkpt lat="28.7419650" lon="-17.8057670">
        <ele>1531.6</ele>
        <time>2020-11-16T10:51:48Z</time>
      </trkpt>
      <trkpt lat="28.7419320" lon="-17.8057750">
        <ele>1531.9</ele>
        <time>2020-11-16T10:51:49Z</time>
      </trkpt>
      <trkpt lat="28.7419320" lon="-17.8057750">
        <ele>1531.9</ele>
        <time>2020-11-16T10:51:50Z</time>
      </trkpt>
      <trkpt lat="28.7419130" lon="-17.8057820">
        <ele>1532.0</ele>
        <time>2020-11-16T10:51:51Z</time>
      </trkpt>
      <trkpt lat="28.7419130" lon="-17.8057820">
        <ele>1532.0</ele>
        <time>2020-11-16T10:51:52Z</time>
      </trkpt>
      <trkpt lat="28.7419100" lon="-17.8057880">
        <ele>1532.1</ele>
        <time>2020-11-16T10:51:53Z</time>
      </trkpt>
      <trkpt lat="28.7419100" lon="-17.8057880">
        <ele>1532.1</ele>
        <time>2020-11-16T10:51:54Z</time>
      </trkpt>
      <trkpt lat="28.7419100" lon="-17.8057880">
        <ele>1532.1</ele>
        <time>2020-11-16T10:52:31Z</time>
      </trkpt>
      <trkpt lat="28.7418680" lon="-17.8058650">
        <ele>1532.7</ele>
        <time>2020-11-16T10:52:32Z</time>
      </trkpt>
      <trkpt lat="28.7418680" lon="-17.8058650">
        <ele>1532.7</ele>
        <time>2020-11-16T10:52:33Z</time>
      </trkpt>
      <trkpt lat="28.7418430" lon="-17.8058730">
        <ele>1532.9</ele>
        <time>2020-11-16T10:52:34Z</time>
      </trkpt>
      <trkpt lat="28.7418430" lon="-17.8058730">
        <ele>1532.9</ele>
        <time>2020-11-16T10:52:35Z</time>
      </trkpt>
      <trkpt lat="28.7418230" lon="-17.8059020">
        <ele>1533.1</ele>
        <time>2020-11-16T10:52:36Z</time>
      </trkpt>
      <trkpt lat="28.7418050" lon="-17.8059070">
        <ele>1533.2</ele>
        <time>2020-11-16T10:52:37Z</time>
      </trkpt>
      <trkpt lat="28.7417870" lon="-17.8059070">
        <ele>1533.4</ele>
        <time>2020-11-16T10:52:38Z</time>
      </trkpt>
      <trkpt lat="28.7417870" lon="-17.8059070">
        <ele>1533.4</ele>
        <time>2020-11-16T10:52:39Z</time>
      </trkpt>
      <trkpt lat="28.7417530" lon="-17.8059100">
        <ele>1533.6</ele>
        <time>2020-11-16T10:52:40Z</time>
      </trkpt>
      <trkpt lat="28.7417530" lon="-17.8059100">
        <ele>1533.6</ele>
        <time>2020-11-16T10:52:41Z</time>
      </trkpt>
      <trkpt lat="28.7417250" lon="-17.8059200">
        <ele>1533.8</ele>
        <time>2020-11-16T10:52:42Z</time>
      </trkpt>
      <trkpt lat="28.7417250" lon="-17.8059200">
        <ele>1533.8</ele>
        <time>2020-11-16T10:52:43Z</time>
      </trkpt>
      <trkpt lat="28.7416950" lon="-17.8059300">
        <ele>1534.1</ele>
        <time>2020-11-16T10:52:44Z</time>
      </trkpt>
      <trkpt lat="28.7416950" lon="-17.8059300">
        <ele>1534.1</ele>
        <time>2020-11-16T10:52:45Z</time>
      </trkpt>
      <trkpt lat="28.7416670" lon="-17.8059430">
        <ele>1534.3</ele>
        <time>2020-11-16T10:52:46Z</time>
      </trkpt>
      <trkpt lat="28.7416670" lon="-17.8059430">
        <ele>1534.3</ele>
        <time>2020-11-16T10:52:47Z</time>
      </trkpt>
      <trkpt lat="28.7416350" lon="-17.8059550">
        <ele>1534.6</ele>
        <time>2020-11-16T10:52:48Z</time>
      </trkpt>
      <trkpt lat="28.7416350" lon="-17.8059550">
        <ele>1534.6</ele>
        <time>2020-11-16T10:52:49Z</time>
      </trkpt>
      <trkpt lat="28.7416070" lon="-17.8059720">
        <ele>1534.8</ele>
        <time>2020-11-16T10:52:50Z</time>
      </trkpt>
      <trkpt lat="28.7416070" lon="-17.8059720">
        <ele>1534.8</ele>
        <time>2020-11-16T10:52:51Z</time>
      </trkpt>
      <trkpt lat="28.7415720" lon="-17.8059820">
        <ele>1535.1</ele>
        <time>2020-11-16T10:52:52Z</time>
      </trkpt>
      <trkpt lat="28.7415720" lon="-17.8059820">
        <ele>1535.1</ele>
        <time>2020-11-16T10:52:53Z</time>
      </trkpt>
      <trkpt lat="28.7415380" lon="-17.8059880">
        <ele>1535.3</ele>
        <time>2020-11-16T10:52:54Z</time>
      </trkpt>
      <trkpt lat="28.7415380" lon="-17.8059880">
        <ele>1535.3</ele>
        <time>2020-11-16T10:52:55Z</time>
      </trkpt>
      <trkpt lat="28.7415000" lon="-17.8059970">
        <ele>1535.6</ele>
        <time>2020-11-16T10:52:56Z</time>
      </trkpt>
      <trkpt lat="28.7415000" lon="-17.8059970">
        <ele>1535.6</ele>
        <time>2020-11-16T10:52:57Z</time>
      </trkpt>
      <trkpt lat="28.7414630" lon="-17.8060050">
        <ele>1535.9</ele>
        <time>2020-11-16T10:52:58Z</time>
      </trkpt>
      <trkpt lat="28.7414630" lon="-17.8060050">
        <ele>1535.9</ele>
        <time>2020-11-16T10:52:59Z</time>
      </trkpt>
      <trkpt lat="28.7414300" lon="-17.8060170">
        <ele>1536.1</ele>
        <time>2020-11-16T10:53:00Z</time>
      </trkpt>
      <trkpt lat="28.7414300" lon="-17.8060170">
        <ele>1536.1</ele>
        <time>2020-11-16T10:53:01Z</time>
      </trkpt>
      <trkpt lat="28.7413970" lon="-17.8060280">
        <ele>1536.4</ele>
        <time>2020-11-16T10:53:02Z</time>
      </trkpt>
      <trkpt lat="28.7413970" lon="-17.8060280">
        <ele>1536.4</ele>
        <time>2020-11-16T10:53:03Z</time>
      </trkpt>
      <trkpt lat="28.7413630" lon="-17.8060400">
        <ele>1536.7</ele>
        <time>2020-11-16T10:53:04Z</time>
      </trkpt>
      <trkpt lat="28.7413630" lon="-17.8060400">
        <ele>1536.7</ele>
        <time>2020-11-16T10:53:05Z</time>
      </trkpt>
      <trkpt lat="28.7413230" lon="-17.8060680">
        <ele>1537.0</ele>
        <time>2020-11-16T10:53:06Z</time>
      </trkpt>
      <trkpt lat="28.7413020" lon="-17.8060770">
        <ele>1537.2</ele>
        <time>2020-11-16T10:53:07Z</time>
      </trkpt>
      <trkpt lat="28.7413020" lon="-17.8060770">
        <ele>1537.2</ele>
        <time>2020-11-16T10:53:08Z</time>
      </trkpt>
      <trkpt lat="28.7412620" lon="-17.8060820">
        <ele>1537.5</ele>
        <time>2020-11-16T10:53:09Z</time>
      </trkpt>
      <trkpt lat="28.7412620" lon="-17.8060820">
        <ele>1537.5</ele>
        <time>2020-11-16T10:53:10Z</time>
      </trkpt>
      <trkpt lat="28.7412230" lon="-17.8060730">
        <ele>1537.8</ele>
        <time>2020-11-16T10:53:11Z</time>
      </trkpt>
      <trkpt lat="28.7412230" lon="-17.8060730">
        <ele>1537.8</ele>
        <time>2020-11-16T10:53:12Z</time>
      </trkpt>
      <trkpt lat="28.7411870" lon="-17.8060650">
        <ele>1538.1</ele>
        <time>2020-11-16T10:53:13Z</time>
      </trkpt>
      <trkpt lat="28.7411700" lon="-17.8060620">
        <ele>1538.2</ele>
        <time>2020-11-16T10:53:14Z</time>
      </trkpt>
      <trkpt lat="28.7411700" lon="-17.8060620">
        <ele>1538.2</ele>
        <time>2020-11-16T10:53:15Z</time>
      </trkpt>
      <trkpt lat="28.7411380" lon="-17.8060480">
        <ele>1538.4</ele>
        <time>2020-11-16T10:53:16Z</time>
      </trkpt>
      <trkpt lat="28.7411220" lon="-17.8060370">
        <ele>1538.6</ele>
        <time>2020-11-16T10:53:17Z</time>
      </trkpt>
      <trkpt lat="28.7411220" lon="-17.8060370">
        <ele>1538.6</ele>
        <time>2020-11-16T10:53:18Z</time>
      </trkpt>
      <trkpt lat="28.7410930" lon="-17.8060150">
        <ele>1538.8</ele>
        <time>2020-11-16T10:53:19Z</time>
      </trkpt>
      <trkpt lat="28.7410930" lon="-17.8060150">
        <ele>1538.8</ele>
        <time>2020-11-16T10:53:20Z</time>
      </trkpt>
      <trkpt lat="28.7410700" lon="-17.8059870">
        <ele>1539.1</ele>
        <time>2020-11-16T10:53:21Z</time>
      </trkpt>
      <trkpt lat="28.7410700" lon="-17.8059870">
        <ele>1539.1</ele>
        <time>2020-11-16T10:53:22Z</time>
      </trkpt>
      <trkpt lat="28.7410480" lon="-17.8059580">
        <ele>1539.3</ele>
        <time>2020-11-16T10:53:23Z</time>
      </trkpt>
      <trkpt lat="28.7410480" lon="-17.8059580">
        <ele>1539.3</ele>
        <time>2020-11-16T10:53:24Z</time>
      </trkpt>
      <trkpt lat="28.7410330" lon="-17.8059330">
        <ele>1539.5</ele>
        <time>2020-11-16T10:53:25Z</time>
      </trkpt>
      <trkpt lat="28.7410330" lon="-17.8059330">
        <ele>1539.5</ele>
        <time>2020-11-16T10:53:26Z</time>
      </trkpt>
      <trkpt lat="28.7410130" lon="-17.8059020">
        <ele>1539.8</ele>
        <time>2020-11-16T10:53:27Z</time>
      </trkpt>
      <trkpt lat="28.7410130" lon="-17.8059020">
        <ele>1539.8</ele>
        <time>2020-11-16T10:53:28Z</time>
      </trkpt>
      <trkpt lat="28.7409930" lon="-17.8058800">
        <ele>1540.0</ele>
        <time>2020-11-16T10:53:29Z</time>
      </trkpt>
      <trkpt lat="28.7409850" lon="-17.8058670">
        <ele>1540.1</ele>
        <time>2020-11-16T10:53:30Z</time>
      </trkpt>
      <trkpt lat="28.7409850" lon="-17.8058670">
        <ele>1540.1</ele>
        <time>2020-11-16T10:53:31Z</time>
      </trkpt>
      <trkpt lat="28.7409680" lon="-17.8058470">
        <ele>1540.3</ele>
        <time>2020-11-16T10:53:32Z</time>
      </trkpt>
      <trkpt lat="28.7409680" lon="-17.8058470">
        <ele>1540.3</ele>
        <time>2020-11-16T10:53:33Z</time>
      </trkpt>
      <trkpt lat="28.7409530" lon="-17.8058280">
        <ele>1540.5</ele>
        <time>2020-11-16T10:53:34Z</time>
      </trkpt>
      <trkpt lat="28.7409530" lon="-17.8058280">
        <ele>1540.5</ele>
        <time>2020-11-16T10:53:35Z</time>
      </trkpt>
      <trkpt lat="28.7409320" lon="-17.8058180">
        <ele>1540.6</ele>
        <time>2020-11-16T10:53:36Z</time>
      </trkpt>
      <trkpt lat="28.7409130" lon="-17.8058100">
        <ele>1540.8</ele>
        <time>2020-11-16T10:53:37Z</time>
      </trkpt>
      <trkpt lat="28.7409130" lon="-17.8058100">
        <ele>1540.8</ele>
        <time>2020-11-16T10:53:38Z</time>
      </trkpt>
      <trkpt lat="28.7408650" lon="-17.8057700">
        <ele>1541.2</ele>
        <time>2020-11-16T10:53:39Z</time>
      </trkpt>
      <trkpt lat="28.7408650" lon="-17.8057700">
        <ele>1541.2</ele>
        <time>2020-11-16T10:53:40Z</time>
      </trkpt>
      <trkpt lat="28.7408370" lon="-17.8057320">
        <ele>1541.5</ele>
        <time>2020-11-16T10:53:41Z</time>
      </trkpt>
      <trkpt lat="28.7408370" lon="-17.8057320">
        <ele>1541.5</ele>
        <time>2020-11-16T10:53:42Z</time>
      </trkpt>
      <trkpt lat="28.7408170" lon="-17.8056970">
        <ele>1541.8</ele>
        <time>2020-11-16T10:53:43Z</time>
      </trkpt>
      <trkpt lat="28.7408080" lon="-17.8056830">
        <ele>1541.9</ele>
        <time>2020-11-16T10:53:44Z</time>
      </trkpt>
      <trkpt lat="28.7408080" lon="-17.8056830">
        <ele>1541.9</ele>
        <time>2020-11-16T10:53:45Z</time>
      </trkpt>
      <trkpt lat="28.7407970" lon="-17.8056620">
        <ele>1542.1</ele>
        <time>2020-11-16T10:53:46Z</time>
      </trkpt>
      <trkpt lat="28.7407970" lon="-17.8056620">
        <ele>1542.1</ele>
        <time>2020-11-16T10:53:47Z</time>
      </trkpt>
      <trkpt lat="28.7407970" lon="-17.8056350">
        <ele>1542.3</ele>
        <time>2020-11-16T10:53:48Z</time>
      </trkpt>
      <trkpt lat="28.7407970" lon="-17.8056350">
        <ele>1542.3</ele>
        <time>2020-11-16T10:53:49Z</time>
      </trkpt>
      <trkpt lat="28.7407880" lon="-17.8056270">
        <ele>1542.3</ele>
        <time>2020-11-16T10:53:50Z</time>
      </trkpt>
      <trkpt lat="28.7407880" lon="-17.8056270">
        <ele>1542.3</ele>
        <time>2020-11-16T10:53:51Z</time>
      </trkpt>
      <trkpt lat="28.7407870" lon="-17.8056030">
        <ele>1542.5</ele>
        <time>2020-11-16T10:53:52Z</time>
      </trkpt>
      <trkpt lat="28.7407870" lon="-17.8056030">
        <ele>1542.5</ele>
        <time>2020-11-16T10:53:53Z</time>
      </trkpt>
      <trkpt lat="28.7407850" lon="-17.8056020">
        <ele>1542.5</ele>
        <time>2020-11-16T10:53:54Z</time>
      </trkpt>
      <trkpt lat="28.7407870" lon="-17.8055980">
        <ele>1542.6</ele>
        <time>2020-11-16T10:53:55Z</time>
      </trkpt>
      <trkpt lat="28.7407870" lon="-17.8055980">
        <ele>1542.6</ele>
        <time>2020-11-16T10:53:56Z</time>
      </trkpt>
      <trkpt lat="28.7407900" lon="-17.8055980">
        <ele>1542.6</ele>
        <time>2020-11-16T10:53:57Z</time>
      </trkpt>
      <trkpt lat="28.7407900" lon="-17.8055980">
        <ele>1542.6</ele>
        <time>2020-11-16T10:53:58Z</time>
      </trkpt>
      <trkpt lat="28.7407900" lon="-17.8055980">
        <ele>1542.6</ele>
        <time>2020-11-16T10:53:59Z</time>
      </trkpt>
      <trkpt lat="28.7407770" lon="-17.8055770">
        <ele>1542.7</ele>
        <time>2020-11-16T10:54:00Z</time>
      </trkpt>
      <trkpt lat="28.7407770" lon="-17.8055770">
        <ele>1542.7</ele>
        <time>2020-11-16T10:54:01Z</time>
      </trkpt>
      <trkpt lat="28.7407700" lon="-17.8055470">
        <ele>1542.9</ele>
        <time>2020-11-16T10:54:02Z</time>
      </trkpt>
      <trkpt lat="28.7407700" lon="-17.8055280">
        <ele>1543.1</ele>
        <time>2020-11-16T10:54:03Z</time>
      </trkpt>
      <trkpt lat="28.7407700" lon="-17.8055280">
        <ele>1543.1</ele>
        <time>2020-11-16T10:54:04Z</time>
      </trkpt>
      <trkpt lat="28.7407700" lon="-17.8054950">
        <ele>1543.3</ele>
        <time>2020-11-16T10:54:05Z</time>
      </trkpt>
      <trkpt lat="28.7407700" lon="-17.8054950">
        <ele>1543.3</ele>
        <time>2020-11-16T10:54:06Z</time>
      </trkpt>
      <trkpt lat="28.7407480" lon="-17.8054670">
        <ele>1543.5</ele>
        <time>2020-11-16T10:54:07Z</time>
      </trkpt>
      <trkpt lat="28.7407350" lon="-17.8054520">
        <ele>1543.7</ele>
        <time>2020-11-16T10:54:08Z</time>
      </trkpt>
      <trkpt lat="28.7407350" lon="-17.8054520">
        <ele>1543.7</ele>
        <time>2020-11-16T10:54:09Z</time>
      </trkpt>
      <trkpt lat="28.7407220" lon="-17.8054280">
        <ele>1543.9</ele>
        <time>2020-11-16T10:54:10Z</time>
      </trkpt>
      <trkpt lat="28.7407130" lon="-17.8054200">
        <ele>1543.9</ele>
        <time>2020-11-16T10:54:11Z</time>
      </trkpt>
      <trkpt lat="28.7407130" lon="-17.8054200">
        <ele>1543.9</ele>
        <time>2020-11-16T10:54:12Z</time>
      </trkpt>
      <trkpt lat="28.7406900" lon="-17.8054050">
        <ele>1544.1</ele>
        <time>2020-11-16T10:54:13Z</time>
      </trkpt>
      <trkpt lat="28.7406900" lon="-17.8054050">
        <ele>1544.1</ele>
        <time>2020-11-16T10:54:14Z</time>
      </trkpt>
      <trkpt lat="28.7406530" lon="-17.8053950">
        <ele>1544.4</ele>
        <time>2020-11-16T10:54:15Z</time>
      </trkpt>
      <trkpt lat="28.7406530" lon="-17.8053950">
        <ele>1544.4</ele>
        <time>2020-11-16T10:54:16Z</time>
      </trkpt>
      <trkpt lat="28.7406350" lon="-17.8053880">
        <ele>1544.6</ele>
        <time>2020-11-16T10:54:17Z</time>
      </trkpt>
      <trkpt lat="28.7406270" lon="-17.8053870">
        <ele>1544.6</ele>
        <time>2020-11-16T10:54:18Z</time>
      </trkpt>
      <trkpt lat="28.7406270" lon="-17.8053870">
        <ele>1544.6</ele>
        <time>2020-11-16T10:54:19Z</time>
      </trkpt>
      <trkpt lat="28.7406070" lon="-17.8053750">
        <ele>1544.8</ele>
        <time>2020-11-16T10:54:20Z</time>
      </trkpt>
      <trkpt lat="28.7406070" lon="-17.8053750">
        <ele>1544.8</ele>
        <time>2020-11-16T10:54:21Z</time>
      </trkpt>
      <trkpt lat="28.7405950" lon="-17.8053670">
        <ele>1544.9</ele>
        <time>2020-11-16T10:54:22Z</time>
      </trkpt>
      <trkpt lat="28.7405950" lon="-17.8053670">
        <ele>1544.9</ele>
        <time>2020-11-16T10:54:23Z</time>
      </trkpt>
      <trkpt lat="28.7405820" lon="-17.8053620">
        <ele>1545.0</ele>
        <time>2020-11-16T10:54:24Z</time>
      </trkpt>
      <trkpt lat="28.7405820" lon="-17.8053620">
        <ele>1545.0</ele>
        <time>2020-11-16T10:54:25Z</time>
      </trkpt>
      <trkpt lat="28.7405620" lon="-17.8053450">
        <ele>1545.2</ele>
        <time>2020-11-16T10:54:26Z</time>
      </trkpt>
      <trkpt lat="28.7405620" lon="-17.8053450">
        <ele>1545.2</ele>
        <time>2020-11-16T10:54:27Z</time>
      </trkpt>
      <trkpt lat="28.7405480" lon="-17.8053320">
        <ele>1545.3</ele>
        <time>2020-11-16T10:54:28Z</time>
      </trkpt>
      <trkpt lat="28.7405430" lon="-17.8053200">
        <ele>1545.4</ele>
        <time>2020-11-16T10:54:29Z</time>
      </trkpt>
      <trkpt lat="28.7405430" lon="-17.8053200">
        <ele>1545.4</ele>
        <time>2020-11-16T10:54:30Z</time>
      </trkpt>
      <trkpt lat="28.7405370" lon="-17.8053050">
        <ele>1545.5</ele>
        <time>2020-11-16T10:54:31Z</time>
      </trkpt>
      <trkpt lat="28.7405370" lon="-17.8053000">
        <ele>1545.5</ele>
        <time>2020-11-16T10:54:32Z</time>
      </trkpt>
      <trkpt lat="28.7405370" lon="-17.8053000">
        <ele>1545.5</ele>
        <time>2020-11-16T10:54:33Z</time>
      </trkpt>
      <trkpt lat="28.7405370" lon="-17.8052920">
        <ele>1545.6</ele>
        <time>2020-11-16T10:54:39Z</time>
      </trkpt>
      <trkpt lat="28.7405180" lon="-17.8052080">
        <ele>1546.2</ele>
        <time>2020-11-16T10:54:40Z</time>
      </trkpt>
      <trkpt lat="28.7405180" lon="-17.8052080">
        <ele>1546.2</ele>
        <time>2020-11-16T10:54:41Z</time>
      </trkpt>
      <trkpt lat="28.7405050" lon="-17.8051920">
        <ele>1546.3</ele>
        <time>2020-11-16T10:54:42Z</time>
      </trkpt>
      <trkpt lat="28.7404980" lon="-17.8051830">
        <ele>1546.4</ele>
        <time>2020-11-16T10:54:43Z</time>
      </trkpt>
      <trkpt lat="28.7404980" lon="-17.8051830">
        <ele>1546.4</ele>
        <time>2020-11-16T10:54:44Z</time>
      </trkpt>
      <trkpt lat="28.7404880" lon="-17.8051720">
        <ele>1546.5</ele>
        <time>2020-11-16T10:54:45Z</time>
      </trkpt>
      <trkpt lat="28.7404880" lon="-17.8051720">
        <ele>1546.5</ele>
        <time>2020-11-16T10:54:46Z</time>
      </trkpt>
      <trkpt lat="28.7404830" lon="-17.8051570">
        <ele>1546.6</ele>
        <time>2020-11-16T10:54:47Z</time>
      </trkpt>
      <trkpt lat="28.7404820" lon="-17.8051450">
        <ele>1546.7</ele>
        <time>2020-11-16T10:54:48Z</time>
      </trkpt>
      <trkpt lat="28.7404820" lon="-17.8051450">
        <ele>1546.7</ele>
        <time>2020-11-16T10:54:49Z</time>
      </trkpt>
      <trkpt lat="28.7404820" lon="-17.8051220">
        <ele>1546.8</ele>
        <time>2020-11-16T10:54:50Z</time>
      </trkpt>
      <trkpt lat="28.7404820" lon="-17.8051220">
        <ele>1546.8</ele>
        <time>2020-11-16T10:54:51Z</time>
      </trkpt>
      <trkpt lat="28.7404830" lon="-17.8051030">
        <ele>1546.9</ele>
        <time>2020-11-16T10:54:52Z</time>
      </trkpt>
      <trkpt lat="28.7404830" lon="-17.8051030">
        <ele>1546.9</ele>
        <time>2020-11-16T10:54:53Z</time>
      </trkpt>
      <trkpt lat="28.7404770" lon="-17.8050880">
        <ele>1547.1</ele>
        <time>2020-11-16T10:54:54Z</time>
      </trkpt>
      <trkpt lat="28.7404730" lon="-17.8050870">
        <ele>1547.1</ele>
        <time>2020-11-16T10:54:55Z</time>
      </trkpt>
      <trkpt lat="28.7404750" lon="-17.8050770">
        <ele>1547.2</ele>
        <time>2020-11-16T10:54:56Z</time>
      </trkpt>
      <trkpt lat="28.7404630" lon="-17.8050650">
        <ele>1547.3</ele>
        <time>2020-11-16T10:54:57Z</time>
      </trkpt>
      <trkpt lat="28.7404630" lon="-17.8050650">
        <ele>1547.3</ele>
        <time>2020-11-16T10:54:58Z</time>
      </trkpt>
      <trkpt lat="28.7404430" lon="-17.8050280">
        <ele>1547.6</ele>
        <time>2020-11-16T10:54:59Z</time>
      </trkpt>
      <trkpt lat="28.7404380" lon="-17.8050150">
        <ele>1547.6</ele>
        <time>2020-11-16T10:55:00Z</time>
      </trkpt>
      <trkpt lat="28.7404380" lon="-17.8050150">
        <ele>1547.6</ele>
        <time>2020-11-16T10:55:01Z</time>
      </trkpt>
      <trkpt lat="28.7404050" lon="-17.8049820">
        <ele>1548.0</ele>
        <time>2020-11-16T10:55:02Z</time>
      </trkpt>
      <trkpt lat="28.7404050" lon="-17.8049820">
        <ele>1548.0</ele>
        <time>2020-11-16T10:55:03Z</time>
      </trkpt>
      <trkpt lat="28.7403730" lon="-17.8049650">
        <ele>1548.2</ele>
        <time>2020-11-16T10:55:04Z</time>
      </trkpt>
      <trkpt lat="28.7403530" lon="-17.8049580">
        <ele>1548.4</ele>
        <time>2020-11-16T10:55:05Z</time>
      </trkpt>
      <trkpt lat="28.7403530" lon="-17.8049580">
        <ele>1548.4</ele>
        <time>2020-11-16T10:55:06Z</time>
      </trkpt>
      <trkpt lat="28.7403130" lon="-17.8049430">
        <ele>1548.7</ele>
        <time>2020-11-16T10:55:07Z</time>
      </trkpt>
      <trkpt lat="28.7402950" lon="-17.8049400">
        <ele>1548.8</ele>
        <time>2020-11-16T10:55:08Z</time>
      </trkpt>
      <trkpt lat="28.7402950" lon="-17.8049400">
        <ele>1548.8</ele>
        <time>2020-11-16T10:55:09Z</time>
      </trkpt>
      <trkpt lat="28.7402630" lon="-17.8049380">
        <ele>1549.1</ele>
        <time>2020-11-16T10:55:10Z</time>
      </trkpt>
      <trkpt lat="28.7402630" lon="-17.8049380">
        <ele>1549.1</ele>
        <time>2020-11-16T10:55:11Z</time>
      </trkpt>
      <trkpt lat="28.7402200" lon="-17.8049180">
        <ele>1549.4</ele>
        <time>2020-11-16T10:55:12Z</time>
      </trkpt>
      <trkpt lat="28.7402200" lon="-17.8049180">
        <ele>1549.4</ele>
        <time>2020-11-16T10:55:13Z</time>
      </trkpt>
      <trkpt lat="28.7401820" lon="-17.8048980">
        <ele>1549.7</ele>
        <time>2020-11-16T10:55:14Z</time>
      </trkpt>
      <trkpt lat="28.7401820" lon="-17.8048980">
        <ele>1549.7</ele>
        <time>2020-11-16T10:55:15Z</time>
      </trkpt>
      <trkpt lat="28.7401500" lon="-17.8048780">
        <ele>1550.0</ele>
        <time>2020-11-16T10:55:16Z</time>
      </trkpt>
      <trkpt lat="28.7401370" lon="-17.8048670">
        <ele>1550.1</ele>
        <time>2020-11-16T10:55:17Z</time>
      </trkpt>
      <trkpt lat="28.7401370" lon="-17.8048670">
        <ele>1550.1</ele>
        <time>2020-11-16T10:55:18Z</time>
      </trkpt>
      <trkpt lat="28.7401170" lon="-17.8048480">
        <ele>1550.3</ele>
        <time>2020-11-16T10:55:19Z</time>
      </trkpt>
      <trkpt lat="28.7401030" lon="-17.8048420">
        <ele>1550.4</ele>
        <time>2020-11-16T10:55:20Z</time>
      </trkpt>
      <trkpt lat="28.7401030" lon="-17.8048420">
        <ele>1550.4</ele>
        <time>2020-11-16T10:55:21Z</time>
      </trkpt>
      <trkpt lat="28.7400730" lon="-17.8048230">
        <ele>1550.7</ele>
        <time>2020-11-16T10:55:22Z</time>
      </trkpt>
      <trkpt lat="28.7400730" lon="-17.8048230">
        <ele>1550.7</ele>
        <time>2020-11-16T10:55:23Z</time>
      </trkpt>
      <trkpt lat="28.7400400" lon="-17.8048250">
        <ele>1550.9</ele>
        <time>2020-11-16T10:55:24Z</time>
      </trkpt>
      <trkpt lat="28.7400270" lon="-17.8048220">
        <ele>1551.0</ele>
        <time>2020-11-16T10:55:25Z</time>
      </trkpt>
      <trkpt lat="28.7400270" lon="-17.8048220">
        <ele>1551.0</ele>
        <time>2020-11-16T10:55:26Z</time>
      </trkpt>
      <trkpt lat="28.7399920" lon="-17.8048050">
        <ele>1551.3</ele>
        <time>2020-11-16T10:55:27Z</time>
      </trkpt>
      <trkpt lat="28.7399920" lon="-17.8048050">
        <ele>1551.3</ele>
        <time>2020-11-16T10:55:28Z</time>
      </trkpt>
      <trkpt lat="28.7399620" lon="-17.8047820">
        <ele>1551.6</ele>
        <time>2020-11-16T10:55:29Z</time>
      </trkpt>
      <trkpt lat="28.7399450" lon="-17.8047730">
        <ele>1551.7</ele>
        <time>2020-11-16T10:55:30Z</time>
      </trkpt>
      <trkpt lat="28.7399450" lon="-17.8047730">
        <ele>1551.7</ele>
        <time>2020-11-16T10:55:31Z</time>
      </trkpt>
      <trkpt lat="28.7399120" lon="-17.8047530">
        <ele>1552.0</ele>
        <time>2020-11-16T10:55:32Z</time>
      </trkpt>
      <trkpt lat="28.7398970" lon="-17.8047500">
        <ele>1552.1</ele>
        <time>2020-11-16T10:55:33Z</time>
      </trkpt>
      <trkpt lat="28.7398970" lon="-17.8047500">
        <ele>1552.1</ele>
        <time>2020-11-16T10:55:34Z</time>
      </trkpt>
      <trkpt lat="28.7398630" lon="-17.8047570">
        <ele>1552.4</ele>
        <time>2020-11-16T10:55:35Z</time>
      </trkpt>
      <trkpt lat="28.7398480" lon="-17.8047630">
        <ele>1552.5</ele>
        <time>2020-11-16T10:55:36Z</time>
      </trkpt>
      <trkpt lat="28.7398480" lon="-17.8047630">
        <ele>1552.5</ele>
        <time>2020-11-16T10:55:37Z</time>
      </trkpt>
      <trkpt lat="28.7398150" lon="-17.8047850">
        <ele>1552.8</ele>
        <time>2020-11-16T10:55:38Z</time>
      </trkpt>
      <trkpt lat="28.7398150" lon="-17.8047850">
        <ele>1552.8</ele>
        <time>2020-11-16T10:55:39Z</time>
      </trkpt>
      <trkpt lat="28.7397820" lon="-17.8048220">
        <ele>1553.1</ele>
        <time>2020-11-16T10:55:40Z</time>
      </trkpt>
      <trkpt lat="28.7397820" lon="-17.8048220">
        <ele>1553.1</ele>
        <time>2020-11-16T10:55:41Z</time>
      </trkpt>
      <trkpt lat="28.7397480" lon="-17.8048530">
        <ele>1553.5</ele>
        <time>2020-11-16T10:55:42Z</time>
      </trkpt>
      <trkpt lat="28.7397350" lon="-17.8048670">
        <ele>1553.6</ele>
        <time>2020-11-16T10:55:43Z</time>
      </trkpt>
      <trkpt lat="28.7397230" lon="-17.8048800">
        <ele>1553.7</ele>
        <time>2020-11-16T10:55:44Z</time>
      </trkpt>
      <trkpt lat="28.7397230" lon="-17.8048800">
        <ele>1553.7</ele>
        <time>2020-11-16T10:55:45Z</time>
      </trkpt>
      <trkpt lat="28.7397070" lon="-17.8049100">
        <ele>1553.9</ele>
        <time>2020-11-16T10:55:46Z</time>
      </trkpt>
      <trkpt lat="28.7396780" lon="-17.8049430">
        <ele>1554.2</ele>
        <time>2020-11-16T10:55:47Z</time>
      </trkpt>
      <trkpt lat="28.7396780" lon="-17.8049430">
        <ele>1554.2</ele>
        <time>2020-11-16T10:55:48Z</time>
      </trkpt>
      <trkpt lat="28.7396530" lon="-17.8049750">
        <ele>1554.5</ele>
        <time>2020-11-16T10:55:49Z</time>
      </trkpt>
      <trkpt lat="28.7396470" lon="-17.8049830">
        <ele>1554.6</ele>
        <time>2020-11-16T10:55:50Z</time>
      </trkpt>
      <trkpt lat="28.7396370" lon="-17.8049920">
        <ele>1554.7</ele>
        <time>2020-11-16T10:55:51Z</time>
      </trkpt>
      <trkpt lat="28.7396370" lon="-17.8049920">
        <ele>1554.7</ele>
        <time>2020-11-16T10:55:52Z</time>
      </trkpt>
      <trkpt lat="28.7396170" lon="-17.8050130">
        <ele>1554.9</ele>
        <time>2020-11-16T10:55:53Z</time>
      </trkpt>
      <trkpt lat="28.7396030" lon="-17.8050180">
        <ele>1555.0</ele>
        <time>2020-11-16T10:55:54Z</time>
      </trkpt>
      <trkpt lat="28.7396030" lon="-17.8050180">
        <ele>1555.0</ele>
        <time>2020-11-16T10:55:55Z</time>
      </trkpt>
      <trkpt lat="28.7395850" lon="-17.8050400">
        <ele>1555.2</ele>
        <time>2020-11-16T10:55:56Z</time>
      </trkpt>
      <trkpt lat="28.7395850" lon="-17.8050400">
        <ele>1555.2</ele>
        <time>2020-11-16T10:55:57Z</time>
      </trkpt>
      <trkpt lat="28.7395630" lon="-17.8050670">
        <ele>1555.4</ele>
        <time>2020-11-16T10:55:58Z</time>
      </trkpt>
      <trkpt lat="28.7395630" lon="-17.8050670">
        <ele>1555.4</ele>
        <time>2020-11-16T10:55:59Z</time>
      </trkpt>
      <trkpt lat="28.7395480" lon="-17.8050950">
        <ele>1555.7</ele>
        <time>2020-11-16T10:56:00Z</time>
      </trkpt>
      <trkpt lat="28.7395480" lon="-17.8050950">
        <ele>1555.7</ele>
        <time>2020-11-16T10:56:01Z</time>
      </trkpt>
      <trkpt lat="28.7395330" lon="-17.8051250">
        <ele>1555.9</ele>
        <time>2020-11-16T10:56:02Z</time>
      </trkpt>
      <trkpt lat="28.7395330" lon="-17.8051430">
        <ele>1556.0</ele>
        <time>2020-11-16T10:56:03Z</time>
      </trkpt>
      <trkpt lat="28.7395330" lon="-17.8051430">
        <ele>1556.0</ele>
        <time>2020-11-16T10:56:04Z</time>
      </trkpt>
      <trkpt lat="28.7395220" lon="-17.8051730">
        <ele>1556.2</ele>
        <time>2020-11-16T10:56:05Z</time>
      </trkpt>
      <trkpt lat="28.7395220" lon="-17.8051730">
        <ele>1556.2</ele>
        <time>2020-11-16T10:56:06Z</time>
      </trkpt>
      <trkpt lat="28.7395170" lon="-17.8052070">
        <ele>1556.4</ele>
        <time>2020-11-16T10:56:07Z</time>
      </trkpt>
      <trkpt lat="28.7395070" lon="-17.8052170">
        <ele>1556.5</ele>
        <time>2020-11-16T10:56:08Z</time>
      </trkpt>
      <trkpt lat="28.7395070" lon="-17.8052170">
        <ele>1556.5</ele>
        <time>2020-11-16T10:56:09Z</time>
      </trkpt>
      <trkpt lat="28.7395020" lon="-17.8052500">
        <ele>1556.8</ele>
        <time>2020-11-16T10:56:10Z</time>
      </trkpt>
      <trkpt lat="28.7394980" lon="-17.8052650">
        <ele>1556.9</ele>
        <time>2020-11-16T10:56:11Z</time>
      </trkpt>
      <trkpt lat="28.7394980" lon="-17.8052650">
        <ele>1556.9</ele>
        <time>2020-11-16T10:56:12Z</time>
      </trkpt>
      <trkpt lat="28.7394920" lon="-17.8052980">
        <ele>1557.1</ele>
        <time>2020-11-16T10:56:13Z</time>
      </trkpt>
      <trkpt lat="28.7394900" lon="-17.8053100">
        <ele>1557.2</ele>
        <time>2020-11-16T10:56:14Z</time>
      </trkpt>
      <trkpt lat="28.7394900" lon="-17.8053100">
        <ele>1557.2</ele>
        <time>2020-11-16T10:56:15Z</time>
      </trkpt>
      <trkpt lat="28.7394750" lon="-17.8053380">
        <ele>1557.4</ele>
        <time>2020-11-16T10:56:16Z</time>
      </trkpt>
      <trkpt lat="28.7394750" lon="-17.8053380">
        <ele>1557.4</ele>
        <time>2020-11-16T10:56:17Z</time>
      </trkpt>
      <trkpt lat="28.7394670" lon="-17.8053650">
        <ele>1557.6</ele>
        <time>2020-11-16T10:56:18Z</time>
      </trkpt>
      <trkpt lat="28.7394580" lon="-17.8053750">
        <ele>1557.7</ele>
        <time>2020-11-16T10:56:19Z</time>
      </trkpt>
      <trkpt lat="28.7394630" lon="-17.8053930">
        <ele>1557.8</ele>
        <time>2020-11-16T10:56:20Z</time>
      </trkpt>
      <trkpt lat="28.7394630" lon="-17.8053930">
        <ele>1557.8</ele>
        <time>2020-11-16T10:56:21Z</time>
      </trkpt>
      <trkpt lat="28.7394530" lon="-17.8054330">
        <ele>1558.1</ele>
        <time>2020-11-16T10:56:22Z</time>
      </trkpt>
      <trkpt lat="28.7394530" lon="-17.8054330">
        <ele>1558.1</ele>
        <time>2020-11-16T10:56:23Z</time>
      </trkpt>
      <trkpt lat="28.7394470" lon="-17.8054720">
        <ele>1558.3</ele>
        <time>2020-11-16T10:56:24Z</time>
      </trkpt>
      <trkpt lat="28.7394430" lon="-17.8054850">
        <ele>1558.4</ele>
        <time>2020-11-16T10:56:25Z</time>
      </trkpt>
      <trkpt lat="28.7394430" lon="-17.8054850">
        <ele>1558.4</ele>
        <time>2020-11-16T10:56:26Z</time>
      </trkpt>
      <trkpt lat="28.7394380" lon="-17.8055080">
        <ele>1558.6</ele>
        <time>2020-11-16T10:56:27Z</time>
      </trkpt>
      <trkpt lat="28.7394380" lon="-17.8055080">
        <ele>1558.6</ele>
        <time>2020-11-16T10:56:28Z</time>
      </trkpt>
      <trkpt lat="28.7394330" lon="-17.8055400">
        <ele>1558.8</ele>
        <time>2020-11-16T10:56:29Z</time>
      </trkpt>
      <trkpt lat="28.7394320" lon="-17.8055550">
        <ele>1558.9</ele>
        <time>2020-11-16T10:56:30Z</time>
      </trkpt>
      <trkpt lat="28.7394320" lon="-17.8055550">
        <ele>1558.9</ele>
        <time>2020-11-16T10:56:31Z</time>
      </trkpt>
      <trkpt lat="28.7394270" lon="-17.8055850">
        <ele>1559.1</ele>
        <time>2020-11-16T10:56:32Z</time>
      </trkpt>
      <trkpt lat="28.7394270" lon="-17.8055850">
        <ele>1559.1</ele>
        <time>2020-11-16T10:56:33Z</time>
      </trkpt>
      <trkpt lat="28.7394080" lon="-17.8056250">
        <ele>1559.4</ele>
        <time>2020-11-16T10:56:34Z</time>
      </trkpt>
      <trkpt lat="28.7394000" lon="-17.8056430">
        <ele>1559.5</ele>
        <time>2020-11-16T10:56:35Z</time>
      </trkpt>
      <trkpt lat="28.7394000" lon="-17.8056430">
        <ele>1559.5</ele>
        <time>2020-11-16T10:56:36Z</time>
      </trkpt>
      <trkpt lat="28.7393870" lon="-17.8056750">
        <ele>1559.7</ele>
        <time>2020-11-16T10:56:37Z</time>
      </trkpt>
      <trkpt lat="28.7393870" lon="-17.8056750">
        <ele>1559.7</ele>
        <time>2020-11-16T10:56:38Z</time>
      </trkpt>
      <trkpt lat="28.7393750" lon="-17.8057020">
        <ele>1559.9</ele>
        <time>2020-11-16T10:56:39Z</time>
      </trkpt>
      <trkpt lat="28.7393720" lon="-17.8057170">
        <ele>1560.0</ele>
        <time>2020-11-16T10:56:40Z</time>
      </trkpt>
      <trkpt lat="28.7393720" lon="-17.8057170">
        <ele>1560.0</ele>
        <time>2020-11-16T10:56:41Z</time>
      </trkpt>
      <trkpt lat="28.7393670" lon="-17.8057450">
        <ele>1560.2</ele>
        <time>2020-11-16T10:56:42Z</time>
      </trkpt>
      <trkpt lat="28.7393670" lon="-17.8057450">
        <ele>1560.2</ele>
        <time>2020-11-16T10:56:43Z</time>
      </trkpt>
      <trkpt lat="28.7393570" lon="-17.8057770">
        <ele>1560.4</ele>
        <time>2020-11-16T10:56:44Z</time>
      </trkpt>
      <trkpt lat="28.7393570" lon="-17.8057770">
        <ele>1560.4</ele>
        <time>2020-11-16T10:56:45Z</time>
      </trkpt>
      <trkpt lat="28.7393480" lon="-17.8058030">
        <ele>1560.6</ele>
        <time>2020-11-16T10:56:46Z</time>
      </trkpt>
      <trkpt lat="28.7393480" lon="-17.8058030">
        <ele>1560.6</ele>
        <time>2020-11-16T10:56:47Z</time>
      </trkpt>
      <trkpt lat="28.7393380" lon="-17.8058400">
        <ele>1560.9</ele>
        <time>2020-11-16T10:56:48Z</time>
      </trkpt>
      <trkpt lat="28.7393380" lon="-17.8058400">
        <ele>1560.9</ele>
        <time>2020-11-16T10:56:49Z</time>
      </trkpt>
      <trkpt lat="28.7393250" lon="-17.8058780">
        <ele>1561.1</ele>
        <time>2020-11-16T10:56:50Z</time>
      </trkpt>
      <trkpt lat="28.7393250" lon="-17.8058780">
        <ele>1561.1</ele>
        <time>2020-11-16T10:56:51Z</time>
      </trkpt>
      <trkpt lat="28.7393300" lon="-17.8059230">
        <ele>1561.4</ele>
        <time>2020-11-16T10:56:52Z</time>
      </trkpt>
      <trkpt lat="28.7393350" lon="-17.8059480">
        <ele>1561.6</ele>
        <time>2020-11-16T10:56:53Z</time>
      </trkpt>
      <trkpt lat="28.7393350" lon="-17.8059480">
        <ele>1561.6</ele>
        <time>2020-11-16T10:56:54Z</time>
      </trkpt>
      <trkpt lat="28.7393450" lon="-17.8059900">
        <ele>1561.9</ele>
        <time>2020-11-16T10:56:55Z</time>
      </trkpt>
      <trkpt lat="28.7393520" lon="-17.8060070">
        <ele>1562.0</ele>
        <time>2020-11-16T10:56:56Z</time>
      </trkpt>
      <trkpt lat="28.7393520" lon="-17.8060070">
        <ele>1562.0</ele>
        <time>2020-11-16T10:56:57Z</time>
      </trkpt>
      <trkpt lat="28.7393680" lon="-17.8060400">
        <ele>1562.3</ele>
        <time>2020-11-16T10:56:58Z</time>
      </trkpt>
      <trkpt lat="28.7393680" lon="-17.8060400">
        <ele>1562.3</ele>
        <time>2020-11-16T10:56:59Z</time>
      </trkpt>
      <trkpt lat="28.7393800" lon="-17.8060670">
        <ele>1562.5</ele>
        <time>2020-11-16T10:57:00Z</time>
      </trkpt>
      <trkpt lat="28.7393800" lon="-17.8060670">
        <ele>1562.5</ele>
        <time>2020-11-16T10:57:01Z</time>
      </trkpt>
      <trkpt lat="28.7393870" lon="-17.8060980">
        <ele>1562.7</ele>
        <time>2020-11-16T10:57:02Z</time>
      </trkpt>
      <trkpt lat="28.7393870" lon="-17.8060980">
        <ele>1562.7</ele>
        <time>2020-11-16T10:57:03Z</time>
      </trkpt>
      <trkpt lat="28.7394030" lon="-17.8061500">
        <ele>1563.0</ele>
        <time>2020-11-16T10:57:04Z</time>
      </trkpt>
      <trkpt lat="28.7394130" lon="-17.8061700">
        <ele>1563.2</ele>
        <time>2020-11-16T10:57:05Z</time>
      </trkpt>
      <trkpt lat="28.7394130" lon="-17.8061700">
        <ele>1563.2</ele>
        <time>2020-11-16T10:57:06Z</time>
      </trkpt>
      <trkpt lat="28.7394200" lon="-17.8062030">
        <ele>1563.4</ele>
        <time>2020-11-16T10:57:07Z</time>
      </trkpt>
      <trkpt lat="28.7394200" lon="-17.8062030">
        <ele>1563.4</ele>
        <time>2020-11-16T10:57:08Z</time>
      </trkpt>
      <trkpt lat="28.7394400" lon="-17.8062420">
        <ele>1563.7</ele>
        <time>2020-11-16T10:57:09Z</time>
      </trkpt>
      <trkpt lat="28.7394400" lon="-17.8062420">
        <ele>1563.7</ele>
        <time>2020-11-16T10:57:10Z</time>
      </trkpt>
      <trkpt lat="28.7394580" lon="-17.8062880">
        <ele>1564.0</ele>
        <time>2020-11-16T10:57:11Z</time>
      </trkpt>
      <trkpt lat="28.7394670" lon="-17.8063100">
        <ele>1564.2</ele>
        <time>2020-11-16T10:57:12Z</time>
      </trkpt>
      <trkpt lat="28.7394670" lon="-17.8063100">
        <ele>1564.2</ele>
        <time>2020-11-16T10:57:13Z</time>
      </trkpt>
      <trkpt lat="28.7394830" lon="-17.8063450">
        <ele>1564.4</ele>
        <time>2020-11-16T10:57:14Z</time>
      </trkpt>
      <trkpt lat="28.7394830" lon="-17.8063450">
        <ele>1564.4</ele>
        <time>2020-11-16T10:57:15Z</time>
      </trkpt>
      <trkpt lat="28.7395030" lon="-17.8063770">
        <ele>1564.7</ele>
        <time>2020-11-16T10:57:16Z</time>
      </trkpt>
      <trkpt lat="28.7395030" lon="-17.8063770">
        <ele>1564.7</ele>
        <time>2020-11-16T10:57:17Z</time>
      </trkpt>
      <trkpt lat="28.7395200" lon="-17.8064180">
        <ele>1565.0</ele>
        <time>2020-11-16T10:57:18Z</time>
      </trkpt>
      <trkpt lat="28.7395300" lon="-17.8064330">
        <ele>1565.1</ele>
        <time>2020-11-16T10:57:19Z</time>
      </trkpt>
      <trkpt lat="28.7395520" lon="-17.8064600">
        <ele>1565.4</ele>
        <time>2020-11-16T10:57:20Z</time>
      </trkpt>
      <trkpt lat="28.7395520" lon="-17.8064600">
        <ele>1565.4</ele>
        <time>2020-11-16T10:57:21Z</time>
      </trkpt>
      <trkpt lat="28.7395670" lon="-17.8064820">
        <ele>1565.5</ele>
        <time>2020-11-16T10:57:22Z</time>
      </trkpt>
      <trkpt lat="28.7395670" lon="-17.8064820">
        <ele>1565.5</ele>
        <time>2020-11-16T10:57:23Z</time>
      </trkpt>
      <trkpt lat="28.7395720" lon="-17.8065030">
        <ele>1565.7</ele>
        <time>2020-11-16T10:57:24Z</time>
      </trkpt>
      <trkpt lat="28.7395750" lon="-17.8065230">
        <ele>1565.8</ele>
        <time>2020-11-16T10:57:25Z</time>
      </trkpt>
      <trkpt lat="28.7395750" lon="-17.8065230">
        <ele>1565.8</ele>
        <time>2020-11-16T10:57:26Z</time>
      </trkpt>
      <trkpt lat="28.7395920" lon="-17.8065500">
        <ele>1566.0</ele>
        <time>2020-11-16T10:57:27Z</time>
      </trkpt>
      <trkpt lat="28.7395920" lon="-17.8065500">
        <ele>1566.0</ele>
        <time>2020-11-16T10:57:28Z</time>
      </trkpt>
      <trkpt lat="28.7396130" lon="-17.8065720">
        <ele>1566.2</ele>
        <time>2020-11-16T10:57:29Z</time>
      </trkpt>
      <trkpt lat="28.7396130" lon="-17.8065720">
        <ele>1566.2</ele>
        <time>2020-11-16T10:57:30Z</time>
      </trkpt>
      <trkpt lat="28.7396330" lon="-17.8066030">
        <ele>1566.5</ele>
        <time>2020-11-16T10:57:31Z</time>
      </trkpt>
      <trkpt lat="28.7396420" lon="-17.8066150">
        <ele>1566.6</ele>
        <time>2020-11-16T10:57:32Z</time>
      </trkpt>
      <trkpt lat="28.7396420" lon="-17.8066150">
        <ele>1566.6</ele>
        <time>2020-11-16T10:57:33Z</time>
      </trkpt>
      <trkpt lat="28.7396570" lon="-17.8066350">
        <ele>1566.8</ele>
        <time>2020-11-16T10:57:34Z</time>
      </trkpt>
      <trkpt lat="28.7396570" lon="-17.8066350">
        <ele>1566.8</ele>
        <time>2020-11-16T10:57:35Z</time>
      </trkpt>
      <trkpt lat="28.7396650" lon="-17.8066700">
        <ele>1567.0</ele>
        <time>2020-11-16T10:57:36Z</time>
      </trkpt>
      <trkpt lat="28.7396700" lon="-17.8066830">
        <ele>1567.1</ele>
        <time>2020-11-16T10:57:37Z</time>
      </trkpt>
      <trkpt lat="28.7396730" lon="-17.8066970">
        <ele>1567.2</ele>
        <time>2020-11-16T10:57:38Z</time>
      </trkpt>
      <trkpt lat="28.7396730" lon="-17.8066970">
        <ele>1567.2</ele>
        <time>2020-11-16T10:57:39Z</time>
      </trkpt>
      <trkpt lat="28.7396780" lon="-17.8067280">
        <ele>1567.4</ele>
        <time>2020-11-16T10:57:40Z</time>
      </trkpt>
      <trkpt lat="28.7396800" lon="-17.8067480">
        <ele>1567.5</ele>
        <time>2020-11-16T10:57:41Z</time>
      </trkpt>
      <trkpt lat="28.7396800" lon="-17.8067480">
        <ele>1567.5</ele>
        <time>2020-11-16T10:57:42Z</time>
      </trkpt>
      <trkpt lat="28.7396850" lon="-17.8067770">
        <ele>1567.7</ele>
        <time>2020-11-16T10:57:43Z</time>
      </trkpt>
      <trkpt lat="28.7396820" lon="-17.8067950">
        <ele>1567.8</ele>
        <time>2020-11-16T10:57:44Z</time>
      </trkpt>
      <trkpt lat="28.7396820" lon="-17.8067950">
        <ele>1567.8</ele>
        <time>2020-11-16T10:57:45Z</time>
      </trkpt>
      <trkpt lat="28.7396770" lon="-17.8068270">
        <ele>1568.1</ele>
        <time>2020-11-16T10:57:46Z</time>
      </trkpt>
      <trkpt lat="28.7396720" lon="-17.8068420">
        <ele>1568.2</ele>
        <time>2020-11-16T10:57:47Z</time>
      </trkpt>
      <trkpt lat="28.7396720" lon="-17.8068420">
        <ele>1568.2</ele>
        <time>2020-11-16T10:57:48Z</time>
      </trkpt>
      <trkpt lat="28.7396530" lon="-17.8068580">
        <ele>1568.3</ele>
        <time>2020-11-16T10:57:49Z</time>
      </trkpt>
      <trkpt lat="28.7396430" lon="-17.8068630">
        <ele>1568.4</ele>
        <time>2020-11-16T10:57:50Z</time>
      </trkpt>
      <trkpt lat="28.7396430" lon="-17.8068630">
        <ele>1568.4</ele>
        <time>2020-11-16T10:57:51Z</time>
      </trkpt>
      <trkpt lat="28.7396350" lon="-17.8068620">
        <ele>1568.5</ele>
        <time>2020-11-16T10:57:52Z</time>
      </trkpt>
      <trkpt lat="28.7396350" lon="-17.8068620">
        <ele>1568.5</ele>
        <time>2020-11-16T10:57:53Z</time>
      </trkpt>
      <trkpt lat="28.7396220" lon="-17.8068570">
        <ele>1568.6</ele>
        <time>2020-11-16T10:57:54Z</time>
      </trkpt>
      <trkpt lat="28.7396220" lon="-17.8068570">
        <ele>1568.6</ele>
        <time>2020-11-16T10:57:55Z</time>
      </trkpt>
      <trkpt lat="28.7396070" lon="-17.8068470">
        <ele>1568.7</ele>
        <time>2020-11-16T10:57:56Z</time>
      </trkpt>
      <trkpt lat="28.7396070" lon="-17.8068380">
        <ele>1568.8</ele>
        <time>2020-11-16T10:57:57Z</time>
      </trkpt>
      <trkpt lat="28.7396070" lon="-17.8068380">
        <ele>1568.8</ele>
        <time>2020-11-16T10:57:58Z</time>
      </trkpt>
      <trkpt lat="28.7395920" lon="-17.8068320">
        <ele>1568.9</ele>
        <time>2020-11-16T10:57:59Z</time>
      </trkpt>
      <trkpt lat="28.7395920" lon="-17.8068320">
        <ele>1568.9</ele>
        <time>2020-11-16T10:58:00Z</time>
      </trkpt>
      <trkpt lat="28.7395730" lon="-17.8068200">
        <ele>1569.0</ele>
        <time>2020-11-16T10:58:01Z</time>
      </trkpt>
      <trkpt lat="28.7395730" lon="-17.8068200">
        <ele>1569.0</ele>
        <time>2020-11-16T10:58:02Z</time>
      </trkpt>
      <trkpt lat="28.7395500" lon="-17.8068070">
        <ele>1569.2</ele>
        <time>2020-11-16T10:58:03Z</time>
      </trkpt>
      <trkpt lat="28.7395500" lon="-17.8068070">
        <ele>1569.2</ele>
        <time>2020-11-16T10:58:04Z</time>
      </trkpt>
      <trkpt lat="28.7395150" lon="-17.8067780">
        <ele>1569.6</ele>
        <time>2020-11-16T10:58:05Z</time>
      </trkpt>
      <trkpt lat="28.7395150" lon="-17.8067780">
        <ele>1569.6</ele>
        <time>2020-11-16T10:58:06Z</time>
      </trkpt>
      <trkpt lat="28.7394820" lon="-17.8067480">
        <ele>1569.9</ele>
        <time>2020-11-16T10:58:07Z</time>
      </trkpt>
      <trkpt lat="28.7394820" lon="-17.8067480">
        <ele>1569.9</ele>
        <time>2020-11-16T10:58:08Z</time>
      </trkpt>
      <trkpt lat="28.7394520" lon="-17.8067300">
        <ele>1570.1</ele>
        <time>2020-11-16T10:58:09Z</time>
      </trkpt>
      <trkpt lat="28.7394400" lon="-17.8067150">
        <ele>1570.3</ele>
        <time>2020-11-16T10:58:10Z</time>
      </trkpt>
      <trkpt lat="28.7394400" lon="-17.8067150">
        <ele>1570.3</ele>
        <time>2020-11-16T10:58:11Z</time>
      </trkpt>
      <trkpt lat="28.7394130" lon="-17.8067080">
        <ele>1570.5</ele>
        <time>2020-11-16T10:58:12Z</time>
      </trkpt>
      <trkpt lat="28.7393970" lon="-17.8066930">
        <ele>1570.6</ele>
        <time>2020-11-16T10:58:13Z</time>
      </trkpt>
      <trkpt lat="28.7393970" lon="-17.8066930">
        <ele>1570.6</ele>
        <time>2020-11-16T10:58:14Z</time>
      </trkpt>
      <trkpt lat="28.7393680" lon="-17.8066770">
        <ele>1570.9</ele>
        <time>2020-11-16T10:58:15Z</time>
      </trkpt>
      <trkpt lat="28.7393680" lon="-17.8066770">
        <ele>1570.9</ele>
        <time>2020-11-16T10:58:16Z</time>
      </trkpt>
      <trkpt lat="28.7393370" lon="-17.8066600">
        <ele>1571.1</ele>
        <time>2020-11-16T10:58:17Z</time>
      </trkpt>
      <trkpt lat="28.7393370" lon="-17.8066600">
        <ele>1571.1</ele>
        <time>2020-11-16T10:58:18Z</time>
      </trkpt>
      <trkpt lat="28.7393020" lon="-17.8066530">
        <ele>1571.4</ele>
        <time>2020-11-16T10:58:19Z</time>
      </trkpt>
      <trkpt lat="28.7392830" lon="-17.8066620">
        <ele>1571.5</ele>
        <time>2020-11-16T10:58:20Z</time>
      </trkpt>
      <trkpt lat="28.7392830" lon="-17.8066620">
        <ele>1571.5</ele>
        <time>2020-11-16T10:58:21Z</time>
      </trkpt>
      <trkpt lat="28.7392350" lon="-17.8066780">
        <ele>1571.9</ele>
        <time>2020-11-16T10:58:22Z</time>
      </trkpt>
      <trkpt lat="28.7392350" lon="-17.8066780">
        <ele>1571.9</ele>
        <time>2020-11-16T10:58:23Z</time>
      </trkpt>
      <trkpt lat="28.7391780" lon="-17.8066730">
        <ele>1572.3</ele>
        <time>2020-11-16T10:58:24Z</time>
      </trkpt>
      <trkpt lat="28.7391780" lon="-17.8066730">
        <ele>1572.3</ele>
        <time>2020-11-16T10:58:25Z</time>
      </trkpt>
      <trkpt lat="28.7391380" lon="-17.8066580">
        <ele>1572.7</ele>
        <time>2020-11-16T10:58:26Z</time>
      </trkpt>
      <trkpt lat="28.7391180" lon="-17.8066580">
        <ele>1572.8</ele>
        <time>2020-11-16T10:58:27Z</time>
      </trkpt>
      <trkpt lat="28.7391180" lon="-17.8066580">
        <ele>1572.8</ele>
        <time>2020-11-16T10:58:28Z</time>
      </trkpt>
      <trkpt lat="28.7390680" lon="-17.8066630">
        <ele>1573.2</ele>
        <time>2020-11-16T10:58:29Z</time>
      </trkpt>
      <trkpt lat="28.7390680" lon="-17.8066630">
        <ele>1573.2</ele>
        <time>2020-11-16T10:58:30Z</time>
      </trkpt>
      <trkpt lat="28.7390270" lon="-17.8066700">
        <ele>1573.5</ele>
        <time>2020-11-16T10:58:31Z</time>
      </trkpt>
      <trkpt lat="28.7390270" lon="-17.8066700">
        <ele>1573.5</ele>
        <time>2020-11-16T10:58:32Z</time>
      </trkpt>
      <trkpt lat="28.7389820" lon="-17.8066650">
        <ele>1573.8</ele>
        <time>2020-11-16T10:58:33Z</time>
      </trkpt>
      <trkpt lat="28.7389600" lon="-17.8066630">
        <ele>1574.0</ele>
        <time>2020-11-16T10:58:34Z</time>
      </trkpt>
      <trkpt lat="28.7389600" lon="-17.8066630">
        <ele>1574.0</ele>
        <time>2020-11-16T10:58:35Z</time>
      </trkpt>
      <trkpt lat="28.7389120" lon="-17.8066550">
        <ele>1574.3</ele>
        <time>2020-11-16T10:58:36Z</time>
      </trkpt>
      <trkpt lat="28.7388920" lon="-17.8066580">
        <ele>1574.4</ele>
        <time>2020-11-16T10:58:37Z</time>
      </trkpt>
      <trkpt lat="28.7388730" lon="-17.8066600">
        <ele>1574.4</ele>
        <time>2020-11-16T10:58:38Z</time>
      </trkpt>
      <trkpt lat="28.7388730" lon="-17.8066600">
        <ele>1574.4</ele>
        <time>2020-11-16T10:58:39Z</time>
      </trkpt>
      <trkpt lat="28.7388370" lon="-17.8066680">
        <ele>1574.4</ele>
        <time>2020-11-16T10:58:40Z</time>
      </trkpt>
      <trkpt lat="28.7388370" lon="-17.8066680">
        <ele>1574.4</ele>
        <time>2020-11-16T10:58:41Z</time>
      </trkpt>
      <trkpt lat="28.7388070" lon="-17.8066720">
        <ele>1574.4</ele>
        <time>2020-11-16T10:58:42Z</time>
      </trkpt>
      <trkpt lat="28.7387930" lon="-17.8066750">
        <ele>1574.4</ele>
        <time>2020-11-16T10:58:43Z</time>
      </trkpt>
      <trkpt lat="28.7387750" lon="-17.8066700">
        <ele>1574.4</ele>
        <time>2020-11-16T10:58:44Z</time>
      </trkpt>
      <trkpt lat="28.7387750" lon="-17.8066700">
        <ele>1574.4</ele>
        <time>2020-11-16T10:58:45Z</time>
      </trkpt>
      <trkpt lat="28.7387470" lon="-17.8066750">
        <ele>1574.4</ele>
        <time>2020-11-16T10:58:46Z</time>
      </trkpt>
      <trkpt lat="28.7387400" lon="-17.8066870">
        <ele>1574.4</ele>
        <time>2020-11-16T10:58:47Z</time>
      </trkpt>
      <trkpt lat="28.7387300" lon="-17.8066980">
        <ele>1574.3</ele>
        <time>2020-11-16T10:58:48Z</time>
      </trkpt>
      <trkpt lat="28.7387300" lon="-17.8066980">
        <ele>1574.3</ele>
        <time>2020-11-16T10:58:49Z</time>
      </trkpt>
      <trkpt lat="28.7387130" lon="-17.8067400">
        <ele>1575.2</ele>
        <time>2020-11-16T10:58:50Z</time>
      </trkpt>
      <trkpt lat="28.7387130" lon="-17.8067400">
        <ele>1575.2</ele>
        <time>2020-11-16T10:58:51Z</time>
      </trkpt>
      <trkpt lat="28.7386980" lon="-17.8067870">
        <ele>1576.3</ele>
        <time>2020-11-16T10:58:52Z</time>
      </trkpt>
      <trkpt lat="28.7386980" lon="-17.8067870">
        <ele>1576.3</ele>
        <time>2020-11-16T10:58:53Z</time>
      </trkpt>
      <trkpt lat="28.7386870" lon="-17.8068500">
        <ele>1577.7</ele>
        <time>2020-11-16T10:58:54Z</time>
      </trkpt>
      <trkpt lat="28.7386850" lon="-17.8068700">
        <ele>1578.2</ele>
        <time>2020-11-16T10:58:55Z</time>
      </trkpt>
      <trkpt lat="28.7386920" lon="-17.8068950">
        <ele>1578.8</ele>
        <time>2020-11-16T10:58:56Z</time>
      </trkpt>
      <trkpt lat="28.7386920" lon="-17.8068950">
        <ele>1578.8</ele>
        <time>2020-11-16T10:58:57Z</time>
      </trkpt>
      <trkpt lat="28.7387050" lon="-17.8069270">
        <ele>1579.7</ele>
        <time>2020-11-16T10:58:58Z</time>
      </trkpt>
      <trkpt lat="28.7387150" lon="-17.8069400">
        <ele>1580.1</ele>
        <time>2020-11-16T10:58:59Z</time>
      </trkpt>
      <trkpt lat="28.7387270" lon="-17.8069570">
        <ele>1580.7</ele>
        <time>2020-11-16T10:59:00Z</time>
      </trkpt>
      <trkpt lat="28.7387270" lon="-17.8069570">
        <ele>1580.7</ele>
        <time>2020-11-16T10:59:01Z</time>
      </trkpt>
      <trkpt lat="28.7387570" lon="-17.8069850">
        <ele>1580.8</ele>
        <time>2020-11-16T10:59:02Z</time>
      </trkpt>
      <trkpt lat="28.7387570" lon="-17.8069850">
        <ele>1580.9</ele>
        <time>2020-11-16T10:59:03Z</time>
      </trkpt>
      <trkpt lat="28.7387850" lon="-17.8070020">
        <ele>1583.0</ele>
        <time>2020-11-16T10:59:04Z</time>
      </trkpt>
      <trkpt lat="28.7387850" lon="-17.8070020">
        <ele>1583.1</ele>
        <time>2020-11-16T10:59:05Z</time>
      </trkpt>
      <trkpt lat="28.7388170" lon="-17.8070170">
        <ele>1583.9</ele>
        <time>2020-11-16T10:59:06Z</time>
      </trkpt>
      <trkpt lat="28.7388350" lon="-17.8070150">
        <ele>1584.0</ele>
        <time>2020-11-16T10:59:07Z</time>
      </trkpt>
      <trkpt lat="28.7388350" lon="-17.8070150">
        <ele>1584.0</ele>
        <time>2020-11-16T10:59:08Z</time>
      </trkpt>
      <trkpt lat="28.7388750" lon="-17.8070150">
        <ele>1584.9</ele>
        <time>2020-11-16T10:59:09Z</time>
      </trkpt>
      <trkpt lat="28.7388750" lon="-17.8070150">
        <ele>1585.0</ele>
        <time>2020-11-16T10:59:10Z</time>
      </trkpt>
      <trkpt lat="28.7389080" lon="-17.8070020">
        <ele>1585.9</ele>
        <time>2020-11-16T10:59:11Z</time>
      </trkpt>
      <trkpt lat="28.7389200" lon="-17.8069880">
        <ele>1585.9</ele>
        <time>2020-11-16T10:59:12Z</time>
      </trkpt>
      <trkpt lat="28.7389200" lon="-17.8069880">
        <ele>1586.0</ele>
        <time>2020-11-16T10:59:13Z</time>
      </trkpt>
      <trkpt lat="28.7389430" lon="-17.8069650">
        <ele>1586.0</ele>
        <time>2020-11-16T10:59:14Z</time>
      </trkpt>
      <trkpt lat="28.7389580" lon="-17.8069600">
        <ele>1586.9</ele>
        <time>2020-11-16T10:59:15Z</time>
      </trkpt>
      <trkpt lat="28.7389580" lon="-17.8069600">
        <ele>1587.0</ele>
        <time>2020-11-16T10:59:16Z</time>
      </trkpt>
      <trkpt lat="28.7389920" lon="-17.8069500">
        <ele>1587.8</ele>
        <time>2020-11-16T10:59:17Z</time>
      </trkpt>
      <trkpt lat="28.7389920" lon="-17.8069500">
        <ele>1587.9</ele>
        <time>2020-11-16T10:59:18Z</time>
      </trkpt>
      <trkpt lat="28.7390230" lon="-17.8069400">
        <ele>1587.0</ele>
        <time>2020-11-16T10:59:19Z</time>
      </trkpt>
      <trkpt lat="28.7390350" lon="-17.8069330">
        <ele>1587.8</ele>
        <time>2020-11-16T10:59:20Z</time>
      </trkpt>
      <trkpt lat="28.7390350" lon="-17.8069330">
        <ele>1587.8</ele>
        <time>2020-11-16T10:59:21Z</time>
      </trkpt>
      <trkpt lat="28.7390600" lon="-17.8069180">
        <ele>1587.9</ele>
        <time>2020-11-16T10:59:22Z</time>
      </trkpt>
      <trkpt lat="28.7390600" lon="-17.8069180">
        <ele>1588.0</ele>
        <time>2020-11-16T10:59:23Z</time>
      </trkpt>
      <trkpt lat="28.7391220" lon="-17.8069170">
        <ele>1589.2</ele>
        <time>2020-11-16T10:59:24Z</time>
      </trkpt>
      <trkpt lat="28.7391450" lon="-17.8069200">
        <ele>1589.8</ele>
        <time>2020-11-16T10:59:25Z</time>
      </trkpt>
      <trkpt lat="28.7391580" lon="-17.8069120">
        <ele>1589.9</ele>
        <time>2020-11-16T10:59:26Z</time>
      </trkpt>
      <trkpt lat="28.7391580" lon="-17.8069120">
        <ele>1590.0</ele>
        <time>2020-11-16T10:59:27Z</time>
      </trkpt>
      <trkpt lat="28.7391870" lon="-17.8069020">
        <ele>1589.5</ele>
        <time>2020-11-16T10:59:28Z</time>
      </trkpt>
      <trkpt lat="28.7391870" lon="-17.8069020">
        <ele>1589.6</ele>
        <time>2020-11-16T10:59:29Z</time>
      </trkpt>
      <trkpt lat="28.7392130" lon="-17.8069020">
        <ele>1589.7</ele>
        <time>2020-11-16T10:59:30Z</time>
      </trkpt>
      <trkpt lat="28.7392270" lon="-17.8069030">
        <ele>1590.2</ele>
        <time>2020-11-16T10:59:31Z</time>
      </trkpt>
      <trkpt lat="28.7392270" lon="-17.8069030">
        <ele>1590.3</ele>
        <time>2020-11-16T10:59:32Z</time>
      </trkpt>
      <trkpt lat="28.7392500" lon="-17.8069230">
        <ele>1591.4</ele>
        <time>2020-11-16T10:59:33Z</time>
      </trkpt>
      <trkpt lat="28.7392500" lon="-17.8069230">
        <ele>1591.5</ele>
        <time>2020-11-16T10:59:34Z</time>
      </trkpt>
      <trkpt lat="28.7392830" lon="-17.8069600">
        <ele>1593.1</ele>
        <time>2020-11-16T10:59:35Z</time>
      </trkpt>
      <trkpt lat="28.7392830" lon="-17.8069600">
        <ele>1593.2</ele>
        <time>2020-11-16T10:59:36Z</time>
      </trkpt>
      <trkpt lat="28.7393130" lon="-17.8069780">
        <ele>1593.7</ele>
        <time>2020-11-16T10:59:37Z</time>
      </trkpt>
      <trkpt lat="28.7393130" lon="-17.8069780">
        <ele>1593.8</ele>
        <time>2020-11-16T10:59:38Z</time>
      </trkpt>
      <trkpt lat="28.7393500" lon="-17.8069920">
        <ele>1594.2</ele>
        <time>2020-11-16T10:59:39Z</time>
      </trkpt>
      <trkpt lat="28.7393670" lon="-17.8070080">
        <ele>1595.6</ele>
        <time>2020-11-16T10:59:40Z</time>
      </trkpt>
      <trkpt lat="28.7393670" lon="-17.8070080">
        <ele>1595.7</ele>
        <time>2020-11-16T10:59:41Z</time>
      </trkpt>
      <trkpt lat="28.7393970" lon="-17.8070470">
        <ele>1596.8</ele>
        <time>2020-11-16T10:59:42Z</time>
      </trkpt>
      <trkpt lat="28.7394100" lon="-17.8070650">
        <ele>1597.1</ele>
        <time>2020-11-16T10:59:43Z</time>
      </trkpt>
      <trkpt lat="28.7394100" lon="-17.8070650">
        <ele>1597.2</ele>
        <time>2020-11-16T10:59:44Z</time>
      </trkpt>
      <trkpt lat="28.7394280" lon="-17.8070980">
        <ele>1598.2</ele>
        <time>2020-11-16T10:59:45Z</time>
      </trkpt>
      <trkpt lat="28.7394280" lon="-17.8070980">
        <ele>1598.2</ele>
        <time>2020-11-16T10:59:46Z</time>
      </trkpt>
      <trkpt lat="28.7394470" lon="-17.8071230">
        <ele>1599.4</ele>
        <time>2020-11-16T10:59:47Z</time>
      </trkpt>
      <trkpt lat="28.7394600" lon="-17.8071350">
        <ele>1599.4</ele>
        <time>2020-11-16T10:59:48Z</time>
      </trkpt>
      <trkpt lat="28.7394600" lon="-17.8071350">
        <ele>1599.5</ele>
        <time>2020-11-16T10:59:49Z</time>
      </trkpt>
      <trkpt lat="28.7394880" lon="-17.8071620">
        <ele>1599.7</ele>
        <time>2020-11-16T10:59:50Z</time>
      </trkpt>
      <trkpt lat="28.7394880" lon="-17.8071620">
        <ele>1599.8</ele>
        <time>2020-11-16T10:59:51Z</time>
      </trkpt>
      <trkpt lat="28.7395120" lon="-17.8071800">
        <ele>1600.7</ele>
        <time>2020-11-16T10:59:52Z</time>
      </trkpt>
      <trkpt lat="28.7395120" lon="-17.8071800">
        <ele>1600.8</ele>
        <time>2020-11-16T10:59:53Z</time>
      </trkpt>
      <trkpt lat="28.7395270" lon="-17.8072020">
        <ele>1601.0</ele>
        <time>2020-11-16T10:59:54Z</time>
      </trkpt>
      <trkpt lat="28.7395380" lon="-17.8072200">
        <ele>1602.0</ele>
        <time>2020-11-16T10:59:55Z</time>
      </trkpt>
      <trkpt lat="28.7395480" lon="-17.8072320">
        <ele>1602.0</ele>
        <time>2020-11-16T10:59:56Z</time>
      </trkpt>
      <trkpt lat="28.7395480" lon="-17.8072320">
        <ele>1602.1</ele>
        <time>2020-11-16T10:59:57Z</time>
      </trkpt>
      <trkpt lat="28.7395700" lon="-17.8072530">
        <ele>1603.2</ele>
        <time>2020-11-16T10:59:58Z</time>
      </trkpt>
      <trkpt lat="28.7395700" lon="-17.8072530">
        <ele>1603.3</ele>
        <time>2020-11-16T10:59:59Z</time>
      </trkpt>
      <trkpt lat="28.7395970" lon="-17.8072800">
        <ele>1603.4</ele>
        <time>2020-11-16T11:00:00Z</time>
      </trkpt>
      <trkpt lat="28.7395970" lon="-17.8072800">
        <ele>1603.5</ele>
        <time>2020-11-16T11:00:01Z</time>
      </trkpt>
      <trkpt lat="28.7396250" lon="-17.8072980">
        <ele>1604.6</ele>
        <time>2020-11-16T11:00:02Z</time>
      </trkpt>
      <trkpt lat="28.7396250" lon="-17.8072980">
        <ele>1604.7</ele>
        <time>2020-11-16T11:00:03Z</time>
      </trkpt>
      <trkpt lat="28.7396620" lon="-17.8073150">
        <ele>1604.8</ele>
        <time>2020-11-16T11:00:04Z</time>
      </trkpt>
      <trkpt lat="28.7396820" lon="-17.8073200">
        <ele>1604.9</ele>
        <time>2020-11-16T11:00:05Z</time>
      </trkpt>
      <trkpt lat="28.7396820" lon="-17.8073200">
        <ele>1604.9</ele>
        <time>2020-11-16T11:00:06Z</time>
      </trkpt>
      <trkpt lat="28.7397070" lon="-17.8073270">
        <ele>1605.0</ele>
        <time>2020-11-16T11:00:07Z</time>
      </trkpt>
      <trkpt lat="28.7397070" lon="-17.8073270">
        <ele>1605.1</ele>
        <time>2020-11-16T11:00:08Z</time>
      </trkpt>
      <trkpt lat="28.7397400" lon="-17.8073330">
        <ele>1605.2</ele>
        <time>2020-11-16T11:00:09Z</time>
      </trkpt>
      <trkpt lat="28.7397400" lon="-17.8073330">
        <ele>1605.2</ele>
        <time>2020-11-16T11:00:10Z</time>
      </trkpt>
      <trkpt lat="28.7397770" lon="-17.8073480">
        <ele>1606.3</ele>
        <time>2020-11-16T11:00:11Z</time>
      </trkpt>
      <trkpt lat="28.7397770" lon="-17.8073480">
        <ele>1606.4</ele>
        <time>2020-11-16T11:00:12Z</time>
      </trkpt>
      <trkpt lat="28.7398100" lon="-17.8073820">
        <ele>1607.6</ele>
        <time>2020-11-16T11:00:13Z</time>
      </trkpt>
      <trkpt lat="28.7398100" lon="-17.8073820">
        <ele>1607.7</ele>
        <time>2020-11-16T11:00:14Z</time>
      </trkpt>
      <trkpt lat="28.7398420" lon="-17.8074000">
        <ele>1607.8</ele>
        <time>2020-11-16T11:00:15Z</time>
      </trkpt>
      <trkpt lat="28.7398420" lon="-17.8074000">
        <ele>1607.8</ele>
        <time>2020-11-16T11:00:16Z</time>
      </trkpt>
      <trkpt lat="28.7398720" lon="-17.8074180">
        <ele>1607.9</ele>
        <time>2020-11-16T11:00:17Z</time>
      </trkpt>
      <trkpt lat="28.7398720" lon="-17.8074180">
        <ele>1608.0</ele>
        <time>2020-11-16T11:00:18Z</time>
      </trkpt>
      <trkpt lat="28.7398920" lon="-17.8074250">
        <ele>1609.3</ele>
        <time>2020-11-16T11:00:19Z</time>
      </trkpt>
      <trkpt lat="28.7398920" lon="-17.8074250">
        <ele>1609.3</ele>
        <time>2020-11-16T11:00:20Z</time>
      </trkpt>
      <trkpt lat="28.7399230" lon="-17.8074280">
        <ele>1609.5</ele>
        <time>2020-11-16T11:00:21Z</time>
      </trkpt>
      <trkpt lat="28.7399230" lon="-17.8074280">
        <ele>1609.6</ele>
        <time>2020-11-16T11:00:22Z</time>
      </trkpt>
      <trkpt lat="28.7399470" lon="-17.8074420">
        <ele>1609.8</ele>
        <time>2020-11-16T11:00:23Z</time>
      </trkpt>
      <trkpt lat="28.7399470" lon="-17.8074420">
        <ele>1609.9</ele>
        <time>2020-11-16T11:00:24Z</time>
      </trkpt>
      <trkpt lat="28.7399780" lon="-17.8074580">
        <ele>1610.1</ele>
        <time>2020-11-16T11:00:25Z</time>
      </trkpt>
      <trkpt lat="28.7399780" lon="-17.8074580">
        <ele>1610.2</ele>
        <time>2020-11-16T11:00:26Z</time>
      </trkpt>
      <trkpt lat="28.7400170" lon="-17.8074630">
        <ele>1610.5</ele>
        <time>2020-11-16T11:00:27Z</time>
      </trkpt>
      <trkpt lat="28.7400300" lon="-17.8074680">
        <ele>1611.9</ele>
        <time>2020-11-16T11:00:28Z</time>
      </trkpt>
      <trkpt lat="28.7400300" lon="-17.8074680">
        <ele>1612.0</ele>
        <time>2020-11-16T11:00:29Z</time>
      </trkpt>
      <trkpt lat="28.7400550" lon="-17.8074950">
        <ele>1612.3</ele>
        <time>2020-11-16T11:00:30Z</time>
      </trkpt>
      <trkpt lat="28.7400550" lon="-17.8074950">
        <ele>1612.4</ele>
        <time>2020-11-16T11:00:31Z</time>
      </trkpt>
      <trkpt lat="28.7400780" lon="-17.8075170">
        <ele>1613.8</ele>
        <time>2020-11-16T11:00:32Z</time>
      </trkpt>
      <trkpt lat="28.7400780" lon="-17.8075170">
        <ele>1613.9</ele>
        <time>2020-11-16T11:00:33Z</time>
      </trkpt>
      <trkpt lat="28.7401050" lon="-17.8075330">
        <ele>1614.2</ele>
        <time>2020-11-16T11:00:34Z</time>
      </trkpt>
      <trkpt lat="28.7401050" lon="-17.8075330">
        <ele>1614.3</ele>
        <time>2020-11-16T11:00:35Z</time>
      </trkpt>
      <trkpt lat="28.7401250" lon="-17.8075370">
        <ele>1614.6</ele>
        <time>2020-11-16T11:00:36Z</time>
      </trkpt>
      <trkpt lat="28.7401350" lon="-17.8075300">
        <ele>1614.7</ele>
        <time>2020-11-16T11:00:37Z</time>
      </trkpt>
      <trkpt lat="28.7401430" lon="-17.8075180">
        <ele>1614.8</ele>
        <time>2020-11-16T11:00:38Z</time>
      </trkpt>
      <trkpt lat="28.7401430" lon="-17.8075180">
        <ele>1614.8</ele>
        <time>2020-11-16T11:00:39Z</time>
      </trkpt>
      <trkpt lat="28.7401620" lon="-17.8074720">
        <ele>1613.8</ele>
        <time>2020-11-16T11:00:40Z</time>
      </trkpt>
      <trkpt lat="28.7401620" lon="-17.8074720">
        <ele>1613.8</ele>
        <time>2020-11-16T11:00:41Z</time>
      </trkpt>
      <trkpt lat="28.7401650" lon="-17.8074370">
        <ele>1612.5</ele>
        <time>2020-11-16T11:00:42Z</time>
      </trkpt>
      <trkpt lat="28.7401650" lon="-17.8074370">
        <ele>1612.6</ele>
        <time>2020-11-16T11:00:43Z</time>
      </trkpt>
      <trkpt lat="28.7401620" lon="-17.8074120">
        <ele>1611.2</ele>
        <time>2020-11-16T11:00:44Z</time>
      </trkpt>
      <trkpt lat="28.7401620" lon="-17.8074120">
        <ele>1611.3</ele>
        <time>2020-11-16T11:00:45Z</time>
      </trkpt>
      <trkpt lat="28.7401520" lon="-17.8073750">
        <ele>1609.8</ele>
        <time>2020-11-16T11:00:46Z</time>
      </trkpt>
      <trkpt lat="28.7401470" lon="-17.8073570">
        <ele>1609.9</ele>
        <time>2020-11-16T11:00:47Z</time>
      </trkpt>
      <trkpt lat="28.7401470" lon="-17.8073570">
        <ele>1609.9</ele>
        <time>2020-11-16T11:00:48Z</time>
      </trkpt>
      <trkpt lat="28.7401420" lon="-17.8073180">
        <ele>1608.7</ele>
        <time>2020-11-16T11:00:49Z</time>
      </trkpt>
      <trkpt lat="28.7401420" lon="-17.8073180">
        <ele>1608.7</ele>
        <time>2020-11-16T11:00:50Z</time>
      </trkpt>
      <trkpt lat="28.7401330" lon="-17.8072870">
        <ele>1607.5</ele>
        <time>2020-11-16T11:00:51Z</time>
      </trkpt>
      <trkpt lat="28.7401330" lon="-17.8072870">
        <ele>1607.6</ele>
        <time>2020-11-16T11:00:52Z</time>
      </trkpt>
      <trkpt lat="28.7401300" lon="-17.8072700">
        <ele>1607.6</ele>
        <time>2020-11-16T11:00:53Z</time>
      </trkpt>
      <trkpt lat="28.7401220" lon="-17.8072430">
        <ele>1606.4</ele>
        <time>2020-11-16T11:00:54Z</time>
      </trkpt>
      <trkpt lat="28.7401220" lon="-17.8072430">
        <ele>1606.5</ele>
        <time>2020-11-16T11:00:55Z</time>
      </trkpt>
      <trkpt lat="28.7400980" lon="-17.8071900">
        <ele>1605.3</ele>
        <time>2020-11-16T11:00:56Z</time>
      </trkpt>
      <trkpt lat="28.7400980" lon="-17.8071900">
        <ele>1605.4</ele>
        <time>2020-11-16T11:00:57Z</time>
      </trkpt>
      <trkpt lat="28.7400770" lon="-17.8071200">
        <ele>1603.2</ele>
        <time>2020-11-16T11:00:58Z</time>
      </trkpt>
      <trkpt lat="28.7400770" lon="-17.8071200">
        <ele>1603.3</ele>
        <time>2020-11-16T11:00:59Z</time>
      </trkpt>
      <trkpt lat="28.7400680" lon="-17.8070550">
        <ele>1602.2</ele>
        <time>2020-11-16T11:01:00Z</time>
      </trkpt>
      <trkpt lat="28.7400680" lon="-17.8070550">
        <ele>1602.3</ele>
        <time>2020-11-16T11:01:01Z</time>
      </trkpt>
      <trkpt lat="28.7400570" lon="-17.8070130">
        <ele>1601.1</ele>
        <time>2020-11-16T11:01:02Z</time>
      </trkpt>
      <trkpt lat="28.7400570" lon="-17.8070130">
        <ele>1601.2</ele>
        <time>2020-11-16T11:01:03Z</time>
      </trkpt>
      <trkpt lat="28.7400430" lon="-17.8069770">
        <ele>1600.2</ele>
        <time>2020-11-16T11:01:04Z</time>
      </trkpt>
      <trkpt lat="28.7400430" lon="-17.8069770">
        <ele>1600.3</ele>
        <time>2020-11-16T11:01:05Z</time>
      </trkpt>
      <trkpt lat="28.7400400" lon="-17.8069620">
        <ele>1600.3</ele>
        <time>2020-11-16T11:01:06Z</time>
      </trkpt>
      <trkpt lat="28.7400370" lon="-17.8069520">
        <ele>1600.4</ele>
        <time>2020-11-16T11:01:07Z</time>
      </trkpt>
      <trkpt lat="28.7400370" lon="-17.8069520">
        <ele>1600.5</ele>
        <time>2020-11-16T11:01:08Z</time>
      </trkpt>
      <trkpt lat="28.7400280" lon="-17.8069320">
        <ele>1599.3</ele>
        <time>2020-11-16T11:01:09Z</time>
      </trkpt>
      <trkpt lat="28.7400270" lon="-17.8069250">
        <ele>1599.3</ele>
        <time>2020-11-16T11:01:10Z</time>
      </trkpt>
      <trkpt lat="28.7400270" lon="-17.8069250">
        <ele>1599.4</ele>
        <time>2020-11-16T11:01:11Z</time>
      </trkpt>
      <trkpt lat="28.7400180" lon="-17.8068900">
        <ele>1598.2</ele>
        <time>2020-11-16T11:01:12Z</time>
      </trkpt>
      <trkpt lat="28.7400170" lon="-17.8068750">
        <ele>1598.3</ele>
        <time>2020-11-16T11:01:13Z</time>
      </trkpt>
      <trkpt lat="28.7400170" lon="-17.8068750">
        <ele>1598.3</ele>
        <time>2020-11-16T11:01:14Z</time>
      </trkpt>
      <trkpt lat="28.7400130" lon="-17.8068370">
        <ele>1597.2</ele>
        <time>2020-11-16T11:01:15Z</time>
      </trkpt>
      <trkpt lat="28.7400130" lon="-17.8068370">
        <ele>1597.3</ele>
        <time>2020-11-16T11:01:16Z</time>
      </trkpt>
      <trkpt lat="28.7400120" lon="-17.8067980">
        <ele>1596.2</ele>
        <time>2020-11-16T11:01:17Z</time>
      </trkpt>
      <trkpt lat="28.7400120" lon="-17.8067980">
        <ele>1596.3</ele>
        <time>2020-11-16T11:01:18Z</time>
      </trkpt>
      <trkpt lat="28.7400030" lon="-17.8067570">
        <ele>1595.8</ele>
        <time>2020-11-16T11:01:19Z</time>
      </trkpt>
      <trkpt lat="28.7400030" lon="-17.8067450">
        <ele>1595.8</ele>
        <time>2020-11-16T11:01:20Z</time>
      </trkpt>
      <trkpt lat="28.7400030" lon="-17.8067450">
        <ele>1595.9</ele>
        <time>2020-11-16T11:01:21Z</time>
      </trkpt>
      <trkpt lat="28.7399980" lon="-17.8067180">
        <ele>1594.9</ele>
        <time>2020-11-16T11:01:22Z</time>
      </trkpt>
      <trkpt lat="28.7399970" lon="-17.8066980">
        <ele>1595.0</ele>
        <time>2020-11-16T11:01:23Z</time>
      </trkpt>
      <trkpt lat="28.7399970" lon="-17.8066980">
        <ele>1595.1</ele>
        <time>2020-11-16T11:01:24Z</time>
      </trkpt>
      <trkpt lat="28.7399920" lon="-17.8066620">
        <ele>1594.1</ele>
        <time>2020-11-16T11:01:25Z</time>
      </trkpt>
      <trkpt lat="28.7399920" lon="-17.8066470">
        <ele>1593.2</ele>
        <time>2020-11-16T11:01:26Z</time>
      </trkpt>
      <trkpt lat="28.7399920" lon="-17.8066470">
        <ele>1593.2</ele>
        <time>2020-11-16T11:01:27Z</time>
      </trkpt>
      <trkpt lat="28.7399970" lon="-17.8066120">
        <ele>1593.3</ele>
        <time>2020-11-16T11:01:28Z</time>
      </trkpt>
      <trkpt lat="28.7399970" lon="-17.8066120">
        <ele>1593.4</ele>
        <time>2020-11-16T11:01:29Z</time>
      </trkpt>
      <trkpt lat="28.7399970" lon="-17.8065800">
        <ele>1592.4</ele>
        <time>2020-11-16T11:01:30Z</time>
      </trkpt>
      <trkpt lat="28.7399930" lon="-17.8065600">
        <ele>1591.4</ele>
        <time>2020-11-16T11:01:31Z</time>
      </trkpt>
      <trkpt lat="28.7399920" lon="-17.8065470">
        <ele>1591.5</ele>
        <time>2020-11-16T11:01:32Z</time>
      </trkpt>
      <trkpt lat="28.7399920" lon="-17.8065470">
        <ele>1591.6</ele>
        <time>2020-11-16T11:01:33Z</time>
      </trkpt>
      <trkpt lat="28.7400000" lon="-17.8065080">
        <ele>1590.6</ele>
        <time>2020-11-16T11:01:34Z</time>
      </trkpt>
      <trkpt lat="28.7400000" lon="-17.8065080">
        <ele>1590.7</ele>
        <time>2020-11-16T11:01:35Z</time>
      </trkpt>
      <trkpt lat="28.7400170" lon="-17.8064530">
        <ele>1588.9</ele>
        <time>2020-11-16T11:01:36Z</time>
      </trkpt>
      <trkpt lat="28.7400170" lon="-17.8064530">
        <ele>1588.9</ele>
        <time>2020-11-16T11:01:37Z</time>
      </trkpt>
      <trkpt lat="28.7400320" lon="-17.8064220">
        <ele>1588.1</ele>
        <time>2020-11-16T11:01:38Z</time>
      </trkpt>
      <trkpt lat="28.7400450" lon="-17.8064120">
        <ele>1587.3</ele>
        <time>2020-11-16T11:01:39Z</time>
      </trkpt>
      <trkpt lat="28.7400450" lon="-17.8064120">
        <ele>1587.4</ele>
        <time>2020-11-16T11:01:40Z</time>
      </trkpt>
      <trkpt lat="28.7400680" lon="-17.8063800">
        <ele>1586.6</ele>
        <time>2020-11-16T11:01:41Z</time>
      </trkpt>
      <trkpt lat="28.7400680" lon="-17.8063800">
        <ele>1586.7</ele>
        <time>2020-11-16T11:01:42Z</time>
      </trkpt>
      <trkpt lat="28.7400930" lon="-17.8063630">
        <ele>1585.9</ele>
        <time>2020-11-16T11:01:43Z</time>
      </trkpt>
      <trkpt lat="28.7401050" lon="-17.8063650">
        <ele>1586.0</ele>
        <time>2020-11-16T11:01:44Z</time>
      </trkpt>
      <trkpt lat="28.7401050" lon="-17.8063650">
        <ele>1586.1</ele>
        <time>2020-11-16T11:01:45Z</time>
      </trkpt>
      <trkpt lat="28.7401120" lon="-17.8063680">
        <ele>1586.1</ele>
        <time>2020-11-16T11:01:46Z</time>
      </trkpt>
      <trkpt lat="28.7401230" lon="-17.8063830">
        <ele>1585.4</ele>
        <time>2020-11-16T11:01:47Z</time>
      </trkpt>
      <trkpt lat="28.7401370" lon="-17.8064030">
        <ele>1586.2</ele>
        <time>2020-11-16T11:01:48Z</time>
      </trkpt>
      <trkpt lat="28.7401370" lon="-17.8064030">
        <ele>1586.2</ele>
        <time>2020-11-16T11:01:49Z</time>
      </trkpt>
      <trkpt lat="28.7401480" lon="-17.8064400">
        <ele>1586.4</ele>
        <time>2020-11-16T11:01:50Z</time>
      </trkpt>
      <trkpt lat="28.7401500" lon="-17.8064570">
        <ele>1586.5</ele>
        <time>2020-11-16T11:01:51Z</time>
      </trkpt>
      <trkpt lat="28.7401500" lon="-17.8064570">
        <ele>1586.5</ele>
        <time>2020-11-16T11:01:52Z</time>
      </trkpt>
      <trkpt lat="28.7401520" lon="-17.8064850">
        <ele>1586.6</ele>
        <time>2020-11-16T11:01:53Z</time>
      </trkpt>
      <trkpt lat="28.7401520" lon="-17.8064850">
        <ele>1586.6</ele>
        <time>2020-11-16T11:01:54Z</time>
      </trkpt>
      <trkpt lat="28.7401530" lon="-17.8065050">
        <ele>1586.7</ele>
        <time>2020-11-16T11:01:55Z</time>
      </trkpt>
      <trkpt lat="28.7401530" lon="-17.8065050">
        <ele>1586.7</ele>
        <time>2020-11-16T11:01:56Z</time>
      </trkpt>
      <trkpt lat="28.7401500" lon="-17.8065300">
        <ele>1586.8</ele>
        <time>2020-11-16T11:01:57Z</time>
      </trkpt>
      <trkpt lat="28.7401500" lon="-17.8065300">
        <ele>1586.8</ele>
        <time>2020-11-16T11:01:58Z</time>
      </trkpt>
      <trkpt lat="28.7401600" lon="-17.8065550">
        <ele>1586.9</ele>
        <time>2020-11-16T11:01:59Z</time>
      </trkpt>
      <trkpt lat="28.7401650" lon="-17.8065880">
        <ele>1587.0</ele>
        <time>2020-11-16T11:02:00Z</time>
      </trkpt>
      <trkpt lat="28.7401650" lon="-17.8065880">
        <ele>1587.0</ele>
        <time>2020-11-16T11:02:01Z</time>
      </trkpt>
      <trkpt lat="28.7401820" lon="-17.8066220">
        <ele>1587.2</ele>
        <time>2020-11-16T11:02:02Z</time>
      </trkpt>
      <trkpt lat="28.7401820" lon="-17.8066220">
        <ele>1587.2</ele>
        <time>2020-11-16T11:02:03Z</time>
      </trkpt>
      <trkpt lat="28.7401720" lon="-17.8066420">
        <ele>1587.3</ele>
        <time>2020-11-16T11:02:04Z</time>
      </trkpt>
      <trkpt lat="28.7401720" lon="-17.8066420">
        <ele>1587.3</ele>
        <time>2020-11-16T11:02:05Z</time>
      </trkpt>
      <trkpt lat="28.7401770" lon="-17.8066780">
        <ele>1587.4</ele>
        <time>2020-11-16T11:02:06Z</time>
      </trkpt>
      <trkpt lat="28.7401770" lon="-17.8066780">
        <ele>1587.4</ele>
        <time>2020-11-16T11:02:07Z</time>
      </trkpt>
      <trkpt lat="28.7401830" lon="-17.8067100">
        <ele>1587.5</ele>
        <time>2020-11-16T11:02:08Z</time>
      </trkpt>
      <trkpt lat="28.7401830" lon="-17.8067100">
        <ele>1587.5</ele>
        <time>2020-11-16T11:02:09Z</time>
      </trkpt>
      <trkpt lat="28.7401900" lon="-17.8067470">
        <ele>1587.7</ele>
        <time>2020-11-16T11:02:10Z</time>
      </trkpt>
      <trkpt lat="28.7401900" lon="-17.8067470">
        <ele>1587.7</ele>
        <time>2020-11-16T11:02:11Z</time>
      </trkpt>
      <trkpt lat="28.7402130" lon="-17.8067930">
        <ele>1587.9</ele>
        <time>2020-11-16T11:02:12Z</time>
      </trkpt>
      <trkpt lat="28.7402230" lon="-17.8068170">
        <ele>1588.0</ele>
        <time>2020-11-16T11:02:13Z</time>
      </trkpt>
      <trkpt lat="28.7402230" lon="-17.8068170">
        <ele>1588.0</ele>
        <time>2020-11-16T11:02:14Z</time>
      </trkpt>
      <trkpt lat="28.7402450" lon="-17.8068630">
        <ele>1588.2</ele>
        <time>2020-11-16T11:02:15Z</time>
      </trkpt>
      <trkpt lat="28.7402520" lon="-17.8068820">
        <ele>1588.3</ele>
        <time>2020-11-16T11:02:16Z</time>
      </trkpt>
      <trkpt lat="28.7402520" lon="-17.8068820">
        <ele>1588.3</ele>
        <time>2020-11-16T11:02:17Z</time>
      </trkpt>
      <trkpt lat="28.7402580" lon="-17.8069220">
        <ele>1588.5</ele>
        <time>2020-11-16T11:02:18Z</time>
      </trkpt>
      <trkpt lat="28.7402650" lon="-17.8069430">
        <ele>1588.6</ele>
        <time>2020-11-16T11:02:19Z</time>
      </trkpt>
      <trkpt lat="28.7402650" lon="-17.8069430">
        <ele>1588.6</ele>
        <time>2020-11-16T11:02:20Z</time>
      </trkpt>
      <trkpt lat="28.7402770" lon="-17.8069830">
        <ele>1588.7</ele>
        <time>2020-11-16T11:02:21Z</time>
      </trkpt>
      <trkpt lat="28.7402770" lon="-17.8069830">
        <ele>1588.7</ele>
        <time>2020-11-16T11:02:22Z</time>
      </trkpt>
      <trkpt lat="28.7402880" lon="-17.8070330">
        <ele>1588.9</ele>
        <time>2020-11-16T11:02:23Z</time>
      </trkpt>
      <trkpt lat="28.7403020" lon="-17.8070530">
        <ele>1589.0</ele>
        <time>2020-11-16T11:02:24Z</time>
      </trkpt>
      <trkpt lat="28.7403020" lon="-17.8070530">
        <ele>1589.0</ele>
        <time>2020-11-16T11:02:25Z</time>
      </trkpt>
      <trkpt lat="28.7403170" lon="-17.8070930">
        <ele>1589.2</ele>
        <time>2020-11-16T11:02:26Z</time>
      </trkpt>
      <trkpt lat="28.7403170" lon="-17.8070930">
        <ele>1589.2</ele>
        <time>2020-11-16T11:02:27Z</time>
      </trkpt>
      <trkpt lat="28.7403350" lon="-17.8071350">
        <ele>1589.4</ele>
        <time>2020-11-16T11:02:28Z</time>
      </trkpt>
      <trkpt lat="28.7403350" lon="-17.8071350">
        <ele>1589.4</ele>
        <time>2020-11-16T11:02:29Z</time>
      </trkpt>
      <trkpt lat="28.7403520" lon="-17.8071770">
        <ele>1589.6</ele>
        <time>2020-11-16T11:02:30Z</time>
      </trkpt>
      <trkpt lat="28.7403520" lon="-17.8071770">
        <ele>1589.6</ele>
        <time>2020-11-16T11:02:31Z</time>
      </trkpt>
      <trkpt lat="28.7403770" lon="-17.8072180">
        <ele>1589.8</ele>
        <time>2020-11-16T11:02:32Z</time>
      </trkpt>
      <trkpt lat="28.7403770" lon="-17.8072180">
        <ele>1589.8</ele>
        <time>2020-11-16T11:02:33Z</time>
      </trkpt>
      <trkpt lat="28.7404020" lon="-17.8072700">
        <ele>1590.0</ele>
        <time>2020-11-16T11:02:34Z</time>
      </trkpt>
      <trkpt lat="28.7404020" lon="-17.8072700">
        <ele>1590.0</ele>
        <time>2020-11-16T11:02:35Z</time>
      </trkpt>
      <trkpt lat="28.7404230" lon="-17.8073120">
        <ele>1590.2</ele>
        <time>2020-11-16T11:02:36Z</time>
      </trkpt>
      <trkpt lat="28.7404230" lon="-17.8073120">
        <ele>1590.2</ele>
        <time>2020-11-16T11:02:37Z</time>
      </trkpt>
      <trkpt lat="28.7404470" lon="-17.8073550">
        <ele>1590.4</ele>
        <time>2020-11-16T11:02:38Z</time>
      </trkpt>
      <trkpt lat="28.7404470" lon="-17.8073550">
        <ele>1590.4</ele>
        <time>2020-11-16T11:02:39Z</time>
      </trkpt>
      <trkpt lat="28.7404620" lon="-17.8073970">
        <ele>1590.6</ele>
        <time>2020-11-16T11:02:40Z</time>
      </trkpt>
      <trkpt lat="28.7404620" lon="-17.8073970">
        <ele>1590.6</ele>
        <time>2020-11-16T11:02:41Z</time>
      </trkpt>
      <trkpt lat="28.7404720" lon="-17.8074420">
        <ele>1590.8</ele>
        <time>2020-11-16T11:02:42Z</time>
      </trkpt>
      <trkpt lat="28.7404720" lon="-17.8074630">
        <ele>1590.9</ele>
        <time>2020-11-16T11:02:43Z</time>
      </trkpt>
      <trkpt lat="28.7404720" lon="-17.8074630">
        <ele>1590.9</ele>
        <time>2020-11-16T11:02:44Z</time>
      </trkpt>
      <trkpt lat="28.7404750" lon="-17.8074980">
        <ele>1591.0</ele>
        <time>2020-11-16T11:02:45Z</time>
      </trkpt>
      <trkpt lat="28.7404750" lon="-17.8074980">
        <ele>1591.0</ele>
        <time>2020-11-16T11:02:46Z</time>
      </trkpt>
      <trkpt lat="28.7404730" lon="-17.8075380">
        <ele>1591.2</ele>
        <time>2020-11-16T11:02:47Z</time>
      </trkpt>
      <trkpt lat="28.7404730" lon="-17.8075380">
        <ele>1591.2</ele>
        <time>2020-11-16T11:02:48Z</time>
      </trkpt>
      <trkpt lat="28.7404730" lon="-17.8075800">
        <ele>1591.3</ele>
        <time>2020-11-16T11:02:49Z</time>
      </trkpt>
      <trkpt lat="28.7404730" lon="-17.8076050">
        <ele>1591.4</ele>
        <time>2020-11-16T11:02:50Z</time>
      </trkpt>
      <trkpt lat="28.7404730" lon="-17.8076050">
        <ele>1591.4</ele>
        <time>2020-11-16T11:02:51Z</time>
      </trkpt>
      <trkpt lat="28.7404750" lon="-17.8076480">
        <ele>1591.6</ele>
        <time>2020-11-16T11:02:52Z</time>
      </trkpt>
      <trkpt lat="28.7404750" lon="-17.8076480">
        <ele>1591.6</ele>
        <time>2020-11-16T11:02:53Z</time>
      </trkpt>
      <trkpt lat="28.7404750" lon="-17.8076800">
        <ele>1591.7</ele>
        <time>2020-11-16T11:02:54Z</time>
      </trkpt>
      <trkpt lat="28.7404700" lon="-17.8076980">
        <ele>1591.8</ele>
        <time>2020-11-16T11:02:55Z</time>
      </trkpt>
      <trkpt lat="28.7404650" lon="-17.8077220">
        <ele>1591.9</ele>
        <time>2020-11-16T11:02:56Z</time>
      </trkpt>
      <trkpt lat="28.7404650" lon="-17.8077220">
        <ele>1591.9</ele>
        <time>2020-11-16T11:02:57Z</time>
      </trkpt>
      <trkpt lat="28.7404500" lon="-17.8077630">
        <ele>1592.1</ele>
        <time>2020-11-16T11:02:58Z</time>
      </trkpt>
      <trkpt lat="28.7404500" lon="-17.8077630">
        <ele>1592.1</ele>
        <time>2020-11-16T11:02:59Z</time>
      </trkpt>
      <trkpt lat="28.7404280" lon="-17.8078030">
        <ele>1592.3</ele>
        <time>2020-11-16T11:03:00Z</time>
      </trkpt>
      <trkpt lat="28.7404220" lon="-17.8078250">
        <ele>1592.4</ele>
        <time>2020-11-16T11:03:01Z</time>
      </trkpt>
      <trkpt lat="28.7404220" lon="-17.8078250">
        <ele>1592.4</ele>
        <time>2020-11-16T11:03:02Z</time>
      </trkpt>
      <trkpt lat="28.7404200" lon="-17.8078480">
        <ele>1592.5</ele>
        <time>2020-11-16T11:03:03Z</time>
      </trkpt>
      <trkpt lat="28.7404100" lon="-17.8078680">
        <ele>1592.6</ele>
        <time>2020-11-16T11:03:04Z</time>
      </trkpt>
      <trkpt lat="28.7404100" lon="-17.8078680">
        <ele>1592.6</ele>
        <time>2020-11-16T11:03:05Z</time>
      </trkpt>
      <trkpt lat="28.7403900" lon="-17.8079020">
        <ele>1592.7</ele>
        <time>2020-11-16T11:03:06Z</time>
      </trkpt>
      <trkpt lat="28.7403900" lon="-17.8079020">
        <ele>1592.7</ele>
        <time>2020-11-16T11:03:07Z</time>
      </trkpt>
      <trkpt lat="28.7403770" lon="-17.8079230">
        <ele>1592.8</ele>
        <time>2020-11-16T11:03:08Z</time>
      </trkpt>
      <trkpt lat="28.7403770" lon="-17.8079230">
        <ele>1592.8</ele>
        <time>2020-11-16T11:03:09Z</time>
      </trkpt>
      <trkpt lat="28.7403470" lon="-17.8079480">
        <ele>1593.0</ele>
        <time>2020-11-16T11:03:10Z</time>
      </trkpt>
      <trkpt lat="28.7403250" lon="-17.8079670">
        <ele>1593.1</ele>
        <time>2020-11-16T11:03:11Z</time>
      </trkpt>
      <trkpt lat="28.7403250" lon="-17.8079670">
        <ele>1593.1</ele>
        <time>2020-11-16T11:03:12Z</time>
      </trkpt>
      <trkpt lat="28.7402980" lon="-17.8079850">
        <ele>1593.3</ele>
        <time>2020-11-16T11:03:13Z</time>
      </trkpt>
      <trkpt lat="28.7402870" lon="-17.8079950">
        <ele>1593.3</ele>
        <time>2020-11-16T11:03:14Z</time>
      </trkpt>
      <trkpt lat="28.7402870" lon="-17.8079950">
        <ele>1593.3</ele>
        <time>2020-11-16T11:03:15Z</time>
      </trkpt>
      <trkpt lat="28.7402650" lon="-17.8080020">
        <ele>1593.4</ele>
        <time>2020-11-16T11:03:16Z</time>
      </trkpt>
      <trkpt lat="28.7402650" lon="-17.8080020">
        <ele>1593.4</ele>
        <time>2020-11-16T11:03:17Z</time>
      </trkpt>
      <trkpt lat="28.7402470" lon="-17.8080170">
        <ele>1593.5</ele>
        <time>2020-11-16T11:03:18Z</time>
      </trkpt>
      <trkpt lat="28.7402430" lon="-17.8080250">
        <ele>1593.6</ele>
        <time>2020-11-16T11:03:19Z</time>
      </trkpt>
      <trkpt lat="28.7402350" lon="-17.8080250">
        <ele>1593.6</ele>
        <time>2020-11-16T11:03:20Z</time>
      </trkpt>
      <trkpt lat="28.7402350" lon="-17.8080250">
        <ele>1593.6</ele>
        <time>2020-11-16T11:03:21Z</time>
      </trkpt>
      <trkpt lat="28.7402300" lon="-17.8080350">
        <ele>1593.7</ele>
        <time>2020-11-16T11:03:22Z</time>
      </trkpt>
      <trkpt lat="28.7402300" lon="-17.8080350">
        <ele>1593.7</ele>
        <time>2020-11-16T11:03:23Z</time>
      </trkpt>
      <trkpt lat="28.7402280" lon="-17.8080570">
        <ele>1593.8</ele>
        <time>2020-11-16T11:03:24Z</time>
      </trkpt>
      <trkpt lat="28.7402280" lon="-17.8080570">
        <ele>1593.8</ele>
        <time>2020-11-16T11:03:25Z</time>
      </trkpt>
      <trkpt lat="28.7402250" lon="-17.8080680">
        <ele>1593.8</ele>
        <time>2020-11-16T11:03:26Z</time>
      </trkpt>
      <trkpt lat="28.7402250" lon="-17.8080680">
        <ele>1593.8</ele>
        <time>2020-11-16T11:03:27Z</time>
      </trkpt>
      <trkpt lat="28.7402120" lon="-17.8080950">
        <ele>1593.9</ele>
        <time>2020-11-16T11:03:28Z</time>
      </trkpt>
      <trkpt lat="28.7402120" lon="-17.8080950">
        <ele>1593.9</ele>
        <time>2020-11-16T11:03:29Z</time>
      </trkpt>
      <trkpt lat="28.7401870" lon="-17.8081230">
        <ele>1594.1</ele>
        <time>2020-11-16T11:03:30Z</time>
      </trkpt>
      <trkpt lat="28.7401780" lon="-17.8081320">
        <ele>1594.1</ele>
        <time>2020-11-16T11:03:31Z</time>
      </trkpt>
      <trkpt lat="28.7401780" lon="-17.8081320">
        <ele>1594.1</ele>
        <time>2020-11-16T11:03:32Z</time>
      </trkpt>
      <trkpt lat="28.7401270" lon="-17.8082020">
        <ele>1594.5</ele>
        <time>2020-11-16T11:03:33Z</time>
      </trkpt>
      <trkpt lat="28.7401020" lon="-17.8082220">
        <ele>1594.6</ele>
        <time>2020-11-16T11:03:34Z</time>
      </trkpt>
      <trkpt lat="28.7401020" lon="-17.8082220">
        <ele>1594.6</ele>
        <time>2020-11-16T11:03:35Z</time>
      </trkpt>
      <trkpt lat="28.7400600" lon="-17.8082230">
        <ele>1594.8</ele>
        <time>2020-11-16T11:03:36Z</time>
      </trkpt>
      <trkpt lat="28.7400600" lon="-17.8082230">
        <ele>1594.8</ele>
        <time>2020-11-16T11:03:37Z</time>
      </trkpt>
      <trkpt lat="28.7400320" lon="-17.8082020">
        <ele>1595.0</ele>
        <time>2020-11-16T11:03:38Z</time>
      </trkpt>
      <trkpt lat="28.7400320" lon="-17.8082020">
        <ele>1595.0</ele>
        <time>2020-11-16T11:03:39Z</time>
      </trkpt>
      <trkpt lat="28.7400180" lon="-17.8081870">
        <ele>1595.1</ele>
        <time>2020-11-16T11:03:40Z</time>
      </trkpt>
      <trkpt lat="28.7400180" lon="-17.8081870">
        <ele>1595.1</ele>
        <time>2020-11-16T11:03:41Z</time>
      </trkpt>
      <trkpt lat="28.7400130" lon="-17.8081730">
        <ele>1595.1</ele>
        <time>2020-11-16T11:03:42Z</time>
      </trkpt>
      <trkpt lat="28.7400130" lon="-17.8081730">
        <ele>1595.1</ele>
        <time>2020-11-16T11:03:43Z</time>
      </trkpt>
      <trkpt lat="28.7400020" lon="-17.8081520">
        <ele>1595.2</ele>
        <time>2020-11-16T11:03:44Z</time>
      </trkpt>
      <trkpt lat="28.7400020" lon="-17.8081520">
        <ele>1595.2</ele>
        <time>2020-11-16T11:03:45Z</time>
      </trkpt>
      <trkpt lat="28.7400020" lon="-17.8081270">
        <ele>1595.3</ele>
        <time>2020-11-16T11:03:46Z</time>
      </trkpt>
      <trkpt lat="28.7400020" lon="-17.8081270">
        <ele>1595.3</ele>
        <time>2020-11-16T11:03:47Z</time>
      </trkpt>
      <trkpt lat="28.7400030" lon="-17.8081030">
        <ele>1595.4</ele>
        <time>2020-11-16T11:03:48Z</time>
      </trkpt>
      <trkpt lat="28.7400030" lon="-17.8081030">
        <ele>1595.4</ele>
        <time>2020-11-16T11:03:49Z</time>
      </trkpt>
      <trkpt lat="28.7399930" lon="-17.8080700">
        <ele>1595.6</ele>
        <time>2020-11-16T11:03:50Z</time>
      </trkpt>
      <trkpt lat="28.7399930" lon="-17.8080700">
        <ele>1595.6</ele>
        <time>2020-11-16T11:03:51Z</time>
      </trkpt>
      <trkpt lat="28.7399830" lon="-17.8080330">
        <ele>1595.7</ele>
        <time>2020-11-16T11:03:52Z</time>
      </trkpt>
      <trkpt lat="28.7399830" lon="-17.8080330">
        <ele>1595.7</ele>
        <time>2020-11-16T11:03:53Z</time>
      </trkpt>
      <trkpt lat="28.7399730" lon="-17.8080150">
        <ele>1595.8</ele>
        <time>2020-11-16T11:03:54Z</time>
      </trkpt>
      <trkpt lat="28.7399700" lon="-17.8079880">
        <ele>1595.9</ele>
        <time>2020-11-16T11:03:55Z</time>
      </trkpt>
      <trkpt lat="28.7399700" lon="-17.8079880">
        <ele>1595.9</ele>
        <time>2020-11-16T11:03:56Z</time>
      </trkpt>
      <trkpt lat="28.7399570" lon="-17.8079420">
        <ele>1596.1</ele>
        <time>2020-11-16T11:03:57Z</time>
      </trkpt>
      <trkpt lat="28.7399570" lon="-17.8079420">
        <ele>1596.1</ele>
        <time>2020-11-16T11:03:58Z</time>
      </trkpt>
      <trkpt lat="28.7399250" lon="-17.8079030">
        <ele>1596.3</ele>
        <time>2020-11-16T11:03:59Z</time>
      </trkpt>
      <trkpt lat="28.7399070" lon="-17.8078970">
        <ele>1596.4</ele>
        <time>2020-11-16T11:04:00Z</time>
      </trkpt>
      <trkpt lat="28.7399070" lon="-17.8078970">
        <ele>1596.4</ele>
        <time>2020-11-16T11:04:01Z</time>
      </trkpt>
      <trkpt lat="28.7398670" lon="-17.8078680">
        <ele>1596.6</ele>
        <time>2020-11-16T11:04:02Z</time>
      </trkpt>
      <trkpt lat="28.7398670" lon="-17.8078680">
        <ele>1596.6</ele>
        <time>2020-11-16T11:04:03Z</time>
      </trkpt>
      <trkpt lat="28.7398250" lon="-17.8078320">
        <ele>1596.9</ele>
        <time>2020-11-16T11:04:04Z</time>
      </trkpt>
      <trkpt lat="28.7398050" lon="-17.8078270">
        <ele>1597.0</ele>
        <time>2020-11-16T11:04:05Z</time>
      </trkpt>
      <trkpt lat="28.7397850" lon="-17.8078270">
        <ele>1597.1</ele>
        <time>2020-11-16T11:04:06Z</time>
      </trkpt>
      <trkpt lat="28.7397850" lon="-17.8078270">
        <ele>1597.1</ele>
        <time>2020-11-16T11:04:07Z</time>
      </trkpt>
      <trkpt lat="28.7397450" lon="-17.8078150">
        <ele>1597.3</ele>
        <time>2020-11-16T11:04:08Z</time>
      </trkpt>
      <trkpt lat="28.7397450" lon="-17.8078150">
        <ele>1597.3</ele>
        <time>2020-11-16T11:04:09Z</time>
      </trkpt>
      <trkpt lat="28.7397030" lon="-17.8078220">
        <ele>1597.4</ele>
        <time>2020-11-16T11:04:10Z</time>
      </trkpt>
      <trkpt lat="28.7397030" lon="-17.8078220">
        <ele>1597.4</ele>
        <time>2020-11-16T11:04:11Z</time>
      </trkpt>
      <trkpt lat="28.7396580" lon="-17.8078230">
        <ele>1597.7</ele>
        <time>2020-11-16T11:04:12Z</time>
      </trkpt>
      <trkpt lat="28.7396350" lon="-17.8078220">
        <ele>1597.8</ele>
        <time>2020-11-16T11:04:13Z</time>
      </trkpt>
      <trkpt lat="28.7396350" lon="-17.8078220">
        <ele>1597.8</ele>
        <time>2020-11-16T11:04:14Z</time>
      </trkpt>
      <trkpt lat="28.7395900" lon="-17.8078180">
        <ele>1598.0</ele>
        <time>2020-11-16T11:04:15Z</time>
      </trkpt>
      <trkpt lat="28.7395700" lon="-17.8078180">
        <ele>1598.1</ele>
        <time>2020-11-16T11:04:16Z</time>
      </trkpt>
      <trkpt lat="28.7395700" lon="-17.8078180">
        <ele>1598.1</ele>
        <time>2020-11-16T11:04:17Z</time>
      </trkpt>
      <trkpt lat="28.7395330" lon="-17.8077970">
        <ele>1598.2</ele>
        <time>2020-11-16T11:04:18Z</time>
      </trkpt>
      <trkpt lat="28.7395250" lon="-17.8077900">
        <ele>1598.3</ele>
        <time>2020-11-16T11:04:19Z</time>
      </trkpt>
      <trkpt lat="28.7395250" lon="-17.8077900">
        <ele>1598.3</ele>
        <time>2020-11-16T11:04:20Z</time>
      </trkpt>
      <trkpt lat="28.7394980" lon="-17.8077620">
        <ele>1598.5</ele>
        <time>2020-11-16T11:04:21Z</time>
      </trkpt>
      <trkpt lat="28.7394980" lon="-17.8077620">
        <ele>1598.5</ele>
        <time>2020-11-16T11:04:22Z</time>
      </trkpt>
      <trkpt lat="28.7394800" lon="-17.8077370">
        <ele>1598.6</ele>
        <time>2020-11-16T11:04:23Z</time>
      </trkpt>
      <trkpt lat="28.7394800" lon="-17.8077370">
        <ele>1598.6</ele>
        <time>2020-11-16T11:04:24Z</time>
      </trkpt>
      <trkpt lat="28.7394550" lon="-17.8076970">
        <ele>1598.8</ele>
        <time>2020-11-16T11:04:25Z</time>
      </trkpt>
      <trkpt lat="28.7394480" lon="-17.8076800">
        <ele>1598.9</ele>
        <time>2020-11-16T11:04:26Z</time>
      </trkpt>
      <trkpt lat="28.7394480" lon="-17.8076800">
        <ele>1598.9</ele>
        <time>2020-11-16T11:04:27Z</time>
      </trkpt>
      <trkpt lat="28.7394180" lon="-17.8076470">
        <ele>1599.1</ele>
        <time>2020-11-16T11:04:28Z</time>
      </trkpt>
      <trkpt lat="28.7393980" lon="-17.8076270">
        <ele>1599.2</ele>
        <time>2020-11-16T11:04:29Z</time>
      </trkpt>
      <trkpt lat="28.7393980" lon="-17.8076270">
        <ele>1599.2</ele>
        <time>2020-11-16T11:04:30Z</time>
      </trkpt>
      <trkpt lat="28.7393530" lon="-17.8076070">
        <ele>1599.4</ele>
        <time>2020-11-16T11:04:31Z</time>
      </trkpt>
      <trkpt lat="28.7393320" lon="-17.8076070">
        <ele>1599.5</ele>
        <time>2020-11-16T11:04:32Z</time>
      </trkpt>
      <trkpt lat="28.7393320" lon="-17.8076070">
        <ele>1599.5</ele>
        <time>2020-11-16T11:04:33Z</time>
      </trkpt>
      <trkpt lat="28.7392780" lon="-17.8076330">
        <ele>1599.8</ele>
        <time>2020-11-16T11:04:34Z</time>
      </trkpt>
      <trkpt lat="28.7392780" lon="-17.8076330">
        <ele>1599.8</ele>
        <time>2020-11-16T11:04:35Z</time>
      </trkpt>
      <trkpt lat="28.7392500" lon="-17.8076670">
        <ele>1599.9</ele>
        <time>2020-11-16T11:04:36Z</time>
      </trkpt>
      <trkpt lat="28.7392320" lon="-17.8076730">
        <ele>1600.2</ele>
        <time>2020-11-16T11:04:37Z</time>
      </trkpt>
      <trkpt lat="28.7392320" lon="-17.8076730">
        <ele>1600.2</ele>
        <time>2020-11-16T11:04:38Z</time>
      </trkpt>
      <trkpt lat="28.7392180" lon="-17.8076880">
        <ele>1600.4</ele>
        <time>2020-11-16T11:04:39Z</time>
      </trkpt>
      <trkpt lat="28.7392120" lon="-17.8077020">
        <ele>1600.5</ele>
        <time>2020-11-16T11:04:40Z</time>
      </trkpt>
      <trkpt lat="28.7392120" lon="-17.8077020">
        <ele>1600.5</ele>
        <time>2020-11-16T11:04:41Z</time>
      </trkpt>
      <trkpt lat="28.7392020" lon="-17.8077370">
        <ele>1600.8</ele>
        <time>2020-11-16T11:04:42Z</time>
      </trkpt>
      <trkpt lat="28.7392000" lon="-17.8077550">
        <ele>1600.9</ele>
        <time>2020-11-16T11:04:43Z</time>
      </trkpt>
      <trkpt lat="28.7392000" lon="-17.8077550">
        <ele>1600.9</ele>
        <time>2020-11-16T11:04:44Z</time>
      </trkpt>
      <trkpt lat="28.7391950" lon="-17.8077920">
        <ele>1601.1</ele>
        <time>2020-11-16T11:04:45Z</time>
      </trkpt>
      <trkpt lat="28.7391950" lon="-17.8078130">
        <ele>1601.3</ele>
        <time>2020-11-16T11:04:46Z</time>
      </trkpt>
      <trkpt lat="28.7391950" lon="-17.8078130">
        <ele>1601.3</ele>
        <time>2020-11-16T11:04:47Z</time>
      </trkpt>
      <trkpt lat="28.7391900" lon="-17.8078470">
        <ele>1601.5</ele>
        <time>2020-11-16T11:04:48Z</time>
      </trkpt>
      <trkpt lat="28.7391900" lon="-17.8078470">
        <ele>1601.5</ele>
        <time>2020-11-16T11:04:49Z</time>
      </trkpt>
      <trkpt lat="28.7392000" lon="-17.8078820">
        <ele>1601.8</ele>
        <time>2020-11-16T11:04:50Z</time>
      </trkpt>
      <trkpt lat="28.7392070" lon="-17.8078980">
        <ele>1601.9</ele>
        <time>2020-11-16T11:04:51Z</time>
      </trkpt>
      <trkpt lat="28.7392070" lon="-17.8078980">
        <ele>1601.9</ele>
        <time>2020-11-16T11:04:52Z</time>
      </trkpt>
      <trkpt lat="28.7392280" lon="-17.8079230">
        <ele>1602.2</ele>
        <time>2020-11-16T11:04:53Z</time>
      </trkpt>
      <trkpt lat="28.7392400" lon="-17.8079350">
        <ele>1602.3</ele>
        <time>2020-11-16T11:04:54Z</time>
      </trkpt>
      <trkpt lat="28.7392400" lon="-17.8079350">
        <ele>1602.3</ele>
        <time>2020-11-16T11:04:55Z</time>
      </trkpt>
      <trkpt lat="28.7392600" lon="-17.8079630">
        <ele>1602.5</ele>
        <time>2020-11-16T11:04:56Z</time>
      </trkpt>
      <trkpt lat="28.7392600" lon="-17.8079630">
        <ele>1602.5</ele>
        <time>2020-11-16T11:04:57Z</time>
      </trkpt>
      <trkpt lat="28.7392770" lon="-17.8079800">
        <ele>1602.7</ele>
        <time>2020-11-16T11:04:58Z</time>
      </trkpt>
      <trkpt lat="28.7392770" lon="-17.8079800">
        <ele>1602.7</ele>
        <time>2020-11-16T11:04:59Z</time>
      </trkpt>
      <trkpt lat="28.7392980" lon="-17.8080050">
        <ele>1603.0</ele>
        <time>2020-11-16T11:05:00Z</time>
      </trkpt>
      <trkpt lat="28.7393070" lon="-17.8080080">
        <ele>1603.1</ele>
        <time>2020-11-16T11:05:01Z</time>
      </trkpt>
      <trkpt lat="28.7393070" lon="-17.8080080">
        <ele>1603.1</ele>
        <time>2020-11-16T11:05:02Z</time>
      </trkpt>
      <trkpt lat="28.7393270" lon="-17.8080250">
        <ele>1603.3</ele>
        <time>2020-11-16T11:05:03Z</time>
      </trkpt>
      <trkpt lat="28.7393370" lon="-17.8080300">
        <ele>1603.3</ele>
        <time>2020-11-16T11:05:04Z</time>
      </trkpt>
      <trkpt lat="28.7393370" lon="-17.8080300">
        <ele>1603.3</ele>
        <time>2020-11-16T11:05:05Z</time>
      </trkpt>
      <trkpt lat="28.7393570" lon="-17.8080420">
        <ele>1603.5</ele>
        <time>2020-11-16T11:05:06Z</time>
      </trkpt>
      <trkpt lat="28.7393700" lon="-17.8080470">
        <ele>1603.6</ele>
        <time>2020-11-16T11:05:07Z</time>
      </trkpt>
      <trkpt lat="28.7393700" lon="-17.8080470">
        <ele>1603.6</ele>
        <time>2020-11-16T11:05:08Z</time>
      </trkpt>
      <trkpt lat="28.7394220" lon="-17.8080800">
        <ele>1604.1</ele>
        <time>2020-11-16T11:05:09Z</time>
      </trkpt>
      <trkpt lat="28.7394370" lon="-17.8080830">
        <ele>1604.2</ele>
        <time>2020-11-16T11:05:10Z</time>
      </trkpt>
      <trkpt lat="28.7394370" lon="-17.8080830">
        <ele>1604.2</ele>
        <time>2020-11-16T11:05:11Z</time>
      </trkpt>
      <trkpt lat="28.7394720" lon="-17.8080920">
        <ele>1604.5</ele>
        <time>2020-11-16T11:05:12Z</time>
      </trkpt>
      <trkpt lat="28.7394720" lon="-17.8080920">
        <ele>1604.5</ele>
        <time>2020-11-16T11:05:13Z</time>
      </trkpt>
      <trkpt lat="28.7394970" lon="-17.8080830">
        <ele>1604.7</ele>
        <time>2020-11-16T11:05:14Z</time>
      </trkpt>
      <trkpt lat="28.7395150" lon="-17.8080900">
        <ele>1604.9</ele>
        <time>2020-11-16T11:05:15Z</time>
      </trkpt>
      <trkpt lat="28.7395330" lon="-17.8080970">
        <ele>1605.0</ele>
        <time>2020-11-16T11:05:16Z</time>
      </trkpt>
      <trkpt lat="28.7395330" lon="-17.8080970">
        <ele>1605.0</ele>
        <time>2020-11-16T11:05:17Z</time>
      </trkpt>
      <trkpt lat="28.7395620" lon="-17.8080930">
        <ele>1605.3</ele>
        <time>2020-11-16T11:05:18Z</time>
      </trkpt>
      <trkpt lat="28.7395620" lon="-17.8080930">
        <ele>1605.3</ele>
        <time>2020-11-16T11:05:19Z</time>
      </trkpt>
      <trkpt lat="28.7395830" lon="-17.8080880">
        <ele>1605.4</ele>
        <time>2020-11-16T11:05:20Z</time>
      </trkpt>
      <trkpt lat="28.7395830" lon="-17.8080880">
        <ele>1605.4</ele>
        <time>2020-11-16T11:05:21Z</time>
      </trkpt>
      <trkpt lat="28.7396080" lon="-17.8080920">
        <ele>1605.6</ele>
        <time>2020-11-16T11:05:22Z</time>
      </trkpt>
      <trkpt lat="28.7396180" lon="-17.8080950">
        <ele>1605.7</ele>
        <time>2020-11-16T11:05:23Z</time>
      </trkpt>
      <trkpt lat="28.7396180" lon="-17.8080950">
        <ele>1605.7</ele>
        <time>2020-11-16T11:05:24Z</time>
      </trkpt>
      <trkpt lat="28.7396500" lon="-17.8081220">
        <ele>1606.1</ele>
        <time>2020-11-16T11:05:25Z</time>
      </trkpt>
      <trkpt lat="28.7396500" lon="-17.8081220">
        <ele>1606.1</ele>
        <time>2020-11-16T11:05:26Z</time>
      </trkpt>
      <trkpt lat="28.7396720" lon="-17.8081530">
        <ele>1606.3</ele>
        <time>2020-11-16T11:05:27Z</time>
      </trkpt>
      <trkpt lat="28.7396720" lon="-17.8081530">
        <ele>1606.3</ele>
        <time>2020-11-16T11:05:28Z</time>
      </trkpt>
      <trkpt lat="28.7396930" lon="-17.8081830">
        <ele>1606.6</ele>
        <time>2020-11-16T11:05:29Z</time>
      </trkpt>
      <trkpt lat="28.7397050" lon="-17.8082000">
        <ele>1606.8</ele>
        <time>2020-11-16T11:05:30Z</time>
      </trkpt>
      <trkpt lat="28.7397050" lon="-17.8082000">
        <ele>1606.8</ele>
        <time>2020-11-16T11:05:31Z</time>
      </trkpt>
      <trkpt lat="28.7397180" lon="-17.8082270">
        <ele>1607.0</ele>
        <time>2020-11-16T11:05:32Z</time>
      </trkpt>
      <trkpt lat="28.7397180" lon="-17.8082270">
        <ele>1607.0</ele>
        <time>2020-11-16T11:05:33Z</time>
      </trkpt>
      <trkpt lat="28.7397370" lon="-17.8082480">
        <ele>1607.2</ele>
        <time>2020-11-16T11:05:34Z</time>
      </trkpt>
      <trkpt lat="28.7397430" lon="-17.8082620">
        <ele>1607.3</ele>
        <time>2020-11-16T11:05:35Z</time>
      </trkpt>
      <trkpt lat="28.7397430" lon="-17.8082620">
        <ele>1607.3</ele>
        <time>2020-11-16T11:05:36Z</time>
      </trkpt>
      <trkpt lat="28.7397720" lon="-17.8082820">
        <ele>1607.6</ele>
        <time>2020-11-16T11:05:37Z</time>
      </trkpt>
      <trkpt lat="28.7397780" lon="-17.8082920">
        <ele>1607.7</ele>
        <time>2020-11-16T11:05:38Z</time>
      </trkpt>
      <trkpt lat="28.7397870" lon="-17.8083030">
        <ele>1607.8</ele>
        <time>2020-11-16T11:05:39Z</time>
      </trkpt>
      <trkpt lat="28.7397870" lon="-17.8083030">
        <ele>1607.8</ele>
        <time>2020-11-16T11:05:40Z</time>
      </trkpt>
      <trkpt lat="28.7397950" lon="-17.8083180">
        <ele>1607.9</ele>
        <time>2020-11-16T11:05:41Z</time>
      </trkpt>
      <trkpt lat="28.7397950" lon="-17.8083180">
        <ele>1607.9</ele>
        <time>2020-11-16T11:05:42Z</time>
      </trkpt>
      <trkpt lat="28.7397980" lon="-17.8083370">
        <ele>1608.0</ele>
        <time>2020-11-16T11:05:43Z</time>
      </trkpt>
      <trkpt lat="28.7398000" lon="-17.8083420">
        <ele>1608.1</ele>
        <time>2020-11-16T11:05:44Z</time>
      </trkpt>
      <trkpt lat="28.7398000" lon="-17.8083420">
        <ele>1608.1</ele>
        <time>2020-11-16T11:05:45Z</time>
      </trkpt>
      <trkpt lat="28.7398020" lon="-17.8083630">
        <ele>1608.2</ele>
        <time>2020-11-16T11:05:46Z</time>
      </trkpt>
      <trkpt lat="28.7398020" lon="-17.8083630">
        <ele>1608.2</ele>
        <time>2020-11-16T11:05:47Z</time>
      </trkpt>
      <trkpt lat="28.7398000" lon="-17.8083750">
        <ele>1608.3</ele>
        <time>2020-11-16T11:05:48Z</time>
      </trkpt>
      <trkpt lat="28.7398050" lon="-17.8083830">
        <ele>1608.4</ele>
        <time>2020-11-16T11:05:49Z</time>
      </trkpt>
      <trkpt lat="28.7398200" lon="-17.8084130">
        <ele>1608.6</ele>
        <time>2020-11-16T11:05:50Z</time>
      </trkpt>
      <trkpt lat="28.7398320" lon="-17.8084220">
        <ele>1608.7</ele>
        <time>2020-11-16T11:05:51Z</time>
      </trkpt>
      <trkpt lat="28.7398320" lon="-17.8084220">
        <ele>1608.7</ele>
        <time>2020-11-16T11:05:52Z</time>
      </trkpt>
      <trkpt lat="28.7398680" lon="-17.8084680">
        <ele>1609.2</ele>
        <time>2020-11-16T11:05:53Z</time>
      </trkpt>
      <trkpt lat="28.7398680" lon="-17.8084680">
        <ele>1609.2</ele>
        <time>2020-11-16T11:05:54Z</time>
      </trkpt>
      <trkpt lat="28.7399020" lon="-17.8084880">
        <ele>1609.5</ele>
        <time>2020-11-16T11:05:55Z</time>
      </trkpt>
      <trkpt lat="28.7399020" lon="-17.8084880">
        <ele>1609.5</ele>
        <time>2020-11-16T11:05:56Z</time>
      </trkpt>
      <trkpt lat="28.7399430" lon="-17.8085150">
        <ele>1609.8</ele>
        <time>2020-11-16T11:05:57Z</time>
      </trkpt>
      <trkpt lat="28.7399430" lon="-17.8085150">
        <ele>1609.8</ele>
        <time>2020-11-16T11:05:58Z</time>
      </trkpt>
      <trkpt lat="28.7399780" lon="-17.8085230">
        <ele>1610.1</ele>
        <time>2020-11-16T11:05:59Z</time>
      </trkpt>
      <trkpt lat="28.7399900" lon="-17.8085280">
        <ele>1610.2</ele>
        <time>2020-11-16T11:06:00Z</time>
      </trkpt>
      <trkpt lat="28.7400000" lon="-17.8085280">
        <ele>1610.3</ele>
        <time>2020-11-16T11:06:01Z</time>
      </trkpt>
      <trkpt lat="28.7400100" lon="-17.8085300">
        <ele>1610.4</ele>
        <time>2020-11-16T11:06:02Z</time>
      </trkpt>
      <trkpt lat="28.7400100" lon="-17.8085300">
        <ele>1610.4</ele>
        <time>2020-11-16T11:06:03Z</time>
      </trkpt>
      <trkpt lat="28.7400350" lon="-17.8085330">
        <ele>1610.6</ele>
        <time>2020-11-16T11:06:04Z</time>
      </trkpt>
      <trkpt lat="28.7400420" lon="-17.8085280">
        <ele>1610.7</ele>
        <time>2020-11-16T11:06:05Z</time>
      </trkpt>
      <trkpt lat="28.7400420" lon="-17.8085280">
        <ele>1610.7</ele>
        <time>2020-11-16T11:06:06Z</time>
      </trkpt>
      <trkpt lat="28.7400830" lon="-17.8085280">
        <ele>1611.0</ele>
        <time>2020-11-16T11:06:07Z</time>
      </trkpt>
      <trkpt lat="28.7401070" lon="-17.8085350">
        <ele>1611.2</ele>
        <time>2020-11-16T11:06:08Z</time>
      </trkpt>
      <trkpt lat="28.7401070" lon="-17.8085350">
        <ele>1611.2</ele>
        <time>2020-11-16T11:06:09Z</time>
      </trkpt>
      <trkpt lat="28.7401480" lon="-17.8085330">
        <ele>1611.5</ele>
        <time>2020-11-16T11:06:10Z</time>
      </trkpt>
      <trkpt lat="28.7401620" lon="-17.8085300">
        <ele>1611.6</ele>
        <time>2020-11-16T11:06:11Z</time>
      </trkpt>
      <trkpt lat="28.7401620" lon="-17.8085300">
        <ele>1611.6</ele>
        <time>2020-11-16T11:06:12Z</time>
      </trkpt>
      <trkpt lat="28.7401900" lon="-17.8085330">
        <ele>1611.9</ele>
        <time>2020-11-16T11:06:13Z</time>
      </trkpt>
      <trkpt lat="28.7401900" lon="-17.8085330">
        <ele>1611.9</ele>
        <time>2020-11-16T11:06:14Z</time>
      </trkpt>
      <trkpt lat="28.7402280" lon="-17.8085170">
        <ele>1612.2</ele>
        <time>2020-11-16T11:06:15Z</time>
      </trkpt>
      <trkpt lat="28.7402420" lon="-17.8085130">
        <ele>1612.3</ele>
        <time>2020-11-16T11:06:16Z</time>
      </trkpt>
      <trkpt lat="28.7402420" lon="-17.8085130">
        <ele>1612.3</ele>
        <time>2020-11-16T11:06:17Z</time>
      </trkpt>
      <trkpt lat="28.7402720" lon="-17.8085270">
        <ele>1612.6</ele>
        <time>2020-11-16T11:06:18Z</time>
      </trkpt>
      <trkpt lat="28.7402920" lon="-17.8085400">
        <ele>1612.8</ele>
        <time>2020-11-16T11:06:19Z</time>
      </trkpt>
      <trkpt lat="28.7403100" lon="-17.8085570">
        <ele>1612.9</ele>
        <time>2020-11-16T11:06:20Z</time>
      </trkpt>
      <trkpt lat="28.7403100" lon="-17.8085570">
        <ele>1612.9</ele>
        <time>2020-11-16T11:06:21Z</time>
      </trkpt>
      <trkpt lat="28.7403370" lon="-17.8085850">
        <ele>1613.2</ele>
        <time>2020-11-16T11:06:22Z</time>
      </trkpt>
      <trkpt lat="28.7403470" lon="-17.8086000">
        <ele>1613.4</ele>
        <time>2020-11-16T11:06:23Z</time>
      </trkpt>
      <trkpt lat="28.7403530" lon="-17.8086100">
        <ele>1613.5</ele>
        <time>2020-11-16T11:06:24Z</time>
      </trkpt>
      <trkpt lat="28.7403530" lon="-17.8086100">
        <ele>1613.5</ele>
        <time>2020-11-16T11:06:25Z</time>
      </trkpt>
      <trkpt lat="28.7403680" lon="-17.8086280">
        <ele>1613.6</ele>
        <time>2020-11-16T11:06:26Z</time>
      </trkpt>
      <trkpt lat="28.7403730" lon="-17.8086370">
        <ele>1613.7</ele>
        <time>2020-11-16T11:06:27Z</time>
      </trkpt>
      <trkpt lat="28.7403730" lon="-17.8086370">
        <ele>1613.7</ele>
        <time>2020-11-16T11:06:28Z</time>
      </trkpt>
      <trkpt lat="28.7403800" lon="-17.8086620">
        <ele>1613.9</ele>
        <time>2020-11-16T11:06:29Z</time>
      </trkpt>
      <trkpt lat="28.7403830" lon="-17.8086750">
        <ele>1614.0</ele>
        <time>2020-11-16T11:06:30Z</time>
      </trkpt>
      <trkpt lat="28.7403830" lon="-17.8086750">
        <ele>1614.0</ele>
        <time>2020-11-16T11:06:31Z</time>
      </trkpt>
      <trkpt lat="28.7403900" lon="-17.8086980">
        <ele>1614.2</ele>
        <time>2020-11-16T11:06:32Z</time>
      </trkpt>
      <trkpt lat="28.7403900" lon="-17.8086980">
        <ele>1614.2</ele>
        <time>2020-11-16T11:06:33Z</time>
      </trkpt>
      <trkpt lat="28.7403980" lon="-17.8087100">
        <ele>1614.3</ele>
        <time>2020-11-16T11:06:34Z</time>
      </trkpt>
      <trkpt lat="28.7404080" lon="-17.8087220">
        <ele>1614.4</ele>
        <time>2020-11-16T11:06:35Z</time>
      </trkpt>
      <trkpt lat="28.7404120" lon="-17.8087350">
        <ele>1614.5</ele>
        <time>2020-11-16T11:06:36Z</time>
      </trkpt>
      <trkpt lat="28.7404120" lon="-17.8087350">
        <ele>1614.5</ele>
        <time>2020-11-16T11:06:37Z</time>
      </trkpt>
      <trkpt lat="28.7404130" lon="-17.8087580">
        <ele>1614.6</ele>
        <time>2020-11-16T11:06:38Z</time>
      </trkpt>
      <trkpt lat="28.7404130" lon="-17.8087580">
        <ele>1614.6</ele>
        <time>2020-11-16T11:06:39Z</time>
      </trkpt>
      <trkpt lat="28.7404180" lon="-17.8087980">
        <ele>1614.9</ele>
        <time>2020-11-16T11:06:40Z</time>
      </trkpt>
      <trkpt lat="28.7404180" lon="-17.8087980">
        <ele>1614.9</ele>
        <time>2020-11-16T11:06:41Z</time>
      </trkpt>
      <trkpt lat="28.7404280" lon="-17.8088420">
        <ele>1615.2</ele>
        <time>2020-11-16T11:06:42Z</time>
      </trkpt>
      <trkpt lat="28.7404320" lon="-17.8088530">
        <ele>1615.3</ele>
        <time>2020-11-16T11:06:43Z</time>
      </trkpt>
      <trkpt lat="28.7404320" lon="-17.8088530">
        <ele>1615.3</ele>
        <time>2020-11-16T11:06:44Z</time>
      </trkpt>
      <trkpt lat="28.7404350" lon="-17.8088930">
        <ele>1615.6</ele>
        <time>2020-11-16T11:06:45Z</time>
      </trkpt>
      <trkpt lat="28.7404350" lon="-17.8088930">
        <ele>1615.6</ele>
        <time>2020-11-16T11:06:46Z</time>
      </trkpt>
      <trkpt lat="28.7404420" lon="-17.8089330">
        <ele>1615.9</ele>
        <time>2020-11-16T11:06:47Z</time>
      </trkpt>
      <trkpt lat="28.7404420" lon="-17.8089330">
        <ele>1615.9</ele>
        <time>2020-11-16T11:06:48Z</time>
      </trkpt>
      <trkpt lat="28.7404480" lon="-17.8089680">
        <ele>1616.2</ele>
        <time>2020-11-16T11:06:49Z</time>
      </trkpt>
      <trkpt lat="28.7404420" lon="-17.8089770">
        <ele>1616.2</ele>
        <time>2020-11-16T11:06:50Z</time>
      </trkpt>
      <trkpt lat="28.7404420" lon="-17.8089770">
        <ele>1616.2</ele>
        <time>2020-11-16T11:06:51Z</time>
      </trkpt>
      <trkpt lat="28.7404350" lon="-17.8090050">
        <ele>1616.4</ele>
        <time>2020-11-16T11:06:52Z</time>
      </trkpt>
      <trkpt lat="28.7404370" lon="-17.8090230">
        <ele>1616.6</ele>
        <time>2020-11-16T11:06:53Z</time>
      </trkpt>
      <trkpt lat="28.7404380" lon="-17.8090450">
        <ele>1616.7</ele>
        <time>2020-11-16T11:06:54Z</time>
      </trkpt>
      <trkpt lat="28.7404380" lon="-17.8090450">
        <ele>1616.7</ele>
        <time>2020-11-16T11:06:55Z</time>
      </trkpt>
      <trkpt lat="28.7404480" lon="-17.8090820">
        <ele>1617.0</ele>
        <time>2020-11-16T11:06:56Z</time>
      </trkpt>
      <trkpt lat="28.7404480" lon="-17.8090820">
        <ele>1617.0</ele>
        <time>2020-11-16T11:06:57Z</time>
      </trkpt>
      <trkpt lat="28.7404550" lon="-17.8091120">
        <ele>1617.2</ele>
        <time>2020-11-16T11:06:58Z</time>
      </trkpt>
      <trkpt lat="28.7404530" lon="-17.8091300">
        <ele>1617.3</ele>
        <time>2020-11-16T11:06:59Z</time>
      </trkpt>
      <trkpt lat="28.7404530" lon="-17.8091300">
        <ele>1617.3</ele>
        <time>2020-11-16T11:07:00Z</time>
      </trkpt>
      <trkpt lat="28.7404430" lon="-17.8091550">
        <ele>1617.5</ele>
        <time>2020-11-16T11:07:01Z</time>
      </trkpt>
      <trkpt lat="28.7404430" lon="-17.8091550">
        <ele>1617.5</ele>
        <time>2020-11-16T11:07:02Z</time>
      </trkpt>
      <trkpt lat="28.7404330" lon="-17.8091780">
        <ele>1617.7</ele>
        <time>2020-11-16T11:07:03Z</time>
      </trkpt>
      <trkpt lat="28.7404330" lon="-17.8091780">
        <ele>1617.7</ele>
        <time>2020-11-16T11:07:04Z</time>
      </trkpt>
      <trkpt lat="28.7404380" lon="-17.8092230">
        <ele>1618.0</ele>
        <time>2020-11-16T11:07:05Z</time>
      </trkpt>
      <trkpt lat="28.7404430" lon="-17.8092470">
        <ele>1618.2</ele>
        <time>2020-11-16T11:07:06Z</time>
      </trkpt>
      <trkpt lat="28.7404430" lon="-17.8092470">
        <ele>1618.2</ele>
        <time>2020-11-16T11:07:07Z</time>
      </trkpt>
      <trkpt lat="28.7404400" lon="-17.8092870">
        <ele>1618.5</ele>
        <time>2020-11-16T11:07:08Z</time>
      </trkpt>
      <trkpt lat="28.7404400" lon="-17.8092870">
        <ele>1618.5</ele>
        <time>2020-11-16T11:07:09Z</time>
      </trkpt>
      <trkpt lat="28.7404320" lon="-17.8093150">
        <ele>1618.7</ele>
        <time>2020-11-16T11:07:10Z</time>
      </trkpt>
      <trkpt lat="28.7404320" lon="-17.8093150">
        <ele>1618.7</ele>
        <time>2020-11-16T11:07:11Z</time>
      </trkpt>
      <trkpt lat="28.7404180" lon="-17.8093600">
        <ele>1619.0</ele>
        <time>2020-11-16T11:07:12Z</time>
      </trkpt>
      <trkpt lat="28.7404180" lon="-17.8093600">
        <ele>1619.0</ele>
        <time>2020-11-16T11:07:13Z</time>
      </trkpt>
      <trkpt lat="28.7404150" lon="-17.8094170">
        <ele>1619.4</ele>
        <time>2020-11-16T11:07:14Z</time>
      </trkpt>
      <trkpt lat="28.7404150" lon="-17.8094170">
        <ele>1619.4</ele>
        <time>2020-11-16T11:07:15Z</time>
      </trkpt>
      <trkpt lat="28.7404030" lon="-17.8094620">
        <ele>1619.8</ele>
        <time>2020-11-16T11:07:16Z</time>
      </trkpt>
      <trkpt lat="28.7404000" lon="-17.8094770">
        <ele>1619.9</ele>
        <time>2020-11-16T11:07:17Z</time>
      </trkpt>
      <trkpt lat="28.7404000" lon="-17.8094770">
        <ele>1619.9</ele>
        <time>2020-11-16T11:07:18Z</time>
      </trkpt>
      <trkpt lat="28.7404000" lon="-17.8095220">
        <ele>1620.2</ele>
        <time>2020-11-16T11:07:19Z</time>
      </trkpt>
      <trkpt lat="28.7404050" lon="-17.8095480">
        <ele>1620.4</ele>
        <time>2020-11-16T11:07:20Z</time>
      </trkpt>
      <trkpt lat="28.7404050" lon="-17.8095480">
        <ele>1620.4</ele>
        <time>2020-11-16T11:07:21Z</time>
      </trkpt>
      <trkpt lat="28.7404120" lon="-17.8095900">
        <ele>1620.7</ele>
        <time>2020-11-16T11:07:22Z</time>
      </trkpt>
      <trkpt lat="28.7404150" lon="-17.8096120">
        <ele>1620.8</ele>
        <time>2020-11-16T11:07:23Z</time>
      </trkpt>
      <trkpt lat="28.7404150" lon="-17.8096120">
        <ele>1620.8</ele>
        <time>2020-11-16T11:07:24Z</time>
      </trkpt>
      <trkpt lat="28.7404120" lon="-17.8096500">
        <ele>1621.1</ele>
        <time>2020-11-16T11:07:25Z</time>
      </trkpt>
      <trkpt lat="28.7404120" lon="-17.8096500">
        <ele>1621.1</ele>
        <time>2020-11-16T11:07:26Z</time>
      </trkpt>
      <trkpt lat="28.7404100" lon="-17.8096980">
        <ele>1621.5</ele>
        <time>2020-11-16T11:07:27Z</time>
      </trkpt>
      <trkpt lat="28.7404070" lon="-17.8097180">
        <ele>1621.6</ele>
        <time>2020-11-16T11:07:28Z</time>
      </trkpt>
      <trkpt lat="28.7404070" lon="-17.8097180">
        <ele>1621.6</ele>
        <time>2020-11-16T11:07:29Z</time>
      </trkpt>
      <trkpt lat="28.7404030" lon="-17.8097470">
        <ele>1621.8</ele>
        <time>2020-11-16T11:07:30Z</time>
      </trkpt>
      <trkpt lat="28.7404030" lon="-17.8097470">
        <ele>1621.8</ele>
        <time>2020-11-16T11:07:31Z</time>
      </trkpt>
      <trkpt lat="28.7403980" lon="-17.8097750">
        <ele>1622.0</ele>
        <time>2020-11-16T11:07:32Z</time>
      </trkpt>
      <trkpt lat="28.7404000" lon="-17.8097970">
        <ele>1622.2</ele>
        <time>2020-11-16T11:07:33Z</time>
      </trkpt>
      <trkpt lat="28.7404000" lon="-17.8097970">
        <ele>1622.2</ele>
        <time>2020-11-16T11:07:34Z</time>
      </trkpt>
      <trkpt lat="28.7403900" lon="-17.8098180">
        <ele>1622.3</ele>
        <time>2020-11-16T11:07:35Z</time>
      </trkpt>
      <trkpt lat="28.7403900" lon="-17.8098180">
        <ele>1622.3</ele>
        <time>2020-11-16T11:07:36Z</time>
      </trkpt>
      <trkpt lat="28.7403920" lon="-17.8098620">
        <ele>1622.6</ele>
        <time>2020-11-16T11:07:37Z</time>
      </trkpt>
      <trkpt lat="28.7403880" lon="-17.8098750">
        <ele>1622.7</ele>
        <time>2020-11-16T11:07:38Z</time>
      </trkpt>
      <trkpt lat="28.7403880" lon="-17.8098750">
        <ele>1622.7</ele>
        <time>2020-11-16T11:07:39Z</time>
      </trkpt>
      <trkpt lat="28.7403950" lon="-17.8099200">
        <ele>1623.1</ele>
        <time>2020-11-16T11:07:40Z</time>
      </trkpt>
      <trkpt lat="28.7404050" lon="-17.8099470">
        <ele>1623.3</ele>
        <time>2020-11-16T11:07:41Z</time>
      </trkpt>
      <trkpt lat="28.7404050" lon="-17.8099470">
        <ele>1623.3</ele>
        <time>2020-11-16T11:07:42Z</time>
      </trkpt>
      <trkpt lat="28.7404100" lon="-17.8100270">
        <ele>1623.8</ele>
        <time>2020-11-16T11:07:43Z</time>
      </trkpt>
      <trkpt lat="28.7404080" lon="-17.8100520">
        <ele>1624.0</ele>
        <time>2020-11-16T11:07:44Z</time>
      </trkpt>
      <trkpt lat="28.7404080" lon="-17.8100520">
        <ele>1624.0</ele>
        <time>2020-11-16T11:07:45Z</time>
      </trkpt>
      <trkpt lat="28.7404070" lon="-17.8100750">
        <ele>1624.2</ele>
        <time>2020-11-16T11:07:46Z</time>
      </trkpt>
      <trkpt lat="28.7403970" lon="-17.8100830">
        <ele>1624.3</ele>
        <time>2020-11-16T11:07:47Z</time>
      </trkpt>
      <trkpt lat="28.7403930" lon="-17.8101000">
        <ele>1624.4</ele>
        <time>2020-11-16T11:07:48Z</time>
      </trkpt>
      <trkpt lat="28.7403930" lon="-17.8101220">
        <ele>1624.6</ele>
        <time>2020-11-16T11:07:49Z</time>
      </trkpt>
      <trkpt lat="28.7403930" lon="-17.8101220">
        <ele>1624.6</ele>
        <time>2020-11-16T11:07:50Z</time>
      </trkpt>
      <trkpt lat="28.7403770" lon="-17.8101450">
        <ele>1624.8</ele>
        <time>2020-11-16T11:07:51Z</time>
      </trkpt>
      <trkpt lat="28.7403770" lon="-17.8101450">
        <ele>1624.8</ele>
        <time>2020-11-16T11:07:52Z</time>
      </trkpt>
      <trkpt lat="28.7403750" lon="-17.8101830">
        <ele>1625.0</ele>
        <time>2020-11-16T11:07:53Z</time>
      </trkpt>
      <trkpt lat="28.7403750" lon="-17.8101830">
        <ele>1625.0</ele>
        <time>2020-11-16T11:07:54Z</time>
      </trkpt>
      <trkpt lat="28.7403970" lon="-17.8102350">
        <ele>1625.4</ele>
        <time>2020-11-16T11:07:55Z</time>
      </trkpt>
      <trkpt lat="28.7403970" lon="-17.8102580">
        <ele>1625.6</ele>
        <time>2020-11-16T11:07:56Z</time>
      </trkpt>
      <trkpt lat="28.7403970" lon="-17.8102580">
        <ele>1625.6</ele>
        <time>2020-11-16T11:07:57Z</time>
      </trkpt>
      <trkpt lat="28.7403750" lon="-17.8102950">
        <ele>1625.9</ele>
        <time>2020-11-16T11:07:58Z</time>
      </trkpt>
      <trkpt lat="28.7403750" lon="-17.8102950">
        <ele>1625.9</ele>
        <time>2020-11-16T11:07:59Z</time>
      </trkpt>
      <trkpt lat="28.7403570" lon="-17.8103270">
        <ele>1626.2</ele>
        <time>2020-11-16T11:08:00Z</time>
      </trkpt>
      <trkpt lat="28.7403570" lon="-17.8103270">
        <ele>1626.2</ele>
        <time>2020-11-16T11:08:01Z</time>
      </trkpt>
      <trkpt lat="28.7403400" lon="-17.8103670">
        <ele>1626.5</ele>
        <time>2020-11-16T11:08:02Z</time>
      </trkpt>
      <trkpt lat="28.7403350" lon="-17.8103820">
        <ele>1626.6</ele>
        <time>2020-11-16T11:08:03Z</time>
      </trkpt>
      <trkpt lat="28.7403350" lon="-17.8103820">
        <ele>1626.6</ele>
        <time>2020-11-16T11:08:04Z</time>
      </trkpt>
      <trkpt lat="28.7403300" lon="-17.8104150">
        <ele>1626.8</ele>
        <time>2020-11-16T11:08:05Z</time>
      </trkpt>
      <trkpt lat="28.7403300" lon="-17.8104150">
        <ele>1626.8</ele>
        <time>2020-11-16T11:08:06Z</time>
      </trkpt>
      <trkpt lat="28.7403200" lon="-17.8104370">
        <ele>1627.0</ele>
        <time>2020-11-16T11:08:07Z</time>
      </trkpt>
      <trkpt lat="28.7403200" lon="-17.8104370">
        <ele>1627.0</ele>
        <time>2020-11-16T11:08:08Z</time>
      </trkpt>
      <trkpt lat="28.7403120" lon="-17.8104680">
        <ele>1627.2</ele>
        <time>2020-11-16T11:08:09Z</time>
      </trkpt>
      <trkpt lat="28.7403120" lon="-17.8104900">
        <ele>1627.4</ele>
        <time>2020-11-16T11:08:10Z</time>
      </trkpt>
      <trkpt lat="28.7403120" lon="-17.8104900">
        <ele>1627.4</ele>
        <time>2020-11-16T11:08:11Z</time>
      </trkpt>
      <trkpt lat="28.7403150" lon="-17.8105220">
        <ele>1627.6</ele>
        <time>2020-11-16T11:08:12Z</time>
      </trkpt>
      <trkpt lat="28.7403150" lon="-17.8105220">
        <ele>1627.6</ele>
        <time>2020-11-16T11:08:13Z</time>
      </trkpt>
      <trkpt lat="28.7403200" lon="-17.8105470">
        <ele>1627.8</ele>
        <time>2020-11-16T11:08:14Z</time>
      </trkpt>
      <trkpt lat="28.7403200" lon="-17.8105470">
        <ele>1627.8</ele>
        <time>2020-11-16T11:08:15Z</time>
      </trkpt>
      <trkpt lat="28.7403170" lon="-17.8105900">
        <ele>1628.1</ele>
        <time>2020-11-16T11:08:16Z</time>
      </trkpt>
      <trkpt lat="28.7403170" lon="-17.8105900">
        <ele>1628.1</ele>
        <time>2020-11-16T11:08:17Z</time>
      </trkpt>
      <trkpt lat="28.7403230" lon="-17.8106420">
        <ele>1628.5</ele>
        <time>2020-11-16T11:08:18Z</time>
      </trkpt>
      <trkpt lat="28.7403150" lon="-17.8106630">
        <ele>1628.6</ele>
        <time>2020-11-16T11:08:19Z</time>
      </trkpt>
      <trkpt lat="28.7403150" lon="-17.8106630">
        <ele>1628.6</ele>
        <time>2020-11-16T11:08:20Z</time>
      </trkpt>
      <trkpt lat="28.7403120" lon="-17.8106820">
        <ele>1628.8</ele>
        <time>2020-11-16T11:08:21Z</time>
      </trkpt>
      <trkpt lat="28.7403120" lon="-17.8106820">
        <ele>1628.8</ele>
        <time>2020-11-16T11:08:22Z</time>
      </trkpt>
      <trkpt lat="28.7402770" lon="-17.8107030">
        <ele>1629.1</ele>
        <time>2020-11-16T11:08:23Z</time>
      </trkpt>
      <trkpt lat="28.7402770" lon="-17.8107030">
        <ele>1629.1</ele>
        <time>2020-11-16T11:08:24Z</time>
      </trkpt>
      <trkpt lat="28.7402580" lon="-17.8107270">
        <ele>1629.3</ele>
        <time>2020-11-16T11:08:25Z</time>
      </trkpt>
      <trkpt lat="28.7402520" lon="-17.8107380">
        <ele>1629.4</ele>
        <time>2020-11-16T11:08:26Z</time>
      </trkpt>
      <trkpt lat="28.7402520" lon="-17.8107380">
        <ele>1629.4</ele>
        <time>2020-11-16T11:08:27Z</time>
      </trkpt>
      <trkpt lat="28.7402370" lon="-17.8107620">
        <ele>1629.6</ele>
        <time>2020-11-16T11:08:28Z</time>
      </trkpt>
      <trkpt lat="28.7402370" lon="-17.8107620">
        <ele>1629.6</ele>
        <time>2020-11-16T11:08:29Z</time>
      </trkpt>
      <trkpt lat="28.7402430" lon="-17.8107980">
        <ele>1629.9</ele>
        <time>2020-11-16T11:08:30Z</time>
      </trkpt>
      <trkpt lat="28.7402450" lon="-17.8108130">
        <ele>1630.0</ele>
        <time>2020-11-16T11:08:31Z</time>
      </trkpt>
      <trkpt lat="28.7402420" lon="-17.8108270">
        <ele>1630.1</ele>
        <time>2020-11-16T11:08:32Z</time>
      </trkpt>
      <trkpt lat="28.7402420" lon="-17.8108270">
        <ele>1630.1</ele>
        <time>2020-11-16T11:08:33Z</time>
      </trkpt>
      <trkpt lat="28.7402250" lon="-17.8108770">
        <ele>1630.5</ele>
        <time>2020-11-16T11:08:34Z</time>
      </trkpt>
      <trkpt lat="28.7402230" lon="-17.8108930">
        <ele>1630.6</ele>
        <time>2020-11-16T11:08:35Z</time>
      </trkpt>
      <trkpt lat="28.7402230" lon="-17.8108930">
        <ele>1630.6</ele>
        <time>2020-11-16T11:08:36Z</time>
      </trkpt>
      <trkpt lat="28.7402370" lon="-17.8109280">
        <ele>1630.9</ele>
        <time>2020-11-16T11:08:37Z</time>
      </trkpt>
      <trkpt lat="28.7402350" lon="-17.8109420">
        <ele>1631.0</ele>
        <time>2020-11-16T11:08:38Z</time>
      </trkpt>
      <trkpt lat="28.7402350" lon="-17.8109420">
        <ele>1631.0</ele>
        <time>2020-11-16T11:08:39Z</time>
      </trkpt>
      <trkpt lat="28.7402420" lon="-17.8109930">
        <ele>1631.3</ele>
        <time>2020-11-16T11:08:40Z</time>
      </trkpt>
      <trkpt lat="28.7402420" lon="-17.8109930">
        <ele>1631.3</ele>
        <time>2020-11-16T11:08:41Z</time>
      </trkpt>
      <trkpt lat="28.7402470" lon="-17.8110230">
        <ele>1631.5</ele>
        <time>2020-11-16T11:08:42Z</time>
      </trkpt>
      <trkpt lat="28.7402470" lon="-17.8110230">
        <ele>1631.5</ele>
        <time>2020-11-16T11:08:43Z</time>
      </trkpt>
      <trkpt lat="28.7402720" lon="-17.8110680">
        <ele>1631.9</ele>
        <time>2020-11-16T11:08:44Z</time>
      </trkpt>
      <trkpt lat="28.7402720" lon="-17.8110680">
        <ele>1631.9</ele>
        <time>2020-11-16T11:08:45Z</time>
      </trkpt>
      <trkpt lat="28.7402830" lon="-17.8111230">
        <ele>1632.3</ele>
        <time>2020-11-16T11:08:46Z</time>
      </trkpt>
      <trkpt lat="28.7402900" lon="-17.8111420">
        <ele>1632.5</ele>
        <time>2020-11-16T11:08:47Z</time>
      </trkpt>
      <trkpt lat="28.7402900" lon="-17.8111420">
        <ele>1632.5</ele>
        <time>2020-11-16T11:08:48Z</time>
      </trkpt>
      <trkpt lat="28.7402970" lon="-17.8112070">
        <ele>1632.9</ele>
        <time>2020-11-16T11:08:49Z</time>
      </trkpt>
      <trkpt lat="28.7403020" lon="-17.8112320">
        <ele>1633.1</ele>
        <time>2020-11-16T11:08:50Z</time>
      </trkpt>
      <trkpt lat="28.7403020" lon="-17.8112320">
        <ele>1633.1</ele>
        <time>2020-11-16T11:08:51Z</time>
      </trkpt>
      <trkpt lat="28.7403150" lon="-17.8112780">
        <ele>1633.4</ele>
        <time>2020-11-16T11:08:52Z</time>
      </trkpt>
      <trkpt lat="28.7403200" lon="-17.8113020">
        <ele>1633.6</ele>
        <time>2020-11-16T11:08:53Z</time>
      </trkpt>
      <trkpt lat="28.7403220" lon="-17.8113180">
        <ele>1633.7</ele>
        <time>2020-11-16T11:08:54Z</time>
      </trkpt>
      <trkpt lat="28.7403220" lon="-17.8113180">
        <ele>1633.7</ele>
        <time>2020-11-16T11:08:55Z</time>
      </trkpt>
      <trkpt lat="28.7403100" lon="-17.8113580">
        <ele>1634.0</ele>
        <time>2020-11-16T11:08:56Z</time>
      </trkpt>
      <trkpt lat="28.7403100" lon="-17.8113580">
        <ele>1634.0</ele>
        <time>2020-11-16T11:08:57Z</time>
      </trkpt>
      <trkpt lat="28.7403050" lon="-17.8113970">
        <ele>1634.3</ele>
        <time>2020-11-16T11:08:58Z</time>
      </trkpt>
      <trkpt lat="28.7403050" lon="-17.8113970">
        <ele>1634.3</ele>
        <time>2020-11-16T11:08:59Z</time>
      </trkpt>
      <trkpt lat="28.7402980" lon="-17.8114370">
        <ele>1634.6</ele>
        <time>2020-11-16T11:09:00Z</time>
      </trkpt>
      <trkpt lat="28.7402980" lon="-17.8114370">
        <ele>1634.6</ele>
        <time>2020-11-16T11:09:01Z</time>
      </trkpt>
      <trkpt lat="28.7402900" lon="-17.8114630">
        <ele>1634.8</ele>
        <time>2020-11-16T11:09:02Z</time>
      </trkpt>
      <trkpt lat="28.7402900" lon="-17.8114630">
        <ele>1634.8</ele>
        <time>2020-11-16T11:09:03Z</time>
      </trkpt>
      <trkpt lat="28.7402820" lon="-17.8114770">
        <ele>1634.9</ele>
        <time>2020-11-16T11:09:04Z</time>
      </trkpt>
      <trkpt lat="28.7402820" lon="-17.8114770">
        <ele>1634.9</ele>
        <time>2020-11-16T11:09:05Z</time>
      </trkpt>
      <trkpt lat="28.7402900" lon="-17.8115100">
        <ele>1635.1</ele>
        <time>2020-11-16T11:09:06Z</time>
      </trkpt>
      <trkpt lat="28.7402970" lon="-17.8115320">
        <ele>1635.3</ele>
        <time>2020-11-16T11:09:07Z</time>
      </trkpt>
      <trkpt lat="28.7402970" lon="-17.8115320">
        <ele>1635.3</ele>
        <time>2020-11-16T11:09:08Z</time>
      </trkpt>
      <trkpt lat="28.7403080" lon="-17.8115630">
        <ele>1635.5</ele>
        <time>2020-11-16T11:09:09Z</time>
      </trkpt>
      <trkpt lat="28.7403080" lon="-17.8115630">
        <ele>1635.5</ele>
        <time>2020-11-16T11:09:10Z</time>
      </trkpt>
      <trkpt lat="28.7403200" lon="-17.8115920">
        <ele>1635.8</ele>
        <time>2020-11-16T11:09:11Z</time>
      </trkpt>
      <trkpt lat="28.7403200" lon="-17.8115920">
        <ele>1635.8</ele>
        <time>2020-11-16T11:09:12Z</time>
      </trkpt>
      <trkpt lat="28.7403530" lon="-17.8116430">
        <ele>1636.2</ele>
        <time>2020-11-16T11:09:13Z</time>
      </trkpt>
      <trkpt lat="28.7403670" lon="-17.8116650">
        <ele>1636.4</ele>
        <time>2020-11-16T11:09:14Z</time>
      </trkpt>
      <trkpt lat="28.7403670" lon="-17.8116650">
        <ele>1636.4</ele>
        <time>2020-11-16T11:09:15Z</time>
      </trkpt>
      <trkpt lat="28.7403850" lon="-17.8117000">
        <ele>1636.7</ele>
        <time>2020-11-16T11:09:16Z</time>
      </trkpt>
      <trkpt lat="28.7403850" lon="-17.8117000">
        <ele>1636.7</ele>
        <time>2020-11-16T11:09:17Z</time>
      </trkpt>
      <trkpt lat="28.7404080" lon="-17.8117450">
        <ele>1637.1</ele>
        <time>2020-11-16T11:09:18Z</time>
      </trkpt>
      <trkpt lat="28.7404180" lon="-17.8117680">
        <ele>1637.2</ele>
        <time>2020-11-16T11:09:19Z</time>
      </trkpt>
      <trkpt lat="28.7404250" lon="-17.8118220">
        <ele>1637.6</ele>
        <time>2020-11-16T11:09:20Z</time>
      </trkpt>
      <trkpt lat="28.7404250" lon="-17.8118220">
        <ele>1637.6</ele>
        <time>2020-11-16T11:09:21Z</time>
      </trkpt>
      <trkpt lat="28.7404400" lon="-17.8118770">
        <ele>1638.0</ele>
        <time>2020-11-16T11:09:22Z</time>
      </trkpt>
      <trkpt lat="28.7404400" lon="-17.8118770">
        <ele>1638.0</ele>
        <time>2020-11-16T11:09:23Z</time>
      </trkpt>
      <trkpt lat="28.7404530" lon="-17.8119100">
        <ele>1638.3</ele>
        <time>2020-11-16T11:09:24Z</time>
      </trkpt>
      <trkpt lat="28.7404570" lon="-17.8119230">
        <ele>1638.4</ele>
        <time>2020-11-16T11:09:25Z</time>
      </trkpt>
      <trkpt lat="28.7404570" lon="-17.8119230">
        <ele>1638.6</ele>
        <time>2020-11-16T11:09:26Z</time>
      </trkpt>
      <trkpt lat="28.7404700" lon="-17.8119570">
        <ele>1640.2</ele>
        <time>2020-11-16T11:09:27Z</time>
      </trkpt>
      <trkpt lat="28.7404700" lon="-17.8119570">
        <ele>1640.4</ele>
        <time>2020-11-16T11:09:28Z</time>
      </trkpt>
      <trkpt lat="28.7404830" lon="-17.8119900">
        <ele>1642.5</ele>
        <time>2020-11-16T11:09:29Z</time>
      </trkpt>
      <trkpt lat="28.7404920" lon="-17.8120100">
        <ele>1642.7</ele>
        <time>2020-11-16T11:09:30Z</time>
      </trkpt>
      <trkpt lat="28.7404920" lon="-17.8120100">
        <ele>1642.9</ele>
        <time>2020-11-16T11:09:31Z</time>
      </trkpt>
      <trkpt lat="28.7405070" lon="-17.8120400">
        <ele>1644.6</ele>
        <time>2020-11-16T11:09:32Z</time>
      </trkpt>
      <trkpt lat="28.7405070" lon="-17.8120400">
        <ele>1644.8</ele>
        <time>2020-11-16T11:09:33Z</time>
      </trkpt>
      <trkpt lat="28.7405220" lon="-17.8120670">
        <ele>1646.9</ele>
        <time>2020-11-16T11:09:34Z</time>
      </trkpt>
      <trkpt lat="28.7405220" lon="-17.8120670">
        <ele>1647.1</ele>
        <time>2020-11-16T11:09:35Z</time>
      </trkpt>
      <trkpt lat="28.7405350" lon="-17.8121080">
        <ele>1648.9</ele>
        <time>2020-11-16T11:09:36Z</time>
      </trkpt>
      <trkpt lat="28.7405350" lon="-17.8121080">
        <ele>1649.2</ele>
        <time>2020-11-16T11:09:37Z</time>
      </trkpt>
      <trkpt lat="28.7405600" lon="-17.8121300">
        <ele>1649.4</ele>
        <time>2020-11-16T11:09:38Z</time>
      </trkpt>
      <trkpt lat="28.7405680" lon="-17.8121400">
        <ele>1649.6</ele>
        <time>2020-11-16T11:09:39Z</time>
      </trkpt>
      <trkpt lat="28.7405680" lon="-17.8121400">
        <ele>1649.8</ele>
        <time>2020-11-16T11:09:40Z</time>
      </trkpt>
      <trkpt lat="28.7405920" lon="-17.8121550">
        <ele>1651.8</ele>
        <time>2020-11-16T11:09:41Z</time>
      </trkpt>
      <trkpt lat="28.7405920" lon="-17.8121550">
        <ele>1652.0</ele>
        <time>2020-11-16T11:09:42Z</time>
      </trkpt>
      <trkpt lat="28.7406170" lon="-17.8121620">
        <ele>1652.0</ele>
        <time>2020-11-16T11:09:43Z</time>
      </trkpt>
      <trkpt lat="28.7406170" lon="-17.8121620">
        <ele>1652.2</ele>
        <time>2020-11-16T11:09:44Z</time>
      </trkpt>
      <trkpt lat="28.7406530" lon="-17.8121500">
        <ele>1652.4</ele>
        <time>2020-11-16T11:09:45Z</time>
      </trkpt>
      <trkpt lat="28.7406780" lon="-17.8121500">
        <ele>1652.6</ele>
        <time>2020-11-16T11:09:46Z</time>
      </trkpt>
      <trkpt lat="28.7406780" lon="-17.8121500">
        <ele>1652.8</ele>
        <time>2020-11-16T11:09:47Z</time>
      </trkpt>
      <trkpt lat="28.7407080" lon="-17.8121380">
        <ele>1651.0</ele>
        <time>2020-11-16T11:09:48Z</time>
      </trkpt>
      <trkpt lat="28.7407080" lon="-17.8121380">
        <ele>1651.2</ele>
        <time>2020-11-16T11:09:49Z</time>
      </trkpt>
      <trkpt lat="28.7407330" lon="-17.8121200">
        <ele>1651.5</ele>
        <time>2020-11-16T11:09:50Z</time>
      </trkpt>
      <trkpt lat="28.7407330" lon="-17.8121200">
        <ele>1651.7</ele>
        <time>2020-11-16T11:09:51Z</time>
      </trkpt>
      <trkpt lat="28.7407680" lon="-17.8121220">
        <ele>1652.0</ele>
        <time>2020-11-16T11:09:52Z</time>
      </trkpt>
      <trkpt lat="28.7407670" lon="-17.8121220">
        <ele>1652.3</ele>
        <time>2020-11-16T11:09:53Z</time>
      </trkpt>
      <trkpt lat="28.7407670" lon="-17.8121220">
        <ele>1652.5</ele>
        <time>2020-11-16T11:09:54Z</time>
      </trkpt>
      <trkpt lat="28.7407750" lon="-17.8121200">
        <ele>1652.7</ele>
        <time>2020-11-16T11:09:55Z</time>
      </trkpt>
      <trkpt lat="28.7407750" lon="-17.8121200">
        <ele>1653.0</ele>
        <time>2020-11-16T11:09:56Z</time>
      </trkpt>
      <trkpt lat="28.7407700" lon="-17.8121080">
        <ele>1653.2</ele>
        <time>2020-11-16T11:09:57Z</time>
      </trkpt>
      <trkpt lat="28.7407700" lon="-17.8121080">
        <ele>1653.4</ele>
        <time>2020-11-16T11:09:58Z</time>
      </trkpt>
      <trkpt lat="28.7407700" lon="-17.8121080">
        <ele>1653.6</ele>
        <time>2020-11-16T11:10:06Z</time>
      </trkpt>
      <trkpt lat="28.7407700" lon="-17.8121080">
        <ele>1653.9</ele>
        <time>2020-11-16T11:10:07Z</time>
      </trkpt>
      <trkpt lat="28.7408170" lon="-17.8121030">
        <ele>1654.2</ele>
        <time>2020-11-16T11:10:08Z</time>
      </trkpt>
      <trkpt lat="28.7408170" lon="-17.8121030">
        <ele>1654.5</ele>
        <time>2020-11-16T11:10:09Z</time>
      </trkpt>
      <trkpt lat="28.7408300" lon="-17.8120970">
        <ele>1652.7</ele>
        <time>2020-11-16T11:10:10Z</time>
      </trkpt>
      <trkpt lat="28.7408380" lon="-17.8120930">
        <ele>1653.1</ele>
        <time>2020-11-16T11:10:11Z</time>
      </trkpt>
      <trkpt lat="28.7408380" lon="-17.8120930">
        <ele>1653.4</ele>
        <time>2020-11-16T11:10:12Z</time>
      </trkpt>
      <trkpt lat="28.7408570" lon="-17.8120850">
        <ele>1653.6</ele>
        <time>2020-11-16T11:10:13Z</time>
      </trkpt>
      <trkpt lat="28.7408700" lon="-17.8120750">
        <ele>1653.5</ele>
        <time>2020-11-16T11:10:14Z</time>
      </trkpt>
      <trkpt lat="28.7408700" lon="-17.8120750">
        <ele>1653.5</ele>
        <time>2020-11-16T11:10:15Z</time>
      </trkpt>
      <trkpt lat="28.7408930" lon="-17.8120630">
        <ele>1653.3</ele>
        <time>2020-11-16T11:10:16Z</time>
      </trkpt>
      <trkpt lat="28.7409030" lon="-17.8120600">
        <ele>1653.2</ele>
        <time>2020-11-16T11:10:17Z</time>
      </trkpt>
      <trkpt lat="28.7409030" lon="-17.8120600">
        <ele>1653.2</ele>
        <time>2020-11-16T11:10:18Z</time>
      </trkpt>
      <trkpt lat="28.7409250" lon="-17.8120530">
        <ele>1653.0</ele>
        <time>2020-11-16T11:10:19Z</time>
      </trkpt>
      <trkpt lat="28.7409350" lon="-17.8120470">
        <ele>1652.9</ele>
        <time>2020-11-16T11:10:20Z</time>
      </trkpt>
      <trkpt lat="28.7409350" lon="-17.8120470">
        <ele>1652.9</ele>
        <time>2020-11-16T11:10:21Z</time>
      </trkpt>
      <trkpt lat="28.7409520" lon="-17.8120370">
        <ele>1652.8</ele>
        <time>2020-11-16T11:10:22Z</time>
      </trkpt>
      <trkpt lat="28.7409520" lon="-17.8120370">
        <ele>1652.8</ele>
        <time>2020-11-16T11:10:23Z</time>
      </trkpt>
      <trkpt lat="28.7409750" lon="-17.8120230">
        <ele>1652.6</ele>
        <time>2020-11-16T11:10:24Z</time>
      </trkpt>
      <trkpt lat="28.7409750" lon="-17.8120230">
        <ele>1652.6</ele>
        <time>2020-11-16T11:10:25Z</time>
      </trkpt>
      <trkpt lat="28.7409900" lon="-17.8120000">
        <ele>1652.4</ele>
        <time>2020-11-16T11:10:26Z</time>
      </trkpt>
      <trkpt lat="28.7409900" lon="-17.8120000">
        <ele>1652.4</ele>
        <time>2020-11-16T11:10:27Z</time>
      </trkpt>
      <trkpt lat="28.7410080" lon="-17.8119820">
        <ele>1652.2</ele>
        <time>2020-11-16T11:10:28Z</time>
      </trkpt>
      <trkpt lat="28.7410200" lon="-17.8119750">
        <ele>1652.1</ele>
        <time>2020-11-16T11:10:29Z</time>
      </trkpt>
      <trkpt lat="28.7410200" lon="-17.8119750">
        <ele>1652.1</ele>
        <time>2020-11-16T11:10:30Z</time>
      </trkpt>
      <trkpt lat="28.7410350" lon="-17.8119550">
        <ele>1652.0</ele>
        <time>2020-11-16T11:10:31Z</time>
      </trkpt>
      <trkpt lat="28.7410470" lon="-17.8119520">
        <ele>1651.9</ele>
        <time>2020-11-16T11:10:32Z</time>
      </trkpt>
      <trkpt lat="28.7410470" lon="-17.8119520">
        <ele>1651.9</ele>
        <time>2020-11-16T11:10:33Z</time>
      </trkpt>
      <trkpt lat="28.7410730" lon="-17.8119370">
        <ele>1651.7</ele>
        <time>2020-11-16T11:10:34Z</time>
      </trkpt>
      <trkpt lat="28.7410730" lon="-17.8119370">
        <ele>1651.7</ele>
        <time>2020-11-16T11:10:35Z</time>
      </trkpt>
      <trkpt lat="28.7411020" lon="-17.8119320">
        <ele>1651.5</ele>
        <time>2020-11-16T11:10:36Z</time>
      </trkpt>
      <trkpt lat="28.7411020" lon="-17.8119320">
        <ele>1651.5</ele>
        <time>2020-11-16T11:10:37Z</time>
      </trkpt>
      <trkpt lat="28.7411130" lon="-17.8119230">
        <ele>1651.4</ele>
        <time>2020-11-16T11:10:38Z</time>
      </trkpt>
      <trkpt lat="28.7411130" lon="-17.8119230">
        <ele>1651.4</ele>
        <time>2020-11-16T11:10:39Z</time>
      </trkpt>
      <trkpt lat="28.7411270" lon="-17.8119100">
        <ele>1651.2</ele>
        <time>2020-11-16T11:10:40Z</time>
      </trkpt>
      <trkpt lat="28.7411270" lon="-17.8119100">
        <ele>1651.2</ele>
        <time>2020-11-16T11:10:41Z</time>
      </trkpt>
      <trkpt lat="28.7411450" lon="-17.8119020">
        <ele>1651.1</ele>
        <time>2020-11-16T11:10:42Z</time>
      </trkpt>
      <trkpt lat="28.7411580" lon="-17.8119000">
        <ele>1651.0</ele>
        <time>2020-11-16T11:10:43Z</time>
      </trkpt>
      <trkpt lat="28.7411580" lon="-17.8119000">
        <ele>1651.0</ele>
        <time>2020-11-16T11:10:44Z</time>
      </trkpt>
      <trkpt lat="28.7411820" lon="-17.8118880">
        <ele>1650.8</ele>
        <time>2020-11-16T11:10:45Z</time>
      </trkpt>
      <trkpt lat="28.7411820" lon="-17.8118880">
        <ele>1650.8</ele>
        <time>2020-11-16T11:10:46Z</time>
      </trkpt>
      <trkpt lat="28.7412000" lon="-17.8118750">
        <ele>1650.6</ele>
        <time>2020-11-16T11:10:47Z</time>
      </trkpt>
      <trkpt lat="28.7412120" lon="-17.8118730">
        <ele>1650.5</ele>
        <time>2020-11-16T11:10:48Z</time>
      </trkpt>
      <trkpt lat="28.7412230" lon="-17.8118700">
        <ele>1650.5</ele>
        <time>2020-11-16T11:10:49Z</time>
      </trkpt>
      <trkpt lat="28.7412330" lon="-17.8118650">
        <ele>1650.4</ele>
        <time>2020-11-16T11:10:50Z</time>
      </trkpt>
      <trkpt lat="28.7412330" lon="-17.8118650">
        <ele>1650.4</ele>
        <time>2020-11-16T11:10:51Z</time>
      </trkpt>
      <trkpt lat="28.7412520" lon="-17.8118630">
        <ele>1650.2</ele>
        <time>2020-11-16T11:10:52Z</time>
      </trkpt>
      <trkpt lat="28.7412600" lon="-17.8118580">
        <ele>1650.2</ele>
        <time>2020-11-16T11:10:53Z</time>
      </trkpt>
      <trkpt lat="28.7412600" lon="-17.8118580">
        <ele>1650.2</ele>
        <time>2020-11-16T11:10:54Z</time>
      </trkpt>
      <trkpt lat="28.7412880" lon="-17.8118770">
        <ele>1649.9</ele>
        <time>2020-11-16T11:10:55Z</time>
      </trkpt>
      <trkpt lat="28.7412980" lon="-17.8118800">
        <ele>1649.8</ele>
        <time>2020-11-16T11:10:56Z</time>
      </trkpt>
      <trkpt lat="28.7412980" lon="-17.8118800">
        <ele>1649.8</ele>
        <time>2020-11-16T11:10:57Z</time>
      </trkpt>
      <trkpt lat="28.7413180" lon="-17.8118550">
        <ele>1649.6</ele>
        <time>2020-11-16T11:10:58Z</time>
      </trkpt>
      <trkpt lat="28.7413270" lon="-17.8118450">
        <ele>1649.5</ele>
        <time>2020-11-16T11:10:59Z</time>
      </trkpt>
      <trkpt lat="28.7413270" lon="-17.8118450">
        <ele>1649.5</ele>
        <time>2020-11-16T11:11:00Z</time>
      </trkpt>
      <trkpt lat="28.7413450" lon="-17.8118280">
        <ele>1649.4</ele>
        <time>2020-11-16T11:11:01Z</time>
      </trkpt>
      <trkpt lat="28.7413520" lon="-17.8118200">
        <ele>1649.3</ele>
        <time>2020-11-16T11:11:02Z</time>
      </trkpt>
      <trkpt lat="28.7413520" lon="-17.8118200">
        <ele>1649.3</ele>
        <time>2020-11-16T11:11:03Z</time>
      </trkpt>
      <trkpt lat="28.7413650" lon="-17.8118070">
        <ele>1649.2</ele>
        <time>2020-11-16T11:11:04Z</time>
      </trkpt>
      <trkpt lat="28.7413730" lon="-17.8118050">
        <ele>1649.1</ele>
        <time>2020-11-16T11:11:05Z</time>
      </trkpt>
      <trkpt lat="28.7413730" lon="-17.8118050">
        <ele>1649.1</ele>
        <time>2020-11-16T11:11:06Z</time>
      </trkpt>
      <trkpt lat="28.7413920" lon="-17.8118000">
        <ele>1649.0</ele>
        <time>2020-11-16T11:11:07Z</time>
      </trkpt>
      <trkpt lat="28.7414070" lon="-17.8118070">
        <ele>1648.8</ele>
        <time>2020-11-16T11:11:08Z</time>
      </trkpt>
      <trkpt lat="28.7414070" lon="-17.8118070">
        <ele>1648.8</ele>
        <time>2020-11-16T11:11:09Z</time>
      </trkpt>
      <trkpt lat="28.7414330" lon="-17.8118180">
        <ele>1648.6</ele>
        <time>2020-11-16T11:11:10Z</time>
      </trkpt>
      <trkpt lat="28.7414430" lon="-17.8118250">
        <ele>1648.5</ele>
        <time>2020-11-16T11:11:11Z</time>
      </trkpt>
      <trkpt lat="28.7414600" lon="-17.8118380">
        <ele>1648.4</ele>
        <time>2020-11-16T11:11:12Z</time>
      </trkpt>
      <trkpt lat="28.7414600" lon="-17.8118380">
        <ele>1648.4</ele>
        <time>2020-11-16T11:11:13Z</time>
      </trkpt>
      <trkpt lat="28.7414830" lon="-17.8118580">
        <ele>1648.2</ele>
        <time>2020-11-16T11:11:14Z</time>
      </trkpt>
      <trkpt lat="28.7414830" lon="-17.8118580">
        <ele>1648.2</ele>
        <time>2020-11-16T11:11:15Z</time>
      </trkpt>
      <trkpt lat="28.7414970" lon="-17.8118730">
        <ele>1648.0</ele>
        <time>2020-11-16T11:11:16Z</time>
      </trkpt>
      <trkpt lat="28.7415020" lon="-17.8118800">
        <ele>1648.1</ele>
        <time>2020-11-16T11:11:17Z</time>
      </trkpt>
      <trkpt lat="28.7415020" lon="-17.8118800">
        <ele>1648.1</ele>
        <time>2020-11-16T11:11:18Z</time>
      </trkpt>
      <trkpt lat="28.7415150" lon="-17.8119020">
        <ele>1648.3</ele>
        <time>2020-11-16T11:11:19Z</time>
      </trkpt>
      <trkpt lat="28.7415150" lon="-17.8119020">
        <ele>1648.3</ele>
        <time>2020-11-16T11:11:20Z</time>
      </trkpt>
      <trkpt lat="28.7415200" lon="-17.8119270">
        <ele>1648.4</ele>
        <time>2020-11-16T11:11:21Z</time>
      </trkpt>
      <trkpt lat="28.7415200" lon="-17.8119270">
        <ele>1648.4</ele>
        <time>2020-11-16T11:11:22Z</time>
      </trkpt>
      <trkpt lat="28.7415220" lon="-17.8119520">
        <ele>1648.6</ele>
        <time>2020-11-16T11:11:23Z</time>
      </trkpt>
      <trkpt lat="28.7415220" lon="-17.8119520">
        <ele>1648.6</ele>
        <time>2020-11-16T11:11:24Z</time>
      </trkpt>
      <trkpt lat="28.7415120" lon="-17.8119650">
        <ele>1648.7</ele>
        <time>2020-11-16T11:11:25Z</time>
      </trkpt>
      <trkpt lat="28.7415050" lon="-17.8119720">
        <ele>1648.8</ele>
        <time>2020-11-16T11:11:26Z</time>
      </trkpt>
      <trkpt lat="28.7415050" lon="-17.8119720">
        <ele>1648.8</ele>
        <time>2020-11-16T11:11:27Z</time>
      </trkpt>
      <trkpt lat="28.7414900" lon="-17.8119780">
        <ele>1648.9</ele>
        <time>2020-11-16T11:11:28Z</time>
      </trkpt>
      <trkpt lat="28.7414900" lon="-17.8119780">
        <ele>1648.9</ele>
        <time>2020-11-16T11:11:29Z</time>
      </trkpt>
      <trkpt lat="28.7414880" lon="-17.8119770">
        <ele>1648.9</ele>
        <time>2020-11-16T11:11:30Z</time>
      </trkpt>
      <trkpt lat="28.7414830" lon="-17.8119780">
        <ele>1648.9</ele>
        <time>2020-11-16T11:11:31Z</time>
      </trkpt>
      <trkpt lat="28.7414770" lon="-17.8119780">
        <ele>1649.0</ele>
        <time>2020-11-16T11:11:32Z</time>
      </trkpt>
      <trkpt lat="28.7414770" lon="-17.8119780">
        <ele>1649.0</ele>
        <time>2020-11-16T11:11:33Z</time>
      </trkpt>
      <trkpt lat="28.7414780" lon="-17.8119770">
        <ele>1649.0</ele>
        <time>2020-11-16T11:11:34Z</time>
      </trkpt>
      <trkpt lat="28.7414780" lon="-17.8119720">
        <ele>1649.0</ele>
        <time>2020-11-16T11:11:35Z</time>
      </trkpt>
      <trkpt lat="28.7414780" lon="-17.8119720">
        <ele>1649.0</ele>
        <time>2020-11-16T11:11:36Z</time>
      </trkpt>
      <trkpt lat="28.7414750" lon="-17.8119600">
        <ele>1649.1</ele>
        <time>2020-11-16T11:11:37Z</time>
      </trkpt>
      <trkpt lat="28.7414750" lon="-17.8119580">
        <ele>1649.1</ele>
        <time>2020-11-16T11:11:38Z</time>
      </trkpt>
      <trkpt lat="28.7414750" lon="-17.8119580">
        <ele>1649.1</ele>
        <time>2020-11-16T11:11:39Z</time>
      </trkpt>
      <trkpt lat="28.7414750" lon="-17.8119620">
        <ele>1649.1</ele>
        <time>2020-11-16T11:11:40Z</time>
      </trkpt>
      <trkpt lat="28.7414750" lon="-17.8119620">
        <ele>1649.1</ele>
        <time>2020-11-16T11:11:47Z</time>
      </trkpt>
      <trkpt lat="28.7414450" lon="-17.8119570">
        <ele>1649.3</ele>
        <time>2020-11-16T11:11:48Z</time>
      </trkpt>
      <trkpt lat="28.7414370" lon="-17.8119530">
        <ele>1649.4</ele>
        <time>2020-11-16T11:11:49Z</time>
      </trkpt>
      <trkpt lat="28.7414370" lon="-17.8119530">
        <ele>1649.4</ele>
        <time>2020-11-16T11:11:50Z</time>
      </trkpt>
      <trkpt lat="28.7414150" lon="-17.8119470">
        <ele>1649.6</ele>
        <time>2020-11-16T11:11:51Z</time>
      </trkpt>
      <trkpt lat="28.7414150" lon="-17.8119470">
        <ele>1649.6</ele>
        <time>2020-11-16T11:11:52Z</time>
      </trkpt>
      <trkpt lat="28.7413930" lon="-17.8119450">
        <ele>1649.7</ele>
        <time>2020-11-16T11:11:53Z</time>
      </trkpt>
      <trkpt lat="28.7413870" lon="-17.8119470">
        <ele>1649.8</ele>
        <time>2020-11-16T11:11:54Z</time>
      </trkpt>
      <trkpt lat="28.7413870" lon="-17.8119470">
        <ele>1649.8</ele>
        <time>2020-11-16T11:11:55Z</time>
      </trkpt>
      <trkpt lat="28.7413680" lon="-17.8119630">
        <ele>1650.0</ele>
        <time>2020-11-16T11:11:56Z</time>
      </trkpt>
      <trkpt lat="28.7413680" lon="-17.8119630">
        <ele>1650.0</ele>
        <time>2020-11-16T11:11:57Z</time>
      </trkpt>
      <trkpt lat="28.7413370" lon="-17.8119920">
        <ele>1650.2</ele>
        <time>2020-11-16T11:11:58Z</time>
      </trkpt>
      <trkpt lat="28.7413370" lon="-17.8119920">
        <ele>1650.2</ele>
        <time>2020-11-16T11:11:59Z</time>
      </trkpt>
      <trkpt lat="28.7413050" lon="-17.8120070">
        <ele>1650.5</ele>
        <time>2020-11-16T11:12:00Z</time>
      </trkpt>
      <trkpt lat="28.7413050" lon="-17.8120070">
        <ele>1650.5</ele>
        <time>2020-11-16T11:12:01Z</time>
      </trkpt>
      <trkpt lat="28.7412380" lon="-17.8120230">
        <ele>1651.0</ele>
        <time>2020-11-16T11:12:02Z</time>
      </trkpt>
      <trkpt lat="28.7412200" lon="-17.8120250">
        <ele>1651.1</ele>
        <time>2020-11-16T11:12:03Z</time>
      </trkpt>
      <trkpt lat="28.7412200" lon="-17.8120250">
        <ele>1651.1</ele>
        <time>2020-11-16T11:12:04Z</time>
      </trkpt>
      <trkpt lat="28.7411850" lon="-17.8120070">
        <ele>1651.4</ele>
        <time>2020-11-16T11:12:05Z</time>
      </trkpt>
      <trkpt lat="28.7411850" lon="-17.8120070">
        <ele>1651.4</ele>
        <time>2020-11-16T11:12:06Z</time>
      </trkpt>
      <trkpt lat="28.7411670" lon="-17.8119870">
        <ele>1651.6</ele>
        <time>2020-11-16T11:12:07Z</time>
      </trkpt>
      <trkpt lat="28.7411670" lon="-17.8119870">
        <ele>1651.6</ele>
        <time>2020-11-16T11:12:08Z</time>
      </trkpt>
      <trkpt lat="28.7411480" lon="-17.8119880">
        <ele>1651.7</ele>
        <time>2020-11-16T11:12:09Z</time>
      </trkpt>
      <trkpt lat="28.7411480" lon="-17.8119880">
        <ele>1651.7</ele>
        <time>2020-11-16T11:12:10Z</time>
      </trkpt>
      <trkpt lat="28.7411180" lon="-17.8119920">
        <ele>1651.9</ele>
        <time>2020-11-16T11:12:11Z</time>
      </trkpt>
      <trkpt lat="28.7411180" lon="-17.8119920">
        <ele>1651.9</ele>
        <time>2020-11-16T11:12:12Z</time>
      </trkpt>
      <trkpt lat="28.7410900" lon="-17.8119980">
        <ele>1652.2</ele>
        <time>2020-11-16T11:12:13Z</time>
      </trkpt>
      <trkpt lat="28.7410780" lon="-17.8120020">
        <ele>1652.2</ele>
        <time>2020-11-16T11:12:14Z</time>
      </trkpt>
      <trkpt lat="28.7410780" lon="-17.8120020">
        <ele>1652.2</ele>
        <time>2020-11-16T11:12:15Z</time>
      </trkpt>
      <trkpt lat="28.7410580" lon="-17.8120050">
        <ele>1652.4</ele>
        <time>2020-11-16T11:12:16Z</time>
      </trkpt>
      <trkpt lat="28.7410580" lon="-17.8120050">
        <ele>1652.4</ele>
        <time>2020-11-16T11:12:17Z</time>
      </trkpt>
      <trkpt lat="28.7410430" lon="-17.8120130">
        <ele>1652.5</ele>
        <time>2020-11-16T11:12:18Z</time>
      </trkpt>
      <trkpt lat="28.7410350" lon="-17.8120230">
        <ele>1652.6</ele>
        <time>2020-11-16T11:12:19Z</time>
      </trkpt>
      <trkpt lat="28.7410350" lon="-17.8120230">
        <ele>1652.6</ele>
        <time>2020-11-16T11:12:20Z</time>
      </trkpt>
      <trkpt lat="28.7410200" lon="-17.8120370">
        <ele>1652.7</ele>
        <time>2020-11-16T11:12:21Z</time>
      </trkpt>
      <trkpt lat="28.7410130" lon="-17.8120430">
        <ele>1652.8</ele>
        <time>2020-11-16T11:12:22Z</time>
      </trkpt>
      <trkpt lat="28.7410130" lon="-17.8120430">
        <ele>1652.8</ele>
        <time>2020-11-16T11:12:23Z</time>
      </trkpt>
      <trkpt lat="28.7410020" lon="-17.8120480">
        <ele>1652.9</ele>
        <time>2020-11-16T11:12:24Z</time>
      </trkpt>
      <trkpt lat="28.7409950" lon="-17.8120520">
        <ele>1652.9</ele>
        <time>2020-11-16T11:12:25Z</time>
      </trkpt>
      <trkpt lat="28.7409950" lon="-17.8120520">
        <ele>1652.9</ele>
        <time>2020-11-16T11:12:26Z</time>
      </trkpt>
      <trkpt lat="28.7409850" lon="-17.8120530">
        <ele>1653.0</ele>
        <time>2020-11-16T11:12:27Z</time>
      </trkpt>
      <trkpt lat="28.7409850" lon="-17.8120530">
        <ele>1653.0</ele>
        <time>2020-11-16T11:12:28Z</time>
      </trkpt>
      <trkpt lat="28.7409720" lon="-17.8120720">
        <ele>1653.2</ele>
        <time>2020-11-16T11:12:29Z</time>
      </trkpt>
      <trkpt lat="28.7409720" lon="-17.8120720">
        <ele>1653.2</ele>
        <time>2020-11-16T11:12:30Z</time>
      </trkpt>
      <trkpt lat="28.7409630" lon="-17.8120980">
        <ele>1653.4</ele>
        <time>2020-11-16T11:12:31Z</time>
      </trkpt>
      <trkpt lat="28.7409630" lon="-17.8120980">
        <ele>1653.4</ele>
        <time>2020-11-16T11:12:32Z</time>
      </trkpt>
      <trkpt lat="28.7409570" lon="-17.8121520">
        <ele>1653.7</ele>
        <time>2020-11-16T11:12:33Z</time>
      </trkpt>
      <trkpt lat="28.7409570" lon="-17.8121520">
        <ele>1653.7</ele>
        <time>2020-11-16T11:12:34Z</time>
      </trkpt>
      <trkpt lat="28.7409450" lon="-17.8121880">
        <ele>1653.9</ele>
        <time>2020-11-16T11:12:35Z</time>
      </trkpt>
      <trkpt lat="28.7409450" lon="-17.8121880">
        <ele>1653.9</ele>
        <time>2020-11-16T11:12:36Z</time>
      </trkpt>
      <trkpt lat="28.7409320" lon="-17.8122080">
        <ele>1654.1</ele>
        <time>2020-11-16T11:12:37Z</time>
      </trkpt>
      <trkpt lat="28.7409320" lon="-17.8122080">
        <ele>1654.1</ele>
        <time>2020-11-16T11:12:38Z</time>
      </trkpt>
      <trkpt lat="28.7409150" lon="-17.8122320">
        <ele>1654.3</ele>
        <time>2020-11-16T11:12:39Z</time>
      </trkpt>
      <trkpt lat="28.7409150" lon="-17.8122320">
        <ele>1654.3</ele>
        <time>2020-11-16T11:12:40Z</time>
      </trkpt>
      <trkpt lat="28.7408980" lon="-17.8122670">
        <ele>1654.6</ele>
        <time>2020-11-16T11:12:41Z</time>
      </trkpt>
      <trkpt lat="28.7408980" lon="-17.8122670">
        <ele>1654.6</ele>
        <time>2020-11-16T11:12:42Z</time>
      </trkpt>
      <trkpt lat="28.7408870" lon="-17.8122900">
        <ele>1654.7</ele>
        <time>2020-11-16T11:12:43Z</time>
      </trkpt>
      <trkpt lat="28.7408820" lon="-17.8123020">
        <ele>1654.8</ele>
        <time>2020-11-16T11:12:44Z</time>
      </trkpt>
      <trkpt lat="28.7408780" lon="-17.8123080">
        <ele>1654.9</ele>
        <time>2020-11-16T11:12:45Z</time>
      </trkpt>
      <trkpt lat="28.7408780" lon="-17.8123080">
        <ele>1654.9</ele>
        <time>2020-11-16T11:12:46Z</time>
      </trkpt>
      <trkpt lat="28.7408650" lon="-17.8123280">
        <ele>1655.0</ele>
        <time>2020-11-16T11:12:47Z</time>
      </trkpt>
      <trkpt lat="28.7408650" lon="-17.8123280">
        <ele>1655.0</ele>
        <time>2020-11-16T11:12:48Z</time>
      </trkpt>
      <trkpt lat="28.7408520" lon="-17.8123670">
        <ele>1655.3</ele>
        <time>2020-11-16T11:12:49Z</time>
      </trkpt>
      <trkpt lat="28.7408520" lon="-17.8123670">
        <ele>1655.3</ele>
        <time>2020-11-16T11:12:50Z</time>
      </trkpt>
      <trkpt lat="28.7408400" lon="-17.8124000">
        <ele>1655.5</ele>
        <time>2020-11-16T11:12:51Z</time>
      </trkpt>
      <trkpt lat="28.7408400" lon="-17.8124000">
        <ele>1655.5</ele>
        <time>2020-11-16T11:12:52Z</time>
      </trkpt>
      <trkpt lat="28.7408300" lon="-17.8124230">
        <ele>1655.7</ele>
        <time>2020-11-16T11:12:53Z</time>
      </trkpt>
      <trkpt lat="28.7408300" lon="-17.8124230">
        <ele>1655.7</ele>
        <time>2020-11-16T11:12:54Z</time>
      </trkpt>
      <trkpt lat="28.7408200" lon="-17.8124470">
        <ele>1655.8</ele>
        <time>2020-11-16T11:12:55Z</time>
      </trkpt>
      <trkpt lat="28.7408200" lon="-17.8124470">
        <ele>1655.8</ele>
        <time>2020-11-16T11:12:56Z</time>
      </trkpt>
      <trkpt lat="28.7408020" lon="-17.8124570">
        <ele>1656.0</ele>
        <time>2020-11-16T11:12:57Z</time>
      </trkpt>
      <trkpt lat="28.7408020" lon="-17.8124570">
        <ele>1656.0</ele>
        <time>2020-11-16T11:12:58Z</time>
      </trkpt>
      <trkpt lat="28.7407900" lon="-17.8124750">
        <ele>1656.1</ele>
        <time>2020-11-16T11:12:59Z</time>
      </trkpt>
      <trkpt lat="28.7407900" lon="-17.8124750">
        <ele>1656.1</ele>
        <time>2020-11-16T11:13:00Z</time>
      </trkpt>
      <trkpt lat="28.7407780" lon="-17.8124920">
        <ele>1656.3</ele>
        <time>2020-11-16T11:13:01Z</time>
      </trkpt>
      <trkpt lat="28.7407730" lon="-17.8124930">
        <ele>1656.3</ele>
        <time>2020-11-16T11:13:02Z</time>
      </trkpt>
      <trkpt lat="28.7407730" lon="-17.8124930">
        <ele>1656.3</ele>
        <time>2020-11-16T11:13:03Z</time>
      </trkpt>
      <trkpt lat="28.7407600" lon="-17.8125180">
        <ele>1656.5</ele>
        <time>2020-11-16T11:13:04Z</time>
      </trkpt>
      <trkpt lat="28.7407550" lon="-17.8125250">
        <ele>1656.5</ele>
        <time>2020-11-16T11:13:05Z</time>
      </trkpt>
      <trkpt lat="28.7407550" lon="-17.8125250">
        <ele>1656.5</ele>
        <time>2020-11-16T11:13:06Z</time>
      </trkpt>
      <trkpt lat="28.7407470" lon="-17.8125350">
        <ele>1656.6</ele>
        <time>2020-11-16T11:13:07Z</time>
      </trkpt>
      <trkpt lat="28.7407470" lon="-17.8125350">
        <ele>1656.6</ele>
        <time>2020-11-16T11:13:08Z</time>
      </trkpt>
      <trkpt lat="28.7407320" lon="-17.8125430">
        <ele>1656.8</ele>
        <time>2020-11-16T11:13:09Z</time>
      </trkpt>
      <trkpt lat="28.7407280" lon="-17.8125480">
        <ele>1656.8</ele>
        <time>2020-11-16T11:13:10Z</time>
      </trkpt>
      <trkpt lat="28.7407200" lon="-17.8125520">
        <ele>1656.9</ele>
        <time>2020-11-16T11:13:11Z</time>
      </trkpt>
      <trkpt lat="28.7407200" lon="-17.8125520">
        <ele>1656.9</ele>
        <time>2020-11-16T11:13:12Z</time>
      </trkpt>
      <trkpt lat="28.7407030" lon="-17.8125630">
        <ele>1657.0</ele>
        <time>2020-11-16T11:13:13Z</time>
      </trkpt>
      <trkpt lat="28.7407030" lon="-17.8125630">
        <ele>1657.0</ele>
        <time>2020-11-16T11:13:14Z</time>
      </trkpt>
      <trkpt lat="28.7406900" lon="-17.8125750">
        <ele>1657.1</ele>
        <time>2020-11-16T11:13:15Z</time>
      </trkpt>
      <trkpt lat="28.7406900" lon="-17.8125750">
        <ele>1657.1</ele>
        <time>2020-11-16T11:13:16Z</time>
      </trkpt>
      <trkpt lat="28.7406800" lon="-17.8125830">
        <ele>1657.2</ele>
        <time>2020-11-16T11:13:17Z</time>
      </trkpt>
      <trkpt lat="28.7406720" lon="-17.8125870">
        <ele>1657.3</ele>
        <time>2020-11-16T11:13:18Z</time>
      </trkpt>
      <trkpt lat="28.7406570" lon="-17.8126020">
        <ele>1657.4</ele>
        <time>2020-11-16T11:13:19Z</time>
      </trkpt>
      <trkpt lat="28.7406520" lon="-17.8126020">
        <ele>1657.5</ele>
        <time>2020-11-16T11:13:20Z</time>
      </trkpt>
      <trkpt lat="28.7406520" lon="-17.8126020">
        <ele>1657.5</ele>
        <time>2020-11-16T11:13:21Z</time>
      </trkpt>
      <trkpt lat="28.7406280" lon="-17.8126100">
        <ele>1657.6</ele>
        <time>2020-11-16T11:13:22Z</time>
      </trkpt>
      <trkpt lat="28.7406200" lon="-17.8126120">
        <ele>1657.7</ele>
        <time>2020-11-16T11:13:23Z</time>
      </trkpt>
      <trkpt lat="28.7406200" lon="-17.8126120">
        <ele>1657.7</ele>
        <time>2020-11-16T11:13:24Z</time>
      </trkpt>
      <trkpt lat="28.7405870" lon="-17.8126170">
        <ele>1657.9</ele>
        <time>2020-11-16T11:13:25Z</time>
      </trkpt>
      <trkpt lat="28.7405680" lon="-17.8126130">
        <ele>1658.1</ele>
        <time>2020-11-16T11:13:26Z</time>
      </trkpt>
      <trkpt lat="28.7405450" lon="-17.8126400">
        <ele>1658.3</ele>
        <time>2020-11-16T11:13:27Z</time>
      </trkpt>
      <trkpt lat="28.7405450" lon="-17.8126400">
        <ele>1658.3</ele>
        <time>2020-11-16T11:13:28Z</time>
      </trkpt>
      <trkpt lat="28.7405200" lon="-17.8126400">
        <ele>1658.5</ele>
        <time>2020-11-16T11:13:29Z</time>
      </trkpt>
      <trkpt lat="28.7405200" lon="-17.8126400">
        <ele>1658.5</ele>
        <time>2020-11-16T11:13:30Z</time>
      </trkpt>
      <trkpt lat="28.7404880" lon="-17.8126350">
        <ele>1658.7</ele>
        <time>2020-11-16T11:13:31Z</time>
      </trkpt>
      <trkpt lat="28.7404880" lon="-17.8126350">
        <ele>1658.7</ele>
        <time>2020-11-16T11:13:32Z</time>
      </trkpt>
      <trkpt lat="28.7404720" lon="-17.8126150">
        <ele>1658.9</ele>
        <time>2020-11-16T11:13:33Z</time>
      </trkpt>
      <trkpt lat="28.7404720" lon="-17.8126150">
        <ele>1658.9</ele>
        <time>2020-11-16T11:13:34Z</time>
      </trkpt>
      <trkpt lat="28.7404530" lon="-17.8125920">
        <ele>1659.1</ele>
        <time>2020-11-16T11:13:35Z</time>
      </trkpt>
      <trkpt lat="28.7404530" lon="-17.8125920">
        <ele>1659.1</ele>
        <time>2020-11-16T11:13:36Z</time>
      </trkpt>
      <trkpt lat="28.7404350" lon="-17.8125700">
        <ele>1659.3</ele>
        <time>2020-11-16T11:13:37Z</time>
      </trkpt>
      <trkpt lat="28.7404330" lon="-17.8125570">
        <ele>1659.4</ele>
        <time>2020-11-16T11:13:38Z</time>
      </trkpt>
      <trkpt lat="28.7404330" lon="-17.8125570">
        <ele>1659.4</ele>
        <time>2020-11-16T11:13:39Z</time>
      </trkpt>
      <trkpt lat="28.7404050" lon="-17.8125430">
        <ele>1659.6</ele>
        <time>2020-11-16T11:13:40Z</time>
      </trkpt>
      <trkpt lat="28.7403980" lon="-17.8125350">
        <ele>1659.7</ele>
        <time>2020-11-16T11:13:41Z</time>
      </trkpt>
      <trkpt lat="28.7403980" lon="-17.8125350">
        <ele>1659.7</ele>
        <time>2020-11-16T11:13:42Z</time>
      </trkpt>
      <trkpt lat="28.7403900" lon="-17.8125250">
        <ele>1659.8</ele>
        <time>2020-11-16T11:13:43Z</time>
      </trkpt>
      <trkpt lat="28.7403850" lon="-17.8125200">
        <ele>1659.8</ele>
        <time>2020-11-16T11:13:44Z</time>
      </trkpt>
      <trkpt lat="28.7403850" lon="-17.8125200">
        <ele>1659.8</ele>
        <time>2020-11-16T11:13:45Z</time>
      </trkpt>
      <trkpt lat="28.7403780" lon="-17.8125200">
        <ele>1659.9</ele>
        <time>2020-11-16T11:13:46Z</time>
      </trkpt>
      <trkpt lat="28.7403780" lon="-17.8125200">
        <ele>1659.9</ele>
        <time>2020-11-16T11:13:47Z</time>
      </trkpt>
      <trkpt lat="28.7403670" lon="-17.8125050">
        <ele>1660.0</ele>
        <time>2020-11-16T11:13:48Z</time>
      </trkpt>
      <trkpt lat="28.7403600" lon="-17.8125050">
        <ele>1660.0</ele>
        <time>2020-11-16T11:13:49Z</time>
      </trkpt>
      <trkpt lat="28.7403550" lon="-17.8124930">
        <ele>1660.1</ele>
        <time>2020-11-16T11:13:50Z</time>
      </trkpt>
      <trkpt lat="28.7403550" lon="-17.8124930">
        <ele>1660.1</ele>
        <time>2020-11-16T11:13:51Z</time>
      </trkpt>
      <trkpt lat="28.7403420" lon="-17.8124820">
        <ele>1660.2</ele>
        <time>2020-11-16T11:13:52Z</time>
      </trkpt>
      <trkpt lat="28.7403420" lon="-17.8124820">
        <ele>1660.2</ele>
        <time>2020-11-16T11:13:53Z</time>
      </trkpt>
      <trkpt lat="28.7403270" lon="-17.8124650">
        <ele>1660.4</ele>
        <time>2020-11-16T11:13:54Z</time>
      </trkpt>
      <trkpt lat="28.7403270" lon="-17.8124650">
        <ele>1660.4</ele>
        <time>2020-11-16T11:13:55Z</time>
      </trkpt>
      <trkpt lat="28.7403180" lon="-17.8124420">
        <ele>1660.6</ele>
        <time>2020-11-16T11:13:56Z</time>
      </trkpt>
      <trkpt lat="28.7403180" lon="-17.8124420">
        <ele>1660.6</ele>
        <time>2020-11-16T11:13:57Z</time>
      </trkpt>
      <trkpt lat="28.7403050" lon="-17.8124080">
        <ele>1660.8</ele>
        <time>2020-11-16T11:13:58Z</time>
      </trkpt>
      <trkpt lat="28.7403050" lon="-17.8124080">
        <ele>1660.8</ele>
        <time>2020-11-16T11:13:59Z</time>
      </trkpt>
      <trkpt lat="28.7402970" lon="-17.8123880">
        <ele>1660.9</ele>
        <time>2020-11-16T11:14:00Z</time>
      </trkpt>
      <trkpt lat="28.7402900" lon="-17.8123820">
        <ele>1661.0</ele>
        <time>2020-11-16T11:14:01Z</time>
      </trkpt>
      <trkpt lat="28.7402900" lon="-17.8123820">
        <ele>1661.0</ele>
        <time>2020-11-16T11:14:02Z</time>
      </trkpt>
      <trkpt lat="28.7402830" lon="-17.8123730">
        <ele>1661.1</ele>
        <time>2020-11-16T11:14:03Z</time>
      </trkpt>
      <trkpt lat="28.7402780" lon="-17.8123670">
        <ele>1661.1</ele>
        <time>2020-11-16T11:14:04Z</time>
      </trkpt>
      <trkpt lat="28.7402780" lon="-17.8123670">
        <ele>1661.1</ele>
        <time>2020-11-16T11:14:05Z</time>
      </trkpt>
      <trkpt lat="28.7402700" lon="-17.8123580">
        <ele>1661.2</ele>
        <time>2020-11-16T11:14:06Z</time>
      </trkpt>
      <trkpt lat="28.7402630" lon="-17.8123500">
        <ele>1661.3</ele>
        <time>2020-11-16T11:14:07Z</time>
      </trkpt>
      <trkpt lat="28.7402600" lon="-17.8123430">
        <ele>1661.3</ele>
        <time>2020-11-16T11:14:08Z</time>
      </trkpt>
      <trkpt lat="28.7402600" lon="-17.8123430">
        <ele>1661.3</ele>
        <time>2020-11-16T11:14:09Z</time>
      </trkpt>
      <trkpt lat="28.7402500" lon="-17.8123230">
        <ele>1661.5</ele>
        <time>2020-11-16T11:14:10Z</time>
      </trkpt>
      <trkpt lat="28.7402500" lon="-17.8123230">
        <ele>1661.5</ele>
        <time>2020-11-16T11:14:11Z</time>
      </trkpt>
      <trkpt lat="28.7402320" lon="-17.8122830">
        <ele>1661.8</ele>
        <time>2020-11-16T11:14:12Z</time>
      </trkpt>
      <trkpt lat="28.7402220" lon="-17.8122670">
        <ele>1661.9</ele>
        <time>2020-11-16T11:14:13Z</time>
      </trkpt>
      <trkpt lat="28.7402220" lon="-17.8122670">
        <ele>1661.9</ele>
        <time>2020-11-16T11:14:14Z</time>
      </trkpt>
      <trkpt lat="28.7402070" lon="-17.8122420">
        <ele>1662.1</ele>
        <time>2020-11-16T11:14:15Z</time>
      </trkpt>
      <trkpt lat="28.7402070" lon="-17.8122420">
        <ele>1662.1</ele>
        <time>2020-11-16T11:14:16Z</time>
      </trkpt>
      <trkpt lat="28.7401930" lon="-17.8122180">
        <ele>1662.3</ele>
        <time>2020-11-16T11:14:17Z</time>
      </trkpt>
      <trkpt lat="28.7401850" lon="-17.8121980">
        <ele>1662.4</ele>
        <time>2020-11-16T11:14:18Z</time>
      </trkpt>
      <trkpt lat="28.7401780" lon="-17.8121870">
        <ele>1662.5</ele>
        <time>2020-11-16T11:14:19Z</time>
      </trkpt>
      <trkpt lat="28.7401780" lon="-17.8121870">
        <ele>1662.5</ele>
        <time>2020-11-16T11:14:20Z</time>
      </trkpt>
      <trkpt lat="28.7401670" lon="-17.8121630">
        <ele>1662.7</ele>
        <time>2020-11-16T11:14:21Z</time>
      </trkpt>
      <trkpt lat="28.7401670" lon="-17.8121630">
        <ele>1662.7</ele>
        <time>2020-11-16T11:14:22Z</time>
      </trkpt>
      <trkpt lat="28.7401500" lon="-17.8121330">
        <ele>1662.9</ele>
        <time>2020-11-16T11:14:23Z</time>
      </trkpt>
      <trkpt lat="28.7401500" lon="-17.8121330">
        <ele>1662.9</ele>
        <time>2020-11-16T11:14:24Z</time>
      </trkpt>
      <trkpt lat="28.7401400" lon="-17.8121000">
        <ele>1663.1</ele>
        <time>2020-11-16T11:14:25Z</time>
      </trkpt>
      <trkpt lat="28.7401400" lon="-17.8121000">
        <ele>1663.1</ele>
        <time>2020-11-16T11:14:26Z</time>
      </trkpt>
      <trkpt lat="28.7401300" lon="-17.8120780">
        <ele>1663.3</ele>
        <time>2020-11-16T11:14:27Z</time>
      </trkpt>
      <trkpt lat="28.7401300" lon="-17.8120780">
        <ele>1663.3</ele>
        <time>2020-11-16T11:14:28Z</time>
      </trkpt>
      <trkpt lat="28.7401080" lon="-17.8120500">
        <ele>1663.5</ele>
        <time>2020-11-16T11:14:29Z</time>
      </trkpt>
      <trkpt lat="28.7401020" lon="-17.8120350">
        <ele>1663.6</ele>
        <time>2020-11-16T11:14:30Z</time>
      </trkpt>
      <trkpt lat="28.7401020" lon="-17.8120350">
        <ele>1663.6</ele>
        <time>2020-11-16T11:14:31Z</time>
      </trkpt>
      <trkpt lat="28.7400800" lon="-17.8120370">
        <ele>1663.8</ele>
        <time>2020-11-16T11:14:32Z</time>
      </trkpt>
      <trkpt lat="28.7400820" lon="-17.8120430">
        <ele>1663.8</ele>
        <time>2020-11-16T11:14:33Z</time>
      </trkpt>
      <trkpt lat="28.7400820" lon="-17.8120430">
        <ele>1663.8</ele>
        <time>2020-11-16T11:14:34Z</time>
      </trkpt>
      <trkpt lat="28.7400920" lon="-17.8120330">
        <ele>1663.9</ele>
        <time>2020-11-16T11:14:35Z</time>
      </trkpt>
      <trkpt lat="28.7400920" lon="-17.8120330">
        <ele>1663.9</ele>
        <time>2020-11-16T11:14:36Z</time>
      </trkpt>
      <trkpt lat="28.7400950" lon="-17.8120230">
        <ele>1664.0</ele>
        <time>2020-11-16T11:14:37Z</time>
      </trkpt>
      <trkpt lat="28.7400930" lon="-17.8120180">
        <ele>1664.0</ele>
        <time>2020-11-16T11:14:38Z</time>
      </trkpt>
      <trkpt lat="28.7400930" lon="-17.8120180">
        <ele>1664.0</ele>
        <time>2020-11-16T11:14:39Z</time>
      </trkpt>
      <trkpt lat="28.7400880" lon="-17.8120150">
        <ele>1664.1</ele>
        <time>2020-11-16T11:14:40Z</time>
      </trkpt>
      <trkpt lat="28.7400880" lon="-17.8120150">
        <ele>1664.1</ele>
        <time>2020-11-16T11:14:41Z</time>
      </trkpt>
      <trkpt lat="28.7400820" lon="-17.8120180">
        <ele>1664.1</ele>
        <time>2020-11-16T11:14:42Z</time>
      </trkpt>
      <trkpt lat="28.7400820" lon="-17.8120180">
        <ele>1664.1</ele>
        <time>2020-11-16T11:14:43Z</time>
      </trkpt>
      <trkpt lat="28.7400820" lon="-17.8120180">
        <ele>1664.1</ele>
        <time>2020-11-16T11:14:53Z</time>
      </trkpt>
      <trkpt lat="28.7400050" lon="-17.8119320">
        <ele>1664.9</ele>
        <time>2020-11-16T11:14:54Z</time>
      </trkpt>
      <trkpt lat="28.7400050" lon="-17.8119320">
        <ele>1664.9</ele>
        <time>2020-11-16T11:14:55Z</time>
      </trkpt>
      <trkpt lat="28.7399920" lon="-17.8119120">
        <ele>1665.1</ele>
        <time>2020-11-16T11:14:56Z</time>
      </trkpt>
      <trkpt lat="28.7399920" lon="-17.8119120">
        <ele>1665.1</ele>
        <time>2020-11-16T11:14:57Z</time>
      </trkpt>
      <trkpt lat="28.7399750" lon="-17.8118900">
        <ele>1665.2</ele>
        <time>2020-11-16T11:14:58Z</time>
      </trkpt>
      <trkpt lat="28.7399750" lon="-17.8118900">
        <ele>1665.2</ele>
        <time>2020-11-16T11:14:59Z</time>
      </trkpt>
      <trkpt lat="28.7399580" lon="-17.8118520">
        <ele>1665.5</ele>
        <time>2020-11-16T11:15:00Z</time>
      </trkpt>
      <trkpt lat="28.7399580" lon="-17.8118520">
        <ele>1665.5</ele>
        <time>2020-11-16T11:15:01Z</time>
      </trkpt>
      <trkpt lat="28.7399400" lon="-17.8118220">
        <ele>1665.7</ele>
        <time>2020-11-16T11:15:02Z</time>
      </trkpt>
      <trkpt lat="28.7399300" lon="-17.8118100">
        <ele>1665.9</ele>
        <time>2020-11-16T11:15:03Z</time>
      </trkpt>
      <trkpt lat="28.7399300" lon="-17.8118100">
        <ele>1665.9</ele>
        <time>2020-11-16T11:15:04Z</time>
      </trkpt>
      <trkpt lat="28.7399120" lon="-17.8117930">
        <ele>1666.0</ele>
        <time>2020-11-16T11:15:05Z</time>
      </trkpt>
      <trkpt lat="28.7399120" lon="-17.8117930">
        <ele>1666.0</ele>
        <time>2020-11-16T11:15:06Z</time>
      </trkpt>
      <trkpt lat="28.7398850" lon="-17.8117430">
        <ele>1666.4</ele>
        <time>2020-11-16T11:15:07Z</time>
      </trkpt>
      <trkpt lat="28.7398850" lon="-17.8117430">
        <ele>1666.4</ele>
        <time>2020-11-16T11:15:08Z</time>
      </trkpt>
      <trkpt lat="28.7398630" lon="-17.8117100">
        <ele>1666.7</ele>
        <time>2020-11-16T11:15:09Z</time>
      </trkpt>
      <trkpt lat="28.7398630" lon="-17.8117100">
        <ele>1666.7</ele>
        <time>2020-11-16T11:15:10Z</time>
      </trkpt>
      <trkpt lat="28.7398350" lon="-17.8116730">
        <ele>1667.0</ele>
        <time>2020-11-16T11:15:11Z</time>
      </trkpt>
      <trkpt lat="28.7398350" lon="-17.8116730">
        <ele>1667.0</ele>
        <time>2020-11-16T11:15:12Z</time>
      </trkpt>
      <trkpt lat="28.7398000" lon="-17.8116400">
        <ele>1667.3</ele>
        <time>2020-11-16T11:15:13Z</time>
      </trkpt>
      <trkpt lat="28.7398000" lon="-17.8116400">
        <ele>1667.3</ele>
        <time>2020-11-16T11:15:14Z</time>
      </trkpt>
      <trkpt lat="28.7397650" lon="-17.8116150">
        <ele>1667.6</ele>
        <time>2020-11-16T11:15:15Z</time>
      </trkpt>
      <trkpt lat="28.7397650" lon="-17.8116150">
        <ele>1667.6</ele>
        <time>2020-11-16T11:15:16Z</time>
      </trkpt>
      <trkpt lat="28.7397220" lon="-17.8115830">
        <ele>1668.0</ele>
        <time>2020-11-16T11:15:17Z</time>
      </trkpt>
      <trkpt lat="28.7397220" lon="-17.8115830">
        <ele>1668.0</ele>
        <time>2020-11-16T11:15:18Z</time>
      </trkpt>
      <trkpt lat="28.7396830" lon="-17.8115720">
        <ele>1668.3</ele>
        <time>2020-11-16T11:15:19Z</time>
      </trkpt>
      <trkpt lat="28.7396830" lon="-17.8115720">
        <ele>1669.2</ele>
        <time>2020-11-16T11:15:20Z</time>
      </trkpt>
      <trkpt lat="28.7396430" lon="-17.8115600">
        <ele>1669.8</ele>
        <time>2020-11-16T11:15:21Z</time>
      </trkpt>
      <trkpt lat="28.7396430" lon="-17.8115600">
        <ele>1669.8</ele>
        <time>2020-11-16T11:15:22Z</time>
      </trkpt>
      <trkpt lat="28.7396150" lon="-17.8115650">
        <ele>1670.3</ele>
        <time>2020-11-16T11:15:23Z</time>
      </trkpt>
      <trkpt lat="28.7396150" lon="-17.8115650">
        <ele>1670.3</ele>
        <time>2020-11-16T11:15:24Z</time>
      </trkpt>
      <trkpt lat="28.7395970" lon="-17.8115970">
        <ele>1670.7</ele>
        <time>2020-11-16T11:15:25Z</time>
      </trkpt>
      <trkpt lat="28.7395970" lon="-17.8115970">
        <ele>1670.7</ele>
        <time>2020-11-16T11:15:26Z</time>
      </trkpt>
      <trkpt lat="28.7395800" lon="-17.8116380">
        <ele>1671.2</ele>
        <time>2020-11-16T11:15:27Z</time>
      </trkpt>
      <trkpt lat="28.7395720" lon="-17.8116600">
        <ele>1671.5</ele>
        <time>2020-11-16T11:15:28Z</time>
      </trkpt>
      <trkpt lat="28.7395720" lon="-17.8116600">
        <ele>1671.5</ele>
        <time>2020-11-16T11:15:29Z</time>
      </trkpt>
      <trkpt lat="28.7395680" lon="-17.8116950">
        <ele>1671.8</ele>
        <time>2020-11-16T11:15:30Z</time>
      </trkpt>
      <trkpt lat="28.7395680" lon="-17.8117150">
        <ele>1672.0</ele>
        <time>2020-11-16T11:15:31Z</time>
      </trkpt>
      <trkpt lat="28.7395680" lon="-17.8117150">
        <ele>1672.0</ele>
        <time>2020-11-16T11:15:32Z</time>
      </trkpt>
      <trkpt lat="28.7395780" lon="-17.8117370">
        <ele>1672.2</ele>
        <time>2020-11-16T11:15:33Z</time>
      </trkpt>
      <trkpt lat="28.7395780" lon="-17.8117370">
        <ele>1672.2</ele>
        <time>2020-11-16T11:15:34Z</time>
      </trkpt>
      <trkpt lat="28.7395870" lon="-17.8117480">
        <ele>1672.3</ele>
        <time>2020-11-16T11:15:35Z</time>
      </trkpt>
      <trkpt lat="28.7395870" lon="-17.8117480">
        <ele>1672.3</ele>
        <time>2020-11-16T11:15:36Z</time>
      </trkpt>
      <trkpt lat="28.7396020" lon="-17.8117580">
        <ele>1672.5</ele>
        <time>2020-11-16T11:15:37Z</time>
      </trkpt>
      <trkpt lat="28.7396020" lon="-17.8117580">
        <ele>1672.5</ele>
        <time>2020-11-16T11:15:38Z</time>
      </trkpt>
      <trkpt lat="28.7396220" lon="-17.8117770">
        <ele>1672.7</ele>
        <time>2020-11-16T11:15:39Z</time>
      </trkpt>
      <trkpt lat="28.7396350" lon="-17.8117870">
        <ele>1672.8</ele>
        <time>2020-11-16T11:15:40Z</time>
      </trkpt>
      <trkpt lat="28.7396350" lon="-17.8117870">
        <ele>1672.8</ele>
        <time>2020-11-16T11:15:41Z</time>
      </trkpt>
      <trkpt lat="28.7396650" lon="-17.8118050">
        <ele>1673.1</ele>
        <time>2020-11-16T11:15:42Z</time>
      </trkpt>
      <trkpt lat="28.7396820" lon="-17.8118170">
        <ele>1673.2</ele>
        <time>2020-11-16T11:15:43Z</time>
      </trkpt>
      <trkpt lat="28.7396970" lon="-17.8118230">
        <ele>1673.3</ele>
        <time>2020-11-16T11:15:44Z</time>
      </trkpt>
      <trkpt lat="28.7396970" lon="-17.8118230">
        <ele>1673.3</ele>
        <time>2020-11-16T11:15:45Z</time>
      </trkpt>
      <trkpt lat="28.7397230" lon="-17.8118350">
        <ele>1673.5</ele>
        <time>2020-11-16T11:15:46Z</time>
      </trkpt>
      <trkpt lat="28.7397350" lon="-17.8118420">
        <ele>1673.6</ele>
        <time>2020-11-16T11:15:47Z</time>
      </trkpt>
      <trkpt lat="28.7397350" lon="-17.8118420">
        <ele>1673.6</ele>
        <time>2020-11-16T11:15:48Z</time>
      </trkpt>
      <trkpt lat="28.7397600" lon="-17.8118630">
        <ele>1673.7</ele>
        <time>2020-11-16T11:15:49Z</time>
      </trkpt>
      <trkpt lat="28.7397700" lon="-17.8118730">
        <ele>1673.8</ele>
        <time>2020-11-16T11:15:50Z</time>
      </trkpt>
      <trkpt lat="28.7397700" lon="-17.8118730">
        <ele>1673.8</ele>
        <time>2020-11-16T11:15:51Z</time>
      </trkpt>
      <trkpt lat="28.7397950" lon="-17.8118930">
        <ele>1674.0</ele>
        <time>2020-11-16T11:15:52Z</time>
      </trkpt>
      <trkpt lat="28.7398070" lon="-17.8119070">
        <ele>1674.1</ele>
        <time>2020-11-16T11:15:53Z</time>
      </trkpt>
      <trkpt lat="28.7398070" lon="-17.8119070">
        <ele>1674.1</ele>
        <time>2020-11-16T11:15:54Z</time>
      </trkpt>
      <trkpt lat="28.7398230" lon="-17.8119380">
        <ele>1674.2</ele>
        <time>2020-11-16T11:15:55Z</time>
      </trkpt>
      <trkpt lat="28.7398250" lon="-17.8119550">
        <ele>1674.3</ele>
        <time>2020-11-16T11:15:56Z</time>
      </trkpt>
      <trkpt lat="28.7398250" lon="-17.8119550">
        <ele>1674.3</ele>
        <time>2020-11-16T11:15:57Z</time>
      </trkpt>
      <trkpt lat="28.7398370" lon="-17.8119820">
        <ele>1674.5</ele>
        <time>2020-11-16T11:15:58Z</time>
      </trkpt>
      <trkpt lat="28.7398370" lon="-17.8119820">
        <ele>1674.5</ele>
        <time>2020-11-16T11:15:59Z</time>
      </trkpt>
      <trkpt lat="28.7398570" lon="-17.8120130">
        <ele>1674.8</ele>
        <time>2020-11-16T11:16:00Z</time>
      </trkpt>
      <trkpt lat="28.7398670" lon="-17.8120300">
        <ele>1674.9</ele>
        <time>2020-11-16T11:16:01Z</time>
      </trkpt>
      <trkpt lat="28.7398670" lon="-17.8120300">
        <ele>1674.9</ele>
        <time>2020-11-16T11:16:02Z</time>
      </trkpt>
      <trkpt lat="28.7398830" lon="-17.8120720">
        <ele>1675.3</ele>
        <time>2020-11-16T11:16:03Z</time>
      </trkpt>
      <trkpt lat="28.7398830" lon="-17.8120720">
        <ele>1675.3</ele>
        <time>2020-11-16T11:16:04Z</time>
      </trkpt>
      <trkpt lat="28.7398920" lon="-17.8121150">
        <ele>1675.7</ele>
        <time>2020-11-16T11:16:05Z</time>
      </trkpt>
      <trkpt lat="28.7398920" lon="-17.8121150">
        <ele>1675.7</ele>
        <time>2020-11-16T11:16:06Z</time>
      </trkpt>
      <trkpt lat="28.7399050" lon="-17.8121430">
        <ele>1675.9</ele>
        <time>2020-11-16T11:16:07Z</time>
      </trkpt>
      <trkpt lat="28.7399050" lon="-17.8121430">
        <ele>1675.9</ele>
        <time>2020-11-16T11:16:08Z</time>
      </trkpt>
      <trkpt lat="28.7399180" lon="-17.8121730">
        <ele>1676.2</ele>
        <time>2020-11-16T11:16:09Z</time>
      </trkpt>
      <trkpt lat="28.7399180" lon="-17.8121730">
        <ele>1676.2</ele>
        <time>2020-11-16T11:16:10Z</time>
      </trkpt>
      <trkpt lat="28.7399230" lon="-17.8121850">
        <ele>1676.4</ele>
        <time>2020-11-16T11:16:11Z</time>
      </trkpt>
      <trkpt lat="28.7399330" lon="-17.8122030">
        <ele>1676.6</ele>
        <time>2020-11-16T11:16:12Z</time>
      </trkpt>
      <trkpt lat="28.7399330" lon="-17.8122030">
        <ele>1676.6</ele>
        <time>2020-11-16T11:16:13Z</time>
      </trkpt>
      <trkpt lat="28.7399570" lon="-17.8122320">
        <ele>1676.9</ele>
        <time>2020-11-16T11:16:14Z</time>
      </trkpt>
      <trkpt lat="28.7399620" lon="-17.8122500">
        <ele>1677.1</ele>
        <time>2020-11-16T11:16:15Z</time>
      </trkpt>
      <trkpt lat="28.7399620" lon="-17.8122500">
        <ele>1677.1</ele>
        <time>2020-11-16T11:16:16Z</time>
      </trkpt>
      <trkpt lat="28.7399700" lon="-17.8122800">
        <ele>1677.4</ele>
        <time>2020-11-16T11:16:17Z</time>
      </trkpt>
      <trkpt lat="28.7399700" lon="-17.8122800">
        <ele>1677.4</ele>
        <time>2020-11-16T11:16:18Z</time>
      </trkpt>
      <trkpt lat="28.7399750" lon="-17.8123020">
        <ele>1677.6</ele>
        <time>2020-11-16T11:16:19Z</time>
      </trkpt>
      <trkpt lat="28.7399750" lon="-17.8123020">
        <ele>1677.6</ele>
        <time>2020-11-16T11:16:20Z</time>
      </trkpt>
      <trkpt lat="28.7399820" lon="-17.8123270">
        <ele>1677.9</ele>
        <time>2020-11-16T11:16:21Z</time>
      </trkpt>
      <trkpt lat="28.7399820" lon="-17.8123270">
        <ele>1677.9</ele>
        <time>2020-11-16T11:16:22Z</time>
      </trkpt>
      <trkpt lat="28.7399970" lon="-17.8123530">
        <ele>1678.2</ele>
        <time>2020-11-16T11:16:23Z</time>
      </trkpt>
      <trkpt lat="28.7399970" lon="-17.8123530">
        <ele>1678.2</ele>
        <time>2020-11-16T11:16:24Z</time>
      </trkpt>
      <trkpt lat="28.7400130" lon="-17.8123820">
        <ele>1678.5</ele>
        <time>2020-11-16T11:16:25Z</time>
      </trkpt>
      <trkpt lat="28.7400130" lon="-17.8123820">
        <ele>1678.5</ele>
        <time>2020-11-16T11:16:26Z</time>
      </trkpt>
      <trkpt lat="28.7400170" lon="-17.8124150">
        <ele>1678.7</ele>
        <time>2020-11-16T11:16:27Z</time>
      </trkpt>
      <trkpt lat="28.7400170" lon="-17.8124150">
        <ele>1678.7</ele>
        <time>2020-11-16T11:16:28Z</time>
      </trkpt>
      <trkpt lat="28.7400200" lon="-17.8124500">
        <ele>1679.0</ele>
        <time>2020-11-16T11:16:29Z</time>
      </trkpt>
      <trkpt lat="28.7400200" lon="-17.8124500">
        <ele>1679.0</ele>
        <time>2020-11-16T11:16:30Z</time>
      </trkpt>
      <trkpt lat="28.7400220" lon="-17.8124780">
        <ele>1679.2</ele>
        <time>2020-11-16T11:16:31Z</time>
      </trkpt>
      <trkpt lat="28.7400220" lon="-17.8124780">
        <ele>1679.2</ele>
        <time>2020-11-16T11:16:32Z</time>
      </trkpt>
      <trkpt lat="28.7400330" lon="-17.8125100">
        <ele>1679.5</ele>
        <time>2020-11-16T11:16:33Z</time>
      </trkpt>
      <trkpt lat="28.7400330" lon="-17.8125100">
        <ele>1679.5</ele>
        <time>2020-11-16T11:16:34Z</time>
      </trkpt>
      <trkpt lat="28.7400400" lon="-17.8125400">
        <ele>1679.7</ele>
        <time>2020-11-16T11:16:35Z</time>
      </trkpt>
      <trkpt lat="28.7400450" lon="-17.8125530">
        <ele>1679.8</ele>
        <time>2020-11-16T11:16:36Z</time>
      </trkpt>
      <trkpt lat="28.7400450" lon="-17.8125530">
        <ele>1679.8</ele>
        <time>2020-11-16T11:16:37Z</time>
      </trkpt>
      <trkpt lat="28.7400600" lon="-17.8125900">
        <ele>1680.2</ele>
        <time>2020-11-16T11:16:38Z</time>
      </trkpt>
      <trkpt lat="28.7400600" lon="-17.8125900">
        <ele>1680.2</ele>
        <time>2020-11-16T11:16:39Z</time>
      </trkpt>
      <trkpt lat="28.7400730" lon="-17.8126270">
        <ele>1680.5</ele>
        <time>2020-11-16T11:16:40Z</time>
      </trkpt>
      <trkpt lat="28.7400780" lon="-17.8126480">
        <ele>1680.7</ele>
        <time>2020-11-16T11:16:41Z</time>
      </trkpt>
      <trkpt lat="28.7400780" lon="-17.8126480">
        <ele>1680.7</ele>
        <time>2020-11-16T11:16:42Z</time>
      </trkpt>
      <trkpt lat="28.7400820" lon="-17.8126870">
        <ele>1681.0</ele>
        <time>2020-11-16T11:16:43Z</time>
      </trkpt>
      <trkpt lat="28.7400820" lon="-17.8126870">
        <ele>1681.0</ele>
        <time>2020-11-16T11:16:44Z</time>
      </trkpt>
      <trkpt lat="28.7400970" lon="-17.8127170">
        <ele>1681.4</ele>
        <time>2020-11-16T11:16:45Z</time>
      </trkpt>
      <trkpt lat="28.7400970" lon="-17.8127170">
        <ele>1681.4</ele>
        <time>2020-11-16T11:16:46Z</time>
      </trkpt>
      <trkpt lat="28.7401120" lon="-17.8127430">
        <ele>1681.7</ele>
        <time>2020-11-16T11:16:47Z</time>
      </trkpt>
      <trkpt lat="28.7401120" lon="-17.8127430">
        <ele>1681.7</ele>
        <time>2020-11-16T11:16:48Z</time>
      </trkpt>
      <trkpt lat="28.7401050" lon="-17.8127900">
        <ele>1682.1</ele>
        <time>2020-11-16T11:16:49Z</time>
      </trkpt>
      <trkpt lat="28.7401030" lon="-17.8128050">
        <ele>1682.3</ele>
        <time>2020-11-16T11:16:50Z</time>
      </trkpt>
      <trkpt lat="28.7401030" lon="-17.8128050">
        <ele>1682.3</ele>
        <time>2020-11-16T11:16:51Z</time>
      </trkpt>
      <trkpt lat="28.7401120" lon="-17.8128420">
        <ele>1682.7</ele>
        <time>2020-11-16T11:16:52Z</time>
      </trkpt>
      <trkpt lat="28.7401150" lon="-17.8128580">
        <ele>1682.8</ele>
        <time>2020-11-16T11:16:53Z</time>
      </trkpt>
      <trkpt lat="28.7401320" lon="-17.8128870">
        <ele>1683.2</ele>
        <time>2020-11-16T11:16:54Z</time>
      </trkpt>
      <trkpt lat="28.7401320" lon="-17.8128870">
        <ele>1683.2</ele>
        <time>2020-11-16T11:16:55Z</time>
      </trkpt>
      <trkpt lat="28.7401520" lon="-17.8129250">
        <ele>1683.7</ele>
        <time>2020-11-16T11:16:56Z</time>
      </trkpt>
      <trkpt lat="28.7401520" lon="-17.8129250">
        <ele>1683.7</ele>
        <time>2020-11-16T11:16:57Z</time>
      </trkpt>
      <trkpt lat="28.7401630" lon="-17.8129520">
        <ele>1684.1</ele>
        <time>2020-11-16T11:16:58Z</time>
      </trkpt>
      <trkpt lat="28.7401680" lon="-17.8129700">
        <ele>1684.3</ele>
        <time>2020-11-16T11:16:59Z</time>
      </trkpt>
      <trkpt lat="28.7401680" lon="-17.8129950">
        <ele>1684.6</ele>
        <time>2020-11-16T11:17:00Z</time>
      </trkpt>
      <trkpt lat="28.7401680" lon="-17.8129950">
        <ele>1684.6</ele>
        <time>2020-11-16T11:17:01Z</time>
      </trkpt>
      <trkpt lat="28.7401700" lon="-17.8130220">
        <ele>1684.9</ele>
        <time>2020-11-16T11:17:02Z</time>
      </trkpt>
      <trkpt lat="28.7401700" lon="-17.8130220">
        <ele>1684.9</ele>
        <time>2020-11-16T11:17:03Z</time>
      </trkpt>
      <trkpt lat="28.7401720" lon="-17.8130470">
        <ele>1685.2</ele>
        <time>2020-11-16T11:17:04Z</time>
      </trkpt>
      <trkpt lat="28.7401720" lon="-17.8130470">
        <ele>1685.2</ele>
        <time>2020-11-16T11:17:05Z</time>
      </trkpt>
      <trkpt lat="28.7401880" lon="-17.8130750">
        <ele>1685.6</ele>
        <time>2020-11-16T11:17:06Z</time>
      </trkpt>
      <trkpt lat="28.7401880" lon="-17.8130950">
        <ele>1685.8</ele>
        <time>2020-11-16T11:17:07Z</time>
      </trkpt>
      <trkpt lat="28.7401880" lon="-17.8130950">
        <ele>1685.8</ele>
        <time>2020-11-16T11:17:08Z</time>
      </trkpt>
      <trkpt lat="28.7401700" lon="-17.8131150">
        <ele>1686.2</ele>
        <time>2020-11-16T11:17:09Z</time>
      </trkpt>
      <trkpt lat="28.7401700" lon="-17.8131150">
        <ele>1686.2</ele>
        <time>2020-11-16T11:17:10Z</time>
      </trkpt>
      <trkpt lat="28.7401730" lon="-17.8131350">
        <ele>1686.4</ele>
        <time>2020-11-16T11:17:11Z</time>
      </trkpt>
      <trkpt lat="28.7401730" lon="-17.8131350">
        <ele>1686.4</ele>
        <time>2020-11-16T11:17:12Z</time>
      </trkpt>
      <trkpt lat="28.7401870" lon="-17.8131680">
        <ele>1686.8</ele>
        <time>2020-11-16T11:17:13Z</time>
      </trkpt>
      <trkpt lat="28.7401870" lon="-17.8131680">
        <ele>1686.8</ele>
        <time>2020-11-16T11:17:14Z</time>
      </trkpt>
      <trkpt lat="28.7402050" lon="-17.8131980">
        <ele>1687.2</ele>
        <time>2020-11-16T11:17:15Z</time>
      </trkpt>
      <trkpt lat="28.7402150" lon="-17.8132080">
        <ele>1687.4</ele>
        <time>2020-11-16T11:17:16Z</time>
      </trkpt>
      <trkpt lat="28.7402150" lon="-17.8132080">
        <ele>1687.4</ele>
        <time>2020-11-16T11:17:17Z</time>
      </trkpt>
      <trkpt lat="28.7402230" lon="-17.8132400">
        <ele>1687.7</ele>
        <time>2020-11-16T11:17:18Z</time>
      </trkpt>
      <trkpt lat="28.7402270" lon="-17.8132600">
        <ele>1687.9</ele>
        <time>2020-11-16T11:17:19Z</time>
      </trkpt>
      <trkpt lat="28.7402270" lon="-17.8132600">
        <ele>1687.9</ele>
        <time>2020-11-16T11:17:20Z</time>
      </trkpt>
      <trkpt lat="28.7402330" lon="-17.8133070">
        <ele>1688.4</ele>
        <time>2020-11-16T11:17:21Z</time>
      </trkpt>
      <trkpt lat="28.7402330" lon="-17.8133070">
        <ele>1688.4</ele>
        <time>2020-11-16T11:17:22Z</time>
      </trkpt>
      <trkpt lat="28.7402380" lon="-17.8133300">
        <ele>1688.7</ele>
        <time>2020-11-16T11:17:23Z</time>
      </trkpt>
      <trkpt lat="28.7402380" lon="-17.8133300">
        <ele>1688.7</ele>
        <time>2020-11-16T11:17:24Z</time>
      </trkpt>
      <trkpt lat="28.7402530" lon="-17.8133530">
        <ele>1689.0</ele>
        <time>2020-11-16T11:17:25Z</time>
      </trkpt>
      <trkpt lat="28.7402530" lon="-17.8133530">
        <ele>1689.0</ele>
        <time>2020-11-16T11:17:26Z</time>
      </trkpt>
      <trkpt lat="28.7402670" lon="-17.8133770">
        <ele>1689.3</ele>
        <time>2020-11-16T11:17:27Z</time>
      </trkpt>
      <trkpt lat="28.7402670" lon="-17.8133770">
        <ele>1689.3</ele>
        <time>2020-11-16T11:17:28Z</time>
      </trkpt>
      <trkpt lat="28.7402770" lon="-17.8134050">
        <ele>1689.7</ele>
        <time>2020-11-16T11:17:29Z</time>
      </trkpt>
      <trkpt lat="28.7402770" lon="-17.8134050">
        <ele>1689.7</ele>
        <time>2020-11-16T11:17:30Z</time>
      </trkpt>
      <trkpt lat="28.7402920" lon="-17.8134220">
        <ele>1690.0</ele>
        <time>2020-11-16T11:17:31Z</time>
      </trkpt>
      <trkpt lat="28.7402980" lon="-17.8134300">
        <ele>1690.1</ele>
        <time>2020-11-16T11:17:32Z</time>
      </trkpt>
      <trkpt lat="28.7402980" lon="-17.8134300">
        <ele>1690.1</ele>
        <time>2020-11-16T11:17:33Z</time>
      </trkpt>
      <trkpt lat="28.7403250" lon="-17.8134770">
        <ele>1690.8</ele>
        <time>2020-11-16T11:17:34Z</time>
      </trkpt>
      <trkpt lat="28.7403250" lon="-17.8134770">
        <ele>1690.8</ele>
        <time>2020-11-16T11:17:35Z</time>
      </trkpt>
      <trkpt lat="28.7403420" lon="-17.8135150">
        <ele>1691.3</ele>
        <time>2020-11-16T11:17:36Z</time>
      </trkpt>
      <trkpt lat="28.7403420" lon="-17.8135150">
        <ele>1691.3</ele>
        <time>2020-11-16T11:17:37Z</time>
      </trkpt>
      <trkpt lat="28.7403580" lon="-17.8135600">
        <ele>1691.9</ele>
        <time>2020-11-16T11:17:38Z</time>
      </trkpt>
      <trkpt lat="28.7403650" lon="-17.8135780">
        <ele>1692.1</ele>
        <time>2020-11-16T11:17:39Z</time>
      </trkpt>
      <trkpt lat="28.7403650" lon="-17.8135780">
        <ele>1692.1</ele>
        <time>2020-11-16T11:17:40Z</time>
      </trkpt>
      <trkpt lat="28.7403880" lon="-17.8135970">
        <ele>1692.5</ele>
        <time>2020-11-16T11:17:41Z</time>
      </trkpt>
      <trkpt lat="28.7403880" lon="-17.8135970">
        <ele>1692.5</ele>
        <time>2020-11-16T11:17:42Z</time>
      </trkpt>
      <trkpt lat="28.7404030" lon="-17.8136080">
        <ele>1692.7</ele>
        <time>2020-11-16T11:17:43Z</time>
      </trkpt>
      <trkpt lat="28.7404030" lon="-17.8136080">
        <ele>1692.7</ele>
        <time>2020-11-16T11:17:44Z</time>
      </trkpt>
      <trkpt lat="28.7404100" lon="-17.8136100">
        <ele>1692.8</ele>
        <time>2020-11-16T11:17:45Z</time>
      </trkpt>
      <trkpt lat="28.7404100" lon="-17.8136100">
        <ele>1692.8</ele>
        <time>2020-11-16T11:17:46Z</time>
      </trkpt>
      <trkpt lat="28.7404270" lon="-17.8135970">
        <ele>1693.1</ele>
        <time>2020-11-16T11:17:47Z</time>
      </trkpt>
      <trkpt lat="28.7404270" lon="-17.8135970">
        <ele>1693.1</ele>
        <time>2020-11-16T11:17:48Z</time>
      </trkpt>
      <trkpt lat="28.7404420" lon="-17.8135830">
        <ele>1693.3</ele>
        <time>2020-11-16T11:17:49Z</time>
      </trkpt>
      <trkpt lat="28.7404520" lon="-17.8135770">
        <ele>1693.5</ele>
        <time>2020-11-16T11:17:50Z</time>
      </trkpt>
      <trkpt lat="28.7404520" lon="-17.8135770">
        <ele>1693.5</ele>
        <time>2020-11-16T11:17:51Z</time>
      </trkpt>
      <trkpt lat="28.7404680" lon="-17.8135530">
        <ele>1693.8</ele>
        <time>2020-11-16T11:17:52Z</time>
      </trkpt>
      <trkpt lat="28.7404680" lon="-17.8135530">
        <ele>1693.8</ele>
        <time>2020-11-16T11:17:53Z</time>
      </trkpt>
      <trkpt lat="28.7405020" lon="-17.8135380">
        <ele>1694.2</ele>
        <time>2020-11-16T11:17:54Z</time>
      </trkpt>
      <trkpt lat="28.7405320" lon="-17.8135350">
        <ele>1694.5</ele>
        <time>2020-11-16T11:17:55Z</time>
      </trkpt>
      <trkpt lat="28.7405320" lon="-17.8135350">
        <ele>1694.5</ele>
        <time>2020-11-16T11:17:56Z</time>
      </trkpt>
      <trkpt lat="28.7405750" lon="-17.8135080">
        <ele>1695.0</ele>
        <time>2020-11-16T11:17:57Z</time>
      </trkpt>
      <trkpt lat="28.7405750" lon="-17.8135080">
        <ele>1695.0</ele>
        <time>2020-11-16T11:17:58Z</time>
      </trkpt>
      <trkpt lat="28.7406130" lon="-17.8134870">
        <ele>1695.4</ele>
        <time>2020-11-16T11:17:59Z</time>
      </trkpt>
      <trkpt lat="28.7406130" lon="-17.8134870">
        <ele>1695.4</ele>
        <time>2020-11-16T11:18:00Z</time>
      </trkpt>
      <trkpt lat="28.7406570" lon="-17.8134700">
        <ele>1695.9</ele>
        <time>2020-11-16T11:18:01Z</time>
      </trkpt>
      <trkpt lat="28.7406570" lon="-17.8134700">
        <ele>1695.9</ele>
        <time>2020-11-16T11:18:02Z</time>
      </trkpt>
      <trkpt lat="28.7406850" lon="-17.8134470">
        <ele>1696.3</ele>
        <time>2020-11-16T11:18:03Z</time>
      </trkpt>
      <trkpt lat="28.7407050" lon="-17.8134420">
        <ele>1696.5</ele>
        <time>2020-11-16T11:18:04Z</time>
      </trkpt>
      <trkpt lat="28.7407050" lon="-17.8134420">
        <ele>1696.5</ele>
        <time>2020-11-16T11:18:05Z</time>
      </trkpt>
      <trkpt lat="28.7407350" lon="-17.8134170">
        <ele>1696.9</ele>
        <time>2020-11-16T11:18:06Z</time>
      </trkpt>
      <trkpt lat="28.7407350" lon="-17.8134170">
        <ele>1696.9</ele>
        <time>2020-11-16T11:18:07Z</time>
      </trkpt>
      <trkpt lat="28.7407670" lon="-17.8133930">
        <ele>1697.4</ele>
        <time>2020-11-16T11:18:08Z</time>
      </trkpt>
      <trkpt lat="28.7407670" lon="-17.8133930">
        <ele>1697.4</ele>
        <time>2020-11-16T11:18:09Z</time>
      </trkpt>
      <trkpt lat="28.7408080" lon="-17.8133700">
        <ele>1698.0</ele>
        <time>2020-11-16T11:18:10Z</time>
      </trkpt>
      <trkpt lat="28.7408080" lon="-17.8133700">
        <ele>1698.0</ele>
        <time>2020-11-16T11:18:11Z</time>
      </trkpt>
      <trkpt lat="28.7408450" lon="-17.8133630">
        <ele>1698.4</ele>
        <time>2020-11-16T11:18:12Z</time>
      </trkpt>
      <trkpt lat="28.7408530" lon="-17.8133520">
        <ele>1698.6</ele>
        <time>2020-11-16T11:18:13Z</time>
      </trkpt>
      <trkpt lat="28.7408530" lon="-17.8133520">
        <ele>1698.6</ele>
        <time>2020-11-16T11:18:14Z</time>
      </trkpt>
      <trkpt lat="28.7408800" lon="-17.8133350">
        <ele>1698.9</ele>
        <time>2020-11-16T11:18:15Z</time>
      </trkpt>
      <trkpt lat="28.7408800" lon="-17.8133350">
        <ele>1698.9</ele>
        <time>2020-11-16T11:18:16Z</time>
      </trkpt>
      <trkpt lat="28.7409070" lon="-17.8133070">
        <ele>1699.3</ele>
        <time>2020-11-16T11:18:17Z</time>
      </trkpt>
      <trkpt lat="28.7409070" lon="-17.8133070">
        <ele>1699.3</ele>
        <time>2020-11-16T11:18:18Z</time>
      </trkpt>
      <trkpt lat="28.7409380" lon="-17.8133020">
        <ele>1699.6</ele>
        <time>2020-11-16T11:18:19Z</time>
      </trkpt>
      <trkpt lat="28.7409380" lon="-17.8133020">
        <ele>1699.6</ele>
        <time>2020-11-16T11:18:20Z</time>
      </trkpt>
      <trkpt lat="28.7409570" lon="-17.8132880">
        <ele>1699.8</ele>
        <time>2020-11-16T11:18:21Z</time>
      </trkpt>
      <trkpt lat="28.7409570" lon="-17.8132880">
        <ele>1699.8</ele>
        <time>2020-11-16T11:18:22Z</time>
      </trkpt>
      <trkpt lat="28.7409750" lon="-17.8133030">
        <ele>1700.0</ele>
        <time>2020-11-16T11:18:23Z</time>
      </trkpt>
      <trkpt lat="28.7409880" lon="-17.8133170">
        <ele>1700.2</ele>
        <time>2020-11-16T11:18:24Z</time>
      </trkpt>
      <trkpt lat="28.7409880" lon="-17.8133170">
        <ele>1700.2</ele>
        <time>2020-11-16T11:18:25Z</time>
      </trkpt>
      <trkpt lat="28.7410120" lon="-17.8133450">
        <ele>1700.5</ele>
        <time>2020-11-16T11:18:26Z</time>
      </trkpt>
      <trkpt lat="28.7410120" lon="-17.8133450">
        <ele>1700.5</ele>
        <time>2020-11-16T11:18:27Z</time>
      </trkpt>
      <trkpt lat="28.7410370" lon="-17.8133830">
        <ele>1700.8</ele>
        <time>2020-11-16T11:18:28Z</time>
      </trkpt>
      <trkpt lat="28.7410370" lon="-17.8133830">
        <ele>1700.8</ele>
        <time>2020-11-16T11:18:29Z</time>
      </trkpt>
      <trkpt lat="28.7410570" lon="-17.8134170">
        <ele>1701.2</ele>
        <time>2020-11-16T11:18:30Z</time>
      </trkpt>
      <trkpt lat="28.7410700" lon="-17.8134330">
        <ele>1701.3</ele>
        <time>2020-11-16T11:18:31Z</time>
      </trkpt>
      <trkpt lat="28.7410700" lon="-17.8134330">
        <ele>1701.3</ele>
        <time>2020-11-16T11:18:32Z</time>
      </trkpt>
      <trkpt lat="28.7410980" lon="-17.8134670">
        <ele>1701.7</ele>
        <time>2020-11-16T11:18:33Z</time>
      </trkpt>
      <trkpt lat="28.7410980" lon="-17.8134670">
        <ele>1701.7</ele>
        <time>2020-11-16T11:18:34Z</time>
      </trkpt>
      <trkpt lat="28.7411220" lon="-17.8134980">
        <ele>1702.1</ele>
        <time>2020-11-16T11:18:35Z</time>
      </trkpt>
      <trkpt lat="28.7411220" lon="-17.8134980">
        <ele>1702.1</ele>
        <time>2020-11-16T11:18:36Z</time>
      </trkpt>
      <trkpt lat="28.7411420" lon="-17.8135350">
        <ele>1702.5</ele>
        <time>2020-11-16T11:18:37Z</time>
      </trkpt>
      <trkpt lat="28.7411520" lon="-17.8135520">
        <ele>1702.7</ele>
        <time>2020-11-16T11:18:38Z</time>
      </trkpt>
      <trkpt lat="28.7411520" lon="-17.8135520">
        <ele>1702.7</ele>
        <time>2020-11-16T11:18:39Z</time>
      </trkpt>
      <trkpt lat="28.7411770" lon="-17.8136050">
        <ele>1703.2</ele>
        <time>2020-11-16T11:18:40Z</time>
      </trkpt>
      <trkpt lat="28.7411770" lon="-17.8136050">
        <ele>1703.2</ele>
        <time>2020-11-16T11:18:41Z</time>
      </trkpt>
      <trkpt lat="28.7411830" lon="-17.8136600">
        <ele>1703.8</ele>
        <time>2020-11-16T11:18:42Z</time>
      </trkpt>
      <trkpt lat="28.7411830" lon="-17.8136820">
        <ele>1704.0</ele>
        <time>2020-11-16T11:18:43Z</time>
      </trkpt>
      <trkpt lat="28.7411830" lon="-17.8136820">
        <ele>1704.0</ele>
        <time>2020-11-16T11:18:44Z</time>
      </trkpt>
      <trkpt lat="28.7411880" lon="-17.8137050">
        <ele>1704.2</ele>
        <time>2020-11-16T11:18:45Z</time>
      </trkpt>
      <trkpt lat="28.7411880" lon="-17.8137050">
        <ele>1704.2</ele>
        <time>2020-11-16T11:18:46Z</time>
      </trkpt>
      <trkpt lat="28.7411920" lon="-17.8137330">
        <ele>1704.4</ele>
        <time>2020-11-16T11:18:47Z</time>
      </trkpt>
      <trkpt lat="28.7411920" lon="-17.8137330">
        <ele>1704.4</ele>
        <time>2020-11-16T11:18:48Z</time>
      </trkpt>
      <trkpt lat="28.7411870" lon="-17.8137580">
        <ele>1704.6</ele>
        <time>2020-11-16T11:18:49Z</time>
      </trkpt>
      <trkpt lat="28.7411870" lon="-17.8137580">
        <ele>1704.6</ele>
        <time>2020-11-16T11:18:50Z</time>
      </trkpt>
      <trkpt lat="28.7411770" lon="-17.8137950">
        <ele>1704.9</ele>
        <time>2020-11-16T11:18:51Z</time>
      </trkpt>
      <trkpt lat="28.7411770" lon="-17.8137950">
        <ele>1704.9</ele>
        <time>2020-11-16T11:18:52Z</time>
      </trkpt>
      <trkpt lat="28.7411770" lon="-17.8138470">
        <ele>1705.3</ele>
        <time>2020-11-16T11:18:53Z</time>
      </trkpt>
      <trkpt lat="28.7411770" lon="-17.8138470">
        <ele>1705.3</ele>
        <time>2020-11-16T11:18:54Z</time>
      </trkpt>
      <trkpt lat="28.7411700" lon="-17.8138980">
        <ele>1705.7</ele>
        <time>2020-11-16T11:18:55Z</time>
      </trkpt>
      <trkpt lat="28.7411630" lon="-17.8139130">
        <ele>1705.8</ele>
        <time>2020-11-16T11:18:56Z</time>
      </trkpt>
      <trkpt lat="28.7411630" lon="-17.8139130">
        <ele>1705.8</ele>
        <time>2020-11-16T11:18:57Z</time>
      </trkpt>
      <trkpt lat="28.7411520" lon="-17.8139450">
        <ele>1706.1</ele>
        <time>2020-11-16T11:18:58Z</time>
      </trkpt>
      <trkpt lat="28.7411520" lon="-17.8139450">
        <ele>1706.1</ele>
        <time>2020-11-16T11:18:59Z</time>
      </trkpt>
      <trkpt lat="28.7411380" lon="-17.8139780">
        <ele>1706.4</ele>
        <time>2020-11-16T11:19:00Z</time>
      </trkpt>
      <trkpt lat="28.7411380" lon="-17.8139780">
        <ele>1706.4</ele>
        <time>2020-11-16T11:19:01Z</time>
      </trkpt>
      <trkpt lat="28.7411250" lon="-17.8140050">
        <ele>1706.6</ele>
        <time>2020-11-16T11:19:02Z</time>
      </trkpt>
      <trkpt lat="28.7411250" lon="-17.8140050">
        <ele>1706.6</ele>
        <time>2020-11-16T11:19:03Z</time>
      </trkpt>
      <trkpt lat="28.7411130" lon="-17.8140280">
        <ele>1706.8</ele>
        <time>2020-11-16T11:19:04Z</time>
      </trkpt>
      <trkpt lat="28.7411130" lon="-17.8140280">
        <ele>1706.8</ele>
        <time>2020-11-16T11:19:05Z</time>
      </trkpt>
      <trkpt lat="28.7411100" lon="-17.8140470">
        <ele>1707.0</ele>
        <time>2020-11-16T11:19:06Z</time>
      </trkpt>
      <trkpt lat="28.7411100" lon="-17.8140480">
        <ele>1707.0</ele>
        <time>2020-11-16T11:19:07Z</time>
      </trkpt>
      <trkpt lat="28.7411050" lon="-17.8140530">
        <ele>1707.0</ele>
        <time>2020-11-16T11:19:08Z</time>
      </trkpt>
      <trkpt lat="28.7411050" lon="-17.8140530">
        <ele>1707.0</ele>
        <time>2020-11-16T11:19:09Z</time>
      </trkpt>
      <trkpt lat="28.7410870" lon="-17.8140770">
        <ele>1707.3</ele>
        <time>2020-11-16T11:19:10Z</time>
      </trkpt>
      <trkpt lat="28.7410870" lon="-17.8140770">
        <ele>1707.3</ele>
        <time>2020-11-16T11:19:11Z</time>
      </trkpt>
      <trkpt lat="28.7410920" lon="-17.8141070">
        <ele>1707.5</ele>
        <time>2020-11-16T11:19:12Z</time>
      </trkpt>
      <trkpt lat="28.7410870" lon="-17.8141220">
        <ele>1707.6</ele>
        <time>2020-11-16T11:19:13Z</time>
      </trkpt>
      <trkpt lat="28.7410870" lon="-17.8141220">
        <ele>1707.6</ele>
        <time>2020-11-16T11:19:14Z</time>
      </trkpt>
      <trkpt lat="28.7410700" lon="-17.8141750">
        <ele>1708.1</ele>
        <time>2020-11-16T11:19:15Z</time>
      </trkpt>
      <trkpt lat="28.7410670" lon="-17.8141900">
        <ele>1708.2</ele>
        <time>2020-11-16T11:19:16Z</time>
      </trkpt>
      <trkpt lat="28.7410670" lon="-17.8141900">
        <ele>1708.2</ele>
        <time>2020-11-16T11:19:17Z</time>
      </trkpt>
      <trkpt lat="28.7410650" lon="-17.8142350">
        <ele>1708.6</ele>
        <time>2020-11-16T11:19:18Z</time>
      </trkpt>
      <trkpt lat="28.7410650" lon="-17.8142350">
        <ele>1708.6</ele>
        <time>2020-11-16T11:19:19Z</time>
      </trkpt>
      <trkpt lat="28.7410580" lon="-17.8142800">
        <ele>1709.0</ele>
        <time>2020-11-16T11:19:20Z</time>
      </trkpt>
      <trkpt lat="28.7410580" lon="-17.8142800">
        <ele>1709.0</ele>
        <time>2020-11-16T11:19:21Z</time>
      </trkpt>
      <trkpt lat="28.7410530" lon="-17.8143270">
        <ele>1709.5</ele>
        <time>2020-11-16T11:19:22Z</time>
      </trkpt>
      <trkpt lat="28.7410530" lon="-17.8143270">
        <ele>1709.5</ele>
        <time>2020-11-16T11:19:23Z</time>
      </trkpt>
      <trkpt lat="28.7410570" lon="-17.8143850">
        <ele>1710.1</ele>
        <time>2020-11-16T11:19:24Z</time>
      </trkpt>
      <trkpt lat="28.7410570" lon="-17.8143850">
        <ele>1710.1</ele>
        <time>2020-11-16T11:19:25Z</time>
      </trkpt>
      <trkpt lat="28.7410480" lon="-17.8144350">
        <ele>1710.6</ele>
        <time>2020-11-16T11:19:26Z</time>
      </trkpt>
      <trkpt lat="28.7410480" lon="-17.8144350">
        <ele>1710.6</ele>
        <time>2020-11-16T11:19:27Z</time>
      </trkpt>
      <trkpt lat="28.7410450" lon="-17.8144730">
        <ele>1711.0</ele>
        <time>2020-11-16T11:19:28Z</time>
      </trkpt>
      <trkpt lat="28.7410450" lon="-17.8144730">
        <ele>1711.0</ele>
        <time>2020-11-16T11:19:29Z</time>
      </trkpt>
      <trkpt lat="28.7410420" lon="-17.8145020">
        <ele>1711.3</ele>
        <time>2020-11-16T11:19:30Z</time>
      </trkpt>
      <trkpt lat="28.7410420" lon="-17.8145070">
        <ele>1711.3</ele>
        <time>2020-11-16T11:19:31Z</time>
      </trkpt>
      <trkpt lat="28.7410420" lon="-17.8145070">
        <ele>1711.3</ele>
        <time>2020-11-16T11:19:32Z</time>
      </trkpt>
      <trkpt lat="28.7410420" lon="-17.8145350">
        <ele>1711.6</ele>
        <time>2020-11-16T11:19:33Z</time>
      </trkpt>
      <trkpt lat="28.7410420" lon="-17.8145350">
        <ele>1711.6</ele>
        <time>2020-11-16T11:19:34Z</time>
      </trkpt>
      <trkpt lat="28.7410270" lon="-17.8145630">
        <ele>1711.9</ele>
        <time>2020-11-16T11:19:35Z</time>
      </trkpt>
      <trkpt lat="28.7410270" lon="-17.8145630">
        <ele>1711.9</ele>
        <time>2020-11-16T11:19:36Z</time>
      </trkpt>
      <trkpt lat="28.7410180" lon="-17.8145920">
        <ele>1712.1</ele>
        <time>2020-11-16T11:19:37Z</time>
      </trkpt>
      <trkpt lat="28.7410180" lon="-17.8145920">
        <ele>1712.1</ele>
        <time>2020-11-16T11:19:38Z</time>
      </trkpt>
      <trkpt lat="28.7410100" lon="-17.8146180">
        <ele>1712.4</ele>
        <time>2020-11-16T11:19:39Z</time>
      </trkpt>
      <trkpt lat="28.7410080" lon="-17.8146330">
        <ele>1712.5</ele>
        <time>2020-11-16T11:19:40Z</time>
      </trkpt>
      <trkpt lat="28.7410080" lon="-17.8146330">
        <ele>1712.5</ele>
        <time>2020-11-16T11:19:41Z</time>
      </trkpt>
      <trkpt lat="28.7409900" lon="-17.8146550">
        <ele>1712.8</ele>
        <time>2020-11-16T11:19:42Z</time>
      </trkpt>
      <trkpt lat="28.7409850" lon="-17.8146620">
        <ele>1712.8</ele>
        <time>2020-11-16T11:19:43Z</time>
      </trkpt>
      <trkpt lat="28.7409850" lon="-17.8146620">
        <ele>1712.8</ele>
        <time>2020-11-16T11:19:44Z</time>
      </trkpt>
      <trkpt lat="28.7409520" lon="-17.8146920">
        <ele>1713.2</ele>
        <time>2020-11-16T11:19:45Z</time>
      </trkpt>
      <trkpt lat="28.7409520" lon="-17.8146920">
        <ele>1713.2</ele>
        <time>2020-11-16T11:19:46Z</time>
      </trkpt>
      <trkpt lat="28.7409380" lon="-17.8147120">
        <ele>1713.5</ele>
        <time>2020-11-16T11:19:47Z</time>
      </trkpt>
      <trkpt lat="28.7409380" lon="-17.8147120">
        <ele>1713.5</ele>
        <time>2020-11-16T11:19:48Z</time>
      </trkpt>
      <trkpt lat="28.7409450" lon="-17.8147500">
        <ele>1713.8</ele>
        <time>2020-11-16T11:19:49Z</time>
      </trkpt>
      <trkpt lat="28.7409280" lon="-17.8147820">
        <ele>1714.1</ele>
        <time>2020-11-16T11:19:50Z</time>
      </trkpt>
      <trkpt lat="28.7409280" lon="-17.8147820">
        <ele>1714.1</ele>
        <time>2020-11-16T11:19:51Z</time>
      </trkpt>
      <trkpt lat="28.7408650" lon="-17.8148280">
        <ele>1714.9</ele>
        <time>2020-11-16T11:19:52Z</time>
      </trkpt>
      <trkpt lat="28.7408650" lon="-17.8148280">
        <ele>1714.9</ele>
        <time>2020-11-16T11:19:53Z</time>
      </trkpt>
      <trkpt lat="28.7408300" lon="-17.8148650">
        <ele>1715.3</ele>
        <time>2020-11-16T11:19:54Z</time>
      </trkpt>
      <trkpt lat="28.7408300" lon="-17.8148650">
        <ele>1715.3</ele>
        <time>2020-11-16T11:19:55Z</time>
      </trkpt>
      <trkpt lat="28.7407900" lon="-17.8149120">
        <ele>1715.8</ele>
        <time>2020-11-16T11:19:56Z</time>
      </trkpt>
      <trkpt lat="28.7407900" lon="-17.8149120">
        <ele>1715.8</ele>
        <time>2020-11-16T11:19:57Z</time>
      </trkpt>
      <trkpt lat="28.7407620" lon="-17.8149380">
        <ele>1716.2</ele>
        <time>2020-11-16T11:19:58Z</time>
      </trkpt>
      <trkpt lat="28.7407480" lon="-17.8149520">
        <ele>1716.3</ele>
        <time>2020-11-16T11:19:59Z</time>
      </trkpt>
      <trkpt lat="28.7407420" lon="-17.8149730">
        <ele>1716.5</ele>
        <time>2020-11-16T11:20:00Z</time>
      </trkpt>
      <trkpt lat="28.7407350" lon="-17.8149950">
        <ele>1716.7</ele>
        <time>2020-11-16T11:20:01Z</time>
      </trkpt>
      <trkpt lat="28.7407350" lon="-17.8149950">
        <ele>1716.7</ele>
        <time>2020-11-16T11:20:02Z</time>
      </trkpt>
      <trkpt lat="28.7407170" lon="-17.8150220">
        <ele>1717.0</ele>
        <time>2020-11-16T11:20:03Z</time>
      </trkpt>
      <trkpt lat="28.7407170" lon="-17.8150220">
        <ele>1717.0</ele>
        <time>2020-11-16T11:20:04Z</time>
      </trkpt>
      <trkpt lat="28.7406970" lon="-17.8150550">
        <ele>1717.3</ele>
        <time>2020-11-16T11:20:05Z</time>
      </trkpt>
      <trkpt lat="28.7406970" lon="-17.8150550">
        <ele>1717.3</ele>
        <time>2020-11-16T11:20:06Z</time>
      </trkpt>
      <trkpt lat="28.7406850" lon="-17.8150970">
        <ele>1717.7</ele>
        <time>2020-11-16T11:20:07Z</time>
      </trkpt>
      <trkpt lat="28.7406850" lon="-17.8150970">
        <ele>1717.7</ele>
        <time>2020-11-16T11:20:08Z</time>
      </trkpt>
      <trkpt lat="28.7406770" lon="-17.8151380">
        <ele>1718.1</ele>
        <time>2020-11-16T11:20:09Z</time>
      </trkpt>
      <trkpt lat="28.7406730" lon="-17.8151570">
        <ele>1718.3</ele>
        <time>2020-11-16T11:20:10Z</time>
      </trkpt>
      <trkpt lat="28.7406730" lon="-17.8151570">
        <ele>1718.3</ele>
        <time>2020-11-16T11:20:11Z</time>
      </trkpt>
      <trkpt lat="28.7406620" lon="-17.8151800">
        <ele>1718.5</ele>
        <time>2020-11-16T11:20:12Z</time>
      </trkpt>
      <trkpt lat="28.7406730" lon="-17.8152020">
        <ele>1718.8</ele>
        <time>2020-11-16T11:20:13Z</time>
      </trkpt>
      <trkpt lat="28.7406730" lon="-17.8152020">
        <ele>1718.8</ele>
        <time>2020-11-16T11:20:14Z</time>
      </trkpt>
      <trkpt lat="28.7406980" lon="-17.8152900">
        <ele>1719.7</ele>
        <time>2020-11-16T11:20:15Z</time>
      </trkpt>
      <trkpt lat="28.7407050" lon="-17.8153180">
        <ele>1720.0</ele>
        <time>2020-11-16T11:20:16Z</time>
      </trkpt>
      <trkpt lat="28.7407050" lon="-17.8153180">
        <ele>1720.0</ele>
        <time>2020-11-16T11:20:17Z</time>
      </trkpt>
      <trkpt lat="28.7407280" lon="-17.8153780">
        <ele>1720.6</ele>
        <time>2020-11-16T11:20:18Z</time>
      </trkpt>
      <trkpt lat="28.7407320" lon="-17.8153930">
        <ele>1720.7</ele>
        <time>2020-11-16T11:20:19Z</time>
      </trkpt>
      <trkpt lat="28.7407470" lon="-17.8154180">
        <ele>1721.0</ele>
        <time>2020-11-16T11:20:20Z</time>
      </trkpt>
      <trkpt lat="28.7407470" lon="-17.8154180">
        <ele>1721.0</ele>
        <time>2020-11-16T11:20:21Z</time>
      </trkpt>
      <trkpt lat="28.7407580" lon="-17.8154430">
        <ele>1721.3</ele>
        <time>2020-11-16T11:20:22Z</time>
      </trkpt>
      <trkpt lat="28.7407670" lon="-17.8154720">
        <ele>1721.5</ele>
        <time>2020-11-16T11:20:23Z</time>
      </trkpt>
      <trkpt lat="28.7407700" lon="-17.8154900">
        <ele>1721.7</ele>
        <time>2020-11-16T11:20:24Z</time>
      </trkpt>
      <trkpt lat="28.7407700" lon="-17.8154900">
        <ele>1721.7</ele>
        <time>2020-11-16T11:20:25Z</time>
      </trkpt>
      <trkpt lat="28.7407700" lon="-17.8155320">
        <ele>1722.1</ele>
        <time>2020-11-16T11:20:26Z</time>
      </trkpt>
      <trkpt lat="28.7407770" lon="-17.8155480">
        <ele>1722.3</ele>
        <time>2020-11-16T11:20:27Z</time>
      </trkpt>
      <trkpt lat="28.7407770" lon="-17.8155480">
        <ele>1722.3</ele>
        <time>2020-11-16T11:20:28Z</time>
      </trkpt>
      <trkpt lat="28.7407820" lon="-17.8155750">
        <ele>1722.5</ele>
        <time>2020-11-16T11:20:29Z</time>
      </trkpt>
      <trkpt lat="28.7407820" lon="-17.8155750">
        <ele>1722.5</ele>
        <time>2020-11-16T11:20:30Z</time>
      </trkpt>
      <trkpt lat="28.7407780" lon="-17.8156020">
        <ele>1722.8</ele>
        <time>2020-11-16T11:20:31Z</time>
      </trkpt>
      <trkpt lat="28.7407700" lon="-17.8156250">
        <ele>1723.1</ele>
        <time>2020-11-16T11:20:32Z</time>
      </trkpt>
      <trkpt lat="28.7407700" lon="-17.8156250">
        <ele>1723.1</ele>
        <time>2020-11-16T11:20:33Z</time>
      </trkpt>
      <trkpt lat="28.7407730" lon="-17.8156650">
        <ele>1723.5</ele>
        <time>2020-11-16T11:20:34Z</time>
      </trkpt>
      <trkpt lat="28.7407730" lon="-17.8156650">
        <ele>1723.5</ele>
        <time>2020-11-16T11:20:35Z</time>
      </trkpt>
      <trkpt lat="28.7407780" lon="-17.8157020">
        <ele>1723.8</ele>
        <time>2020-11-16T11:20:36Z</time>
      </trkpt>
      <trkpt lat="28.7407780" lon="-17.8157020">
        <ele>1723.8</ele>
        <time>2020-11-16T11:20:37Z</time>
      </trkpt>
      <trkpt lat="28.7407800" lon="-17.8157370">
        <ele>1724.2</ele>
        <time>2020-11-16T11:20:38Z</time>
      </trkpt>
      <trkpt lat="28.7407800" lon="-17.8157370">
        <ele>1724.2</ele>
        <time>2020-11-16T11:20:39Z</time>
      </trkpt>
      <trkpt lat="28.7407880" lon="-17.8157650">
        <ele>1724.4</ele>
        <time>2020-11-16T11:20:40Z</time>
      </trkpt>
      <trkpt lat="28.7407850" lon="-17.8157820">
        <ele>1724.6</ele>
        <time>2020-11-16T11:20:41Z</time>
      </trkpt>
      <trkpt lat="28.7407850" lon="-17.8157820">
        <ele>1724.6</ele>
        <time>2020-11-16T11:20:42Z</time>
      </trkpt>
      <trkpt lat="28.7407830" lon="-17.8158100">
        <ele>1724.9</ele>
        <time>2020-11-16T11:20:43Z</time>
      </trkpt>
      <trkpt lat="28.7407850" lon="-17.8158220">
        <ele>1725.0</ele>
        <time>2020-11-16T11:20:44Z</time>
      </trkpt>
      <trkpt lat="28.7407850" lon="-17.8158220">
        <ele>1725.0</ele>
        <time>2020-11-16T11:20:45Z</time>
      </trkpt>
      <trkpt lat="28.7407670" lon="-17.8158480">
        <ele>1725.3</ele>
        <time>2020-11-16T11:20:46Z</time>
      </trkpt>
      <trkpt lat="28.7407670" lon="-17.8158480">
        <ele>1725.3</ele>
        <time>2020-11-16T11:20:47Z</time>
      </trkpt>
      <trkpt lat="28.7407550" lon="-17.8158750">
        <ele>1725.6</ele>
        <time>2020-11-16T11:20:48Z</time>
      </trkpt>
      <trkpt lat="28.7407550" lon="-17.8158750">
        <ele>1725.6</ele>
        <time>2020-11-16T11:20:49Z</time>
      </trkpt>
      <trkpt lat="28.7407500" lon="-17.8159050">
        <ele>1725.9</ele>
        <time>2020-11-16T11:20:50Z</time>
      </trkpt>
      <trkpt lat="28.7407500" lon="-17.8159050">
        <ele>1725.9</ele>
        <time>2020-11-16T11:20:51Z</time>
      </trkpt>
      <trkpt lat="28.7407420" lon="-17.8159320">
        <ele>1726.2</ele>
        <time>2020-11-16T11:20:52Z</time>
      </trkpt>
      <trkpt lat="28.7407370" lon="-17.8159480">
        <ele>1726.4</ele>
        <time>2020-11-16T11:20:53Z</time>
      </trkpt>
      <trkpt lat="28.7407370" lon="-17.8159480">
        <ele>1726.4</ele>
        <time>2020-11-16T11:20:54Z</time>
      </trkpt>
      <trkpt lat="28.7407300" lon="-17.8160000">
        <ele>1727.0</ele>
        <time>2020-11-16T11:20:55Z</time>
      </trkpt>
      <trkpt lat="28.7407280" lon="-17.8160220">
        <ele>1727.3</ele>
        <time>2020-11-16T11:20:56Z</time>
      </trkpt>
      <trkpt lat="28.7407280" lon="-17.8160220">
        <ele>1727.3</ele>
        <time>2020-11-16T11:20:57Z</time>
      </trkpt>
      <trkpt lat="28.7407050" lon="-17.8160780">
        <ele>1728.0</ele>
        <time>2020-11-16T11:20:58Z</time>
      </trkpt>
      <trkpt lat="28.7407050" lon="-17.8160780">
        <ele>1728.0</ele>
        <time>2020-11-16T11:20:59Z</time>
      </trkpt>
      <trkpt lat="28.7406970" lon="-17.8161100">
        <ele>1728.4</ele>
        <time>2020-11-16T11:21:00Z</time>
      </trkpt>
      <trkpt lat="28.7406970" lon="-17.8161100">
        <ele>1728.4</ele>
        <time>2020-11-16T11:21:01Z</time>
      </trkpt>
      <trkpt lat="28.7407030" lon="-17.8161430">
        <ele>1728.8</ele>
        <time>2020-11-16T11:21:02Z</time>
      </trkpt>
      <trkpt lat="28.7407030" lon="-17.8161430">
        <ele>1728.8</ele>
        <time>2020-11-16T11:21:03Z</time>
      </trkpt>
      <trkpt lat="28.7407230" lon="-17.8161730">
        <ele>1729.3</ele>
        <time>2020-11-16T11:21:04Z</time>
      </trkpt>
      <trkpt lat="28.7407230" lon="-17.8161730">
        <ele>1729.3</ele>
        <time>2020-11-16T11:21:05Z</time>
      </trkpt>
      <trkpt lat="28.7407450" lon="-17.8162080">
        <ele>1729.7</ele>
        <time>2020-11-16T11:21:06Z</time>
      </trkpt>
      <trkpt lat="28.7407450" lon="-17.8162080">
        <ele>1729.7</ele>
        <time>2020-11-16T11:21:07Z</time>
      </trkpt>
      <trkpt lat="28.7407570" lon="-17.8162500">
        <ele>1730.2</ele>
        <time>2020-11-16T11:21:08Z</time>
      </trkpt>
      <trkpt lat="28.7407570" lon="-17.8162500">
        <ele>1730.2</ele>
        <time>2020-11-16T11:21:09Z</time>
      </trkpt>
      <trkpt lat="28.7407720" lon="-17.8162880">
        <ele>1730.6</ele>
        <time>2020-11-16T11:21:10Z</time>
      </trkpt>
      <trkpt lat="28.7407720" lon="-17.8162880">
        <ele>1730.6</ele>
        <time>2020-11-16T11:21:11Z</time>
      </trkpt>
      <trkpt lat="28.7407780" lon="-17.8163250">
        <ele>1730.9</ele>
        <time>2020-11-16T11:21:12Z</time>
      </trkpt>
      <trkpt lat="28.7407780" lon="-17.8163250">
        <ele>1730.9</ele>
        <time>2020-11-16T11:21:13Z</time>
      </trkpt>
      <trkpt lat="28.7407770" lon="-17.8163670">
        <ele>1731.4</ele>
        <time>2020-11-16T11:21:14Z</time>
      </trkpt>
      <trkpt lat="28.7407770" lon="-17.8163670">
        <ele>1731.6</ele>
        <time>2020-11-16T11:21:15Z</time>
      </trkpt>
      <trkpt lat="28.7407630" lon="-17.8163920">
        <ele>1731.6</ele>
        <time>2020-11-16T11:21:16Z</time>
      </trkpt>
      <trkpt lat="28.7407630" lon="-17.8163920">
        <ele>1731.6</ele>
        <time>2020-11-16T11:21:17Z</time>
      </trkpt>
      <trkpt lat="28.7407300" lon="-17.8163830">
        <ele>1731.5</ele>
        <time>2020-11-16T11:21:18Z</time>
      </trkpt>
      <trkpt lat="28.7407300" lon="-17.8163830">
        <ele>1731.5</ele>
        <time>2020-11-16T11:21:19Z</time>
      </trkpt>
      <trkpt lat="28.7406950" lon="-17.8163750">
        <ele>1731.5</ele>
        <time>2020-11-16T11:21:20Z</time>
      </trkpt>
      <trkpt lat="28.7406950" lon="-17.8163750">
        <ele>1731.5</ele>
        <time>2020-11-16T11:21:21Z</time>
      </trkpt>
      <trkpt lat="28.7406630" lon="-17.8163530">
        <ele>1731.4</ele>
        <time>2020-11-16T11:21:22Z</time>
      </trkpt>
      <trkpt lat="28.7406630" lon="-17.8163530">
        <ele>1731.4</ele>
        <time>2020-11-16T11:21:23Z</time>
      </trkpt>
      <trkpt lat="28.7406420" lon="-17.8163350">
        <ele>1731.4</ele>
        <time>2020-11-16T11:21:24Z</time>
      </trkpt>
      <trkpt lat="28.7406420" lon="-17.8163350">
        <ele>1731.4</ele>
        <time>2020-11-16T11:21:25Z</time>
      </trkpt>
      <trkpt lat="28.7406180" lon="-17.8163020">
        <ele>1731.3</ele>
        <time>2020-11-16T11:21:26Z</time>
      </trkpt>
      <trkpt lat="28.7406150" lon="-17.8162820">
        <ele>1731.2</ele>
        <time>2020-11-16T11:21:27Z</time>
      </trkpt>
      <trkpt lat="28.7406150" lon="-17.8162820">
        <ele>1731.2</ele>
        <time>2020-11-16T11:21:28Z</time>
      </trkpt>
      <trkpt lat="28.7406030" lon="-17.8162720">
        <ele>1731.2</ele>
        <time>2020-11-16T11:21:29Z</time>
      </trkpt>
      <trkpt lat="28.7406030" lon="-17.8162720">
        <ele>1731.2</ele>
        <time>2020-11-16T11:21:30Z</time>
      </trkpt>
      <trkpt lat="28.7405850" lon="-17.8162620">
        <ele>1731.1</ele>
        <time>2020-11-16T11:21:31Z</time>
      </trkpt>
      <trkpt lat="28.7405900" lon="-17.8162480">
        <ele>1731.1</ele>
        <time>2020-11-16T11:21:32Z</time>
      </trkpt>
      <trkpt lat="28.7405900" lon="-17.8162480">
        <ele>1731.1</ele>
        <time>2020-11-16T11:21:33Z</time>
      </trkpt>
      <trkpt lat="28.7406030" lon="-17.8162320">
        <ele>1731.0</ele>
        <time>2020-11-16T11:21:34Z</time>
      </trkpt>
      <trkpt lat="28.7406030" lon="-17.8162320">
        <ele>1731.0</ele>
        <time>2020-11-16T11:21:35Z</time>
      </trkpt>
      <trkpt lat="28.7406150" lon="-17.8162070">
        <ele>1730.9</ele>
        <time>2020-11-16T11:21:36Z</time>
      </trkpt>
      <trkpt lat="28.7406150" lon="-17.8162070">
        <ele>1730.9</ele>
        <time>2020-11-16T11:21:37Z</time>
      </trkpt>
      <trkpt lat="28.7406280" lon="-17.8161920">
        <ele>1730.8</ele>
        <time>2020-11-16T11:21:38Z</time>
      </trkpt>
      <trkpt lat="28.7406280" lon="-17.8161920">
        <ele>1730.8</ele>
        <time>2020-11-16T11:21:39Z</time>
      </trkpt>
      <trkpt lat="28.7406580" lon="-17.8162050">
        <ele>1730.7</ele>
        <time>2020-11-16T11:21:40Z</time>
      </trkpt>
      <trkpt lat="28.7406670" lon="-17.8161920">
        <ele>1730.6</ele>
        <time>2020-11-16T11:21:41Z</time>
      </trkpt>
      <trkpt lat="28.7406670" lon="-17.8161920">
        <ele>1730.6</ele>
        <time>2020-11-16T11:21:42Z</time>
      </trkpt>
      <trkpt lat="28.7406730" lon="-17.8161650">
        <ele>1730.5</ele>
        <time>2020-11-16T11:21:43Z</time>
      </trkpt>
      <trkpt lat="28.7406800" lon="-17.8161420">
        <ele>1730.5</ele>
        <time>2020-11-16T11:21:44Z</time>
      </trkpt>
      <trkpt lat="28.7406800" lon="-17.8161420">
        <ele>1730.5</ele>
        <time>2020-11-16T11:21:45Z</time>
      </trkpt>
      <trkpt lat="28.7406930" lon="-17.8161020">
        <ele>1730.3</ele>
        <time>2020-11-16T11:21:46Z</time>
      </trkpt>
      <trkpt lat="28.7406930" lon="-17.8161020">
        <ele>1730.3</ele>
        <time>2020-11-16T11:21:47Z</time>
      </trkpt>
      <trkpt lat="28.7406880" lon="-17.8160450">
        <ele>1730.2</ele>
        <time>2020-11-16T11:21:48Z</time>
      </trkpt>
      <trkpt lat="28.7406880" lon="-17.8160450">
        <ele>1730.2</ele>
        <time>2020-11-16T11:21:49Z</time>
      </trkpt>
      <trkpt lat="28.7406550" lon="-17.8159470">
        <ele>1730.0</ele>
        <time>2020-11-16T11:21:50Z</time>
      </trkpt>
      <trkpt lat="28.7406550" lon="-17.8159470">
        <ele>1730.0</ele>
        <time>2020-11-16T11:21:51Z</time>
      </trkpt>
      <trkpt lat="28.7406150" lon="-17.8158620">
        <ele>1729.9</ele>
        <time>2020-11-16T11:21:52Z</time>
      </trkpt>
      <trkpt lat="28.7406150" lon="-17.8158620">
        <ele>1729.9</ele>
        <time>2020-11-16T11:21:53Z</time>
      </trkpt>
      <trkpt lat="28.7405900" lon="-17.8157900">
        <ele>1729.8</ele>
        <time>2020-11-16T11:21:54Z</time>
      </trkpt>
      <trkpt lat="28.7405870" lon="-17.8157720">
        <ele>1729.7</ele>
        <time>2020-11-16T11:21:55Z</time>
      </trkpt>
      <trkpt lat="28.7405870" lon="-17.8157720">
        <ele>1729.7</ele>
        <time>2020-11-16T11:21:56Z</time>
      </trkpt>
      <trkpt lat="28.7405800" lon="-17.8157400">
        <ele>1729.7</ele>
        <time>2020-11-16T11:21:57Z</time>
      </trkpt>
      <trkpt lat="28.7405800" lon="-17.8157400">
        <ele>1729.7</ele>
        <time>2020-11-16T11:21:58Z</time>
      </trkpt>
      <trkpt lat="28.7405770" lon="-17.8157130">
        <ele>1729.7</ele>
        <time>2020-11-16T11:21:59Z</time>
      </trkpt>
      <trkpt lat="28.7405670" lon="-17.8156970">
        <ele>1729.6</ele>
        <time>2020-11-16T11:22:00Z</time>
      </trkpt>
      <trkpt lat="28.7405670" lon="-17.8156970">
        <ele>1729.6</ele>
        <time>2020-11-16T11:22:01Z</time>
      </trkpt>
      <trkpt lat="28.7405420" lon="-17.8156600">
        <ele>1729.6</ele>
        <time>2020-11-16T11:22:02Z</time>
      </trkpt>
      <trkpt lat="28.7405420" lon="-17.8156600">
        <ele>1729.6</ele>
        <time>2020-11-16T11:22:03Z</time>
      </trkpt>
      <trkpt lat="28.7405050" lon="-17.8156030">
        <ele>1729.4</ele>
        <time>2020-11-16T11:22:04Z</time>
      </trkpt>
      <trkpt lat="28.7405050" lon="-17.8156030">
        <ele>1729.4</ele>
        <time>2020-11-16T11:22:05Z</time>
      </trkpt>
      <trkpt lat="28.7404730" lon="-17.8155570">
        <ele>1729.3</ele>
        <time>2020-11-16T11:22:06Z</time>
      </trkpt>
      <trkpt lat="28.7404730" lon="-17.8155570">
        <ele>1729.3</ele>
        <time>2020-11-16T11:22:07Z</time>
      </trkpt>
      <trkpt lat="28.7404500" lon="-17.8155270">
        <ele>1729.2</ele>
        <time>2020-11-16T11:22:08Z</time>
      </trkpt>
      <trkpt lat="28.7404500" lon="-17.8155270">
        <ele>1729.2</ele>
        <time>2020-11-16T11:22:09Z</time>
      </trkpt>
      <trkpt lat="28.7404200" lon="-17.8155020">
        <ele>1729.2</ele>
        <time>2020-11-16T11:22:10Z</time>
      </trkpt>
      <trkpt lat="28.7404030" lon="-17.8154880">
        <ele>1729.1</ele>
        <time>2020-11-16T11:22:11Z</time>
      </trkpt>
      <trkpt lat="28.7403870" lon="-17.8154720">
        <ele>1729.1</ele>
        <time>2020-11-16T11:22:12Z</time>
      </trkpt>
      <trkpt lat="28.7403870" lon="-17.8154720">
        <ele>1729.1</ele>
        <time>2020-11-16T11:22:13Z</time>
      </trkpt>
      <trkpt lat="28.7403620" lon="-17.8154480">
        <ele>1729.0</ele>
        <time>2020-11-16T11:22:14Z</time>
      </trkpt>
      <trkpt lat="28.7403620" lon="-17.8154480">
        <ele>1729.0</ele>
        <time>2020-11-16T11:22:15Z</time>
      </trkpt>
      <trkpt lat="28.7403320" lon="-17.8154370">
        <ele>1729.0</ele>
        <time>2020-11-16T11:22:16Z</time>
      </trkpt>
      <trkpt lat="28.7403320" lon="-17.8154370">
        <ele>1729.0</ele>
        <time>2020-11-16T11:22:17Z</time>
      </trkpt>
      <trkpt lat="28.7403100" lon="-17.8154300">
        <ele>1729.0</ele>
        <time>2020-11-16T11:22:18Z</time>
      </trkpt>
      <trkpt lat="28.7403100" lon="-17.8154300">
        <ele>1729.0</ele>
        <time>2020-11-16T11:22:19Z</time>
      </trkpt>
      <trkpt lat="28.7402970" lon="-17.8154270">
        <ele>1728.9</ele>
        <time>2020-11-16T11:22:20Z</time>
      </trkpt>
      <trkpt lat="28.7402970" lon="-17.8154270">
        <ele>1728.9</ele>
        <time>2020-11-16T11:22:21Z</time>
      </trkpt>
      <trkpt lat="28.7402770" lon="-17.8154120">
        <ele>1728.9</ele>
        <time>2020-11-16T11:22:22Z</time>
      </trkpt>
      <trkpt lat="28.7402770" lon="-17.8154120">
        <ele>1728.9</ele>
        <time>2020-11-16T11:22:23Z</time>
      </trkpt>
      <trkpt lat="28.7402650" lon="-17.8154130">
        <ele>1728.9</ele>
        <time>2020-11-16T11:22:24Z</time>
      </trkpt>
      <trkpt lat="28.7402630" lon="-17.8154100">
        <ele>1728.9</ele>
        <time>2020-11-16T11:22:25Z</time>
      </trkpt>
      <trkpt lat="28.7402630" lon="-17.8154100">
        <ele>1728.9</ele>
        <time>2020-11-16T11:22:26Z</time>
      </trkpt>
      <trkpt lat="28.7402530" lon="-17.8154030">
        <ele>1726.7</ele>
        <time>2020-11-16T11:22:27Z</time>
      </trkpt>
      <trkpt lat="28.7402530" lon="-17.8154030">
        <ele>1726.7</ele>
        <time>2020-11-16T11:22:28Z</time>
      </trkpt>
      <trkpt lat="28.7402400" lon="-17.8153930">
        <ele>1726.5</ele>
        <time>2020-11-16T11:22:29Z</time>
      </trkpt>
      <trkpt lat="28.7402400" lon="-17.8153930">
        <ele>1726.5</ele>
        <time>2020-11-16T11:22:30Z</time>
      </trkpt>
      <trkpt lat="28.7402400" lon="-17.8153930">
        <ele>1726.5</ele>
        <time>2020-11-16T11:22:31Z</time>
      </trkpt>
      <trkpt lat="28.7402400" lon="-17.8153930">
        <ele>1726.5</ele>
        <time>2020-11-16T11:22:32Z</time>
      </trkpt>
      <trkpt lat="28.7402400" lon="-17.8153930">
        <ele>1726.5</ele>
        <time>2020-11-16T11:22:33Z</time>
      </trkpt>
      <trkpt lat="28.7402400" lon="-17.8153930">
        <ele>1726.5</ele>
        <time>2020-11-16T11:23:27Z</time>
      </trkpt>
      <trkpt lat="28.7402220" lon="-17.8153930">
        <ele>1726.3</ele>
        <time>2020-11-16T11:23:28Z</time>
      </trkpt>
      <trkpt lat="28.7402250" lon="-17.8153850">
        <ele>1726.3</ele>
        <time>2020-11-16T11:23:29Z</time>
      </trkpt>
      <trkpt lat="28.7402250" lon="-17.8153850">
        <ele>1726.3</ele>
        <time>2020-11-16T11:23:30Z</time>
      </trkpt>
      <trkpt lat="28.7402170" lon="-17.8153550">
        <ele>1726.0</ele>
        <time>2020-11-16T11:23:31Z</time>
      </trkpt>
      <trkpt lat="28.7402050" lon="-17.8153280">
        <ele>1725.7</ele>
        <time>2020-11-16T11:23:32Z</time>
      </trkpt>
      <trkpt lat="28.7402050" lon="-17.8153280">
        <ele>1725.7</ele>
        <time>2020-11-16T11:23:33Z</time>
      </trkpt>
      <trkpt lat="28.7401880" lon="-17.8152600">
        <ele>1725.0</ele>
        <time>2020-11-16T11:23:34Z</time>
      </trkpt>
      <trkpt lat="28.7401880" lon="-17.8152600">
        <ele>1725.0</ele>
        <time>2020-11-16T11:23:35Z</time>
      </trkpt>
      <trkpt lat="28.7401670" lon="-17.8151780">
        <ele>1724.1</ele>
        <time>2020-11-16T11:23:36Z</time>
      </trkpt>
      <trkpt lat="28.7401580" lon="-17.8151330">
        <ele>1723.7</ele>
        <time>2020-11-16T11:23:37Z</time>
      </trkpt>
      <trkpt lat="28.7401580" lon="-17.8151330">
        <ele>1723.7</ele>
        <time>2020-11-16T11:23:38Z</time>
      </trkpt>
      <trkpt lat="28.7401470" lon="-17.8150470">
        <ele>1722.9</ele>
        <time>2020-11-16T11:23:39Z</time>
      </trkpt>
      <trkpt lat="28.7401380" lon="-17.8150020">
        <ele>1722.5</ele>
        <time>2020-11-16T11:23:40Z</time>
      </trkpt>
      <trkpt lat="28.7401380" lon="-17.8150020">
        <ele>1722.5</ele>
        <time>2020-11-16T11:23:41Z</time>
      </trkpt>
      <trkpt lat="28.7401150" lon="-17.8149080">
        <ele>1721.9</ele>
        <time>2020-11-16T11:23:42Z</time>
      </trkpt>
      <trkpt lat="28.7401150" lon="-17.8149080">
        <ele>1721.9</ele>
        <time>2020-11-16T11:23:43Z</time>
      </trkpt>
      <trkpt lat="28.7400920" lon="-17.8148250">
        <ele>1721.3</ele>
        <time>2020-11-16T11:23:44Z</time>
      </trkpt>
      <trkpt lat="28.7400920" lon="-17.8148250">
        <ele>1721.3</ele>
        <time>2020-11-16T11:23:45Z</time>
      </trkpt>
      <trkpt lat="28.7400670" lon="-17.8147580">
        <ele>1720.9</ele>
        <time>2020-11-16T11:23:46Z</time>
      </trkpt>
      <trkpt lat="28.7400550" lon="-17.8147220">
        <ele>1720.7</ele>
        <time>2020-11-16T11:23:47Z</time>
      </trkpt>
      <trkpt lat="28.7400550" lon="-17.8147220">
        <ele>1720.7</ele>
        <time>2020-11-16T11:23:48Z</time>
      </trkpt>
      <trkpt lat="28.7400350" lon="-17.8146380">
        <ele>1720.3</ele>
        <time>2020-11-16T11:23:49Z</time>
      </trkpt>
      <trkpt lat="28.7400350" lon="-17.8146380">
        <ele>1720.3</ele>
        <time>2020-11-16T11:23:50Z</time>
      </trkpt>
      <trkpt lat="28.7400230" lon="-17.8145580">
        <ele>1719.9</ele>
        <time>2020-11-16T11:23:51Z</time>
      </trkpt>
      <trkpt lat="28.7400230" lon="-17.8145580">
        <ele>1719.9</ele>
        <time>2020-11-16T11:23:52Z</time>
      </trkpt>
      <trkpt lat="28.7400150" lon="-17.8145020">
        <ele>1719.8</ele>
        <time>2020-11-16T11:23:53Z</time>
      </trkpt>
      <trkpt lat="28.7400150" lon="-17.8145020">
        <ele>1719.8</ele>
        <time>2020-11-16T11:23:54Z</time>
      </trkpt>
      <trkpt lat="28.7400020" lon="-17.8144600">
        <ele>1719.7</ele>
        <time>2020-11-16T11:23:55Z</time>
      </trkpt>
      <trkpt lat="28.7400000" lon="-17.8144400">
        <ele>1719.6</ele>
        <time>2020-11-16T11:23:56Z</time>
      </trkpt>
      <trkpt lat="28.7400000" lon="-17.8144400">
        <ele>1719.6</ele>
        <time>2020-11-16T11:23:57Z</time>
      </trkpt>
      <trkpt lat="28.7399970" lon="-17.8143980">
        <ele>1719.6</ele>
        <time>2020-11-16T11:23:58Z</time>
      </trkpt>
      <trkpt lat="28.7399970" lon="-17.8143980">
        <ele>1719.6</ele>
        <time>2020-11-16T11:23:59Z</time>
      </trkpt>
      <trkpt lat="28.7399770" lon="-17.8143280">
        <ele>1719.5</ele>
        <time>2020-11-16T11:24:00Z</time>
      </trkpt>
      <trkpt lat="28.7399770" lon="-17.8143280">
        <ele>1719.5</ele>
        <time>2020-11-16T11:24:01Z</time>
      </trkpt>
      <trkpt lat="28.7399570" lon="-17.8142670">
        <ele>1719.5</ele>
        <time>2020-11-16T11:24:02Z</time>
      </trkpt>
      <trkpt lat="28.7399570" lon="-17.8142670">
        <ele>1719.5</ele>
        <time>2020-11-16T11:24:03Z</time>
      </trkpt>
      <trkpt lat="28.7399280" lon="-17.8142030">
        <ele>1719.6</ele>
        <time>2020-11-16T11:24:04Z</time>
      </trkpt>
      <trkpt lat="28.7399170" lon="-17.8141850">
        <ele>1719.6</ele>
        <time>2020-11-16T11:24:05Z</time>
      </trkpt>
      <trkpt lat="28.7399170" lon="-17.8141850">
        <ele>1719.6</ele>
        <time>2020-11-16T11:24:06Z</time>
      </trkpt>
      <trkpt lat="28.7398980" lon="-17.8141550">
        <ele>1719.7</ele>
        <time>2020-11-16T11:24:07Z</time>
      </trkpt>
      <trkpt lat="28.7398980" lon="-17.8141550">
        <ele>1719.7</ele>
        <time>2020-11-16T11:24:08Z</time>
      </trkpt>
      <trkpt lat="28.7398820" lon="-17.8141170">
        <ele>1719.7</ele>
        <time>2020-11-16T11:24:09Z</time>
      </trkpt>
      <trkpt lat="28.7398820" lon="-17.8141170">
        <ele>1719.7</ele>
        <time>2020-11-16T11:24:10Z</time>
      </trkpt>
      <trkpt lat="28.7398500" lon="-17.8140900">
        <ele>1719.8</ele>
        <time>2020-11-16T11:24:11Z</time>
      </trkpt>
      <trkpt lat="28.7398370" lon="-17.8140870">
        <ele>1719.8</ele>
        <time>2020-11-16T11:24:12Z</time>
      </trkpt>
      <trkpt lat="28.7398370" lon="-17.8140870">
        <ele>1719.8</ele>
        <time>2020-11-16T11:24:13Z</time>
      </trkpt>
      <trkpt lat="28.7398220" lon="-17.8141120">
        <ele>1719.8</ele>
        <time>2020-11-16T11:24:14Z</time>
      </trkpt>
      <trkpt lat="28.7398220" lon="-17.8141120">
        <ele>1719.8</ele>
        <time>2020-11-16T11:24:15Z</time>
      </trkpt>
      <trkpt lat="28.7398150" lon="-17.8141330">
        <ele>1719.7</ele>
        <time>2020-11-16T11:24:16Z</time>
      </trkpt>
      <trkpt lat="28.7398150" lon="-17.8141330">
        <ele>1719.7</ele>
        <time>2020-11-16T11:24:17Z</time>
      </trkpt>
      <trkpt lat="28.7398100" lon="-17.8141400">
        <ele>1719.7</ele>
        <time>2020-11-16T11:24:18Z</time>
      </trkpt>
      <trkpt lat="28.7398100" lon="-17.8141400">
        <ele>1719.7</ele>
        <time>2020-11-16T11:25:20Z</time>
      </trkpt>
      <trkpt lat="28.7398100" lon="-17.8141400">
        <ele>1719.7</ele>
        <time>2020-11-16T11:25:21Z</time>
      </trkpt>
      <trkpt lat="28.7398130" lon="-17.8142350">
        <ele>1719.7</ele>
        <time>2020-11-16T11:25:22Z</time>
      </trkpt>
      <trkpt lat="28.7398130" lon="-17.8142350">
        <ele>1719.7</ele>
        <time>2020-11-16T11:25:23Z</time>
      </trkpt>
      <trkpt lat="28.7398270" lon="-17.8142250">
        <ele>1719.7</ele>
        <time>2020-11-16T11:25:24Z</time>
      </trkpt>
      <trkpt lat="28.7398270" lon="-17.8142250">
        <ele>1719.7</ele>
        <time>2020-11-16T11:25:25Z</time>
      </trkpt>
      <trkpt lat="28.7398470" lon="-17.8142250">
        <ele>1719.7</ele>
        <time>2020-11-16T11:25:26Z</time>
      </trkpt>
      <trkpt lat="28.7398480" lon="-17.8142230">
        <ele>1719.7</ele>
        <time>2020-11-16T11:25:27Z</time>
      </trkpt>
      <trkpt lat="28.7398480" lon="-17.8142230">
        <ele>1719.7</ele>
        <time>2020-11-16T11:25:28Z</time>
      </trkpt>
      <trkpt lat="28.7398520" lon="-17.8142220">
        <ele>1719.7</ele>
        <time>2020-11-16T11:25:55Z</time>
      </trkpt>
      <trkpt lat="28.7398900" lon="-17.8141670">
        <ele>1719.6</ele>
        <time>2020-11-16T11:25:56Z</time>
      </trkpt>
      <trkpt lat="28.7398900" lon="-17.8141670">
        <ele>1719.6</ele>
        <time>2020-11-16T11:25:57Z</time>
      </trkpt>
      <trkpt lat="28.7399150" lon="-17.8142200">
        <ele>1719.5</ele>
        <time>2020-11-16T11:25:58Z</time>
      </trkpt>
      <trkpt lat="28.7399150" lon="-17.8142200">
        <ele>1719.5</ele>
        <time>2020-11-16T11:25:59Z</time>
      </trkpt>
      <trkpt lat="28.7399530" lon="-17.8142920">
        <ele>1719.5</ele>
        <time>2020-11-16T11:26:00Z</time>
      </trkpt>
      <trkpt lat="28.7399530" lon="-17.8142920">
        <ele>1719.5</ele>
        <time>2020-11-16T11:26:01Z</time>
      </trkpt>
      <trkpt lat="28.7399580" lon="-17.8143550">
        <ele>1719.6</ele>
        <time>2020-11-16T11:26:02Z</time>
      </trkpt>
      <trkpt lat="28.7399580" lon="-17.8143550">
        <ele>1719.6</ele>
        <time>2020-11-16T11:26:03Z</time>
      </trkpt>
      <trkpt lat="28.7399600" lon="-17.8144070">
        <ele>1719.7</ele>
        <time>2020-11-16T11:26:04Z</time>
      </trkpt>
      <trkpt lat="28.7399630" lon="-17.8144330">
        <ele>1719.7</ele>
        <time>2020-11-16T11:26:05Z</time>
      </trkpt>
      <trkpt lat="28.7399630" lon="-17.8144330">
        <ele>1719.7</ele>
        <time>2020-11-16T11:26:06Z</time>
      </trkpt>
      <trkpt lat="28.7399720" lon="-17.8145000">
        <ele>1719.9</ele>
        <time>2020-11-16T11:26:07Z</time>
      </trkpt>
      <trkpt lat="28.7399720" lon="-17.8145000">
        <ele>1719.9</ele>
        <time>2020-11-16T11:26:08Z</time>
      </trkpt>
      <trkpt lat="28.7399970" lon="-17.8145600">
        <ele>1720.2</ele>
        <time>2020-11-16T11:26:09Z</time>
      </trkpt>
      <trkpt lat="28.7399970" lon="-17.8145600">
        <ele>1720.2</ele>
        <time>2020-11-16T11:26:10Z</time>
      </trkpt>
      <trkpt lat="28.7400230" lon="-17.8146000">
        <ele>1720.4</ele>
        <time>2020-11-16T11:26:11Z</time>
      </trkpt>
      <trkpt lat="28.7400230" lon="-17.8146000">
        <ele>1720.4</ele>
        <time>2020-11-16T11:26:12Z</time>
      </trkpt>
      <trkpt lat="28.7400380" lon="-17.8146330">
        <ele>1720.6</ele>
        <time>2020-11-16T11:26:13Z</time>
      </trkpt>
      <trkpt lat="28.7400380" lon="-17.8146330">
        <ele>1720.6</ele>
        <time>2020-11-16T11:26:14Z</time>
      </trkpt>
      <trkpt lat="28.7400570" lon="-17.8146750">
        <ele>1720.8</ele>
        <time>2020-11-16T11:26:15Z</time>
      </trkpt>
      <trkpt lat="28.7400570" lon="-17.8146750">
        <ele>1720.8</ele>
        <time>2020-11-16T11:26:16Z</time>
      </trkpt>
      <trkpt lat="28.7400620" lon="-17.8147170">
        <ele>1721.1</ele>
        <time>2020-11-16T11:26:17Z</time>
      </trkpt>
      <trkpt lat="28.7400620" lon="-17.8147170">
        <ele>1721.1</ele>
        <time>2020-11-16T11:26:18Z</time>
      </trkpt>
      <trkpt lat="28.7400750" lon="-17.8147530">
        <ele>1721.3</ele>
        <time>2020-11-16T11:26:19Z</time>
      </trkpt>
      <trkpt lat="28.7400820" lon="-17.8147680">
        <ele>1721.4</ele>
        <time>2020-11-16T11:26:20Z</time>
      </trkpt>
      <trkpt lat="28.7400820" lon="-17.8147680">
        <ele>1721.4</ele>
        <time>2020-11-16T11:26:21Z</time>
      </trkpt>
      <trkpt lat="28.7400900" lon="-17.8147980">
        <ele>1721.6</ele>
        <time>2020-11-16T11:26:22Z</time>
      </trkpt>
      <trkpt lat="28.7400970" lon="-17.8148170">
        <ele>1721.7</ele>
        <time>2020-11-16T11:26:23Z</time>
      </trkpt>
      <trkpt lat="28.7400970" lon="-17.8148170">
        <ele>1721.7</ele>
        <time>2020-11-16T11:26:24Z</time>
      </trkpt>
      <trkpt lat="28.7401000" lon="-17.8148600">
        <ele>1721.9</ele>
        <time>2020-11-16T11:26:25Z</time>
      </trkpt>
      <trkpt lat="28.7401120" lon="-17.8148950">
        <ele>1722.2</ele>
        <time>2020-11-16T11:26:26Z</time>
      </trkpt>
      <trkpt lat="28.7401120" lon="-17.8148950">
        <ele>1722.2</ele>
        <time>2020-11-16T11:26:27Z</time>
      </trkpt>
      <trkpt lat="28.7401220" lon="-17.8149350">
        <ele>1722.5</ele>
        <time>2020-11-16T11:26:28Z</time>
      </trkpt>
      <trkpt lat="28.7401270" lon="-17.8149600">
        <ele>1722.7</ele>
        <time>2020-11-16T11:26:29Z</time>
      </trkpt>
      <trkpt lat="28.7401270" lon="-17.8149600">
        <ele>1722.7</ele>
        <time>2020-11-16T11:26:30Z</time>
      </trkpt>
      <trkpt lat="28.7401270" lon="-17.8150150">
        <ele>1723.1</ele>
        <time>2020-11-16T11:26:31Z</time>
      </trkpt>
      <trkpt lat="28.7401330" lon="-17.8150430">
        <ele>1723.4</ele>
        <time>2020-11-16T11:26:32Z</time>
      </trkpt>
      <trkpt lat="28.7401330" lon="-17.8150430">
        <ele>1723.4</ele>
        <time>2020-11-16T11:26:33Z</time>
      </trkpt>
      <trkpt lat="28.7401400" lon="-17.8150670">
        <ele>1723.6</ele>
        <time>2020-11-16T11:26:34Z</time>
      </trkpt>
      <trkpt lat="28.7401400" lon="-17.8150670">
        <ele>1723.6</ele>
        <time>2020-11-16T11:26:35Z</time>
      </trkpt>
      <trkpt lat="28.7401520" lon="-17.8150980">
        <ele>1723.9</ele>
        <time>2020-11-16T11:26:36Z</time>
      </trkpt>
      <trkpt lat="28.7401520" lon="-17.8150980">
        <ele>1723.9</ele>
        <time>2020-11-16T11:26:37Z</time>
      </trkpt>
      <trkpt lat="28.7401630" lon="-17.8151480">
        <ele>1724.4</ele>
        <time>2020-11-16T11:26:38Z</time>
      </trkpt>
      <trkpt lat="28.7401630" lon="-17.8151480">
        <ele>1724.4</ele>
        <time>2020-11-16T11:26:39Z</time>
      </trkpt>
      <trkpt lat="28.7401670" lon="-17.8151920">
        <ele>1724.9</ele>
        <time>2020-11-16T11:26:40Z</time>
      </trkpt>
      <trkpt lat="28.7401670" lon="-17.8151920">
        <ele>1724.9</ele>
        <time>2020-11-16T11:26:41Z</time>
      </trkpt>
      <trkpt lat="28.7401720" lon="-17.8152330">
        <ele>1725.3</ele>
        <time>2020-11-16T11:26:42Z</time>
      </trkpt>
      <trkpt lat="28.7401720" lon="-17.8152330">
        <ele>1725.3</ele>
        <time>2020-11-16T11:26:43Z</time>
      </trkpt>
      <trkpt lat="28.7401750" lon="-17.8152650">
        <ele>1725.6</ele>
        <time>2020-11-16T11:26:44Z</time>
      </trkpt>
      <trkpt lat="28.7401750" lon="-17.8152650">
        <ele>1725.6</ele>
        <time>2020-11-16T11:26:45Z</time>
      </trkpt>
      <trkpt lat="28.7401900" lon="-17.8153020">
        <ele>1726.0</ele>
        <time>2020-11-16T11:26:46Z</time>
      </trkpt>
      <trkpt lat="28.7401980" lon="-17.8153230">
        <ele>1726.2</ele>
        <time>2020-11-16T11:26:47Z</time>
      </trkpt>
      <trkpt lat="28.7401980" lon="-17.8153230">
        <ele>1726.2</ele>
        <time>2020-11-16T11:26:48Z</time>
      </trkpt>
      <trkpt lat="28.7402070" lon="-17.8153530">
        <ele>1726.4</ele>
        <time>2020-11-16T11:26:49Z</time>
      </trkpt>
      <trkpt lat="28.7402070" lon="-17.8153530">
        <ele>1726.4</ele>
        <time>2020-11-16T11:26:50Z</time>
      </trkpt>
      <trkpt lat="28.7402080" lon="-17.8153820">
        <ele>1726.7</ele>
        <time>2020-11-16T11:26:51Z</time>
      </trkpt>
      <trkpt lat="28.7402120" lon="-17.8153920">
        <ele>1726.8</ele>
        <time>2020-11-16T11:26:52Z</time>
      </trkpt>
      <trkpt lat="28.7402120" lon="-17.8153920">
        <ele>1726.8</ele>
        <time>2020-11-16T11:26:53Z</time>
      </trkpt>
      <trkpt lat="28.7402220" lon="-17.8154200">
        <ele>1727.0</ele>
        <time>2020-11-16T11:26:54Z</time>
      </trkpt>
      <trkpt lat="28.7402230" lon="-17.8154330">
        <ele>1727.2</ele>
        <time>2020-11-16T11:26:55Z</time>
      </trkpt>
      <trkpt lat="28.7402270" lon="-17.8154470">
        <ele>1727.3</ele>
        <time>2020-11-16T11:26:56Z</time>
      </trkpt>
      <trkpt lat="28.7402270" lon="-17.8154470">
        <ele>1727.3</ele>
        <time>2020-11-16T11:26:57Z</time>
      </trkpt>
      <trkpt lat="28.7402220" lon="-17.8154730">
        <ele>1727.5</ele>
        <time>2020-11-16T11:26:58Z</time>
      </trkpt>
      <trkpt lat="28.7402170" lon="-17.8154820">
        <ele>1727.6</ele>
        <time>2020-11-16T11:26:59Z</time>
      </trkpt>
      <trkpt lat="28.7402170" lon="-17.8154820">
        <ele>1727.6</ele>
        <time>2020-11-16T11:27:00Z</time>
      </trkpt>
      <trkpt lat="28.7402070" lon="-17.8155080">
        <ele>1727.9</ele>
        <time>2020-11-16T11:27:01Z</time>
      </trkpt>
      <trkpt lat="28.7402070" lon="-17.8155080">
        <ele>1727.9</ele>
        <time>2020-11-16T11:27:02Z</time>
      </trkpt>
      <trkpt lat="28.7401950" lon="-17.8155520">
        <ele>1728.2</ele>
        <time>2020-11-16T11:27:03Z</time>
      </trkpt>
      <trkpt lat="28.7401920" lon="-17.8155750">
        <ele>1728.4</ele>
        <time>2020-11-16T11:27:04Z</time>
      </trkpt>
      <trkpt lat="28.7401920" lon="-17.8155750">
        <ele>1728.4</ele>
        <time>2020-11-16T11:27:05Z</time>
      </trkpt>
      <trkpt lat="28.7401970" lon="-17.8156400">
        <ele>1729.2</ele>
        <time>2020-11-16T11:27:06Z</time>
      </trkpt>
      <trkpt lat="28.7401970" lon="-17.8156400">
        <ele>1729.2</ele>
        <time>2020-11-16T11:27:07Z</time>
      </trkpt>
      <trkpt lat="28.7402120" lon="-17.8156770">
        <ele>1729.5</ele>
        <time>2020-11-16T11:27:08Z</time>
      </trkpt>
      <trkpt lat="28.7402120" lon="-17.8156770">
        <ele>1729.5</ele>
        <time>2020-11-16T11:27:09Z</time>
      </trkpt>
      <trkpt lat="28.7402250" lon="-17.8157070">
        <ele>1729.8</ele>
        <time>2020-11-16T11:27:10Z</time>
      </trkpt>
      <trkpt lat="28.7402250" lon="-17.8157070">
        <ele>1729.8</ele>
        <time>2020-11-16T11:27:11Z</time>
      </trkpt>
      <trkpt lat="28.7402520" lon="-17.8157370">
        <ele>1730.1</ele>
        <time>2020-11-16T11:27:12Z</time>
      </trkpt>
      <trkpt lat="28.7402520" lon="-17.8157370">
        <ele>1730.1</ele>
        <time>2020-11-16T11:27:13Z</time>
      </trkpt>
      <trkpt lat="28.7402770" lon="-17.8157680">
        <ele>1730.4</ele>
        <time>2020-11-16T11:27:14Z</time>
      </trkpt>
      <trkpt lat="28.7402770" lon="-17.8157680">
        <ele>1730.4</ele>
        <time>2020-11-16T11:27:15Z</time>
      </trkpt>
      <trkpt lat="28.7402950" lon="-17.8158020">
        <ele>1730.7</ele>
        <time>2020-11-16T11:27:16Z</time>
      </trkpt>
      <trkpt lat="28.7403050" lon="-17.8158180">
        <ele>1730.8</ele>
        <time>2020-11-16T11:27:17Z</time>
      </trkpt>
      <trkpt lat="28.7403050" lon="-17.8158180">
        <ele>1730.8</ele>
        <time>2020-11-16T11:27:18Z</time>
      </trkpt>
      <trkpt lat="28.7403320" lon="-17.8158470">
        <ele>1731.1</ele>
        <time>2020-11-16T11:27:19Z</time>
      </trkpt>
      <trkpt lat="28.7403430" lon="-17.8158630">
        <ele>1731.3</ele>
        <time>2020-11-16T11:27:20Z</time>
      </trkpt>
      <trkpt lat="28.7403430" lon="-17.8158630">
        <ele>1731.3</ele>
        <time>2020-11-16T11:27:21Z</time>
      </trkpt>
      <trkpt lat="28.7403600" lon="-17.8158970">
        <ele>1731.5</ele>
        <time>2020-11-16T11:27:22Z</time>
      </trkpt>
      <trkpt lat="28.7403600" lon="-17.8158970">
        <ele>1731.5</ele>
        <time>2020-11-16T11:27:23Z</time>
      </trkpt>
      <trkpt lat="28.7403750" lon="-17.8159220">
        <ele>1731.7</ele>
        <time>2020-11-16T11:27:24Z</time>
      </trkpt>
      <trkpt lat="28.7403750" lon="-17.8159220">
        <ele>1731.7</ele>
        <time>2020-11-16T11:27:25Z</time>
      </trkpt>
      <trkpt lat="28.7403780" lon="-17.8159520">
        <ele>1731.9</ele>
        <time>2020-11-16T11:27:26Z</time>
      </trkpt>
      <trkpt lat="28.7403780" lon="-17.8159520">
        <ele>1731.9</ele>
        <time>2020-11-16T11:27:27Z</time>
      </trkpt>
      <trkpt lat="28.7403850" lon="-17.8159870">
        <ele>1732.1</ele>
        <time>2020-11-16T11:27:28Z</time>
      </trkpt>
      <trkpt lat="28.7403850" lon="-17.8159870">
        <ele>1732.1</ele>
        <time>2020-11-16T11:27:29Z</time>
      </trkpt>
      <trkpt lat="28.7403830" lon="-17.8160230">
        <ele>1732.4</ele>
        <time>2020-11-16T11:27:30Z</time>
      </trkpt>
      <trkpt lat="28.7403850" lon="-17.8160370">
        <ele>1732.5</ele>
        <time>2020-11-16T11:27:31Z</time>
      </trkpt>
      <trkpt lat="28.7403850" lon="-17.8160370">
        <ele>1732.5</ele>
        <time>2020-11-16T11:27:32Z</time>
      </trkpt>
      <trkpt lat="28.7403920" lon="-17.8160670">
        <ele>1732.7</ele>
        <time>2020-11-16T11:27:33Z</time>
      </trkpt>
      <trkpt lat="28.7404030" lon="-17.8160900">
        <ele>1732.9</ele>
        <time>2020-11-16T11:27:34Z</time>
      </trkpt>
      <trkpt lat="28.7404030" lon="-17.8160900">
        <ele>1732.9</ele>
        <time>2020-11-16T11:27:35Z</time>
      </trkpt>
      <trkpt lat="28.7404200" lon="-17.8161200">
        <ele>1733.1</ele>
        <time>2020-11-16T11:27:36Z</time>
      </trkpt>
      <trkpt lat="28.7404250" lon="-17.8161470">
        <ele>1733.3</ele>
        <time>2020-11-16T11:27:37Z</time>
      </trkpt>
      <trkpt lat="28.7404250" lon="-17.8161470">
        <ele>1733.3</ele>
        <time>2020-11-16T11:27:38Z</time>
      </trkpt>
      <trkpt lat="28.7404330" lon="-17.8161880">
        <ele>1733.6</ele>
        <time>2020-11-16T11:27:39Z</time>
      </trkpt>
      <trkpt lat="28.7404330" lon="-17.8162030">
        <ele>1733.7</ele>
        <time>2020-11-16T11:27:40Z</time>
      </trkpt>
      <trkpt lat="28.7404330" lon="-17.8162030">
        <ele>1733.7</ele>
        <time>2020-11-16T11:27:41Z</time>
      </trkpt>
      <trkpt lat="28.7404300" lon="-17.8162350">
        <ele>1733.9</ele>
        <time>2020-11-16T11:27:42Z</time>
      </trkpt>
      <trkpt lat="28.7404300" lon="-17.8162350">
        <ele>1733.9</ele>
        <time>2020-11-16T11:27:43Z</time>
      </trkpt>
      <trkpt lat="28.7404330" lon="-17.8162580">
        <ele>1734.1</ele>
        <time>2020-11-16T11:27:44Z</time>
      </trkpt>
      <trkpt lat="28.7404330" lon="-17.8162580">
        <ele>1734.1</ele>
        <time>2020-11-16T11:27:45Z</time>
      </trkpt>
      <trkpt lat="28.7404330" lon="-17.8162870">
        <ele>1734.3</ele>
        <time>2020-11-16T11:27:46Z</time>
      </trkpt>
      <trkpt lat="28.7404350" lon="-17.8163070">
        <ele>1734.4</ele>
        <time>2020-11-16T11:27:47Z</time>
      </trkpt>
      <trkpt lat="28.7404350" lon="-17.8163070">
        <ele>1734.4</ele>
        <time>2020-11-16T11:27:48Z</time>
      </trkpt>
      <trkpt lat="28.7404400" lon="-17.8163500">
        <ele>1734.8</ele>
        <time>2020-11-16T11:27:49Z</time>
      </trkpt>
      <trkpt lat="28.7404430" lon="-17.8163680">
        <ele>1734.9</ele>
        <time>2020-11-16T11:27:50Z</time>
      </trkpt>
      <trkpt lat="28.7404430" lon="-17.8163680">
        <ele>1734.9</ele>
        <time>2020-11-16T11:27:51Z</time>
      </trkpt>
      <trkpt lat="28.7404500" lon="-17.8163920">
        <ele>1735.1</ele>
        <time>2020-11-16T11:27:52Z</time>
      </trkpt>
      <trkpt lat="28.7404500" lon="-17.8163920">
        <ele>1735.1</ele>
        <time>2020-11-16T11:27:53Z</time>
      </trkpt>
      <trkpt lat="28.7404520" lon="-17.8164150">
        <ele>1735.3</ele>
        <time>2020-11-16T11:27:54Z</time>
      </trkpt>
      <trkpt lat="28.7404520" lon="-17.8164150">
        <ele>1735.3</ele>
        <time>2020-11-16T11:27:55Z</time>
      </trkpt>
      <trkpt lat="28.7404580" lon="-17.8164380">
        <ele>1735.5</ele>
        <time>2020-11-16T11:27:56Z</time>
      </trkpt>
      <trkpt lat="28.7404580" lon="-17.8164380">
        <ele>1735.5</ele>
        <time>2020-11-16T11:27:57Z</time>
      </trkpt>
      <trkpt lat="28.7404700" lon="-17.8164700">
        <ele>1735.8</ele>
        <time>2020-11-16T11:27:58Z</time>
      </trkpt>
      <trkpt lat="28.7404700" lon="-17.8164700">
        <ele>1735.8</ele>
        <time>2020-11-16T11:27:59Z</time>
      </trkpt>
      <trkpt lat="28.7404880" lon="-17.8165120">
        <ele>1736.1</ele>
        <time>2020-11-16T11:28:00Z</time>
      </trkpt>
      <trkpt lat="28.7405020" lon="-17.8165330">
        <ele>1736.4</ele>
        <time>2020-11-16T11:28:01Z</time>
      </trkpt>
      <trkpt lat="28.7405150" lon="-17.8165430">
        <ele>1736.5</ele>
        <time>2020-11-16T11:28:02Z</time>
      </trkpt>
      <trkpt lat="28.7405150" lon="-17.8165430">
        <ele>1736.5</ele>
        <time>2020-11-16T11:28:03Z</time>
      </trkpt>
      <trkpt lat="28.7405330" lon="-17.8165800">
        <ele>1736.9</ele>
        <time>2020-11-16T11:28:04Z</time>
      </trkpt>
      <trkpt lat="28.7405500" lon="-17.8166030">
        <ele>1737.2</ele>
        <time>2020-11-16T11:28:05Z</time>
      </trkpt>
      <trkpt lat="28.7405500" lon="-17.8166030">
        <ele>1737.2</ele>
        <time>2020-11-16T11:28:06Z</time>
      </trkpt>
      <trkpt lat="28.7405780" lon="-17.8166300">
        <ele>1737.5</ele>
        <time>2020-11-16T11:28:07Z</time>
      </trkpt>
      <trkpt lat="28.7405850" lon="-17.8166400">
        <ele>1737.7</ele>
        <time>2020-11-16T11:28:08Z</time>
      </trkpt>
      <trkpt lat="28.7405850" lon="-17.8166400">
        <ele>1737.7</ele>
        <time>2020-11-16T11:28:09Z</time>
      </trkpt>
      <trkpt lat="28.7406170" lon="-17.8166750">
        <ele>1738.1</ele>
        <time>2020-11-16T11:28:10Z</time>
      </trkpt>
      <trkpt lat="28.7406170" lon="-17.8166750">
        <ele>1738.1</ele>
        <time>2020-11-16T11:28:11Z</time>
      </trkpt>
      <trkpt lat="28.7406450" lon="-17.8167030">
        <ele>1738.6</ele>
        <time>2020-11-16T11:28:12Z</time>
      </trkpt>
      <trkpt lat="28.7406450" lon="-17.8167030">
        <ele>1738.6</ele>
        <time>2020-11-16T11:28:13Z</time>
      </trkpt>
      <trkpt lat="28.7406700" lon="-17.8167200">
        <ele>1738.9</ele>
        <time>2020-11-16T11:28:14Z</time>
      </trkpt>
      <trkpt lat="28.7406700" lon="-17.8167200">
        <ele>1738.9</ele>
        <time>2020-11-16T11:28:15Z</time>
      </trkpt>
      <trkpt lat="28.7406900" lon="-17.8167320">
        <ele>1739.1</ele>
        <time>2020-11-16T11:28:16Z</time>
      </trkpt>
      <trkpt lat="28.7407000" lon="-17.8167380">
        <ele>1739.3</ele>
        <time>2020-11-16T11:28:17Z</time>
      </trkpt>
      <trkpt lat="28.7407000" lon="-17.8167380">
        <ele>1739.3</ele>
        <time>2020-11-16T11:28:18Z</time>
      </trkpt>
      <trkpt lat="28.7407170" lon="-17.8167530">
        <ele>1739.5</ele>
        <time>2020-11-16T11:28:19Z</time>
      </trkpt>
      <trkpt lat="28.7407250" lon="-17.8167630">
        <ele>1739.6</ele>
        <time>2020-11-16T11:28:20Z</time>
      </trkpt>
      <trkpt lat="28.7407300" lon="-17.8167750">
        <ele>1739.8</ele>
        <time>2020-11-16T11:28:21Z</time>
      </trkpt>
      <trkpt lat="28.7407430" lon="-17.8167930">
        <ele>1740.0</ele>
        <time>2020-11-16T11:28:22Z</time>
      </trkpt>
      <trkpt lat="28.7407430" lon="-17.8167930">
        <ele>1740.0</ele>
        <time>2020-11-16T11:28:23Z</time>
      </trkpt>
      <trkpt lat="28.7407530" lon="-17.8168180">
        <ele>1740.3</ele>
        <time>2020-11-16T11:28:24Z</time>
      </trkpt>
      <trkpt lat="28.7407600" lon="-17.8168320">
        <ele>1740.4</ele>
        <time>2020-11-16T11:28:25Z</time>
      </trkpt>
      <trkpt lat="28.7407600" lon="-17.8168320">
        <ele>1740.4</ele>
        <time>2020-11-16T11:28:26Z</time>
      </trkpt>
      <trkpt lat="28.7407680" lon="-17.8168530">
        <ele>1740.6</ele>
        <time>2020-11-16T11:28:27Z</time>
      </trkpt>
      <trkpt lat="28.7407670" lon="-17.8168670">
        <ele>1740.7</ele>
        <time>2020-11-16T11:28:28Z</time>
      </trkpt>
      <trkpt lat="28.7407670" lon="-17.8168670">
        <ele>1740.7</ele>
        <time>2020-11-16T11:28:29Z</time>
      </trkpt>
      <trkpt lat="28.7407580" lon="-17.8169000">
        <ele>1741.0</ele>
        <time>2020-11-16T11:28:30Z</time>
      </trkpt>
      <trkpt lat="28.7407580" lon="-17.8169000">
        <ele>1741.0</ele>
        <time>2020-11-16T11:28:31Z</time>
      </trkpt>
      <trkpt lat="28.7407420" lon="-17.8169230">
        <ele>1741.3</ele>
        <time>2020-11-16T11:28:32Z</time>
      </trkpt>
      <trkpt lat="28.7407420" lon="-17.8169230">
        <ele>1741.3</ele>
        <time>2020-11-16T11:28:33Z</time>
      </trkpt>
      <trkpt lat="28.7407280" lon="-17.8169520">
        <ele>1741.6</ele>
        <time>2020-11-16T11:28:34Z</time>
      </trkpt>
      <trkpt lat="28.7407200" lon="-17.8169700">
        <ele>1741.7</ele>
        <time>2020-11-16T11:28:35Z</time>
      </trkpt>
      <trkpt lat="28.7407200" lon="-17.8169700">
        <ele>1741.7</ele>
        <time>2020-11-16T11:28:36Z</time>
      </trkpt>
      <trkpt lat="28.7406980" lon="-17.8170150">
        <ele>1742.1</ele>
        <time>2020-11-16T11:28:37Z</time>
      </trkpt>
      <trkpt lat="28.7406980" lon="-17.8170150">
        <ele>1742.1</ele>
        <time>2020-11-16T11:28:38Z</time>
      </trkpt>
      <trkpt lat="28.7406750" lon="-17.8170300">
        <ele>1742.3</ele>
        <time>2020-11-16T11:28:39Z</time>
      </trkpt>
      <trkpt lat="28.7406600" lon="-17.8170370">
        <ele>1742.4</ele>
        <time>2020-11-16T11:28:40Z</time>
      </trkpt>
      <trkpt lat="28.7406480" lon="-17.8170420">
        <ele>1742.5</ele>
        <time>2020-11-16T11:28:41Z</time>
      </trkpt>
      <trkpt lat="28.7406480" lon="-17.8170420">
        <ele>1742.5</ele>
        <time>2020-11-16T11:28:42Z</time>
      </trkpt>
      <trkpt lat="28.7406180" lon="-17.8170470">
        <ele>1742.8</ele>
        <time>2020-11-16T11:28:43Z</time>
      </trkpt>
      <trkpt lat="28.7406030" lon="-17.8170480">
        <ele>1742.9</ele>
        <time>2020-11-16T11:28:44Z</time>
      </trkpt>
      <trkpt lat="28.7406030" lon="-17.8170480">
        <ele>1742.9</ele>
        <time>2020-11-16T11:28:45Z</time>
      </trkpt>
      <trkpt lat="28.7405670" lon="-17.8170320">
        <ele>1743.2</ele>
        <time>2020-11-16T11:28:46Z</time>
      </trkpt>
      <trkpt lat="28.7405670" lon="-17.8170320">
        <ele>1743.2</ele>
        <time>2020-11-16T11:28:47Z</time>
      </trkpt>
      <trkpt lat="28.7405380" lon="-17.8170230">
        <ele>1743.5</ele>
        <time>2020-11-16T11:28:48Z</time>
      </trkpt>
      <trkpt lat="28.7405380" lon="-17.8170230">
        <ele>1743.5</ele>
        <time>2020-11-16T11:28:49Z</time>
      </trkpt>
      <trkpt lat="28.7405100" lon="-17.8170200">
        <ele>1743.7</ele>
        <time>2020-11-16T11:28:50Z</time>
      </trkpt>
      <trkpt lat="28.7405100" lon="-17.8170200">
        <ele>1743.7</ele>
        <time>2020-11-16T11:28:51Z</time>
      </trkpt>
      <trkpt lat="28.7404800" lon="-17.8170050">
        <ele>1744.0</ele>
        <time>2020-11-16T11:28:52Z</time>
      </trkpt>
      <trkpt lat="28.7404800" lon="-17.8170050">
        <ele>1744.0</ele>
        <time>2020-11-16T11:28:53Z</time>
      </trkpt>
      <trkpt lat="28.7404470" lon="-17.8169780">
        <ele>1744.4</ele>
        <time>2020-11-16T11:28:54Z</time>
      </trkpt>
      <trkpt lat="28.7404470" lon="-17.8169780">
        <ele>1744.4</ele>
        <time>2020-11-16T11:28:55Z</time>
      </trkpt>
      <trkpt lat="28.7404130" lon="-17.8169500">
        <ele>1744.8</ele>
        <time>2020-11-16T11:28:56Z</time>
      </trkpt>
      <trkpt lat="28.7403970" lon="-17.8169370">
        <ele>1744.9</ele>
        <time>2020-11-16T11:28:57Z</time>
      </trkpt>
      <trkpt lat="28.7403970" lon="-17.8169370">
        <ele>1744.9</ele>
        <time>2020-11-16T11:28:58Z</time>
      </trkpt>
      <trkpt lat="28.7403650" lon="-17.8169030">
        <ele>1745.2</ele>
        <time>2020-11-16T11:28:59Z</time>
      </trkpt>
      <trkpt lat="28.7403650" lon="-17.8169030">
        <ele>1745.2</ele>
        <time>2020-11-16T11:29:00Z</time>
      </trkpt>
      <trkpt lat="28.7403320" lon="-17.8168730">
        <ele>1745.6</ele>
        <time>2020-11-16T11:29:01Z</time>
      </trkpt>
      <trkpt lat="28.7403320" lon="-17.8168730">
        <ele>1745.6</ele>
        <time>2020-11-16T11:29:02Z</time>
      </trkpt>
      <trkpt lat="28.7403000" lon="-17.8168470">
        <ele>1745.8</ele>
        <time>2020-11-16T11:29:03Z</time>
      </trkpt>
      <trkpt lat="28.7403000" lon="-17.8168470">
        <ele>1745.8</ele>
        <time>2020-11-16T11:29:04Z</time>
      </trkpt>
      <trkpt lat="28.7402670" lon="-17.8168250">
        <ele>1746.1</ele>
        <time>2020-11-16T11:29:05Z</time>
      </trkpt>
      <trkpt lat="28.7402550" lon="-17.8168150">
        <ele>1746.3</ele>
        <time>2020-11-16T11:29:06Z</time>
      </trkpt>
      <trkpt lat="28.7402480" lon="-17.8167900">
        <ele>1746.5</ele>
        <time>2020-11-16T11:29:07Z</time>
      </trkpt>
      <trkpt lat="28.7402300" lon="-17.8167830">
        <ele>1746.6</ele>
        <time>2020-11-16T11:29:08Z</time>
      </trkpt>
      <trkpt lat="28.7402300" lon="-17.8167830">
        <ele>1746.6</ele>
        <time>2020-11-16T11:29:09Z</time>
      </trkpt>
      <trkpt lat="28.7401820" lon="-17.8168000">
        <ele>1747.5</ele>
        <time>2020-11-16T11:29:10Z</time>
      </trkpt>
      <trkpt lat="28.7401820" lon="-17.8168000">
        <ele>1747.5</ele>
        <time>2020-11-16T11:29:11Z</time>
      </trkpt>
      <trkpt lat="28.7401430" lon="-17.8168220">
        <ele>1748.1</ele>
        <time>2020-11-16T11:29:12Z</time>
      </trkpt>
      <trkpt lat="28.7401300" lon="-17.8168350">
        <ele>1748.4</ele>
        <time>2020-11-16T11:29:13Z</time>
      </trkpt>
      <trkpt lat="28.7401300" lon="-17.8168350">
        <ele>1748.4</ele>
        <time>2020-11-16T11:29:14Z</time>
      </trkpt>
      <trkpt lat="28.7401130" lon="-17.8168620">
        <ele>1748.8</ele>
        <time>2020-11-16T11:29:15Z</time>
      </trkpt>
      <trkpt lat="28.7401070" lon="-17.8168730">
        <ele>1749.0</ele>
        <time>2020-11-16T11:29:16Z</time>
      </trkpt>
      <trkpt lat="28.7401070" lon="-17.8168730">
        <ele>1749.0</ele>
        <time>2020-11-16T11:29:17Z</time>
      </trkpt>
      <trkpt lat="28.7400850" lon="-17.8169100">
        <ele>1749.6</ele>
        <time>2020-11-16T11:29:18Z</time>
      </trkpt>
      <trkpt lat="28.7400850" lon="-17.8169100">
        <ele>1749.6</ele>
        <time>2020-11-16T11:29:19Z</time>
      </trkpt>
      <trkpt lat="28.7400550" lon="-17.8169380">
        <ele>1750.0</ele>
        <time>2020-11-16T11:29:20Z</time>
      </trkpt>
      <trkpt lat="28.7400550" lon="-17.8169380">
        <ele>1750.0</ele>
        <time>2020-11-16T11:29:21Z</time>
      </trkpt>
      <trkpt lat="28.7400350" lon="-17.8169620">
        <ele>1750.4</ele>
        <time>2020-11-16T11:29:22Z</time>
      </trkpt>
      <trkpt lat="28.7400350" lon="-17.8169620">
        <ele>1750.4</ele>
        <time>2020-11-16T11:29:23Z</time>
      </trkpt>
      <trkpt lat="28.7400130" lon="-17.8169880">
        <ele>1750.7</ele>
        <time>2020-11-16T11:29:24Z</time>
      </trkpt>
      <trkpt lat="28.7400050" lon="-17.8170020">
        <ele>1750.8</ele>
        <time>2020-11-16T11:29:25Z</time>
      </trkpt>
      <trkpt lat="28.7400050" lon="-17.8170020">
        <ele>1750.8</ele>
        <time>2020-11-16T11:29:26Z</time>
      </trkpt>
      <trkpt lat="28.7399870" lon="-17.8170230">
        <ele>1751.0</ele>
        <time>2020-11-16T11:29:27Z</time>
      </trkpt>
      <trkpt lat="28.7399830" lon="-17.8170330">
        <ele>1751.1</ele>
        <time>2020-11-16T11:29:28Z</time>
      </trkpt>
      <trkpt lat="28.7399800" lon="-17.8170450">
        <ele>1751.2</ele>
        <time>2020-11-16T11:29:29Z</time>
      </trkpt>
      <trkpt lat="28.7399800" lon="-17.8170520">
        <ele>1751.2</ele>
        <time>2020-11-16T11:29:30Z</time>
      </trkpt>
      <trkpt lat="28.7399800" lon="-17.8170520">
        <ele>1751.2</ele>
        <time>2020-11-16T11:29:31Z</time>
      </trkpt>
      <trkpt lat="28.7399720" lon="-17.8170730">
        <ele>1751.4</ele>
        <time>2020-11-16T11:29:32Z</time>
      </trkpt>
      <trkpt lat="28.7399720" lon="-17.8170730">
        <ele>1751.4</ele>
        <time>2020-11-16T11:29:33Z</time>
      </trkpt>
      <trkpt lat="28.7399600" lon="-17.8170870">
        <ele>1751.5</ele>
        <time>2020-11-16T11:29:34Z</time>
      </trkpt>
      <trkpt lat="28.7399600" lon="-17.8170870">
        <ele>1751.5</ele>
        <time>2020-11-16T11:29:35Z</time>
      </trkpt>
      <trkpt lat="28.7399530" lon="-17.8171070">
        <ele>1751.6</ele>
        <time>2020-11-16T11:29:36Z</time>
      </trkpt>
      <trkpt lat="28.7399530" lon="-17.8171070">
        <ele>1751.6</ele>
        <time>2020-11-16T11:29:37Z</time>
      </trkpt>
      <trkpt lat="28.7399500" lon="-17.8171300">
        <ele>1751.8</ele>
        <time>2020-11-16T11:29:38Z</time>
      </trkpt>
      <trkpt lat="28.7399470" lon="-17.8171420">
        <ele>1751.9</ele>
        <time>2020-11-16T11:29:39Z</time>
      </trkpt>
      <trkpt lat="28.7399470" lon="-17.8171420">
        <ele>1751.9</ele>
        <time>2020-11-16T11:29:40Z</time>
      </trkpt>
      <trkpt lat="28.7399420" lon="-17.8171850">
        <ele>1752.2</ele>
        <time>2020-11-16T11:29:41Z</time>
      </trkpt>
      <trkpt lat="28.7399420" lon="-17.8171850">
        <ele>1752.2</ele>
        <time>2020-11-16T11:29:42Z</time>
      </trkpt>
      <trkpt lat="28.7399180" lon="-17.8172450">
        <ele>1752.7</ele>
        <time>2020-11-16T11:29:43Z</time>
      </trkpt>
      <trkpt lat="28.7399180" lon="-17.8172450">
        <ele>1752.7</ele>
        <time>2020-11-16T11:29:44Z</time>
      </trkpt>
      <trkpt lat="28.7398950" lon="-17.8172920">
        <ele>1753.1</ele>
        <time>2020-11-16T11:29:45Z</time>
      </trkpt>
      <trkpt lat="28.7398950" lon="-17.8172920">
        <ele>1753.1</ele>
        <time>2020-11-16T11:29:46Z</time>
      </trkpt>
      <trkpt lat="28.7398770" lon="-17.8173300">
        <ele>1753.5</ele>
        <time>2020-11-16T11:29:47Z</time>
      </trkpt>
      <trkpt lat="28.7398720" lon="-17.8173520">
        <ele>1753.7</ele>
        <time>2020-11-16T11:29:48Z</time>
      </trkpt>
      <trkpt lat="28.7398720" lon="-17.8173520">
        <ele>1753.7</ele>
        <time>2020-11-16T11:29:49Z</time>
      </trkpt>
      <trkpt lat="28.7398550" lon="-17.8173800">
        <ele>1754.0</ele>
        <time>2020-11-16T11:29:50Z</time>
      </trkpt>
      <trkpt lat="28.7398550" lon="-17.8173800">
        <ele>1754.0</ele>
        <time>2020-11-16T11:29:51Z</time>
      </trkpt>
      <trkpt lat="28.7398420" lon="-17.8174130">
        <ele>1754.3</ele>
        <time>2020-11-16T11:29:52Z</time>
      </trkpt>
      <trkpt lat="28.7398420" lon="-17.8174130">
        <ele>1754.3</ele>
        <time>2020-11-16T11:29:53Z</time>
      </trkpt>
      <trkpt lat="28.7398250" lon="-17.8174580">
        <ele>1754.8</ele>
        <time>2020-11-16T11:29:54Z</time>
      </trkpt>
      <trkpt lat="28.7398180" lon="-17.8174750">
        <ele>1755.0</ele>
        <time>2020-11-16T11:29:55Z</time>
      </trkpt>
      <trkpt lat="28.7398180" lon="-17.8174750">
        <ele>1755.0</ele>
        <time>2020-11-16T11:29:56Z</time>
      </trkpt>
      <trkpt lat="28.7398100" lon="-17.8175080">
        <ele>1755.3</ele>
        <time>2020-11-16T11:29:57Z</time>
      </trkpt>
      <trkpt lat="28.7398100" lon="-17.8175080">
        <ele>1755.3</ele>
        <time>2020-11-16T11:29:58Z</time>
      </trkpt>
      <trkpt lat="28.7397970" lon="-17.8175380">
        <ele>1755.6</ele>
        <time>2020-11-16T11:29:59Z</time>
      </trkpt>
      <trkpt lat="28.7397900" lon="-17.8175530">
        <ele>1755.8</ele>
        <time>2020-11-16T11:30:00Z</time>
      </trkpt>
      <trkpt lat="28.7397820" lon="-17.8175670">
        <ele>1755.9</ele>
        <time>2020-11-16T11:30:01Z</time>
      </trkpt>
      <trkpt lat="28.7397730" lon="-17.8175800">
        <ele>1756.1</ele>
        <time>2020-11-16T11:30:02Z</time>
      </trkpt>
      <trkpt lat="28.7397730" lon="-17.8175800">
        <ele>1756.1</ele>
        <time>2020-11-16T11:30:03Z</time>
      </trkpt>
      <trkpt lat="28.7397600" lon="-17.8176180">
        <ele>1756.5</ele>
        <time>2020-11-16T11:30:04Z</time>
      </trkpt>
      <trkpt lat="28.7397600" lon="-17.8176180">
        <ele>1756.5</ele>
        <time>2020-11-16T11:30:05Z</time>
      </trkpt>
      <trkpt lat="28.7397450" lon="-17.8176530">
        <ele>1756.8</ele>
        <time>2020-11-16T11:30:06Z</time>
      </trkpt>
      <trkpt lat="28.7397450" lon="-17.8176530">
        <ele>1756.8</ele>
        <time>2020-11-16T11:30:07Z</time>
      </trkpt>
      <trkpt lat="28.7397350" lon="-17.8176830">
        <ele>1757.2</ele>
        <time>2020-11-16T11:30:08Z</time>
      </trkpt>
      <trkpt lat="28.7397350" lon="-17.8176830">
        <ele>1757.2</ele>
        <time>2020-11-16T11:30:09Z</time>
      </trkpt>
      <trkpt lat="28.7397170" lon="-17.8177230">
        <ele>1757.6</ele>
        <time>2020-11-16T11:30:10Z</time>
      </trkpt>
      <trkpt lat="28.7397170" lon="-17.8177230">
        <ele>1757.6</ele>
        <time>2020-11-16T11:30:11Z</time>
      </trkpt>
      <trkpt lat="28.7397070" lon="-17.8177670">
        <ele>1758.0</ele>
        <time>2020-11-16T11:30:12Z</time>
      </trkpt>
      <trkpt lat="28.7397030" lon="-17.8177920">
        <ele>1758.3</ele>
        <time>2020-11-16T11:30:13Z</time>
      </trkpt>
      <trkpt lat="28.7396780" lon="-17.8178070">
        <ele>1758.6</ele>
        <time>2020-11-16T11:30:14Z</time>
      </trkpt>
      <trkpt lat="28.7396780" lon="-17.8178070">
        <ele>1758.6</ele>
        <time>2020-11-16T11:30:15Z</time>
      </trkpt>
      <trkpt lat="28.7396620" lon="-17.8178370">
        <ele>1759.0</ele>
        <time>2020-11-16T11:30:16Z</time>
      </trkpt>
      <trkpt lat="28.7396620" lon="-17.8178370">
        <ele>1759.0</ele>
        <time>2020-11-16T11:30:17Z</time>
      </trkpt>
      <trkpt lat="28.7396550" lon="-17.8178720">
        <ele>1759.3</ele>
        <time>2020-11-16T11:30:18Z</time>
      </trkpt>
      <trkpt lat="28.7396530" lon="-17.8178880">
        <ele>1759.5</ele>
        <time>2020-11-16T11:30:19Z</time>
      </trkpt>
      <trkpt lat="28.7396520" lon="-17.8179000">
        <ele>1759.7</ele>
        <time>2020-11-16T11:30:20Z</time>
      </trkpt>
      <trkpt lat="28.7396520" lon="-17.8179000">
        <ele>1759.7</ele>
        <time>2020-11-16T11:30:21Z</time>
      </trkpt>
      <trkpt lat="28.7396450" lon="-17.8179250">
        <ele>1760.0</ele>
        <time>2020-11-16T11:30:22Z</time>
      </trkpt>
      <trkpt lat="28.7396450" lon="-17.8179250">
        <ele>1760.0</ele>
        <time>2020-11-16T11:30:23Z</time>
      </trkpt>
      <trkpt lat="28.7396380" lon="-17.8179500">
        <ele>1760.3</ele>
        <time>2020-11-16T11:30:24Z</time>
      </trkpt>
      <trkpt lat="28.7396380" lon="-17.8179500">
        <ele>1760.3</ele>
        <time>2020-11-16T11:30:25Z</time>
      </trkpt>
      <trkpt lat="28.7396300" lon="-17.8179980">
        <ele>1760.9</ele>
        <time>2020-11-16T11:30:26Z</time>
      </trkpt>
      <trkpt lat="28.7396300" lon="-17.8179980">
        <ele>1760.9</ele>
        <time>2020-11-16T11:30:27Z</time>
      </trkpt>
      <trkpt lat="28.7396130" lon="-17.8180520">
        <ele>1761.6</ele>
        <time>2020-11-16T11:30:28Z</time>
      </trkpt>
      <trkpt lat="28.7396080" lon="-17.8180730">
        <ele>1761.8</ele>
        <time>2020-11-16T11:30:29Z</time>
      </trkpt>
      <trkpt lat="28.7396080" lon="-17.8180730">
        <ele>1761.8</ele>
        <time>2020-11-16T11:30:30Z</time>
      </trkpt>
      <trkpt lat="28.7395980" lon="-17.8181250">
        <ele>1762.5</ele>
        <time>2020-11-16T11:30:31Z</time>
      </trkpt>
      <trkpt lat="28.7395980" lon="-17.8181250">
        <ele>1762.5</ele>
        <time>2020-11-16T11:30:32Z</time>
      </trkpt>
      <trkpt lat="28.7395930" lon="-17.8181750">
        <ele>1763.1</ele>
        <time>2020-11-16T11:30:33Z</time>
      </trkpt>
      <trkpt lat="28.7395930" lon="-17.8181750">
        <ele>1763.1</ele>
        <time>2020-11-16T11:30:34Z</time>
      </trkpt>
      <trkpt lat="28.7395930" lon="-17.8182200">
        <ele>1763.6</ele>
        <time>2020-11-16T11:30:35Z</time>
      </trkpt>
      <trkpt lat="28.7395930" lon="-17.8182450">
        <ele>1763.9</ele>
        <time>2020-11-16T11:30:36Z</time>
      </trkpt>
      <trkpt lat="28.7395930" lon="-17.8182450">
        <ele>1763.9</ele>
        <time>2020-11-16T11:30:37Z</time>
      </trkpt>
      <trkpt lat="28.7395970" lon="-17.8182950">
        <ele>1764.5</ele>
        <time>2020-11-16T11:30:38Z</time>
      </trkpt>
      <trkpt lat="28.7395970" lon="-17.8182950">
        <ele>1764.5</ele>
        <time>2020-11-16T11:30:39Z</time>
      </trkpt>
      <trkpt lat="28.7395980" lon="-17.8183320">
        <ele>1764.9</ele>
        <time>2020-11-16T11:30:40Z</time>
      </trkpt>
      <trkpt lat="28.7395980" lon="-17.8183320">
        <ele>1764.9</ele>
        <time>2020-11-16T11:30:41Z</time>
      </trkpt>
      <trkpt lat="28.7396200" lon="-17.8183680">
        <ele>1765.4</ele>
        <time>2020-11-16T11:30:42Z</time>
      </trkpt>
      <trkpt lat="28.7396370" lon="-17.8183830">
        <ele>1765.7</ele>
        <time>2020-11-16T11:30:43Z</time>
      </trkpt>
      <trkpt lat="28.7396550" lon="-17.8184200">
        <ele>1766.1</ele>
        <time>2020-11-16T11:30:44Z</time>
      </trkpt>
      <trkpt lat="28.7396550" lon="-17.8184200">
        <ele>1766.1</ele>
        <time>2020-11-16T11:30:45Z</time>
      </trkpt>
      <trkpt lat="28.7396770" lon="-17.8184530">
        <ele>1766.5</ele>
        <time>2020-11-16T11:30:46Z</time>
      </trkpt>
      <trkpt lat="28.7396770" lon="-17.8184530">
        <ele>1766.5</ele>
        <time>2020-11-16T11:30:47Z</time>
      </trkpt>
      <trkpt lat="28.7396980" lon="-17.8184680">
        <ele>1766.8</ele>
        <time>2020-11-16T11:30:48Z</time>
      </trkpt>
      <trkpt lat="28.7397030" lon="-17.8184600">
        <ele>1766.9</ele>
        <time>2020-11-16T11:30:49Z</time>
      </trkpt>
      <trkpt lat="28.7397030" lon="-17.8184600">
        <ele>1766.9</ele>
        <time>2020-11-16T11:30:50Z</time>
      </trkpt>
      <trkpt lat="28.7397220" lon="-17.8184480">
        <ele>1767.1</ele>
        <time>2020-11-16T11:30:51Z</time>
      </trkpt>
      <trkpt lat="28.7397220" lon="-17.8184480">
        <ele>1767.1</ele>
        <time>2020-11-16T11:30:52Z</time>
      </trkpt>
      <trkpt lat="28.7397480" lon="-17.8184470">
        <ele>1767.4</ele>
        <time>2020-11-16T11:30:53Z</time>
      </trkpt>
      <trkpt lat="28.7397480" lon="-17.8184470">
        <ele>1767.4</ele>
        <time>2020-11-16T11:30:54Z</time>
      </trkpt>
      <trkpt lat="28.7397830" lon="-17.8184530">
        <ele>1767.7</ele>
        <time>2020-11-16T11:30:55Z</time>
      </trkpt>
      <trkpt lat="28.7397830" lon="-17.8184530">
        <ele>1767.7</ele>
        <time>2020-11-16T11:30:56Z</time>
      </trkpt>
      <trkpt lat="28.7398150" lon="-17.8184630">
        <ele>1768.0</ele>
        <time>2020-11-16T11:30:57Z</time>
      </trkpt>
      <trkpt lat="28.7398270" lon="-17.8184580">
        <ele>1768.1</ele>
        <time>2020-11-16T11:30:58Z</time>
      </trkpt>
      <trkpt lat="28.7398270" lon="-17.8184580">
        <ele>1768.1</ele>
        <time>2020-11-16T11:30:59Z</time>
      </trkpt>
      <trkpt lat="28.7398600" lon="-17.8184480">
        <ele>1768.4</ele>
        <time>2020-11-16T11:31:00Z</time>
      </trkpt>
      <trkpt lat="28.7398830" lon="-17.8184300">
        <ele>1768.6</ele>
        <time>2020-11-16T11:31:01Z</time>
      </trkpt>
      <trkpt lat="28.7399080" lon="-17.8184030">
        <ele>1768.9</ele>
        <time>2020-11-16T11:31:02Z</time>
      </trkpt>
      <trkpt lat="28.7399280" lon="-17.8183830">
        <ele>1769.1</ele>
        <time>2020-11-16T11:31:03Z</time>
      </trkpt>
      <trkpt lat="28.7399280" lon="-17.8183830">
        <ele>1769.1</ele>
        <time>2020-11-16T11:31:04Z</time>
      </trkpt>
      <trkpt lat="28.7399630" lon="-17.8183530">
        <ele>1769.4</ele>
        <time>2020-11-16T11:31:05Z</time>
      </trkpt>
      <trkpt lat="28.7399630" lon="-17.8183530">
        <ele>1769.4</ele>
        <time>2020-11-16T11:31:06Z</time>
      </trkpt>
      <trkpt lat="28.7399950" lon="-17.8183370">
        <ele>1769.7</ele>
        <time>2020-11-16T11:31:07Z</time>
      </trkpt>
      <trkpt lat="28.7400100" lon="-17.8183320">
        <ele>1769.8</ele>
        <time>2020-11-16T11:31:08Z</time>
      </trkpt>
      <trkpt lat="28.7400100" lon="-17.8183320">
        <ele>1769.8</ele>
        <time>2020-11-16T11:31:09Z</time>
      </trkpt>
      <trkpt lat="28.7400420" lon="-17.8183230">
        <ele>1770.1</ele>
        <time>2020-11-16T11:31:10Z</time>
      </trkpt>
      <trkpt lat="28.7400570" lon="-17.8183180">
        <ele>1770.2</ele>
        <time>2020-11-16T11:31:11Z</time>
      </trkpt>
      <trkpt lat="28.7400570" lon="-17.8183180">
        <ele>1770.2</ele>
        <time>2020-11-16T11:31:12Z</time>
      </trkpt>
      <trkpt lat="28.7400930" lon="-17.8182950">
        <ele>1770.6</ele>
        <time>2020-11-16T11:31:13Z</time>
      </trkpt>
      <trkpt lat="28.7401170" lon="-17.8182850">
        <ele>1770.8</ele>
        <time>2020-11-16T11:31:14Z</time>
      </trkpt>
      <trkpt lat="28.7401170" lon="-17.8182850">
        <ele>1770.8</ele>
        <time>2020-11-16T11:31:15Z</time>
      </trkpt>
      <trkpt lat="28.7401680" lon="-17.8182750">
        <ele>1771.2</ele>
        <time>2020-11-16T11:31:16Z</time>
      </trkpt>
      <trkpt lat="28.7401680" lon="-17.8182750">
        <ele>1771.2</ele>
        <time>2020-11-16T11:31:17Z</time>
      </trkpt>
      <trkpt lat="28.7402130" lon="-17.8182700">
        <ele>1771.5</ele>
        <time>2020-11-16T11:31:18Z</time>
      </trkpt>
      <trkpt lat="28.7402130" lon="-17.8182700">
        <ele>1771.5</ele>
        <time>2020-11-16T11:31:19Z</time>
      </trkpt>
      <trkpt lat="28.7402550" lon="-17.8182380">
        <ele>1771.9</ele>
        <time>2020-11-16T11:31:20Z</time>
      </trkpt>
      <trkpt lat="28.7402550" lon="-17.8182380">
        <ele>1771.9</ele>
        <time>2020-11-16T11:31:21Z</time>
      </trkpt>
      <trkpt lat="28.7403020" lon="-17.8182020">
        <ele>1772.3</ele>
        <time>2020-11-16T11:31:22Z</time>
      </trkpt>
      <trkpt lat="28.7403020" lon="-17.8182020">
        <ele>1772.3</ele>
        <time>2020-11-16T11:31:23Z</time>
      </trkpt>
      <trkpt lat="28.7403420" lon="-17.8181530">
        <ele>1772.8</ele>
        <time>2020-11-16T11:31:24Z</time>
      </trkpt>
      <trkpt lat="28.7403420" lon="-17.8181530">
        <ele>1772.8</ele>
        <time>2020-11-16T11:31:25Z</time>
      </trkpt>
      <trkpt lat="28.7403750" lon="-17.8181120">
        <ele>1773.3</ele>
        <time>2020-11-16T11:31:26Z</time>
      </trkpt>
      <trkpt lat="28.7403750" lon="-17.8181120">
        <ele>1773.3</ele>
        <time>2020-11-16T11:31:27Z</time>
      </trkpt>
      <trkpt lat="28.7404180" lon="-17.8180780">
        <ele>1773.8</ele>
        <time>2020-11-16T11:31:28Z</time>
      </trkpt>
      <trkpt lat="28.7404180" lon="-17.8180780">
        <ele>1773.8</ele>
        <time>2020-11-16T11:31:29Z</time>
      </trkpt>
      <trkpt lat="28.7404730" lon="-17.8180730">
        <ele>1774.3</ele>
        <time>2020-11-16T11:31:30Z</time>
      </trkpt>
      <trkpt lat="28.7404970" lon="-17.8180850">
        <ele>1774.6</ele>
        <time>2020-11-16T11:31:31Z</time>
      </trkpt>
      <trkpt lat="28.7405130" lon="-17.8180970">
        <ele>1774.8</ele>
        <time>2020-11-16T11:31:32Z</time>
      </trkpt>
      <trkpt lat="28.7405130" lon="-17.8180970">
        <ele>1774.8</ele>
        <time>2020-11-16T11:31:33Z</time>
      </trkpt>
      <trkpt lat="28.7405280" lon="-17.8181320">
        <ele>1775.1</ele>
        <time>2020-11-16T11:31:34Z</time>
      </trkpt>
      <trkpt lat="28.7405280" lon="-17.8181320">
        <ele>1775.1</ele>
        <time>2020-11-16T11:31:35Z</time>
      </trkpt>
      <trkpt lat="28.7405230" lon="-17.8181720">
        <ele>1775.4</ele>
        <time>2020-11-16T11:31:36Z</time>
      </trkpt>
      <trkpt lat="28.7405200" lon="-17.8181930">
        <ele>1775.5</ele>
        <time>2020-11-16T11:31:37Z</time>
      </trkpt>
      <trkpt lat="28.7405150" lon="-17.8182150">
        <ele>1775.7</ele>
        <time>2020-11-16T11:31:38Z</time>
      </trkpt>
      <trkpt lat="28.7405150" lon="-17.8182150">
        <ele>1775.7</ele>
        <time>2020-11-16T11:31:39Z</time>
      </trkpt>
      <trkpt lat="28.7405020" lon="-17.8182500">
        <ele>1775.9</ele>
        <time>2020-11-16T11:31:40Z</time>
      </trkpt>
      <trkpt lat="28.7405020" lon="-17.8182500">
        <ele>1775.9</ele>
        <time>2020-11-16T11:31:41Z</time>
      </trkpt>
      <trkpt lat="28.7404830" lon="-17.8182900">
        <ele>1776.2</ele>
        <time>2020-11-16T11:31:42Z</time>
      </trkpt>
      <trkpt lat="28.7404830" lon="-17.8182900">
        <ele>1776.2</ele>
        <time>2020-11-16T11:31:43Z</time>
      </trkpt>
      <trkpt lat="28.7404600" lon="-17.8183200">
        <ele>1776.4</ele>
        <time>2020-11-16T11:31:44Z</time>
      </trkpt>
      <trkpt lat="28.7404600" lon="-17.8183200">
        <ele>1776.4</ele>
        <time>2020-11-16T11:31:45Z</time>
      </trkpt>
      <trkpt lat="28.7404450" lon="-17.8183480">
        <ele>1776.6</ele>
        <time>2020-11-16T11:31:46Z</time>
      </trkpt>
      <trkpt lat="28.7404420" lon="-17.8183700">
        <ele>1776.7</ele>
        <time>2020-11-16T11:31:47Z</time>
      </trkpt>
      <trkpt lat="28.7404420" lon="-17.8183700">
        <ele>1776.7</ele>
        <time>2020-11-16T11:31:48Z</time>
      </trkpt>
      <trkpt lat="28.7404600" lon="-17.8184400">
        <ele>1777.2</ele>
        <time>2020-11-16T11:31:49Z</time>
      </trkpt>
      <trkpt lat="28.7404500" lon="-17.8184480">
        <ele>1777.3</ele>
        <time>2020-11-16T11:31:50Z</time>
      </trkpt>
      <trkpt lat="28.7404500" lon="-17.8184480">
        <ele>1777.3</ele>
        <time>2020-11-16T11:31:51Z</time>
      </trkpt>
      <trkpt lat="28.7404280" lon="-17.8184600">
        <ele>1777.6</ele>
        <time>2020-11-16T11:31:52Z</time>
      </trkpt>
      <trkpt lat="28.7404200" lon="-17.8184720">
        <ele>1777.7</ele>
        <time>2020-11-16T11:31:53Z</time>
      </trkpt>
      <trkpt lat="28.7404200" lon="-17.8184720">
        <ele>1777.7</ele>
        <time>2020-11-16T11:31:54Z</time>
      </trkpt>
      <trkpt lat="28.7404030" lon="-17.8184900">
        <ele>1777.9</ele>
        <time>2020-11-16T11:31:55Z</time>
      </trkpt>
      <trkpt lat="28.7403950" lon="-17.8184970">
        <ele>1778.1</ele>
        <time>2020-11-16T11:31:56Z</time>
      </trkpt>
      <trkpt lat="28.7403950" lon="-17.8184970">
        <ele>1778.1</ele>
        <time>2020-11-16T11:31:57Z</time>
      </trkpt>
      <trkpt lat="28.7403830" lon="-17.8185250">
        <ele>1778.4</ele>
        <time>2020-11-16T11:31:58Z</time>
      </trkpt>
      <trkpt lat="28.7403830" lon="-17.8185250">
        <ele>1778.4</ele>
        <time>2020-11-16T11:31:59Z</time>
      </trkpt>
      <trkpt lat="28.7403800" lon="-17.8185630">
        <ele>1778.8</ele>
        <time>2020-11-16T11:32:00Z</time>
      </trkpt>
      <trkpt lat="28.7403770" lon="-17.8185670">
        <ele>1778.9</ele>
        <time>2020-11-16T11:32:01Z</time>
      </trkpt>
      <trkpt lat="28.7403770" lon="-17.8185670">
        <ele>1778.9</ele>
        <time>2020-11-16T11:32:02Z</time>
      </trkpt>
      <trkpt lat="28.7403750" lon="-17.8185830">
        <ele>1779.0</ele>
        <time>2020-11-16T11:32:03Z</time>
      </trkpt>
      <trkpt lat="28.7403750" lon="-17.8185830">
        <ele>1779.0</ele>
        <time>2020-11-16T11:32:04Z</time>
      </trkpt>
      <trkpt lat="28.7403780" lon="-17.8186230">
        <ele>1779.5</ele>
        <time>2020-11-16T11:32:05Z</time>
      </trkpt>
      <trkpt lat="28.7403800" lon="-17.8186380">
        <ele>1779.7</ele>
        <time>2020-11-16T11:32:06Z</time>
      </trkpt>
      <trkpt lat="28.7403800" lon="-17.8186380">
        <ele>1779.7</ele>
        <time>2020-11-16T11:32:07Z</time>
      </trkpt>
      <trkpt lat="28.7403750" lon="-17.8186630">
        <ele>1780.0</ele>
        <time>2020-11-16T11:32:08Z</time>
      </trkpt>
      <trkpt lat="28.7403750" lon="-17.8186630">
        <ele>1780.0</ele>
        <time>2020-11-16T11:32:09Z</time>
      </trkpt>
      <trkpt lat="28.7403770" lon="-17.8186970">
        <ele>1780.5</ele>
        <time>2020-11-16T11:32:10Z</time>
      </trkpt>
      <trkpt lat="28.7403770" lon="-17.8186970">
        <ele>1780.5</ele>
        <time>2020-11-16T11:32:11Z</time>
      </trkpt>
      <trkpt lat="28.7403880" lon="-17.8187270">
        <ele>1780.9</ele>
        <time>2020-11-16T11:32:12Z</time>
      </trkpt>
      <trkpt lat="28.7403880" lon="-17.8187270">
        <ele>1780.9</ele>
        <time>2020-11-16T11:32:13Z</time>
      </trkpt>
      <trkpt lat="28.7404050" lon="-17.8187630">
        <ele>1781.5</ele>
        <time>2020-11-16T11:32:14Z</time>
      </trkpt>
      <trkpt lat="28.7404080" lon="-17.8187850">
        <ele>1781.8</ele>
        <time>2020-11-16T11:32:15Z</time>
      </trkpt>
      <trkpt lat="28.7404080" lon="-17.8187850">
        <ele>1781.8</ele>
        <time>2020-11-16T11:32:16Z</time>
      </trkpt>
      <trkpt lat="28.7404130" lon="-17.8188330">
        <ele>1782.4</ele>
        <time>2020-11-16T11:32:17Z</time>
      </trkpt>
      <trkpt lat="28.7404130" lon="-17.8188330">
        <ele>1782.4</ele>
        <time>2020-11-16T11:32:18Z</time>
      </trkpt>
      <trkpt lat="28.7404400" lon="-17.8188620">
        <ele>1783.0</ele>
        <time>2020-11-16T11:32:19Z</time>
      </trkpt>
      <trkpt lat="28.7404400" lon="-17.8188620">
        <ele>1783.0</ele>
        <time>2020-11-16T11:32:20Z</time>
      </trkpt>
      <trkpt lat="28.7404630" lon="-17.8188550">
        <ele>1783.4</ele>
        <time>2020-11-16T11:32:21Z</time>
      </trkpt>
      <trkpt lat="28.7404700" lon="-17.8188500">
        <ele>1783.5</ele>
        <time>2020-11-16T11:32:22Z</time>
      </trkpt>
      <trkpt lat="28.7404850" lon="-17.8188500">
        <ele>1783.8</ele>
        <time>2020-11-16T11:32:23Z</time>
      </trkpt>
      <trkpt lat="28.7404850" lon="-17.8188500">
        <ele>1783.8</ele>
        <time>2020-11-16T11:32:24Z</time>
      </trkpt>
      <trkpt lat="28.7405130" lon="-17.8188230">
        <ele>1784.4</ele>
        <time>2020-11-16T11:32:25Z</time>
      </trkpt>
      <trkpt lat="28.7405250" lon="-17.8188130">
        <ele>1784.6</ele>
        <time>2020-11-16T11:32:26Z</time>
      </trkpt>
      <trkpt lat="28.7405250" lon="-17.8188130">
        <ele>1784.6</ele>
        <time>2020-11-16T11:32:27Z</time>
      </trkpt>
      <trkpt lat="28.7405480" lon="-17.8187980">
        <ele>1785.0</ele>
        <time>2020-11-16T11:32:28Z</time>
      </trkpt>
      <trkpt lat="28.7405480" lon="-17.8187980">
        <ele>1785.0</ele>
        <time>2020-11-16T11:32:29Z</time>
      </trkpt>
      <trkpt lat="28.7405780" lon="-17.8187870">
        <ele>1785.6</ele>
        <time>2020-11-16T11:32:30Z</time>
      </trkpt>
      <trkpt lat="28.7405780" lon="-17.8187870">
        <ele>1785.6</ele>
        <time>2020-11-16T11:32:31Z</time>
      </trkpt>
      <trkpt lat="28.7406150" lon="-17.8187850">
        <ele>1786.2</ele>
        <time>2020-11-16T11:32:32Z</time>
      </trkpt>
      <trkpt lat="28.7406380" lon="-17.8187850">
        <ele>1786.6</ele>
        <time>2020-11-16T11:32:33Z</time>
      </trkpt>
      <trkpt lat="28.7406380" lon="-17.8187850">
        <ele>1786.6</ele>
        <time>2020-11-16T11:32:34Z</time>
      </trkpt>
      <trkpt lat="28.7406780" lon="-17.8188020">
        <ele>1787.4</ele>
        <time>2020-11-16T11:32:35Z</time>
      </trkpt>
      <trkpt lat="28.7406780" lon="-17.8188020">
        <ele>1787.4</ele>
        <time>2020-11-16T11:32:36Z</time>
      </trkpt>
      <trkpt lat="28.7407030" lon="-17.8188220">
        <ele>1788.0</ele>
        <time>2020-11-16T11:32:37Z</time>
      </trkpt>
      <trkpt lat="28.7407030" lon="-17.8188220">
        <ele>1788.0</ele>
        <time>2020-11-16T11:32:38Z</time>
      </trkpt>
      <trkpt lat="28.7407150" lon="-17.8188500">
        <ele>1788.5</ele>
        <time>2020-11-16T11:32:39Z</time>
      </trkpt>
      <trkpt lat="28.7407200" lon="-17.8188620">
        <ele>1788.7</ele>
        <time>2020-11-16T11:32:40Z</time>
      </trkpt>
      <trkpt lat="28.7407220" lon="-17.8188750">
        <ele>1788.9</ele>
        <time>2020-11-16T11:32:41Z</time>
      </trkpt>
      <trkpt lat="28.7407220" lon="-17.8188750">
        <ele>1788.9</ele>
        <time>2020-11-16T11:32:42Z</time>
      </trkpt>
      <trkpt lat="28.7407300" lon="-17.8188970">
        <ele>1789.3</ele>
        <time>2020-11-16T11:32:43Z</time>
      </trkpt>
      <trkpt lat="28.7407350" lon="-17.8189070">
        <ele>1789.5</ele>
        <time>2020-11-16T11:32:44Z</time>
      </trkpt>
      <trkpt lat="28.7407350" lon="-17.8189070">
        <ele>1789.5</ele>
        <time>2020-11-16T11:32:45Z</time>
      </trkpt>
      <trkpt lat="28.7407420" lon="-17.8189180">
        <ele>1789.7</ele>
        <time>2020-11-16T11:32:46Z</time>
      </trkpt>
      <trkpt lat="28.7407420" lon="-17.8189180">
        <ele>1789.7</ele>
        <time>2020-11-16T11:32:47Z</time>
      </trkpt>
      <trkpt lat="28.7407430" lon="-17.8189320">
        <ele>1790.0</ele>
        <time>2020-11-16T11:32:48Z</time>
      </trkpt>
      <trkpt lat="28.7407430" lon="-17.8189320">
        <ele>1790.0</ele>
        <time>2020-11-16T11:32:49Z</time>
      </trkpt>
      <trkpt lat="28.7407550" lon="-17.8189530">
        <ele>1790.4</ele>
        <time>2020-11-16T11:32:50Z</time>
      </trkpt>
      <trkpt lat="28.7407550" lon="-17.8189530">
        <ele>1790.4</ele>
        <time>2020-11-16T11:32:51Z</time>
      </trkpt>
      <trkpt lat="28.7407630" lon="-17.8189880">
        <ele>1790.9</ele>
        <time>2020-11-16T11:32:52Z</time>
      </trkpt>
      <trkpt lat="28.7407650" lon="-17.8190100">
        <ele>1791.2</ele>
        <time>2020-11-16T11:32:53Z</time>
      </trkpt>
      <trkpt lat="28.7407650" lon="-17.8190100">
        <ele>1791.2</ele>
        <time>2020-11-16T11:32:54Z</time>
      </trkpt>
      <trkpt lat="28.7407770" lon="-17.8190430">
        <ele>1791.7</ele>
        <time>2020-11-16T11:32:55Z</time>
      </trkpt>
      <trkpt lat="28.7407820" lon="-17.8190670">
        <ele>1792.1</ele>
        <time>2020-11-16T11:32:56Z</time>
      </trkpt>
      <trkpt lat="28.7407850" lon="-17.8190830">
        <ele>1792.3</ele>
        <time>2020-11-16T11:32:57Z</time>
      </trkpt>
      <trkpt lat="28.7407850" lon="-17.8190830">
        <ele>1792.3</ele>
        <time>2020-11-16T11:32:58Z</time>
      </trkpt>
      <trkpt lat="28.7407930" lon="-17.8191200">
        <ele>1792.7</ele>
        <time>2020-11-16T11:32:59Z</time>
      </trkpt>
      <trkpt lat="28.7408030" lon="-17.8191350">
        <ele>1792.9</ele>
        <time>2020-11-16T11:33:00Z</time>
      </trkpt>
      <trkpt lat="28.7408030" lon="-17.8191350">
        <ele>1792.9</ele>
        <time>2020-11-16T11:33:01Z</time>
      </trkpt>
      <trkpt lat="28.7408180" lon="-17.8191700">
        <ele>1793.4</ele>
        <time>2020-11-16T11:33:02Z</time>
      </trkpt>
      <trkpt lat="28.7408180" lon="-17.8191700">
        <ele>1793.4</ele>
        <time>2020-11-16T11:33:03Z</time>
      </trkpt>
      <trkpt lat="28.7408180" lon="-17.8192080">
        <ele>1793.8</ele>
        <time>2020-11-16T11:33:04Z</time>
      </trkpt>
      <trkpt lat="28.7408180" lon="-17.8192080">
        <ele>1793.8</ele>
        <time>2020-11-16T11:33:05Z</time>
      </trkpt>
      <trkpt lat="28.7408100" lon="-17.8192400">
        <ele>1794.1</ele>
        <time>2020-11-16T11:33:06Z</time>
      </trkpt>
      <trkpt lat="28.7408100" lon="-17.8192400">
        <ele>1794.1</ele>
        <time>2020-11-16T11:33:07Z</time>
      </trkpt>
      <trkpt lat="28.7408100" lon="-17.8192820">
        <ele>1794.6</ele>
        <time>2020-11-16T11:33:08Z</time>
      </trkpt>
      <trkpt lat="28.7408100" lon="-17.8192820">
        <ele>1794.6</ele>
        <time>2020-11-16T11:33:09Z</time>
      </trkpt>
      <trkpt lat="28.7407970" lon="-17.8193170">
        <ele>1795.0</ele>
        <time>2020-11-16T11:33:10Z</time>
      </trkpt>
      <trkpt lat="28.7407970" lon="-17.8193170">
        <ele>1795.0</ele>
        <time>2020-11-16T11:33:11Z</time>
      </trkpt>
      <trkpt lat="28.7407880" lon="-17.8193530">
        <ele>1795.4</ele>
        <time>2020-11-16T11:33:12Z</time>
      </trkpt>
      <trkpt lat="28.7407780" lon="-17.8193650">
        <ele>1795.6</ele>
        <time>2020-11-16T11:33:13Z</time>
      </trkpt>
      <trkpt lat="28.7407780" lon="-17.8193650">
        <ele>1795.6</ele>
        <time>2020-11-16T11:33:14Z</time>
      </trkpt>
      <trkpt lat="28.7407730" lon="-17.8193880">
        <ele>1795.9</ele>
        <time>2020-11-16T11:33:15Z</time>
      </trkpt>
      <trkpt lat="28.7407720" lon="-17.8194070">
        <ele>1796.1</ele>
        <time>2020-11-16T11:33:16Z</time>
      </trkpt>
      <trkpt lat="28.7407720" lon="-17.8194070">
        <ele>1796.1</ele>
        <time>2020-11-16T11:33:17Z</time>
      </trkpt>
      <trkpt lat="28.7407700" lon="-17.8194350">
        <ele>1796.5</ele>
        <time>2020-11-16T11:33:18Z</time>
      </trkpt>
      <trkpt lat="28.7407680" lon="-17.8194530">
        <ele>1796.7</ele>
        <time>2020-11-16T11:33:19Z</time>
      </trkpt>
      <trkpt lat="28.7407680" lon="-17.8194720">
        <ele>1797.0</ele>
        <time>2020-11-16T11:33:20Z</time>
      </trkpt>
      <trkpt lat="28.7407680" lon="-17.8194720">
        <ele>1797.0</ele>
        <time>2020-11-16T11:33:21Z</time>
      </trkpt>
      <trkpt lat="28.7407600" lon="-17.8195380">
        <ele>1797.9</ele>
        <time>2020-11-16T11:33:22Z</time>
      </trkpt>
      <trkpt lat="28.7407600" lon="-17.8195380">
        <ele>1797.9</ele>
        <time>2020-11-16T11:33:23Z</time>
      </trkpt>
      <trkpt lat="28.7407720" lon="-17.8195730">
        <ele>1798.4</ele>
        <time>2020-11-16T11:33:24Z</time>
      </trkpt>
      <trkpt lat="28.7407750" lon="-17.8195900">
        <ele>1798.6</ele>
        <time>2020-11-16T11:33:25Z</time>
      </trkpt>
      <trkpt lat="28.7407750" lon="-17.8195900">
        <ele>1798.6</ele>
        <time>2020-11-16T11:33:26Z</time>
      </trkpt>
      <trkpt lat="28.7407850" lon="-17.8196100">
        <ele>1798.9</ele>
        <time>2020-11-16T11:33:27Z</time>
      </trkpt>
      <trkpt lat="28.7407850" lon="-17.8196100">
        <ele>1798.9</ele>
        <time>2020-11-16T11:33:28Z</time>
      </trkpt>
      <trkpt lat="28.7408020" lon="-17.8196350">
        <ele>1799.4</ele>
        <time>2020-11-16T11:33:29Z</time>
      </trkpt>
      <trkpt lat="28.7408080" lon="-17.8196430">
        <ele>1799.5</ele>
        <time>2020-11-16T11:33:30Z</time>
      </trkpt>
      <trkpt lat="28.7408080" lon="-17.8196430">
        <ele>1799.5</ele>
        <time>2020-11-16T11:33:31Z</time>
      </trkpt>
      <trkpt lat="28.7408230" lon="-17.8196700">
        <ele>1799.9</ele>
        <time>2020-11-16T11:33:32Z</time>
      </trkpt>
      <trkpt lat="28.7408230" lon="-17.8196700">
        <ele>1799.9</ele>
        <time>2020-11-16T11:33:33Z</time>
      </trkpt>
      <trkpt lat="28.7408320" lon="-17.8197070">
        <ele>1800.5</ele>
        <time>2020-11-16T11:33:34Z</time>
      </trkpt>
      <trkpt lat="28.7408350" lon="-17.8197250">
        <ele>1800.7</ele>
        <time>2020-11-16T11:33:35Z</time>
      </trkpt>
      <trkpt lat="28.7408350" lon="-17.8197250">
        <ele>1800.7</ele>
        <time>2020-11-16T11:33:36Z</time>
      </trkpt>
      <trkpt lat="28.7408420" lon="-17.8197450">
        <ele>1801.0</ele>
        <time>2020-11-16T11:33:37Z</time>
      </trkpt>
      <trkpt lat="28.7408420" lon="-17.8197450">
        <ele>1801.0</ele>
        <time>2020-11-16T11:33:38Z</time>
      </trkpt>
      <trkpt lat="28.7408530" lon="-17.8197700">
        <ele>1801.4</ele>
        <time>2020-11-16T11:33:39Z</time>
      </trkpt>
      <trkpt lat="28.7408550" lon="-17.8197850">
        <ele>1801.6</ele>
        <time>2020-11-16T11:33:40Z</time>
      </trkpt>
      <trkpt lat="28.7408550" lon="-17.8197850">
        <ele>1801.6</ele>
        <time>2020-11-16T11:33:41Z</time>
      </trkpt>
      <trkpt lat="28.7408520" lon="-17.8198230">
        <ele>1802.1</ele>
        <time>2020-11-16T11:33:42Z</time>
      </trkpt>
      <trkpt lat="28.7408500" lon="-17.8198470">
        <ele>1802.4</ele>
        <time>2020-11-16T11:33:43Z</time>
      </trkpt>
      <trkpt lat="28.7408480" lon="-17.8198630">
        <ele>1802.6</ele>
        <time>2020-11-16T11:33:44Z</time>
      </trkpt>
      <trkpt lat="28.7408480" lon="-17.8198630">
        <ele>1802.6</ele>
        <time>2020-11-16T11:33:45Z</time>
      </trkpt>
      <trkpt lat="28.7408530" lon="-17.8198930">
        <ele>1803.0</ele>
        <time>2020-11-16T11:33:46Z</time>
      </trkpt>
      <trkpt lat="28.7408530" lon="-17.8198930">
        <ele>1803.0</ele>
        <time>2020-11-16T11:33:47Z</time>
      </trkpt>
      <trkpt lat="28.7408470" lon="-17.8199330">
        <ele>1803.5</ele>
        <time>2020-11-16T11:33:48Z</time>
      </trkpt>
      <trkpt lat="28.7408470" lon="-17.8199330">
        <ele>1803.5</ele>
        <time>2020-11-16T11:33:49Z</time>
      </trkpt>
      <trkpt lat="28.7408420" lon="-17.8199720">
        <ele>1804.0</ele>
        <time>2020-11-16T11:33:50Z</time>
      </trkpt>
      <trkpt lat="28.7408420" lon="-17.8199720">
        <ele>1804.0</ele>
        <time>2020-11-16T11:33:51Z</time>
      </trkpt>
      <trkpt lat="28.7408400" lon="-17.8200200">
        <ele>1804.6</ele>
        <time>2020-11-16T11:33:52Z</time>
      </trkpt>
      <trkpt lat="28.7408420" lon="-17.8200380">
        <ele>1804.9</ele>
        <time>2020-11-16T11:33:53Z</time>
      </trkpt>
      <trkpt lat="28.7408420" lon="-17.8200380">
        <ele>1804.9</ele>
        <time>2020-11-16T11:33:54Z</time>
      </trkpt>
      <trkpt lat="28.7408420" lon="-17.8200730">
        <ele>1805.4</ele>
        <time>2020-11-16T11:33:55Z</time>
      </trkpt>
      <trkpt lat="28.7408400" lon="-17.8200930">
        <ele>1805.7</ele>
        <time>2020-11-16T11:33:56Z</time>
      </trkpt>
      <trkpt lat="28.7408400" lon="-17.8200930">
        <ele>1805.7</ele>
        <time>2020-11-16T11:33:57Z</time>
      </trkpt>
      <trkpt lat="28.7408350" lon="-17.8201230">
        <ele>1806.1</ele>
        <time>2020-11-16T11:33:58Z</time>
      </trkpt>
      <trkpt lat="28.7408320" lon="-17.8201430">
        <ele>1806.4</ele>
        <time>2020-11-16T11:33:59Z</time>
      </trkpt>
      <trkpt lat="28.7408320" lon="-17.8201430">
        <ele>1806.4</ele>
        <time>2020-11-16T11:34:00Z</time>
      </trkpt>
      <trkpt lat="28.7408270" lon="-17.8201780">
        <ele>1806.9</ele>
        <time>2020-11-16T11:34:01Z</time>
      </trkpt>
      <trkpt lat="28.7408250" lon="-17.8201970">
        <ele>1807.2</ele>
        <time>2020-11-16T11:34:02Z</time>
      </trkpt>
      <trkpt lat="28.7408250" lon="-17.8201970">
        <ele>1807.2</ele>
        <time>2020-11-16T11:34:03Z</time>
      </trkpt>
      <trkpt lat="28.7408080" lon="-17.8202330">
        <ele>1807.7</ele>
        <time>2020-11-16T11:34:04Z</time>
      </trkpt>
      <trkpt lat="28.7408080" lon="-17.8202330">
        <ele>1807.7</ele>
        <time>2020-11-16T11:34:05Z</time>
      </trkpt>
      <trkpt lat="28.7407930" lon="-17.8202620">
        <ele>1808.2</ele>
        <time>2020-11-16T11:34:06Z</time>
      </trkpt>
      <trkpt lat="28.7407930" lon="-17.8202620">
        <ele>1808.2</ele>
        <time>2020-11-16T11:34:07Z</time>
      </trkpt>
      <trkpt lat="28.7407670" lon="-17.8202900">
        <ele>1808.7</ele>
        <time>2020-11-16T11:34:08Z</time>
      </trkpt>
      <trkpt lat="28.7407670" lon="-17.8202900">
        <ele>1808.7</ele>
        <time>2020-11-16T11:34:09Z</time>
      </trkpt>
      <trkpt lat="28.7407450" lon="-17.8203300">
        <ele>1809.3</ele>
        <time>2020-11-16T11:34:10Z</time>
      </trkpt>
      <trkpt lat="28.7407300" lon="-17.8203530">
        <ele>1809.7</ele>
        <time>2020-11-16T11:34:11Z</time>
      </trkpt>
      <trkpt lat="28.7407300" lon="-17.8203530">
        <ele>1809.7</ele>
        <time>2020-11-16T11:34:12Z</time>
      </trkpt>
      <trkpt lat="28.7407080" lon="-17.8204000">
        <ele>1810.3</ele>
        <time>2020-11-16T11:34:13Z</time>
      </trkpt>
      <trkpt lat="28.7407020" lon="-17.8204200">
        <ele>1810.6</ele>
        <time>2020-11-16T11:34:14Z</time>
      </trkpt>
      <trkpt lat="28.7407020" lon="-17.8204200">
        <ele>1810.6</ele>
        <time>2020-11-16T11:34:15Z</time>
      </trkpt>
      <trkpt lat="28.7406950" lon="-17.8204500">
        <ele>1811.0</ele>
        <time>2020-11-16T11:34:16Z</time>
      </trkpt>
      <trkpt lat="28.7406920" lon="-17.8204630">
        <ele>1811.2</ele>
        <time>2020-11-16T11:34:17Z</time>
      </trkpt>
      <trkpt lat="28.7406920" lon="-17.8204630">
        <ele>1811.2</ele>
        <time>2020-11-16T11:34:18Z</time>
      </trkpt>
      <trkpt lat="28.7406780" lon="-17.8204850">
        <ele>1811.6</ele>
        <time>2020-11-16T11:34:19Z</time>
      </trkpt>
      <trkpt lat="28.7406720" lon="-17.8204980">
        <ele>1811.7</ele>
        <time>2020-11-16T11:34:20Z</time>
      </trkpt>
      <trkpt lat="28.7406720" lon="-17.8204980">
        <ele>1811.7</ele>
        <time>2020-11-16T11:34:21Z</time>
      </trkpt>
      <trkpt lat="28.7406600" lon="-17.8205400">
        <ele>1812.3</ele>
        <time>2020-11-16T11:34:22Z</time>
      </trkpt>
      <trkpt lat="28.7406600" lon="-17.8205400">
        <ele>1812.3</ele>
        <time>2020-11-16T11:34:23Z</time>
      </trkpt>
      <trkpt lat="28.7406520" lon="-17.8205930">
        <ele>1813.0</ele>
        <time>2020-11-16T11:34:24Z</time>
      </trkpt>
      <trkpt lat="28.7406470" lon="-17.8206080">
        <ele>1813.2</ele>
        <time>2020-11-16T11:34:25Z</time>
      </trkpt>
      <trkpt lat="28.7406470" lon="-17.8206080">
        <ele>1813.2</ele>
        <time>2020-11-16T11:34:26Z</time>
      </trkpt>
      <trkpt lat="28.7406320" lon="-17.8206220">
        <ele>1813.5</ele>
        <time>2020-11-16T11:34:27Z</time>
      </trkpt>
      <trkpt lat="28.7406320" lon="-17.8206220">
        <ele>1813.5</ele>
        <time>2020-11-16T11:34:28Z</time>
      </trkpt>
      <trkpt lat="28.7406200" lon="-17.8206470">
        <ele>1813.8</ele>
        <time>2020-11-16T11:34:29Z</time>
      </trkpt>
      <trkpt lat="28.7406180" lon="-17.8206580">
        <ele>1814.0</ele>
        <time>2020-11-16T11:34:30Z</time>
      </trkpt>
      <trkpt lat="28.7406180" lon="-17.8206580">
        <ele>1814.0</ele>
        <time>2020-11-16T11:34:31Z</time>
      </trkpt>
      <trkpt lat="28.7406030" lon="-17.8206870">
        <ele>1814.4</ele>
        <time>2020-11-16T11:34:32Z</time>
      </trkpt>
      <trkpt lat="28.7406030" lon="-17.8206870">
        <ele>1814.4</ele>
        <time>2020-11-16T11:34:33Z</time>
      </trkpt>
      <trkpt lat="28.7405970" lon="-17.8207170">
        <ele>1814.8</ele>
        <time>2020-11-16T11:34:34Z</time>
      </trkpt>
      <trkpt lat="28.7405970" lon="-17.8207170">
        <ele>1814.8</ele>
        <time>2020-11-16T11:34:35Z</time>
      </trkpt>
      <trkpt lat="28.7405830" lon="-17.8207520">
        <ele>1816.3</ele>
        <time>2020-11-16T11:34:36Z</time>
      </trkpt>
      <trkpt lat="28.7405830" lon="-17.8207520">
        <ele>1816.3</ele>
        <time>2020-11-16T11:34:37Z</time>
      </trkpt>
      <trkpt lat="28.7405650" lon="-17.8208070">
        <ele>1816.5</ele>
        <time>2020-11-16T11:34:38Z</time>
      </trkpt>
      <trkpt lat="28.7405650" lon="-17.8208070">
        <ele>1816.5</ele>
        <time>2020-11-16T11:34:39Z</time>
      </trkpt>
      <trkpt lat="28.7405570" lon="-17.8208530">
        <ele>1816.6</ele>
        <time>2020-11-16T11:34:40Z</time>
      </trkpt>
      <trkpt lat="28.7405570" lon="-17.8208530">
        <ele>1816.6</ele>
        <time>2020-11-16T11:34:41Z</time>
      </trkpt>
      <trkpt lat="28.7405380" lon="-17.8208980">
        <ele>1816.8</ele>
        <time>2020-11-16T11:34:42Z</time>
      </trkpt>
      <trkpt lat="28.7405380" lon="-17.8208980">
        <ele>1816.8</ele>
        <time>2020-11-16T11:34:43Z</time>
      </trkpt>
      <trkpt lat="28.7405320" lon="-17.8209380">
        <ele>1817.0</ele>
        <time>2020-11-16T11:34:44Z</time>
      </trkpt>
      <trkpt lat="28.7405320" lon="-17.8209380">
        <ele>1817.0</ele>
        <time>2020-11-16T11:34:45Z</time>
      </trkpt>
      <trkpt lat="28.7405250" lon="-17.8209720">
        <ele>1817.1</ele>
        <time>2020-11-16T11:34:46Z</time>
      </trkpt>
      <trkpt lat="28.7405250" lon="-17.8209720">
        <ele>1817.1</ele>
        <time>2020-11-16T11:34:47Z</time>
      </trkpt>
      <trkpt lat="28.7405130" lon="-17.8210180">
        <ele>1817.3</ele>
        <time>2020-11-16T11:34:48Z</time>
      </trkpt>
      <trkpt lat="28.7405130" lon="-17.8210180">
        <ele>1817.3</ele>
        <time>2020-11-16T11:34:49Z</time>
      </trkpt>
      <trkpt lat="28.7405000" lon="-17.8210530">
        <ele>1817.4</ele>
        <time>2020-11-16T11:34:50Z</time>
      </trkpt>
      <trkpt lat="28.7405000" lon="-17.8210530">
        <ele>1817.4</ele>
        <time>2020-11-16T11:34:51Z</time>
      </trkpt>
      <trkpt lat="28.7404930" lon="-17.8210980">
        <ele>1817.6</ele>
        <time>2020-11-16T11:34:52Z</time>
      </trkpt>
      <trkpt lat="28.7404930" lon="-17.8210980">
        <ele>1817.6</ele>
        <time>2020-11-16T11:34:53Z</time>
      </trkpt>
      <trkpt lat="28.7404900" lon="-17.8211380">
        <ele>1817.7</ele>
        <time>2020-11-16T11:34:54Z</time>
      </trkpt>
      <trkpt lat="28.7404900" lon="-17.8211380">
        <ele>1817.7</ele>
        <time>2020-11-16T11:34:55Z</time>
      </trkpt>
      <trkpt lat="28.7404770" lon="-17.8211650">
        <ele>1817.8</ele>
        <time>2020-11-16T11:34:56Z</time>
      </trkpt>
      <trkpt lat="28.7404770" lon="-17.8211650">
        <ele>1817.8</ele>
        <time>2020-11-16T11:34:57Z</time>
      </trkpt>
      <trkpt lat="28.7404620" lon="-17.8211950">
        <ele>1818.0</ele>
        <time>2020-11-16T11:34:58Z</time>
      </trkpt>
      <trkpt lat="28.7404620" lon="-17.8211950">
        <ele>1818.0</ele>
        <time>2020-11-16T11:34:59Z</time>
      </trkpt>
      <trkpt lat="28.7404550" lon="-17.8212320">
        <ele>1818.1</ele>
        <time>2020-11-16T11:35:00Z</time>
      </trkpt>
      <trkpt lat="28.7404550" lon="-17.8212320">
        <ele>1818.1</ele>
        <time>2020-11-16T11:35:01Z</time>
      </trkpt>
      <trkpt lat="28.7404580" lon="-17.8212720">
        <ele>1818.2</ele>
        <time>2020-11-16T11:35:02Z</time>
      </trkpt>
      <trkpt lat="28.7404580" lon="-17.8212720">
        <ele>1818.2</ele>
        <time>2020-11-16T11:35:03Z</time>
      </trkpt>
      <trkpt lat="28.7404670" lon="-17.8213050">
        <ele>1818.4</ele>
        <time>2020-11-16T11:35:04Z</time>
      </trkpt>
      <trkpt lat="28.7404670" lon="-17.8213280">
        <ele>1818.5</ele>
        <time>2020-11-16T11:35:05Z</time>
      </trkpt>
      <trkpt lat="28.7404670" lon="-17.8213280">
        <ele>1818.5</ele>
        <time>2020-11-16T11:35:06Z</time>
      </trkpt>
      <trkpt lat="28.7404680" lon="-17.8213580">
        <ele>1818.6</ele>
        <time>2020-11-16T11:35:07Z</time>
      </trkpt>
      <trkpt lat="28.7404730" lon="-17.8213800">
        <ele>1818.7</ele>
        <time>2020-11-16T11:35:08Z</time>
      </trkpt>
      <trkpt lat="28.7404730" lon="-17.8213800">
        <ele>1818.7</ele>
        <time>2020-11-16T11:35:09Z</time>
      </trkpt>
      <trkpt lat="28.7404970" lon="-17.8214280">
        <ele>1818.9</ele>
        <time>2020-11-16T11:35:10Z</time>
      </trkpt>
      <trkpt lat="28.7405070" lon="-17.8214530">
        <ele>1819.0</ele>
        <time>2020-11-16T11:35:11Z</time>
      </trkpt>
      <trkpt lat="28.7405180" lon="-17.8214730">
        <ele>1819.0</ele>
        <time>2020-11-16T11:35:12Z</time>
      </trkpt>
      <trkpt lat="28.7405180" lon="-17.8214730">
        <ele>1819.0</ele>
        <time>2020-11-16T11:35:13Z</time>
      </trkpt>
      <trkpt lat="28.7405380" lon="-17.8215100">
        <ele>1819.2</ele>
        <time>2020-11-16T11:35:14Z</time>
      </trkpt>
      <trkpt lat="28.7405380" lon="-17.8215100">
        <ele>1819.2</ele>
        <time>2020-11-16T11:35:15Z</time>
      </trkpt>
      <trkpt lat="28.7405580" lon="-17.8215380">
        <ele>1819.3</ele>
        <time>2020-11-16T11:35:16Z</time>
      </trkpt>
      <trkpt lat="28.7405580" lon="-17.8215380">
        <ele>1819.3</ele>
        <time>2020-11-16T11:35:17Z</time>
      </trkpt>
      <trkpt lat="28.7405780" lon="-17.8215630">
        <ele>1819.5</ele>
        <time>2020-11-16T11:35:18Z</time>
      </trkpt>
      <trkpt lat="28.7405870" lon="-17.8215750">
        <ele>1819.5</ele>
        <time>2020-11-16T11:35:19Z</time>
      </trkpt>
      <trkpt lat="28.7405930" lon="-17.8215830">
        <ele>1819.5</ele>
        <time>2020-11-16T11:35:20Z</time>
      </trkpt>
      <trkpt lat="28.7405930" lon="-17.8215830">
        <ele>1819.5</ele>
        <time>2020-11-16T11:35:21Z</time>
      </trkpt>
      <trkpt lat="28.7406100" lon="-17.8216120">
        <ele>1819.7</ele>
        <time>2020-11-16T11:35:22Z</time>
      </trkpt>
      <trkpt lat="28.7406100" lon="-17.8216120">
        <ele>1819.7</ele>
        <time>2020-11-16T11:35:23Z</time>
      </trkpt>
      <trkpt lat="28.7406320" lon="-17.8216520">
        <ele>1819.8</ele>
        <time>2020-11-16T11:35:24Z</time>
      </trkpt>
      <trkpt lat="28.7406320" lon="-17.8216520">
        <ele>1819.8</ele>
        <time>2020-11-16T11:35:25Z</time>
      </trkpt>
      <trkpt lat="28.7406720" lon="-17.8217170">
        <ele>1820.1</ele>
        <time>2020-11-16T11:35:26Z</time>
      </trkpt>
      <trkpt lat="28.7406720" lon="-17.8217170">
        <ele>1820.1</ele>
        <time>2020-11-16T11:35:27Z</time>
      </trkpt>
      <trkpt lat="28.7407080" lon="-17.8217370">
        <ele>1820.3</ele>
        <time>2020-11-16T11:35:28Z</time>
      </trkpt>
      <trkpt lat="28.7407080" lon="-17.8217370">
        <ele>1820.3</ele>
        <time>2020-11-16T11:35:29Z</time>
      </trkpt>
      <trkpt lat="28.7407430" lon="-17.8217550">
        <ele>1820.5</ele>
        <time>2020-11-16T11:35:30Z</time>
      </trkpt>
      <trkpt lat="28.7407650" lon="-17.8217670">
        <ele>1820.6</ele>
        <time>2020-11-16T11:35:31Z</time>
      </trkpt>
      <trkpt lat="28.7407650" lon="-17.8217670">
        <ele>1820.6</ele>
        <time>2020-11-16T11:35:32Z</time>
      </trkpt>
      <trkpt lat="28.7408050" lon="-17.8217920">
        <ele>1820.8</ele>
        <time>2020-11-16T11:35:33Z</time>
      </trkpt>
      <trkpt lat="28.7408050" lon="-17.8217920">
        <ele>1820.8</ele>
        <time>2020-11-16T11:35:34Z</time>
      </trkpt>
      <trkpt lat="28.7408370" lon="-17.8218170">
        <ele>1820.9</ele>
        <time>2020-11-16T11:35:35Z</time>
      </trkpt>
      <trkpt lat="28.7408370" lon="-17.8218170">
        <ele>1820.9</ele>
        <time>2020-11-16T11:35:36Z</time>
      </trkpt>
      <trkpt lat="28.7408570" lon="-17.8218430">
        <ele>1821.0</ele>
        <time>2020-11-16T11:35:37Z</time>
      </trkpt>
      <trkpt lat="28.7408570" lon="-17.8218430">
        <ele>1821.0</ele>
        <time>2020-11-16T11:35:38Z</time>
      </trkpt>
      <trkpt lat="28.7408720" lon="-17.8218750">
        <ele>1821.2</ele>
        <time>2020-11-16T11:35:39Z</time>
      </trkpt>
      <trkpt lat="28.7408770" lon="-17.8218870">
        <ele>1821.2</ele>
        <time>2020-11-16T11:35:40Z</time>
      </trkpt>
      <trkpt lat="28.7408770" lon="-17.8218870">
        <ele>1821.2</ele>
        <time>2020-11-16T11:35:41Z</time>
      </trkpt>
      <trkpt lat="28.7408970" lon="-17.8219270">
        <ele>1821.4</ele>
        <time>2020-11-16T11:35:42Z</time>
      </trkpt>
      <trkpt lat="28.7408970" lon="-17.8219270">
        <ele>1821.4</ele>
        <time>2020-11-16T11:35:43Z</time>
      </trkpt>
      <trkpt lat="28.7409220" lon="-17.8219650">
        <ele>1821.6</ele>
        <time>2020-11-16T11:35:44Z</time>
      </trkpt>
      <trkpt lat="28.7409220" lon="-17.8219650">
        <ele>1821.6</ele>
        <time>2020-11-16T11:35:45Z</time>
      </trkpt>
      <trkpt lat="28.7409650" lon="-17.8219850">
        <ele>1821.8</ele>
        <time>2020-11-16T11:35:46Z</time>
      </trkpt>
      <trkpt lat="28.7409650" lon="-17.8219850">
        <ele>1821.8</ele>
        <time>2020-11-16T11:35:47Z</time>
      </trkpt>
      <trkpt lat="28.7409830" lon="-17.8219870">
        <ele>1821.8</ele>
        <time>2020-11-16T11:35:48Z</time>
      </trkpt>
      <trkpt lat="28.7409830" lon="-17.8219870">
        <ele>1821.8</ele>
        <time>2020-11-16T11:35:49Z</time>
      </trkpt>
      <trkpt lat="28.7409980" lon="-17.8219850">
        <ele>1821.9</ele>
        <time>2020-11-16T11:35:50Z</time>
      </trkpt>
      <trkpt lat="28.7409980" lon="-17.8219850">
        <ele>1821.9</ele>
        <time>2020-11-16T11:35:51Z</time>
      </trkpt>
      <trkpt lat="28.7410120" lon="-17.8219570">
        <ele>1822.0</ele>
        <time>2020-11-16T11:35:52Z</time>
      </trkpt>
      <trkpt lat="28.7410130" lon="-17.8219350">
        <ele>1822.1</ele>
        <time>2020-11-16T11:35:53Z</time>
      </trkpt>
      <trkpt lat="28.7410150" lon="-17.8219100">
        <ele>1822.2</ele>
        <time>2020-11-16T11:35:54Z</time>
      </trkpt>
      <trkpt lat="28.7410150" lon="-17.8219100">
        <ele>1822.2</ele>
        <time>2020-11-16T11:35:55Z</time>
      </trkpt>
      <trkpt lat="28.7410370" lon="-17.8218600">
        <ele>1822.4</ele>
        <time>2020-11-16T11:35:56Z</time>
      </trkpt>
      <trkpt lat="28.7410370" lon="-17.8218600">
        <ele>1822.4</ele>
        <time>2020-11-16T11:35:57Z</time>
      </trkpt>
      <trkpt lat="28.7410550" lon="-17.8218030">
        <ele>1822.6</ele>
        <time>2020-11-16T11:35:58Z</time>
      </trkpt>
      <trkpt lat="28.7410930" lon="-17.8217800">
        <ele>1822.8</ele>
        <time>2020-11-16T11:35:59Z</time>
      </trkpt>
      <trkpt lat="28.7410930" lon="-17.8217800">
        <ele>1822.8</ele>
        <time>2020-11-16T11:36:00Z</time>
      </trkpt>
      <trkpt lat="28.7410930" lon="-17.8217370">
        <ele>1822.9</ele>
        <time>2020-11-16T11:36:01Z</time>
      </trkpt>
      <trkpt lat="28.7410870" lon="-17.8217170">
        <ele>1823.0</ele>
        <time>2020-11-16T11:36:02Z</time>
      </trkpt>
      <trkpt lat="28.7410870" lon="-17.8216930">
        <ele>1823.1</ele>
        <time>2020-11-16T11:36:03Z</time>
      </trkpt>
      <trkpt lat="28.7410870" lon="-17.8216930">
        <ele>1823.1</ele>
        <time>2020-11-16T11:36:04Z</time>
      </trkpt>
      <trkpt lat="28.7410820" lon="-17.8216520">
        <ele>1823.3</ele>
        <time>2020-11-16T11:36:05Z</time>
      </trkpt>
      <trkpt lat="28.7410820" lon="-17.8216520">
        <ele>1823.3</ele>
        <time>2020-11-16T11:36:06Z</time>
      </trkpt>
      <trkpt lat="28.7410850" lon="-17.8216080">
        <ele>1823.4</ele>
        <time>2020-11-16T11:36:07Z</time>
      </trkpt>
      <trkpt lat="28.7410850" lon="-17.8216080">
        <ele>1823.4</ele>
        <time>2020-11-16T11:36:08Z</time>
      </trkpt>
      <trkpt lat="28.7410750" lon="-17.8215720">
        <ele>1823.6</ele>
        <time>2020-11-16T11:36:09Z</time>
      </trkpt>
      <trkpt lat="28.7410750" lon="-17.8215720">
        <ele>1823.6</ele>
        <time>2020-11-16T11:36:10Z</time>
      </trkpt>
      <trkpt lat="28.7410600" lon="-17.8215350">
        <ele>1823.7</ele>
        <time>2020-11-16T11:36:11Z</time>
      </trkpt>
      <trkpt lat="28.7410580" lon="-17.8215170">
        <ele>1823.8</ele>
        <time>2020-11-16T11:36:12Z</time>
      </trkpt>
      <trkpt lat="28.7410580" lon="-17.8215170">
        <ele>1823.8</ele>
        <time>2020-11-16T11:36:13Z</time>
      </trkpt>
      <trkpt lat="28.7410480" lon="-17.8214880">
        <ele>1823.9</ele>
        <time>2020-11-16T11:36:14Z</time>
      </trkpt>
      <trkpt lat="28.7410480" lon="-17.8214880">
        <ele>1823.9</ele>
        <time>2020-11-16T11:36:15Z</time>
      </trkpt>
      <trkpt lat="28.7410220" lon="-17.8214700">
        <ele>1824.0</ele>
        <time>2020-11-16T11:36:16Z</time>
      </trkpt>
      <trkpt lat="28.7410220" lon="-17.8214700">
        <ele>1824.0</ele>
        <time>2020-11-16T11:36:17Z</time>
      </trkpt>
      <trkpt lat="28.7410120" lon="-17.8214480">
        <ele>1824.1</ele>
        <time>2020-11-16T11:36:18Z</time>
      </trkpt>
      <trkpt lat="28.7410120" lon="-17.8214480">
        <ele>1824.1</ele>
        <time>2020-11-16T11:36:19Z</time>
      </trkpt>
      <trkpt lat="28.7410180" lon="-17.8214220">
        <ele>1824.2</ele>
        <time>2020-11-16T11:36:20Z</time>
      </trkpt>
      <trkpt lat="28.7410180" lon="-17.8214220">
        <ele>1824.2</ele>
        <time>2020-11-16T11:36:21Z</time>
      </trkpt>
      <trkpt lat="28.7410370" lon="-17.8213980">
        <ele>1824.3</ele>
        <time>2020-11-16T11:36:22Z</time>
      </trkpt>
      <trkpt lat="28.7410400" lon="-17.8213880">
        <ele>1824.4</ele>
        <time>2020-11-16T11:36:23Z</time>
      </trkpt>
      <trkpt lat="28.7410400" lon="-17.8213880">
        <ele>1824.4</ele>
        <time>2020-11-16T11:36:24Z</time>
      </trkpt>
      <trkpt lat="28.7410550" lon="-17.8213680">
        <ele>1824.5</ele>
        <time>2020-11-16T11:36:25Z</time>
      </trkpt>
      <trkpt lat="28.7410550" lon="-17.8213680">
        <ele>1824.5</ele>
        <time>2020-11-16T11:36:26Z</time>
      </trkpt>
      <trkpt lat="28.7410770" lon="-17.8213670">
        <ele>1824.5</ele>
        <time>2020-11-16T11:36:27Z</time>
      </trkpt>
      <trkpt lat="28.7410900" lon="-17.8213480">
        <ele>1824.6</ele>
        <time>2020-11-16T11:36:28Z</time>
      </trkpt>
      <trkpt lat="28.7411020" lon="-17.8213400">
        <ele>1824.7</ele>
        <time>2020-11-16T11:36:29Z</time>
      </trkpt>
      <trkpt lat="28.7411020" lon="-17.8213400">
        <ele>1824.7</ele>
        <time>2020-11-16T11:36:30Z</time>
      </trkpt>
      <trkpt lat="28.7411430" lon="-17.8213200">
        <ele>1824.9</ele>
        <time>2020-11-16T11:36:31Z</time>
      </trkpt>
      <trkpt lat="28.7411430" lon="-17.8213200">
        <ele>1824.9</ele>
        <time>2020-11-16T11:36:32Z</time>
      </trkpt>
      <trkpt lat="28.7411770" lon="-17.8213300">
        <ele>1825.0</ele>
        <time>2020-11-16T11:36:33Z</time>
      </trkpt>
      <trkpt lat="28.7411770" lon="-17.8213300">
        <ele>1825.0</ele>
        <time>2020-11-16T11:36:34Z</time>
      </trkpt>
      <trkpt lat="28.7412100" lon="-17.8213320">
        <ele>1825.2</ele>
        <time>2020-11-16T11:36:35Z</time>
      </trkpt>
      <trkpt lat="28.7412100" lon="-17.8213320">
        <ele>1825.2</ele>
        <time>2020-11-16T11:36:36Z</time>
      </trkpt>
      <trkpt lat="28.7412430" lon="-17.8213300">
        <ele>1825.3</ele>
        <time>2020-11-16T11:36:37Z</time>
      </trkpt>
      <trkpt lat="28.7412430" lon="-17.8213300">
        <ele>1825.3</ele>
        <time>2020-11-16T11:36:38Z</time>
      </trkpt>
      <trkpt lat="28.7412750" lon="-17.8213350">
        <ele>1825.4</ele>
        <time>2020-11-16T11:36:39Z</time>
      </trkpt>
      <trkpt lat="28.7412830" lon="-17.8213350">
        <ele>1825.5</ele>
        <time>2020-11-16T11:36:40Z</time>
      </trkpt>
      <trkpt lat="28.7412830" lon="-17.8213350">
        <ele>1825.5</ele>
        <time>2020-11-16T11:36:41Z</time>
      </trkpt>
      <trkpt lat="28.7412830" lon="-17.8213380">
        <ele>1825.5</ele>
        <time>2020-11-16T11:36:42Z</time>
      </trkpt>
      <trkpt lat="28.7412830" lon="-17.8213380">
        <ele>1825.5</ele>
        <time>2020-11-16T11:36:43Z</time>
      </trkpt>
      <trkpt lat="28.7412820" lon="-17.8213370">
        <ele>1825.5</ele>
        <time>2020-11-16T11:36:44Z</time>
      </trkpt>
      <trkpt lat="28.7412820" lon="-17.8213370">
        <ele>1825.5</ele>
        <time>2020-11-16T11:36:45Z</time>
      </trkpt>
      <trkpt lat="28.7412820" lon="-17.8213370">
        <ele>1825.5</ele>
        <time>2020-11-16T11:36:46Z</time>
      </trkpt>
      <trkpt lat="28.7412820" lon="-17.8213370">
        <ele>1825.5</ele>
        <time>2020-11-16T11:36:50Z</time>
      </trkpt>
      <trkpt lat="28.7413130" lon="-17.8213300">
        <ele>1825.6</ele>
        <time>2020-11-16T11:36:51Z</time>
      </trkpt>
      <trkpt lat="28.7413270" lon="-17.8213350">
        <ele>1825.7</ele>
        <time>2020-11-16T11:36:52Z</time>
      </trkpt>
      <trkpt lat="28.7413270" lon="-17.8213350">
        <ele>1825.7</ele>
        <time>2020-11-16T11:36:53Z</time>
      </trkpt>
      <trkpt lat="28.7413470" lon="-17.8213400">
        <ele>1825.8</ele>
        <time>2020-11-16T11:36:54Z</time>
      </trkpt>
      <trkpt lat="28.7413470" lon="-17.8213400">
        <ele>1825.8</ele>
        <time>2020-11-16T11:36:55Z</time>
      </trkpt>
      <trkpt lat="28.7413670" lon="-17.8213470">
        <ele>1825.8</ele>
        <time>2020-11-16T11:36:56Z</time>
      </trkpt>
      <trkpt lat="28.7413670" lon="-17.8213470">
        <ele>1825.8</ele>
        <time>2020-11-16T11:36:57Z</time>
      </trkpt>
      <trkpt lat="28.7413950" lon="-17.8213400">
        <ele>1826.0</ele>
        <time>2020-11-16T11:36:58Z</time>
      </trkpt>
      <trkpt lat="28.7413950" lon="-17.8213400">
        <ele>1826.0</ele>
        <time>2020-11-16T11:36:59Z</time>
      </trkpt>
      <trkpt lat="28.7414180" lon="-17.8213400">
        <ele>1826.1</ele>
        <time>2020-11-16T11:37:00Z</time>
      </trkpt>
      <trkpt lat="28.7414180" lon="-17.8213400">
        <ele>1826.1</ele>
        <time>2020-11-16T11:37:01Z</time>
      </trkpt>
      <trkpt lat="28.7414420" lon="-17.8213450">
        <ele>1826.2</ele>
        <time>2020-11-16T11:37:02Z</time>
      </trkpt>
      <trkpt lat="28.7414420" lon="-17.8213450">
        <ele>1826.2</ele>
        <time>2020-11-16T11:37:03Z</time>
      </trkpt>
      <trkpt lat="28.7414600" lon="-17.8213400">
        <ele>1826.2</ele>
        <time>2020-11-16T11:37:04Z</time>
      </trkpt>
      <trkpt lat="28.7414650" lon="-17.8213420">
        <ele>1826.3</ele>
        <time>2020-11-16T11:37:05Z</time>
      </trkpt>
      <trkpt lat="28.7414650" lon="-17.8213420">
        <ele>1826.3</ele>
        <time>2020-11-16T11:37:06Z</time>
      </trkpt>
      <trkpt lat="28.7414700" lon="-17.8213420">
        <ele>1826.3</ele>
        <time>2020-11-16T11:37:07Z</time>
      </trkpt>
      <trkpt lat="28.7414700" lon="-17.8213420">
        <ele>1826.3</ele>
        <time>2020-11-16T11:37:08Z</time>
      </trkpt>
      <trkpt lat="28.7414830" lon="-17.8213450">
        <ele>1826.3</ele>
        <time>2020-11-16T11:37:09Z</time>
      </trkpt>
      <trkpt lat="28.7414830" lon="-17.8213450">
        <ele>1826.3</ele>
        <time>2020-11-16T11:37:10Z</time>
      </trkpt>
      <trkpt lat="28.7415350" lon="-17.8213830">
        <ele>1826.6</ele>
        <time>2020-11-16T11:37:17Z</time>
      </trkpt>
      <trkpt lat="28.7415350" lon="-17.8213830">
        <ele>1826.6</ele>
        <time>2020-11-16T11:37:18Z</time>
      </trkpt>
      <trkpt lat="28.7415570" lon="-17.8213920">
        <ele>1826.7</ele>
        <time>2020-11-16T11:37:19Z</time>
      </trkpt>
      <trkpt lat="28.7415720" lon="-17.8213880">
        <ele>1826.8</ele>
        <time>2020-11-16T11:37:20Z</time>
      </trkpt>
      <trkpt lat="28.7415720" lon="-17.8213880">
        <ele>1826.8</ele>
        <time>2020-11-16T11:37:21Z</time>
      </trkpt>
      <trkpt lat="28.7415920" lon="-17.8213920">
        <ele>1826.8</ele>
        <time>2020-11-16T11:37:22Z</time>
      </trkpt>
      <trkpt lat="28.7415920" lon="-17.8213920">
        <ele>1826.8</ele>
        <time>2020-11-16T11:37:23Z</time>
      </trkpt>
      <trkpt lat="28.7416080" lon="-17.8213980">
        <ele>1826.9</ele>
        <time>2020-11-16T11:37:24Z</time>
      </trkpt>
      <trkpt lat="28.7416080" lon="-17.8213980">
        <ele>1826.9</ele>
        <time>2020-11-16T11:37:25Z</time>
      </trkpt>
      <trkpt lat="28.7416230" lon="-17.8214100">
        <ele>1827.0</ele>
        <time>2020-11-16T11:37:26Z</time>
      </trkpt>
      <trkpt lat="28.7416230" lon="-17.8214100">
        <ele>1827.0</ele>
        <time>2020-11-16T11:37:27Z</time>
      </trkpt>
      <trkpt lat="28.7416350" lon="-17.8214200">
        <ele>1827.0</ele>
        <time>2020-11-16T11:37:28Z</time>
      </trkpt>
      <trkpt lat="28.7416400" lon="-17.8214100">
        <ele>1827.1</ele>
        <time>2020-11-16T11:37:29Z</time>
      </trkpt>
      <trkpt lat="28.7416480" lon="-17.8214120">
        <ele>1827.1</ele>
        <time>2020-11-16T11:37:30Z</time>
      </trkpt>
      <trkpt lat="28.7416480" lon="-17.8214120">
        <ele>1827.1</ele>
        <time>2020-11-16T11:37:31Z</time>
      </trkpt>
      <trkpt lat="28.7416620" lon="-17.8214270">
        <ele>1827.2</ele>
        <time>2020-11-16T11:37:32Z</time>
      </trkpt>
      <trkpt lat="28.7416620" lon="-17.8214270">
        <ele>1827.2</ele>
        <time>2020-11-16T11:37:33Z</time>
      </trkpt>
      <trkpt lat="28.7416720" lon="-17.8214400">
        <ele>1827.3</ele>
        <time>2020-11-16T11:37:34Z</time>
      </trkpt>
      <trkpt lat="28.7416720" lon="-17.8214400">
        <ele>1827.3</ele>
        <time>2020-11-16T11:37:35Z</time>
      </trkpt>
      <trkpt lat="28.7416780" lon="-17.8214400">
        <ele>1827.3</ele>
        <time>2020-11-16T11:37:36Z</time>
      </trkpt>
      <trkpt lat="28.7416780" lon="-17.8214400">
        <ele>1827.3</ele>
        <time>2020-11-16T11:37:37Z</time>
      </trkpt>
      <trkpt lat="28.7416800" lon="-17.8214450">
        <ele>1827.3</ele>
        <time>2020-11-16T11:37:38Z</time>
      </trkpt>
      <trkpt lat="28.7416820" lon="-17.8214480">
        <ele>1827.3</ele>
        <time>2020-11-16T11:37:39Z</time>
      </trkpt>
      <trkpt lat="28.7416820" lon="-17.8214480">
        <ele>1827.3</ele>
        <time>2020-11-16T11:37:40Z</time>
      </trkpt>
      <trkpt lat="28.7416820" lon="-17.8214600">
        <ele>1827.4</ele>
        <time>2020-11-16T11:37:41Z</time>
      </trkpt>
      <trkpt lat="28.7416820" lon="-17.8214600">
        <ele>1827.4</ele>
        <time>2020-11-16T11:37:42Z</time>
      </trkpt>
      <trkpt lat="28.7416780" lon="-17.8214730">
        <ele>1827.4</ele>
        <time>2020-11-16T11:37:43Z</time>
      </trkpt>
      <trkpt lat="28.7416770" lon="-17.8214780">
        <ele>1827.4</ele>
        <time>2020-11-16T11:37:44Z</time>
      </trkpt>
      <trkpt lat="28.7416770" lon="-17.8214780">
        <ele>1827.4</ele>
        <time>2020-11-16T11:37:45Z</time>
      </trkpt>
      <trkpt lat="28.7416700" lon="-17.8214930">
        <ele>1827.5</ele>
        <time>2020-11-16T11:37:46Z</time>
      </trkpt>
      <trkpt lat="28.7416700" lon="-17.8214930">
        <ele>1827.5</ele>
        <time>2020-11-16T11:37:47Z</time>
      </trkpt>
      <trkpt lat="28.7416480" lon="-17.8215180">
        <ele>1827.6</ele>
        <time>2020-11-16T11:37:48Z</time>
      </trkpt>
      <trkpt lat="28.7416480" lon="-17.8215180">
        <ele>1827.6</ele>
        <time>2020-11-16T11:37:49Z</time>
      </trkpt>
      <trkpt lat="28.7416320" lon="-17.8215420">
        <ele>1827.7</ele>
        <time>2020-11-16T11:37:50Z</time>
      </trkpt>
      <trkpt lat="28.7416320" lon="-17.8215420">
        <ele>1827.7</ele>
        <time>2020-11-16T11:37:51Z</time>
      </trkpt>
      <trkpt lat="28.7416100" lon="-17.8215600">
        <ele>1827.9</ele>
        <time>2020-11-16T11:37:52Z</time>
      </trkpt>
      <trkpt lat="28.7416100" lon="-17.8215600">
        <ele>1827.9</ele>
        <time>2020-11-16T11:37:53Z</time>
      </trkpt>
      <trkpt lat="28.7415870" lon="-17.8215730">
        <ele>1828.0</ele>
        <time>2020-11-16T11:37:54Z</time>
      </trkpt>
      <trkpt lat="28.7415770" lon="-17.8215780">
        <ele>1828.0</ele>
        <time>2020-11-16T11:37:55Z</time>
      </trkpt>
      <trkpt lat="28.7415770" lon="-17.8215780">
        <ele>1828.0</ele>
        <time>2020-11-16T11:37:56Z</time>
      </trkpt>
      <trkpt lat="28.7415530" lon="-17.8215900">
        <ele>1828.1</ele>
        <time>2020-11-16T11:37:57Z</time>
      </trkpt>
      <trkpt lat="28.7415530" lon="-17.8215900">
        <ele>1828.1</ele>
        <time>2020-11-16T11:37:58Z</time>
      </trkpt>
      <trkpt lat="28.7415320" lon="-17.8215980">
        <ele>1828.2</ele>
        <time>2020-11-16T11:37:59Z</time>
      </trkpt>
      <trkpt lat="28.7415250" lon="-17.8216020">
        <ele>1828.2</ele>
        <time>2020-11-16T11:38:00Z</time>
      </trkpt>
      <trkpt lat="28.7415250" lon="-17.8216150">
        <ele>1828.3</ele>
        <time>2020-11-16T11:38:01Z</time>
      </trkpt>
      <trkpt lat="28.7415250" lon="-17.8216150">
        <ele>1828.3</ele>
        <time>2020-11-16T11:38:02Z</time>
      </trkpt>
      <trkpt lat="28.7415250" lon="-17.8216120">
        <ele>1828.3</ele>
        <time>2020-11-16T11:38:03Z</time>
      </trkpt>
      <trkpt lat="28.7415250" lon="-17.8216120">
        <ele>1828.3</ele>
        <time>2020-11-16T11:38:04Z</time>
      </trkpt>
      <trkpt lat="28.7414830" lon="-17.8216070">
        <ele>1828.5</ele>
        <time>2020-11-16T11:38:08Z</time>
      </trkpt>
      <trkpt lat="28.7414670" lon="-17.8216100">
        <ele>1828.5</ele>
        <time>2020-11-16T11:38:09Z</time>
      </trkpt>
      <trkpt lat="28.7414670" lon="-17.8216100">
        <ele>1828.5</ele>
        <time>2020-11-16T11:38:10Z</time>
      </trkpt>
      <trkpt lat="28.7414280" lon="-17.8216120">
        <ele>1828.7</ele>
        <time>2020-11-16T11:38:11Z</time>
      </trkpt>
      <trkpt lat="28.7414280" lon="-17.8216120">
        <ele>1828.7</ele>
        <time>2020-11-16T11:38:12Z</time>
      </trkpt>
      <trkpt lat="28.7413950" lon="-17.8216150">
        <ele>1828.8</ele>
        <time>2020-11-16T11:38:13Z</time>
      </trkpt>
      <trkpt lat="28.7413950" lon="-17.8216150">
        <ele>1828.8</ele>
        <time>2020-11-16T11:38:14Z</time>
      </trkpt>
      <trkpt lat="28.7413680" lon="-17.8216250">
        <ele>1829.0</ele>
        <time>2020-11-16T11:38:15Z</time>
      </trkpt>
      <trkpt lat="28.7413680" lon="-17.8216250">
        <ele>1829.0</ele>
        <time>2020-11-16T11:38:16Z</time>
      </trkpt>
      <trkpt lat="28.7413530" lon="-17.8216420">
        <ele>1829.0</ele>
        <time>2020-11-16T11:38:17Z</time>
      </trkpt>
      <trkpt lat="28.7413530" lon="-17.8216420">
        <ele>1829.0</ele>
        <time>2020-11-16T11:38:18Z</time>
      </trkpt>
      <trkpt lat="28.7413400" lon="-17.8216780">
        <ele>1829.2</ele>
        <time>2020-11-16T11:38:19Z</time>
      </trkpt>
      <trkpt lat="28.7413300" lon="-17.8217030">
        <ele>1829.3</ele>
        <time>2020-11-16T11:38:20Z</time>
      </trkpt>
      <trkpt lat="28.7413300" lon="-17.8217030">
        <ele>1829.3</ele>
        <time>2020-11-16T11:38:21Z</time>
      </trkpt>
      <trkpt lat="28.7413170" lon="-17.8217530">
        <ele>1829.5</ele>
        <time>2020-11-16T11:38:22Z</time>
      </trkpt>
      <trkpt lat="28.7413150" lon="-17.8217720">
        <ele>1829.5</ele>
        <time>2020-11-16T11:38:23Z</time>
      </trkpt>
      <trkpt lat="28.7413100" lon="-17.8217930">
        <ele>1829.6</ele>
        <time>2020-11-16T11:38:24Z</time>
      </trkpt>
      <trkpt lat="28.7413100" lon="-17.8217930">
        <ele>1829.6</ele>
        <time>2020-11-16T11:38:25Z</time>
      </trkpt>
      <trkpt lat="28.7412920" lon="-17.8218320">
        <ele>1829.8</ele>
        <time>2020-11-16T11:38:26Z</time>
      </trkpt>
      <trkpt lat="28.7412920" lon="-17.8218320">
        <ele>1829.8</ele>
        <time>2020-11-16T11:38:27Z</time>
      </trkpt>
      <trkpt lat="28.7412830" lon="-17.8218630">
        <ele>1829.9</ele>
        <time>2020-11-16T11:38:28Z</time>
      </trkpt>
      <trkpt lat="28.7412830" lon="-17.8218630">
        <ele>1829.9</ele>
        <time>2020-11-16T11:38:29Z</time>
      </trkpt>
      <trkpt lat="28.7412720" lon="-17.8219000">
        <ele>1830.0</ele>
        <time>2020-11-16T11:38:30Z</time>
      </trkpt>
      <trkpt lat="28.7412670" lon="-17.8219350">
        <ele>1830.2</ele>
        <time>2020-11-16T11:38:31Z</time>
      </trkpt>
      <trkpt lat="28.7412670" lon="-17.8219350">
        <ele>1830.2</ele>
        <time>2020-11-16T11:38:32Z</time>
      </trkpt>
      <trkpt lat="28.7412620" lon="-17.8219820">
        <ele>1830.4</ele>
        <time>2020-11-16T11:38:33Z</time>
      </trkpt>
      <trkpt lat="28.7412620" lon="-17.8219820">
        <ele>1830.4</ele>
        <time>2020-11-16T11:38:34Z</time>
      </trkpt>
      <trkpt lat="28.7412720" lon="-17.8220120">
        <ele>1830.5</ele>
        <time>2020-11-16T11:38:35Z</time>
      </trkpt>
      <trkpt lat="28.7412720" lon="-17.8220120">
        <ele>1830.5</ele>
        <time>2020-11-16T11:38:36Z</time>
      </trkpt>
      <trkpt lat="28.7412720" lon="-17.8220400">
        <ele>1830.6</ele>
        <time>2020-11-16T11:38:37Z</time>
      </trkpt>
      <trkpt lat="28.7412720" lon="-17.8220400">
        <ele>1830.6</ele>
        <time>2020-11-16T11:38:38Z</time>
      </trkpt>
      <trkpt lat="28.7412630" lon="-17.8220720">
        <ele>1830.7</ele>
        <time>2020-11-16T11:38:39Z</time>
      </trkpt>
      <trkpt lat="28.7412630" lon="-17.8220720">
        <ele>1830.7</ele>
        <time>2020-11-16T11:38:40Z</time>
      </trkpt>
      <trkpt lat="28.7412670" lon="-17.8221000">
        <ele>1830.8</ele>
        <time>2020-11-16T11:38:41Z</time>
      </trkpt>
      <trkpt lat="28.7412670" lon="-17.8221000">
        <ele>1830.8</ele>
        <time>2020-11-16T11:38:42Z</time>
      </trkpt>
      <trkpt lat="28.7412620" lon="-17.8221280">
        <ele>1830.9</ele>
        <time>2020-11-16T11:38:43Z</time>
      </trkpt>
      <trkpt lat="28.7412620" lon="-17.8221280">
        <ele>1830.9</ele>
        <time>2020-11-16T11:38:44Z</time>
      </trkpt>
      <trkpt lat="28.7412530" lon="-17.8221750">
        <ele>1831.1</ele>
        <time>2020-11-16T11:38:45Z</time>
      </trkpt>
      <trkpt lat="28.7412530" lon="-17.8221750">
        <ele>1831.1</ele>
        <time>2020-11-16T11:38:46Z</time>
      </trkpt>
      <trkpt lat="28.7412450" lon="-17.8222230">
        <ele>1831.3</ele>
        <time>2020-11-16T11:38:47Z</time>
      </trkpt>
      <trkpt lat="28.7412450" lon="-17.8222230">
        <ele>1831.3</ele>
        <time>2020-11-16T11:38:48Z</time>
      </trkpt>
      <trkpt lat="28.7412370" lon="-17.8222680">
        <ele>1831.4</ele>
        <time>2020-11-16T11:38:49Z</time>
      </trkpt>
      <trkpt lat="28.7412370" lon="-17.8222680">
        <ele>1831.4</ele>
        <time>2020-11-16T11:38:50Z</time>
      </trkpt>
      <trkpt lat="28.7412330" lon="-17.8223100">
        <ele>1831.6</ele>
        <time>2020-11-16T11:38:51Z</time>
      </trkpt>
      <trkpt lat="28.7412330" lon="-17.8223100">
        <ele>1831.6</ele>
        <time>2020-11-16T11:38:52Z</time>
      </trkpt>
      <trkpt lat="28.7412370" lon="-17.8223400">
        <ele>1831.7</ele>
        <time>2020-11-16T11:38:53Z</time>
      </trkpt>
      <trkpt lat="28.7412350" lon="-17.8223550">
        <ele>1831.7</ele>
        <time>2020-11-16T11:38:54Z</time>
      </trkpt>
      <trkpt lat="28.7412350" lon="-17.8223550">
        <ele>1831.7</ele>
        <time>2020-11-16T11:38:55Z</time>
      </trkpt>
      <trkpt lat="28.7412370" lon="-17.8223830">
        <ele>1831.8</ele>
        <time>2020-11-16T11:38:56Z</time>
      </trkpt>
      <trkpt lat="28.7412370" lon="-17.8223830">
        <ele>1831.8</ele>
        <time>2020-11-16T11:38:57Z</time>
      </trkpt>
      <trkpt lat="28.7412370" lon="-17.8224230">
        <ele>1832.0</ele>
        <time>2020-11-16T11:38:58Z</time>
      </trkpt>
      <trkpt lat="28.7412330" lon="-17.8224400">
        <ele>1832.1</ele>
        <time>2020-11-16T11:38:59Z</time>
      </trkpt>
      <trkpt lat="28.7412330" lon="-17.8224400">
        <ele>1832.1</ele>
        <time>2020-11-16T11:39:00Z</time>
      </trkpt>
      <trkpt lat="28.7412270" lon="-17.8224700">
        <ele>1832.2</ele>
        <time>2020-11-16T11:39:01Z</time>
      </trkpt>
      <trkpt lat="28.7412270" lon="-17.8224700">
        <ele>1832.2</ele>
        <time>2020-11-16T11:39:02Z</time>
      </trkpt>
      <trkpt lat="28.7412370" lon="-17.8225050">
        <ele>1832.3</ele>
        <time>2020-11-16T11:39:03Z</time>
      </trkpt>
      <trkpt lat="28.7412300" lon="-17.8225170">
        <ele>1832.4</ele>
        <time>2020-11-16T11:39:04Z</time>
      </trkpt>
      <trkpt lat="28.7412200" lon="-17.8225270">
        <ele>1832.4</ele>
        <time>2020-11-16T11:39:05Z</time>
      </trkpt>
      <trkpt lat="28.7412200" lon="-17.8225270">
        <ele>1832.4</ele>
        <time>2020-11-16T11:39:06Z</time>
      </trkpt>
      <trkpt lat="28.7411930" lon="-17.8225730">
        <ele>1832.6</ele>
        <time>2020-11-16T11:39:07Z</time>
      </trkpt>
      <trkpt lat="28.7411850" lon="-17.8225820">
        <ele>1832.7</ele>
        <time>2020-11-16T11:39:08Z</time>
      </trkpt>
      <trkpt lat="28.7411850" lon="-17.8225820">
        <ele>1832.7</ele>
        <time>2020-11-16T11:39:09Z</time>
      </trkpt>
      <trkpt lat="28.7411530" lon="-17.8226130">
        <ele>1832.8</ele>
        <time>2020-11-16T11:39:10Z</time>
      </trkpt>
      <trkpt lat="28.7411450" lon="-17.8226320">
        <ele>1832.9</ele>
        <time>2020-11-16T11:39:11Z</time>
      </trkpt>
      <trkpt lat="28.7411450" lon="-17.8226320">
        <ele>1832.9</ele>
        <time>2020-11-16T11:39:12Z</time>
      </trkpt>
      <trkpt lat="28.7411230" lon="-17.8226700">
        <ele>1833.1</ele>
        <time>2020-11-16T11:39:13Z</time>
      </trkpt>
      <trkpt lat="28.7411120" lon="-17.8226850">
        <ele>1833.1</ele>
        <time>2020-11-16T11:39:14Z</time>
      </trkpt>
      <trkpt lat="28.7411120" lon="-17.8226850">
        <ele>1833.1</ele>
        <time>2020-11-16T11:39:15Z</time>
      </trkpt>
      <trkpt lat="28.7410920" lon="-17.8227050">
        <ele>1833.3</ele>
        <time>2020-11-16T11:39:16Z</time>
      </trkpt>
      <trkpt lat="28.7410920" lon="-17.8227050">
        <ele>1833.3</ele>
        <time>2020-11-16T11:39:17Z</time>
      </trkpt>
      <trkpt lat="28.7410750" lon="-17.8227370">
        <ele>1833.4</ele>
        <time>2020-11-16T11:39:18Z</time>
      </trkpt>
      <trkpt lat="28.7410700" lon="-17.8227530">
        <ele>1833.5</ele>
        <time>2020-11-16T11:39:19Z</time>
      </trkpt>
      <trkpt lat="28.7410620" lon="-17.8227670">
        <ele>1833.5</ele>
        <time>2020-11-16T11:39:20Z</time>
      </trkpt>
      <trkpt lat="28.7410500" lon="-17.8227770">
        <ele>1833.6</ele>
        <time>2020-11-16T11:39:21Z</time>
      </trkpt>
      <trkpt lat="28.7410500" lon="-17.8227770">
        <ele>1833.6</ele>
        <time>2020-11-16T11:39:22Z</time>
      </trkpt>
      <trkpt lat="28.7410270" lon="-17.8227930">
        <ele>1833.7</ele>
        <time>2020-11-16T11:39:23Z</time>
      </trkpt>
      <trkpt lat="28.7410150" lon="-17.8228080">
        <ele>1833.8</ele>
        <time>2020-11-16T11:39:24Z</time>
      </trkpt>
      <trkpt lat="28.7410150" lon="-17.8228080">
        <ele>1833.8</ele>
        <time>2020-11-16T11:39:25Z</time>
      </trkpt>
      <trkpt lat="28.7409930" lon="-17.8228430">
        <ele>1833.9</ele>
        <time>2020-11-16T11:39:26Z</time>
      </trkpt>
      <trkpt lat="28.7409930" lon="-17.8228430">
        <ele>1833.9</ele>
        <time>2020-11-16T11:39:27Z</time>
      </trkpt>
      <trkpt lat="28.7409770" lon="-17.8228720">
        <ele>1834.0</ele>
        <time>2020-11-16T11:39:28Z</time>
      </trkpt>
      <trkpt lat="28.7409670" lon="-17.8228820">
        <ele>1834.1</ele>
        <time>2020-11-16T11:39:29Z</time>
      </trkpt>
      <trkpt lat="28.7409670" lon="-17.8228820">
        <ele>1834.1</ele>
        <time>2020-11-16T11:39:30Z</time>
      </trkpt>
      <trkpt lat="28.7409580" lon="-17.8229100">
        <ele>1834.2</ele>
        <time>2020-11-16T11:39:31Z</time>
      </trkpt>
      <trkpt lat="28.7409580" lon="-17.8229100">
        <ele>1834.2</ele>
        <time>2020-11-16T11:39:32Z</time>
      </trkpt>
      <trkpt lat="28.7409520" lon="-17.8229530">
        <ele>1834.4</ele>
        <time>2020-11-16T11:39:33Z</time>
      </trkpt>
      <trkpt lat="28.7409480" lon="-17.8229700">
        <ele>1834.4</ele>
        <time>2020-11-16T11:39:34Z</time>
      </trkpt>
      <trkpt lat="28.7409480" lon="-17.8229700">
        <ele>1834.4</ele>
        <time>2020-11-16T11:39:35Z</time>
      </trkpt>
      <trkpt lat="28.7409330" lon="-17.8230200">
        <ele>1834.6</ele>
        <time>2020-11-16T11:39:36Z</time>
      </trkpt>
      <trkpt lat="28.7409180" lon="-17.8230430">
        <ele>1834.7</ele>
        <time>2020-11-16T11:39:37Z</time>
      </trkpt>
      <trkpt lat="28.7409000" lon="-17.8230650">
        <ele>1834.8</ele>
        <time>2020-11-16T11:39:38Z</time>
      </trkpt>
      <trkpt lat="28.7409000" lon="-17.8230650">
        <ele>1834.8</ele>
        <time>2020-11-16T11:39:39Z</time>
      </trkpt>
      <trkpt lat="28.7408630" lon="-17.8231050">
        <ele>1835.0</ele>
        <time>2020-11-16T11:39:40Z</time>
      </trkpt>
      <trkpt lat="28.7408630" lon="-17.8231050">
        <ele>1835.0</ele>
        <time>2020-11-16T11:39:41Z</time>
      </trkpt>
      <trkpt lat="28.7408200" lon="-17.8231330">
        <ele>1835.3</ele>
        <time>2020-11-16T11:39:42Z</time>
      </trkpt>
      <trkpt lat="28.7408200" lon="-17.8231330">
        <ele>1835.3</ele>
        <time>2020-11-16T11:39:43Z</time>
      </trkpt>
      <trkpt lat="28.7407830" lon="-17.8231600">
        <ele>1835.4</ele>
        <time>2020-11-16T11:39:44Z</time>
      </trkpt>
      <trkpt lat="28.7407830" lon="-17.8231600">
        <ele>1835.4</ele>
        <time>2020-11-16T11:39:45Z</time>
      </trkpt>
      <trkpt lat="28.7407430" lon="-17.8231700">
        <ele>1835.6</ele>
        <time>2020-11-16T11:39:46Z</time>
      </trkpt>
      <trkpt lat="28.7407220" lon="-17.8231800">
        <ele>1835.7</ele>
        <time>2020-11-16T11:39:47Z</time>
      </trkpt>
      <trkpt lat="28.7407220" lon="-17.8231800">
        <ele>1835.7</ele>
        <time>2020-11-16T11:39:48Z</time>
      </trkpt>
      <trkpt lat="28.7406750" lon="-17.8232220">
        <ele>1836.0</ele>
        <time>2020-11-16T11:39:49Z</time>
      </trkpt>
      <trkpt lat="28.7406750" lon="-17.8232220">
        <ele>1836.0</ele>
        <time>2020-11-16T11:39:50Z</time>
      </trkpt>
      <trkpt lat="28.7406280" lon="-17.8232620">
        <ele>1836.2</ele>
        <time>2020-11-16T11:39:51Z</time>
      </trkpt>
      <trkpt lat="28.7406280" lon="-17.8232620">
        <ele>1836.2</ele>
        <time>2020-11-16T11:39:52Z</time>
      </trkpt>
      <trkpt lat="28.7405720" lon="-17.8232970">
        <ele>1836.5</ele>
        <time>2020-11-16T11:39:53Z</time>
      </trkpt>
      <trkpt lat="28.7405720" lon="-17.8232970">
        <ele>1836.5</ele>
        <time>2020-11-16T11:39:54Z</time>
      </trkpt>
      <trkpt lat="28.7405130" lon="-17.8233200">
        <ele>1836.7</ele>
        <time>2020-11-16T11:39:55Z</time>
      </trkpt>
      <trkpt lat="28.7404850" lon="-17.8233300">
        <ele>1836.8</ele>
        <time>2020-11-16T11:39:56Z</time>
      </trkpt>
      <trkpt lat="28.7404850" lon="-17.8233300">
        <ele>1836.8</ele>
        <time>2020-11-16T11:39:57Z</time>
      </trkpt>
      <trkpt lat="28.7404370" lon="-17.8233570">
        <ele>1837.1</ele>
        <time>2020-11-16T11:39:58Z</time>
      </trkpt>
      <trkpt lat="28.7404370" lon="-17.8233570">
        <ele>1837.1</ele>
        <time>2020-11-16T11:39:59Z</time>
      </trkpt>
      <trkpt lat="28.7403950" lon="-17.8233880">
        <ele>1837.3</ele>
        <time>2020-11-16T11:40:00Z</time>
      </trkpt>
      <trkpt lat="28.7403950" lon="-17.8233880">
        <ele>1837.3</ele>
        <time>2020-11-16T11:40:01Z</time>
      </trkpt>
      <trkpt lat="28.7403530" lon="-17.8234270">
        <ele>1837.5</ele>
        <time>2020-11-16T11:40:02Z</time>
      </trkpt>
      <trkpt lat="28.7403320" lon="-17.8234480">
        <ele>1837.6</ele>
        <time>2020-11-16T11:40:03Z</time>
      </trkpt>
      <trkpt lat="28.7403120" lon="-17.8234780">
        <ele>1837.8</ele>
        <time>2020-11-16T11:40:04Z</time>
      </trkpt>
      <trkpt lat="28.7402820" lon="-17.8234920">
        <ele>1837.9</ele>
        <time>2020-11-16T11:40:05Z</time>
      </trkpt>
      <trkpt lat="28.7402820" lon="-17.8234920">
        <ele>1837.9</ele>
        <time>2020-11-16T11:40:06Z</time>
      </trkpt>
      <trkpt lat="28.7402200" lon="-17.8234700">
        <ele>1838.2</ele>
        <time>2020-11-16T11:40:07Z</time>
      </trkpt>
      <trkpt lat="28.7402000" lon="-17.8234550">
        <ele>1838.3</ele>
        <time>2020-11-16T11:40:08Z</time>
      </trkpt>
      <trkpt lat="28.7402000" lon="-17.8234550">
        <ele>1838.3</ele>
        <time>2020-11-16T11:40:09Z</time>
      </trkpt>
      <trkpt lat="28.7401820" lon="-17.8234080">
        <ele>1838.4</ele>
        <time>2020-11-16T11:40:10Z</time>
      </trkpt>
      <trkpt lat="28.7401820" lon="-17.8234080">
        <ele>1838.4</ele>
        <time>2020-11-16T11:40:11Z</time>
      </trkpt>
      <trkpt lat="28.7401680" lon="-17.8233650">
        <ele>1838.6</ele>
        <time>2020-11-16T11:40:12Z</time>
      </trkpt>
      <trkpt lat="28.7401680" lon="-17.8233650">
        <ele>1838.6</ele>
        <time>2020-11-16T11:40:13Z</time>
      </trkpt>
      <trkpt lat="28.7401680" lon="-17.8233180">
        <ele>1838.8</ele>
        <time>2020-11-16T11:40:14Z</time>
      </trkpt>
      <trkpt lat="28.7401680" lon="-17.8233180">
        <ele>1838.8</ele>
        <time>2020-11-16T11:40:15Z</time>
      </trkpt>
      <trkpt lat="28.7401930" lon="-17.8232630">
        <ele>1839.0</ele>
        <time>2020-11-16T11:40:16Z</time>
      </trkpt>
      <trkpt lat="28.7401930" lon="-17.8232630">
        <ele>1839.0</ele>
        <time>2020-11-16T11:40:17Z</time>
      </trkpt>
      <trkpt lat="28.7402280" lon="-17.8232030">
        <ele>1839.3</ele>
        <time>2020-11-16T11:40:18Z</time>
      </trkpt>
      <trkpt lat="28.7402280" lon="-17.8232030">
        <ele>1839.3</ele>
        <time>2020-11-16T11:40:19Z</time>
      </trkpt>
      <trkpt lat="28.7402620" lon="-17.8231520">
        <ele>1839.5</ele>
        <time>2020-11-16T11:40:20Z</time>
      </trkpt>
      <trkpt lat="28.7402750" lon="-17.8231330">
        <ele>1839.6</ele>
        <time>2020-11-16T11:40:21Z</time>
      </trkpt>
      <trkpt lat="28.7402750" lon="-17.8231330">
        <ele>1839.6</ele>
        <time>2020-11-16T11:40:22Z</time>
      </trkpt>
      <trkpt lat="28.7403180" lon="-17.8230930">
        <ele>1839.8</ele>
        <time>2020-11-16T11:40:23Z</time>
      </trkpt>
      <trkpt lat="28.7403300" lon="-17.8230700">
        <ele>1839.9</ele>
        <time>2020-11-16T11:40:24Z</time>
      </trkpt>
      <trkpt lat="28.7403300" lon="-17.8230700">
        <ele>1839.9</ele>
        <time>2020-11-16T11:40:25Z</time>
      </trkpt>
      <trkpt lat="28.7403500" lon="-17.8230200">
        <ele>1840.1</ele>
        <time>2020-11-16T11:40:26Z</time>
      </trkpt>
      <trkpt lat="28.7403500" lon="-17.8230200">
        <ele>1840.1</ele>
        <time>2020-11-16T11:40:27Z</time>
      </trkpt>
      <trkpt lat="28.7403670" lon="-17.8229680">
        <ele>1840.3</ele>
        <time>2020-11-16T11:40:28Z</time>
      </trkpt>
      <trkpt lat="28.7403700" lon="-17.8229430">
        <ele>1840.4</ele>
        <time>2020-11-16T11:40:29Z</time>
      </trkpt>
      <trkpt lat="28.7403670" lon="-17.8229170">
        <ele>1840.5</ele>
        <time>2020-11-16T11:40:30Z</time>
      </trkpt>
      <trkpt lat="28.7403670" lon="-17.8229170">
        <ele>1840.5</ele>
        <time>2020-11-16T11:40:31Z</time>
      </trkpt>
      <trkpt lat="28.7403700" lon="-17.8228720">
        <ele>1840.7</ele>
        <time>2020-11-16T11:40:32Z</time>
      </trkpt>
      <trkpt lat="28.7403700" lon="-17.8228720">
        <ele>1840.7</ele>
        <time>2020-11-16T11:40:33Z</time>
      </trkpt>
      <trkpt lat="28.7403580" lon="-17.8228070">
        <ele>1840.9</ele>
        <time>2020-11-16T11:40:34Z</time>
      </trkpt>
      <trkpt lat="28.7403580" lon="-17.8228070">
        <ele>1840.9</ele>
        <time>2020-11-16T11:40:35Z</time>
      </trkpt>
      <trkpt lat="28.7403130" lon="-17.8227520">
        <ele>1841.2</ele>
        <time>2020-11-16T11:40:36Z</time>
      </trkpt>
      <trkpt lat="28.7403130" lon="-17.8227520">
        <ele>1841.2</ele>
        <time>2020-11-16T11:40:37Z</time>
      </trkpt>
      <trkpt lat="28.7403150" lon="-17.8226950">
        <ele>1841.4</ele>
        <time>2020-11-16T11:40:38Z</time>
      </trkpt>
      <trkpt lat="28.7403150" lon="-17.8226950">
        <ele>1841.4</ele>
        <time>2020-11-16T11:40:39Z</time>
      </trkpt>
      <trkpt lat="28.7403100" lon="-17.8226600">
        <ele>1841.5</ele>
        <time>2020-11-16T11:40:40Z</time>
      </trkpt>
      <trkpt lat="28.7403100" lon="-17.8226600">
        <ele>1841.5</ele>
        <time>2020-11-16T11:40:41Z</time>
      </trkpt>
      <trkpt lat="28.7402950" lon="-17.8226180">
        <ele>1841.7</ele>
        <time>2020-11-16T11:40:42Z</time>
      </trkpt>
      <trkpt lat="28.7402950" lon="-17.8226180">
        <ele>1841.7</ele>
        <time>2020-11-16T11:40:43Z</time>
      </trkpt>
      <trkpt lat="28.7402780" lon="-17.8225850">
        <ele>1841.8</ele>
        <time>2020-11-16T11:40:44Z</time>
      </trkpt>
      <trkpt lat="28.7402780" lon="-17.8225850">
        <ele>1841.8</ele>
        <time>2020-11-16T11:40:45Z</time>
      </trkpt>
      <trkpt lat="28.7402780" lon="-17.8225850">
        <ele>1841.8</ele>
        <time>2020-11-16T11:40:46Z</time>
      </trkpt>
      <trkpt lat="28.7402520" lon="-17.8225470">
        <ele>1842.0</ele>
        <time>2020-11-16T11:40:47Z</time>
      </trkpt>
      <trkpt lat="28.7402200" lon="-17.8225170">
        <ele>1842.2</ele>
        <time>2020-11-16T11:40:48Z</time>
      </trkpt>
      <trkpt lat="28.7402200" lon="-17.8225170">
        <ele>1842.2</ele>
        <time>2020-11-16T11:40:49Z</time>
      </trkpt>
      <trkpt lat="28.7401850" lon="-17.8224850">
        <ele>1842.4</ele>
        <time>2020-11-16T11:40:50Z</time>
      </trkpt>
      <trkpt lat="28.7401850" lon="-17.8224850">
        <ele>1842.4</ele>
        <time>2020-11-16T11:40:51Z</time>
      </trkpt>
      <trkpt lat="28.7401500" lon="-17.8224620">
        <ele>1842.5</ele>
        <time>2020-11-16T11:40:52Z</time>
      </trkpt>
      <trkpt lat="28.7401300" lon="-17.8224480">
        <ele>1842.6</ele>
        <time>2020-11-16T11:40:53Z</time>
      </trkpt>
      <trkpt lat="28.7401300" lon="-17.8224480">
        <ele>1842.6</ele>
        <time>2020-11-16T11:40:54Z</time>
      </trkpt>
      <trkpt lat="28.7401000" lon="-17.8224230">
        <ele>1842.8</ele>
        <time>2020-11-16T11:40:55Z</time>
      </trkpt>
      <trkpt lat="28.7400870" lon="-17.8224080">
        <ele>1842.9</ele>
        <time>2020-11-16T11:40:56Z</time>
      </trkpt>
      <trkpt lat="28.7400870" lon="-17.8224080">
        <ele>1842.9</ele>
        <time>2020-11-16T11:40:57Z</time>
      </trkpt>
      <trkpt lat="28.7400570" lon="-17.8223830">
        <ele>1843.0</ele>
        <time>2020-11-16T11:40:58Z</time>
      </trkpt>
      <trkpt lat="28.7400570" lon="-17.8223830">
        <ele>1843.0</ele>
        <time>2020-11-16T11:40:59Z</time>
      </trkpt>
      <trkpt lat="28.7400230" lon="-17.8223580">
        <ele>1843.2</ele>
        <time>2020-11-16T11:41:00Z</time>
      </trkpt>
      <trkpt lat="28.7400230" lon="-17.8223580">
        <ele>1843.2</ele>
        <time>2020-11-16T11:41:01Z</time>
      </trkpt>
      <trkpt lat="28.7399850" lon="-17.8223400">
        <ele>1843.4</ele>
        <time>2020-11-16T11:41:02Z</time>
      </trkpt>
      <trkpt lat="28.7399850" lon="-17.8223400">
        <ele>1843.4</ele>
        <time>2020-11-16T11:41:03Z</time>
      </trkpt>
      <trkpt lat="28.7399520" lon="-17.8223270">
        <ele>1843.5</ele>
        <time>2020-11-16T11:41:04Z</time>
      </trkpt>
      <trkpt lat="28.7399520" lon="-17.8223270">
        <ele>1843.5</ele>
        <time>2020-11-16T11:41:05Z</time>
      </trkpt>
      <trkpt lat="28.7399180" lon="-17.8223280">
        <ele>1843.6</ele>
        <time>2020-11-16T11:41:06Z</time>
      </trkpt>
      <trkpt lat="28.7399020" lon="-17.8223330">
        <ele>1843.7</ele>
        <time>2020-11-16T11:41:07Z</time>
      </trkpt>
      <trkpt lat="28.7399020" lon="-17.8223330">
        <ele>1843.7</ele>
        <time>2020-11-16T11:41:08Z</time>
      </trkpt>
      <trkpt lat="28.7398720" lon="-17.8223400">
        <ele>1843.8</ele>
        <time>2020-11-16T11:41:09Z</time>
      </trkpt>
      <trkpt lat="28.7398720" lon="-17.8223400">
        <ele>1843.8</ele>
        <time>2020-11-16T11:41:10Z</time>
      </trkpt>
      <trkpt lat="28.7398280" lon="-17.8223620">
        <ele>1844.0</ele>
        <time>2020-11-16T11:41:11Z</time>
      </trkpt>
      <trkpt lat="28.7398280" lon="-17.8223620">
        <ele>1844.0</ele>
        <time>2020-11-16T11:41:12Z</time>
      </trkpt>
      <trkpt lat="28.7398030" lon="-17.8223830">
        <ele>1844.2</ele>
        <time>2020-11-16T11:41:13Z</time>
      </trkpt>
      <trkpt lat="28.7398030" lon="-17.8223830">
        <ele>1844.2</ele>
        <time>2020-11-16T11:41:14Z</time>
      </trkpt>
      <trkpt lat="28.7397880" lon="-17.8224000">
        <ele>1844.3</ele>
        <time>2020-11-16T11:41:15Z</time>
      </trkpt>
      <trkpt lat="28.7397750" lon="-17.8224100">
        <ele>1844.3</ele>
        <time>2020-11-16T11:41:16Z</time>
      </trkpt>
      <trkpt lat="28.7397750" lon="-17.8224100">
        <ele>1844.3</ele>
        <time>2020-11-16T11:41:17Z</time>
      </trkpt>
      <trkpt lat="28.7397430" lon="-17.8224220">
        <ele>1844.5</ele>
        <time>2020-11-16T11:41:18Z</time>
      </trkpt>
      <trkpt lat="28.7397430" lon="-17.8224220">
        <ele>1844.5</ele>
        <time>2020-11-16T11:41:19Z</time>
      </trkpt>
      <trkpt lat="28.7397100" lon="-17.8224280">
        <ele>1844.6</ele>
        <time>2020-11-16T11:41:20Z</time>
      </trkpt>
      <trkpt lat="28.7397100" lon="-17.8224280">
        <ele>1844.6</ele>
        <time>2020-11-16T11:41:21Z</time>
      </trkpt>
      <trkpt lat="28.7396730" lon="-17.8224350">
        <ele>1844.8</ele>
        <time>2020-11-16T11:41:22Z</time>
      </trkpt>
      <trkpt lat="28.7396550" lon="-17.8224420">
        <ele>1844.8</ele>
        <time>2020-11-16T11:41:23Z</time>
      </trkpt>
      <trkpt lat="28.7396550" lon="-17.8224420">
        <ele>1844.8</ele>
        <time>2020-11-16T11:41:24Z</time>
      </trkpt>
      <trkpt lat="28.7396220" lon="-17.8224500">
        <ele>1845.0</ele>
        <time>2020-11-16T11:41:25Z</time>
      </trkpt>
      <trkpt lat="28.7396220" lon="-17.8224500">
        <ele>1845.0</ele>
        <time>2020-11-16T11:41:26Z</time>
      </trkpt>
      <trkpt lat="28.7395880" lon="-17.8224680">
        <ele>1845.1</ele>
        <time>2020-11-16T11:41:27Z</time>
      </trkpt>
      <trkpt lat="28.7395880" lon="-17.8224680">
        <ele>1845.1</ele>
        <time>2020-11-16T11:41:28Z</time>
      </trkpt>
      <trkpt lat="28.7395600" lon="-17.8224830">
        <ele>1846.3</ele>
        <time>2020-11-16T11:41:29Z</time>
      </trkpt>
      <trkpt lat="28.7395600" lon="-17.8224830">
        <ele>1846.3</ele>
        <time>2020-11-16T11:41:30Z</time>
      </trkpt>
      <trkpt lat="28.7395270" lon="-17.8224920">
        <ele>1847.7</ele>
        <time>2020-11-16T11:41:31Z</time>
      </trkpt>
      <trkpt lat="28.7395050" lon="-17.8224980">
        <ele>1848.6</ele>
        <time>2020-11-16T11:41:32Z</time>
      </trkpt>
      <trkpt lat="28.7395050" lon="-17.8224980">
        <ele>1848.6</ele>
        <time>2020-11-16T11:41:33Z</time>
      </trkpt>
      <trkpt lat="28.7394670" lon="-17.8225080">
        <ele>1850.3</ele>
        <time>2020-11-16T11:41:34Z</time>
      </trkpt>
      <trkpt lat="28.7394670" lon="-17.8225080">
        <ele>1850.3</ele>
        <time>2020-11-16T11:41:35Z</time>
      </trkpt>
      <trkpt lat="28.7394450" lon="-17.8225270">
        <ele>1851.4</ele>
        <time>2020-11-16T11:41:36Z</time>
      </trkpt>
      <trkpt lat="28.7394450" lon="-17.8225270">
        <ele>1851.4</ele>
        <time>2020-11-16T11:41:37Z</time>
      </trkpt>
      <trkpt lat="28.7394200" lon="-17.8225580">
        <ele>1852.9</ele>
        <time>2020-11-16T11:41:38Z</time>
      </trkpt>
      <trkpt lat="28.7394200" lon="-17.8225580">
        <ele>1852.9</ele>
        <time>2020-11-16T11:41:39Z</time>
      </trkpt>
      <trkpt lat="28.7393830" lon="-17.8225450">
        <ele>1854.6</ele>
        <time>2020-11-16T11:41:40Z</time>
      </trkpt>
      <trkpt lat="28.7393520" lon="-17.8225600">
        <ele>1856.0</ele>
        <time>2020-11-16T11:41:41Z</time>
      </trkpt>
      <trkpt lat="28.7393520" lon="-17.8225600">
        <ele>1856.0</ele>
        <time>2020-11-16T11:41:42Z</time>
      </trkpt>
      <trkpt lat="28.7393150" lon="-17.8225780">
        <ele>1857.7</ele>
        <time>2020-11-16T11:41:43Z</time>
      </trkpt>
      <trkpt lat="28.7393150" lon="-17.8225780">
        <ele>1857.7</ele>
        <time>2020-11-16T11:41:44Z</time>
      </trkpt>
      <trkpt lat="28.7392750" lon="-17.8225920">
        <ele>1859.5</ele>
        <time>2020-11-16T11:41:45Z</time>
      </trkpt>
      <trkpt lat="28.7392750" lon="-17.8225920">
        <ele>1859.5</ele>
        <time>2020-11-16T11:41:46Z</time>
      </trkpt>
      <trkpt lat="28.7392420" lon="-17.8226050">
        <ele>1860.9</ele>
        <time>2020-11-16T11:41:47Z</time>
      </trkpt>
      <trkpt lat="28.7392420" lon="-17.8226050">
        <ele>1860.9</ele>
        <time>2020-11-16T11:41:48Z</time>
      </trkpt>
      <trkpt lat="28.7392180" lon="-17.8226280">
        <ele>1862.3</ele>
        <time>2020-11-16T11:41:49Z</time>
      </trkpt>
      <trkpt lat="28.7392050" lon="-17.8226350">
        <ele>1862.9</ele>
        <time>2020-11-16T11:41:50Z</time>
      </trkpt>
      <trkpt lat="28.7392050" lon="-17.8226350">
        <ele>1862.9</ele>
        <time>2020-11-16T11:41:51Z</time>
      </trkpt>
      <trkpt lat="28.7391780" lon="-17.8226430">
        <ele>1864.1</ele>
        <time>2020-11-16T11:41:52Z</time>
      </trkpt>
      <trkpt lat="28.7391780" lon="-17.8226430">
        <ele>1864.1</ele>
        <time>2020-11-16T11:41:53Z</time>
      </trkpt>
      <trkpt lat="28.7391530" lon="-17.8226520">
        <ele>1865.2</ele>
        <time>2020-11-16T11:41:54Z</time>
      </trkpt>
      <trkpt lat="28.7391350" lon="-17.8226570">
        <ele>1865.9</ele>
        <time>2020-11-16T11:41:55Z</time>
      </trkpt>
      <trkpt lat="28.7391350" lon="-17.8226570">
        <ele>1865.9</ele>
        <time>2020-11-16T11:41:56Z</time>
      </trkpt>
      <trkpt lat="28.7390880" lon="-17.8226650">
        <ele>1867.9</ele>
        <time>2020-11-16T11:41:57Z</time>
      </trkpt>
      <trkpt lat="28.7390880" lon="-17.8226650">
        <ele>1867.9</ele>
        <time>2020-11-16T11:41:58Z</time>
      </trkpt>
      <trkpt lat="28.7390500" lon="-17.8226630">
        <ele>1869.4</ele>
        <time>2020-11-16T11:41:59Z</time>
      </trkpt>
      <trkpt lat="28.7390500" lon="-17.8226630">
        <ele>1869.4</ele>
        <time>2020-11-16T11:42:00Z</time>
      </trkpt>
      <trkpt lat="28.7390150" lon="-17.8226470">
        <ele>1870.8</ele>
        <time>2020-11-16T11:42:01Z</time>
      </trkpt>
      <trkpt lat="28.7390150" lon="-17.8226470">
        <ele>1870.8</ele>
        <time>2020-11-16T11:42:02Z</time>
      </trkpt>
      <trkpt lat="28.7389880" lon="-17.8226250">
        <ele>1871.0</ele>
        <time>2020-11-16T11:42:03Z</time>
      </trkpt>
      <trkpt lat="28.7389820" lon="-17.8226120">
        <ele>1871.0</ele>
        <time>2020-11-16T11:42:04Z</time>
      </trkpt>
      <trkpt lat="28.7389820" lon="-17.8226120">
        <ele>1871.0</ele>
        <time>2020-11-16T11:42:05Z</time>
      </trkpt>
      <trkpt lat="28.7389720" lon="-17.8225850">
        <ele>1871.2</ele>
        <time>2020-11-16T11:42:06Z</time>
      </trkpt>
      <trkpt lat="28.7389720" lon="-17.8225850">
        <ele>1871.2</ele>
        <time>2020-11-16T11:42:07Z</time>
      </trkpt>
      <trkpt lat="28.7389670" lon="-17.8225750">
        <ele>1871.2</ele>
        <time>2020-11-16T11:42:08Z</time>
      </trkpt>
      <trkpt lat="28.7389670" lon="-17.8225750">
        <ele>1871.2</ele>
        <time>2020-11-16T11:42:09Z</time>
      </trkpt>
      <trkpt lat="28.7389880" lon="-17.8225550">
        <ele>1871.4</ele>
        <time>2020-11-16T11:42:10Z</time>
      </trkpt>
      <trkpt lat="28.7389880" lon="-17.8225550">
        <ele>1871.4</ele>
        <time>2020-11-16T11:42:11Z</time>
      </trkpt>
      <trkpt lat="28.7389670" lon="-17.8225450">
        <ele>1871.5</ele>
        <time>2020-11-16T11:42:12Z</time>
      </trkpt>
      <trkpt lat="28.7389670" lon="-17.8225270">
        <ele>1871.6</ele>
        <time>2020-11-16T11:42:13Z</time>
      </trkpt>
      <trkpt lat="28.7389670" lon="-17.8225270">
        <ele>1871.6</ele>
        <time>2020-11-16T11:42:14Z</time>
      </trkpt>
      <trkpt lat="28.7389680" lon="-17.8224900">
        <ele>1871.8</ele>
        <time>2020-11-16T11:42:15Z</time>
      </trkpt>
      <trkpt lat="28.7389680" lon="-17.8224900">
        <ele>1871.8</ele>
        <time>2020-11-16T11:42:16Z</time>
      </trkpt>
      <trkpt lat="28.7389630" lon="-17.8224430">
        <ele>1872.0</ele>
        <time>2020-11-16T11:42:17Z</time>
      </trkpt>
      <trkpt lat="28.7389630" lon="-17.8224430">
        <ele>1872.0</ele>
        <time>2020-11-16T11:42:18Z</time>
      </trkpt>
      <trkpt lat="28.7389600" lon="-17.8223970">
        <ele>1872.3</ele>
        <time>2020-11-16T11:42:19Z</time>
      </trkpt>
      <trkpt lat="28.7389600" lon="-17.8223970">
        <ele>1872.3</ele>
        <time>2020-11-16T11:42:20Z</time>
      </trkpt>
      <trkpt lat="28.7389450" lon="-17.8223550">
        <ele>1872.5</ele>
        <time>2020-11-16T11:42:21Z</time>
      </trkpt>
      <trkpt lat="28.7389450" lon="-17.8223550">
        <ele>1872.5</ele>
        <time>2020-11-16T11:42:22Z</time>
      </trkpt>
      <trkpt lat="28.7389320" lon="-17.8223180">
        <ele>1872.7</ele>
        <time>2020-11-16T11:42:23Z</time>
      </trkpt>
      <trkpt lat="28.7389200" lon="-17.8222920">
        <ele>1872.8</ele>
        <time>2020-11-16T11:42:24Z</time>
      </trkpt>
      <trkpt lat="28.7389200" lon="-17.8222920">
        <ele>1872.8</ele>
        <time>2020-11-16T11:42:25Z</time>
      </trkpt>
      <trkpt lat="28.7389050" lon="-17.8222480">
        <ele>1873.1</ele>
        <time>2020-11-16T11:42:26Z</time>
      </trkpt>
      <trkpt lat="28.7389050" lon="-17.8222480">
        <ele>1873.1</ele>
        <time>2020-11-16T11:42:27Z</time>
      </trkpt>
      <trkpt lat="28.7388730" lon="-17.8221780">
        <ele>1873.5</ele>
        <time>2020-11-16T11:42:28Z</time>
      </trkpt>
      <trkpt lat="28.7388550" lon="-17.8221480">
        <ele>1873.7</ele>
        <time>2020-11-16T11:42:29Z</time>
      </trkpt>
      <trkpt lat="28.7388550" lon="-17.8221480">
        <ele>1873.7</ele>
        <time>2020-11-16T11:42:30Z</time>
      </trkpt>
      <trkpt lat="28.7388120" lon="-17.8221270">
        <ele>1873.9</ele>
        <time>2020-11-16T11:42:31Z</time>
      </trkpt>
      <trkpt lat="28.7388120" lon="-17.8221270">
        <ele>1873.9</ele>
        <time>2020-11-16T11:42:32Z</time>
      </trkpt>
      <trkpt lat="28.7387720" lon="-17.8221170">
        <ele>1874.2</ele>
        <time>2020-11-16T11:42:33Z</time>
      </trkpt>
      <trkpt lat="28.7387720" lon="-17.8221170">
        <ele>1874.2</ele>
        <time>2020-11-16T11:42:34Z</time>
      </trkpt>
      <trkpt lat="28.7387320" lon="-17.8221180">
        <ele>1874.4</ele>
        <time>2020-11-16T11:42:35Z</time>
      </trkpt>
      <trkpt lat="28.7387320" lon="-17.8221180">
        <ele>1874.4</ele>
        <time>2020-11-16T11:42:36Z</time>
      </trkpt>
      <trkpt lat="28.7387020" lon="-17.8221380">
        <ele>1874.6</ele>
        <time>2020-11-16T11:42:37Z</time>
      </trkpt>
      <trkpt lat="28.7386830" lon="-17.8221550">
        <ele>1874.7</ele>
        <time>2020-11-16T11:42:38Z</time>
      </trkpt>
      <trkpt lat="28.7386650" lon="-17.8221720">
        <ele>1874.9</ele>
        <time>2020-11-16T11:42:39Z</time>
      </trkpt>
      <trkpt lat="28.7386650" lon="-17.8221720">
        <ele>1874.9</ele>
        <time>2020-11-16T11:42:40Z</time>
      </trkpt>
      <trkpt lat="28.7386250" lon="-17.8221820">
        <ele>1875.1</ele>
        <time>2020-11-16T11:42:41Z</time>
      </trkpt>
      <trkpt lat="28.7386050" lon="-17.8221920">
        <ele>1875.2</ele>
        <time>2020-11-16T11:42:42Z</time>
      </trkpt>
      <trkpt lat="28.7386050" lon="-17.8221920">
        <ele>1875.2</ele>
        <time>2020-11-16T11:42:43Z</time>
      </trkpt>
      <trkpt lat="28.7385630" lon="-17.8222020">
        <ele>1875.5</ele>
        <time>2020-11-16T11:42:44Z</time>
      </trkpt>
      <trkpt lat="28.7385630" lon="-17.8222020">
        <ele>1875.5</ele>
        <time>2020-11-16T11:42:45Z</time>
      </trkpt>
      <trkpt lat="28.7385270" lon="-17.8222220">
        <ele>1875.7</ele>
        <time>2020-11-16T11:42:46Z</time>
      </trkpt>
      <trkpt lat="28.7385270" lon="-17.8222220">
        <ele>1875.7</ele>
        <time>2020-11-16T11:42:47Z</time>
      </trkpt>
      <trkpt lat="28.7384900" lon="-17.8222270">
        <ele>1875.9</ele>
        <time>2020-11-16T11:42:48Z</time>
      </trkpt>
      <trkpt lat="28.7384750" lon="-17.8222270">
        <ele>1876.0</ele>
        <time>2020-11-16T11:42:49Z</time>
      </trkpt>
      <trkpt lat="28.7384600" lon="-17.8222320">
        <ele>1876.1</ele>
        <time>2020-11-16T11:42:50Z</time>
      </trkpt>
      <trkpt lat="28.7384600" lon="-17.8222320">
        <ele>1876.1</ele>
        <time>2020-11-16T11:42:51Z</time>
      </trkpt>
      <trkpt lat="28.7384230" lon="-17.8222470">
        <ele>1876.3</ele>
        <time>2020-11-16T11:42:52Z</time>
      </trkpt>
      <trkpt lat="28.7384230" lon="-17.8222470">
        <ele>1876.3</ele>
        <time>2020-11-16T11:42:53Z</time>
      </trkpt>
      <trkpt lat="28.7383920" lon="-17.8222620">
        <ele>1876.5</ele>
        <time>2020-11-16T11:42:54Z</time>
      </trkpt>
      <trkpt lat="28.7383750" lon="-17.8222730">
        <ele>1876.6</ele>
        <time>2020-11-16T11:42:55Z</time>
      </trkpt>
      <trkpt lat="28.7383600" lon="-17.8222820">
        <ele>1876.7</ele>
        <time>2020-11-16T11:42:56Z</time>
      </trkpt>
      <trkpt lat="28.7383600" lon="-17.8222820">
        <ele>1876.7</ele>
        <time>2020-11-16T11:42:57Z</time>
      </trkpt>
      <trkpt lat="28.7383200" lon="-17.8222980">
        <ele>1876.9</ele>
        <time>2020-11-16T11:42:58Z</time>
      </trkpt>
      <trkpt lat="28.7383200" lon="-17.8222980">
        <ele>1876.9</ele>
        <time>2020-11-16T11:42:59Z</time>
      </trkpt>
      <trkpt lat="28.7382870" lon="-17.8223150">
        <ele>1877.1</ele>
        <time>2020-11-16T11:43:00Z</time>
      </trkpt>
      <trkpt lat="28.7382680" lon="-17.8223200">
        <ele>1877.3</ele>
        <time>2020-11-16T11:43:01Z</time>
      </trkpt>
      <trkpt lat="28.7382500" lon="-17.8223250">
        <ele>1877.4</ele>
        <time>2020-11-16T11:43:02Z</time>
      </trkpt>
      <trkpt lat="28.7382500" lon="-17.8223250">
        <ele>1877.4</ele>
        <time>2020-11-16T11:43:03Z</time>
      </trkpt>
      <trkpt lat="28.7382120" lon="-17.8223420">
        <ele>1877.6</ele>
        <time>2020-11-16T11:43:04Z</time>
      </trkpt>
      <trkpt lat="28.7381930" lon="-17.8223520">
        <ele>1877.7</ele>
        <time>2020-11-16T11:43:05Z</time>
      </trkpt>
      <trkpt lat="28.7381930" lon="-17.8223520">
        <ele>1877.7</ele>
        <time>2020-11-16T11:43:06Z</time>
      </trkpt>
      <trkpt lat="28.7381630" lon="-17.8223750">
        <ele>1877.9</ele>
        <time>2020-11-16T11:43:07Z</time>
      </trkpt>
      <trkpt lat="28.7381500" lon="-17.8223850">
        <ele>1878.0</ele>
        <time>2020-11-16T11:43:08Z</time>
      </trkpt>
      <trkpt lat="28.7381500" lon="-17.8223850">
        <ele>1878.0</ele>
        <time>2020-11-16T11:43:09Z</time>
      </trkpt>
      <trkpt lat="28.7381120" lon="-17.8224080">
        <ele>1878.2</ele>
        <time>2020-11-16T11:43:10Z</time>
      </trkpt>
      <trkpt lat="28.7381120" lon="-17.8224080">
        <ele>1878.2</ele>
        <time>2020-11-16T11:43:11Z</time>
      </trkpt>
      <trkpt lat="28.7380720" lon="-17.8224250">
        <ele>1878.5</ele>
        <time>2020-11-16T11:43:12Z</time>
      </trkpt>
      <trkpt lat="28.7380720" lon="-17.8224250">
        <ele>1878.5</ele>
        <time>2020-11-16T11:43:13Z</time>
      </trkpt>
      <trkpt lat="28.7380480" lon="-17.8224520">
        <ele>1878.7</ele>
        <time>2020-11-16T11:43:14Z</time>
      </trkpt>
      <trkpt lat="28.7380380" lon="-17.8224550">
        <ele>1878.7</ele>
        <time>2020-11-16T11:43:15Z</time>
      </trkpt>
      <trkpt lat="28.7380230" lon="-17.8224420">
        <ele>1878.8</ele>
        <time>2020-11-16T11:43:16Z</time>
      </trkpt>
      <trkpt lat="28.7380230" lon="-17.8224420">
        <ele>1878.8</ele>
        <time>2020-11-16T11:43:17Z</time>
      </trkpt>
      <trkpt lat="28.7379930" lon="-17.8224250">
        <ele>1879.0</ele>
        <time>2020-11-16T11:43:18Z</time>
      </trkpt>
      <trkpt lat="28.7379930" lon="-17.8224250">
        <ele>1879.0</ele>
        <time>2020-11-16T11:43:19Z</time>
      </trkpt>
      <trkpt lat="28.7379800" lon="-17.8224000">
        <ele>1879.2</ele>
        <time>2020-11-16T11:43:20Z</time>
      </trkpt>
      <trkpt lat="28.7379800" lon="-17.8224000">
        <ele>1879.2</ele>
        <time>2020-11-16T11:43:21Z</time>
      </trkpt>
      <trkpt lat="28.7379820" lon="-17.8223650">
        <ele>1879.4</ele>
        <time>2020-11-16T11:43:22Z</time>
      </trkpt>
      <trkpt lat="28.7379820" lon="-17.8223650">
        <ele>1879.4</ele>
        <time>2020-11-16T11:43:23Z</time>
      </trkpt>
      <trkpt lat="28.7379920" lon="-17.8223270">
        <ele>1879.6</ele>
        <time>2020-11-16T11:43:24Z</time>
      </trkpt>
      <trkpt lat="28.7379920" lon="-17.8223270">
        <ele>1879.6</ele>
        <time>2020-11-16T11:43:25Z</time>
      </trkpt>
      <trkpt lat="28.7380130" lon="-17.8223050">
        <ele>1879.7</ele>
        <time>2020-11-16T11:43:26Z</time>
      </trkpt>
      <trkpt lat="28.7380130" lon="-17.8223050">
        <ele>1879.7</ele>
        <time>2020-11-16T11:43:27Z</time>
      </trkpt>
      <trkpt lat="28.7380120" lon="-17.8222830">
        <ele>1879.8</ele>
        <time>2020-11-16T11:43:28Z</time>
      </trkpt>
      <trkpt lat="28.7380150" lon="-17.8222720">
        <ele>1879.9</ele>
        <time>2020-11-16T11:43:29Z</time>
      </trkpt>
      <trkpt lat="28.7380150" lon="-17.8222720">
        <ele>1879.9</ele>
        <time>2020-11-16T11:43:30Z</time>
      </trkpt>
      <trkpt lat="28.7380330" lon="-17.8222400">
        <ele>1880.1</ele>
        <time>2020-11-16T11:43:31Z</time>
      </trkpt>
      <trkpt lat="28.7380330" lon="-17.8222400">
        <ele>1880.1</ele>
        <time>2020-11-16T11:43:32Z</time>
      </trkpt>
      <trkpt lat="28.7380530" lon="-17.8221920">
        <ele>1880.3</ele>
        <time>2020-11-16T11:43:33Z</time>
      </trkpt>
      <trkpt lat="28.7380530" lon="-17.8221920">
        <ele>1880.3</ele>
        <time>2020-11-16T11:43:34Z</time>
      </trkpt>
      <trkpt lat="28.7380680" lon="-17.8221300">
        <ele>1880.7</ele>
        <time>2020-11-16T11:43:35Z</time>
      </trkpt>
      <trkpt lat="28.7380680" lon="-17.8221300">
        <ele>1880.7</ele>
        <time>2020-11-16T11:43:36Z</time>
      </trkpt>
      <trkpt lat="28.7380670" lon="-17.8220850">
        <ele>1880.9</ele>
        <time>2020-11-16T11:43:37Z</time>
      </trkpt>
      <trkpt lat="28.7380670" lon="-17.8220850">
        <ele>1880.9</ele>
        <time>2020-11-16T11:43:38Z</time>
      </trkpt>
      <trkpt lat="28.7380600" lon="-17.8220530">
        <ele>1881.1</ele>
        <time>2020-11-16T11:43:39Z</time>
      </trkpt>
      <trkpt lat="28.7380600" lon="-17.8220530">
        <ele>1881.1</ele>
        <time>2020-11-16T11:43:40Z</time>
      </trkpt>
      <trkpt lat="28.7380380" lon="-17.8219950">
        <ele>1881.4</ele>
        <time>2020-11-16T11:43:41Z</time>
      </trkpt>
      <trkpt lat="28.7380280" lon="-17.8219620">
        <ele>1881.5</ele>
        <time>2020-11-16T11:43:42Z</time>
      </trkpt>
      <trkpt lat="28.7380280" lon="-17.8219620">
        <ele>1881.5</ele>
        <time>2020-11-16T11:43:43Z</time>
      </trkpt>
      <trkpt lat="28.7379950" lon="-17.8219150">
        <ele>1881.8</ele>
        <time>2020-11-16T11:43:44Z</time>
      </trkpt>
      <trkpt lat="28.7379950" lon="-17.8219150">
        <ele>1881.8</ele>
        <time>2020-11-16T11:43:45Z</time>
      </trkpt>
      <trkpt lat="28.7379570" lon="-17.8218920">
        <ele>1882.1</ele>
        <time>2020-11-16T11:43:46Z</time>
      </trkpt>
      <trkpt lat="28.7379570" lon="-17.8218920">
        <ele>1882.1</ele>
        <time>2020-11-16T11:43:47Z</time>
      </trkpt>
      <trkpt lat="28.7379200" lon="-17.8218780">
        <ele>1882.3</ele>
        <time>2020-11-16T11:43:48Z</time>
      </trkpt>
      <trkpt lat="28.7379200" lon="-17.8218780">
        <ele>1882.3</ele>
        <time>2020-11-16T11:43:49Z</time>
      </trkpt>
      <trkpt lat="28.7378830" lon="-17.8218580">
        <ele>1882.5</ele>
        <time>2020-11-16T11:43:50Z</time>
      </trkpt>
      <trkpt lat="28.7378830" lon="-17.8218580">
        <ele>1882.5</ele>
        <time>2020-11-16T11:43:51Z</time>
      </trkpt>
      <trkpt lat="28.7378420" lon="-17.8218330">
        <ele>1882.8</ele>
        <time>2020-11-16T11:43:52Z</time>
      </trkpt>
      <trkpt lat="28.7378420" lon="-17.8218330">
        <ele>1882.8</ele>
        <time>2020-11-16T11:43:53Z</time>
      </trkpt>
      <trkpt lat="28.7378180" lon="-17.8218220">
        <ele>1883.0</ele>
        <time>2020-11-16T11:43:54Z</time>
      </trkpt>
      <trkpt lat="28.7378180" lon="-17.8218220">
        <ele>1883.0</ele>
        <time>2020-11-16T11:43:55Z</time>
      </trkpt>
      <trkpt lat="28.7378000" lon="-17.8218080">
        <ele>1883.1</ele>
        <time>2020-11-16T11:43:56Z</time>
      </trkpt>
      <trkpt lat="28.7378000" lon="-17.8218080">
        <ele>1883.1</ele>
        <time>2020-11-16T11:43:57Z</time>
      </trkpt>
      <trkpt lat="28.7377730" lon="-17.8218020">
        <ele>1883.2</ele>
        <time>2020-11-16T11:43:58Z</time>
      </trkpt>
      <trkpt lat="28.7377550" lon="-17.8218000">
        <ele>1883.3</ele>
        <time>2020-11-16T11:43:59Z</time>
      </trkpt>
      <trkpt lat="28.7377550" lon="-17.8218000">
        <ele>1883.3</ele>
        <time>2020-11-16T11:44:00Z</time>
      </trkpt>
      <trkpt lat="28.7377230" lon="-17.8217970">
        <ele>1883.5</ele>
        <time>2020-11-16T11:44:01Z</time>
      </trkpt>
      <trkpt lat="28.7377120" lon="-17.8217950">
        <ele>1883.6</ele>
        <time>2020-11-16T11:44:02Z</time>
      </trkpt>
      <trkpt lat="28.7377120" lon="-17.8217950">
        <ele>1883.6</ele>
        <time>2020-11-16T11:44:03Z</time>
      </trkpt>
      <trkpt lat="28.7377030" lon="-17.8217950">
        <ele>1883.6</ele>
        <time>2020-11-16T11:44:04Z</time>
      </trkpt>
      <trkpt lat="28.7377030" lon="-17.8217950">
        <ele>1883.6</ele>
        <time>2020-11-16T11:44:30Z</time>
      </trkpt>
      <trkpt lat="28.7377030" lon="-17.8217950">
        <ele>1883.6</ele>
        <time>2020-11-16T11:44:31Z</time>
      </trkpt>
      <trkpt lat="28.7376770" lon="-17.8217950">
        <ele>1883.8</ele>
        <time>2020-11-16T11:44:32Z</time>
      </trkpt>
      <trkpt lat="28.7376770" lon="-17.8217950">
        <ele>1883.8</ele>
        <time>2020-11-16T11:44:33Z</time>
      </trkpt>
      <trkpt lat="28.7376600" lon="-17.8217830">
        <ele>1883.9</ele>
        <time>2020-11-16T11:44:34Z</time>
      </trkpt>
      <trkpt lat="28.7376600" lon="-17.8217830">
        <ele>1883.9</ele>
        <time>2020-11-16T11:44:35Z</time>
      </trkpt>
      <trkpt lat="28.7376500" lon="-17.8217930">
        <ele>1884.0</ele>
        <time>2020-11-16T11:44:36Z</time>
      </trkpt>
      <trkpt lat="28.7376470" lon="-17.8218070">
        <ele>1884.1</ele>
        <time>2020-11-16T11:44:37Z</time>
      </trkpt>
      <trkpt lat="28.7376520" lon="-17.8218100">
        <ele>1884.1</ele>
        <time>2020-11-16T11:44:38Z</time>
      </trkpt>
      <trkpt lat="28.7376520" lon="-17.8218100">
        <ele>1884.1</ele>
        <time>2020-11-16T11:44:39Z</time>
      </trkpt>
      <trkpt lat="28.7376570" lon="-17.8218280">
        <ele>1884.2</ele>
        <time>2020-11-16T11:44:40Z</time>
      </trkpt>
      <trkpt lat="28.7376650" lon="-17.8218350">
        <ele>1884.2</ele>
        <time>2020-11-16T11:44:41Z</time>
      </trkpt>
      <trkpt lat="28.7376650" lon="-17.8218350">
        <ele>1884.2</ele>
        <time>2020-11-16T11:44:42Z</time>
      </trkpt>
      <trkpt lat="28.7376800" lon="-17.8218500">
        <ele>1884.3</ele>
        <time>2020-11-16T11:44:43Z</time>
      </trkpt>
      <trkpt lat="28.7376800" lon="-17.8218500">
        <ele>1884.3</ele>
        <time>2020-11-16T11:44:44Z</time>
      </trkpt>
      <trkpt lat="28.7377000" lon="-17.8218770">
        <ele>1884.5</ele>
        <time>2020-11-16T11:44:45Z</time>
      </trkpt>
      <trkpt lat="28.7377000" lon="-17.8218770">
        <ele>1884.5</ele>
        <time>2020-11-16T11:44:46Z</time>
      </trkpt>
      <trkpt lat="28.7377170" lon="-17.8218980">
        <ele>1884.7</ele>
        <time>2020-11-16T11:44:47Z</time>
      </trkpt>
      <trkpt lat="28.7377200" lon="-17.8219100">
        <ele>1884.7</ele>
        <time>2020-11-16T11:44:48Z</time>
      </trkpt>
      <trkpt lat="28.7377200" lon="-17.8219100">
        <ele>1884.7</ele>
        <time>2020-11-16T11:44:49Z</time>
      </trkpt>
      <trkpt lat="28.7377220" lon="-17.8219270">
        <ele>1884.8</ele>
        <time>2020-11-16T11:44:50Z</time>
      </trkpt>
      <trkpt lat="28.7377220" lon="-17.8219330">
        <ele>1884.8</ele>
        <time>2020-11-16T11:44:51Z</time>
      </trkpt>
      <trkpt lat="28.7377220" lon="-17.8219330">
        <ele>1884.8</ele>
        <time>2020-11-16T11:44:52Z</time>
      </trkpt>
      <trkpt lat="28.7377180" lon="-17.8219450">
        <ele>1884.9</ele>
        <time>2020-11-16T11:44:53Z</time>
      </trkpt>
      <trkpt lat="28.7377180" lon="-17.8219450">
        <ele>1884.9</ele>
        <time>2020-11-16T11:44:54Z</time>
      </trkpt>
      <trkpt lat="28.7377180" lon="-17.8219500">
        <ele>1884.9</ele>
        <time>2020-11-16T11:44:55Z</time>
      </trkpt>
      <trkpt lat="28.7377180" lon="-17.8219500">
        <ele>1884.9</ele>
        <time>2020-11-16T11:44:56Z</time>
      </trkpt>
      <trkpt lat="28.7377170" lon="-17.8219650">
        <ele>1885.0</ele>
        <time>2020-11-16T11:44:57Z</time>
      </trkpt>
      <trkpt lat="28.7377170" lon="-17.8219650">
        <ele>1885.0</ele>
        <time>2020-11-16T11:44:58Z</time>
      </trkpt>
      <trkpt lat="28.7377200" lon="-17.8219770">
        <ele>1885.1</ele>
        <time>2020-11-16T11:44:59Z</time>
      </trkpt>
      <trkpt lat="28.7377250" lon="-17.8219830">
        <ele>1885.1</ele>
        <time>2020-11-16T11:45:00Z</time>
      </trkpt>
      <trkpt lat="28.7377250" lon="-17.8219830">
        <ele>1885.1</ele>
        <time>2020-11-16T11:45:01Z</time>
      </trkpt>
      <trkpt lat="28.7377280" lon="-17.8220120">
        <ele>1885.3</ele>
        <time>2020-11-16T11:45:02Z</time>
      </trkpt>
      <trkpt lat="28.7377320" lon="-17.8220230">
        <ele>1885.3</ele>
        <time>2020-11-16T11:45:03Z</time>
      </trkpt>
      <trkpt lat="28.7377320" lon="-17.8220230">
        <ele>1885.3</ele>
        <time>2020-11-16T11:45:04Z</time>
      </trkpt>
      <trkpt lat="28.7377420" lon="-17.8220400">
        <ele>1885.4</ele>
        <time>2020-11-16T11:45:05Z</time>
      </trkpt>
      <trkpt lat="28.7377450" lon="-17.8220500">
        <ele>1885.5</ele>
        <time>2020-11-16T11:45:06Z</time>
      </trkpt>
      <trkpt lat="28.7377450" lon="-17.8220500">
        <ele>1885.5</ele>
        <time>2020-11-16T11:45:07Z</time>
      </trkpt>
      <trkpt lat="28.7377520" lon="-17.8220670">
        <ele>1885.6</ele>
        <time>2020-11-16T11:45:08Z</time>
      </trkpt>
      <trkpt lat="28.7377520" lon="-17.8220670">
        <ele>1885.6</ele>
        <time>2020-11-16T11:45:09Z</time>
      </trkpt>
      <trkpt lat="28.7377570" lon="-17.8220850">
        <ele>1885.7</ele>
        <time>2020-11-16T11:45:10Z</time>
      </trkpt>
      <trkpt lat="28.7377570" lon="-17.8220850">
        <ele>1885.7</ele>
        <time>2020-11-16T11:45:11Z</time>
      </trkpt>
      <trkpt lat="28.7377620" lon="-17.8221000">
        <ele>1885.7</ele>
        <time>2020-11-16T11:45:12Z</time>
      </trkpt>
      <trkpt lat="28.7377620" lon="-17.8221000">
        <ele>1885.7</ele>
        <time>2020-11-16T11:45:13Z</time>
      </trkpt>
      <trkpt lat="28.7377650" lon="-17.8221170">
        <ele>1885.8</ele>
        <time>2020-11-16T11:45:14Z</time>
      </trkpt>
      <trkpt lat="28.7377630" lon="-17.8221230">
        <ele>1885.9</ele>
        <time>2020-11-16T11:45:15Z</time>
      </trkpt>
      <trkpt lat="28.7377630" lon="-17.8221300">
        <ele>1885.9</ele>
        <time>2020-11-16T11:45:16Z</time>
      </trkpt>
      <trkpt lat="28.7377630" lon="-17.8221300">
        <ele>1885.9</ele>
        <time>2020-11-16T11:45:17Z</time>
      </trkpt>
      <trkpt lat="28.7377620" lon="-17.8221420">
        <ele>1886.0</ele>
        <time>2020-11-16T11:45:18Z</time>
      </trkpt>
      <trkpt lat="28.7377620" lon="-17.8221420">
        <ele>1886.0</ele>
        <time>2020-11-16T11:45:19Z</time>
      </trkpt>
      <trkpt lat="28.7377570" lon="-17.8221530">
        <ele>1886.0</ele>
        <time>2020-11-16T11:45:20Z</time>
      </trkpt>
      <trkpt lat="28.7377570" lon="-17.8221530">
        <ele>1886.0</ele>
        <time>2020-11-16T11:45:21Z</time>
      </trkpt>
      <trkpt lat="28.7377520" lon="-17.8221680">
        <ele>1886.1</ele>
        <time>2020-11-16T11:45:22Z</time>
      </trkpt>
      <trkpt lat="28.7377470" lon="-17.8221770">
        <ele>1886.2</ele>
        <time>2020-11-16T11:45:23Z</time>
      </trkpt>
      <trkpt lat="28.7377470" lon="-17.8221770">
        <ele>1886.2</ele>
        <time>2020-11-16T11:45:24Z</time>
      </trkpt>
      <trkpt lat="28.7377380" lon="-17.8221730">
        <ele>1886.2</ele>
        <time>2020-11-16T11:45:25Z</time>
      </trkpt>
      <trkpt lat="28.7377370" lon="-17.8221730">
        <ele>1886.2</ele>
        <time>2020-11-16T11:45:26Z</time>
      </trkpt>
      <trkpt lat="28.7377370" lon="-17.8221730">
        <ele>1886.2</ele>
        <time>2020-11-16T11:45:27Z</time>
      </trkpt>
      <trkpt lat="28.7377370" lon="-17.8221730">
        <ele>1886.2</ele>
        <time>2020-11-16T11:45:28Z</time>
      </trkpt>
      <trkpt lat="28.7377370" lon="-17.8221730">
        <ele>1886.2</ele>
        <time>2020-11-16T11:45:29Z</time>
      </trkpt>
      <trkpt lat="28.7377370" lon="-17.8221730">
        <ele>1886.2</ele>
        <time>2020-11-16T11:45:35Z</time>
      </trkpt>
      <trkpt lat="28.7377250" lon="-17.8222630">
        <ele>1886.7</ele>
        <time>2020-11-16T11:45:36Z</time>
      </trkpt>
      <trkpt lat="28.7377250" lon="-17.8222630">
        <ele>1886.7</ele>
        <time>2020-11-16T11:45:37Z</time>
      </trkpt>
      <trkpt lat="28.7377250" lon="-17.8223150">
        <ele>1886.9</ele>
        <time>2020-11-16T11:45:38Z</time>
      </trkpt>
      <trkpt lat="28.7377250" lon="-17.8223150">
        <ele>1886.9</ele>
        <time>2020-11-16T11:45:39Z</time>
      </trkpt>
      <trkpt lat="28.7377200" lon="-17.8223420">
        <ele>1887.1</ele>
        <time>2020-11-16T11:45:40Z</time>
      </trkpt>
      <trkpt lat="28.7377200" lon="-17.8223420">
        <ele>1887.1</ele>
        <time>2020-11-16T11:45:41Z</time>
      </trkpt>
      <trkpt lat="28.7377130" lon="-17.8223680">
        <ele>1887.2</ele>
        <time>2020-11-16T11:45:42Z</time>
      </trkpt>
      <trkpt lat="28.7377130" lon="-17.8223680">
        <ele>1887.2</ele>
        <time>2020-11-16T11:45:43Z</time>
      </trkpt>
      <trkpt lat="28.7377050" lon="-17.8223920">
        <ele>1887.3</ele>
        <time>2020-11-16T11:45:44Z</time>
      </trkpt>
      <trkpt lat="28.7377000" lon="-17.8224020">
        <ele>1887.4</ele>
        <time>2020-11-16T11:45:45Z</time>
      </trkpt>
      <trkpt lat="28.7377000" lon="-17.8224080">
        <ele>1887.4</ele>
        <time>2020-11-16T11:45:46Z</time>
      </trkpt>
      <trkpt lat="28.7377000" lon="-17.8224080">
        <ele>1887.4</ele>
        <time>2020-11-16T11:45:47Z</time>
      </trkpt>
      <trkpt lat="28.7376950" lon="-17.8224430">
        <ele>1887.6</ele>
        <time>2020-11-16T11:45:48Z</time>
      </trkpt>
      <trkpt lat="28.7376950" lon="-17.8224650">
        <ele>1887.7</ele>
        <time>2020-11-16T11:45:49Z</time>
      </trkpt>
      <trkpt lat="28.7376870" lon="-17.8224900">
        <ele>1887.8</ele>
        <time>2020-11-16T11:45:50Z</time>
      </trkpt>
      <trkpt lat="28.7376870" lon="-17.8224900">
        <ele>1887.8</ele>
        <time>2020-11-16T11:45:51Z</time>
      </trkpt>
      <trkpt lat="28.7376780" lon="-17.8225220">
        <ele>1888.0</ele>
        <time>2020-11-16T11:45:52Z</time>
      </trkpt>
      <trkpt lat="28.7376780" lon="-17.8225220">
        <ele>1888.0</ele>
        <time>2020-11-16T11:45:53Z</time>
      </trkpt>
      <trkpt lat="28.7376780" lon="-17.8225520">
        <ele>1888.2</ele>
        <time>2020-11-16T11:45:54Z</time>
      </trkpt>
      <trkpt lat="28.7376770" lon="-17.8225670">
        <ele>1888.2</ele>
        <time>2020-11-16T11:45:55Z</time>
      </trkpt>
      <trkpt lat="28.7376770" lon="-17.8225670">
        <ele>1888.2</ele>
        <time>2020-11-16T11:45:56Z</time>
      </trkpt>
      <trkpt lat="28.7376700" lon="-17.8225950">
        <ele>1888.4</ele>
        <time>2020-11-16T11:45:57Z</time>
      </trkpt>
      <trkpt lat="28.7376700" lon="-17.8225950">
        <ele>1888.4</ele>
        <time>2020-11-16T11:45:58Z</time>
      </trkpt>
      <trkpt lat="28.7376650" lon="-17.8226380">
        <ele>1888.6</ele>
        <time>2020-11-16T11:45:59Z</time>
      </trkpt>
      <trkpt lat="28.7376650" lon="-17.8226380">
        <ele>1888.6</ele>
        <time>2020-11-16T11:46:00Z</time>
      </trkpt>
      <trkpt lat="28.7376570" lon="-17.8226700">
        <ele>1888.8</ele>
        <time>2020-11-16T11:46:01Z</time>
      </trkpt>
      <trkpt lat="28.7376570" lon="-17.8226700">
        <ele>1888.8</ele>
        <time>2020-11-16T11:46:02Z</time>
      </trkpt>
      <trkpt lat="28.7376620" lon="-17.8227130">
        <ele>1889.0</ele>
        <time>2020-11-16T11:46:03Z</time>
      </trkpt>
      <trkpt lat="28.7376630" lon="-17.8227370">
        <ele>1889.1</ele>
        <time>2020-11-16T11:46:04Z</time>
      </trkpt>
      <trkpt lat="28.7376630" lon="-17.8227370">
        <ele>1889.1</ele>
        <time>2020-11-16T11:46:05Z</time>
      </trkpt>
      <trkpt lat="28.7376680" lon="-17.8227820">
        <ele>1889.3</ele>
        <time>2020-11-16T11:46:06Z</time>
      </trkpt>
      <trkpt lat="28.7376680" lon="-17.8227820">
        <ele>1889.3</ele>
        <time>2020-11-16T11:46:07Z</time>
      </trkpt>
      <trkpt lat="28.7376650" lon="-17.8228300">
        <ele>1889.6</ele>
        <time>2020-11-16T11:46:08Z</time>
      </trkpt>
      <trkpt lat="28.7376650" lon="-17.8228300">
        <ele>1889.6</ele>
        <time>2020-11-16T11:46:09Z</time>
      </trkpt>
      <trkpt lat="28.7376570" lon="-17.8228630">
        <ele>1889.7</ele>
        <time>2020-11-16T11:46:10Z</time>
      </trkpt>
      <trkpt lat="28.7376570" lon="-17.8228630">
        <ele>1889.7</ele>
        <time>2020-11-16T11:46:11Z</time>
      </trkpt>
      <trkpt lat="28.7376450" lon="-17.8228950">
        <ele>1889.9</ele>
        <time>2020-11-16T11:46:12Z</time>
      </trkpt>
      <trkpt lat="28.7376450" lon="-17.8228950">
        <ele>1889.9</ele>
        <time>2020-11-16T11:46:13Z</time>
      </trkpt>
      <trkpt lat="28.7376280" lon="-17.8229330">
        <ele>1890.1</ele>
        <time>2020-11-16T11:46:14Z</time>
      </trkpt>
      <trkpt lat="28.7376280" lon="-17.8229330">
        <ele>1890.1</ele>
        <time>2020-11-16T11:46:15Z</time>
      </trkpt>
      <trkpt lat="28.7376170" lon="-17.8229700">
        <ele>1890.3</ele>
        <time>2020-11-16T11:46:16Z</time>
      </trkpt>
      <trkpt lat="28.7376170" lon="-17.8229700">
        <ele>1890.3</ele>
        <time>2020-11-16T11:46:17Z</time>
      </trkpt>
      <trkpt lat="28.7376130" lon="-17.8230120">
        <ele>1890.5</ele>
        <time>2020-11-16T11:46:18Z</time>
      </trkpt>
      <trkpt lat="28.7376100" lon="-17.8230280">
        <ele>1890.6</ele>
        <time>2020-11-16T11:46:19Z</time>
      </trkpt>
      <trkpt lat="28.7376100" lon="-17.8230280">
        <ele>1890.6</ele>
        <time>2020-11-16T11:46:20Z</time>
      </trkpt>
      <trkpt lat="28.7375980" lon="-17.8230630">
        <ele>1890.8</ele>
        <time>2020-11-16T11:46:21Z</time>
      </trkpt>
      <trkpt lat="28.7375920" lon="-17.8230750">
        <ele>1890.9</ele>
        <time>2020-11-16T11:46:22Z</time>
      </trkpt>
      <trkpt lat="28.7375920" lon="-17.8230750">
        <ele>1890.9</ele>
        <time>2020-11-16T11:46:23Z</time>
      </trkpt>
      <trkpt lat="28.7375770" lon="-17.8231030">
        <ele>1891.0</ele>
        <time>2020-11-16T11:46:24Z</time>
      </trkpt>
      <trkpt lat="28.7375770" lon="-17.8231030">
        <ele>1891.0</ele>
        <time>2020-11-16T11:46:25Z</time>
      </trkpt>
      <trkpt lat="28.7375720" lon="-17.8231300">
        <ele>1891.2</ele>
        <time>2020-11-16T11:46:26Z</time>
      </trkpt>
      <trkpt lat="28.7375720" lon="-17.8231300">
        <ele>1891.2</ele>
        <time>2020-11-16T11:46:27Z</time>
      </trkpt>
      <trkpt lat="28.7375620" lon="-17.8231670">
        <ele>1891.4</ele>
        <time>2020-11-16T11:46:28Z</time>
      </trkpt>
      <trkpt lat="28.7375620" lon="-17.8231670">
        <ele>1891.4</ele>
        <time>2020-11-16T11:46:29Z</time>
      </trkpt>
      <trkpt lat="28.7375570" lon="-17.8232000">
        <ele>1891.5</ele>
        <time>2020-11-16T11:46:30Z</time>
      </trkpt>
      <trkpt lat="28.7375570" lon="-17.8232000">
        <ele>1891.5</ele>
        <time>2020-11-16T11:46:31Z</time>
      </trkpt>
      <trkpt lat="28.7375450" lon="-17.8232320">
        <ele>1891.7</ele>
        <time>2020-11-16T11:46:32Z</time>
      </trkpt>
      <trkpt lat="28.7375450" lon="-17.8232320">
        <ele>1891.7</ele>
        <time>2020-11-16T11:46:33Z</time>
      </trkpt>
      <trkpt lat="28.7375370" lon="-17.8232650">
        <ele>1891.9</ele>
        <time>2020-11-16T11:46:34Z</time>
      </trkpt>
      <trkpt lat="28.7375370" lon="-17.8232650">
        <ele>1891.9</ele>
        <time>2020-11-16T11:46:35Z</time>
      </trkpt>
      <trkpt lat="28.7375300" lon="-17.8233000">
        <ele>1892.1</ele>
        <time>2020-11-16T11:46:36Z</time>
      </trkpt>
      <trkpt lat="28.7375250" lon="-17.8233150">
        <ele>1892.1</ele>
        <time>2020-11-16T11:46:37Z</time>
      </trkpt>
      <trkpt lat="28.7375250" lon="-17.8233150">
        <ele>1892.1</ele>
        <time>2020-11-16T11:46:38Z</time>
      </trkpt>
      <trkpt lat="28.7375220" lon="-17.8233500">
        <ele>1892.3</ele>
        <time>2020-11-16T11:46:39Z</time>
      </trkpt>
      <trkpt lat="28.7375220" lon="-17.8233500">
        <ele>1892.3</ele>
        <time>2020-11-16T11:46:40Z</time>
      </trkpt>
      <trkpt lat="28.7375220" lon="-17.8233700">
        <ele>1892.4</ele>
        <time>2020-11-16T11:46:41Z</time>
      </trkpt>
      <trkpt lat="28.7375220" lon="-17.8233700">
        <ele>1892.4</ele>
        <time>2020-11-16T11:46:42Z</time>
      </trkpt>
      <trkpt lat="28.7375050" lon="-17.8234020">
        <ele>1892.6</ele>
        <time>2020-11-16T11:46:43Z</time>
      </trkpt>
      <trkpt lat="28.7375080" lon="-17.8234130">
        <ele>1892.7</ele>
        <time>2020-11-16T11:46:44Z</time>
      </trkpt>
      <trkpt lat="28.7375070" lon="-17.8234230">
        <ele>1892.7</ele>
        <time>2020-11-16T11:46:45Z</time>
      </trkpt>
      <trkpt lat="28.7375070" lon="-17.8234230">
        <ele>1892.7</ele>
        <time>2020-11-16T11:46:46Z</time>
      </trkpt>
      <trkpt lat="28.7375030" lon="-17.8234530">
        <ele>1892.9</ele>
        <time>2020-11-16T11:46:47Z</time>
      </trkpt>
      <trkpt lat="28.7375030" lon="-17.8234530">
        <ele>1892.9</ele>
        <time>2020-11-16T11:46:48Z</time>
      </trkpt>
      <trkpt lat="28.7375070" lon="-17.8234870">
        <ele>1893.0</ele>
        <time>2020-11-16T11:46:49Z</time>
      </trkpt>
      <trkpt lat="28.7375220" lon="-17.8234980">
        <ele>1893.1</ele>
        <time>2020-11-16T11:46:50Z</time>
      </trkpt>
      <trkpt lat="28.7375220" lon="-17.8234980">
        <ele>1893.1</ele>
        <time>2020-11-16T11:46:51Z</time>
      </trkpt>
      <trkpt lat="28.7375600" lon="-17.8235230">
        <ele>1893.4</ele>
        <time>2020-11-16T11:46:52Z</time>
      </trkpt>
      <trkpt lat="28.7375750" lon="-17.8235300">
        <ele>1893.5</ele>
        <time>2020-11-16T11:46:53Z</time>
      </trkpt>
      <trkpt lat="28.7375870" lon="-17.8235370">
        <ele>1893.5</ele>
        <time>2020-11-16T11:46:54Z</time>
      </trkpt>
      <trkpt lat="28.7375870" lon="-17.8235370">
        <ele>1893.5</ele>
        <time>2020-11-16T11:46:55Z</time>
      </trkpt>
      <trkpt lat="28.7376050" lon="-17.8235380">
        <ele>1893.6</ele>
        <time>2020-11-16T11:46:56Z</time>
      </trkpt>
      <trkpt lat="28.7376050" lon="-17.8235380">
        <ele>1893.6</ele>
        <time>2020-11-16T11:46:57Z</time>
      </trkpt>
      <trkpt lat="28.7376280" lon="-17.8235480">
        <ele>1893.8</ele>
        <time>2020-11-16T11:46:58Z</time>
      </trkpt>
      <trkpt lat="28.7376350" lon="-17.8235600">
        <ele>1893.9</ele>
        <time>2020-11-16T11:46:59Z</time>
      </trkpt>
      <trkpt lat="28.7376350" lon="-17.8235600">
        <ele>1893.9</ele>
        <time>2020-11-16T11:47:00Z</time>
      </trkpt>
      <trkpt lat="28.7376450" lon="-17.8235780">
        <ele>1894.0</ele>
        <time>2020-11-16T11:47:01Z</time>
      </trkpt>
      <trkpt lat="28.7376450" lon="-17.8235780">
        <ele>1894.0</ele>
        <time>2020-11-16T11:47:02Z</time>
      </trkpt>
      <trkpt lat="28.7376600" lon="-17.8236080">
        <ele>1894.1</ele>
        <time>2020-11-16T11:47:03Z</time>
      </trkpt>
      <trkpt lat="28.7376600" lon="-17.8236080">
        <ele>1894.1</ele>
        <time>2020-11-16T11:47:04Z</time>
      </trkpt>
      <trkpt lat="28.7376980" lon="-17.8236270">
        <ele>1894.4</ele>
        <time>2020-11-16T11:47:05Z</time>
      </trkpt>
      <trkpt lat="28.7377150" lon="-17.8236350">
        <ele>1894.5</ele>
        <time>2020-11-16T11:47:06Z</time>
      </trkpt>
      <trkpt lat="28.7377150" lon="-17.8236350">
        <ele>1894.5</ele>
        <time>2020-11-16T11:47:07Z</time>
      </trkpt>
      <trkpt lat="28.7377370" lon="-17.8236430">
        <ele>1894.6</ele>
        <time>2020-11-16T11:47:08Z</time>
      </trkpt>
      <trkpt lat="28.7377370" lon="-17.8236430">
        <ele>1894.6</ele>
        <time>2020-11-16T11:47:09Z</time>
      </trkpt>
      <trkpt lat="28.7377620" lon="-17.8236550">
        <ele>1894.9</ele>
        <time>2020-11-16T11:47:10Z</time>
      </trkpt>
      <trkpt lat="28.7377620" lon="-17.8236550">
        <ele>1894.9</ele>
        <time>2020-11-16T11:47:11Z</time>
      </trkpt>
      <trkpt lat="28.7377750" lon="-17.8236980">
        <ele>1895.2</ele>
        <time>2020-11-16T11:47:12Z</time>
      </trkpt>
      <trkpt lat="28.7377750" lon="-17.8236980">
        <ele>1895.2</ele>
        <time>2020-11-16T11:47:13Z</time>
      </trkpt>
      <trkpt lat="28.7378020" lon="-17.8237230">
        <ele>1895.5</ele>
        <time>2020-11-16T11:47:14Z</time>
      </trkpt>
      <trkpt lat="28.7378020" lon="-17.8237230">
        <ele>1895.5</ele>
        <time>2020-11-16T11:47:15Z</time>
      </trkpt>
      <trkpt lat="28.7378220" lon="-17.8237730">
        <ele>1895.7</ele>
        <time>2020-11-16T11:47:16Z</time>
      </trkpt>
      <trkpt lat="28.7378220" lon="-17.8237730">
        <ele>1895.7</ele>
        <time>2020-11-16T11:47:17Z</time>
      </trkpt>
      <trkpt lat="28.7378500" lon="-17.8238000">
        <ele>1895.9</ele>
        <time>2020-11-16T11:47:18Z</time>
      </trkpt>
      <trkpt lat="28.7378500" lon="-17.8238000">
        <ele>1895.9</ele>
        <time>2020-11-16T11:47:19Z</time>
      </trkpt>
      <trkpt lat="28.7378730" lon="-17.8238230">
        <ele>1895.9</ele>
        <time>2020-11-16T11:47:20Z</time>
      </trkpt>
      <trkpt lat="28.7378730" lon="-17.8238230">
        <ele>1895.9</ele>
        <time>2020-11-16T11:47:21Z</time>
      </trkpt>
      <trkpt lat="28.7378930" lon="-17.8238420">
        <ele>1896.0</ele>
        <time>2020-11-16T11:47:22Z</time>
      </trkpt>
      <trkpt lat="28.7379080" lon="-17.8238500">
        <ele>1896.0</ele>
        <time>2020-11-16T11:47:23Z</time>
      </trkpt>
      <trkpt lat="28.7379080" lon="-17.8238500">
        <ele>1896.0</ele>
        <time>2020-11-16T11:47:24Z</time>
      </trkpt>
      <trkpt lat="28.7379370" lon="-17.8238650">
        <ele>1896.1</ele>
        <time>2020-11-16T11:47:25Z</time>
      </trkpt>
      <trkpt lat="28.7379370" lon="-17.8238650">
        <ele>1896.1</ele>
        <time>2020-11-16T11:47:26Z</time>
      </trkpt>
      <trkpt lat="28.7379650" lon="-17.8238800">
        <ele>1896.1</ele>
        <time>2020-11-16T11:47:27Z</time>
      </trkpt>
      <trkpt lat="28.7379650" lon="-17.8238800">
        <ele>1896.1</ele>
        <time>2020-11-16T11:47:28Z</time>
      </trkpt>
      <trkpt lat="28.7379900" lon="-17.8239030">
        <ele>1896.2</ele>
        <time>2020-11-16T11:47:29Z</time>
      </trkpt>
      <trkpt lat="28.7379970" lon="-17.8239120">
        <ele>1896.2</ele>
        <time>2020-11-16T11:47:30Z</time>
      </trkpt>
      <trkpt lat="28.7380100" lon="-17.8239180">
        <ele>1896.3</ele>
        <time>2020-11-16T11:47:31Z</time>
      </trkpt>
      <trkpt lat="28.7380100" lon="-17.8239180">
        <ele>1896.3</ele>
        <time>2020-11-16T11:47:32Z</time>
      </trkpt>
      <trkpt lat="28.7380300" lon="-17.8239350">
        <ele>1896.4</ele>
        <time>2020-11-16T11:47:33Z</time>
      </trkpt>
      <trkpt lat="28.7380300" lon="-17.8239350">
        <ele>1896.4</ele>
        <time>2020-11-16T11:47:34Z</time>
      </trkpt>
      <trkpt lat="28.7380530" lon="-17.8239520">
        <ele>1896.5</ele>
        <time>2020-11-16T11:47:35Z</time>
      </trkpt>
      <trkpt lat="28.7380530" lon="-17.8239520">
        <ele>1896.5</ele>
        <time>2020-11-16T11:47:36Z</time>
      </trkpt>
      <trkpt lat="28.7380830" lon="-17.8239650">
        <ele>1896.6</ele>
        <time>2020-11-16T11:47:37Z</time>
      </trkpt>
      <trkpt lat="28.7381020" lon="-17.8239730">
        <ele>1896.7</ele>
        <time>2020-11-16T11:47:38Z</time>
      </trkpt>
      <trkpt lat="28.7381020" lon="-17.8239730">
        <ele>1896.7</ele>
        <time>2020-11-16T11:47:39Z</time>
      </trkpt>
      <trkpt lat="28.7381320" lon="-17.8239900">
        <ele>1896.9</ele>
        <time>2020-11-16T11:47:40Z</time>
      </trkpt>
      <trkpt lat="28.7381420" lon="-17.8239950">
        <ele>1896.9</ele>
        <time>2020-11-16T11:47:41Z</time>
      </trkpt>
      <trkpt lat="28.7381420" lon="-17.8239950">
        <ele>1896.9</ele>
        <time>2020-11-16T11:47:42Z</time>
      </trkpt>
      <trkpt lat="28.7382030" lon="-17.8240150">
        <ele>1897.2</ele>
        <time>2020-11-16T11:47:43Z</time>
      </trkpt>
      <trkpt lat="28.7382150" lon="-17.8240300">
        <ele>1897.3</ele>
        <time>2020-11-16T11:47:44Z</time>
      </trkpt>
      <trkpt lat="28.7382150" lon="-17.8240300">
        <ele>1897.3</ele>
        <time>2020-11-16T11:47:45Z</time>
      </trkpt>
      <trkpt lat="28.7382400" lon="-17.8240430">
        <ele>1897.5</ele>
        <time>2020-11-16T11:47:46Z</time>
      </trkpt>
      <trkpt lat="28.7382400" lon="-17.8240430">
        <ele>1897.5</ele>
        <time>2020-11-16T11:47:47Z</time>
      </trkpt>
      <trkpt lat="28.7382500" lon="-17.8240520">
        <ele>1897.6</ele>
        <time>2020-11-16T11:47:48Z</time>
      </trkpt>
      <trkpt lat="28.7382500" lon="-17.8240520">
        <ele>1897.6</ele>
        <time>2020-11-16T11:47:49Z</time>
      </trkpt>
      <trkpt lat="28.7382680" lon="-17.8240700">
        <ele>1897.7</ele>
        <time>2020-11-16T11:47:50Z</time>
      </trkpt>
      <trkpt lat="28.7382830" lon="-17.8240800">
        <ele>1897.8</ele>
        <time>2020-11-16T11:47:51Z</time>
      </trkpt>
      <trkpt lat="28.7382830" lon="-17.8240800">
        <ele>1897.8</ele>
        <time>2020-11-16T11:47:52Z</time>
      </trkpt>
      <trkpt lat="28.7383100" lon="-17.8241050">
        <ele>1898.0</ele>
        <time>2020-11-16T11:47:53Z</time>
      </trkpt>
      <trkpt lat="28.7383100" lon="-17.8241050">
        <ele>1898.0</ele>
        <time>2020-11-16T11:47:54Z</time>
      </trkpt>
      <trkpt lat="28.7383220" lon="-17.8241220">
        <ele>1898.1</ele>
        <time>2020-11-16T11:47:55Z</time>
      </trkpt>
      <trkpt lat="28.7383220" lon="-17.8241220">
        <ele>1898.1</ele>
        <time>2020-11-16T11:47:56Z</time>
      </trkpt>
      <trkpt lat="28.7383250" lon="-17.8241220">
        <ele>1898.1</ele>
        <time>2020-11-16T11:47:57Z</time>
      </trkpt>
      <trkpt lat="28.7383250" lon="-17.8241180">
        <ele>1898.1</ele>
        <time>2020-11-16T11:47:58Z</time>
      </trkpt>
      <trkpt lat="28.7383250" lon="-17.8241180">
        <ele>1898.1</ele>
        <time>2020-11-16T11:47:59Z</time>
      </trkpt>
      <trkpt lat="28.7383350" lon="-17.8241250">
        <ele>1898.1</ele>
        <time>2020-11-16T11:48:00Z</time>
      </trkpt>
      <trkpt lat="28.7383350" lon="-17.8241250">
        <ele>1898.1</ele>
        <time>2020-11-16T11:48:01Z</time>
      </trkpt>
      <trkpt lat="28.7383500" lon="-17.8241380">
        <ele>1898.2</ele>
        <time>2020-11-16T11:48:02Z</time>
      </trkpt>
      <trkpt lat="28.7383530" lon="-17.8241400">
        <ele>1898.3</ele>
        <time>2020-11-16T11:48:03Z</time>
      </trkpt>
      <trkpt lat="28.7383530" lon="-17.8241400">
        <ele>1898.3</ele>
        <time>2020-11-16T11:48:04Z</time>
      </trkpt>
      <trkpt lat="28.7383680" lon="-17.8241580">
        <ele>1898.4</ele>
        <time>2020-11-16T11:48:05Z</time>
      </trkpt>
      <trkpt lat="28.7383750" lon="-17.8241700">
        <ele>1898.4</ele>
        <time>2020-11-16T11:48:06Z</time>
      </trkpt>
      <trkpt lat="28.7383750" lon="-17.8241700">
        <ele>1898.4</ele>
        <time>2020-11-16T11:48:07Z</time>
      </trkpt>
      <trkpt lat="28.7383830" lon="-17.8241900">
        <ele>1898.5</ele>
        <time>2020-11-16T11:48:08Z</time>
      </trkpt>
      <trkpt lat="28.7383830" lon="-17.8241900">
        <ele>1898.5</ele>
        <time>2020-11-16T11:48:09Z</time>
      </trkpt>
      <trkpt lat="28.7383880" lon="-17.8242250">
        <ele>1898.6</ele>
        <time>2020-11-16T11:48:10Z</time>
      </trkpt>
      <trkpt lat="28.7383880" lon="-17.8242250">
        <ele>1898.6</ele>
        <time>2020-11-16T11:48:11Z</time>
      </trkpt>
      <trkpt lat="28.7384030" lon="-17.8242600">
        <ele>1898.7</ele>
        <time>2020-11-16T11:48:12Z</time>
      </trkpt>
      <trkpt lat="28.7384030" lon="-17.8242600">
        <ele>1898.7</ele>
        <time>2020-11-16T11:48:13Z</time>
      </trkpt>
      <trkpt lat="28.7384430" lon="-17.8243100">
        <ele>1899.0</ele>
        <time>2020-11-16T11:48:14Z</time>
      </trkpt>
      <trkpt lat="28.7384430" lon="-17.8243100">
        <ele>1899.0</ele>
        <time>2020-11-16T11:48:15Z</time>
      </trkpt>
      <trkpt lat="28.7384780" lon="-17.8243270">
        <ele>1899.1</ele>
        <time>2020-11-16T11:48:16Z</time>
      </trkpt>
      <trkpt lat="28.7384780" lon="-17.8243270">
        <ele>1899.1</ele>
        <time>2020-11-16T11:48:17Z</time>
      </trkpt>
      <trkpt lat="28.7385030" lon="-17.8243380">
        <ele>1899.2</ele>
        <time>2020-11-16T11:48:18Z</time>
      </trkpt>
      <trkpt lat="28.7385030" lon="-17.8243380">
        <ele>1899.2</ele>
        <time>2020-11-16T11:48:19Z</time>
      </trkpt>
      <trkpt lat="28.7385270" lon="-17.8243470">
        <ele>1899.3</ele>
        <time>2020-11-16T11:48:20Z</time>
      </trkpt>
      <trkpt lat="28.7385270" lon="-17.8243470">
        <ele>1899.3</ele>
        <time>2020-11-16T11:48:21Z</time>
      </trkpt>
      <trkpt lat="28.7385530" lon="-17.8243580">
        <ele>1899.4</ele>
        <time>2020-11-16T11:48:22Z</time>
      </trkpt>
      <trkpt lat="28.7385530" lon="-17.8243580">
        <ele>1899.4</ele>
        <time>2020-11-16T11:48:23Z</time>
      </trkpt>
      <trkpt lat="28.7385950" lon="-17.8243830">
        <ele>1899.6</ele>
        <time>2020-11-16T11:48:24Z</time>
      </trkpt>
      <trkpt lat="28.7386120" lon="-17.8244000">
        <ele>1899.8</ele>
        <time>2020-11-16T11:48:25Z</time>
      </trkpt>
      <trkpt lat="28.7386120" lon="-17.8244000">
        <ele>1899.8</ele>
        <time>2020-11-16T11:48:26Z</time>
      </trkpt>
      <trkpt lat="28.7386330" lon="-17.8244450">
        <ele>1900.0</ele>
        <time>2020-11-16T11:48:27Z</time>
      </trkpt>
      <trkpt lat="28.7386450" lon="-17.8244630">
        <ele>1900.1</ele>
        <time>2020-11-16T11:48:28Z</time>
      </trkpt>
      <trkpt lat="28.7386580" lon="-17.8244780">
        <ele>1900.2</ele>
        <time>2020-11-16T11:48:29Z</time>
      </trkpt>
      <trkpt lat="28.7386700" lon="-17.8244930">
        <ele>1900.3</ele>
        <time>2020-11-16T11:48:30Z</time>
      </trkpt>
      <trkpt lat="28.7386700" lon="-17.8244930">
        <ele>1900.3</ele>
        <time>2020-11-16T11:48:31Z</time>
      </trkpt>
      <trkpt lat="28.7386830" lon="-17.8245280">
        <ele>1900.5</ele>
        <time>2020-11-16T11:48:32Z</time>
      </trkpt>
      <trkpt lat="28.7386830" lon="-17.8245280">
        <ele>1900.5</ele>
        <time>2020-11-16T11:48:33Z</time>
      </trkpt>
      <trkpt lat="28.7386950" lon="-17.8245680">
        <ele>1900.7</ele>
        <time>2020-11-16T11:48:34Z</time>
      </trkpt>
      <trkpt lat="28.7386950" lon="-17.8245680">
        <ele>1900.7</ele>
        <time>2020-11-16T11:48:35Z</time>
      </trkpt>
      <trkpt lat="28.7387050" lon="-17.8246020">
        <ele>1901.0</ele>
        <time>2020-11-16T11:48:36Z</time>
      </trkpt>
      <trkpt lat="28.7387050" lon="-17.8246020">
        <ele>1901.0</ele>
        <time>2020-11-16T11:48:37Z</time>
      </trkpt>
      <trkpt lat="28.7387150" lon="-17.8246300">
        <ele>1901.1</ele>
        <time>2020-11-16T11:48:38Z</time>
      </trkpt>
      <trkpt lat="28.7387150" lon="-17.8246300">
        <ele>1901.1</ele>
        <time>2020-11-16T11:48:39Z</time>
      </trkpt>
      <trkpt lat="28.7387170" lon="-17.8246530">
        <ele>1901.3</ele>
        <time>2020-11-16T11:48:40Z</time>
      </trkpt>
      <trkpt lat="28.7387170" lon="-17.8246530">
        <ele>1901.3</ele>
        <time>2020-11-16T11:48:41Z</time>
      </trkpt>
      <trkpt lat="28.7387120" lon="-17.8246700">
        <ele>1901.4</ele>
        <time>2020-11-16T11:48:42Z</time>
      </trkpt>
      <trkpt lat="28.7387120" lon="-17.8246700">
        <ele>1901.4</ele>
        <time>2020-11-16T11:48:43Z</time>
      </trkpt>
      <trkpt lat="28.7386970" lon="-17.8246850">
        <ele>1901.5</ele>
        <time>2020-11-16T11:48:44Z</time>
      </trkpt>
      <trkpt lat="28.7386850" lon="-17.8246950">
        <ele>1901.6</ele>
        <time>2020-11-16T11:48:45Z</time>
      </trkpt>
      <trkpt lat="28.7386850" lon="-17.8246950">
        <ele>1901.6</ele>
        <time>2020-11-16T11:48:46Z</time>
      </trkpt>
      <trkpt lat="28.7386570" lon="-17.8246920">
        <ele>1901.8</ele>
        <time>2020-11-16T11:48:47Z</time>
      </trkpt>
      <trkpt lat="28.7386570" lon="-17.8246920">
        <ele>1901.7</ele>
        <time>2020-11-16T11:48:48Z</time>
      </trkpt>
      <trkpt lat="28.7386400" lon="-17.8246700">
        <ele>1901.9</ele>
        <time>2020-11-16T11:48:49Z</time>
      </trkpt>
      <trkpt lat="28.7386400" lon="-17.8246700">
        <ele>1901.9</ele>
        <time>2020-11-16T11:48:50Z</time>
      </trkpt>
      <trkpt lat="28.7386250" lon="-17.8246480">
        <ele>1901.8</ele>
        <time>2020-11-16T11:48:51Z</time>
      </trkpt>
      <trkpt lat="28.7386170" lon="-17.8246370">
        <ele>1901.7</ele>
        <time>2020-11-16T11:48:52Z</time>
      </trkpt>
      <trkpt lat="28.7386170" lon="-17.8246370">
        <ele>1901.7</ele>
        <time>2020-11-16T11:48:53Z</time>
      </trkpt>
      <trkpt lat="28.7385970" lon="-17.8246200">
        <ele>1901.9</ele>
        <time>2020-11-16T11:48:54Z</time>
      </trkpt>
      <trkpt lat="28.7385970" lon="-17.8246200">
        <ele>1901.8</ele>
        <time>2020-11-16T11:48:55Z</time>
      </trkpt>
      <trkpt lat="28.7385670" lon="-17.8246000">
        <ele>1902.3</ele>
        <time>2020-11-16T11:48:56Z</time>
      </trkpt>
      <trkpt lat="28.7385520" lon="-17.8245870">
        <ele>1902.0</ele>
        <time>2020-11-16T11:48:57Z</time>
      </trkpt>
      <trkpt lat="28.7385380" lon="-17.8245730">
        <ele>1902.4</ele>
        <time>2020-11-16T11:48:58Z</time>
      </trkpt>
      <trkpt lat="28.7385380" lon="-17.8245730">
        <ele>1902.3</ele>
        <time>2020-11-16T11:48:59Z</time>
      </trkpt>
      <trkpt lat="28.7385050" lon="-17.8245530">
        <ele>1902.2</ele>
        <time>2020-11-16T11:49:00Z</time>
      </trkpt>
      <trkpt lat="28.7385050" lon="-17.8245530">
        <ele>1902.2</ele>
        <time>2020-11-16T11:49:01Z</time>
      </trkpt>
      <trkpt lat="28.7384670" lon="-17.8245430">
        <ele>1902.3</ele>
        <time>2020-11-16T11:49:02Z</time>
      </trkpt>
      <trkpt lat="28.7384670" lon="-17.8245430">
        <ele>1902.2</ele>
        <time>2020-11-16T11:49:03Z</time>
      </trkpt>
      <trkpt lat="28.7384270" lon="-17.8245420">
        <ele>1902.5</ele>
        <time>2020-11-16T11:49:04Z</time>
      </trkpt>
      <trkpt lat="28.7384130" lon="-17.8245400">
        <ele>1902.8</ele>
        <time>2020-11-16T11:49:05Z</time>
      </trkpt>
      <trkpt lat="28.7384130" lon="-17.8245400">
        <ele>1902.8</ele>
        <time>2020-11-16T11:49:06Z</time>
      </trkpt>
      <trkpt lat="28.7383780" lon="-17.8245380">
        <ele>1903.1</ele>
        <time>2020-11-16T11:49:07Z</time>
      </trkpt>
      <trkpt lat="28.7383780" lon="-17.8245380">
        <ele>1903.1</ele>
        <time>2020-11-16T11:49:08Z</time>
      </trkpt>
      <trkpt lat="28.7383470" lon="-17.8245320">
        <ele>1903.5</ele>
        <time>2020-11-16T11:49:09Z</time>
      </trkpt>
      <trkpt lat="28.7383300" lon="-17.8245280">
        <ele>1903.6</ele>
        <time>2020-11-16T11:49:10Z</time>
      </trkpt>
      <trkpt lat="28.7383170" lon="-17.8245230">
        <ele>1903.6</ele>
        <time>2020-11-16T11:49:11Z</time>
      </trkpt>
      <trkpt lat="28.7383170" lon="-17.8245230">
        <ele>1903.6</ele>
        <time>2020-11-16T11:49:12Z</time>
      </trkpt>
      <trkpt lat="28.7382900" lon="-17.8245180">
        <ele>1903.7</ele>
        <time>2020-11-16T11:49:13Z</time>
      </trkpt>
      <trkpt lat="28.7382900" lon="-17.8245180">
        <ele>1903.7</ele>
        <time>2020-11-16T11:49:14Z</time>
      </trkpt>
      <trkpt lat="28.7382580" lon="-17.8245200">
        <ele>1903.8</ele>
        <time>2020-11-16T11:49:15Z</time>
      </trkpt>
      <trkpt lat="28.7382430" lon="-17.8245170">
        <ele>1903.9</ele>
        <time>2020-11-16T11:49:16Z</time>
      </trkpt>
      <trkpt lat="28.7382430" lon="-17.8245170">
        <ele>1903.9</ele>
        <time>2020-11-16T11:49:17Z</time>
      </trkpt>
      <trkpt lat="28.7382180" lon="-17.8245050">
        <ele>1904.0</ele>
        <time>2020-11-16T11:49:18Z</time>
      </trkpt>
      <trkpt lat="28.7382180" lon="-17.8245050">
        <ele>1904.0</ele>
        <time>2020-11-16T11:49:19Z</time>
      </trkpt>
      <trkpt lat="28.7381970" lon="-17.8244970">
        <ele>1904.1</ele>
        <time>2020-11-16T11:49:20Z</time>
      </trkpt>
      <trkpt lat="28.7381830" lon="-17.8244900">
        <ele>1904.2</ele>
        <time>2020-11-16T11:49:21Z</time>
      </trkpt>
      <trkpt lat="28.7381770" lon="-17.8244830">
        <ele>1904.2</ele>
        <time>2020-11-16T11:49:22Z</time>
      </trkpt>
      <trkpt lat="28.7381770" lon="-17.8244830">
        <ele>1904.2</ele>
        <time>2020-11-16T11:49:23Z</time>
      </trkpt>
      <trkpt lat="28.7381320" lon="-17.8244830">
        <ele>1904.5</ele>
        <time>2020-11-16T11:49:24Z</time>
      </trkpt>
      <trkpt lat="28.7381320" lon="-17.8244830">
        <ele>1904.5</ele>
        <time>2020-11-16T11:49:25Z</time>
      </trkpt>
      <trkpt lat="28.7380880" lon="-17.8244880">
        <ele>1904.7</ele>
        <time>2020-11-16T11:49:26Z</time>
      </trkpt>
      <trkpt lat="28.7380880" lon="-17.8244880">
        <ele>1904.7</ele>
        <time>2020-11-16T11:49:27Z</time>
      </trkpt>
      <trkpt lat="28.7380570" lon="-17.8244920">
        <ele>1904.9</ele>
        <time>2020-11-16T11:49:28Z</time>
      </trkpt>
      <trkpt lat="28.7380450" lon="-17.8244900">
        <ele>1904.9</ele>
        <time>2020-11-16T11:49:29Z</time>
      </trkpt>
      <trkpt lat="28.7380450" lon="-17.8244900">
        <ele>1904.9</ele>
        <time>2020-11-16T11:49:30Z</time>
      </trkpt>
      <trkpt lat="28.7380230" lon="-17.8244800">
        <ele>1905.1</ele>
        <time>2020-11-16T11:49:31Z</time>
      </trkpt>
      <trkpt lat="28.7380230" lon="-17.8244800">
        <ele>1905.1</ele>
        <time>2020-11-16T11:49:32Z</time>
      </trkpt>
      <trkpt lat="28.7380070" lon="-17.8244730">
        <ele>1905.1</ele>
        <time>2020-11-16T11:49:33Z</time>
      </trkpt>
      <trkpt lat="28.7380070" lon="-17.8244730">
        <ele>1905.1</ele>
        <time>2020-11-16T11:49:34Z</time>
      </trkpt>
      <trkpt lat="28.7379830" lon="-17.8244570">
        <ele>1905.3</ele>
        <time>2020-11-16T11:49:35Z</time>
      </trkpt>
      <trkpt lat="28.7379670" lon="-17.8244520">
        <ele>1905.4</ele>
        <time>2020-11-16T11:49:36Z</time>
      </trkpt>
      <trkpt lat="28.7379670" lon="-17.8244520">
        <ele>1905.4</ele>
        <time>2020-11-16T11:49:37Z</time>
      </trkpt>
      <trkpt lat="28.7379350" lon="-17.8244400">
        <ele>1905.6</ele>
        <time>2020-11-16T11:49:38Z</time>
      </trkpt>
      <trkpt lat="28.7379350" lon="-17.8244400">
        <ele>1905.6</ele>
        <time>2020-11-16T11:49:39Z</time>
      </trkpt>
      <trkpt lat="28.7379000" lon="-17.8244380">
        <ele>1905.8</ele>
        <time>2020-11-16T11:49:40Z</time>
      </trkpt>
      <trkpt lat="28.7379000" lon="-17.8244380">
        <ele>1905.8</ele>
        <time>2020-11-16T11:49:41Z</time>
      </trkpt>
      <trkpt lat="28.7378720" lon="-17.8244420">
        <ele>1905.9</ele>
        <time>2020-11-16T11:49:42Z</time>
      </trkpt>
      <trkpt lat="28.7378620" lon="-17.8244480">
        <ele>1906.0</ele>
        <time>2020-11-16T11:49:43Z</time>
      </trkpt>
      <trkpt lat="28.7378620" lon="-17.8244480">
        <ele>1906.0</ele>
        <time>2020-11-16T11:49:44Z</time>
      </trkpt>
      <trkpt lat="28.7378280" lon="-17.8244580">
        <ele>1906.2</ele>
        <time>2020-11-16T11:49:45Z</time>
      </trkpt>
      <trkpt lat="28.7378280" lon="-17.8244580">
        <ele>1906.2</ele>
        <time>2020-11-16T11:49:46Z</time>
      </trkpt>
      <trkpt lat="28.7377800" lon="-17.8244630">
        <ele>1906.5</ele>
        <time>2020-11-16T11:49:47Z</time>
      </trkpt>
      <trkpt lat="28.7377620" lon="-17.8244620">
        <ele>1906.6</ele>
        <time>2020-11-16T11:49:48Z</time>
      </trkpt>
      <trkpt lat="28.7377620" lon="-17.8244620">
        <ele>1906.6</ele>
        <time>2020-11-16T11:49:49Z</time>
      </trkpt>
      <trkpt lat="28.7377330" lon="-17.8244600">
        <ele>1906.8</ele>
        <time>2020-11-16T11:49:50Z</time>
      </trkpt>
      <trkpt lat="28.7377330" lon="-17.8244600">
        <ele>1906.8</ele>
        <time>2020-11-16T11:49:51Z</time>
      </trkpt>
      <trkpt lat="28.7377130" lon="-17.8244620">
        <ele>1906.9</ele>
        <time>2020-11-16T11:49:52Z</time>
      </trkpt>
      <trkpt lat="28.7377130" lon="-17.8244620">
        <ele>1906.9</ele>
        <time>2020-11-16T11:49:53Z</time>
      </trkpt>
      <trkpt lat="28.7376950" lon="-17.8244530">
        <ele>1907.0</ele>
        <time>2020-11-16T11:49:54Z</time>
      </trkpt>
      <trkpt lat="28.7376850" lon="-17.8244450">
        <ele>1907.1</ele>
        <time>2020-11-16T11:49:55Z</time>
      </trkpt>
      <trkpt lat="28.7376850" lon="-17.8244450">
        <ele>1907.1</ele>
        <time>2020-11-16T11:49:56Z</time>
      </trkpt>
      <trkpt lat="28.7376480" lon="-17.8244180">
        <ele>1907.3</ele>
        <time>2020-11-16T11:49:57Z</time>
      </trkpt>
      <trkpt lat="28.7376480" lon="-17.8244180">
        <ele>1907.3</ele>
        <time>2020-11-16T11:49:58Z</time>
      </trkpt>
      <trkpt lat="28.7376200" lon="-17.8243920">
        <ele>1907.6</ele>
        <time>2020-11-16T11:49:59Z</time>
      </trkpt>
      <trkpt lat="28.7376030" lon="-17.8243850">
        <ele>1907.7</ele>
        <time>2020-11-16T11:50:00Z</time>
      </trkpt>
      <trkpt lat="28.7376030" lon="-17.8243850">
        <ele>1907.7</ele>
        <time>2020-11-16T11:50:01Z</time>
      </trkpt>
      <trkpt lat="28.7375730" lon="-17.8243730">
        <ele>1907.8</ele>
        <time>2020-11-16T11:50:02Z</time>
      </trkpt>
      <trkpt lat="28.7375730" lon="-17.8243730">
        <ele>1907.8</ele>
        <time>2020-11-16T11:50:03Z</time>
      </trkpt>
      <trkpt lat="28.7375370" lon="-17.8243650">
        <ele>1908.0</ele>
        <time>2020-11-16T11:50:04Z</time>
      </trkpt>
      <trkpt lat="28.7375370" lon="-17.8243650">
        <ele>1908.0</ele>
        <time>2020-11-16T11:50:05Z</time>
      </trkpt>
      <trkpt lat="28.7374980" lon="-17.8243530">
        <ele>1908.3</ele>
        <time>2020-11-16T11:50:06Z</time>
      </trkpt>
      <trkpt lat="28.7374980" lon="-17.8243530">
        <ele>1908.3</ele>
        <time>2020-11-16T11:50:07Z</time>
      </trkpt>
      <trkpt lat="28.7374630" lon="-17.8243520">
        <ele>1908.5</ele>
        <time>2020-11-16T11:50:08Z</time>
      </trkpt>
      <trkpt lat="28.7374630" lon="-17.8243520">
        <ele>1908.5</ele>
        <time>2020-11-16T11:50:09Z</time>
      </trkpt>
      <trkpt lat="28.7374270" lon="-17.8243470">
        <ele>1908.7</ele>
        <time>2020-11-16T11:50:10Z</time>
      </trkpt>
      <trkpt lat="28.7374020" lon="-17.8243520">
        <ele>1908.8</ele>
        <time>2020-11-16T11:50:11Z</time>
      </trkpt>
      <trkpt lat="28.7374020" lon="-17.8243520">
        <ele>1908.8</ele>
        <time>2020-11-16T11:50:12Z</time>
      </trkpt>
      <trkpt lat="28.7373650" lon="-17.8243670">
        <ele>1909.0</ele>
        <time>2020-11-16T11:50:13Z</time>
      </trkpt>
      <trkpt lat="28.7373470" lon="-17.8243770">
        <ele>1909.1</ele>
        <time>2020-11-16T11:50:14Z</time>
      </trkpt>
      <trkpt lat="28.7373470" lon="-17.8243770">
        <ele>1909.1</ele>
        <time>2020-11-16T11:50:15Z</time>
      </trkpt>
      <trkpt lat="28.7373100" lon="-17.8243900">
        <ele>1909.4</ele>
        <time>2020-11-16T11:50:16Z</time>
      </trkpt>
      <trkpt lat="28.7373100" lon="-17.8243900">
        <ele>1909.4</ele>
        <time>2020-11-16T11:50:17Z</time>
      </trkpt>
      <trkpt lat="28.7372750" lon="-17.8244170">
        <ele>1909.6</ele>
        <time>2020-11-16T11:50:18Z</time>
      </trkpt>
      <trkpt lat="28.7372750" lon="-17.8244170">
        <ele>1909.6</ele>
        <time>2020-11-16T11:50:19Z</time>
      </trkpt>
      <trkpt lat="28.7372550" lon="-17.8244400">
        <ele>1909.8</ele>
        <time>2020-11-16T11:50:20Z</time>
      </trkpt>
      <trkpt lat="28.7372500" lon="-17.8244480">
        <ele>1909.8</ele>
        <time>2020-11-16T11:50:21Z</time>
      </trkpt>
      <trkpt lat="28.7372500" lon="-17.8244480">
        <ele>1909.8</ele>
        <time>2020-11-16T11:50:22Z</time>
      </trkpt>
      <trkpt lat="28.7372300" lon="-17.8244680">
        <ele>1910.0</ele>
        <time>2020-11-16T11:50:23Z</time>
      </trkpt>
      <trkpt lat="28.7372170" lon="-17.8244720">
        <ele>1910.0</ele>
        <time>2020-11-16T11:50:24Z</time>
      </trkpt>
      <trkpt lat="28.7372170" lon="-17.8244720">
        <ele>1910.0</ele>
        <time>2020-11-16T11:50:25Z</time>
      </trkpt>
      <trkpt lat="28.7371850" lon="-17.8244730">
        <ele>1910.2</ele>
        <time>2020-11-16T11:50:26Z</time>
      </trkpt>
      <trkpt lat="28.7371850" lon="-17.8244730">
        <ele>1910.2</ele>
        <time>2020-11-16T11:50:27Z</time>
      </trkpt>
      <trkpt lat="28.7371620" lon="-17.8244830">
        <ele>1910.4</ele>
        <time>2020-11-16T11:50:28Z</time>
      </trkpt>
      <trkpt lat="28.7371620" lon="-17.8244830">
        <ele>1910.4</ele>
        <time>2020-11-16T11:50:29Z</time>
      </trkpt>
      <trkpt lat="28.7371350" lon="-17.8244950">
        <ele>1910.5</ele>
        <time>2020-11-16T11:50:30Z</time>
      </trkpt>
      <trkpt lat="28.7371350" lon="-17.8244950">
        <ele>1910.5</ele>
        <time>2020-11-16T11:50:31Z</time>
      </trkpt>
      <trkpt lat="28.7371100" lon="-17.8245180">
        <ele>1910.7</ele>
        <time>2020-11-16T11:50:32Z</time>
      </trkpt>
      <trkpt lat="28.7371100" lon="-17.8245180">
        <ele>1910.7</ele>
        <time>2020-11-16T11:50:33Z</time>
      </trkpt>
      <trkpt lat="28.7370820" lon="-17.8245400">
        <ele>1910.9</ele>
        <time>2020-11-16T11:50:34Z</time>
      </trkpt>
      <trkpt lat="28.7370680" lon="-17.8245550">
        <ele>1911.0</ele>
        <time>2020-11-16T11:50:35Z</time>
      </trkpt>
      <trkpt lat="28.7370680" lon="-17.8245550">
        <ele>1911.0</ele>
        <time>2020-11-16T11:50:36Z</time>
      </trkpt>
      <trkpt lat="28.7370450" lon="-17.8245850">
        <ele>1911.2</ele>
        <time>2020-11-16T11:50:37Z</time>
      </trkpt>
      <trkpt lat="28.7370370" lon="-17.8245950">
        <ele>1911.2</ele>
        <time>2020-11-16T11:50:38Z</time>
      </trkpt>
      <trkpt lat="28.7370370" lon="-17.8245950">
        <ele>1911.2</ele>
        <time>2020-11-16T11:50:39Z</time>
      </trkpt>
      <trkpt lat="28.7370170" lon="-17.8246180">
        <ele>1911.4</ele>
        <time>2020-11-16T11:50:40Z</time>
      </trkpt>
      <trkpt lat="28.7370170" lon="-17.8246180">
        <ele>1911.4</ele>
        <time>2020-11-16T11:50:41Z</time>
      </trkpt>
      <trkpt lat="28.7369870" lon="-17.8246570">
        <ele>1911.6</ele>
        <time>2020-11-16T11:50:42Z</time>
      </trkpt>
      <trkpt lat="28.7369870" lon="-17.8246570">
        <ele>1911.6</ele>
        <time>2020-11-16T11:50:43Z</time>
      </trkpt>
      <trkpt lat="28.7369470" lon="-17.8246980">
        <ele>1911.9</ele>
        <time>2020-11-16T11:50:44Z</time>
      </trkpt>
      <trkpt lat="28.7369300" lon="-17.8247150">
        <ele>1912.0</ele>
        <time>2020-11-16T11:50:45Z</time>
      </trkpt>
      <trkpt lat="28.7369150" lon="-17.8247300">
        <ele>1912.0</ele>
        <time>2020-11-16T11:50:46Z</time>
      </trkpt>
      <trkpt lat="28.7369150" lon="-17.8247300">
        <ele>1912.0</ele>
        <time>2020-11-16T11:50:47Z</time>
      </trkpt>
      <trkpt lat="28.7368850" lon="-17.8247570">
        <ele>1912.2</ele>
        <time>2020-11-16T11:50:48Z</time>
      </trkpt>
      <trkpt lat="28.7368850" lon="-17.8247570">
        <ele>1912.2</ele>
        <time>2020-11-16T11:50:49Z</time>
      </trkpt>
      <trkpt lat="28.7368620" lon="-17.8247880">
        <ele>1912.4</ele>
        <time>2020-11-16T11:50:50Z</time>
      </trkpt>
      <trkpt lat="28.7368620" lon="-17.8247880">
        <ele>1912.4</ele>
        <time>2020-11-16T11:50:51Z</time>
      </trkpt>
      <trkpt lat="28.7368430" lon="-17.8248080">
        <ele>1912.5</ele>
        <time>2020-11-16T11:50:52Z</time>
      </trkpt>
      <trkpt lat="28.7368430" lon="-17.8248080">
        <ele>1912.5</ele>
        <time>2020-11-16T11:50:53Z</time>
      </trkpt>
      <trkpt lat="28.7368200" lon="-17.8248300">
        <ele>1912.6</ele>
        <time>2020-11-16T11:50:54Z</time>
      </trkpt>
      <trkpt lat="28.7368200" lon="-17.8248300">
        <ele>1912.6</ele>
        <time>2020-11-16T11:50:55Z</time>
      </trkpt>
      <trkpt lat="28.7367870" lon="-17.8248500">
        <ele>1912.8</ele>
        <time>2020-11-16T11:50:56Z</time>
      </trkpt>
      <trkpt lat="28.7367870" lon="-17.8248500">
        <ele>1912.8</ele>
        <time>2020-11-16T11:50:57Z</time>
      </trkpt>
      <trkpt lat="28.7367530" lon="-17.8248630">
        <ele>1912.9</ele>
        <time>2020-11-16T11:50:58Z</time>
      </trkpt>
      <trkpt lat="28.7367530" lon="-17.8248630">
        <ele>1912.9</ele>
        <time>2020-11-16T11:50:59Z</time>
      </trkpt>
      <trkpt lat="28.7367150" lon="-17.8248720">
        <ele>1913.1</ele>
        <time>2020-11-16T11:51:00Z</time>
      </trkpt>
      <trkpt lat="28.7366980" lon="-17.8248680">
        <ele>1913.2</ele>
        <time>2020-11-16T11:51:01Z</time>
      </trkpt>
      <trkpt lat="28.7366980" lon="-17.8248680">
        <ele>1913.2</ele>
        <time>2020-11-16T11:51:02Z</time>
      </trkpt>
      <trkpt lat="28.7366700" lon="-17.8248580">
        <ele>1913.3</ele>
        <time>2020-11-16T11:51:03Z</time>
      </trkpt>
      <trkpt lat="28.7366550" lon="-17.8248480">
        <ele>1913.4</ele>
        <time>2020-11-16T11:51:04Z</time>
      </trkpt>
      <trkpt lat="28.7366550" lon="-17.8248480">
        <ele>1913.4</ele>
        <time>2020-11-16T11:51:05Z</time>
      </trkpt>
      <trkpt lat="28.7366350" lon="-17.8248180">
        <ele>1913.5</ele>
        <time>2020-11-16T11:51:06Z</time>
      </trkpt>
      <trkpt lat="28.7366250" lon="-17.8247980">
        <ele>1913.6</ele>
        <time>2020-11-16T11:51:07Z</time>
      </trkpt>
      <trkpt lat="28.7366250" lon="-17.8247980">
        <ele>1913.6</ele>
        <time>2020-11-16T11:51:08Z</time>
      </trkpt>
      <trkpt lat="28.7365970" lon="-17.8247650">
        <ele>1913.7</ele>
        <time>2020-11-16T11:51:09Z</time>
      </trkpt>
      <trkpt lat="28.7365780" lon="-17.8247500">
        <ele>1913.8</ele>
        <time>2020-11-16T11:51:10Z</time>
      </trkpt>
      <trkpt lat="28.7365780" lon="-17.8247500">
        <ele>1913.8</ele>
        <time>2020-11-16T11:51:11Z</time>
      </trkpt>
      <trkpt lat="28.7365530" lon="-17.8247220">
        <ele>1913.9</ele>
        <time>2020-11-16T11:51:12Z</time>
      </trkpt>
      <trkpt lat="28.7365530" lon="-17.8247220">
        <ele>1913.9</ele>
        <time>2020-11-16T11:51:13Z</time>
      </trkpt>
      <trkpt lat="28.7365350" lon="-17.8247020">
        <ele>1914.0</ele>
        <time>2020-11-16T11:51:14Z</time>
      </trkpt>
      <trkpt lat="28.7365220" lon="-17.8246950">
        <ele>1914.0</ele>
        <time>2020-11-16T11:51:15Z</time>
      </trkpt>
      <trkpt lat="28.7365100" lon="-17.8246830">
        <ele>1914.1</ele>
        <time>2020-11-16T11:51:16Z</time>
      </trkpt>
      <trkpt lat="28.7365100" lon="-17.8246830">
        <ele>1914.1</ele>
        <time>2020-11-16T11:51:17Z</time>
      </trkpt>
      <trkpt lat="28.7364930" lon="-17.8246650">
        <ele>1914.1</ele>
        <time>2020-11-16T11:51:18Z</time>
      </trkpt>
      <trkpt lat="28.7364800" lon="-17.8246670">
        <ele>1914.1</ele>
        <time>2020-11-16T11:51:19Z</time>
      </trkpt>
      <trkpt lat="28.7364800" lon="-17.8246670">
        <ele>1914.1</ele>
        <time>2020-11-16T11:51:20Z</time>
      </trkpt>
      <trkpt lat="28.7364400" lon="-17.8246520">
        <ele>1914.2</ele>
        <time>2020-11-16T11:51:21Z</time>
      </trkpt>
      <trkpt lat="28.7364230" lon="-17.8246430">
        <ele>1914.3</ele>
        <time>2020-11-16T11:51:22Z</time>
      </trkpt>
      <trkpt lat="28.7364230" lon="-17.8246430">
        <ele>1914.3</ele>
        <time>2020-11-16T11:51:23Z</time>
      </trkpt>
      <trkpt lat="28.7363800" lon="-17.8246220">
        <ele>1914.3</ele>
        <time>2020-11-16T11:51:24Z</time>
      </trkpt>
      <trkpt lat="28.7363630" lon="-17.8246080">
        <ele>1914.4</ele>
        <time>2020-11-16T11:51:25Z</time>
      </trkpt>
      <trkpt lat="28.7363630" lon="-17.8246080">
        <ele>1914.4</ele>
        <time>2020-11-16T11:51:26Z</time>
      </trkpt>
      <trkpt lat="28.7363300" lon="-17.8245820">
        <ele>1914.4</ele>
        <time>2020-11-16T11:51:27Z</time>
      </trkpt>
      <trkpt lat="28.7363120" lon="-17.8245730">
        <ele>1914.5</ele>
        <time>2020-11-16T11:51:28Z</time>
      </trkpt>
      <trkpt lat="28.7363120" lon="-17.8245730">
        <ele>1914.5</ele>
        <time>2020-11-16T11:51:29Z</time>
      </trkpt>
      <trkpt lat="28.7362820" lon="-17.8245420">
        <ele>1914.5</ele>
        <time>2020-11-16T11:51:30Z</time>
      </trkpt>
      <trkpt lat="28.7362700" lon="-17.8245280">
        <ele>1914.6</ele>
        <time>2020-11-16T11:51:31Z</time>
      </trkpt>
      <trkpt lat="28.7362700" lon="-17.8245280">
        <ele>1914.6</ele>
        <time>2020-11-16T11:51:32Z</time>
      </trkpt>
      <trkpt lat="28.7362480" lon="-17.8245050">
        <ele>1914.6</ele>
        <time>2020-11-16T11:51:33Z</time>
      </trkpt>
      <trkpt lat="28.7362280" lon="-17.8244780">
        <ele>1914.7</ele>
        <time>2020-11-16T11:51:34Z</time>
      </trkpt>
      <trkpt lat="28.7362280" lon="-17.8244780">
        <ele>1914.7</ele>
        <time>2020-11-16T11:51:35Z</time>
      </trkpt>
      <trkpt lat="28.7361980" lon="-17.8244620">
        <ele>1914.7</ele>
        <time>2020-11-16T11:51:36Z</time>
      </trkpt>
      <trkpt lat="28.7361980" lon="-17.8244620">
        <ele>1914.7</ele>
        <time>2020-11-16T11:51:37Z</time>
      </trkpt>
      <trkpt lat="28.7361800" lon="-17.8244230">
        <ele>1914.8</ele>
        <time>2020-11-16T11:51:38Z</time>
      </trkpt>
      <trkpt lat="28.7361700" lon="-17.8244020">
        <ele>1914.8</ele>
        <time>2020-11-16T11:51:39Z</time>
      </trkpt>
      <trkpt lat="28.7361700" lon="-17.8244020">
        <ele>1914.8</ele>
        <time>2020-11-16T11:51:40Z</time>
      </trkpt>
      <trkpt lat="28.7361430" lon="-17.8243650">
        <ele>1914.9</ele>
        <time>2020-11-16T11:51:41Z</time>
      </trkpt>
      <trkpt lat="28.7361430" lon="-17.8243650">
        <ele>1914.9</ele>
        <time>2020-11-16T11:51:42Z</time>
      </trkpt>
      <trkpt lat="28.7361120" lon="-17.8243380">
        <ele>1915.0</ele>
        <time>2020-11-16T11:51:43Z</time>
      </trkpt>
      <trkpt lat="28.7360900" lon="-17.8243270">
        <ele>1915.1</ele>
        <time>2020-11-16T11:51:44Z</time>
      </trkpt>
      <trkpt lat="28.7360900" lon="-17.8243270">
        <ele>1915.1</ele>
        <time>2020-11-16T11:51:45Z</time>
      </trkpt>
      <trkpt lat="28.7360570" lon="-17.8243070">
        <ele>1915.2</ele>
        <time>2020-11-16T11:51:46Z</time>
      </trkpt>
      <trkpt lat="28.7360570" lon="-17.8243070">
        <ele>1915.2</ele>
        <time>2020-11-16T11:51:47Z</time>
      </trkpt>
      <trkpt lat="28.7360180" lon="-17.8242970">
        <ele>1915.3</ele>
        <time>2020-11-16T11:51:48Z</time>
      </trkpt>
      <trkpt lat="28.7360000" lon="-17.8242980">
        <ele>1915.4</ele>
        <time>2020-11-16T11:51:49Z</time>
      </trkpt>
      <trkpt lat="28.7360000" lon="-17.8242980">
        <ele>1915.4</ele>
        <time>2020-11-16T11:51:50Z</time>
      </trkpt>
      <trkpt lat="28.7359900" lon="-17.8243130">
        <ele>1915.5</ele>
        <time>2020-11-16T11:51:51Z</time>
      </trkpt>
      <trkpt lat="28.7359870" lon="-17.8243280">
        <ele>1915.5</ele>
        <time>2020-11-16T11:51:52Z</time>
      </trkpt>
      <trkpt lat="28.7359870" lon="-17.8243280">
        <ele>1915.5</ele>
        <time>2020-11-16T11:51:53Z</time>
      </trkpt>
      <trkpt lat="28.7359820" lon="-17.8243520">
        <ele>1915.6</ele>
        <time>2020-11-16T11:51:54Z</time>
      </trkpt>
      <trkpt lat="28.7359730" lon="-17.8243620">
        <ele>1915.6</ele>
        <time>2020-11-16T11:51:55Z</time>
      </trkpt>
      <trkpt lat="28.7359730" lon="-17.8243620">
        <ele>1915.6</ele>
        <time>2020-11-16T11:51:56Z</time>
      </trkpt>
      <trkpt lat="28.7359630" lon="-17.8243650">
        <ele>1915.6</ele>
        <time>2020-11-16T11:51:57Z</time>
      </trkpt>
      <trkpt lat="28.7359630" lon="-17.8243650">
        <ele>1915.6</ele>
        <time>2020-11-16T11:51:58Z</time>
      </trkpt>
      <trkpt lat="28.7359620" lon="-17.8243600">
        <ele>1915.6</ele>
        <time>2020-11-16T11:51:59Z</time>
      </trkpt>
      <trkpt lat="28.7359620" lon="-17.8243600">
        <ele>1915.6</ele>
        <time>2020-11-16T11:52:12Z</time>
      </trkpt>
      <trkpt lat="28.7359620" lon="-17.8243600">
        <ele>1915.6</ele>
        <time>2020-11-16T11:52:13Z</time>
      </trkpt>
      <trkpt lat="28.7359700" lon="-17.8244650">
        <ele>1916.9</ele>
        <time>2020-11-16T11:52:14Z</time>
      </trkpt>
      <trkpt lat="28.7359700" lon="-17.8244650">
        <ele>1916.9</ele>
        <time>2020-11-16T11:52:15Z</time>
      </trkpt>
      <trkpt lat="28.7359920" lon="-17.8244870">
        <ele>1917.1</ele>
        <time>2020-11-16T11:52:16Z</time>
      </trkpt>
      <trkpt lat="28.7359920" lon="-17.8244870">
        <ele>1917.1</ele>
        <time>2020-11-16T11:52:17Z</time>
      </trkpt>
      <trkpt lat="28.7360150" lon="-17.8245130">
        <ele>1917.3</ele>
        <time>2020-11-16T11:52:18Z</time>
      </trkpt>
      <trkpt lat="28.7360150" lon="-17.8245130">
        <ele>1917.3</ele>
        <time>2020-11-16T11:52:19Z</time>
      </trkpt>
      <trkpt lat="28.7360330" lon="-17.8245380">
        <ele>1917.6</ele>
        <time>2020-11-16T11:52:20Z</time>
      </trkpt>
      <trkpt lat="28.7360450" lon="-17.8245580">
        <ele>1917.7</ele>
        <time>2020-11-16T11:52:21Z</time>
      </trkpt>
      <trkpt lat="28.7360550" lon="-17.8245630">
        <ele>1917.8</ele>
        <time>2020-11-16T11:52:22Z</time>
      </trkpt>
      <trkpt lat="28.7360550" lon="-17.8245630">
        <ele>1917.8</ele>
        <time>2020-11-16T11:52:23Z</time>
      </trkpt>
      <trkpt lat="28.7360750" lon="-17.8245780">
        <ele>1918.0</ele>
        <time>2020-11-16T11:52:24Z</time>
      </trkpt>
      <trkpt lat="28.7360750" lon="-17.8245780">
        <ele>1918.0</ele>
        <time>2020-11-16T11:52:25Z</time>
      </trkpt>
      <trkpt lat="28.7360920" lon="-17.8246030">
        <ele>1918.2</ele>
        <time>2020-11-16T11:52:26Z</time>
      </trkpt>
      <trkpt lat="28.7361020" lon="-17.8246180">
        <ele>1918.3</ele>
        <time>2020-11-16T11:52:27Z</time>
      </trkpt>
      <trkpt lat="28.7361020" lon="-17.8246180">
        <ele>1918.3</ele>
        <time>2020-11-16T11:52:28Z</time>
      </trkpt>
      <trkpt lat="28.7361220" lon="-17.8246550">
        <ele>1918.7</ele>
        <time>2020-11-16T11:52:29Z</time>
      </trkpt>
      <trkpt lat="28.7361220" lon="-17.8246550">
        <ele>1918.7</ele>
        <time>2020-11-16T11:52:30Z</time>
      </trkpt>
      <trkpt lat="28.7361350" lon="-17.8246830">
        <ele>1918.9</ele>
        <time>2020-11-16T11:52:31Z</time>
      </trkpt>
      <trkpt lat="28.7361420" lon="-17.8246970">
        <ele>1919.0</ele>
        <time>2020-11-16T11:52:32Z</time>
      </trkpt>
      <trkpt lat="28.7361500" lon="-17.8247100">
        <ele>1919.2</ele>
        <time>2020-11-16T11:52:33Z</time>
      </trkpt>
      <trkpt lat="28.7361600" lon="-17.8247220">
        <ele>1919.3</ele>
        <time>2020-11-16T11:52:34Z</time>
      </trkpt>
      <trkpt lat="28.7361600" lon="-17.8247220">
        <ele>1919.3</ele>
        <time>2020-11-16T11:52:35Z</time>
      </trkpt>
      <trkpt lat="28.7361780" lon="-17.8247520">
        <ele>1919.6</ele>
        <time>2020-11-16T11:52:36Z</time>
      </trkpt>
      <trkpt lat="28.7361870" lon="-17.8247650">
        <ele>1919.8</ele>
        <time>2020-11-16T11:52:37Z</time>
      </trkpt>
      <trkpt lat="28.7361870" lon="-17.8247650">
        <ele>1919.8</ele>
        <time>2020-11-16T11:52:38Z</time>
      </trkpt>
      <trkpt lat="28.7362000" lon="-17.8247980">
        <ele>1920.1</ele>
        <time>2020-11-16T11:52:39Z</time>
      </trkpt>
      <trkpt lat="28.7362100" lon="-17.8248130">
        <ele>1920.3</ele>
        <time>2020-11-16T11:52:40Z</time>
      </trkpt>
      <trkpt lat="28.7362100" lon="-17.8248130">
        <ele>1920.3</ele>
        <time>2020-11-16T11:52:41Z</time>
      </trkpt>
      <trkpt lat="28.7362250" lon="-17.8248520">
        <ele>1920.7</ele>
        <time>2020-11-16T11:52:42Z</time>
      </trkpt>
      <trkpt lat="28.7362250" lon="-17.8248520">
        <ele>1920.7</ele>
        <time>2020-11-16T11:52:43Z</time>
      </trkpt>
      <trkpt lat="28.7362480" lon="-17.8248750">
        <ele>1921.0</ele>
        <time>2020-11-16T11:52:44Z</time>
      </trkpt>
      <trkpt lat="28.7362480" lon="-17.8248750">
        <ele>1921.0</ele>
        <time>2020-11-16T11:52:45Z</time>
      </trkpt>
      <trkpt lat="28.7362680" lon="-17.8248980">
        <ele>1921.4</ele>
        <time>2020-11-16T11:52:46Z</time>
      </trkpt>
      <trkpt lat="28.7362680" lon="-17.8248980">
        <ele>1921.4</ele>
        <time>2020-11-16T11:52:47Z</time>
      </trkpt>
      <trkpt lat="28.7362850" lon="-17.8249270">
        <ele>1921.7</ele>
        <time>2020-11-16T11:52:48Z</time>
      </trkpt>
      <trkpt lat="28.7362880" lon="-17.8249430">
        <ele>1921.9</ele>
        <time>2020-11-16T11:52:49Z</time>
      </trkpt>
      <trkpt lat="28.7362880" lon="-17.8249430">
        <ele>1921.9</ele>
        <time>2020-11-16T11:52:50Z</time>
      </trkpt>
      <trkpt lat="28.7363030" lon="-17.8249720">
        <ele>1922.2</ele>
        <time>2020-11-16T11:52:51Z</time>
      </trkpt>
      <trkpt lat="28.7363180" lon="-17.8250070">
        <ele>1922.7</ele>
        <time>2020-11-16T11:52:52Z</time>
      </trkpt>
      <trkpt lat="28.7363180" lon="-17.8250070">
        <ele>1922.7</ele>
        <time>2020-11-16T11:52:53Z</time>
      </trkpt>
      <trkpt lat="28.7363430" lon="-17.8250470">
        <ele>1923.2</ele>
        <time>2020-11-16T11:52:54Z</time>
      </trkpt>
      <trkpt lat="28.7363430" lon="-17.8250470">
        <ele>1923.2</ele>
        <time>2020-11-16T11:52:55Z</time>
      </trkpt>
      <trkpt lat="28.7363630" lon="-17.8250820">
        <ele>1923.7</ele>
        <time>2020-11-16T11:52:56Z</time>
      </trkpt>
      <trkpt lat="28.7363630" lon="-17.8250820">
        <ele>1923.7</ele>
        <time>2020-11-16T11:52:57Z</time>
      </trkpt>
      <trkpt lat="28.7363870" lon="-17.8251120">
        <ele>1924.1</ele>
        <time>2020-11-16T11:52:58Z</time>
      </trkpt>
      <trkpt lat="28.7363870" lon="-17.8251120">
        <ele>1924.1</ele>
        <time>2020-11-16T11:52:59Z</time>
      </trkpt>
      <trkpt lat="28.7363950" lon="-17.8251470">
        <ele>1924.5</ele>
        <time>2020-11-16T11:53:00Z</time>
      </trkpt>
      <trkpt lat="28.7363950" lon="-17.8251470">
        <ele>1924.5</ele>
        <time>2020-11-16T11:53:01Z</time>
      </trkpt>
      <trkpt lat="28.7364150" lon="-17.8251680">
        <ele>1924.9</ele>
        <time>2020-11-16T11:53:02Z</time>
      </trkpt>
      <trkpt lat="28.7364150" lon="-17.8251680">
        <ele>1924.9</ele>
        <time>2020-11-16T11:53:03Z</time>
      </trkpt>
      <trkpt lat="28.7364330" lon="-17.8252000">
        <ele>1925.3</ele>
        <time>2020-11-16T11:53:04Z</time>
      </trkpt>
      <trkpt lat="28.7364330" lon="-17.8252000">
        <ele>1925.3</ele>
        <time>2020-11-16T11:53:05Z</time>
      </trkpt>
      <trkpt lat="28.7364570" lon="-17.8252230">
        <ele>1925.7</ele>
        <time>2020-11-16T11:53:06Z</time>
      </trkpt>
      <trkpt lat="28.7364570" lon="-17.8252230">
        <ele>1925.7</ele>
        <time>2020-11-16T11:53:07Z</time>
      </trkpt>
      <trkpt lat="28.7364720" lon="-17.8252380">
        <ele>1925.9</ele>
        <time>2020-11-16T11:53:08Z</time>
      </trkpt>
      <trkpt lat="28.7364700" lon="-17.8252480">
        <ele>1926.1</ele>
        <time>2020-11-16T11:53:09Z</time>
      </trkpt>
      <trkpt lat="28.7364700" lon="-17.8252480">
        <ele>1926.1</ele>
        <time>2020-11-16T11:53:10Z</time>
      </trkpt>
      <trkpt lat="28.7364850" lon="-17.8252720">
        <ele>1926.4</ele>
        <time>2020-11-16T11:53:11Z</time>
      </trkpt>
      <trkpt lat="28.7364980" lon="-17.8252800">
        <ele>1926.6</ele>
        <time>2020-11-16T11:53:12Z</time>
      </trkpt>
      <trkpt lat="28.7364980" lon="-17.8252800">
        <ele>1926.6</ele>
        <time>2020-11-16T11:53:13Z</time>
      </trkpt>
      <trkpt lat="28.7365350" lon="-17.8252920">
        <ele>1927.1</ele>
        <time>2020-11-16T11:53:14Z</time>
      </trkpt>
      <trkpt lat="28.7365350" lon="-17.8252920">
        <ele>1927.1</ele>
        <time>2020-11-16T11:53:15Z</time>
      </trkpt>
      <trkpt lat="28.7365680" lon="-17.8253050">
        <ele>1927.5</ele>
        <time>2020-11-16T11:53:16Z</time>
      </trkpt>
      <trkpt lat="28.7365680" lon="-17.8253050">
        <ele>1927.5</ele>
        <time>2020-11-16T11:53:17Z</time>
      </trkpt>
      <trkpt lat="28.7365980" lon="-17.8253230">
        <ele>1927.9</ele>
        <time>2020-11-16T11:53:18Z</time>
      </trkpt>
      <trkpt lat="28.7365980" lon="-17.8253230">
        <ele>1927.9</ele>
        <time>2020-11-16T11:53:19Z</time>
      </trkpt>
      <trkpt lat="28.7366180" lon="-17.8253280">
        <ele>1928.2</ele>
        <time>2020-11-16T11:53:20Z</time>
      </trkpt>
      <trkpt lat="28.7366180" lon="-17.8253280">
        <ele>1928.2</ele>
        <time>2020-11-16T11:53:21Z</time>
      </trkpt>
      <trkpt lat="28.7366330" lon="-17.8253330">
        <ele>1928.4</ele>
        <time>2020-11-16T11:53:22Z</time>
      </trkpt>
      <trkpt lat="28.7366330" lon="-17.8253330">
        <ele>1928.4</ele>
        <time>2020-11-16T11:53:23Z</time>
      </trkpt>
      <trkpt lat="28.7366670" lon="-17.8253370">
        <ele>1928.8</ele>
        <time>2020-11-16T11:53:24Z</time>
      </trkpt>
      <trkpt lat="28.7366670" lon="-17.8253370">
        <ele>1928.8</ele>
        <time>2020-11-16T11:53:25Z</time>
      </trkpt>
      <trkpt lat="28.7367180" lon="-17.8253520">
        <ele>1929.5</ele>
        <time>2020-11-16T11:53:26Z</time>
      </trkpt>
      <trkpt lat="28.7367180" lon="-17.8253520">
        <ele>1929.5</ele>
        <time>2020-11-16T11:53:27Z</time>
      </trkpt>
      <trkpt lat="28.7367520" lon="-17.8253500">
        <ele>1930.0</ele>
        <time>2020-11-16T11:53:28Z</time>
      </trkpt>
      <trkpt lat="28.7367520" lon="-17.8253500">
        <ele>1930.0</ele>
        <time>2020-11-16T11:53:29Z</time>
      </trkpt>
      <trkpt lat="28.7367880" lon="-17.8253500">
        <ele>1930.5</ele>
        <time>2020-11-16T11:53:30Z</time>
      </trkpt>
      <trkpt lat="28.7367880" lon="-17.8253500">
        <ele>1930.5</ele>
        <time>2020-11-16T11:53:31Z</time>
      </trkpt>
      <trkpt lat="28.7368280" lon="-17.8253500">
        <ele>1931.1</ele>
        <time>2020-11-16T11:53:32Z</time>
      </trkpt>
      <trkpt lat="28.7368280" lon="-17.8253500">
        <ele>1931.1</ele>
        <time>2020-11-16T11:53:33Z</time>
      </trkpt>
      <trkpt lat="28.7368550" lon="-17.8253300">
        <ele>1931.5</ele>
        <time>2020-11-16T11:53:34Z</time>
      </trkpt>
      <trkpt lat="28.7368720" lon="-17.8253270">
        <ele>1931.8</ele>
        <time>2020-11-16T11:53:35Z</time>
      </trkpt>
      <trkpt lat="28.7368720" lon="-17.8253270">
        <ele>1931.8</ele>
        <time>2020-11-16T11:53:36Z</time>
      </trkpt>
      <trkpt lat="28.7369100" lon="-17.8253320">
        <ele>1932.3</ele>
        <time>2020-11-16T11:53:37Z</time>
      </trkpt>
      <trkpt lat="28.7369100" lon="-17.8253320">
        <ele>1932.3</ele>
        <time>2020-11-16T11:53:38Z</time>
      </trkpt>
      <trkpt lat="28.7369470" lon="-17.8253330">
        <ele>1932.8</ele>
        <time>2020-11-16T11:53:39Z</time>
      </trkpt>
      <trkpt lat="28.7369470" lon="-17.8253330">
        <ele>1932.8</ele>
        <time>2020-11-16T11:53:40Z</time>
      </trkpt>
      <trkpt lat="28.7369820" lon="-17.8253320">
        <ele>1933.3</ele>
        <time>2020-11-16T11:53:41Z</time>
      </trkpt>
      <trkpt lat="28.7369950" lon="-17.8253330">
        <ele>1933.5</ele>
        <time>2020-11-16T11:53:42Z</time>
      </trkpt>
      <trkpt lat="28.7369950" lon="-17.8253330">
        <ele>1933.5</ele>
        <time>2020-11-16T11:53:43Z</time>
      </trkpt>
      <trkpt lat="28.7370130" lon="-17.8253430">
        <ele>1933.8</ele>
        <time>2020-11-16T11:53:44Z</time>
      </trkpt>
      <trkpt lat="28.7370200" lon="-17.8253520">
        <ele>1933.9</ele>
        <time>2020-11-16T11:53:45Z</time>
      </trkpt>
      <trkpt lat="28.7370330" lon="-17.8253520">
        <ele>1934.1</ele>
        <time>2020-11-16T11:53:46Z</time>
      </trkpt>
      <trkpt lat="28.7370450" lon="-17.8253550">
        <ele>1934.2</ele>
        <time>2020-11-16T11:53:47Z</time>
      </trkpt>
      <trkpt lat="28.7370450" lon="-17.8253550">
        <ele>1934.2</ele>
        <time>2020-11-16T11:53:48Z</time>
      </trkpt>
      <trkpt lat="28.7370700" lon="-17.8253720">
        <ele>1934.5</ele>
        <time>2020-11-16T11:53:49Z</time>
      </trkpt>
      <trkpt lat="28.7370880" lon="-17.8253700">
        <ele>1934.8</ele>
        <time>2020-11-16T11:53:50Z</time>
      </trkpt>
      <trkpt lat="28.7370880" lon="-17.8253700">
        <ele>1934.8</ele>
        <time>2020-11-16T11:53:51Z</time>
      </trkpt>
      <trkpt lat="28.7371130" lon="-17.8253770">
        <ele>1935.1</ele>
        <time>2020-11-16T11:53:52Z</time>
      </trkpt>
      <trkpt lat="28.7371130" lon="-17.8253770">
        <ele>1935.1</ele>
        <time>2020-11-16T11:53:53Z</time>
      </trkpt>
      <trkpt lat="28.7371500" lon="-17.8253920">
        <ele>1935.5</ele>
        <time>2020-11-16T11:53:54Z</time>
      </trkpt>
      <trkpt lat="28.7371930" lon="-17.8253880">
        <ele>1936.0</ele>
        <time>2020-11-16T11:53:55Z</time>
      </trkpt>
      <trkpt lat="28.7371930" lon="-17.8253880">
        <ele>1936.0</ele>
        <time>2020-11-16T11:53:56Z</time>
      </trkpt>
      <trkpt lat="28.7372300" lon="-17.8254050">
        <ele>1936.4</ele>
        <time>2020-11-16T11:53:57Z</time>
      </trkpt>
      <trkpt lat="28.7372300" lon="-17.8254050">
        <ele>1936.4</ele>
        <time>2020-11-16T11:53:58Z</time>
      </trkpt>
      <trkpt lat="28.7372580" lon="-17.8254280">
        <ele>1936.8</ele>
        <time>2020-11-16T11:53:59Z</time>
      </trkpt>
      <trkpt lat="28.7372580" lon="-17.8254280">
        <ele>1936.8</ele>
        <time>2020-11-16T11:54:00Z</time>
      </trkpt>
      <trkpt lat="28.7372900" lon="-17.8254450">
        <ele>1937.2</ele>
        <time>2020-11-16T11:54:01Z</time>
      </trkpt>
      <trkpt lat="28.7373030" lon="-17.8254550">
        <ele>1937.3</ele>
        <time>2020-11-16T11:54:02Z</time>
      </trkpt>
      <trkpt lat="28.7373030" lon="-17.8254550">
        <ele>1937.3</ele>
        <time>2020-11-16T11:54:03Z</time>
      </trkpt>
      <trkpt lat="28.7373350" lon="-17.8254780">
        <ele>1937.7</ele>
        <time>2020-11-16T11:54:04Z</time>
      </trkpt>
      <trkpt lat="28.7373350" lon="-17.8254780">
        <ele>1937.7</ele>
        <time>2020-11-16T11:54:05Z</time>
      </trkpt>
      <trkpt lat="28.7373580" lon="-17.8255030">
        <ele>1938.1</ele>
        <time>2020-11-16T11:54:06Z</time>
      </trkpt>
      <trkpt lat="28.7373580" lon="-17.8255030">
        <ele>1938.1</ele>
        <time>2020-11-16T11:54:07Z</time>
      </trkpt>
      <trkpt lat="28.7373930" lon="-17.8255150">
        <ele>1938.5</ele>
        <time>2020-11-16T11:54:08Z</time>
      </trkpt>
      <trkpt lat="28.7373930" lon="-17.8255150">
        <ele>1938.5</ele>
        <time>2020-11-16T11:54:09Z</time>
      </trkpt>
      <trkpt lat="28.7374230" lon="-17.8255350">
        <ele>1938.8</ele>
        <time>2020-11-16T11:54:10Z</time>
      </trkpt>
      <trkpt lat="28.7374370" lon="-17.8255450">
        <ele>1939.0</ele>
        <time>2020-11-16T11:54:11Z</time>
      </trkpt>
      <trkpt lat="28.7374370" lon="-17.8255450">
        <ele>1939.0</ele>
        <time>2020-11-16T11:54:12Z</time>
      </trkpt>
      <trkpt lat="28.7374600" lon="-17.8255680">
        <ele>1939.3</ele>
        <time>2020-11-16T11:54:13Z</time>
      </trkpt>
      <trkpt lat="28.7374600" lon="-17.8255680">
        <ele>1939.3</ele>
        <time>2020-11-16T11:54:14Z</time>
      </trkpt>
      <trkpt lat="28.7374820" lon="-17.8255980">
        <ele>1939.7</ele>
        <time>2020-11-16T11:54:15Z</time>
      </trkpt>
      <trkpt lat="28.7374900" lon="-17.8256130">
        <ele>1939.9</ele>
        <time>2020-11-16T11:54:16Z</time>
      </trkpt>
      <trkpt lat="28.7374900" lon="-17.8256130">
        <ele>1939.9</ele>
        <time>2020-11-16T11:54:17Z</time>
      </trkpt>
      <trkpt lat="28.7375050" lon="-17.8256420">
        <ele>1940.2</ele>
        <time>2020-11-16T11:54:18Z</time>
      </trkpt>
      <trkpt lat="28.7375050" lon="-17.8256420">
        <ele>1940.2</ele>
        <time>2020-11-16T11:54:19Z</time>
      </trkpt>
      <trkpt lat="28.7375220" lon="-17.8256750">
        <ele>1940.6</ele>
        <time>2020-11-16T11:54:20Z</time>
      </trkpt>
      <trkpt lat="28.7375220" lon="-17.8256750">
        <ele>1940.6</ele>
        <time>2020-11-16T11:54:21Z</time>
      </trkpt>
      <trkpt lat="28.7375380" lon="-17.8257050">
        <ele>1940.9</ele>
        <time>2020-11-16T11:54:22Z</time>
      </trkpt>
      <trkpt lat="28.7375380" lon="-17.8257050">
        <ele>1940.9</ele>
        <time>2020-11-16T11:54:23Z</time>
      </trkpt>
      <trkpt lat="28.7375520" lon="-17.8257330">
        <ele>1941.2</ele>
        <time>2020-11-16T11:54:24Z</time>
      </trkpt>
      <trkpt lat="28.7375620" lon="-17.8257480">
        <ele>1941.4</ele>
        <time>2020-11-16T11:54:25Z</time>
      </trkpt>
      <trkpt lat="28.7375750" lon="-17.8257670">
        <ele>1941.6</ele>
        <time>2020-11-16T11:54:26Z</time>
      </trkpt>
      <trkpt lat="28.7375750" lon="-17.8257670">
        <ele>1941.6</ele>
        <time>2020-11-16T11:54:27Z</time>
      </trkpt>
      <trkpt lat="28.7375930" lon="-17.8258000">
        <ele>1942.0</ele>
        <time>2020-11-16T11:54:28Z</time>
      </trkpt>
      <trkpt lat="28.7375930" lon="-17.8258000">
        <ele>1942.0</ele>
        <time>2020-11-16T11:54:29Z</time>
      </trkpt>
      <trkpt lat="28.7376050" lon="-17.8258400">
        <ele>1942.4</ele>
        <time>2020-11-16T11:54:30Z</time>
      </trkpt>
      <trkpt lat="28.7376000" lon="-17.8258600">
        <ele>1942.6</ele>
        <time>2020-11-16T11:54:31Z</time>
      </trkpt>
      <trkpt lat="28.7376000" lon="-17.8258600">
        <ele>1942.6</ele>
        <time>2020-11-16T11:54:32Z</time>
      </trkpt>
      <trkpt lat="28.7375980" lon="-17.8259030">
        <ele>1942.9</ele>
        <time>2020-11-16T11:54:33Z</time>
      </trkpt>
      <trkpt lat="28.7376000" lon="-17.8259250">
        <ele>1943.1</ele>
        <time>2020-11-16T11:54:34Z</time>
      </trkpt>
      <trkpt lat="28.7376000" lon="-17.8259250">
        <ele>1943.1</ele>
        <time>2020-11-16T11:54:35Z</time>
      </trkpt>
      <trkpt lat="28.7375930" lon="-17.8259620">
        <ele>1943.5</ele>
        <time>2020-11-16T11:54:36Z</time>
      </trkpt>
      <trkpt lat="28.7375930" lon="-17.8259620">
        <ele>1943.5</ele>
        <time>2020-11-16T11:54:37Z</time>
      </trkpt>
      <trkpt lat="28.7375900" lon="-17.8260070">
        <ele>1943.9</ele>
        <time>2020-11-16T11:54:38Z</time>
      </trkpt>
      <trkpt lat="28.7375900" lon="-17.8260070">
        <ele>1943.9</ele>
        <time>2020-11-16T11:54:39Z</time>
      </trkpt>
      <trkpt lat="28.7376000" lon="-17.8260550">
        <ele>1944.3</ele>
        <time>2020-11-16T11:54:40Z</time>
      </trkpt>
      <trkpt lat="28.7376000" lon="-17.8260550">
        <ele>1944.3</ele>
        <time>2020-11-16T11:54:41Z</time>
      </trkpt>
      <trkpt lat="28.7376030" lon="-17.8260970">
        <ele>1944.7</ele>
        <time>2020-11-16T11:54:42Z</time>
      </trkpt>
      <trkpt lat="28.7376030" lon="-17.8260970">
        <ele>1944.7</ele>
        <time>2020-11-16T11:54:43Z</time>
      </trkpt>
      <trkpt lat="28.7376070" lon="-17.8261380">
        <ele>1945.1</ele>
        <time>2020-11-16T11:54:44Z</time>
      </trkpt>
      <trkpt lat="28.7376070" lon="-17.8261380">
        <ele>1945.1</ele>
        <time>2020-11-16T11:54:45Z</time>
      </trkpt>
      <trkpt lat="28.7376100" lon="-17.8261780">
        <ele>1945.5</ele>
        <time>2020-11-16T11:54:46Z</time>
      </trkpt>
      <trkpt lat="28.7376100" lon="-17.8261780">
        <ele>1945.5</ele>
        <time>2020-11-16T11:54:47Z</time>
      </trkpt>
      <trkpt lat="28.7376070" lon="-17.8262170">
        <ele>1945.8</ele>
        <time>2020-11-16T11:54:48Z</time>
      </trkpt>
      <trkpt lat="28.7376070" lon="-17.8262170">
        <ele>1945.8</ele>
        <time>2020-11-16T11:54:49Z</time>
      </trkpt>
      <trkpt lat="28.7376120" lon="-17.8262580">
        <ele>1946.2</ele>
        <time>2020-11-16T11:54:50Z</time>
      </trkpt>
      <trkpt lat="28.7376130" lon="-17.8262780">
        <ele>1946.4</ele>
        <time>2020-11-16T11:54:51Z</time>
      </trkpt>
      <trkpt lat="28.7376130" lon="-17.8262780">
        <ele>1946.4</ele>
        <time>2020-11-16T11:54:52Z</time>
      </trkpt>
      <trkpt lat="28.7376080" lon="-17.8263270">
        <ele>1946.8</ele>
        <time>2020-11-16T11:54:53Z</time>
      </trkpt>
      <trkpt lat="28.7376080" lon="-17.8263270">
        <ele>1946.8</ele>
        <time>2020-11-16T11:54:54Z</time>
      </trkpt>
      <trkpt lat="28.7376030" lon="-17.8263720">
        <ele>1947.3</ele>
        <time>2020-11-16T11:54:55Z</time>
      </trkpt>
      <trkpt lat="28.7375980" lon="-17.8263930">
        <ele>1947.5</ele>
        <time>2020-11-16T11:54:56Z</time>
      </trkpt>
      <trkpt lat="28.7375980" lon="-17.8263930">
        <ele>1947.5</ele>
        <time>2020-11-16T11:54:57Z</time>
      </trkpt>
      <trkpt lat="28.7375980" lon="-17.8264420">
        <ele>1947.9</ele>
        <time>2020-11-16T11:54:58Z</time>
      </trkpt>
      <trkpt lat="28.7375980" lon="-17.8264420">
        <ele>1947.9</ele>
        <time>2020-11-16T11:54:59Z</time>
      </trkpt>
      <trkpt lat="28.7376000" lon="-17.8264800">
        <ele>1948.2</ele>
        <time>2020-11-16T11:55:00Z</time>
      </trkpt>
      <trkpt lat="28.7376000" lon="-17.8264800">
        <ele>1948.2</ele>
        <time>2020-11-16T11:55:01Z</time>
      </trkpt>
      <trkpt lat="28.7375930" lon="-17.8265250">
        <ele>1948.6</ele>
        <time>2020-11-16T11:55:02Z</time>
      </trkpt>
      <trkpt lat="28.7375870" lon="-17.8265450">
        <ele>1948.8</ele>
        <time>2020-11-16T11:55:03Z</time>
      </trkpt>
      <trkpt lat="28.7375870" lon="-17.8265450">
        <ele>1948.8</ele>
        <time>2020-11-16T11:55:04Z</time>
      </trkpt>
      <trkpt lat="28.7375780" lon="-17.8265900">
        <ele>1949.1</ele>
        <time>2020-11-16T11:55:05Z</time>
      </trkpt>
      <trkpt lat="28.7375780" lon="-17.8265900">
        <ele>1949.1</ele>
        <time>2020-11-16T11:55:06Z</time>
      </trkpt>
      <trkpt lat="28.7375820" lon="-17.8266280">
        <ele>1949.4</ele>
        <time>2020-11-16T11:55:07Z</time>
      </trkpt>
      <trkpt lat="28.7375820" lon="-17.8266280">
        <ele>1949.4</ele>
        <time>2020-11-16T11:55:08Z</time>
      </trkpt>
      <trkpt lat="28.7375830" lon="-17.8266680">
        <ele>1949.7</ele>
        <time>2020-11-16T11:55:09Z</time>
      </trkpt>
      <trkpt lat="28.7375830" lon="-17.8266680">
        <ele>1949.7</ele>
        <time>2020-11-16T11:55:10Z</time>
      </trkpt>
      <trkpt lat="28.7376000" lon="-17.8267080">
        <ele>1950.1</ele>
        <time>2020-11-16T11:55:11Z</time>
      </trkpt>
      <trkpt lat="28.7376000" lon="-17.8267080">
        <ele>1950.1</ele>
        <time>2020-11-16T11:55:12Z</time>
      </trkpt>
      <trkpt lat="28.7376220" lon="-17.8267420">
        <ele>1950.4</ele>
        <time>2020-11-16T11:55:13Z</time>
      </trkpt>
      <trkpt lat="28.7376330" lon="-17.8267570">
        <ele>1950.6</ele>
        <time>2020-11-16T11:55:14Z</time>
      </trkpt>
      <trkpt lat="28.7376330" lon="-17.8267570">
        <ele>1950.6</ele>
        <time>2020-11-16T11:55:15Z</time>
      </trkpt>
      <trkpt lat="28.7376650" lon="-17.8267780">
        <ele>1950.9</ele>
        <time>2020-11-16T11:55:16Z</time>
      </trkpt>
      <trkpt lat="28.7376830" lon="-17.8267870">
        <ele>1951.1</ele>
        <time>2020-11-16T11:55:17Z</time>
      </trkpt>
      <trkpt lat="28.7376830" lon="-17.8267870">
        <ele>1951.1</ele>
        <time>2020-11-16T11:55:18Z</time>
      </trkpt>
      <trkpt lat="28.7377180" lon="-17.8267970">
        <ele>1951.5</ele>
        <time>2020-11-16T11:55:19Z</time>
      </trkpt>
      <trkpt lat="28.7377180" lon="-17.8267970">
        <ele>1951.5</ele>
        <time>2020-11-16T11:55:20Z</time>
      </trkpt>
      <trkpt lat="28.7377570" lon="-17.8268000">
        <ele>1952.0</ele>
        <time>2020-11-16T11:55:21Z</time>
      </trkpt>
      <trkpt lat="28.7377730" lon="-17.8268050">
        <ele>1952.2</ele>
        <time>2020-11-16T11:55:22Z</time>
      </trkpt>
      <trkpt lat="28.7377730" lon="-17.8268050">
        <ele>1952.2</ele>
        <time>2020-11-16T11:55:23Z</time>
      </trkpt>
      <trkpt lat="28.7378000" lon="-17.8268200">
        <ele>1952.6</ele>
        <time>2020-11-16T11:55:24Z</time>
      </trkpt>
      <trkpt lat="28.7378000" lon="-17.8268200">
        <ele>1952.6</ele>
        <time>2020-11-16T11:55:25Z</time>
      </trkpt>
      <trkpt lat="28.7378320" lon="-17.8268170">
        <ele>1953.0</ele>
        <time>2020-11-16T11:55:26Z</time>
      </trkpt>
      <trkpt lat="28.7378320" lon="-17.8268170">
        <ele>1953.0</ele>
        <time>2020-11-16T11:55:27Z</time>
      </trkpt>
      <trkpt lat="28.7378830" lon="-17.8268070">
        <ele>1953.7</ele>
        <time>2020-11-16T11:55:28Z</time>
      </trkpt>
      <trkpt lat="28.7378980" lon="-17.8267930">
        <ele>1954.0</ele>
        <time>2020-11-16T11:55:29Z</time>
      </trkpt>
      <trkpt lat="28.7378980" lon="-17.8267930">
        <ele>1954.0</ele>
        <time>2020-11-16T11:55:30Z</time>
      </trkpt>
      <trkpt lat="28.7379180" lon="-17.8268030">
        <ele>1954.3</ele>
        <time>2020-11-16T11:55:31Z</time>
      </trkpt>
      <trkpt lat="28.7379180" lon="-17.8268150">
        <ele>1954.5</ele>
        <time>2020-11-16T11:55:32Z</time>
      </trkpt>
      <trkpt lat="28.7379180" lon="-17.8268150">
        <ele>1954.5</ele>
        <time>2020-11-16T11:55:33Z</time>
      </trkpt>
      <trkpt lat="28.7379500" lon="-17.8268200">
        <ele>1955.1</ele>
        <time>2020-11-16T11:55:34Z</time>
      </trkpt>
      <trkpt lat="28.7379670" lon="-17.8268270">
        <ele>1955.2</ele>
        <time>2020-11-16T11:55:35Z</time>
      </trkpt>
      <trkpt lat="28.7379670" lon="-17.8268270">
        <ele>1955.2</ele>
        <time>2020-11-16T11:55:36Z</time>
      </trkpt>
      <trkpt lat="28.7379980" lon="-17.8268330">
        <ele>1955.5</ele>
        <time>2020-11-16T11:55:37Z</time>
      </trkpt>
      <trkpt lat="28.7380170" lon="-17.8268370">
        <ele>1955.6</ele>
        <time>2020-11-16T11:55:38Z</time>
      </trkpt>
      <trkpt lat="28.7380170" lon="-17.8268370">
        <ele>1955.6</ele>
        <time>2020-11-16T11:55:39Z</time>
      </trkpt>
      <trkpt lat="28.7380450" lon="-17.8268470">
        <ele>1955.9</ele>
        <time>2020-11-16T11:55:40Z</time>
      </trkpt>
      <trkpt lat="28.7380450" lon="-17.8268470">
        <ele>1955.9</ele>
        <time>2020-11-16T11:55:41Z</time>
      </trkpt>
      <trkpt lat="28.7380850" lon="-17.8268480">
        <ele>1956.2</ele>
        <time>2020-11-16T11:55:42Z</time>
      </trkpt>
      <trkpt lat="28.7380850" lon="-17.8268480">
        <ele>1956.2</ele>
        <time>2020-11-16T11:55:43Z</time>
      </trkpt>
      <trkpt lat="28.7381230" lon="-17.8268670">
        <ele>1956.5</ele>
        <time>2020-11-16T11:55:44Z</time>
      </trkpt>
      <trkpt lat="28.7381230" lon="-17.8268670">
        <ele>1956.5</ele>
        <time>2020-11-16T11:55:45Z</time>
      </trkpt>
      <trkpt lat="28.7381620" lon="-17.8268870">
        <ele>1956.8</ele>
        <time>2020-11-16T11:55:46Z</time>
      </trkpt>
      <trkpt lat="28.7381620" lon="-17.8268870">
        <ele>1956.8</ele>
        <time>2020-11-16T11:55:47Z</time>
      </trkpt>
      <trkpt lat="28.7381970" lon="-17.8268980">
        <ele>1957.1</ele>
        <time>2020-11-16T11:55:48Z</time>
      </trkpt>
      <trkpt lat="28.7381970" lon="-17.8268980">
        <ele>1957.1</ele>
        <time>2020-11-16T11:55:49Z</time>
      </trkpt>
      <trkpt lat="28.7382330" lon="-17.8269180">
        <ele>1957.4</ele>
        <time>2020-11-16T11:55:50Z</time>
      </trkpt>
      <trkpt lat="28.7382530" lon="-17.8269270">
        <ele>1957.6</ele>
        <time>2020-11-16T11:55:51Z</time>
      </trkpt>
      <trkpt lat="28.7382530" lon="-17.8269270">
        <ele>1957.6</ele>
        <time>2020-11-16T11:55:52Z</time>
      </trkpt>
      <trkpt lat="28.7382900" lon="-17.8269450">
        <ele>1957.9</ele>
        <time>2020-11-16T11:55:53Z</time>
      </trkpt>
      <trkpt lat="28.7383030" lon="-17.8269600">
        <ele>1958.0</ele>
        <time>2020-11-16T11:55:54Z</time>
      </trkpt>
      <trkpt lat="28.7383180" lon="-17.8269720">
        <ele>1958.2</ele>
        <time>2020-11-16T11:55:55Z</time>
      </trkpt>
      <trkpt lat="28.7383180" lon="-17.8269720">
        <ele>1958.2</ele>
        <time>2020-11-16T11:55:56Z</time>
      </trkpt>
      <trkpt lat="28.7383420" lon="-17.8270020">
        <ele>1958.4</ele>
        <time>2020-11-16T11:55:57Z</time>
      </trkpt>
      <trkpt lat="28.7383420" lon="-17.8270280">
        <ele>1958.6</ele>
        <time>2020-11-16T11:55:58Z</time>
      </trkpt>
      <trkpt lat="28.7383420" lon="-17.8270280">
        <ele>1958.6</ele>
        <time>2020-11-16T11:55:59Z</time>
      </trkpt>
      <trkpt lat="28.7383620" lon="-17.8270400">
        <ele>1958.8</ele>
        <time>2020-11-16T11:56:00Z</time>
      </trkpt>
      <trkpt lat="28.7383800" lon="-17.8270420">
        <ele>1958.9</ele>
        <time>2020-11-16T11:56:01Z</time>
      </trkpt>
      <trkpt lat="28.7383800" lon="-17.8270420">
        <ele>1958.9</ele>
        <time>2020-11-16T11:56:02Z</time>
      </trkpt>
      <trkpt lat="28.7384220" lon="-17.8270430">
        <ele>1959.2</ele>
        <time>2020-11-16T11:56:03Z</time>
      </trkpt>
      <trkpt lat="28.7384220" lon="-17.8270430">
        <ele>1959.2</ele>
        <time>2020-11-16T11:56:04Z</time>
      </trkpt>
      <trkpt lat="28.7384550" lon="-17.8270620">
        <ele>1959.5</ele>
        <time>2020-11-16T11:56:05Z</time>
      </trkpt>
      <trkpt lat="28.7384700" lon="-17.8270730">
        <ele>1959.7</ele>
        <time>2020-11-16T11:56:06Z</time>
      </trkpt>
      <trkpt lat="28.7384700" lon="-17.8270730">
        <ele>1959.7</ele>
        <time>2020-11-16T11:56:07Z</time>
      </trkpt>
      <trkpt lat="28.7385030" lon="-17.8271020">
        <ele>1960.0</ele>
        <time>2020-11-16T11:56:08Z</time>
      </trkpt>
      <trkpt lat="28.7385030" lon="-17.8271020">
        <ele>1960.0</ele>
        <time>2020-11-16T11:56:09Z</time>
      </trkpt>
      <trkpt lat="28.7385330" lon="-17.8271220">
        <ele>1960.3</ele>
        <time>2020-11-16T11:56:10Z</time>
      </trkpt>
      <trkpt lat="28.7385330" lon="-17.8271220">
        <ele>1960.3</ele>
        <time>2020-11-16T11:56:11Z</time>
      </trkpt>
      <trkpt lat="28.7385620" lon="-17.8271450">
        <ele>1960.5</ele>
        <time>2020-11-16T11:56:12Z</time>
      </trkpt>
      <trkpt lat="28.7385620" lon="-17.8271450">
        <ele>1960.5</ele>
        <time>2020-11-16T11:56:13Z</time>
      </trkpt>
      <trkpt lat="28.7385700" lon="-17.8271880">
        <ele>1960.8</ele>
        <time>2020-11-16T11:56:14Z</time>
      </trkpt>
      <trkpt lat="28.7385700" lon="-17.8271880">
        <ele>1960.8</ele>
        <time>2020-11-16T11:56:15Z</time>
      </trkpt>
      <trkpt lat="28.7385950" lon="-17.8272220">
        <ele>1961.1</ele>
        <time>2020-11-16T11:56:16Z</time>
      </trkpt>
      <trkpt lat="28.7385950" lon="-17.8272220">
        <ele>1961.1</ele>
        <time>2020-11-16T11:56:17Z</time>
      </trkpt>
      <trkpt lat="28.7386250" lon="-17.8272480">
        <ele>1961.4</ele>
        <time>2020-11-16T11:56:18Z</time>
      </trkpt>
      <trkpt lat="28.7386250" lon="-17.8272480">
        <ele>1961.4</ele>
        <time>2020-11-16T11:56:19Z</time>
      </trkpt>
      <trkpt lat="28.7386530" lon="-17.8272750">
        <ele>1961.7</ele>
        <time>2020-11-16T11:56:20Z</time>
      </trkpt>
      <trkpt lat="28.7386530" lon="-17.8272750">
        <ele>1961.7</ele>
        <time>2020-11-16T11:56:21Z</time>
      </trkpt>
      <trkpt lat="28.7386820" lon="-17.8272880">
        <ele>1961.9</ele>
        <time>2020-11-16T11:56:22Z</time>
      </trkpt>
      <trkpt lat="28.7386820" lon="-17.8272880">
        <ele>1961.9</ele>
        <time>2020-11-16T11:56:23Z</time>
      </trkpt>
      <trkpt lat="28.7387130" lon="-17.8272880">
        <ele>1962.2</ele>
        <time>2020-11-16T11:56:24Z</time>
      </trkpt>
      <trkpt lat="28.7387130" lon="-17.8272880">
        <ele>1962.2</ele>
        <time>2020-11-16T11:56:25Z</time>
      </trkpt>
      <trkpt lat="28.7387520" lon="-17.8273000">
        <ele>1962.5</ele>
        <time>2020-11-16T11:56:26Z</time>
      </trkpt>
      <trkpt lat="28.7387520" lon="-17.8273000">
        <ele>1962.5</ele>
        <time>2020-11-16T11:56:27Z</time>
      </trkpt>
      <trkpt lat="28.7387950" lon="-17.8272980">
        <ele>1962.8</ele>
        <time>2020-11-16T11:56:28Z</time>
      </trkpt>
      <trkpt lat="28.7387950" lon="-17.8272980">
        <ele>1962.8</ele>
        <time>2020-11-16T11:56:29Z</time>
      </trkpt>
      <trkpt lat="28.7388330" lon="-17.8272980">
        <ele>1963.1</ele>
        <time>2020-11-16T11:56:30Z</time>
      </trkpt>
      <trkpt lat="28.7388330" lon="-17.8272980">
        <ele>1963.1</ele>
        <time>2020-11-16T11:56:31Z</time>
      </trkpt>
      <trkpt lat="28.7388680" lon="-17.8273070">
        <ele>1963.4</ele>
        <time>2020-11-16T11:56:32Z</time>
      </trkpt>
      <trkpt lat="28.7388680" lon="-17.8273070">
        <ele>1963.4</ele>
        <time>2020-11-16T11:56:33Z</time>
      </trkpt>
      <trkpt lat="28.7389070" lon="-17.8273130">
        <ele>1963.7</ele>
        <time>2020-11-16T11:56:34Z</time>
      </trkpt>
      <trkpt lat="28.7389070" lon="-17.8273130">
        <ele>1963.7</ele>
        <time>2020-11-16T11:56:35Z</time>
      </trkpt>
      <trkpt lat="28.7389500" lon="-17.8273170">
        <ele>1964.0</ele>
        <time>2020-11-16T11:56:36Z</time>
      </trkpt>
      <trkpt lat="28.7389750" lon="-17.8273150">
        <ele>1964.2</ele>
        <time>2020-11-16T11:56:37Z</time>
      </trkpt>
      <trkpt lat="28.7389750" lon="-17.8273150">
        <ele>1964.2</ele>
        <time>2020-11-16T11:56:38Z</time>
      </trkpt>
      <trkpt lat="28.7390220" lon="-17.8273230">
        <ele>1964.6</ele>
        <time>2020-11-16T11:56:39Z</time>
      </trkpt>
      <trkpt lat="28.7390220" lon="-17.8273230">
        <ele>1964.6</ele>
        <time>2020-11-16T11:56:40Z</time>
      </trkpt>
      <trkpt lat="28.7390580" lon="-17.8273280">
        <ele>1964.9</ele>
        <time>2020-11-16T11:56:41Z</time>
      </trkpt>
      <trkpt lat="28.7390720" lon="-17.8273320">
        <ele>1965.0</ele>
        <time>2020-11-16T11:56:42Z</time>
      </trkpt>
      <trkpt lat="28.7390720" lon="-17.8273320">
        <ele>1965.0</ele>
        <time>2020-11-16T11:56:43Z</time>
      </trkpt>
      <trkpt lat="28.7390930" lon="-17.8273380">
        <ele>1965.1</ele>
        <time>2020-11-16T11:56:44Z</time>
      </trkpt>
      <trkpt lat="28.7390930" lon="-17.8273380">
        <ele>1965.1</ele>
        <time>2020-11-16T11:56:45Z</time>
      </trkpt>
      <trkpt lat="28.7391230" lon="-17.8273470">
        <ele>1965.4</ele>
        <time>2020-11-16T11:56:46Z</time>
      </trkpt>
      <trkpt lat="28.7391230" lon="-17.8273470">
        <ele>1965.4</ele>
        <time>2020-11-16T11:56:47Z</time>
      </trkpt>
      <trkpt lat="28.7391550" lon="-17.8273450">
        <ele>1965.6</ele>
        <time>2020-11-16T11:56:48Z</time>
      </trkpt>
      <trkpt lat="28.7391650" lon="-17.8273380">
        <ele>1965.7</ele>
        <time>2020-11-16T11:56:49Z</time>
      </trkpt>
      <trkpt lat="28.7391850" lon="-17.8273370">
        <ele>1965.9</ele>
        <time>2020-11-16T11:56:50Z</time>
      </trkpt>
      <trkpt lat="28.7391850" lon="-17.8273370">
        <ele>1965.9</ele>
        <time>2020-11-16T11:56:51Z</time>
      </trkpt>
      <trkpt lat="28.7392280" lon="-17.8273450">
        <ele>1966.2</ele>
        <time>2020-11-16T11:56:52Z</time>
      </trkpt>
      <trkpt lat="28.7392500" lon="-17.8273480">
        <ele>1966.4</ele>
        <time>2020-11-16T11:56:53Z</time>
      </trkpt>
      <trkpt lat="28.7392500" lon="-17.8273480">
        <ele>1966.4</ele>
        <time>2020-11-16T11:56:54Z</time>
      </trkpt>
      <trkpt lat="28.7392880" lon="-17.8273480">
        <ele>1966.7</ele>
        <time>2020-11-16T11:56:55Z</time>
      </trkpt>
      <trkpt lat="28.7392880" lon="-17.8273480">
        <ele>1966.7</ele>
        <time>2020-11-16T11:56:56Z</time>
      </trkpt>
      <trkpt lat="28.7393280" lon="-17.8273580">
        <ele>1967.0</ele>
        <time>2020-11-16T11:56:57Z</time>
      </trkpt>
      <trkpt lat="28.7393280" lon="-17.8273580">
        <ele>1967.0</ele>
        <time>2020-11-16T11:56:58Z</time>
      </trkpt>
      <trkpt lat="28.7393680" lon="-17.8273670">
        <ele>1967.3</ele>
        <time>2020-11-16T11:56:59Z</time>
      </trkpt>
      <trkpt lat="28.7393880" lon="-17.8273700">
        <ele>1967.4</ele>
        <time>2020-11-16T11:57:00Z</time>
      </trkpt>
      <trkpt lat="28.7394080" lon="-17.8273780">
        <ele>1967.6</ele>
        <time>2020-11-16T11:57:01Z</time>
      </trkpt>
      <trkpt lat="28.7394080" lon="-17.8273780">
        <ele>1967.6</ele>
        <time>2020-11-16T11:57:02Z</time>
      </trkpt>
      <trkpt lat="28.7394520" lon="-17.8273870">
        <ele>1967.9</ele>
        <time>2020-11-16T11:57:03Z</time>
      </trkpt>
      <trkpt lat="28.7394750" lon="-17.8273850">
        <ele>1968.1</ele>
        <time>2020-11-16T11:57:04Z</time>
      </trkpt>
      <trkpt lat="28.7394750" lon="-17.8273850">
        <ele>1968.1</ele>
        <time>2020-11-16T11:57:05Z</time>
      </trkpt>
      <trkpt lat="28.7395100" lon="-17.8273750">
        <ele>1968.4</ele>
        <time>2020-11-16T11:57:06Z</time>
      </trkpt>
      <trkpt lat="28.7395100" lon="-17.8273750">
        <ele>1968.4</ele>
        <time>2020-11-16T11:57:07Z</time>
      </trkpt>
      <trkpt lat="28.7395470" lon="-17.8273720">
        <ele>1968.7</ele>
        <time>2020-11-16T11:57:08Z</time>
      </trkpt>
      <trkpt lat="28.7395470" lon="-17.8273720">
        <ele>1968.7</ele>
        <time>2020-11-16T11:57:09Z</time>
      </trkpt>
      <trkpt lat="28.7395800" lon="-17.8273700">
        <ele>1968.9</ele>
        <time>2020-11-16T11:57:10Z</time>
      </trkpt>
      <trkpt lat="28.7395800" lon="-17.8273700">
        <ele>1968.9</ele>
        <time>2020-11-16T11:57:11Z</time>
      </trkpt>
      <trkpt lat="28.7396150" lon="-17.8273750">
        <ele>1969.2</ele>
        <time>2020-11-16T11:57:12Z</time>
      </trkpt>
      <trkpt lat="28.7396150" lon="-17.8273750">
        <ele>1969.2</ele>
        <time>2020-11-16T11:57:13Z</time>
      </trkpt>
      <trkpt lat="28.7396450" lon="-17.8273780">
        <ele>1969.4</ele>
        <time>2020-11-16T11:57:14Z</time>
      </trkpt>
      <trkpt lat="28.7396450" lon="-17.8273780">
        <ele>1969.4</ele>
        <time>2020-11-16T11:57:15Z</time>
      </trkpt>
      <trkpt lat="28.7396750" lon="-17.8273750">
        <ele>1969.7</ele>
        <time>2020-11-16T11:57:16Z</time>
      </trkpt>
      <trkpt lat="28.7396750" lon="-17.8273750">
        <ele>1969.7</ele>
        <time>2020-11-16T11:57:17Z</time>
      </trkpt>
      <trkpt lat="28.7397050" lon="-17.8273730">
        <ele>1969.9</ele>
        <time>2020-11-16T11:57:18Z</time>
      </trkpt>
      <trkpt lat="28.7397050" lon="-17.8273730">
        <ele>1969.9</ele>
        <time>2020-11-16T11:57:19Z</time>
      </trkpt>
      <trkpt lat="28.7397380" lon="-17.8273770">
        <ele>1970.2</ele>
        <time>2020-11-16T11:57:20Z</time>
      </trkpt>
      <trkpt lat="28.7397380" lon="-17.8273770">
        <ele>1970.2</ele>
        <time>2020-11-16T11:57:21Z</time>
      </trkpt>
      <trkpt lat="28.7397730" lon="-17.8273770">
        <ele>1970.4</ele>
        <time>2020-11-16T11:57:22Z</time>
      </trkpt>
      <trkpt lat="28.7397730" lon="-17.8273770">
        <ele>1970.4</ele>
        <time>2020-11-16T11:57:23Z</time>
      </trkpt>
      <trkpt lat="28.7398070" lon="-17.8273830">
        <ele>1970.7</ele>
        <time>2020-11-16T11:57:24Z</time>
      </trkpt>
      <trkpt lat="28.7398270" lon="-17.8273820">
        <ele>1970.9</ele>
        <time>2020-11-16T11:57:25Z</time>
      </trkpt>
      <trkpt lat="28.7398270" lon="-17.8273820">
        <ele>1970.9</ele>
        <time>2020-11-16T11:57:26Z</time>
      </trkpt>
      <trkpt lat="28.7398670" lon="-17.8273870">
        <ele>1971.2</ele>
        <time>2020-11-16T11:57:27Z</time>
      </trkpt>
      <trkpt lat="28.7398670" lon="-17.8273870">
        <ele>1971.2</ele>
        <time>2020-11-16T11:57:28Z</time>
      </trkpt>
      <trkpt lat="28.7399050" lon="-17.8273880">
        <ele>1971.5</ele>
        <time>2020-11-16T11:57:29Z</time>
      </trkpt>
      <trkpt lat="28.7399230" lon="-17.8273900">
        <ele>1971.6</ele>
        <time>2020-11-16T11:57:30Z</time>
      </trkpt>
      <trkpt lat="28.7399230" lon="-17.8273900">
        <ele>1971.6</ele>
        <time>2020-11-16T11:57:31Z</time>
      </trkpt>
      <trkpt lat="28.7399650" lon="-17.8273920">
        <ele>1971.9</ele>
        <time>2020-11-16T11:57:32Z</time>
      </trkpt>
      <trkpt lat="28.7399650" lon="-17.8273920">
        <ele>1971.9</ele>
        <time>2020-11-16T11:57:33Z</time>
      </trkpt>
      <trkpt lat="28.7400100" lon="-17.8273980">
        <ele>1972.3</ele>
        <time>2020-11-16T11:57:34Z</time>
      </trkpt>
      <trkpt lat="28.7400320" lon="-17.8274020">
        <ele>1972.4</ele>
        <time>2020-11-16T11:57:35Z</time>
      </trkpt>
      <trkpt lat="28.7400320" lon="-17.8274020">
        <ele>1972.4</ele>
        <time>2020-11-16T11:57:36Z</time>
      </trkpt>
      <trkpt lat="28.7400680" lon="-17.8274170">
        <ele>1972.7</ele>
        <time>2020-11-16T11:57:37Z</time>
      </trkpt>
      <trkpt lat="28.7400680" lon="-17.8274170">
        <ele>1972.7</ele>
        <time>2020-11-16T11:57:38Z</time>
      </trkpt>
      <trkpt lat="28.7401050" lon="-17.8274320">
        <ele>1973.0</ele>
        <time>2020-11-16T11:57:39Z</time>
      </trkpt>
      <trkpt lat="28.7401230" lon="-17.8274400">
        <ele>1973.2</ele>
        <time>2020-11-16T11:57:40Z</time>
      </trkpt>
      <trkpt lat="28.7401400" lon="-17.8274500">
        <ele>1973.3</ele>
        <time>2020-11-16T11:57:41Z</time>
      </trkpt>
      <trkpt lat="28.7401400" lon="-17.8274500">
        <ele>1973.3</ele>
        <time>2020-11-16T11:57:42Z</time>
      </trkpt>
      <trkpt lat="28.7401650" lon="-17.8274820">
        <ele>1973.6</ele>
        <time>2020-11-16T11:57:43Z</time>
      </trkpt>
      <trkpt lat="28.7401650" lon="-17.8274820">
        <ele>1973.6</ele>
        <time>2020-11-16T11:57:44Z</time>
      </trkpt>
      <trkpt lat="28.7401900" lon="-17.8275150">
        <ele>1973.9</ele>
        <time>2020-11-16T11:57:45Z</time>
      </trkpt>
      <trkpt lat="28.7402050" lon="-17.8275270">
        <ele>1974.1</ele>
        <time>2020-11-16T11:57:46Z</time>
      </trkpt>
      <trkpt lat="28.7402050" lon="-17.8275270">
        <ele>1974.1</ele>
        <time>2020-11-16T11:57:47Z</time>
      </trkpt>
      <trkpt lat="28.7402270" lon="-17.8275600">
        <ele>1974.3</ele>
        <time>2020-11-16T11:57:48Z</time>
      </trkpt>
      <trkpt lat="28.7402270" lon="-17.8275600">
        <ele>1974.3</ele>
        <time>2020-11-16T11:57:49Z</time>
      </trkpt>
      <trkpt lat="28.7402370" lon="-17.8275980">
        <ele>1974.6</ele>
        <time>2020-11-16T11:57:50Z</time>
      </trkpt>
      <trkpt lat="28.7402370" lon="-17.8275980">
        <ele>1974.6</ele>
        <time>2020-11-16T11:57:51Z</time>
      </trkpt>
      <trkpt lat="28.7402380" lon="-17.8276330">
        <ele>1974.8</ele>
        <time>2020-11-16T11:57:52Z</time>
      </trkpt>
      <trkpt lat="28.7402400" lon="-17.8276520">
        <ele>1975.0</ele>
        <time>2020-11-16T11:57:53Z</time>
      </trkpt>
      <trkpt lat="28.7402420" lon="-17.8276720">
        <ele>1975.1</ele>
        <time>2020-11-16T11:57:54Z</time>
      </trkpt>
      <trkpt lat="28.7402420" lon="-17.8276720">
        <ele>1975.1</ele>
        <time>2020-11-16T11:57:55Z</time>
      </trkpt>
      <trkpt lat="28.7402480" lon="-17.8277080">
        <ele>1975.3</ele>
        <time>2020-11-16T11:57:56Z</time>
      </trkpt>
      <trkpt lat="28.7402480" lon="-17.8277080">
        <ele>1975.3</ele>
        <time>2020-11-16T11:57:57Z</time>
      </trkpt>
      <trkpt lat="28.7402470" lon="-17.8277550">
        <ele>1975.7</ele>
        <time>2020-11-16T11:57:58Z</time>
      </trkpt>
      <trkpt lat="28.7402470" lon="-17.8277550">
        <ele>1975.7</ele>
        <time>2020-11-16T11:57:59Z</time>
      </trkpt>
      <trkpt lat="28.7402480" lon="-17.8277980">
        <ele>1976.0</ele>
        <time>2020-11-16T11:58:00Z</time>
      </trkpt>
      <trkpt lat="28.7402480" lon="-17.8277980">
        <ele>1976.0</ele>
        <time>2020-11-16T11:58:01Z</time>
      </trkpt>
      <trkpt lat="28.7402530" lon="-17.8278430">
        <ele>1976.3</ele>
        <time>2020-11-16T11:58:02Z</time>
      </trkpt>
      <trkpt lat="28.7402650" lon="-17.8278680">
        <ele>1976.5</ele>
        <time>2020-11-16T11:58:03Z</time>
      </trkpt>
      <trkpt lat="28.7402650" lon="-17.8278680">
        <ele>1976.5</ele>
        <time>2020-11-16T11:58:04Z</time>
      </trkpt>
      <trkpt lat="28.7402700" lon="-17.8278970">
        <ele>1976.7</ele>
        <time>2020-11-16T11:58:05Z</time>
      </trkpt>
      <trkpt lat="28.7402720" lon="-17.8279130">
        <ele>1976.8</ele>
        <time>2020-11-16T11:58:06Z</time>
      </trkpt>
      <trkpt lat="28.7402720" lon="-17.8279130">
        <ele>1976.8</ele>
        <time>2020-11-16T11:58:07Z</time>
      </trkpt>
      <trkpt lat="28.7402680" lon="-17.8279480">
        <ele>1977.0</ele>
        <time>2020-11-16T11:58:08Z</time>
      </trkpt>
      <trkpt lat="28.7402680" lon="-17.8279480">
        <ele>1977.0</ele>
        <time>2020-11-16T11:58:09Z</time>
      </trkpt>
      <trkpt lat="28.7402680" lon="-17.8279870">
        <ele>1977.3</ele>
        <time>2020-11-16T11:58:10Z</time>
      </trkpt>
      <trkpt lat="28.7402680" lon="-17.8280100">
        <ele>1977.4</ele>
        <time>2020-11-16T11:58:11Z</time>
      </trkpt>
      <trkpt lat="28.7402680" lon="-17.8280100">
        <ele>1977.4</ele>
        <time>2020-11-16T11:58:12Z</time>
      </trkpt>
      <trkpt lat="28.7402730" lon="-17.8280520">
        <ele>1977.7</ele>
        <time>2020-11-16T11:58:13Z</time>
      </trkpt>
      <trkpt lat="28.7402750" lon="-17.8280680">
        <ele>1977.8</ele>
        <time>2020-11-16T11:58:14Z</time>
      </trkpt>
      <trkpt lat="28.7402750" lon="-17.8280680">
        <ele>1977.8</ele>
        <time>2020-11-16T11:58:15Z</time>
      </trkpt>
      <trkpt lat="28.7402800" lon="-17.8281070">
        <ele>1978.1</ele>
        <time>2020-11-16T11:58:16Z</time>
      </trkpt>
      <trkpt lat="28.7402800" lon="-17.8281070">
        <ele>1978.1</ele>
        <time>2020-11-16T11:58:17Z</time>
      </trkpt>
      <trkpt lat="28.7402850" lon="-17.8281450">
        <ele>1978.3</ele>
        <time>2020-11-16T11:58:18Z</time>
      </trkpt>
      <trkpt lat="28.7402850" lon="-17.8281450">
        <ele>1978.3</ele>
        <time>2020-11-16T11:58:19Z</time>
      </trkpt>
      <trkpt lat="28.7402930" lon="-17.8281900">
        <ele>1978.6</ele>
        <time>2020-11-16T11:58:20Z</time>
      </trkpt>
      <trkpt lat="28.7402930" lon="-17.8281900">
        <ele>1978.6</ele>
        <time>2020-11-16T11:58:21Z</time>
      </trkpt>
      <trkpt lat="28.7402970" lon="-17.8282320">
        <ele>1978.9</ele>
        <time>2020-11-16T11:58:22Z</time>
      </trkpt>
      <trkpt lat="28.7402970" lon="-17.8282320">
        <ele>1978.9</ele>
        <time>2020-11-16T11:58:23Z</time>
      </trkpt>
      <trkpt lat="28.7402970" lon="-17.8282730">
        <ele>1979.2</ele>
        <time>2020-11-16T11:58:24Z</time>
      </trkpt>
      <trkpt lat="28.7402970" lon="-17.8282930">
        <ele>1979.3</ele>
        <time>2020-11-16T11:58:25Z</time>
      </trkpt>
      <trkpt lat="28.7402970" lon="-17.8283120">
        <ele>1979.5</ele>
        <time>2020-11-16T11:58:26Z</time>
      </trkpt>
      <trkpt lat="28.7402970" lon="-17.8283120">
        <ele>1979.5</ele>
        <time>2020-11-16T11:58:27Z</time>
      </trkpt>
      <trkpt lat="28.7403000" lon="-17.8283500">
        <ele>1979.7</ele>
        <time>2020-11-16T11:58:28Z</time>
      </trkpt>
      <trkpt lat="28.7403000" lon="-17.8283500">
        <ele>1979.7</ele>
        <time>2020-11-16T11:58:29Z</time>
      </trkpt>
      <trkpt lat="28.7403070" lon="-17.8283920">
        <ele>1980.0</ele>
        <time>2020-11-16T11:58:30Z</time>
      </trkpt>
      <trkpt lat="28.7403080" lon="-17.8284100">
        <ele>1980.1</ele>
        <time>2020-11-16T11:58:31Z</time>
      </trkpt>
      <trkpt lat="28.7403080" lon="-17.8284280">
        <ele>1980.3</ele>
        <time>2020-11-16T11:58:32Z</time>
      </trkpt>
      <trkpt lat="28.7403080" lon="-17.8284280">
        <ele>1980.3</ele>
        <time>2020-11-16T11:58:33Z</time>
      </trkpt>
      <trkpt lat="28.7403250" lon="-17.8284580">
        <ele>1980.5</ele>
        <time>2020-11-16T11:58:34Z</time>
      </trkpt>
      <trkpt lat="28.7403250" lon="-17.8284580">
        <ele>1980.5</ele>
        <time>2020-11-16T11:58:35Z</time>
      </trkpt>
      <trkpt lat="28.7403350" lon="-17.8285030">
        <ele>1980.8</ele>
        <time>2020-11-16T11:58:36Z</time>
      </trkpt>
      <trkpt lat="28.7403350" lon="-17.8285030">
        <ele>1980.8</ele>
        <time>2020-11-16T11:58:37Z</time>
      </trkpt>
      <trkpt lat="28.7403380" lon="-17.8285480">
        <ele>1981.1</ele>
        <time>2020-11-16T11:58:38Z</time>
      </trkpt>
      <trkpt lat="28.7403380" lon="-17.8285480">
        <ele>1981.1</ele>
        <time>2020-11-16T11:58:39Z</time>
      </trkpt>
      <trkpt lat="28.7403430" lon="-17.8285920">
        <ele>1981.4</ele>
        <time>2020-11-16T11:58:40Z</time>
      </trkpt>
      <trkpt lat="28.7403450" lon="-17.8286130">
        <ele>1981.6</ele>
        <time>2020-11-16T11:58:41Z</time>
      </trkpt>
      <trkpt lat="28.7403450" lon="-17.8286130">
        <ele>1981.6</ele>
        <time>2020-11-16T11:58:42Z</time>
      </trkpt>
      <trkpt lat="28.7403570" lon="-17.8286520">
        <ele>1981.8</ele>
        <time>2020-11-16T11:58:43Z</time>
      </trkpt>
      <trkpt lat="28.7403620" lon="-17.8286670">
        <ele>1981.9</ele>
        <time>2020-11-16T11:58:44Z</time>
      </trkpt>
      <trkpt lat="28.7403670" lon="-17.8286870">
        <ele>1982.1</ele>
        <time>2020-11-16T11:58:45Z</time>
      </trkpt>
      <trkpt lat="28.7403670" lon="-17.8286870">
        <ele>1982.1</ele>
        <time>2020-11-16T11:58:46Z</time>
      </trkpt>
      <trkpt lat="28.7403670" lon="-17.8287350">
        <ele>1982.4</ele>
        <time>2020-11-16T11:58:47Z</time>
      </trkpt>
      <trkpt lat="28.7403670" lon="-17.8287350">
        <ele>1982.4</ele>
        <time>2020-11-16T11:58:48Z</time>
      </trkpt>
      <trkpt lat="28.7403700" lon="-17.8287820">
        <ele>1982.7</ele>
        <time>2020-11-16T11:58:49Z</time>
      </trkpt>
      <trkpt lat="28.7403670" lon="-17.8288030">
        <ele>1982.9</ele>
        <time>2020-11-16T11:58:50Z</time>
      </trkpt>
      <trkpt lat="28.7403670" lon="-17.8288030">
        <ele>1982.9</ele>
        <time>2020-11-16T11:58:51Z</time>
      </trkpt>
      <trkpt lat="28.7403630" lon="-17.8288480">
        <ele>1983.2</ele>
        <time>2020-11-16T11:58:52Z</time>
      </trkpt>
      <trkpt lat="28.7403580" lon="-17.8288680">
        <ele>1983.3</ele>
        <time>2020-11-16T11:58:53Z</time>
      </trkpt>
      <trkpt lat="28.7403550" lon="-17.8288900">
        <ele>1983.5</ele>
        <time>2020-11-16T11:58:54Z</time>
      </trkpt>
      <trkpt lat="28.7403550" lon="-17.8288900">
        <ele>1983.5</ele>
        <time>2020-11-16T11:58:55Z</time>
      </trkpt>
      <trkpt lat="28.7403430" lon="-17.8289320">
        <ele>1983.8</ele>
        <time>2020-11-16T11:58:56Z</time>
      </trkpt>
      <trkpt lat="28.7403330" lon="-17.8289530">
        <ele>1983.9</ele>
        <time>2020-11-16T11:58:57Z</time>
      </trkpt>
      <trkpt lat="28.7403330" lon="-17.8289530">
        <ele>1983.9</ele>
        <time>2020-11-16T11:58:58Z</time>
      </trkpt>
      <trkpt lat="28.7403130" lon="-17.8289920">
        <ele>1984.2</ele>
        <time>2020-11-16T11:58:59Z</time>
      </trkpt>
      <trkpt lat="28.7403130" lon="-17.8289920">
        <ele>1984.2</ele>
        <time>2020-11-16T11:59:00Z</time>
      </trkpt>
      <trkpt lat="28.7402930" lon="-17.8290330">
        <ele>1984.5</ele>
        <time>2020-11-16T11:59:01Z</time>
      </trkpt>
      <trkpt lat="28.7402930" lon="-17.8290330">
        <ele>1984.5</ele>
        <time>2020-11-16T11:59:02Z</time>
      </trkpt>
      <trkpt lat="28.7402770" lon="-17.8290720">
        <ele>1984.8</ele>
        <time>2020-11-16T11:59:03Z</time>
      </trkpt>
      <trkpt lat="28.7402770" lon="-17.8290720">
        <ele>1984.8</ele>
        <time>2020-11-16T11:59:04Z</time>
      </trkpt>
      <trkpt lat="28.7402580" lon="-17.8291050">
        <ele>1985.1</ele>
        <time>2020-11-16T11:59:05Z</time>
      </trkpt>
      <trkpt lat="28.7402580" lon="-17.8291050">
        <ele>1985.1</ele>
        <time>2020-11-16T11:59:06Z</time>
      </trkpt>
      <trkpt lat="28.7402400" lon="-17.8291500">
        <ele>1985.4</ele>
        <time>2020-11-16T11:59:07Z</time>
      </trkpt>
      <trkpt lat="28.7402330" lon="-17.8291700">
        <ele>1985.6</ele>
        <time>2020-11-16T11:59:08Z</time>
      </trkpt>
      <trkpt lat="28.7402330" lon="-17.8291700">
        <ele>1985.6</ele>
        <time>2020-11-16T11:59:09Z</time>
      </trkpt>
      <trkpt lat="28.7402170" lon="-17.8292100">
        <ele>1985.9</ele>
        <time>2020-11-16T11:59:10Z</time>
      </trkpt>
      <trkpt lat="28.7402170" lon="-17.8292100">
        <ele>1985.9</ele>
        <time>2020-11-16T11:59:11Z</time>
      </trkpt>
      <trkpt lat="28.7402070" lon="-17.8292470">
        <ele>1986.1</ele>
        <time>2020-11-16T11:59:12Z</time>
      </trkpt>
      <trkpt lat="28.7402070" lon="-17.8292470">
        <ele>1986.1</ele>
        <time>2020-11-16T11:59:13Z</time>
      </trkpt>
      <trkpt lat="28.7401900" lon="-17.8292820">
        <ele>1986.4</ele>
        <time>2020-11-16T11:59:14Z</time>
      </trkpt>
      <trkpt lat="28.7401900" lon="-17.8292820">
        <ele>1986.4</ele>
        <time>2020-11-16T11:59:15Z</time>
      </trkpt>
      <trkpt lat="28.7401650" lon="-17.8293220">
        <ele>1986.7</ele>
        <time>2020-11-16T11:59:16Z</time>
      </trkpt>
      <trkpt lat="28.7401650" lon="-17.8293220">
        <ele>1986.7</ele>
        <time>2020-11-16T11:59:17Z</time>
      </trkpt>
      <trkpt lat="28.7401420" lon="-17.8293580">
        <ele>1987.0</ele>
        <time>2020-11-16T11:59:18Z</time>
      </trkpt>
      <trkpt lat="28.7401330" lon="-17.8293780">
        <ele>1987.2</ele>
        <time>2020-11-16T11:59:19Z</time>
      </trkpt>
      <trkpt lat="28.7401330" lon="-17.8293780">
        <ele>1987.2</ele>
        <time>2020-11-16T11:59:20Z</time>
      </trkpt>
      <trkpt lat="28.7401150" lon="-17.8294180">
        <ele>1987.5</ele>
        <time>2020-11-16T11:59:21Z</time>
      </trkpt>
      <trkpt lat="28.7401050" lon="-17.8294400">
        <ele>1987.7</ele>
        <time>2020-11-16T11:59:22Z</time>
      </trkpt>
      <trkpt lat="28.7401050" lon="-17.8294400">
        <ele>1987.7</ele>
        <time>2020-11-16T11:59:23Z</time>
      </trkpt>
      <trkpt lat="28.7400900" lon="-17.8294800">
        <ele>1988.0</ele>
        <time>2020-11-16T11:59:24Z</time>
      </trkpt>
      <trkpt lat="28.7400900" lon="-17.8294800">
        <ele>1988.0</ele>
        <time>2020-11-16T11:59:25Z</time>
      </trkpt>
      <trkpt lat="28.7400650" lon="-17.8295170">
        <ele>1988.3</ele>
        <time>2020-11-16T11:59:26Z</time>
      </trkpt>
      <trkpt lat="28.7400650" lon="-17.8295170">
        <ele>1988.3</ele>
        <time>2020-11-16T11:59:27Z</time>
      </trkpt>
      <trkpt lat="28.7400470" lon="-17.8295530">
        <ele>1988.5</ele>
        <time>2020-11-16T11:59:28Z</time>
      </trkpt>
      <trkpt lat="28.7400420" lon="-17.8295750">
        <ele>1988.7</ele>
        <time>2020-11-16T11:59:29Z</time>
      </trkpt>
      <trkpt lat="28.7400420" lon="-17.8295750">
        <ele>1988.7</ele>
        <time>2020-11-16T11:59:30Z</time>
      </trkpt>
      <trkpt lat="28.7400380" lon="-17.8296100">
        <ele>1988.9</ele>
        <time>2020-11-16T11:59:31Z</time>
      </trkpt>
      <trkpt lat="28.7400380" lon="-17.8296100">
        <ele>1988.9</ele>
        <time>2020-11-16T11:59:32Z</time>
      </trkpt>
      <trkpt lat="28.7400450" lon="-17.8296380">
        <ele>1989.1</ele>
        <time>2020-11-16T11:59:33Z</time>
      </trkpt>
      <trkpt lat="28.7400450" lon="-17.8296380">
        <ele>1989.1</ele>
        <time>2020-11-16T11:59:34Z</time>
      </trkpt>
      <trkpt lat="28.7400650" lon="-17.8296750">
        <ele>1989.4</ele>
        <time>2020-11-16T11:59:35Z</time>
      </trkpt>
      <trkpt lat="28.7400650" lon="-17.8296750">
        <ele>1989.4</ele>
        <time>2020-11-16T11:59:36Z</time>
      </trkpt>
      <trkpt lat="28.7401100" lon="-17.8297130">
        <ele>1989.9</ele>
        <time>2020-11-16T11:59:37Z</time>
      </trkpt>
      <trkpt lat="28.7401300" lon="-17.8297220">
        <ele>1990.0</ele>
        <time>2020-11-16T11:59:38Z</time>
      </trkpt>
      <trkpt lat="28.7401300" lon="-17.8297220">
        <ele>1990.0</ele>
        <time>2020-11-16T11:59:39Z</time>
      </trkpt>
      <trkpt lat="28.7401730" lon="-17.8297370">
        <ele>1990.4</ele>
        <time>2020-11-16T11:59:40Z</time>
      </trkpt>
      <trkpt lat="28.7401730" lon="-17.8297370">
        <ele>1990.4</ele>
        <time>2020-11-16T11:59:41Z</time>
      </trkpt>
      <trkpt lat="28.7402120" lon="-17.8297600">
        <ele>1990.7</ele>
        <time>2020-11-16T11:59:42Z</time>
      </trkpt>
      <trkpt lat="28.7402120" lon="-17.8297600">
        <ele>1990.7</ele>
        <time>2020-11-16T11:59:43Z</time>
      </trkpt>
      <trkpt lat="28.7402470" lon="-17.8297830">
        <ele>1991.0</ele>
        <time>2020-11-16T11:59:44Z</time>
      </trkpt>
      <trkpt lat="28.7402470" lon="-17.8297830">
        <ele>1991.0</ele>
        <time>2020-11-16T11:59:45Z</time>
      </trkpt>
      <trkpt lat="28.7402800" lon="-17.8298050">
        <ele>1991.3</ele>
        <time>2020-11-16T11:59:46Z</time>
      </trkpt>
      <trkpt lat="28.7402800" lon="-17.8298050">
        <ele>1991.3</ele>
        <time>2020-11-16T11:59:47Z</time>
      </trkpt>
      <trkpt lat="28.7403150" lon="-17.8298270">
        <ele>1991.6</ele>
        <time>2020-11-16T11:59:48Z</time>
      </trkpt>
      <trkpt lat="28.7403150" lon="-17.8298270">
        <ele>1991.6</ele>
        <time>2020-11-16T11:59:49Z</time>
      </trkpt>
      <trkpt lat="28.7403470" lon="-17.8298520">
        <ele>1991.9</ele>
        <time>2020-11-16T11:59:50Z</time>
      </trkpt>
      <trkpt lat="28.7403630" lon="-17.8298620">
        <ele>1992.1</ele>
        <time>2020-11-16T11:59:51Z</time>
      </trkpt>
      <trkpt lat="28.7403630" lon="-17.8298620">
        <ele>1992.1</ele>
        <time>2020-11-16T11:59:52Z</time>
      </trkpt>
      <trkpt lat="28.7403980" lon="-17.8298820">
        <ele>1992.4</ele>
        <time>2020-11-16T11:59:53Z</time>
      </trkpt>
      <trkpt lat="28.7403980" lon="-17.8298820">
        <ele>1992.4</ele>
        <time>2020-11-16T11:59:54Z</time>
      </trkpt>
      <trkpt lat="28.7404320" lon="-17.8298920">
        <ele>1992.6</ele>
        <time>2020-11-16T11:59:55Z</time>
      </trkpt>
      <trkpt lat="28.7404320" lon="-17.8298920">
        <ele>1992.6</ele>
        <time>2020-11-16T11:59:56Z</time>
      </trkpt>
      <trkpt lat="28.7404730" lon="-17.8299050">
        <ele>1993.0</ele>
        <time>2020-11-16T11:59:57Z</time>
      </trkpt>
      <trkpt lat="28.7404970" lon="-17.8299120">
        <ele>1993.1</ele>
        <time>2020-11-16T11:59:58Z</time>
      </trkpt>
      <trkpt lat="28.7404970" lon="-17.8299120">
        <ele>1993.1</ele>
        <time>2020-11-16T11:59:59Z</time>
      </trkpt>
      <trkpt lat="28.7405370" lon="-17.8299280">
        <ele>1993.5</ele>
        <time>2020-11-16T12:00:00Z</time>
      </trkpt>
      <trkpt lat="28.7405570" lon="-17.8299350">
        <ele>1993.6</ele>
        <time>2020-11-16T12:00:01Z</time>
      </trkpt>
      <trkpt lat="28.7405570" lon="-17.8299350">
        <ele>1993.6</ele>
        <time>2020-11-16T12:00:02Z</time>
      </trkpt>
      <trkpt lat="28.7405970" lon="-17.8299400">
        <ele>1993.9</ele>
        <time>2020-11-16T12:00:03Z</time>
      </trkpt>
      <trkpt lat="28.7405970" lon="-17.8299400">
        <ele>1993.9</ele>
        <time>2020-11-16T12:00:04Z</time>
      </trkpt>
      <trkpt lat="28.7406300" lon="-17.8299320">
        <ele>1994.2</ele>
        <time>2020-11-16T12:00:05Z</time>
      </trkpt>
      <trkpt lat="28.7406300" lon="-17.8299320">
        <ele>1994.2</ele>
        <time>2020-11-16T12:00:06Z</time>
      </trkpt>
      <trkpt lat="28.7406600" lon="-17.8299180">
        <ele>1994.4</ele>
        <time>2020-11-16T12:00:07Z</time>
      </trkpt>
      <trkpt lat="28.7406600" lon="-17.8299180">
        <ele>1994.4</ele>
        <time>2020-11-16T12:00:08Z</time>
      </trkpt>
      <trkpt lat="28.7406820" lon="-17.8299270">
        <ele>1994.6</ele>
        <time>2020-11-16T12:00:09Z</time>
      </trkpt>
      <trkpt lat="28.7406820" lon="-17.8299270">
        <ele>1994.6</ele>
        <time>2020-11-16T12:00:10Z</time>
      </trkpt>
      <trkpt lat="28.7407100" lon="-17.8299200">
        <ele>1994.8</ele>
        <time>2020-11-16T12:00:11Z</time>
      </trkpt>
      <trkpt lat="28.7407220" lon="-17.8299150">
        <ele>1994.9</ele>
        <time>2020-11-16T12:00:12Z</time>
      </trkpt>
      <trkpt lat="28.7407220" lon="-17.8299150">
        <ele>1994.9</ele>
        <time>2020-11-16T12:00:13Z</time>
      </trkpt>
      <trkpt lat="28.7407380" lon="-17.8299070">
        <ele>1995.1</ele>
        <time>2020-11-16T12:00:14Z</time>
      </trkpt>
      <trkpt lat="28.7407380" lon="-17.8299070">
        <ele>1995.1</ele>
        <time>2020-11-16T12:00:15Z</time>
      </trkpt>
      <trkpt lat="28.7407630" lon="-17.8299030">
        <ele>1995.3</ele>
        <time>2020-11-16T12:00:16Z</time>
      </trkpt>
      <trkpt lat="28.7407750" lon="-17.8299020">
        <ele>1995.4</ele>
        <time>2020-11-16T12:00:17Z</time>
      </trkpt>
      <trkpt lat="28.7407750" lon="-17.8299020">
        <ele>1995.4</ele>
        <time>2020-11-16T12:00:18Z</time>
      </trkpt>
      <trkpt lat="28.7408070" lon="-17.8298820">
        <ele>1995.6</ele>
        <time>2020-11-16T12:00:19Z</time>
      </trkpt>
      <trkpt lat="28.7408220" lon="-17.8298720">
        <ele>1995.8</ele>
        <time>2020-11-16T12:00:20Z</time>
      </trkpt>
      <trkpt lat="28.7408220" lon="-17.8298720">
        <ele>1995.8</ele>
        <time>2020-11-16T12:00:21Z</time>
      </trkpt>
      <trkpt lat="28.7408380" lon="-17.8298580">
        <ele>1995.9</ele>
        <time>2020-11-16T12:00:22Z</time>
      </trkpt>
      <trkpt lat="28.7408470" lon="-17.8298520">
        <ele>1996.0</ele>
        <time>2020-11-16T12:00:23Z</time>
      </trkpt>
      <trkpt lat="28.7408470" lon="-17.8298520">
        <ele>1996.0</ele>
        <time>2020-11-16T12:00:24Z</time>
      </trkpt>
      <trkpt lat="28.7408820" lon="-17.8298300">
        <ele>1996.3</ele>
        <time>2020-11-16T12:00:25Z</time>
      </trkpt>
      <trkpt lat="28.7408950" lon="-17.8298230">
        <ele>1996.4</ele>
        <time>2020-11-16T12:00:26Z</time>
      </trkpt>
      <trkpt lat="28.7408950" lon="-17.8298230">
        <ele>1996.4</ele>
        <time>2020-11-16T12:00:27Z</time>
      </trkpt>
      <trkpt lat="28.7409230" lon="-17.8298030">
        <ele>1996.7</ele>
        <time>2020-11-16T12:00:28Z</time>
      </trkpt>
      <trkpt lat="28.7409230" lon="-17.8298030">
        <ele>1996.7</ele>
        <time>2020-11-16T12:00:29Z</time>
      </trkpt>
      <trkpt lat="28.7409700" lon="-17.8297730">
        <ele>1997.1</ele>
        <time>2020-11-16T12:00:30Z</time>
      </trkpt>
      <trkpt lat="28.7409950" lon="-17.8297600">
        <ele>1997.3</ele>
        <time>2020-11-16T12:00:31Z</time>
      </trkpt>
      <trkpt lat="28.7409950" lon="-17.8297600">
        <ele>1997.3</ele>
        <time>2020-11-16T12:00:32Z</time>
      </trkpt>
      <trkpt lat="28.7410380" lon="-17.8297450">
        <ele>1997.7</ele>
        <time>2020-11-16T12:00:33Z</time>
      </trkpt>
      <trkpt lat="28.7410380" lon="-17.8297450">
        <ele>1997.7</ele>
        <time>2020-11-16T12:00:34Z</time>
      </trkpt>
      <trkpt lat="28.7410730" lon="-17.8297300">
        <ele>1997.9</ele>
        <time>2020-11-16T12:00:35Z</time>
      </trkpt>
      <trkpt lat="28.7410730" lon="-17.8297300">
        <ele>1997.9</ele>
        <time>2020-11-16T12:00:36Z</time>
      </trkpt>
      <trkpt lat="28.7411020" lon="-17.8297180">
        <ele>1998.2</ele>
        <time>2020-11-16T12:00:37Z</time>
      </trkpt>
      <trkpt lat="28.7411150" lon="-17.8297050">
        <ele>1998.3</ele>
        <time>2020-11-16T12:00:38Z</time>
      </trkpt>
      <trkpt lat="28.7411150" lon="-17.8297050">
        <ele>1998.3</ele>
        <time>2020-11-16T12:00:39Z</time>
      </trkpt>
      <trkpt lat="28.7411630" lon="-17.8296720">
        <ele>1998.7</ele>
        <time>2020-11-16T12:00:40Z</time>
      </trkpt>
      <trkpt lat="28.7411630" lon="-17.8296720">
        <ele>1998.7</ele>
        <time>2020-11-16T12:00:41Z</time>
      </trkpt>
      <trkpt lat="28.7411980" lon="-17.8296380">
        <ele>1999.1</ele>
        <time>2020-11-16T12:00:42Z</time>
      </trkpt>
      <trkpt lat="28.7411980" lon="-17.8296380">
        <ele>1999.1</ele>
        <time>2020-11-16T12:00:43Z</time>
      </trkpt>
      <trkpt lat="28.7412230" lon="-17.8296050">
        <ele>1999.4</ele>
        <time>2020-11-16T12:00:44Z</time>
      </trkpt>
      <trkpt lat="28.7412430" lon="-17.8295870">
        <ele>1999.6</ele>
        <time>2020-11-16T12:00:45Z</time>
      </trkpt>
      <trkpt lat="28.7412430" lon="-17.8295870">
        <ele>1999.6</ele>
        <time>2020-11-16T12:00:46Z</time>
      </trkpt>
      <trkpt lat="28.7412730" lon="-17.8295600">
        <ele>1999.9</ele>
        <time>2020-11-16T12:00:47Z</time>
      </trkpt>
      <trkpt lat="28.7412730" lon="-17.8295600">
        <ele>1999.9</ele>
        <time>2020-11-16T12:00:48Z</time>
      </trkpt>
      <trkpt lat="28.7413100" lon="-17.8295380">
        <ele>2000.2</ele>
        <time>2020-11-16T12:00:49Z</time>
      </trkpt>
      <trkpt lat="28.7413350" lon="-17.8295230">
        <ele>2000.4</ele>
        <time>2020-11-16T12:00:50Z</time>
      </trkpt>
      <trkpt lat="28.7413350" lon="-17.8295230">
        <ele>2000.4</ele>
        <time>2020-11-16T12:00:51Z</time>
      </trkpt>
      <trkpt lat="28.7413730" lon="-17.8294980">
        <ele>2000.8</ele>
        <time>2020-11-16T12:00:52Z</time>
      </trkpt>
      <trkpt lat="28.7413730" lon="-17.8294980">
        <ele>2000.8</ele>
        <time>2020-11-16T12:00:53Z</time>
      </trkpt>
      <trkpt lat="28.7414030" lon="-17.8294770">
        <ele>2001.0</ele>
        <time>2020-11-16T12:00:54Z</time>
      </trkpt>
      <trkpt lat="28.7414030" lon="-17.8294770">
        <ele>2001.0</ele>
        <time>2020-11-16T12:00:55Z</time>
      </trkpt>
      <trkpt lat="28.7414350" lon="-17.8294570">
        <ele>2001.3</ele>
        <time>2020-11-16T12:00:56Z</time>
      </trkpt>
      <trkpt lat="28.7414350" lon="-17.8294570">
        <ele>2001.3</ele>
        <time>2020-11-16T12:00:57Z</time>
      </trkpt>
      <trkpt lat="28.7414430" lon="-17.8294400">
        <ele>2001.4</ele>
        <time>2020-11-16T12:00:58Z</time>
      </trkpt>
      <trkpt lat="28.7414430" lon="-17.8294400">
        <ele>2001.4</ele>
        <time>2020-11-16T12:00:59Z</time>
      </trkpt>
      <trkpt lat="28.7414680" lon="-17.8294150">
        <ele>2001.7</ele>
        <time>2020-11-16T12:01:00Z</time>
      </trkpt>
      <trkpt lat="28.7414680" lon="-17.8294150">
        <ele>2001.7</ele>
        <time>2020-11-16T12:01:01Z</time>
      </trkpt>
      <trkpt lat="28.7415000" lon="-17.8293850">
        <ele>2002.0</ele>
        <time>2020-11-16T12:01:02Z</time>
      </trkpt>
      <trkpt lat="28.7415000" lon="-17.8293850">
        <ele>2002.0</ele>
        <time>2020-11-16T12:01:03Z</time>
      </trkpt>
      <trkpt lat="28.7415100" lon="-17.8293750">
        <ele>2002.1</ele>
        <time>2020-11-16T12:01:04Z</time>
      </trkpt>
      <trkpt lat="28.7415100" lon="-17.8293750">
        <ele>2002.1</ele>
        <time>2020-11-16T12:01:05Z</time>
      </trkpt>
      <trkpt lat="28.7415430" lon="-17.8293480">
        <ele>2002.4</ele>
        <time>2020-11-16T12:01:06Z</time>
      </trkpt>
      <trkpt lat="28.7415430" lon="-17.8293480">
        <ele>2002.4</ele>
        <time>2020-11-16T12:01:07Z</time>
      </trkpt>
      <trkpt lat="28.7415700" lon="-17.8293220">
        <ele>2002.7</ele>
        <time>2020-11-16T12:01:08Z</time>
      </trkpt>
      <trkpt lat="28.7415700" lon="-17.8293220">
        <ele>2002.7</ele>
        <time>2020-11-16T12:01:09Z</time>
      </trkpt>
      <trkpt lat="28.7416030" lon="-17.8292830">
        <ele>2003.1</ele>
        <time>2020-11-16T12:01:10Z</time>
      </trkpt>
      <trkpt lat="28.7416220" lon="-17.8292630">
        <ele>2003.3</ele>
        <time>2020-11-16T12:01:11Z</time>
      </trkpt>
      <trkpt lat="28.7416220" lon="-17.8292630">
        <ele>2003.3</ele>
        <time>2020-11-16T12:01:12Z</time>
      </trkpt>
      <trkpt lat="28.7416530" lon="-17.8292350">
        <ele>2003.6</ele>
        <time>2020-11-16T12:01:13Z</time>
      </trkpt>
      <trkpt lat="28.7416720" lon="-17.8292230">
        <ele>2003.7</ele>
        <time>2020-11-16T12:01:14Z</time>
      </trkpt>
      <trkpt lat="28.7416720" lon="-17.8292230">
        <ele>2003.7</ele>
        <time>2020-11-16T12:01:15Z</time>
      </trkpt>
      <trkpt lat="28.7417120" lon="-17.8292050">
        <ele>2004.1</ele>
        <time>2020-11-16T12:01:16Z</time>
      </trkpt>
      <trkpt lat="28.7417120" lon="-17.8292050">
        <ele>2004.1</ele>
        <time>2020-11-16T12:01:17Z</time>
      </trkpt>
      <trkpt lat="28.7417520" lon="-17.8291950">
        <ele>2004.4</ele>
        <time>2020-11-16T12:01:18Z</time>
      </trkpt>
      <trkpt lat="28.7417520" lon="-17.8291950">
        <ele>2004.4</ele>
        <time>2020-11-16T12:01:19Z</time>
      </trkpt>
      <trkpt lat="28.7417930" lon="-17.8291980">
        <ele>2004.7</ele>
        <time>2020-11-16T12:01:20Z</time>
      </trkpt>
      <trkpt lat="28.7417930" lon="-17.8291980">
        <ele>2004.7</ele>
        <time>2020-11-16T12:01:21Z</time>
      </trkpt>
      <trkpt lat="28.7418300" lon="-17.8292170">
        <ele>2005.0</ele>
        <time>2020-11-16T12:01:22Z</time>
      </trkpt>
      <trkpt lat="28.7418530" lon="-17.8292270">
        <ele>2005.2</ele>
        <time>2020-11-16T12:01:23Z</time>
      </trkpt>
      <trkpt lat="28.7418530" lon="-17.8292270">
        <ele>2005.2</ele>
        <time>2020-11-16T12:01:24Z</time>
      </trkpt>
      <trkpt lat="28.7418950" lon="-17.8292450">
        <ele>2005.5</ele>
        <time>2020-11-16T12:01:25Z</time>
      </trkpt>
      <trkpt lat="28.7419150" lon="-17.8292550">
        <ele>2005.7</ele>
        <time>2020-11-16T12:01:26Z</time>
      </trkpt>
      <trkpt lat="28.7419150" lon="-17.8292550">
        <ele>2005.7</ele>
        <time>2020-11-16T12:01:27Z</time>
      </trkpt>
      <trkpt lat="28.7419600" lon="-17.8292820">
        <ele>2006.1</ele>
        <time>2020-11-16T12:01:28Z</time>
      </trkpt>
      <trkpt lat="28.7419600" lon="-17.8292820">
        <ele>2006.1</ele>
        <time>2020-11-16T12:01:29Z</time>
      </trkpt>
      <trkpt lat="28.7419900" lon="-17.8293150">
        <ele>2006.4</ele>
        <time>2020-11-16T12:01:30Z</time>
      </trkpt>
      <trkpt lat="28.7419900" lon="-17.8293150">
        <ele>2006.4</ele>
        <time>2020-11-16T12:01:31Z</time>
      </trkpt>
      <trkpt lat="28.7420200" lon="-17.8293430">
        <ele>2006.7</ele>
        <time>2020-11-16T12:01:32Z</time>
      </trkpt>
      <trkpt lat="28.7420200" lon="-17.8293430">
        <ele>2006.7</ele>
        <time>2020-11-16T12:01:33Z</time>
      </trkpt>
      <trkpt lat="28.7420520" lon="-17.8293750">
        <ele>2007.1</ele>
        <time>2020-11-16T12:01:34Z</time>
      </trkpt>
      <trkpt lat="28.7420520" lon="-17.8293750">
        <ele>2007.1</ele>
        <time>2020-11-16T12:01:35Z</time>
      </trkpt>
      <trkpt lat="28.7420770" lon="-17.8294100">
        <ele>2007.4</ele>
        <time>2020-11-16T12:01:36Z</time>
      </trkpt>
      <trkpt lat="28.7420770" lon="-17.8294100">
        <ele>2007.4</ele>
        <time>2020-11-16T12:01:37Z</time>
      </trkpt>
      <trkpt lat="28.7420900" lon="-17.8294450">
        <ele>2007.6</ele>
        <time>2020-11-16T12:01:38Z</time>
      </trkpt>
      <trkpt lat="28.7420900" lon="-17.8294450">
        <ele>2007.6</ele>
        <time>2020-11-16T12:01:39Z</time>
      </trkpt>
      <trkpt lat="28.7421050" lon="-17.8294880">
        <ele>2007.9</ele>
        <time>2020-11-16T12:01:40Z</time>
      </trkpt>
      <trkpt lat="28.7421150" lon="-17.8295080">
        <ele>2008.1</ele>
        <time>2020-11-16T12:01:41Z</time>
      </trkpt>
      <trkpt lat="28.7421150" lon="-17.8295080">
        <ele>2008.1</ele>
        <time>2020-11-16T12:01:42Z</time>
      </trkpt>
      <trkpt lat="28.7421370" lon="-17.8295520">
        <ele>2008.4</ele>
        <time>2020-11-16T12:01:43Z</time>
      </trkpt>
      <trkpt lat="28.7421370" lon="-17.8295520">
        <ele>2008.4</ele>
        <time>2020-11-16T12:01:44Z</time>
      </trkpt>
      <trkpt lat="28.7421570" lon="-17.8295930">
        <ele>2008.7</ele>
        <time>2020-11-16T12:01:45Z</time>
      </trkpt>
      <trkpt lat="28.7421670" lon="-17.8296130">
        <ele>2008.9</ele>
        <time>2020-11-16T12:01:46Z</time>
      </trkpt>
      <trkpt lat="28.7421670" lon="-17.8296130">
        <ele>2008.9</ele>
        <time>2020-11-16T12:01:47Z</time>
      </trkpt>
      <trkpt lat="28.7421870" lon="-17.8296550">
        <ele>2009.2</ele>
        <time>2020-11-16T12:01:48Z</time>
      </trkpt>
      <trkpt lat="28.7421950" lon="-17.8296770">
        <ele>2009.4</ele>
        <time>2020-11-16T12:01:49Z</time>
      </trkpt>
      <trkpt lat="28.7422070" lon="-17.8297020">
        <ele>2009.6</ele>
        <time>2020-11-16T12:01:50Z</time>
      </trkpt>
      <trkpt lat="28.7422070" lon="-17.8297020">
        <ele>2009.6</ele>
        <time>2020-11-16T12:01:51Z</time>
      </trkpt>
      <trkpt lat="28.7422220" lon="-17.8297480">
        <ele>2009.9</ele>
        <time>2020-11-16T12:01:52Z</time>
      </trkpt>
      <trkpt lat="28.7422220" lon="-17.8297480">
        <ele>2009.9</ele>
        <time>2020-11-16T12:01:53Z</time>
      </trkpt>
      <trkpt lat="28.7422320" lon="-17.8297880">
        <ele>2010.2</ele>
        <time>2020-11-16T12:01:54Z</time>
      </trkpt>
      <trkpt lat="28.7422380" lon="-17.8298100">
        <ele>2010.3</ele>
        <time>2020-11-16T12:01:55Z</time>
      </trkpt>
      <trkpt lat="28.7422420" lon="-17.8298350">
        <ele>2010.5</ele>
        <time>2020-11-16T12:01:56Z</time>
      </trkpt>
      <trkpt lat="28.7422450" lon="-17.8298570">
        <ele>2010.7</ele>
        <time>2020-11-16T12:01:57Z</time>
      </trkpt>
      <trkpt lat="28.7422450" lon="-17.8298570">
        <ele>2010.7</ele>
        <time>2020-11-16T12:01:58Z</time>
      </trkpt>
      <trkpt lat="28.7422500" lon="-17.8298950">
        <ele>2010.9</ele>
        <time>2020-11-16T12:01:59Z</time>
      </trkpt>
      <trkpt lat="28.7422500" lon="-17.8298950">
        <ele>2010.9</ele>
        <time>2020-11-16T12:02:00Z</time>
      </trkpt>
      <trkpt lat="28.7422620" lon="-17.8299320">
        <ele>2011.2</ele>
        <time>2020-11-16T12:02:01Z</time>
      </trkpt>
      <trkpt lat="28.7422680" lon="-17.8299520">
        <ele>2011.3</ele>
        <time>2020-11-16T12:02:02Z</time>
      </trkpt>
      <trkpt lat="28.7422680" lon="-17.8299520">
        <ele>2011.3</ele>
        <time>2020-11-16T12:02:03Z</time>
      </trkpt>
      <trkpt lat="28.7422850" lon="-17.8299950">
        <ele>2011.6</ele>
        <time>2020-11-16T12:02:04Z</time>
      </trkpt>
      <trkpt lat="28.7422950" lon="-17.8300130">
        <ele>2011.8</ele>
        <time>2020-11-16T12:02:05Z</time>
      </trkpt>
      <trkpt lat="28.7422950" lon="-17.8300130">
        <ele>2011.8</ele>
        <time>2020-11-16T12:02:06Z</time>
      </trkpt>
      <trkpt lat="28.7423250" lon="-17.8300430">
        <ele>2012.1</ele>
        <time>2020-11-16T12:02:07Z</time>
      </trkpt>
      <trkpt lat="28.7423420" lon="-17.8300570">
        <ele>2012.3</ele>
        <time>2020-11-16T12:02:08Z</time>
      </trkpt>
      <trkpt lat="28.7423420" lon="-17.8300570">
        <ele>2012.3</ele>
        <time>2020-11-16T12:02:09Z</time>
      </trkpt>
      <trkpt lat="28.7423880" lon="-17.8300750">
        <ele>2012.6</ele>
        <time>2020-11-16T12:02:10Z</time>
      </trkpt>
      <trkpt lat="28.7423880" lon="-17.8300750">
        <ele>2012.6</ele>
        <time>2020-11-16T12:02:11Z</time>
      </trkpt>
      <trkpt lat="28.7424350" lon="-17.8300920">
        <ele>2013.0</ele>
        <time>2020-11-16T12:02:12Z</time>
      </trkpt>
      <trkpt lat="28.7424550" lon="-17.8300970">
        <ele>2013.2</ele>
        <time>2020-11-16T12:02:13Z</time>
      </trkpt>
      <trkpt lat="28.7424550" lon="-17.8300970">
        <ele>2013.2</ele>
        <time>2020-11-16T12:02:14Z</time>
      </trkpt>
      <trkpt lat="28.7424780" lon="-17.8301070">
        <ele>2013.4</ele>
        <time>2020-11-16T12:02:15Z</time>
      </trkpt>
      <trkpt lat="28.7424780" lon="-17.8301070">
        <ele>2013.4</ele>
        <time>2020-11-16T12:02:16Z</time>
      </trkpt>
      <trkpt lat="28.7425020" lon="-17.8301100">
        <ele>2013.5</ele>
        <time>2020-11-16T12:02:17Z</time>
      </trkpt>
      <trkpt lat="28.7425020" lon="-17.8301100">
        <ele>2013.5</ele>
        <time>2020-11-16T12:02:18Z</time>
      </trkpt>
      <trkpt lat="28.7425450" lon="-17.8301030">
        <ele>2013.9</ele>
        <time>2020-11-16T12:02:19Z</time>
      </trkpt>
      <trkpt lat="28.7425620" lon="-17.8301000">
        <ele>2014.0</ele>
        <time>2020-11-16T12:02:20Z</time>
      </trkpt>
      <trkpt lat="28.7425620" lon="-17.8301000">
        <ele>2014.0</ele>
        <time>2020-11-16T12:02:21Z</time>
      </trkpt>
      <trkpt lat="28.7425880" lon="-17.8300800">
        <ele>2014.2</ele>
        <time>2020-11-16T12:02:22Z</time>
      </trkpt>
      <trkpt lat="28.7425880" lon="-17.8300800">
        <ele>2014.2</ele>
        <time>2020-11-16T12:02:23Z</time>
      </trkpt>
      <trkpt lat="28.7426230" lon="-17.8300580">
        <ele>2014.6</ele>
        <time>2020-11-16T12:02:24Z</time>
      </trkpt>
      <trkpt lat="28.7426420" lon="-17.8300450">
        <ele>2014.7</ele>
        <time>2020-11-16T12:02:25Z</time>
      </trkpt>
      <trkpt lat="28.7426420" lon="-17.8300450">
        <ele>2014.7</ele>
        <time>2020-11-16T12:02:26Z</time>
      </trkpt>
      <trkpt lat="28.7426850" lon="-17.8300150">
        <ele>2015.1</ele>
        <time>2020-11-16T12:02:27Z</time>
      </trkpt>
      <trkpt lat="28.7427020" lon="-17.8300000">
        <ele>2015.3</ele>
        <time>2020-11-16T12:02:28Z</time>
      </trkpt>
      <trkpt lat="28.7427020" lon="-17.8300000">
        <ele>2015.3</ele>
        <time>2020-11-16T12:02:29Z</time>
      </trkpt>
      <trkpt lat="28.7427380" lon="-17.8299750">
        <ele>2015.6</ele>
        <time>2020-11-16T12:02:30Z</time>
      </trkpt>
      <trkpt lat="28.7427580" lon="-17.8299670">
        <ele>2015.8</ele>
        <time>2020-11-16T12:02:31Z</time>
      </trkpt>
      <trkpt lat="28.7427580" lon="-17.8299670">
        <ele>2015.8</ele>
        <time>2020-11-16T12:02:32Z</time>
      </trkpt>
      <trkpt lat="28.7427950" lon="-17.8299500">
        <ele>2016.1</ele>
        <time>2020-11-16T12:02:33Z</time>
      </trkpt>
      <trkpt lat="28.7427950" lon="-17.8299500">
        <ele>2016.1</ele>
        <time>2020-11-16T12:02:34Z</time>
      </trkpt>
      <trkpt lat="28.7428350" lon="-17.8299230">
        <ele>2016.4</ele>
        <time>2020-11-16T12:02:35Z</time>
      </trkpt>
      <trkpt lat="28.7428350" lon="-17.8299230">
        <ele>2016.4</ele>
        <time>2020-11-16T12:02:36Z</time>
      </trkpt>
      <trkpt lat="28.7428700" lon="-17.8298970">
        <ele>2016.7</ele>
        <time>2020-11-16T12:02:37Z</time>
      </trkpt>
      <trkpt lat="28.7428880" lon="-17.8298870">
        <ele>2016.9</ele>
        <time>2020-11-16T12:02:38Z</time>
      </trkpt>
      <trkpt lat="28.7428880" lon="-17.8298870">
        <ele>2016.9</ele>
        <time>2020-11-16T12:02:39Z</time>
      </trkpt>
      <trkpt lat="28.7429200" lon="-17.8298620">
        <ele>2017.2</ele>
        <time>2020-11-16T12:02:40Z</time>
      </trkpt>
      <trkpt lat="28.7429350" lon="-17.8298500">
        <ele>2017.3</ele>
        <time>2020-11-16T12:02:41Z</time>
      </trkpt>
      <trkpt lat="28.7429350" lon="-17.8298500">
        <ele>2017.3</ele>
        <time>2020-11-16T12:02:42Z</time>
      </trkpt>
      <trkpt lat="28.7429700" lon="-17.8298300">
        <ele>2017.6</ele>
        <time>2020-11-16T12:02:43Z</time>
      </trkpt>
      <trkpt lat="28.7429870" lon="-17.8298220">
        <ele>2017.8</ele>
        <time>2020-11-16T12:02:44Z</time>
      </trkpt>
      <trkpt lat="28.7429950" lon="-17.8298070">
        <ele>2017.9</ele>
        <time>2020-11-16T12:02:45Z</time>
      </trkpt>
      <trkpt lat="28.7429950" lon="-17.8298070">
        <ele>2017.9</ele>
        <time>2020-11-16T12:02:46Z</time>
      </trkpt>
      <trkpt lat="28.7430170" lon="-17.8297780">
        <ele>2018.2</ele>
        <time>2020-11-16T12:02:47Z</time>
      </trkpt>
      <trkpt lat="28.7430170" lon="-17.8297780">
        <ele>2018.2</ele>
        <time>2020-11-16T12:02:48Z</time>
      </trkpt>
      <trkpt lat="28.7430450" lon="-17.8297530">
        <ele>2018.4</ele>
        <time>2020-11-16T12:02:49Z</time>
      </trkpt>
      <trkpt lat="28.7430570" lon="-17.8297400">
        <ele>2018.6</ele>
        <time>2020-11-16T12:02:50Z</time>
      </trkpt>
      <trkpt lat="28.7430570" lon="-17.8297400">
        <ele>2018.6</ele>
        <time>2020-11-16T12:02:51Z</time>
      </trkpt>
      <trkpt lat="28.7430800" lon="-17.8297130">
        <ele>2018.8</ele>
        <time>2020-11-16T12:02:52Z</time>
      </trkpt>
      <trkpt lat="28.7430800" lon="-17.8297130">
        <ele>2018.8</ele>
        <time>2020-11-16T12:02:53Z</time>
      </trkpt>
      <trkpt lat="28.7431120" lon="-17.8296980">
        <ele>2019.1</ele>
        <time>2020-11-16T12:02:54Z</time>
      </trkpt>
      <trkpt lat="28.7431120" lon="-17.8296980">
        <ele>2019.1</ele>
        <time>2020-11-16T12:02:55Z</time>
      </trkpt>
      <trkpt lat="28.7431450" lon="-17.8296820">
        <ele>2019.4</ele>
        <time>2020-11-16T12:02:56Z</time>
      </trkpt>
      <trkpt lat="28.7431450" lon="-17.8296820">
        <ele>2019.4</ele>
        <time>2020-11-16T12:02:57Z</time>
      </trkpt>
      <trkpt lat="28.7431770" lon="-17.8296650">
        <ele>2019.6</ele>
        <time>2020-11-16T12:02:58Z</time>
      </trkpt>
      <trkpt lat="28.7431770" lon="-17.8296650">
        <ele>2019.6</ele>
        <time>2020-11-16T12:02:59Z</time>
      </trkpt>
      <trkpt lat="28.7432120" lon="-17.8296480">
        <ele>2019.9</ele>
        <time>2020-11-16T12:03:00Z</time>
      </trkpt>
      <trkpt lat="28.7432120" lon="-17.8296480">
        <ele>2019.9</ele>
        <time>2020-11-16T12:03:01Z</time>
      </trkpt>
      <trkpt lat="28.7432380" lon="-17.8296350">
        <ele>2020.1</ele>
        <time>2020-11-16T12:03:02Z</time>
      </trkpt>
      <trkpt lat="28.7432380" lon="-17.8296350">
        <ele>2020.1</ele>
        <time>2020-11-16T12:03:03Z</time>
      </trkpt>
      <trkpt lat="28.7432730" lon="-17.8296420">
        <ele>2020.4</ele>
        <time>2020-11-16T12:03:04Z</time>
      </trkpt>
      <trkpt lat="28.7432930" lon="-17.8296480">
        <ele>2020.6</ele>
        <time>2020-11-16T12:03:05Z</time>
      </trkpt>
      <trkpt lat="28.7432930" lon="-17.8296480">
        <ele>2020.6</ele>
        <time>2020-11-16T12:03:06Z</time>
      </trkpt>
      <trkpt lat="28.7433300" lon="-17.8296650">
        <ele>2020.9</ele>
        <time>2020-11-16T12:03:07Z</time>
      </trkpt>
      <trkpt lat="28.7433450" lon="-17.8296720">
        <ele>2021.0</ele>
        <time>2020-11-16T12:03:08Z</time>
      </trkpt>
      <trkpt lat="28.7433450" lon="-17.8296720">
        <ele>2021.0</ele>
        <time>2020-11-16T12:03:09Z</time>
      </trkpt>
      <trkpt lat="28.7433730" lon="-17.8296870">
        <ele>2021.2</ele>
        <time>2020-11-16T12:03:10Z</time>
      </trkpt>
      <trkpt lat="28.7433730" lon="-17.8296870">
        <ele>2021.2</ele>
        <time>2020-11-16T12:03:11Z</time>
      </trkpt>
      <trkpt lat="28.7434000" lon="-17.8297050">
        <ele>2021.5</ele>
        <time>2020-11-16T12:03:12Z</time>
      </trkpt>
      <trkpt lat="28.7434000" lon="-17.8297050">
        <ele>2021.5</ele>
        <time>2020-11-16T12:03:13Z</time>
      </trkpt>
      <trkpt lat="28.7434120" lon="-17.8297380">
        <ele>2021.7</ele>
        <time>2020-11-16T12:03:14Z</time>
      </trkpt>
      <trkpt lat="28.7434120" lon="-17.8297380">
        <ele>2021.7</ele>
        <time>2020-11-16T12:03:15Z</time>
      </trkpt>
      <trkpt lat="28.7434300" lon="-17.8297720">
        <ele>2022.0</ele>
        <time>2020-11-16T12:03:16Z</time>
      </trkpt>
      <trkpt lat="28.7434300" lon="-17.8297720">
        <ele>2022.0</ele>
        <time>2020-11-16T12:03:17Z</time>
      </trkpt>
      <trkpt lat="28.7434450" lon="-17.8298020">
        <ele>2022.1</ele>
        <time>2020-11-16T12:03:18Z</time>
      </trkpt>
      <trkpt lat="28.7434450" lon="-17.8298020">
        <ele>2022.1</ele>
        <time>2020-11-16T12:03:19Z</time>
      </trkpt>
      <trkpt lat="28.7434620" lon="-17.8298380">
        <ele>2022.4</ele>
        <time>2020-11-16T12:03:20Z</time>
      </trkpt>
      <trkpt lat="28.7434620" lon="-17.8298380">
        <ele>2022.4</ele>
        <time>2020-11-16T12:03:21Z</time>
      </trkpt>
      <trkpt lat="28.7434800" lon="-17.8298720">
        <ele>2022.7</ele>
        <time>2020-11-16T12:03:22Z</time>
      </trkpt>
      <trkpt lat="28.7434800" lon="-17.8298720">
        <ele>2022.7</ele>
        <time>2020-11-16T12:03:23Z</time>
      </trkpt>
      <trkpt lat="28.7434980" lon="-17.8299070">
        <ele>2023.1</ele>
        <time>2020-11-16T12:03:24Z</time>
      </trkpt>
      <trkpt lat="28.7434980" lon="-17.8299070">
        <ele>2023.1</ele>
        <time>2020-11-16T12:03:25Z</time>
      </trkpt>
      <trkpt lat="28.7435170" lon="-17.8299420">
        <ele>2023.4</ele>
        <time>2020-11-16T12:03:26Z</time>
      </trkpt>
      <trkpt lat="28.7435170" lon="-17.8299420">
        <ele>2023.4</ele>
        <time>2020-11-16T12:03:27Z</time>
      </trkpt>
      <trkpt lat="28.7435250" lon="-17.8299780">
        <ele>2023.7</ele>
        <time>2020-11-16T12:03:28Z</time>
      </trkpt>
      <trkpt lat="28.7435250" lon="-17.8299780">
        <ele>2023.7</ele>
        <time>2020-11-16T12:03:29Z</time>
      </trkpt>
      <trkpt lat="28.7435280" lon="-17.8300200">
        <ele>2024.0</ele>
        <time>2020-11-16T12:03:30Z</time>
      </trkpt>
      <trkpt lat="28.7435280" lon="-17.8300200">
        <ele>2024.0</ele>
        <time>2020-11-16T12:03:31Z</time>
      </trkpt>
      <trkpt lat="28.7435430" lon="-17.8300620">
        <ele>2024.4</ele>
        <time>2020-11-16T12:03:32Z</time>
      </trkpt>
      <trkpt lat="28.7435430" lon="-17.8300620">
        <ele>2024.4</ele>
        <time>2020-11-16T12:03:33Z</time>
      </trkpt>
      <trkpt lat="28.7435550" lon="-17.8301020">
        <ele>2024.7</ele>
        <time>2020-11-16T12:03:34Z</time>
      </trkpt>
      <trkpt lat="28.7435580" lon="-17.8301230">
        <ele>2024.8</ele>
        <time>2020-11-16T12:03:35Z</time>
      </trkpt>
      <trkpt lat="28.7435580" lon="-17.8301230">
        <ele>2024.8</ele>
        <time>2020-11-16T12:03:36Z</time>
      </trkpt>
      <trkpt lat="28.7435630" lon="-17.8301700">
        <ele>2025.2</ele>
        <time>2020-11-16T12:03:37Z</time>
      </trkpt>
      <trkpt lat="28.7435680" lon="-17.8301930">
        <ele>2025.4</ele>
        <time>2020-11-16T12:03:38Z</time>
      </trkpt>
      <trkpt lat="28.7435680" lon="-17.8301930">
        <ele>2025.4</ele>
        <time>2020-11-16T12:03:39Z</time>
      </trkpt>
      <trkpt lat="28.7435770" lon="-17.8302330">
        <ele>2025.7</ele>
        <time>2020-11-16T12:03:40Z</time>
      </trkpt>
      <trkpt lat="28.7435770" lon="-17.8302330">
        <ele>2025.7</ele>
        <time>2020-11-16T12:03:41Z</time>
      </trkpt>
      <trkpt lat="28.7435870" lon="-17.8302750">
        <ele>2026.1</ele>
        <time>2020-11-16T12:03:42Z</time>
      </trkpt>
      <trkpt lat="28.7435870" lon="-17.8302750">
        <ele>2026.1</ele>
        <time>2020-11-16T12:03:43Z</time>
      </trkpt>
      <trkpt lat="28.7435980" lon="-17.8303180">
        <ele>2026.4</ele>
        <time>2020-11-16T12:03:44Z</time>
      </trkpt>
      <trkpt lat="28.7435980" lon="-17.8303180">
        <ele>2026.4</ele>
        <time>2020-11-16T12:03:45Z</time>
      </trkpt>
      <trkpt lat="28.7436130" lon="-17.8303550">
        <ele>2026.7</ele>
        <time>2020-11-16T12:03:46Z</time>
      </trkpt>
      <trkpt lat="28.7436130" lon="-17.8303550">
        <ele>2026.7</ele>
        <time>2020-11-16T12:03:47Z</time>
      </trkpt>
      <trkpt lat="28.7436270" lon="-17.8303900">
        <ele>2027.0</ele>
        <time>2020-11-16T12:03:48Z</time>
      </trkpt>
      <trkpt lat="28.7436350" lon="-17.8304070">
        <ele>2027.2</ele>
        <time>2020-11-16T12:03:49Z</time>
      </trkpt>
      <trkpt lat="28.7436420" lon="-17.8304250">
        <ele>2027.3</ele>
        <time>2020-11-16T12:03:50Z</time>
      </trkpt>
      <trkpt lat="28.7436420" lon="-17.8304250">
        <ele>2027.3</ele>
        <time>2020-11-16T12:03:51Z</time>
      </trkpt>
      <trkpt lat="28.7436520" lon="-17.8304580">
        <ele>2027.6</ele>
        <time>2020-11-16T12:03:52Z</time>
      </trkpt>
      <trkpt lat="28.7436520" lon="-17.8304750">
        <ele>2027.7</ele>
        <time>2020-11-16T12:03:53Z</time>
      </trkpt>
      <trkpt lat="28.7436520" lon="-17.8304750">
        <ele>2027.7</ele>
        <time>2020-11-16T12:03:54Z</time>
      </trkpt>
      <trkpt lat="28.7436520" lon="-17.8305050">
        <ele>2028.0</ele>
        <time>2020-11-16T12:03:55Z</time>
      </trkpt>
      <trkpt lat="28.7436500" lon="-17.8305200">
        <ele>2028.1</ele>
        <time>2020-11-16T12:03:56Z</time>
      </trkpt>
      <trkpt lat="28.7436500" lon="-17.8305200">
        <ele>2028.1</ele>
        <time>2020-11-16T12:03:57Z</time>
      </trkpt>
      <trkpt lat="28.7436530" lon="-17.8305550">
        <ele>2028.4</ele>
        <time>2020-11-16T12:03:58Z</time>
      </trkpt>
      <trkpt lat="28.7436570" lon="-17.8305730">
        <ele>2028.5</ele>
        <time>2020-11-16T12:03:59Z</time>
      </trkpt>
      <trkpt lat="28.7436570" lon="-17.8305730">
        <ele>2028.5</ele>
        <time>2020-11-16T12:04:00Z</time>
      </trkpt>
      <trkpt lat="28.7436650" lon="-17.8306120">
        <ele>2028.8</ele>
        <time>2020-11-16T12:04:01Z</time>
      </trkpt>
      <trkpt lat="28.7436720" lon="-17.8306300">
        <ele>2029.0</ele>
        <time>2020-11-16T12:04:02Z</time>
      </trkpt>
      <trkpt lat="28.7436720" lon="-17.8306300">
        <ele>2029.0</ele>
        <time>2020-11-16T12:04:03Z</time>
      </trkpt>
      <trkpt lat="28.7436870" lon="-17.8306680">
        <ele>2029.3</ele>
        <time>2020-11-16T12:04:04Z</time>
      </trkpt>
      <trkpt lat="28.7436870" lon="-17.8306680">
        <ele>2029.3</ele>
        <time>2020-11-16T12:04:05Z</time>
      </trkpt>
      <trkpt lat="28.7436980" lon="-17.8307080">
        <ele>2029.6</ele>
        <time>2020-11-16T12:04:06Z</time>
      </trkpt>
      <trkpt lat="28.7436980" lon="-17.8307080">
        <ele>2029.6</ele>
        <time>2020-11-16T12:04:07Z</time>
      </trkpt>
      <trkpt lat="28.7437120" lon="-17.8307470">
        <ele>2030.0</ele>
        <time>2020-11-16T12:04:08Z</time>
      </trkpt>
      <trkpt lat="28.7437120" lon="-17.8307470">
        <ele>2030.0</ele>
        <time>2020-11-16T12:04:09Z</time>
      </trkpt>
      <trkpt lat="28.7437350" lon="-17.8307780">
        <ele>2030.3</ele>
        <time>2020-11-16T12:04:10Z</time>
      </trkpt>
      <trkpt lat="28.7437350" lon="-17.8307780">
        <ele>2030.3</ele>
        <time>2020-11-16T12:04:11Z</time>
      </trkpt>
      <trkpt lat="28.7437520" lon="-17.8308130">
        <ele>2030.6</ele>
        <time>2020-11-16T12:04:12Z</time>
      </trkpt>
      <trkpt lat="28.7437520" lon="-17.8308130">
        <ele>2030.6</ele>
        <time>2020-11-16T12:04:13Z</time>
      </trkpt>
      <trkpt lat="28.7437700" lon="-17.8308530">
        <ele>2030.9</ele>
        <time>2020-11-16T12:04:14Z</time>
      </trkpt>
      <trkpt lat="28.7437700" lon="-17.8308530">
        <ele>2030.9</ele>
        <time>2020-11-16T12:04:15Z</time>
      </trkpt>
      <trkpt lat="28.7437770" lon="-17.8308980">
        <ele>2031.3</ele>
        <time>2020-11-16T12:04:16Z</time>
      </trkpt>
      <trkpt lat="28.7437820" lon="-17.8309220">
        <ele>2031.5</ele>
        <time>2020-11-16T12:04:17Z</time>
      </trkpt>
      <trkpt lat="28.7437820" lon="-17.8309220">
        <ele>2031.5</ele>
        <time>2020-11-16T12:04:18Z</time>
      </trkpt>
      <trkpt lat="28.7438000" lon="-17.8309550">
        <ele>2031.8</ele>
        <time>2020-11-16T12:04:19Z</time>
      </trkpt>
      <trkpt lat="28.7438100" lon="-17.8309720">
        <ele>2031.9</ele>
        <time>2020-11-16T12:04:20Z</time>
      </trkpt>
      <trkpt lat="28.7438100" lon="-17.8309720">
        <ele>2031.9</ele>
        <time>2020-11-16T12:04:21Z</time>
      </trkpt>
      <trkpt lat="28.7438300" lon="-17.8310030">
        <ele>2032.2</ele>
        <time>2020-11-16T12:04:22Z</time>
      </trkpt>
      <trkpt lat="28.7438400" lon="-17.8310180">
        <ele>2032.4</ele>
        <time>2020-11-16T12:04:23Z</time>
      </trkpt>
      <trkpt lat="28.7438400" lon="-17.8310180">
        <ele>2032.4</ele>
        <time>2020-11-16T12:04:24Z</time>
      </trkpt>
      <trkpt lat="28.7438530" lon="-17.8310520">
        <ele>2032.7</ele>
        <time>2020-11-16T12:04:25Z</time>
      </trkpt>
      <trkpt lat="28.7438580" lon="-17.8310700">
        <ele>2032.8</ele>
        <time>2020-11-16T12:04:26Z</time>
      </trkpt>
      <trkpt lat="28.7438580" lon="-17.8310700">
        <ele>2032.8</ele>
        <time>2020-11-16T12:04:27Z</time>
      </trkpt>
      <trkpt lat="28.7438730" lon="-17.8311070">
        <ele>2033.1</ele>
        <time>2020-11-16T12:04:28Z</time>
      </trkpt>
      <trkpt lat="28.7438730" lon="-17.8311070">
        <ele>2033.1</ele>
        <time>2020-11-16T12:04:29Z</time>
      </trkpt>
      <trkpt lat="28.7438900" lon="-17.8311370">
        <ele>2033.4</ele>
        <time>2020-11-16T12:04:30Z</time>
      </trkpt>
      <trkpt lat="28.7438900" lon="-17.8311370">
        <ele>2033.4</ele>
        <time>2020-11-16T12:04:31Z</time>
      </trkpt>
      <trkpt lat="28.7439080" lon="-17.8311670">
        <ele>2033.7</ele>
        <time>2020-11-16T12:04:32Z</time>
      </trkpt>
      <trkpt lat="28.7439080" lon="-17.8311670">
        <ele>2033.7</ele>
        <time>2020-11-16T12:04:33Z</time>
      </trkpt>
      <trkpt lat="28.7439230" lon="-17.8312000">
        <ele>2034.0</ele>
        <time>2020-11-16T12:04:34Z</time>
      </trkpt>
      <trkpt lat="28.7439230" lon="-17.8312000">
        <ele>2034.0</ele>
        <time>2020-11-16T12:04:35Z</time>
      </trkpt>
      <trkpt lat="28.7439320" lon="-17.8312380">
        <ele>2034.3</ele>
        <time>2020-11-16T12:04:36Z</time>
      </trkpt>
      <trkpt lat="28.7439370" lon="-17.8312580">
        <ele>2034.5</ele>
        <time>2020-11-16T12:04:37Z</time>
      </trkpt>
      <trkpt lat="28.7439370" lon="-17.8312580">
        <ele>2034.5</ele>
        <time>2020-11-16T12:04:38Z</time>
      </trkpt>
      <trkpt lat="28.7439580" lon="-17.8312920">
        <ele>2034.8</ele>
        <time>2020-11-16T12:04:39Z</time>
      </trkpt>
      <trkpt lat="28.7439720" lon="-17.8313030">
        <ele>2034.9</ele>
        <time>2020-11-16T12:04:40Z</time>
      </trkpt>
      <trkpt lat="28.7439720" lon="-17.8313030">
        <ele>2034.9</ele>
        <time>2020-11-16T12:04:41Z</time>
      </trkpt>
      <trkpt lat="28.7440030" lon="-17.8313220">
        <ele>2035.2</ele>
        <time>2020-11-16T12:04:42Z</time>
      </trkpt>
      <trkpt lat="28.7440030" lon="-17.8313220">
        <ele>2035.2</ele>
        <time>2020-11-16T12:04:43Z</time>
      </trkpt>
      <trkpt lat="28.7440420" lon="-17.8313330">
        <ele>2035.6</ele>
        <time>2020-11-16T12:04:44Z</time>
      </trkpt>
      <trkpt lat="28.7440420" lon="-17.8313330">
        <ele>2035.6</ele>
        <time>2020-11-16T12:04:45Z</time>
      </trkpt>
      <trkpt lat="28.7440770" lon="-17.8313350">
        <ele>2035.9</ele>
        <time>2020-11-16T12:04:46Z</time>
      </trkpt>
      <trkpt lat="28.7440770" lon="-17.8313350">
        <ele>2035.9</ele>
        <time>2020-11-16T12:04:47Z</time>
      </trkpt>
      <trkpt lat="28.7441000" lon="-17.8313370">
        <ele>2036.1</ele>
        <time>2020-11-16T12:04:48Z</time>
      </trkpt>
      <trkpt lat="28.7441080" lon="-17.8313300">
        <ele>2036.2</ele>
        <time>2020-11-16T12:04:49Z</time>
      </trkpt>
      <trkpt lat="28.7441080" lon="-17.8313300">
        <ele>2036.2</ele>
        <time>2020-11-16T12:04:50Z</time>
      </trkpt>
      <trkpt lat="28.7441270" lon="-17.8313150">
        <ele>2036.4</ele>
        <time>2020-11-16T12:04:51Z</time>
      </trkpt>
      <trkpt lat="28.7441380" lon="-17.8313030">
        <ele>2036.6</ele>
        <time>2020-11-16T12:04:52Z</time>
      </trkpt>
      <trkpt lat="28.7441380" lon="-17.8313030">
        <ele>2036.6</ele>
        <time>2020-11-16T12:04:53Z</time>
      </trkpt>
      <trkpt lat="28.7441680" lon="-17.8312800">
        <ele>2036.9</ele>
        <time>2020-11-16T12:04:54Z</time>
      </trkpt>
      <trkpt lat="28.7441820" lon="-17.8312670">
        <ele>2037.0</ele>
        <time>2020-11-16T12:04:55Z</time>
      </trkpt>
      <trkpt lat="28.7441930" lon="-17.8312500">
        <ele>2037.2</ele>
        <time>2020-11-16T12:04:56Z</time>
      </trkpt>
      <trkpt lat="28.7441930" lon="-17.8312500">
        <ele>2037.2</ele>
        <time>2020-11-16T12:04:57Z</time>
      </trkpt>
      <trkpt lat="28.7442300" lon="-17.8312150">
        <ele>2037.6</ele>
        <time>2020-11-16T12:04:58Z</time>
      </trkpt>
      <trkpt lat="28.7442300" lon="-17.8312150">
        <ele>2037.6</ele>
        <time>2020-11-16T12:04:59Z</time>
      </trkpt>
      <trkpt lat="28.7442570" lon="-17.8311820">
        <ele>2038.0</ele>
        <time>2020-11-16T12:05:00Z</time>
      </trkpt>
      <trkpt lat="28.7442570" lon="-17.8311820">
        <ele>2038.0</ele>
        <time>2020-11-16T12:05:01Z</time>
      </trkpt>
      <trkpt lat="28.7442880" lon="-17.8311480">
        <ele>2038.4</ele>
        <time>2020-11-16T12:05:02Z</time>
      </trkpt>
      <trkpt lat="28.7442880" lon="-17.8311480">
        <ele>2038.4</ele>
        <time>2020-11-16T12:05:03Z</time>
      </trkpt>
      <trkpt lat="28.7443180" lon="-17.8311100">
        <ele>2038.8</ele>
        <time>2020-11-16T12:05:04Z</time>
      </trkpt>
      <trkpt lat="28.7443300" lon="-17.8310970">
        <ele>2038.9</ele>
        <time>2020-11-16T12:05:05Z</time>
      </trkpt>
      <trkpt lat="28.7443300" lon="-17.8310970">
        <ele>2038.9</ele>
        <time>2020-11-16T12:05:06Z</time>
      </trkpt>
      <trkpt lat="28.7443530" lon="-17.8310750">
        <ele>2039.2</ele>
        <time>2020-11-16T12:05:07Z</time>
      </trkpt>
      <trkpt lat="28.7443650" lon="-17.8310650">
        <ele>2039.3</ele>
        <time>2020-11-16T12:05:08Z</time>
      </trkpt>
      <trkpt lat="28.7443650" lon="-17.8310650">
        <ele>2039.3</ele>
        <time>2020-11-16T12:05:09Z</time>
      </trkpt>
      <trkpt lat="28.7443830" lon="-17.8310320">
        <ele>2039.6</ele>
        <time>2020-11-16T12:05:10Z</time>
      </trkpt>
      <trkpt lat="28.7443830" lon="-17.8310320">
        <ele>2039.6</ele>
        <time>2020-11-16T12:05:11Z</time>
      </trkpt>
      <trkpt lat="28.7443970" lon="-17.8310000">
        <ele>2039.9</ele>
        <time>2020-11-16T12:05:12Z</time>
      </trkpt>
      <trkpt lat="28.7443970" lon="-17.8310000">
        <ele>2039.9</ele>
        <time>2020-11-16T12:05:13Z</time>
      </trkpt>
      <trkpt lat="28.7444130" lon="-17.8309600">
        <ele>2040.2</ele>
        <time>2020-11-16T12:05:14Z</time>
      </trkpt>
      <trkpt lat="28.7444130" lon="-17.8309600">
        <ele>2040.2</ele>
        <time>2020-11-16T12:05:15Z</time>
      </trkpt>
      <trkpt lat="28.7444280" lon="-17.8309230">
        <ele>2040.5</ele>
        <time>2020-11-16T12:05:16Z</time>
      </trkpt>
      <trkpt lat="28.7444280" lon="-17.8309230">
        <ele>2040.5</ele>
        <time>2020-11-16T12:05:17Z</time>
      </trkpt>
      <trkpt lat="28.7444500" lon="-17.8308830">
        <ele>2040.9</ele>
        <time>2020-11-16T12:05:18Z</time>
      </trkpt>
      <trkpt lat="28.7444500" lon="-17.8308830">
        <ele>2040.9</ele>
        <time>2020-11-16T12:05:19Z</time>
      </trkpt>
      <trkpt lat="28.7444770" lon="-17.8308520">
        <ele>2041.3</ele>
        <time>2020-11-16T12:05:20Z</time>
      </trkpt>
      <trkpt lat="28.7444770" lon="-17.8308520">
        <ele>2041.3</ele>
        <time>2020-11-16T12:05:21Z</time>
      </trkpt>
      <trkpt lat="28.7444880" lon="-17.8308180">
        <ele>2041.5</ele>
        <time>2020-11-16T12:05:22Z</time>
      </trkpt>
      <trkpt lat="28.7444880" lon="-17.8308180">
        <ele>2041.5</ele>
        <time>2020-11-16T12:05:23Z</time>
      </trkpt>
      <trkpt lat="28.7445050" lon="-17.8307850">
        <ele>2041.8</ele>
        <time>2020-11-16T12:05:24Z</time>
      </trkpt>
      <trkpt lat="28.7445050" lon="-17.8307850">
        <ele>2041.8</ele>
        <time>2020-11-16T12:05:25Z</time>
      </trkpt>
      <trkpt lat="28.7445250" lon="-17.8307530">
        <ele>2042.1</ele>
        <time>2020-11-16T12:05:26Z</time>
      </trkpt>
      <trkpt lat="28.7445250" lon="-17.8307530">
        <ele>2042.1</ele>
        <time>2020-11-16T12:05:27Z</time>
      </trkpt>
      <trkpt lat="28.7445430" lon="-17.8307220">
        <ele>2042.4</ele>
        <time>2020-11-16T12:05:28Z</time>
      </trkpt>
      <trkpt lat="28.7445430" lon="-17.8307220">
        <ele>2042.4</ele>
        <time>2020-11-16T12:05:29Z</time>
      </trkpt>
      <trkpt lat="28.7445670" lon="-17.8306900">
        <ele>2042.8</ele>
        <time>2020-11-16T12:05:30Z</time>
      </trkpt>
      <trkpt lat="28.7445670" lon="-17.8306900">
        <ele>2042.8</ele>
        <time>2020-11-16T12:05:31Z</time>
      </trkpt>
      <trkpt lat="28.7445970" lon="-17.8306650">
        <ele>2043.1</ele>
        <time>2020-11-16T12:05:32Z</time>
      </trkpt>
      <trkpt lat="28.7445970" lon="-17.8306650">
        <ele>2043.1</ele>
        <time>2020-11-16T12:05:33Z</time>
      </trkpt>
      <trkpt lat="28.7446220" lon="-17.8306380">
        <ele>2043.4</ele>
        <time>2020-11-16T12:05:34Z</time>
      </trkpt>
      <trkpt lat="28.7446220" lon="-17.8306380">
        <ele>2043.4</ele>
        <time>2020-11-16T12:05:35Z</time>
      </trkpt>
      <trkpt lat="28.7446470" lon="-17.8306120">
        <ele>2043.7</ele>
        <time>2020-11-16T12:05:36Z</time>
      </trkpt>
      <trkpt lat="28.7446580" lon="-17.8306020">
        <ele>2043.8</ele>
        <time>2020-11-16T12:05:37Z</time>
      </trkpt>
      <trkpt lat="28.7446580" lon="-17.8306020">
        <ele>2043.8</ele>
        <time>2020-11-16T12:05:38Z</time>
      </trkpt>
      <trkpt lat="28.7446800" lon="-17.8305730">
        <ele>2044.1</ele>
        <time>2020-11-16T12:05:39Z</time>
      </trkpt>
      <trkpt lat="28.7446800" lon="-17.8305730">
        <ele>2044.1</ele>
        <time>2020-11-16T12:05:40Z</time>
      </trkpt>
      <trkpt lat="28.7447120" lon="-17.8305470">
        <ele>2044.5</ele>
        <time>2020-11-16T12:05:41Z</time>
      </trkpt>
      <trkpt lat="28.7447120" lon="-17.8305470">
        <ele>2044.5</ele>
        <time>2020-11-16T12:05:42Z</time>
      </trkpt>
      <trkpt lat="28.7447420" lon="-17.8305270">
        <ele>2044.8</ele>
        <time>2020-11-16T12:05:43Z</time>
      </trkpt>
      <trkpt lat="28.7447620" lon="-17.8305180">
        <ele>2045.0</ele>
        <time>2020-11-16T12:05:44Z</time>
      </trkpt>
      <trkpt lat="28.7447620" lon="-17.8305180">
        <ele>2045.0</ele>
        <time>2020-11-16T12:05:45Z</time>
      </trkpt>
      <trkpt lat="28.7447980" lon="-17.8304980">
        <ele>2045.3</ele>
        <time>2020-11-16T12:05:46Z</time>
      </trkpt>
      <trkpt lat="28.7447980" lon="-17.8304980">
        <ele>2045.3</ele>
        <time>2020-11-16T12:05:47Z</time>
      </trkpt>
      <trkpt lat="28.7448330" lon="-17.8304800">
        <ele>2045.7</ele>
        <time>2020-11-16T12:05:48Z</time>
      </trkpt>
      <trkpt lat="28.7448520" lon="-17.8304630">
        <ele>2045.9</ele>
        <time>2020-11-16T12:05:49Z</time>
      </trkpt>
      <trkpt lat="28.7448650" lon="-17.8304450">
        <ele>2046.1</ele>
        <time>2020-11-16T12:05:50Z</time>
      </trkpt>
      <trkpt lat="28.7448650" lon="-17.8304450">
        <ele>2046.1</ele>
        <time>2020-11-16T12:05:51Z</time>
      </trkpt>
      <trkpt lat="28.7448950" lon="-17.8304180">
        <ele>2046.4</ele>
        <time>2020-11-16T12:05:52Z</time>
      </trkpt>
      <trkpt lat="28.7449100" lon="-17.8304100">
        <ele>2046.6</ele>
        <time>2020-11-16T12:05:53Z</time>
      </trkpt>
      <trkpt lat="28.7449100" lon="-17.8304100">
        <ele>2046.6</ele>
        <time>2020-11-16T12:05:54Z</time>
      </trkpt>
      <trkpt lat="28.7449380" lon="-17.8303870">
        <ele>2046.9</ele>
        <time>2020-11-16T12:05:55Z</time>
      </trkpt>
      <trkpt lat="28.7449500" lon="-17.8303770">
        <ele>2047.0</ele>
        <time>2020-11-16T12:05:56Z</time>
      </trkpt>
      <trkpt lat="28.7449620" lon="-17.8303630">
        <ele>2047.1</ele>
        <time>2020-11-16T12:05:57Z</time>
      </trkpt>
      <trkpt lat="28.7449620" lon="-17.8303630">
        <ele>2047.1</ele>
        <time>2020-11-16T12:05:58Z</time>
      </trkpt>
      <trkpt lat="28.7449880" lon="-17.8303330">
        <ele>2047.5</ele>
        <time>2020-11-16T12:05:59Z</time>
      </trkpt>
      <trkpt lat="28.7449880" lon="-17.8303330">
        <ele>2047.5</ele>
        <time>2020-11-16T12:06:00Z</time>
      </trkpt>
      <trkpt lat="28.7450080" lon="-17.8303000">
        <ele>2047.8</ele>
        <time>2020-11-16T12:06:01Z</time>
      </trkpt>
      <trkpt lat="28.7450180" lon="-17.8302830">
        <ele>2047.9</ele>
        <time>2020-11-16T12:06:02Z</time>
      </trkpt>
      <trkpt lat="28.7450180" lon="-17.8302830">
        <ele>2047.9</ele>
        <time>2020-11-16T12:06:03Z</time>
      </trkpt>
      <trkpt lat="28.7450380" lon="-17.8302500">
        <ele>2048.3</ele>
        <time>2020-11-16T12:06:04Z</time>
      </trkpt>
      <trkpt lat="28.7450380" lon="-17.8302500">
        <ele>2048.3</ele>
        <time>2020-11-16T12:06:05Z</time>
      </trkpt>
      <trkpt lat="28.7450530" lon="-17.8302180">
        <ele>2048.5</ele>
        <time>2020-11-16T12:06:06Z</time>
      </trkpt>
      <trkpt lat="28.7450600" lon="-17.8301980">
        <ele>2048.7</ele>
        <time>2020-11-16T12:06:07Z</time>
      </trkpt>
      <trkpt lat="28.7450680" lon="-17.8301830">
        <ele>2048.8</ele>
        <time>2020-11-16T12:06:08Z</time>
      </trkpt>
      <trkpt lat="28.7450680" lon="-17.8301830">
        <ele>2048.8</ele>
        <time>2020-11-16T12:06:09Z</time>
      </trkpt>
      <trkpt lat="28.7450870" lon="-17.8301530">
        <ele>2049.1</ele>
        <time>2020-11-16T12:06:10Z</time>
      </trkpt>
      <trkpt lat="28.7450870" lon="-17.8301530">
        <ele>2049.1</ele>
        <time>2020-11-16T12:06:11Z</time>
      </trkpt>
      <trkpt lat="28.7451070" lon="-17.8301250">
        <ele>2049.4</ele>
        <time>2020-11-16T12:06:12Z</time>
      </trkpt>
      <trkpt lat="28.7451130" lon="-17.8301070">
        <ele>2049.6</ele>
        <time>2020-11-16T12:06:13Z</time>
      </trkpt>
      <trkpt lat="28.7451130" lon="-17.8301070">
        <ele>2049.6</ele>
        <time>2020-11-16T12:06:14Z</time>
      </trkpt>
      <trkpt lat="28.7451320" lon="-17.8300720">
        <ele>2049.9</ele>
        <time>2020-11-16T12:06:15Z</time>
      </trkpt>
      <trkpt lat="28.7451320" lon="-17.8300720">
        <ele>2049.9</ele>
        <time>2020-11-16T12:06:16Z</time>
      </trkpt>
      <trkpt lat="28.7451530" lon="-17.8300400">
        <ele>2050.2</ele>
        <time>2020-11-16T12:06:17Z</time>
      </trkpt>
      <trkpt lat="28.7451530" lon="-17.8300400">
        <ele>2050.2</ele>
        <time>2020-11-16T12:06:18Z</time>
      </trkpt>
      <trkpt lat="28.7451720" lon="-17.8300070">
        <ele>2050.5</ele>
        <time>2020-11-16T12:06:19Z</time>
      </trkpt>
      <trkpt lat="28.7451770" lon="-17.8299880">
        <ele>2050.7</ele>
        <time>2020-11-16T12:06:20Z</time>
      </trkpt>
      <trkpt lat="28.7451770" lon="-17.8299880">
        <ele>2050.7</ele>
        <time>2020-11-16T12:06:21Z</time>
      </trkpt>
      <trkpt lat="28.7451850" lon="-17.8299530">
        <ele>2050.9</ele>
        <time>2020-11-16T12:06:22Z</time>
      </trkpt>
      <trkpt lat="28.7451850" lon="-17.8299530">
        <ele>2050.9</ele>
        <time>2020-11-16T12:06:23Z</time>
      </trkpt>
      <trkpt lat="28.7451950" lon="-17.8299180">
        <ele>2051.2</ele>
        <time>2020-11-16T12:06:24Z</time>
      </trkpt>
      <trkpt lat="28.7451980" lon="-17.8298980">
        <ele>2051.4</ele>
        <time>2020-11-16T12:06:25Z</time>
      </trkpt>
      <trkpt lat="28.7451980" lon="-17.8298980">
        <ele>2051.4</ele>
        <time>2020-11-16T12:06:26Z</time>
      </trkpt>
      <trkpt lat="28.7452070" lon="-17.8298650">
        <ele>2051.7</ele>
        <time>2020-11-16T12:06:27Z</time>
      </trkpt>
      <trkpt lat="28.7452070" lon="-17.8298650">
        <ele>2051.7</ele>
        <time>2020-11-16T12:06:28Z</time>
      </trkpt>
      <trkpt lat="28.7452250" lon="-17.8298350">
        <ele>2051.9</ele>
        <time>2020-11-16T12:06:29Z</time>
      </trkpt>
      <trkpt lat="28.7452250" lon="-17.8298350">
        <ele>2051.9</ele>
        <time>2020-11-16T12:06:30Z</time>
      </trkpt>
      <trkpt lat="28.7452430" lon="-17.8298020">
        <ele>2052.2</ele>
        <time>2020-11-16T12:06:31Z</time>
      </trkpt>
      <trkpt lat="28.7452480" lon="-17.8297830">
        <ele>2052.4</ele>
        <time>2020-11-16T12:06:32Z</time>
      </trkpt>
      <trkpt lat="28.7452480" lon="-17.8297830">
        <ele>2052.4</ele>
        <time>2020-11-16T12:06:33Z</time>
      </trkpt>
      <trkpt lat="28.7452480" lon="-17.8297520">
        <ele>2052.6</ele>
        <time>2020-11-16T12:06:34Z</time>
      </trkpt>
      <trkpt lat="28.7452480" lon="-17.8297520">
        <ele>2052.6</ele>
        <time>2020-11-16T12:06:35Z</time>
      </trkpt>
      <trkpt lat="28.7452650" lon="-17.8297220">
        <ele>2052.9</ele>
        <time>2020-11-16T12:06:36Z</time>
      </trkpt>
      <trkpt lat="28.7452650" lon="-17.8297220">
        <ele>2052.9</ele>
        <time>2020-11-16T12:06:37Z</time>
      </trkpt>
      <trkpt lat="28.7452830" lon="-17.8296920">
        <ele>2053.2</ele>
        <time>2020-11-16T12:06:38Z</time>
      </trkpt>
      <trkpt lat="28.7452830" lon="-17.8296920">
        <ele>2053.2</ele>
        <time>2020-11-16T12:06:39Z</time>
      </trkpt>
      <trkpt lat="28.7453020" lon="-17.8296580">
        <ele>2053.5</ele>
        <time>2020-11-16T12:06:40Z</time>
      </trkpt>
      <trkpt lat="28.7453120" lon="-17.8296430">
        <ele>2053.7</ele>
        <time>2020-11-16T12:06:41Z</time>
      </trkpt>
      <trkpt lat="28.7453120" lon="-17.8296430">
        <ele>2053.7</ele>
        <time>2020-11-16T12:06:42Z</time>
      </trkpt>
      <trkpt lat="28.7453370" lon="-17.8296150">
        <ele>2054.0</ele>
        <time>2020-11-16T12:06:43Z</time>
      </trkpt>
      <trkpt lat="28.7453500" lon="-17.8296000">
        <ele>2054.1</ele>
        <time>2020-11-16T12:06:44Z</time>
      </trkpt>
      <trkpt lat="28.7453500" lon="-17.8296000">
        <ele>2054.1</ele>
        <time>2020-11-16T12:06:45Z</time>
      </trkpt>
      <trkpt lat="28.7453750" lon="-17.8295750">
        <ele>2054.4</ele>
        <time>2020-11-16T12:06:46Z</time>
      </trkpt>
      <trkpt lat="28.7453870" lon="-17.8295650">
        <ele>2054.6</ele>
        <time>2020-11-16T12:06:47Z</time>
      </trkpt>
      <trkpt lat="28.7453870" lon="-17.8295650">
        <ele>2054.6</ele>
        <time>2020-11-16T12:06:48Z</time>
      </trkpt>
      <trkpt lat="28.7454130" lon="-17.8295430">
        <ele>2054.9</ele>
        <time>2020-11-16T12:06:49Z</time>
      </trkpt>
      <trkpt lat="28.7454280" lon="-17.8295330">
        <ele>2055.0</ele>
        <time>2020-11-16T12:06:50Z</time>
      </trkpt>
      <trkpt lat="28.7454280" lon="-17.8295330">
        <ele>2055.0</ele>
        <time>2020-11-16T12:06:51Z</time>
      </trkpt>
      <trkpt lat="28.7454570" lon="-17.8295170">
        <ele>2055.3</ele>
        <time>2020-11-16T12:06:52Z</time>
      </trkpt>
      <trkpt lat="28.7454570" lon="-17.8295170">
        <ele>2055.3</ele>
        <time>2020-11-16T12:06:53Z</time>
      </trkpt>
      <trkpt lat="28.7454920" lon="-17.8294930">
        <ele>2055.7</ele>
        <time>2020-11-16T12:06:54Z</time>
      </trkpt>
      <trkpt lat="28.7455100" lon="-17.8294820">
        <ele>2055.8</ele>
        <time>2020-11-16T12:06:55Z</time>
      </trkpt>
      <trkpt lat="28.7455270" lon="-17.8294720">
        <ele>2056.0</ele>
        <time>2020-11-16T12:06:56Z</time>
      </trkpt>
      <trkpt lat="28.7455270" lon="-17.8294720">
        <ele>2056.0</ele>
        <time>2020-11-16T12:06:57Z</time>
      </trkpt>
      <trkpt lat="28.7455600" lon="-17.8294500">
        <ele>2056.3</ele>
        <time>2020-11-16T12:06:58Z</time>
      </trkpt>
      <trkpt lat="28.7455600" lon="-17.8294500">
        <ele>2056.3</ele>
        <time>2020-11-16T12:06:59Z</time>
      </trkpt>
      <trkpt lat="28.7455920" lon="-17.8294280">
        <ele>2056.7</ele>
        <time>2020-11-16T12:07:00Z</time>
      </trkpt>
      <trkpt lat="28.7456080" lon="-17.8294200">
        <ele>2056.8</ele>
        <time>2020-11-16T12:07:01Z</time>
      </trkpt>
      <trkpt lat="28.7456080" lon="-17.8294200">
        <ele>2056.8</ele>
        <time>2020-11-16T12:07:02Z</time>
      </trkpt>
      <trkpt lat="28.7456420" lon="-17.8294070">
        <ele>2057.2</ele>
        <time>2020-11-16T12:07:03Z</time>
      </trkpt>
      <trkpt lat="28.7456420" lon="-17.8294070">
        <ele>2057.2</ele>
        <time>2020-11-16T12:07:04Z</time>
      </trkpt>
      <trkpt lat="28.7456750" lon="-17.8294000">
        <ele>2057.4</ele>
        <time>2020-11-16T12:07:05Z</time>
      </trkpt>
      <trkpt lat="28.7456750" lon="-17.8294000">
        <ele>2057.4</ele>
        <time>2020-11-16T12:07:06Z</time>
      </trkpt>
      <trkpt lat="28.7457080" lon="-17.8293980">
        <ele>2057.7</ele>
        <time>2020-11-16T12:07:07Z</time>
      </trkpt>
      <trkpt lat="28.7457250" lon="-17.8293970">
        <ele>2057.9</ele>
        <time>2020-11-16T12:07:08Z</time>
      </trkpt>
      <trkpt lat="28.7457250" lon="-17.8293970">
        <ele>2057.9</ele>
        <time>2020-11-16T12:07:09Z</time>
      </trkpt>
      <trkpt lat="28.7457600" lon="-17.8293950">
        <ele>2058.2</ele>
        <time>2020-11-16T12:07:10Z</time>
      </trkpt>
      <trkpt lat="28.7457600" lon="-17.8293950">
        <ele>2058.2</ele>
        <time>2020-11-16T12:07:11Z</time>
      </trkpt>
      <trkpt lat="28.7457970" lon="-17.8293920">
        <ele>2058.5</ele>
        <time>2020-11-16T12:07:12Z</time>
      </trkpt>
      <trkpt lat="28.7458150" lon="-17.8293900">
        <ele>2058.7</ele>
        <time>2020-11-16T12:07:13Z</time>
      </trkpt>
      <trkpt lat="28.7458150" lon="-17.8293900">
        <ele>2058.7</ele>
        <time>2020-11-16T12:07:14Z</time>
      </trkpt>
      <trkpt lat="28.7458500" lon="-17.8293930">
        <ele>2059.0</ele>
        <time>2020-11-16T12:07:15Z</time>
      </trkpt>
      <trkpt lat="28.7458680" lon="-17.8294000">
        <ele>2059.2</ele>
        <time>2020-11-16T12:07:16Z</time>
      </trkpt>
      <trkpt lat="28.7458680" lon="-17.8294000">
        <ele>2059.2</ele>
        <time>2020-11-16T12:07:17Z</time>
      </trkpt>
      <trkpt lat="28.7458980" lon="-17.8294200">
        <ele>2059.5</ele>
        <time>2020-11-16T12:07:18Z</time>
      </trkpt>
      <trkpt lat="28.7459130" lon="-17.8294330">
        <ele>2059.7</ele>
        <time>2020-11-16T12:07:19Z</time>
      </trkpt>
      <trkpt lat="28.7459300" lon="-17.8294430">
        <ele>2059.8</ele>
        <time>2020-11-16T12:07:20Z</time>
      </trkpt>
      <trkpt lat="28.7459300" lon="-17.8294430">
        <ele>2059.8</ele>
        <time>2020-11-16T12:07:21Z</time>
      </trkpt>
      <trkpt lat="28.7459520" lon="-17.8294470">
        <ele>2060.0</ele>
        <time>2020-11-16T12:07:22Z</time>
      </trkpt>
      <trkpt lat="28.7459520" lon="-17.8294470">
        <ele>2060.0</ele>
        <time>2020-11-16T12:07:23Z</time>
      </trkpt>
      <trkpt lat="28.7459670" lon="-17.8294300">
        <ele>2060.2</ele>
        <time>2020-11-16T12:07:24Z</time>
      </trkpt>
      <trkpt lat="28.7459670" lon="-17.8294300">
        <ele>2060.2</ele>
        <time>2020-11-16T12:07:25Z</time>
      </trkpt>
      <trkpt lat="28.7459850" lon="-17.8294100">
        <ele>2060.4</ele>
        <time>2020-11-16T12:07:26Z</time>
      </trkpt>
      <trkpt lat="28.7459850" lon="-17.8294100">
        <ele>2060.4</ele>
        <time>2020-11-16T12:07:27Z</time>
      </trkpt>
      <trkpt lat="28.7459970" lon="-17.8294020">
        <ele>2060.6</ele>
        <time>2020-11-16T12:07:28Z</time>
      </trkpt>
      <trkpt lat="28.7459970" lon="-17.8294020">
        <ele>2060.6</ele>
        <time>2020-11-16T12:07:29Z</time>
      </trkpt>
      <trkpt lat="28.7459970" lon="-17.8294020">
        <ele>2060.6</ele>
        <time>2020-11-16T12:07:30Z</time>
      </trkpt>
      <trkpt lat="28.7459970" lon="-17.8294020">
        <ele>2060.6</ele>
        <time>2020-11-16T12:08:01Z</time>
      </trkpt>
      <trkpt lat="28.7459970" lon="-17.8294020">
        <ele>2060.6</ele>
        <time>2020-11-16T12:08:02Z</time>
      </trkpt>
      <trkpt lat="28.7459970" lon="-17.8294020">
        <ele>2060.6</ele>
        <time>2020-11-16T12:08:07Z</time>
      </trkpt>
      <trkpt lat="28.7459870" lon="-17.8295020">
        <ele>2061.3</ele>
        <time>2020-11-16T12:08:08Z</time>
      </trkpt>
      <trkpt lat="28.7459870" lon="-17.8295020">
        <ele>2061.3</ele>
        <time>2020-11-16T12:08:09Z</time>
      </trkpt>
      <trkpt lat="28.7460100" lon="-17.8295420">
        <ele>2061.7</ele>
        <time>2020-11-16T12:08:10Z</time>
      </trkpt>
      <trkpt lat="28.7460100" lon="-17.8295420">
        <ele>2061.7</ele>
        <time>2020-11-16T12:08:11Z</time>
      </trkpt>
      <trkpt lat="28.7460370" lon="-17.8295880">
        <ele>2062.1</ele>
        <time>2020-11-16T12:08:12Z</time>
      </trkpt>
      <trkpt lat="28.7460520" lon="-17.8296270">
        <ele>2062.5</ele>
        <time>2020-11-16T12:08:13Z</time>
      </trkpt>
      <trkpt lat="28.7460520" lon="-17.8296270">
        <ele>2062.5</ele>
        <time>2020-11-16T12:08:14Z</time>
      </trkpt>
      <trkpt lat="28.7460520" lon="-17.8296270">
        <ele>2062.5</ele>
        <time>2020-11-16T12:08:15Z</time>
      </trkpt>
      <trkpt lat="28.7460650" lon="-17.8296650">
        <ele>2062.8</ele>
        <time>2020-11-16T12:08:16Z</time>
      </trkpt>
      <trkpt lat="28.7460650" lon="-17.8296650">
        <ele>2062.8</ele>
        <time>2020-11-16T12:08:17Z</time>
      </trkpt>
      <trkpt lat="28.7460820" lon="-17.8297050">
        <ele>2063.1</ele>
        <time>2020-11-16T12:08:18Z</time>
      </trkpt>
      <trkpt lat="28.7460920" lon="-17.8297230">
        <ele>2063.3</ele>
        <time>2020-11-16T12:08:19Z</time>
      </trkpt>
      <trkpt lat="28.7460950" lon="-17.8297400">
        <ele>2063.4</ele>
        <time>2020-11-16T12:08:20Z</time>
      </trkpt>
      <trkpt lat="28.7460950" lon="-17.8297400">
        <ele>2063.4</ele>
        <time>2020-11-16T12:08:21Z</time>
      </trkpt>
      <trkpt lat="28.7461000" lon="-17.8297770">
        <ele>2063.7</ele>
        <time>2020-11-16T12:08:22Z</time>
      </trkpt>
      <trkpt lat="28.7461000" lon="-17.8297770">
        <ele>2063.7</ele>
        <time>2020-11-16T12:08:23Z</time>
      </trkpt>
      <trkpt lat="28.7461070" lon="-17.8298130">
        <ele>2064.0</ele>
        <time>2020-11-16T12:08:24Z</time>
      </trkpt>
      <trkpt lat="28.7461070" lon="-17.8298130">
        <ele>2064.0</ele>
        <time>2020-11-16T12:08:25Z</time>
      </trkpt>
      <trkpt lat="28.7461150" lon="-17.8298570">
        <ele>2064.4</ele>
        <time>2020-11-16T12:08:26Z</time>
      </trkpt>
      <trkpt lat="28.7461150" lon="-17.8298570">
        <ele>2064.4</ele>
        <time>2020-11-16T12:08:27Z</time>
      </trkpt>
      <trkpt lat="28.7461230" lon="-17.8298980">
        <ele>2064.7</ele>
        <time>2020-11-16T12:08:28Z</time>
      </trkpt>
      <trkpt lat="28.7461280" lon="-17.8299180">
        <ele>2064.9</ele>
        <time>2020-11-16T12:08:29Z</time>
      </trkpt>
      <trkpt lat="28.7461280" lon="-17.8299180">
        <ele>2064.9</ele>
        <time>2020-11-16T12:08:30Z</time>
      </trkpt>
      <trkpt lat="28.7461320" lon="-17.8299600">
        <ele>2065.2</ele>
        <time>2020-11-16T12:08:31Z</time>
      </trkpt>
      <trkpt lat="28.7461300" lon="-17.8299820">
        <ele>2065.4</ele>
        <time>2020-11-16T12:08:32Z</time>
      </trkpt>
      <trkpt lat="28.7461300" lon="-17.8299820">
        <ele>2065.4</ele>
        <time>2020-11-16T12:08:33Z</time>
      </trkpt>
      <trkpt lat="28.7461300" lon="-17.8300280">
        <ele>2065.7</ele>
        <time>2020-11-16T12:08:34Z</time>
      </trkpt>
      <trkpt lat="28.7461300" lon="-17.8300280">
        <ele>2065.7</ele>
        <time>2020-11-16T12:08:35Z</time>
      </trkpt>
      <trkpt lat="28.7461320" lon="-17.8300700">
        <ele>2066.0</ele>
        <time>2020-11-16T12:08:36Z</time>
      </trkpt>
      <trkpt lat="28.7461320" lon="-17.8300700">
        <ele>2066.0</ele>
        <time>2020-11-16T12:08:37Z</time>
      </trkpt>
      <trkpt lat="28.7461370" lon="-17.8301080">
        <ele>2066.3</ele>
        <time>2020-11-16T12:08:38Z</time>
      </trkpt>
      <trkpt lat="28.7461370" lon="-17.8301080">
        <ele>2066.3</ele>
        <time>2020-11-16T12:08:39Z</time>
      </trkpt>
      <trkpt lat="28.7461500" lon="-17.8301570">
        <ele>2066.7</ele>
        <time>2020-11-16T12:08:40Z</time>
      </trkpt>
      <trkpt lat="28.7461500" lon="-17.8301570">
        <ele>2066.7</ele>
        <time>2020-11-16T12:08:41Z</time>
      </trkpt>
      <trkpt lat="28.7461500" lon="-17.8301980">
        <ele>2067.1</ele>
        <time>2020-11-16T12:08:42Z</time>
      </trkpt>
      <trkpt lat="28.7461500" lon="-17.8301980">
        <ele>2067.1</ele>
        <time>2020-11-16T12:08:43Z</time>
      </trkpt>
      <trkpt lat="28.7461500" lon="-17.8302420">
        <ele>2067.4</ele>
        <time>2020-11-16T12:08:44Z</time>
      </trkpt>
      <trkpt lat="28.7461500" lon="-17.8302420">
        <ele>2067.4</ele>
        <time>2020-11-16T12:08:45Z</time>
      </trkpt>
      <trkpt lat="28.7461550" lon="-17.8302850">
        <ele>2067.7</ele>
        <time>2020-11-16T12:08:46Z</time>
      </trkpt>
      <trkpt lat="28.7461550" lon="-17.8302850">
        <ele>2067.7</ele>
        <time>2020-11-16T12:08:47Z</time>
      </trkpt>
      <trkpt lat="28.7461580" lon="-17.8303280">
        <ele>2068.1</ele>
        <time>2020-11-16T12:08:48Z</time>
      </trkpt>
      <trkpt lat="28.7461580" lon="-17.8303280">
        <ele>2068.1</ele>
        <time>2020-11-16T12:08:49Z</time>
      </trkpt>
      <trkpt lat="28.7461620" lon="-17.8303680">
        <ele>2068.4</ele>
        <time>2020-11-16T12:08:50Z</time>
      </trkpt>
      <trkpt lat="28.7461620" lon="-17.8303680">
        <ele>2068.4</ele>
        <time>2020-11-16T12:08:51Z</time>
      </trkpt>
      <trkpt lat="28.7461630" lon="-17.8304100">
        <ele>2068.7</ele>
        <time>2020-11-16T12:08:52Z</time>
      </trkpt>
      <trkpt lat="28.7461650" lon="-17.8304280">
        <ele>2068.9</ele>
        <time>2020-11-16T12:08:53Z</time>
      </trkpt>
      <trkpt lat="28.7461650" lon="-17.8304280">
        <ele>2068.9</ele>
        <time>2020-11-16T12:08:54Z</time>
      </trkpt>
      <trkpt lat="28.7461730" lon="-17.8304670">
        <ele>2069.2</ele>
        <time>2020-11-16T12:08:55Z</time>
      </trkpt>
      <trkpt lat="28.7461800" lon="-17.8304870">
        <ele>2069.4</ele>
        <time>2020-11-16T12:08:56Z</time>
      </trkpt>
      <trkpt lat="28.7461800" lon="-17.8304870">
        <ele>2069.4</ele>
        <time>2020-11-16T12:08:57Z</time>
      </trkpt>
      <trkpt lat="28.7461950" lon="-17.8305300">
        <ele>2069.7</ele>
        <time>2020-11-16T12:08:58Z</time>
      </trkpt>
      <trkpt lat="28.7461950" lon="-17.8305300">
        <ele>2069.7</ele>
        <time>2020-11-16T12:08:59Z</time>
      </trkpt>
      <trkpt lat="28.7462030" lon="-17.8305680">
        <ele>2070.0</ele>
        <time>2020-11-16T12:09:00Z</time>
      </trkpt>
      <trkpt lat="28.7462030" lon="-17.8305680">
        <ele>2070.0</ele>
        <time>2020-11-16T12:09:01Z</time>
      </trkpt>
      <trkpt lat="28.7462180" lon="-17.8305980">
        <ele>2070.4</ele>
        <time>2020-11-16T12:09:02Z</time>
      </trkpt>
      <trkpt lat="28.7462180" lon="-17.8305980">
        <ele>2070.4</ele>
        <time>2020-11-16T12:09:03Z</time>
      </trkpt>
      <trkpt lat="28.7462420" lon="-17.8306250">
        <ele>2070.7</ele>
        <time>2020-11-16T12:09:04Z</time>
      </trkpt>
      <trkpt lat="28.7462420" lon="-17.8306250">
        <ele>2070.7</ele>
        <time>2020-11-16T12:09:05Z</time>
      </trkpt>
      <trkpt lat="28.7462670" lon="-17.8306500">
        <ele>2071.0</ele>
        <time>2020-11-16T12:09:06Z</time>
      </trkpt>
      <trkpt lat="28.7462780" lon="-17.8306580">
        <ele>2071.1</ele>
        <time>2020-11-16T12:09:07Z</time>
      </trkpt>
      <trkpt lat="28.7462930" lon="-17.8306670">
        <ele>2071.2</ele>
        <time>2020-11-16T12:09:08Z</time>
      </trkpt>
      <trkpt lat="28.7462930" lon="-17.8306670">
        <ele>2071.2</ele>
        <time>2020-11-16T12:09:09Z</time>
      </trkpt>
      <trkpt lat="28.7463250" lon="-17.8306750">
        <ele>2071.5</ele>
        <time>2020-11-16T12:09:10Z</time>
      </trkpt>
      <trkpt lat="28.7463450" lon="-17.8306750">
        <ele>2071.7</ele>
        <time>2020-11-16T12:09:11Z</time>
      </trkpt>
      <trkpt lat="28.7463450" lon="-17.8306750">
        <ele>2071.7</ele>
        <time>2020-11-16T12:09:12Z</time>
      </trkpt>
      <trkpt lat="28.7463800" lon="-17.8306800">
        <ele>2072.0</ele>
        <time>2020-11-16T12:09:13Z</time>
      </trkpt>
      <trkpt lat="28.7463800" lon="-17.8306800">
        <ele>2072.0</ele>
        <time>2020-11-16T12:09:14Z</time>
      </trkpt>
      <trkpt lat="28.7464100" lon="-17.8306850">
        <ele>2072.3</ele>
        <time>2020-11-16T12:09:15Z</time>
      </trkpt>
      <trkpt lat="28.7464100" lon="-17.8306850">
        <ele>2072.3</ele>
        <time>2020-11-16T12:09:16Z</time>
      </trkpt>
      <trkpt lat="28.7464450" lon="-17.8306880">
        <ele>2072.6</ele>
        <time>2020-11-16T12:09:17Z</time>
      </trkpt>
      <trkpt lat="28.7464450" lon="-17.8306880">
        <ele>2072.6</ele>
        <time>2020-11-16T12:09:18Z</time>
      </trkpt>
      <trkpt lat="28.7464770" lon="-17.8306900">
        <ele>2072.9</ele>
        <time>2020-11-16T12:09:19Z</time>
      </trkpt>
      <trkpt lat="28.7464900" lon="-17.8306930">
        <ele>2073.0</ele>
        <time>2020-11-16T12:09:20Z</time>
      </trkpt>
      <trkpt lat="28.7464900" lon="-17.8306930">
        <ele>2073.0</ele>
        <time>2020-11-16T12:09:21Z</time>
      </trkpt>
      <trkpt lat="28.7465250" lon="-17.8306980">
        <ele>2073.3</ele>
        <time>2020-11-16T12:09:22Z</time>
      </trkpt>
      <trkpt lat="28.7465250" lon="-17.8306980">
        <ele>2073.3</ele>
        <time>2020-11-16T12:09:23Z</time>
      </trkpt>
      <trkpt lat="28.7465600" lon="-17.8307000">
        <ele>2073.6</ele>
        <time>2020-11-16T12:09:24Z</time>
      </trkpt>
      <trkpt lat="28.7465600" lon="-17.8307000">
        <ele>2073.6</ele>
        <time>2020-11-16T12:09:25Z</time>
      </trkpt>
      <trkpt lat="28.7465950" lon="-17.8307020">
        <ele>2073.9</ele>
        <time>2020-11-16T12:09:26Z</time>
      </trkpt>
      <trkpt lat="28.7465950" lon="-17.8307020">
        <ele>2073.9</ele>
        <time>2020-11-16T12:09:27Z</time>
      </trkpt>
      <trkpt lat="28.7466280" lon="-17.8306980">
        <ele>2074.2</ele>
        <time>2020-11-16T12:09:28Z</time>
      </trkpt>
      <trkpt lat="28.7466470" lon="-17.8306970">
        <ele>2074.4</ele>
        <time>2020-11-16T12:09:29Z</time>
      </trkpt>
      <trkpt lat="28.7466650" lon="-17.8306970">
        <ele>2074.6</ele>
        <time>2020-11-16T12:09:30Z</time>
      </trkpt>
      <trkpt lat="28.7466650" lon="-17.8306970">
        <ele>2074.6</ele>
        <time>2020-11-16T12:09:31Z</time>
      </trkpt>
      <trkpt lat="28.7467020" lon="-17.8307000">
        <ele>2074.9</ele>
        <time>2020-11-16T12:09:32Z</time>
      </trkpt>
      <trkpt lat="28.7467020" lon="-17.8307000">
        <ele>2074.9</ele>
        <time>2020-11-16T12:09:33Z</time>
      </trkpt>
      <trkpt lat="28.7467370" lon="-17.8307050">
        <ele>2075.2</ele>
        <time>2020-11-16T12:09:34Z</time>
      </trkpt>
      <trkpt lat="28.7467570" lon="-17.8307170">
        <ele>2075.4</ele>
        <time>2020-11-16T12:09:35Z</time>
      </trkpt>
      <trkpt lat="28.7467770" lon="-17.8307250">
        <ele>2075.6</ele>
        <time>2020-11-16T12:09:36Z</time>
      </trkpt>
      <trkpt lat="28.7467770" lon="-17.8307250">
        <ele>2075.6</ele>
        <time>2020-11-16T12:09:37Z</time>
      </trkpt>
      <trkpt lat="28.7468150" lon="-17.8307370">
        <ele>2076.0</ele>
        <time>2020-11-16T12:09:38Z</time>
      </trkpt>
      <trkpt lat="28.7468150" lon="-17.8307370">
        <ele>2076.0</ele>
        <time>2020-11-16T12:09:39Z</time>
      </trkpt>
      <trkpt lat="28.7468500" lon="-17.8307550">
        <ele>2076.3</ele>
        <time>2020-11-16T12:09:40Z</time>
      </trkpt>
      <trkpt lat="28.7468680" lon="-17.8307650">
        <ele>2076.5</ele>
        <time>2020-11-16T12:09:41Z</time>
      </trkpt>
      <trkpt lat="28.7468680" lon="-17.8307650">
        <ele>2076.5</ele>
        <time>2020-11-16T12:09:42Z</time>
      </trkpt>
      <trkpt lat="28.7469000" lon="-17.8307870">
        <ele>2076.8</ele>
        <time>2020-11-16T12:09:43Z</time>
      </trkpt>
      <trkpt lat="28.7469080" lon="-17.8308030">
        <ele>2076.9</ele>
        <time>2020-11-16T12:09:44Z</time>
      </trkpt>
      <trkpt lat="28.7469080" lon="-17.8308030">
        <ele>2076.9</ele>
        <time>2020-11-16T12:09:45Z</time>
      </trkpt>
      <trkpt lat="28.7469370" lon="-17.8308300">
        <ele>2077.3</ele>
        <time>2020-11-16T12:09:46Z</time>
      </trkpt>
      <trkpt lat="28.7469370" lon="-17.8308300">
        <ele>2077.3</ele>
        <time>2020-11-16T12:09:47Z</time>
      </trkpt>
      <trkpt lat="28.7469650" lon="-17.8308580">
        <ele>2077.6</ele>
        <time>2020-11-16T12:09:48Z</time>
      </trkpt>
      <trkpt lat="28.7469650" lon="-17.8308580">
        <ele>2077.6</ele>
        <time>2020-11-16T12:09:49Z</time>
      </trkpt>
      <trkpt lat="28.7469880" lon="-17.8308930">
        <ele>2078.0</ele>
        <time>2020-11-16T12:09:50Z</time>
      </trkpt>
      <trkpt lat="28.7469880" lon="-17.8308930">
        <ele>2078.0</ele>
        <time>2020-11-16T12:09:51Z</time>
      </trkpt>
      <trkpt lat="28.7470120" lon="-17.8309320">
        <ele>2078.4</ele>
        <time>2020-11-16T12:09:52Z</time>
      </trkpt>
      <trkpt lat="28.7470120" lon="-17.8309320">
        <ele>2078.4</ele>
        <time>2020-11-16T12:09:53Z</time>
      </trkpt>
      <trkpt lat="28.7470280" lon="-17.8309720">
        <ele>2078.7</ele>
        <time>2020-11-16T12:09:54Z</time>
      </trkpt>
      <trkpt lat="28.7470380" lon="-17.8309930">
        <ele>2078.9</ele>
        <time>2020-11-16T12:09:55Z</time>
      </trkpt>
      <trkpt lat="28.7470450" lon="-17.8310150">
        <ele>2079.1</ele>
        <time>2020-11-16T12:09:56Z</time>
      </trkpt>
      <trkpt lat="28.7470450" lon="-17.8310150">
        <ele>2079.1</ele>
        <time>2020-11-16T12:09:57Z</time>
      </trkpt>
      <trkpt lat="28.7470530" lon="-17.8310520">
        <ele>2079.4</ele>
        <time>2020-11-16T12:09:58Z</time>
      </trkpt>
      <trkpt lat="28.7470530" lon="-17.8310520">
        <ele>2079.4</ele>
        <time>2020-11-16T12:09:59Z</time>
      </trkpt>
      <trkpt lat="28.7470620" lon="-17.8310970">
        <ele>2079.7</ele>
        <time>2020-11-16T12:10:00Z</time>
      </trkpt>
      <trkpt lat="28.7470620" lon="-17.8310970">
        <ele>2079.7</ele>
        <time>2020-11-16T12:10:01Z</time>
      </trkpt>
      <trkpt lat="28.7470700" lon="-17.8311370">
        <ele>2080.1</ele>
        <time>2020-11-16T12:10:02Z</time>
      </trkpt>
      <trkpt lat="28.7470700" lon="-17.8311370">
        <ele>2080.1</ele>
        <time>2020-11-16T12:10:03Z</time>
      </trkpt>
      <trkpt lat="28.7470780" lon="-17.8311750">
        <ele>2080.4</ele>
        <time>2020-11-16T12:10:04Z</time>
      </trkpt>
      <trkpt lat="28.7470780" lon="-17.8311750">
        <ele>2080.4</ele>
        <time>2020-11-16T12:10:05Z</time>
      </trkpt>
      <trkpt lat="28.7470850" lon="-17.8312180">
        <ele>2080.7</ele>
        <time>2020-11-16T12:10:06Z</time>
      </trkpt>
      <trkpt lat="28.7470850" lon="-17.8312180">
        <ele>2080.7</ele>
        <time>2020-11-16T12:10:07Z</time>
      </trkpt>
      <trkpt lat="28.7470900" lon="-17.8312650">
        <ele>2081.1</ele>
        <time>2020-11-16T12:10:08Z</time>
      </trkpt>
      <trkpt lat="28.7470900" lon="-17.8312650">
        <ele>2081.1</ele>
        <time>2020-11-16T12:10:09Z</time>
      </trkpt>
      <trkpt lat="28.7470970" lon="-17.8313070">
        <ele>2081.4</ele>
        <time>2020-11-16T12:10:10Z</time>
      </trkpt>
      <trkpt lat="28.7471000" lon="-17.8313280">
        <ele>2081.6</ele>
        <time>2020-11-16T12:10:11Z</time>
      </trkpt>
      <trkpt lat="28.7471000" lon="-17.8313280">
        <ele>2081.6</ele>
        <time>2020-11-16T12:10:12Z</time>
      </trkpt>
      <trkpt lat="28.7470970" lon="-17.8313720">
        <ele>2081.9</ele>
        <time>2020-11-16T12:10:13Z</time>
      </trkpt>
      <trkpt lat="28.7470970" lon="-17.8313720">
        <ele>2081.9</ele>
        <time>2020-11-16T12:10:14Z</time>
      </trkpt>
      <trkpt lat="28.7470900" lon="-17.8314150">
        <ele>2082.2</ele>
        <time>2020-11-16T12:10:15Z</time>
      </trkpt>
      <trkpt lat="28.7470900" lon="-17.8314150">
        <ele>2082.2</ele>
        <time>2020-11-16T12:10:16Z</time>
      </trkpt>
      <trkpt lat="28.7470930" lon="-17.8314580">
        <ele>2082.6</ele>
        <time>2020-11-16T12:10:17Z</time>
      </trkpt>
      <trkpt lat="28.7470930" lon="-17.8314580">
        <ele>2082.6</ele>
        <time>2020-11-16T12:10:18Z</time>
      </trkpt>
      <trkpt lat="28.7470970" lon="-17.8314980">
        <ele>2082.9</ele>
        <time>2020-11-16T12:10:19Z</time>
      </trkpt>
      <trkpt lat="28.7470980" lon="-17.8315220">
        <ele>2083.1</ele>
        <time>2020-11-16T12:10:20Z</time>
      </trkpt>
      <trkpt lat="28.7470980" lon="-17.8315220">
        <ele>2083.1</ele>
        <time>2020-11-16T12:10:21Z</time>
      </trkpt>
      <trkpt lat="28.7471000" lon="-17.8315630">
        <ele>2083.4</ele>
        <time>2020-11-16T12:10:22Z</time>
      </trkpt>
      <trkpt lat="28.7471030" lon="-17.8315870">
        <ele>2083.6</ele>
        <time>2020-11-16T12:10:23Z</time>
      </trkpt>
      <trkpt lat="28.7471030" lon="-17.8315870">
        <ele>2083.6</ele>
        <time>2020-11-16T12:10:24Z</time>
      </trkpt>
      <trkpt lat="28.7471150" lon="-17.8316300">
        <ele>2083.9</ele>
        <time>2020-11-16T12:10:25Z</time>
      </trkpt>
      <trkpt lat="28.7471270" lon="-17.8316480">
        <ele>2084.1</ele>
        <time>2020-11-16T12:10:26Z</time>
      </trkpt>
      <trkpt lat="28.7471270" lon="-17.8316480">
        <ele>2084.1</ele>
        <time>2020-11-16T12:10:27Z</time>
      </trkpt>
      <trkpt lat="28.7471520" lon="-17.8316830">
        <ele>2084.4</ele>
        <time>2020-11-16T12:10:28Z</time>
      </trkpt>
      <trkpt lat="28.7471650" lon="-17.8317020">
        <ele>2084.6</ele>
        <time>2020-11-16T12:10:29Z</time>
      </trkpt>
      <trkpt lat="28.7471650" lon="-17.8317020">
        <ele>2084.6</ele>
        <time>2020-11-16T12:10:30Z</time>
      </trkpt>
      <trkpt lat="28.7471950" lon="-17.8317370">
        <ele>2085.0</ele>
        <time>2020-11-16T12:10:31Z</time>
      </trkpt>
      <trkpt lat="28.7471950" lon="-17.8317370">
        <ele>2085.0</ele>
        <time>2020-11-16T12:10:32Z</time>
      </trkpt>
      <trkpt lat="28.7472200" lon="-17.8317700">
        <ele>2085.3</ele>
        <time>2020-11-16T12:10:33Z</time>
      </trkpt>
      <trkpt lat="28.7472200" lon="-17.8317700">
        <ele>2085.3</ele>
        <time>2020-11-16T12:10:34Z</time>
      </trkpt>
      <trkpt lat="28.7472530" lon="-17.8318000">
        <ele>2085.7</ele>
        <time>2020-11-16T12:10:35Z</time>
      </trkpt>
      <trkpt lat="28.7472670" lon="-17.8318150">
        <ele>2085.9</ele>
        <time>2020-11-16T12:10:36Z</time>
      </trkpt>
      <trkpt lat="28.7472670" lon="-17.8318150">
        <ele>2085.9</ele>
        <time>2020-11-16T12:10:37Z</time>
      </trkpt>
      <trkpt lat="28.7472930" lon="-17.8318430">
        <ele>2086.2</ele>
        <time>2020-11-16T12:10:38Z</time>
      </trkpt>
      <trkpt lat="28.7472930" lon="-17.8318430">
        <ele>2086.2</ele>
        <time>2020-11-16T12:10:39Z</time>
      </trkpt>
      <trkpt lat="28.7473150" lon="-17.8318720">
        <ele>2086.5</ele>
        <time>2020-11-16T12:10:40Z</time>
      </trkpt>
      <trkpt lat="28.7473150" lon="-17.8318720">
        <ele>2086.5</ele>
        <time>2020-11-16T12:10:41Z</time>
      </trkpt>
      <trkpt lat="28.7473280" lon="-17.8319130">
        <ele>2086.8</ele>
        <time>2020-11-16T12:10:42Z</time>
      </trkpt>
      <trkpt lat="28.7473280" lon="-17.8319130">
        <ele>2086.8</ele>
        <time>2020-11-16T12:10:43Z</time>
      </trkpt>
      <trkpt lat="28.7473400" lon="-17.8319530">
        <ele>2087.2</ele>
        <time>2020-11-16T12:10:44Z</time>
      </trkpt>
      <trkpt lat="28.7473400" lon="-17.8319530">
        <ele>2087.2</ele>
        <time>2020-11-16T12:10:45Z</time>
      </trkpt>
      <trkpt lat="28.7473520" lon="-17.8319880">
        <ele>2087.5</ele>
        <time>2020-11-16T12:10:46Z</time>
      </trkpt>
      <trkpt lat="28.7473520" lon="-17.8319880">
        <ele>2087.5</ele>
        <time>2020-11-16T12:10:47Z</time>
      </trkpt>
      <trkpt lat="28.7473670" lon="-17.8320250">
        <ele>2087.8</ele>
        <time>2020-11-16T12:10:48Z</time>
      </trkpt>
      <trkpt lat="28.7473670" lon="-17.8320250">
        <ele>2087.8</ele>
        <time>2020-11-16T12:10:49Z</time>
      </trkpt>
      <trkpt lat="28.7473750" lon="-17.8320680">
        <ele>2088.1</ele>
        <time>2020-11-16T12:10:50Z</time>
      </trkpt>
      <trkpt lat="28.7473750" lon="-17.8320680">
        <ele>2088.1</ele>
        <time>2020-11-16T12:10:51Z</time>
      </trkpt>
      <trkpt lat="28.7473900" lon="-17.8321100">
        <ele>2088.5</ele>
        <time>2020-11-16T12:10:52Z</time>
      </trkpt>
      <trkpt lat="28.7473900" lon="-17.8321100">
        <ele>2088.5</ele>
        <time>2020-11-16T12:10:53Z</time>
      </trkpt>
      <trkpt lat="28.7474100" lon="-17.8321470">
        <ele>2088.8</ele>
        <time>2020-11-16T12:10:54Z</time>
      </trkpt>
      <trkpt lat="28.7474100" lon="-17.8321470">
        <ele>2088.8</ele>
        <time>2020-11-16T12:10:55Z</time>
      </trkpt>
      <trkpt lat="28.7474300" lon="-17.8321780">
        <ele>2089.1</ele>
        <time>2020-11-16T12:10:56Z</time>
      </trkpt>
      <trkpt lat="28.7474300" lon="-17.8321780">
        <ele>2089.1</ele>
        <time>2020-11-16T12:10:57Z</time>
      </trkpt>
      <trkpt lat="28.7474450" lon="-17.8322130">
        <ele>2089.4</ele>
        <time>2020-11-16T12:10:58Z</time>
      </trkpt>
      <trkpt lat="28.7474450" lon="-17.8322130">
        <ele>2089.4</ele>
        <time>2020-11-16T12:10:59Z</time>
      </trkpt>
      <trkpt lat="28.7474570" lon="-17.8322520">
        <ele>2089.7</ele>
        <time>2020-11-16T12:11:00Z</time>
      </trkpt>
      <trkpt lat="28.7474620" lon="-17.8322700">
        <ele>2089.9</ele>
        <time>2020-11-16T12:11:01Z</time>
      </trkpt>
      <trkpt lat="28.7474620" lon="-17.8322700">
        <ele>2089.9</ele>
        <time>2020-11-16T12:11:02Z</time>
      </trkpt>
      <trkpt lat="28.7474680" lon="-17.8323120">
        <ele>2090.2</ele>
        <time>2020-11-16T12:11:03Z</time>
      </trkpt>
      <trkpt lat="28.7474680" lon="-17.8323120">
        <ele>2090.2</ele>
        <time>2020-11-16T12:11:04Z</time>
      </trkpt>
      <trkpt lat="28.7474730" lon="-17.8323530">
        <ele>2090.5</ele>
        <time>2020-11-16T12:11:05Z</time>
      </trkpt>
      <trkpt lat="28.7474750" lon="-17.8323730">
        <ele>2090.7</ele>
        <time>2020-11-16T12:11:06Z</time>
      </trkpt>
      <trkpt lat="28.7474750" lon="-17.8323730">
        <ele>2090.7</ele>
        <time>2020-11-16T12:11:07Z</time>
      </trkpt>
      <trkpt lat="28.7474800" lon="-17.8324100">
        <ele>2091.0</ele>
        <time>2020-11-16T12:11:08Z</time>
      </trkpt>
      <trkpt lat="28.7474800" lon="-17.8324100">
        <ele>2091.0</ele>
        <time>2020-11-16T12:11:09Z</time>
      </trkpt>
      <trkpt lat="28.7474850" lon="-17.8324520">
        <ele>2091.3</ele>
        <time>2020-11-16T12:11:10Z</time>
      </trkpt>
      <trkpt lat="28.7474850" lon="-17.8324520">
        <ele>2091.3</ele>
        <time>2020-11-16T12:11:11Z</time>
      </trkpt>
      <trkpt lat="28.7474900" lon="-17.8324900">
        <ele>2091.6</ele>
        <time>2020-11-16T12:11:12Z</time>
      </trkpt>
      <trkpt lat="28.7474920" lon="-17.8325120">
        <ele>2091.7</ele>
        <time>2020-11-16T12:11:13Z</time>
      </trkpt>
      <trkpt lat="28.7474920" lon="-17.8325120">
        <ele>2091.7</ele>
        <time>2020-11-16T12:11:14Z</time>
      </trkpt>
      <trkpt lat="28.7474970" lon="-17.8325500">
        <ele>2092.0</ele>
        <time>2020-11-16T12:11:15Z</time>
      </trkpt>
      <trkpt lat="28.7474980" lon="-17.8325680">
        <ele>2092.2</ele>
        <time>2020-11-16T12:11:16Z</time>
      </trkpt>
      <trkpt lat="28.7474980" lon="-17.8325680">
        <ele>2092.2</ele>
        <time>2020-11-16T12:11:17Z</time>
      </trkpt>
      <trkpt lat="28.7475020" lon="-17.8326100">
        <ele>2092.5</ele>
        <time>2020-11-16T12:11:18Z</time>
      </trkpt>
      <trkpt lat="28.7475020" lon="-17.8326280">
        <ele>2092.6</ele>
        <time>2020-11-16T12:11:19Z</time>
      </trkpt>
      <trkpt lat="28.7475000" lon="-17.8326450">
        <ele>2092.8</ele>
        <time>2020-11-16T12:11:20Z</time>
      </trkpt>
      <trkpt lat="28.7475000" lon="-17.8326450">
        <ele>2092.8</ele>
        <time>2020-11-16T12:11:21Z</time>
      </trkpt>
      <trkpt lat="28.7474970" lon="-17.8326830">
        <ele>2093.1</ele>
        <time>2020-11-16T12:11:22Z</time>
      </trkpt>
      <trkpt lat="28.7474980" lon="-17.8327070">
        <ele>2093.3</ele>
        <time>2020-11-16T12:11:23Z</time>
      </trkpt>
      <trkpt lat="28.7474980" lon="-17.8327270">
        <ele>2093.4</ele>
        <time>2020-11-16T12:11:24Z</time>
      </trkpt>
      <trkpt lat="28.7474980" lon="-17.8327270">
        <ele>2093.4</ele>
        <time>2020-11-16T12:11:25Z</time>
      </trkpt>
      <trkpt lat="28.7475070" lon="-17.8327650">
        <ele>2093.7</ele>
        <time>2020-11-16T12:11:26Z</time>
      </trkpt>
      <trkpt lat="28.7475070" lon="-17.8327650">
        <ele>2093.7</ele>
        <time>2020-11-16T12:11:27Z</time>
      </trkpt>
      <trkpt lat="28.7475080" lon="-17.8328020">
        <ele>2094.0</ele>
        <time>2020-11-16T12:11:28Z</time>
      </trkpt>
      <trkpt lat="28.7475080" lon="-17.8328020">
        <ele>2094.0</ele>
        <time>2020-11-16T12:11:29Z</time>
      </trkpt>
      <trkpt lat="28.7475170" lon="-17.8328330">
        <ele>2094.3</ele>
        <time>2020-11-16T12:11:30Z</time>
      </trkpt>
      <trkpt lat="28.7475230" lon="-17.8328530">
        <ele>2094.4</ele>
        <time>2020-11-16T12:11:31Z</time>
      </trkpt>
      <trkpt lat="28.7475230" lon="-17.8328530">
        <ele>2094.4</ele>
        <time>2020-11-16T12:11:32Z</time>
      </trkpt>
      <trkpt lat="28.7475300" lon="-17.8328920">
        <ele>2094.7</ele>
        <time>2020-11-16T12:11:33Z</time>
      </trkpt>
      <trkpt lat="28.7475350" lon="-17.8329080">
        <ele>2094.9</ele>
        <time>2020-11-16T12:11:34Z</time>
      </trkpt>
      <trkpt lat="28.7475400" lon="-17.8329270">
        <ele>2095.0</ele>
        <time>2020-11-16T12:11:35Z</time>
      </trkpt>
      <trkpt lat="28.7475400" lon="-17.8329270">
        <ele>2095.0</ele>
        <time>2020-11-16T12:11:36Z</time>
      </trkpt>
      <trkpt lat="28.7475470" lon="-17.8329670">
        <ele>2095.3</ele>
        <time>2020-11-16T12:11:37Z</time>
      </trkpt>
      <trkpt lat="28.7475480" lon="-17.8329850">
        <ele>2095.5</ele>
        <time>2020-11-16T12:11:38Z</time>
      </trkpt>
      <trkpt lat="28.7475480" lon="-17.8329850">
        <ele>2095.5</ele>
        <time>2020-11-16T12:11:39Z</time>
      </trkpt>
      <trkpt lat="28.7475580" lon="-17.8330170">
        <ele>2095.7</ele>
        <time>2020-11-16T12:11:40Z</time>
      </trkpt>
      <trkpt lat="28.7475630" lon="-17.8330350">
        <ele>2095.9</ele>
        <time>2020-11-16T12:11:41Z</time>
      </trkpt>
      <trkpt lat="28.7475630" lon="-17.8330350">
        <ele>2095.9</ele>
        <time>2020-11-16T12:11:42Z</time>
      </trkpt>
      <trkpt lat="28.7475720" lon="-17.8330770">
        <ele>2096.2</ele>
        <time>2020-11-16T12:11:43Z</time>
      </trkpt>
      <trkpt lat="28.7475770" lon="-17.8330950">
        <ele>2096.4</ele>
        <time>2020-11-16T12:11:44Z</time>
      </trkpt>
      <trkpt lat="28.7475770" lon="-17.8330950">
        <ele>2096.4</ele>
        <time>2020-11-16T12:11:45Z</time>
      </trkpt>
      <trkpt lat="28.7475780" lon="-17.8331320">
        <ele>2096.6</ele>
        <time>2020-11-16T12:11:46Z</time>
      </trkpt>
      <trkpt lat="28.7475780" lon="-17.8331320">
        <ele>2096.6</ele>
        <time>2020-11-16T12:11:47Z</time>
      </trkpt>
      <trkpt lat="28.7475780" lon="-17.8331720">
        <ele>2097.0</ele>
        <time>2020-11-16T12:11:48Z</time>
      </trkpt>
      <trkpt lat="28.7475780" lon="-17.8331720">
        <ele>2097.0</ele>
        <time>2020-11-16T12:11:49Z</time>
      </trkpt>
      <trkpt lat="28.7475850" lon="-17.8332150">
        <ele>2097.3</ele>
        <time>2020-11-16T12:11:50Z</time>
      </trkpt>
      <trkpt lat="28.7475850" lon="-17.8332150">
        <ele>2097.3</ele>
        <time>2020-11-16T12:11:51Z</time>
      </trkpt>
      <trkpt lat="28.7475900" lon="-17.8332550">
        <ele>2097.6</ele>
        <time>2020-11-16T12:11:52Z</time>
      </trkpt>
      <trkpt lat="28.7475900" lon="-17.8332550">
        <ele>2097.6</ele>
        <time>2020-11-16T12:11:53Z</time>
      </trkpt>
      <trkpt lat="28.7475920" lon="-17.8332970">
        <ele>2097.9</ele>
        <time>2020-11-16T12:11:54Z</time>
      </trkpt>
      <trkpt lat="28.7475930" lon="-17.8333150">
        <ele>2098.1</ele>
        <time>2020-11-16T12:11:55Z</time>
      </trkpt>
      <trkpt lat="28.7475950" lon="-17.8333350">
        <ele>2098.2</ele>
        <time>2020-11-16T12:11:56Z</time>
      </trkpt>
      <trkpt lat="28.7475950" lon="-17.8333350">
        <ele>2098.2</ele>
        <time>2020-11-16T12:11:57Z</time>
      </trkpt>
      <trkpt lat="28.7476000" lon="-17.8333720">
        <ele>2098.5</ele>
        <time>2020-11-16T12:11:58Z</time>
      </trkpt>
      <trkpt lat="28.7476000" lon="-17.8333720">
        <ele>2098.5</ele>
        <time>2020-11-16T12:11:59Z</time>
      </trkpt>
      <trkpt lat="28.7476080" lon="-17.8334050">
        <ele>2098.8</ele>
        <time>2020-11-16T12:12:00Z</time>
      </trkpt>
      <trkpt lat="28.7476080" lon="-17.8334050">
        <ele>2098.8</ele>
        <time>2020-11-16T12:12:01Z</time>
      </trkpt>
      <trkpt lat="28.7476170" lon="-17.8334400">
        <ele>2099.1</ele>
        <time>2020-11-16T12:12:02Z</time>
      </trkpt>
      <trkpt lat="28.7476200" lon="-17.8334580">
        <ele>2099.2</ele>
        <time>2020-11-16T12:12:03Z</time>
      </trkpt>
      <trkpt lat="28.7476230" lon="-17.8334730">
        <ele>2099.3</ele>
        <time>2020-11-16T12:12:04Z</time>
      </trkpt>
      <trkpt lat="28.7476230" lon="-17.8334730">
        <ele>2099.3</ele>
        <time>2020-11-16T12:12:05Z</time>
      </trkpt>
      <trkpt lat="28.7476320" lon="-17.8335080">
        <ele>2099.6</ele>
        <time>2020-11-16T12:12:06Z</time>
      </trkpt>
      <trkpt lat="28.7476370" lon="-17.8335230">
        <ele>2099.7</ele>
        <time>2020-11-16T12:12:07Z</time>
      </trkpt>
      <trkpt lat="28.7476370" lon="-17.8335230">
        <ele>2099.7</ele>
        <time>2020-11-16T12:12:08Z</time>
      </trkpt>
      <trkpt lat="28.7476520" lon="-17.8335570">
        <ele>2100.0</ele>
        <time>2020-11-16T12:12:09Z</time>
      </trkpt>
      <trkpt lat="28.7476570" lon="-17.8335700">
        <ele>2100.1</ele>
        <time>2020-11-16T12:12:10Z</time>
      </trkpt>
      <trkpt lat="28.7476570" lon="-17.8335700">
        <ele>2100.1</ele>
        <time>2020-11-16T12:12:11Z</time>
      </trkpt>
      <trkpt lat="28.7476620" lon="-17.8336030">
        <ele>2100.4</ele>
        <time>2020-11-16T12:12:12Z</time>
      </trkpt>
      <trkpt lat="28.7476620" lon="-17.8336030">
        <ele>2100.4</ele>
        <time>2020-11-16T12:12:13Z</time>
      </trkpt>
      <trkpt lat="28.7476650" lon="-17.8336400">
        <ele>2100.7</ele>
        <time>2020-11-16T12:12:14Z</time>
      </trkpt>
      <trkpt lat="28.7476680" lon="-17.8336570">
        <ele>2100.8</ele>
        <time>2020-11-16T12:12:15Z</time>
      </trkpt>
      <trkpt lat="28.7476680" lon="-17.8336570">
        <ele>2100.8</ele>
        <time>2020-11-16T12:12:16Z</time>
      </trkpt>
      <trkpt lat="28.7476720" lon="-17.8336900">
        <ele>2101.1</ele>
        <time>2020-11-16T12:12:17Z</time>
      </trkpt>
      <trkpt lat="28.7476720" lon="-17.8336900">
        <ele>2101.1</ele>
        <time>2020-11-16T12:12:18Z</time>
      </trkpt>
      <trkpt lat="28.7476750" lon="-17.8337220">
        <ele>2101.1</ele>
        <time>2020-11-16T12:12:19Z</time>
      </trkpt>
      <trkpt lat="28.7476750" lon="-17.8337220">
        <ele>2101.1</ele>
        <time>2020-11-16T12:12:20Z</time>
      </trkpt>
      <trkpt lat="28.7476850" lon="-17.8337330">
        <ele>2101.2</ele>
        <time>2020-11-16T12:12:21Z</time>
      </trkpt>
      <trkpt lat="28.7476880" lon="-17.8337430">
        <ele>2101.3</ele>
        <time>2020-11-16T12:12:22Z</time>
      </trkpt>
      <trkpt lat="28.7476880" lon="-17.8337430">
        <ele>2101.3</ele>
        <time>2020-11-16T12:12:23Z</time>
      </trkpt>
      <trkpt lat="28.7476880" lon="-17.8337800">
        <ele>2101.5</ele>
        <time>2020-11-16T12:12:24Z</time>
      </trkpt>
      <trkpt lat="28.7476900" lon="-17.8338000">
        <ele>2101.6</ele>
        <time>2020-11-16T12:12:25Z</time>
      </trkpt>
      <trkpt lat="28.7476930" lon="-17.8338180">
        <ele>2101.7</ele>
        <time>2020-11-16T12:12:26Z</time>
      </trkpt>
      <trkpt lat="28.7476930" lon="-17.8338180">
        <ele>2101.7</ele>
        <time>2020-11-16T12:12:27Z</time>
      </trkpt>
      <trkpt lat="28.7477020" lon="-17.8338520">
        <ele>2101.8</ele>
        <time>2020-11-16T12:12:28Z</time>
      </trkpt>
      <trkpt lat="28.7477020" lon="-17.8338520">
        <ele>2101.8</ele>
        <time>2020-11-16T12:12:29Z</time>
      </trkpt>
      <trkpt lat="28.7477070" lon="-17.8338870">
        <ele>2102.0</ele>
        <time>2020-11-16T12:12:30Z</time>
      </trkpt>
      <trkpt lat="28.7477070" lon="-17.8338870">
        <ele>2102.0</ele>
        <time>2020-11-16T12:12:31Z</time>
      </trkpt>
      <trkpt lat="28.7477070" lon="-17.8339170">
        <ele>2102.2</ele>
        <time>2020-11-16T12:12:32Z</time>
      </trkpt>
      <trkpt lat="28.7477070" lon="-17.8339170">
        <ele>2102.2</ele>
        <time>2020-11-16T12:12:33Z</time>
      </trkpt>
      <trkpt lat="28.7477030" lon="-17.8339530">
        <ele>2102.3</ele>
        <time>2020-11-16T12:12:34Z</time>
      </trkpt>
      <trkpt lat="28.7477030" lon="-17.8339530">
        <ele>2102.3</ele>
        <time>2020-11-16T12:12:35Z</time>
      </trkpt>
      <trkpt lat="28.7477020" lon="-17.8339980">
        <ele>2102.5</ele>
        <time>2020-11-16T12:12:36Z</time>
      </trkpt>
      <trkpt lat="28.7477050" lon="-17.8340220">
        <ele>2102.7</ele>
        <time>2020-11-16T12:12:37Z</time>
      </trkpt>
      <trkpt lat="28.7477050" lon="-17.8340220">
        <ele>2102.7</ele>
        <time>2020-11-16T12:12:38Z</time>
      </trkpt>
      <trkpt lat="28.7477100" lon="-17.8340580">
        <ele>2102.8</ele>
        <time>2020-11-16T12:12:39Z</time>
      </trkpt>
      <trkpt lat="28.7477080" lon="-17.8340770">
        <ele>2102.9</ele>
        <time>2020-11-16T12:12:40Z</time>
      </trkpt>
      <trkpt lat="28.7477080" lon="-17.8340770">
        <ele>2102.9</ele>
        <time>2020-11-16T12:12:41Z</time>
      </trkpt>
      <trkpt lat="28.7477070" lon="-17.8341100">
        <ele>2103.1</ele>
        <time>2020-11-16T12:12:42Z</time>
      </trkpt>
      <trkpt lat="28.7477070" lon="-17.8341100">
        <ele>2103.1</ele>
        <time>2020-11-16T12:12:43Z</time>
      </trkpt>
      <trkpt lat="28.7477050" lon="-17.8341450">
        <ele>2103.2</ele>
        <time>2020-11-16T12:12:44Z</time>
      </trkpt>
      <trkpt lat="28.7477050" lon="-17.8341450">
        <ele>2103.2</ele>
        <time>2020-11-16T12:12:45Z</time>
      </trkpt>
      <trkpt lat="28.7477030" lon="-17.8341800">
        <ele>2103.4</ele>
        <time>2020-11-16T12:12:46Z</time>
      </trkpt>
      <trkpt lat="28.7477030" lon="-17.8341800">
        <ele>2103.4</ele>
        <time>2020-11-16T12:12:47Z</time>
      </trkpt>
      <trkpt lat="28.7477050" lon="-17.8342150">
        <ele>2103.5</ele>
        <time>2020-11-16T12:12:48Z</time>
      </trkpt>
      <trkpt lat="28.7477050" lon="-17.8342150">
        <ele>2103.5</ele>
        <time>2020-11-16T12:12:49Z</time>
      </trkpt>
      <trkpt lat="28.7477070" lon="-17.8342430">
        <ele>2103.7</ele>
        <time>2020-11-16T12:12:50Z</time>
      </trkpt>
      <trkpt lat="28.7477070" lon="-17.8342430">
        <ele>2103.7</ele>
        <time>2020-11-16T12:12:51Z</time>
      </trkpt>
      <trkpt lat="28.7477080" lon="-17.8342780">
        <ele>2103.9</ele>
        <time>2020-11-16T12:12:52Z</time>
      </trkpt>
      <trkpt lat="28.7477080" lon="-17.8342780">
        <ele>2103.9</ele>
        <time>2020-11-16T12:12:53Z</time>
      </trkpt>
      <trkpt lat="28.7477030" lon="-17.8343080">
        <ele>2104.0</ele>
        <time>2020-11-16T12:12:54Z</time>
      </trkpt>
      <trkpt lat="28.7477030" lon="-17.8343080">
        <ele>2104.0</ele>
        <time>2020-11-16T12:12:55Z</time>
      </trkpt>
      <trkpt lat="28.7477070" lon="-17.8343350">
        <ele>2104.1</ele>
        <time>2020-11-16T12:12:56Z</time>
      </trkpt>
      <trkpt lat="28.7477070" lon="-17.8343350">
        <ele>2104.1</ele>
        <time>2020-11-16T12:12:57Z</time>
      </trkpt>
      <trkpt lat="28.7477130" lon="-17.8343700">
        <ele>2104.3</ele>
        <time>2020-11-16T12:12:58Z</time>
      </trkpt>
      <trkpt lat="28.7477200" lon="-17.8343880">
        <ele>2104.4</ele>
        <time>2020-11-16T12:12:59Z</time>
      </trkpt>
      <trkpt lat="28.7477200" lon="-17.8343880">
        <ele>2104.4</ele>
        <time>2020-11-16T12:13:00Z</time>
      </trkpt>
      <trkpt lat="28.7477330" lon="-17.8344200">
        <ele>2104.6</ele>
        <time>2020-11-16T12:13:01Z</time>
      </trkpt>
      <trkpt lat="28.7477380" lon="-17.8344350">
        <ele>2104.6</ele>
        <time>2020-11-16T12:13:02Z</time>
      </trkpt>
      <trkpt lat="28.7477380" lon="-17.8344350">
        <ele>2104.6</ele>
        <time>2020-11-16T12:13:03Z</time>
      </trkpt>
      <trkpt lat="28.7477620" lon="-17.8344650">
        <ele>2104.8</ele>
        <time>2020-11-16T12:13:04Z</time>
      </trkpt>
      <trkpt lat="28.7477770" lon="-17.8344780">
        <ele>2104.9</ele>
        <time>2020-11-16T12:13:05Z</time>
      </trkpt>
      <trkpt lat="28.7477770" lon="-17.8344780">
        <ele>2104.9</ele>
        <time>2020-11-16T12:13:06Z</time>
      </trkpt>
      <trkpt lat="28.7478030" lon="-17.8344950">
        <ele>2105.1</ele>
        <time>2020-11-16T12:13:07Z</time>
      </trkpt>
      <trkpt lat="28.7478180" lon="-17.8345000">
        <ele>2105.2</ele>
        <time>2020-11-16T12:13:08Z</time>
      </trkpt>
      <trkpt lat="28.7478180" lon="-17.8345000">
        <ele>2105.2</ele>
        <time>2020-11-16T12:13:09Z</time>
      </trkpt>
      <trkpt lat="28.7478570" lon="-17.8345020">
        <ele>2105.3</ele>
        <time>2020-11-16T12:13:10Z</time>
      </trkpt>
      <trkpt lat="28.7478730" lon="-17.8345020">
        <ele>2105.4</ele>
        <time>2020-11-16T12:13:11Z</time>
      </trkpt>
      <trkpt lat="28.7478730" lon="-17.8345020">
        <ele>2105.4</ele>
        <time>2020-11-16T12:13:12Z</time>
      </trkpt>
      <trkpt lat="28.7479100" lon="-17.8345000">
        <ele>2105.5</ele>
        <time>2020-11-16T12:13:13Z</time>
      </trkpt>
      <trkpt lat="28.7479270" lon="-17.8344980">
        <ele>2105.6</ele>
        <time>2020-11-16T12:13:14Z</time>
      </trkpt>
      <trkpt lat="28.7479270" lon="-17.8344980">
        <ele>2105.6</ele>
        <time>2020-11-16T12:13:15Z</time>
      </trkpt>
      <trkpt lat="28.7479600" lon="-17.8344900">
        <ele>2105.7</ele>
        <time>2020-11-16T12:13:16Z</time>
      </trkpt>
      <trkpt lat="28.7479600" lon="-17.8344900">
        <ele>2105.7</ele>
        <time>2020-11-16T12:13:17Z</time>
      </trkpt>
      <trkpt lat="28.7479920" lon="-17.8344820">
        <ele>2105.8</ele>
        <time>2020-11-16T12:13:18Z</time>
      </trkpt>
      <trkpt lat="28.7480100" lon="-17.8344750">
        <ele>2105.8</ele>
        <time>2020-11-16T12:13:19Z</time>
      </trkpt>
      <trkpt lat="28.7480100" lon="-17.8344750">
        <ele>2105.8</ele>
        <time>2020-11-16T12:13:20Z</time>
      </trkpt>
      <trkpt lat="28.7480380" lon="-17.8344550">
        <ele>2105.9</ele>
        <time>2020-11-16T12:13:21Z</time>
      </trkpt>
      <trkpt lat="28.7480520" lon="-17.8344470">
        <ele>2105.9</ele>
        <time>2020-11-16T12:13:22Z</time>
      </trkpt>
      <trkpt lat="28.7480520" lon="-17.8344470">
        <ele>2105.9</ele>
        <time>2020-11-16T12:13:23Z</time>
      </trkpt>
      <trkpt lat="28.7480580" lon="-17.8344320">
        <ele>2106.0</ele>
        <time>2020-11-16T12:13:24Z</time>
      </trkpt>
      <trkpt lat="28.7480570" lon="-17.8344300">
        <ele>2106.0</ele>
        <time>2020-11-16T12:13:25Z</time>
      </trkpt>
      <trkpt lat="28.7480520" lon="-17.8344280">
        <ele>2106.0</ele>
        <time>2020-11-16T12:13:26Z</time>
      </trkpt>
      <trkpt lat="28.7480520" lon="-17.8344280">
        <ele>2106.0</ele>
        <time>2020-11-16T12:13:27Z</time>
      </trkpt>
      <trkpt lat="28.7480520" lon="-17.8344280">
        <ele>2106.0</ele>
        <time>2020-11-16T12:14:25Z</time>
      </trkpt>
      <trkpt lat="28.7481250" lon="-17.8343900">
        <ele>2106.1</ele>
        <time>2020-11-16T12:14:26Z</time>
      </trkpt>
      <trkpt lat="28.7481380" lon="-17.8343780">
        <ele>2106.2</ele>
        <time>2020-11-16T12:14:27Z</time>
      </trkpt>
      <trkpt lat="28.7481380" lon="-17.8343780">
        <ele>2106.2</ele>
        <time>2020-11-16T12:14:28Z</time>
      </trkpt>
      <trkpt lat="28.7481670" lon="-17.8343580">
        <ele>2106.2</ele>
        <time>2020-11-16T12:14:29Z</time>
      </trkpt>
      <trkpt lat="28.7481670" lon="-17.8343580">
        <ele>2106.2</ele>
        <time>2020-11-16T12:14:30Z</time>
      </trkpt>
      <trkpt lat="28.7481950" lon="-17.8343370">
        <ele>2106.3</ele>
        <time>2020-11-16T12:14:31Z</time>
      </trkpt>
      <trkpt lat="28.7481950" lon="-17.8343370">
        <ele>2106.3</ele>
        <time>2020-11-16T12:14:32Z</time>
      </trkpt>
      <trkpt lat="28.7482200" lon="-17.8343180">
        <ele>2106.3</ele>
        <time>2020-11-16T12:14:33Z</time>
      </trkpt>
      <trkpt lat="28.7482200" lon="-17.8343180">
        <ele>2106.3</ele>
        <time>2020-11-16T12:14:34Z</time>
      </trkpt>
      <trkpt lat="28.7482400" lon="-17.8342950">
        <ele>2106.4</ele>
        <time>2020-11-16T12:14:35Z</time>
      </trkpt>
      <trkpt lat="28.7482400" lon="-17.8342950">
        <ele>2106.4</ele>
        <time>2020-11-16T12:14:36Z</time>
      </trkpt>
      <trkpt lat="28.7482630" lon="-17.8342700">
        <ele>2106.4</ele>
        <time>2020-11-16T12:14:37Z</time>
      </trkpt>
      <trkpt lat="28.7482630" lon="-17.8342700">
        <ele>2106.4</ele>
        <time>2020-11-16T12:14:38Z</time>
      </trkpt>
      <trkpt lat="28.7482920" lon="-17.8342550">
        <ele>2106.5</ele>
        <time>2020-11-16T12:14:39Z</time>
      </trkpt>
      <trkpt lat="28.7482920" lon="-17.8342550">
        <ele>2106.5</ele>
        <time>2020-11-16T12:14:40Z</time>
      </trkpt>
      <trkpt lat="28.7483220" lon="-17.8342380">
        <ele>2106.5</ele>
        <time>2020-11-16T12:14:41Z</time>
      </trkpt>
      <trkpt lat="28.7483220" lon="-17.8342380">
        <ele>2106.5</ele>
        <time>2020-11-16T12:14:42Z</time>
      </trkpt>
      <trkpt lat="28.7483450" lon="-17.8342180">
        <ele>2106.5</ele>
        <time>2020-11-16T12:14:43Z</time>
      </trkpt>
      <trkpt lat="28.7483550" lon="-17.8342050">
        <ele>2106.6</ele>
        <time>2020-11-16T12:14:44Z</time>
      </trkpt>
      <trkpt lat="28.7483670" lon="-17.8341930">
        <ele>2106.6</ele>
        <time>2020-11-16T12:14:45Z</time>
      </trkpt>
      <trkpt lat="28.7483670" lon="-17.8341930">
        <ele>2106.6</ele>
        <time>2020-11-16T12:14:46Z</time>
      </trkpt>
      <trkpt lat="28.7483830" lon="-17.8341670">
        <ele>2106.6</ele>
        <time>2020-11-16T12:14:47Z</time>
      </trkpt>
      <trkpt lat="28.7483830" lon="-17.8341670">
        <ele>2106.6</ele>
        <time>2020-11-16T12:14:48Z</time>
      </trkpt>
      <trkpt lat="28.7483980" lon="-17.8341400">
        <ele>2106.7</ele>
        <time>2020-11-16T12:14:49Z</time>
      </trkpt>
      <trkpt lat="28.7484070" lon="-17.8341250">
        <ele>2106.7</ele>
        <time>2020-11-16T12:14:50Z</time>
      </trkpt>
      <trkpt lat="28.7484070" lon="-17.8341250">
        <ele>2106.7</ele>
        <time>2020-11-16T12:14:51Z</time>
      </trkpt>
      <trkpt lat="28.7484230" lon="-17.8340930">
        <ele>2106.8</ele>
        <time>2020-11-16T12:14:52Z</time>
      </trkpt>
      <trkpt lat="28.7484230" lon="-17.8340930">
        <ele>2106.8</ele>
        <time>2020-11-16T12:14:53Z</time>
      </trkpt>
      <trkpt lat="28.7484480" lon="-17.8340680">
        <ele>2106.9</ele>
        <time>2020-11-16T12:14:54Z</time>
      </trkpt>
      <trkpt lat="28.7484620" lon="-17.8340580">
        <ele>2106.9</ele>
        <time>2020-11-16T12:14:55Z</time>
      </trkpt>
      <trkpt lat="28.7484620" lon="-17.8340580">
        <ele>2106.9</ele>
        <time>2020-11-16T12:14:56Z</time>
      </trkpt>
      <trkpt lat="28.7484820" lon="-17.8340350">
        <ele>2107.0</ele>
        <time>2020-11-16T12:14:57Z</time>
      </trkpt>
      <trkpt lat="28.7484930" lon="-17.8340270">
        <ele>2107.0</ele>
        <time>2020-11-16T12:14:58Z</time>
      </trkpt>
      <trkpt lat="28.7484930" lon="-17.8340270">
        <ele>2107.0</ele>
        <time>2020-11-16T12:14:59Z</time>
      </trkpt>
      <trkpt lat="28.7485200" lon="-17.8340070">
        <ele>2107.1</ele>
        <time>2020-11-16T12:15:00Z</time>
      </trkpt>
      <trkpt lat="28.7485200" lon="-17.8340070">
        <ele>2107.1</ele>
        <time>2020-11-16T12:15:01Z</time>
      </trkpt>
      <trkpt lat="28.7485430" lon="-17.8339750">
        <ele>2107.2</ele>
        <time>2020-11-16T12:15:02Z</time>
      </trkpt>
      <trkpt lat="28.7485550" lon="-17.8339620">
        <ele>2107.3</ele>
        <time>2020-11-16T12:15:03Z</time>
      </trkpt>
      <trkpt lat="28.7485550" lon="-17.8339620">
        <ele>2107.3</ele>
        <time>2020-11-16T12:15:04Z</time>
      </trkpt>
      <trkpt lat="28.7485900" lon="-17.8339400">
        <ele>2107.4</ele>
        <time>2020-11-16T12:15:05Z</time>
      </trkpt>
      <trkpt lat="28.7485900" lon="-17.8339400">
        <ele>2107.4</ele>
        <time>2020-11-16T12:15:06Z</time>
      </trkpt>
      <trkpt lat="28.7486180" lon="-17.8339180">
        <ele>2107.5</ele>
        <time>2020-11-16T12:15:07Z</time>
      </trkpt>
      <trkpt lat="28.7486320" lon="-17.8339070">
        <ele>2107.6</ele>
        <time>2020-11-16T12:15:08Z</time>
      </trkpt>
      <trkpt lat="28.7486320" lon="-17.8339070">
        <ele>2107.6</ele>
        <time>2020-11-16T12:15:09Z</time>
      </trkpt>
      <trkpt lat="28.7486550" lon="-17.8338780">
        <ele>2107.7</ele>
        <time>2020-11-16T12:15:10Z</time>
      </trkpt>
      <trkpt lat="28.7486550" lon="-17.8338780">
        <ele>2107.7</ele>
        <time>2020-11-16T12:15:11Z</time>
      </trkpt>
      <trkpt lat="28.7486750" lon="-17.8338450">
        <ele>2107.9</ele>
        <time>2020-11-16T12:15:12Z</time>
      </trkpt>
      <trkpt lat="28.7486750" lon="-17.8338450">
        <ele>2107.9</ele>
        <time>2020-11-16T12:15:13Z</time>
      </trkpt>
      <trkpt lat="28.7486920" lon="-17.8338100">
        <ele>2108.0</ele>
        <time>2020-11-16T12:15:14Z</time>
      </trkpt>
      <trkpt lat="28.7486920" lon="-17.8338100">
        <ele>2108.0</ele>
        <time>2020-11-16T12:15:15Z</time>
      </trkpt>
      <trkpt lat="28.7487080" lon="-17.8337750">
        <ele>2108.2</ele>
        <time>2020-11-16T12:15:16Z</time>
      </trkpt>
      <trkpt lat="28.7487170" lon="-17.8337580">
        <ele>2108.2</ele>
        <time>2020-11-16T12:15:17Z</time>
      </trkpt>
      <trkpt lat="28.7487170" lon="-17.8337580">
        <ele>2108.2</ele>
        <time>2020-11-16T12:15:18Z</time>
      </trkpt>
      <trkpt lat="28.7487320" lon="-17.8337230">
        <ele>2108.4</ele>
        <time>2020-11-16T12:15:19Z</time>
      </trkpt>
      <trkpt lat="28.7487380" lon="-17.8337050">
        <ele>2108.5</ele>
        <time>2020-11-16T12:15:20Z</time>
      </trkpt>
      <trkpt lat="28.7487380" lon="-17.8337050">
        <ele>2108.5</ele>
        <time>2020-11-16T12:15:21Z</time>
      </trkpt>
      <trkpt lat="28.7487670" lon="-17.8336780">
        <ele>2108.6</ele>
        <time>2020-11-16T12:15:22Z</time>
      </trkpt>
      <trkpt lat="28.7487830" lon="-17.8336670">
        <ele>2108.7</ele>
        <time>2020-11-16T12:15:23Z</time>
      </trkpt>
      <trkpt lat="28.7487980" lon="-17.8336550">
        <ele>2108.8</ele>
        <time>2020-11-16T12:15:24Z</time>
      </trkpt>
      <trkpt lat="28.7487980" lon="-17.8336550">
        <ele>2108.8</ele>
        <time>2020-11-16T12:15:25Z</time>
      </trkpt>
      <trkpt lat="28.7488220" lon="-17.8336250">
        <ele>2108.9</ele>
        <time>2020-11-16T12:15:26Z</time>
      </trkpt>
      <trkpt lat="28.7488220" lon="-17.8336250">
        <ele>2108.9</ele>
        <time>2020-11-16T12:15:27Z</time>
      </trkpt>
      <trkpt lat="28.7488380" lon="-17.8335850">
        <ele>2109.0</ele>
        <time>2020-11-16T12:15:28Z</time>
      </trkpt>
      <trkpt lat="28.7488380" lon="-17.8335850">
        <ele>2109.0</ele>
        <time>2020-11-16T12:15:29Z</time>
      </trkpt>
      <trkpt lat="28.7488650" lon="-17.8335570">
        <ele>2109.1</ele>
        <time>2020-11-16T12:15:30Z</time>
      </trkpt>
      <trkpt lat="28.7488800" lon="-17.8335470">
        <ele>2109.2</ele>
        <time>2020-11-16T12:15:31Z</time>
      </trkpt>
      <trkpt lat="28.7488800" lon="-17.8335470">
        <ele>2109.2</ele>
        <time>2020-11-16T12:15:32Z</time>
      </trkpt>
      <trkpt lat="28.7489100" lon="-17.8335270">
        <ele>2109.3</ele>
        <time>2020-11-16T12:15:33Z</time>
      </trkpt>
      <trkpt lat="28.7489230" lon="-17.8335170">
        <ele>2109.4</ele>
        <time>2020-11-16T12:15:34Z</time>
      </trkpt>
      <trkpt lat="28.7489230" lon="-17.8335170">
        <ele>2109.4</ele>
        <time>2020-11-16T12:15:35Z</time>
      </trkpt>
      <trkpt lat="28.7489570" lon="-17.8334950">
        <ele>2109.5</ele>
        <time>2020-11-16T12:15:36Z</time>
      </trkpt>
      <trkpt lat="28.7489570" lon="-17.8334950">
        <ele>2109.5</ele>
        <time>2020-11-16T12:15:37Z</time>
      </trkpt>
      <trkpt lat="28.7489800" lon="-17.8334730">
        <ele>2109.6</ele>
        <time>2020-11-16T12:15:38Z</time>
      </trkpt>
      <trkpt lat="28.7489800" lon="-17.8334730">
        <ele>2109.6</ele>
        <time>2020-11-16T12:15:39Z</time>
      </trkpt>
      <trkpt lat="28.7490070" lon="-17.8334480">
        <ele>2109.8</ele>
        <time>2020-11-16T12:15:40Z</time>
      </trkpt>
      <trkpt lat="28.7490070" lon="-17.8334480">
        <ele>2109.8</ele>
        <time>2020-11-16T12:15:41Z</time>
      </trkpt>
      <trkpt lat="28.7490330" lon="-17.8334250">
        <ele>2109.9</ele>
        <time>2020-11-16T12:15:42Z</time>
      </trkpt>
      <trkpt lat="28.7490330" lon="-17.8334250">
        <ele>2109.9</ele>
        <time>2020-11-16T12:15:43Z</time>
      </trkpt>
      <trkpt lat="28.7490570" lon="-17.8333980">
        <ele>2110.1</ele>
        <time>2020-11-16T12:15:44Z</time>
      </trkpt>
      <trkpt lat="28.7490570" lon="-17.8333980">
        <ele>2110.1</ele>
        <time>2020-11-16T12:15:45Z</time>
      </trkpt>
      <trkpt lat="28.7490800" lon="-17.8333680">
        <ele>2110.2</ele>
        <time>2020-11-16T12:15:46Z</time>
      </trkpt>
      <trkpt lat="28.7490800" lon="-17.8333680">
        <ele>2110.2</ele>
        <time>2020-11-16T12:15:47Z</time>
      </trkpt>
      <trkpt lat="28.7491050" lon="-17.8333380">
        <ele>2110.4</ele>
        <time>2020-11-16T12:15:48Z</time>
      </trkpt>
      <trkpt lat="28.7491180" lon="-17.8333230">
        <ele>2110.4</ele>
        <time>2020-11-16T12:15:49Z</time>
      </trkpt>
      <trkpt lat="28.7491180" lon="-17.8333230">
        <ele>2110.4</ele>
        <time>2020-11-16T12:15:50Z</time>
      </trkpt>
      <trkpt lat="28.7491480" lon="-17.8333020">
        <ele>2110.6</ele>
        <time>2020-11-16T12:15:51Z</time>
      </trkpt>
      <trkpt lat="28.7491650" lon="-17.8332920">
        <ele>2110.7</ele>
        <time>2020-11-16T12:15:52Z</time>
      </trkpt>
      <trkpt lat="28.7491650" lon="-17.8332920">
        <ele>2110.7</ele>
        <time>2020-11-16T12:15:53Z</time>
      </trkpt>
      <trkpt lat="28.7491980" lon="-17.8332720">
        <ele>2110.8</ele>
        <time>2020-11-16T12:15:54Z</time>
      </trkpt>
      <trkpt lat="28.7491980" lon="-17.8332720">
        <ele>2110.8</ele>
        <time>2020-11-16T12:15:55Z</time>
      </trkpt>
      <trkpt lat="28.7492320" lon="-17.8332530">
        <ele>2111.0</ele>
        <time>2020-11-16T12:15:56Z</time>
      </trkpt>
      <trkpt lat="28.7492320" lon="-17.8332530">
        <ele>2111.0</ele>
        <time>2020-11-16T12:15:57Z</time>
      </trkpt>
      <trkpt lat="28.7492630" lon="-17.8332370">
        <ele>2111.1</ele>
        <time>2020-11-16T12:15:58Z</time>
      </trkpt>
      <trkpt lat="28.7492630" lon="-17.8332370">
        <ele>2111.1</ele>
        <time>2020-11-16T12:15:59Z</time>
      </trkpt>
      <trkpt lat="28.7492980" lon="-17.8332280">
        <ele>2111.2</ele>
        <time>2020-11-16T12:16:00Z</time>
      </trkpt>
      <trkpt lat="28.7492980" lon="-17.8332280">
        <ele>2111.2</ele>
        <time>2020-11-16T12:16:01Z</time>
      </trkpt>
      <trkpt lat="28.7493350" lon="-17.8332220">
        <ele>2111.3</ele>
        <time>2020-11-16T12:16:02Z</time>
      </trkpt>
      <trkpt lat="28.7493350" lon="-17.8332220">
        <ele>2111.3</ele>
        <time>2020-11-16T12:16:03Z</time>
      </trkpt>
      <trkpt lat="28.7493750" lon="-17.8332170">
        <ele>2111.4</ele>
        <time>2020-11-16T12:16:04Z</time>
      </trkpt>
      <trkpt lat="28.7493930" lon="-17.8332150">
        <ele>2111.5</ele>
        <time>2020-11-16T12:16:05Z</time>
      </trkpt>
      <trkpt lat="28.7493930" lon="-17.8332150">
        <ele>2111.5</ele>
        <time>2020-11-16T12:16:06Z</time>
      </trkpt>
      <trkpt lat="28.7494270" lon="-17.8332100">
        <ele>2111.5</ele>
        <time>2020-11-16T12:16:07Z</time>
      </trkpt>
      <trkpt lat="28.7494420" lon="-17.8332120">
        <ele>2111.6</ele>
        <time>2020-11-16T12:16:08Z</time>
      </trkpt>
      <trkpt lat="28.7494420" lon="-17.8332120">
        <ele>2111.6</ele>
        <time>2020-11-16T12:16:09Z</time>
      </trkpt>
      <trkpt lat="28.7494780" lon="-17.8332150">
        <ele>2111.6</ele>
        <time>2020-11-16T12:16:10Z</time>
      </trkpt>
      <trkpt lat="28.7494970" lon="-17.8332080">
        <ele>2111.7</ele>
        <time>2020-11-16T12:16:11Z</time>
      </trkpt>
      <trkpt lat="28.7494970" lon="-17.8332080">
        <ele>2111.7</ele>
        <time>2020-11-16T12:16:12Z</time>
      </trkpt>
      <trkpt lat="28.7495320" lon="-17.8331870">
        <ele>2111.8</ele>
        <time>2020-11-16T12:16:13Z</time>
      </trkpt>
      <trkpt lat="28.7495500" lon="-17.8331820">
        <ele>2111.8</ele>
        <time>2020-11-16T12:16:14Z</time>
      </trkpt>
      <trkpt lat="28.7495500" lon="-17.8331820">
        <ele>2111.8</ele>
        <time>2020-11-16T12:16:15Z</time>
      </trkpt>
      <trkpt lat="28.7495800" lon="-17.8331720">
        <ele>2111.9</ele>
        <time>2020-11-16T12:16:16Z</time>
      </trkpt>
      <trkpt lat="28.7495970" lon="-17.8331680">
        <ele>2111.9</ele>
        <time>2020-11-16T12:16:17Z</time>
      </trkpt>
      <trkpt lat="28.7496120" lon="-17.8331680">
        <ele>2112.0</ele>
        <time>2020-11-16T12:16:18Z</time>
      </trkpt>
      <trkpt lat="28.7496120" lon="-17.8331680">
        <ele>2112.0</ele>
        <time>2020-11-16T12:16:19Z</time>
      </trkpt>
      <trkpt lat="28.7496370" lon="-17.8331600">
        <ele>2112.0</ele>
        <time>2020-11-16T12:16:20Z</time>
      </trkpt>
      <trkpt lat="28.7496500" lon="-17.8331520">
        <ele>2112.1</ele>
        <time>2020-11-16T12:16:21Z</time>
      </trkpt>
      <trkpt lat="28.7496500" lon="-17.8331520">
        <ele>2112.1</ele>
        <time>2020-11-16T12:16:22Z</time>
      </trkpt>
      <trkpt lat="28.7496780" lon="-17.8331430">
        <ele>2112.1</ele>
        <time>2020-11-16T12:16:23Z</time>
      </trkpt>
      <trkpt lat="28.7496780" lon="-17.8331430">
        <ele>2112.1</ele>
        <time>2020-11-16T12:16:24Z</time>
      </trkpt>
      <trkpt lat="28.7497070" lon="-17.8331300">
        <ele>2112.2</ele>
        <time>2020-11-16T12:16:25Z</time>
      </trkpt>
      <trkpt lat="28.7497180" lon="-17.8331170">
        <ele>2112.3</ele>
        <time>2020-11-16T12:16:26Z</time>
      </trkpt>
      <trkpt lat="28.7497180" lon="-17.8331170">
        <ele>2112.3</ele>
        <time>2020-11-16T12:16:27Z</time>
      </trkpt>
      <trkpt lat="28.7497520" lon="-17.8331100">
        <ele>2112.4</ele>
        <time>2020-11-16T12:16:28Z</time>
      </trkpt>
      <trkpt lat="28.7497520" lon="-17.8331100">
        <ele>2112.4</ele>
        <time>2020-11-16T12:16:29Z</time>
      </trkpt>
      <trkpt lat="28.7497830" lon="-17.8331000">
        <ele>2112.6</ele>
        <time>2020-11-16T12:16:30Z</time>
      </trkpt>
      <trkpt lat="28.7497970" lon="-17.8330930">
        <ele>2112.6</ele>
        <time>2020-11-16T12:16:31Z</time>
      </trkpt>
      <trkpt lat="28.7497970" lon="-17.8330930">
        <ele>2112.6</ele>
        <time>2020-11-16T12:16:32Z</time>
      </trkpt>
      <trkpt lat="28.7498250" lon="-17.8330820">
        <ele>2112.7</ele>
        <time>2020-11-16T12:16:33Z</time>
      </trkpt>
      <trkpt lat="28.7498400" lon="-17.8330780">
        <ele>2112.8</ele>
        <time>2020-11-16T12:16:34Z</time>
      </trkpt>
      <trkpt lat="28.7498400" lon="-17.8330780">
        <ele>2112.8</ele>
        <time>2020-11-16T12:16:35Z</time>
      </trkpt>
      <trkpt lat="28.7498770" lon="-17.8330720">
        <ele>2113.0</ele>
        <time>2020-11-16T12:16:36Z</time>
      </trkpt>
      <trkpt lat="28.7498950" lon="-17.8330680">
        <ele>2113.1</ele>
        <time>2020-11-16T12:16:37Z</time>
      </trkpt>
      <trkpt lat="28.7498950" lon="-17.8330680">
        <ele>2113.1</ele>
        <time>2020-11-16T12:16:38Z</time>
      </trkpt>
      <trkpt lat="28.7499280" lon="-17.8330630">
        <ele>2113.2</ele>
        <time>2020-11-16T12:16:39Z</time>
      </trkpt>
      <trkpt lat="28.7499280" lon="-17.8330630">
        <ele>2113.2</ele>
        <time>2020-11-16T12:16:40Z</time>
      </trkpt>
      <trkpt lat="28.7499600" lon="-17.8330550">
        <ele>2113.4</ele>
        <time>2020-11-16T12:16:41Z</time>
      </trkpt>
      <trkpt lat="28.7499600" lon="-17.8330550">
        <ele>2113.4</ele>
        <time>2020-11-16T12:16:42Z</time>
      </trkpt>
      <trkpt lat="28.7499930" lon="-17.8330520">
        <ele>2113.5</ele>
        <time>2020-11-16T12:16:43Z</time>
      </trkpt>
      <trkpt lat="28.7500080" lon="-17.8330500">
        <ele>2113.6</ele>
        <time>2020-11-16T12:16:44Z</time>
      </trkpt>
      <trkpt lat="28.7500080" lon="-17.8330500">
        <ele>2113.6</ele>
        <time>2020-11-16T12:16:45Z</time>
      </trkpt>
      <trkpt lat="28.7500420" lon="-17.8330530">
        <ele>2113.7</ele>
        <time>2020-11-16T12:16:46Z</time>
      </trkpt>
      <trkpt lat="28.7500600" lon="-17.8330550">
        <ele>2113.8</ele>
        <time>2020-11-16T12:16:47Z</time>
      </trkpt>
      <trkpt lat="28.7500600" lon="-17.8330550">
        <ele>2113.8</ele>
        <time>2020-11-16T12:16:48Z</time>
      </trkpt>
      <trkpt lat="28.7500950" lon="-17.8330570">
        <ele>2113.9</ele>
        <time>2020-11-16T12:16:49Z</time>
      </trkpt>
      <trkpt lat="28.7501130" lon="-17.8330580">
        <ele>2114.0</ele>
        <time>2020-11-16T12:16:50Z</time>
      </trkpt>
      <trkpt lat="28.7501130" lon="-17.8330580">
        <ele>2114.0</ele>
        <time>2020-11-16T12:16:51Z</time>
      </trkpt>
      <trkpt lat="28.7501470" lon="-17.8330700">
        <ele>2114.1</ele>
        <time>2020-11-16T12:16:52Z</time>
      </trkpt>
      <trkpt lat="28.7501650" lon="-17.8330770">
        <ele>2114.1</ele>
        <time>2020-11-16T12:16:53Z</time>
      </trkpt>
      <trkpt lat="28.7501650" lon="-17.8330770">
        <ele>2114.1</ele>
        <time>2020-11-16T12:16:54Z</time>
      </trkpt>
      <trkpt lat="28.7502000" lon="-17.8330850">
        <ele>2114.3</ele>
        <time>2020-11-16T12:16:55Z</time>
      </trkpt>
      <trkpt lat="28.7502000" lon="-17.8330850">
        <ele>2114.3</ele>
        <time>2020-11-16T12:16:56Z</time>
      </trkpt>
      <trkpt lat="28.7502330" lon="-17.8331030">
        <ele>2114.4</ele>
        <time>2020-11-16T12:16:57Z</time>
      </trkpt>
      <trkpt lat="28.7502330" lon="-17.8331030">
        <ele>2114.4</ele>
        <time>2020-11-16T12:16:58Z</time>
      </trkpt>
      <trkpt lat="28.7502670" lon="-17.8331230">
        <ele>2114.5</ele>
        <time>2020-11-16T12:16:59Z</time>
      </trkpt>
      <trkpt lat="28.7502830" lon="-17.8331280">
        <ele>2114.6</ele>
        <time>2020-11-16T12:17:00Z</time>
      </trkpt>
      <trkpt lat="28.7502830" lon="-17.8331280">
        <ele>2114.6</ele>
        <time>2020-11-16T12:17:01Z</time>
      </trkpt>
      <trkpt lat="28.7503170" lon="-17.8331380">
        <ele>2114.9</ele>
        <time>2020-11-16T12:17:02Z</time>
      </trkpt>
      <trkpt lat="28.7503170" lon="-17.8331380">
        <ele>2114.9</ele>
        <time>2020-11-16T12:17:03Z</time>
      </trkpt>
      <trkpt lat="28.7503530" lon="-17.8331530">
        <ele>2115.3</ele>
        <time>2020-11-16T12:17:04Z</time>
      </trkpt>
      <trkpt lat="28.7503730" lon="-17.8331620">
        <ele>2115.5</ele>
        <time>2020-11-16T12:17:05Z</time>
      </trkpt>
      <trkpt lat="28.7503730" lon="-17.8331620">
        <ele>2115.5</ele>
        <time>2020-11-16T12:17:06Z</time>
      </trkpt>
      <trkpt lat="28.7504100" lon="-17.8331780">
        <ele>2116.0</ele>
        <time>2020-11-16T12:17:07Z</time>
      </trkpt>
      <trkpt lat="28.7504100" lon="-17.8331780">
        <ele>2116.0</ele>
        <time>2020-11-16T12:17:08Z</time>
      </trkpt>
      <trkpt lat="28.7504480" lon="-17.8331980">
        <ele>2116.4</ele>
        <time>2020-11-16T12:17:09Z</time>
      </trkpt>
      <trkpt lat="28.7504480" lon="-17.8331980">
        <ele>2116.4</ele>
        <time>2020-11-16T12:17:10Z</time>
      </trkpt>
      <trkpt lat="28.7504830" lon="-17.8332130">
        <ele>2116.8</ele>
        <time>2020-11-16T12:17:11Z</time>
      </trkpt>
      <trkpt lat="28.7505020" lon="-17.8332200">
        <ele>2117.0</ele>
        <time>2020-11-16T12:17:12Z</time>
      </trkpt>
      <trkpt lat="28.7505020" lon="-17.8332200">
        <ele>2117.0</ele>
        <time>2020-11-16T12:17:13Z</time>
      </trkpt>
      <trkpt lat="28.7505380" lon="-17.8332330">
        <ele>2117.5</ele>
        <time>2020-11-16T12:17:14Z</time>
      </trkpt>
      <trkpt lat="28.7505570" lon="-17.8332470">
        <ele>2117.7</ele>
        <time>2020-11-16T12:17:15Z</time>
      </trkpt>
      <trkpt lat="28.7505570" lon="-17.8332470">
        <ele>2117.7</ele>
        <time>2020-11-16T12:17:16Z</time>
      </trkpt>
      <trkpt lat="28.7505900" lon="-17.8332730">
        <ele>2118.1</ele>
        <time>2020-11-16T12:17:17Z</time>
      </trkpt>
      <trkpt lat="28.7506080" lon="-17.8332880">
        <ele>2118.4</ele>
        <time>2020-11-16T12:17:18Z</time>
      </trkpt>
      <trkpt lat="28.7506080" lon="-17.8332880">
        <ele>2118.4</ele>
        <time>2020-11-16T12:17:19Z</time>
      </trkpt>
      <trkpt lat="28.7506430" lon="-17.8333100">
        <ele>2118.8</ele>
        <time>2020-11-16T12:17:20Z</time>
      </trkpt>
      <trkpt lat="28.7506620" lon="-17.8333220">
        <ele>2119.1</ele>
        <time>2020-11-16T12:17:21Z</time>
      </trkpt>
      <trkpt lat="28.7506620" lon="-17.8333220">
        <ele>2119.1</ele>
        <time>2020-11-16T12:17:22Z</time>
      </trkpt>
      <trkpt lat="28.7506880" lon="-17.8333480">
        <ele>2119.4</ele>
        <time>2020-11-16T12:17:23Z</time>
      </trkpt>
      <trkpt lat="28.7506880" lon="-17.8333480">
        <ele>2119.4</ele>
        <time>2020-11-16T12:17:24Z</time>
      </trkpt>
      <trkpt lat="28.7507170" lon="-17.8333700">
        <ele>2119.8</ele>
        <time>2020-11-16T12:17:25Z</time>
      </trkpt>
      <trkpt lat="28.7507300" lon="-17.8333820">
        <ele>2120.0</ele>
        <time>2020-11-16T12:17:26Z</time>
      </trkpt>
      <trkpt lat="28.7507450" lon="-17.8333900">
        <ele>2120.2</ele>
        <time>2020-11-16T12:17:27Z</time>
      </trkpt>
      <trkpt lat="28.7507450" lon="-17.8333900">
        <ele>2120.2</ele>
        <time>2020-11-16T12:17:28Z</time>
      </trkpt>
      <trkpt lat="28.7507730" lon="-17.8334050">
        <ele>2120.5</ele>
        <time>2020-11-16T12:17:29Z</time>
      </trkpt>
      <trkpt lat="28.7507870" lon="-17.8334120">
        <ele>2120.7</ele>
        <time>2020-11-16T12:17:30Z</time>
      </trkpt>
      <trkpt lat="28.7507870" lon="-17.8334120">
        <ele>2120.7</ele>
        <time>2020-11-16T12:17:31Z</time>
      </trkpt>
      <trkpt lat="28.7508150" lon="-17.8334350">
        <ele>2121.1</ele>
        <time>2020-11-16T12:17:32Z</time>
      </trkpt>
      <trkpt lat="28.7508150" lon="-17.8334350">
        <ele>2121.1</ele>
        <time>2020-11-16T12:17:33Z</time>
      </trkpt>
      <trkpt lat="28.7508420" lon="-17.8334580">
        <ele>2121.5</ele>
        <time>2020-11-16T12:17:34Z</time>
      </trkpt>
      <trkpt lat="28.7508600" lon="-17.8334700">
        <ele>2121.7</ele>
        <time>2020-11-16T12:17:35Z</time>
      </trkpt>
      <trkpt lat="28.7508750" lon="-17.8334830">
        <ele>2121.9</ele>
        <time>2020-11-16T12:17:36Z</time>
      </trkpt>
      <trkpt lat="28.7508850" lon="-17.8334980">
        <ele>2122.1</ele>
        <time>2020-11-16T12:17:37Z</time>
      </trkpt>
      <trkpt lat="28.7508950" lon="-17.8335170">
        <ele>2122.3</ele>
        <time>2020-11-16T12:17:38Z</time>
      </trkpt>
      <trkpt lat="28.7508950" lon="-17.8335170">
        <ele>2122.3</ele>
        <time>2020-11-16T12:17:39Z</time>
      </trkpt>
      <trkpt lat="28.7509170" lon="-17.8335550">
        <ele>2122.7</ele>
        <time>2020-11-16T12:17:40Z</time>
      </trkpt>
      <trkpt lat="28.7509280" lon="-17.8335750">
        <ele>2122.9</ele>
        <time>2020-11-16T12:17:41Z</time>
      </trkpt>
      <trkpt lat="28.7509280" lon="-17.8335750">
        <ele>2122.9</ele>
        <time>2020-11-16T12:17:42Z</time>
      </trkpt>
      <trkpt lat="28.7509500" lon="-17.8336100">
        <ele>2123.3</ele>
        <time>2020-11-16T12:17:43Z</time>
      </trkpt>
      <trkpt lat="28.7509500" lon="-17.8336100">
        <ele>2123.3</ele>
        <time>2020-11-16T12:17:44Z</time>
      </trkpt>
      <trkpt lat="28.7509750" lon="-17.8336400">
        <ele>2123.7</ele>
        <time>2020-11-16T12:17:45Z</time>
      </trkpt>
      <trkpt lat="28.7509750" lon="-17.8336400">
        <ele>2123.7</ele>
        <time>2020-11-16T12:17:46Z</time>
      </trkpt>
      <trkpt lat="28.7510020" lon="-17.8336700">
        <ele>2124.1</ele>
        <time>2020-11-16T12:17:47Z</time>
      </trkpt>
      <trkpt lat="28.7510020" lon="-17.8336700">
        <ele>2124.1</ele>
        <time>2020-11-16T12:17:48Z</time>
      </trkpt>
      <trkpt lat="28.7510230" lon="-17.8337030">
        <ele>2124.5</ele>
        <time>2020-11-16T12:17:49Z</time>
      </trkpt>
      <trkpt lat="28.7510350" lon="-17.8337220">
        <ele>2124.7</ele>
        <time>2020-11-16T12:17:50Z</time>
      </trkpt>
      <trkpt lat="28.7510350" lon="-17.8337220">
        <ele>2124.7</ele>
        <time>2020-11-16T12:17:51Z</time>
      </trkpt>
      <trkpt lat="28.7510550" lon="-17.8337580">
        <ele>2125.1</ele>
        <time>2020-11-16T12:17:52Z</time>
      </trkpt>
      <trkpt lat="28.7510550" lon="-17.8337580">
        <ele>2125.1</ele>
        <time>2020-11-16T12:17:53Z</time>
      </trkpt>
      <trkpt lat="28.7510750" lon="-17.8337950">
        <ele>2125.5</ele>
        <time>2020-11-16T12:17:54Z</time>
      </trkpt>
      <trkpt lat="28.7510750" lon="-17.8337950">
        <ele>2125.5</ele>
        <time>2020-11-16T12:17:55Z</time>
      </trkpt>
      <trkpt lat="28.7510920" lon="-17.8338330">
        <ele>2125.9</ele>
        <time>2020-11-16T12:17:56Z</time>
      </trkpt>
      <trkpt lat="28.7511020" lon="-17.8338520">
        <ele>2126.1</ele>
        <time>2020-11-16T12:17:57Z</time>
      </trkpt>
      <trkpt lat="28.7511020" lon="-17.8338520">
        <ele>2126.1</ele>
        <time>2020-11-16T12:17:58Z</time>
      </trkpt>
      <trkpt lat="28.7511200" lon="-17.8338870">
        <ele>2126.4</ele>
        <time>2020-11-16T12:17:59Z</time>
      </trkpt>
      <trkpt lat="28.7511200" lon="-17.8338870">
        <ele>2126.4</ele>
        <time>2020-11-16T12:18:00Z</time>
      </trkpt>
      <trkpt lat="28.7511400" lon="-17.8339250">
        <ele>2126.8</ele>
        <time>2020-11-16T12:18:01Z</time>
      </trkpt>
      <trkpt lat="28.7511480" lon="-17.8339470">
        <ele>2127.1</ele>
        <time>2020-11-16T12:18:02Z</time>
      </trkpt>
      <trkpt lat="28.7511480" lon="-17.8339470">
        <ele>2127.1</ele>
        <time>2020-11-16T12:18:03Z</time>
      </trkpt>
      <trkpt lat="28.7511650" lon="-17.8339850">
        <ele>2127.4</ele>
        <time>2020-11-16T12:18:04Z</time>
      </trkpt>
      <trkpt lat="28.7511650" lon="-17.8339850">
        <ele>2127.4</ele>
        <time>2020-11-16T12:18:05Z</time>
      </trkpt>
      <trkpt lat="28.7511850" lon="-17.8340230">
        <ele>2127.8</ele>
        <time>2020-11-16T12:18:06Z</time>
      </trkpt>
      <trkpt lat="28.7511850" lon="-17.8340230">
        <ele>2127.8</ele>
        <time>2020-11-16T12:18:07Z</time>
      </trkpt>
      <trkpt lat="28.7512020" lon="-17.8340600">
        <ele>2128.0</ele>
        <time>2020-11-16T12:18:08Z</time>
      </trkpt>
      <trkpt lat="28.7512020" lon="-17.8340600">
        <ele>2128.0</ele>
        <time>2020-11-16T12:18:09Z</time>
      </trkpt>
      <trkpt lat="28.7512200" lon="-17.8340930">
        <ele>2128.3</ele>
        <time>2020-11-16T12:18:10Z</time>
      </trkpt>
      <trkpt lat="28.7512200" lon="-17.8340930">
        <ele>2128.3</ele>
        <time>2020-11-16T12:18:11Z</time>
      </trkpt>
      <trkpt lat="28.7512230" lon="-17.8341280">
        <ele>2128.5</ele>
        <time>2020-11-16T12:18:12Z</time>
      </trkpt>
      <trkpt lat="28.7512250" lon="-17.8341520">
        <ele>2128.6</ele>
        <time>2020-11-16T12:18:13Z</time>
      </trkpt>
      <trkpt lat="28.7512250" lon="-17.8341520">
        <ele>2128.6</ele>
        <time>2020-11-16T12:18:14Z</time>
      </trkpt>
      <trkpt lat="28.7512370" lon="-17.8341900">
        <ele>2128.8</ele>
        <time>2020-11-16T12:18:15Z</time>
      </trkpt>
      <trkpt lat="28.7512470" lon="-17.8342080">
        <ele>2129.0</ele>
        <time>2020-11-16T12:18:16Z</time>
      </trkpt>
      <trkpt lat="28.7512470" lon="-17.8342080">
        <ele>2129.0</ele>
        <time>2020-11-16T12:18:17Z</time>
      </trkpt>
      <trkpt lat="28.7512630" lon="-17.8342480">
        <ele>2129.2</ele>
        <time>2020-11-16T12:18:18Z</time>
      </trkpt>
      <trkpt lat="28.7512630" lon="-17.8342480">
        <ele>2129.2</ele>
        <time>2020-11-16T12:18:19Z</time>
      </trkpt>
      <trkpt lat="28.7512750" lon="-17.8342900">
        <ele>2129.5</ele>
        <time>2020-11-16T12:18:20Z</time>
      </trkpt>
      <trkpt lat="28.7512750" lon="-17.8342900">
        <ele>2129.5</ele>
        <time>2020-11-16T12:18:21Z</time>
      </trkpt>
      <trkpt lat="28.7512830" lon="-17.8343370">
        <ele>2129.8</ele>
        <time>2020-11-16T12:18:22Z</time>
      </trkpt>
      <trkpt lat="28.7512830" lon="-17.8343370">
        <ele>2129.8</ele>
        <time>2020-11-16T12:18:23Z</time>
      </trkpt>
      <trkpt lat="28.7512880" lon="-17.8343820">
        <ele>2130.1</ele>
        <time>2020-11-16T12:18:24Z</time>
      </trkpt>
      <trkpt lat="28.7512920" lon="-17.8344030">
        <ele>2130.2</ele>
        <time>2020-11-16T12:18:25Z</time>
      </trkpt>
      <trkpt lat="28.7512920" lon="-17.8344030">
        <ele>2130.2</ele>
        <time>2020-11-16T12:18:26Z</time>
      </trkpt>
      <trkpt lat="28.7512970" lon="-17.8344480">
        <ele>2130.5</ele>
        <time>2020-11-16T12:18:27Z</time>
      </trkpt>
      <trkpt lat="28.7513000" lon="-17.8344700">
        <ele>2130.7</ele>
        <time>2020-11-16T12:18:28Z</time>
      </trkpt>
      <trkpt lat="28.7513000" lon="-17.8344700">
        <ele>2130.7</ele>
        <time>2020-11-16T12:18:29Z</time>
      </trkpt>
      <trkpt lat="28.7513150" lon="-17.8345150">
        <ele>2131.0</ele>
        <time>2020-11-16T12:18:30Z</time>
      </trkpt>
      <trkpt lat="28.7513150" lon="-17.8345150">
        <ele>2131.0</ele>
        <time>2020-11-16T12:18:31Z</time>
      </trkpt>
      <trkpt lat="28.7513300" lon="-17.8345620">
        <ele>2131.4</ele>
        <time>2020-11-16T12:18:32Z</time>
      </trkpt>
      <trkpt lat="28.7513300" lon="-17.8345620">
        <ele>2131.4</ele>
        <time>2020-11-16T12:18:33Z</time>
      </trkpt>
      <trkpt lat="28.7513350" lon="-17.8346000">
        <ele>2131.6</ele>
        <time>2020-11-16T12:18:34Z</time>
      </trkpt>
      <trkpt lat="28.7513350" lon="-17.8346000">
        <ele>2131.6</ele>
        <time>2020-11-16T12:18:35Z</time>
      </trkpt>
      <trkpt lat="28.7513420" lon="-17.8346420">
        <ele>2131.9</ele>
        <time>2020-11-16T12:18:36Z</time>
      </trkpt>
      <trkpt lat="28.7513420" lon="-17.8346420">
        <ele>2131.9</ele>
        <time>2020-11-16T12:18:37Z</time>
      </trkpt>
      <trkpt lat="28.7513470" lon="-17.8346770">
        <ele>2132.2</ele>
        <time>2020-11-16T12:18:38Z</time>
      </trkpt>
      <trkpt lat="28.7513470" lon="-17.8346770">
        <ele>2132.2</ele>
        <time>2020-11-16T12:18:39Z</time>
      </trkpt>
      <trkpt lat="28.7513500" lon="-17.8347150">
        <ele>2132.5</ele>
        <time>2020-11-16T12:18:40Z</time>
      </trkpt>
      <trkpt lat="28.7513520" lon="-17.8347350">
        <ele>2132.6</ele>
        <time>2020-11-16T12:18:41Z</time>
      </trkpt>
      <trkpt lat="28.7513520" lon="-17.8347350">
        <ele>2132.6</ele>
        <time>2020-11-16T12:18:42Z</time>
      </trkpt>
      <trkpt lat="28.7513600" lon="-17.8347750">
        <ele>2133.0</ele>
        <time>2020-11-16T12:18:43Z</time>
      </trkpt>
      <trkpt lat="28.7513600" lon="-17.8347750">
        <ele>2133.0</ele>
        <time>2020-11-16T12:18:44Z</time>
      </trkpt>
      <trkpt lat="28.7513670" lon="-17.8348120">
        <ele>2133.3</ele>
        <time>2020-11-16T12:18:45Z</time>
      </trkpt>
      <trkpt lat="28.7513670" lon="-17.8348120">
        <ele>2133.3</ele>
        <time>2020-11-16T12:18:46Z</time>
      </trkpt>
      <trkpt lat="28.7513780" lon="-17.8348500">
        <ele>2133.6</ele>
        <time>2020-11-16T12:18:47Z</time>
      </trkpt>
      <trkpt lat="28.7513780" lon="-17.8348500">
        <ele>2133.6</ele>
        <time>2020-11-16T12:18:48Z</time>
      </trkpt>
      <trkpt lat="28.7513850" lon="-17.8348900">
        <ele>2133.9</ele>
        <time>2020-11-16T12:18:49Z</time>
      </trkpt>
      <trkpt lat="28.7513870" lon="-17.8349080">
        <ele>2134.1</ele>
        <time>2020-11-16T12:18:50Z</time>
      </trkpt>
      <trkpt lat="28.7513870" lon="-17.8349080">
        <ele>2134.1</ele>
        <time>2020-11-16T12:18:51Z</time>
      </trkpt>
      <trkpt lat="28.7513930" lon="-17.8349430">
        <ele>2134.4</ele>
        <time>2020-11-16T12:18:52Z</time>
      </trkpt>
      <trkpt lat="28.7514000" lon="-17.8349600">
        <ele>2134.5</ele>
        <time>2020-11-16T12:18:53Z</time>
      </trkpt>
      <trkpt lat="28.7514050" lon="-17.8349770">
        <ele>2134.7</ele>
        <time>2020-11-16T12:18:54Z</time>
      </trkpt>
      <trkpt lat="28.7514050" lon="-17.8349770">
        <ele>2134.7</ele>
        <time>2020-11-16T12:18:55Z</time>
      </trkpt>
      <trkpt lat="28.7514230" lon="-17.8350120">
        <ele>2135.0</ele>
        <time>2020-11-16T12:18:56Z</time>
      </trkpt>
      <trkpt lat="28.7514230" lon="-17.8350120">
        <ele>2135.0</ele>
        <time>2020-11-16T12:18:57Z</time>
      </trkpt>
      <trkpt lat="28.7514400" lon="-17.8350470">
        <ele>2135.4</ele>
        <time>2020-11-16T12:18:58Z</time>
      </trkpt>
      <trkpt lat="28.7514430" lon="-17.8350650">
        <ele>2135.5</ele>
        <time>2020-11-16T12:18:59Z</time>
      </trkpt>
      <trkpt lat="28.7514470" lon="-17.8350820">
        <ele>2135.7</ele>
        <time>2020-11-16T12:19:00Z</time>
      </trkpt>
      <trkpt lat="28.7514470" lon="-17.8350820">
        <ele>2135.7</ele>
        <time>2020-11-16T12:19:01Z</time>
      </trkpt>
      <trkpt lat="28.7514580" lon="-17.8351230">
        <ele>2136.0</ele>
        <time>2020-11-16T12:19:02Z</time>
      </trkpt>
      <trkpt lat="28.7514580" lon="-17.8351230">
        <ele>2136.0</ele>
        <time>2020-11-16T12:19:03Z</time>
      </trkpt>
      <trkpt lat="28.7514650" lon="-17.8351580">
        <ele>2136.4</ele>
        <time>2020-11-16T12:19:04Z</time>
      </trkpt>
      <trkpt lat="28.7514680" lon="-17.8351800">
        <ele>2136.5</ele>
        <time>2020-11-16T12:19:05Z</time>
      </trkpt>
      <trkpt lat="28.7514680" lon="-17.8351800">
        <ele>2136.5</ele>
        <time>2020-11-16T12:19:06Z</time>
      </trkpt>
      <trkpt lat="28.7514670" lon="-17.8352120">
        <ele>2136.8</ele>
        <time>2020-11-16T12:19:07Z</time>
      </trkpt>
      <trkpt lat="28.7514670" lon="-17.8352230">
        <ele>2136.9</ele>
        <time>2020-11-16T12:19:08Z</time>
      </trkpt>
      <trkpt lat="28.7514670" lon="-17.8352230">
        <ele>2136.9</ele>
        <time>2020-11-16T12:19:09Z</time>
      </trkpt>
      <trkpt lat="28.7514670" lon="-17.8352530">
        <ele>2137.2</ele>
        <time>2020-11-16T12:19:10Z</time>
      </trkpt>
      <trkpt lat="28.7514670" lon="-17.8352530">
        <ele>2137.2</ele>
        <time>2020-11-16T12:19:11Z</time>
      </trkpt>
      <trkpt lat="28.7514680" lon="-17.8352830">
        <ele>2137.4</ele>
        <time>2020-11-16T12:19:12Z</time>
      </trkpt>
      <trkpt lat="28.7514700" lon="-17.8352970">
        <ele>2137.5</ele>
        <time>2020-11-16T12:19:13Z</time>
      </trkpt>
      <trkpt lat="28.7514680" lon="-17.8353130">
        <ele>2137.6</ele>
        <time>2020-11-16T12:19:14Z</time>
      </trkpt>
      <trkpt lat="28.7514680" lon="-17.8353130">
        <ele>2137.6</ele>
        <time>2020-11-16T12:19:15Z</time>
      </trkpt>
      <trkpt lat="28.7514670" lon="-17.8353480">
        <ele>2137.9</ele>
        <time>2020-11-16T12:19:16Z</time>
      </trkpt>
      <trkpt lat="28.7514670" lon="-17.8353480">
        <ele>2137.9</ele>
        <time>2020-11-16T12:19:17Z</time>
      </trkpt>
      <trkpt lat="28.7514670" lon="-17.8353870">
        <ele>2138.2</ele>
        <time>2020-11-16T12:19:18Z</time>
      </trkpt>
      <trkpt lat="28.7514650" lon="-17.8354020">
        <ele>2138.3</ele>
        <time>2020-11-16T12:19:19Z</time>
      </trkpt>
      <trkpt lat="28.7514650" lon="-17.8354020">
        <ele>2138.3</ele>
        <time>2020-11-16T12:19:20Z</time>
      </trkpt>
      <trkpt lat="28.7514620" lon="-17.8354330">
        <ele>2138.6</ele>
        <time>2020-11-16T12:19:21Z</time>
      </trkpt>
      <trkpt lat="28.7514620" lon="-17.8354330">
        <ele>2138.6</ele>
        <time>2020-11-16T12:19:22Z</time>
      </trkpt>
      <trkpt lat="28.7514520" lon="-17.8354680">
        <ele>2138.8</ele>
        <time>2020-11-16T12:19:23Z</time>
      </trkpt>
      <trkpt lat="28.7514520" lon="-17.8354680">
        <ele>2138.8</ele>
        <time>2020-11-16T12:19:24Z</time>
      </trkpt>
      <trkpt lat="28.7514430" lon="-17.8355050">
        <ele>2139.1</ele>
        <time>2020-11-16T12:19:25Z</time>
      </trkpt>
      <trkpt lat="28.7514380" lon="-17.8355230">
        <ele>2139.2</ele>
        <time>2020-11-16T12:19:26Z</time>
      </trkpt>
      <trkpt lat="28.7514380" lon="-17.8355230">
        <ele>2139.2</ele>
        <time>2020-11-16T12:19:27Z</time>
      </trkpt>
      <trkpt lat="28.7514280" lon="-17.8355550">
        <ele>2139.5</ele>
        <time>2020-11-16T12:19:28Z</time>
      </trkpt>
      <trkpt lat="28.7514280" lon="-17.8355550">
        <ele>2139.5</ele>
        <time>2020-11-16T12:19:29Z</time>
      </trkpt>
      <trkpt lat="28.7514180" lon="-17.8355870">
        <ele>2139.7</ele>
        <time>2020-11-16T12:19:30Z</time>
      </trkpt>
      <trkpt lat="28.7514180" lon="-17.8355870">
        <ele>2139.7</ele>
        <time>2020-11-16T12:19:31Z</time>
      </trkpt>
      <trkpt lat="28.7514070" lon="-17.8356280">
        <ele>2140.0</ele>
        <time>2020-11-16T12:19:32Z</time>
      </trkpt>
      <trkpt lat="28.7514070" lon="-17.8356280">
        <ele>2140.0</ele>
        <time>2020-11-16T12:19:33Z</time>
      </trkpt>
      <trkpt lat="28.7513970" lon="-17.8356580">
        <ele>2140.2</ele>
        <time>2020-11-16T12:19:34Z</time>
      </trkpt>
      <trkpt lat="28.7513920" lon="-17.8356730">
        <ele>2140.3</ele>
        <time>2020-11-16T12:19:35Z</time>
      </trkpt>
      <trkpt lat="28.7513920" lon="-17.8356730">
        <ele>2140.3</ele>
        <time>2020-11-16T12:19:36Z</time>
      </trkpt>
      <trkpt lat="28.7513770" lon="-17.8357070">
        <ele>2140.5</ele>
        <time>2020-11-16T12:19:37Z</time>
      </trkpt>
      <trkpt lat="28.7513650" lon="-17.8357230">
        <ele>2140.6</ele>
        <time>2020-11-16T12:19:38Z</time>
      </trkpt>
      <trkpt lat="28.7513650" lon="-17.8357230">
        <ele>2140.6</ele>
        <time>2020-11-16T12:19:39Z</time>
      </trkpt>
      <trkpt lat="28.7513430" lon="-17.8357530">
        <ele>2140.9</ele>
        <time>2020-11-16T12:19:40Z</time>
      </trkpt>
      <trkpt lat="28.7513430" lon="-17.8357530">
        <ele>2140.9</ele>
        <time>2020-11-16T12:19:41Z</time>
      </trkpt>
      <trkpt lat="28.7513230" lon="-17.8357850">
        <ele>2141.1</ele>
        <time>2020-11-16T12:19:42Z</time>
      </trkpt>
      <trkpt lat="28.7513230" lon="-17.8357850">
        <ele>2141.1</ele>
        <time>2020-11-16T12:19:43Z</time>
      </trkpt>
      <trkpt lat="28.7513070" lon="-17.8358150">
        <ele>2141.3</ele>
        <time>2020-11-16T12:19:44Z</time>
      </trkpt>
      <trkpt lat="28.7513070" lon="-17.8358150">
        <ele>2141.3</ele>
        <time>2020-11-16T12:19:45Z</time>
      </trkpt>
      <trkpt lat="28.7512870" lon="-17.8358480">
        <ele>2141.6</ele>
        <time>2020-11-16T12:19:46Z</time>
      </trkpt>
      <trkpt lat="28.7512870" lon="-17.8358480">
        <ele>2141.6</ele>
        <time>2020-11-16T12:19:47Z</time>
      </trkpt>
      <trkpt lat="28.7512650" lon="-17.8358780">
        <ele>2141.8</ele>
        <time>2020-11-16T12:19:48Z</time>
      </trkpt>
      <trkpt lat="28.7512650" lon="-17.8358780">
        <ele>2141.8</ele>
        <time>2020-11-16T12:19:49Z</time>
      </trkpt>
      <trkpt lat="28.7512350" lon="-17.8359020">
        <ele>2142.1</ele>
        <time>2020-11-16T12:19:50Z</time>
      </trkpt>
      <trkpt lat="28.7512350" lon="-17.8359020">
        <ele>2142.1</ele>
        <time>2020-11-16T12:19:51Z</time>
      </trkpt>
      <trkpt lat="28.7512120" lon="-17.8359300">
        <ele>2142.3</ele>
        <time>2020-11-16T12:19:52Z</time>
      </trkpt>
      <trkpt lat="28.7512120" lon="-17.8359300">
        <ele>2142.3</ele>
        <time>2020-11-16T12:19:53Z</time>
      </trkpt>
      <trkpt lat="28.7511830" lon="-17.8359630">
        <ele>2142.6</ele>
        <time>2020-11-16T12:19:54Z</time>
      </trkpt>
      <trkpt lat="28.7511700" lon="-17.8359820">
        <ele>2142.8</ele>
        <time>2020-11-16T12:19:55Z</time>
      </trkpt>
      <trkpt lat="28.7511600" lon="-17.8359980">
        <ele>2142.9</ele>
        <time>2020-11-16T12:19:56Z</time>
      </trkpt>
      <trkpt lat="28.7511600" lon="-17.8359980">
        <ele>2142.9</ele>
        <time>2020-11-16T12:19:57Z</time>
      </trkpt>
      <trkpt lat="28.7511370" lon="-17.8360300">
        <ele>2143.2</ele>
        <time>2020-11-16T12:19:58Z</time>
      </trkpt>
      <trkpt lat="28.7511370" lon="-17.8360300">
        <ele>2143.2</ele>
        <time>2020-11-16T12:19:59Z</time>
      </trkpt>
      <trkpt lat="28.7511120" lon="-17.8360620">
        <ele>2143.5</ele>
        <time>2020-11-16T12:20:00Z</time>
      </trkpt>
      <trkpt lat="28.7511120" lon="-17.8360620">
        <ele>2143.5</ele>
        <time>2020-11-16T12:20:01Z</time>
      </trkpt>
      <trkpt lat="28.7510880" lon="-17.8360970">
        <ele>2143.8</ele>
        <time>2020-11-16T12:20:02Z</time>
      </trkpt>
      <trkpt lat="28.7510880" lon="-17.8360970">
        <ele>2143.8</ele>
        <time>2020-11-16T12:20:03Z</time>
      </trkpt>
      <trkpt lat="28.7510650" lon="-17.8361280">
        <ele>2144.1</ele>
        <time>2020-11-16T12:20:04Z</time>
      </trkpt>
      <trkpt lat="28.7510570" lon="-17.8361500">
        <ele>2144.2</ele>
        <time>2020-11-16T12:20:05Z</time>
      </trkpt>
      <trkpt lat="28.7510570" lon="-17.8361500">
        <ele>2144.2</ele>
        <time>2020-11-16T12:20:06Z</time>
      </trkpt>
      <trkpt lat="28.7510470" lon="-17.8361930">
        <ele>2144.5</ele>
        <time>2020-11-16T12:20:07Z</time>
      </trkpt>
      <trkpt lat="28.7510430" lon="-17.8362150">
        <ele>2144.7</ele>
        <time>2020-11-16T12:20:08Z</time>
      </trkpt>
      <trkpt lat="28.7510430" lon="-17.8362150">
        <ele>2144.7</ele>
        <time>2020-11-16T12:20:09Z</time>
      </trkpt>
      <trkpt lat="28.7510350" lon="-17.8362580">
        <ele>2145.0</ele>
        <time>2020-11-16T12:20:10Z</time>
      </trkpt>
      <trkpt lat="28.7510300" lon="-17.8362750">
        <ele>2145.1</ele>
        <time>2020-11-16T12:20:11Z</time>
      </trkpt>
      <trkpt lat="28.7510270" lon="-17.8362950">
        <ele>2145.3</ele>
        <time>2020-11-16T12:20:12Z</time>
      </trkpt>
      <trkpt lat="28.7510270" lon="-17.8362950">
        <ele>2145.3</ele>
        <time>2020-11-16T12:20:13Z</time>
      </trkpt>
      <trkpt lat="28.7510150" lon="-17.8363320">
        <ele>2145.6</ele>
        <time>2020-11-16T12:20:14Z</time>
      </trkpt>
      <trkpt lat="28.7510150" lon="-17.8363320">
        <ele>2145.6</ele>
        <time>2020-11-16T12:20:15Z</time>
      </trkpt>
      <trkpt lat="28.7509980" lon="-17.8363670">
        <ele>2145.9</ele>
        <time>2020-11-16T12:20:16Z</time>
      </trkpt>
      <trkpt lat="28.7509980" lon="-17.8363670">
        <ele>2145.9</ele>
        <time>2020-11-16T12:20:17Z</time>
      </trkpt>
      <trkpt lat="28.7509850" lon="-17.8364020">
        <ele>2146.1</ele>
        <time>2020-11-16T12:20:18Z</time>
      </trkpt>
      <trkpt lat="28.7509850" lon="-17.8364020">
        <ele>2146.1</ele>
        <time>2020-11-16T12:20:19Z</time>
      </trkpt>
      <trkpt lat="28.7509720" lon="-17.8364320">
        <ele>2146.4</ele>
        <time>2020-11-16T12:20:20Z</time>
      </trkpt>
      <trkpt lat="28.7509720" lon="-17.8364320">
        <ele>2146.4</ele>
        <time>2020-11-16T12:20:21Z</time>
      </trkpt>
      <trkpt lat="28.7509580" lon="-17.8364670">
        <ele>2146.7</ele>
        <time>2020-11-16T12:20:22Z</time>
      </trkpt>
      <trkpt lat="28.7509580" lon="-17.8364670">
        <ele>2146.7</ele>
        <time>2020-11-16T12:20:23Z</time>
      </trkpt>
      <trkpt lat="28.7509380" lon="-17.8364930">
        <ele>2146.8</ele>
        <time>2020-11-16T12:20:24Z</time>
      </trkpt>
      <trkpt lat="28.7509280" lon="-17.8365100">
        <ele>2147.0</ele>
        <time>2020-11-16T12:20:25Z</time>
      </trkpt>
      <trkpt lat="28.7509200" lon="-17.8365270">
        <ele>2147.2</ele>
        <time>2020-11-16T12:20:26Z</time>
      </trkpt>
      <trkpt lat="28.7509200" lon="-17.8365270">
        <ele>2147.2</ele>
        <time>2020-11-16T12:20:27Z</time>
      </trkpt>
      <trkpt lat="28.7509000" lon="-17.8365600">
        <ele>2147.6</ele>
        <time>2020-11-16T12:20:28Z</time>
      </trkpt>
      <trkpt lat="28.7509000" lon="-17.8365600">
        <ele>2147.6</ele>
        <time>2020-11-16T12:20:29Z</time>
      </trkpt>
      <trkpt lat="28.7508800" lon="-17.8365880">
        <ele>2148.0</ele>
        <time>2020-11-16T12:20:30Z</time>
      </trkpt>
      <trkpt lat="28.7508650" lon="-17.8366030">
        <ele>2148.2</ele>
        <time>2020-11-16T12:20:31Z</time>
      </trkpt>
      <trkpt lat="28.7508650" lon="-17.8366030">
        <ele>2148.2</ele>
        <time>2020-11-16T12:20:32Z</time>
      </trkpt>
      <trkpt lat="28.7508400" lon="-17.8366330">
        <ele>2148.6</ele>
        <time>2020-11-16T12:20:33Z</time>
      </trkpt>
      <trkpt lat="28.7508400" lon="-17.8366330">
        <ele>2148.6</ele>
        <time>2020-11-16T12:20:34Z</time>
      </trkpt>
      <trkpt lat="28.7508330" lon="-17.8366750">
        <ele>2149.0</ele>
        <time>2020-11-16T12:20:35Z</time>
      </trkpt>
      <trkpt lat="28.7508330" lon="-17.8366750">
        <ele>2149.0</ele>
        <time>2020-11-16T12:20:36Z</time>
      </trkpt>
      <trkpt lat="28.7508250" lon="-17.8367080">
        <ele>2149.3</ele>
        <time>2020-11-16T12:20:37Z</time>
      </trkpt>
      <trkpt lat="28.7508250" lon="-17.8367080">
        <ele>2149.3</ele>
        <time>2020-11-16T12:20:38Z</time>
      </trkpt>
      <trkpt lat="28.7508100" lon="-17.8367420">
        <ele>2149.6</ele>
        <time>2020-11-16T12:20:39Z</time>
      </trkpt>
      <trkpt lat="28.7508050" lon="-17.8367580">
        <ele>2149.7</ele>
        <time>2020-11-16T12:20:40Z</time>
      </trkpt>
      <trkpt lat="28.7508050" lon="-17.8367580">
        <ele>2149.7</ele>
        <time>2020-11-16T12:20:41Z</time>
      </trkpt>
      <trkpt lat="28.7508000" lon="-17.8367920">
        <ele>2150.0</ele>
        <time>2020-11-16T12:20:42Z</time>
      </trkpt>
      <trkpt lat="28.7508000" lon="-17.8367920">
        <ele>2150.0</ele>
        <time>2020-11-16T12:20:43Z</time>
      </trkpt>
      <trkpt lat="28.7507920" lon="-17.8368250">
        <ele>2150.2</ele>
        <time>2020-11-16T12:20:44Z</time>
      </trkpt>
      <trkpt lat="28.7507920" lon="-17.8368250">
        <ele>2150.2</ele>
        <time>2020-11-16T12:20:45Z</time>
      </trkpt>
      <trkpt lat="28.7507820" lon="-17.8368620">
        <ele>2150.5</ele>
        <time>2020-11-16T12:20:46Z</time>
      </trkpt>
      <trkpt lat="28.7507820" lon="-17.8368620">
        <ele>2150.5</ele>
        <time>2020-11-16T12:20:47Z</time>
      </trkpt>
      <trkpt lat="28.7507750" lon="-17.8368980">
        <ele>2150.8</ele>
        <time>2020-11-16T12:20:48Z</time>
      </trkpt>
      <trkpt lat="28.7507750" lon="-17.8368980">
        <ele>2150.8</ele>
        <time>2020-11-16T12:20:49Z</time>
      </trkpt>
      <trkpt lat="28.7507650" lon="-17.8369320">
        <ele>2151.1</ele>
        <time>2020-11-16T12:20:50Z</time>
      </trkpt>
      <trkpt lat="28.7507650" lon="-17.8369320">
        <ele>2151.1</ele>
        <time>2020-11-16T12:20:51Z</time>
      </trkpt>
      <trkpt lat="28.7507500" lon="-17.8369630">
        <ele>2151.3</ele>
        <time>2020-11-16T12:20:52Z</time>
      </trkpt>
      <trkpt lat="28.7507500" lon="-17.8369630">
        <ele>2151.3</ele>
        <time>2020-11-16T12:20:53Z</time>
      </trkpt>
      <trkpt lat="28.7507450" lon="-17.8369980">
        <ele>2151.6</ele>
        <time>2020-11-16T12:20:54Z</time>
      </trkpt>
      <trkpt lat="28.7507450" lon="-17.8369980">
        <ele>2151.6</ele>
        <time>2020-11-16T12:20:55Z</time>
      </trkpt>
      <trkpt lat="28.7507330" lon="-17.8370330">
        <ele>2152.0</ele>
        <time>2020-11-16T12:20:56Z</time>
      </trkpt>
      <trkpt lat="28.7507330" lon="-17.8370330">
        <ele>2152.0</ele>
        <time>2020-11-16T12:20:57Z</time>
      </trkpt>
      <trkpt lat="28.7507120" lon="-17.8370630">
        <ele>2152.3</ele>
        <time>2020-11-16T12:20:58Z</time>
      </trkpt>
      <trkpt lat="28.7507120" lon="-17.8370630">
        <ele>2152.3</ele>
        <time>2020-11-16T12:20:59Z</time>
      </trkpt>
      <trkpt lat="28.7506970" lon="-17.8370950">
        <ele>2152.7</ele>
        <time>2020-11-16T12:21:00Z</time>
      </trkpt>
      <trkpt lat="28.7506970" lon="-17.8370950">
        <ele>2152.7</ele>
        <time>2020-11-16T12:21:01Z</time>
      </trkpt>
      <trkpt lat="28.7506880" lon="-17.8371320">
        <ele>2153.0</ele>
        <time>2020-11-16T12:21:02Z</time>
      </trkpt>
      <trkpt lat="28.7506880" lon="-17.8371320">
        <ele>2153.0</ele>
        <time>2020-11-16T12:21:03Z</time>
      </trkpt>
      <trkpt lat="28.7506770" lon="-17.8371650">
        <ele>2153.4</ele>
        <time>2020-11-16T12:21:04Z</time>
      </trkpt>
      <trkpt lat="28.7506770" lon="-17.8371650">
        <ele>2153.4</ele>
        <time>2020-11-16T12:21:05Z</time>
      </trkpt>
      <trkpt lat="28.7506630" lon="-17.8372020">
        <ele>2153.8</ele>
        <time>2020-11-16T12:21:06Z</time>
      </trkpt>
      <trkpt lat="28.7506630" lon="-17.8372020">
        <ele>2153.8</ele>
        <time>2020-11-16T12:21:07Z</time>
      </trkpt>
      <trkpt lat="28.7506470" lon="-17.8372400">
        <ele>2154.3</ele>
        <time>2020-11-16T12:21:08Z</time>
      </trkpt>
      <trkpt lat="28.7506470" lon="-17.8372400">
        <ele>2154.3</ele>
        <time>2020-11-16T12:21:09Z</time>
      </trkpt>
      <trkpt lat="28.7506250" lon="-17.8372780">
        <ele>2154.8</ele>
        <time>2020-11-16T12:21:10Z</time>
      </trkpt>
      <trkpt lat="28.7506130" lon="-17.8372980">
        <ele>2155.0</ele>
        <time>2020-11-16T12:21:11Z</time>
      </trkpt>
      <trkpt lat="28.7505980" lon="-17.8373150">
        <ele>2155.3</ele>
        <time>2020-11-16T12:21:12Z</time>
      </trkpt>
      <trkpt lat="28.7505980" lon="-17.8373150">
        <ele>2155.3</ele>
        <time>2020-11-16T12:21:13Z</time>
      </trkpt>
      <trkpt lat="28.7505800" lon="-17.8373480">
        <ele>2155.7</ele>
        <time>2020-11-16T12:21:14Z</time>
      </trkpt>
      <trkpt lat="28.7505800" lon="-17.8373480">
        <ele>2155.7</ele>
        <time>2020-11-16T12:21:15Z</time>
      </trkpt>
      <trkpt lat="28.7505600" lon="-17.8373830">
        <ele>2156.1</ele>
        <time>2020-11-16T12:21:16Z</time>
      </trkpt>
      <trkpt lat="28.7505600" lon="-17.8373830">
        <ele>2156.1</ele>
        <time>2020-11-16T12:21:17Z</time>
      </trkpt>
      <trkpt lat="28.7505350" lon="-17.8374130">
        <ele>2156.5</ele>
        <time>2020-11-16T12:21:18Z</time>
      </trkpt>
      <trkpt lat="28.7505350" lon="-17.8374130">
        <ele>2156.5</ele>
        <time>2020-11-16T12:21:19Z</time>
      </trkpt>
      <trkpt lat="28.7505070" lon="-17.8374380">
        <ele>2156.9</ele>
        <time>2020-11-16T12:21:20Z</time>
      </trkpt>
      <trkpt lat="28.7505070" lon="-17.8374380">
        <ele>2156.9</ele>
        <time>2020-11-16T12:21:21Z</time>
      </trkpt>
      <trkpt lat="28.7504820" lon="-17.8374630">
        <ele>2157.2</ele>
        <time>2020-11-16T12:21:22Z</time>
      </trkpt>
      <trkpt lat="28.7504730" lon="-17.8374770">
        <ele>2157.4</ele>
        <time>2020-11-16T12:21:23Z</time>
      </trkpt>
      <trkpt lat="28.7504730" lon="-17.8374770">
        <ele>2157.4</ele>
        <time>2020-11-16T12:21:24Z</time>
      </trkpt>
      <trkpt lat="28.7504530" lon="-17.8375050">
        <ele>2157.7</ele>
        <time>2020-11-16T12:21:25Z</time>
      </trkpt>
      <trkpt lat="28.7504430" lon="-17.8375180">
        <ele>2157.9</ele>
        <time>2020-11-16T12:21:26Z</time>
      </trkpt>
      <trkpt lat="28.7504430" lon="-17.8375180">
        <ele>2157.9</ele>
        <time>2020-11-16T12:21:27Z</time>
      </trkpt>
      <trkpt lat="28.7504200" lon="-17.8375470">
        <ele>2158.3</ele>
        <time>2020-11-16T12:21:28Z</time>
      </trkpt>
      <trkpt lat="28.7504200" lon="-17.8375470">
        <ele>2158.3</ele>
        <time>2020-11-16T12:21:29Z</time>
      </trkpt>
      <trkpt lat="28.7503980" lon="-17.8375730">
        <ele>2158.6</ele>
        <time>2020-11-16T12:21:30Z</time>
      </trkpt>
      <trkpt lat="28.7503980" lon="-17.8375730">
        <ele>2158.6</ele>
        <time>2020-11-16T12:21:31Z</time>
      </trkpt>
      <trkpt lat="28.7503780" lon="-17.8376020">
        <ele>2158.9</ele>
        <time>2020-11-16T12:21:32Z</time>
      </trkpt>
      <trkpt lat="28.7503680" lon="-17.8376170">
        <ele>2159.1</ele>
        <time>2020-11-16T12:21:33Z</time>
      </trkpt>
      <trkpt lat="28.7503680" lon="-17.8376170">
        <ele>2159.1</ele>
        <time>2020-11-16T12:21:34Z</time>
      </trkpt>
      <trkpt lat="28.7503450" lon="-17.8376430">
        <ele>2159.4</ele>
        <time>2020-11-16T12:21:35Z</time>
      </trkpt>
      <trkpt lat="28.7503330" lon="-17.8376600">
        <ele>2159.6</ele>
        <time>2020-11-16T12:21:36Z</time>
      </trkpt>
      <trkpt lat="28.7503330" lon="-17.8376600">
        <ele>2159.6</ele>
        <time>2020-11-16T12:21:37Z</time>
      </trkpt>
      <trkpt lat="28.7502950" lon="-17.8376870">
        <ele>2160.1</ele>
        <time>2020-11-16T12:21:38Z</time>
      </trkpt>
      <trkpt lat="28.7502950" lon="-17.8376870">
        <ele>2160.1</ele>
        <time>2020-11-16T12:21:39Z</time>
      </trkpt>
      <trkpt lat="28.7502630" lon="-17.8377130">
        <ele>2160.5</ele>
        <time>2020-11-16T12:21:40Z</time>
      </trkpt>
      <trkpt lat="28.7502630" lon="-17.8377130">
        <ele>2160.5</ele>
        <time>2020-11-16T12:21:41Z</time>
      </trkpt>
      <trkpt lat="28.7502320" lon="-17.8377400">
        <ele>2160.8</ele>
        <time>2020-11-16T12:21:42Z</time>
      </trkpt>
      <trkpt lat="28.7502320" lon="-17.8377400">
        <ele>2160.8</ele>
        <time>2020-11-16T12:21:43Z</time>
      </trkpt>
      <trkpt lat="28.7502020" lon="-17.8377620">
        <ele>2161.1</ele>
        <time>2020-11-16T12:21:44Z</time>
      </trkpt>
      <trkpt lat="28.7501870" lon="-17.8377700">
        <ele>2161.2</ele>
        <time>2020-11-16T12:21:45Z</time>
      </trkpt>
      <trkpt lat="28.7501730" lon="-17.8377800">
        <ele>2161.4</ele>
        <time>2020-11-16T12:21:46Z</time>
      </trkpt>
      <trkpt lat="28.7501730" lon="-17.8377800">
        <ele>2161.4</ele>
        <time>2020-11-16T12:21:47Z</time>
      </trkpt>
      <trkpt lat="28.7501480" lon="-17.8378050">
        <ele>2161.6</ele>
        <time>2020-11-16T12:21:48Z</time>
      </trkpt>
      <trkpt lat="28.7501480" lon="-17.8378050">
        <ele>2161.6</ele>
        <time>2020-11-16T12:21:49Z</time>
      </trkpt>
      <trkpt lat="28.7501220" lon="-17.8378250">
        <ele>2161.9</ele>
        <time>2020-11-16T12:21:50Z</time>
      </trkpt>
      <trkpt lat="28.7501220" lon="-17.8378250">
        <ele>2161.9</ele>
        <time>2020-11-16T12:21:51Z</time>
      </trkpt>
      <trkpt lat="28.7500930" lon="-17.8378400">
        <ele>2162.1</ele>
        <time>2020-11-16T12:21:52Z</time>
      </trkpt>
      <trkpt lat="28.7500930" lon="-17.8378400">
        <ele>2162.1</ele>
        <time>2020-11-16T12:21:53Z</time>
      </trkpt>
      <trkpt lat="28.7500680" lon="-17.8378630">
        <ele>2162.4</ele>
        <time>2020-11-16T12:21:54Z</time>
      </trkpt>
      <trkpt lat="28.7500550" lon="-17.8378770">
        <ele>2162.6</ele>
        <time>2020-11-16T12:21:55Z</time>
      </trkpt>
      <trkpt lat="28.7500420" lon="-17.8378900">
        <ele>2162.7</ele>
        <time>2020-11-16T12:21:56Z</time>
      </trkpt>
      <trkpt lat="28.7500420" lon="-17.8378900">
        <ele>2162.7</ele>
        <time>2020-11-16T12:21:57Z</time>
      </trkpt>
      <trkpt lat="28.7500150" lon="-17.8379170">
        <ele>2163.0</ele>
        <time>2020-11-16T12:21:58Z</time>
      </trkpt>
      <trkpt lat="28.7500150" lon="-17.8379170">
        <ele>2163.0</ele>
        <time>2020-11-16T12:21:59Z</time>
      </trkpt>
      <trkpt lat="28.7499830" lon="-17.8379370">
        <ele>2163.3</ele>
        <time>2020-11-16T12:22:00Z</time>
      </trkpt>
      <trkpt lat="28.7499680" lon="-17.8379470">
        <ele>2163.5</ele>
        <time>2020-11-16T12:22:01Z</time>
      </trkpt>
      <trkpt lat="28.7499680" lon="-17.8379470">
        <ele>2163.5</ele>
        <time>2020-11-16T12:22:02Z</time>
      </trkpt>
      <trkpt lat="28.7499380" lon="-17.8379680">
        <ele>2163.8</ele>
        <time>2020-11-16T12:22:03Z</time>
      </trkpt>
      <trkpt lat="28.7499230" lon="-17.8379800">
        <ele>2163.9</ele>
        <time>2020-11-16T12:22:04Z</time>
      </trkpt>
      <trkpt lat="28.7499230" lon="-17.8379800">
        <ele>2163.9</ele>
        <time>2020-11-16T12:22:05Z</time>
      </trkpt>
      <trkpt lat="28.7498950" lon="-17.8380070">
        <ele>2164.2</ele>
        <time>2020-11-16T12:22:06Z</time>
      </trkpt>
      <trkpt lat="28.7498950" lon="-17.8380070">
        <ele>2164.2</ele>
        <time>2020-11-16T12:22:07Z</time>
      </trkpt>
      <trkpt lat="28.7498680" lon="-17.8380330">
        <ele>2164.6</ele>
        <time>2020-11-16T12:22:08Z</time>
      </trkpt>
      <trkpt lat="28.7498680" lon="-17.8380330">
        <ele>2164.6</ele>
        <time>2020-11-16T12:22:09Z</time>
      </trkpt>
      <trkpt lat="28.7498470" lon="-17.8380630">
        <ele>2164.9</ele>
        <time>2020-11-16T12:22:10Z</time>
      </trkpt>
      <trkpt lat="28.7498350" lon="-17.8380780">
        <ele>2165.0</ele>
        <time>2020-11-16T12:22:11Z</time>
      </trkpt>
      <trkpt lat="28.7498350" lon="-17.8380780">
        <ele>2165.0</ele>
        <time>2020-11-16T12:22:12Z</time>
      </trkpt>
      <trkpt lat="28.7498150" lon="-17.8381080">
        <ele>2165.4</ele>
        <time>2020-11-16T12:22:13Z</time>
      </trkpt>
      <trkpt lat="28.7498020" lon="-17.8381230">
        <ele>2165.6</ele>
        <time>2020-11-16T12:22:14Z</time>
      </trkpt>
      <trkpt lat="28.7498020" lon="-17.8381230">
        <ele>2165.6</ele>
        <time>2020-11-16T12:22:15Z</time>
      </trkpt>
      <trkpt lat="28.7497800" lon="-17.8381500">
        <ele>2165.9</ele>
        <time>2020-11-16T12:22:16Z</time>
      </trkpt>
      <trkpt lat="28.7497700" lon="-17.8381650">
        <ele>2166.1</ele>
        <time>2020-11-16T12:22:17Z</time>
      </trkpt>
      <trkpt lat="28.7497600" lon="-17.8381800">
        <ele>2166.2</ele>
        <time>2020-11-16T12:22:18Z</time>
      </trkpt>
      <trkpt lat="28.7497600" lon="-17.8381800">
        <ele>2166.2</ele>
        <time>2020-11-16T12:22:19Z</time>
      </trkpt>
      <trkpt lat="28.7497430" lon="-17.8382120">
        <ele>2166.5</ele>
        <time>2020-11-16T12:22:20Z</time>
      </trkpt>
      <trkpt lat="28.7497430" lon="-17.8382120">
        <ele>2166.5</ele>
        <time>2020-11-16T12:22:21Z</time>
      </trkpt>
      <trkpt lat="28.7497270" lon="-17.8382470">
        <ele>2166.9</ele>
        <time>2020-11-16T12:22:22Z</time>
      </trkpt>
      <trkpt lat="28.7497170" lon="-17.8382630">
        <ele>2167.1</ele>
        <time>2020-11-16T12:22:23Z</time>
      </trkpt>
      <trkpt lat="28.7497170" lon="-17.8382630">
        <ele>2167.1</ele>
        <time>2020-11-16T12:22:24Z</time>
      </trkpt>
      <trkpt lat="28.7496880" lon="-17.8382850">
        <ele>2167.4</ele>
        <time>2020-11-16T12:22:25Z</time>
      </trkpt>
      <trkpt lat="28.7496880" lon="-17.8382850">
        <ele>2167.4</ele>
        <time>2020-11-16T12:22:26Z</time>
      </trkpt>
      <trkpt lat="28.7496630" lon="-17.8383100">
        <ele>2167.7</ele>
        <time>2020-11-16T12:22:27Z</time>
      </trkpt>
      <trkpt lat="28.7496630" lon="-17.8383100">
        <ele>2167.7</ele>
        <time>2020-11-16T12:22:28Z</time>
      </trkpt>
      <trkpt lat="28.7496400" lon="-17.8383380">
        <ele>2168.0</ele>
        <time>2020-11-16T12:22:29Z</time>
      </trkpt>
      <trkpt lat="28.7496280" lon="-17.8383520">
        <ele>2168.2</ele>
        <time>2020-11-16T12:22:30Z</time>
      </trkpt>
      <trkpt lat="28.7496180" lon="-17.8383670">
        <ele>2168.4</ele>
        <time>2020-11-16T12:22:31Z</time>
      </trkpt>
      <trkpt lat="28.7496100" lon="-17.8383850">
        <ele>2168.5</ele>
        <time>2020-11-16T12:22:32Z</time>
      </trkpt>
      <trkpt lat="28.7496100" lon="-17.8383850">
        <ele>2168.5</ele>
        <time>2020-11-16T12:22:33Z</time>
      </trkpt>
      <trkpt lat="28.7495930" lon="-17.8384180">
        <ele>2168.8</ele>
        <time>2020-11-16T12:22:34Z</time>
      </trkpt>
      <trkpt lat="28.7495820" lon="-17.8384320">
        <ele>2169.0</ele>
        <time>2020-11-16T12:22:35Z</time>
      </trkpt>
      <trkpt lat="28.7495820" lon="-17.8384320">
        <ele>2169.0</ele>
        <time>2020-11-16T12:22:36Z</time>
      </trkpt>
      <trkpt lat="28.7495520" lon="-17.8384530">
        <ele>2169.3</ele>
        <time>2020-11-16T12:22:37Z</time>
      </trkpt>
      <trkpt lat="28.7495380" lon="-17.8384630">
        <ele>2169.5</ele>
        <time>2020-11-16T12:22:38Z</time>
      </trkpt>
      <trkpt lat="28.7495380" lon="-17.8384630">
        <ele>2169.5</ele>
        <time>2020-11-16T12:22:39Z</time>
      </trkpt>
      <trkpt lat="28.7495200" lon="-17.8384950">
        <ele>2169.8</ele>
        <time>2020-11-16T12:22:40Z</time>
      </trkpt>
      <trkpt lat="28.7495200" lon="-17.8384950">
        <ele>2169.8</ele>
        <time>2020-11-16T12:22:41Z</time>
      </trkpt>
      <trkpt lat="28.7495000" lon="-17.8385280">
        <ele>2170.1</ele>
        <time>2020-11-16T12:22:42Z</time>
      </trkpt>
      <trkpt lat="28.7495000" lon="-17.8385280">
        <ele>2170.1</ele>
        <time>2020-11-16T12:22:43Z</time>
      </trkpt>
      <trkpt lat="28.7494730" lon="-17.8385530">
        <ele>2170.4</ele>
        <time>2020-11-16T12:22:44Z</time>
      </trkpt>
      <trkpt lat="28.7494630" lon="-17.8385670">
        <ele>2170.6</ele>
        <time>2020-11-16T12:22:45Z</time>
      </trkpt>
      <trkpt lat="28.7494630" lon="-17.8385670">
        <ele>2170.6</ele>
        <time>2020-11-16T12:22:46Z</time>
      </trkpt>
      <trkpt lat="28.7494420" lon="-17.8385970">
        <ele>2170.9</ele>
        <time>2020-11-16T12:22:47Z</time>
      </trkpt>
      <trkpt lat="28.7494420" lon="-17.8385970">
        <ele>2170.9</ele>
        <time>2020-11-16T12:22:48Z</time>
      </trkpt>
      <trkpt lat="28.7494200" lon="-17.8386230">
        <ele>2171.3</ele>
        <time>2020-11-16T12:22:49Z</time>
      </trkpt>
      <trkpt lat="28.7494070" lon="-17.8386350">
        <ele>2171.4</ele>
        <time>2020-11-16T12:22:50Z</time>
      </trkpt>
      <trkpt lat="28.7494070" lon="-17.8386350">
        <ele>2171.4</ele>
        <time>2020-11-16T12:22:51Z</time>
      </trkpt>
      <trkpt lat="28.7493850" lon="-17.8386670">
        <ele>2171.9</ele>
        <time>2020-11-16T12:22:52Z</time>
      </trkpt>
      <trkpt lat="28.7493850" lon="-17.8386670">
        <ele>2171.9</ele>
        <time>2020-11-16T12:22:53Z</time>
      </trkpt>
      <trkpt lat="28.7493700" lon="-17.8386980">
        <ele>2172.3</ele>
        <time>2020-11-16T12:22:54Z</time>
      </trkpt>
      <trkpt lat="28.7493620" lon="-17.8387130">
        <ele>2172.5</ele>
        <time>2020-11-16T12:22:55Z</time>
      </trkpt>
      <trkpt lat="28.7493500" lon="-17.8387250">
        <ele>2172.7</ele>
        <time>2020-11-16T12:22:56Z</time>
      </trkpt>
      <trkpt lat="28.7493500" lon="-17.8387250">
        <ele>2172.7</ele>
        <time>2020-11-16T12:22:57Z</time>
      </trkpt>
      <trkpt lat="28.7493320" lon="-17.8387520">
        <ele>2173.1</ele>
        <time>2020-11-16T12:22:58Z</time>
      </trkpt>
      <trkpt lat="28.7493320" lon="-17.8387520">
        <ele>2173.1</ele>
        <time>2020-11-16T12:22:59Z</time>
      </trkpt>
      <trkpt lat="28.7493270" lon="-17.8387900">
        <ele>2173.6</ele>
        <time>2020-11-16T12:23:00Z</time>
      </trkpt>
      <trkpt lat="28.7493270" lon="-17.8387900">
        <ele>2173.6</ele>
        <time>2020-11-16T12:23:01Z</time>
      </trkpt>
      <trkpt lat="28.7493120" lon="-17.8388220">
        <ele>2174.0</ele>
        <time>2020-11-16T12:23:02Z</time>
      </trkpt>
      <trkpt lat="28.7493120" lon="-17.8388220">
        <ele>2174.0</ele>
        <time>2020-11-16T12:23:03Z</time>
      </trkpt>
      <trkpt lat="28.7492970" lon="-17.8388530">
        <ele>2174.4</ele>
        <time>2020-11-16T12:23:04Z</time>
      </trkpt>
      <trkpt lat="28.7492920" lon="-17.8388720">
        <ele>2174.7</ele>
        <time>2020-11-16T12:23:05Z</time>
      </trkpt>
      <trkpt lat="28.7492850" lon="-17.8388880">
        <ele>2174.9</ele>
        <time>2020-11-16T12:23:06Z</time>
      </trkpt>
      <trkpt lat="28.7492850" lon="-17.8388880">
        <ele>2174.9</ele>
        <time>2020-11-16T12:23:07Z</time>
      </trkpt>
      <trkpt lat="28.7492720" lon="-17.8389220">
        <ele>2175.4</ele>
        <time>2020-11-16T12:23:08Z</time>
      </trkpt>
      <trkpt lat="28.7492720" lon="-17.8389220">
        <ele>2175.4</ele>
        <time>2020-11-16T12:23:09Z</time>
      </trkpt>
      <trkpt lat="28.7492670" lon="-17.8389570">
        <ele>2175.8</ele>
        <time>2020-11-16T12:23:10Z</time>
      </trkpt>
      <trkpt lat="28.7492670" lon="-17.8389570">
        <ele>2175.8</ele>
        <time>2020-11-16T12:23:11Z</time>
      </trkpt>
      <trkpt lat="28.7492650" lon="-17.8389950">
        <ele>2176.3</ele>
        <time>2020-11-16T12:23:12Z</time>
      </trkpt>
      <trkpt lat="28.7492650" lon="-17.8389950">
        <ele>2176.3</ele>
        <time>2020-11-16T12:23:13Z</time>
      </trkpt>
      <trkpt lat="28.7492570" lon="-17.8390330">
        <ele>2176.7</ele>
        <time>2020-11-16T12:23:14Z</time>
      </trkpt>
      <trkpt lat="28.7492570" lon="-17.8390330">
        <ele>2176.7</ele>
        <time>2020-11-16T12:23:15Z</time>
      </trkpt>
      <trkpt lat="28.7492470" lon="-17.8390720">
        <ele>2177.2</ele>
        <time>2020-11-16T12:23:16Z</time>
      </trkpt>
      <trkpt lat="28.7492530" lon="-17.8390920">
        <ele>2177.4</ele>
        <time>2020-11-16T12:23:17Z</time>
      </trkpt>
      <trkpt lat="28.7492530" lon="-17.8390920">
        <ele>2177.4</ele>
        <time>2020-11-16T12:23:18Z</time>
      </trkpt>
      <trkpt lat="28.7492430" lon="-17.8391230">
        <ele>2177.8</ele>
        <time>2020-11-16T12:23:19Z</time>
      </trkpt>
      <trkpt lat="28.7492430" lon="-17.8391230">
        <ele>2177.8</ele>
        <time>2020-11-16T12:23:20Z</time>
      </trkpt>
      <trkpt lat="28.7492370" lon="-17.8391530">
        <ele>2178.1</ele>
        <time>2020-11-16T12:23:21Z</time>
      </trkpt>
      <trkpt lat="28.7492350" lon="-17.8391700">
        <ele>2178.3</ele>
        <time>2020-11-16T12:23:22Z</time>
      </trkpt>
      <trkpt lat="28.7492350" lon="-17.8391700">
        <ele>2178.3</ele>
        <time>2020-11-16T12:23:23Z</time>
      </trkpt>
      <trkpt lat="28.7492230" lon="-17.8391980">
        <ele>2178.6</ele>
        <time>2020-11-16T12:23:24Z</time>
      </trkpt>
      <trkpt lat="28.7492230" lon="-17.8391980">
        <ele>2178.6</ele>
        <time>2020-11-16T12:23:25Z</time>
      </trkpt>
      <trkpt lat="28.7492070" lon="-17.8392320">
        <ele>2179.0</ele>
        <time>2020-11-16T12:23:26Z</time>
      </trkpt>
      <trkpt lat="28.7492070" lon="-17.8392320">
        <ele>2179.0</ele>
        <time>2020-11-16T12:23:27Z</time>
      </trkpt>
      <trkpt lat="28.7491980" lon="-17.8392730">
        <ele>2179.5</ele>
        <time>2020-11-16T12:23:28Z</time>
      </trkpt>
      <trkpt lat="28.7491930" lon="-17.8392920">
        <ele>2179.7</ele>
        <time>2020-11-16T12:23:29Z</time>
      </trkpt>
      <trkpt lat="28.7491930" lon="-17.8392920">
        <ele>2179.7</ele>
        <time>2020-11-16T12:23:30Z</time>
      </trkpt>
      <trkpt lat="28.7491780" lon="-17.8393250">
        <ele>2180.0</ele>
        <time>2020-11-16T12:23:31Z</time>
      </trkpt>
      <trkpt lat="28.7491720" lon="-17.8393400">
        <ele>2180.2</ele>
        <time>2020-11-16T12:23:32Z</time>
      </trkpt>
      <trkpt lat="28.7491720" lon="-17.8393400">
        <ele>2180.2</ele>
        <time>2020-11-16T12:23:33Z</time>
      </trkpt>
      <trkpt lat="28.7491580" lon="-17.8393680">
        <ele>2180.5</ele>
        <time>2020-11-16T12:23:34Z</time>
      </trkpt>
      <trkpt lat="28.7491580" lon="-17.8393680">
        <ele>2180.5</ele>
        <time>2020-11-16T12:23:35Z</time>
      </trkpt>
      <trkpt lat="28.7491420" lon="-17.8393950">
        <ele>2180.8</ele>
        <time>2020-11-16T12:23:36Z</time>
      </trkpt>
      <trkpt lat="28.7491300" lon="-17.8394130">
        <ele>2181.0</ele>
        <time>2020-11-16T12:23:37Z</time>
      </trkpt>
      <trkpt lat="28.7491300" lon="-17.8394130">
        <ele>2181.0</ele>
        <time>2020-11-16T12:23:38Z</time>
      </trkpt>
      <trkpt lat="28.7491030" lon="-17.8394370">
        <ele>2181.4</ele>
        <time>2020-11-16T12:23:39Z</time>
      </trkpt>
      <trkpt lat="28.7490900" lon="-17.8394480">
        <ele>2181.5</ele>
        <time>2020-11-16T12:23:40Z</time>
      </trkpt>
      <trkpt lat="28.7490900" lon="-17.8394480">
        <ele>2181.5</ele>
        <time>2020-11-16T12:23:41Z</time>
      </trkpt>
      <trkpt lat="28.7490630" lon="-17.8394780">
        <ele>2181.9</ele>
        <time>2020-11-16T12:23:42Z</time>
      </trkpt>
      <trkpt lat="28.7490630" lon="-17.8394780">
        <ele>2181.9</ele>
        <time>2020-11-16T12:23:43Z</time>
      </trkpt>
      <trkpt lat="28.7490400" lon="-17.8395120">
        <ele>2182.2</ele>
        <time>2020-11-16T12:23:44Z</time>
      </trkpt>
      <trkpt lat="28.7490400" lon="-17.8395120">
        <ele>2182.2</ele>
        <time>2020-11-16T12:23:45Z</time>
      </trkpt>
      <trkpt lat="28.7490170" lon="-17.8395420">
        <ele>2182.6</ele>
        <time>2020-11-16T12:23:46Z</time>
      </trkpt>
      <trkpt lat="28.7490030" lon="-17.8395570">
        <ele>2182.7</ele>
        <time>2020-11-16T12:23:47Z</time>
      </trkpt>
      <trkpt lat="28.7490030" lon="-17.8395570">
        <ele>2182.7</ele>
        <time>2020-11-16T12:23:48Z</time>
      </trkpt>
      <trkpt lat="28.7489770" lon="-17.8395870">
        <ele>2183.1</ele>
        <time>2020-11-16T12:23:49Z</time>
      </trkpt>
      <trkpt lat="28.7489620" lon="-17.8396020">
        <ele>2183.3</ele>
        <time>2020-11-16T12:23:50Z</time>
      </trkpt>
      <trkpt lat="28.7489620" lon="-17.8396020">
        <ele>2183.3</ele>
        <time>2020-11-16T12:23:51Z</time>
      </trkpt>
      <trkpt lat="28.7489320" lon="-17.8396250">
        <ele>2183.7</ele>
        <time>2020-11-16T12:23:52Z</time>
      </trkpt>
      <trkpt lat="28.7489180" lon="-17.8396380">
        <ele>2183.9</ele>
        <time>2020-11-16T12:23:53Z</time>
      </trkpt>
      <trkpt lat="28.7489070" lon="-17.8396530">
        <ele>2184.1</ele>
        <time>2020-11-16T12:23:54Z</time>
      </trkpt>
      <trkpt lat="28.7489070" lon="-17.8396530">
        <ele>2184.1</ele>
        <time>2020-11-16T12:23:55Z</time>
      </trkpt>
      <trkpt lat="28.7488780" lon="-17.8396780">
        <ele>2184.4</ele>
        <time>2020-11-16T12:23:56Z</time>
      </trkpt>
      <trkpt lat="28.7488780" lon="-17.8396780">
        <ele>2184.4</ele>
        <time>2020-11-16T12:23:57Z</time>
      </trkpt>
      <trkpt lat="28.7488520" lon="-17.8397030">
        <ele>2184.7</ele>
        <time>2020-11-16T12:23:58Z</time>
      </trkpt>
      <trkpt lat="28.7488380" lon="-17.8397150">
        <ele>2184.9</ele>
        <time>2020-11-16T12:23:59Z</time>
      </trkpt>
      <trkpt lat="28.7488250" lon="-17.8397270">
        <ele>2185.0</ele>
        <time>2020-11-16T12:24:00Z</time>
      </trkpt>
      <trkpt lat="28.7488250" lon="-17.8397270">
        <ele>2185.0</ele>
        <time>2020-11-16T12:24:01Z</time>
      </trkpt>
      <trkpt lat="28.7487980" lon="-17.8397470">
        <ele>2185.3</ele>
        <time>2020-11-16T12:24:02Z</time>
      </trkpt>
      <trkpt lat="28.7487980" lon="-17.8397470">
        <ele>2185.3</ele>
        <time>2020-11-16T12:24:03Z</time>
      </trkpt>
      <trkpt lat="28.7487820" lon="-17.8397770">
        <ele>2185.5</ele>
        <time>2020-11-16T12:24:04Z</time>
      </trkpt>
      <trkpt lat="28.7487780" lon="-17.8397970">
        <ele>2185.6</ele>
        <time>2020-11-16T12:24:05Z</time>
      </trkpt>
      <trkpt lat="28.7487780" lon="-17.8397970">
        <ele>2185.6</ele>
        <time>2020-11-16T12:24:06Z</time>
      </trkpt>
      <trkpt lat="28.7487670" lon="-17.8398370">
        <ele>2185.9</ele>
        <time>2020-11-16T12:24:07Z</time>
      </trkpt>
      <trkpt lat="28.7487620" lon="-17.8398550">
        <ele>2186.0</ele>
        <time>2020-11-16T12:24:08Z</time>
      </trkpt>
      <trkpt lat="28.7487620" lon="-17.8398550">
        <ele>2186.0</ele>
        <time>2020-11-16T12:24:09Z</time>
      </trkpt>
      <trkpt lat="28.7487550" lon="-17.8398930">
        <ele>2186.3</ele>
        <time>2020-11-16T12:24:10Z</time>
      </trkpt>
      <trkpt lat="28.7487550" lon="-17.8398930">
        <ele>2186.3</ele>
        <time>2020-11-16T12:24:11Z</time>
      </trkpt>
      <trkpt lat="28.7487530" lon="-17.8399280">
        <ele>2186.5</ele>
        <time>2020-11-16T12:24:12Z</time>
      </trkpt>
      <trkpt lat="28.7487530" lon="-17.8399280">
        <ele>2186.5</ele>
        <time>2020-11-16T12:24:13Z</time>
      </trkpt>
      <trkpt lat="28.7487600" lon="-17.8399650">
        <ele>2186.8</ele>
        <time>2020-11-16T12:24:14Z</time>
      </trkpt>
      <trkpt lat="28.7487600" lon="-17.8399650">
        <ele>2186.8</ele>
        <time>2020-11-16T12:24:15Z</time>
      </trkpt>
      <trkpt lat="28.7487650" lon="-17.8399980">
        <ele>2187.1</ele>
        <time>2020-11-16T12:24:16Z</time>
      </trkpt>
      <trkpt lat="28.7487650" lon="-17.8399980">
        <ele>2187.1</ele>
        <time>2020-11-16T12:24:17Z</time>
      </trkpt>
      <trkpt lat="28.7487800" lon="-17.8400320">
        <ele>2187.4</ele>
        <time>2020-11-16T12:24:18Z</time>
      </trkpt>
      <trkpt lat="28.7487800" lon="-17.8400320">
        <ele>2187.4</ele>
        <time>2020-11-16T12:24:19Z</time>
      </trkpt>
      <trkpt lat="28.7487950" lon="-17.8400630">
        <ele>2187.7</ele>
        <time>2020-11-16T12:24:20Z</time>
      </trkpt>
      <trkpt lat="28.7487950" lon="-17.8400630">
        <ele>2187.7</ele>
        <time>2020-11-16T12:24:21Z</time>
      </trkpt>
      <trkpt lat="28.7488200" lon="-17.8400950">
        <ele>2188.0</ele>
        <time>2020-11-16T12:24:22Z</time>
      </trkpt>
      <trkpt lat="28.7488330" lon="-17.8401100">
        <ele>2188.2</ele>
        <time>2020-11-16T12:24:23Z</time>
      </trkpt>
      <trkpt lat="28.7488330" lon="-17.8401100">
        <ele>2188.2</ele>
        <time>2020-11-16T12:24:24Z</time>
      </trkpt>
      <trkpt lat="28.7488520" lon="-17.8401370">
        <ele>2188.5</ele>
        <time>2020-11-16T12:24:25Z</time>
      </trkpt>
      <trkpt lat="28.7488650" lon="-17.8401480">
        <ele>2188.7</ele>
        <time>2020-11-16T12:24:26Z</time>
      </trkpt>
      <trkpt lat="28.7488650" lon="-17.8401480">
        <ele>2188.7</ele>
        <time>2020-11-16T12:24:27Z</time>
      </trkpt>
      <trkpt lat="28.7488930" lon="-17.8401680">
        <ele>2189.0</ele>
        <time>2020-11-16T12:24:28Z</time>
      </trkpt>
      <trkpt lat="28.7488930" lon="-17.8401680">
        <ele>2189.0</ele>
        <time>2020-11-16T12:24:29Z</time>
      </trkpt>
      <trkpt lat="28.7489120" lon="-17.8402000">
        <ele>2189.4</ele>
        <time>2020-11-16T12:24:30Z</time>
      </trkpt>
      <trkpt lat="28.7489120" lon="-17.8402000">
        <ele>2189.4</ele>
        <time>2020-11-16T12:24:31Z</time>
      </trkpt>
      <trkpt lat="28.7489250" lon="-17.8402330">
        <ele>2189.7</ele>
        <time>2020-11-16T12:24:32Z</time>
      </trkpt>
      <trkpt lat="28.7489250" lon="-17.8402330">
        <ele>2189.7</ele>
        <time>2020-11-16T12:24:33Z</time>
      </trkpt>
      <trkpt lat="28.7489500" lon="-17.8402530">
        <ele>2190.0</ele>
        <time>2020-11-16T12:24:34Z</time>
      </trkpt>
      <trkpt lat="28.7489500" lon="-17.8402530">
        <ele>2190.0</ele>
        <time>2020-11-16T12:24:35Z</time>
      </trkpt>
      <trkpt lat="28.7489730" lon="-17.8402730">
        <ele>2190.3</ele>
        <time>2020-11-16T12:24:36Z</time>
      </trkpt>
      <trkpt lat="28.7489730" lon="-17.8402730">
        <ele>2190.3</ele>
        <time>2020-11-16T12:24:37Z</time>
      </trkpt>
      <trkpt lat="28.7489920" lon="-17.8403030">
        <ele>2190.7</ele>
        <time>2020-11-16T12:24:38Z</time>
      </trkpt>
      <trkpt lat="28.7489920" lon="-17.8403030">
        <ele>2190.7</ele>
        <time>2020-11-16T12:24:39Z</time>
      </trkpt>
      <trkpt lat="28.7490200" lon="-17.8403230">
        <ele>2191.0</ele>
        <time>2020-11-16T12:24:40Z</time>
      </trkpt>
      <trkpt lat="28.7490200" lon="-17.8403230">
        <ele>2191.0</ele>
        <time>2020-11-16T12:24:41Z</time>
      </trkpt>
      <trkpt lat="28.7490430" lon="-17.8403530">
        <ele>2191.4</ele>
        <time>2020-11-16T12:24:42Z</time>
      </trkpt>
      <trkpt lat="28.7490430" lon="-17.8403530">
        <ele>2191.4</ele>
        <time>2020-11-16T12:24:43Z</time>
      </trkpt>
      <trkpt lat="28.7490600" lon="-17.8403850">
        <ele>2191.7</ele>
        <time>2020-11-16T12:24:44Z</time>
      </trkpt>
      <trkpt lat="28.7490600" lon="-17.8403850">
        <ele>2191.7</ele>
        <time>2020-11-16T12:24:45Z</time>
      </trkpt>
      <trkpt lat="28.7490880" lon="-17.8404120">
        <ele>2192.1</ele>
        <time>2020-11-16T12:24:46Z</time>
      </trkpt>
      <trkpt lat="28.7490880" lon="-17.8404120">
        <ele>2192.1</ele>
        <time>2020-11-16T12:24:47Z</time>
      </trkpt>
      <trkpt lat="28.7491130" lon="-17.8404380">
        <ele>2192.4</ele>
        <time>2020-11-16T12:24:48Z</time>
      </trkpt>
      <trkpt lat="28.7491250" lon="-17.8404520">
        <ele>2192.6</ele>
        <time>2020-11-16T12:24:49Z</time>
      </trkpt>
      <trkpt lat="28.7491380" lon="-17.8404650">
        <ele>2192.8</ele>
        <time>2020-11-16T12:24:50Z</time>
      </trkpt>
      <trkpt lat="28.7491380" lon="-17.8404650">
        <ele>2192.8</ele>
        <time>2020-11-16T12:24:51Z</time>
      </trkpt>
      <trkpt lat="28.7491630" lon="-17.8404950">
        <ele>2193.1</ele>
        <time>2020-11-16T12:24:52Z</time>
      </trkpt>
      <trkpt lat="28.7491730" lon="-17.8405080">
        <ele>2193.3</ele>
        <time>2020-11-16T12:24:53Z</time>
      </trkpt>
      <trkpt lat="28.7491730" lon="-17.8405080">
        <ele>2193.3</ele>
        <time>2020-11-16T12:24:54Z</time>
      </trkpt>
      <trkpt lat="28.7491950" lon="-17.8405370">
        <ele>2193.6</ele>
        <time>2020-11-16T12:24:55Z</time>
      </trkpt>
      <trkpt lat="28.7491950" lon="-17.8405370">
        <ele>2193.6</ele>
        <time>2020-11-16T12:24:56Z</time>
      </trkpt>
      <trkpt lat="28.7492220" lon="-17.8405620">
        <ele>2194.0</ele>
        <time>2020-11-16T12:24:57Z</time>
      </trkpt>
      <trkpt lat="28.7492370" lon="-17.8405700">
        <ele>2194.2</ele>
        <time>2020-11-16T12:24:58Z</time>
      </trkpt>
      <trkpt lat="28.7492370" lon="-17.8405700">
        <ele>2194.2</ele>
        <time>2020-11-16T12:24:59Z</time>
      </trkpt>
      <trkpt lat="28.7492670" lon="-17.8405920">
        <ele>2194.5</ele>
        <time>2020-11-16T12:25:00Z</time>
      </trkpt>
      <trkpt lat="28.7492820" lon="-17.8406020">
        <ele>2194.7</ele>
        <time>2020-11-16T12:25:01Z</time>
      </trkpt>
      <trkpt lat="28.7492820" lon="-17.8406020">
        <ele>2194.7</ele>
        <time>2020-11-16T12:25:02Z</time>
      </trkpt>
      <trkpt lat="28.7493120" lon="-17.8406130">
        <ele>2195.1</ele>
        <time>2020-11-16T12:25:03Z</time>
      </trkpt>
      <trkpt lat="28.7493280" lon="-17.8406170">
        <ele>2195.2</ele>
        <time>2020-11-16T12:25:04Z</time>
      </trkpt>
      <trkpt lat="28.7493280" lon="-17.8406170">
        <ele>2195.2</ele>
        <time>2020-11-16T12:25:05Z</time>
      </trkpt>
      <trkpt lat="28.7493630" lon="-17.8406270">
        <ele>2195.6</ele>
        <time>2020-11-16T12:25:06Z</time>
      </trkpt>
      <trkpt lat="28.7493630" lon="-17.8406270">
        <ele>2195.6</ele>
        <time>2020-11-16T12:25:07Z</time>
      </trkpt>
      <trkpt lat="28.7493950" lon="-17.8406330">
        <ele>2196.0</ele>
        <time>2020-11-16T12:25:08Z</time>
      </trkpt>
      <trkpt lat="28.7493950" lon="-17.8406330">
        <ele>2196.0</ele>
        <time>2020-11-16T12:25:09Z</time>
      </trkpt>
      <trkpt lat="28.7494300" lon="-17.8406420">
        <ele>2196.3</ele>
        <time>2020-11-16T12:25:10Z</time>
      </trkpt>
      <trkpt lat="28.7494470" lon="-17.8406450">
        <ele>2196.5</ele>
        <time>2020-11-16T12:25:11Z</time>
      </trkpt>
      <trkpt lat="28.7494470" lon="-17.8406450">
        <ele>2196.5</ele>
        <time>2020-11-16T12:25:12Z</time>
      </trkpt>
      <trkpt lat="28.7494800" lon="-17.8406530">
        <ele>2196.8</ele>
        <time>2020-11-16T12:25:13Z</time>
      </trkpt>
      <trkpt lat="28.7494970" lon="-17.8406570">
        <ele>2197.0</ele>
        <time>2020-11-16T12:25:14Z</time>
      </trkpt>
      <trkpt lat="28.7495130" lon="-17.8406580">
        <ele>2197.2</ele>
        <time>2020-11-16T12:25:15Z</time>
      </trkpt>
      <trkpt lat="28.7495130" lon="-17.8406580">
        <ele>2197.2</ele>
        <time>2020-11-16T12:25:16Z</time>
      </trkpt>
      <trkpt lat="28.7495470" lon="-17.8406600">
        <ele>2197.5</ele>
        <time>2020-11-16T12:25:17Z</time>
      </trkpt>
      <trkpt lat="28.7495620" lon="-17.8406620">
        <ele>2197.7</ele>
        <time>2020-11-16T12:25:18Z</time>
      </trkpt>
      <trkpt lat="28.7495620" lon="-17.8406620">
        <ele>2197.7</ele>
        <time>2020-11-16T12:25:19Z</time>
      </trkpt>
      <trkpt lat="28.7495930" lon="-17.8406750">
        <ele>2198.0</ele>
        <time>2020-11-16T12:25:20Z</time>
      </trkpt>
      <trkpt lat="28.7495930" lon="-17.8406750">
        <ele>2198.0</ele>
        <time>2020-11-16T12:25:21Z</time>
      </trkpt>
      <trkpt lat="28.7496280" lon="-17.8406850">
        <ele>2198.4</ele>
        <time>2020-11-16T12:25:22Z</time>
      </trkpt>
      <trkpt lat="28.7496280" lon="-17.8406850">
        <ele>2198.4</ele>
        <time>2020-11-16T12:25:23Z</time>
      </trkpt>
      <trkpt lat="28.7496630" lon="-17.8406880">
        <ele>2198.8</ele>
        <time>2020-11-16T12:25:24Z</time>
      </trkpt>
      <trkpt lat="28.7496800" lon="-17.8406950">
        <ele>2199.0</ele>
        <time>2020-11-16T12:25:25Z</time>
      </trkpt>
      <trkpt lat="28.7496970" lon="-17.8407030">
        <ele>2199.2</ele>
        <time>2020-11-16T12:25:26Z</time>
      </trkpt>
      <trkpt lat="28.7496970" lon="-17.8407030">
        <ele>2199.2</ele>
        <time>2020-11-16T12:25:27Z</time>
      </trkpt>
      <trkpt lat="28.7497300" lon="-17.8407200">
        <ele>2199.6</ele>
        <time>2020-11-16T12:25:28Z</time>
      </trkpt>
      <trkpt lat="28.7497470" lon="-17.8407250">
        <ele>2199.8</ele>
        <time>2020-11-16T12:25:29Z</time>
      </trkpt>
      <trkpt lat="28.7497650" lon="-17.8407300">
        <ele>2200.1</ele>
        <time>2020-11-16T12:25:30Z</time>
      </trkpt>
      <trkpt lat="28.7497650" lon="-17.8407300">
        <ele>2200.1</ele>
        <time>2020-11-16T12:25:31Z</time>
      </trkpt>
      <trkpt lat="28.7497980" lon="-17.8407430">
        <ele>2200.5</ele>
        <time>2020-11-16T12:25:32Z</time>
      </trkpt>
      <trkpt lat="28.7497980" lon="-17.8407430">
        <ele>2200.5</ele>
        <time>2020-11-16T12:25:33Z</time>
      </trkpt>
      <trkpt lat="28.7498300" lon="-17.8407650">
        <ele>2200.9</ele>
        <time>2020-11-16T12:25:34Z</time>
      </trkpt>
      <trkpt lat="28.7498300" lon="-17.8407650">
        <ele>2200.9</ele>
        <time>2020-11-16T12:25:35Z</time>
      </trkpt>
      <trkpt lat="28.7498630" lon="-17.8407870">
        <ele>2201.3</ele>
        <time>2020-11-16T12:25:36Z</time>
      </trkpt>
      <trkpt lat="28.7498800" lon="-17.8407980">
        <ele>2201.5</ele>
        <time>2020-11-16T12:25:37Z</time>
      </trkpt>
      <trkpt lat="28.7498950" lon="-17.8408130">
        <ele>2201.8</ele>
        <time>2020-11-16T12:25:38Z</time>
      </trkpt>
      <trkpt lat="28.7498950" lon="-17.8408130">
        <ele>2201.8</ele>
        <time>2020-11-16T12:25:39Z</time>
      </trkpt>
      <trkpt lat="28.7499250" lon="-17.8408420">
        <ele>2202.2</ele>
        <time>2020-11-16T12:25:40Z</time>
      </trkpt>
      <trkpt lat="28.7499250" lon="-17.8408420">
        <ele>2202.2</ele>
        <time>2020-11-16T12:25:41Z</time>
      </trkpt>
      <trkpt lat="28.7499500" lon="-17.8408770">
        <ele>2202.7</ele>
        <time>2020-11-16T12:25:42Z</time>
      </trkpt>
      <trkpt lat="28.7499500" lon="-17.8408770">
        <ele>2202.7</ele>
        <time>2020-11-16T12:25:43Z</time>
      </trkpt>
      <trkpt lat="28.7499730" lon="-17.8409120">
        <ele>2203.1</ele>
        <time>2020-11-16T12:25:44Z</time>
      </trkpt>
      <trkpt lat="28.7499730" lon="-17.8409120">
        <ele>2203.1</ele>
        <time>2020-11-16T12:25:45Z</time>
      </trkpt>
      <trkpt lat="28.7499900" lon="-17.8409480">
        <ele>2203.4</ele>
        <time>2020-11-16T12:25:46Z</time>
      </trkpt>
      <trkpt lat="28.7499970" lon="-17.8409680">
        <ele>2203.6</ele>
        <time>2020-11-16T12:25:47Z</time>
      </trkpt>
      <trkpt lat="28.7499970" lon="-17.8409680">
        <ele>2203.6</ele>
        <time>2020-11-16T12:25:48Z</time>
      </trkpt>
      <trkpt lat="28.7500070" lon="-17.8410070">
        <ele>2203.9</ele>
        <time>2020-11-16T12:25:49Z</time>
      </trkpt>
      <trkpt lat="28.7500100" lon="-17.8410280">
        <ele>2204.0</ele>
        <time>2020-11-16T12:25:50Z</time>
      </trkpt>
      <trkpt lat="28.7500100" lon="-17.8410280">
        <ele>2204.0</ele>
        <time>2020-11-16T12:25:51Z</time>
      </trkpt>
      <trkpt lat="28.7500120" lon="-17.8410700">
        <ele>2204.3</ele>
        <time>2020-11-16T12:25:52Z</time>
      </trkpt>
      <trkpt lat="28.7500120" lon="-17.8410700">
        <ele>2204.3</ele>
        <time>2020-11-16T12:25:53Z</time>
      </trkpt>
      <trkpt lat="28.7500120" lon="-17.8411100">
        <ele>2204.5</ele>
        <time>2020-11-16T12:25:54Z</time>
      </trkpt>
      <trkpt lat="28.7500120" lon="-17.8411100">
        <ele>2204.5</ele>
        <time>2020-11-16T12:25:55Z</time>
      </trkpt>
      <trkpt lat="28.7500070" lon="-17.8411550">
        <ele>2204.8</ele>
        <time>2020-11-16T12:25:56Z</time>
      </trkpt>
      <trkpt lat="28.7500070" lon="-17.8411550">
        <ele>2204.8</ele>
        <time>2020-11-16T12:25:57Z</time>
      </trkpt>
      <trkpt lat="28.7499980" lon="-17.8411950">
        <ele>2205.0</ele>
        <time>2020-11-16T12:25:58Z</time>
      </trkpt>
      <trkpt lat="28.7499950" lon="-17.8412150">
        <ele>2205.1</ele>
        <time>2020-11-16T12:25:59Z</time>
      </trkpt>
      <trkpt lat="28.7499950" lon="-17.8412150">
        <ele>2205.1</ele>
        <time>2020-11-16T12:26:00Z</time>
      </trkpt>
      <trkpt lat="28.7499930" lon="-17.8412570">
        <ele>2205.3</ele>
        <time>2020-11-16T12:26:01Z</time>
      </trkpt>
      <trkpt lat="28.7499930" lon="-17.8412570">
        <ele>2205.3</ele>
        <time>2020-11-16T12:26:02Z</time>
      </trkpt>
      <trkpt lat="28.7499930" lon="-17.8412980">
        <ele>2205.4</ele>
        <time>2020-11-16T12:26:03Z</time>
      </trkpt>
      <trkpt lat="28.7499900" lon="-17.8413180">
        <ele>2205.5</ele>
        <time>2020-11-16T12:26:04Z</time>
      </trkpt>
      <trkpt lat="28.7499900" lon="-17.8413180">
        <ele>2205.5</ele>
        <time>2020-11-16T12:26:05Z</time>
      </trkpt>
      <trkpt lat="28.7499820" lon="-17.8413580">
        <ele>2205.7</ele>
        <time>2020-11-16T12:26:06Z</time>
      </trkpt>
      <trkpt lat="28.7499820" lon="-17.8413580">
        <ele>2205.7</ele>
        <time>2020-11-16T12:26:07Z</time>
      </trkpt>
      <trkpt lat="28.7499750" lon="-17.8414000">
        <ele>2205.8</ele>
        <time>2020-11-16T12:26:08Z</time>
      </trkpt>
      <trkpt lat="28.7499750" lon="-17.8414000">
        <ele>2205.8</ele>
        <time>2020-11-16T12:26:09Z</time>
      </trkpt>
      <trkpt lat="28.7499720" lon="-17.8414400">
        <ele>2206.0</ele>
        <time>2020-11-16T12:26:10Z</time>
      </trkpt>
      <trkpt lat="28.7499720" lon="-17.8414400">
        <ele>2206.0</ele>
        <time>2020-11-16T12:26:11Z</time>
      </trkpt>
      <trkpt lat="28.7499650" lon="-17.8414800">
        <ele>2206.2</ele>
        <time>2020-11-16T12:26:12Z</time>
      </trkpt>
      <trkpt lat="28.7499620" lon="-17.8415020">
        <ele>2206.3</ele>
        <time>2020-11-16T12:26:13Z</time>
      </trkpt>
      <trkpt lat="28.7499580" lon="-17.8415200">
        <ele>2206.4</ele>
        <time>2020-11-16T12:26:14Z</time>
      </trkpt>
      <trkpt lat="28.7499580" lon="-17.8415200">
        <ele>2206.4</ele>
        <time>2020-11-16T12:26:15Z</time>
      </trkpt>
      <trkpt lat="28.7499600" lon="-17.8415580">
        <ele>2206.6</ele>
        <time>2020-11-16T12:26:16Z</time>
      </trkpt>
      <trkpt lat="28.7499630" lon="-17.8415770">
        <ele>2206.7</ele>
        <time>2020-11-16T12:26:17Z</time>
      </trkpt>
      <trkpt lat="28.7499630" lon="-17.8415770">
        <ele>2206.7</ele>
        <time>2020-11-16T12:26:18Z</time>
      </trkpt>
      <trkpt lat="28.7499670" lon="-17.8416150">
        <ele>2207.0</ele>
        <time>2020-11-16T12:26:19Z</time>
      </trkpt>
      <trkpt lat="28.7499650" lon="-17.8416350">
        <ele>2207.2</ele>
        <time>2020-11-16T12:26:20Z</time>
      </trkpt>
      <trkpt lat="28.7499650" lon="-17.8416350">
        <ele>2207.2</ele>
        <time>2020-11-16T12:26:21Z</time>
      </trkpt>
      <trkpt lat="28.7499600" lon="-17.8416700">
        <ele>2207.4</ele>
        <time>2020-11-16T12:26:22Z</time>
      </trkpt>
      <trkpt lat="28.7499600" lon="-17.8416700">
        <ele>2207.4</ele>
        <time>2020-11-16T12:26:23Z</time>
      </trkpt>
      <trkpt lat="28.7499620" lon="-17.8417100">
        <ele>2207.8</ele>
        <time>2020-11-16T12:26:24Z</time>
      </trkpt>
      <trkpt lat="28.7499620" lon="-17.8417100">
        <ele>2207.8</ele>
        <time>2020-11-16T12:26:25Z</time>
      </trkpt>
      <trkpt lat="28.7499650" lon="-17.8417480">
        <ele>2208.1</ele>
        <time>2020-11-16T12:26:26Z</time>
      </trkpt>
      <trkpt lat="28.7499650" lon="-17.8417480">
        <ele>2208.1</ele>
        <time>2020-11-16T12:26:27Z</time>
      </trkpt>
      <trkpt lat="28.7499620" lon="-17.8417850">
        <ele>2208.4</ele>
        <time>2020-11-16T12:26:28Z</time>
      </trkpt>
      <trkpt lat="28.7499620" lon="-17.8417850">
        <ele>2208.4</ele>
        <time>2020-11-16T12:26:29Z</time>
      </trkpt>
      <trkpt lat="28.7499620" lon="-17.8418200">
        <ele>2208.7</ele>
        <time>2020-11-16T12:26:30Z</time>
      </trkpt>
      <trkpt lat="28.7499630" lon="-17.8418370">
        <ele>2208.8</ele>
        <time>2020-11-16T12:26:31Z</time>
      </trkpt>
      <trkpt lat="28.7499630" lon="-17.8418370">
        <ele>2208.8</ele>
        <time>2020-11-16T12:26:32Z</time>
      </trkpt>
      <trkpt lat="28.7499600" lon="-17.8418750">
        <ele>2209.1</ele>
        <time>2020-11-16T12:26:33Z</time>
      </trkpt>
      <trkpt lat="28.7499600" lon="-17.8418750">
        <ele>2209.1</ele>
        <time>2020-11-16T12:26:34Z</time>
      </trkpt>
      <trkpt lat="28.7499530" lon="-17.8419150">
        <ele>2209.5</ele>
        <time>2020-11-16T12:26:35Z</time>
      </trkpt>
      <trkpt lat="28.7499530" lon="-17.8419330">
        <ele>2209.6</ele>
        <time>2020-11-16T12:26:36Z</time>
      </trkpt>
      <trkpt lat="28.7499570" lon="-17.8419520">
        <ele>2209.8</ele>
        <time>2020-11-16T12:26:37Z</time>
      </trkpt>
      <trkpt lat="28.7499600" lon="-17.8419720">
        <ele>2210.0</ele>
        <time>2020-11-16T12:26:38Z</time>
      </trkpt>
      <trkpt lat="28.7499600" lon="-17.8419720">
        <ele>2210.0</ele>
        <time>2020-11-16T12:26:39Z</time>
      </trkpt>
      <trkpt lat="28.7499580" lon="-17.8420170">
        <ele>2210.3</ele>
        <time>2020-11-16T12:26:40Z</time>
      </trkpt>
      <trkpt lat="28.7499520" lon="-17.8420370">
        <ele>2210.5</ele>
        <time>2020-11-16T12:26:41Z</time>
      </trkpt>
      <trkpt lat="28.7499470" lon="-17.8420580">
        <ele>2210.7</ele>
        <time>2020-11-16T12:26:42Z</time>
      </trkpt>
      <trkpt lat="28.7499470" lon="-17.8420580">
        <ele>2210.7</ele>
        <time>2020-11-16T12:26:43Z</time>
      </trkpt>
      <trkpt lat="28.7499400" lon="-17.8420980">
        <ele>2211.2</ele>
        <time>2020-11-16T12:26:44Z</time>
      </trkpt>
      <trkpt lat="28.7499430" lon="-17.8421200">
        <ele>2211.5</ele>
        <time>2020-11-16T12:26:45Z</time>
      </trkpt>
      <trkpt lat="28.7499430" lon="-17.8421200">
        <ele>2211.5</ele>
        <time>2020-11-16T12:26:46Z</time>
      </trkpt>
      <trkpt lat="28.7499520" lon="-17.8421570">
        <ele>2212.1</ele>
        <time>2020-11-16T12:26:47Z</time>
      </trkpt>
      <trkpt lat="28.7499520" lon="-17.8421570">
        <ele>2212.1</ele>
        <time>2020-11-16T12:26:48Z</time>
      </trkpt>
      <trkpt lat="28.7499520" lon="-17.8422000">
        <ele>2212.9</ele>
        <time>2020-11-16T12:26:49Z</time>
      </trkpt>
      <trkpt lat="28.7499520" lon="-17.8422000">
        <ele>2212.9</ele>
        <time>2020-11-16T12:26:50Z</time>
      </trkpt>
      <trkpt lat="28.7499470" lon="-17.8422430">
        <ele>2213.8</ele>
        <time>2020-11-16T12:26:51Z</time>
      </trkpt>
      <trkpt lat="28.7499430" lon="-17.8422670">
        <ele>2214.3</ele>
        <time>2020-11-16T12:26:52Z</time>
      </trkpt>
      <trkpt lat="28.7499420" lon="-17.8422920">
        <ele>2214.8</ele>
        <time>2020-11-16T12:26:53Z</time>
      </trkpt>
      <trkpt lat="28.7499420" lon="-17.8422920">
        <ele>2214.8</ele>
        <time>2020-11-16T12:26:54Z</time>
      </trkpt>
      <trkpt lat="28.7499370" lon="-17.8423370">
        <ele>2215.5</ele>
        <time>2020-11-16T12:26:55Z</time>
      </trkpt>
      <trkpt lat="28.7499370" lon="-17.8423370">
        <ele>2215.5</ele>
        <time>2020-11-16T12:26:56Z</time>
      </trkpt>
      <trkpt lat="28.7499330" lon="-17.8423780">
        <ele>2216.1</ele>
        <time>2020-11-16T12:26:57Z</time>
      </trkpt>
      <trkpt lat="28.7499330" lon="-17.8423780">
        <ele>2216.1</ele>
        <time>2020-11-16T12:26:58Z</time>
      </trkpt>
      <trkpt lat="28.7499300" lon="-17.8424200">
        <ele>2216.6</ele>
        <time>2020-11-16T12:26:59Z</time>
      </trkpt>
      <trkpt lat="28.7499300" lon="-17.8424200">
        <ele>2216.6</ele>
        <time>2020-11-16T12:27:00Z</time>
      </trkpt>
      <trkpt lat="28.7499250" lon="-17.8424650">
        <ele>2217.0</ele>
        <time>2020-11-16T12:27:01Z</time>
      </trkpt>
      <trkpt lat="28.7499250" lon="-17.8424870">
        <ele>2217.1</ele>
        <time>2020-11-16T12:27:02Z</time>
      </trkpt>
      <trkpt lat="28.7499250" lon="-17.8424870">
        <ele>2217.1</ele>
        <time>2020-11-16T12:27:03Z</time>
      </trkpt>
      <trkpt lat="28.7499220" lon="-17.8425250">
        <ele>2217.5</ele>
        <time>2020-11-16T12:27:04Z</time>
      </trkpt>
      <trkpt lat="28.7499220" lon="-17.8425250">
        <ele>2217.5</ele>
        <time>2020-11-16T12:27:05Z</time>
      </trkpt>
      <trkpt lat="28.7499080" lon="-17.8425600">
        <ele>2217.8</ele>
        <time>2020-11-16T12:27:06Z</time>
      </trkpt>
      <trkpt lat="28.7499080" lon="-17.8425600">
        <ele>2217.8</ele>
        <time>2020-11-16T12:27:07Z</time>
      </trkpt>
      <trkpt lat="28.7498930" lon="-17.8425920">
        <ele>2218.1</ele>
        <time>2020-11-16T12:27:08Z</time>
      </trkpt>
      <trkpt lat="28.7498930" lon="-17.8425920">
        <ele>2218.1</ele>
        <time>2020-11-16T12:27:09Z</time>
      </trkpt>
      <trkpt lat="28.7498720" lon="-17.8426250">
        <ele>2218.4</ele>
        <time>2020-11-16T12:27:10Z</time>
      </trkpt>
      <trkpt lat="28.7498630" lon="-17.8426430">
        <ele>2218.6</ele>
        <time>2020-11-16T12:27:11Z</time>
      </trkpt>
      <trkpt lat="28.7498550" lon="-17.8426620">
        <ele>2218.8</ele>
        <time>2020-11-16T12:27:12Z</time>
      </trkpt>
      <trkpt lat="28.7498550" lon="-17.8426620">
        <ele>2218.8</ele>
        <time>2020-11-16T12:27:13Z</time>
      </trkpt>
      <trkpt lat="28.7498400" lon="-17.8427020">
        <ele>2219.2</ele>
        <time>2020-11-16T12:27:14Z</time>
      </trkpt>
      <trkpt lat="28.7498400" lon="-17.8427020">
        <ele>2219.2</ele>
        <time>2020-11-16T12:27:15Z</time>
      </trkpt>
      <trkpt lat="28.7498300" lon="-17.8427380">
        <ele>2219.5</ele>
        <time>2020-11-16T12:27:16Z</time>
      </trkpt>
      <trkpt lat="28.7498220" lon="-17.8427620">
        <ele>2219.7</ele>
        <time>2020-11-16T12:27:17Z</time>
      </trkpt>
      <trkpt lat="28.7498220" lon="-17.8427620">
        <ele>2219.7</ele>
        <time>2020-11-16T12:27:18Z</time>
      </trkpt>
      <trkpt lat="28.7498000" lon="-17.8428100">
        <ele>2220.2</ele>
        <time>2020-11-16T12:27:19Z</time>
      </trkpt>
      <trkpt lat="28.7498000" lon="-17.8428100">
        <ele>2220.2</ele>
        <time>2020-11-16T12:27:20Z</time>
      </trkpt>
      <trkpt lat="28.7497830" lon="-17.8428480">
        <ele>2220.5</ele>
        <time>2020-11-16T12:27:21Z</time>
      </trkpt>
      <trkpt lat="28.7497750" lon="-17.8428700">
        <ele>2220.7</ele>
        <time>2020-11-16T12:27:22Z</time>
      </trkpt>
      <trkpt lat="28.7497750" lon="-17.8428700">
        <ele>2220.7</ele>
        <time>2020-11-16T12:27:23Z</time>
      </trkpt>
      <trkpt lat="28.7497630" lon="-17.8429270">
        <ele>2221.2</ele>
        <time>2020-11-16T12:27:24Z</time>
      </trkpt>
      <trkpt lat="28.7497630" lon="-17.8429270">
        <ele>2221.2</ele>
        <time>2020-11-16T12:27:25Z</time>
      </trkpt>
      <trkpt lat="28.7497600" lon="-17.8429770">
        <ele>2221.5</ele>
        <time>2020-11-16T12:27:26Z</time>
      </trkpt>
      <trkpt lat="28.7497600" lon="-17.8429770">
        <ele>2221.5</ele>
        <time>2020-11-16T12:27:27Z</time>
      </trkpt>
      <trkpt lat="28.7497550" lon="-17.8430250">
        <ele>2221.9</ele>
        <time>2020-11-16T12:27:28Z</time>
      </trkpt>
      <trkpt lat="28.7497550" lon="-17.8430250">
        <ele>2221.9</ele>
        <time>2020-11-16T12:27:29Z</time>
      </trkpt>
      <trkpt lat="28.7497570" lon="-17.8430750">
        <ele>2222.3</ele>
        <time>2020-11-16T12:27:30Z</time>
      </trkpt>
      <trkpt lat="28.7497580" lon="-17.8431000">
        <ele>2222.5</ele>
        <time>2020-11-16T12:27:31Z</time>
      </trkpt>
      <trkpt lat="28.7497600" lon="-17.8431270">
        <ele>2222.7</ele>
        <time>2020-11-16T12:27:32Z</time>
      </trkpt>
      <trkpt lat="28.7497580" lon="-17.8431500">
        <ele>2222.9</ele>
        <time>2020-11-16T12:27:33Z</time>
      </trkpt>
      <trkpt lat="28.7497580" lon="-17.8431500">
        <ele>2222.9</ele>
        <time>2020-11-16T12:27:34Z</time>
      </trkpt>
      <trkpt lat="28.7497600" lon="-17.8431980">
        <ele>2223.2</ele>
        <time>2020-11-16T12:27:35Z</time>
      </trkpt>
      <trkpt lat="28.7497620" lon="-17.8432220">
        <ele>2223.4</ele>
        <time>2020-11-16T12:27:36Z</time>
      </trkpt>
      <trkpt lat="28.7497620" lon="-17.8432220">
        <ele>2223.4</ele>
        <time>2020-11-16T12:27:37Z</time>
      </trkpt>
      <trkpt lat="28.7497670" lon="-17.8432670">
        <ele>2223.7</ele>
        <time>2020-11-16T12:27:38Z</time>
      </trkpt>
      <trkpt lat="28.7497720" lon="-17.8432900">
        <ele>2223.9</ele>
        <time>2020-11-16T12:27:39Z</time>
      </trkpt>
      <trkpt lat="28.7497720" lon="-17.8432900">
        <ele>2223.9</ele>
        <time>2020-11-16T12:27:40Z</time>
      </trkpt>
      <trkpt lat="28.7497700" lon="-17.8433330">
        <ele>2224.2</ele>
        <time>2020-11-16T12:27:41Z</time>
      </trkpt>
      <trkpt lat="28.7497700" lon="-17.8433330">
        <ele>2224.2</ele>
        <time>2020-11-16T12:27:42Z</time>
      </trkpt>
      <trkpt lat="28.7497680" lon="-17.8433770">
        <ele>2224.5</ele>
        <time>2020-11-16T12:27:43Z</time>
      </trkpt>
      <trkpt lat="28.7497700" lon="-17.8433950">
        <ele>2224.6</ele>
        <time>2020-11-16T12:27:44Z</time>
      </trkpt>
      <trkpt lat="28.7497700" lon="-17.8433950">
        <ele>2224.6</ele>
        <time>2020-11-16T12:27:45Z</time>
      </trkpt>
      <trkpt lat="28.7497830" lon="-17.8434270">
        <ele>2224.8</ele>
        <time>2020-11-16T12:27:46Z</time>
      </trkpt>
      <trkpt lat="28.7497830" lon="-17.8434270">
        <ele>2224.8</ele>
        <time>2020-11-16T12:27:47Z</time>
      </trkpt>
      <trkpt lat="28.7498100" lon="-17.8434600">
        <ele>2225.1</ele>
        <time>2020-11-16T12:27:48Z</time>
      </trkpt>
      <trkpt lat="28.7498200" lon="-17.8434770">
        <ele>2225.2</ele>
        <time>2020-11-16T12:27:49Z</time>
      </trkpt>
      <trkpt lat="28.7498350" lon="-17.8434920">
        <ele>2225.3</ele>
        <time>2020-11-16T12:27:50Z</time>
      </trkpt>
      <trkpt lat="28.7498350" lon="-17.8434920">
        <ele>2225.3</ele>
        <time>2020-11-16T12:27:51Z</time>
      </trkpt>
      <trkpt lat="28.7498630" lon="-17.8435270">
        <ele>2225.5</ele>
        <time>2020-11-16T12:27:52Z</time>
      </trkpt>
      <trkpt lat="28.7498630" lon="-17.8435270">
        <ele>2225.5</ele>
        <time>2020-11-16T12:27:53Z</time>
      </trkpt>
      <trkpt lat="28.7498800" lon="-17.8435620">
        <ele>2225.7</ele>
        <time>2020-11-16T12:27:54Z</time>
      </trkpt>
      <trkpt lat="28.7498800" lon="-17.8435620">
        <ele>2225.7</ele>
        <time>2020-11-16T12:27:55Z</time>
      </trkpt>
      <trkpt lat="28.7498980" lon="-17.8435980">
        <ele>2225.9</ele>
        <time>2020-11-16T12:27:56Z</time>
      </trkpt>
      <trkpt lat="28.7498980" lon="-17.8435980">
        <ele>2225.9</ele>
        <time>2020-11-16T12:27:57Z</time>
      </trkpt>
      <trkpt lat="28.7499130" lon="-17.8436200">
        <ele>2226.0</ele>
        <time>2020-11-16T12:27:58Z</time>
      </trkpt>
      <trkpt lat="28.7499130" lon="-17.8436200">
        <ele>2226.0</ele>
        <time>2020-11-16T12:27:59Z</time>
      </trkpt>
      <trkpt lat="28.7499400" lon="-17.8436500">
        <ele>2226.1</ele>
        <time>2020-11-16T12:28:00Z</time>
      </trkpt>
      <trkpt lat="28.7499400" lon="-17.8436500">
        <ele>2226.1</ele>
        <time>2020-11-16T12:28:01Z</time>
      </trkpt>
      <trkpt lat="28.7499530" lon="-17.8436920">
        <ele>2226.3</ele>
        <time>2020-11-16T12:28:02Z</time>
      </trkpt>
      <trkpt lat="28.7499530" lon="-17.8436920">
        <ele>2226.3</ele>
        <time>2020-11-16T12:28:03Z</time>
      </trkpt>
      <trkpt lat="28.7499720" lon="-17.8437350">
        <ele>2226.6</ele>
        <time>2020-11-16T12:28:04Z</time>
      </trkpt>
      <trkpt lat="28.7499720" lon="-17.8437350">
        <ele>2226.6</ele>
        <time>2020-11-16T12:28:05Z</time>
      </trkpt>
      <trkpt lat="28.7499920" lon="-17.8437800">
        <ele>2226.8</ele>
        <time>2020-11-16T12:28:06Z</time>
      </trkpt>
      <trkpt lat="28.7500050" lon="-17.8438020">
        <ele>2226.9</ele>
        <time>2020-11-16T12:28:07Z</time>
      </trkpt>
      <trkpt lat="28.7500200" lon="-17.8438250">
        <ele>2227.0</ele>
        <time>2020-11-16T12:28:08Z</time>
      </trkpt>
      <trkpt lat="28.7500200" lon="-17.8438250">
        <ele>2227.0</ele>
        <time>2020-11-16T12:28:09Z</time>
      </trkpt>
      <trkpt lat="28.7500500" lon="-17.8438720">
        <ele>2227.3</ele>
        <time>2020-11-16T12:28:10Z</time>
      </trkpt>
      <trkpt lat="28.7500500" lon="-17.8438720">
        <ele>2227.3</ele>
        <time>2020-11-16T12:28:11Z</time>
      </trkpt>
      <trkpt lat="28.7500800" lon="-17.8439250">
        <ele>2227.5</ele>
        <time>2020-11-16T12:28:12Z</time>
      </trkpt>
      <trkpt lat="28.7500800" lon="-17.8439250">
        <ele>2227.5</ele>
        <time>2020-11-16T12:28:13Z</time>
      </trkpt>
      <trkpt lat="28.7501030" lon="-17.8439800">
        <ele>2227.8</ele>
        <time>2020-11-16T12:28:14Z</time>
      </trkpt>
      <trkpt lat="28.7501030" lon="-17.8439800">
        <ele>2227.8</ele>
        <time>2020-11-16T12:28:15Z</time>
      </trkpt>
      <trkpt lat="28.7501220" lon="-17.8440380">
        <ele>2228.1</ele>
        <time>2020-11-16T12:28:16Z</time>
      </trkpt>
      <trkpt lat="28.7501320" lon="-17.8440670">
        <ele>2228.2</ele>
        <time>2020-11-16T12:28:17Z</time>
      </trkpt>
      <trkpt lat="28.7501420" lon="-17.8440950">
        <ele>2228.3</ele>
        <time>2020-11-16T12:28:18Z</time>
      </trkpt>
      <trkpt lat="28.7501420" lon="-17.8440950">
        <ele>2228.3</ele>
        <time>2020-11-16T12:28:19Z</time>
      </trkpt>
      <trkpt lat="28.7501620" lon="-17.8441600">
        <ele>2228.6</ele>
        <time>2020-11-16T12:28:20Z</time>
      </trkpt>
      <trkpt lat="28.7501620" lon="-17.8441600">
        <ele>2228.6</ele>
        <time>2020-11-16T12:28:21Z</time>
      </trkpt>
      <trkpt lat="28.7501770" lon="-17.8442250">
        <ele>2228.8</ele>
        <time>2020-11-16T12:28:22Z</time>
      </trkpt>
      <trkpt lat="28.7501770" lon="-17.8442250">
        <ele>2228.8</ele>
        <time>2020-11-16T12:28:23Z</time>
      </trkpt>
      <trkpt lat="28.7501980" lon="-17.8442930">
        <ele>2229.0</ele>
        <time>2020-11-16T12:28:24Z</time>
      </trkpt>
      <trkpt lat="28.7502070" lon="-17.8443270">
        <ele>2229.1</ele>
        <time>2020-11-16T12:28:25Z</time>
      </trkpt>
      <trkpt lat="28.7502170" lon="-17.8443570">
        <ele>2229.2</ele>
        <time>2020-11-16T12:28:26Z</time>
      </trkpt>
      <trkpt lat="28.7502170" lon="-17.8443570">
        <ele>2229.2</ele>
        <time>2020-11-16T12:28:27Z</time>
      </trkpt>
      <trkpt lat="28.7502230" lon="-17.8444200">
        <ele>2229.4</ele>
        <time>2020-11-16T12:28:28Z</time>
      </trkpt>
      <trkpt lat="28.7502230" lon="-17.8444200">
        <ele>2229.4</ele>
        <time>2020-11-16T12:28:29Z</time>
      </trkpt>
      <trkpt lat="28.7502500" lon="-17.8444780">
        <ele>2229.4</ele>
        <time>2020-11-16T12:28:30Z</time>
      </trkpt>
      <trkpt lat="28.7502500" lon="-17.8444780">
        <ele>2229.4</ele>
        <time>2020-11-16T12:28:31Z</time>
      </trkpt>
      <trkpt lat="28.7503020" lon="-17.8445450">
        <ele>2229.5</ele>
        <time>2020-11-16T12:28:32Z</time>
      </trkpt>
      <trkpt lat="28.7503020" lon="-17.8445450">
        <ele>2229.5</ele>
        <time>2020-11-16T12:28:33Z</time>
      </trkpt>
      <trkpt lat="28.7503600" lon="-17.8446180">
        <ele>2229.5</ele>
        <time>2020-11-16T12:28:34Z</time>
      </trkpt>
      <trkpt lat="28.7503880" lon="-17.8446500">
        <ele>2229.5</ele>
        <time>2020-11-16T12:28:35Z</time>
      </trkpt>
      <trkpt lat="28.7503880" lon="-17.8446500">
        <ele>2229.5</ele>
        <time>2020-11-16T12:28:36Z</time>
      </trkpt>
      <trkpt lat="28.7504380" lon="-17.8447050">
        <ele>2229.6</ele>
        <time>2020-11-16T12:28:37Z</time>
      </trkpt>
      <trkpt lat="28.7504620" lon="-17.8447280">
        <ele>2229.6</ele>
        <time>2020-11-16T12:28:38Z</time>
      </trkpt>
      <trkpt lat="28.7504620" lon="-17.8447280">
        <ele>2229.6</ele>
        <time>2020-11-16T12:28:39Z</time>
      </trkpt>
      <trkpt lat="28.7505170" lon="-17.8447680">
        <ele>2229.7</ele>
        <time>2020-11-16T12:28:40Z</time>
      </trkpt>
      <trkpt lat="28.7505480" lon="-17.8447870">
        <ele>2229.6</ele>
        <time>2020-11-16T12:28:41Z</time>
      </trkpt>
      <trkpt lat="28.7505480" lon="-17.8447870">
        <ele>2229.6</ele>
        <time>2020-11-16T12:28:42Z</time>
      </trkpt>
      <trkpt lat="28.7506170" lon="-17.8448200">
        <ele>2229.5</ele>
        <time>2020-11-16T12:28:43Z</time>
      </trkpt>
      <trkpt lat="28.7506520" lon="-17.8448320">
        <ele>2229.5</ele>
        <time>2020-11-16T12:28:44Z</time>
      </trkpt>
      <trkpt lat="28.7506520" lon="-17.8448320">
        <ele>2229.5</ele>
        <time>2020-11-16T12:28:45Z</time>
      </trkpt>
      <trkpt lat="28.7507250" lon="-17.8448470">
        <ele>2229.3</ele>
        <time>2020-11-16T12:28:46Z</time>
      </trkpt>
      <trkpt lat="28.7507250" lon="-17.8448470">
        <ele>2229.3</ele>
        <time>2020-11-16T12:28:47Z</time>
      </trkpt>
      <trkpt lat="28.7508000" lon="-17.8448730">
        <ele>2229.2</ele>
        <time>2020-11-16T12:28:48Z</time>
      </trkpt>
      <trkpt lat="28.7508000" lon="-17.8448730">
        <ele>2229.2</ele>
        <time>2020-11-16T12:28:49Z</time>
      </trkpt>
      <trkpt lat="28.7508750" lon="-17.8449000">
        <ele>2229.2</ele>
        <time>2020-11-16T12:28:50Z</time>
      </trkpt>
      <trkpt lat="28.7508750" lon="-17.8449000">
        <ele>2229.2</ele>
        <time>2020-11-16T12:28:51Z</time>
      </trkpt>
      <trkpt lat="28.7509550" lon="-17.8449220">
        <ele>2229.2</ele>
        <time>2020-11-16T12:28:52Z</time>
      </trkpt>
      <trkpt lat="28.7509550" lon="-17.8449220">
        <ele>2229.2</ele>
        <time>2020-11-16T12:28:53Z</time>
      </trkpt>
      <trkpt lat="28.7510370" lon="-17.8449300">
        <ele>2229.2</ele>
        <time>2020-11-16T12:28:54Z</time>
      </trkpt>
      <trkpt lat="28.7510370" lon="-17.8449300">
        <ele>2229.2</ele>
        <time>2020-11-16T12:28:55Z</time>
      </trkpt>
      <trkpt lat="28.7511180" lon="-17.8449250">
        <ele>2229.4</ele>
        <time>2020-11-16T12:28:56Z</time>
      </trkpt>
      <trkpt lat="28.7511180" lon="-17.8449250">
        <ele>2229.4</ele>
        <time>2020-11-16T12:28:57Z</time>
      </trkpt>
      <trkpt lat="28.7511980" lon="-17.8449050">
        <ele>2229.6</ele>
        <time>2020-11-16T12:28:58Z</time>
      </trkpt>
      <trkpt lat="28.7512400" lon="-17.8448950">
        <ele>2229.7</ele>
        <time>2020-11-16T12:28:59Z</time>
      </trkpt>
      <trkpt lat="28.7512400" lon="-17.8448950">
        <ele>2229.7</ele>
        <time>2020-11-16T12:29:00Z</time>
      </trkpt>
      <trkpt lat="28.7513150" lon="-17.8448770">
        <ele>2229.9</ele>
        <time>2020-11-16T12:29:01Z</time>
      </trkpt>
      <trkpt lat="28.7513520" lon="-17.8448730">
        <ele>2230.1</ele>
        <time>2020-11-16T12:29:02Z</time>
      </trkpt>
      <trkpt lat="28.7513520" lon="-17.8448730">
        <ele>2230.1</ele>
        <time>2020-11-16T12:29:03Z</time>
      </trkpt>
      <trkpt lat="28.7514220" lon="-17.8448650">
        <ele>2230.3</ele>
        <time>2020-11-16T12:29:04Z</time>
      </trkpt>
      <trkpt lat="28.7514570" lon="-17.8448600">
        <ele>2230.4</ele>
        <time>2020-11-16T12:29:05Z</time>
      </trkpt>
      <trkpt lat="28.7514570" lon="-17.8448600">
        <ele>2230.4</ele>
        <time>2020-11-16T12:29:06Z</time>
      </trkpt>
      <trkpt lat="28.7515300" lon="-17.8448470">
        <ele>2230.7</ele>
        <time>2020-11-16T12:29:07Z</time>
      </trkpt>
      <trkpt lat="28.7515670" lon="-17.8448430">
        <ele>2230.9</ele>
        <time>2020-11-16T12:29:08Z</time>
      </trkpt>
      <trkpt lat="28.7516020" lon="-17.8448420">
        <ele>2231.0</ele>
        <time>2020-11-16T12:29:09Z</time>
      </trkpt>
      <trkpt lat="28.7516020" lon="-17.8448420">
        <ele>2231.0</ele>
        <time>2020-11-16T12:29:10Z</time>
      </trkpt>
      <trkpt lat="28.7516730" lon="-17.8448520">
        <ele>2231.2</ele>
        <time>2020-11-16T12:29:11Z</time>
      </trkpt>
      <trkpt lat="28.7516730" lon="-17.8448520">
        <ele>2231.2</ele>
        <time>2020-11-16T12:29:12Z</time>
      </trkpt>
      <trkpt lat="28.7517430" lon="-17.8448730">
        <ele>2231.3</ele>
        <time>2020-11-16T12:29:13Z</time>
      </trkpt>
      <trkpt lat="28.7517770" lon="-17.8448900">
        <ele>2231.4</ele>
        <time>2020-11-16T12:29:14Z</time>
      </trkpt>
      <trkpt lat="28.7517770" lon="-17.8448900">
        <ele>2231.4</ele>
        <time>2020-11-16T12:29:15Z</time>
      </trkpt>
      <trkpt lat="28.7518370" lon="-17.8449470">
        <ele>2231.4</ele>
        <time>2020-11-16T12:29:16Z</time>
      </trkpt>
      <trkpt lat="28.7518630" lon="-17.8449800">
        <ele>2231.4</ele>
        <time>2020-11-16T12:29:17Z</time>
      </trkpt>
      <trkpt lat="28.7518630" lon="-17.8449800">
        <ele>2231.4</ele>
        <time>2020-11-16T12:29:18Z</time>
      </trkpt>
      <trkpt lat="28.7519170" lon="-17.8450550">
        <ele>2231.4</ele>
        <time>2020-11-16T12:29:19Z</time>
      </trkpt>
      <trkpt lat="28.7519420" lon="-17.8450950">
        <ele>2231.4</ele>
        <time>2020-11-16T12:29:20Z</time>
      </trkpt>
      <trkpt lat="28.7519420" lon="-17.8450950">
        <ele>2231.4</ele>
        <time>2020-11-16T12:29:21Z</time>
      </trkpt>
      <trkpt lat="28.7519800" lon="-17.8451870">
        <ele>2231.4</ele>
        <time>2020-11-16T12:29:22Z</time>
      </trkpt>
      <trkpt lat="28.7519800" lon="-17.8451870">
        <ele>2231.4</ele>
        <time>2020-11-16T12:29:23Z</time>
      </trkpt>
      <trkpt lat="28.7520020" lon="-17.8452830">
        <ele>2231.4</ele>
        <time>2020-11-16T12:29:24Z</time>
      </trkpt>
      <trkpt lat="28.7520020" lon="-17.8452830">
        <ele>2231.4</ele>
        <time>2020-11-16T12:29:25Z</time>
      </trkpt>
      <trkpt lat="28.7520000" lon="-17.8453820">
        <ele>2231.6</ele>
        <time>2020-11-16T12:29:26Z</time>
      </trkpt>
      <trkpt lat="28.7520000" lon="-17.8453820">
        <ele>2231.6</ele>
        <time>2020-11-16T12:29:27Z</time>
      </trkpt>
      <trkpt lat="28.7519930" lon="-17.8454830">
        <ele>2231.8</ele>
        <time>2020-11-16T12:29:28Z</time>
      </trkpt>
      <trkpt lat="28.7519920" lon="-17.8455320">
        <ele>2232.0</ele>
        <time>2020-11-16T12:29:29Z</time>
      </trkpt>
      <trkpt lat="28.7519920" lon="-17.8455320">
        <ele>2232.0</ele>
        <time>2020-11-16T12:29:30Z</time>
      </trkpt>
      <trkpt lat="28.7519870" lon="-17.8456250">
        <ele>2232.2</ele>
        <time>2020-11-16T12:29:31Z</time>
      </trkpt>
      <trkpt lat="28.7519830" lon="-17.8456680">
        <ele>2232.2</ele>
        <time>2020-11-16T12:29:32Z</time>
      </trkpt>
      <trkpt lat="28.7519830" lon="-17.8456680">
        <ele>2232.2</ele>
        <time>2020-11-16T12:29:33Z</time>
      </trkpt>
      <trkpt lat="28.7519800" lon="-17.8457570">
        <ele>2232.3</ele>
        <time>2020-11-16T12:29:34Z</time>
      </trkpt>
      <trkpt lat="28.7519800" lon="-17.8457570">
        <ele>2232.3</ele>
        <time>2020-11-16T12:29:35Z</time>
      </trkpt>
      <trkpt lat="28.7519730" lon="-17.8458430">
        <ele>2232.5</ele>
        <time>2020-11-16T12:29:36Z</time>
      </trkpt>
      <trkpt lat="28.7519730" lon="-17.8458430">
        <ele>2232.5</ele>
        <time>2020-11-16T12:29:37Z</time>
      </trkpt>
      <trkpt lat="28.7519650" lon="-17.8459250">
        <ele>2232.6</ele>
        <time>2020-11-16T12:29:38Z</time>
      </trkpt>
      <trkpt lat="28.7519650" lon="-17.8459250">
        <ele>2232.6</ele>
        <time>2020-11-16T12:29:39Z</time>
      </trkpt>
      <trkpt lat="28.7519530" lon="-17.8460020">
        <ele>2232.8</ele>
        <time>2020-11-16T12:29:40Z</time>
      </trkpt>
      <trkpt lat="28.7519480" lon="-17.8460380">
        <ele>2232.9</ele>
        <time>2020-11-16T12:29:41Z</time>
      </trkpt>
      <trkpt lat="28.7519480" lon="-17.8460380">
        <ele>2232.9</ele>
        <time>2020-11-16T12:29:42Z</time>
      </trkpt>
      <trkpt lat="28.7519380" lon="-17.8461080">
        <ele>2233.1</ele>
        <time>2020-11-16T12:29:43Z</time>
      </trkpt>
      <trkpt lat="28.7519300" lon="-17.8461430">
        <ele>2233.2</ele>
        <time>2020-11-16T12:29:44Z</time>
      </trkpt>
      <trkpt lat="28.7519300" lon="-17.8461430">
        <ele>2233.2</ele>
        <time>2020-11-16T12:29:45Z</time>
      </trkpt>
      <trkpt lat="28.7519130" lon="-17.8462120">
        <ele>2233.4</ele>
        <time>2020-11-16T12:29:46Z</time>
      </trkpt>
      <trkpt lat="28.7519130" lon="-17.8462120">
        <ele>2233.4</ele>
        <time>2020-11-16T12:29:47Z</time>
      </trkpt>
      <trkpt lat="28.7519030" lon="-17.8462720">
        <ele>2233.6</ele>
        <time>2020-11-16T12:29:48Z</time>
      </trkpt>
      <trkpt lat="28.7519030" lon="-17.8462720">
        <ele>2233.6</ele>
        <time>2020-11-16T12:29:49Z</time>
      </trkpt>
      <trkpt lat="28.7518930" lon="-17.8463330">
        <ele>2233.8</ele>
        <time>2020-11-16T12:29:50Z</time>
      </trkpt>
      <trkpt lat="28.7518930" lon="-17.8463330">
        <ele>2233.8</ele>
        <time>2020-11-16T12:29:51Z</time>
      </trkpt>
      <trkpt lat="28.7518830" lon="-17.8463900">
        <ele>2234.0</ele>
        <time>2020-11-16T12:29:52Z</time>
      </trkpt>
      <trkpt lat="28.7518830" lon="-17.8463900">
        <ele>2234.0</ele>
        <time>2020-11-16T12:29:53Z</time>
      </trkpt>
      <trkpt lat="28.7518720" lon="-17.8464470">
        <ele>2234.2</ele>
        <time>2020-11-16T12:29:54Z</time>
      </trkpt>
      <trkpt lat="28.7518720" lon="-17.8464470">
        <ele>2234.2</ele>
        <time>2020-11-16T12:29:55Z</time>
      </trkpt>
      <trkpt lat="28.7518570" lon="-17.8465030">
        <ele>2234.3</ele>
        <time>2020-11-16T12:29:56Z</time>
      </trkpt>
      <trkpt lat="28.7518570" lon="-17.8465030">
        <ele>2234.3</ele>
        <time>2020-11-16T12:29:57Z</time>
      </trkpt>
      <trkpt lat="28.7518470" lon="-17.8465730">
        <ele>2234.6</ele>
        <time>2020-11-16T12:29:58Z</time>
      </trkpt>
      <trkpt lat="28.7518420" lon="-17.8466030">
        <ele>2234.6</ele>
        <time>2020-11-16T12:29:59Z</time>
      </trkpt>
      <trkpt lat="28.7518420" lon="-17.8466030">
        <ele>2234.6</ele>
        <time>2020-11-16T12:30:00Z</time>
      </trkpt>
      <trkpt lat="28.7518320" lon="-17.8466580">
        <ele>2234.8</ele>
        <time>2020-11-16T12:30:01Z</time>
      </trkpt>
      <trkpt lat="28.7518270" lon="-17.8466920">
        <ele>2234.9</ele>
        <time>2020-11-16T12:30:02Z</time>
      </trkpt>
      <trkpt lat="28.7518270" lon="-17.8466920">
        <ele>2234.9</ele>
        <time>2020-11-16T12:30:03Z</time>
      </trkpt>
      <trkpt lat="28.7518200" lon="-17.8467480">
        <ele>2235.1</ele>
        <time>2020-11-16T12:30:04Z</time>
      </trkpt>
      <trkpt lat="28.7518200" lon="-17.8467480">
        <ele>2235.1</ele>
        <time>2020-11-16T12:30:05Z</time>
      </trkpt>
      <trkpt lat="28.7518120" lon="-17.8468030">
        <ele>2235.3</ele>
        <time>2020-11-16T12:30:06Z</time>
      </trkpt>
      <trkpt lat="28.7518120" lon="-17.8468030">
        <ele>2235.3</ele>
        <time>2020-11-16T12:30:07Z</time>
      </trkpt>
      <trkpt lat="28.7518020" lon="-17.8468620">
        <ele>2235.5</ele>
        <time>2020-11-16T12:30:08Z</time>
      </trkpt>
      <trkpt lat="28.7518020" lon="-17.8468620">
        <ele>2235.5</ele>
        <time>2020-11-16T12:30:09Z</time>
      </trkpt>
      <trkpt lat="28.7517950" lon="-17.8469230">
        <ele>2235.8</ele>
        <time>2020-11-16T12:30:10Z</time>
      </trkpt>
      <trkpt lat="28.7517950" lon="-17.8469230">
        <ele>2235.8</ele>
        <time>2020-11-16T12:30:11Z</time>
      </trkpt>
      <trkpt lat="28.7517900" lon="-17.8469820">
        <ele>2236.2</ele>
        <time>2020-11-16T12:30:12Z</time>
      </trkpt>
      <trkpt lat="28.7517880" lon="-17.8470120">
        <ele>2236.4</ele>
        <time>2020-11-16T12:30:13Z</time>
      </trkpt>
      <trkpt lat="28.7517880" lon="-17.8470120">
        <ele>2236.4</ele>
        <time>2020-11-16T12:30:14Z</time>
      </trkpt>
      <trkpt lat="28.7517870" lon="-17.8470700">
        <ele>2236.8</ele>
        <time>2020-11-16T12:30:15Z</time>
      </trkpt>
      <trkpt lat="28.7517880" lon="-17.8470980">
        <ele>2236.9</ele>
        <time>2020-11-16T12:30:16Z</time>
      </trkpt>
      <trkpt lat="28.7517880" lon="-17.8470980">
        <ele>2236.9</ele>
        <time>2020-11-16T12:30:17Z</time>
      </trkpt>
      <trkpt lat="28.7517970" lon="-17.8471530">
        <ele>2237.3</ele>
        <time>2020-11-16T12:30:18Z</time>
      </trkpt>
      <trkpt lat="28.7517970" lon="-17.8471530">
        <ele>2237.3</ele>
        <time>2020-11-16T12:30:19Z</time>
      </trkpt>
      <trkpt lat="28.7518080" lon="-17.8472080">
        <ele>2237.7</ele>
        <time>2020-11-16T12:30:20Z</time>
      </trkpt>
      <trkpt lat="28.7518080" lon="-17.8472080">
        <ele>2237.7</ele>
        <time>2020-11-16T12:30:21Z</time>
      </trkpt>
      <trkpt lat="28.7518200" lon="-17.8472630">
        <ele>2238.0</ele>
        <time>2020-11-16T12:30:22Z</time>
      </trkpt>
      <trkpt lat="28.7518200" lon="-17.8472630">
        <ele>2238.0</ele>
        <time>2020-11-16T12:30:23Z</time>
      </trkpt>
      <trkpt lat="28.7518350" lon="-17.8473130">
        <ele>2238.3</ele>
        <time>2020-11-16T12:30:24Z</time>
      </trkpt>
      <trkpt lat="28.7518350" lon="-17.8473130">
        <ele>2238.3</ele>
        <time>2020-11-16T12:30:25Z</time>
      </trkpt>
      <trkpt lat="28.7518480" lon="-17.8473600">
        <ele>2238.6</ele>
        <time>2020-11-16T12:30:26Z</time>
      </trkpt>
      <trkpt lat="28.7518480" lon="-17.8473600">
        <ele>2238.6</ele>
        <time>2020-11-16T12:30:27Z</time>
      </trkpt>
      <trkpt lat="28.7518700" lon="-17.8474070">
        <ele>2238.9</ele>
        <time>2020-11-16T12:30:28Z</time>
      </trkpt>
      <trkpt lat="28.7518850" lon="-17.8474280">
        <ele>2239.1</ele>
        <time>2020-11-16T12:30:29Z</time>
      </trkpt>
      <trkpt lat="28.7518850" lon="-17.8474280">
        <ele>2239.1</ele>
        <time>2020-11-16T12:30:30Z</time>
      </trkpt>
      <trkpt lat="28.7519150" lon="-17.8474700">
        <ele>2239.5</ele>
        <time>2020-11-16T12:30:31Z</time>
      </trkpt>
      <trkpt lat="28.7519150" lon="-17.8474700">
        <ele>2239.5</ele>
        <time>2020-11-16T12:30:32Z</time>
      </trkpt>
      <trkpt lat="28.7519500" lon="-17.8475050">
        <ele>2239.8</ele>
        <time>2020-11-16T12:30:33Z</time>
      </trkpt>
      <trkpt lat="28.7519500" lon="-17.8475050">
        <ele>2239.8</ele>
        <time>2020-11-16T12:30:34Z</time>
      </trkpt>
      <trkpt lat="28.7519870" lon="-17.8475420">
        <ele>2240.3</ele>
        <time>2020-11-16T12:30:35Z</time>
      </trkpt>
      <trkpt lat="28.7520080" lon="-17.8475580">
        <ele>2240.6</ele>
        <time>2020-11-16T12:30:36Z</time>
      </trkpt>
      <trkpt lat="28.7520080" lon="-17.8475580">
        <ele>2240.6</ele>
        <time>2020-11-16T12:30:37Z</time>
      </trkpt>
      <trkpt lat="28.7520520" lon="-17.8475830">
        <ele>2241.1</ele>
        <time>2020-11-16T12:30:38Z</time>
      </trkpt>
      <trkpt lat="28.7520520" lon="-17.8475830">
        <ele>2241.1</ele>
        <time>2020-11-16T12:30:39Z</time>
      </trkpt>
      <trkpt lat="28.7520920" lon="-17.8476080">
        <ele>2241.5</ele>
        <time>2020-11-16T12:30:40Z</time>
      </trkpt>
      <trkpt lat="28.7521100" lon="-17.8476180">
        <ele>2241.8</ele>
        <time>2020-11-16T12:30:41Z</time>
      </trkpt>
      <trkpt lat="28.7521100" lon="-17.8476180">
        <ele>2241.8</ele>
        <time>2020-11-16T12:30:42Z</time>
      </trkpt>
      <trkpt lat="28.7521470" lon="-17.8476370">
        <ele>2242.2</ele>
        <time>2020-11-16T12:30:43Z</time>
      </trkpt>
      <trkpt lat="28.7521650" lon="-17.8476450">
        <ele>2242.4</ele>
        <time>2020-11-16T12:30:44Z</time>
      </trkpt>
      <trkpt lat="28.7521650" lon="-17.8476450">
        <ele>2242.4</ele>
        <time>2020-11-16T12:30:45Z</time>
      </trkpt>
      <trkpt lat="28.7522000" lon="-17.8476670">
        <ele>2242.8</ele>
        <time>2020-11-16T12:30:46Z</time>
      </trkpt>
      <trkpt lat="28.7522150" lon="-17.8476780">
        <ele>2242.9</ele>
        <time>2020-11-16T12:30:47Z</time>
      </trkpt>
      <trkpt lat="28.7522150" lon="-17.8476780">
        <ele>2242.9</ele>
        <time>2020-11-16T12:30:48Z</time>
      </trkpt>
      <trkpt lat="28.7522500" lon="-17.8477020">
        <ele>2243.3</ele>
        <time>2020-11-16T12:30:49Z</time>
      </trkpt>
      <trkpt lat="28.7522700" lon="-17.8477150">
        <ele>2243.5</ele>
        <time>2020-11-16T12:30:50Z</time>
      </trkpt>
      <trkpt lat="28.7522700" lon="-17.8477150">
        <ele>2243.5</ele>
        <time>2020-11-16T12:30:51Z</time>
      </trkpt>
      <trkpt lat="28.7523050" lon="-17.8477380">
        <ele>2243.9</ele>
        <time>2020-11-16T12:30:52Z</time>
      </trkpt>
      <trkpt lat="28.7523230" lon="-17.8477480">
        <ele>2244.1</ele>
        <time>2020-11-16T12:30:53Z</time>
      </trkpt>
      <trkpt lat="28.7523230" lon="-17.8477480">
        <ele>2244.1</ele>
        <time>2020-11-16T12:30:54Z</time>
      </trkpt>
      <trkpt lat="28.7523600" lon="-17.8477730">
        <ele>2244.5</ele>
        <time>2020-11-16T12:30:55Z</time>
      </trkpt>
      <trkpt lat="28.7523770" lon="-17.8477850">
        <ele>2244.7</ele>
        <time>2020-11-16T12:30:56Z</time>
      </trkpt>
      <trkpt lat="28.7523930" lon="-17.8477980">
        <ele>2244.9</ele>
        <time>2020-11-16T12:30:57Z</time>
      </trkpt>
      <trkpt lat="28.7524070" lon="-17.8478120">
        <ele>2245.0</ele>
        <time>2020-11-16T12:30:58Z</time>
      </trkpt>
      <trkpt lat="28.7524070" lon="-17.8478120">
        <ele>2245.0</ele>
        <time>2020-11-16T12:30:59Z</time>
      </trkpt>
      <trkpt lat="28.7524370" lon="-17.8478420">
        <ele>2245.4</ele>
        <time>2020-11-16T12:31:00Z</time>
      </trkpt>
      <trkpt lat="28.7524520" lon="-17.8478570">
        <ele>2245.5</ele>
        <time>2020-11-16T12:31:01Z</time>
      </trkpt>
      <trkpt lat="28.7524520" lon="-17.8478570">
        <ele>2245.5</ele>
        <time>2020-11-16T12:31:02Z</time>
      </trkpt>
      <trkpt lat="28.7524750" lon="-17.8478900">
        <ele>2245.9</ele>
        <time>2020-11-16T12:31:03Z</time>
      </trkpt>
      <trkpt lat="28.7524870" lon="-17.8479070">
        <ele>2246.0</ele>
        <time>2020-11-16T12:31:04Z</time>
      </trkpt>
      <trkpt lat="28.7524870" lon="-17.8479070">
        <ele>2246.0</ele>
        <time>2020-11-16T12:31:05Z</time>
      </trkpt>
      <trkpt lat="28.7525120" lon="-17.8479420">
        <ele>2246.3</ele>
        <time>2020-11-16T12:31:06Z</time>
      </trkpt>
      <trkpt lat="28.7525120" lon="-17.8479420">
        <ele>2246.3</ele>
        <time>2020-11-16T12:31:07Z</time>
      </trkpt>
      <trkpt lat="28.7525370" lon="-17.8479750">
        <ele>2246.6</ele>
        <time>2020-11-16T12:31:08Z</time>
      </trkpt>
      <trkpt lat="28.7525370" lon="-17.8479750">
        <ele>2246.6</ele>
        <time>2020-11-16T12:31:09Z</time>
      </trkpt>
      <trkpt lat="28.7525630" lon="-17.8480070">
        <ele>2246.9</ele>
        <time>2020-11-16T12:31:10Z</time>
      </trkpt>
      <trkpt lat="28.7525630" lon="-17.8480070">
        <ele>2246.9</ele>
        <time>2020-11-16T12:31:11Z</time>
      </trkpt>
      <trkpt lat="28.7525920" lon="-17.8480420">
        <ele>2247.2</ele>
        <time>2020-11-16T12:31:12Z</time>
      </trkpt>
      <trkpt lat="28.7526030" lon="-17.8480600">
        <ele>2247.3</ele>
        <time>2020-11-16T12:31:13Z</time>
      </trkpt>
      <trkpt lat="28.7526170" lon="-17.8480780">
        <ele>2247.5</ele>
        <time>2020-11-16T12:31:14Z</time>
      </trkpt>
      <trkpt lat="28.7526170" lon="-17.8480780">
        <ele>2247.5</ele>
        <time>2020-11-16T12:31:15Z</time>
      </trkpt>
      <trkpt lat="28.7526420" lon="-17.8481100">
        <ele>2247.7</ele>
        <time>2020-11-16T12:31:16Z</time>
      </trkpt>
      <trkpt lat="28.7526420" lon="-17.8481100">
        <ele>2247.7</ele>
        <time>2020-11-16T12:31:17Z</time>
      </trkpt>
      <trkpt lat="28.7526630" lon="-17.8481420">
        <ele>2248.0</ele>
        <time>2020-11-16T12:31:18Z</time>
      </trkpt>
      <trkpt lat="28.7526630" lon="-17.8481420">
        <ele>2248.0</ele>
        <time>2020-11-16T12:31:19Z</time>
      </trkpt>
      <trkpt lat="28.7526850" lon="-17.8481780">
        <ele>2248.3</ele>
        <time>2020-11-16T12:31:20Z</time>
      </trkpt>
      <trkpt lat="28.7526980" lon="-17.8481970">
        <ele>2248.4</ele>
        <time>2020-11-16T12:31:21Z</time>
      </trkpt>
      <trkpt lat="28.7526980" lon="-17.8481970">
        <ele>2248.4</ele>
        <time>2020-11-16T12:31:22Z</time>
      </trkpt>
      <trkpt lat="28.7527200" lon="-17.8482330">
        <ele>2248.7</ele>
        <time>2020-11-16T12:31:23Z</time>
      </trkpt>
      <trkpt lat="28.7527270" lon="-17.8482550">
        <ele>2248.8</ele>
        <time>2020-11-16T12:31:24Z</time>
      </trkpt>
      <trkpt lat="28.7527270" lon="-17.8482550">
        <ele>2248.8</ele>
        <time>2020-11-16T12:31:25Z</time>
      </trkpt>
      <trkpt lat="28.7527400" lon="-17.8482980">
        <ele>2249.1</ele>
        <time>2020-11-16T12:31:26Z</time>
      </trkpt>
      <trkpt lat="28.7527400" lon="-17.8482980">
        <ele>2249.1</ele>
        <time>2020-11-16T12:31:27Z</time>
      </trkpt>
      <trkpt lat="28.7527620" lon="-17.8483370">
        <ele>2249.5</ele>
        <time>2020-11-16T12:31:28Z</time>
      </trkpt>
      <trkpt lat="28.7527730" lon="-17.8483530">
        <ele>2249.6</ele>
        <time>2020-11-16T12:31:29Z</time>
      </trkpt>
      <trkpt lat="28.7527730" lon="-17.8483530">
        <ele>2249.6</ele>
        <time>2020-11-16T12:31:30Z</time>
      </trkpt>
      <trkpt lat="28.7527970" lon="-17.8483920">
        <ele>2250.0</ele>
        <time>2020-11-16T12:31:31Z</time>
      </trkpt>
      <trkpt lat="28.7527970" lon="-17.8483920">
        <ele>2250.0</ele>
        <time>2020-11-16T12:31:32Z</time>
      </trkpt>
      <trkpt lat="28.7528200" lon="-17.8484300">
        <ele>2250.5</ele>
        <time>2020-11-16T12:31:33Z</time>
      </trkpt>
      <trkpt lat="28.7528320" lon="-17.8484480">
        <ele>2250.7</ele>
        <time>2020-11-16T12:31:34Z</time>
      </trkpt>
      <trkpt lat="28.7528320" lon="-17.8484480">
        <ele>2250.7</ele>
        <time>2020-11-16T12:31:35Z</time>
      </trkpt>
      <trkpt lat="28.7528530" lon="-17.8484830">
        <ele>2251.0</ele>
        <time>2020-11-16T12:31:36Z</time>
      </trkpt>
      <trkpt lat="28.7528650" lon="-17.8485000">
        <ele>2251.2</ele>
        <time>2020-11-16T12:31:37Z</time>
      </trkpt>
      <trkpt lat="28.7528650" lon="-17.8485000">
        <ele>2251.2</ele>
        <time>2020-11-16T12:31:38Z</time>
      </trkpt>
      <trkpt lat="28.7528870" lon="-17.8485320">
        <ele>2251.5</ele>
        <time>2020-11-16T12:31:39Z</time>
      </trkpt>
      <trkpt lat="28.7528980" lon="-17.8485520">
        <ele>2251.7</ele>
        <time>2020-11-16T12:31:40Z</time>
      </trkpt>
      <trkpt lat="28.7528980" lon="-17.8485520">
        <ele>2251.7</ele>
        <time>2020-11-16T12:31:41Z</time>
      </trkpt>
      <trkpt lat="28.7529200" lon="-17.8485900">
        <ele>2252.0</ele>
        <time>2020-11-16T12:31:42Z</time>
      </trkpt>
      <trkpt lat="28.7529200" lon="-17.8485900">
        <ele>2252.0</ele>
        <time>2020-11-16T12:31:43Z</time>
      </trkpt>
      <trkpt lat="28.7529430" lon="-17.8486300">
        <ele>2252.3</ele>
        <time>2020-11-16T12:31:44Z</time>
      </trkpt>
      <trkpt lat="28.7529430" lon="-17.8486300">
        <ele>2252.3</ele>
        <time>2020-11-16T12:31:45Z</time>
      </trkpt>
      <trkpt lat="28.7529650" lon="-17.8486670">
        <ele>2252.6</ele>
        <time>2020-11-16T12:31:46Z</time>
      </trkpt>
      <trkpt lat="28.7529650" lon="-17.8486670">
        <ele>2252.6</ele>
        <time>2020-11-16T12:31:47Z</time>
      </trkpt>
      <trkpt lat="28.7529870" lon="-17.8487050">
        <ele>2253.0</ele>
        <time>2020-11-16T12:31:48Z</time>
      </trkpt>
      <trkpt lat="28.7529970" lon="-17.8487250">
        <ele>2253.1</ele>
        <time>2020-11-16T12:31:49Z</time>
      </trkpt>
      <trkpt lat="28.7529970" lon="-17.8487250">
        <ele>2253.1</ele>
        <time>2020-11-16T12:31:50Z</time>
      </trkpt>
      <trkpt lat="28.7530220" lon="-17.8487620">
        <ele>2253.5</ele>
        <time>2020-11-16T12:31:51Z</time>
      </trkpt>
      <trkpt lat="28.7530330" lon="-17.8487800">
        <ele>2253.7</ele>
        <time>2020-11-16T12:31:52Z</time>
      </trkpt>
      <trkpt lat="28.7530330" lon="-17.8487800">
        <ele>2253.7</ele>
        <time>2020-11-16T12:31:53Z</time>
      </trkpt>
      <trkpt lat="28.7530520" lon="-17.8488170">
        <ele>2254.0</ele>
        <time>2020-11-16T12:31:54Z</time>
      </trkpt>
      <trkpt lat="28.7530520" lon="-17.8488170">
        <ele>2254.0</ele>
        <time>2020-11-16T12:31:55Z</time>
      </trkpt>
      <trkpt lat="28.7530680" lon="-17.8488600">
        <ele>2254.4</ele>
        <time>2020-11-16T12:31:56Z</time>
      </trkpt>
      <trkpt lat="28.7530680" lon="-17.8488600">
        <ele>2254.4</ele>
        <time>2020-11-16T12:31:57Z</time>
      </trkpt>
      <trkpt lat="28.7530900" lon="-17.8489000">
        <ele>2254.8</ele>
        <time>2020-11-16T12:31:58Z</time>
      </trkpt>
      <trkpt lat="28.7530900" lon="-17.8489000">
        <ele>2254.8</ele>
        <time>2020-11-16T12:31:59Z</time>
      </trkpt>
      <trkpt lat="28.7531100" lon="-17.8489400">
        <ele>2255.2</ele>
        <time>2020-11-16T12:32:00Z</time>
      </trkpt>
      <trkpt lat="28.7531180" lon="-17.8489600">
        <ele>2255.4</ele>
        <time>2020-11-16T12:32:01Z</time>
      </trkpt>
      <trkpt lat="28.7531180" lon="-17.8489600">
        <ele>2255.4</ele>
        <time>2020-11-16T12:32:02Z</time>
      </trkpt>
      <trkpt lat="28.7531330" lon="-17.8490020">
        <ele>2255.8</ele>
        <time>2020-11-16T12:32:03Z</time>
      </trkpt>
      <trkpt lat="28.7531430" lon="-17.8490230">
        <ele>2256.0</ele>
        <time>2020-11-16T12:32:04Z</time>
      </trkpt>
      <trkpt lat="28.7531430" lon="-17.8490230">
        <ele>2256.0</ele>
        <time>2020-11-16T12:32:05Z</time>
      </trkpt>
      <trkpt lat="28.7531570" lon="-17.8490670">
        <ele>2256.3</ele>
        <time>2020-11-16T12:32:06Z</time>
      </trkpt>
      <trkpt lat="28.7531620" lon="-17.8490900">
        <ele>2256.5</ele>
        <time>2020-11-16T12:32:07Z</time>
      </trkpt>
      <trkpt lat="28.7531620" lon="-17.8490900">
        <ele>2256.5</ele>
        <time>2020-11-16T12:32:08Z</time>
      </trkpt>
      <trkpt lat="28.7531680" lon="-17.8491350">
        <ele>2256.8</ele>
        <time>2020-11-16T12:32:09Z</time>
      </trkpt>
      <trkpt lat="28.7531680" lon="-17.8491350">
        <ele>2256.8</ele>
        <time>2020-11-16T12:32:10Z</time>
      </trkpt>
      <trkpt lat="28.7531720" lon="-17.8491870">
        <ele>2257.1</ele>
        <time>2020-11-16T12:32:11Z</time>
      </trkpt>
      <trkpt lat="28.7531720" lon="-17.8492130">
        <ele>2257.3</ele>
        <time>2020-11-16T12:32:12Z</time>
      </trkpt>
      <trkpt lat="28.7531720" lon="-17.8492130">
        <ele>2257.3</ele>
        <time>2020-11-16T12:32:13Z</time>
      </trkpt>
      <trkpt lat="28.7531700" lon="-17.8492620">
        <ele>2257.6</ele>
        <time>2020-11-16T12:32:14Z</time>
      </trkpt>
      <trkpt lat="28.7531680" lon="-17.8492850">
        <ele>2257.7</ele>
        <time>2020-11-16T12:32:15Z</time>
      </trkpt>
      <trkpt lat="28.7531670" lon="-17.8493070">
        <ele>2257.8</ele>
        <time>2020-11-16T12:32:16Z</time>
      </trkpt>
      <trkpt lat="28.7531670" lon="-17.8493070">
        <ele>2257.8</ele>
        <time>2020-11-16T12:32:17Z</time>
      </trkpt>
      <trkpt lat="28.7531630" lon="-17.8493530">
        <ele>2258.1</ele>
        <time>2020-11-16T12:32:18Z</time>
      </trkpt>
      <trkpt lat="28.7531630" lon="-17.8493530">
        <ele>2258.1</ele>
        <time>2020-11-16T12:32:19Z</time>
      </trkpt>
      <trkpt lat="28.7531570" lon="-17.8494000">
        <ele>2258.3</ele>
        <time>2020-11-16T12:32:20Z</time>
      </trkpt>
      <trkpt lat="28.7531570" lon="-17.8494000">
        <ele>2258.3</ele>
        <time>2020-11-16T12:32:21Z</time>
      </trkpt>
      <trkpt lat="28.7531500" lon="-17.8494470">
        <ele>2258.5</ele>
        <time>2020-11-16T12:32:22Z</time>
      </trkpt>
      <trkpt lat="28.7531500" lon="-17.8494470">
        <ele>2258.5</ele>
        <time>2020-11-16T12:32:23Z</time>
      </trkpt>
      <trkpt lat="28.7531430" lon="-17.8494930">
        <ele>2258.7</ele>
        <time>2020-11-16T12:32:24Z</time>
      </trkpt>
      <trkpt lat="28.7531430" lon="-17.8494930">
        <ele>2258.7</ele>
        <time>2020-11-16T12:32:25Z</time>
      </trkpt>
      <trkpt lat="28.7531330" lon="-17.8495400">
        <ele>2259.0</ele>
        <time>2020-11-16T12:32:26Z</time>
      </trkpt>
      <trkpt lat="28.7531330" lon="-17.8495400">
        <ele>2259.0</ele>
        <time>2020-11-16T12:32:27Z</time>
      </trkpt>
      <trkpt lat="28.7531220" lon="-17.8495870">
        <ele>2259.2</ele>
        <time>2020-11-16T12:32:28Z</time>
      </trkpt>
      <trkpt lat="28.7531220" lon="-17.8495870">
        <ele>2259.2</ele>
        <time>2020-11-16T12:32:29Z</time>
      </trkpt>
      <trkpt lat="28.7531120" lon="-17.8496350">
        <ele>2259.5</ele>
        <time>2020-11-16T12:32:30Z</time>
      </trkpt>
      <trkpt lat="28.7531120" lon="-17.8496350">
        <ele>2259.5</ele>
        <time>2020-11-16T12:32:31Z</time>
      </trkpt>
      <trkpt lat="28.7531050" lon="-17.8496820">
        <ele>2259.8</ele>
        <time>2020-11-16T12:32:32Z</time>
      </trkpt>
      <trkpt lat="28.7531050" lon="-17.8496820">
        <ele>2259.8</ele>
        <time>2020-11-16T12:32:33Z</time>
      </trkpt>
      <trkpt lat="28.7531050" lon="-17.8497250">
        <ele>2260.1</ele>
        <time>2020-11-16T12:32:34Z</time>
      </trkpt>
      <trkpt lat="28.7531050" lon="-17.8497250">
        <ele>2260.1</ele>
        <time>2020-11-16T12:32:35Z</time>
      </trkpt>
      <trkpt lat="28.7531050" lon="-17.8497720">
        <ele>2260.4</ele>
        <time>2020-11-16T12:32:36Z</time>
      </trkpt>
      <trkpt lat="28.7531030" lon="-17.8497950">
        <ele>2260.6</ele>
        <time>2020-11-16T12:32:37Z</time>
      </trkpt>
      <trkpt lat="28.7531030" lon="-17.8498170">
        <ele>2260.8</ele>
        <time>2020-11-16T12:32:38Z</time>
      </trkpt>
      <trkpt lat="28.7531030" lon="-17.8498170">
        <ele>2260.8</ele>
        <time>2020-11-16T12:32:39Z</time>
      </trkpt>
      <trkpt lat="28.7531100" lon="-17.8498620">
        <ele>2261.2</ele>
        <time>2020-11-16T12:32:40Z</time>
      </trkpt>
      <trkpt lat="28.7531150" lon="-17.8498870">
        <ele>2261.4</ele>
        <time>2020-11-16T12:32:41Z</time>
      </trkpt>
      <trkpt lat="28.7531150" lon="-17.8498870">
        <ele>2261.4</ele>
        <time>2020-11-16T12:32:42Z</time>
      </trkpt>
      <trkpt lat="28.7531230" lon="-17.8499330">
        <ele>2261.7</ele>
        <time>2020-11-16T12:32:43Z</time>
      </trkpt>
      <trkpt lat="28.7531300" lon="-17.8499570">
        <ele>2261.9</ele>
        <time>2020-11-16T12:32:44Z</time>
      </trkpt>
      <trkpt lat="28.7531300" lon="-17.8499570">
        <ele>2261.9</ele>
        <time>2020-11-16T12:32:45Z</time>
      </trkpt>
      <trkpt lat="28.7531450" lon="-17.8500020">
        <ele>2262.3</ele>
        <time>2020-11-16T12:32:46Z</time>
      </trkpt>
      <trkpt lat="28.7531450" lon="-17.8500020">
        <ele>2262.3</ele>
        <time>2020-11-16T12:32:47Z</time>
      </trkpt>
      <trkpt lat="28.7531650" lon="-17.8500400">
        <ele>2262.6</ele>
        <time>2020-11-16T12:32:48Z</time>
      </trkpt>
      <trkpt lat="28.7531650" lon="-17.8500400">
        <ele>2262.6</ele>
        <time>2020-11-16T12:32:49Z</time>
      </trkpt>
      <trkpt lat="28.7531830" lon="-17.8500730">
        <ele>2262.9</ele>
        <time>2020-11-16T12:32:50Z</time>
      </trkpt>
      <trkpt lat="28.7531830" lon="-17.8500730">
        <ele>2262.9</ele>
        <time>2020-11-16T12:32:51Z</time>
      </trkpt>
      <trkpt lat="28.7532100" lon="-17.8501020">
        <ele>2263.2</ele>
        <time>2020-11-16T12:32:52Z</time>
      </trkpt>
      <trkpt lat="28.7532280" lon="-17.8501120">
        <ele>2263.4</ele>
        <time>2020-11-16T12:32:53Z</time>
      </trkpt>
      <trkpt lat="28.7532280" lon="-17.8501120">
        <ele>2263.4</ele>
        <time>2020-11-16T12:32:54Z</time>
      </trkpt>
      <trkpt lat="28.7532580" lon="-17.8501270">
        <ele>2263.8</ele>
        <time>2020-11-16T12:32:55Z</time>
      </trkpt>
      <trkpt lat="28.7532730" lon="-17.8501350">
        <ele>2264.0</ele>
        <time>2020-11-16T12:32:56Z</time>
      </trkpt>
      <trkpt lat="28.7532730" lon="-17.8501350">
        <ele>2264.0</ele>
        <time>2020-11-16T12:32:57Z</time>
      </trkpt>
      <trkpt lat="28.7533070" lon="-17.8501530">
        <ele>2264.4</ele>
        <time>2020-11-16T12:32:58Z</time>
      </trkpt>
      <trkpt lat="28.7533070" lon="-17.8501530">
        <ele>2264.4</ele>
        <time>2020-11-16T12:32:59Z</time>
      </trkpt>
      <trkpt lat="28.7533380" lon="-17.8501630">
        <ele>2264.8</ele>
        <time>2020-11-16T12:33:00Z</time>
      </trkpt>
      <trkpt lat="28.7533380" lon="-17.8501630">
        <ele>2264.8</ele>
        <time>2020-11-16T12:33:01Z</time>
      </trkpt>
      <trkpt lat="28.7533730" lon="-17.8501830">
        <ele>2265.3</ele>
        <time>2020-11-16T12:33:02Z</time>
      </trkpt>
      <trkpt lat="28.7533730" lon="-17.8501830">
        <ele>2265.3</ele>
        <time>2020-11-16T12:33:03Z</time>
      </trkpt>
      <trkpt lat="28.7534050" lon="-17.8501970">
        <ele>2265.7</ele>
        <time>2020-11-16T12:33:04Z</time>
      </trkpt>
      <trkpt lat="28.7534230" lon="-17.8502050">
        <ele>2265.9</ele>
        <time>2020-11-16T12:33:05Z</time>
      </trkpt>
      <trkpt lat="28.7534230" lon="-17.8502050">
        <ele>2265.9</ele>
        <time>2020-11-16T12:33:06Z</time>
      </trkpt>
      <trkpt lat="28.7534620" lon="-17.8502230">
        <ele>2266.4</ele>
        <time>2020-11-16T12:33:07Z</time>
      </trkpt>
      <trkpt lat="28.7534830" lon="-17.8502250">
        <ele>2266.7</ele>
        <time>2020-11-16T12:33:08Z</time>
      </trkpt>
      <trkpt lat="28.7534830" lon="-17.8502250">
        <ele>2266.7</ele>
        <time>2020-11-16T12:33:09Z</time>
      </trkpt>
      <trkpt lat="28.7535230" lon="-17.8502280">
        <ele>2267.1</ele>
        <time>2020-11-16T12:33:10Z</time>
      </trkpt>
      <trkpt lat="28.7535420" lon="-17.8502350">
        <ele>2267.4</ele>
        <time>2020-11-16T12:33:11Z</time>
      </trkpt>
      <trkpt lat="28.7535580" lon="-17.8502470">
        <ele>2267.6</ele>
        <time>2020-11-16T12:33:12Z</time>
      </trkpt>
      <trkpt lat="28.7535580" lon="-17.8502470">
        <ele>2267.6</ele>
        <time>2020-11-16T12:33:13Z</time>
      </trkpt>
      <trkpt lat="28.7536000" lon="-17.8502680">
        <ele>2268.0</ele>
        <time>2020-11-16T12:33:14Z</time>
      </trkpt>
      <trkpt lat="28.7536000" lon="-17.8502680">
        <ele>2268.0</ele>
        <time>2020-11-16T12:33:15Z</time>
      </trkpt>
      <trkpt lat="28.7536350" lon="-17.8502870">
        <ele>2268.4</ele>
        <time>2020-11-16T12:33:16Z</time>
      </trkpt>
      <trkpt lat="28.7536350" lon="-17.8502870">
        <ele>2268.4</ele>
        <time>2020-11-16T12:33:17Z</time>
      </trkpt>
      <trkpt lat="28.7536750" lon="-17.8503030">
        <ele>2268.8</ele>
        <time>2020-11-16T12:33:18Z</time>
      </trkpt>
      <trkpt lat="28.7536920" lon="-17.8503100">
        <ele>2268.9</ele>
        <time>2020-11-16T12:33:19Z</time>
      </trkpt>
      <trkpt lat="28.7536920" lon="-17.8503100">
        <ele>2268.9</ele>
        <time>2020-11-16T12:33:20Z</time>
      </trkpt>
      <trkpt lat="28.7537250" lon="-17.8503250">
        <ele>2269.2</ele>
        <time>2020-11-16T12:33:21Z</time>
      </trkpt>
      <trkpt lat="28.7537450" lon="-17.8503300">
        <ele>2269.4</ele>
        <time>2020-11-16T12:33:22Z</time>
      </trkpt>
      <trkpt lat="28.7537450" lon="-17.8503300">
        <ele>2269.4</ele>
        <time>2020-11-16T12:33:23Z</time>
      </trkpt>
      <trkpt lat="28.7537800" lon="-17.8503380">
        <ele>2269.7</ele>
        <time>2020-11-16T12:33:24Z</time>
      </trkpt>
      <trkpt lat="28.7538000" lon="-17.8503470">
        <ele>2269.9</ele>
        <time>2020-11-16T12:33:25Z</time>
      </trkpt>
      <trkpt lat="28.7538000" lon="-17.8503470">
        <ele>2269.9</ele>
        <time>2020-11-16T12:33:26Z</time>
      </trkpt>
      <trkpt lat="28.7538300" lon="-17.8503620">
        <ele>2270.2</ele>
        <time>2020-11-16T12:33:27Z</time>
      </trkpt>
      <trkpt lat="28.7538300" lon="-17.8503620">
        <ele>2270.2</ele>
        <time>2020-11-16T12:33:28Z</time>
      </trkpt>
      <trkpt lat="28.7538630" lon="-17.8503870">
        <ele>2270.6</ele>
        <time>2020-11-16T12:33:29Z</time>
      </trkpt>
      <trkpt lat="28.7538830" lon="-17.8504020">
        <ele>2270.8</ele>
        <time>2020-11-16T12:33:30Z</time>
      </trkpt>
      <trkpt lat="28.7538830" lon="-17.8504020">
        <ele>2270.8</ele>
        <time>2020-11-16T12:33:31Z</time>
      </trkpt>
      <trkpt lat="28.7539180" lon="-17.8504280">
        <ele>2271.3</ele>
        <time>2020-11-16T12:33:32Z</time>
      </trkpt>
      <trkpt lat="28.7539180" lon="-17.8504280">
        <ele>2271.3</ele>
        <time>2020-11-16T12:33:33Z</time>
      </trkpt>
      <trkpt lat="28.7539520" lon="-17.8504550">
        <ele>2271.6</ele>
        <time>2020-11-16T12:33:34Z</time>
      </trkpt>
      <trkpt lat="28.7539670" lon="-17.8504630">
        <ele>2271.8</ele>
        <time>2020-11-16T12:33:35Z</time>
      </trkpt>
      <trkpt lat="28.7539670" lon="-17.8504630">
        <ele>2271.8</ele>
        <time>2020-11-16T12:33:36Z</time>
      </trkpt>
      <trkpt lat="28.7540020" lon="-17.8504800">
        <ele>2272.2</ele>
        <time>2020-11-16T12:33:37Z</time>
      </trkpt>
      <trkpt lat="28.7540230" lon="-17.8504950">
        <ele>2272.4</ele>
        <time>2020-11-16T12:33:38Z</time>
      </trkpt>
      <trkpt lat="28.7540230" lon="-17.8504950">
        <ele>2272.4</ele>
        <time>2020-11-16T12:33:39Z</time>
      </trkpt>
      <trkpt lat="28.7540450" lon="-17.8505330">
        <ele>2272.8</ele>
        <time>2020-11-16T12:33:40Z</time>
      </trkpt>
      <trkpt lat="28.7540450" lon="-17.8505330">
        <ele>2272.8</ele>
        <time>2020-11-16T12:33:41Z</time>
      </trkpt>
      <trkpt lat="28.7540680" lon="-17.8505620">
        <ele>2273.1</ele>
        <time>2020-11-16T12:33:42Z</time>
      </trkpt>
      <trkpt lat="28.7540680" lon="-17.8505620">
        <ele>2273.1</ele>
        <time>2020-11-16T12:33:43Z</time>
      </trkpt>
      <trkpt lat="28.7540930" lon="-17.8505900">
        <ele>2273.5</ele>
        <time>2020-11-16T12:33:44Z</time>
      </trkpt>
      <trkpt lat="28.7540930" lon="-17.8505900">
        <ele>2273.5</ele>
        <time>2020-11-16T12:33:45Z</time>
      </trkpt>
      <trkpt lat="28.7541150" lon="-17.8506230">
        <ele>2273.9</ele>
        <time>2020-11-16T12:33:46Z</time>
      </trkpt>
      <trkpt lat="28.7541150" lon="-17.8506230">
        <ele>2273.9</ele>
        <time>2020-11-16T12:33:47Z</time>
      </trkpt>
      <trkpt lat="28.7541400" lon="-17.8506430">
        <ele>2274.2</ele>
        <time>2020-11-16T12:33:48Z</time>
      </trkpt>
      <trkpt lat="28.7541400" lon="-17.8506430">
        <ele>2274.2</ele>
        <time>2020-11-16T12:33:49Z</time>
      </trkpt>
      <trkpt lat="28.7541600" lon="-17.8506670">
        <ele>2274.5</ele>
        <time>2020-11-16T12:33:50Z</time>
      </trkpt>
      <trkpt lat="28.7541600" lon="-17.8506670">
        <ele>2274.5</ele>
        <time>2020-11-16T12:33:51Z</time>
      </trkpt>
      <trkpt lat="28.7541770" lon="-17.8507020">
        <ele>2274.9</ele>
        <time>2020-11-16T12:33:52Z</time>
      </trkpt>
      <trkpt lat="28.7541770" lon="-17.8507020">
        <ele>2274.9</ele>
        <time>2020-11-16T12:33:53Z</time>
      </trkpt>
      <trkpt lat="28.7542000" lon="-17.8507250">
        <ele>2275.2</ele>
        <time>2020-11-16T12:33:54Z</time>
      </trkpt>
      <trkpt lat="28.7542120" lon="-17.8507350">
        <ele>2275.4</ele>
        <time>2020-11-16T12:33:55Z</time>
      </trkpt>
      <trkpt lat="28.7542270" lon="-17.8507480">
        <ele>2275.6</ele>
        <time>2020-11-16T12:33:56Z</time>
      </trkpt>
      <trkpt lat="28.7542270" lon="-17.8507480">
        <ele>2275.6</ele>
        <time>2020-11-16T12:33:57Z</time>
      </trkpt>
      <trkpt lat="28.7542500" lon="-17.8507780">
        <ele>2276.0</ele>
        <time>2020-11-16T12:33:58Z</time>
      </trkpt>
      <trkpt lat="28.7542650" lon="-17.8507970">
        <ele>2276.3</ele>
        <time>2020-11-16T12:33:59Z</time>
      </trkpt>
      <trkpt lat="28.7542650" lon="-17.8507970">
        <ele>2276.3</ele>
        <time>2020-11-16T12:34:00Z</time>
      </trkpt>
      <trkpt lat="28.7542900" lon="-17.8508270">
        <ele>2276.6</ele>
        <time>2020-11-16T12:34:01Z</time>
      </trkpt>
      <trkpt lat="28.7543030" lon="-17.8508400">
        <ele>2276.8</ele>
        <time>2020-11-16T12:34:02Z</time>
      </trkpt>
      <trkpt lat="28.7543030" lon="-17.8508400">
        <ele>2276.8</ele>
        <time>2020-11-16T12:34:03Z</time>
      </trkpt>
      <trkpt lat="28.7543300" lon="-17.8508720">
        <ele>2277.2</ele>
        <time>2020-11-16T12:34:04Z</time>
      </trkpt>
      <trkpt lat="28.7543300" lon="-17.8508720">
        <ele>2277.2</ele>
        <time>2020-11-16T12:34:05Z</time>
      </trkpt>
      <trkpt lat="28.7543500" lon="-17.8509050">
        <ele>2277.6</ele>
        <time>2020-11-16T12:34:06Z</time>
      </trkpt>
      <trkpt lat="28.7543600" lon="-17.8509220">
        <ele>2277.8</ele>
        <time>2020-11-16T12:34:07Z</time>
      </trkpt>
      <trkpt lat="28.7543600" lon="-17.8509220">
        <ele>2277.8</ele>
        <time>2020-11-16T12:34:08Z</time>
      </trkpt>
      <trkpt lat="28.7543800" lon="-17.8509520">
        <ele>2278.1</ele>
        <time>2020-11-16T12:34:09Z</time>
      </trkpt>
      <trkpt lat="28.7543800" lon="-17.8509520">
        <ele>2278.1</ele>
        <time>2020-11-16T12:34:10Z</time>
      </trkpt>
      <trkpt lat="28.7543970" lon="-17.8509850">
        <ele>2278.5</ele>
        <time>2020-11-16T12:34:11Z</time>
      </trkpt>
      <trkpt lat="28.7544070" lon="-17.8510030">
        <ele>2278.7</ele>
        <time>2020-11-16T12:34:12Z</time>
      </trkpt>
      <trkpt lat="28.7544070" lon="-17.8510030">
        <ele>2278.7</ele>
        <time>2020-11-16T12:34:13Z</time>
      </trkpt>
      <trkpt lat="28.7544180" lon="-17.8510330">
        <ele>2279.0</ele>
        <time>2020-11-16T12:34:14Z</time>
      </trkpt>
      <trkpt lat="28.7544180" lon="-17.8510330">
        <ele>2279.0</ele>
        <time>2020-11-16T12:34:15Z</time>
      </trkpt>
      <trkpt lat="28.7544350" lon="-17.8510670">
        <ele>2279.3</ele>
        <time>2020-11-16T12:34:16Z</time>
      </trkpt>
      <trkpt lat="28.7544420" lon="-17.8510820">
        <ele>2279.5</ele>
        <time>2020-11-16T12:34:17Z</time>
      </trkpt>
      <trkpt lat="28.7544420" lon="-17.8510820">
        <ele>2279.5</ele>
        <time>2020-11-16T12:34:18Z</time>
      </trkpt>
      <trkpt lat="28.7544600" lon="-17.8511100">
        <ele>2279.7</ele>
        <time>2020-11-16T12:34:19Z</time>
      </trkpt>
      <trkpt lat="28.7544680" lon="-17.8511300">
        <ele>2279.9</ele>
        <time>2020-11-16T12:34:20Z</time>
      </trkpt>
      <trkpt lat="28.7544680" lon="-17.8511300">
        <ele>2279.9</ele>
        <time>2020-11-16T12:34:21Z</time>
      </trkpt>
      <trkpt lat="28.7544880" lon="-17.8511720">
        <ele>2280.2</ele>
        <time>2020-11-16T12:34:22Z</time>
      </trkpt>
      <trkpt lat="28.7544880" lon="-17.8511720">
        <ele>2280.2</ele>
        <time>2020-11-16T12:34:23Z</time>
      </trkpt>
      <trkpt lat="28.7545070" lon="-17.8512150">
        <ele>2280.6</ele>
        <time>2020-11-16T12:34:24Z</time>
      </trkpt>
      <trkpt lat="28.7545070" lon="-17.8512150">
        <ele>2280.6</ele>
        <time>2020-11-16T12:34:25Z</time>
      </trkpt>
      <trkpt lat="28.7545280" lon="-17.8512570">
        <ele>2280.7</ele>
        <time>2020-11-16T12:34:26Z</time>
      </trkpt>
      <trkpt lat="28.7545370" lon="-17.8512780">
        <ele>2280.8</ele>
        <time>2020-11-16T12:34:27Z</time>
      </trkpt>
      <trkpt lat="28.7545370" lon="-17.8512780">
        <ele>2280.8</ele>
        <time>2020-11-16T12:34:28Z</time>
      </trkpt>
      <trkpt lat="28.7545550" lon="-17.8513080">
        <ele>2280.9</ele>
        <time>2020-11-16T12:34:29Z</time>
      </trkpt>
      <trkpt lat="28.7545550" lon="-17.8513080">
        <ele>2280.9</ele>
        <time>2020-11-16T12:34:30Z</time>
      </trkpt>
      <trkpt lat="28.7545830" lon="-17.8513380">
        <ele>2281.0</ele>
        <time>2020-11-16T12:34:31Z</time>
      </trkpt>
      <trkpt lat="28.7545970" lon="-17.8513530">
        <ele>2281.1</ele>
        <time>2020-11-16T12:34:32Z</time>
      </trkpt>
      <trkpt lat="28.7545970" lon="-17.8513530">
        <ele>2281.1</ele>
        <time>2020-11-16T12:34:33Z</time>
      </trkpt>
      <trkpt lat="28.7546180" lon="-17.8513880">
        <ele>2281.2</ele>
        <time>2020-11-16T12:34:34Z</time>
      </trkpt>
      <trkpt lat="28.7546180" lon="-17.8513880">
        <ele>2281.2</ele>
        <time>2020-11-16T12:34:35Z</time>
      </trkpt>
      <trkpt lat="28.7546430" lon="-17.8514220">
        <ele>2281.3</ele>
        <time>2020-11-16T12:34:36Z</time>
      </trkpt>
      <trkpt lat="28.7546430" lon="-17.8514220">
        <ele>2281.3</ele>
        <time>2020-11-16T12:34:37Z</time>
      </trkpt>
      <trkpt lat="28.7546730" lon="-17.8514530">
        <ele>2281.5</ele>
        <time>2020-11-16T12:34:38Z</time>
      </trkpt>
      <trkpt lat="28.7546730" lon="-17.8514530">
        <ele>2281.5</ele>
        <time>2020-11-16T12:34:39Z</time>
      </trkpt>
      <trkpt lat="28.7547080" lon="-17.8514830">
        <ele>2281.6</ele>
        <time>2020-11-16T12:34:40Z</time>
      </trkpt>
      <trkpt lat="28.7547080" lon="-17.8514830">
        <ele>2281.6</ele>
        <time>2020-11-16T12:34:41Z</time>
      </trkpt>
      <trkpt lat="28.7547350" lon="-17.8515130">
        <ele>2281.8</ele>
        <time>2020-11-16T12:34:42Z</time>
      </trkpt>
      <trkpt lat="28.7547350" lon="-17.8515130">
        <ele>2281.8</ele>
        <time>2020-11-16T12:34:43Z</time>
      </trkpt>
      <trkpt lat="28.7547580" lon="-17.8515470">
        <ele>2281.9</ele>
        <time>2020-11-16T12:34:44Z</time>
      </trkpt>
      <trkpt lat="28.7547580" lon="-17.8515470">
        <ele>2281.9</ele>
        <time>2020-11-16T12:34:45Z</time>
      </trkpt>
      <trkpt lat="28.7547870" lon="-17.8515770">
        <ele>2282.1</ele>
        <time>2020-11-16T12:34:46Z</time>
      </trkpt>
      <trkpt lat="28.7548020" lon="-17.8515900">
        <ele>2282.2</ele>
        <time>2020-11-16T12:34:47Z</time>
      </trkpt>
      <trkpt lat="28.7548020" lon="-17.8515900">
        <ele>2282.2</ele>
        <time>2020-11-16T12:34:48Z</time>
      </trkpt>
      <trkpt lat="28.7548280" lon="-17.8516150">
        <ele>2282.3</ele>
        <time>2020-11-16T12:34:49Z</time>
      </trkpt>
      <trkpt lat="28.7548400" lon="-17.8516230">
        <ele>2282.4</ele>
        <time>2020-11-16T12:34:50Z</time>
      </trkpt>
      <trkpt lat="28.7548400" lon="-17.8516230">
        <ele>2282.4</ele>
        <time>2020-11-16T12:34:51Z</time>
      </trkpt>
      <trkpt lat="28.7548670" lon="-17.8516500">
        <ele>2282.5</ele>
        <time>2020-11-16T12:34:52Z</time>
      </trkpt>
      <trkpt lat="28.7548670" lon="-17.8516500">
        <ele>2282.5</ele>
        <time>2020-11-16T12:34:53Z</time>
      </trkpt>
      <trkpt lat="28.7548880" lon="-17.8516850">
        <ele>2282.7</ele>
        <time>2020-11-16T12:34:54Z</time>
      </trkpt>
      <trkpt lat="28.7548970" lon="-17.8517030">
        <ele>2282.8</ele>
        <time>2020-11-16T12:34:55Z</time>
      </trkpt>
      <trkpt lat="28.7549070" lon="-17.8517220">
        <ele>2282.9</ele>
        <time>2020-11-16T12:34:56Z</time>
      </trkpt>
      <trkpt lat="28.7549070" lon="-17.8517220">
        <ele>2282.9</ele>
        <time>2020-11-16T12:34:57Z</time>
      </trkpt>
      <trkpt lat="28.7549280" lon="-17.8517570">
        <ele>2283.0</ele>
        <time>2020-11-16T12:34:58Z</time>
      </trkpt>
      <trkpt lat="28.7549280" lon="-17.8517570">
        <ele>2283.0</ele>
        <time>2020-11-16T12:34:59Z</time>
      </trkpt>
      <trkpt lat="28.7549480" lon="-17.8517900">
        <ele>2283.2</ele>
        <time>2020-11-16T12:35:00Z</time>
      </trkpt>
      <trkpt lat="28.7549600" lon="-17.8518070">
        <ele>2283.3</ele>
        <time>2020-11-16T12:35:01Z</time>
      </trkpt>
      <trkpt lat="28.7549600" lon="-17.8518070">
        <ele>2283.3</ele>
        <time>2020-11-16T12:35:02Z</time>
      </trkpt>
      <trkpt lat="28.7549850" lon="-17.8518350">
        <ele>2283.4</ele>
        <time>2020-11-16T12:35:03Z</time>
      </trkpt>
      <trkpt lat="28.7549850" lon="-17.8518350">
        <ele>2283.4</ele>
        <time>2020-11-16T12:35:04Z</time>
      </trkpt>
      <trkpt lat="28.7550080" lon="-17.8518670">
        <ele>2283.6</ele>
        <time>2020-11-16T12:35:05Z</time>
      </trkpt>
      <trkpt lat="28.7550080" lon="-17.8518670">
        <ele>2283.6</ele>
        <time>2020-11-16T12:35:06Z</time>
      </trkpt>
      <trkpt lat="28.7550270" lon="-17.8519030">
        <ele>2283.7</ele>
        <time>2020-11-16T12:35:07Z</time>
      </trkpt>
      <trkpt lat="28.7550370" lon="-17.8519200">
        <ele>2283.8</ele>
        <time>2020-11-16T12:35:08Z</time>
      </trkpt>
      <trkpt lat="28.7550370" lon="-17.8519200">
        <ele>2283.8</ele>
        <time>2020-11-16T12:35:09Z</time>
      </trkpt>
      <trkpt lat="28.7550700" lon="-17.8519680">
        <ele>2284.0</ele>
        <time>2020-11-16T12:35:10Z</time>
      </trkpt>
      <trkpt lat="28.7550700" lon="-17.8519680">
        <ele>2284.0</ele>
        <time>2020-11-16T12:35:11Z</time>
      </trkpt>
      <trkpt lat="28.7550830" lon="-17.8519820">
        <ele>2284.1</ele>
        <time>2020-11-16T12:35:12Z</time>
      </trkpt>
      <trkpt lat="28.7550830" lon="-17.8519820">
        <ele>2284.1</ele>
        <time>2020-11-16T12:35:13Z</time>
      </trkpt>
      <trkpt lat="28.7551100" lon="-17.8520070">
        <ele>2284.2</ele>
        <time>2020-11-16T12:35:14Z</time>
      </trkpt>
      <trkpt lat="28.7551100" lon="-17.8520070">
        <ele>2284.2</ele>
        <time>2020-11-16T12:35:15Z</time>
      </trkpt>
      <trkpt lat="28.7551350" lon="-17.8520370">
        <ele>2284.4</ele>
        <time>2020-11-16T12:35:16Z</time>
      </trkpt>
      <trkpt lat="28.7551480" lon="-17.8520530">
        <ele>2284.5</ele>
        <time>2020-11-16T12:35:17Z</time>
      </trkpt>
      <trkpt lat="28.7551480" lon="-17.8520530">
        <ele>2284.5</ele>
        <time>2020-11-16T12:35:18Z</time>
      </trkpt>
      <trkpt lat="28.7551730" lon="-17.8520850">
        <ele>2284.7</ele>
        <time>2020-11-16T12:35:19Z</time>
      </trkpt>
      <trkpt lat="28.7551730" lon="-17.8520850">
        <ele>2284.7</ele>
        <time>2020-11-16T12:35:20Z</time>
      </trkpt>
      <trkpt lat="28.7552030" lon="-17.8521170">
        <ele>2284.9</ele>
        <time>2020-11-16T12:35:21Z</time>
      </trkpt>
      <trkpt lat="28.7552030" lon="-17.8521170">
        <ele>2284.9</ele>
        <time>2020-11-16T12:35:22Z</time>
      </trkpt>
      <trkpt lat="28.7552280" lon="-17.8521520">
        <ele>2285.1</ele>
        <time>2020-11-16T12:35:23Z</time>
      </trkpt>
      <trkpt lat="28.7552280" lon="-17.8521520">
        <ele>2285.1</ele>
        <time>2020-11-16T12:35:24Z</time>
      </trkpt>
      <trkpt lat="28.7552520" lon="-17.8521850">
        <ele>2285.4</ele>
        <time>2020-11-16T12:35:25Z</time>
      </trkpt>
      <trkpt lat="28.7552670" lon="-17.8522020">
        <ele>2285.5</ele>
        <time>2020-11-16T12:35:26Z</time>
      </trkpt>
      <trkpt lat="28.7552670" lon="-17.8522020">
        <ele>2285.5</ele>
        <time>2020-11-16T12:35:27Z</time>
      </trkpt>
      <trkpt lat="28.7552980" lon="-17.8522370">
        <ele>2285.7</ele>
        <time>2020-11-16T12:35:28Z</time>
      </trkpt>
      <trkpt lat="28.7552980" lon="-17.8522370">
        <ele>2285.7</ele>
        <time>2020-11-16T12:35:29Z</time>
      </trkpt>
      <trkpt lat="28.7553300" lon="-17.8522650">
        <ele>2285.9</ele>
        <time>2020-11-16T12:35:30Z</time>
      </trkpt>
      <trkpt lat="28.7553300" lon="-17.8522650">
        <ele>2285.9</ele>
        <time>2020-11-16T12:35:31Z</time>
      </trkpt>
      <trkpt lat="28.7553620" lon="-17.8522920">
        <ele>2286.1</ele>
        <time>2020-11-16T12:35:32Z</time>
      </trkpt>
      <trkpt lat="28.7553820" lon="-17.8523070">
        <ele>2286.3</ele>
        <time>2020-11-16T12:35:33Z</time>
      </trkpt>
      <trkpt lat="28.7553820" lon="-17.8523070">
        <ele>2286.3</ele>
        <time>2020-11-16T12:35:34Z</time>
      </trkpt>
      <trkpt lat="28.7554180" lon="-17.8523280">
        <ele>2286.5</ele>
        <time>2020-11-16T12:35:35Z</time>
      </trkpt>
      <trkpt lat="28.7554180" lon="-17.8523280">
        <ele>2286.5</ele>
        <time>2020-11-16T12:35:36Z</time>
      </trkpt>
      <trkpt lat="28.7554530" lon="-17.8523600">
        <ele>2286.7</ele>
        <time>2020-11-16T12:35:37Z</time>
      </trkpt>
      <trkpt lat="28.7554720" lon="-17.8523750">
        <ele>2286.8</ele>
        <time>2020-11-16T12:35:38Z</time>
      </trkpt>
      <trkpt lat="28.7554720" lon="-17.8523750">
        <ele>2286.8</ele>
        <time>2020-11-16T12:35:39Z</time>
      </trkpt>
      <trkpt lat="28.7555100" lon="-17.8524000">
        <ele>2287.0</ele>
        <time>2020-11-16T12:35:40Z</time>
      </trkpt>
      <trkpt lat="28.7555100" lon="-17.8524000">
        <ele>2287.0</ele>
        <time>2020-11-16T12:35:41Z</time>
      </trkpt>
      <trkpt lat="28.7555430" lon="-17.8524370">
        <ele>2287.2</ele>
        <time>2020-11-16T12:35:42Z</time>
      </trkpt>
      <trkpt lat="28.7555430" lon="-17.8524370">
        <ele>2287.2</ele>
        <time>2020-11-16T12:35:43Z</time>
      </trkpt>
      <trkpt lat="28.7555750" lon="-17.8524680">
        <ele>2287.3</ele>
        <time>2020-11-16T12:35:44Z</time>
      </trkpt>
      <trkpt lat="28.7555750" lon="-17.8524680">
        <ele>2287.3</ele>
        <time>2020-11-16T12:35:45Z</time>
      </trkpt>
      <trkpt lat="28.7556070" lon="-17.8524920">
        <ele>2287.5</ele>
        <time>2020-11-16T12:35:46Z</time>
      </trkpt>
      <trkpt lat="28.7556070" lon="-17.8524920">
        <ele>2287.5</ele>
        <time>2020-11-16T12:35:47Z</time>
      </trkpt>
      <trkpt lat="28.7556400" lon="-17.8525080">
        <ele>2287.6</ele>
        <time>2020-11-16T12:35:48Z</time>
      </trkpt>
      <trkpt lat="28.7556580" lon="-17.8525200">
        <ele>2287.6</ele>
        <time>2020-11-16T12:35:49Z</time>
      </trkpt>
      <trkpt lat="28.7556580" lon="-17.8525200">
        <ele>2287.6</ele>
        <time>2020-11-16T12:35:50Z</time>
      </trkpt>
      <trkpt lat="28.7556850" lon="-17.8525520">
        <ele>2287.7</ele>
        <time>2020-11-16T12:35:51Z</time>
      </trkpt>
      <trkpt lat="28.7556850" lon="-17.8525520">
        <ele>2287.7</ele>
        <time>2020-11-16T12:35:52Z</time>
      </trkpt>
      <trkpt lat="28.7557120" lon="-17.8525870">
        <ele>2287.7</ele>
        <time>2020-11-16T12:35:53Z</time>
      </trkpt>
      <trkpt lat="28.7557120" lon="-17.8525870">
        <ele>2287.7</ele>
        <time>2020-11-16T12:35:54Z</time>
      </trkpt>
      <trkpt lat="28.7557430" lon="-17.8526180">
        <ele>2287.7</ele>
        <time>2020-11-16T12:35:55Z</time>
      </trkpt>
      <trkpt lat="28.7557580" lon="-17.8526350">
        <ele>2287.7</ele>
        <time>2020-11-16T12:35:56Z</time>
      </trkpt>
      <trkpt lat="28.7557580" lon="-17.8526350">
        <ele>2287.7</ele>
        <time>2020-11-16T12:35:57Z</time>
      </trkpt>
      <trkpt lat="28.7557920" lon="-17.8526670">
        <ele>2287.7</ele>
        <time>2020-11-16T12:35:58Z</time>
      </trkpt>
      <trkpt lat="28.7557920" lon="-17.8526670">
        <ele>2287.7</ele>
        <time>2020-11-16T12:35:59Z</time>
      </trkpt>
      <trkpt lat="28.7558250" lon="-17.8527030">
        <ele>2287.6</ele>
        <time>2020-11-16T12:36:00Z</time>
      </trkpt>
      <trkpt lat="28.7558430" lon="-17.8527230">
        <ele>2287.6</ele>
        <time>2020-11-16T12:36:01Z</time>
      </trkpt>
      <trkpt lat="28.7558600" lon="-17.8527450">
        <ele>2287.5</ele>
        <time>2020-11-16T12:36:02Z</time>
      </trkpt>
      <trkpt lat="28.7558600" lon="-17.8527450">
        <ele>2287.5</ele>
        <time>2020-11-16T12:36:03Z</time>
      </trkpt>
      <trkpt lat="28.7558900" lon="-17.8527820">
        <ele>2287.4</ele>
        <time>2020-11-16T12:36:04Z</time>
      </trkpt>
      <trkpt lat="28.7558900" lon="-17.8527820">
        <ele>2287.4</ele>
        <time>2020-11-16T12:36:05Z</time>
      </trkpt>
      <trkpt lat="28.7559250" lon="-17.8528350">
        <ele>2287.3</ele>
        <time>2020-11-16T12:36:06Z</time>
      </trkpt>
      <trkpt lat="28.7559430" lon="-17.8528630">
        <ele>2287.2</ele>
        <time>2020-11-16T12:36:07Z</time>
      </trkpt>
      <trkpt lat="28.7559430" lon="-17.8528630">
        <ele>2287.2</ele>
        <time>2020-11-16T12:36:08Z</time>
      </trkpt>
      <trkpt lat="28.7559780" lon="-17.8529170">
        <ele>2287.0</ele>
        <time>2020-11-16T12:36:09Z</time>
      </trkpt>
      <trkpt lat="28.7559970" lon="-17.8529450">
        <ele>2286.8</ele>
        <time>2020-11-16T12:36:10Z</time>
      </trkpt>
      <trkpt lat="28.7559970" lon="-17.8529450">
        <ele>2286.8</ele>
        <time>2020-11-16T12:36:11Z</time>
      </trkpt>
      <trkpt lat="28.7560400" lon="-17.8529980">
        <ele>2286.5</ele>
        <time>2020-11-16T12:36:12Z</time>
      </trkpt>
      <trkpt lat="28.7560400" lon="-17.8529980">
        <ele>2286.5</ele>
        <time>2020-11-16T12:36:13Z</time>
      </trkpt>
      <trkpt lat="28.7560730" lon="-17.8530650">
        <ele>2286.1</ele>
        <time>2020-11-16T12:36:14Z</time>
      </trkpt>
      <trkpt lat="28.7560730" lon="-17.8530650">
        <ele>2286.1</ele>
        <time>2020-11-16T12:36:15Z</time>
      </trkpt>
      <trkpt lat="28.7561000" lon="-17.8531380">
        <ele>2285.7</ele>
        <time>2020-11-16T12:36:16Z</time>
      </trkpt>
      <trkpt lat="28.7561000" lon="-17.8531380">
        <ele>2285.7</ele>
        <time>2020-11-16T12:36:17Z</time>
      </trkpt>
      <trkpt lat="28.7561400" lon="-17.8532070">
        <ele>2285.2</ele>
        <time>2020-11-16T12:36:18Z</time>
      </trkpt>
      <trkpt lat="28.7561400" lon="-17.8532070">
        <ele>2285.2</ele>
        <time>2020-11-16T12:36:19Z</time>
      </trkpt>
      <trkpt lat="28.7561730" lon="-17.8532780">
        <ele>2284.8</ele>
        <time>2020-11-16T12:36:20Z</time>
      </trkpt>
      <trkpt lat="28.7561730" lon="-17.8532780">
        <ele>2284.8</ele>
        <time>2020-11-16T12:36:21Z</time>
      </trkpt>
      <trkpt lat="28.7561950" lon="-17.8533580">
        <ele>2284.3</ele>
        <time>2020-11-16T12:36:22Z</time>
      </trkpt>
      <trkpt lat="28.7562070" lon="-17.8534020">
        <ele>2284.0</ele>
        <time>2020-11-16T12:36:23Z</time>
      </trkpt>
      <trkpt lat="28.7562070" lon="-17.8534020">
        <ele>2284.0</ele>
        <time>2020-11-16T12:36:24Z</time>
      </trkpt>
      <trkpt lat="28.7562400" lon="-17.8534880">
        <ele>2283.5</ele>
        <time>2020-11-16T12:36:25Z</time>
      </trkpt>
      <trkpt lat="28.7562550" lon="-17.8535330">
        <ele>2283.3</ele>
        <time>2020-11-16T12:36:26Z</time>
      </trkpt>
      <trkpt lat="28.7562550" lon="-17.8535330">
        <ele>2283.3</ele>
        <time>2020-11-16T12:36:27Z</time>
      </trkpt>
      <trkpt lat="28.7562930" lon="-17.8536220">
        <ele>2282.7</ele>
        <time>2020-11-16T12:36:28Z</time>
      </trkpt>
      <trkpt lat="28.7562930" lon="-17.8536220">
        <ele>2282.7</ele>
        <time>2020-11-16T12:36:29Z</time>
      </trkpt>
      <trkpt lat="28.7563380" lon="-17.8537150">
        <ele>2282.1</ele>
        <time>2020-11-16T12:36:30Z</time>
      </trkpt>
      <trkpt lat="28.7563380" lon="-17.8537150">
        <ele>2282.1</ele>
        <time>2020-11-16T12:36:31Z</time>
      </trkpt>
      <trkpt lat="28.7563800" lon="-17.8538120">
        <ele>2281.6</ele>
        <time>2020-11-16T12:36:32Z</time>
      </trkpt>
      <trkpt lat="28.7563800" lon="-17.8538120">
        <ele>2281.6</ele>
        <time>2020-11-16T12:36:33Z</time>
      </trkpt>
      <trkpt lat="28.7564250" lon="-17.8539100">
        <ele>2280.9</ele>
        <time>2020-11-16T12:36:34Z</time>
      </trkpt>
      <trkpt lat="28.7564250" lon="-17.8539100">
        <ele>2280.9</ele>
        <time>2020-11-16T12:36:35Z</time>
      </trkpt>
      <trkpt lat="28.7564800" lon="-17.8540200">
        <ele>2280.2</ele>
        <time>2020-11-16T12:36:36Z</time>
      </trkpt>
      <trkpt lat="28.7564800" lon="-17.8540200">
        <ele>2280.2</ele>
        <time>2020-11-16T12:36:37Z</time>
      </trkpt>
      <trkpt lat="28.7565330" lon="-17.8541280">
        <ele>2279.5</ele>
        <time>2020-11-16T12:36:38Z</time>
      </trkpt>
      <trkpt lat="28.7565330" lon="-17.8541280">
        <ele>2279.5</ele>
        <time>2020-11-16T12:36:39Z</time>
      </trkpt>
      <trkpt lat="28.7565780" lon="-17.8542450">
        <ele>2278.8</ele>
        <time>2020-11-16T12:36:40Z</time>
      </trkpt>
      <trkpt lat="28.7565780" lon="-17.8542450">
        <ele>2278.8</ele>
        <time>2020-11-16T12:36:41Z</time>
      </trkpt>
      <trkpt lat="28.7566270" lon="-17.8543680">
        <ele>2278.5</ele>
        <time>2020-11-16T12:36:42Z</time>
      </trkpt>
      <trkpt lat="28.7566270" lon="-17.8543680">
        <ele>2278.5</ele>
        <time>2020-11-16T12:36:43Z</time>
      </trkpt>
      <trkpt lat="28.7566770" lon="-17.8544970">
        <ele>2278.8</ele>
        <time>2020-11-16T12:36:44Z</time>
      </trkpt>
      <trkpt lat="28.7566770" lon="-17.8544970">
        <ele>2278.8</ele>
        <time>2020-11-16T12:36:45Z</time>
      </trkpt>
      <trkpt lat="28.7567370" lon="-17.8546270">
        <ele>2279.0</ele>
        <time>2020-11-16T12:36:46Z</time>
      </trkpt>
      <trkpt lat="28.7567370" lon="-17.8546270">
        <ele>2279.0</ele>
        <time>2020-11-16T12:36:47Z</time>
      </trkpt>
      <trkpt lat="28.7567920" lon="-17.8547670">
        <ele>2279.3</ele>
        <time>2020-11-16T12:36:48Z</time>
      </trkpt>
      <trkpt lat="28.7567920" lon="-17.8547670">
        <ele>2279.3</ele>
        <time>2020-11-16T12:36:49Z</time>
      </trkpt>
      <trkpt lat="28.7568420" lon="-17.8549150">
        <ele>2279.5</ele>
        <time>2020-11-16T12:36:50Z</time>
      </trkpt>
      <trkpt lat="28.7568420" lon="-17.8549150">
        <ele>2279.5</ele>
        <time>2020-11-16T12:36:51Z</time>
      </trkpt>
      <trkpt lat="28.7569050" lon="-17.8550650">
        <ele>2279.8</ele>
        <time>2020-11-16T12:36:52Z</time>
      </trkpt>
      <trkpt lat="28.7569050" lon="-17.8550650">
        <ele>2279.8</ele>
        <time>2020-11-16T12:36:53Z</time>
      </trkpt>
      <trkpt lat="28.7569680" lon="-17.8552220">
        <ele>2280.0</ele>
        <time>2020-11-16T12:36:54Z</time>
      </trkpt>
      <trkpt lat="28.7569680" lon="-17.8552220">
        <ele>2280.0</ele>
        <time>2020-11-16T12:36:55Z</time>
      </trkpt>
      <trkpt lat="28.7570350" lon="-17.8553830">
        <ele>2280.2</ele>
        <time>2020-11-16T12:36:56Z</time>
      </trkpt>
      <trkpt lat="28.7570350" lon="-17.8553830">
        <ele>2280.2</ele>
        <time>2020-11-16T12:36:57Z</time>
      </trkpt>
      <trkpt lat="28.7570980" lon="-17.8555480">
        <ele>2280.5</ele>
        <time>2020-11-16T12:36:58Z</time>
      </trkpt>
      <trkpt lat="28.7570980" lon="-17.8555480">
        <ele>2280.5</ele>
        <time>2020-11-16T12:36:59Z</time>
      </trkpt>
      <trkpt lat="28.7571730" lon="-17.8557100">
        <ele>2280.4</ele>
        <time>2020-11-16T12:37:00Z</time>
      </trkpt>
      <trkpt lat="28.7571730" lon="-17.8557100">
        <ele>2280.4</ele>
        <time>2020-11-16T12:37:01Z</time>
      </trkpt>
      <trkpt lat="28.7572580" lon="-17.8558700">
        <ele>2279.6</ele>
        <time>2020-11-16T12:37:02Z</time>
      </trkpt>
      <trkpt lat="28.7572580" lon="-17.8558700">
        <ele>2279.6</ele>
        <time>2020-11-16T12:37:03Z</time>
      </trkpt>
      <trkpt lat="28.7573450" lon="-17.8560350">
        <ele>2278.8</ele>
        <time>2020-11-16T12:37:04Z</time>
      </trkpt>
      <trkpt lat="28.7573450" lon="-17.8560350">
        <ele>2278.8</ele>
        <time>2020-11-16T12:37:05Z</time>
      </trkpt>
      <trkpt lat="28.7574220" lon="-17.8562170">
        <ele>2278.0</ele>
        <time>2020-11-16T12:37:06Z</time>
      </trkpt>
      <trkpt lat="28.7574220" lon="-17.8562170">
        <ele>2278.0</ele>
        <time>2020-11-16T12:37:07Z</time>
      </trkpt>
      <trkpt lat="28.7574970" lon="-17.8564080">
        <ele>2277.1</ele>
        <time>2020-11-16T12:37:08Z</time>
      </trkpt>
      <trkpt lat="28.7574970" lon="-17.8564080">
        <ele>2277.1</ele>
        <time>2020-11-16T12:37:09Z</time>
      </trkpt>
      <trkpt lat="28.7575780" lon="-17.8566080">
        <ele>2276.4</ele>
        <time>2020-11-16T12:37:10Z</time>
      </trkpt>
      <trkpt lat="28.7576230" lon="-17.8567080">
        <ele>2276.1</ele>
        <time>2020-11-16T12:37:11Z</time>
      </trkpt>
      <trkpt lat="28.7576750" lon="-17.8568020">
        <ele>2275.8</ele>
        <time>2020-11-16T12:37:12Z</time>
      </trkpt>
      <trkpt lat="28.7576750" lon="-17.8568020">
        <ele>2275.8</ele>
        <time>2020-11-16T12:37:13Z</time>
      </trkpt>
      <trkpt lat="28.7577920" lon="-17.8569780">
        <ele>2275.2</ele>
        <time>2020-11-16T12:37:14Z</time>
      </trkpt>
      <trkpt lat="28.7577920" lon="-17.8569780">
        <ele>2275.2</ele>
        <time>2020-11-16T12:37:15Z</time>
      </trkpt>
      <trkpt lat="28.7579150" lon="-17.8571400">
        <ele>2274.7</ele>
        <time>2020-11-16T12:37:16Z</time>
      </trkpt>
      <trkpt lat="28.7579150" lon="-17.8571400">
        <ele>2274.7</ele>
        <time>2020-11-16T12:37:17Z</time>
      </trkpt>
      <trkpt lat="28.7580480" lon="-17.8572920">
        <ele>2274.4</ele>
        <time>2020-11-16T12:37:18Z</time>
      </trkpt>
      <trkpt lat="28.7580480" lon="-17.8572920">
        <ele>2274.4</ele>
        <time>2020-11-16T12:37:19Z</time>
      </trkpt>
      <trkpt lat="28.7581900" lon="-17.8574180">
        <ele>2274.0</ele>
        <time>2020-11-16T12:37:20Z</time>
      </trkpt>
      <trkpt lat="28.7581900" lon="-17.8574180">
        <ele>2274.0</ele>
        <time>2020-11-16T12:37:21Z</time>
      </trkpt>
      <trkpt lat="28.7583300" lon="-17.8575280">
        <ele>2273.6</ele>
        <time>2020-11-16T12:37:22Z</time>
      </trkpt>
      <trkpt lat="28.7583300" lon="-17.8575280">
        <ele>2273.6</ele>
        <time>2020-11-16T12:37:23Z</time>
      </trkpt>
      <trkpt lat="28.7584630" lon="-17.8576270">
        <ele>2273.2</ele>
        <time>2020-11-16T12:37:24Z</time>
      </trkpt>
      <trkpt lat="28.7584630" lon="-17.8576270">
        <ele>2273.2</ele>
        <time>2020-11-16T12:37:25Z</time>
      </trkpt>
      <trkpt lat="28.7585900" lon="-17.8577250">
        <ele>2272.9</ele>
        <time>2020-11-16T12:37:26Z</time>
      </trkpt>
      <trkpt lat="28.7585900" lon="-17.8577250">
        <ele>2272.9</ele>
        <time>2020-11-16T12:37:27Z</time>
      </trkpt>
      <trkpt lat="28.7587000" lon="-17.8578370">
        <ele>2272.7</ele>
        <time>2020-11-16T12:37:28Z</time>
      </trkpt>
      <trkpt lat="28.7587000" lon="-17.8578370">
        <ele>2272.7</ele>
        <time>2020-11-16T12:37:29Z</time>
      </trkpt>
      <trkpt lat="28.7587870" lon="-17.8579600">
        <ele>2272.4</ele>
        <time>2020-11-16T12:37:30Z</time>
      </trkpt>
      <trkpt lat="28.7587870" lon="-17.8579600">
        <ele>2272.4</ele>
        <time>2020-11-16T12:37:31Z</time>
      </trkpt>
      <trkpt lat="28.7588680" lon="-17.8580970">
        <ele>2272.0</ele>
        <time>2020-11-16T12:37:32Z</time>
      </trkpt>
      <trkpt lat="28.7588680" lon="-17.8580970">
        <ele>2272.0</ele>
        <time>2020-11-16T12:37:33Z</time>
      </trkpt>
      <trkpt lat="28.7589480" lon="-17.8582320">
        <ele>2271.6</ele>
        <time>2020-11-16T12:37:34Z</time>
      </trkpt>
      <trkpt lat="28.7589480" lon="-17.8582320">
        <ele>2271.6</ele>
        <time>2020-11-16T12:37:35Z</time>
      </trkpt>
      <trkpt lat="28.7590370" lon="-17.8583680">
        <ele>2271.0</ele>
        <time>2020-11-16T12:37:36Z</time>
      </trkpt>
      <trkpt lat="28.7590370" lon="-17.8583680">
        <ele>2271.0</ele>
        <time>2020-11-16T12:37:37Z</time>
      </trkpt>
      <trkpt lat="28.7591370" lon="-17.8585000">
        <ele>2270.3</ele>
        <time>2020-11-16T12:37:38Z</time>
      </trkpt>
      <trkpt lat="28.7591370" lon="-17.8585000">
        <ele>2270.3</ele>
        <time>2020-11-16T12:37:39Z</time>
      </trkpt>
      <trkpt lat="28.7592670" lon="-17.8586000">
        <ele>2269.6</ele>
        <time>2020-11-16T12:37:40Z</time>
      </trkpt>
      <trkpt lat="28.7592670" lon="-17.8586000">
        <ele>2269.6</ele>
        <time>2020-11-16T12:37:41Z</time>
      </trkpt>
      <trkpt lat="28.7594130" lon="-17.8586830">
        <ele>2269.1</ele>
        <time>2020-11-16T12:37:42Z</time>
      </trkpt>
      <trkpt lat="28.7594130" lon="-17.8586830">
        <ele>2269.1</ele>
        <time>2020-11-16T12:37:43Z</time>
      </trkpt>
      <trkpt lat="28.7595650" lon="-17.8587450">
        <ele>2268.8</ele>
        <time>2020-11-16T12:37:44Z</time>
      </trkpt>
      <trkpt lat="28.7595650" lon="-17.8587450">
        <ele>2268.8</ele>
        <time>2020-11-16T12:37:45Z</time>
      </trkpt>
      <trkpt lat="28.7597250" lon="-17.8587920">
        <ele>2268.4</ele>
        <time>2020-11-16T12:37:46Z</time>
      </trkpt>
      <trkpt lat="28.7597250" lon="-17.8587920">
        <ele>2268.4</ele>
        <time>2020-11-16T12:37:47Z</time>
      </trkpt>
      <trkpt lat="28.7598700" lon="-17.8588650">
        <ele>2267.8</ele>
        <time>2020-11-16T12:37:48Z</time>
      </trkpt>
      <trkpt lat="28.7598700" lon="-17.8588650">
        <ele>2267.8</ele>
        <time>2020-11-16T12:37:49Z</time>
      </trkpt>
      <trkpt lat="28.7599600" lon="-17.8590130">
        <ele>2267.0</ele>
        <time>2020-11-16T12:37:50Z</time>
      </trkpt>
      <trkpt lat="28.7599600" lon="-17.8590130">
        <ele>2267.0</ele>
        <time>2020-11-16T12:37:51Z</time>
      </trkpt>
      <trkpt lat="28.7599700" lon="-17.8592030">
        <ele>2265.9</ele>
        <time>2020-11-16T12:37:52Z</time>
      </trkpt>
      <trkpt lat="28.7599700" lon="-17.8592030">
        <ele>2265.9</ele>
        <time>2020-11-16T12:37:53Z</time>
      </trkpt>
      <trkpt lat="28.7599220" lon="-17.8594050">
        <ele>2264.6</ele>
        <time>2020-11-16T12:37:54Z</time>
      </trkpt>
      <trkpt lat="28.7598900" lon="-17.8595100">
        <ele>2263.9</ele>
        <time>2020-11-16T12:37:55Z</time>
      </trkpt>
      <trkpt lat="28.7598900" lon="-17.8595100">
        <ele>2263.9</ele>
        <time>2020-11-16T12:37:56Z</time>
      </trkpt>
      <trkpt lat="28.7598350" lon="-17.8597280">
        <ele>2262.7</ele>
        <time>2020-11-16T12:37:57Z</time>
      </trkpt>
      <trkpt lat="28.7598350" lon="-17.8597280">
        <ele>2262.7</ele>
        <time>2020-11-16T12:37:58Z</time>
      </trkpt>
      <trkpt lat="28.7597980" lon="-17.8599620">
        <ele>2261.9</ele>
        <time>2020-11-16T12:37:59Z</time>
      </trkpt>
      <trkpt lat="28.7597980" lon="-17.8599620">
        <ele>2261.9</ele>
        <time>2020-11-16T12:38:00Z</time>
      </trkpt>
      <trkpt lat="28.7598200" lon="-17.8602020">
        <ele>2261.6</ele>
        <time>2020-11-16T12:38:01Z</time>
      </trkpt>
      <trkpt lat="28.7598200" lon="-17.8602020">
        <ele>2261.6</ele>
        <time>2020-11-16T12:38:02Z</time>
      </trkpt>
      <trkpt lat="28.7599020" lon="-17.8604170">
        <ele>2262.0</ele>
        <time>2020-11-16T12:38:03Z</time>
      </trkpt>
      <trkpt lat="28.7599550" lon="-17.8605100">
        <ele>2262.4</ele>
        <time>2020-11-16T12:38:04Z</time>
      </trkpt>
      <trkpt lat="28.7599550" lon="-17.8605100">
        <ele>2262.4</ele>
        <time>2020-11-16T12:38:05Z</time>
      </trkpt>
      <trkpt lat="28.7600600" lon="-17.8606730">
        <ele>2263.4</ele>
        <time>2020-11-16T12:38:06Z</time>
      </trkpt>
      <trkpt lat="28.7600600" lon="-17.8606730">
        <ele>2263.4</ele>
        <time>2020-11-16T12:38:07Z</time>
      </trkpt>
      <trkpt lat="28.7601530" lon="-17.8608320">
        <ele>2264.4</ele>
        <time>2020-11-16T12:38:08Z</time>
      </trkpt>
      <trkpt lat="28.7601530" lon="-17.8608320">
        <ele>2264.4</ele>
        <time>2020-11-16T12:38:09Z</time>
      </trkpt>
      <trkpt lat="28.7602720" lon="-17.8610500">
        <ele>2265.7</ele>
        <time>2020-11-16T12:38:10Z</time>
      </trkpt>
      <trkpt lat="28.7602720" lon="-17.8610500">
        <ele>2265.7</ele>
        <time>2020-11-16T12:38:11Z</time>
      </trkpt>
      <trkpt lat="28.7602970" lon="-17.8611220">
        <ele>2266.0</ele>
        <time>2020-11-16T12:38:12Z</time>
      </trkpt>
      <trkpt lat="28.7602970" lon="-17.8611220">
        <ele>2266.0</ele>
        <time>2020-11-16T12:38:13Z</time>
      </trkpt>
      <trkpt lat="28.7603300" lon="-17.8612570">
        <ele>2266.5</ele>
        <time>2020-11-16T12:38:14Z</time>
      </trkpt>
      <trkpt lat="28.7603300" lon="-17.8612570">
        <ele>2266.5</ele>
        <time>2020-11-16T12:38:15Z</time>
      </trkpt>
      <trkpt lat="28.7603430" lon="-17.8613870">
        <ele>2266.7</ele>
        <time>2020-11-16T12:38:16Z</time>
      </trkpt>
      <trkpt lat="28.7603430" lon="-17.8613870">
        <ele>2266.7</ele>
        <time>2020-11-16T12:38:17Z</time>
      </trkpt>
      <trkpt lat="28.7603500" lon="-17.8615080">
        <ele>2266.9</ele>
        <time>2020-11-16T12:38:18Z</time>
      </trkpt>
      <trkpt lat="28.7603500" lon="-17.8615080">
        <ele>2266.9</ele>
        <time>2020-11-16T12:38:19Z</time>
      </trkpt>
      <trkpt lat="28.7603630" lon="-17.8616220">
        <ele>2267.0</ele>
        <time>2020-11-16T12:38:20Z</time>
      </trkpt>
      <trkpt lat="28.7603630" lon="-17.8616220">
        <ele>2267.0</ele>
        <time>2020-11-16T12:38:21Z</time>
      </trkpt>
      <trkpt lat="28.7603700" lon="-17.8617300">
        <ele>2267.2</ele>
        <time>2020-11-16T12:38:22Z</time>
      </trkpt>
      <trkpt lat="28.7603700" lon="-17.8617300">
        <ele>2267.2</ele>
        <time>2020-11-16T12:38:23Z</time>
      </trkpt>
      <trkpt lat="28.7603720" lon="-17.8618320">
        <ele>2267.3</ele>
        <time>2020-11-16T12:38:24Z</time>
      </trkpt>
      <trkpt lat="28.7603720" lon="-17.8618320">
        <ele>2267.3</ele>
        <time>2020-11-16T12:38:25Z</time>
      </trkpt>
      <trkpt lat="28.7603770" lon="-17.8619270">
        <ele>2267.5</ele>
        <time>2020-11-16T12:38:26Z</time>
      </trkpt>
      <trkpt lat="28.7603770" lon="-17.8619270">
        <ele>2267.5</ele>
        <time>2020-11-16T12:38:27Z</time>
      </trkpt>
      <trkpt lat="28.7603850" lon="-17.8620170">
        <ele>2267.6</ele>
        <time>2020-11-16T12:38:28Z</time>
      </trkpt>
      <trkpt lat="28.7603850" lon="-17.8620170">
        <ele>2267.6</ele>
        <time>2020-11-16T12:38:29Z</time>
      </trkpt>
      <trkpt lat="28.7603900" lon="-17.8621000">
        <ele>2267.8</ele>
        <time>2020-11-16T12:38:30Z</time>
      </trkpt>
      <trkpt lat="28.7603930" lon="-17.8621400">
        <ele>2267.8</ele>
        <time>2020-11-16T12:38:31Z</time>
      </trkpt>
      <trkpt lat="28.7603930" lon="-17.8621400">
        <ele>2267.8</ele>
        <time>2020-11-16T12:38:32Z</time>
      </trkpt>
      <trkpt lat="28.7604100" lon="-17.8622150">
        <ele>2268.0</ele>
        <time>2020-11-16T12:38:33Z</time>
      </trkpt>
      <trkpt lat="28.7604100" lon="-17.8622150">
        <ele>2268.0</ele>
        <time>2020-11-16T12:38:34Z</time>
      </trkpt>
      <trkpt lat="28.7604330" lon="-17.8622880">
        <ele>2268.3</ele>
        <time>2020-11-16T12:38:35Z</time>
      </trkpt>
      <trkpt lat="28.7604330" lon="-17.8622880">
        <ele>2268.3</ele>
        <time>2020-11-16T12:38:36Z</time>
      </trkpt>
      <trkpt lat="28.7604700" lon="-17.8623500">
        <ele>2268.5</ele>
        <time>2020-11-16T12:38:37Z</time>
      </trkpt>
      <trkpt lat="28.7604920" lon="-17.8623770">
        <ele>2268.7</ele>
        <time>2020-11-16T12:38:38Z</time>
      </trkpt>
      <trkpt lat="28.7604920" lon="-17.8623770">
        <ele>2268.7</ele>
        <time>2020-11-16T12:38:39Z</time>
      </trkpt>
      <trkpt lat="28.7605300" lon="-17.8624270">
        <ele>2269.0</ele>
        <time>2020-11-16T12:38:40Z</time>
      </trkpt>
      <trkpt lat="28.7605300" lon="-17.8624270">
        <ele>2269.0</ele>
        <time>2020-11-16T12:38:41Z</time>
      </trkpt>
      <trkpt lat="28.7605650" lon="-17.8624630">
        <ele>2269.2</ele>
        <time>2020-11-16T12:38:42Z</time>
      </trkpt>
      <trkpt lat="28.7605650" lon="-17.8624630">
        <ele>2269.2</ele>
        <time>2020-11-16T12:38:43Z</time>
      </trkpt>
      <trkpt lat="28.7606050" lon="-17.8624920">
        <ele>2269.5</ele>
        <time>2020-11-16T12:38:44Z</time>
      </trkpt>
      <trkpt lat="28.7606050" lon="-17.8624920">
        <ele>2269.5</ele>
        <time>2020-11-16T12:38:45Z</time>
      </trkpt>
      <trkpt lat="28.7606450" lon="-17.8625200">
        <ele>2269.8</ele>
        <time>2020-11-16T12:38:46Z</time>
      </trkpt>
      <trkpt lat="28.7606450" lon="-17.8625200">
        <ele>2269.8</ele>
        <time>2020-11-16T12:38:47Z</time>
      </trkpt>
      <trkpt lat="28.7606800" lon="-17.8625430">
        <ele>2270.1</ele>
        <time>2020-11-16T12:38:48Z</time>
      </trkpt>
      <trkpt lat="28.7606800" lon="-17.8625430">
        <ele>2270.1</ele>
        <time>2020-11-16T12:38:49Z</time>
      </trkpt>
      <trkpt lat="28.7607200" lon="-17.8625620">
        <ele>2270.4</ele>
        <time>2020-11-16T12:38:50Z</time>
      </trkpt>
      <trkpt lat="28.7607200" lon="-17.8625620">
        <ele>2270.4</ele>
        <time>2020-11-16T12:38:51Z</time>
      </trkpt>
      <trkpt lat="28.7607650" lon="-17.8625800">
        <ele>2270.7</ele>
        <time>2020-11-16T12:38:52Z</time>
      </trkpt>
      <trkpt lat="28.7607650" lon="-17.8625800">
        <ele>2270.7</ele>
        <time>2020-11-16T12:38:53Z</time>
      </trkpt>
      <trkpt lat="28.7608080" lon="-17.8625980">
        <ele>2271.0</ele>
        <time>2020-11-16T12:38:54Z</time>
      </trkpt>
      <trkpt lat="28.7608080" lon="-17.8625980">
        <ele>2271.0</ele>
        <time>2020-11-16T12:38:55Z</time>
      </trkpt>
      <trkpt lat="28.7608520" lon="-17.8626150">
        <ele>2271.3</ele>
        <time>2020-11-16T12:38:56Z</time>
      </trkpt>
      <trkpt lat="28.7608520" lon="-17.8626150">
        <ele>2271.3</ele>
        <time>2020-11-16T12:38:57Z</time>
      </trkpt>
      <trkpt lat="28.7608930" lon="-17.8626370">
        <ele>2271.6</ele>
        <time>2020-11-16T12:38:58Z</time>
      </trkpt>
      <trkpt lat="28.7608930" lon="-17.8626370">
        <ele>2271.6</ele>
        <time>2020-11-16T12:38:59Z</time>
      </trkpt>
      <trkpt lat="28.7609370" lon="-17.8626550">
        <ele>2271.9</ele>
        <time>2020-11-16T12:39:00Z</time>
      </trkpt>
      <trkpt lat="28.7609650" lon="-17.8626650">
        <ele>2272.1</ele>
        <time>2020-11-16T12:39:01Z</time>
      </trkpt>
      <trkpt lat="28.7609650" lon="-17.8626650">
        <ele>2272.1</ele>
        <time>2020-11-16T12:39:02Z</time>
      </trkpt>
      <trkpt lat="28.7610230" lon="-17.8626770">
        <ele>2272.5</ele>
        <time>2020-11-16T12:39:03Z</time>
      </trkpt>
      <trkpt lat="28.7610500" lon="-17.8626820">
        <ele>2272.7</ele>
        <time>2020-11-16T12:39:04Z</time>
      </trkpt>
      <trkpt lat="28.7610500" lon="-17.8626820">
        <ele>2272.7</ele>
        <time>2020-11-16T12:39:05Z</time>
      </trkpt>
      <trkpt lat="28.7611000" lon="-17.8626850">
        <ele>2273.0</ele>
        <time>2020-11-16T12:39:06Z</time>
      </trkpt>
      <trkpt lat="28.7611000" lon="-17.8626850">
        <ele>2273.0</ele>
        <time>2020-11-16T12:39:07Z</time>
      </trkpt>
      <trkpt lat="28.7611520" lon="-17.8626870">
        <ele>2273.3</ele>
        <time>2020-11-16T12:39:08Z</time>
      </trkpt>
      <trkpt lat="28.7611520" lon="-17.8626870">
        <ele>2273.3</ele>
        <time>2020-11-16T12:39:09Z</time>
      </trkpt>
      <trkpt lat="28.7612070" lon="-17.8627030">
        <ele>2273.6</ele>
        <time>2020-11-16T12:39:10Z</time>
      </trkpt>
      <trkpt lat="28.7612330" lon="-17.8627130">
        <ele>2273.7</ele>
        <time>2020-11-16T12:39:11Z</time>
      </trkpt>
      <trkpt lat="28.7612330" lon="-17.8627130">
        <ele>2273.7</ele>
        <time>2020-11-16T12:39:12Z</time>
      </trkpt>
      <trkpt lat="28.7612820" lon="-17.8627320">
        <ele>2274.0</ele>
        <time>2020-11-16T12:39:13Z</time>
      </trkpt>
      <trkpt lat="28.7612820" lon="-17.8627320">
        <ele>2274.0</ele>
        <time>2020-11-16T12:39:14Z</time>
      </trkpt>
      <trkpt lat="28.7613300" lon="-17.8627430">
        <ele>2274.3</ele>
        <time>2020-11-16T12:39:15Z</time>
      </trkpt>
      <trkpt lat="28.7613300" lon="-17.8627430">
        <ele>2274.3</ele>
        <time>2020-11-16T12:39:16Z</time>
      </trkpt>
      <trkpt lat="28.7613770" lon="-17.8627480">
        <ele>2274.5</ele>
        <time>2020-11-16T12:39:17Z</time>
      </trkpt>
      <trkpt lat="28.7613770" lon="-17.8627480">
        <ele>2274.5</ele>
        <time>2020-11-16T12:39:18Z</time>
      </trkpt>
      <trkpt lat="28.7614230" lon="-17.8627600">
        <ele>2274.7</ele>
        <time>2020-11-16T12:39:19Z</time>
      </trkpt>
      <trkpt lat="28.7614230" lon="-17.8627600">
        <ele>2274.7</ele>
        <time>2020-11-16T12:39:20Z</time>
      </trkpt>
      <trkpt lat="28.7614680" lon="-17.8627820">
        <ele>2275.0</ele>
        <time>2020-11-16T12:39:21Z</time>
      </trkpt>
      <trkpt lat="28.7614680" lon="-17.8627820">
        <ele>2275.0</ele>
        <time>2020-11-16T12:39:22Z</time>
      </trkpt>
      <trkpt lat="28.7615100" lon="-17.8627970">
        <ele>2275.2</ele>
        <time>2020-11-16T12:39:23Z</time>
      </trkpt>
      <trkpt lat="28.7615100" lon="-17.8627970">
        <ele>2275.2</ele>
        <time>2020-11-16T12:39:24Z</time>
      </trkpt>
      <trkpt lat="28.7615550" lon="-17.8628180">
        <ele>2275.4</ele>
        <time>2020-11-16T12:39:25Z</time>
      </trkpt>
      <trkpt lat="28.7615750" lon="-17.8628250">
        <ele>2275.4</ele>
        <time>2020-11-16T12:39:26Z</time>
      </trkpt>
      <trkpt lat="28.7615750" lon="-17.8628250">
        <ele>2275.4</ele>
        <time>2020-11-16T12:39:27Z</time>
      </trkpt>
      <trkpt lat="28.7616180" lon="-17.8628520">
        <ele>2275.6</ele>
        <time>2020-11-16T12:39:28Z</time>
      </trkpt>
      <trkpt lat="28.7616380" lon="-17.8628700">
        <ele>2275.7</ele>
        <time>2020-11-16T12:39:29Z</time>
      </trkpt>
      <trkpt lat="28.7616380" lon="-17.8628700">
        <ele>2275.7</ele>
        <time>2020-11-16T12:39:30Z</time>
      </trkpt>
      <trkpt lat="28.7616770" lon="-17.8629100">
        <ele>2275.8</ele>
        <time>2020-11-16T12:39:31Z</time>
      </trkpt>
      <trkpt lat="28.7616980" lon="-17.8629370">
        <ele>2275.9</ele>
        <time>2020-11-16T12:39:32Z</time>
      </trkpt>
      <trkpt lat="28.7616980" lon="-17.8629370">
        <ele>2275.9</ele>
        <time>2020-11-16T12:39:33Z</time>
      </trkpt>
      <trkpt lat="28.7617350" lon="-17.8630000">
        <ele>2276.0</ele>
        <time>2020-11-16T12:39:34Z</time>
      </trkpt>
      <trkpt lat="28.7617570" lon="-17.8630320">
        <ele>2276.0</ele>
        <time>2020-11-16T12:39:35Z</time>
      </trkpt>
      <trkpt lat="28.7617570" lon="-17.8630320">
        <ele>2276.0</ele>
        <time>2020-11-16T12:39:36Z</time>
      </trkpt>
      <trkpt lat="28.7617880" lon="-17.8630930">
        <ele>2276.1</ele>
        <time>2020-11-16T12:39:37Z</time>
      </trkpt>
      <trkpt lat="28.7618070" lon="-17.8631270">
        <ele>2276.1</ele>
        <time>2020-11-16T12:39:38Z</time>
      </trkpt>
      <trkpt lat="28.7618070" lon="-17.8631270">
        <ele>2276.1</ele>
        <time>2020-11-16T12:39:39Z</time>
      </trkpt>
      <trkpt lat="28.7618370" lon="-17.8631900">
        <ele>2276.1</ele>
        <time>2020-11-16T12:39:40Z</time>
      </trkpt>
      <trkpt lat="28.7618370" lon="-17.8631900">
        <ele>2276.1</ele>
        <time>2020-11-16T12:39:41Z</time>
      </trkpt>
      <trkpt lat="28.7618650" lon="-17.8632580">
        <ele>2276.1</ele>
        <time>2020-11-16T12:39:42Z</time>
      </trkpt>
      <trkpt lat="28.7618830" lon="-17.8632900">
        <ele>2276.1</ele>
        <time>2020-11-16T12:39:43Z</time>
      </trkpt>
      <trkpt lat="28.7618830" lon="-17.8632900">
        <ele>2276.1</ele>
        <time>2020-11-16T12:39:44Z</time>
      </trkpt>
      <trkpt lat="28.7619130" lon="-17.8633630">
        <ele>2276.0</ele>
        <time>2020-11-16T12:39:45Z</time>
      </trkpt>
      <trkpt lat="28.7619130" lon="-17.8633630">
        <ele>2276.0</ele>
        <time>2020-11-16T12:39:46Z</time>
      </trkpt>
      <trkpt lat="28.7619420" lon="-17.8634450">
        <ele>2276.0</ele>
        <time>2020-11-16T12:39:47Z</time>
      </trkpt>
      <trkpt lat="28.7619420" lon="-17.8634450">
        <ele>2276.0</ele>
        <time>2020-11-16T12:39:48Z</time>
      </trkpt>
      <trkpt lat="28.7619780" lon="-17.8635280">
        <ele>2276.0</ele>
        <time>2020-11-16T12:39:49Z</time>
      </trkpt>
      <trkpt lat="28.7619780" lon="-17.8635280">
        <ele>2276.0</ele>
        <time>2020-11-16T12:39:50Z</time>
      </trkpt>
      <trkpt lat="28.7620120" lon="-17.8636170">
        <ele>2275.9</ele>
        <time>2020-11-16T12:39:51Z</time>
      </trkpt>
      <trkpt lat="28.7620120" lon="-17.8636170">
        <ele>2275.9</ele>
        <time>2020-11-16T12:39:52Z</time>
      </trkpt>
      <trkpt lat="28.7620450" lon="-17.8637100">
        <ele>2275.8</ele>
        <time>2020-11-16T12:39:53Z</time>
      </trkpt>
      <trkpt lat="28.7620450" lon="-17.8637100">
        <ele>2275.8</ele>
        <time>2020-11-16T12:39:54Z</time>
      </trkpt>
      <trkpt lat="28.7620770" lon="-17.8638030">
        <ele>2275.7</ele>
        <time>2020-11-16T12:39:55Z</time>
      </trkpt>
      <trkpt lat="28.7620770" lon="-17.8638030">
        <ele>2275.7</ele>
        <time>2020-11-16T12:39:56Z</time>
      </trkpt>
      <trkpt lat="28.7621020" lon="-17.8638970">
        <ele>2275.7</ele>
        <time>2020-11-16T12:39:57Z</time>
      </trkpt>
      <trkpt lat="28.7621020" lon="-17.8638970">
        <ele>2275.7</ele>
        <time>2020-11-16T12:39:58Z</time>
      </trkpt>
      <trkpt lat="28.7621170" lon="-17.8639930">
        <ele>2275.6</ele>
        <time>2020-11-16T12:39:59Z</time>
      </trkpt>
      <trkpt lat="28.7621170" lon="-17.8639930">
        <ele>2275.6</ele>
        <time>2020-11-16T12:40:00Z</time>
      </trkpt>
      <trkpt lat="28.7621220" lon="-17.8640980">
        <ele>2275.5</ele>
        <time>2020-11-16T12:40:01Z</time>
      </trkpt>
      <trkpt lat="28.7621220" lon="-17.8641500">
        <ele>2275.4</ele>
        <time>2020-11-16T12:40:02Z</time>
      </trkpt>
      <trkpt lat="28.7621220" lon="-17.8641500">
        <ele>2275.4</ele>
        <time>2020-11-16T12:40:03Z</time>
      </trkpt>
      <trkpt lat="28.7621150" lon="-17.8642550">
        <ele>2275.3</ele>
        <time>2020-11-16T12:40:04Z</time>
      </trkpt>
      <trkpt lat="28.7621150" lon="-17.8642550">
        <ele>2275.3</ele>
        <time>2020-11-16T12:40:05Z</time>
      </trkpt>
      <trkpt lat="28.7621100" lon="-17.8643580">
        <ele>2275.2</ele>
        <time>2020-11-16T12:40:06Z</time>
      </trkpt>
      <trkpt lat="28.7621100" lon="-17.8643580">
        <ele>2275.2</ele>
        <time>2020-11-16T12:40:07Z</time>
      </trkpt>
      <trkpt lat="28.7620980" lon="-17.8644580">
        <ele>2275.0</ele>
        <time>2020-11-16T12:40:08Z</time>
      </trkpt>
      <trkpt lat="28.7620980" lon="-17.8644580">
        <ele>2275.0</ele>
        <time>2020-11-16T12:40:09Z</time>
      </trkpt>
      <trkpt lat="28.7620800" lon="-17.8645530">
        <ele>2274.9</ele>
        <time>2020-11-16T12:40:10Z</time>
      </trkpt>
      <trkpt lat="28.7620700" lon="-17.8646020">
        <ele>2274.8</ele>
        <time>2020-11-16T12:40:11Z</time>
      </trkpt>
      <trkpt lat="28.7620700" lon="-17.8646020">
        <ele>2274.8</ele>
        <time>2020-11-16T12:40:12Z</time>
      </trkpt>
      <trkpt lat="28.7620580" lon="-17.8647000">
        <ele>2274.6</ele>
        <time>2020-11-16T12:40:13Z</time>
      </trkpt>
      <trkpt lat="28.7620580" lon="-17.8647000">
        <ele>2274.6</ele>
        <time>2020-11-16T12:40:14Z</time>
      </trkpt>
      <trkpt lat="28.7620480" lon="-17.8647970">
        <ele>2274.5</ele>
        <time>2020-11-16T12:40:15Z</time>
      </trkpt>
      <trkpt lat="28.7620450" lon="-17.8648470">
        <ele>2274.4</ele>
        <time>2020-11-16T12:40:16Z</time>
      </trkpt>
      <trkpt lat="28.7620450" lon="-17.8648470">
        <ele>2274.4</ele>
        <time>2020-11-16T12:40:17Z</time>
      </trkpt>
      <trkpt lat="28.7620350" lon="-17.8649450">
        <ele>2274.3</ele>
        <time>2020-11-16T12:40:18Z</time>
      </trkpt>
      <trkpt lat="28.7620350" lon="-17.8649450">
        <ele>2274.3</ele>
        <time>2020-11-16T12:40:19Z</time>
      </trkpt>
      <trkpt lat="28.7620170" lon="-17.8650380">
        <ele>2274.2</ele>
        <time>2020-11-16T12:40:20Z</time>
      </trkpt>
      <trkpt lat="28.7620170" lon="-17.8650380">
        <ele>2274.2</ele>
        <time>2020-11-16T12:40:21Z</time>
      </trkpt>
      <trkpt lat="28.7620080" lon="-17.8651400">
        <ele>2274.1</ele>
        <time>2020-11-16T12:40:22Z</time>
      </trkpt>
      <trkpt lat="28.7620080" lon="-17.8651400">
        <ele>2274.1</ele>
        <time>2020-11-16T12:40:23Z</time>
      </trkpt>
      <trkpt lat="28.7619970" lon="-17.8652430">
        <ele>2274.1</ele>
        <time>2020-11-16T12:40:24Z</time>
      </trkpt>
      <trkpt lat="28.7619970" lon="-17.8652430">
        <ele>2274.1</ele>
        <time>2020-11-16T12:40:25Z</time>
      </trkpt>
      <trkpt lat="28.7619850" lon="-17.8653420">
        <ele>2274.1</ele>
        <time>2020-11-16T12:40:26Z</time>
      </trkpt>
      <trkpt lat="28.7619850" lon="-17.8653420">
        <ele>2274.1</ele>
        <time>2020-11-16T12:40:27Z</time>
      </trkpt>
      <trkpt lat="28.7619770" lon="-17.8654350">
        <ele>2274.2</ele>
        <time>2020-11-16T12:40:28Z</time>
      </trkpt>
      <trkpt lat="28.7619770" lon="-17.8654350">
        <ele>2274.2</ele>
        <time>2020-11-16T12:40:29Z</time>
      </trkpt>
      <trkpt lat="28.7619750" lon="-17.8655220">
        <ele>2273.9</ele>
        <time>2020-11-16T12:40:30Z</time>
      </trkpt>
      <trkpt lat="28.7619750" lon="-17.8655220">
        <ele>2273.9</ele>
        <time>2020-11-16T12:40:31Z</time>
      </trkpt>
      <trkpt lat="28.7619800" lon="-17.8656000">
        <ele>2273.7</ele>
        <time>2020-11-16T12:40:32Z</time>
      </trkpt>
      <trkpt lat="28.7619800" lon="-17.8656000">
        <ele>2273.7</ele>
        <time>2020-11-16T12:40:33Z</time>
      </trkpt>
      <trkpt lat="28.7619950" lon="-17.8656670">
        <ele>2273.5</ele>
        <time>2020-11-16T12:40:34Z</time>
      </trkpt>
      <trkpt lat="28.7619950" lon="-17.8656670">
        <ele>2273.5</ele>
        <time>2020-11-16T12:40:35Z</time>
      </trkpt>
      <trkpt lat="28.7620120" lon="-17.8657050">
        <ele>2273.4</ele>
        <time>2020-11-16T12:40:36Z</time>
      </trkpt>
      <trkpt lat="28.7620120" lon="-17.8657050">
        <ele>2273.4</ele>
        <time>2020-11-16T12:40:37Z</time>
      </trkpt>
      <trkpt lat="28.7620120" lon="-17.8657150">
        <ele>2273.4</ele>
        <time>2020-11-16T12:40:38Z</time>
      </trkpt>
      <trkpt lat="28.7620120" lon="-17.8657150">
        <ele>2273.4</ele>
        <time>2020-11-16T12:40:39Z</time>
      </trkpt>
      <trkpt lat="28.7620070" lon="-17.8657150">
        <ele>2273.4</ele>
        <time>2020-11-16T12:45:07Z</time>
      </trkpt>
      <trkpt lat="28.7619920" lon="-17.8656800">
        <ele>2273.3</ele>
        <time>2020-11-16T12:45:08Z</time>
      </trkpt>
      <trkpt lat="28.7619920" lon="-17.8656800">
        <ele>2273.3</ele>
        <time>2020-11-16T12:45:09Z</time>
      </trkpt>
      <trkpt lat="28.7619780" lon="-17.8656730">
        <ele>2273.3</ele>
        <time>2020-11-16T12:45:10Z</time>
      </trkpt>
      <trkpt lat="28.7619780" lon="-17.8656730">
        <ele>2273.3</ele>
        <time>2020-11-16T12:45:11Z</time>
      </trkpt>
      <trkpt lat="28.7619600" lon="-17.8656630">
        <ele>2273.2</ele>
        <time>2020-11-16T12:45:12Z</time>
      </trkpt>
      <trkpt lat="28.7619600" lon="-17.8656630">
        <ele>2273.2</ele>
        <time>2020-11-16T12:45:13Z</time>
      </trkpt>
      <trkpt lat="28.7619420" lon="-17.8656780">
        <ele>2273.1</ele>
        <time>2020-11-16T12:45:14Z</time>
      </trkpt>
      <trkpt lat="28.7619420" lon="-17.8656780">
        <ele>2273.1</ele>
        <time>2020-11-16T12:45:15Z</time>
      </trkpt>
      <trkpt lat="28.7619150" lon="-17.8657180">
        <ele>2272.7</ele>
        <time>2020-11-16T12:45:16Z</time>
      </trkpt>
      <trkpt lat="28.7619150" lon="-17.8657180">
        <ele>2272.7</ele>
        <time>2020-11-16T12:45:17Z</time>
      </trkpt>
      <trkpt lat="28.7618850" lon="-17.8657700">
        <ele>2272.1</ele>
        <time>2020-11-16T12:45:18Z</time>
      </trkpt>
      <trkpt lat="28.7618850" lon="-17.8657700">
        <ele>2272.1</ele>
        <time>2020-11-16T12:45:19Z</time>
      </trkpt>
      <trkpt lat="28.7618500" lon="-17.8658280">
        <ele>2271.4</ele>
        <time>2020-11-16T12:45:20Z</time>
      </trkpt>
      <trkpt lat="28.7618500" lon="-17.8658280">
        <ele>2271.4</ele>
        <time>2020-11-16T12:45:21Z</time>
      </trkpt>
      <trkpt lat="28.7618170" lon="-17.8658870">
        <ele>2270.7</ele>
        <time>2020-11-16T12:45:22Z</time>
      </trkpt>
      <trkpt lat="28.7618170" lon="-17.8658870">
        <ele>2270.7</ele>
        <time>2020-11-16T12:45:23Z</time>
      </trkpt>
      <trkpt lat="28.7617800" lon="-17.8659480">
        <ele>2269.9</ele>
        <time>2020-11-16T12:45:24Z</time>
      </trkpt>
      <trkpt lat="28.7617800" lon="-17.8659480">
        <ele>2269.9</ele>
        <time>2020-11-16T12:45:25Z</time>
      </trkpt>
      <trkpt lat="28.7617420" lon="-17.8660120">
        <ele>2269.2</ele>
        <time>2020-11-16T12:45:26Z</time>
      </trkpt>
      <trkpt lat="28.7617420" lon="-17.8660120">
        <ele>2269.2</ele>
        <time>2020-11-16T12:45:27Z</time>
      </trkpt>
      <trkpt lat="28.7617030" lon="-17.8660780">
        <ele>2268.4</ele>
        <time>2020-11-16T12:45:28Z</time>
      </trkpt>
      <trkpt lat="28.7617030" lon="-17.8660780">
        <ele>2268.4</ele>
        <time>2020-11-16T12:45:29Z</time>
      </trkpt>
      <trkpt lat="28.7616730" lon="-17.8661470">
        <ele>2267.7</ele>
        <time>2020-11-16T12:45:30Z</time>
      </trkpt>
      <trkpt lat="28.7616730" lon="-17.8661470">
        <ele>2267.7</ele>
        <time>2020-11-16T12:45:31Z</time>
      </trkpt>
      <trkpt lat="28.7616450" lon="-17.8662230">
        <ele>2267.0</ele>
        <time>2020-11-16T12:45:32Z</time>
      </trkpt>
      <trkpt lat="28.7616450" lon="-17.8662230">
        <ele>2267.0</ele>
        <time>2020-11-16T12:45:33Z</time>
      </trkpt>
      <trkpt lat="28.7616300" lon="-17.8662930">
        <ele>2266.4</ele>
        <time>2020-11-16T12:45:34Z</time>
      </trkpt>
      <trkpt lat="28.7616300" lon="-17.8662930">
        <ele>2266.4</ele>
        <time>2020-11-16T12:45:35Z</time>
      </trkpt>
      <trkpt lat="28.7616180" lon="-17.8663670">
        <ele>2265.7</ele>
        <time>2020-11-16T12:45:36Z</time>
      </trkpt>
      <trkpt lat="28.7616180" lon="-17.8663670">
        <ele>2265.7</ele>
        <time>2020-11-16T12:45:37Z</time>
      </trkpt>
      <trkpt lat="28.7616000" lon="-17.8664400">
        <ele>2265.1</ele>
        <time>2020-11-16T12:45:38Z</time>
      </trkpt>
      <trkpt lat="28.7616000" lon="-17.8664400">
        <ele>2265.1</ele>
        <time>2020-11-16T12:45:39Z</time>
      </trkpt>
      <trkpt lat="28.7615770" lon="-17.8665080">
        <ele>2264.4</ele>
        <time>2020-11-16T12:45:40Z</time>
      </trkpt>
      <trkpt lat="28.7615770" lon="-17.8665080">
        <ele>2264.4</ele>
        <time>2020-11-16T12:45:41Z</time>
      </trkpt>
      <trkpt lat="28.7615480" lon="-17.8665830">
        <ele>2263.6</ele>
        <time>2020-11-16T12:45:42Z</time>
      </trkpt>
      <trkpt lat="28.7615480" lon="-17.8665830">
        <ele>2263.6</ele>
        <time>2020-11-16T12:45:43Z</time>
      </trkpt>
      <trkpt lat="28.7615120" lon="-17.8666580">
        <ele>2262.7</ele>
        <time>2020-11-16T12:45:44Z</time>
      </trkpt>
      <trkpt lat="28.7614930" lon="-17.8666950">
        <ele>2262.3</ele>
        <time>2020-11-16T12:45:45Z</time>
      </trkpt>
      <trkpt lat="28.7614930" lon="-17.8666950">
        <ele>2262.3</ele>
        <time>2020-11-16T12:45:46Z</time>
      </trkpt>
      <trkpt lat="28.7614500" lon="-17.8667670">
        <ele>2261.3</ele>
        <time>2020-11-16T12:45:47Z</time>
      </trkpt>
      <trkpt lat="28.7614500" lon="-17.8667670">
        <ele>2261.3</ele>
        <time>2020-11-16T12:45:48Z</time>
      </trkpt>
      <trkpt lat="28.7613980" lon="-17.8668320">
        <ele>2260.4</ele>
        <time>2020-11-16T12:45:49Z</time>
      </trkpt>
      <trkpt lat="28.7613730" lon="-17.8668680">
        <ele>2259.8</ele>
        <time>2020-11-16T12:45:50Z</time>
      </trkpt>
      <trkpt lat="28.7613730" lon="-17.8668680">
        <ele>2259.8</ele>
        <time>2020-11-16T12:45:51Z</time>
      </trkpt>
      <trkpt lat="28.7613330" lon="-17.8669300">
        <ele>2258.9</ele>
        <time>2020-11-16T12:45:52Z</time>
      </trkpt>
      <trkpt lat="28.7613330" lon="-17.8669300">
        <ele>2258.9</ele>
        <time>2020-11-16T12:45:53Z</time>
      </trkpt>
      <trkpt lat="28.7613180" lon="-17.8669830">
        <ele>2258.3</ele>
        <time>2020-11-16T12:45:54Z</time>
      </trkpt>
      <trkpt lat="28.7613150" lon="-17.8670070">
        <ele>2258.0</ele>
        <time>2020-11-16T12:45:55Z</time>
      </trkpt>
      <trkpt lat="28.7613150" lon="-17.8670070">
        <ele>2258.0</ele>
        <time>2020-11-16T12:45:56Z</time>
      </trkpt>
      <trkpt lat="28.7613100" lon="-17.8670300">
        <ele>2257.7</ele>
        <time>2020-11-16T12:45:57Z</time>
      </trkpt>
      <trkpt lat="28.7613100" lon="-17.8670300">
        <ele>2257.7</ele>
        <time>2020-11-16T12:45:58Z</time>
      </trkpt>
      <trkpt lat="28.7613130" lon="-17.8670350">
        <ele>2257.6</ele>
        <time>2020-11-16T12:46:16Z</time>
      </trkpt>
      <trkpt lat="28.7613130" lon="-17.8670350">
        <ele>2257.6</ele>
        <time>2020-11-16T12:46:17Z</time>
      </trkpt>
      <trkpt lat="28.7612570" lon="-17.8671070">
        <ele>2256.5</ele>
        <time>2020-11-16T12:46:18Z</time>
      </trkpt>
      <trkpt lat="28.7612570" lon="-17.8671070">
        <ele>2256.5</ele>
        <time>2020-11-16T12:46:19Z</time>
      </trkpt>
      <trkpt lat="28.7612580" lon="-17.8671480">
        <ele>2256.0</ele>
        <time>2020-11-16T12:46:20Z</time>
      </trkpt>
      <trkpt lat="28.7612580" lon="-17.8671480">
        <ele>2256.0</ele>
        <time>2020-11-16T12:46:21Z</time>
      </trkpt>
      <trkpt lat="28.7612620" lon="-17.8672120">
        <ele>2255.3</ele>
        <time>2020-11-16T12:46:22Z</time>
      </trkpt>
      <trkpt lat="28.7612620" lon="-17.8672120">
        <ele>2255.3</ele>
        <time>2020-11-16T12:46:23Z</time>
      </trkpt>
      <trkpt lat="28.7612480" lon="-17.8672800">
        <ele>2254.5</ele>
        <time>2020-11-16T12:46:24Z</time>
      </trkpt>
      <trkpt lat="28.7612480" lon="-17.8672800">
        <ele>2254.5</ele>
        <time>2020-11-16T12:46:25Z</time>
      </trkpt>
      <trkpt lat="28.7612370" lon="-17.8673550">
        <ele>2253.7</ele>
        <time>2020-11-16T12:46:26Z</time>
      </trkpt>
      <trkpt lat="28.7612370" lon="-17.8673550">
        <ele>2253.7</ele>
        <time>2020-11-16T12:46:27Z</time>
      </trkpt>
      <trkpt lat="28.7612350" lon="-17.8674330">
        <ele>2253.9</ele>
        <time>2020-11-16T12:46:28Z</time>
      </trkpt>
      <trkpt lat="28.7612370" lon="-17.8674700">
        <ele>2254.1</ele>
        <time>2020-11-16T12:46:29Z</time>
      </trkpt>
      <trkpt lat="28.7612370" lon="-17.8674700">
        <ele>2254.1</ele>
        <time>2020-11-16T12:46:30Z</time>
      </trkpt>
      <trkpt lat="28.7612520" lon="-17.8675450">
        <ele>2254.5</ele>
        <time>2020-11-16T12:46:31Z</time>
      </trkpt>
      <trkpt lat="28.7612600" lon="-17.8675820">
        <ele>2254.7</ele>
        <time>2020-11-16T12:46:32Z</time>
      </trkpt>
      <trkpt lat="28.7612600" lon="-17.8675820">
        <ele>2254.7</ele>
        <time>2020-11-16T12:46:33Z</time>
      </trkpt>
      <trkpt lat="28.7612750" lon="-17.8676570">
        <ele>2255.2</ele>
        <time>2020-11-16T12:46:34Z</time>
      </trkpt>
      <trkpt lat="28.7612830" lon="-17.8676950">
        <ele>2255.5</ele>
        <time>2020-11-16T12:46:35Z</time>
      </trkpt>
      <trkpt lat="28.7612830" lon="-17.8676950">
        <ele>2255.5</ele>
        <time>2020-11-16T12:46:36Z</time>
      </trkpt>
      <trkpt lat="28.7612950" lon="-17.8677720">
        <ele>2256.1</ele>
        <time>2020-11-16T12:46:37Z</time>
      </trkpt>
      <trkpt lat="28.7613000" lon="-17.8678100">
        <ele>2256.4</ele>
        <time>2020-11-16T12:46:38Z</time>
      </trkpt>
      <trkpt lat="28.7613000" lon="-17.8678100">
        <ele>2256.4</ele>
        <time>2020-11-16T12:46:39Z</time>
      </trkpt>
      <trkpt lat="28.7613000" lon="-17.8678850">
        <ele>2256.9</ele>
        <time>2020-11-16T12:46:40Z</time>
      </trkpt>
      <trkpt lat="28.7613000" lon="-17.8678850">
        <ele>2256.9</ele>
        <time>2020-11-16T12:46:41Z</time>
      </trkpt>
      <trkpt lat="28.7613080" lon="-17.8679580">
        <ele>2257.6</ele>
        <time>2020-11-16T12:46:42Z</time>
      </trkpt>
      <trkpt lat="28.7613080" lon="-17.8679580">
        <ele>2257.6</ele>
        <time>2020-11-16T12:46:43Z</time>
      </trkpt>
      <trkpt lat="28.7613180" lon="-17.8680250">
        <ele>2258.1</ele>
        <time>2020-11-16T12:46:44Z</time>
      </trkpt>
      <trkpt lat="28.7613180" lon="-17.8680250">
        <ele>2258.1</ele>
        <time>2020-11-16T12:46:45Z</time>
      </trkpt>
      <trkpt lat="28.7613200" lon="-17.8680880">
        <ele>2258.7</ele>
        <time>2020-11-16T12:46:46Z</time>
      </trkpt>
      <trkpt lat="28.7613200" lon="-17.8680880">
        <ele>2258.7</ele>
        <time>2020-11-16T12:46:47Z</time>
      </trkpt>
      <trkpt lat="28.7613220" lon="-17.8681480">
        <ele>2259.4</ele>
        <time>2020-11-16T12:46:48Z</time>
      </trkpt>
      <trkpt lat="28.7613220" lon="-17.8681480">
        <ele>2259.4</ele>
        <time>2020-11-16T12:46:49Z</time>
      </trkpt>
      <trkpt lat="28.7613220" lon="-17.8682050">
        <ele>2260.0</ele>
        <time>2020-11-16T12:46:50Z</time>
      </trkpt>
      <trkpt lat="28.7613220" lon="-17.8682050">
        <ele>2260.0</ele>
        <time>2020-11-16T12:46:51Z</time>
      </trkpt>
      <trkpt lat="28.7613200" lon="-17.8682620">
        <ele>2260.6</ele>
        <time>2020-11-16T12:46:52Z</time>
      </trkpt>
      <trkpt lat="28.7613200" lon="-17.8682620">
        <ele>2260.6</ele>
        <time>2020-11-16T12:46:53Z</time>
      </trkpt>
      <trkpt lat="28.7613070" lon="-17.8683150">
        <ele>2261.3</ele>
        <time>2020-11-16T12:46:54Z</time>
      </trkpt>
      <trkpt lat="28.7613070" lon="-17.8683150">
        <ele>2261.3</ele>
        <time>2020-11-16T12:46:55Z</time>
      </trkpt>
      <trkpt lat="28.7612920" lon="-17.8683750">
        <ele>2262.0</ele>
        <time>2020-11-16T12:46:56Z</time>
      </trkpt>
      <trkpt lat="28.7612920" lon="-17.8683750">
        <ele>2262.0</ele>
        <time>2020-11-16T12:46:57Z</time>
      </trkpt>
      <trkpt lat="28.7612770" lon="-17.8684350">
        <ele>2262.8</ele>
        <time>2020-11-16T12:46:58Z</time>
      </trkpt>
      <trkpt lat="28.7612770" lon="-17.8684350">
        <ele>2262.8</ele>
        <time>2020-11-16T12:46:59Z</time>
      </trkpt>
      <trkpt lat="28.7612620" lon="-17.8684920">
        <ele>2263.5</ele>
        <time>2020-11-16T12:47:00Z</time>
      </trkpt>
      <trkpt lat="28.7612620" lon="-17.8684920">
        <ele>2263.5</ele>
        <time>2020-11-16T12:47:01Z</time>
      </trkpt>
      <trkpt lat="28.7612430" lon="-17.8685430">
        <ele>2264.2</ele>
        <time>2020-11-16T12:47:02Z</time>
      </trkpt>
      <trkpt lat="28.7612430" lon="-17.8685430">
        <ele>2264.2</ele>
        <time>2020-11-16T12:47:03Z</time>
      </trkpt>
      <trkpt lat="28.7612350" lon="-17.8685980">
        <ele>2264.9</ele>
        <time>2020-11-16T12:47:04Z</time>
      </trkpt>
      <trkpt lat="28.7612350" lon="-17.8685980">
        <ele>2264.9</ele>
        <time>2020-11-16T12:47:05Z</time>
      </trkpt>
      <trkpt lat="28.7612280" lon="-17.8686520">
        <ele>2265.6</ele>
        <time>2020-11-16T12:47:06Z</time>
      </trkpt>
      <trkpt lat="28.7612280" lon="-17.8686520">
        <ele>2265.6</ele>
        <time>2020-11-16T12:47:07Z</time>
      </trkpt>
      <trkpt lat="28.7612200" lon="-17.8687080">
        <ele>2266.4</ele>
        <time>2020-11-16T12:47:08Z</time>
      </trkpt>
      <trkpt lat="28.7612200" lon="-17.8687080">
        <ele>2266.4</ele>
        <time>2020-11-16T12:47:09Z</time>
      </trkpt>
      <trkpt lat="28.7612080" lon="-17.8687620">
        <ele>2267.1</ele>
        <time>2020-11-16T12:47:10Z</time>
      </trkpt>
      <trkpt lat="28.7612080" lon="-17.8687620">
        <ele>2267.1</ele>
        <time>2020-11-16T12:47:11Z</time>
      </trkpt>
      <trkpt lat="28.7611920" lon="-17.8688170">
        <ele>2267.8</ele>
        <time>2020-11-16T12:47:12Z</time>
      </trkpt>
      <trkpt lat="28.7611920" lon="-17.8688170">
        <ele>2267.8</ele>
        <time>2020-11-16T12:47:13Z</time>
      </trkpt>
      <trkpt lat="28.7611750" lon="-17.8688630">
        <ele>2268.4</ele>
        <time>2020-11-16T12:47:14Z</time>
      </trkpt>
      <trkpt lat="28.7611630" lon="-17.8688850">
        <ele>2268.7</ele>
        <time>2020-11-16T12:47:15Z</time>
      </trkpt>
      <trkpt lat="28.7611630" lon="-17.8688850">
        <ele>2268.7</ele>
        <time>2020-11-16T12:47:16Z</time>
      </trkpt>
      <trkpt lat="28.7611370" lon="-17.8689300">
        <ele>2269.3</ele>
        <time>2020-11-16T12:47:17Z</time>
      </trkpt>
      <trkpt lat="28.7611230" lon="-17.8689530">
        <ele>2269.6</ele>
        <time>2020-11-16T12:47:18Z</time>
      </trkpt>
      <trkpt lat="28.7611230" lon="-17.8689530">
        <ele>2269.6</ele>
        <time>2020-11-16T12:47:19Z</time>
      </trkpt>
      <trkpt lat="28.7610920" lon="-17.8689880">
        <ele>2270.1</ele>
        <time>2020-11-16T12:47:20Z</time>
      </trkpt>
      <trkpt lat="28.7610920" lon="-17.8689880">
        <ele>2270.1</ele>
        <time>2020-11-16T12:47:21Z</time>
      </trkpt>
      <trkpt lat="28.7610530" lon="-17.8690200">
        <ele>2270.6</ele>
        <time>2020-11-16T12:47:22Z</time>
      </trkpt>
      <trkpt lat="28.7610530" lon="-17.8690200">
        <ele>2270.6</ele>
        <time>2020-11-16T12:47:23Z</time>
      </trkpt>
      <trkpt lat="28.7610180" lon="-17.8690450">
        <ele>2271.1</ele>
        <time>2020-11-16T12:47:24Z</time>
      </trkpt>
      <trkpt lat="28.7610020" lon="-17.8690620">
        <ele>2271.3</ele>
        <time>2020-11-16T12:47:25Z</time>
      </trkpt>
      <trkpt lat="28.7609870" lon="-17.8690780">
        <ele>2271.6</ele>
        <time>2020-11-16T12:47:26Z</time>
      </trkpt>
      <trkpt lat="28.7609870" lon="-17.8690780">
        <ele>2271.6</ele>
        <time>2020-11-16T12:47:27Z</time>
      </trkpt>
      <trkpt lat="28.7609580" lon="-17.8691070">
        <ele>2272.0</ele>
        <time>2020-11-16T12:47:28Z</time>
      </trkpt>
      <trkpt lat="28.7609580" lon="-17.8691070">
        <ele>2272.0</ele>
        <time>2020-11-16T12:47:29Z</time>
      </trkpt>
      <trkpt lat="28.7609320" lon="-17.8691370">
        <ele>2272.5</ele>
        <time>2020-11-16T12:47:30Z</time>
      </trkpt>
      <trkpt lat="28.7609320" lon="-17.8691370">
        <ele>2272.5</ele>
        <time>2020-11-16T12:47:31Z</time>
      </trkpt>
      <trkpt lat="28.7609070" lon="-17.8691720">
        <ele>2273.0</ele>
        <time>2020-11-16T12:47:32Z</time>
      </trkpt>
      <trkpt lat="28.7609070" lon="-17.8691720">
        <ele>2273.0</ele>
        <time>2020-11-16T12:47:33Z</time>
      </trkpt>
      <trkpt lat="28.7608850" lon="-17.8692080">
        <ele>2273.5</ele>
        <time>2020-11-16T12:47:34Z</time>
      </trkpt>
      <trkpt lat="28.7608750" lon="-17.8692270">
        <ele>2273.7</ele>
        <time>2020-11-16T12:47:35Z</time>
      </trkpt>
      <trkpt lat="28.7608650" lon="-17.8692420">
        <ele>2273.9</ele>
        <time>2020-11-16T12:47:36Z</time>
      </trkpt>
      <trkpt lat="28.7608650" lon="-17.8692420">
        <ele>2273.9</ele>
        <time>2020-11-16T12:47:37Z</time>
      </trkpt>
      <trkpt lat="28.7608480" lon="-17.8692800">
        <ele>2274.4</ele>
        <time>2020-11-16T12:47:38Z</time>
      </trkpt>
      <trkpt lat="28.7608480" lon="-17.8692800">
        <ele>2274.4</ele>
        <time>2020-11-16T12:47:39Z</time>
      </trkpt>
      <trkpt lat="28.7608380" lon="-17.8693250">
        <ele>2274.9</ele>
        <time>2020-11-16T12:47:40Z</time>
      </trkpt>
      <trkpt lat="28.7608380" lon="-17.8693250">
        <ele>2274.9</ele>
        <time>2020-11-16T12:47:41Z</time>
      </trkpt>
      <trkpt lat="28.7608220" lon="-17.8693650">
        <ele>2275.3</ele>
        <time>2020-11-16T12:47:42Z</time>
      </trkpt>
      <trkpt lat="28.7608220" lon="-17.8693650">
        <ele>2275.3</ele>
        <time>2020-11-16T12:47:43Z</time>
      </trkpt>
      <trkpt lat="28.7608020" lon="-17.8694070">
        <ele>2275.8</ele>
        <time>2020-11-16T12:47:44Z</time>
      </trkpt>
      <trkpt lat="28.7608020" lon="-17.8694070">
        <ele>2275.8</ele>
        <time>2020-11-16T12:47:45Z</time>
      </trkpt>
      <trkpt lat="28.7607930" lon="-17.8694520">
        <ele>2276.3</ele>
        <time>2020-11-16T12:47:46Z</time>
      </trkpt>
      <trkpt lat="28.7607880" lon="-17.8694700">
        <ele>2276.5</ele>
        <time>2020-11-16T12:47:47Z</time>
      </trkpt>
      <trkpt lat="28.7607880" lon="-17.8694700">
        <ele>2276.5</ele>
        <time>2020-11-16T12:47:48Z</time>
      </trkpt>
      <trkpt lat="28.7607680" lon="-17.8695030">
        <ele>2276.9</ele>
        <time>2020-11-16T12:47:49Z</time>
      </trkpt>
      <trkpt lat="28.7607680" lon="-17.8695030">
        <ele>2276.9</ele>
        <time>2020-11-16T12:47:50Z</time>
      </trkpt>
      <trkpt lat="28.7607470" lon="-17.8695400">
        <ele>2277.4</ele>
        <time>2020-11-16T12:47:51Z</time>
      </trkpt>
      <trkpt lat="28.7607470" lon="-17.8695400">
        <ele>2277.4</ele>
        <time>2020-11-16T12:47:52Z</time>
      </trkpt>
      <trkpt lat="28.7607280" lon="-17.8695750">
        <ele>2277.8</ele>
        <time>2020-11-16T12:47:53Z</time>
      </trkpt>
      <trkpt lat="28.7607280" lon="-17.8695750">
        <ele>2277.8</ele>
        <time>2020-11-16T12:47:54Z</time>
      </trkpt>
      <trkpt lat="28.7607030" lon="-17.8696100">
        <ele>2278.2</ele>
        <time>2020-11-16T12:47:55Z</time>
      </trkpt>
      <trkpt lat="28.7607030" lon="-17.8696100">
        <ele>2278.2</ele>
        <time>2020-11-16T12:47:56Z</time>
      </trkpt>
      <trkpt lat="28.7606820" lon="-17.8696450">
        <ele>2278.6</ele>
        <time>2020-11-16T12:47:57Z</time>
      </trkpt>
      <trkpt lat="28.7606820" lon="-17.8696450">
        <ele>2278.6</ele>
        <time>2020-11-16T12:47:58Z</time>
      </trkpt>
      <trkpt lat="28.7606580" lon="-17.8696850">
        <ele>2279.1</ele>
        <time>2020-11-16T12:47:59Z</time>
      </trkpt>
      <trkpt lat="28.7606580" lon="-17.8696850">
        <ele>2279.1</ele>
        <time>2020-11-16T12:48:00Z</time>
      </trkpt>
      <trkpt lat="28.7606380" lon="-17.8697250">
        <ele>2279.6</ele>
        <time>2020-11-16T12:48:01Z</time>
      </trkpt>
      <trkpt lat="28.7606250" lon="-17.8697430">
        <ele>2279.8</ele>
        <time>2020-11-16T12:48:02Z</time>
      </trkpt>
      <trkpt lat="28.7606250" lon="-17.8697430">
        <ele>2279.8</ele>
        <time>2020-11-16T12:48:03Z</time>
      </trkpt>
      <trkpt lat="28.7606020" lon="-17.8697800">
        <ele>2280.3</ele>
        <time>2020-11-16T12:48:04Z</time>
      </trkpt>
      <trkpt lat="28.7605900" lon="-17.8697980">
        <ele>2280.5</ele>
        <time>2020-11-16T12:48:05Z</time>
      </trkpt>
      <trkpt lat="28.7605900" lon="-17.8697980">
        <ele>2280.5</ele>
        <time>2020-11-16T12:48:06Z</time>
      </trkpt>
      <trkpt lat="28.7605700" lon="-17.8698350">
        <ele>2280.8</ele>
        <time>2020-11-16T12:48:07Z</time>
      </trkpt>
      <trkpt lat="28.7605700" lon="-17.8698350">
        <ele>2280.8</ele>
        <time>2020-11-16T12:48:08Z</time>
      </trkpt>
      <trkpt lat="28.7605450" lon="-17.8698730">
        <ele>2281.2</ele>
        <time>2020-11-16T12:48:09Z</time>
      </trkpt>
      <trkpt lat="28.7605320" lon="-17.8698930">
        <ele>2281.4</ele>
        <time>2020-11-16T12:48:10Z</time>
      </trkpt>
      <trkpt lat="28.7605220" lon="-17.8699150">
        <ele>2281.6</ele>
        <time>2020-11-16T12:48:11Z</time>
      </trkpt>
      <trkpt lat="28.7605220" lon="-17.8699150">
        <ele>2281.6</ele>
        <time>2020-11-16T12:48:12Z</time>
      </trkpt>
      <trkpt lat="28.7605050" lon="-17.8699620">
        <ele>2281.9</ele>
        <time>2020-11-16T12:48:13Z</time>
      </trkpt>
      <trkpt lat="28.7605000" lon="-17.8699820">
        <ele>2282.0</ele>
        <time>2020-11-16T12:48:14Z</time>
      </trkpt>
      <trkpt lat="28.7605000" lon="-17.8699820">
        <ele>2282.0</ele>
        <time>2020-11-16T12:48:15Z</time>
      </trkpt>
      <trkpt lat="28.7604880" lon="-17.8700280">
        <ele>2282.3</ele>
        <time>2020-11-16T12:48:16Z</time>
      </trkpt>
      <trkpt lat="28.7604880" lon="-17.8700280">
        <ele>2282.3</ele>
        <time>2020-11-16T12:48:17Z</time>
      </trkpt>
      <trkpt lat="28.7604820" lon="-17.8700770">
        <ele>2282.6</ele>
        <time>2020-11-16T12:48:18Z</time>
      </trkpt>
      <trkpt lat="28.7604820" lon="-17.8700770">
        <ele>2282.6</ele>
        <time>2020-11-16T12:48:19Z</time>
      </trkpt>
      <trkpt lat="28.7604720" lon="-17.8701200">
        <ele>2282.9</ele>
        <time>2020-11-16T12:48:20Z</time>
      </trkpt>
      <trkpt lat="28.7604750" lon="-17.8701430">
        <ele>2283.0</ele>
        <time>2020-11-16T12:48:21Z</time>
      </trkpt>
      <trkpt lat="28.7604750" lon="-17.8701430">
        <ele>2283.0</ele>
        <time>2020-11-16T12:48:22Z</time>
      </trkpt>
      <trkpt lat="28.7605070" lon="-17.8702050">
        <ele>2283.3</ele>
        <time>2020-11-16T12:48:23Z</time>
      </trkpt>
      <trkpt lat="28.7605070" lon="-17.8702050">
        <ele>2283.3</ele>
        <time>2020-11-16T12:48:24Z</time>
      </trkpt>
      <trkpt lat="28.7605250" lon="-17.8702680">
        <ele>2283.7</ele>
        <time>2020-11-16T12:48:25Z</time>
      </trkpt>
      <trkpt lat="28.7605250" lon="-17.8702680">
        <ele>2283.7</ele>
        <time>2020-11-16T12:48:26Z</time>
      </trkpt>
      <trkpt lat="28.7605450" lon="-17.8703230">
        <ele>2283.9</ele>
        <time>2020-11-16T12:48:27Z</time>
      </trkpt>
      <trkpt lat="28.7605450" lon="-17.8703230">
        <ele>2283.9</ele>
        <time>2020-11-16T12:48:28Z</time>
      </trkpt>
      <trkpt lat="28.7605670" lon="-17.8703830">
        <ele>2284.2</ele>
        <time>2020-11-16T12:48:29Z</time>
      </trkpt>
      <trkpt lat="28.7605750" lon="-17.8704170">
        <ele>2284.3</ele>
        <time>2020-11-16T12:48:30Z</time>
      </trkpt>
      <trkpt lat="28.7605750" lon="-17.8704170">
        <ele>2284.3</ele>
        <time>2020-11-16T12:48:31Z</time>
      </trkpt>
      <trkpt lat="28.7605980" lon="-17.8704770">
        <ele>2284.5</ele>
        <time>2020-11-16T12:48:32Z</time>
      </trkpt>
      <trkpt lat="28.7605980" lon="-17.8704770">
        <ele>2284.5</ele>
        <time>2020-11-16T12:48:33Z</time>
      </trkpt>
      <trkpt lat="28.7606170" lon="-17.8705420">
        <ele>2284.6</ele>
        <time>2020-11-16T12:48:34Z</time>
      </trkpt>
      <trkpt lat="28.7606180" lon="-17.8705750">
        <ele>2284.6</ele>
        <time>2020-11-16T12:48:35Z</time>
      </trkpt>
      <trkpt lat="28.7606180" lon="-17.8705750">
        <ele>2284.6</ele>
        <time>2020-11-16T12:48:36Z</time>
      </trkpt>
      <trkpt lat="28.7606220" lon="-17.8706450">
        <ele>2284.6</ele>
        <time>2020-11-16T12:48:37Z</time>
      </trkpt>
      <trkpt lat="28.7606220" lon="-17.8706450">
        <ele>2284.6</ele>
        <time>2020-11-16T12:48:38Z</time>
      </trkpt>
      <trkpt lat="28.7606280" lon="-17.8707130">
        <ele>2284.5</ele>
        <time>2020-11-16T12:48:39Z</time>
      </trkpt>
      <trkpt lat="28.7606280" lon="-17.8707130">
        <ele>2284.5</ele>
        <time>2020-11-16T12:48:40Z</time>
      </trkpt>
      <trkpt lat="28.7606400" lon="-17.8707570">
        <ele>2284.4</ele>
        <time>2020-11-16T12:48:41Z</time>
      </trkpt>
      <trkpt lat="28.7606330" lon="-17.8707570">
        <ele>2284.4</ele>
        <time>2020-11-16T12:48:42Z</time>
      </trkpt>
      <trkpt lat="28.7606280" lon="-17.8707530">
        <ele>2284.4</ele>
        <time>2020-11-16T12:48:43Z</time>
      </trkpt>
      <trkpt lat="28.7606280" lon="-17.8707530">
        <ele>2284.4</ele>
        <time>2020-11-16T12:48:44Z</time>
      </trkpt>
      <trkpt lat="28.7606200" lon="-17.8707470">
        <ele>2284.4</ele>
        <time>2020-11-16T12:48:45Z</time>
      </trkpt>
      <trkpt lat="28.7606200" lon="-17.8707470">
        <ele>2284.4</ele>
        <time>2020-11-16T12:49:19Z</time>
      </trkpt>
      <trkpt lat="28.7606620" lon="-17.8708400">
        <ele>2284.1</ele>
        <time>2020-11-16T12:49:20Z</time>
      </trkpt>
      <trkpt lat="28.7606780" lon="-17.8708680">
        <ele>2284.0</ele>
        <time>2020-11-16T12:49:21Z</time>
      </trkpt>
      <trkpt lat="28.7606780" lon="-17.8708680">
        <ele>2284.0</ele>
        <time>2020-11-16T12:49:22Z</time>
      </trkpt>
      <trkpt lat="28.7607370" lon="-17.8709450">
        <ele>2283.7</ele>
        <time>2020-11-16T12:49:23Z</time>
      </trkpt>
      <trkpt lat="28.7607650" lon="-17.8709900">
        <ele>2283.4</ele>
        <time>2020-11-16T12:49:24Z</time>
      </trkpt>
      <trkpt lat="28.7607920" lon="-17.8710400">
        <ele>2283.2</ele>
        <time>2020-11-16T12:49:25Z</time>
      </trkpt>
      <trkpt lat="28.7607920" lon="-17.8710400">
        <ele>2283.2</ele>
        <time>2020-11-16T12:49:26Z</time>
      </trkpt>
      <trkpt lat="28.7608330" lon="-17.8711650">
        <ele>2282.7</ele>
        <time>2020-11-16T12:49:27Z</time>
      </trkpt>
      <trkpt lat="28.7608330" lon="-17.8711650">
        <ele>2282.7</ele>
        <time>2020-11-16T12:49:28Z</time>
      </trkpt>
      <trkpt lat="28.7608580" lon="-17.8713220">
        <ele>2282.2</ele>
        <time>2020-11-16T12:49:29Z</time>
      </trkpt>
      <trkpt lat="28.7608750" lon="-17.8714070">
        <ele>2281.9</ele>
        <time>2020-11-16T12:49:30Z</time>
      </trkpt>
      <trkpt lat="28.7608750" lon="-17.8714070">
        <ele>2281.9</ele>
        <time>2020-11-16T12:49:31Z</time>
      </trkpt>
      <trkpt lat="28.7609420" lon="-17.8715680">
        <ele>2281.4</ele>
        <time>2020-11-16T12:49:32Z</time>
      </trkpt>
      <trkpt lat="28.7609420" lon="-17.8715680">
        <ele>2281.4</ele>
        <time>2020-11-16T12:49:33Z</time>
      </trkpt>
      <trkpt lat="28.7610720" lon="-17.8716480">
        <ele>2280.9</ele>
        <time>2020-11-16T12:49:34Z</time>
      </trkpt>
      <trkpt lat="28.7610720" lon="-17.8716480">
        <ele>2280.9</ele>
        <time>2020-11-16T12:49:35Z</time>
      </trkpt>
      <trkpt lat="28.7612330" lon="-17.8716600">
        <ele>2280.4</ele>
        <time>2020-11-16T12:49:36Z</time>
      </trkpt>
      <trkpt lat="28.7612330" lon="-17.8716600">
        <ele>2280.4</ele>
        <time>2020-11-16T12:49:37Z</time>
      </trkpt>
      <trkpt lat="28.7614070" lon="-17.8716520">
        <ele>2279.8</ele>
        <time>2020-11-16T12:49:38Z</time>
      </trkpt>
      <trkpt lat="28.7614070" lon="-17.8716520">
        <ele>2279.8</ele>
        <time>2020-11-16T12:49:39Z</time>
      </trkpt>
      <trkpt lat="28.7615720" lon="-17.8716670">
        <ele>2279.0</ele>
        <time>2020-11-16T12:49:40Z</time>
      </trkpt>
      <trkpt lat="28.7615720" lon="-17.8716670">
        <ele>2279.0</ele>
        <time>2020-11-16T12:49:41Z</time>
      </trkpt>
      <trkpt lat="28.7616820" lon="-17.8717630">
        <ele>2278.4</ele>
        <time>2020-11-16T12:49:42Z</time>
      </trkpt>
      <trkpt lat="28.7617000" lon="-17.8718400">
        <ele>2278.1</ele>
        <time>2020-11-16T12:49:43Z</time>
      </trkpt>
      <trkpt lat="28.7617020" lon="-17.8719230">
        <ele>2277.8</ele>
        <time>2020-11-16T12:49:44Z</time>
      </trkpt>
      <trkpt lat="28.7617020" lon="-17.8719230">
        <ele>2277.8</ele>
        <time>2020-11-16T12:49:45Z</time>
      </trkpt>
      <trkpt lat="28.7616320" lon="-17.8720670">
        <ele>2277.4</ele>
        <time>2020-11-16T12:49:46Z</time>
      </trkpt>
      <trkpt lat="28.7616320" lon="-17.8720670">
        <ele>2277.4</ele>
        <time>2020-11-16T12:49:47Z</time>
      </trkpt>
      <trkpt lat="28.7615400" lon="-17.8721950">
        <ele>2277.1</ele>
        <time>2020-11-16T12:49:48Z</time>
      </trkpt>
      <trkpt lat="28.7615400" lon="-17.8721950">
        <ele>2277.1</ele>
        <time>2020-11-16T12:49:49Z</time>
      </trkpt>
      <trkpt lat="28.7614300" lon="-17.8723200">
        <ele>2276.6</ele>
        <time>2020-11-16T12:49:50Z</time>
      </trkpt>
      <trkpt lat="28.7614300" lon="-17.8723200">
        <ele>2276.6</ele>
        <time>2020-11-16T12:49:51Z</time>
      </trkpt>
      <trkpt lat="28.7613420" lon="-17.8724780">
        <ele>2275.9</ele>
        <time>2020-11-16T12:49:52Z</time>
      </trkpt>
      <trkpt lat="28.7613420" lon="-17.8724780">
        <ele>2275.9</ele>
        <time>2020-11-16T12:49:53Z</time>
      </trkpt>
      <trkpt lat="28.7613500" lon="-17.8726800">
        <ele>2275.2</ele>
        <time>2020-11-16T12:49:54Z</time>
      </trkpt>
      <trkpt lat="28.7613500" lon="-17.8726800">
        <ele>2275.2</ele>
        <time>2020-11-16T12:49:55Z</time>
      </trkpt>
      <trkpt lat="28.7613850" lon="-17.8728770">
        <ele>2274.8</ele>
        <time>2020-11-16T12:49:56Z</time>
      </trkpt>
      <trkpt lat="28.7613850" lon="-17.8728770">
        <ele>2274.8</ele>
        <time>2020-11-16T12:49:57Z</time>
      </trkpt>
      <trkpt lat="28.7614180" lon="-17.8730920">
        <ele>2274.6</ele>
        <time>2020-11-16T12:49:58Z</time>
      </trkpt>
      <trkpt lat="28.7614430" lon="-17.8731920">
        <ele>2274.5</ele>
        <time>2020-11-16T12:49:59Z</time>
      </trkpt>
      <trkpt lat="28.7615020" lon="-17.8732870">
        <ele>2274.2</ele>
        <time>2020-11-16T12:50:00Z</time>
      </trkpt>
      <trkpt lat="28.7615020" lon="-17.8732870">
        <ele>2274.2</ele>
        <time>2020-11-16T12:50:01Z</time>
      </trkpt>
      <trkpt lat="28.7616400" lon="-17.8734470">
        <ele>2273.4</ele>
        <time>2020-11-16T12:50:02Z</time>
      </trkpt>
      <trkpt lat="28.7616400" lon="-17.8734470">
        <ele>2273.4</ele>
        <time>2020-11-16T12:50:03Z</time>
      </trkpt>
      <trkpt lat="28.7617520" lon="-17.8736400">
        <ele>2272.3</ele>
        <time>2020-11-16T12:50:04Z</time>
      </trkpt>
      <trkpt lat="28.7617520" lon="-17.8736400">
        <ele>2272.3</ele>
        <time>2020-11-16T12:50:05Z</time>
      </trkpt>
      <trkpt lat="28.7618600" lon="-17.8738370">
        <ele>2271.1</ele>
        <time>2020-11-16T12:50:06Z</time>
      </trkpt>
      <trkpt lat="28.7619450" lon="-17.8739370">
        <ele>2270.4</ele>
        <time>2020-11-16T12:50:07Z</time>
      </trkpt>
      <trkpt lat="28.7619450" lon="-17.8739370">
        <ele>2270.4</ele>
        <time>2020-11-16T12:50:08Z</time>
      </trkpt>
      <trkpt lat="28.7621250" lon="-17.8741080">
        <ele>2269.4</ele>
        <time>2020-11-16T12:50:09Z</time>
      </trkpt>
      <trkpt lat="28.7622070" lon="-17.8741950">
        <ele>2268.9</ele>
        <time>2020-11-16T12:50:10Z</time>
      </trkpt>
      <trkpt lat="28.7622070" lon="-17.8741950">
        <ele>2268.9</ele>
        <time>2020-11-16T12:50:11Z</time>
      </trkpt>
      <trkpt lat="28.7623730" lon="-17.8743900">
        <ele>2268.1</ele>
        <time>2020-11-16T12:50:12Z</time>
      </trkpt>
      <trkpt lat="28.7623730" lon="-17.8743900">
        <ele>2268.1</ele>
        <time>2020-11-16T12:50:13Z</time>
      </trkpt>
      <trkpt lat="28.7625530" lon="-17.8745700">
        <ele>2267.7</ele>
        <time>2020-11-16T12:50:14Z</time>
      </trkpt>
      <trkpt lat="28.7626400" lon="-17.8746450">
        <ele>2267.6</ele>
        <time>2020-11-16T12:50:15Z</time>
      </trkpt>
      <trkpt lat="28.7626400" lon="-17.8746450">
        <ele>2267.6</ele>
        <time>2020-11-16T12:50:16Z</time>
      </trkpt>
      <trkpt lat="28.7628170" lon="-17.8747270">
        <ele>2267.3</ele>
        <time>2020-11-16T12:50:17Z</time>
      </trkpt>
      <trkpt lat="28.7628170" lon="-17.8747270">
        <ele>2267.3</ele>
        <time>2020-11-16T12:50:18Z</time>
      </trkpt>
      <trkpt lat="28.7629550" lon="-17.8748320">
        <ele>2266.9</ele>
        <time>2020-11-16T12:50:19Z</time>
      </trkpt>
      <trkpt lat="28.7630120" lon="-17.8749100">
        <ele>2266.4</ele>
        <time>2020-11-16T12:50:20Z</time>
      </trkpt>
      <trkpt lat="28.7630120" lon="-17.8749100">
        <ele>2266.4</ele>
        <time>2020-11-16T12:50:21Z</time>
      </trkpt>
      <trkpt lat="28.7631320" lon="-17.8750650">
        <ele>2265.4</ele>
        <time>2020-11-16T12:50:22Z</time>
      </trkpt>
      <trkpt lat="28.7631320" lon="-17.8750650">
        <ele>2265.4</ele>
        <time>2020-11-16T12:50:23Z</time>
      </trkpt>
      <trkpt lat="28.7632850" lon="-17.8751920">
        <ele>2264.4</ele>
        <time>2020-11-16T12:50:24Z</time>
      </trkpt>
      <trkpt lat="28.7632850" lon="-17.8751920">
        <ele>2264.4</ele>
        <time>2020-11-16T12:50:25Z</time>
      </trkpt>
      <trkpt lat="28.7634520" lon="-17.8753020">
        <ele>2263.4</ele>
        <time>2020-11-16T12:50:26Z</time>
      </trkpt>
      <trkpt lat="28.7634520" lon="-17.8753020">
        <ele>2263.4</ele>
        <time>2020-11-16T12:50:27Z</time>
      </trkpt>
      <trkpt lat="28.7636150" lon="-17.8754250">
        <ele>2262.3</ele>
        <time>2020-11-16T12:50:28Z</time>
      </trkpt>
      <trkpt lat="28.7636850" lon="-17.8754920">
        <ele>2261.8</ele>
        <time>2020-11-16T12:50:29Z</time>
      </trkpt>
      <trkpt lat="28.7636850" lon="-17.8754920">
        <ele>2261.8</ele>
        <time>2020-11-16T12:50:30Z</time>
      </trkpt>
      <trkpt lat="28.7637750" lon="-17.8756570">
        <ele>2260.7</ele>
        <time>2020-11-16T12:50:31Z</time>
      </trkpt>
      <trkpt lat="28.7637750" lon="-17.8756570">
        <ele>2260.7</ele>
        <time>2020-11-16T12:50:32Z</time>
      </trkpt>
      <trkpt lat="28.7638000" lon="-17.8758720">
        <ele>2259.5</ele>
        <time>2020-11-16T12:50:33Z</time>
      </trkpt>
      <trkpt lat="28.7638120" lon="-17.8759870">
        <ele>2259.0</ele>
        <time>2020-11-16T12:50:34Z</time>
      </trkpt>
      <trkpt lat="28.7638120" lon="-17.8759870">
        <ele>2259.0</ele>
        <time>2020-11-16T12:50:35Z</time>
      </trkpt>
      <trkpt lat="28.7638550" lon="-17.8762120">
        <ele>2258.0</ele>
        <time>2020-11-16T12:50:36Z</time>
      </trkpt>
      <trkpt lat="28.7639050" lon="-17.8763180">
        <ele>2257.6</ele>
        <time>2020-11-16T12:50:37Z</time>
      </trkpt>
      <trkpt lat="28.7639720" lon="-17.8764170">
        <ele>2257.1</ele>
        <time>2020-11-16T12:50:38Z</time>
      </trkpt>
      <trkpt lat="28.7639720" lon="-17.8764170">
        <ele>2257.1</ele>
        <time>2020-11-16T12:50:39Z</time>
      </trkpt>
      <trkpt lat="28.7641000" lon="-17.8766070">
        <ele>2256.2</ele>
        <time>2020-11-16T12:50:40Z</time>
      </trkpt>
      <trkpt lat="28.7641000" lon="-17.8766070">
        <ele>2256.2</ele>
        <time>2020-11-16T12:50:41Z</time>
      </trkpt>
      <trkpt lat="28.7642230" lon="-17.8768030">
        <ele>2255.4</ele>
        <time>2020-11-16T12:50:42Z</time>
      </trkpt>
      <trkpt lat="28.7642230" lon="-17.8768030">
        <ele>2255.4</ele>
        <time>2020-11-16T12:50:43Z</time>
      </trkpt>
      <trkpt lat="28.7643470" lon="-17.8769980">
        <ele>2254.6</ele>
        <time>2020-11-16T12:50:44Z</time>
      </trkpt>
      <trkpt lat="28.7643470" lon="-17.8769980">
        <ele>2254.6</ele>
        <time>2020-11-16T12:50:45Z</time>
      </trkpt>
      <trkpt lat="28.7644350" lon="-17.8771900">
        <ele>2253.8</ele>
        <time>2020-11-16T12:50:46Z</time>
      </trkpt>
      <trkpt lat="28.7644350" lon="-17.8771900">
        <ele>2253.8</ele>
        <time>2020-11-16T12:50:47Z</time>
      </trkpt>
      <trkpt lat="28.7644050" lon="-17.8773680">
        <ele>2252.9</ele>
        <time>2020-11-16T12:50:48Z</time>
      </trkpt>
      <trkpt lat="28.7644050" lon="-17.8773680">
        <ele>2252.9</ele>
        <time>2020-11-16T12:50:49Z</time>
      </trkpt>
      <trkpt lat="28.7642680" lon="-17.8774970">
        <ele>2251.8</ele>
        <time>2020-11-16T12:50:50Z</time>
      </trkpt>
      <trkpt lat="28.7642680" lon="-17.8774970">
        <ele>2251.8</ele>
        <time>2020-11-16T12:50:51Z</time>
      </trkpt>
      <trkpt lat="28.7641150" lon="-17.8776200">
        <ele>2250.7</ele>
        <time>2020-11-16T12:50:52Z</time>
      </trkpt>
      <trkpt lat="28.7640570" lon="-17.8777080">
        <ele>2250.2</ele>
        <time>2020-11-16T12:50:53Z</time>
      </trkpt>
      <trkpt lat="28.7640130" lon="-17.8778080">
        <ele>2249.9</ele>
        <time>2020-11-16T12:50:54Z</time>
      </trkpt>
      <trkpt lat="28.7640130" lon="-17.8778080">
        <ele>2249.9</ele>
        <time>2020-11-16T12:50:55Z</time>
      </trkpt>
      <trkpt lat="28.7639380" lon="-17.8780070">
        <ele>2249.2</ele>
        <time>2020-11-16T12:50:56Z</time>
      </trkpt>
      <trkpt lat="28.7639380" lon="-17.8780070">
        <ele>2249.2</ele>
        <time>2020-11-16T12:50:57Z</time>
      </trkpt>
      <trkpt lat="28.7638470" lon="-17.8781980">
        <ele>2248.6</ele>
        <time>2020-11-16T12:50:58Z</time>
      </trkpt>
      <trkpt lat="28.7638470" lon="-17.8781980">
        <ele>2248.6</ele>
        <time>2020-11-16T12:50:59Z</time>
      </trkpt>
      <trkpt lat="28.7637670" lon="-17.8784020">
        <ele>2248.0</ele>
        <time>2020-11-16T12:51:00Z</time>
      </trkpt>
      <trkpt lat="28.7637580" lon="-17.8785080">
        <ele>2247.7</ele>
        <time>2020-11-16T12:51:01Z</time>
      </trkpt>
      <trkpt lat="28.7638120" lon="-17.8786330">
        <ele>2247.3</ele>
        <time>2020-11-16T12:51:02Z</time>
      </trkpt>
      <trkpt lat="28.7638120" lon="-17.8786330">
        <ele>2247.3</ele>
        <time>2020-11-16T12:51:03Z</time>
      </trkpt>
      <trkpt lat="28.7638870" lon="-17.8788470">
        <ele>2246.7</ele>
        <time>2020-11-16T12:51:04Z</time>
      </trkpt>
      <trkpt lat="28.7639100" lon="-17.8789550">
        <ele>2246.4</ele>
        <time>2020-11-16T12:51:05Z</time>
      </trkpt>
      <trkpt lat="28.7639100" lon="-17.8789550">
        <ele>2246.4</ele>
        <time>2020-11-16T12:51:06Z</time>
      </trkpt>
      <trkpt lat="28.7639400" lon="-17.8791750">
        <ele>2245.7</ele>
        <time>2020-11-16T12:51:07Z</time>
      </trkpt>
      <trkpt lat="28.7639630" lon="-17.8792800">
        <ele>2245.3</ele>
        <time>2020-11-16T12:51:08Z</time>
      </trkpt>
      <trkpt lat="28.7639630" lon="-17.8792800">
        <ele>2245.3</ele>
        <time>2020-11-16T12:51:09Z</time>
      </trkpt>
      <trkpt lat="28.7640780" lon="-17.8794530">
        <ele>2244.2</ele>
        <time>2020-11-16T12:51:10Z</time>
      </trkpt>
      <trkpt lat="28.7640780" lon="-17.8794530">
        <ele>2244.2</ele>
        <time>2020-11-16T12:51:11Z</time>
      </trkpt>
      <trkpt lat="28.7642180" lon="-17.8795980">
        <ele>2243.3</ele>
        <time>2020-11-16T12:51:12Z</time>
      </trkpt>
      <trkpt lat="28.7642180" lon="-17.8795980">
        <ele>2243.3</ele>
        <time>2020-11-16T12:51:13Z</time>
      </trkpt>
      <trkpt lat="28.7643200" lon="-17.8797730">
        <ele>2242.8</ele>
        <time>2020-11-16T12:51:14Z</time>
      </trkpt>
      <trkpt lat="28.7643200" lon="-17.8797730">
        <ele>2242.8</ele>
        <time>2020-11-16T12:51:15Z</time>
      </trkpt>
      <trkpt lat="28.7643800" lon="-17.8799550">
        <ele>2242.2</ele>
        <time>2020-11-16T12:51:16Z</time>
      </trkpt>
      <trkpt lat="28.7643800" lon="-17.8799550">
        <ele>2242.2</ele>
        <time>2020-11-16T12:51:17Z</time>
      </trkpt>
      <trkpt lat="28.7643550" lon="-17.8801230">
        <ele>2241.7</ele>
        <time>2020-11-16T12:51:18Z</time>
      </trkpt>
      <trkpt lat="28.7643550" lon="-17.8801230">
        <ele>2241.7</ele>
        <time>2020-11-16T12:51:19Z</time>
      </trkpt>
      <trkpt lat="28.7642480" lon="-17.8802180">
        <ele>2241.2</ele>
        <time>2020-11-16T12:51:20Z</time>
      </trkpt>
      <trkpt lat="28.7642480" lon="-17.8802180">
        <ele>2241.2</ele>
        <time>2020-11-16T12:51:21Z</time>
      </trkpt>
      <trkpt lat="28.7641020" lon="-17.8802650">
        <ele>2240.6</ele>
        <time>2020-11-16T12:51:22Z</time>
      </trkpt>
      <trkpt lat="28.7641020" lon="-17.8802650">
        <ele>2240.6</ele>
        <time>2020-11-16T12:51:23Z</time>
      </trkpt>
      <trkpt lat="28.7639530" lon="-17.8803250">
        <ele>2239.7</ele>
        <time>2020-11-16T12:51:24Z</time>
      </trkpt>
      <trkpt lat="28.7639530" lon="-17.8803250">
        <ele>2239.7</ele>
        <time>2020-11-16T12:51:25Z</time>
      </trkpt>
      <trkpt lat="28.7638050" lon="-17.8803900">
        <ele>2239.0</ele>
        <time>2020-11-16T12:51:26Z</time>
      </trkpt>
      <trkpt lat="28.7638050" lon="-17.8803900">
        <ele>2239.0</ele>
        <time>2020-11-16T12:51:27Z</time>
      </trkpt>
      <trkpt lat="28.7636520" lon="-17.8804420">
        <ele>2238.5</ele>
        <time>2020-11-16T12:51:28Z</time>
      </trkpt>
      <trkpt lat="28.7636520" lon="-17.8804420">
        <ele>2238.5</ele>
        <time>2020-11-16T12:51:29Z</time>
      </trkpt>
      <trkpt lat="28.7635200" lon="-17.8805570">
        <ele>2238.0</ele>
        <time>2020-11-16T12:51:30Z</time>
      </trkpt>
      <trkpt lat="28.7635200" lon="-17.8805570">
        <ele>2238.0</ele>
        <time>2020-11-16T12:51:31Z</time>
      </trkpt>
      <trkpt lat="28.7634530" lon="-17.8807230">
        <ele>2237.6</ele>
        <time>2020-11-16T12:51:32Z</time>
      </trkpt>
      <trkpt lat="28.7634530" lon="-17.8807230">
        <ele>2237.6</ele>
        <time>2020-11-16T12:51:33Z</time>
      </trkpt>
      <trkpt lat="28.7633650" lon="-17.8808570">
        <ele>2237.6</ele>
        <time>2020-11-16T12:51:34Z</time>
      </trkpt>
      <trkpt lat="28.7633650" lon="-17.8808570">
        <ele>2237.6</ele>
        <time>2020-11-16T12:51:35Z</time>
      </trkpt>
      <trkpt lat="28.7632180" lon="-17.8808700">
        <ele>2237.4</ele>
        <time>2020-11-16T12:51:36Z</time>
      </trkpt>
      <trkpt lat="28.7632180" lon="-17.8808700">
        <ele>2237.4</ele>
        <time>2020-11-16T12:51:37Z</time>
      </trkpt>
      <trkpt lat="28.7630650" lon="-17.8808270">
        <ele>2237.0</ele>
        <time>2020-11-16T12:51:38Z</time>
      </trkpt>
      <trkpt lat="28.7630650" lon="-17.8808270">
        <ele>2237.0</ele>
        <time>2020-11-16T12:51:39Z</time>
      </trkpt>
      <trkpt lat="28.7629230" lon="-17.8808980">
        <ele>2236.3</ele>
        <time>2020-11-16T12:51:40Z</time>
      </trkpt>
      <trkpt lat="28.7629230" lon="-17.8808980">
        <ele>2236.3</ele>
        <time>2020-11-16T12:51:41Z</time>
      </trkpt>
      <trkpt lat="28.7628330" lon="-17.8810470">
        <ele>2235.0</ele>
        <time>2020-11-16T12:51:42Z</time>
      </trkpt>
      <trkpt lat="28.7628250" lon="-17.8811380">
        <ele>2234.4</ele>
        <time>2020-11-16T12:51:43Z</time>
      </trkpt>
      <trkpt lat="28.7628370" lon="-17.8812330">
        <ele>2233.9</ele>
        <time>2020-11-16T12:51:44Z</time>
      </trkpt>
      <trkpt lat="28.7628370" lon="-17.8812330">
        <ele>2233.9</ele>
        <time>2020-11-16T12:51:45Z</time>
      </trkpt>
      <trkpt lat="28.7628880" lon="-17.8814230">
        <ele>2233.1</ele>
        <time>2020-11-16T12:51:46Z</time>
      </trkpt>
      <trkpt lat="28.7629180" lon="-17.8815150">
        <ele>2232.6</ele>
        <time>2020-11-16T12:51:47Z</time>
      </trkpt>
      <trkpt lat="28.7629180" lon="-17.8815150">
        <ele>2232.6</ele>
        <time>2020-11-16T12:51:48Z</time>
      </trkpt>
      <trkpt lat="28.7630080" lon="-17.8816870">
        <ele>2231.2</ele>
        <time>2020-11-16T12:51:49Z</time>
      </trkpt>
      <trkpt lat="28.7630080" lon="-17.8816870">
        <ele>2231.2</ele>
        <time>2020-11-16T12:51:50Z</time>
      </trkpt>
      <trkpt lat="28.7631320" lon="-17.8818380">
        <ele>2229.5</ele>
        <time>2020-11-16T12:51:51Z</time>
      </trkpt>
      <trkpt lat="28.7631320" lon="-17.8818380">
        <ele>2229.5</ele>
        <time>2020-11-16T12:51:52Z</time>
      </trkpt>
      <trkpt lat="28.7632700" lon="-17.8819830">
        <ele>2227.8</ele>
        <time>2020-11-16T12:51:53Z</time>
      </trkpt>
      <trkpt lat="28.7632700" lon="-17.8819830">
        <ele>2227.8</ele>
        <time>2020-11-16T12:51:54Z</time>
      </trkpt>
      <trkpt lat="28.7634080" lon="-17.8821420">
        <ele>2225.9</ele>
        <time>2020-11-16T12:51:55Z</time>
      </trkpt>
      <trkpt lat="28.7634080" lon="-17.8821420">
        <ele>2225.9</ele>
        <time>2020-11-16T12:51:56Z</time>
      </trkpt>
      <trkpt lat="28.7635420" lon="-17.8823130">
        <ele>2223.9</ele>
        <time>2020-11-16T12:51:57Z</time>
      </trkpt>
      <trkpt lat="28.7635420" lon="-17.8823130">
        <ele>2223.9</ele>
        <time>2020-11-16T12:51:58Z</time>
      </trkpt>
      <trkpt lat="28.7636780" lon="-17.8824870">
        <ele>2222.2</ele>
        <time>2020-11-16T12:51:59Z</time>
      </trkpt>
      <trkpt lat="28.7636780" lon="-17.8824870">
        <ele>2222.2</ele>
        <time>2020-11-16T12:52:00Z</time>
      </trkpt>
      <trkpt lat="28.7638070" lon="-17.8826880">
        <ele>2220.4</ele>
        <time>2020-11-16T12:52:01Z</time>
      </trkpt>
      <trkpt lat="28.7638070" lon="-17.8826880">
        <ele>2220.4</ele>
        <time>2020-11-16T12:52:02Z</time>
      </trkpt>
      <trkpt lat="28.7639130" lon="-17.8829150">
        <ele>2219.0</ele>
        <time>2020-11-16T12:52:03Z</time>
      </trkpt>
      <trkpt lat="28.7639130" lon="-17.8829150">
        <ele>2219.0</ele>
        <time>2020-11-16T12:52:04Z</time>
      </trkpt>
      <trkpt lat="28.7639880" lon="-17.8831620">
        <ele>2217.6</ele>
        <time>2020-11-16T12:52:05Z</time>
      </trkpt>
      <trkpt lat="28.7639880" lon="-17.8831620">
        <ele>2217.6</ele>
        <time>2020-11-16T12:52:06Z</time>
      </trkpt>
      <trkpt lat="28.7640930" lon="-17.8834020">
        <ele>2216.3</ele>
        <time>2020-11-16T12:52:07Z</time>
      </trkpt>
      <trkpt lat="28.7640930" lon="-17.8834020">
        <ele>2216.3</ele>
        <time>2020-11-16T12:52:08Z</time>
      </trkpt>
      <trkpt lat="28.7642830" lon="-17.8835870">
        <ele>2214.6</ele>
        <time>2020-11-16T12:52:09Z</time>
      </trkpt>
      <trkpt lat="28.7642830" lon="-17.8835870">
        <ele>2214.6</ele>
        <time>2020-11-16T12:52:10Z</time>
      </trkpt>
      <trkpt lat="28.7644880" lon="-17.8837630">
        <ele>2212.4</ele>
        <time>2020-11-16T12:52:11Z</time>
      </trkpt>
      <trkpt lat="28.7644880" lon="-17.8837630">
        <ele>2212.4</ele>
        <time>2020-11-16T12:52:12Z</time>
      </trkpt>
      <trkpt lat="28.7646780" lon="-17.8839470">
        <ele>2210.5</ele>
        <time>2020-11-16T12:52:13Z</time>
      </trkpt>
      <trkpt lat="28.7646780" lon="-17.8839470">
        <ele>2210.5</ele>
        <time>2020-11-16T12:52:14Z</time>
      </trkpt>
      <trkpt lat="28.7648870" lon="-17.8840700">
        <ele>2208.7</ele>
        <time>2020-11-16T12:52:15Z</time>
      </trkpt>
      <trkpt lat="28.7648870" lon="-17.8840700">
        <ele>2208.7</ele>
        <time>2020-11-16T12:52:16Z</time>
      </trkpt>
      <trkpt lat="28.7650530" lon="-17.8841730">
        <ele>2207.5</ele>
        <time>2020-11-16T12:52:17Z</time>
      </trkpt>
      <trkpt lat="28.7651130" lon="-17.8842450">
        <ele>2206.9</ele>
        <time>2020-11-16T12:52:18Z</time>
      </trkpt>
      <trkpt lat="28.7651130" lon="-17.8842450">
        <ele>2206.9</ele>
        <time>2020-11-16T12:52:19Z</time>
      </trkpt>
      <trkpt lat="28.7651920" lon="-17.8844480">
        <ele>2205.5</ele>
        <time>2020-11-16T12:52:20Z</time>
      </trkpt>
      <trkpt lat="28.7651920" lon="-17.8844480">
        <ele>2205.5</ele>
        <time>2020-11-16T12:52:21Z</time>
      </trkpt>
      <trkpt lat="28.7652220" lon="-17.8846820">
        <ele>2203.9</ele>
        <time>2020-11-16T12:52:22Z</time>
      </trkpt>
      <trkpt lat="28.7652180" lon="-17.8848080">
        <ele>2203.0</ele>
        <time>2020-11-16T12:52:23Z</time>
      </trkpt>
      <trkpt lat="28.7652180" lon="-17.8848080">
        <ele>2203.0</ele>
        <time>2020-11-16T12:52:24Z</time>
      </trkpt>
      <trkpt lat="28.7651900" lon="-17.8850650">
        <ele>2201.2</ele>
        <time>2020-11-16T12:52:25Z</time>
      </trkpt>
      <trkpt lat="28.7651900" lon="-17.8850650">
        <ele>2201.2</ele>
        <time>2020-11-16T12:52:26Z</time>
      </trkpt>
      <trkpt lat="28.7651570" lon="-17.8853200">
        <ele>2199.6</ele>
        <time>2020-11-16T12:52:27Z</time>
      </trkpt>
      <trkpt lat="28.7651570" lon="-17.8853200">
        <ele>2199.6</ele>
        <time>2020-11-16T12:52:28Z</time>
      </trkpt>
      <trkpt lat="28.7651030" lon="-17.8855580">
        <ele>2198.6</ele>
        <time>2020-11-16T12:52:29Z</time>
      </trkpt>
      <trkpt lat="28.7651030" lon="-17.8855580">
        <ele>2198.6</ele>
        <time>2020-11-16T12:52:30Z</time>
      </trkpt>
      <trkpt lat="28.7649670" lon="-17.8857470">
        <ele>2198.1</ele>
        <time>2020-11-16T12:52:31Z</time>
      </trkpt>
      <trkpt lat="28.7648850" lon="-17.8858220">
        <ele>2198.0</ele>
        <time>2020-11-16T12:52:32Z</time>
      </trkpt>
      <trkpt lat="28.7648850" lon="-17.8858220">
        <ele>2198.0</ele>
        <time>2020-11-16T12:52:33Z</time>
      </trkpt>
      <trkpt lat="28.7647180" lon="-17.8859500">
        <ele>2198.0</ele>
        <time>2020-11-16T12:52:34Z</time>
      </trkpt>
      <trkpt lat="28.7647180" lon="-17.8859500">
        <ele>2198.0</ele>
        <time>2020-11-16T12:52:35Z</time>
      </trkpt>
      <trkpt lat="28.7645650" lon="-17.8860780">
        <ele>2197.5</ele>
        <time>2020-11-16T12:52:36Z</time>
      </trkpt>
      <trkpt lat="28.7644880" lon="-17.8861370">
        <ele>2196.9</ele>
        <time>2020-11-16T12:52:37Z</time>
      </trkpt>
      <trkpt lat="28.7644880" lon="-17.8861370">
        <ele>2196.9</ele>
        <time>2020-11-16T12:52:38Z</time>
      </trkpt>
      <trkpt lat="28.7643470" lon="-17.8862450">
        <ele>2195.8</ele>
        <time>2020-11-16T12:52:39Z</time>
      </trkpt>
      <trkpt lat="28.7643470" lon="-17.8862450">
        <ele>2195.8</ele>
        <time>2020-11-16T12:52:40Z</time>
      </trkpt>
      <trkpt lat="28.7642300" lon="-17.8863800">
        <ele>2194.7</ele>
        <time>2020-11-16T12:52:41Z</time>
      </trkpt>
      <trkpt lat="28.7642300" lon="-17.8863800">
        <ele>2194.7</ele>
        <time>2020-11-16T12:52:42Z</time>
      </trkpt>
      <trkpt lat="28.7641270" lon="-17.8865350">
        <ele>2193.6</ele>
        <time>2020-11-16T12:52:43Z</time>
      </trkpt>
      <trkpt lat="28.7641270" lon="-17.8865350">
        <ele>2193.6</ele>
        <time>2020-11-16T12:52:44Z</time>
      </trkpt>
      <trkpt lat="28.7640270" lon="-17.8866970">
        <ele>2192.4</ele>
        <time>2020-11-16T12:52:45Z</time>
      </trkpt>
      <trkpt lat="28.7640270" lon="-17.8866970">
        <ele>2192.4</ele>
        <time>2020-11-16T12:52:46Z</time>
      </trkpt>
      <trkpt lat="28.7639580" lon="-17.8868850">
        <ele>2191.2</ele>
        <time>2020-11-16T12:52:47Z</time>
      </trkpt>
      <trkpt lat="28.7639800" lon="-17.8870030">
        <ele>2190.5</ele>
        <time>2020-11-16T12:52:48Z</time>
      </trkpt>
      <trkpt lat="28.7639800" lon="-17.8870030">
        <ele>2190.5</ele>
        <time>2020-11-16T12:52:49Z</time>
      </trkpt>
      <trkpt lat="28.7640530" lon="-17.8872100">
        <ele>2189.2</ele>
        <time>2020-11-16T12:52:50Z</time>
      </trkpt>
      <trkpt lat="28.7640530" lon="-17.8872100">
        <ele>2189.2</ele>
        <time>2020-11-16T12:52:51Z</time>
      </trkpt>
      <trkpt lat="28.7642030" lon="-17.8873770">
        <ele>2187.8</ele>
        <time>2020-11-16T12:52:52Z</time>
      </trkpt>
      <trkpt lat="28.7642030" lon="-17.8873770">
        <ele>2187.8</ele>
        <time>2020-11-16T12:52:53Z</time>
      </trkpt>
      <trkpt lat="28.7643750" lon="-17.8875470">
        <ele>2186.3</ele>
        <time>2020-11-16T12:52:54Z</time>
      </trkpt>
      <trkpt lat="28.7643750" lon="-17.8875470">
        <ele>2186.3</ele>
        <time>2020-11-16T12:52:55Z</time>
      </trkpt>
      <trkpt lat="28.7645480" lon="-17.8877280">
        <ele>2184.7</ele>
        <time>2020-11-16T12:52:56Z</time>
      </trkpt>
      <trkpt lat="28.7645480" lon="-17.8877280">
        <ele>2184.7</ele>
        <time>2020-11-16T12:52:57Z</time>
      </trkpt>
      <trkpt lat="28.7647080" lon="-17.8879120">
        <ele>2183.2</ele>
        <time>2020-11-16T12:52:58Z</time>
      </trkpt>
      <trkpt lat="28.7647080" lon="-17.8879120">
        <ele>2183.2</ele>
        <time>2020-11-16T12:52:59Z</time>
      </trkpt>
      <trkpt lat="28.7648070" lon="-17.8881130">
        <ele>2181.9</ele>
        <time>2020-11-16T12:53:00Z</time>
      </trkpt>
      <trkpt lat="28.7648070" lon="-17.8881130">
        <ele>2181.9</ele>
        <time>2020-11-16T12:53:01Z</time>
      </trkpt>
      <trkpt lat="28.7648320" lon="-17.8883480">
        <ele>2180.5</ele>
        <time>2020-11-16T12:53:02Z</time>
      </trkpt>
      <trkpt lat="28.7648320" lon="-17.8883480">
        <ele>2180.5</ele>
        <time>2020-11-16T12:53:03Z</time>
      </trkpt>
      <trkpt lat="28.7648420" lon="-17.8885880">
        <ele>2179.1</ele>
        <time>2020-11-16T12:53:04Z</time>
      </trkpt>
      <trkpt lat="28.7648420" lon="-17.8885880">
        <ele>2179.1</ele>
        <time>2020-11-16T12:53:05Z</time>
      </trkpt>
      <trkpt lat="28.7648520" lon="-17.8888350">
        <ele>2177.6</ele>
        <time>2020-11-16T12:53:06Z</time>
      </trkpt>
      <trkpt lat="28.7648520" lon="-17.8888350">
        <ele>2177.6</ele>
        <time>2020-11-16T12:53:07Z</time>
      </trkpt>
      <trkpt lat="28.7648550" lon="-17.8890870">
        <ele>2176.2</ele>
        <time>2020-11-16T12:53:08Z</time>
      </trkpt>
      <trkpt lat="28.7648550" lon="-17.8890870">
        <ele>2176.2</ele>
        <time>2020-11-16T12:53:09Z</time>
      </trkpt>
      <trkpt lat="28.7648480" lon="-17.8893280">
        <ele>2174.8</ele>
        <time>2020-11-16T12:53:10Z</time>
      </trkpt>
      <trkpt lat="28.7648380" lon="-17.8894420">
        <ele>2174.1</ele>
        <time>2020-11-16T12:53:11Z</time>
      </trkpt>
      <trkpt lat="28.7648380" lon="-17.8894420">
        <ele>2174.1</ele>
        <time>2020-11-16T12:53:12Z</time>
      </trkpt>
      <trkpt lat="28.7647730" lon="-17.8896380">
        <ele>2172.9</ele>
        <time>2020-11-16T12:53:13Z</time>
      </trkpt>
      <trkpt lat="28.7647130" lon="-17.8897180">
        <ele>2172.3</ele>
        <time>2020-11-16T12:53:14Z</time>
      </trkpt>
      <trkpt lat="28.7647130" lon="-17.8897180">
        <ele>2172.3</ele>
        <time>2020-11-16T12:53:15Z</time>
      </trkpt>
      <trkpt lat="28.7645800" lon="-17.8898580">
        <ele>2171.1</ele>
        <time>2020-11-16T12:53:16Z</time>
      </trkpt>
      <trkpt lat="28.7645800" lon="-17.8898580">
        <ele>2171.1</ele>
        <time>2020-11-16T12:53:17Z</time>
      </trkpt>
      <trkpt lat="28.7644550" lon="-17.8899970">
        <ele>2169.9</ele>
        <time>2020-11-16T12:53:18Z</time>
      </trkpt>
      <trkpt lat="28.7644550" lon="-17.8899970">
        <ele>2169.9</ele>
        <time>2020-11-16T12:53:19Z</time>
      </trkpt>
      <trkpt lat="28.7643270" lon="-17.8901430">
        <ele>2168.7</ele>
        <time>2020-11-16T12:53:20Z</time>
      </trkpt>
      <trkpt lat="28.7643270" lon="-17.8901430">
        <ele>2168.7</ele>
        <time>2020-11-16T12:53:21Z</time>
      </trkpt>
      <trkpt lat="28.7641880" lon="-17.8902850">
        <ele>2167.4</ele>
        <time>2020-11-16T12:53:22Z</time>
      </trkpt>
      <trkpt lat="28.7641880" lon="-17.8902850">
        <ele>2167.4</ele>
        <time>2020-11-16T12:53:23Z</time>
      </trkpt>
      <trkpt lat="28.7640530" lon="-17.8904350">
        <ele>2166.2</ele>
        <time>2020-11-16T12:53:24Z</time>
      </trkpt>
      <trkpt lat="28.7639880" lon="-17.8905130">
        <ele>2165.6</ele>
        <time>2020-11-16T12:53:25Z</time>
      </trkpt>
      <trkpt lat="28.7639880" lon="-17.8905130">
        <ele>2165.6</ele>
        <time>2020-11-16T12:53:26Z</time>
      </trkpt>
      <trkpt lat="28.7638450" lon="-17.8906580">
        <ele>2164.3</ele>
        <time>2020-11-16T12:53:27Z</time>
      </trkpt>
      <trkpt lat="28.7638450" lon="-17.8906580">
        <ele>2164.3</ele>
        <time>2020-11-16T12:53:28Z</time>
      </trkpt>
      <trkpt lat="28.7636780" lon="-17.8907700">
        <ele>2163.0</ele>
        <time>2020-11-16T12:53:29Z</time>
      </trkpt>
      <trkpt lat="28.7636780" lon="-17.8907700">
        <ele>2163.0</ele>
        <time>2020-11-16T12:53:30Z</time>
      </trkpt>
      <trkpt lat="28.7634870" lon="-17.8908420">
        <ele>2161.7</ele>
        <time>2020-11-16T12:53:31Z</time>
      </trkpt>
      <trkpt lat="28.7633880" lon="-17.8908680">
        <ele>2161.0</ele>
        <time>2020-11-16T12:53:32Z</time>
      </trkpt>
      <trkpt lat="28.7633880" lon="-17.8908680">
        <ele>2161.0</ele>
        <time>2020-11-16T12:53:33Z</time>
      </trkpt>
      <trkpt lat="28.7632020" lon="-17.8909420">
        <ele>2159.7</ele>
        <time>2020-11-16T12:53:34Z</time>
      </trkpt>
      <trkpt lat="28.7632020" lon="-17.8909420">
        <ele>2159.7</ele>
        <time>2020-11-16T12:53:35Z</time>
      </trkpt>
      <trkpt lat="28.7631020" lon="-17.8910830">
        <ele>2158.6</ele>
        <time>2020-11-16T12:53:36Z</time>
      </trkpt>
      <trkpt lat="28.7631020" lon="-17.8910830">
        <ele>2158.6</ele>
        <time>2020-11-16T12:53:37Z</time>
      </trkpt>
      <trkpt lat="28.7631480" lon="-17.8912420">
        <ele>2157.6</ele>
        <time>2020-11-16T12:53:38Z</time>
      </trkpt>
      <trkpt lat="28.7632000" lon="-17.8913100">
        <ele>2157.1</ele>
        <time>2020-11-16T12:53:39Z</time>
      </trkpt>
      <trkpt lat="28.7632000" lon="-17.8913100">
        <ele>2157.1</ele>
        <time>2020-11-16T12:53:40Z</time>
      </trkpt>
      <trkpt lat="28.7633150" lon="-17.8914520">
        <ele>2156.0</ele>
        <time>2020-11-16T12:53:41Z</time>
      </trkpt>
      <trkpt lat="28.7633150" lon="-17.8914520">
        <ele>2156.0</ele>
        <time>2020-11-16T12:53:42Z</time>
      </trkpt>
      <trkpt lat="28.7634400" lon="-17.8916030">
        <ele>2154.8</ele>
        <time>2020-11-16T12:53:43Z</time>
      </trkpt>
      <trkpt lat="28.7634400" lon="-17.8916030">
        <ele>2154.8</ele>
        <time>2020-11-16T12:53:44Z</time>
      </trkpt>
      <trkpt lat="28.7635750" lon="-17.8917650">
        <ele>2153.5</ele>
        <time>2020-11-16T12:53:45Z</time>
      </trkpt>
      <trkpt lat="28.7635750" lon="-17.8917650">
        <ele>2153.5</ele>
        <time>2020-11-16T12:53:46Z</time>
      </trkpt>
      <trkpt lat="28.7637150" lon="-17.8919400">
        <ele>2152.1</ele>
        <time>2020-11-16T12:53:47Z</time>
      </trkpt>
      <trkpt lat="28.7637150" lon="-17.8919400">
        <ele>2152.1</ele>
        <time>2020-11-16T12:53:48Z</time>
      </trkpt>
      <trkpt lat="28.7638650" lon="-17.8921270">
        <ele>2150.6</ele>
        <time>2020-11-16T12:53:49Z</time>
      </trkpt>
      <trkpt lat="28.7639470" lon="-17.8922200">
        <ele>2149.8</ele>
        <time>2020-11-16T12:53:50Z</time>
      </trkpt>
      <trkpt lat="28.7639470" lon="-17.8922200">
        <ele>2149.8</ele>
        <time>2020-11-16T12:53:51Z</time>
      </trkpt>
      <trkpt lat="28.7641150" lon="-17.8924100">
        <ele>2148.3</ele>
        <time>2020-11-16T12:53:52Z</time>
      </trkpt>
      <trkpt lat="28.7641980" lon="-17.8925020">
        <ele>2147.5</ele>
        <time>2020-11-16T12:53:53Z</time>
      </trkpt>
      <trkpt lat="28.7642780" lon="-17.8925920">
        <ele>2146.7</ele>
        <time>2020-11-16T12:53:54Z</time>
      </trkpt>
      <trkpt lat="28.7642780" lon="-17.8925920">
        <ele>2146.7</ele>
        <time>2020-11-16T12:53:55Z</time>
      </trkpt>
      <trkpt lat="28.7644270" lon="-17.8927800">
        <ele>2145.3</ele>
        <time>2020-11-16T12:53:56Z</time>
      </trkpt>
      <trkpt lat="28.7644920" lon="-17.8928820">
        <ele>2144.5</ele>
        <time>2020-11-16T12:53:57Z</time>
      </trkpt>
      <trkpt lat="28.7644920" lon="-17.8928820">
        <ele>2144.5</ele>
        <time>2020-11-16T12:53:58Z</time>
      </trkpt>
      <trkpt lat="28.7646070" lon="-17.8930830">
        <ele>2143.1</ele>
        <time>2020-11-16T12:53:59Z</time>
      </trkpt>
      <trkpt lat="28.7646070" lon="-17.8930830">
        <ele>2143.1</ele>
        <time>2020-11-16T12:54:00Z</time>
      </trkpt>
      <trkpt lat="28.7647070" lon="-17.8932500">
        <ele>2141.9</ele>
        <time>2020-11-16T12:54:01Z</time>
      </trkpt>
      <trkpt lat="28.7647470" lon="-17.8933230">
        <ele>2141.4</ele>
        <time>2020-11-16T12:54:02Z</time>
      </trkpt>
      <trkpt lat="28.7647470" lon="-17.8933230">
        <ele>2141.4</ele>
        <time>2020-11-16T12:54:03Z</time>
      </trkpt>
      <trkpt lat="28.7648050" lon="-17.8934670">
        <ele>2140.5</ele>
        <time>2020-11-16T12:54:04Z</time>
      </trkpt>
      <trkpt lat="28.7648050" lon="-17.8934670">
        <ele>2140.5</ele>
        <time>2020-11-16T12:54:05Z</time>
      </trkpt>
      <trkpt lat="28.7647850" lon="-17.8936100">
        <ele>2139.7</ele>
        <time>2020-11-16T12:54:06Z</time>
      </trkpt>
      <trkpt lat="28.7647850" lon="-17.8936100">
        <ele>2139.8</ele>
        <time>2020-11-16T12:54:07Z</time>
      </trkpt>
      <trkpt lat="28.7646850" lon="-17.8937220">
        <ele>2140.5</ele>
        <time>2020-11-16T12:54:08Z</time>
      </trkpt>
      <trkpt lat="28.7646850" lon="-17.8937220">
        <ele>2140.5</ele>
        <time>2020-11-16T12:54:09Z</time>
      </trkpt>
      <trkpt lat="28.7645680" lon="-17.8937900">
        <ele>2141.4</ele>
        <time>2020-11-16T12:54:10Z</time>
      </trkpt>
      <trkpt lat="28.7645680" lon="-17.8937900">
        <ele>2141.4</ele>
        <time>2020-11-16T12:54:11Z</time>
      </trkpt>
      <trkpt lat="28.7644820" lon="-17.8938650">
        <ele>2142.1</ele>
        <time>2020-11-16T12:54:12Z</time>
      </trkpt>
      <trkpt lat="28.7644480" lon="-17.8939000">
        <ele>2142.5</ele>
        <time>2020-11-16T12:54:13Z</time>
      </trkpt>
      <trkpt lat="28.7644480" lon="-17.8939000">
        <ele>2142.5</ele>
        <time>2020-11-16T12:54:14Z</time>
      </trkpt>
      <trkpt lat="28.7643930" lon="-17.8939650">
        <ele>2143.1</ele>
        <time>2020-11-16T12:54:15Z</time>
      </trkpt>
      <trkpt lat="28.7643930" lon="-17.8939650">
        <ele>2143.1</ele>
        <time>2020-11-16T12:54:16Z</time>
      </trkpt>
      <trkpt lat="28.7643450" lon="-17.8940200">
        <ele>2143.7</ele>
        <time>2020-11-16T12:54:17Z</time>
      </trkpt>
      <trkpt lat="28.7643450" lon="-17.8940200">
        <ele>2143.7</ele>
        <time>2020-11-16T12:54:18Z</time>
      </trkpt>
      <trkpt lat="28.7643100" lon="-17.8940800">
        <ele>2144.3</ele>
        <time>2020-11-16T12:54:19Z</time>
      </trkpt>
      <trkpt lat="28.7642880" lon="-17.8941080">
        <ele>2144.6</ele>
        <time>2020-11-16T12:54:20Z</time>
      </trkpt>
      <trkpt lat="28.7642880" lon="-17.8941080">
        <ele>2144.6</ele>
        <time>2020-11-16T12:54:21Z</time>
      </trkpt>
      <trkpt lat="28.7642430" lon="-17.8941550">
        <ele>2145.2</ele>
        <time>2020-11-16T12:54:22Z</time>
      </trkpt>
      <trkpt lat="28.7642200" lon="-17.8941730">
        <ele>2145.4</ele>
        <time>2020-11-16T12:54:23Z</time>
      </trkpt>
      <trkpt lat="28.7642200" lon="-17.8941730">
        <ele>2145.4</ele>
        <time>2020-11-16T12:54:24Z</time>
      </trkpt>
      <trkpt lat="28.7641670" lon="-17.8942030">
        <ele>2146.1</ele>
        <time>2020-11-16T12:54:25Z</time>
      </trkpt>
      <trkpt lat="28.7641380" lon="-17.8942220">
        <ele>2146.4</ele>
        <time>2020-11-16T12:54:26Z</time>
      </trkpt>
      <trkpt lat="28.7641380" lon="-17.8942220">
        <ele>2146.4</ele>
        <time>2020-11-16T12:54:27Z</time>
      </trkpt>
      <trkpt lat="28.7640880" lon="-17.8942530">
        <ele>2147.1</ele>
        <time>2020-11-16T12:54:28Z</time>
      </trkpt>
      <trkpt lat="28.7640620" lon="-17.8942650">
        <ele>2147.4</ele>
        <time>2020-11-16T12:54:29Z</time>
      </trkpt>
      <trkpt lat="28.7640620" lon="-17.8942650">
        <ele>2147.4</ele>
        <time>2020-11-16T12:54:30Z</time>
      </trkpt>
      <trkpt lat="28.7640150" lon="-17.8942870">
        <ele>2147.6</ele>
        <time>2020-11-16T12:54:31Z</time>
      </trkpt>
      <trkpt lat="28.7639920" lon="-17.8942950">
        <ele>2147.6</ele>
        <time>2020-11-16T12:54:32Z</time>
      </trkpt>
      <trkpt lat="28.7639670" lon="-17.8943030">
        <ele>2147.6</ele>
        <time>2020-11-16T12:54:33Z</time>
      </trkpt>
      <trkpt lat="28.7639670" lon="-17.8943030">
        <ele>2147.6</ele>
        <time>2020-11-16T12:54:34Z</time>
      </trkpt>
      <trkpt lat="28.7639200" lon="-17.8943150">
        <ele>2148.0</ele>
        <time>2020-11-16T12:54:35Z</time>
      </trkpt>
      <trkpt lat="28.7639200" lon="-17.8943150">
        <ele>2148.0</ele>
        <time>2020-11-16T12:54:36Z</time>
      </trkpt>
      <trkpt lat="28.7638750" lon="-17.8943250">
        <ele>2148.5</ele>
        <time>2020-11-16T12:54:37Z</time>
      </trkpt>
      <trkpt lat="28.7638520" lon="-17.8943250">
        <ele>2148.8</ele>
        <time>2020-11-16T12:54:38Z</time>
      </trkpt>
      <trkpt lat="28.7638520" lon="-17.8943250">
        <ele>2148.8</ele>
        <time>2020-11-16T12:54:39Z</time>
      </trkpt>
      <trkpt lat="28.7638050" lon="-17.8943230">
        <ele>2149.3</ele>
        <time>2020-11-16T12:54:40Z</time>
      </trkpt>
      <trkpt lat="28.7637820" lon="-17.8943220">
        <ele>2149.6</ele>
        <time>2020-11-16T12:54:41Z</time>
      </trkpt>
      <trkpt lat="28.7637820" lon="-17.8943220">
        <ele>2149.6</ele>
        <time>2020-11-16T12:54:42Z</time>
      </trkpt>
      <trkpt lat="28.7637370" lon="-17.8943220">
        <ele>2150.1</ele>
        <time>2020-11-16T12:54:43Z</time>
      </trkpt>
      <trkpt lat="28.7637130" lon="-17.8943180">
        <ele>2150.3</ele>
        <time>2020-11-16T12:54:44Z</time>
      </trkpt>
      <trkpt lat="28.7636920" lon="-17.8943150">
        <ele>2150.5</ele>
        <time>2020-11-16T12:54:45Z</time>
      </trkpt>
      <trkpt lat="28.7636920" lon="-17.8943150">
        <ele>2150.5</ele>
        <time>2020-11-16T12:54:46Z</time>
      </trkpt>
      <trkpt lat="28.7636500" lon="-17.8943070">
        <ele>2150.9</ele>
        <time>2020-11-16T12:54:47Z</time>
      </trkpt>
      <trkpt lat="28.7636500" lon="-17.8943070">
        <ele>2150.9</ele>
        <time>2020-11-16T12:54:48Z</time>
      </trkpt>
      <trkpt lat="28.7636080" lon="-17.8942980">
        <ele>2151.1</ele>
        <time>2020-11-16T12:54:49Z</time>
      </trkpt>
      <trkpt lat="28.7635870" lon="-17.8942970">
        <ele>2151.3</ele>
        <time>2020-11-16T12:54:50Z</time>
      </trkpt>
      <trkpt lat="28.7635870" lon="-17.8942970">
        <ele>2151.3</ele>
        <time>2020-11-16T12:54:51Z</time>
      </trkpt>
      <trkpt lat="28.7635430" lon="-17.8942970">
        <ele>2151.5</ele>
        <time>2020-11-16T12:54:52Z</time>
      </trkpt>
      <trkpt lat="28.7635430" lon="-17.8942970">
        <ele>2151.5</ele>
        <time>2020-11-16T12:54:53Z</time>
      </trkpt>
      <trkpt lat="28.7635030" lon="-17.8942920">
        <ele>2151.8</ele>
        <time>2020-11-16T12:54:54Z</time>
      </trkpt>
      <trkpt lat="28.7634820" lon="-17.8942900">
        <ele>2151.9</ele>
        <time>2020-11-16T12:54:55Z</time>
      </trkpt>
      <trkpt lat="28.7634820" lon="-17.8942900">
        <ele>2151.9</ele>
        <time>2020-11-16T12:54:56Z</time>
      </trkpt>
      <trkpt lat="28.7634380" lon="-17.8942900">
        <ele>2152.2</ele>
        <time>2020-11-16T12:54:57Z</time>
      </trkpt>
      <trkpt lat="28.7634380" lon="-17.8942900">
        <ele>2152.2</ele>
        <time>2020-11-16T12:54:58Z</time>
      </trkpt>
      <trkpt lat="28.7633930" lon="-17.8942870">
        <ele>2152.4</ele>
        <time>2020-11-16T12:54:59Z</time>
      </trkpt>
      <trkpt lat="28.7633720" lon="-17.8942850">
        <ele>2152.6</ele>
        <time>2020-11-16T12:55:00Z</time>
      </trkpt>
      <trkpt lat="28.7633720" lon="-17.8942850">
        <ele>2152.6</ele>
        <time>2020-11-16T12:55:01Z</time>
      </trkpt>
      <trkpt lat="28.7633300" lon="-17.8942820">
        <ele>2152.8</ele>
        <time>2020-11-16T12:55:02Z</time>
      </trkpt>
      <trkpt lat="28.7633080" lon="-17.8942780">
        <ele>2153.0</ele>
        <time>2020-11-16T12:55:03Z</time>
      </trkpt>
      <trkpt lat="28.7633080" lon="-17.8942780">
        <ele>2153.0</ele>
        <time>2020-11-16T12:55:04Z</time>
      </trkpt>
      <trkpt lat="28.7632620" lon="-17.8942650">
        <ele>2153.3</ele>
        <time>2020-11-16T12:55:05Z</time>
      </trkpt>
      <trkpt lat="28.7632380" lon="-17.8942620">
        <ele>2153.5</ele>
        <time>2020-11-16T12:55:06Z</time>
      </trkpt>
      <trkpt lat="28.7632380" lon="-17.8942620">
        <ele>2153.5</ele>
        <time>2020-11-16T12:55:07Z</time>
      </trkpt>
      <trkpt lat="28.7632000" lon="-17.8942580">
        <ele>2153.7</ele>
        <time>2020-11-16T12:55:08Z</time>
      </trkpt>
      <trkpt lat="28.7632000" lon="-17.8942580">
        <ele>2153.7</ele>
        <time>2020-11-16T12:55:09Z</time>
      </trkpt>
      <trkpt lat="28.7631600" lon="-17.8942520">
        <ele>2154.0</ele>
        <time>2020-11-16T12:55:10Z</time>
      </trkpt>
      <trkpt lat="28.7631600" lon="-17.8942520">
        <ele>2154.0</ele>
        <time>2020-11-16T12:55:11Z</time>
      </trkpt>
      <trkpt lat="28.7631180" lon="-17.8942430">
        <ele>2154.4</ele>
        <time>2020-11-16T12:55:12Z</time>
      </trkpt>
      <trkpt lat="28.7631180" lon="-17.8942430">
        <ele>2154.4</ele>
        <time>2020-11-16T12:55:13Z</time>
      </trkpt>
      <trkpt lat="28.7630750" lon="-17.8942350">
        <ele>2154.7</ele>
        <time>2020-11-16T12:55:14Z</time>
      </trkpt>
      <trkpt lat="28.7630750" lon="-17.8942350">
        <ele>2154.7</ele>
        <time>2020-11-16T12:55:15Z</time>
      </trkpt>
      <trkpt lat="28.7630350" lon="-17.8942270">
        <ele>2155.0</ele>
        <time>2020-11-16T12:55:16Z</time>
      </trkpt>
      <trkpt lat="28.7630150" lon="-17.8942200">
        <ele>2155.2</ele>
        <time>2020-11-16T12:55:17Z</time>
      </trkpt>
      <trkpt lat="28.7630150" lon="-17.8942200">
        <ele>2155.2</ele>
        <time>2020-11-16T12:55:18Z</time>
      </trkpt>
      <trkpt lat="28.7629770" lon="-17.8942070">
        <ele>2155.5</ele>
        <time>2020-11-16T12:55:19Z</time>
      </trkpt>
      <trkpt lat="28.7629770" lon="-17.8942070">
        <ele>2155.5</ele>
        <time>2020-11-16T12:55:20Z</time>
      </trkpt>
      <trkpt lat="28.7629400" lon="-17.8941900">
        <ele>2155.8</ele>
        <time>2020-11-16T12:55:21Z</time>
      </trkpt>
      <trkpt lat="28.7629400" lon="-17.8941900">
        <ele>2155.8</ele>
        <time>2020-11-16T12:55:22Z</time>
      </trkpt>
      <trkpt lat="28.7629100" lon="-17.8941730">
        <ele>2156.1</ele>
        <time>2020-11-16T12:55:23Z</time>
      </trkpt>
      <trkpt lat="28.7629100" lon="-17.8941730">
        <ele>2156.1</ele>
        <time>2020-11-16T12:55:24Z</time>
      </trkpt>
      <trkpt lat="28.7628700" lon="-17.8941520">
        <ele>2156.5</ele>
        <time>2020-11-16T12:55:25Z</time>
      </trkpt>
      <trkpt lat="28.7628500" lon="-17.8941380">
        <ele>2156.7</ele>
        <time>2020-11-16T12:55:26Z</time>
      </trkpt>
      <trkpt lat="28.7628500" lon="-17.8941380">
        <ele>2156.7</ele>
        <time>2020-11-16T12:55:27Z</time>
      </trkpt>
      <trkpt lat="28.7628150" lon="-17.8941100">
        <ele>2157.0</ele>
        <time>2020-11-16T12:55:28Z</time>
      </trkpt>
      <trkpt lat="28.7628000" lon="-17.8940930">
        <ele>2157.2</ele>
        <time>2020-11-16T12:55:29Z</time>
      </trkpt>
      <trkpt lat="28.7627870" lon="-17.8940730">
        <ele>2157.4</ele>
        <time>2020-11-16T12:55:30Z</time>
      </trkpt>
      <trkpt lat="28.7627870" lon="-17.8940730">
        <ele>2157.4</ele>
        <time>2020-11-16T12:55:31Z</time>
      </trkpt>
      <trkpt lat="28.7627730" lon="-17.8940380">
        <ele>2157.6</ele>
        <time>2020-11-16T12:55:32Z</time>
      </trkpt>
      <trkpt lat="28.7627730" lon="-17.8940380">
        <ele>2157.6</ele>
        <time>2020-11-16T12:55:33Z</time>
      </trkpt>
      <trkpt lat="28.7627570" lon="-17.8940070">
        <ele>2157.8</ele>
        <time>2020-11-16T12:55:34Z</time>
      </trkpt>
      <trkpt lat="28.7627500" lon="-17.8939880">
        <ele>2157.9</ele>
        <time>2020-11-16T12:55:35Z</time>
      </trkpt>
      <trkpt lat="28.7627430" lon="-17.8939720">
        <ele>2158.0</ele>
        <time>2020-11-16T12:55:36Z</time>
      </trkpt>
      <trkpt lat="28.7627430" lon="-17.8939720">
        <ele>2158.0</ele>
        <time>2020-11-16T12:55:37Z</time>
      </trkpt>
      <trkpt lat="28.7627320" lon="-17.8939250">
        <ele>2158.3</ele>
        <time>2020-11-16T12:55:38Z</time>
      </trkpt>
      <trkpt lat="28.7627320" lon="-17.8939250">
        <ele>2158.3</ele>
        <time>2020-11-16T12:55:39Z</time>
      </trkpt>
      <trkpt lat="28.7627250" lon="-17.8938730">
        <ele>2158.5</ele>
        <time>2020-11-16T12:55:40Z</time>
      </trkpt>
      <trkpt lat="28.7627250" lon="-17.8938730">
        <ele>2158.5</ele>
        <time>2020-11-16T12:55:41Z</time>
      </trkpt>
      <trkpt lat="28.7627180" lon="-17.8938230">
        <ele>2158.7</ele>
        <time>2020-11-16T12:55:42Z</time>
      </trkpt>
      <trkpt lat="28.7627180" lon="-17.8938230">
        <ele>2158.7</ele>
        <time>2020-11-16T12:55:43Z</time>
      </trkpt>
      <trkpt lat="28.7627180" lon="-17.8937700">
        <ele>2158.9</ele>
        <time>2020-11-16T12:55:44Z</time>
      </trkpt>
      <trkpt lat="28.7627180" lon="-17.8937700">
        <ele>2158.9</ele>
        <time>2020-11-16T12:55:45Z</time>
      </trkpt>
      <trkpt lat="28.7627180" lon="-17.8937200">
        <ele>2159.1</ele>
        <time>2020-11-16T12:55:46Z</time>
      </trkpt>
      <trkpt lat="28.7627180" lon="-17.8937200">
        <ele>2159.1</ele>
        <time>2020-11-16T12:55:47Z</time>
      </trkpt>
      <trkpt lat="28.7627130" lon="-17.8936730">
        <ele>2159.3</ele>
        <time>2020-11-16T12:55:48Z</time>
      </trkpt>
      <trkpt lat="28.7627130" lon="-17.8936730">
        <ele>2159.3</ele>
        <time>2020-11-16T12:55:49Z</time>
      </trkpt>
      <trkpt lat="28.7627070" lon="-17.8936300">
        <ele>2159.5</ele>
        <time>2020-11-16T12:55:50Z</time>
      </trkpt>
      <trkpt lat="28.7627070" lon="-17.8936300">
        <ele>2159.5</ele>
        <time>2020-11-16T12:55:51Z</time>
      </trkpt>
      <trkpt lat="28.7627020" lon="-17.8935830">
        <ele>2159.7</ele>
        <time>2020-11-16T12:55:52Z</time>
      </trkpt>
      <trkpt lat="28.7627000" lon="-17.8935580">
        <ele>2159.9</ele>
        <time>2020-11-16T12:55:53Z</time>
      </trkpt>
      <trkpt lat="28.7627000" lon="-17.8935580">
        <ele>2159.9</ele>
        <time>2020-11-16T12:55:54Z</time>
      </trkpt>
      <trkpt lat="28.7627000" lon="-17.8935080">
        <ele>2160.1</ele>
        <time>2020-11-16T12:55:55Z</time>
      </trkpt>
      <trkpt lat="28.7627020" lon="-17.8934880">
        <ele>2160.3</ele>
        <time>2020-11-16T12:55:56Z</time>
      </trkpt>
      <trkpt lat="28.7627020" lon="-17.8934880">
        <ele>2160.3</ele>
        <time>2020-11-16T12:55:57Z</time>
      </trkpt>
      <trkpt lat="28.7626980" lon="-17.8934450">
        <ele>2160.5</ele>
        <time>2020-11-16T12:55:58Z</time>
      </trkpt>
      <trkpt lat="28.7626980" lon="-17.8934450">
        <ele>2160.5</ele>
        <time>2020-11-16T12:55:59Z</time>
      </trkpt>
      <trkpt lat="28.7626980" lon="-17.8933980">
        <ele>2160.8</ele>
        <time>2020-11-16T12:56:00Z</time>
      </trkpt>
      <trkpt lat="28.7626980" lon="-17.8933980">
        <ele>2160.8</ele>
        <time>2020-11-16T12:56:01Z</time>
      </trkpt>
      <trkpt lat="28.7626970" lon="-17.8933530">
        <ele>2161.1</ele>
        <time>2020-11-16T12:56:02Z</time>
      </trkpt>
      <trkpt lat="28.7626970" lon="-17.8933530">
        <ele>2161.1</ele>
        <time>2020-11-16T12:56:03Z</time>
      </trkpt>
      <trkpt lat="28.7626970" lon="-17.8933120">
        <ele>2161.4</ele>
        <time>2020-11-16T12:56:04Z</time>
      </trkpt>
      <trkpt lat="28.7626970" lon="-17.8932900">
        <ele>2161.6</ele>
        <time>2020-11-16T12:56:05Z</time>
      </trkpt>
      <trkpt lat="28.7626970" lon="-17.8932900">
        <ele>2161.6</ele>
        <time>2020-11-16T12:56:06Z</time>
      </trkpt>
      <trkpt lat="28.7626920" lon="-17.8932500">
        <ele>2161.8</ele>
        <time>2020-11-16T12:56:07Z</time>
      </trkpt>
      <trkpt lat="28.7626920" lon="-17.8932500">
        <ele>2161.8</ele>
        <time>2020-11-16T12:56:08Z</time>
      </trkpt>
      <trkpt lat="28.7626850" lon="-17.8932080">
        <ele>2162.1</ele>
        <time>2020-11-16T12:56:09Z</time>
      </trkpt>
      <trkpt lat="28.7626850" lon="-17.8931880">
        <ele>2162.3</ele>
        <time>2020-11-16T12:56:10Z</time>
      </trkpt>
      <trkpt lat="28.7626850" lon="-17.8931880">
        <ele>2162.3</ele>
        <time>2020-11-16T12:56:11Z</time>
      </trkpt>
      <trkpt lat="28.7626830" lon="-17.8931470">
        <ele>2162.5</ele>
        <time>2020-11-16T12:56:12Z</time>
      </trkpt>
      <trkpt lat="28.7626830" lon="-17.8931470">
        <ele>2162.5</ele>
        <time>2020-11-16T12:56:13Z</time>
      </trkpt>
      <trkpt lat="28.7626780" lon="-17.8931050">
        <ele>2162.8</ele>
        <time>2020-11-16T12:56:14Z</time>
      </trkpt>
      <trkpt lat="28.7626780" lon="-17.8931050">
        <ele>2162.8</ele>
        <time>2020-11-16T12:56:15Z</time>
      </trkpt>
      <trkpt lat="28.7626700" lon="-17.8930600">
        <ele>2163.1</ele>
        <time>2020-11-16T12:56:16Z</time>
      </trkpt>
      <trkpt lat="28.7626700" lon="-17.8930600">
        <ele>2163.1</ele>
        <time>2020-11-16T12:56:17Z</time>
      </trkpt>
      <trkpt lat="28.7626650" lon="-17.8930150">
        <ele>2163.4</ele>
        <time>2020-11-16T12:56:18Z</time>
      </trkpt>
      <trkpt lat="28.7626650" lon="-17.8930150">
        <ele>2163.4</ele>
        <time>2020-11-16T12:56:19Z</time>
      </trkpt>
      <trkpt lat="28.7626570" lon="-17.8929770">
        <ele>2163.6</ele>
        <time>2020-11-16T12:56:20Z</time>
      </trkpt>
      <trkpt lat="28.7626570" lon="-17.8929770">
        <ele>2163.6</ele>
        <time>2020-11-16T12:56:21Z</time>
      </trkpt>
      <trkpt lat="28.7626420" lon="-17.8929370">
        <ele>2163.8</ele>
        <time>2020-11-16T12:56:22Z</time>
      </trkpt>
      <trkpt lat="28.7626300" lon="-17.8929170">
        <ele>2163.9</ele>
        <time>2020-11-16T12:56:23Z</time>
      </trkpt>
      <trkpt lat="28.7626300" lon="-17.8929170">
        <ele>2163.9</ele>
        <time>2020-11-16T12:56:24Z</time>
      </trkpt>
      <trkpt lat="28.7626050" lon="-17.8928830">
        <ele>2164.2</ele>
        <time>2020-11-16T12:56:25Z</time>
      </trkpt>
      <trkpt lat="28.7625900" lon="-17.8928650">
        <ele>2164.3</ele>
        <time>2020-11-16T12:56:26Z</time>
      </trkpt>
      <trkpt lat="28.7625900" lon="-17.8928650">
        <ele>2164.3</ele>
        <time>2020-11-16T12:56:27Z</time>
      </trkpt>
      <trkpt lat="28.7625620" lon="-17.8928350">
        <ele>2164.5</ele>
        <time>2020-11-16T12:56:28Z</time>
      </trkpt>
      <trkpt lat="28.7625620" lon="-17.8928350">
        <ele>2164.5</ele>
        <time>2020-11-16T12:56:29Z</time>
      </trkpt>
      <trkpt lat="28.7625320" lon="-17.8928030">
        <ele>2164.8</ele>
        <time>2020-11-16T12:56:30Z</time>
      </trkpt>
      <trkpt lat="28.7625320" lon="-17.8928030">
        <ele>2164.8</ele>
        <time>2020-11-16T12:56:31Z</time>
      </trkpt>
      <trkpt lat="28.7625020" lon="-17.8927780">
        <ele>2165.0</ele>
        <time>2020-11-16T12:56:32Z</time>
      </trkpt>
      <trkpt lat="28.7625020" lon="-17.8927780">
        <ele>2165.0</ele>
        <time>2020-11-16T12:56:33Z</time>
      </trkpt>
      <trkpt lat="28.7624720" lon="-17.8927550">
        <ele>2165.2</ele>
        <time>2020-11-16T12:56:34Z</time>
      </trkpt>
      <trkpt lat="28.7624720" lon="-17.8927550">
        <ele>2165.2</ele>
        <time>2020-11-16T12:56:35Z</time>
      </trkpt>
      <trkpt lat="28.7624450" lon="-17.8927300">
        <ele>2165.4</ele>
        <time>2020-11-16T12:56:36Z</time>
      </trkpt>
      <trkpt lat="28.7624320" lon="-17.8927170">
        <ele>2165.5</ele>
        <time>2020-11-16T12:56:37Z</time>
      </trkpt>
      <trkpt lat="28.7624320" lon="-17.8927170">
        <ele>2165.5</ele>
        <time>2020-11-16T12:56:38Z</time>
      </trkpt>
      <trkpt lat="28.7624030" lon="-17.8926930">
        <ele>2165.7</ele>
        <time>2020-11-16T12:56:39Z</time>
      </trkpt>
      <trkpt lat="28.7624030" lon="-17.8926930">
        <ele>2165.7</ele>
        <time>2020-11-16T12:56:40Z</time>
      </trkpt>
      <trkpt lat="28.7623730" lon="-17.8926700">
        <ele>2165.9</ele>
        <time>2020-11-16T12:56:41Z</time>
      </trkpt>
      <trkpt lat="28.7623730" lon="-17.8926700">
        <ele>2165.9</ele>
        <time>2020-11-16T12:56:42Z</time>
      </trkpt>
      <trkpt lat="28.7623380" lon="-17.8926450">
        <ele>2165.8</ele>
        <time>2020-11-16T12:56:43Z</time>
      </trkpt>
      <trkpt lat="28.7623270" lon="-17.8926350">
        <ele>2165.8</ele>
        <time>2020-11-16T12:56:44Z</time>
      </trkpt>
      <trkpt lat="28.7623270" lon="-17.8926350">
        <ele>2165.8</ele>
        <time>2020-11-16T12:56:45Z</time>
      </trkpt>
      <trkpt lat="28.7623020" lon="-17.8926080">
        <ele>2166.2</ele>
        <time>2020-11-16T12:56:46Z</time>
      </trkpt>
      <trkpt lat="28.7623020" lon="-17.8926080">
        <ele>2166.2</ele>
        <time>2020-11-16T12:56:47Z</time>
      </trkpt>
      <trkpt lat="28.7622720" lon="-17.8925850">
        <ele>2166.5</ele>
        <time>2020-11-16T12:56:48Z</time>
      </trkpt>
      <trkpt lat="28.7622570" lon="-17.8925730">
        <ele>2166.7</ele>
        <time>2020-11-16T12:56:49Z</time>
      </trkpt>
      <trkpt lat="28.7622420" lon="-17.8925620">
        <ele>2166.9</ele>
        <time>2020-11-16T12:56:50Z</time>
      </trkpt>
      <trkpt lat="28.7622420" lon="-17.8925620">
        <ele>2166.9</ele>
        <time>2020-11-16T12:56:51Z</time>
      </trkpt>
      <trkpt lat="28.7622150" lon="-17.8925400">
        <ele>2167.2</ele>
        <time>2020-11-16T12:56:52Z</time>
      </trkpt>
      <trkpt lat="28.7622150" lon="-17.8925400">
        <ele>2167.2</ele>
        <time>2020-11-16T12:56:53Z</time>
      </trkpt>
      <trkpt lat="28.7621920" lon="-17.8925150">
        <ele>2167.6</ele>
        <time>2020-11-16T12:56:54Z</time>
      </trkpt>
      <trkpt lat="28.7621920" lon="-17.8925150">
        <ele>2167.6</ele>
        <time>2020-11-16T12:56:55Z</time>
      </trkpt>
      <trkpt lat="28.7621630" lon="-17.8924920">
        <ele>2167.9</ele>
        <time>2020-11-16T12:56:56Z</time>
      </trkpt>
      <trkpt lat="28.7621500" lon="-17.8924780">
        <ele>2168.1</ele>
        <time>2020-11-16T12:56:57Z</time>
      </trkpt>
      <trkpt lat="28.7621500" lon="-17.8924780">
        <ele>2168.1</ele>
        <time>2020-11-16T12:56:58Z</time>
      </trkpt>
      <trkpt lat="28.7621230" lon="-17.8924520">
        <ele>2168.5</ele>
        <time>2020-11-16T12:56:59Z</time>
      </trkpt>
      <trkpt lat="28.7621080" lon="-17.8924380">
        <ele>2168.7</ele>
        <time>2020-11-16T12:57:00Z</time>
      </trkpt>
      <trkpt lat="28.7621080" lon="-17.8924380">
        <ele>2168.7</ele>
        <time>2020-11-16T12:57:01Z</time>
      </trkpt>
      <trkpt lat="28.7620770" lon="-17.8924150">
        <ele>2169.1</ele>
        <time>2020-11-16T12:57:02Z</time>
      </trkpt>
      <trkpt lat="28.7620770" lon="-17.8924150">
        <ele>2169.1</ele>
        <time>2020-11-16T12:57:03Z</time>
      </trkpt>
      <trkpt lat="28.7620430" lon="-17.8923970">
        <ele>2169.5</ele>
        <time>2020-11-16T12:57:04Z</time>
      </trkpt>
      <trkpt lat="28.7620280" lon="-17.8923870">
        <ele>2169.7</ele>
        <time>2020-11-16T12:57:05Z</time>
      </trkpt>
      <trkpt lat="28.7620150" lon="-17.8923730">
        <ele>2169.9</ele>
        <time>2020-11-16T12:57:06Z</time>
      </trkpt>
      <trkpt lat="28.7620150" lon="-17.8923730">
        <ele>2169.9</ele>
        <time>2020-11-16T12:57:07Z</time>
      </trkpt>
      <trkpt lat="28.7619870" lon="-17.8923480">
        <ele>2170.3</ele>
        <time>2020-11-16T12:57:08Z</time>
      </trkpt>
      <trkpt lat="28.7619870" lon="-17.8923480">
        <ele>2170.3</ele>
        <time>2020-11-16T12:57:09Z</time>
      </trkpt>
      <trkpt lat="28.7619550" lon="-17.8923280">
        <ele>2170.7</ele>
        <time>2020-11-16T12:57:10Z</time>
      </trkpt>
      <trkpt lat="28.7619400" lon="-17.8923150">
        <ele>2170.9</ele>
        <time>2020-11-16T12:57:11Z</time>
      </trkpt>
      <trkpt lat="28.7619400" lon="-17.8923150">
        <ele>2170.9</ele>
        <time>2020-11-16T12:57:12Z</time>
      </trkpt>
      <trkpt lat="28.7619120" lon="-17.8922880">
        <ele>2171.3</ele>
        <time>2020-11-16T12:57:13Z</time>
      </trkpt>
      <trkpt lat="28.7619120" lon="-17.8922880">
        <ele>2171.3</ele>
        <time>2020-11-16T12:57:14Z</time>
      </trkpt>
      <trkpt lat="28.7618830" lon="-17.8922620">
        <ele>2171.7</ele>
        <time>2020-11-16T12:57:15Z</time>
      </trkpt>
      <trkpt lat="28.7618680" lon="-17.8922500">
        <ele>2171.9</ele>
        <time>2020-11-16T12:57:16Z</time>
      </trkpt>
      <trkpt lat="28.7618680" lon="-17.8922500">
        <ele>2171.9</ele>
        <time>2020-11-16T12:57:17Z</time>
      </trkpt>
      <trkpt lat="28.7618370" lon="-17.8922250">
        <ele>2172.0</ele>
        <time>2020-11-16T12:57:18Z</time>
      </trkpt>
      <trkpt lat="28.7618370" lon="-17.8922250">
        <ele>2172.0</ele>
        <time>2020-11-16T12:57:19Z</time>
      </trkpt>
      <trkpt lat="28.7618080" lon="-17.8921970">
        <ele>2172.0</ele>
        <time>2020-11-16T12:57:20Z</time>
      </trkpt>
      <trkpt lat="28.7618080" lon="-17.8921970">
        <ele>2172.0</ele>
        <time>2020-11-16T12:57:21Z</time>
      </trkpt>
      <trkpt lat="28.7617820" lon="-17.8921700">
        <ele>2172.0</ele>
        <time>2020-11-16T12:57:22Z</time>
      </trkpt>
      <trkpt lat="28.7617820" lon="-17.8921700">
        <ele>2172.0</ele>
        <time>2020-11-16T12:57:23Z</time>
      </trkpt>
      <trkpt lat="28.7617500" lon="-17.8921470">
        <ele>2172.4</ele>
        <time>2020-11-16T12:57:24Z</time>
      </trkpt>
      <trkpt lat="28.7617350" lon="-17.8921330">
        <ele>2172.6</ele>
        <time>2020-11-16T12:57:25Z</time>
      </trkpt>
      <trkpt lat="28.7617350" lon="-17.8921330">
        <ele>2172.6</ele>
        <time>2020-11-16T12:57:26Z</time>
      </trkpt>
      <trkpt lat="28.7617050" lon="-17.8921050">
        <ele>2173.1</ele>
        <time>2020-11-16T12:57:27Z</time>
      </trkpt>
      <trkpt lat="28.7617050" lon="-17.8921050">
        <ele>2173.1</ele>
        <time>2020-11-16T12:57:28Z</time>
      </trkpt>
      <trkpt lat="28.7616780" lon="-17.8920850">
        <ele>2173.5</ele>
        <time>2020-11-16T12:57:29Z</time>
      </trkpt>
      <trkpt lat="28.7616780" lon="-17.8920850">
        <ele>2173.5</ele>
        <time>2020-11-16T12:57:30Z</time>
      </trkpt>
      <trkpt lat="28.7616480" lon="-17.8920600">
        <ele>2173.9</ele>
        <time>2020-11-16T12:57:31Z</time>
      </trkpt>
      <trkpt lat="28.7616370" lon="-17.8920470">
        <ele>2174.1</ele>
        <time>2020-11-16T12:57:32Z</time>
      </trkpt>
      <trkpt lat="28.7616370" lon="-17.8920470">
        <ele>2174.1</ele>
        <time>2020-11-16T12:57:33Z</time>
      </trkpt>
      <trkpt lat="28.7616080" lon="-17.8920230">
        <ele>2174.5</ele>
        <time>2020-11-16T12:57:34Z</time>
      </trkpt>
      <trkpt lat="28.7616080" lon="-17.8920230">
        <ele>2174.5</ele>
        <time>2020-11-16T12:57:35Z</time>
      </trkpt>
      <trkpt lat="28.7615820" lon="-17.8920000">
        <ele>2174.9</ele>
        <time>2020-11-16T12:57:36Z</time>
      </trkpt>
      <trkpt lat="28.7615820" lon="-17.8920000">
        <ele>2174.9</ele>
        <time>2020-11-16T12:57:37Z</time>
      </trkpt>
      <trkpt lat="28.7615570" lon="-17.8919730">
        <ele>2175.3</ele>
        <time>2020-11-16T12:57:38Z</time>
      </trkpt>
      <trkpt lat="28.7615570" lon="-17.8919730">
        <ele>2175.3</ele>
        <time>2020-11-16T12:57:39Z</time>
      </trkpt>
      <trkpt lat="28.7615300" lon="-17.8919520">
        <ele>2175.7</ele>
        <time>2020-11-16T12:57:40Z</time>
      </trkpt>
      <trkpt lat="28.7615180" lon="-17.8919400">
        <ele>2175.8</ele>
        <time>2020-11-16T12:57:41Z</time>
      </trkpt>
      <trkpt lat="28.7615180" lon="-17.8919400">
        <ele>2175.8</ele>
        <time>2020-11-16T12:57:42Z</time>
      </trkpt>
      <trkpt lat="28.7614950" lon="-17.8919120">
        <ele>2176.2</ele>
        <time>2020-11-16T12:57:43Z</time>
      </trkpt>
      <trkpt lat="28.7614950" lon="-17.8919120">
        <ele>2176.2</ele>
        <time>2020-11-16T12:57:44Z</time>
      </trkpt>
      <trkpt lat="28.7614680" lon="-17.8918850">
        <ele>2176.2</ele>
        <time>2020-11-16T12:57:45Z</time>
      </trkpt>
      <trkpt lat="28.7614680" lon="-17.8918850">
        <ele>2176.2</ele>
        <time>2020-11-16T12:57:46Z</time>
      </trkpt>
      <trkpt lat="28.7614470" lon="-17.8918570">
        <ele>2176.2</ele>
        <time>2020-11-16T12:57:47Z</time>
      </trkpt>
      <trkpt lat="28.7614330" lon="-17.8918420">
        <ele>2176.1</ele>
        <time>2020-11-16T12:57:48Z</time>
      </trkpt>
      <trkpt lat="28.7614330" lon="-17.8918420">
        <ele>2176.1</ele>
        <time>2020-11-16T12:57:49Z</time>
      </trkpt>
      <trkpt lat="28.7614120" lon="-17.8918150">
        <ele>2176.3</ele>
        <time>2020-11-16T12:57:50Z</time>
      </trkpt>
      <trkpt lat="28.7614120" lon="-17.8918150">
        <ele>2176.3</ele>
        <time>2020-11-16T12:57:51Z</time>
      </trkpt>
      <trkpt lat="28.7614030" lon="-17.8917900">
        <ele>2176.5</ele>
        <time>2020-11-16T12:57:52Z</time>
      </trkpt>
      <trkpt lat="28.7614030" lon="-17.8917900">
        <ele>2176.5</ele>
        <time>2020-11-16T12:57:53Z</time>
      </trkpt>
      <trkpt lat="28.7613900" lon="-17.8917680">
        <ele>2176.7</ele>
        <time>2020-11-16T12:57:54Z</time>
      </trkpt>
      <trkpt lat="28.7613900" lon="-17.8917680">
        <ele>2176.7</ele>
        <time>2020-11-16T12:57:55Z</time>
      </trkpt>
      <trkpt lat="28.7613530" lon="-17.8917450">
        <ele>2177.0</ele>
        <time>2020-11-16T12:57:56Z</time>
      </trkpt>
      <trkpt lat="28.7613530" lon="-17.8917450">
        <ele>2177.0</ele>
        <time>2020-11-16T12:57:57Z</time>
      </trkpt>
      <trkpt lat="28.7613180" lon="-17.8917220">
        <ele>2177.3</ele>
        <time>2020-11-16T12:57:58Z</time>
      </trkpt>
      <trkpt lat="28.7612980" lon="-17.8917130">
        <ele>2177.4</ele>
        <time>2020-11-16T12:57:59Z</time>
      </trkpt>
      <trkpt lat="28.7612980" lon="-17.8917130">
        <ele>2177.4</ele>
        <time>2020-11-16T12:58:00Z</time>
      </trkpt>
      <trkpt lat="28.7612620" lon="-17.8916930">
        <ele>2177.7</ele>
        <time>2020-11-16T12:58:01Z</time>
      </trkpt>
      <trkpt lat="28.7612620" lon="-17.8916930">
        <ele>2177.7</ele>
        <time>2020-11-16T12:58:02Z</time>
      </trkpt>
      <trkpt lat="28.7612350" lon="-17.8916700">
        <ele>2178.0</ele>
        <time>2020-11-16T12:58:03Z</time>
      </trkpt>
      <trkpt lat="28.7612250" lon="-17.8916570">
        <ele>2178.1</ele>
        <time>2020-11-16T12:58:04Z</time>
      </trkpt>
      <trkpt lat="28.7612250" lon="-17.8916570">
        <ele>2178.1</ele>
        <time>2020-11-16T12:58:05Z</time>
      </trkpt>
      <trkpt lat="28.7611930" lon="-17.8916280">
        <ele>2178.4</ele>
        <time>2020-11-16T12:58:06Z</time>
      </trkpt>
      <trkpt lat="28.7611930" lon="-17.8916280">
        <ele>2178.4</ele>
        <time>2020-11-16T12:58:07Z</time>
      </trkpt>
      <trkpt lat="28.7611570" lon="-17.8916020">
        <ele>2178.7</ele>
        <time>2020-11-16T12:58:08Z</time>
      </trkpt>
      <trkpt lat="28.7611570" lon="-17.8916020">
        <ele>2178.7</ele>
        <time>2020-11-16T12:58:09Z</time>
      </trkpt>
      <trkpt lat="28.7611170" lon="-17.8915730">
        <ele>2179.0</ele>
        <time>2020-11-16T12:58:10Z</time>
      </trkpt>
      <trkpt lat="28.7611170" lon="-17.8915730">
        <ele>2179.0</ele>
        <time>2020-11-16T12:58:11Z</time>
      </trkpt>
      <trkpt lat="28.7610800" lon="-17.8915470">
        <ele>2179.3</ele>
        <time>2020-11-16T12:58:12Z</time>
      </trkpt>
      <trkpt lat="28.7610620" lon="-17.8915330">
        <ele>2179.5</ele>
        <time>2020-11-16T12:58:13Z</time>
      </trkpt>
      <trkpt lat="28.7610620" lon="-17.8915330">
        <ele>2179.5</ele>
        <time>2020-11-16T12:58:14Z</time>
      </trkpt>
      <trkpt lat="28.7610250" lon="-17.8915070">
        <ele>2179.8</ele>
        <time>2020-11-16T12:58:15Z</time>
      </trkpt>
      <trkpt lat="28.7610250" lon="-17.8915070">
        <ele>2179.8</ele>
        <time>2020-11-16T12:58:16Z</time>
      </trkpt>
      <trkpt lat="28.7609920" lon="-17.8914820">
        <ele>2180.1</ele>
        <time>2020-11-16T12:58:17Z</time>
      </trkpt>
      <trkpt lat="28.7609920" lon="-17.8914820">
        <ele>2180.1</ele>
        <time>2020-11-16T12:58:18Z</time>
      </trkpt>
      <trkpt lat="28.7609580" lon="-17.8914630">
        <ele>2180.4</ele>
        <time>2020-11-16T12:58:19Z</time>
      </trkpt>
      <trkpt lat="28.7609580" lon="-17.8914630">
        <ele>2180.4</ele>
        <time>2020-11-16T12:58:20Z</time>
      </trkpt>
      <trkpt lat="28.7609270" lon="-17.8914370">
        <ele>2180.7</ele>
        <time>2020-11-16T12:58:21Z</time>
      </trkpt>
      <trkpt lat="28.7609270" lon="-17.8914370">
        <ele>2180.7</ele>
        <time>2020-11-16T12:58:22Z</time>
      </trkpt>
      <trkpt lat="28.7608970" lon="-17.8914120">
        <ele>2180.9</ele>
        <time>2020-11-16T12:58:23Z</time>
      </trkpt>
      <trkpt lat="28.7608820" lon="-17.8914000">
        <ele>2181.1</ele>
        <time>2020-11-16T12:58:24Z</time>
      </trkpt>
      <trkpt lat="28.7608820" lon="-17.8914000">
        <ele>2181.1</ele>
        <time>2020-11-16T12:58:25Z</time>
      </trkpt>
      <trkpt lat="28.7608520" lon="-17.8913730">
        <ele>2181.4</ele>
        <time>2020-11-16T12:58:26Z</time>
      </trkpt>
      <trkpt lat="28.7608520" lon="-17.8913730">
        <ele>2181.4</ele>
        <time>2020-11-16T12:58:27Z</time>
      </trkpt>
      <trkpt lat="28.7608220" lon="-17.8913480">
        <ele>2181.6</ele>
        <time>2020-11-16T12:58:28Z</time>
      </trkpt>
      <trkpt lat="28.7608220" lon="-17.8913480">
        <ele>2181.6</ele>
        <time>2020-11-16T12:58:29Z</time>
      </trkpt>
      <trkpt lat="28.7608020" lon="-17.8913250">
        <ele>2181.8</ele>
        <time>2020-11-16T12:58:30Z</time>
      </trkpt>
      <trkpt lat="28.7607930" lon="-17.8913080">
        <ele>2182.0</ele>
        <time>2020-11-16T12:58:31Z</time>
      </trkpt>
      <trkpt lat="28.7607930" lon="-17.8913080">
        <ele>2182.0</ele>
        <time>2020-11-16T12:58:32Z</time>
      </trkpt>
      <trkpt lat="28.7607750" lon="-17.8912780">
        <ele>2182.2</ele>
        <time>2020-11-16T12:58:33Z</time>
      </trkpt>
      <trkpt lat="28.7607670" lon="-17.8912630">
        <ele>2182.3</ele>
        <time>2020-11-16T12:58:34Z</time>
      </trkpt>
      <trkpt lat="28.7607570" lon="-17.8912480">
        <ele>2182.4</ele>
        <time>2020-11-16T12:58:35Z</time>
      </trkpt>
      <trkpt lat="28.7607470" lon="-17.8912330">
        <ele>2182.6</ele>
        <time>2020-11-16T12:58:36Z</time>
      </trkpt>
      <trkpt lat="28.7607470" lon="-17.8912330">
        <ele>2182.6</ele>
        <time>2020-11-16T12:58:37Z</time>
      </trkpt>
      <trkpt lat="28.7607250" lon="-17.8912020">
        <ele>2182.8</ele>
        <time>2020-11-16T12:58:38Z</time>
      </trkpt>
      <trkpt lat="28.7607250" lon="-17.8912020">
        <ele>2182.8</ele>
        <time>2020-11-16T12:58:39Z</time>
      </trkpt>
      <trkpt lat="28.7607100" lon="-17.8911680">
        <ele>2183.1</ele>
        <time>2020-11-16T12:58:40Z</time>
      </trkpt>
      <trkpt lat="28.7607030" lon="-17.8911500">
        <ele>2183.2</ele>
        <time>2020-11-16T12:58:41Z</time>
      </trkpt>
      <trkpt lat="28.7606970" lon="-17.8911320">
        <ele>2183.3</ele>
        <time>2020-11-16T12:58:42Z</time>
      </trkpt>
      <trkpt lat="28.7606970" lon="-17.8911320">
        <ele>2183.3</ele>
        <time>2020-11-16T12:58:43Z</time>
      </trkpt>
      <trkpt lat="28.7606830" lon="-17.8910880">
        <ele>2183.6</ele>
        <time>2020-11-16T12:58:44Z</time>
      </trkpt>
      <trkpt lat="28.7606770" lon="-17.8910650">
        <ele>2183.8</ele>
        <time>2020-11-16T12:58:45Z</time>
      </trkpt>
      <trkpt lat="28.7606770" lon="-17.8910650">
        <ele>2183.8</ele>
        <time>2020-11-16T12:58:46Z</time>
      </trkpt>
      <trkpt lat="28.7606670" lon="-17.8910180">
        <ele>2184.1</ele>
        <time>2020-11-16T12:58:47Z</time>
      </trkpt>
      <trkpt lat="28.7606670" lon="-17.8909970">
        <ele>2184.2</ele>
        <time>2020-11-16T12:58:48Z</time>
      </trkpt>
      <trkpt lat="28.7606670" lon="-17.8909970">
        <ele>2184.2</ele>
        <time>2020-11-16T12:58:49Z</time>
      </trkpt>
      <trkpt lat="28.7606720" lon="-17.8909500">
        <ele>2184.5</ele>
        <time>2020-11-16T12:58:50Z</time>
      </trkpt>
      <trkpt lat="28.7606720" lon="-17.8909500">
        <ele>2184.5</ele>
        <time>2020-11-16T12:58:51Z</time>
      </trkpt>
      <trkpt lat="28.7606820" lon="-17.8909030">
        <ele>2184.8</ele>
        <time>2020-11-16T12:58:52Z</time>
      </trkpt>
      <trkpt lat="28.7606820" lon="-17.8909030">
        <ele>2184.8</ele>
        <time>2020-11-16T12:58:53Z</time>
      </trkpt>
      <trkpt lat="28.7606920" lon="-17.8908620">
        <ele>2185.1</ele>
        <time>2020-11-16T12:58:54Z</time>
      </trkpt>
      <trkpt lat="28.7606920" lon="-17.8908620">
        <ele>2185.1</ele>
        <time>2020-11-16T12:58:55Z</time>
      </trkpt>
      <trkpt lat="28.7607030" lon="-17.8908180">
        <ele>2185.4</ele>
        <time>2020-11-16T12:58:56Z</time>
      </trkpt>
      <trkpt lat="28.7607030" lon="-17.8908180">
        <ele>2185.4</ele>
        <time>2020-11-16T12:58:57Z</time>
      </trkpt>
      <trkpt lat="28.7607200" lon="-17.8907750">
        <ele>2185.7</ele>
        <time>2020-11-16T12:58:58Z</time>
      </trkpt>
      <trkpt lat="28.7607200" lon="-17.8907750">
        <ele>2185.7</ele>
        <time>2020-11-16T12:58:59Z</time>
      </trkpt>
      <trkpt lat="28.7607370" lon="-17.8907330">
        <ele>2186.0</ele>
        <time>2020-11-16T12:59:00Z</time>
      </trkpt>
      <trkpt lat="28.7607450" lon="-17.8907120">
        <ele>2186.1</ele>
        <time>2020-11-16T12:59:01Z</time>
      </trkpt>
      <trkpt lat="28.7607450" lon="-17.8907120">
        <ele>2186.1</ele>
        <time>2020-11-16T12:59:02Z</time>
      </trkpt>
      <trkpt lat="28.7607570" lon="-17.8906630">
        <ele>2186.5</ele>
        <time>2020-11-16T12:59:03Z</time>
      </trkpt>
      <trkpt lat="28.7607570" lon="-17.8906630">
        <ele>2186.5</ele>
        <time>2020-11-16T12:59:04Z</time>
      </trkpt>
      <trkpt lat="28.7607700" lon="-17.8906150">
        <ele>2186.8</ele>
        <time>2020-11-16T12:59:05Z</time>
      </trkpt>
      <trkpt lat="28.7607720" lon="-17.8905880">
        <ele>2187.0</ele>
        <time>2020-11-16T12:59:06Z</time>
      </trkpt>
      <trkpt lat="28.7607720" lon="-17.8905880">
        <ele>2187.0</ele>
        <time>2020-11-16T12:59:07Z</time>
      </trkpt>
      <trkpt lat="28.7607850" lon="-17.8905450">
        <ele>2187.2</ele>
        <time>2020-11-16T12:59:08Z</time>
      </trkpt>
      <trkpt lat="28.7607850" lon="-17.8905450">
        <ele>2187.2</ele>
        <time>2020-11-16T12:59:09Z</time>
      </trkpt>
      <trkpt lat="28.7608030" lon="-17.8905050">
        <ele>2187.5</ele>
        <time>2020-11-16T12:59:10Z</time>
      </trkpt>
      <trkpt lat="28.7608130" lon="-17.8904850">
        <ele>2187.7</ele>
        <time>2020-11-16T12:59:11Z</time>
      </trkpt>
      <trkpt lat="28.7608130" lon="-17.8904850">
        <ele>2187.7</ele>
        <time>2020-11-16T12:59:12Z</time>
      </trkpt>
      <trkpt lat="28.7608320" lon="-17.8904500">
        <ele>2188.0</ele>
        <time>2020-11-16T12:59:13Z</time>
      </trkpt>
      <trkpt lat="28.7608400" lon="-17.8904320">
        <ele>2188.1</ele>
        <time>2020-11-16T12:59:14Z</time>
      </trkpt>
      <trkpt lat="28.7608400" lon="-17.8904320">
        <ele>2188.1</ele>
        <time>2020-11-16T12:59:15Z</time>
      </trkpt>
      <trkpt lat="28.7608570" lon="-17.8903950">
        <ele>2188.3</ele>
        <time>2020-11-16T12:59:16Z</time>
      </trkpt>
      <trkpt lat="28.7608630" lon="-17.8903770">
        <ele>2188.5</ele>
        <time>2020-11-16T12:59:17Z</time>
      </trkpt>
      <trkpt lat="28.7608630" lon="-17.8903770">
        <ele>2188.5</ele>
        <time>2020-11-16T12:59:18Z</time>
      </trkpt>
      <trkpt lat="28.7608770" lon="-17.8903380">
        <ele>2188.7</ele>
        <time>2020-11-16T12:59:19Z</time>
      </trkpt>
      <trkpt lat="28.7608770" lon="-17.8903380">
        <ele>2188.7</ele>
        <time>2020-11-16T12:59:20Z</time>
      </trkpt>
      <trkpt lat="28.7608930" lon="-17.8903000">
        <ele>2189.0</ele>
        <time>2020-11-16T12:59:21Z</time>
      </trkpt>
      <trkpt lat="28.7609030" lon="-17.8902800">
        <ele>2189.2</ele>
        <time>2020-11-16T12:59:22Z</time>
      </trkpt>
      <trkpt lat="28.7609030" lon="-17.8902800">
        <ele>2189.2</ele>
        <time>2020-11-16T12:59:23Z</time>
      </trkpt>
      <trkpt lat="28.7609200" lon="-17.8902420">
        <ele>2189.4</ele>
        <time>2020-11-16T12:59:24Z</time>
      </trkpt>
      <trkpt lat="28.7609200" lon="-17.8902420">
        <ele>2189.4</ele>
        <time>2020-11-16T12:59:25Z</time>
      </trkpt>
      <trkpt lat="28.7609400" lon="-17.8902050">
        <ele>2189.7</ele>
        <time>2020-11-16T12:59:26Z</time>
      </trkpt>
      <trkpt lat="28.7609400" lon="-17.8902050">
        <ele>2189.7</ele>
        <time>2020-11-16T12:59:27Z</time>
      </trkpt>
      <trkpt lat="28.7609620" lon="-17.8901670">
        <ele>2190.0</ele>
        <time>2020-11-16T12:59:28Z</time>
      </trkpt>
      <trkpt lat="28.7609620" lon="-17.8901670">
        <ele>2190.0</ele>
        <time>2020-11-16T12:59:29Z</time>
      </trkpt>
      <trkpt lat="28.7609870" lon="-17.8901330">
        <ele>2190.3</ele>
        <time>2020-11-16T12:59:30Z</time>
      </trkpt>
      <trkpt lat="28.7609870" lon="-17.8901330">
        <ele>2190.3</ele>
        <time>2020-11-16T12:59:31Z</time>
      </trkpt>
      <trkpt lat="28.7610120" lon="-17.8900970">
        <ele>2190.6</ele>
        <time>2020-11-16T12:59:32Z</time>
      </trkpt>
      <trkpt lat="28.7610120" lon="-17.8900970">
        <ele>2190.6</ele>
        <time>2020-11-16T12:59:33Z</time>
      </trkpt>
      <trkpt lat="28.7610370" lon="-17.8900570">
        <ele>2190.9</ele>
        <time>2020-11-16T12:59:34Z</time>
      </trkpt>
      <trkpt lat="28.7610480" lon="-17.8900370">
        <ele>2191.1</ele>
        <time>2020-11-16T12:59:35Z</time>
      </trkpt>
      <trkpt lat="28.7610480" lon="-17.8900370">
        <ele>2191.1</ele>
        <time>2020-11-16T12:59:36Z</time>
      </trkpt>
      <trkpt lat="28.7610720" lon="-17.8900020">
        <ele>2191.3</ele>
        <time>2020-11-16T12:59:37Z</time>
      </trkpt>
      <trkpt lat="28.7610800" lon="-17.8899830">
        <ele>2191.5</ele>
        <time>2020-11-16T12:59:38Z</time>
      </trkpt>
      <trkpt lat="28.7610800" lon="-17.8899830">
        <ele>2191.5</ele>
        <time>2020-11-16T12:59:39Z</time>
      </trkpt>
      <trkpt lat="28.7610930" lon="-17.8899450">
        <ele>2191.7</ele>
        <time>2020-11-16T12:59:40Z</time>
      </trkpt>
      <trkpt lat="28.7610930" lon="-17.8899450">
        <ele>2191.7</ele>
        <time>2020-11-16T12:59:41Z</time>
      </trkpt>
      <trkpt lat="28.7610980" lon="-17.8899020">
        <ele>2192.0</ele>
        <time>2020-11-16T12:59:42Z</time>
      </trkpt>
      <trkpt lat="28.7610980" lon="-17.8899020">
        <ele>2192.0</ele>
        <time>2020-11-16T12:59:43Z</time>
      </trkpt>
      <trkpt lat="28.7611170" lon="-17.8898650">
        <ele>2192.3</ele>
        <time>2020-11-16T12:59:44Z</time>
      </trkpt>
      <trkpt lat="28.7611170" lon="-17.8898650">
        <ele>2192.3</ele>
        <time>2020-11-16T12:59:45Z</time>
      </trkpt>
      <trkpt lat="28.7611320" lon="-17.8898280">
        <ele>2192.6</ele>
        <time>2020-11-16T12:59:46Z</time>
      </trkpt>
      <trkpt lat="28.7611320" lon="-17.8898280">
        <ele>2192.6</ele>
        <time>2020-11-16T12:59:47Z</time>
      </trkpt>
      <trkpt lat="28.7611480" lon="-17.8897880">
        <ele>2192.8</ele>
        <time>2020-11-16T12:59:48Z</time>
      </trkpt>
      <trkpt lat="28.7611480" lon="-17.8897880">
        <ele>2192.8</ele>
        <time>2020-11-16T12:59:49Z</time>
      </trkpt>
      <trkpt lat="28.7611680" lon="-17.8897480">
        <ele>2193.1</ele>
        <time>2020-11-16T12:59:50Z</time>
      </trkpt>
      <trkpt lat="28.7611770" lon="-17.8897280">
        <ele>2193.3</ele>
        <time>2020-11-16T12:59:51Z</time>
      </trkpt>
      <trkpt lat="28.7611770" lon="-17.8897280">
        <ele>2193.3</ele>
        <time>2020-11-16T12:59:52Z</time>
      </trkpt>
      <trkpt lat="28.7611870" lon="-17.8896870">
        <ele>2193.5</ele>
        <time>2020-11-16T12:59:53Z</time>
      </trkpt>
      <trkpt lat="28.7611930" lon="-17.8896670">
        <ele>2193.7</ele>
        <time>2020-11-16T12:59:54Z</time>
      </trkpt>
      <trkpt lat="28.7611930" lon="-17.8896670">
        <ele>2193.7</ele>
        <time>2020-11-16T12:59:55Z</time>
      </trkpt>
      <trkpt lat="28.7612030" lon="-17.8896250">
        <ele>2194.0</ele>
        <time>2020-11-16T12:59:56Z</time>
      </trkpt>
      <trkpt lat="28.7612030" lon="-17.8896250">
        <ele>2194.0</ele>
        <time>2020-11-16T12:59:57Z</time>
      </trkpt>
      <trkpt lat="28.7612080" lon="-17.8895820">
        <ele>2194.2</ele>
        <time>2020-11-16T12:59:58Z</time>
      </trkpt>
      <trkpt lat="28.7612080" lon="-17.8895820">
        <ele>2194.2</ele>
        <time>2020-11-16T12:59:59Z</time>
      </trkpt>
      <trkpt lat="28.7612020" lon="-17.8895380">
        <ele>2194.5</ele>
        <time>2020-11-16T13:00:00Z</time>
      </trkpt>
      <trkpt lat="28.7612020" lon="-17.8895380">
        <ele>2194.5</ele>
        <time>2020-11-16T13:00:01Z</time>
      </trkpt>
      <trkpt lat="28.7612030" lon="-17.8894900">
        <ele>2194.8</ele>
        <time>2020-11-16T13:00:02Z</time>
      </trkpt>
      <trkpt lat="28.7612030" lon="-17.8894900">
        <ele>2194.8</ele>
        <time>2020-11-16T13:00:03Z</time>
      </trkpt>
      <trkpt lat="28.7612030" lon="-17.8894430">
        <ele>2195.1</ele>
        <time>2020-11-16T13:00:04Z</time>
      </trkpt>
      <trkpt lat="28.7612030" lon="-17.8894430">
        <ele>2195.1</ele>
        <time>2020-11-16T13:00:05Z</time>
      </trkpt>
      <trkpt lat="28.7611950" lon="-17.8893920">
        <ele>2195.5</ele>
        <time>2020-11-16T13:00:06Z</time>
      </trkpt>
      <trkpt lat="28.7611900" lon="-17.8893680">
        <ele>2195.6</ele>
        <time>2020-11-16T13:00:07Z</time>
      </trkpt>
      <trkpt lat="28.7611900" lon="-17.8893680">
        <ele>2195.6</ele>
        <time>2020-11-16T13:00:08Z</time>
      </trkpt>
      <trkpt lat="28.7611870" lon="-17.8893180">
        <ele>2196.0</ele>
        <time>2020-11-16T13:00:09Z</time>
      </trkpt>
      <trkpt lat="28.7611870" lon="-17.8892970">
        <ele>2196.1</ele>
        <time>2020-11-16T13:00:10Z</time>
      </trkpt>
      <trkpt lat="28.7611870" lon="-17.8892970">
        <ele>2196.1</ele>
        <time>2020-11-16T13:00:11Z</time>
      </trkpt>
      <trkpt lat="28.7611830" lon="-17.8892480">
        <ele>2196.4</ele>
        <time>2020-11-16T13:00:12Z</time>
      </trkpt>
      <trkpt lat="28.7611830" lon="-17.8892480">
        <ele>2196.4</ele>
        <time>2020-11-16T13:00:13Z</time>
      </trkpt>
      <trkpt lat="28.7611720" lon="-17.8892020">
        <ele>2196.7</ele>
        <time>2020-11-16T13:00:14Z</time>
      </trkpt>
      <trkpt lat="28.7611720" lon="-17.8892020">
        <ele>2196.7</ele>
        <time>2020-11-16T13:00:15Z</time>
      </trkpt>
      <trkpt lat="28.7611650" lon="-17.8891570">
        <ele>2197.0</ele>
        <time>2020-11-16T13:00:16Z</time>
      </trkpt>
      <trkpt lat="28.7611650" lon="-17.8891570">
        <ele>2197.0</ele>
        <time>2020-11-16T13:00:17Z</time>
      </trkpt>
      <trkpt lat="28.7611570" lon="-17.8891150">
        <ele>2197.3</ele>
        <time>2020-11-16T13:00:18Z</time>
      </trkpt>
      <trkpt lat="28.7611570" lon="-17.8891150">
        <ele>2197.3</ele>
        <time>2020-11-16T13:00:19Z</time>
      </trkpt>
      <trkpt lat="28.7611420" lon="-17.8890700">
        <ele>2197.6</ele>
        <time>2020-11-16T13:00:20Z</time>
      </trkpt>
      <trkpt lat="28.7611420" lon="-17.8890700">
        <ele>2197.6</ele>
        <time>2020-11-16T13:00:21Z</time>
      </trkpt>
      <trkpt lat="28.7611220" lon="-17.8890280">
        <ele>2197.9</ele>
        <time>2020-11-16T13:00:22Z</time>
      </trkpt>
      <trkpt lat="28.7611100" lon="-17.8890080">
        <ele>2198.1</ele>
        <time>2020-11-16T13:00:23Z</time>
      </trkpt>
      <trkpt lat="28.7611100" lon="-17.8890080">
        <ele>2198.1</ele>
        <time>2020-11-16T13:00:24Z</time>
      </trkpt>
      <trkpt lat="28.7610930" lon="-17.8889670">
        <ele>2198.3</ele>
        <time>2020-11-16T13:00:25Z</time>
      </trkpt>
      <trkpt lat="28.7610830" lon="-17.8889450">
        <ele>2198.5</ele>
        <time>2020-11-16T13:00:26Z</time>
      </trkpt>
      <trkpt lat="28.7610830" lon="-17.8889450">
        <ele>2198.5</ele>
        <time>2020-11-16T13:00:27Z</time>
      </trkpt>
      <trkpt lat="28.7610650" lon="-17.8889030">
        <ele>2198.8</ele>
        <time>2020-11-16T13:00:28Z</time>
      </trkpt>
      <trkpt lat="28.7610650" lon="-17.8889030">
        <ele>2198.8</ele>
        <time>2020-11-16T13:00:29Z</time>
      </trkpt>
      <trkpt lat="28.7610450" lon="-17.8888600">
        <ele>2199.1</ele>
        <time>2020-11-16T13:00:30Z</time>
      </trkpt>
      <trkpt lat="28.7610450" lon="-17.8888600">
        <ele>2199.1</ele>
        <time>2020-11-16T13:00:31Z</time>
      </trkpt>
      <trkpt lat="28.7610300" lon="-17.8888070">
        <ele>2199.5</ele>
        <time>2020-11-16T13:00:32Z</time>
      </trkpt>
      <trkpt lat="28.7610300" lon="-17.8888070">
        <ele>2199.5</ele>
        <time>2020-11-16T13:00:33Z</time>
      </trkpt>
      <trkpt lat="28.7610220" lon="-17.8887520">
        <ele>2199.8</ele>
        <time>2020-11-16T13:00:34Z</time>
      </trkpt>
      <trkpt lat="28.7610220" lon="-17.8887520">
        <ele>2199.8</ele>
        <time>2020-11-16T13:00:35Z</time>
      </trkpt>
      <trkpt lat="28.7610220" lon="-17.8886880">
        <ele>2200.2</ele>
        <time>2020-11-16T13:00:36Z</time>
      </trkpt>
      <trkpt lat="28.7610220" lon="-17.8886880">
        <ele>2200.2</ele>
        <time>2020-11-16T13:00:37Z</time>
      </trkpt>
      <trkpt lat="28.7610280" lon="-17.8886230">
        <ele>2200.7</ele>
        <time>2020-11-16T13:00:38Z</time>
      </trkpt>
      <trkpt lat="28.7610280" lon="-17.8886230">
        <ele>2200.7</ele>
        <time>2020-11-16T13:00:39Z</time>
      </trkpt>
      <trkpt lat="28.7610520" lon="-17.8885630">
        <ele>2201.1</ele>
        <time>2020-11-16T13:00:40Z</time>
      </trkpt>
      <trkpt lat="28.7610520" lon="-17.8885630">
        <ele>2201.1</ele>
        <time>2020-11-16T13:00:41Z</time>
      </trkpt>
      <trkpt lat="28.7610830" lon="-17.8885120">
        <ele>2201.5</ele>
        <time>2020-11-16T13:00:42Z</time>
      </trkpt>
      <trkpt lat="28.7610830" lon="-17.8885120">
        <ele>2201.5</ele>
        <time>2020-11-16T13:00:43Z</time>
      </trkpt>
      <trkpt lat="28.7611170" lon="-17.8884650">
        <ele>2201.9</ele>
        <time>2020-11-16T13:00:44Z</time>
      </trkpt>
      <trkpt lat="28.7611170" lon="-17.8884650">
        <ele>2201.9</ele>
        <time>2020-11-16T13:00:45Z</time>
      </trkpt>
      <trkpt lat="28.7611570" lon="-17.8884330">
        <ele>2202.2</ele>
        <time>2020-11-16T13:00:46Z</time>
      </trkpt>
      <trkpt lat="28.7611570" lon="-17.8884330">
        <ele>2202.2</ele>
        <time>2020-11-16T13:00:47Z</time>
      </trkpt>
      <trkpt lat="28.7612000" lon="-17.8884170">
        <ele>2202.6</ele>
        <time>2020-11-16T13:00:48Z</time>
      </trkpt>
      <trkpt lat="28.7612000" lon="-17.8884170">
        <ele>2202.6</ele>
        <time>2020-11-16T13:00:49Z</time>
      </trkpt>
      <trkpt lat="28.7612430" lon="-17.8884050">
        <ele>2202.9</ele>
        <time>2020-11-16T13:00:50Z</time>
      </trkpt>
      <trkpt lat="28.7612430" lon="-17.8884050">
        <ele>2202.9</ele>
        <time>2020-11-16T13:00:51Z</time>
      </trkpt>
      <trkpt lat="28.7612870" lon="-17.8884030">
        <ele>2203.2</ele>
        <time>2020-11-16T13:00:52Z</time>
      </trkpt>
      <trkpt lat="28.7613080" lon="-17.8884000">
        <ele>2203.4</ele>
        <time>2020-11-16T13:00:53Z</time>
      </trkpt>
      <trkpt lat="28.7613080" lon="-17.8884000">
        <ele>2203.4</ele>
        <time>2020-11-16T13:00:54Z</time>
      </trkpt>
      <trkpt lat="28.7613530" lon="-17.8884000">
        <ele>2203.7</ele>
        <time>2020-11-16T13:00:55Z</time>
      </trkpt>
      <trkpt lat="28.7613530" lon="-17.8884000">
        <ele>2203.7</ele>
        <time>2020-11-16T13:00:56Z</time>
      </trkpt>
      <trkpt lat="28.7614020" lon="-17.8884100">
        <ele>2204.1</ele>
        <time>2020-11-16T13:00:57Z</time>
      </trkpt>
      <trkpt lat="28.7614270" lon="-17.8884150">
        <ele>2204.2</ele>
        <time>2020-11-16T13:00:58Z</time>
      </trkpt>
      <trkpt lat="28.7614270" lon="-17.8884150">
        <ele>2204.2</ele>
        <time>2020-11-16T13:00:59Z</time>
      </trkpt>
      <trkpt lat="28.7614730" lon="-17.8884270">
        <ele>2204.6</ele>
        <time>2020-11-16T13:01:00Z</time>
      </trkpt>
      <trkpt lat="28.7614730" lon="-17.8884270">
        <ele>2204.6</ele>
        <time>2020-11-16T13:01:01Z</time>
      </trkpt>
      <trkpt lat="28.7615180" lon="-17.8884350">
        <ele>2204.9</ele>
        <time>2020-11-16T13:01:02Z</time>
      </trkpt>
      <trkpt lat="28.7615180" lon="-17.8884350">
        <ele>2204.9</ele>
        <time>2020-11-16T13:01:03Z</time>
      </trkpt>
      <trkpt lat="28.7615670" lon="-17.8884430">
        <ele>2205.3</ele>
        <time>2020-11-16T13:01:04Z</time>
      </trkpt>
      <trkpt lat="28.7615670" lon="-17.8884430">
        <ele>2205.3</ele>
        <time>2020-11-16T13:01:05Z</time>
      </trkpt>
      <trkpt lat="28.7616130" lon="-17.8884570">
        <ele>2205.6</ele>
        <time>2020-11-16T13:01:06Z</time>
      </trkpt>
      <trkpt lat="28.7616130" lon="-17.8884570">
        <ele>2205.6</ele>
        <time>2020-11-16T13:01:07Z</time>
      </trkpt>
      <trkpt lat="28.7616550" lon="-17.8884570">
        <ele>2205.9</ele>
        <time>2020-11-16T13:01:08Z</time>
      </trkpt>
      <trkpt lat="28.7616550" lon="-17.8884570">
        <ele>2205.9</ele>
        <time>2020-11-16T13:01:09Z</time>
      </trkpt>
      <trkpt lat="28.7617000" lon="-17.8884550">
        <ele>2206.3</ele>
        <time>2020-11-16T13:01:10Z</time>
      </trkpt>
      <trkpt lat="28.7617220" lon="-17.8884530">
        <ele>2206.4</ele>
        <time>2020-11-16T13:01:11Z</time>
      </trkpt>
      <trkpt lat="28.7617220" lon="-17.8884530">
        <ele>2206.4</ele>
        <time>2020-11-16T13:01:12Z</time>
      </trkpt>
      <trkpt lat="28.7617630" lon="-17.8884480">
        <ele>2206.7</ele>
        <time>2020-11-16T13:01:13Z</time>
      </trkpt>
      <trkpt lat="28.7617630" lon="-17.8884480">
        <ele>2206.7</ele>
        <time>2020-11-16T13:01:14Z</time>
      </trkpt>
      <trkpt lat="28.7618070" lon="-17.8884380">
        <ele>2207.1</ele>
        <time>2020-11-16T13:01:15Z</time>
      </trkpt>
      <trkpt lat="28.7618070" lon="-17.8884380">
        <ele>2207.1</ele>
        <time>2020-11-16T13:01:16Z</time>
      </trkpt>
      <trkpt lat="28.7618470" lon="-17.8884270">
        <ele>2207.4</ele>
        <time>2020-11-16T13:01:17Z</time>
      </trkpt>
      <trkpt lat="28.7618680" lon="-17.8884200">
        <ele>2207.5</ele>
        <time>2020-11-16T13:01:18Z</time>
      </trkpt>
      <trkpt lat="28.7618680" lon="-17.8884200">
        <ele>2207.5</ele>
        <time>2020-11-16T13:01:19Z</time>
      </trkpt>
      <trkpt lat="28.7619100" lon="-17.8884020">
        <ele>2207.9</ele>
        <time>2020-11-16T13:01:20Z</time>
      </trkpt>
      <trkpt lat="28.7619100" lon="-17.8884020">
        <ele>2207.9</ele>
        <time>2020-11-16T13:01:21Z</time>
      </trkpt>
      <trkpt lat="28.7619500" lon="-17.8883820">
        <ele>2208.2</ele>
        <time>2020-11-16T13:01:22Z</time>
      </trkpt>
      <trkpt lat="28.7619500" lon="-17.8883820">
        <ele>2208.2</ele>
        <time>2020-11-16T13:01:23Z</time>
      </trkpt>
      <trkpt lat="28.7619880" lon="-17.8883650">
        <ele>2208.5</ele>
        <time>2020-11-16T13:01:24Z</time>
      </trkpt>
      <trkpt lat="28.7620030" lon="-17.8883530">
        <ele>2208.6</ele>
        <time>2020-11-16T13:01:25Z</time>
      </trkpt>
      <trkpt lat="28.7620030" lon="-17.8883530">
        <ele>2208.6</ele>
        <time>2020-11-16T13:01:26Z</time>
      </trkpt>
      <trkpt lat="28.7620350" lon="-17.8883270">
        <ele>2208.9</ele>
        <time>2020-11-16T13:01:27Z</time>
      </trkpt>
      <trkpt lat="28.7620350" lon="-17.8883270">
        <ele>2208.9</ele>
        <time>2020-11-16T13:01:28Z</time>
      </trkpt>
      <trkpt lat="28.7620650" lon="-17.8883050">
        <ele>2209.2</ele>
        <time>2020-11-16T13:01:29Z</time>
      </trkpt>
      <trkpt lat="28.7620650" lon="-17.8883050">
        <ele>2209.2</ele>
        <time>2020-11-16T13:01:30Z</time>
      </trkpt>
      <trkpt lat="28.7620950" lon="-17.8882800">
        <ele>2209.4</ele>
        <time>2020-11-16T13:01:31Z</time>
      </trkpt>
      <trkpt lat="28.7621120" lon="-17.8882670">
        <ele>2209.6</ele>
        <time>2020-11-16T13:01:32Z</time>
      </trkpt>
      <trkpt lat="28.7621120" lon="-17.8882670">
        <ele>2209.6</ele>
        <time>2020-11-16T13:01:33Z</time>
      </trkpt>
      <trkpt lat="28.7621420" lon="-17.8882320">
        <ele>2209.9</ele>
        <time>2020-11-16T13:01:34Z</time>
      </trkpt>
      <trkpt lat="28.7621420" lon="-17.8882320">
        <ele>2209.9</ele>
        <time>2020-11-16T13:01:35Z</time>
      </trkpt>
      <trkpt lat="28.7621680" lon="-17.8881900">
        <ele>2210.2</ele>
        <time>2020-11-16T13:01:36Z</time>
      </trkpt>
      <trkpt lat="28.7621680" lon="-17.8881900">
        <ele>2210.2</ele>
        <time>2020-11-16T13:01:37Z</time>
      </trkpt>
      <trkpt lat="28.7622050" lon="-17.8881600">
        <ele>2210.6</ele>
        <time>2020-11-16T13:01:38Z</time>
      </trkpt>
      <trkpt lat="28.7622050" lon="-17.8881600">
        <ele>2210.6</ele>
        <time>2020-11-16T13:01:39Z</time>
      </trkpt>
      <trkpt lat="28.7622330" lon="-17.8881230">
        <ele>2210.9</ele>
        <time>2020-11-16T13:01:40Z</time>
      </trkpt>
      <trkpt lat="28.7622330" lon="-17.8881230">
        <ele>2210.9</ele>
        <time>2020-11-16T13:01:41Z</time>
      </trkpt>
      <trkpt lat="28.7622570" lon="-17.8880770">
        <ele>2211.2</ele>
        <time>2020-11-16T13:01:42Z</time>
      </trkpt>
      <trkpt lat="28.7622650" lon="-17.8880520">
        <ele>2211.4</ele>
        <time>2020-11-16T13:01:43Z</time>
      </trkpt>
      <trkpt lat="28.7622650" lon="-17.8880520">
        <ele>2211.4</ele>
        <time>2020-11-16T13:01:44Z</time>
      </trkpt>
      <trkpt lat="28.7622750" lon="-17.8880050">
        <ele>2211.7</ele>
        <time>2020-11-16T13:01:45Z</time>
      </trkpt>
      <trkpt lat="28.7622750" lon="-17.8880050">
        <ele>2211.7</ele>
        <time>2020-11-16T13:01:46Z</time>
      </trkpt>
      <trkpt lat="28.7622870" lon="-17.8879600">
        <ele>2212.0</ele>
        <time>2020-11-16T13:01:47Z</time>
      </trkpt>
      <trkpt lat="28.7622900" lon="-17.8879380">
        <ele>2212.1</ele>
        <time>2020-11-16T13:01:48Z</time>
      </trkpt>
      <trkpt lat="28.7622950" lon="-17.8879150">
        <ele>2212.3</ele>
        <time>2020-11-16T13:01:49Z</time>
      </trkpt>
      <trkpt lat="28.7622950" lon="-17.8879150">
        <ele>2212.3</ele>
        <time>2020-11-16T13:01:50Z</time>
      </trkpt>
      <trkpt lat="28.7623070" lon="-17.8878670">
        <ele>2212.6</ele>
        <time>2020-11-16T13:01:51Z</time>
      </trkpt>
      <trkpt lat="28.7623070" lon="-17.8878670">
        <ele>2212.6</ele>
        <time>2020-11-16T13:01:52Z</time>
      </trkpt>
      <trkpt lat="28.7623170" lon="-17.8878200">
        <ele>2212.9</ele>
        <time>2020-11-16T13:01:53Z</time>
      </trkpt>
      <trkpt lat="28.7623170" lon="-17.8878200">
        <ele>2212.9</ele>
        <time>2020-11-16T13:01:54Z</time>
      </trkpt>
      <trkpt lat="28.7623180" lon="-17.8877670">
        <ele>2213.3</ele>
        <time>2020-11-16T13:01:55Z</time>
      </trkpt>
      <trkpt lat="28.7623220" lon="-17.8877430">
        <ele>2213.4</ele>
        <time>2020-11-16T13:01:56Z</time>
      </trkpt>
      <trkpt lat="28.7623220" lon="-17.8877430">
        <ele>2213.4</ele>
        <time>2020-11-16T13:01:57Z</time>
      </trkpt>
      <trkpt lat="28.7623350" lon="-17.8876980">
        <ele>2213.7</ele>
        <time>2020-11-16T13:01:58Z</time>
      </trkpt>
      <trkpt lat="28.7623420" lon="-17.8876780">
        <ele>2213.9</ele>
        <time>2020-11-16T13:01:59Z</time>
      </trkpt>
      <trkpt lat="28.7623420" lon="-17.8876780">
        <ele>2213.9</ele>
        <time>2020-11-16T13:02:00Z</time>
      </trkpt>
      <trkpt lat="28.7623530" lon="-17.8876370">
        <ele>2214.1</ele>
        <time>2020-11-16T13:02:01Z</time>
      </trkpt>
      <trkpt lat="28.7623530" lon="-17.8876370">
        <ele>2214.1</ele>
        <time>2020-11-16T13:02:02Z</time>
      </trkpt>
      <trkpt lat="28.7623600" lon="-17.8876000">
        <ele>2214.4</ele>
        <time>2020-11-16T13:02:03Z</time>
      </trkpt>
      <trkpt lat="28.7623600" lon="-17.8876000">
        <ele>2214.4</ele>
        <time>2020-11-16T13:02:04Z</time>
      </trkpt>
      <trkpt lat="28.7623630" lon="-17.8875580">
        <ele>2214.7</ele>
        <time>2020-11-16T13:02:05Z</time>
      </trkpt>
      <trkpt lat="28.7623630" lon="-17.8875580">
        <ele>2214.7</ele>
        <time>2020-11-16T13:02:06Z</time>
      </trkpt>
      <trkpt lat="28.7623720" lon="-17.8875200">
        <ele>2214.9</ele>
        <time>2020-11-16T13:02:07Z</time>
      </trkpt>
      <trkpt lat="28.7623730" lon="-17.8874980">
        <ele>2215.1</ele>
        <time>2020-11-16T13:02:08Z</time>
      </trkpt>
      <trkpt lat="28.7623730" lon="-17.8874980">
        <ele>2215.1</ele>
        <time>2020-11-16T13:02:09Z</time>
      </trkpt>
      <trkpt lat="28.7623780" lon="-17.8874550">
        <ele>2215.3</ele>
        <time>2020-11-16T13:02:10Z</time>
      </trkpt>
      <trkpt lat="28.7623780" lon="-17.8874550">
        <ele>2215.3</ele>
        <time>2020-11-16T13:02:11Z</time>
      </trkpt>
      <trkpt lat="28.7623880" lon="-17.8874120">
        <ele>2215.6</ele>
        <time>2020-11-16T13:02:12Z</time>
      </trkpt>
      <trkpt lat="28.7623900" lon="-17.8873900">
        <ele>2215.8</ele>
        <time>2020-11-16T13:02:13Z</time>
      </trkpt>
      <trkpt lat="28.7623900" lon="-17.8873900">
        <ele>2215.8</ele>
        <time>2020-11-16T13:02:14Z</time>
      </trkpt>
      <trkpt lat="28.7623950" lon="-17.8873450">
        <ele>2216.1</ele>
        <time>2020-11-16T13:02:15Z</time>
      </trkpt>
      <trkpt lat="28.7623950" lon="-17.8873450">
        <ele>2216.1</ele>
        <time>2020-11-16T13:02:16Z</time>
      </trkpt>
      <trkpt lat="28.7624080" lon="-17.8873000">
        <ele>2216.4</ele>
        <time>2020-11-16T13:02:17Z</time>
      </trkpt>
      <trkpt lat="28.7624080" lon="-17.8873000">
        <ele>2216.4</ele>
        <time>2020-11-16T13:02:18Z</time>
      </trkpt>
      <trkpt lat="28.7624180" lon="-17.8872530">
        <ele>2216.7</ele>
        <time>2020-11-16T13:02:19Z</time>
      </trkpt>
      <trkpt lat="28.7624200" lon="-17.8872320">
        <ele>2216.8</ele>
        <time>2020-11-16T13:02:20Z</time>
      </trkpt>
      <trkpt lat="28.7624200" lon="-17.8872320">
        <ele>2216.8</ele>
        <time>2020-11-16T13:02:21Z</time>
      </trkpt>
      <trkpt lat="28.7624270" lon="-17.8871870">
        <ele>2217.1</ele>
        <time>2020-11-16T13:02:22Z</time>
      </trkpt>
      <trkpt lat="28.7624270" lon="-17.8871870">
        <ele>2217.1</ele>
        <time>2020-11-16T13:02:23Z</time>
      </trkpt>
      <trkpt lat="28.7624350" lon="-17.8871420">
        <ele>2217.4</ele>
        <time>2020-11-16T13:02:24Z</time>
      </trkpt>
      <trkpt lat="28.7624350" lon="-17.8871420">
        <ele>2217.4</ele>
        <time>2020-11-16T13:02:25Z</time>
      </trkpt>
      <trkpt lat="28.7624400" lon="-17.8870950">
        <ele>2217.7</ele>
        <time>2020-11-16T13:02:26Z</time>
      </trkpt>
      <trkpt lat="28.7624400" lon="-17.8870950">
        <ele>2217.7</ele>
        <time>2020-11-16T13:02:27Z</time>
      </trkpt>
      <trkpt lat="28.7624450" lon="-17.8870500">
        <ele>2218.0</ele>
        <time>2020-11-16T13:02:28Z</time>
      </trkpt>
      <trkpt lat="28.7624450" lon="-17.8870500">
        <ele>2218.0</ele>
        <time>2020-11-16T13:02:29Z</time>
      </trkpt>
      <trkpt lat="28.7624530" lon="-17.8870050">
        <ele>2218.3</ele>
        <time>2020-11-16T13:02:30Z</time>
      </trkpt>
      <trkpt lat="28.7624530" lon="-17.8870050">
        <ele>2218.3</ele>
        <time>2020-11-16T13:02:31Z</time>
      </trkpt>
      <trkpt lat="28.7624620" lon="-17.8869620">
        <ele>2218.6</ele>
        <time>2020-11-16T13:02:32Z</time>
      </trkpt>
      <trkpt lat="28.7624620" lon="-17.8869620">
        <ele>2218.6</ele>
        <time>2020-11-16T13:02:33Z</time>
      </trkpt>
      <trkpt lat="28.7624670" lon="-17.8869170">
        <ele>2218.9</ele>
        <time>2020-11-16T13:02:34Z</time>
      </trkpt>
      <trkpt lat="28.7624670" lon="-17.8869170">
        <ele>2218.9</ele>
        <time>2020-11-16T13:02:35Z</time>
      </trkpt>
      <trkpt lat="28.7624670" lon="-17.8868720">
        <ele>2219.1</ele>
        <time>2020-11-16T13:02:36Z</time>
      </trkpt>
      <trkpt lat="28.7624670" lon="-17.8868720">
        <ele>2219.1</ele>
        <time>2020-11-16T13:02:37Z</time>
      </trkpt>
      <trkpt lat="28.7624700" lon="-17.8868270">
        <ele>2219.4</ele>
        <time>2020-11-16T13:02:38Z</time>
      </trkpt>
      <trkpt lat="28.7624700" lon="-17.8868270">
        <ele>2219.4</ele>
        <time>2020-11-16T13:02:39Z</time>
      </trkpt>
      <trkpt lat="28.7624770" lon="-17.8867800">
        <ele>2219.7</ele>
        <time>2020-11-16T13:02:40Z</time>
      </trkpt>
      <trkpt lat="28.7624770" lon="-17.8867800">
        <ele>2219.7</ele>
        <time>2020-11-16T13:02:41Z</time>
      </trkpt>
      <trkpt lat="28.7624780" lon="-17.8867350">
        <ele>2220.0</ele>
        <time>2020-11-16T13:02:42Z</time>
      </trkpt>
      <trkpt lat="28.7624780" lon="-17.8867350">
        <ele>2220.0</ele>
        <time>2020-11-16T13:02:43Z</time>
      </trkpt>
      <trkpt lat="28.7624830" lon="-17.8866900">
        <ele>2220.3</ele>
        <time>2020-11-16T13:02:44Z</time>
      </trkpt>
      <trkpt lat="28.7624830" lon="-17.8866900">
        <ele>2220.3</ele>
        <time>2020-11-16T13:02:45Z</time>
      </trkpt>
      <trkpt lat="28.7624770" lon="-17.8866400">
        <ele>2220.6</ele>
        <time>2020-11-16T13:02:46Z</time>
      </trkpt>
      <trkpt lat="28.7624770" lon="-17.8866400">
        <ele>2220.6</ele>
        <time>2020-11-16T13:02:47Z</time>
      </trkpt>
      <trkpt lat="28.7624870" lon="-17.8865930">
        <ele>2221.0</ele>
        <time>2020-11-16T13:02:48Z</time>
      </trkpt>
      <trkpt lat="28.7624870" lon="-17.8865930">
        <ele>2221.0</ele>
        <time>2020-11-16T13:02:49Z</time>
      </trkpt>
      <trkpt lat="28.7624980" lon="-17.8865480">
        <ele>2221.3</ele>
        <time>2020-11-16T13:02:50Z</time>
      </trkpt>
      <trkpt lat="28.7624980" lon="-17.8865480">
        <ele>2221.3</ele>
        <time>2020-11-16T13:02:51Z</time>
      </trkpt>
      <trkpt lat="28.7625000" lon="-17.8865020">
        <ele>2221.6</ele>
        <time>2020-11-16T13:02:52Z</time>
      </trkpt>
      <trkpt lat="28.7625000" lon="-17.8865020">
        <ele>2221.6</ele>
        <time>2020-11-16T13:02:53Z</time>
      </trkpt>
      <trkpt lat="28.7625050" lon="-17.8864530">
        <ele>2221.9</ele>
        <time>2020-11-16T13:02:54Z</time>
      </trkpt>
      <trkpt lat="28.7625050" lon="-17.8864530">
        <ele>2221.9</ele>
        <time>2020-11-16T13:02:55Z</time>
      </trkpt>
      <trkpt lat="28.7625170" lon="-17.8864080">
        <ele>2222.2</ele>
        <time>2020-11-16T13:02:56Z</time>
      </trkpt>
      <trkpt lat="28.7625170" lon="-17.8864080">
        <ele>2222.2</ele>
        <time>2020-11-16T13:02:57Z</time>
      </trkpt>
      <trkpt lat="28.7625280" lon="-17.8863630">
        <ele>2222.5</ele>
        <time>2020-11-16T13:02:58Z</time>
      </trkpt>
      <trkpt lat="28.7625280" lon="-17.8863630">
        <ele>2222.5</ele>
        <time>2020-11-16T13:02:59Z</time>
      </trkpt>
      <trkpt lat="28.7625350" lon="-17.8863180">
        <ele>2222.8</ele>
        <time>2020-11-16T13:03:00Z</time>
      </trkpt>
      <trkpt lat="28.7625350" lon="-17.8863180">
        <ele>2222.8</ele>
        <time>2020-11-16T13:03:01Z</time>
      </trkpt>
      <trkpt lat="28.7625330" lon="-17.8862780">
        <ele>2223.0</ele>
        <time>2020-11-16T13:03:02Z</time>
      </trkpt>
      <trkpt lat="28.7625330" lon="-17.8862780">
        <ele>2223.0</ele>
        <time>2020-11-16T13:03:03Z</time>
      </trkpt>
      <trkpt lat="28.7625320" lon="-17.8862420">
        <ele>2223.3</ele>
        <time>2020-11-16T13:03:04Z</time>
      </trkpt>
      <trkpt lat="28.7625320" lon="-17.8862420">
        <ele>2223.3</ele>
        <time>2020-11-16T13:03:05Z</time>
      </trkpt>
      <trkpt lat="28.7625200" lon="-17.8862000">
        <ele>2223.5</ele>
        <time>2020-11-16T13:03:06Z</time>
      </trkpt>
      <trkpt lat="28.7625200" lon="-17.8862000">
        <ele>2223.5</ele>
        <time>2020-11-16T13:03:07Z</time>
      </trkpt>
      <trkpt lat="28.7625020" lon="-17.8861620">
        <ele>2223.8</ele>
        <time>2020-11-16T13:03:08Z</time>
      </trkpt>
      <trkpt lat="28.7625020" lon="-17.8861620">
        <ele>2223.8</ele>
        <time>2020-11-16T13:03:09Z</time>
      </trkpt>
      <trkpt lat="28.7624700" lon="-17.8861350">
        <ele>2224.1</ele>
        <time>2020-11-16T13:03:10Z</time>
      </trkpt>
      <trkpt lat="28.7624700" lon="-17.8861350">
        <ele>2224.1</ele>
        <time>2020-11-16T13:03:11Z</time>
      </trkpt>
      <trkpt lat="28.7624300" lon="-17.8861120">
        <ele>2224.4</ele>
        <time>2020-11-16T13:03:12Z</time>
      </trkpt>
      <trkpt lat="28.7624120" lon="-17.8860980">
        <ele>2224.6</ele>
        <time>2020-11-16T13:03:13Z</time>
      </trkpt>
      <trkpt lat="28.7624120" lon="-17.8860980">
        <ele>2224.6</ele>
        <time>2020-11-16T13:03:14Z</time>
      </trkpt>
      <trkpt lat="28.7623770" lon="-17.8860750">
        <ele>2224.9</ele>
        <time>2020-11-16T13:03:15Z</time>
      </trkpt>
      <trkpt lat="28.7623580" lon="-17.8860730">
        <ele>2225.0</ele>
        <time>2020-11-16T13:03:16Z</time>
      </trkpt>
      <trkpt lat="28.7623580" lon="-17.8860730">
        <ele>2225.0</ele>
        <time>2020-11-16T13:03:17Z</time>
      </trkpt>
      <trkpt lat="28.7623150" lon="-17.8860770">
        <ele>2225.3</ele>
        <time>2020-11-16T13:03:18Z</time>
      </trkpt>
      <trkpt lat="28.7622930" lon="-17.8860830">
        <ele>2225.5</ele>
        <time>2020-11-16T13:03:19Z</time>
      </trkpt>
      <trkpt lat="28.7622930" lon="-17.8860830">
        <ele>2225.5</ele>
        <time>2020-11-16T13:03:20Z</time>
      </trkpt>
      <trkpt lat="28.7622550" lon="-17.8861050">
        <ele>2225.8</ele>
        <time>2020-11-16T13:03:21Z</time>
      </trkpt>
      <trkpt lat="28.7622550" lon="-17.8861050">
        <ele>2225.8</ele>
        <time>2020-11-16T13:03:22Z</time>
      </trkpt>
      <trkpt lat="28.7622250" lon="-17.8861280">
        <ele>2226.1</ele>
        <time>2020-11-16T13:03:23Z</time>
      </trkpt>
      <trkpt lat="28.7622250" lon="-17.8861280">
        <ele>2226.1</ele>
        <time>2020-11-16T13:03:24Z</time>
      </trkpt>
      <trkpt lat="28.7621930" lon="-17.8861520">
        <ele>2226.4</ele>
        <time>2020-11-16T13:03:25Z</time>
      </trkpt>
      <trkpt lat="28.7621930" lon="-17.8861520">
        <ele>2226.4</ele>
        <time>2020-11-16T13:03:26Z</time>
      </trkpt>
      <trkpt lat="28.7621650" lon="-17.8861830">
        <ele>2226.7</ele>
        <time>2020-11-16T13:03:27Z</time>
      </trkpt>
      <trkpt lat="28.7621650" lon="-17.8861830">
        <ele>2226.7</ele>
        <time>2020-11-16T13:03:28Z</time>
      </trkpt>
      <trkpt lat="28.7621370" lon="-17.8862120">
        <ele>2226.9</ele>
        <time>2020-11-16T13:03:29Z</time>
      </trkpt>
      <trkpt lat="28.7621370" lon="-17.8862120">
        <ele>2226.9</ele>
        <time>2020-11-16T13:03:30Z</time>
      </trkpt>
      <trkpt lat="28.7621050" lon="-17.8862420">
        <ele>2227.2</ele>
        <time>2020-11-16T13:03:31Z</time>
      </trkpt>
      <trkpt lat="28.7621050" lon="-17.8862420">
        <ele>2227.2</ele>
        <time>2020-11-16T13:03:32Z</time>
      </trkpt>
      <trkpt lat="28.7620780" lon="-17.8862730">
        <ele>2227.5</ele>
        <time>2020-11-16T13:03:33Z</time>
      </trkpt>
      <trkpt lat="28.7620780" lon="-17.8862730">
        <ele>2227.5</ele>
        <time>2020-11-16T13:03:34Z</time>
      </trkpt>
      <trkpt lat="28.7620520" lon="-17.8863050">
        <ele>2227.8</ele>
        <time>2020-11-16T13:03:35Z</time>
      </trkpt>
      <trkpt lat="28.7620520" lon="-17.8863050">
        <ele>2227.8</ele>
        <time>2020-11-16T13:03:36Z</time>
      </trkpt>
      <trkpt lat="28.7620250" lon="-17.8863330">
        <ele>2228.1</ele>
        <time>2020-11-16T13:03:37Z</time>
      </trkpt>
      <trkpt lat="28.7620250" lon="-17.8863330">
        <ele>2228.1</ele>
        <time>2020-11-16T13:03:38Z</time>
      </trkpt>
      <trkpt lat="28.7619930" lon="-17.8863570">
        <ele>2228.3</ele>
        <time>2020-11-16T13:03:39Z</time>
      </trkpt>
      <trkpt lat="28.7619930" lon="-17.8863570">
        <ele>2228.3</ele>
        <time>2020-11-16T13:03:40Z</time>
      </trkpt>
      <trkpt lat="28.7619620" lon="-17.8863900">
        <ele>2228.7</ele>
        <time>2020-11-16T13:03:41Z</time>
      </trkpt>
      <trkpt lat="28.7619620" lon="-17.8863900">
        <ele>2228.7</ele>
        <time>2020-11-16T13:03:42Z</time>
      </trkpt>
      <trkpt lat="28.7619350" lon="-17.8864250">
        <ele>2229.0</ele>
        <time>2020-11-16T13:03:43Z</time>
      </trkpt>
      <trkpt lat="28.7619230" lon="-17.8864400">
        <ele>2229.1</ele>
        <time>2020-11-16T13:03:44Z</time>
      </trkpt>
      <trkpt lat="28.7619230" lon="-17.8864400">
        <ele>2229.1</ele>
        <time>2020-11-16T13:03:45Z</time>
      </trkpt>
      <trkpt lat="28.7618970" lon="-17.8864720">
        <ele>2229.4</ele>
        <time>2020-11-16T13:03:46Z</time>
      </trkpt>
      <trkpt lat="28.7618970" lon="-17.8864720">
        <ele>2229.4</ele>
        <time>2020-11-16T13:03:47Z</time>
      </trkpt>
      <trkpt lat="28.7618720" lon="-17.8865020">
        <ele>2229.6</ele>
        <time>2020-11-16T13:03:48Z</time>
      </trkpt>
      <trkpt lat="28.7618720" lon="-17.8865020">
        <ele>2229.6</ele>
        <time>2020-11-16T13:03:49Z</time>
      </trkpt>
      <trkpt lat="28.7618430" lon="-17.8865320">
        <ele>2229.9</ele>
        <time>2020-11-16T13:03:50Z</time>
      </trkpt>
      <trkpt lat="28.7618430" lon="-17.8865320">
        <ele>2229.9</ele>
        <time>2020-11-16T13:03:51Z</time>
      </trkpt>
      <trkpt lat="28.7618120" lon="-17.8865580">
        <ele>2230.2</ele>
        <time>2020-11-16T13:03:52Z</time>
      </trkpt>
      <trkpt lat="28.7618120" lon="-17.8865580">
        <ele>2230.2</ele>
        <time>2020-11-16T13:03:53Z</time>
      </trkpt>
      <trkpt lat="28.7617850" lon="-17.8865930">
        <ele>2230.5</ele>
        <time>2020-11-16T13:03:54Z</time>
      </trkpt>
      <trkpt lat="28.7617850" lon="-17.8865930">
        <ele>2230.5</ele>
        <time>2020-11-16T13:03:55Z</time>
      </trkpt>
      <trkpt lat="28.7617570" lon="-17.8866220">
        <ele>2230.8</ele>
        <time>2020-11-16T13:03:56Z</time>
      </trkpt>
      <trkpt lat="28.7617570" lon="-17.8866220">
        <ele>2230.8</ele>
        <time>2020-11-16T13:03:57Z</time>
      </trkpt>
      <trkpt lat="28.7617220" lon="-17.8866430">
        <ele>2231.1</ele>
        <time>2020-11-16T13:03:58Z</time>
      </trkpt>
      <trkpt lat="28.7617220" lon="-17.8866430">
        <ele>2231.1</ele>
        <time>2020-11-16T13:03:59Z</time>
      </trkpt>
      <trkpt lat="28.7616870" lon="-17.8866630">
        <ele>2231.4</ele>
        <time>2020-11-16T13:04:00Z</time>
      </trkpt>
      <trkpt lat="28.7616870" lon="-17.8866630">
        <ele>2231.4</ele>
        <time>2020-11-16T13:04:01Z</time>
      </trkpt>
      <trkpt lat="28.7616520" lon="-17.8866850">
        <ele>2231.6</ele>
        <time>2020-11-16T13:04:02Z</time>
      </trkpt>
      <trkpt lat="28.7616520" lon="-17.8866850">
        <ele>2231.6</ele>
        <time>2020-11-16T13:04:03Z</time>
      </trkpt>
      <trkpt lat="28.7616170" lon="-17.8867030">
        <ele>2231.9</ele>
        <time>2020-11-16T13:04:04Z</time>
      </trkpt>
      <trkpt lat="28.7616170" lon="-17.8867030">
        <ele>2231.9</ele>
        <time>2020-11-16T13:04:05Z</time>
      </trkpt>
      <trkpt lat="28.7615780" lon="-17.8867220">
        <ele>2232.2</ele>
        <time>2020-11-16T13:04:06Z</time>
      </trkpt>
      <trkpt lat="28.7615780" lon="-17.8867220">
        <ele>2232.2</ele>
        <time>2020-11-16T13:04:07Z</time>
      </trkpt>
      <trkpt lat="28.7615380" lon="-17.8867330">
        <ele>2232.5</ele>
        <time>2020-11-16T13:04:08Z</time>
      </trkpt>
      <trkpt lat="28.7615380" lon="-17.8867330">
        <ele>2232.5</ele>
        <time>2020-11-16T13:04:09Z</time>
      </trkpt>
      <trkpt lat="28.7614980" lon="-17.8867350">
        <ele>2232.8</ele>
        <time>2020-11-16T13:04:10Z</time>
      </trkpt>
      <trkpt lat="28.7614980" lon="-17.8867350">
        <ele>2232.8</ele>
        <time>2020-11-16T13:04:11Z</time>
      </trkpt>
      <trkpt lat="28.7614550" lon="-17.8867280">
        <ele>2233.2</ele>
        <time>2020-11-16T13:04:12Z</time>
      </trkpt>
      <trkpt lat="28.7614550" lon="-17.8867280">
        <ele>2233.2</ele>
        <time>2020-11-16T13:04:13Z</time>
      </trkpt>
      <trkpt lat="28.7614120" lon="-17.8867250">
        <ele>2233.5</ele>
        <time>2020-11-16T13:04:14Z</time>
      </trkpt>
      <trkpt lat="28.7614120" lon="-17.8867250">
        <ele>2233.5</ele>
        <time>2020-11-16T13:04:15Z</time>
      </trkpt>
      <trkpt lat="28.7613720" lon="-17.8867180">
        <ele>2233.8</ele>
        <time>2020-11-16T13:04:16Z</time>
      </trkpt>
      <trkpt lat="28.7613720" lon="-17.8867180">
        <ele>2233.8</ele>
        <time>2020-11-16T13:04:17Z</time>
      </trkpt>
      <trkpt lat="28.7613320" lon="-17.8867070">
        <ele>2234.1</ele>
        <time>2020-11-16T13:04:18Z</time>
      </trkpt>
      <trkpt lat="28.7613320" lon="-17.8867070">
        <ele>2234.1</ele>
        <time>2020-11-16T13:04:19Z</time>
      </trkpt>
      <trkpt lat="28.7612920" lon="-17.8866970">
        <ele>2234.4</ele>
        <time>2020-11-16T13:04:20Z</time>
      </trkpt>
      <trkpt lat="28.7612920" lon="-17.8866970">
        <ele>2234.4</ele>
        <time>2020-11-16T13:04:21Z</time>
      </trkpt>
      <trkpt lat="28.7612520" lon="-17.8866820">
        <ele>2234.7</ele>
        <time>2020-11-16T13:04:22Z</time>
      </trkpt>
      <trkpt lat="28.7612520" lon="-17.8866820">
        <ele>2234.7</ele>
        <time>2020-11-16T13:04:23Z</time>
      </trkpt>
      <trkpt lat="28.7612120" lon="-17.8866650">
        <ele>2235.0</ele>
        <time>2020-11-16T13:04:24Z</time>
      </trkpt>
      <trkpt lat="28.7612120" lon="-17.8866650">
        <ele>2235.0</ele>
        <time>2020-11-16T13:04:25Z</time>
      </trkpt>
      <trkpt lat="28.7611800" lon="-17.8866430">
        <ele>2235.3</ele>
        <time>2020-11-16T13:04:26Z</time>
      </trkpt>
      <trkpt lat="28.7611800" lon="-17.8866430">
        <ele>2235.3</ele>
        <time>2020-11-16T13:04:27Z</time>
      </trkpt>
      <trkpt lat="28.7611450" lon="-17.8866200">
        <ele>2235.6</ele>
        <time>2020-11-16T13:04:28Z</time>
      </trkpt>
      <trkpt lat="28.7611450" lon="-17.8866200">
        <ele>2235.6</ele>
        <time>2020-11-16T13:04:29Z</time>
      </trkpt>
      <trkpt lat="28.7611080" lon="-17.8865980">
        <ele>2235.9</ele>
        <time>2020-11-16T13:04:30Z</time>
      </trkpt>
      <trkpt lat="28.7611080" lon="-17.8865980">
        <ele>2235.9</ele>
        <time>2020-11-16T13:04:31Z</time>
      </trkpt>
      <trkpt lat="28.7610770" lon="-17.8865800">
        <ele>2236.1</ele>
        <time>2020-11-16T13:04:32Z</time>
      </trkpt>
      <trkpt lat="28.7610770" lon="-17.8865800">
        <ele>2236.1</ele>
        <time>2020-11-16T13:04:33Z</time>
      </trkpt>
      <trkpt lat="28.7610450" lon="-17.8865580">
        <ele>2236.4</ele>
        <time>2020-11-16T13:04:34Z</time>
      </trkpt>
      <trkpt lat="28.7610450" lon="-17.8865580">
        <ele>2236.4</ele>
        <time>2020-11-16T13:04:35Z</time>
      </trkpt>
      <trkpt lat="28.7610150" lon="-17.8865380">
        <ele>2236.8</ele>
        <time>2020-11-16T13:04:36Z</time>
      </trkpt>
      <trkpt lat="28.7610150" lon="-17.8865380">
        <ele>2236.8</ele>
        <time>2020-11-16T13:04:37Z</time>
      </trkpt>
      <trkpt lat="28.7609800" lon="-17.8865220">
        <ele>2237.2</ele>
        <time>2020-11-16T13:04:38Z</time>
      </trkpt>
      <trkpt lat="28.7609630" lon="-17.8865170">
        <ele>2237.4</ele>
        <time>2020-11-16T13:04:39Z</time>
      </trkpt>
      <trkpt lat="28.7609630" lon="-17.8865170">
        <ele>2237.4</ele>
        <time>2020-11-16T13:04:40Z</time>
      </trkpt>
      <trkpt lat="28.7609270" lon="-17.8865030">
        <ele>2237.8</ele>
        <time>2020-11-16T13:04:41Z</time>
      </trkpt>
      <trkpt lat="28.7609270" lon="-17.8865030">
        <ele>2237.8</ele>
        <time>2020-11-16T13:04:42Z</time>
      </trkpt>
      <trkpt lat="28.7608900" lon="-17.8864850">
        <ele>2238.2</ele>
        <time>2020-11-16T13:04:43Z</time>
      </trkpt>
      <trkpt lat="28.7608730" lon="-17.8864770">
        <ele>2238.4</ele>
        <time>2020-11-16T13:04:44Z</time>
      </trkpt>
      <trkpt lat="28.7608730" lon="-17.8864770">
        <ele>2238.4</ele>
        <time>2020-11-16T13:04:45Z</time>
      </trkpt>
      <trkpt lat="28.7608370" lon="-17.8864580">
        <ele>2238.8</ele>
        <time>2020-11-16T13:04:46Z</time>
      </trkpt>
      <trkpt lat="28.7608180" lon="-17.8864480">
        <ele>2239.0</ele>
        <time>2020-11-16T13:04:47Z</time>
      </trkpt>
      <trkpt lat="28.7608180" lon="-17.8864480">
        <ele>2239.0</ele>
        <time>2020-11-16T13:04:48Z</time>
      </trkpt>
      <trkpt lat="28.7607830" lon="-17.8864330">
        <ele>2239.4</ele>
        <time>2020-11-16T13:04:49Z</time>
      </trkpt>
      <trkpt lat="28.7607830" lon="-17.8864330">
        <ele>2239.4</ele>
        <time>2020-11-16T13:04:50Z</time>
      </trkpt>
      <trkpt lat="28.7607470" lon="-17.8864170">
        <ele>2239.8</ele>
        <time>2020-11-16T13:04:51Z</time>
      </trkpt>
      <trkpt lat="28.7607470" lon="-17.8864170">
        <ele>2239.8</ele>
        <time>2020-11-16T13:04:52Z</time>
      </trkpt>
      <trkpt lat="28.7607120" lon="-17.8863980">
        <ele>2240.2</ele>
        <time>2020-11-16T13:04:53Z</time>
      </trkpt>
      <trkpt lat="28.7607120" lon="-17.8863980">
        <ele>2240.2</ele>
        <time>2020-11-16T13:04:54Z</time>
      </trkpt>
      <trkpt lat="28.7606770" lon="-17.8863770">
        <ele>2240.6</ele>
        <time>2020-11-16T13:04:55Z</time>
      </trkpt>
      <trkpt lat="28.7606770" lon="-17.8863770">
        <ele>2240.6</ele>
        <time>2020-11-16T13:04:56Z</time>
      </trkpt>
      <trkpt lat="28.7606450" lon="-17.8863480">
        <ele>2241.0</ele>
        <time>2020-11-16T13:04:57Z</time>
      </trkpt>
      <trkpt lat="28.7606450" lon="-17.8863480">
        <ele>2241.0</ele>
        <time>2020-11-16T13:04:58Z</time>
      </trkpt>
      <trkpt lat="28.7606150" lon="-17.8863170">
        <ele>2241.4</ele>
        <time>2020-11-16T13:04:59Z</time>
      </trkpt>
      <trkpt lat="28.7606000" lon="-17.8863020">
        <ele>2241.6</ele>
        <time>2020-11-16T13:05:00Z</time>
      </trkpt>
      <trkpt lat="28.7605850" lon="-17.8862830">
        <ele>2241.8</ele>
        <time>2020-11-16T13:05:01Z</time>
      </trkpt>
      <trkpt lat="28.7605850" lon="-17.8862830">
        <ele>2241.8</ele>
        <time>2020-11-16T13:05:02Z</time>
      </trkpt>
      <trkpt lat="28.7605580" lon="-17.8862480">
        <ele>2242.2</ele>
        <time>2020-11-16T13:05:03Z</time>
      </trkpt>
      <trkpt lat="28.7605580" lon="-17.8862480">
        <ele>2242.2</ele>
        <time>2020-11-16T13:05:04Z</time>
      </trkpt>
      <trkpt lat="28.7605300" lon="-17.8862120">
        <ele>2242.6</ele>
        <time>2020-11-16T13:05:05Z</time>
      </trkpt>
      <trkpt lat="28.7605300" lon="-17.8862120">
        <ele>2242.6</ele>
        <time>2020-11-16T13:05:06Z</time>
      </trkpt>
      <trkpt lat="28.7604980" lon="-17.8861720">
        <ele>2243.0</ele>
        <time>2020-11-16T13:05:07Z</time>
      </trkpt>
      <trkpt lat="28.7604980" lon="-17.8861720">
        <ele>2243.0</ele>
        <time>2020-11-16T13:05:08Z</time>
      </trkpt>
      <trkpt lat="28.7604630" lon="-17.8861370">
        <ele>2243.4</ele>
        <time>2020-11-16T13:05:09Z</time>
      </trkpt>
      <trkpt lat="28.7604630" lon="-17.8861370">
        <ele>2243.4</ele>
        <time>2020-11-16T13:05:10Z</time>
      </trkpt>
      <trkpt lat="28.7604350" lon="-17.8861020">
        <ele>2243.8</ele>
        <time>2020-11-16T13:05:11Z</time>
      </trkpt>
      <trkpt lat="28.7604350" lon="-17.8861020">
        <ele>2243.8</ele>
        <time>2020-11-16T13:05:12Z</time>
      </trkpt>
      <trkpt lat="28.7604170" lon="-17.8860670">
        <ele>2244.0</ele>
        <time>2020-11-16T13:05:13Z</time>
      </trkpt>
      <trkpt lat="28.7604170" lon="-17.8860670">
        <ele>2244.0</ele>
        <time>2020-11-16T13:05:14Z</time>
      </trkpt>
      <trkpt lat="28.7603980" lon="-17.8860320">
        <ele>2244.3</ele>
        <time>2020-11-16T13:05:15Z</time>
      </trkpt>
      <trkpt lat="28.7603980" lon="-17.8860320">
        <ele>2244.3</ele>
        <time>2020-11-16T13:05:16Z</time>
      </trkpt>
      <trkpt lat="28.7603770" lon="-17.8859970">
        <ele>2244.6</ele>
        <time>2020-11-16T13:05:17Z</time>
      </trkpt>
      <trkpt lat="28.7603770" lon="-17.8859970">
        <ele>2244.6</ele>
        <time>2020-11-16T13:05:18Z</time>
      </trkpt>
      <trkpt lat="28.7603550" lon="-17.8859570">
        <ele>2244.8</ele>
        <time>2020-11-16T13:05:19Z</time>
      </trkpt>
      <trkpt lat="28.7603370" lon="-17.8859320">
        <ele>2245.0</ele>
        <time>2020-11-16T13:05:20Z</time>
      </trkpt>
      <trkpt lat="28.7603370" lon="-17.8859320">
        <ele>2245.0</ele>
        <time>2020-11-16T13:05:21Z</time>
      </trkpt>
      <trkpt lat="28.7603070" lon="-17.8858880">
        <ele>2245.3</ele>
        <time>2020-11-16T13:05:22Z</time>
      </trkpt>
      <trkpt lat="28.7603070" lon="-17.8858880">
        <ele>2245.3</ele>
        <time>2020-11-16T13:05:23Z</time>
      </trkpt>
      <trkpt lat="28.7602730" lon="-17.8858500">
        <ele>2245.6</ele>
        <time>2020-11-16T13:05:24Z</time>
      </trkpt>
      <trkpt lat="28.7602730" lon="-17.8858500">
        <ele>2245.6</ele>
        <time>2020-11-16T13:05:25Z</time>
      </trkpt>
      <trkpt lat="28.7602470" lon="-17.8858080">
        <ele>2245.8</ele>
        <time>2020-11-16T13:05:26Z</time>
      </trkpt>
      <trkpt lat="28.7602470" lon="-17.8858080">
        <ele>2245.8</ele>
        <time>2020-11-16T13:05:27Z</time>
      </trkpt>
      <trkpt lat="28.7602230" lon="-17.8857630">
        <ele>2246.2</ele>
        <time>2020-11-16T13:05:28Z</time>
      </trkpt>
      <trkpt lat="28.7602230" lon="-17.8857630">
        <ele>2246.2</ele>
        <time>2020-11-16T13:05:29Z</time>
      </trkpt>
      <trkpt lat="28.7602070" lon="-17.8857180">
        <ele>2246.5</ele>
        <time>2020-11-16T13:05:30Z</time>
      </trkpt>
      <trkpt lat="28.7602070" lon="-17.8857180">
        <ele>2246.5</ele>
        <time>2020-11-16T13:05:31Z</time>
      </trkpt>
      <trkpt lat="28.7601820" lon="-17.8856720">
        <ele>2246.9</ele>
        <time>2020-11-16T13:05:32Z</time>
      </trkpt>
      <trkpt lat="28.7601820" lon="-17.8856720">
        <ele>2246.9</ele>
        <time>2020-11-16T13:05:33Z</time>
      </trkpt>
      <trkpt lat="28.7601620" lon="-17.8856270">
        <ele>2247.3</ele>
        <time>2020-11-16T13:05:34Z</time>
      </trkpt>
      <trkpt lat="28.7601620" lon="-17.8856270">
        <ele>2247.3</ele>
        <time>2020-11-16T13:05:35Z</time>
      </trkpt>
      <trkpt lat="28.7601380" lon="-17.8855770">
        <ele>2247.7</ele>
        <time>2020-11-16T13:05:36Z</time>
      </trkpt>
      <trkpt lat="28.7601380" lon="-17.8855770">
        <ele>2247.7</ele>
        <time>2020-11-16T13:05:37Z</time>
      </trkpt>
      <trkpt lat="28.7601220" lon="-17.8855250">
        <ele>2248.1</ele>
        <time>2020-11-16T13:05:38Z</time>
      </trkpt>
      <trkpt lat="28.7601220" lon="-17.8855250">
        <ele>2248.1</ele>
        <time>2020-11-16T13:05:39Z</time>
      </trkpt>
      <trkpt lat="28.7601000" lon="-17.8854720">
        <ele>2248.5</ele>
        <time>2020-11-16T13:05:40Z</time>
      </trkpt>
      <trkpt lat="28.7601000" lon="-17.8854720">
        <ele>2248.5</ele>
        <time>2020-11-16T13:05:41Z</time>
      </trkpt>
      <trkpt lat="28.7600780" lon="-17.8854200">
        <ele>2248.9</ele>
        <time>2020-11-16T13:05:42Z</time>
      </trkpt>
      <trkpt lat="28.7600780" lon="-17.8854200">
        <ele>2248.9</ele>
        <time>2020-11-16T13:05:43Z</time>
      </trkpt>
      <trkpt lat="28.7600520" lon="-17.8853680">
        <ele>2249.3</ele>
        <time>2020-11-16T13:05:44Z</time>
      </trkpt>
      <trkpt lat="28.7600520" lon="-17.8853680">
        <ele>2249.3</ele>
        <time>2020-11-16T13:05:45Z</time>
      </trkpt>
      <trkpt lat="28.7600320" lon="-17.8853080">
        <ele>2249.7</ele>
        <time>2020-11-16T13:05:46Z</time>
      </trkpt>
      <trkpt lat="28.7600320" lon="-17.8853080">
        <ele>2249.7</ele>
        <time>2020-11-16T13:05:47Z</time>
      </trkpt>
      <trkpt lat="28.7600070" lon="-17.8852500">
        <ele>2250.2</ele>
        <time>2020-11-16T13:05:48Z</time>
      </trkpt>
      <trkpt lat="28.7600070" lon="-17.8852500">
        <ele>2250.2</ele>
        <time>2020-11-16T13:05:49Z</time>
      </trkpt>
      <trkpt lat="28.7599680" lon="-17.8852120">
        <ele>2250.6</ele>
        <time>2020-11-16T13:05:50Z</time>
      </trkpt>
      <trkpt lat="28.7599300" lon="-17.8852000">
        <ele>2250.9</ele>
        <time>2020-11-16T13:05:51Z</time>
      </trkpt>
      <trkpt lat="28.7599300" lon="-17.8852000">
        <ele>2250.9</ele>
        <time>2020-11-16T13:05:52Z</time>
      </trkpt>
      <trkpt lat="28.7598880" lon="-17.8851980">
        <ele>2251.3</ele>
        <time>2020-11-16T13:05:53Z</time>
      </trkpt>
      <trkpt lat="28.7598880" lon="-17.8851980">
        <ele>2251.3</ele>
        <time>2020-11-16T13:05:54Z</time>
      </trkpt>
      <trkpt lat="28.7598420" lon="-17.8852050">
        <ele>2251.6</ele>
        <time>2020-11-16T13:05:55Z</time>
      </trkpt>
      <trkpt lat="28.7598420" lon="-17.8852050">
        <ele>2251.6</ele>
        <time>2020-11-16T13:05:56Z</time>
      </trkpt>
      <trkpt lat="28.7597880" lon="-17.8852200">
        <ele>2252.1</ele>
        <time>2020-11-16T13:05:57Z</time>
      </trkpt>
      <trkpt lat="28.7597880" lon="-17.8852200">
        <ele>2252.1</ele>
        <time>2020-11-16T13:05:58Z</time>
      </trkpt>
      <trkpt lat="28.7597350" lon="-17.8852420">
        <ele>2252.5</ele>
        <time>2020-11-16T13:05:59Z</time>
      </trkpt>
      <trkpt lat="28.7597350" lon="-17.8852420">
        <ele>2252.5</ele>
        <time>2020-11-16T13:06:00Z</time>
      </trkpt>
      <trkpt lat="28.7596870" lon="-17.8852750">
        <ele>2253.0</ele>
        <time>2020-11-16T13:06:01Z</time>
      </trkpt>
      <trkpt lat="28.7596870" lon="-17.8852750">
        <ele>2253.0</ele>
        <time>2020-11-16T13:06:02Z</time>
      </trkpt>
      <trkpt lat="28.7596420" lon="-17.8853130">
        <ele>2253.4</ele>
        <time>2020-11-16T13:06:03Z</time>
      </trkpt>
      <trkpt lat="28.7596420" lon="-17.8853130">
        <ele>2253.4</ele>
        <time>2020-11-16T13:06:04Z</time>
      </trkpt>
      <trkpt lat="28.7595980" lon="-17.8853500">
        <ele>2253.9</ele>
        <time>2020-11-16T13:06:05Z</time>
      </trkpt>
      <trkpt lat="28.7595800" lon="-17.8853670">
        <ele>2254.1</ele>
        <time>2020-11-16T13:06:06Z</time>
      </trkpt>
      <trkpt lat="28.7595800" lon="-17.8853670">
        <ele>2254.1</ele>
        <time>2020-11-16T13:06:07Z</time>
      </trkpt>
      <trkpt lat="28.7595420" lon="-17.8854050">
        <ele>2254.5</ele>
        <time>2020-11-16T13:06:08Z</time>
      </trkpt>
      <trkpt lat="28.7595420" lon="-17.8854050">
        <ele>2254.5</ele>
        <time>2020-11-16T13:06:09Z</time>
      </trkpt>
      <trkpt lat="28.7595100" lon="-17.8854520">
        <ele>2254.9</ele>
        <time>2020-11-16T13:06:10Z</time>
      </trkpt>
      <trkpt lat="28.7595100" lon="-17.8854520">
        <ele>2254.9</ele>
        <time>2020-11-16T13:06:11Z</time>
      </trkpt>
      <trkpt lat="28.7594770" lon="-17.8855030">
        <ele>2255.3</ele>
        <time>2020-11-16T13:06:12Z</time>
      </trkpt>
      <trkpt lat="28.7594770" lon="-17.8855030">
        <ele>2255.3</ele>
        <time>2020-11-16T13:06:13Z</time>
      </trkpt>
      <trkpt lat="28.7594420" lon="-17.8855570">
        <ele>2255.8</ele>
        <time>2020-11-16T13:06:14Z</time>
      </trkpt>
      <trkpt lat="28.7594420" lon="-17.8855570">
        <ele>2255.8</ele>
        <time>2020-11-16T13:06:15Z</time>
      </trkpt>
      <trkpt lat="28.7594050" lon="-17.8856100">
        <ele>2256.3</ele>
        <time>2020-11-16T13:06:16Z</time>
      </trkpt>
      <trkpt lat="28.7594050" lon="-17.8856100">
        <ele>2256.3</ele>
        <time>2020-11-16T13:06:17Z</time>
      </trkpt>
      <trkpt lat="28.7593750" lon="-17.8856630">
        <ele>2256.7</ele>
        <time>2020-11-16T13:06:18Z</time>
      </trkpt>
      <trkpt lat="28.7593750" lon="-17.8856630">
        <ele>2256.7</ele>
        <time>2020-11-16T13:06:19Z</time>
      </trkpt>
      <trkpt lat="28.7593480" lon="-17.8857180">
        <ele>2257.2</ele>
        <time>2020-11-16T13:06:20Z</time>
      </trkpt>
      <trkpt lat="28.7593480" lon="-17.8857180">
        <ele>2257.2</ele>
        <time>2020-11-16T13:06:21Z</time>
      </trkpt>
      <trkpt lat="28.7593300" lon="-17.8857770">
        <ele>2257.6</ele>
        <time>2020-11-16T13:06:22Z</time>
      </trkpt>
      <trkpt lat="28.7593300" lon="-17.8857770">
        <ele>2257.6</ele>
        <time>2020-11-16T13:06:23Z</time>
      </trkpt>
      <trkpt lat="28.7593130" lon="-17.8858270">
        <ele>2258.0</ele>
        <time>2020-11-16T13:06:24Z</time>
      </trkpt>
      <trkpt lat="28.7593130" lon="-17.8858270">
        <ele>2258.0</ele>
        <time>2020-11-16T13:06:25Z</time>
      </trkpt>
      <trkpt lat="28.7593070" lon="-17.8858780">
        <ele>2258.3</ele>
        <time>2020-11-16T13:06:26Z</time>
      </trkpt>
      <trkpt lat="28.7593070" lon="-17.8858780">
        <ele>2258.3</ele>
        <time>2020-11-16T13:06:27Z</time>
      </trkpt>
      <trkpt lat="28.7592870" lon="-17.8859250">
        <ele>2258.7</ele>
        <time>2020-11-16T13:06:28Z</time>
      </trkpt>
      <trkpt lat="28.7592870" lon="-17.8859250">
        <ele>2258.7</ele>
        <time>2020-11-16T13:06:29Z</time>
      </trkpt>
      <trkpt lat="28.7592680" lon="-17.8859750">
        <ele>2259.1</ele>
        <time>2020-11-16T13:06:30Z</time>
      </trkpt>
      <trkpt lat="28.7592680" lon="-17.8859750">
        <ele>2259.1</ele>
        <time>2020-11-16T13:06:31Z</time>
      </trkpt>
      <trkpt lat="28.7592400" lon="-17.8860080">
        <ele>2259.4</ele>
        <time>2020-11-16T13:06:32Z</time>
      </trkpt>
      <trkpt lat="28.7592400" lon="-17.8860080">
        <ele>2259.4</ele>
        <time>2020-11-16T13:06:33Z</time>
      </trkpt>
      <trkpt lat="28.7592050" lon="-17.8860500">
        <ele>2259.8</ele>
        <time>2020-11-16T13:06:34Z</time>
      </trkpt>
      <trkpt lat="28.7592050" lon="-17.8860500">
        <ele>2259.8</ele>
        <time>2020-11-16T13:06:35Z</time>
      </trkpt>
      <trkpt lat="28.7591980" lon="-17.8860950">
        <ele>2260.1</ele>
        <time>2020-11-16T13:06:36Z</time>
      </trkpt>
      <trkpt lat="28.7591980" lon="-17.8860950">
        <ele>2260.1</ele>
        <time>2020-11-16T13:06:37Z</time>
      </trkpt>
      <trkpt lat="28.7591830" lon="-17.8861380">
        <ele>2260.5</ele>
        <time>2020-11-16T13:06:38Z</time>
      </trkpt>
      <trkpt lat="28.7591830" lon="-17.8861380">
        <ele>2260.5</ele>
        <time>2020-11-16T13:06:39Z</time>
      </trkpt>
      <trkpt lat="28.7591700" lon="-17.8861800">
        <ele>2260.8</ele>
        <time>2020-11-16T13:06:40Z</time>
      </trkpt>
      <trkpt lat="28.7591700" lon="-17.8861800">
        <ele>2260.8</ele>
        <time>2020-11-16T13:06:41Z</time>
      </trkpt>
      <trkpt lat="28.7591480" lon="-17.8862220">
        <ele>2261.1</ele>
        <time>2020-11-16T13:06:42Z</time>
      </trkpt>
      <trkpt lat="28.7591480" lon="-17.8862220">
        <ele>2261.1</ele>
        <time>2020-11-16T13:06:43Z</time>
      </trkpt>
      <trkpt lat="28.7591370" lon="-17.8862630">
        <ele>2261.4</ele>
        <time>2020-11-16T13:06:44Z</time>
      </trkpt>
      <trkpt lat="28.7591370" lon="-17.8862630">
        <ele>2261.4</ele>
        <time>2020-11-16T13:06:45Z</time>
      </trkpt>
      <trkpt lat="28.7591420" lon="-17.8863030">
        <ele>2261.7</ele>
        <time>2020-11-16T13:06:46Z</time>
      </trkpt>
      <trkpt lat="28.7591470" lon="-17.8863230">
        <ele>2261.9</ele>
        <time>2020-11-16T13:06:47Z</time>
      </trkpt>
      <trkpt lat="28.7591470" lon="-17.8863230">
        <ele>2261.9</ele>
        <time>2020-11-16T13:06:48Z</time>
      </trkpt>
      <trkpt lat="28.7591500" lon="-17.8863630">
        <ele>2262.1</ele>
        <time>2020-11-16T13:06:49Z</time>
      </trkpt>
      <trkpt lat="28.7591500" lon="-17.8863630">
        <ele>2262.1</ele>
        <time>2020-11-16T13:06:50Z</time>
      </trkpt>
      <trkpt lat="28.7591470" lon="-17.8864000">
        <ele>2262.4</ele>
        <time>2020-11-16T13:06:51Z</time>
      </trkpt>
      <trkpt lat="28.7591470" lon="-17.8864000">
        <ele>2262.4</ele>
        <time>2020-11-16T13:06:52Z</time>
      </trkpt>
      <trkpt lat="28.7591420" lon="-17.8864380">
        <ele>2262.7</ele>
        <time>2020-11-16T13:06:53Z</time>
      </trkpt>
      <trkpt lat="28.7591420" lon="-17.8864380">
        <ele>2262.7</ele>
        <time>2020-11-16T13:06:54Z</time>
      </trkpt>
      <trkpt lat="28.7591320" lon="-17.8864730">
        <ele>2262.9</ele>
        <time>2020-11-16T13:06:55Z</time>
      </trkpt>
      <trkpt lat="28.7591300" lon="-17.8864920">
        <ele>2263.1</ele>
        <time>2020-11-16T13:06:56Z</time>
      </trkpt>
      <trkpt lat="28.7591300" lon="-17.8864920">
        <ele>2263.1</ele>
        <time>2020-11-16T13:06:57Z</time>
      </trkpt>
      <trkpt lat="28.7591200" lon="-17.8865250">
        <ele>2263.3</ele>
        <time>2020-11-16T13:06:58Z</time>
      </trkpt>
      <trkpt lat="28.7591200" lon="-17.8865250">
        <ele>2263.3</ele>
        <time>2020-11-16T13:06:59Z</time>
      </trkpt>
      <trkpt lat="28.7591070" lon="-17.8865570">
        <ele>2263.6</ele>
        <time>2020-11-16T13:07:00Z</time>
      </trkpt>
      <trkpt lat="28.7590950" lon="-17.8865680">
        <ele>2263.7</ele>
        <time>2020-11-16T13:07:01Z</time>
      </trkpt>
      <trkpt lat="28.7590950" lon="-17.8865680">
        <ele>2263.7</ele>
        <time>2020-11-16T13:07:02Z</time>
      </trkpt>
      <trkpt lat="28.7590980" lon="-17.8866130">
        <ele>2264.0</ele>
        <time>2020-11-16T13:07:03Z</time>
      </trkpt>
      <trkpt lat="28.7590980" lon="-17.8866130">
        <ele>2264.0</ele>
        <time>2020-11-16T13:07:04Z</time>
      </trkpt>
      <trkpt lat="28.7590950" lon="-17.8866550">
        <ele>2264.3</ele>
        <time>2020-11-16T13:07:05Z</time>
      </trkpt>
      <trkpt lat="28.7590950" lon="-17.8866550">
        <ele>2264.3</ele>
        <time>2020-11-16T13:07:06Z</time>
      </trkpt>
      <trkpt lat="28.7590950" lon="-17.8866930">
        <ele>2264.6</ele>
        <time>2020-11-16T13:07:07Z</time>
      </trkpt>
      <trkpt lat="28.7590930" lon="-17.8867170">
        <ele>2264.7</ele>
        <time>2020-11-16T13:07:08Z</time>
      </trkpt>
      <trkpt lat="28.7590930" lon="-17.8867170">
        <ele>2264.7</ele>
        <time>2020-11-16T13:07:09Z</time>
      </trkpt>
      <trkpt lat="28.7590870" lon="-17.8867600">
        <ele>2265.0</ele>
        <time>2020-11-16T13:07:10Z</time>
      </trkpt>
      <trkpt lat="28.7590870" lon="-17.8867600">
        <ele>2265.0</ele>
        <time>2020-11-16T13:07:11Z</time>
      </trkpt>
      <trkpt lat="28.7590750" lon="-17.8868020">
        <ele>2265.3</ele>
        <time>2020-11-16T13:07:12Z</time>
      </trkpt>
      <trkpt lat="28.7590750" lon="-17.8868020">
        <ele>2265.3</ele>
        <time>2020-11-16T13:07:13Z</time>
      </trkpt>
      <trkpt lat="28.7590650" lon="-17.8868400">
        <ele>2265.6</ele>
        <time>2020-11-16T13:07:14Z</time>
      </trkpt>
      <trkpt lat="28.7590650" lon="-17.8868400">
        <ele>2265.6</ele>
        <time>2020-11-16T13:07:15Z</time>
      </trkpt>
      <trkpt lat="28.7590570" lon="-17.8868780">
        <ele>2265.9</ele>
        <time>2020-11-16T13:07:16Z</time>
      </trkpt>
      <trkpt lat="28.7590570" lon="-17.8868780">
        <ele>2265.9</ele>
        <time>2020-11-16T13:07:17Z</time>
      </trkpt>
      <trkpt lat="28.7590450" lon="-17.8869170">
        <ele>2266.2</ele>
        <time>2020-11-16T13:07:18Z</time>
      </trkpt>
      <trkpt lat="28.7590400" lon="-17.8869370">
        <ele>2266.3</ele>
        <time>2020-11-16T13:07:19Z</time>
      </trkpt>
      <trkpt lat="28.7590330" lon="-17.8869580">
        <ele>2266.5</ele>
        <time>2020-11-16T13:07:20Z</time>
      </trkpt>
      <trkpt lat="28.7590330" lon="-17.8869580">
        <ele>2266.5</ele>
        <time>2020-11-16T13:07:21Z</time>
      </trkpt>
      <trkpt lat="28.7590200" lon="-17.8869970">
        <ele>2266.8</ele>
        <time>2020-11-16T13:07:22Z</time>
      </trkpt>
      <trkpt lat="28.7590200" lon="-17.8869970">
        <ele>2266.8</ele>
        <time>2020-11-16T13:07:23Z</time>
      </trkpt>
      <trkpt lat="28.7590050" lon="-17.8870350">
        <ele>2267.1</ele>
        <time>2020-11-16T13:07:24Z</time>
      </trkpt>
      <trkpt lat="28.7589970" lon="-17.8870530">
        <ele>2267.2</ele>
        <time>2020-11-16T13:07:25Z</time>
      </trkpt>
      <trkpt lat="28.7589880" lon="-17.8870720">
        <ele>2267.4</ele>
        <time>2020-11-16T13:07:26Z</time>
      </trkpt>
      <trkpt lat="28.7589880" lon="-17.8870720">
        <ele>2267.4</ele>
        <time>2020-11-16T13:07:27Z</time>
      </trkpt>
      <trkpt lat="28.7589750" lon="-17.8871120">
        <ele>2267.7</ele>
        <time>2020-11-16T13:07:28Z</time>
      </trkpt>
      <trkpt lat="28.7589750" lon="-17.8871120">
        <ele>2267.7</ele>
        <time>2020-11-16T13:07:29Z</time>
      </trkpt>
      <trkpt lat="28.7589580" lon="-17.8871520">
        <ele>2268.0</ele>
        <time>2020-11-16T13:07:30Z</time>
      </trkpt>
      <trkpt lat="28.7589580" lon="-17.8871520">
        <ele>2268.0</ele>
        <time>2020-11-16T13:07:31Z</time>
      </trkpt>
      <trkpt lat="28.7589430" lon="-17.8871930">
        <ele>2268.3</ele>
        <time>2020-11-16T13:07:32Z</time>
      </trkpt>
      <trkpt lat="28.7589430" lon="-17.8871930">
        <ele>2268.3</ele>
        <time>2020-11-16T13:07:33Z</time>
      </trkpt>
      <trkpt lat="28.7589280" lon="-17.8872330">
        <ele>2268.6</ele>
        <time>2020-11-16T13:07:34Z</time>
      </trkpt>
      <trkpt lat="28.7589280" lon="-17.8872330">
        <ele>2268.6</ele>
        <time>2020-11-16T13:07:35Z</time>
      </trkpt>
      <trkpt lat="28.7589080" lon="-17.8872750">
        <ele>2268.9</ele>
        <time>2020-11-16T13:07:36Z</time>
      </trkpt>
      <trkpt lat="28.7589020" lon="-17.8872950">
        <ele>2269.1</ele>
        <time>2020-11-16T13:07:37Z</time>
      </trkpt>
      <trkpt lat="28.7589020" lon="-17.8872950">
        <ele>2269.1</ele>
        <time>2020-11-16T13:07:38Z</time>
      </trkpt>
      <trkpt lat="28.7588830" lon="-17.8873330">
        <ele>2269.4</ele>
        <time>2020-11-16T13:07:39Z</time>
      </trkpt>
      <trkpt lat="28.7588830" lon="-17.8873330">
        <ele>2269.4</ele>
        <time>2020-11-16T13:07:40Z</time>
      </trkpt>
      <trkpt lat="28.7588630" lon="-17.8873720">
        <ele>2269.7</ele>
        <time>2020-11-16T13:07:41Z</time>
      </trkpt>
      <trkpt lat="28.7588630" lon="-17.8873720">
        <ele>2269.7</ele>
        <time>2020-11-16T13:07:42Z</time>
      </trkpt>
      <trkpt lat="28.7588480" lon="-17.8874120">
        <ele>2270.0</ele>
        <time>2020-11-16T13:07:43Z</time>
      </trkpt>
      <trkpt lat="28.7588400" lon="-17.8874300">
        <ele>2270.2</ele>
        <time>2020-11-16T13:07:44Z</time>
      </trkpt>
      <trkpt lat="28.7588400" lon="-17.8874300">
        <ele>2270.2</ele>
        <time>2020-11-16T13:07:45Z</time>
      </trkpt>
      <trkpt lat="28.7588170" lon="-17.8874700">
        <ele>2270.5</ele>
        <time>2020-11-16T13:07:46Z</time>
      </trkpt>
      <trkpt lat="28.7588170" lon="-17.8874700">
        <ele>2270.5</ele>
        <time>2020-11-16T13:07:47Z</time>
      </trkpt>
      <trkpt lat="28.7587950" lon="-17.8875120">
        <ele>2270.8</ele>
        <time>2020-11-16T13:07:48Z</time>
      </trkpt>
      <trkpt lat="28.7587950" lon="-17.8875120">
        <ele>2270.8</ele>
        <time>2020-11-16T13:07:49Z</time>
      </trkpt>
      <trkpt lat="28.7587730" lon="-17.8875500">
        <ele>2271.2</ele>
        <time>2020-11-16T13:07:50Z</time>
      </trkpt>
      <trkpt lat="28.7587730" lon="-17.8875500">
        <ele>2271.2</ele>
        <time>2020-11-16T13:07:51Z</time>
      </trkpt>
      <trkpt lat="28.7587550" lon="-17.8875850">
        <ele>2271.4</ele>
        <time>2020-11-16T13:07:52Z</time>
      </trkpt>
      <trkpt lat="28.7587550" lon="-17.8875850">
        <ele>2271.4</ele>
        <time>2020-11-16T13:07:53Z</time>
      </trkpt>
      <trkpt lat="28.7587370" lon="-17.8876180">
        <ele>2271.7</ele>
        <time>2020-11-16T13:07:54Z</time>
      </trkpt>
      <trkpt lat="28.7587370" lon="-17.8876180">
        <ele>2271.7</ele>
        <time>2020-11-16T13:07:55Z</time>
      </trkpt>
      <trkpt lat="28.7587170" lon="-17.8876500">
        <ele>2272.0</ele>
        <time>2020-11-16T13:07:56Z</time>
      </trkpt>
      <trkpt lat="28.7587170" lon="-17.8876500">
        <ele>2272.0</ele>
        <time>2020-11-16T13:07:57Z</time>
      </trkpt>
      <trkpt lat="28.7586900" lon="-17.8876820">
        <ele>2272.3</ele>
        <time>2020-11-16T13:07:58Z</time>
      </trkpt>
      <trkpt lat="28.7586900" lon="-17.8876820">
        <ele>2272.3</ele>
        <time>2020-11-16T13:07:59Z</time>
      </trkpt>
      <trkpt lat="28.7586620" lon="-17.8877150">
        <ele>2272.6</ele>
        <time>2020-11-16T13:08:00Z</time>
      </trkpt>
      <trkpt lat="28.7586620" lon="-17.8877150">
        <ele>2272.6</ele>
        <time>2020-11-16T13:08:01Z</time>
      </trkpt>
      <trkpt lat="28.7586320" lon="-17.8877430">
        <ele>2272.9</ele>
        <time>2020-11-16T13:08:02Z</time>
      </trkpt>
      <trkpt lat="28.7586320" lon="-17.8877430">
        <ele>2272.9</ele>
        <time>2020-11-16T13:08:03Z</time>
      </trkpt>
      <trkpt lat="28.7586020" lon="-17.8877630">
        <ele>2273.2</ele>
        <time>2020-11-16T13:08:04Z</time>
      </trkpt>
      <trkpt lat="28.7585850" lon="-17.8877720">
        <ele>2273.4</ele>
        <time>2020-11-16T13:08:05Z</time>
      </trkpt>
      <trkpt lat="28.7585850" lon="-17.8877720">
        <ele>2273.4</ele>
        <time>2020-11-16T13:08:06Z</time>
      </trkpt>
      <trkpt lat="28.7585570" lon="-17.8877830">
        <ele>2273.6</ele>
        <time>2020-11-16T13:08:07Z</time>
      </trkpt>
      <trkpt lat="28.7585430" lon="-17.8877970">
        <ele>2273.8</ele>
        <time>2020-11-16T13:08:08Z</time>
      </trkpt>
      <trkpt lat="28.7585430" lon="-17.8877970">
        <ele>2273.8</ele>
        <time>2020-11-16T13:08:09Z</time>
      </trkpt>
      <trkpt lat="28.7585230" lon="-17.8878180">
        <ele>2274.0</ele>
        <time>2020-11-16T13:08:10Z</time>
      </trkpt>
      <trkpt lat="28.7585230" lon="-17.8878180">
        <ele>2274.0</ele>
        <time>2020-11-16T13:08:11Z</time>
      </trkpt>
      <trkpt lat="28.7585020" lon="-17.8878330">
        <ele>2274.2</ele>
        <time>2020-11-16T13:08:12Z</time>
      </trkpt>
      <trkpt lat="28.7585020" lon="-17.8878330">
        <ele>2274.2</ele>
        <time>2020-11-16T13:08:13Z</time>
      </trkpt>
      <trkpt lat="28.7584750" lon="-17.8878450">
        <ele>2274.4</ele>
        <time>2020-11-16T13:08:14Z</time>
      </trkpt>
      <trkpt lat="28.7584750" lon="-17.8878450">
        <ele>2274.4</ele>
        <time>2020-11-16T13:08:15Z</time>
      </trkpt>
      <trkpt lat="28.7584470" lon="-17.8878520">
        <ele>2274.6</ele>
        <time>2020-11-16T13:08:16Z</time>
      </trkpt>
      <trkpt lat="28.7584470" lon="-17.8878520">
        <ele>2274.6</ele>
        <time>2020-11-16T13:08:17Z</time>
      </trkpt>
      <trkpt lat="28.7584200" lon="-17.8878520">
        <ele>2274.8</ele>
        <time>2020-11-16T13:08:18Z</time>
      </trkpt>
      <trkpt lat="28.7584030" lon="-17.8878530">
        <ele>2275.0</ele>
        <time>2020-11-16T13:08:19Z</time>
      </trkpt>
      <trkpt lat="28.7583870" lon="-17.8878570">
        <ele>2275.1</ele>
        <time>2020-11-16T13:08:20Z</time>
      </trkpt>
      <trkpt lat="28.7583870" lon="-17.8878570">
        <ele>2275.1</ele>
        <time>2020-11-16T13:08:21Z</time>
      </trkpt>
      <trkpt lat="28.7583530" lon="-17.8878600">
        <ele>2275.4</ele>
        <time>2020-11-16T13:08:22Z</time>
      </trkpt>
      <trkpt lat="28.7583530" lon="-17.8878600">
        <ele>2275.4</ele>
        <time>2020-11-16T13:08:23Z</time>
      </trkpt>
      <trkpt lat="28.7583220" lon="-17.8878450">
        <ele>2275.7</ele>
        <time>2020-11-16T13:08:24Z</time>
      </trkpt>
      <trkpt lat="28.7583220" lon="-17.8878450">
        <ele>2275.7</ele>
        <time>2020-11-16T13:08:25Z</time>
      </trkpt>
      <trkpt lat="28.7582850" lon="-17.8878370">
        <ele>2276.0</ele>
        <time>2020-11-16T13:08:26Z</time>
      </trkpt>
      <trkpt lat="28.7582850" lon="-17.8878370">
        <ele>2276.0</ele>
        <time>2020-11-16T13:08:27Z</time>
      </trkpt>
      <trkpt lat="28.7582500" lon="-17.8878330">
        <ele>2276.2</ele>
        <time>2020-11-16T13:08:28Z</time>
      </trkpt>
      <trkpt lat="28.7582500" lon="-17.8878330">
        <ele>2276.2</ele>
        <time>2020-11-16T13:08:29Z</time>
      </trkpt>
      <trkpt lat="28.7582180" lon="-17.8878250">
        <ele>2276.5</ele>
        <time>2020-11-16T13:08:30Z</time>
      </trkpt>
      <trkpt lat="28.7582180" lon="-17.8878250">
        <ele>2276.5</ele>
        <time>2020-11-16T13:08:31Z</time>
      </trkpt>
      <trkpt lat="28.7581870" lon="-17.8878180">
        <ele>2276.8</ele>
        <time>2020-11-16T13:08:32Z</time>
      </trkpt>
      <trkpt lat="28.7581870" lon="-17.8878180">
        <ele>2276.8</ele>
        <time>2020-11-16T13:08:33Z</time>
      </trkpt>
      <trkpt lat="28.7581570" lon="-17.8878080">
        <ele>2277.0</ele>
        <time>2020-11-16T13:08:34Z</time>
      </trkpt>
      <trkpt lat="28.7581420" lon="-17.8878000">
        <ele>2277.1</ele>
        <time>2020-11-16T13:08:35Z</time>
      </trkpt>
      <trkpt lat="28.7581420" lon="-17.8878000">
        <ele>2277.1</ele>
        <time>2020-11-16T13:08:36Z</time>
      </trkpt>
      <trkpt lat="28.7581080" lon="-17.8877850">
        <ele>2277.4</ele>
        <time>2020-11-16T13:08:37Z</time>
      </trkpt>
      <trkpt lat="28.7581080" lon="-17.8877850">
        <ele>2277.4</ele>
        <time>2020-11-16T13:08:38Z</time>
      </trkpt>
      <trkpt lat="28.7580770" lon="-17.8877680">
        <ele>2277.7</ele>
        <time>2020-11-16T13:08:39Z</time>
      </trkpt>
      <trkpt lat="28.7580770" lon="-17.8877680">
        <ele>2277.7</ele>
        <time>2020-11-16T13:08:40Z</time>
      </trkpt>
      <trkpt lat="28.7580430" lon="-17.8877570">
        <ele>2278.0</ele>
        <time>2020-11-16T13:08:41Z</time>
      </trkpt>
      <trkpt lat="28.7580430" lon="-17.8877570">
        <ele>2278.0</ele>
        <time>2020-11-16T13:08:42Z</time>
      </trkpt>
      <trkpt lat="28.7580120" lon="-17.8877480">
        <ele>2278.2</ele>
        <time>2020-11-16T13:08:43Z</time>
      </trkpt>
      <trkpt lat="28.7580120" lon="-17.8877480">
        <ele>2278.2</ele>
        <time>2020-11-16T13:08:44Z</time>
      </trkpt>
      <trkpt lat="28.7579800" lon="-17.8877330">
        <ele>2278.5</ele>
        <time>2020-11-16T13:08:45Z</time>
      </trkpt>
      <trkpt lat="28.7579800" lon="-17.8877330">
        <ele>2278.5</ele>
        <time>2020-11-16T13:08:46Z</time>
      </trkpt>
      <trkpt lat="28.7579470" lon="-17.8877120">
        <ele>2278.8</ele>
        <time>2020-11-16T13:08:47Z</time>
      </trkpt>
      <trkpt lat="28.7579470" lon="-17.8877120">
        <ele>2278.8</ele>
        <time>2020-11-16T13:08:48Z</time>
      </trkpt>
      <trkpt lat="28.7579120" lon="-17.8876830">
        <ele>2279.2</ele>
        <time>2020-11-16T13:08:49Z</time>
      </trkpt>
      <trkpt lat="28.7578970" lon="-17.8876720">
        <ele>2279.3</ele>
        <time>2020-11-16T13:08:50Z</time>
      </trkpt>
      <trkpt lat="28.7578970" lon="-17.8876720">
        <ele>2279.3</ele>
        <time>2020-11-16T13:08:51Z</time>
      </trkpt>
      <trkpt lat="28.7578680" lon="-17.8876480">
        <ele>2279.6</ele>
        <time>2020-11-16T13:08:52Z</time>
      </trkpt>
      <trkpt lat="28.7578530" lon="-17.8876380">
        <ele>2279.7</ele>
        <time>2020-11-16T13:08:53Z</time>
      </trkpt>
      <trkpt lat="28.7578530" lon="-17.8876380">
        <ele>2279.7</ele>
        <time>2020-11-16T13:08:54Z</time>
      </trkpt>
      <trkpt lat="28.7578250" lon="-17.8876270">
        <ele>2280.0</ele>
        <time>2020-11-16T13:08:55Z</time>
      </trkpt>
      <trkpt lat="28.7578250" lon="-17.8876270">
        <ele>2280.0</ele>
        <time>2020-11-16T13:08:56Z</time>
      </trkpt>
      <trkpt lat="28.7577970" lon="-17.8876230">
        <ele>2280.2</ele>
        <time>2020-11-16T13:08:57Z</time>
      </trkpt>
      <trkpt lat="28.7577970" lon="-17.8876230">
        <ele>2280.2</ele>
        <time>2020-11-16T13:08:58Z</time>
      </trkpt>
      <trkpt lat="28.7577700" lon="-17.8876230">
        <ele>2280.4</ele>
        <time>2020-11-16T13:08:59Z</time>
      </trkpt>
      <trkpt lat="28.7577530" lon="-17.8876230">
        <ele>2280.6</ele>
        <time>2020-11-16T13:09:00Z</time>
      </trkpt>
      <trkpt lat="28.7577530" lon="-17.8876230">
        <ele>2280.6</ele>
        <time>2020-11-16T13:09:01Z</time>
      </trkpt>
      <trkpt lat="28.7577150" lon="-17.8876270">
        <ele>2280.9</ele>
        <time>2020-11-16T13:09:02Z</time>
      </trkpt>
      <trkpt lat="28.7577150" lon="-17.8876270">
        <ele>2280.9</ele>
        <time>2020-11-16T13:09:03Z</time>
      </trkpt>
      <trkpt lat="28.7576800" lon="-17.8876320">
        <ele>2281.1</ele>
        <time>2020-11-16T13:09:04Z</time>
      </trkpt>
      <trkpt lat="28.7576800" lon="-17.8876320">
        <ele>2281.1</ele>
        <time>2020-11-16T13:09:05Z</time>
      </trkpt>
      <trkpt lat="28.7576470" lon="-17.8876450">
        <ele>2281.4</ele>
        <time>2020-11-16T13:09:06Z</time>
      </trkpt>
      <trkpt lat="28.7576270" lon="-17.8876470">
        <ele>2281.6</ele>
        <time>2020-11-16T13:09:07Z</time>
      </trkpt>
      <trkpt lat="28.7576270" lon="-17.8876470">
        <ele>2281.6</ele>
        <time>2020-11-16T13:09:08Z</time>
      </trkpt>
      <trkpt lat="28.7575880" lon="-17.8876500">
        <ele>2281.9</ele>
        <time>2020-11-16T13:09:09Z</time>
      </trkpt>
      <trkpt lat="28.7575880" lon="-17.8876500">
        <ele>2281.9</ele>
        <time>2020-11-16T13:09:10Z</time>
      </trkpt>
      <trkpt lat="28.7575570" lon="-17.8876530">
        <ele>2282.2</ele>
        <time>2020-11-16T13:09:11Z</time>
      </trkpt>
      <trkpt lat="28.7575570" lon="-17.8876530">
        <ele>2282.2</ele>
        <time>2020-11-16T13:09:12Z</time>
      </trkpt>
      <trkpt lat="28.7575150" lon="-17.8876530">
        <ele>2282.5</ele>
        <time>2020-11-16T13:09:13Z</time>
      </trkpt>
      <trkpt lat="28.7575150" lon="-17.8876530">
        <ele>2282.5</ele>
        <time>2020-11-16T13:09:14Z</time>
      </trkpt>
      <trkpt lat="28.7574820" lon="-17.8876450">
        <ele>2282.8</ele>
        <time>2020-11-16T13:09:15Z</time>
      </trkpt>
      <trkpt lat="28.7574820" lon="-17.8876450">
        <ele>2282.8</ele>
        <time>2020-11-16T13:09:16Z</time>
      </trkpt>
      <trkpt lat="28.7574420" lon="-17.8876430">
        <ele>2283.1</ele>
        <time>2020-11-16T13:09:17Z</time>
      </trkpt>
      <trkpt lat="28.7574220" lon="-17.8876430">
        <ele>2283.2</ele>
        <time>2020-11-16T13:09:18Z</time>
      </trkpt>
      <trkpt lat="28.7574220" lon="-17.8876430">
        <ele>2283.2</ele>
        <time>2020-11-16T13:09:19Z</time>
      </trkpt>
      <trkpt lat="28.7573850" lon="-17.8876480">
        <ele>2283.5</ele>
        <time>2020-11-16T13:09:20Z</time>
      </trkpt>
      <trkpt lat="28.7573850" lon="-17.8876480">
        <ele>2283.5</ele>
        <time>2020-11-16T13:09:21Z</time>
      </trkpt>
      <trkpt lat="28.7573550" lon="-17.8876720">
        <ele>2283.8</ele>
        <time>2020-11-16T13:09:22Z</time>
      </trkpt>
      <trkpt lat="28.7573550" lon="-17.8876720">
        <ele>2283.8</ele>
        <time>2020-11-16T13:09:23Z</time>
      </trkpt>
      <trkpt lat="28.7573270" lon="-17.8876980">
        <ele>2284.1</ele>
        <time>2020-11-16T13:09:24Z</time>
      </trkpt>
      <trkpt lat="28.7573270" lon="-17.8876980">
        <ele>2284.1</ele>
        <time>2020-11-16T13:09:25Z</time>
      </trkpt>
      <trkpt lat="28.7573000" lon="-17.8877280">
        <ele>2284.4</ele>
        <time>2020-11-16T13:09:26Z</time>
      </trkpt>
      <trkpt lat="28.7573000" lon="-17.8877280">
        <ele>2284.4</ele>
        <time>2020-11-16T13:09:27Z</time>
      </trkpt>
      <trkpt lat="28.7572770" lon="-17.8877580">
        <ele>2284.7</ele>
        <time>2020-11-16T13:09:28Z</time>
      </trkpt>
      <trkpt lat="28.7572700" lon="-17.8877750">
        <ele>2284.8</ele>
        <time>2020-11-16T13:09:29Z</time>
      </trkpt>
      <trkpt lat="28.7572700" lon="-17.8877750">
        <ele>2284.8</ele>
        <time>2020-11-16T13:09:30Z</time>
      </trkpt>
      <trkpt lat="28.7572600" lon="-17.8878130">
        <ele>2285.1</ele>
        <time>2020-11-16T13:09:31Z</time>
      </trkpt>
      <trkpt lat="28.7572550" lon="-17.8878350">
        <ele>2285.3</ele>
        <time>2020-11-16T13:09:32Z</time>
      </trkpt>
      <trkpt lat="28.7572550" lon="-17.8878350">
        <ele>2285.3</ele>
        <time>2020-11-16T13:09:33Z</time>
      </trkpt>
      <trkpt lat="28.7572450" lon="-17.8878770">
        <ele>2285.6</ele>
        <time>2020-11-16T13:09:34Z</time>
      </trkpt>
      <trkpt lat="28.7572450" lon="-17.8878770">
        <ele>2285.6</ele>
        <time>2020-11-16T13:09:35Z</time>
      </trkpt>
      <trkpt lat="28.7572320" lon="-17.8879200">
        <ele>2285.9</ele>
        <time>2020-11-16T13:09:36Z</time>
      </trkpt>
      <trkpt lat="28.7572320" lon="-17.8879200">
        <ele>2285.9</ele>
        <time>2020-11-16T13:09:37Z</time>
      </trkpt>
      <trkpt lat="28.7572100" lon="-17.8879620">
        <ele>2286.2</ele>
        <time>2020-11-16T13:09:38Z</time>
      </trkpt>
      <trkpt lat="28.7572020" lon="-17.8879820">
        <ele>2286.4</ele>
        <time>2020-11-16T13:09:39Z</time>
      </trkpt>
      <trkpt lat="28.7572020" lon="-17.8879820">
        <ele>2286.4</ele>
        <time>2020-11-16T13:09:40Z</time>
      </trkpt>
      <trkpt lat="28.7571950" lon="-17.8880270">
        <ele>2286.7</ele>
        <time>2020-11-16T13:09:41Z</time>
      </trkpt>
      <trkpt lat="28.7571950" lon="-17.8880270">
        <ele>2286.7</ele>
        <time>2020-11-16T13:09:42Z</time>
      </trkpt>
      <trkpt lat="28.7571850" lon="-17.8880700">
        <ele>2287.0</ele>
        <time>2020-11-16T13:09:43Z</time>
      </trkpt>
      <trkpt lat="28.7571850" lon="-17.8880700">
        <ele>2287.0</ele>
        <time>2020-11-16T13:09:44Z</time>
      </trkpt>
      <trkpt lat="28.7571830" lon="-17.8881070">
        <ele>2287.3</ele>
        <time>2020-11-16T13:09:45Z</time>
      </trkpt>
      <trkpt lat="28.7571770" lon="-17.8881280">
        <ele>2287.4</ele>
        <time>2020-11-16T13:09:46Z</time>
      </trkpt>
      <trkpt lat="28.7571770" lon="-17.8881280">
        <ele>2287.4</ele>
        <time>2020-11-16T13:09:47Z</time>
      </trkpt>
      <trkpt lat="28.7571620" lon="-17.8881720">
        <ele>2287.8</ele>
        <time>2020-11-16T13:09:48Z</time>
      </trkpt>
      <trkpt lat="28.7571620" lon="-17.8881720">
        <ele>2287.8</ele>
        <time>2020-11-16T13:09:49Z</time>
      </trkpt>
      <trkpt lat="28.7571480" lon="-17.8882170">
        <ele>2288.1</ele>
        <time>2020-11-16T13:09:50Z</time>
      </trkpt>
      <trkpt lat="28.7571480" lon="-17.8882170">
        <ele>2288.1</ele>
        <time>2020-11-16T13:09:51Z</time>
      </trkpt>
      <trkpt lat="28.7571330" lon="-17.8882620">
        <ele>2288.5</ele>
        <time>2020-11-16T13:09:52Z</time>
      </trkpt>
      <trkpt lat="28.7571330" lon="-17.8882620">
        <ele>2288.5</ele>
        <time>2020-11-16T13:09:53Z</time>
      </trkpt>
      <trkpt lat="28.7571170" lon="-17.8883070">
        <ele>2288.8</ele>
        <time>2020-11-16T13:09:54Z</time>
      </trkpt>
      <trkpt lat="28.7571170" lon="-17.8883070">
        <ele>2288.8</ele>
        <time>2020-11-16T13:09:55Z</time>
      </trkpt>
      <trkpt lat="28.7570980" lon="-17.8883480">
        <ele>2289.1</ele>
        <time>2020-11-16T13:09:56Z</time>
      </trkpt>
      <trkpt lat="28.7570980" lon="-17.8883480">
        <ele>2289.1</ele>
        <time>2020-11-16T13:09:57Z</time>
      </trkpt>
      <trkpt lat="28.7570750" lon="-17.8883900">
        <ele>2289.5</ele>
        <time>2020-11-16T13:09:58Z</time>
      </trkpt>
      <trkpt lat="28.7570750" lon="-17.8883900">
        <ele>2289.5</ele>
        <time>2020-11-16T13:09:59Z</time>
      </trkpt>
      <trkpt lat="28.7570450" lon="-17.8884270">
        <ele>2289.8</ele>
        <time>2020-11-16T13:10:00Z</time>
      </trkpt>
      <trkpt lat="28.7570450" lon="-17.8884270">
        <ele>2289.8</ele>
        <time>2020-11-16T13:10:01Z</time>
      </trkpt>
      <trkpt lat="28.7570150" lon="-17.8884680">
        <ele>2290.2</ele>
        <time>2020-11-16T13:10:02Z</time>
      </trkpt>
      <trkpt lat="28.7570150" lon="-17.8884680">
        <ele>2290.2</ele>
        <time>2020-11-16T13:10:03Z</time>
      </trkpt>
      <trkpt lat="28.7569780" lon="-17.8885050">
        <ele>2290.6</ele>
        <time>2020-11-16T13:10:04Z</time>
      </trkpt>
      <trkpt lat="28.7569780" lon="-17.8885050">
        <ele>2290.6</ele>
        <time>2020-11-16T13:10:05Z</time>
      </trkpt>
      <trkpt lat="28.7569420" lon="-17.8885300">
        <ele>2290.9</ele>
        <time>2020-11-16T13:10:06Z</time>
      </trkpt>
      <trkpt lat="28.7569420" lon="-17.8885300">
        <ele>2290.9</ele>
        <time>2020-11-16T13:10:07Z</time>
      </trkpt>
      <trkpt lat="28.7569050" lon="-17.8885570">
        <ele>2291.3</ele>
        <time>2020-11-16T13:10:08Z</time>
      </trkpt>
      <trkpt lat="28.7569050" lon="-17.8885570">
        <ele>2291.3</ele>
        <time>2020-11-16T13:10:09Z</time>
      </trkpt>
      <trkpt lat="28.7568700" lon="-17.8885770">
        <ele>2291.6</ele>
        <time>2020-11-16T13:10:10Z</time>
      </trkpt>
      <trkpt lat="28.7568700" lon="-17.8885770">
        <ele>2291.6</ele>
        <time>2020-11-16T13:10:11Z</time>
      </trkpt>
      <trkpt lat="28.7568330" lon="-17.8885930">
        <ele>2291.9</ele>
        <time>2020-11-16T13:10:12Z</time>
      </trkpt>
      <trkpt lat="28.7568330" lon="-17.8885930">
        <ele>2291.9</ele>
        <time>2020-11-16T13:10:13Z</time>
      </trkpt>
      <trkpt lat="28.7567930" lon="-17.8886170">
        <ele>2292.3</ele>
        <time>2020-11-16T13:10:14Z</time>
      </trkpt>
      <trkpt lat="28.7567930" lon="-17.8886170">
        <ele>2292.3</ele>
        <time>2020-11-16T13:10:15Z</time>
      </trkpt>
      <trkpt lat="28.7567550" lon="-17.8886400">
        <ele>2292.6</ele>
        <time>2020-11-16T13:10:16Z</time>
      </trkpt>
      <trkpt lat="28.7567550" lon="-17.8886400">
        <ele>2292.6</ele>
        <time>2020-11-16T13:10:17Z</time>
      </trkpt>
      <trkpt lat="28.7567250" lon="-17.8886620">
        <ele>2292.9</ele>
        <time>2020-11-16T13:10:18Z</time>
      </trkpt>
      <trkpt lat="28.7567250" lon="-17.8886620">
        <ele>2292.9</ele>
        <time>2020-11-16T13:10:19Z</time>
      </trkpt>
      <trkpt lat="28.7566930" lon="-17.8886870">
        <ele>2293.2</ele>
        <time>2020-11-16T13:10:20Z</time>
      </trkpt>
      <trkpt lat="28.7566930" lon="-17.8886870">
        <ele>2293.2</ele>
        <time>2020-11-16T13:10:21Z</time>
      </trkpt>
      <trkpt lat="28.7566580" lon="-17.8887120">
        <ele>2293.5</ele>
        <time>2020-11-16T13:10:22Z</time>
      </trkpt>
      <trkpt lat="28.7566580" lon="-17.8887120">
        <ele>2293.5</ele>
        <time>2020-11-16T13:10:23Z</time>
      </trkpt>
      <trkpt lat="28.7566300" lon="-17.8887370">
        <ele>2293.8</ele>
        <time>2020-11-16T13:10:24Z</time>
      </trkpt>
      <trkpt lat="28.7566300" lon="-17.8887370">
        <ele>2293.8</ele>
        <time>2020-11-16T13:10:25Z</time>
      </trkpt>
      <trkpt lat="28.7565980" lon="-17.8887580">
        <ele>2294.1</ele>
        <time>2020-11-16T13:10:26Z</time>
      </trkpt>
      <trkpt lat="28.7565980" lon="-17.8887580">
        <ele>2294.1</ele>
        <time>2020-11-16T13:10:27Z</time>
      </trkpt>
      <trkpt lat="28.7565670" lon="-17.8887830">
        <ele>2294.4</ele>
        <time>2020-11-16T13:10:28Z</time>
      </trkpt>
      <trkpt lat="28.7565670" lon="-17.8887830">
        <ele>2294.4</ele>
        <time>2020-11-16T13:10:29Z</time>
      </trkpt>
      <trkpt lat="28.7565370" lon="-17.8888070">
        <ele>2294.7</ele>
        <time>2020-11-16T13:10:30Z</time>
      </trkpt>
      <trkpt lat="28.7565370" lon="-17.8888070">
        <ele>2294.7</ele>
        <time>2020-11-16T13:10:31Z</time>
      </trkpt>
      <trkpt lat="28.7565000" lon="-17.8888250">
        <ele>2295.0</ele>
        <time>2020-11-16T13:10:32Z</time>
      </trkpt>
      <trkpt lat="28.7565000" lon="-17.8888250">
        <ele>2295.0</ele>
        <time>2020-11-16T13:10:33Z</time>
      </trkpt>
      <trkpt lat="28.7564600" lon="-17.8888420">
        <ele>2295.4</ele>
        <time>2020-11-16T13:10:34Z</time>
      </trkpt>
      <trkpt lat="28.7564600" lon="-17.8888420">
        <ele>2295.4</ele>
        <time>2020-11-16T13:10:35Z</time>
      </trkpt>
      <trkpt lat="28.7564270" lon="-17.8888670">
        <ele>2295.7</ele>
        <time>2020-11-16T13:10:36Z</time>
      </trkpt>
      <trkpt lat="28.7564270" lon="-17.8888670">
        <ele>2295.7</ele>
        <time>2020-11-16T13:10:37Z</time>
      </trkpt>
      <trkpt lat="28.7563880" lon="-17.8888870">
        <ele>2296.1</ele>
        <time>2020-11-16T13:10:38Z</time>
      </trkpt>
      <trkpt lat="28.7563880" lon="-17.8888870">
        <ele>2296.1</ele>
        <time>2020-11-16T13:10:39Z</time>
      </trkpt>
      <trkpt lat="28.7563480" lon="-17.8888930">
        <ele>2296.4</ele>
        <time>2020-11-16T13:10:40Z</time>
      </trkpt>
      <trkpt lat="28.7563480" lon="-17.8888930">
        <ele>2296.4</ele>
        <time>2020-11-16T13:10:41Z</time>
      </trkpt>
      <trkpt lat="28.7563070" lon="-17.8889000">
        <ele>2296.7</ele>
        <time>2020-11-16T13:10:42Z</time>
      </trkpt>
      <trkpt lat="28.7563070" lon="-17.8889000">
        <ele>2296.7</ele>
        <time>2020-11-16T13:10:43Z</time>
      </trkpt>
      <trkpt lat="28.7562700" lon="-17.8889130">
        <ele>2297.0</ele>
        <time>2020-11-16T13:10:44Z</time>
      </trkpt>
      <trkpt lat="28.7562700" lon="-17.8889130">
        <ele>2297.0</ele>
        <time>2020-11-16T13:10:45Z</time>
      </trkpt>
      <trkpt lat="28.7562330" lon="-17.8889230">
        <ele>2297.3</ele>
        <time>2020-11-16T13:10:46Z</time>
      </trkpt>
      <trkpt lat="28.7562120" lon="-17.8889220">
        <ele>2297.5</ele>
        <time>2020-11-16T13:10:47Z</time>
      </trkpt>
      <trkpt lat="28.7562120" lon="-17.8889220">
        <ele>2297.5</ele>
        <time>2020-11-16T13:10:48Z</time>
      </trkpt>
      <trkpt lat="28.7561700" lon="-17.8889130">
        <ele>2297.8</ele>
        <time>2020-11-16T13:10:49Z</time>
      </trkpt>
      <trkpt lat="28.7561700" lon="-17.8889130">
        <ele>2297.8</ele>
        <time>2020-11-16T13:10:50Z</time>
      </trkpt>
      <trkpt lat="28.7561330" lon="-17.8888970">
        <ele>2298.2</ele>
        <time>2020-11-16T13:10:51Z</time>
      </trkpt>
      <trkpt lat="28.7561150" lon="-17.8888880">
        <ele>2298.3</ele>
        <time>2020-11-16T13:10:52Z</time>
      </trkpt>
      <trkpt lat="28.7561150" lon="-17.8888880">
        <ele>2298.3</ele>
        <time>2020-11-16T13:10:53Z</time>
      </trkpt>
      <trkpt lat="28.7560750" lon="-17.8888870">
        <ele>2298.6</ele>
        <time>2020-11-16T13:10:54Z</time>
      </trkpt>
      <trkpt lat="28.7560750" lon="-17.8888870">
        <ele>2298.6</ele>
        <time>2020-11-16T13:10:55Z</time>
      </trkpt>
      <trkpt lat="28.7560370" lon="-17.8888880">
        <ele>2298.9</ele>
        <time>2020-11-16T13:10:56Z</time>
      </trkpt>
      <trkpt lat="28.7560370" lon="-17.8888880">
        <ele>2298.9</ele>
        <time>2020-11-16T13:10:57Z</time>
      </trkpt>
      <trkpt lat="28.7559930" lon="-17.8888820">
        <ele>2299.3</ele>
        <time>2020-11-16T13:10:58Z</time>
      </trkpt>
      <trkpt lat="28.7559700" lon="-17.8888780">
        <ele>2299.5</ele>
        <time>2020-11-16T13:10:59Z</time>
      </trkpt>
      <trkpt lat="28.7559700" lon="-17.8888780">
        <ele>2299.5</ele>
        <time>2020-11-16T13:11:00Z</time>
      </trkpt>
      <trkpt lat="28.7559230" lon="-17.8888750">
        <ele>2299.9</ele>
        <time>2020-11-16T13:11:01Z</time>
      </trkpt>
      <trkpt lat="28.7559000" lon="-17.8888730">
        <ele>2300.0</ele>
        <time>2020-11-16T13:11:02Z</time>
      </trkpt>
      <trkpt lat="28.7559000" lon="-17.8888730">
        <ele>2300.0</ele>
        <time>2020-11-16T13:11:03Z</time>
      </trkpt>
      <trkpt lat="28.7558550" lon="-17.8888670">
        <ele>2300.4</ele>
        <time>2020-11-16T13:11:04Z</time>
      </trkpt>
      <trkpt lat="28.7558550" lon="-17.8888670">
        <ele>2300.4</ele>
        <time>2020-11-16T13:11:05Z</time>
      </trkpt>
      <trkpt lat="28.7558130" lon="-17.8888530">
        <ele>2300.8</ele>
        <time>2020-11-16T13:11:06Z</time>
      </trkpt>
      <trkpt lat="28.7558130" lon="-17.8888530">
        <ele>2300.8</ele>
        <time>2020-11-16T13:11:07Z</time>
      </trkpt>
      <trkpt lat="28.7557730" lon="-17.8888400">
        <ele>2301.1</ele>
        <time>2020-11-16T13:11:08Z</time>
      </trkpt>
      <trkpt lat="28.7557730" lon="-17.8888400">
        <ele>2301.1</ele>
        <time>2020-11-16T13:11:09Z</time>
      </trkpt>
      <trkpt lat="28.7557380" lon="-17.8888320">
        <ele>2301.4</ele>
        <time>2020-11-16T13:11:10Z</time>
      </trkpt>
      <trkpt lat="28.7557380" lon="-17.8888320">
        <ele>2301.4</ele>
        <time>2020-11-16T13:11:11Z</time>
      </trkpt>
      <trkpt lat="28.7556970" lon="-17.8888130">
        <ele>2301.7</ele>
        <time>2020-11-16T13:11:12Z</time>
      </trkpt>
      <trkpt lat="28.7556970" lon="-17.8888130">
        <ele>2301.7</ele>
        <time>2020-11-16T13:11:13Z</time>
      </trkpt>
      <trkpt lat="28.7556630" lon="-17.8887880">
        <ele>2302.1</ele>
        <time>2020-11-16T13:11:14Z</time>
      </trkpt>
      <trkpt lat="28.7556420" lon="-17.8887820">
        <ele>2302.2</ele>
        <time>2020-11-16T13:11:15Z</time>
      </trkpt>
      <trkpt lat="28.7556420" lon="-17.8887820">
        <ele>2302.2</ele>
        <time>2020-11-16T13:11:16Z</time>
      </trkpt>
      <trkpt lat="28.7555920" lon="-17.8887650">
        <ele>2302.6</ele>
        <time>2020-11-16T13:11:17Z</time>
      </trkpt>
      <trkpt lat="28.7555920" lon="-17.8887650">
        <ele>2302.6</ele>
        <time>2020-11-16T13:11:18Z</time>
      </trkpt>
      <trkpt lat="28.7555620" lon="-17.8887430">
        <ele>2302.9</ele>
        <time>2020-11-16T13:11:19Z</time>
      </trkpt>
      <trkpt lat="28.7555620" lon="-17.8887430">
        <ele>2302.9</ele>
        <time>2020-11-16T13:11:20Z</time>
      </trkpt>
      <trkpt lat="28.7555250" lon="-17.8887180">
        <ele>2303.3</ele>
        <time>2020-11-16T13:11:21Z</time>
      </trkpt>
      <trkpt lat="28.7555250" lon="-17.8887180">
        <ele>2303.3</ele>
        <time>2020-11-16T13:11:22Z</time>
      </trkpt>
      <trkpt lat="28.7554800" lon="-17.8886970">
        <ele>2303.7</ele>
        <time>2020-11-16T13:11:23Z</time>
      </trkpt>
      <trkpt lat="28.7554800" lon="-17.8886970">
        <ele>2303.7</ele>
        <time>2020-11-16T13:11:24Z</time>
      </trkpt>
      <trkpt lat="28.7554430" lon="-17.8886820">
        <ele>2304.0</ele>
        <time>2020-11-16T13:11:25Z</time>
      </trkpt>
      <trkpt lat="28.7554230" lon="-17.8886720">
        <ele>2304.2</ele>
        <time>2020-11-16T13:11:26Z</time>
      </trkpt>
      <trkpt lat="28.7554230" lon="-17.8886720">
        <ele>2304.2</ele>
        <time>2020-11-16T13:11:27Z</time>
      </trkpt>
      <trkpt lat="28.7553880" lon="-17.8886500">
        <ele>2304.5</ele>
        <time>2020-11-16T13:11:28Z</time>
      </trkpt>
      <trkpt lat="28.7553880" lon="-17.8886500">
        <ele>2304.5</ele>
        <time>2020-11-16T13:11:29Z</time>
      </trkpt>
      <trkpt lat="28.7553550" lon="-17.8886280">
        <ele>2304.8</ele>
        <time>2020-11-16T13:11:30Z</time>
      </trkpt>
      <trkpt lat="28.7553420" lon="-17.8886150">
        <ele>2304.9</ele>
        <time>2020-11-16T13:11:31Z</time>
      </trkpt>
      <trkpt lat="28.7553420" lon="-17.8886150">
        <ele>2304.9</ele>
        <time>2020-11-16T13:11:32Z</time>
      </trkpt>
      <trkpt lat="28.7553130" lon="-17.8885870">
        <ele>2305.2</ele>
        <time>2020-11-16T13:11:33Z</time>
      </trkpt>
      <trkpt lat="28.7553130" lon="-17.8885870">
        <ele>2305.2</ele>
        <time>2020-11-16T13:11:34Z</time>
      </trkpt>
      <trkpt lat="28.7552770" lon="-17.8885600">
        <ele>2305.6</ele>
        <time>2020-11-16T13:11:35Z</time>
      </trkpt>
      <trkpt lat="28.7552770" lon="-17.8885600">
        <ele>2305.6</ele>
        <time>2020-11-16T13:11:36Z</time>
      </trkpt>
      <trkpt lat="28.7552320" lon="-17.8885450">
        <ele>2305.9</ele>
        <time>2020-11-16T13:11:37Z</time>
      </trkpt>
      <trkpt lat="28.7552320" lon="-17.8885450">
        <ele>2305.9</ele>
        <time>2020-11-16T13:11:38Z</time>
      </trkpt>
      <trkpt lat="28.7551900" lon="-17.8885500">
        <ele>2306.3</ele>
        <time>2020-11-16T13:11:39Z</time>
      </trkpt>
      <trkpt lat="28.7551900" lon="-17.8885500">
        <ele>2306.3</ele>
        <time>2020-11-16T13:11:40Z</time>
      </trkpt>
      <trkpt lat="28.7551550" lon="-17.8885670">
        <ele>2306.6</ele>
        <time>2020-11-16T13:11:41Z</time>
      </trkpt>
      <trkpt lat="28.7551550" lon="-17.8885670">
        <ele>2306.6</ele>
        <time>2020-11-16T13:11:42Z</time>
      </trkpt>
      <trkpt lat="28.7551230" lon="-17.8885970">
        <ele>2306.9</ele>
        <time>2020-11-16T13:11:43Z</time>
      </trkpt>
      <trkpt lat="28.7551230" lon="-17.8885970">
        <ele>2306.9</ele>
        <time>2020-11-16T13:11:44Z</time>
      </trkpt>
      <trkpt lat="28.7551020" lon="-17.8886350">
        <ele>2307.2</ele>
        <time>2020-11-16T13:11:45Z</time>
      </trkpt>
      <trkpt lat="28.7550920" lon="-17.8886570">
        <ele>2307.4</ele>
        <time>2020-11-16T13:11:46Z</time>
      </trkpt>
      <trkpt lat="28.7550920" lon="-17.8886570">
        <ele>2307.4</ele>
        <time>2020-11-16T13:11:47Z</time>
      </trkpt>
      <trkpt lat="28.7550650" lon="-17.8887000">
        <ele>2307.8</ele>
        <time>2020-11-16T13:11:48Z</time>
      </trkpt>
      <trkpt lat="28.7550550" lon="-17.8887200">
        <ele>2307.9</ele>
        <time>2020-11-16T13:11:49Z</time>
      </trkpt>
      <trkpt lat="28.7550500" lon="-17.8887430">
        <ele>2308.1</ele>
        <time>2020-11-16T13:11:50Z</time>
      </trkpt>
      <trkpt lat="28.7550500" lon="-17.8887430">
        <ele>2308.1</ele>
        <time>2020-11-16T13:11:51Z</time>
      </trkpt>
      <trkpt lat="28.7550400" lon="-17.8887870">
        <ele>2308.4</ele>
        <time>2020-11-16T13:11:52Z</time>
      </trkpt>
      <trkpt lat="28.7550400" lon="-17.8887870">
        <ele>2308.4</ele>
        <time>2020-11-16T13:11:53Z</time>
      </trkpt>
      <trkpt lat="28.7550330" lon="-17.8888380">
        <ele>2308.8</ele>
        <time>2020-11-16T13:11:54Z</time>
      </trkpt>
      <trkpt lat="28.7550330" lon="-17.8888380">
        <ele>2308.8</ele>
        <time>2020-11-16T13:11:55Z</time>
      </trkpt>
      <trkpt lat="28.7550280" lon="-17.8888880">
        <ele>2309.1</ele>
        <time>2020-11-16T13:11:56Z</time>
      </trkpt>
      <trkpt lat="28.7550280" lon="-17.8888880">
        <ele>2309.1</ele>
        <time>2020-11-16T13:11:57Z</time>
      </trkpt>
      <trkpt lat="28.7550250" lon="-17.8889400">
        <ele>2309.5</ele>
        <time>2020-11-16T13:11:58Z</time>
      </trkpt>
      <trkpt lat="28.7550250" lon="-17.8889400">
        <ele>2309.5</ele>
        <time>2020-11-16T13:11:59Z</time>
      </trkpt>
      <trkpt lat="28.7550220" lon="-17.8889920">
        <ele>2309.9</ele>
        <time>2020-11-16T13:12:00Z</time>
      </trkpt>
      <trkpt lat="28.7550220" lon="-17.8890180">
        <ele>2310.1</ele>
        <time>2020-11-16T13:12:01Z</time>
      </trkpt>
      <trkpt lat="28.7550220" lon="-17.8890180">
        <ele>2310.1</ele>
        <time>2020-11-16T13:12:02Z</time>
      </trkpt>
      <trkpt lat="28.7550230" lon="-17.8890700">
        <ele>2310.4</ele>
        <time>2020-11-16T13:12:03Z</time>
      </trkpt>
      <trkpt lat="28.7550230" lon="-17.8890700">
        <ele>2310.4</ele>
        <time>2020-11-16T13:12:04Z</time>
      </trkpt>
      <trkpt lat="28.7550250" lon="-17.8891280">
        <ele>2310.8</ele>
        <time>2020-11-16T13:12:05Z</time>
      </trkpt>
      <trkpt lat="28.7550250" lon="-17.8891280">
        <ele>2310.8</ele>
        <time>2020-11-16T13:12:06Z</time>
      </trkpt>
      <trkpt lat="28.7550270" lon="-17.8891870">
        <ele>2311.2</ele>
        <time>2020-11-16T13:12:07Z</time>
      </trkpt>
      <trkpt lat="28.7550270" lon="-17.8891870">
        <ele>2311.2</ele>
        <time>2020-11-16T13:12:08Z</time>
      </trkpt>
      <trkpt lat="28.7550230" lon="-17.8892480">
        <ele>2311.7</ele>
        <time>2020-11-16T13:12:09Z</time>
      </trkpt>
      <trkpt lat="28.7550230" lon="-17.8892480">
        <ele>2311.7</ele>
        <time>2020-11-16T13:12:10Z</time>
      </trkpt>
      <trkpt lat="28.7550250" lon="-17.8893050">
        <ele>2312.1</ele>
        <time>2020-11-16T13:12:11Z</time>
      </trkpt>
      <trkpt lat="28.7550270" lon="-17.8893320">
        <ele>2312.3</ele>
        <time>2020-11-16T13:12:12Z</time>
      </trkpt>
      <trkpt lat="28.7550270" lon="-17.8893320">
        <ele>2312.3</ele>
        <time>2020-11-16T13:12:13Z</time>
      </trkpt>
      <trkpt lat="28.7550400" lon="-17.8893870">
        <ele>2312.7</ele>
        <time>2020-11-16T13:12:14Z</time>
      </trkpt>
      <trkpt lat="28.7550400" lon="-17.8893870">
        <ele>2312.7</ele>
        <time>2020-11-16T13:12:15Z</time>
      </trkpt>
      <trkpt lat="28.7550470" lon="-17.8894430">
        <ele>2313.1</ele>
        <time>2020-11-16T13:12:16Z</time>
      </trkpt>
      <trkpt lat="28.7550470" lon="-17.8894430">
        <ele>2313.1</ele>
        <time>2020-11-16T13:12:17Z</time>
      </trkpt>
      <trkpt lat="28.7550480" lon="-17.8894970">
        <ele>2313.4</ele>
        <time>2020-11-16T13:12:18Z</time>
      </trkpt>
      <trkpt lat="28.7550520" lon="-17.8895230">
        <ele>2313.6</ele>
        <time>2020-11-16T13:12:19Z</time>
      </trkpt>
      <trkpt lat="28.7550520" lon="-17.8895230">
        <ele>2313.6</ele>
        <time>2020-11-16T13:12:20Z</time>
      </trkpt>
      <trkpt lat="28.7550550" lon="-17.8895700">
        <ele>2314.0</ele>
        <time>2020-11-16T13:12:21Z</time>
      </trkpt>
      <trkpt lat="28.7550550" lon="-17.8895700">
        <ele>2314.0</ele>
        <time>2020-11-16T13:12:22Z</time>
      </trkpt>
      <trkpt lat="28.7550550" lon="-17.8896220">
        <ele>2314.3</ele>
        <time>2020-11-16T13:12:23Z</time>
      </trkpt>
      <trkpt lat="28.7550550" lon="-17.8896220">
        <ele>2314.3</ele>
        <time>2020-11-16T13:12:24Z</time>
      </trkpt>
      <trkpt lat="28.7550630" lon="-17.8896770">
        <ele>2314.7</ele>
        <time>2020-11-16T13:12:25Z</time>
      </trkpt>
      <trkpt lat="28.7550630" lon="-17.8896770">
        <ele>2314.7</ele>
        <time>2020-11-16T13:12:26Z</time>
      </trkpt>
      <trkpt lat="28.7550670" lon="-17.8897320">
        <ele>2315.1</ele>
        <time>2020-11-16T13:12:27Z</time>
      </trkpt>
      <trkpt lat="28.7550670" lon="-17.8897620">
        <ele>2315.3</ele>
        <time>2020-11-16T13:12:28Z</time>
      </trkpt>
      <trkpt lat="28.7550670" lon="-17.8897620">
        <ele>2315.3</ele>
        <time>2020-11-16T13:12:29Z</time>
      </trkpt>
      <trkpt lat="28.7550630" lon="-17.8898180">
        <ele>2315.7</ele>
        <time>2020-11-16T13:12:30Z</time>
      </trkpt>
      <trkpt lat="28.7550630" lon="-17.8898180">
        <ele>2315.7</ele>
        <time>2020-11-16T13:12:31Z</time>
      </trkpt>
      <trkpt lat="28.7550580" lon="-17.8898750">
        <ele>2316.1</ele>
        <time>2020-11-16T13:12:32Z</time>
      </trkpt>
      <trkpt lat="28.7550580" lon="-17.8898750">
        <ele>2316.1</ele>
        <time>2020-11-16T13:12:33Z</time>
      </trkpt>
      <trkpt lat="28.7550450" lon="-17.8899320">
        <ele>2316.5</ele>
        <time>2020-11-16T13:12:34Z</time>
      </trkpt>
      <trkpt lat="28.7550370" lon="-17.8899580">
        <ele>2316.7</ele>
        <time>2020-11-16T13:12:35Z</time>
      </trkpt>
      <trkpt lat="28.7550370" lon="-17.8899580">
        <ele>2316.7</ele>
        <time>2020-11-16T13:12:36Z</time>
      </trkpt>
      <trkpt lat="28.7550170" lon="-17.8900130">
        <ele>2317.2</ele>
        <time>2020-11-16T13:12:37Z</time>
      </trkpt>
      <trkpt lat="28.7550170" lon="-17.8900130">
        <ele>2317.2</ele>
        <time>2020-11-16T13:12:38Z</time>
      </trkpt>
      <trkpt lat="28.7549870" lon="-17.8900620">
        <ele>2317.5</ele>
        <time>2020-11-16T13:12:39Z</time>
      </trkpt>
      <trkpt lat="28.7549870" lon="-17.8900620">
        <ele>2317.5</ele>
        <time>2020-11-16T13:12:40Z</time>
      </trkpt>
      <trkpt lat="28.7549500" lon="-17.8901070">
        <ele>2317.7</ele>
        <time>2020-11-16T13:12:41Z</time>
      </trkpt>
      <trkpt lat="28.7549500" lon="-17.8901070">
        <ele>2317.7</ele>
        <time>2020-11-16T13:12:42Z</time>
      </trkpt>
      <trkpt lat="28.7549080" lon="-17.8901420">
        <ele>2318.0</ele>
        <time>2020-11-16T13:12:43Z</time>
      </trkpt>
      <trkpt lat="28.7549080" lon="-17.8901420">
        <ele>2318.0</ele>
        <time>2020-11-16T13:12:44Z</time>
      </trkpt>
      <trkpt lat="28.7548630" lon="-17.8901730">
        <ele>2318.2</ele>
        <time>2020-11-16T13:12:45Z</time>
      </trkpt>
      <trkpt lat="28.7548630" lon="-17.8901730">
        <ele>2318.2</ele>
        <time>2020-11-16T13:12:46Z</time>
      </trkpt>
      <trkpt lat="28.7548180" lon="-17.8901970">
        <ele>2318.4</ele>
        <time>2020-11-16T13:12:47Z</time>
      </trkpt>
      <trkpt lat="28.7548180" lon="-17.8901970">
        <ele>2318.4</ele>
        <time>2020-11-16T13:12:48Z</time>
      </trkpt>
      <trkpt lat="28.7547670" lon="-17.8902080">
        <ele>2318.6</ele>
        <time>2020-11-16T13:12:49Z</time>
      </trkpt>
      <trkpt lat="28.7547400" lon="-17.8902150">
        <ele>2318.7</ele>
        <time>2020-11-16T13:12:50Z</time>
      </trkpt>
      <trkpt lat="28.7547400" lon="-17.8902150">
        <ele>2318.7</ele>
        <time>2020-11-16T13:12:51Z</time>
      </trkpt>
      <trkpt lat="28.7546900" lon="-17.8902380">
        <ele>2318.9</ele>
        <time>2020-11-16T13:12:52Z</time>
      </trkpt>
      <trkpt lat="28.7546900" lon="-17.8902380">
        <ele>2318.9</ele>
        <time>2020-11-16T13:12:53Z</time>
      </trkpt>
      <trkpt lat="28.7546470" lon="-17.8902580">
        <ele>2319.1</ele>
        <time>2020-11-16T13:12:54Z</time>
      </trkpt>
      <trkpt lat="28.7546470" lon="-17.8902580">
        <ele>2319.1</ele>
        <time>2020-11-16T13:12:55Z</time>
      </trkpt>
      <trkpt lat="28.7545980" lon="-17.8902600">
        <ele>2319.4</ele>
        <time>2020-11-16T13:12:56Z</time>
      </trkpt>
      <trkpt lat="28.7545980" lon="-17.8902600">
        <ele>2319.4</ele>
        <time>2020-11-16T13:12:57Z</time>
      </trkpt>
      <trkpt lat="28.7545480" lon="-17.8902700">
        <ele>2319.6</ele>
        <time>2020-11-16T13:12:58Z</time>
      </trkpt>
      <trkpt lat="28.7545480" lon="-17.8902700">
        <ele>2319.6</ele>
        <time>2020-11-16T13:12:59Z</time>
      </trkpt>
      <trkpt lat="28.7544970" lon="-17.8902800">
        <ele>2319.8</ele>
        <time>2020-11-16T13:13:00Z</time>
      </trkpt>
      <trkpt lat="28.7544970" lon="-17.8902800">
        <ele>2319.8</ele>
        <time>2020-11-16T13:13:01Z</time>
      </trkpt>
      <trkpt lat="28.7544470" lon="-17.8902880">
        <ele>2320.0</ele>
        <time>2020-11-16T13:13:02Z</time>
      </trkpt>
      <trkpt lat="28.7544470" lon="-17.8902880">
        <ele>2320.0</ele>
        <time>2020-11-16T13:13:03Z</time>
      </trkpt>
      <trkpt lat="28.7543970" lon="-17.8902970">
        <ele>2320.3</ele>
        <time>2020-11-16T13:13:04Z</time>
      </trkpt>
      <trkpt lat="28.7543970" lon="-17.8902970">
        <ele>2320.3</ele>
        <time>2020-11-16T13:13:05Z</time>
      </trkpt>
      <trkpt lat="28.7543500" lon="-17.8903070">
        <ele>2320.5</ele>
        <time>2020-11-16T13:13:06Z</time>
      </trkpt>
      <trkpt lat="28.7543230" lon="-17.8903080">
        <ele>2320.7</ele>
        <time>2020-11-16T13:13:07Z</time>
      </trkpt>
      <trkpt lat="28.7542980" lon="-17.8903120">
        <ele>2320.8</ele>
        <time>2020-11-16T13:13:08Z</time>
      </trkpt>
      <trkpt lat="28.7542980" lon="-17.8903120">
        <ele>2320.8</ele>
        <time>2020-11-16T13:13:09Z</time>
      </trkpt>
      <trkpt lat="28.7542500" lon="-17.8903180">
        <ele>2321.1</ele>
        <time>2020-11-16T13:13:10Z</time>
      </trkpt>
      <trkpt lat="28.7542500" lon="-17.8903180">
        <ele>2321.1</ele>
        <time>2020-11-16T13:13:11Z</time>
      </trkpt>
      <trkpt lat="28.7542070" lon="-17.8903280">
        <ele>2321.4</ele>
        <time>2020-11-16T13:13:12Z</time>
      </trkpt>
      <trkpt lat="28.7541870" lon="-17.8903330">
        <ele>2321.6</ele>
        <time>2020-11-16T13:13:13Z</time>
      </trkpt>
      <trkpt lat="28.7541870" lon="-17.8903330">
        <ele>2321.6</ele>
        <time>2020-11-16T13:13:14Z</time>
      </trkpt>
      <trkpt lat="28.7541470" lon="-17.8903400">
        <ele>2321.9</ele>
        <time>2020-11-16T13:13:15Z</time>
      </trkpt>
      <trkpt lat="28.7541470" lon="-17.8903400">
        <ele>2321.9</ele>
        <time>2020-11-16T13:13:16Z</time>
      </trkpt>
      <trkpt lat="28.7541050" lon="-17.8903500">
        <ele>2322.2</ele>
        <time>2020-11-16T13:13:17Z</time>
      </trkpt>
      <trkpt lat="28.7540880" lon="-17.8903600">
        <ele>2322.4</ele>
        <time>2020-11-16T13:13:18Z</time>
      </trkpt>
      <trkpt lat="28.7540880" lon="-17.8903600">
        <ele>2322.4</ele>
        <time>2020-11-16T13:13:19Z</time>
      </trkpt>
      <trkpt lat="28.7540500" lon="-17.8903780">
        <ele>2322.8</ele>
        <time>2020-11-16T13:13:20Z</time>
      </trkpt>
      <trkpt lat="28.7540500" lon="-17.8903780">
        <ele>2322.8</ele>
        <time>2020-11-16T13:13:21Z</time>
      </trkpt>
      <trkpt lat="28.7540120" lon="-17.8903900">
        <ele>2323.1</ele>
        <time>2020-11-16T13:13:22Z</time>
      </trkpt>
      <trkpt lat="28.7540120" lon="-17.8903900">
        <ele>2323.1</ele>
        <time>2020-11-16T13:13:23Z</time>
      </trkpt>
      <trkpt lat="28.7539780" lon="-17.8904100">
        <ele>2323.4</ele>
        <time>2020-11-16T13:13:24Z</time>
      </trkpt>
      <trkpt lat="28.7539780" lon="-17.8904100">
        <ele>2323.4</ele>
        <time>2020-11-16T13:13:25Z</time>
      </trkpt>
      <trkpt lat="28.7539420" lon="-17.8904250">
        <ele>2323.8</ele>
        <time>2020-11-16T13:13:26Z</time>
      </trkpt>
      <trkpt lat="28.7539420" lon="-17.8904250">
        <ele>2323.8</ele>
        <time>2020-11-16T13:13:27Z</time>
      </trkpt>
      <trkpt lat="28.7539000" lon="-17.8904370">
        <ele>2324.2</ele>
        <time>2020-11-16T13:13:28Z</time>
      </trkpt>
      <trkpt lat="28.7538800" lon="-17.8904420">
        <ele>2324.4</ele>
        <time>2020-11-16T13:13:29Z</time>
      </trkpt>
      <trkpt lat="28.7538800" lon="-17.8904420">
        <ele>2324.4</ele>
        <time>2020-11-16T13:13:30Z</time>
      </trkpt>
      <trkpt lat="28.7538430" lon="-17.8904550">
        <ele>2324.8</ele>
        <time>2020-11-16T13:13:31Z</time>
      </trkpt>
      <trkpt lat="28.7538280" lon="-17.8904670">
        <ele>2325.0</ele>
        <time>2020-11-16T13:13:32Z</time>
      </trkpt>
      <trkpt lat="28.7538280" lon="-17.8904670">
        <ele>2325.0</ele>
        <time>2020-11-16T13:13:33Z</time>
      </trkpt>
      <trkpt lat="28.7537950" lon="-17.8904870">
        <ele>2325.4</ele>
        <time>2020-11-16T13:13:34Z</time>
      </trkpt>
      <trkpt lat="28.7537950" lon="-17.8904870">
        <ele>2325.4</ele>
        <time>2020-11-16T13:13:35Z</time>
      </trkpt>
      <trkpt lat="28.7537530" lon="-17.8904950">
        <ele>2325.8</ele>
        <time>2020-11-16T13:13:36Z</time>
      </trkpt>
      <trkpt lat="28.7537530" lon="-17.8904950">
        <ele>2325.8</ele>
        <time>2020-11-16T13:13:37Z</time>
      </trkpt>
      <trkpt lat="28.7537150" lon="-17.8905080">
        <ele>2326.3</ele>
        <time>2020-11-16T13:13:38Z</time>
      </trkpt>
      <trkpt lat="28.7537150" lon="-17.8905080">
        <ele>2326.3</ele>
        <time>2020-11-16T13:13:39Z</time>
      </trkpt>
      <trkpt lat="28.7536800" lon="-17.8905270">
        <ele>2326.7</ele>
        <time>2020-11-16T13:13:40Z</time>
      </trkpt>
      <trkpt lat="28.7536800" lon="-17.8905270">
        <ele>2326.7</ele>
        <time>2020-11-16T13:13:41Z</time>
      </trkpt>
      <trkpt lat="28.7536470" lon="-17.8905450">
        <ele>2327.1</ele>
        <time>2020-11-16T13:13:42Z</time>
      </trkpt>
      <trkpt lat="28.7536300" lon="-17.8905530">
        <ele>2327.3</ele>
        <time>2020-11-16T13:13:43Z</time>
      </trkpt>
      <trkpt lat="28.7536300" lon="-17.8905530">
        <ele>2327.3</ele>
        <time>2020-11-16T13:13:44Z</time>
      </trkpt>
      <trkpt lat="28.7535950" lon="-17.8905670">
        <ele>2327.7</ele>
        <time>2020-11-16T13:13:45Z</time>
      </trkpt>
      <trkpt lat="28.7535800" lon="-17.8905730">
        <ele>2327.9</ele>
        <time>2020-11-16T13:13:46Z</time>
      </trkpt>
      <trkpt lat="28.7535800" lon="-17.8905730">
        <ele>2327.9</ele>
        <time>2020-11-16T13:13:47Z</time>
      </trkpt>
      <trkpt lat="28.7535470" lon="-17.8905880">
        <ele>2328.3</ele>
        <time>2020-11-16T13:13:48Z</time>
      </trkpt>
      <trkpt lat="28.7535470" lon="-17.8905880">
        <ele>2328.3</ele>
        <time>2020-11-16T13:13:49Z</time>
      </trkpt>
      <trkpt lat="28.7535120" lon="-17.8906050">
        <ele>2328.7</ele>
        <time>2020-11-16T13:13:50Z</time>
      </trkpt>
      <trkpt lat="28.7535120" lon="-17.8906050">
        <ele>2328.7</ele>
        <time>2020-11-16T13:13:51Z</time>
      </trkpt>
      <trkpt lat="28.7534750" lon="-17.8906130">
        <ele>2329.2</ele>
        <time>2020-11-16T13:13:52Z</time>
      </trkpt>
      <trkpt lat="28.7534750" lon="-17.8906130">
        <ele>2329.2</ele>
        <time>2020-11-16T13:13:53Z</time>
      </trkpt>
      <trkpt lat="28.7534450" lon="-17.8906280">
        <ele>2329.5</ele>
        <time>2020-11-16T13:13:54Z</time>
      </trkpt>
      <trkpt lat="28.7534450" lon="-17.8906280">
        <ele>2329.5</ele>
        <time>2020-11-16T13:13:55Z</time>
      </trkpt>
      <trkpt lat="28.7534100" lon="-17.8906430">
        <ele>2330.0</ele>
        <time>2020-11-16T13:13:56Z</time>
      </trkpt>
      <trkpt lat="28.7534100" lon="-17.8906430">
        <ele>2330.0</ele>
        <time>2020-11-16T13:13:57Z</time>
      </trkpt>
      <trkpt lat="28.7533720" lon="-17.8906520">
        <ele>2330.4</ele>
        <time>2020-11-16T13:13:58Z</time>
      </trkpt>
      <trkpt lat="28.7533720" lon="-17.8906520">
        <ele>2330.4</ele>
        <time>2020-11-16T13:13:59Z</time>
      </trkpt>
      <trkpt lat="28.7533350" lon="-17.8906580">
        <ele>2330.8</ele>
        <time>2020-11-16T13:14:00Z</time>
      </trkpt>
      <trkpt lat="28.7533150" lon="-17.8906630">
        <ele>2331.1</ele>
        <time>2020-11-16T13:14:01Z</time>
      </trkpt>
      <trkpt lat="28.7533150" lon="-17.8906630">
        <ele>2331.1</ele>
        <time>2020-11-16T13:14:02Z</time>
      </trkpt>
      <trkpt lat="28.7532830" lon="-17.8906780">
        <ele>2331.5</ele>
        <time>2020-11-16T13:14:03Z</time>
      </trkpt>
      <trkpt lat="28.7532700" lon="-17.8906880">
        <ele>2331.6</ele>
        <time>2020-11-16T13:14:04Z</time>
      </trkpt>
      <trkpt lat="28.7532700" lon="-17.8906880">
        <ele>2331.6</ele>
        <time>2020-11-16T13:14:05Z</time>
      </trkpt>
      <trkpt lat="28.7532370" lon="-17.8907020">
        <ele>2332.1</ele>
        <time>2020-11-16T13:14:06Z</time>
      </trkpt>
      <trkpt lat="28.7532370" lon="-17.8907020">
        <ele>2332.1</ele>
        <time>2020-11-16T13:14:07Z</time>
      </trkpt>
      <trkpt lat="28.7532030" lon="-17.8907050">
        <ele>2332.5</ele>
        <time>2020-11-16T13:14:08Z</time>
      </trkpt>
      <trkpt lat="28.7532030" lon="-17.8907050">
        <ele>2332.5</ele>
        <time>2020-11-16T13:14:09Z</time>
      </trkpt>
      <trkpt lat="28.7531700" lon="-17.8907180">
        <ele>2332.9</ele>
        <time>2020-11-16T13:14:10Z</time>
      </trkpt>
      <trkpt lat="28.7531700" lon="-17.8907180">
        <ele>2332.9</ele>
        <time>2020-11-16T13:14:11Z</time>
      </trkpt>
      <trkpt lat="28.7531370" lon="-17.8907350">
        <ele>2333.4</ele>
        <time>2020-11-16T13:14:12Z</time>
      </trkpt>
      <trkpt lat="28.7531370" lon="-17.8907350">
        <ele>2333.4</ele>
        <time>2020-11-16T13:14:13Z</time>
      </trkpt>
      <trkpt lat="28.7531020" lon="-17.8907450">
        <ele>2333.9</ele>
        <time>2020-11-16T13:14:14Z</time>
      </trkpt>
      <trkpt lat="28.7531020" lon="-17.8907450">
        <ele>2333.9</ele>
        <time>2020-11-16T13:14:15Z</time>
      </trkpt>
      <trkpt lat="28.7530650" lon="-17.8907380">
        <ele>2334.4</ele>
        <time>2020-11-16T13:14:16Z</time>
      </trkpt>
      <trkpt lat="28.7530650" lon="-17.8907380">
        <ele>2334.4</ele>
        <time>2020-11-16T13:14:17Z</time>
      </trkpt>
      <trkpt lat="28.7530280" lon="-17.8907400">
        <ele>2334.9</ele>
        <time>2020-11-16T13:14:18Z</time>
      </trkpt>
      <trkpt lat="28.7530100" lon="-17.8907350">
        <ele>2335.1</ele>
        <time>2020-11-16T13:14:19Z</time>
      </trkpt>
      <trkpt lat="28.7530100" lon="-17.8907350">
        <ele>2335.1</ele>
        <time>2020-11-16T13:14:20Z</time>
      </trkpt>
      <trkpt lat="28.7529730" lon="-17.8907180">
        <ele>2335.6</ele>
        <time>2020-11-16T13:14:21Z</time>
      </trkpt>
      <trkpt lat="28.7529730" lon="-17.8907180">
        <ele>2335.6</ele>
        <time>2020-11-16T13:14:22Z</time>
      </trkpt>
      <trkpt lat="28.7529370" lon="-17.8906970">
        <ele>2336.1</ele>
        <time>2020-11-16T13:14:23Z</time>
      </trkpt>
      <trkpt lat="28.7529220" lon="-17.8906870">
        <ele>2336.3</ele>
        <time>2020-11-16T13:14:24Z</time>
      </trkpt>
      <trkpt lat="28.7529220" lon="-17.8906870">
        <ele>2336.3</ele>
        <time>2020-11-16T13:14:25Z</time>
      </trkpt>
      <trkpt lat="28.7528880" lon="-17.8906700">
        <ele>2336.8</ele>
        <time>2020-11-16T13:14:26Z</time>
      </trkpt>
      <trkpt lat="28.7528880" lon="-17.8906700">
        <ele>2336.8</ele>
        <time>2020-11-16T13:14:27Z</time>
      </trkpt>
      <trkpt lat="28.7528570" lon="-17.8906530">
        <ele>2337.2</ele>
        <time>2020-11-16T13:14:28Z</time>
      </trkpt>
      <trkpt lat="28.7528570" lon="-17.8906530">
        <ele>2337.2</ele>
        <time>2020-11-16T13:14:29Z</time>
      </trkpt>
      <trkpt lat="28.7528270" lon="-17.8906320">
        <ele>2337.5</ele>
        <time>2020-11-16T13:14:30Z</time>
      </trkpt>
      <trkpt lat="28.7528200" lon="-17.8906150">
        <ele>2337.7</ele>
        <time>2020-11-16T13:14:31Z</time>
      </trkpt>
      <trkpt lat="28.7528200" lon="-17.8906150">
        <ele>2337.7</ele>
        <time>2020-11-16T13:14:32Z</time>
      </trkpt>
      <trkpt lat="28.7528000" lon="-17.8905850">
        <ele>2338.1</ele>
        <time>2020-11-16T13:14:33Z</time>
      </trkpt>
      <trkpt lat="28.7528000" lon="-17.8905850">
        <ele>2338.1</ele>
        <time>2020-11-16T13:14:34Z</time>
      </trkpt>
      <trkpt lat="28.7527630" lon="-17.8905780">
        <ele>2338.5</ele>
        <time>2020-11-16T13:14:35Z</time>
      </trkpt>
      <trkpt lat="28.7527630" lon="-17.8905780">
        <ele>2338.5</ele>
        <time>2020-11-16T13:14:36Z</time>
      </trkpt>
      <trkpt lat="28.7527250" lon="-17.8905700">
        <ele>2338.9</ele>
        <time>2020-11-16T13:14:37Z</time>
      </trkpt>
      <trkpt lat="28.7527120" lon="-17.8905620">
        <ele>2339.1</ele>
        <time>2020-11-16T13:14:38Z</time>
      </trkpt>
      <trkpt lat="28.7527120" lon="-17.8905620">
        <ele>2339.1</ele>
        <time>2020-11-16T13:14:39Z</time>
      </trkpt>
      <trkpt lat="28.7526800" lon="-17.8905470">
        <ele>2339.5</ele>
        <time>2020-11-16T13:14:40Z</time>
      </trkpt>
      <trkpt lat="28.7526800" lon="-17.8905470">
        <ele>2339.5</ele>
        <time>2020-11-16T13:14:41Z</time>
      </trkpt>
      <trkpt lat="28.7526480" lon="-17.8905270">
        <ele>2339.9</ele>
        <time>2020-11-16T13:14:42Z</time>
      </trkpt>
      <trkpt lat="28.7526480" lon="-17.8905270">
        <ele>2339.9</ele>
        <time>2020-11-16T13:14:43Z</time>
      </trkpt>
      <trkpt lat="28.7526180" lon="-17.8905080">
        <ele>2340.3</ele>
        <time>2020-11-16T13:14:44Z</time>
      </trkpt>
      <trkpt lat="28.7526180" lon="-17.8905080">
        <ele>2340.3</ele>
        <time>2020-11-16T13:14:45Z</time>
      </trkpt>
      <trkpt lat="28.7525880" lon="-17.8904920">
        <ele>2340.7</ele>
        <time>2020-11-16T13:14:46Z</time>
      </trkpt>
      <trkpt lat="28.7525750" lon="-17.8904800">
        <ele>2340.9</ele>
        <time>2020-11-16T13:14:47Z</time>
      </trkpt>
      <trkpt lat="28.7525630" lon="-17.8904700">
        <ele>2341.1</ele>
        <time>2020-11-16T13:14:48Z</time>
      </trkpt>
      <trkpt lat="28.7525630" lon="-17.8904700">
        <ele>2341.1</ele>
        <time>2020-11-16T13:14:49Z</time>
      </trkpt>
      <trkpt lat="28.7525400" lon="-17.8904480">
        <ele>2341.5</ele>
        <time>2020-11-16T13:14:50Z</time>
      </trkpt>
      <trkpt lat="28.7525400" lon="-17.8904480">
        <ele>2341.5</ele>
        <time>2020-11-16T13:14:51Z</time>
      </trkpt>
      <trkpt lat="28.7525170" lon="-17.8904380">
        <ele>2341.8</ele>
        <time>2020-11-16T13:14:52Z</time>
      </trkpt>
      <trkpt lat="28.7525170" lon="-17.8904380">
        <ele>2341.8</ele>
        <time>2020-11-16T13:14:53Z</time>
      </trkpt>
      <trkpt lat="28.7524920" lon="-17.8904230">
        <ele>2342.2</ele>
        <time>2020-11-16T13:14:54Z</time>
      </trkpt>
      <trkpt lat="28.7524920" lon="-17.8904230">
        <ele>2342.2</ele>
        <time>2020-11-16T13:14:55Z</time>
      </trkpt>
      <trkpt lat="28.7524630" lon="-17.8904070">
        <ele>2342.6</ele>
        <time>2020-11-16T13:14:56Z</time>
      </trkpt>
      <trkpt lat="28.7524630" lon="-17.8904070">
        <ele>2342.6</ele>
        <time>2020-11-16T13:14:57Z</time>
      </trkpt>
      <trkpt lat="28.7524370" lon="-17.8903930">
        <ele>2343.0</ele>
        <time>2020-11-16T13:14:58Z</time>
      </trkpt>
      <trkpt lat="28.7524370" lon="-17.8903930">
        <ele>2343.0</ele>
        <time>2020-11-16T13:14:59Z</time>
      </trkpt>
      <trkpt lat="28.7524030" lon="-17.8903780">
        <ele>2343.5</ele>
        <time>2020-11-16T13:15:00Z</time>
      </trkpt>
      <trkpt lat="28.7523850" lon="-17.8903730">
        <ele>2343.7</ele>
        <time>2020-11-16T13:15:01Z</time>
      </trkpt>
      <trkpt lat="28.7523850" lon="-17.8903730">
        <ele>2343.7</ele>
        <time>2020-11-16T13:15:02Z</time>
      </trkpt>
      <trkpt lat="28.7523530" lon="-17.8903550">
        <ele>2344.1</ele>
        <time>2020-11-16T13:15:03Z</time>
      </trkpt>
      <trkpt lat="28.7523530" lon="-17.8903550">
        <ele>2344.1</ele>
        <time>2020-11-16T13:15:04Z</time>
      </trkpt>
      <trkpt lat="28.7523270" lon="-17.8903370">
        <ele>2344.1</ele>
        <time>2020-11-16T13:15:05Z</time>
      </trkpt>
      <trkpt lat="28.7523270" lon="-17.8903370">
        <ele>2344.1</ele>
        <time>2020-11-16T13:15:06Z</time>
      </trkpt>
      <trkpt lat="28.7523020" lon="-17.8903180">
        <ele>2344.1</ele>
        <time>2020-11-16T13:15:07Z</time>
      </trkpt>
      <trkpt lat="28.7522920" lon="-17.8903050">
        <ele>2344.1</ele>
        <time>2020-11-16T13:15:08Z</time>
      </trkpt>
      <trkpt lat="28.7522920" lon="-17.8903050">
        <ele>2344.1</ele>
        <time>2020-11-16T13:15:09Z</time>
      </trkpt>
      <trkpt lat="28.7522750" lon="-17.8902680">
        <ele>2344.1</ele>
        <time>2020-11-16T13:15:10Z</time>
      </trkpt>
      <trkpt lat="28.7522750" lon="-17.8902680">
        <ele>2344.1</ele>
        <time>2020-11-16T13:15:11Z</time>
      </trkpt>
      <trkpt lat="28.7522600" lon="-17.8902330">
        <ele>2344.4</ele>
        <time>2020-11-16T13:15:12Z</time>
      </trkpt>
      <trkpt lat="28.7522550" lon="-17.8902170">
        <ele>2344.5</ele>
        <time>2020-11-16T13:15:13Z</time>
      </trkpt>
      <trkpt lat="28.7522550" lon="-17.8902000">
        <ele>2344.6</ele>
        <time>2020-11-16T13:15:14Z</time>
      </trkpt>
      <trkpt lat="28.7522550" lon="-17.8902000">
        <ele>2344.6</ele>
        <time>2020-11-16T13:15:15Z</time>
      </trkpt>
      <trkpt lat="28.7522600" lon="-17.8901570">
        <ele>2345.0</ele>
        <time>2020-11-16T13:15:16Z</time>
      </trkpt>
      <trkpt lat="28.7522650" lon="-17.8901370">
        <ele>2345.1</ele>
        <time>2020-11-16T13:15:17Z</time>
      </trkpt>
      <trkpt lat="28.7522650" lon="-17.8901370">
        <ele>2345.1</ele>
        <time>2020-11-16T13:15:18Z</time>
      </trkpt>
      <trkpt lat="28.7522770" lon="-17.8900950">
        <ele>2345.5</ele>
        <time>2020-11-16T13:15:19Z</time>
      </trkpt>
      <trkpt lat="28.7522770" lon="-17.8900950">
        <ele>2345.5</ele>
        <time>2020-11-16T13:15:20Z</time>
      </trkpt>
      <trkpt lat="28.7523050" lon="-17.8900670">
        <ele>2345.7</ele>
        <time>2020-11-16T13:15:21Z</time>
      </trkpt>
      <trkpt lat="28.7523050" lon="-17.8900670">
        <ele>2345.7</ele>
        <time>2020-11-16T13:15:22Z</time>
      </trkpt>
      <trkpt lat="28.7523400" lon="-17.8900420">
        <ele>2346.1</ele>
        <time>2020-11-16T13:15:23Z</time>
      </trkpt>
      <trkpt lat="28.7523580" lon="-17.8900300">
        <ele>2346.2</ele>
        <time>2020-11-16T13:15:24Z</time>
      </trkpt>
      <trkpt lat="28.7523580" lon="-17.8900300">
        <ele>2346.2</ele>
        <time>2020-11-16T13:15:25Z</time>
      </trkpt>
      <trkpt lat="28.7523930" lon="-17.8900130">
        <ele>2346.5</ele>
        <time>2020-11-16T13:15:26Z</time>
      </trkpt>
      <trkpt lat="28.7523930" lon="-17.8900130">
        <ele>2346.5</ele>
        <time>2020-11-16T13:15:27Z</time>
      </trkpt>
      <trkpt lat="28.7524320" lon="-17.8900030">
        <ele>2346.7</ele>
        <time>2020-11-16T13:15:28Z</time>
      </trkpt>
      <trkpt lat="28.7524320" lon="-17.8900030">
        <ele>2346.7</ele>
        <time>2020-11-16T13:15:29Z</time>
      </trkpt>
      <trkpt lat="28.7524700" lon="-17.8899930">
        <ele>2347.0</ele>
        <time>2020-11-16T13:15:30Z</time>
      </trkpt>
      <trkpt lat="28.7524700" lon="-17.8899930">
        <ele>2347.0</ele>
        <time>2020-11-16T13:15:31Z</time>
      </trkpt>
      <trkpt lat="28.7525100" lon="-17.8899880">
        <ele>2347.3</ele>
        <time>2020-11-16T13:15:32Z</time>
      </trkpt>
      <trkpt lat="28.7525300" lon="-17.8899870">
        <ele>2347.4</ele>
        <time>2020-11-16T13:15:33Z</time>
      </trkpt>
      <trkpt lat="28.7525300" lon="-17.8899870">
        <ele>2347.4</ele>
        <time>2020-11-16T13:15:34Z</time>
      </trkpt>
      <trkpt lat="28.7525700" lon="-17.8899820">
        <ele>2347.7</ele>
        <time>2020-11-16T13:15:35Z</time>
      </trkpt>
      <trkpt lat="28.7525700" lon="-17.8899820">
        <ele>2347.7</ele>
        <time>2020-11-16T13:15:36Z</time>
      </trkpt>
      <trkpt lat="28.7526050" lon="-17.8899700">
        <ele>2347.9</ele>
        <time>2020-11-16T13:15:37Z</time>
      </trkpt>
      <trkpt lat="28.7526050" lon="-17.8899700">
        <ele>2347.9</ele>
        <time>2020-11-16T13:15:38Z</time>
      </trkpt>
      <trkpt lat="28.7526430" lon="-17.8899620">
        <ele>2348.2</ele>
        <time>2020-11-16T13:15:39Z</time>
      </trkpt>
      <trkpt lat="28.7526630" lon="-17.8899600">
        <ele>2348.3</ele>
        <time>2020-11-16T13:15:40Z</time>
      </trkpt>
      <trkpt lat="28.7526630" lon="-17.8899600">
        <ele>2348.3</ele>
        <time>2020-11-16T13:15:41Z</time>
      </trkpt>
      <trkpt lat="28.7527020" lon="-17.8899580">
        <ele>2348.6</ele>
        <time>2020-11-16T13:15:42Z</time>
      </trkpt>
      <trkpt lat="28.7527020" lon="-17.8899580">
        <ele>2348.6</ele>
        <time>2020-11-16T13:15:43Z</time>
      </trkpt>
      <trkpt lat="28.7527420" lon="-17.8899550">
        <ele>2348.8</ele>
        <time>2020-11-16T13:15:44Z</time>
      </trkpt>
      <trkpt lat="28.7527420" lon="-17.8899550">
        <ele>2348.8</ele>
        <time>2020-11-16T13:15:45Z</time>
      </trkpt>
      <trkpt lat="28.7527780" lon="-17.8899570">
        <ele>2349.1</ele>
        <time>2020-11-16T13:15:46Z</time>
      </trkpt>
      <trkpt lat="28.7527780" lon="-17.8899570">
        <ele>2349.1</ele>
        <time>2020-11-16T13:15:47Z</time>
      </trkpt>
      <trkpt lat="28.7528170" lon="-17.8899530">
        <ele>2349.3</ele>
        <time>2020-11-16T13:15:48Z</time>
      </trkpt>
      <trkpt lat="28.7528170" lon="-17.8899530">
        <ele>2349.3</ele>
        <time>2020-11-16T13:15:49Z</time>
      </trkpt>
      <trkpt lat="28.7528570" lon="-17.8899430">
        <ele>2349.6</ele>
        <time>2020-11-16T13:15:50Z</time>
      </trkpt>
      <trkpt lat="28.7528780" lon="-17.8899370">
        <ele>2349.7</ele>
        <time>2020-11-16T13:15:51Z</time>
      </trkpt>
      <trkpt lat="28.7528780" lon="-17.8899370">
        <ele>2349.7</ele>
        <time>2020-11-16T13:15:52Z</time>
      </trkpt>
      <trkpt lat="28.7529170" lon="-17.8899230">
        <ele>2350.0</ele>
        <time>2020-11-16T13:15:53Z</time>
      </trkpt>
      <trkpt lat="28.7529170" lon="-17.8899230">
        <ele>2350.0</ele>
        <time>2020-11-16T13:15:54Z</time>
      </trkpt>
      <trkpt lat="28.7529530" lon="-17.8899080">
        <ele>2350.2</ele>
        <time>2020-11-16T13:15:55Z</time>
      </trkpt>
      <trkpt lat="28.7529530" lon="-17.8899080">
        <ele>2350.2</ele>
        <time>2020-11-16T13:15:56Z</time>
      </trkpt>
      <trkpt lat="28.7529950" lon="-17.8898870">
        <ele>2350.5</ele>
        <time>2020-11-16T13:15:57Z</time>
      </trkpt>
      <trkpt lat="28.7529950" lon="-17.8898870">
        <ele>2350.5</ele>
        <time>2020-11-16T13:15:58Z</time>
      </trkpt>
      <trkpt lat="28.7530320" lon="-17.8898520">
        <ele>2350.8</ele>
        <time>2020-11-16T13:15:59Z</time>
      </trkpt>
      <trkpt lat="28.7530320" lon="-17.8898520">
        <ele>2350.8</ele>
        <time>2020-11-16T13:16:00Z</time>
      </trkpt>
      <trkpt lat="28.7530630" lon="-17.8898170">
        <ele>2351.0</ele>
        <time>2020-11-16T13:16:01Z</time>
      </trkpt>
      <trkpt lat="28.7530630" lon="-17.8898170">
        <ele>2351.0</ele>
        <time>2020-11-16T13:16:02Z</time>
      </trkpt>
      <trkpt lat="28.7530980" lon="-17.8897880">
        <ele>2351.3</ele>
        <time>2020-11-16T13:16:03Z</time>
      </trkpt>
      <trkpt lat="28.7531130" lon="-17.8897700">
        <ele>2351.4</ele>
        <time>2020-11-16T13:16:04Z</time>
      </trkpt>
      <trkpt lat="28.7531130" lon="-17.8897700">
        <ele>2351.4</ele>
        <time>2020-11-16T13:16:05Z</time>
      </trkpt>
      <trkpt lat="28.7531430" lon="-17.8897350">
        <ele>2351.6</ele>
        <time>2020-11-16T13:16:06Z</time>
      </trkpt>
      <trkpt lat="28.7531430" lon="-17.8897350">
        <ele>2351.6</ele>
        <time>2020-11-16T13:16:07Z</time>
      </trkpt>
      <trkpt lat="28.7531720" lon="-17.8896970">
        <ele>2351.9</ele>
        <time>2020-11-16T13:16:08Z</time>
      </trkpt>
      <trkpt lat="28.7531720" lon="-17.8896970">
        <ele>2351.9</ele>
        <time>2020-11-16T13:16:09Z</time>
      </trkpt>
      <trkpt lat="28.7532000" lon="-17.8896620">
        <ele>2352.2</ele>
        <time>2020-11-16T13:16:10Z</time>
      </trkpt>
      <trkpt lat="28.7532000" lon="-17.8896620">
        <ele>2352.2</ele>
        <time>2020-11-16T13:16:11Z</time>
      </trkpt>
      <trkpt lat="28.7532270" lon="-17.8896200">
        <ele>2352.6</ele>
        <time>2020-11-16T13:16:12Z</time>
      </trkpt>
      <trkpt lat="28.7532270" lon="-17.8896200">
        <ele>2352.6</ele>
        <time>2020-11-16T13:16:13Z</time>
      </trkpt>
      <trkpt lat="28.7532520" lon="-17.8895770">
        <ele>2352.9</ele>
        <time>2020-11-16T13:16:14Z</time>
      </trkpt>
      <trkpt lat="28.7532520" lon="-17.8895770">
        <ele>2352.9</ele>
        <time>2020-11-16T13:16:15Z</time>
      </trkpt>
      <trkpt lat="28.7532750" lon="-17.8895350">
        <ele>2353.3</ele>
        <time>2020-11-16T13:16:16Z</time>
      </trkpt>
      <trkpt lat="28.7532750" lon="-17.8895350">
        <ele>2353.3</ele>
        <time>2020-11-16T13:16:17Z</time>
      </trkpt>
      <trkpt lat="28.7533000" lon="-17.8894920">
        <ele>2353.6</ele>
        <time>2020-11-16T13:16:18Z</time>
      </trkpt>
      <trkpt lat="28.7533000" lon="-17.8894920">
        <ele>2353.6</ele>
        <time>2020-11-16T13:16:19Z</time>
      </trkpt>
      <trkpt lat="28.7533250" lon="-17.8894480">
        <ele>2354.0</ele>
        <time>2020-11-16T13:16:20Z</time>
      </trkpt>
      <trkpt lat="28.7533250" lon="-17.8894480">
        <ele>2354.0</ele>
        <time>2020-11-16T13:16:21Z</time>
      </trkpt>
      <trkpt lat="28.7533480" lon="-17.8894050">
        <ele>2354.3</ele>
        <time>2020-11-16T13:16:22Z</time>
      </trkpt>
      <trkpt lat="28.7533600" lon="-17.8893820">
        <ele>2354.5</ele>
        <time>2020-11-16T13:16:23Z</time>
      </trkpt>
      <trkpt lat="28.7533600" lon="-17.8893820">
        <ele>2354.5</ele>
        <time>2020-11-16T13:16:24Z</time>
      </trkpt>
      <trkpt lat="28.7533850" lon="-17.8893380">
        <ele>2354.8</ele>
        <time>2020-11-16T13:16:25Z</time>
      </trkpt>
      <trkpt lat="28.7533850" lon="-17.8893380">
        <ele>2354.8</ele>
        <time>2020-11-16T13:16:26Z</time>
      </trkpt>
      <trkpt lat="28.7534120" lon="-17.8892950">
        <ele>2355.1</ele>
        <time>2020-11-16T13:16:27Z</time>
      </trkpt>
      <trkpt lat="28.7534230" lon="-17.8892750">
        <ele>2355.2</ele>
        <time>2020-11-16T13:16:28Z</time>
      </trkpt>
      <trkpt lat="28.7534230" lon="-17.8892750">
        <ele>2355.2</ele>
        <time>2020-11-16T13:16:29Z</time>
      </trkpt>
      <trkpt lat="28.7534450" lon="-17.8892370">
        <ele>2355.5</ele>
        <time>2020-11-16T13:16:30Z</time>
      </trkpt>
      <trkpt lat="28.7534450" lon="-17.8892370">
        <ele>2355.5</ele>
        <time>2020-11-16T13:16:31Z</time>
      </trkpt>
      <trkpt lat="28.7534630" lon="-17.8891980">
        <ele>2355.7</ele>
        <time>2020-11-16T13:16:32Z</time>
      </trkpt>
      <trkpt lat="28.7534630" lon="-17.8891980">
        <ele>2355.7</ele>
        <time>2020-11-16T13:16:33Z</time>
      </trkpt>
      <trkpt lat="28.7534850" lon="-17.8891570">
        <ele>2356.0</ele>
        <time>2020-11-16T13:16:34Z</time>
      </trkpt>
      <trkpt lat="28.7534850" lon="-17.8891570">
        <ele>2356.0</ele>
        <time>2020-11-16T13:16:35Z</time>
      </trkpt>
      <trkpt lat="28.7535120" lon="-17.8891170">
        <ele>2356.3</ele>
        <time>2020-11-16T13:16:36Z</time>
      </trkpt>
      <trkpt lat="28.7535120" lon="-17.8891170">
        <ele>2356.3</ele>
        <time>2020-11-16T13:16:37Z</time>
      </trkpt>
      <trkpt lat="28.7535370" lon="-17.8890780">
        <ele>2356.6</ele>
        <time>2020-11-16T13:16:38Z</time>
      </trkpt>
      <trkpt lat="28.7535370" lon="-17.8890780">
        <ele>2356.6</ele>
        <time>2020-11-16T13:16:39Z</time>
      </trkpt>
      <trkpt lat="28.7535600" lon="-17.8890420">
        <ele>2356.9</ele>
        <time>2020-11-16T13:16:40Z</time>
      </trkpt>
      <trkpt lat="28.7535600" lon="-17.8890420">
        <ele>2356.9</ele>
        <time>2020-11-16T13:16:41Z</time>
      </trkpt>
      <trkpt lat="28.7535780" lon="-17.8889980">
        <ele>2357.2</ele>
        <time>2020-11-16T13:16:42Z</time>
      </trkpt>
      <trkpt lat="28.7535780" lon="-17.8889980">
        <ele>2357.2</ele>
        <time>2020-11-16T13:16:43Z</time>
      </trkpt>
      <trkpt lat="28.7536020" lon="-17.8889580">
        <ele>2357.5</ele>
        <time>2020-11-16T13:16:44Z</time>
      </trkpt>
      <trkpt lat="28.7536020" lon="-17.8889580">
        <ele>2357.5</ele>
        <time>2020-11-16T13:16:45Z</time>
      </trkpt>
      <trkpt lat="28.7536280" lon="-17.8889220">
        <ele>2357.7</ele>
        <time>2020-11-16T13:16:46Z</time>
      </trkpt>
      <trkpt lat="28.7536280" lon="-17.8889220">
        <ele>2357.7</ele>
        <time>2020-11-16T13:16:47Z</time>
      </trkpt>
      <trkpt lat="28.7536520" lon="-17.8888820">
        <ele>2358.0</ele>
        <time>2020-11-16T13:16:48Z</time>
      </trkpt>
      <trkpt lat="28.7536520" lon="-17.8888820">
        <ele>2358.0</ele>
        <time>2020-11-16T13:16:49Z</time>
      </trkpt>
      <trkpt lat="28.7536780" lon="-17.8888400">
        <ele>2358.3</ele>
        <time>2020-11-16T13:16:50Z</time>
      </trkpt>
      <trkpt lat="28.7536780" lon="-17.8888400">
        <ele>2358.3</ele>
        <time>2020-11-16T13:16:51Z</time>
      </trkpt>
      <trkpt lat="28.7537020" lon="-17.8887980">
        <ele>2358.7</ele>
        <time>2020-11-16T13:16:52Z</time>
      </trkpt>
      <trkpt lat="28.7537020" lon="-17.8887980">
        <ele>2358.7</ele>
        <time>2020-11-16T13:16:53Z</time>
      </trkpt>
      <trkpt lat="28.7537270" lon="-17.8887570">
        <ele>2359.0</ele>
        <time>2020-11-16T13:16:54Z</time>
      </trkpt>
      <trkpt lat="28.7537380" lon="-17.8887350">
        <ele>2359.1</ele>
        <time>2020-11-16T13:16:55Z</time>
      </trkpt>
      <trkpt lat="28.7537380" lon="-17.8887350">
        <ele>2359.1</ele>
        <time>2020-11-16T13:16:56Z</time>
      </trkpt>
      <trkpt lat="28.7537580" lon="-17.8886920">
        <ele>2359.3</ele>
        <time>2020-11-16T13:16:57Z</time>
      </trkpt>
      <trkpt lat="28.7537580" lon="-17.8886920">
        <ele>2359.3</ele>
        <time>2020-11-16T13:16:58Z</time>
      </trkpt>
      <trkpt lat="28.7537700" lon="-17.8886450">
        <ele>2359.6</ele>
        <time>2020-11-16T13:16:59Z</time>
      </trkpt>
      <trkpt lat="28.7537700" lon="-17.8886450">
        <ele>2359.6</ele>
        <time>2020-11-16T13:17:00Z</time>
      </trkpt>
      <trkpt lat="28.7537830" lon="-17.8885980">
        <ele>2359.9</ele>
        <time>2020-11-16T13:17:01Z</time>
      </trkpt>
      <trkpt lat="28.7537880" lon="-17.8885730">
        <ele>2360.0</ele>
        <time>2020-11-16T13:17:02Z</time>
      </trkpt>
      <trkpt lat="28.7537880" lon="-17.8885730">
        <ele>2360.0</ele>
        <time>2020-11-16T13:17:03Z</time>
      </trkpt>
      <trkpt lat="28.7537930" lon="-17.8885230">
        <ele>2360.3</ele>
        <time>2020-11-16T13:17:04Z</time>
      </trkpt>
      <trkpt lat="28.7537930" lon="-17.8885230">
        <ele>2360.3</ele>
        <time>2020-11-16T13:17:05Z</time>
      </trkpt>
      <trkpt lat="28.7538030" lon="-17.8884750">
        <ele>2360.6</ele>
        <time>2020-11-16T13:17:06Z</time>
      </trkpt>
      <trkpt lat="28.7538030" lon="-17.8884750">
        <ele>2360.6</ele>
        <time>2020-11-16T13:17:07Z</time>
      </trkpt>
      <trkpt lat="28.7538150" lon="-17.8884250">
        <ele>2360.8</ele>
        <time>2020-11-16T13:17:08Z</time>
      </trkpt>
      <trkpt lat="28.7538150" lon="-17.8884250">
        <ele>2360.8</ele>
        <time>2020-11-16T13:17:09Z</time>
      </trkpt>
      <trkpt lat="28.7538180" lon="-17.8883750">
        <ele>2361.1</ele>
        <time>2020-11-16T13:17:10Z</time>
      </trkpt>
      <trkpt lat="28.7538180" lon="-17.8883750">
        <ele>2361.1</ele>
        <time>2020-11-16T13:17:11Z</time>
      </trkpt>
      <trkpt lat="28.7538230" lon="-17.8883220">
        <ele>2361.3</ele>
        <time>2020-11-16T13:17:12Z</time>
      </trkpt>
      <trkpt lat="28.7538230" lon="-17.8883220">
        <ele>2361.3</ele>
        <time>2020-11-16T13:17:13Z</time>
      </trkpt>
      <trkpt lat="28.7538280" lon="-17.8882680">
        <ele>2361.6</ele>
        <time>2020-11-16T13:17:14Z</time>
      </trkpt>
      <trkpt lat="28.7538280" lon="-17.8882680">
        <ele>2361.6</ele>
        <time>2020-11-16T13:17:15Z</time>
      </trkpt>
      <trkpt lat="28.7538350" lon="-17.8882150">
        <ele>2361.8</ele>
        <time>2020-11-16T13:17:16Z</time>
      </trkpt>
      <trkpt lat="28.7538350" lon="-17.8882150">
        <ele>2361.8</ele>
        <time>2020-11-16T13:17:17Z</time>
      </trkpt>
      <trkpt lat="28.7538380" lon="-17.8881650">
        <ele>2362.1</ele>
        <time>2020-11-16T13:17:18Z</time>
      </trkpt>
      <trkpt lat="28.7538380" lon="-17.8881650">
        <ele>2362.1</ele>
        <time>2020-11-16T13:17:19Z</time>
      </trkpt>
      <trkpt lat="28.7538380" lon="-17.8881150">
        <ele>2362.3</ele>
        <time>2020-11-16T13:17:20Z</time>
      </trkpt>
      <trkpt lat="28.7538380" lon="-17.8881150">
        <ele>2362.3</ele>
        <time>2020-11-16T13:17:21Z</time>
      </trkpt>
      <trkpt lat="28.7538300" lon="-17.8880620">
        <ele>2362.5</ele>
        <time>2020-11-16T13:17:22Z</time>
      </trkpt>
      <trkpt lat="28.7538300" lon="-17.8880620">
        <ele>2362.5</ele>
        <time>2020-11-16T13:17:23Z</time>
      </trkpt>
      <trkpt lat="28.7538280" lon="-17.8880120">
        <ele>2362.8</ele>
        <time>2020-11-16T13:17:24Z</time>
      </trkpt>
      <trkpt lat="28.7538280" lon="-17.8880120">
        <ele>2362.8</ele>
        <time>2020-11-16T13:17:25Z</time>
      </trkpt>
      <trkpt lat="28.7538350" lon="-17.8879650">
        <ele>2363.0</ele>
        <time>2020-11-16T13:17:26Z</time>
      </trkpt>
      <trkpt lat="28.7538350" lon="-17.8879650">
        <ele>2363.0</ele>
        <time>2020-11-16T13:17:27Z</time>
      </trkpt>
      <trkpt lat="28.7538420" lon="-17.8879180">
        <ele>2363.3</ele>
        <time>2020-11-16T13:17:28Z</time>
      </trkpt>
      <trkpt lat="28.7538420" lon="-17.8879180">
        <ele>2363.3</ele>
        <time>2020-11-16T13:17:29Z</time>
      </trkpt>
      <trkpt lat="28.7538480" lon="-17.8878720">
        <ele>2363.6</ele>
        <time>2020-11-16T13:17:30Z</time>
      </trkpt>
      <trkpt lat="28.7538570" lon="-17.8878470">
        <ele>2363.7</ele>
        <time>2020-11-16T13:17:31Z</time>
      </trkpt>
      <trkpt lat="28.7538570" lon="-17.8878470">
        <ele>2363.7</ele>
        <time>2020-11-16T13:17:32Z</time>
      </trkpt>
      <trkpt lat="28.7538670" lon="-17.8877980">
        <ele>2364.0</ele>
        <time>2020-11-16T13:17:33Z</time>
      </trkpt>
      <trkpt lat="28.7538680" lon="-17.8877720">
        <ele>2364.2</ele>
        <time>2020-11-16T13:17:34Z</time>
      </trkpt>
      <trkpt lat="28.7538680" lon="-17.8877720">
        <ele>2364.2</ele>
        <time>2020-11-16T13:17:35Z</time>
      </trkpt>
      <trkpt lat="28.7538750" lon="-17.8877180">
        <ele>2364.5</ele>
        <time>2020-11-16T13:17:36Z</time>
      </trkpt>
      <trkpt lat="28.7538750" lon="-17.8877180">
        <ele>2364.5</ele>
        <time>2020-11-16T13:17:37Z</time>
      </trkpt>
      <trkpt lat="28.7538770" lon="-17.8876680">
        <ele>2364.8</ele>
        <time>2020-11-16T13:17:38Z</time>
      </trkpt>
      <trkpt lat="28.7538770" lon="-17.8876680">
        <ele>2364.8</ele>
        <time>2020-11-16T13:17:39Z</time>
      </trkpt>
      <trkpt lat="28.7538780" lon="-17.8876150">
        <ele>2365.1</ele>
        <time>2020-11-16T13:17:40Z</time>
      </trkpt>
      <trkpt lat="28.7538800" lon="-17.8875900">
        <ele>2365.2</ele>
        <time>2020-11-16T13:17:41Z</time>
      </trkpt>
      <trkpt lat="28.7538800" lon="-17.8875900">
        <ele>2365.2</ele>
        <time>2020-11-16T13:17:42Z</time>
      </trkpt>
      <trkpt lat="28.7538800" lon="-17.8875380">
        <ele>2365.5</ele>
        <time>2020-11-16T13:17:43Z</time>
      </trkpt>
      <trkpt lat="28.7538820" lon="-17.8875120">
        <ele>2365.6</ele>
        <time>2020-11-16T13:17:44Z</time>
      </trkpt>
      <trkpt lat="28.7538820" lon="-17.8875120">
        <ele>2365.6</ele>
        <time>2020-11-16T13:17:45Z</time>
      </trkpt>
      <trkpt lat="28.7538830" lon="-17.8874580">
        <ele>2365.9</ele>
        <time>2020-11-16T13:17:46Z</time>
      </trkpt>
      <trkpt lat="28.7538830" lon="-17.8874580">
        <ele>2365.9</ele>
        <time>2020-11-16T13:17:47Z</time>
      </trkpt>
      <trkpt lat="28.7538870" lon="-17.8874030">
        <ele>2366.2</ele>
        <time>2020-11-16T13:17:48Z</time>
      </trkpt>
      <trkpt lat="28.7538870" lon="-17.8874030">
        <ele>2366.2</ele>
        <time>2020-11-16T13:17:49Z</time>
      </trkpt>
      <trkpt lat="28.7538920" lon="-17.8873520">
        <ele>2366.5</ele>
        <time>2020-11-16T13:17:50Z</time>
      </trkpt>
      <trkpt lat="28.7538920" lon="-17.8873520">
        <ele>2366.5</ele>
        <time>2020-11-16T13:17:51Z</time>
      </trkpt>
      <trkpt lat="28.7538900" lon="-17.8873020">
        <ele>2366.8</ele>
        <time>2020-11-16T13:17:52Z</time>
      </trkpt>
      <trkpt lat="28.7538900" lon="-17.8873020">
        <ele>2366.8</ele>
        <time>2020-11-16T13:17:53Z</time>
      </trkpt>
      <trkpt lat="28.7538900" lon="-17.8872530">
        <ele>2367.0</ele>
        <time>2020-11-16T13:17:54Z</time>
      </trkpt>
      <trkpt lat="28.7538900" lon="-17.8872530">
        <ele>2367.0</ele>
        <time>2020-11-16T13:17:55Z</time>
      </trkpt>
      <trkpt lat="28.7538930" lon="-17.8872020">
        <ele>2367.3</ele>
        <time>2020-11-16T13:17:56Z</time>
      </trkpt>
      <trkpt lat="28.7538930" lon="-17.8872020">
        <ele>2367.3</ele>
        <time>2020-11-16T13:17:57Z</time>
      </trkpt>
      <trkpt lat="28.7538980" lon="-17.8871520">
        <ele>2367.6</ele>
        <time>2020-11-16T13:17:58Z</time>
      </trkpt>
      <trkpt lat="28.7539020" lon="-17.8871250">
        <ele>2367.8</ele>
        <time>2020-11-16T13:17:59Z</time>
      </trkpt>
      <trkpt lat="28.7539020" lon="-17.8871250">
        <ele>2367.8</ele>
        <time>2020-11-16T13:18:00Z</time>
      </trkpt>
      <trkpt lat="28.7539100" lon="-17.8870750">
        <ele>2368.1</ele>
        <time>2020-11-16T13:18:01Z</time>
      </trkpt>
      <trkpt lat="28.7539150" lon="-17.8870520">
        <ele>2368.2</ele>
        <time>2020-11-16T13:18:02Z</time>
      </trkpt>
      <trkpt lat="28.7539150" lon="-17.8870520">
        <ele>2368.2</ele>
        <time>2020-11-16T13:18:03Z</time>
      </trkpt>
      <trkpt lat="28.7539230" lon="-17.8870070">
        <ele>2368.5</ele>
        <time>2020-11-16T13:18:04Z</time>
      </trkpt>
      <trkpt lat="28.7539230" lon="-17.8870070">
        <ele>2368.5</ele>
        <time>2020-11-16T13:18:05Z</time>
      </trkpt>
      <trkpt lat="28.7539230" lon="-17.8869600">
        <ele>2368.9</ele>
        <time>2020-11-16T13:18:06Z</time>
      </trkpt>
      <trkpt lat="28.7539230" lon="-17.8869600">
        <ele>2368.9</ele>
        <time>2020-11-16T13:18:07Z</time>
      </trkpt>
      <trkpt lat="28.7539330" lon="-17.8869130">
        <ele>2369.2</ele>
        <time>2020-11-16T13:18:08Z</time>
      </trkpt>
      <trkpt lat="28.7539330" lon="-17.8869130">
        <ele>2369.2</ele>
        <time>2020-11-16T13:18:09Z</time>
      </trkpt>
      <trkpt lat="28.7539350" lon="-17.8868630">
        <ele>2369.6</ele>
        <time>2020-11-16T13:18:10Z</time>
      </trkpt>
      <trkpt lat="28.7539350" lon="-17.8868630">
        <ele>2369.6</ele>
        <time>2020-11-16T13:18:11Z</time>
      </trkpt>
      <trkpt lat="28.7539450" lon="-17.8868170">
        <ele>2370.0</ele>
        <time>2020-11-16T13:18:12Z</time>
      </trkpt>
      <trkpt lat="28.7539450" lon="-17.8868170">
        <ele>2370.0</ele>
        <time>2020-11-16T13:18:13Z</time>
      </trkpt>
      <trkpt lat="28.7539480" lon="-17.8867700">
        <ele>2370.4</ele>
        <time>2020-11-16T13:18:14Z</time>
      </trkpt>
      <trkpt lat="28.7539480" lon="-17.8867700">
        <ele>2370.4</ele>
        <time>2020-11-16T13:18:15Z</time>
      </trkpt>
      <trkpt lat="28.7539470" lon="-17.8867280">
        <ele>2370.8</ele>
        <time>2020-11-16T13:18:16Z</time>
      </trkpt>
      <trkpt lat="28.7539470" lon="-17.8867280">
        <ele>2370.8</ele>
        <time>2020-11-16T13:18:17Z</time>
      </trkpt>
      <trkpt lat="28.7539480" lon="-17.8866800">
        <ele>2371.2</ele>
        <time>2020-11-16T13:18:18Z</time>
      </trkpt>
      <trkpt lat="28.7539480" lon="-17.8866800">
        <ele>2371.2</ele>
        <time>2020-11-16T13:18:19Z</time>
      </trkpt>
      <trkpt lat="28.7539400" lon="-17.8866330">
        <ele>2371.7</ele>
        <time>2020-11-16T13:18:20Z</time>
      </trkpt>
      <trkpt lat="28.7539400" lon="-17.8866330">
        <ele>2371.7</ele>
        <time>2020-11-16T13:18:21Z</time>
      </trkpt>
      <trkpt lat="28.7539450" lon="-17.8865820">
        <ele>2372.2</ele>
        <time>2020-11-16T13:18:22Z</time>
      </trkpt>
      <trkpt lat="28.7539450" lon="-17.8865820">
        <ele>2372.2</ele>
        <time>2020-11-16T13:18:23Z</time>
      </trkpt>
      <trkpt lat="28.7539530" lon="-17.8865330">
        <ele>2372.7</ele>
        <time>2020-11-16T13:18:24Z</time>
      </trkpt>
      <trkpt lat="28.7539570" lon="-17.8865100">
        <ele>2372.9</ele>
        <time>2020-11-16T13:18:25Z</time>
      </trkpt>
      <trkpt lat="28.7539570" lon="-17.8865100">
        <ele>2372.9</ele>
        <time>2020-11-16T13:18:26Z</time>
      </trkpt>
      <trkpt lat="28.7539600" lon="-17.8864650">
        <ele>2373.3</ele>
        <time>2020-11-16T13:18:27Z</time>
      </trkpt>
      <trkpt lat="28.7539600" lon="-17.8864650">
        <ele>2373.3</ele>
        <time>2020-11-16T13:18:28Z</time>
      </trkpt>
      <trkpt lat="28.7539680" lon="-17.8864200">
        <ele>2373.6</ele>
        <time>2020-11-16T13:18:29Z</time>
      </trkpt>
      <trkpt lat="28.7539680" lon="-17.8864200">
        <ele>2373.6</ele>
        <time>2020-11-16T13:18:30Z</time>
      </trkpt>
      <trkpt lat="28.7539830" lon="-17.8863780">
        <ele>2373.9</ele>
        <time>2020-11-16T13:18:31Z</time>
      </trkpt>
      <trkpt lat="28.7539920" lon="-17.8863600">
        <ele>2374.1</ele>
        <time>2020-11-16T13:18:32Z</time>
      </trkpt>
      <trkpt lat="28.7539920" lon="-17.8863600">
        <ele>2374.1</ele>
        <time>2020-11-16T13:18:33Z</time>
      </trkpt>
      <trkpt lat="28.7540020" lon="-17.8863220">
        <ele>2374.4</ele>
        <time>2020-11-16T13:18:34Z</time>
      </trkpt>
      <trkpt lat="28.7540020" lon="-17.8863220">
        <ele>2374.4</ele>
        <time>2020-11-16T13:18:35Z</time>
      </trkpt>
      <trkpt lat="28.7540250" lon="-17.8862850">
        <ele>2374.7</ele>
        <time>2020-11-16T13:18:36Z</time>
      </trkpt>
      <trkpt lat="28.7540250" lon="-17.8862850">
        <ele>2374.7</ele>
        <time>2020-11-16T13:18:37Z</time>
      </trkpt>
      <trkpt lat="28.7540530" lon="-17.8862570">
        <ele>2375.0</ele>
        <time>2020-11-16T13:18:38Z</time>
      </trkpt>
      <trkpt lat="28.7540530" lon="-17.8862570">
        <ele>2375.0</ele>
        <time>2020-11-16T13:18:39Z</time>
      </trkpt>
      <trkpt lat="28.7540800" lon="-17.8862270">
        <ele>2375.3</ele>
        <time>2020-11-16T13:18:40Z</time>
      </trkpt>
      <trkpt lat="28.7540930" lon="-17.8862120">
        <ele>2375.5</ele>
        <time>2020-11-16T13:18:41Z</time>
      </trkpt>
      <trkpt lat="28.7540930" lon="-17.8862120">
        <ele>2375.5</ele>
        <time>2020-11-16T13:18:42Z</time>
      </trkpt>
      <trkpt lat="28.7541200" lon="-17.8861800">
        <ele>2375.8</ele>
        <time>2020-11-16T13:18:43Z</time>
      </trkpt>
      <trkpt lat="28.7541330" lon="-17.8861650">
        <ele>2375.9</ele>
        <time>2020-11-16T13:18:44Z</time>
      </trkpt>
      <trkpt lat="28.7541330" lon="-17.8861650">
        <ele>2375.9</ele>
        <time>2020-11-16T13:18:45Z</time>
      </trkpt>
      <trkpt lat="28.7541630" lon="-17.8861420">
        <ele>2376.2</ele>
        <time>2020-11-16T13:18:46Z</time>
      </trkpt>
      <trkpt lat="28.7541630" lon="-17.8861420">
        <ele>2376.2</ele>
        <time>2020-11-16T13:18:47Z</time>
      </trkpt>
      <trkpt lat="28.7542000" lon="-17.8861250">
        <ele>2376.5</ele>
        <time>2020-11-16T13:18:48Z</time>
      </trkpt>
      <trkpt lat="28.7542000" lon="-17.8861250">
        <ele>2376.5</ele>
        <time>2020-11-16T13:18:49Z</time>
      </trkpt>
      <trkpt lat="28.7542320" lon="-17.8861020">
        <ele>2376.8</ele>
        <time>2020-11-16T13:18:50Z</time>
      </trkpt>
      <trkpt lat="28.7542320" lon="-17.8861020">
        <ele>2376.8</ele>
        <time>2020-11-16T13:18:51Z</time>
      </trkpt>
      <trkpt lat="28.7542630" lon="-17.8860770">
        <ele>2377.1</ele>
        <time>2020-11-16T13:18:52Z</time>
      </trkpt>
      <trkpt lat="28.7542630" lon="-17.8860770">
        <ele>2377.1</ele>
        <time>2020-11-16T13:18:53Z</time>
      </trkpt>
      <trkpt lat="28.7542980" lon="-17.8860700">
        <ele>2377.4</ele>
        <time>2020-11-16T13:18:54Z</time>
      </trkpt>
      <trkpt lat="28.7542980" lon="-17.8860700">
        <ele>2377.4</ele>
        <time>2020-11-16T13:18:55Z</time>
      </trkpt>
      <trkpt lat="28.7543330" lon="-17.8860650">
        <ele>2377.6</ele>
        <time>2020-11-16T13:18:56Z</time>
      </trkpt>
      <trkpt lat="28.7543330" lon="-17.8860650">
        <ele>2377.6</ele>
        <time>2020-11-16T13:18:57Z</time>
      </trkpt>
      <trkpt lat="28.7543670" lon="-17.8860530">
        <ele>2377.9</ele>
        <time>2020-11-16T13:18:58Z</time>
      </trkpt>
      <trkpt lat="28.7543830" lon="-17.8860470">
        <ele>2378.0</ele>
        <time>2020-11-16T13:18:59Z</time>
      </trkpt>
      <trkpt lat="28.7543830" lon="-17.8860470">
        <ele>2378.0</ele>
        <time>2020-11-16T13:19:00Z</time>
      </trkpt>
      <trkpt lat="28.7544220" lon="-17.8860500">
        <ele>2378.3</ele>
        <time>2020-11-16T13:19:01Z</time>
      </trkpt>
      <trkpt lat="28.7544220" lon="-17.8860500">
        <ele>2378.3</ele>
        <time>2020-11-16T13:19:02Z</time>
      </trkpt>
      <trkpt lat="28.7544600" lon="-17.8860450">
        <ele>2378.6</ele>
        <time>2020-11-16T13:19:03Z</time>
      </trkpt>
      <trkpt lat="28.7544600" lon="-17.8860450">
        <ele>2378.6</ele>
        <time>2020-11-16T13:19:04Z</time>
      </trkpt>
      <trkpt lat="28.7544970" lon="-17.8860400">
        <ele>2378.9</ele>
        <time>2020-11-16T13:19:05Z</time>
      </trkpt>
      <trkpt lat="28.7544970" lon="-17.8860400">
        <ele>2378.9</ele>
        <time>2020-11-16T13:19:06Z</time>
      </trkpt>
      <trkpt lat="28.7545280" lon="-17.8860320">
        <ele>2379.2</ele>
        <time>2020-11-16T13:19:07Z</time>
      </trkpt>
      <trkpt lat="28.7545280" lon="-17.8860320">
        <ele>2379.2</ele>
        <time>2020-11-16T13:19:08Z</time>
      </trkpt>
      <trkpt lat="28.7545580" lon="-17.8860300">
        <ele>2379.4</ele>
        <time>2020-11-16T13:19:09Z</time>
      </trkpt>
      <trkpt lat="28.7545800" lon="-17.8860280">
        <ele>2379.6</ele>
        <time>2020-11-16T13:19:10Z</time>
      </trkpt>
      <trkpt lat="28.7545800" lon="-17.8860280">
        <ele>2379.6</ele>
        <time>2020-11-16T13:19:11Z</time>
      </trkpt>
      <trkpt lat="28.7546220" lon="-17.8860150">
        <ele>2380.0</ele>
        <time>2020-11-16T13:19:12Z</time>
      </trkpt>
      <trkpt lat="28.7546220" lon="-17.8860150">
        <ele>2380.0</ele>
        <time>2020-11-16T13:19:13Z</time>
      </trkpt>
      <trkpt lat="28.7546620" lon="-17.8860030">
        <ele>2380.3</ele>
        <time>2020-11-16T13:19:14Z</time>
      </trkpt>
      <trkpt lat="28.7546620" lon="-17.8860030">
        <ele>2380.3</ele>
        <time>2020-11-16T13:19:15Z</time>
      </trkpt>
      <trkpt lat="28.7547030" lon="-17.8859950">
        <ele>2380.6</ele>
        <time>2020-11-16T13:19:16Z</time>
      </trkpt>
      <trkpt lat="28.7547030" lon="-17.8859950">
        <ele>2380.6</ele>
        <time>2020-11-16T13:19:17Z</time>
      </trkpt>
      <trkpt lat="28.7547470" lon="-17.8859920">
        <ele>2381.0</ele>
        <time>2020-11-16T13:19:18Z</time>
      </trkpt>
      <trkpt lat="28.7547680" lon="-17.8859870">
        <ele>2381.2</ele>
        <time>2020-11-16T13:19:19Z</time>
      </trkpt>
      <trkpt lat="28.7547680" lon="-17.8859870">
        <ele>2381.2</ele>
        <time>2020-11-16T13:19:20Z</time>
      </trkpt>
      <trkpt lat="28.7548070" lon="-17.8859620">
        <ele>2381.5</ele>
        <time>2020-11-16T13:19:21Z</time>
      </trkpt>
      <trkpt lat="28.7548230" lon="-17.8859550">
        <ele>2381.7</ele>
        <time>2020-11-16T13:19:22Z</time>
      </trkpt>
      <trkpt lat="28.7548230" lon="-17.8859550">
        <ele>2381.7</ele>
        <time>2020-11-16T13:19:23Z</time>
      </trkpt>
      <trkpt lat="28.7548620" lon="-17.8859570">
        <ele>2382.0</ele>
        <time>2020-11-16T13:19:24Z</time>
      </trkpt>
      <trkpt lat="28.7548830" lon="-17.8859530">
        <ele>2382.3</ele>
        <time>2020-11-16T13:19:25Z</time>
      </trkpt>
      <trkpt lat="28.7549070" lon="-17.8859530">
        <ele>2382.5</ele>
        <time>2020-11-16T13:19:26Z</time>
      </trkpt>
      <trkpt lat="28.7549070" lon="-17.8859530">
        <ele>2382.5</ele>
        <time>2020-11-16T13:19:27Z</time>
      </trkpt>
      <trkpt lat="28.7549480" lon="-17.8859430">
        <ele>2383.0</ele>
        <time>2020-11-16T13:19:28Z</time>
      </trkpt>
      <trkpt lat="28.7549480" lon="-17.8859430">
        <ele>2383.0</ele>
        <time>2020-11-16T13:19:29Z</time>
      </trkpt>
      <trkpt lat="28.7549880" lon="-17.8859270">
        <ele>2383.4</ele>
        <time>2020-11-16T13:19:30Z</time>
      </trkpt>
      <trkpt lat="28.7550070" lon="-17.8859150">
        <ele>2383.6</ele>
        <time>2020-11-16T13:19:31Z</time>
      </trkpt>
      <trkpt lat="28.7550070" lon="-17.8859150">
        <ele>2383.6</ele>
        <time>2020-11-16T13:19:32Z</time>
      </trkpt>
      <trkpt lat="28.7550370" lon="-17.8858870">
        <ele>2384.0</ele>
        <time>2020-11-16T13:19:33Z</time>
      </trkpt>
      <trkpt lat="28.7550370" lon="-17.8858870">
        <ele>2384.0</ele>
        <time>2020-11-16T13:19:34Z</time>
      </trkpt>
      <trkpt lat="28.7550650" lon="-17.8858570">
        <ele>2384.4</ele>
        <time>2020-11-16T13:19:35Z</time>
      </trkpt>
      <trkpt lat="28.7550650" lon="-17.8858570">
        <ele>2384.4</ele>
        <time>2020-11-16T13:19:36Z</time>
      </trkpt>
      <trkpt lat="28.7550770" lon="-17.8858180">
        <ele>2384.8</ele>
        <time>2020-11-16T13:19:37Z</time>
      </trkpt>
      <trkpt lat="28.7550870" lon="-17.8858020">
        <ele>2384.9</ele>
        <time>2020-11-16T13:19:38Z</time>
      </trkpt>
      <trkpt lat="28.7550870" lon="-17.8858020">
        <ele>2384.9</ele>
        <time>2020-11-16T13:19:39Z</time>
      </trkpt>
      <trkpt lat="28.7551100" lon="-17.8857630">
        <ele>2385.3</ele>
        <time>2020-11-16T13:19:40Z</time>
      </trkpt>
      <trkpt lat="28.7551180" lon="-17.8857430">
        <ele>2385.5</ele>
        <time>2020-11-16T13:19:41Z</time>
      </trkpt>
      <trkpt lat="28.7551180" lon="-17.8857430">
        <ele>2385.5</ele>
        <time>2020-11-16T13:19:42Z</time>
      </trkpt>
      <trkpt lat="28.7551350" lon="-17.8857000">
        <ele>2385.9</ele>
        <time>2020-11-16T13:19:43Z</time>
      </trkpt>
      <trkpt lat="28.7551420" lon="-17.8856800">
        <ele>2386.1</ele>
        <time>2020-11-16T13:19:44Z</time>
      </trkpt>
      <trkpt lat="28.7551420" lon="-17.8856800">
        <ele>2386.1</ele>
        <time>2020-11-16T13:19:45Z</time>
      </trkpt>
      <trkpt lat="28.7551520" lon="-17.8856330">
        <ele>2386.4</ele>
        <time>2020-11-16T13:19:46Z</time>
      </trkpt>
      <trkpt lat="28.7551520" lon="-17.8856330">
        <ele>2386.4</ele>
        <time>2020-11-16T13:19:47Z</time>
      </trkpt>
      <trkpt lat="28.7551520" lon="-17.8855900">
        <ele>2386.8</ele>
        <time>2020-11-16T13:19:48Z</time>
      </trkpt>
      <trkpt lat="28.7551520" lon="-17.8855680">
        <ele>2386.9</ele>
        <time>2020-11-16T13:19:49Z</time>
      </trkpt>
      <trkpt lat="28.7551520" lon="-17.8855680">
        <ele>2386.9</ele>
        <time>2020-11-16T13:19:50Z</time>
      </trkpt>
      <trkpt lat="28.7551550" lon="-17.8855170">
        <ele>2387.3</ele>
        <time>2020-11-16T13:19:51Z</time>
      </trkpt>
      <trkpt lat="28.7551550" lon="-17.8855170">
        <ele>2387.3</ele>
        <time>2020-11-16T13:19:52Z</time>
      </trkpt>
      <trkpt lat="28.7551670" lon="-17.8854620">
        <ele>2387.7</ele>
        <time>2020-11-16T13:19:53Z</time>
      </trkpt>
      <trkpt lat="28.7551670" lon="-17.8854620">
        <ele>2387.7</ele>
        <time>2020-11-16T13:19:54Z</time>
      </trkpt>
      <trkpt lat="28.7551600" lon="-17.8854150">
        <ele>2388.1</ele>
        <time>2020-11-16T13:19:55Z</time>
      </trkpt>
      <trkpt lat="28.7551570" lon="-17.8853900">
        <ele>2388.3</ele>
        <time>2020-11-16T13:19:56Z</time>
      </trkpt>
      <trkpt lat="28.7551570" lon="-17.8853900">
        <ele>2388.3</ele>
        <time>2020-11-16T13:19:57Z</time>
      </trkpt>
      <trkpt lat="28.7551600" lon="-17.8853380">
        <ele>2388.7</ele>
        <time>2020-11-16T13:19:58Z</time>
      </trkpt>
      <trkpt lat="28.7551600" lon="-17.8853380">
        <ele>2388.7</ele>
        <time>2020-11-16T13:19:59Z</time>
      </trkpt>
      <trkpt lat="28.7551600" lon="-17.8852870">
        <ele>2389.0</ele>
        <time>2020-11-16T13:20:00Z</time>
      </trkpt>
      <trkpt lat="28.7551600" lon="-17.8852870">
        <ele>2389.0</ele>
        <time>2020-11-16T13:20:01Z</time>
      </trkpt>
      <trkpt lat="28.7551520" lon="-17.8852400">
        <ele>2389.4</ele>
        <time>2020-11-16T13:20:02Z</time>
      </trkpt>
      <trkpt lat="28.7551520" lon="-17.8852400">
        <ele>2389.4</ele>
        <time>2020-11-16T13:20:03Z</time>
      </trkpt>
      <trkpt lat="28.7551450" lon="-17.8851930">
        <ele>2389.7</ele>
        <time>2020-11-16T13:20:04Z</time>
      </trkpt>
      <trkpt lat="28.7551400" lon="-17.8851730">
        <ele>2389.8</ele>
        <time>2020-11-16T13:20:05Z</time>
      </trkpt>
      <trkpt lat="28.7551400" lon="-17.8851730">
        <ele>2389.8</ele>
        <time>2020-11-16T13:20:06Z</time>
      </trkpt>
      <trkpt lat="28.7551230" lon="-17.8851330">
        <ele>2390.2</ele>
        <time>2020-11-16T13:20:07Z</time>
      </trkpt>
      <trkpt lat="28.7551230" lon="-17.8851330">
        <ele>2390.2</ele>
        <time>2020-11-16T13:20:08Z</time>
      </trkpt>
      <trkpt lat="28.7551130" lon="-17.8850930">
        <ele>2390.5</ele>
        <time>2020-11-16T13:20:09Z</time>
      </trkpt>
      <trkpt lat="28.7551130" lon="-17.8850930">
        <ele>2390.5</ele>
        <time>2020-11-16T13:20:10Z</time>
      </trkpt>
      <trkpt lat="28.7551030" lon="-17.8850520">
        <ele>2390.8</ele>
        <time>2020-11-16T13:20:11Z</time>
      </trkpt>
      <trkpt lat="28.7550920" lon="-17.8850350">
        <ele>2390.9</ele>
        <time>2020-11-16T13:20:12Z</time>
      </trkpt>
      <trkpt lat="28.7550920" lon="-17.8850350">
        <ele>2390.9</ele>
        <time>2020-11-16T13:20:13Z</time>
      </trkpt>
      <trkpt lat="28.7550650" lon="-17.8850080">
        <ele>2391.2</ele>
        <time>2020-11-16T13:20:14Z</time>
      </trkpt>
      <trkpt lat="28.7550650" lon="-17.8850080">
        <ele>2391.2</ele>
        <time>2020-11-16T13:20:15Z</time>
      </trkpt>
      <trkpt lat="28.7550370" lon="-17.8849920">
        <ele>2391.5</ele>
        <time>2020-11-16T13:20:16Z</time>
      </trkpt>
      <trkpt lat="28.7550370" lon="-17.8849920">
        <ele>2391.5</ele>
        <time>2020-11-16T13:20:17Z</time>
      </trkpt>
      <trkpt lat="28.7550030" lon="-17.8849730">
        <ele>2391.8</ele>
        <time>2020-11-16T13:20:18Z</time>
      </trkpt>
      <trkpt lat="28.7549870" lon="-17.8849680">
        <ele>2391.9</ele>
        <time>2020-11-16T13:20:19Z</time>
      </trkpt>
      <trkpt lat="28.7549670" lon="-17.8849700">
        <ele>2392.1</ele>
        <time>2020-11-16T13:20:20Z</time>
      </trkpt>
      <trkpt lat="28.7549670" lon="-17.8849700">
        <ele>2392.1</ele>
        <time>2020-11-16T13:20:21Z</time>
      </trkpt>
      <trkpt lat="28.7549370" lon="-17.8849950">
        <ele>2392.4</ele>
        <time>2020-11-16T13:20:22Z</time>
      </trkpt>
      <trkpt lat="28.7549370" lon="-17.8849950">
        <ele>2392.4</ele>
        <time>2020-11-16T13:20:23Z</time>
      </trkpt>
      <trkpt lat="28.7549220" lon="-17.8850380">
        <ele>2392.7</ele>
        <time>2020-11-16T13:20:24Z</time>
      </trkpt>
      <trkpt lat="28.7549200" lon="-17.8850600">
        <ele>2392.9</ele>
        <time>2020-11-16T13:20:25Z</time>
      </trkpt>
      <trkpt lat="28.7549200" lon="-17.8850600">
        <ele>2392.9</ele>
        <time>2020-11-16T13:20:26Z</time>
      </trkpt>
      <trkpt lat="28.7549220" lon="-17.8851070">
        <ele>2393.2</ele>
        <time>2020-11-16T13:20:27Z</time>
      </trkpt>
      <trkpt lat="28.7549220" lon="-17.8851070">
        <ele>2393.2</ele>
        <time>2020-11-16T13:20:28Z</time>
      </trkpt>
      <trkpt lat="28.7549250" lon="-17.8851500">
        <ele>2393.5</ele>
        <time>2020-11-16T13:20:29Z</time>
      </trkpt>
      <trkpt lat="28.7549250" lon="-17.8851750">
        <ele>2393.6</ele>
        <time>2020-11-16T13:20:30Z</time>
      </trkpt>
      <trkpt lat="28.7549250" lon="-17.8851750">
        <ele>2393.6</ele>
        <time>2020-11-16T13:20:31Z</time>
      </trkpt>
      <trkpt lat="28.7549330" lon="-17.8852220">
        <ele>2393.9</ele>
        <time>2020-11-16T13:20:32Z</time>
      </trkpt>
      <trkpt lat="28.7549380" lon="-17.8852450">
        <ele>2394.1</ele>
        <time>2020-11-16T13:20:33Z</time>
      </trkpt>
      <trkpt lat="28.7549380" lon="-17.8852450">
        <ele>2394.1</ele>
        <time>2020-11-16T13:20:34Z</time>
      </trkpt>
      <trkpt lat="28.7549430" lon="-17.8852930">
        <ele>2394.4</ele>
        <time>2020-11-16T13:20:35Z</time>
      </trkpt>
      <trkpt lat="28.7549430" lon="-17.8852930">
        <ele>2394.4</ele>
        <time>2020-11-16T13:20:36Z</time>
      </trkpt>
      <trkpt lat="28.7549380" lon="-17.8853470">
        <ele>2394.7</ele>
        <time>2020-11-16T13:20:37Z</time>
      </trkpt>
      <trkpt lat="28.7549300" lon="-17.8853730">
        <ele>2394.9</ele>
        <time>2020-11-16T13:20:38Z</time>
      </trkpt>
      <trkpt lat="28.7549300" lon="-17.8853730">
        <ele>2394.9</ele>
        <time>2020-11-16T13:20:39Z</time>
      </trkpt>
      <trkpt lat="28.7549070" lon="-17.8854200">
        <ele>2395.2</ele>
        <time>2020-11-16T13:20:40Z</time>
      </trkpt>
      <trkpt lat="28.7549070" lon="-17.8854200">
        <ele>2395.2</ele>
        <time>2020-11-16T13:20:41Z</time>
      </trkpt>
      <trkpt lat="28.7548820" lon="-17.8854650">
        <ele>2395.1</ele>
        <time>2020-11-16T13:20:42Z</time>
      </trkpt>
      <trkpt lat="28.7548820" lon="-17.8854650">
        <ele>2395.1</ele>
        <time>2020-11-16T13:20:43Z</time>
      </trkpt>
      <trkpt lat="28.7548430" lon="-17.8854950">
        <ele>2393.1</ele>
        <time>2020-11-16T13:20:44Z</time>
      </trkpt>
      <trkpt lat="28.7548430" lon="-17.8854950">
        <ele>2393.1</ele>
        <time>2020-11-16T13:20:45Z</time>
      </trkpt>
      <trkpt lat="28.7547950" lon="-17.8855180">
        <ele>2391.0</ele>
        <time>2020-11-16T13:20:46Z</time>
      </trkpt>
      <trkpt lat="28.7547950" lon="-17.8855180">
        <ele>2391.0</ele>
        <time>2020-11-16T13:20:47Z</time>
      </trkpt>
      <trkpt lat="28.7547430" lon="-17.8855180">
        <ele>2388.8</ele>
        <time>2020-11-16T13:20:48Z</time>
      </trkpt>
      <trkpt lat="28.7547230" lon="-17.8855150">
        <ele>2388.0</ele>
        <time>2020-11-16T13:20:49Z</time>
      </trkpt>
      <trkpt lat="28.7547230" lon="-17.8855150">
        <ele>2388.0</ele>
        <time>2020-11-16T13:20:50Z</time>
      </trkpt>
      <trkpt lat="28.7546880" lon="-17.8854980">
        <ele>2388.5</ele>
        <time>2020-11-16T13:20:51Z</time>
      </trkpt>
      <trkpt lat="28.7546880" lon="-17.8854980">
        <ele>2388.5</ele>
        <time>2020-11-16T13:20:52Z</time>
      </trkpt>
      <trkpt lat="28.7546530" lon="-17.8854850">
        <ele>2389.1</ele>
        <time>2020-11-16T13:20:53Z</time>
      </trkpt>
      <trkpt lat="28.7546530" lon="-17.8854850">
        <ele>2389.1</ele>
        <time>2020-11-16T13:20:54Z</time>
      </trkpt>
      <trkpt lat="28.7546200" lon="-17.8854670">
        <ele>2389.7</ele>
        <time>2020-11-16T13:20:55Z</time>
      </trkpt>
      <trkpt lat="28.7546200" lon="-17.8854670">
        <ele>2389.7</ele>
        <time>2020-11-16T13:20:56Z</time>
      </trkpt>
      <trkpt lat="28.7545870" lon="-17.8854430">
        <ele>2390.3</ele>
        <time>2020-11-16T13:20:57Z</time>
      </trkpt>
      <trkpt lat="28.7545870" lon="-17.8854430">
        <ele>2390.3</ele>
        <time>2020-11-16T13:20:58Z</time>
      </trkpt>
      <trkpt lat="28.7545570" lon="-17.8854130">
        <ele>2391.0</ele>
        <time>2020-11-16T13:20:59Z</time>
      </trkpt>
      <trkpt lat="28.7545570" lon="-17.8854130">
        <ele>2391.0</ele>
        <time>2020-11-16T13:21:00Z</time>
      </trkpt>
      <trkpt lat="28.7545250" lon="-17.8853870">
        <ele>2391.7</ele>
        <time>2020-11-16T13:21:01Z</time>
      </trkpt>
      <trkpt lat="28.7545130" lon="-17.8853650">
        <ele>2392.1</ele>
        <time>2020-11-16T13:21:02Z</time>
      </trkpt>
      <trkpt lat="28.7545130" lon="-17.8853650">
        <ele>2392.1</ele>
        <time>2020-11-16T13:21:03Z</time>
      </trkpt>
      <trkpt lat="28.7544980" lon="-17.8853230">
        <ele>2392.8</ele>
        <time>2020-11-16T13:21:04Z</time>
      </trkpt>
      <trkpt lat="28.7544980" lon="-17.8853230">
        <ele>2392.8</ele>
        <time>2020-11-16T13:21:05Z</time>
      </trkpt>
      <trkpt lat="28.7544880" lon="-17.8852780">
        <ele>2393.7</ele>
        <time>2020-11-16T13:21:06Z</time>
      </trkpt>
      <trkpt lat="28.7544880" lon="-17.8852780">
        <ele>2393.7</ele>
        <time>2020-11-16T13:21:07Z</time>
      </trkpt>
      <trkpt lat="28.7544900" lon="-17.8852350">
        <ele>2394.5</ele>
        <time>2020-11-16T13:21:08Z</time>
      </trkpt>
      <trkpt lat="28.7544900" lon="-17.8852150">
        <ele>2394.8</ele>
        <time>2020-11-16T13:21:09Z</time>
      </trkpt>
      <trkpt lat="28.7544900" lon="-17.8852150">
        <ele>2394.8</ele>
        <time>2020-11-16T13:21:10Z</time>
      </trkpt>
      <trkpt lat="28.7545000" lon="-17.8851780">
        <ele>2395.6</ele>
        <time>2020-11-16T13:21:11Z</time>
      </trkpt>
      <trkpt lat="28.7545000" lon="-17.8851780">
        <ele>2395.6</ele>
        <time>2020-11-16T13:21:12Z</time>
      </trkpt>
      <trkpt lat="28.7545030" lon="-17.8851420">
        <ele>2396.2</ele>
        <time>2020-11-16T13:21:13Z</time>
      </trkpt>
      <trkpt lat="28.7545030" lon="-17.8851420">
        <ele>2396.2</ele>
        <time>2020-11-16T13:21:14Z</time>
      </trkpt>
      <trkpt lat="28.7544980" lon="-17.8851080">
        <ele>2396.9</ele>
        <time>2020-11-16T13:21:15Z</time>
      </trkpt>
      <trkpt lat="28.7544950" lon="-17.8850920">
        <ele>2396.9</ele>
        <time>2020-11-16T13:21:16Z</time>
      </trkpt>
      <trkpt lat="28.7544950" lon="-17.8850920">
        <ele>2396.9</ele>
        <time>2020-11-16T13:21:17Z</time>
      </trkpt>
      <trkpt lat="28.7544880" lon="-17.8850570">
        <ele>2396.9</ele>
        <time>2020-11-16T13:21:18Z</time>
      </trkpt>
      <trkpt lat="28.7544850" lon="-17.8850430">
        <ele>2396.9</ele>
        <time>2020-11-16T13:21:19Z</time>
      </trkpt>
      <trkpt lat="28.7544850" lon="-17.8850430">
        <ele>2396.9</ele>
        <time>2020-11-16T13:21:20Z</time>
      </trkpt>
      <trkpt lat="28.7544810" lon="-17.8850170">
        <ele>2396.9</ele>
        <time>2020-11-16T13:21:21Z</time>
      </trkpt>
      <trkpt lat="28.7544800" lon="-17.8850170">
        <ele>2396.9</ele>
        <time>2020-11-16T13:21:22Z</time>
      </trkpt>
      <trkpt lat="28.7544800" lon="-17.8850170">
        <ele>2396.9</ele>
        <time>2020-11-16T13:21:23Z</time>
      </trkpt>
      <trkpt lat="28.7544790" lon="-17.8850170">
        <ele>2396.9</ele>
        <time>2020-11-16T13:21:24Z</time>
      </trkpt>
      <trkpt lat="28.7544780" lon="-17.8850170">
        <ele>2396.9</ele>
        <time>2020-11-16T13:21:25Z</time>
      </trkpt>
      <trkpt lat="28.7544770" lon="-17.8850170">
        <ele>2396.9</ele>
        <time>2020-11-16T13:21:26Z</time>
      </trkpt>
      <trkpt lat="28.7544760" lon="-17.8850170">
        <ele>2396.9</ele>
        <time>2020-11-16T13:22:20Z</time>
      </trkpt>
      <trkpt lat="28.7544760" lon="-17.8850170">
        <ele>2396.9</ele>
        <time>2020-11-16T13:22:21Z</time>
      </trkpt>
      <trkpt lat="28.7544750" lon="-17.8850170">
        <ele>2396.9</ele>
        <time>2020-11-16T13:22:22Z</time>
      </trkpt>
      <trkpt lat="28.7544740" lon="-17.8850170">
        <ele>2396.9</ele>
        <time>2020-11-16T13:22:23Z</time>
      </trkpt>
      <trkpt lat="28.7544730" lon="-17.8850170">
        <ele>2396.9</ele>
        <time>2020-11-16T13:22:24Z</time>
      </trkpt>
      <trkpt lat="28.7544720" lon="-17.8850170">
        <ele>2396.9</ele>
        <time>2020-11-16T13:22:25Z</time>
      </trkpt>
      <trkpt lat="28.7544710" lon="-17.8850170">
        <ele>2396.9</ele>
        <time>2020-11-16T13:22:26Z</time>
      </trkpt>
      <trkpt lat="28.7544710" lon="-17.8850170">
        <ele>2396.9</ele>
        <time>2020-11-16T13:22:27Z</time>
      </trkpt>
      <trkpt lat="28.7544700" lon="-17.8850170">
        <ele>2396.9</ele>
        <time>2020-11-16T13:22:28Z</time>
      </trkpt>
      <trkpt lat="28.7544690" lon="-17.8850170">
        <ele>2396.9</ele>
        <time>2020-11-16T13:22:29Z</time>
      </trkpt>
      <trkpt lat="28.7544680" lon="-17.8850170">
        <ele>2396.9</ele>
        <time>2020-11-16T13:22:30Z</time>
      </trkpt>
      <trkpt lat="28.7544670" lon="-17.8850170">
        <ele>2396.9</ele>
        <time>2020-11-16T13:22:31Z</time>
      </trkpt>
      <trkpt lat="28.7544670" lon="-17.8850180">
        <ele>2396.9</ele>
        <time>2020-11-16T13:22:32Z</time>
      </trkpt>
      <trkpt lat="28.7544660" lon="-17.8850180">
        <ele>2396.9</ele>
        <time>2020-11-16T13:22:33Z</time>
      </trkpt>
      <trkpt lat="28.7544650" lon="-17.8850180">
        <ele>2396.9</ele>
        <time>2020-11-16T13:22:34Z</time>
      </trkpt>
      <trkpt lat="28.7544640" lon="-17.8850180">
        <ele>2396.9</ele>
        <time>2020-11-16T13:22:35Z</time>
      </trkpt>
      <trkpt lat="28.7544630" lon="-17.8850180">
        <ele>2396.9</ele>
        <time>2020-11-16T13:22:36Z</time>
      </trkpt>
      <trkpt lat="28.7544630" lon="-17.8850180">
        <ele>2396.9</ele>
        <time>2020-11-16T13:22:37Z</time>
      </trkpt>
      <trkpt lat="28.7544620" lon="-17.8850180">
        <ele>2396.9</ele>
        <time>2020-11-16T13:22:38Z</time>
      </trkpt>
      <trkpt lat="28.7544610" lon="-17.8850180">
        <ele>2396.9</ele>
        <time>2020-11-16T13:22:39Z</time>
      </trkpt>
      <trkpt lat="28.7544600" lon="-17.8850180">
        <ele>2396.9</ele>
        <time>2020-11-16T13:22:40Z</time>
      </trkpt>
      <trkpt lat="28.7544590" lon="-17.8850180">
        <ele>2396.9</ele>
        <time>2020-11-16T13:22:41Z</time>
      </trkpt>
      <trkpt lat="28.7544580" lon="-17.8850180">
        <ele>2396.9</ele>
        <time>2020-11-16T13:22:42Z</time>
      </trkpt>
      <trkpt lat="28.7544580" lon="-17.8850180">
        <ele>2396.9</ele>
        <time>2020-11-16T13:22:43Z</time>
      </trkpt>
      <trkpt lat="28.7544570" lon="-17.8850180">
        <ele>2396.9</ele>
        <time>2020-11-16T13:22:44Z</time>
      </trkpt>
      <trkpt lat="28.7544560" lon="-17.8850180">
        <ele>2396.9</ele>
        <time>2020-11-16T13:22:45Z</time>
      </trkpt>
      <trkpt lat="28.7544550" lon="-17.8850180">
        <ele>2396.9</ele>
        <time>2020-11-16T13:22:46Z</time>
      </trkpt>
      <trkpt lat="28.7544540" lon="-17.8850180">
        <ele>2396.9</ele>
        <time>2020-11-16T13:22:47Z</time>
      </trkpt>
      <trkpt lat="28.7544540" lon="-17.8850180">
        <ele>2396.9</ele>
        <time>2020-11-16T13:22:48Z</time>
      </trkpt>
      <trkpt lat="28.7544530" lon="-17.8850180">
        <ele>2396.9</ele>
        <time>2020-11-16T13:22:49Z</time>
      </trkpt>
      <trkpt lat="28.7544520" lon="-17.8850180">
        <ele>2396.9</ele>
        <time>2020-11-16T13:22:50Z</time>
      </trkpt>
      <trkpt lat="28.7544510" lon="-17.8850180">
        <ele>2396.9</ele>
        <time>2020-11-16T13:22:51Z</time>
      </trkpt>
      <trkpt lat="28.7544500" lon="-17.8850180">
        <ele>2396.9</ele>
        <time>2020-11-16T13:22:52Z</time>
      </trkpt>
      <trkpt lat="28.7544500" lon="-17.8850180">
        <ele>2396.9</ele>
        <time>2020-11-16T13:22:53Z</time>
      </trkpt>
      <trkpt lat="28.7544490" lon="-17.8850180">
        <ele>2396.9</ele>
        <time>2020-11-16T13:22:54Z</time>
      </trkpt>
      <trkpt lat="28.7544480" lon="-17.8850180">
        <ele>2396.9</ele>
        <time>2020-11-16T13:22:55Z</time>
      </trkpt>
      <trkpt lat="28.7544470" lon="-17.8850180">
        <ele>2396.9</ele>
        <time>2020-11-16T13:22:56Z</time>
      </trkpt>
      <trkpt lat="28.7544460" lon="-17.8850180">
        <ele>2396.9</ele>
        <time>2020-11-16T13:22:57Z</time>
      </trkpt>
      <trkpt lat="28.7544460" lon="-17.8850180">
        <ele>2396.9</ele>
        <time>2020-11-16T13:22:58Z</time>
      </trkpt>
      <trkpt lat="28.7544450" lon="-17.8850180">
        <ele>2396.9</ele>
        <time>2020-11-16T13:22:59Z</time>
      </trkpt>
      <trkpt lat="28.7544440" lon="-17.8850180">
        <ele>2396.9</ele>
        <time>2020-11-16T13:23:00Z</time>
      </trkpt>
      <trkpt lat="28.7544430" lon="-17.8850180">
        <ele>2396.9</ele>
        <time>2020-11-16T13:23:01Z</time>
      </trkpt>
      <trkpt lat="28.7544420" lon="-17.8850180">
        <ele>2396.9</ele>
        <time>2020-11-16T13:23:02Z</time>
      </trkpt>
      <trkpt lat="28.7544410" lon="-17.8850180">
        <ele>2396.9</ele>
        <time>2020-11-16T13:23:03Z</time>
      </trkpt>
      <trkpt lat="28.7544410" lon="-17.8850180">
        <ele>2396.9</ele>
        <time>2020-11-16T13:23:04Z</time>
      </trkpt>
      <trkpt lat="28.7544400" lon="-17.8850180">
        <ele>2396.9</ele>
        <time>2020-11-16T13:23:05Z</time>
      </trkpt>
      <trkpt lat="28.7544390" lon="-17.8850180">
        <ele>2396.9</ele>
        <time>2020-11-16T13:23:06Z</time>
      </trkpt>
      <trkpt lat="28.7544380" lon="-17.8850180">
        <ele>2396.9</ele>
        <time>2020-11-16T13:23:07Z</time>
      </trkpt>
      <trkpt lat="28.7544370" lon="-17.8850180">
        <ele>2396.9</ele>
        <time>2020-11-16T13:23:08Z</time>
      </trkpt>
      <trkpt lat="28.7544370" lon="-17.8850190">
        <ele>2396.9</ele>
        <time>2020-11-16T13:23:09Z</time>
      </trkpt>
      <trkpt lat="28.7544360" lon="-17.8850190">
        <ele>2396.9</ele>
        <time>2020-11-16T13:23:10Z</time>
      </trkpt>
      <trkpt lat="28.7544350" lon="-17.8850190">
        <ele>2396.9</ele>
        <time>2020-11-16T13:23:11Z</time>
      </trkpt>
      <trkpt lat="28.7544340" lon="-17.8850190">
        <ele>2396.9</ele>
        <time>2020-11-16T13:23:12Z</time>
      </trkpt>
      <trkpt lat="28.7544330" lon="-17.8850190">
        <ele>2396.9</ele>
        <time>2020-11-16T13:23:13Z</time>
      </trkpt>
      <trkpt lat="28.7544330" lon="-17.8850190">
        <ele>2396.9</ele>
        <time>2020-11-16T13:23:14Z</time>
      </trkpt>
      <trkpt lat="28.7544320" lon="-17.8850190">
        <ele>2396.9</ele>
        <time>2020-11-16T13:23:15Z</time>
      </trkpt>
      <trkpt lat="28.7544310" lon="-17.8850190">
        <ele>2396.9</ele>
        <time>2020-11-16T13:23:16Z</time>
      </trkpt>
      <trkpt lat="28.7544300" lon="-17.8850190">
        <ele>2396.9</ele>
        <time>2020-11-16T13:23:17Z</time>
      </trkpt>
      <trkpt lat="28.7544290" lon="-17.8850190">
        <ele>2396.9</ele>
        <time>2020-11-16T13:23:18Z</time>
      </trkpt>
      <trkpt lat="28.7544280" lon="-17.8850190">
        <ele>2396.9</ele>
        <time>2020-11-16T13:23:19Z</time>
      </trkpt>
      <trkpt lat="28.7544280" lon="-17.8850190">
        <ele>2396.9</ele>
        <time>2020-11-16T13:23:20Z</time>
      </trkpt>
      <trkpt lat="28.7544270" lon="-17.8850190">
        <ele>2396.9</ele>
        <time>2020-11-16T13:23:21Z</time>
      </trkpt>
      <trkpt lat="28.7544260" lon="-17.8850190">
        <ele>2396.9</ele>
        <time>2020-11-16T13:23:22Z</time>
      </trkpt>
      <trkpt lat="28.7544250" lon="-17.8850190">
        <ele>2396.9</ele>
        <time>2020-11-16T13:23:23Z</time>
      </trkpt>
      <trkpt lat="28.7544240" lon="-17.8850190">
        <ele>2396.9</ele>
        <time>2020-11-16T13:23:24Z</time>
      </trkpt>
      <trkpt lat="28.7544240" lon="-17.8850190">
        <ele>2396.9</ele>
        <time>2020-11-16T13:23:25Z</time>
      </trkpt>
      <trkpt lat="28.7544230" lon="-17.8850190">
        <ele>2396.9</ele>
        <time>2020-11-16T13:23:26Z</time>
      </trkpt>
      <trkpt lat="28.7544220" lon="-17.8850190">
        <ele>2396.9</ele>
        <time>2020-11-16T13:23:27Z</time>
      </trkpt>
      <trkpt lat="28.7544210" lon="-17.8850190">
        <ele>2396.9</ele>
        <time>2020-11-16T13:23:28Z</time>
      </trkpt>
      <trkpt lat="28.7544200" lon="-17.8850190">
        <ele>2396.9</ele>
        <time>2020-11-16T13:23:29Z</time>
      </trkpt>
      <trkpt lat="28.7544200" lon="-17.8850190">
        <ele>2396.9</ele>
        <time>2020-11-16T13:23:30Z</time>
      </trkpt>
      <trkpt lat="28.7544190" lon="-17.8850190">
        <ele>2396.9</ele>
        <time>2020-11-16T13:23:31Z</time>
      </trkpt>
      <trkpt lat="28.7544180" lon="-17.8850190">
        <ele>2396.9</ele>
        <time>2020-11-16T13:23:32Z</time>
      </trkpt>
      <trkpt lat="28.7544170" lon="-17.8850190">
        <ele>2396.9</ele>
        <time>2020-11-16T13:23:33Z</time>
      </trkpt>
      <trkpt lat="28.7544160" lon="-17.8850190">
        <ele>2396.9</ele>
        <time>2020-11-16T13:23:34Z</time>
      </trkpt>
      <trkpt lat="28.7544160" lon="-17.8850190">
        <ele>2396.9</ele>
        <time>2020-11-16T13:23:35Z</time>
      </trkpt>
      <trkpt lat="28.7544150" lon="-17.8850190">
        <ele>2396.9</ele>
        <time>2020-11-16T13:23:36Z</time>
      </trkpt>
      <trkpt lat="28.7544140" lon="-17.8850190">
        <ele>2396.9</ele>
        <time>2020-11-16T13:23:37Z</time>
      </trkpt>
      <trkpt lat="28.7544130" lon="-17.8850190">
        <ele>2396.9</ele>
        <time>2020-11-16T13:23:38Z</time>
      </trkpt>
      <trkpt lat="28.7544120" lon="-17.8850190">
        <ele>2396.9</ele>
        <time>2020-11-16T13:23:39Z</time>
      </trkpt>
      <trkpt lat="28.7544110" lon="-17.8850190">
        <ele>2396.9</ele>
        <time>2020-11-16T13:23:40Z</time>
      </trkpt>
      <trkpt lat="28.7544110" lon="-17.8850190">
        <ele>2396.9</ele>
        <time>2020-11-16T13:23:41Z</time>
      </trkpt>
      <trkpt lat="28.7544100" lon="-17.8850190">
        <ele>2396.9</ele>
        <time>2020-11-16T13:23:42Z</time>
      </trkpt>
      <trkpt lat="28.7544090" lon="-17.8850190">
        <ele>2396.9</ele>
        <time>2020-11-16T13:23:43Z</time>
      </trkpt>
      <trkpt lat="28.7544080" lon="-17.8850190">
        <ele>2396.9</ele>
        <time>2020-11-16T13:23:44Z</time>
      </trkpt>
      <trkpt lat="28.7544070" lon="-17.8850190">
        <ele>2396.9</ele>
        <time>2020-11-16T13:23:45Z</time>
      </trkpt>
      <trkpt lat="28.7544070" lon="-17.8850200">
        <ele>2396.9</ele>
        <time>2020-11-16T13:23:46Z</time>
      </trkpt>
      <trkpt lat="28.7544060" lon="-17.8850200">
        <ele>2396.9</ele>
        <time>2020-11-16T13:23:47Z</time>
      </trkpt>
      <trkpt lat="28.7544050" lon="-17.8850200">
        <ele>2396.9</ele>
        <time>2020-11-16T13:23:48Z</time>
      </trkpt>
      <trkpt lat="28.7544040" lon="-17.8850200">
        <ele>2396.9</ele>
        <time>2020-11-16T13:23:49Z</time>
      </trkpt>
      <trkpt lat="28.7544030" lon="-17.8850200">
        <ele>2396.9</ele>
        <time>2020-11-16T13:23:50Z</time>
      </trkpt>
      <trkpt lat="28.7544030" lon="-17.8850200">
        <ele>2396.9</ele>
        <time>2020-11-16T13:23:51Z</time>
      </trkpt>
      <trkpt lat="28.7544020" lon="-17.8850200">
        <ele>2396.9</ele>
        <time>2020-11-16T13:23:52Z</time>
      </trkpt>
      <trkpt lat="28.7544010" lon="-17.8850200">
        <ele>2396.9</ele>
        <time>2020-11-16T13:23:53Z</time>
      </trkpt>
      <trkpt lat="28.7544000" lon="-17.8850200">
        <ele>2396.9</ele>
        <time>2020-11-16T13:23:54Z</time>
      </trkpt>
      <trkpt lat="28.7543990" lon="-17.8850200">
        <ele>2396.9</ele>
        <time>2020-11-16T13:23:55Z</time>
      </trkpt>
      <trkpt lat="28.7543980" lon="-17.8850200">
        <ele>2396.9</ele>
        <time>2020-11-16T13:23:56Z</time>
      </trkpt>
      <trkpt lat="28.7543980" lon="-17.8850200">
        <ele>2396.9</ele>
        <time>2020-11-16T13:23:57Z</time>
      </trkpt>
      <trkpt lat="28.7543970" lon="-17.8850200">
        <ele>2396.9</ele>
        <time>2020-11-16T13:23:58Z</time>
      </trkpt>
      <trkpt lat="28.7543960" lon="-17.8850200">
        <ele>2396.9</ele>
        <time>2020-11-16T13:23:59Z</time>
      </trkpt>
      <trkpt lat="28.7543950" lon="-17.8850200">
        <ele>2396.9</ele>
        <time>2020-11-16T13:24:00Z</time>
      </trkpt>
      <trkpt lat="28.7543940" lon="-17.8850200">
        <ele>2396.9</ele>
        <time>2020-11-16T13:24:01Z</time>
      </trkpt>
      <trkpt lat="28.7543940" lon="-17.8850200">
        <ele>2396.9</ele>
        <time>2020-11-16T13:24:02Z</time>
      </trkpt>
      <trkpt lat="28.7543930" lon="-17.8850200">
        <ele>2396.9</ele>
        <time>2020-11-16T13:24:03Z</time>
      </trkpt>
      <trkpt lat="28.7543920" lon="-17.8850200">
        <ele>2396.9</ele>
        <time>2020-11-16T13:24:04Z</time>
      </trkpt>
      <trkpt lat="28.7543920" lon="-17.8850200">
        <ele>2396.9</ele>
        <time>2020-11-16T13:24:05Z</time>
      </trkpt>
      <trkpt lat="28.7543920" lon="-17.8850180">
        <ele>2396.9</ele>
        <time>2020-11-16T13:24:06Z</time>
      </trkpt>
      <trkpt lat="28.7543920" lon="-17.8850180">
        <ele>2396.9</ele>
        <time>2020-11-16T13:24:07Z</time>
      </trkpt>
      <trkpt lat="28.7543920" lon="-17.8850180">
        <ele>2396.9</ele>
        <time>2020-11-16T13:24:08Z</time>
      </trkpt>
      <trkpt lat="28.7543920" lon="-17.8850180">
        <ele>2396.9</ele>
        <time>2020-11-16T13:24:09Z</time>
      </trkpt>
      <trkpt lat="28.7543920" lon="-17.8850180">
        <ele>2396.9</ele>
        <time>2020-11-16T13:24:10Z</time>
      </trkpt>
      <trkpt lat="28.7543920" lon="-17.8850180">
        <ele>2396.9</ele>
        <time>2020-11-16T13:24:11Z</time>
      </trkpt>
      <trkpt lat="28.7544000" lon="-17.8850300">
        <ele>2396.9</ele>
        <time>2020-11-16T13:24:12Z</time>
      </trkpt>
      <trkpt lat="28.7544050" lon="-17.8850330">
        <ele>2396.9</ele>
        <time>2020-11-16T13:24:13Z</time>
      </trkpt>
      <trkpt lat="28.7544050" lon="-17.8850330">
        <ele>2396.9</ele>
        <time>2020-11-16T13:24:14Z</time>
      </trkpt>
      <trkpt lat="28.7544100" lon="-17.8850450">
        <ele>2396.9</ele>
        <time>2020-11-16T13:24:15Z</time>
      </trkpt>
      <trkpt lat="28.7544150" lon="-17.8850430">
        <ele>2396.9</ele>
        <time>2020-11-16T13:24:16Z</time>
      </trkpt>
      <trkpt lat="28.7544150" lon="-17.8850430">
        <ele>2396.9</ele>
        <time>2020-11-16T13:24:17Z</time>
      </trkpt>
      <trkpt lat="28.7544280" lon="-17.8850520">
        <ele>2396.9</ele>
        <time>2020-11-16T13:24:18Z</time>
      </trkpt>
      <trkpt lat="28.7544280" lon="-17.8850520">
        <ele>2396.9</ele>
        <time>2020-11-16T13:24:19Z</time>
      </trkpt>
      <trkpt lat="28.7544430" lon="-17.8850720">
        <ele>2396.9</ele>
        <time>2020-11-16T13:24:20Z</time>
      </trkpt>
      <trkpt lat="28.7544430" lon="-17.8850720">
        <ele>2396.9</ele>
        <time>2020-11-16T13:24:21Z</time>
      </trkpt>
      <trkpt lat="28.7544580" lon="-17.8850880">
        <ele>2396.9</ele>
        <time>2020-11-16T13:24:22Z</time>
      </trkpt>
      <trkpt lat="28.7544580" lon="-17.8850880">
        <ele>2396.9</ele>
        <time>2020-11-16T13:24:23Z</time>
      </trkpt>
      <trkpt lat="28.7544870" lon="-17.8851030">
        <ele>2396.9</ele>
        <time>2020-11-16T13:24:24Z</time>
      </trkpt>
      <trkpt lat="28.7544870" lon="-17.8851030">
        <ele>2396.9</ele>
        <time>2020-11-16T13:24:25Z</time>
      </trkpt>
      <trkpt lat="28.7544930" lon="-17.8851220">
        <ele>2396.9</ele>
        <time>2020-11-16T13:24:26Z</time>
      </trkpt>
      <trkpt lat="28.7544930" lon="-17.8851220">
        <ele>2396.9</ele>
        <time>2020-11-16T13:24:27Z</time>
      </trkpt>
      <trkpt lat="28.7544970" lon="-17.8851350">
        <ele>2396.9</ele>
        <time>2020-11-16T13:24:28Z</time>
      </trkpt>
      <trkpt lat="28.7544970" lon="-17.8851350">
        <ele>2396.9</ele>
        <time>2020-11-16T13:24:29Z</time>
      </trkpt>
      <trkpt lat="28.7544900" lon="-17.8851520">
        <ele>2396.9</ele>
        <time>2020-11-16T13:24:30Z</time>
      </trkpt>
      <trkpt lat="28.7544900" lon="-17.8851520">
        <ele>2396.9</ele>
        <time>2020-11-16T13:24:31Z</time>
      </trkpt>
      <trkpt lat="28.7544880" lon="-17.8851570">
        <ele>2396.9</ele>
        <time>2020-11-16T13:24:32Z</time>
      </trkpt>
      <trkpt lat="28.7544880" lon="-17.8851570">
        <ele>2396.9</ele>
        <time>2020-11-16T13:24:33Z</time>
      </trkpt>
      <trkpt lat="28.7544880" lon="-17.8851570">
        <ele>2396.9</ele>
        <time>2020-11-16T13:24:34Z</time>
      </trkpt>
      <trkpt lat="28.7544880" lon="-17.8851570">
        <ele>2396.9</ele>
        <time>2020-11-16T13:24:35Z</time>
      </trkpt>
      <trkpt lat="28.7544880" lon="-17.8851570">
        <ele>2396.9</ele>
        <time>2020-11-16T13:24:39Z</time>
      </trkpt>
      <trkpt lat="28.7544720" lon="-17.8851320">
        <ele>2396.9</ele>
        <time>2020-11-16T13:24:40Z</time>
      </trkpt>
      <trkpt lat="28.7544720" lon="-17.8851320">
        <ele>2396.9</ele>
        <time>2020-11-16T13:24:41Z</time>
      </trkpt>
      <trkpt lat="28.7544600" lon="-17.8851180">
        <ele>2396.9</ele>
        <time>2020-11-16T13:24:42Z</time>
      </trkpt>
      <trkpt lat="28.7544600" lon="-17.8851180">
        <ele>2396.9</ele>
        <time>2020-11-16T13:24:43Z</time>
      </trkpt>
      <trkpt lat="28.7544500" lon="-17.8851070">
        <ele>2396.9</ele>
        <time>2020-11-16T13:24:44Z</time>
      </trkpt>
      <trkpt lat="28.7544500" lon="-17.8851070">
        <ele>2396.9</ele>
        <time>2020-11-16T13:24:45Z</time>
      </trkpt>
      <trkpt lat="28.7544400" lon="-17.8850920">
        <ele>2396.9</ele>
        <time>2020-11-16T13:24:46Z</time>
      </trkpt>
      <trkpt lat="28.7544400" lon="-17.8850920">
        <ele>2396.9</ele>
        <time>2020-11-16T13:24:47Z</time>
      </trkpt>
      <trkpt lat="28.7544250" lon="-17.8850770">
        <ele>2396.9</ele>
        <time>2020-11-16T13:24:48Z</time>
      </trkpt>
      <trkpt lat="28.7544250" lon="-17.8850770">
        <ele>2396.9</ele>
        <time>2020-11-16T13:24:49Z</time>
      </trkpt>
      <trkpt lat="28.7544120" lon="-17.8850700">
        <ele>2396.9</ele>
        <time>2020-11-16T13:24:50Z</time>
      </trkpt>
      <trkpt lat="28.7544120" lon="-17.8850700">
        <ele>2396.9</ele>
        <time>2020-11-16T13:24:51Z</time>
      </trkpt>
      <trkpt lat="28.7544030" lon="-17.8850680">
        <ele>2396.9</ele>
        <time>2020-11-16T13:24:52Z</time>
      </trkpt>
      <trkpt lat="28.7544030" lon="-17.8850680">
        <ele>2396.9</ele>
        <time>2020-11-16T13:24:53Z</time>
      </trkpt>
      <trkpt lat="28.7544030" lon="-17.8850700">
        <ele>2396.9</ele>
        <time>2020-11-16T13:24:54Z</time>
      </trkpt>
      <trkpt lat="28.7544030" lon="-17.8850700">
        <ele>2396.9</ele>
        <time>2020-11-16T13:24:55Z</time>
      </trkpt>
      <trkpt lat="28.7544030" lon="-17.8850700">
        <ele>2396.9</ele>
        <time>2020-11-16T13:24:56Z</time>
      </trkpt>
      <trkpt lat="28.7544300" lon="-17.8850970">
        <ele>2396.9</ele>
        <time>2020-11-16T13:29:08Z</time>
      </trkpt>
      <trkpt lat="28.7544300" lon="-17.8850970">
        <ele>2396.9</ele>
        <time>2020-11-16T13:29:09Z</time>
      </trkpt>
      <trkpt lat="28.7544480" lon="-17.8851050">
        <ele>2396.9</ele>
        <time>2020-11-16T13:29:10Z</time>
      </trkpt>
      <trkpt lat="28.7544480" lon="-17.8851050">
        <ele>2396.9</ele>
        <time>2020-11-16T13:29:11Z</time>
      </trkpt>
      <trkpt lat="28.7544700" lon="-17.8851150">
        <ele>2396.9</ele>
        <time>2020-11-16T13:29:12Z</time>
      </trkpt>
      <trkpt lat="28.7544700" lon="-17.8851150">
        <ele>2396.9</ele>
        <time>2020-11-16T13:29:13Z</time>
      </trkpt>
      <trkpt lat="28.7544870" lon="-17.8851300">
        <ele>2396.9</ele>
        <time>2020-11-16T13:29:14Z</time>
      </trkpt>
      <trkpt lat="28.7544950" lon="-17.8851380">
        <ele>2396.5</ele>
        <time>2020-11-16T13:29:15Z</time>
      </trkpt>
      <trkpt lat="28.7544950" lon="-17.8851380">
        <ele>2396.5</ele>
        <time>2020-11-16T13:29:16Z</time>
      </trkpt>
      <trkpt lat="28.7545100" lon="-17.8851580">
        <ele>2395.9</ele>
        <time>2020-11-16T13:29:17Z</time>
      </trkpt>
      <trkpt lat="28.7545100" lon="-17.8851580">
        <ele>2395.9</ele>
        <time>2020-11-16T13:29:18Z</time>
      </trkpt>
      <trkpt lat="28.7545200" lon="-17.8851850">
        <ele>2395.4</ele>
        <time>2020-11-16T13:29:19Z</time>
      </trkpt>
      <trkpt lat="28.7545200" lon="-17.8851980">
        <ele>2395.1</ele>
        <time>2020-11-16T13:29:20Z</time>
      </trkpt>
      <trkpt lat="28.7545220" lon="-17.8852120">
        <ele>2394.8</ele>
        <time>2020-11-16T13:29:21Z</time>
      </trkpt>
      <trkpt lat="28.7545220" lon="-17.8852120">
        <ele>2394.8</ele>
        <time>2020-11-16T13:29:22Z</time>
      </trkpt>
      <trkpt lat="28.7545200" lon="-17.8852320">
        <ele>2394.4</ele>
        <time>2020-11-16T13:29:23Z</time>
      </trkpt>
      <trkpt lat="28.7545200" lon="-17.8852320">
        <ele>2394.4</ele>
        <time>2020-11-16T13:29:24Z</time>
      </trkpt>
      <trkpt lat="28.7545200" lon="-17.8852350">
        <ele>2394.4</ele>
        <time>2020-11-16T13:29:25Z</time>
      </trkpt>
      <trkpt lat="28.7545180" lon="-17.8852470">
        <ele>2394.1</ele>
        <time>2020-11-16T13:29:26Z</time>
      </trkpt>
      <trkpt lat="28.7545180" lon="-17.8852470">
        <ele>2394.1</ele>
        <time>2020-11-16T13:29:27Z</time>
      </trkpt>
      <trkpt lat="28.7545280" lon="-17.8852970">
        <ele>2393.1</ele>
        <time>2020-11-16T13:29:28Z</time>
      </trkpt>
      <trkpt lat="28.7545400" lon="-17.8853330">
        <ele>2392.4</ele>
        <time>2020-11-16T13:29:29Z</time>
      </trkpt>
      <trkpt lat="28.7545400" lon="-17.8853330">
        <ele>2392.4</ele>
        <time>2020-11-16T13:29:30Z</time>
      </trkpt>
      <trkpt lat="28.7545870" lon="-17.8854180">
        <ele>2390.7</ele>
        <time>2020-11-16T13:29:31Z</time>
      </trkpt>
      <trkpt lat="28.7546230" lon="-17.8854630">
        <ele>2389.8</ele>
        <time>2020-11-16T13:29:32Z</time>
      </trkpt>
      <trkpt lat="28.7546230" lon="-17.8854630">
        <ele>2389.8</ele>
        <time>2020-11-16T13:29:33Z</time>
      </trkpt>
      <trkpt lat="28.7547120" lon="-17.8855280">
        <ele>2388.0</ele>
        <time>2020-11-16T13:29:34Z</time>
      </trkpt>
      <trkpt lat="28.7547120" lon="-17.8855280">
        <ele>2388.0</ele>
        <time>2020-11-16T13:29:35Z</time>
      </trkpt>
      <trkpt lat="28.7548050" lon="-17.8855400">
        <ele>2390.7</ele>
        <time>2020-11-16T13:29:36Z</time>
      </trkpt>
      <trkpt lat="28.7548050" lon="-17.8855400">
        <ele>2390.7</ele>
        <time>2020-11-16T13:29:37Z</time>
      </trkpt>
      <trkpt lat="28.7548870" lon="-17.8854730">
        <ele>2395.4</ele>
        <time>2020-11-16T13:29:38Z</time>
      </trkpt>
      <trkpt lat="28.7548870" lon="-17.8854730">
        <ele>2395.4</ele>
        <time>2020-11-16T13:29:39Z</time>
      </trkpt>
      <trkpt lat="28.7549330" lon="-17.8853720">
        <ele>2395.0</ele>
        <time>2020-11-16T13:29:40Z</time>
      </trkpt>
      <trkpt lat="28.7549450" lon="-17.8853180">
        <ele>2394.6</ele>
        <time>2020-11-16T13:29:41Z</time>
      </trkpt>
      <trkpt lat="28.7549450" lon="-17.8853180">
        <ele>2394.6</ele>
        <time>2020-11-16T13:29:42Z</time>
      </trkpt>
      <trkpt lat="28.7549370" lon="-17.8852070">
        <ele>2394.0</ele>
        <time>2020-11-16T13:29:43Z</time>
      </trkpt>
      <trkpt lat="28.7549370" lon="-17.8852070">
        <ele>2394.0</ele>
        <time>2020-11-16T13:29:44Z</time>
      </trkpt>
      <trkpt lat="28.7549270" lon="-17.8851000">
        <ele>2393.3</ele>
        <time>2020-11-16T13:29:45Z</time>
      </trkpt>
      <trkpt lat="28.7549270" lon="-17.8851000">
        <ele>2393.3</ele>
        <time>2020-11-16T13:29:46Z</time>
      </trkpt>
      <trkpt lat="28.7549530" lon="-17.8850080">
        <ele>2392.7</ele>
        <time>2020-11-16T13:29:47Z</time>
      </trkpt>
      <trkpt lat="28.7549530" lon="-17.8850080">
        <ele>2392.7</ele>
        <time>2020-11-16T13:29:48Z</time>
      </trkpt>
      <trkpt lat="28.7550330" lon="-17.8849770">
        <ele>2392.0</ele>
        <time>2020-11-16T13:29:49Z</time>
      </trkpt>
      <trkpt lat="28.7550750" lon="-17.8849920">
        <ele>2391.7</ele>
        <time>2020-11-16T13:29:50Z</time>
      </trkpt>
      <trkpt lat="28.7550750" lon="-17.8849920">
        <ele>2391.7</ele>
        <time>2020-11-16T13:29:51Z</time>
      </trkpt>
      <trkpt lat="28.7551450" lon="-17.8850600">
        <ele>2391.0</ele>
        <time>2020-11-16T13:29:52Z</time>
      </trkpt>
      <trkpt lat="28.7551450" lon="-17.8850600">
        <ele>2391.0</ele>
        <time>2020-11-16T13:29:53Z</time>
      </trkpt>
      <trkpt lat="28.7551900" lon="-17.8851680">
        <ele>2390.2</ele>
        <time>2020-11-16T13:29:54Z</time>
      </trkpt>
      <trkpt lat="28.7551900" lon="-17.8851680">
        <ele>2390.2</ele>
        <time>2020-11-16T13:29:55Z</time>
      </trkpt>
      <trkpt lat="28.7552050" lon="-17.8852980">
        <ele>2389.3</ele>
        <time>2020-11-16T13:29:56Z</time>
      </trkpt>
      <trkpt lat="28.7552050" lon="-17.8852980">
        <ele>2389.3</ele>
        <time>2020-11-16T13:29:57Z</time>
      </trkpt>
      <trkpt lat="28.7552080" lon="-17.8854370">
        <ele>2388.3</ele>
        <time>2020-11-16T13:29:58Z</time>
      </trkpt>
      <trkpt lat="28.7552080" lon="-17.8854370">
        <ele>2388.3</ele>
        <time>2020-11-16T13:29:59Z</time>
      </trkpt>
      <trkpt lat="28.7551980" lon="-17.8855830">
        <ele>2387.3</ele>
        <time>2020-11-16T13:30:00Z</time>
      </trkpt>
      <trkpt lat="28.7551870" lon="-17.8856570">
        <ele>2386.8</ele>
        <time>2020-11-16T13:30:01Z</time>
      </trkpt>
      <trkpt lat="28.7551870" lon="-17.8856570">
        <ele>2386.8</ele>
        <time>2020-11-16T13:30:02Z</time>
      </trkpt>
      <trkpt lat="28.7551530" lon="-17.8857950">
        <ele>2385.7</ele>
        <time>2020-11-16T13:30:03Z</time>
      </trkpt>
      <trkpt lat="28.7551530" lon="-17.8857950">
        <ele>2385.7</ele>
        <time>2020-11-16T13:30:04Z</time>
      </trkpt>
      <trkpt lat="28.7551070" lon="-17.8859180">
        <ele>2384.6</ele>
        <time>2020-11-16T13:30:05Z</time>
      </trkpt>
      <trkpt lat="28.7551070" lon="-17.8859180">
        <ele>2384.6</ele>
        <time>2020-11-16T13:30:06Z</time>
      </trkpt>
      <trkpt lat="28.7550220" lon="-17.8859930">
        <ele>2383.6</ele>
        <time>2020-11-16T13:30:07Z</time>
      </trkpt>
      <trkpt lat="28.7549630" lon="-17.8860120">
        <ele>2383.0</ele>
        <time>2020-11-16T13:30:08Z</time>
      </trkpt>
      <trkpt lat="28.7549630" lon="-17.8860120">
        <ele>2383.0</ele>
        <time>2020-11-16T13:30:09Z</time>
      </trkpt>
      <trkpt lat="28.7548370" lon="-17.8860250">
        <ele>2381.8</ele>
        <time>2020-11-16T13:30:10Z</time>
      </trkpt>
      <trkpt lat="28.7548370" lon="-17.8860250">
        <ele>2381.8</ele>
        <time>2020-11-16T13:30:11Z</time>
      </trkpt>
      <trkpt lat="28.7547270" lon="-17.8860430">
        <ele>2380.8</ele>
        <time>2020-11-16T13:30:12Z</time>
      </trkpt>
      <trkpt lat="28.7546700" lon="-17.8860500">
        <ele>2380.3</ele>
        <time>2020-11-16T13:30:13Z</time>
      </trkpt>
      <trkpt lat="28.7546700" lon="-17.8860500">
        <ele>2380.3</ele>
        <time>2020-11-16T13:30:14Z</time>
      </trkpt>
      <trkpt lat="28.7545280" lon="-17.8860680">
        <ele>2379.1</ele>
        <time>2020-11-16T13:30:15Z</time>
      </trkpt>
      <trkpt lat="28.7545280" lon="-17.8860680">
        <ele>2379.1</ele>
        <time>2020-11-16T13:30:16Z</time>
      </trkpt>
      <trkpt lat="28.7543700" lon="-17.8861020">
        <ele>2377.7</ele>
        <time>2020-11-16T13:30:17Z</time>
      </trkpt>
      <trkpt lat="28.7543700" lon="-17.8861020">
        <ele>2377.7</ele>
        <time>2020-11-16T13:30:18Z</time>
      </trkpt>
      <trkpt lat="28.7542030" lon="-17.8861770">
        <ele>2376.3</ele>
        <time>2020-11-16T13:30:19Z</time>
      </trkpt>
      <trkpt lat="28.7542030" lon="-17.8861770">
        <ele>2376.3</ele>
        <time>2020-11-16T13:30:20Z</time>
      </trkpt>
      <trkpt lat="28.7540620" lon="-17.8863280">
        <ele>2374.6</ele>
        <time>2020-11-16T13:30:21Z</time>
      </trkpt>
      <trkpt lat="28.7540620" lon="-17.8863280">
        <ele>2374.6</ele>
        <time>2020-11-16T13:30:22Z</time>
      </trkpt>
      <trkpt lat="28.7539950" lon="-17.8865500">
        <ele>2372.8</ele>
        <time>2020-11-16T13:30:23Z</time>
      </trkpt>
      <trkpt lat="28.7539820" lon="-17.8866770">
        <ele>2371.3</ele>
        <time>2020-11-16T13:30:24Z</time>
      </trkpt>
      <trkpt lat="28.7539820" lon="-17.8866770">
        <ele>2371.3</ele>
        <time>2020-11-16T13:30:25Z</time>
      </trkpt>
      <trkpt lat="28.7539630" lon="-17.8869420">
        <ele>2369.0</ele>
        <time>2020-11-16T13:30:26Z</time>
      </trkpt>
      <trkpt lat="28.7539630" lon="-17.8869420">
        <ele>2369.0</ele>
        <time>2020-11-16T13:30:27Z</time>
      </trkpt>
      <trkpt lat="28.7539420" lon="-17.8872230">
        <ele>2367.2</ele>
        <time>2020-11-16T13:30:28Z</time>
      </trkpt>
      <trkpt lat="28.7539300" lon="-17.8873630">
        <ele>2366.4</ele>
        <time>2020-11-16T13:30:29Z</time>
      </trkpt>
      <trkpt lat="28.7539220" lon="-17.8875050">
        <ele>2365.7</ele>
        <time>2020-11-16T13:30:30Z</time>
      </trkpt>
      <trkpt lat="28.7539220" lon="-17.8875050">
        <ele>2365.7</ele>
        <time>2020-11-16T13:30:31Z</time>
      </trkpt>
      <trkpt lat="28.7539130" lon="-17.8877830">
        <ele>2364.1</ele>
        <time>2020-11-16T13:30:32Z</time>
      </trkpt>
      <trkpt lat="28.7539130" lon="-17.8877830">
        <ele>2364.1</ele>
        <time>2020-11-16T13:30:33Z</time>
      </trkpt>
      <trkpt lat="28.7538980" lon="-17.8880580">
        <ele>2362.6</ele>
        <time>2020-11-16T13:30:34Z</time>
      </trkpt>
      <trkpt lat="28.7538980" lon="-17.8880580">
        <ele>2362.6</ele>
        <time>2020-11-16T13:30:35Z</time>
      </trkpt>
      <trkpt lat="28.7538750" lon="-17.8883280">
        <ele>2361.3</ele>
        <time>2020-11-16T13:30:36Z</time>
      </trkpt>
      <trkpt lat="28.7538750" lon="-17.8883280">
        <ele>2361.3</ele>
        <time>2020-11-16T13:30:37Z</time>
      </trkpt>
      <trkpt lat="28.7538400" lon="-17.8885830">
        <ele>2360.0</ele>
        <time>2020-11-16T13:30:38Z</time>
      </trkpt>
      <trkpt lat="28.7538400" lon="-17.8885830">
        <ele>2360.0</ele>
        <time>2020-11-16T13:30:39Z</time>
      </trkpt>
      <trkpt lat="28.7537650" lon="-17.8888180">
        <ele>2358.7</ele>
        <time>2020-11-16T13:30:40Z</time>
      </trkpt>
      <trkpt lat="28.7537650" lon="-17.8888180">
        <ele>2358.7</ele>
        <time>2020-11-16T13:30:41Z</time>
      </trkpt>
      <trkpt lat="28.7536380" lon="-17.8890400">
        <ele>2357.1</ele>
        <time>2020-11-16T13:30:42Z</time>
      </trkpt>
      <trkpt lat="28.7535700" lon="-17.8891470">
        <ele>2356.3</ele>
        <time>2020-11-16T13:30:43Z</time>
      </trkpt>
      <trkpt lat="28.7535700" lon="-17.8891470">
        <ele>2356.3</ele>
        <time>2020-11-16T13:30:44Z</time>
      </trkpt>
      <trkpt lat="28.7534430" lon="-17.8893620">
        <ele>2354.9</ele>
        <time>2020-11-16T13:30:45Z</time>
      </trkpt>
      <trkpt lat="28.7534430" lon="-17.8893620">
        <ele>2354.9</ele>
        <time>2020-11-16T13:30:46Z</time>
      </trkpt>
      <trkpt lat="28.7533270" lon="-17.8895630">
        <ele>2353.3</ele>
        <time>2020-11-16T13:30:47Z</time>
      </trkpt>
      <trkpt lat="28.7533270" lon="-17.8895630">
        <ele>2353.3</ele>
        <time>2020-11-16T13:30:48Z</time>
      </trkpt>
      <trkpt lat="28.7532200" lon="-17.8897380">
        <ele>2351.9</ele>
        <time>2020-11-16T13:30:49Z</time>
      </trkpt>
      <trkpt lat="28.7531670" lon="-17.8898200">
        <ele>2351.4</ele>
        <time>2020-11-16T13:30:50Z</time>
      </trkpt>
      <trkpt lat="28.7531670" lon="-17.8898200">
        <ele>2351.4</ele>
        <time>2020-11-16T13:30:51Z</time>
      </trkpt>
      <trkpt lat="28.7530420" lon="-17.8899520">
        <ele>2350.4</ele>
        <time>2020-11-16T13:30:52Z</time>
      </trkpt>
      <trkpt lat="28.7530420" lon="-17.8899520">
        <ele>2350.4</ele>
        <time>2020-11-16T13:30:53Z</time>
      </trkpt>
      <trkpt lat="28.7528880" lon="-17.8900100">
        <ele>2349.4</ele>
        <time>2020-11-16T13:30:54Z</time>
      </trkpt>
      <trkpt lat="28.7528880" lon="-17.8900100">
        <ele>2349.4</ele>
        <time>2020-11-16T13:30:55Z</time>
      </trkpt>
      <trkpt lat="28.7527200" lon="-17.8900270">
        <ele>2348.3</ele>
        <time>2020-11-16T13:30:56Z</time>
      </trkpt>
      <trkpt lat="28.7527200" lon="-17.8900270">
        <ele>2348.3</ele>
        <time>2020-11-16T13:30:57Z</time>
      </trkpt>
      <trkpt lat="28.7525420" lon="-17.8900430">
        <ele>2347.1</ele>
        <time>2020-11-16T13:30:58Z</time>
      </trkpt>
      <trkpt lat="28.7525420" lon="-17.8900430">
        <ele>2347.1</ele>
        <time>2020-11-16T13:30:59Z</time>
      </trkpt>
      <trkpt lat="28.7523800" lon="-17.8900800">
        <ele>2346.0</ele>
        <time>2020-11-16T13:31:00Z</time>
      </trkpt>
      <trkpt lat="28.7523800" lon="-17.8900800">
        <ele>2346.0</ele>
        <time>2020-11-16T13:31:01Z</time>
      </trkpt>
      <trkpt lat="28.7522820" lon="-17.8901820">
        <ele>2344.9</ele>
        <time>2020-11-16T13:31:02Z</time>
      </trkpt>
      <trkpt lat="28.7522820" lon="-17.8901820">
        <ele>2344.9</ele>
        <time>2020-11-16T13:31:03Z</time>
      </trkpt>
      <trkpt lat="28.7523180" lon="-17.8903030">
        <ele>2344.1</ele>
        <time>2020-11-16T13:31:04Z</time>
      </trkpt>
      <trkpt lat="28.7523180" lon="-17.8903030">
        <ele>2344.1</ele>
        <time>2020-11-16T13:31:05Z</time>
      </trkpt>
      <trkpt lat="28.7524430" lon="-17.8903880">
        <ele>2342.8</ele>
        <time>2020-11-16T13:31:06Z</time>
      </trkpt>
      <trkpt lat="28.7524430" lon="-17.8903880">
        <ele>2342.8</ele>
        <time>2020-11-16T13:31:07Z</time>
      </trkpt>
      <trkpt lat="28.7525920" lon="-17.8904600">
        <ele>2340.7</ele>
        <time>2020-11-16T13:31:08Z</time>
      </trkpt>
      <trkpt lat="28.7525920" lon="-17.8904600">
        <ele>2340.7</ele>
        <time>2020-11-16T13:31:09Z</time>
      </trkpt>
      <trkpt lat="28.7527400" lon="-17.8905600">
        <ele>2338.7</ele>
        <time>2020-11-16T13:31:10Z</time>
      </trkpt>
      <trkpt lat="28.7528120" lon="-17.8906130">
        <ele>2337.7</ele>
        <time>2020-11-16T13:31:11Z</time>
      </trkpt>
      <trkpt lat="28.7528120" lon="-17.8906130">
        <ele>2337.7</ele>
        <time>2020-11-16T13:31:12Z</time>
      </trkpt>
      <trkpt lat="28.7529470" lon="-17.8907070">
        <ele>2335.9</ele>
        <time>2020-11-16T13:31:13Z</time>
      </trkpt>
      <trkpt lat="28.7529470" lon="-17.8907070">
        <ele>2335.9</ele>
        <time>2020-11-16T13:31:14Z</time>
      </trkpt>
      <trkpt lat="28.7530800" lon="-17.8907480">
        <ele>2334.1</ele>
        <time>2020-11-16T13:31:15Z</time>
      </trkpt>
      <trkpt lat="28.7530800" lon="-17.8907480">
        <ele>2334.1</ele>
        <time>2020-11-16T13:31:16Z</time>
      </trkpt>
      <trkpt lat="28.7532250" lon="-17.8907080">
        <ele>2332.1</ele>
        <time>2020-11-16T13:31:17Z</time>
      </trkpt>
      <trkpt lat="28.7532250" lon="-17.8907080">
        <ele>2332.1</ele>
        <time>2020-11-16T13:31:18Z</time>
      </trkpt>
      <trkpt lat="28.7533770" lon="-17.8906480">
        <ele>2330.2</ele>
        <time>2020-11-16T13:31:19Z</time>
      </trkpt>
      <trkpt lat="28.7533770" lon="-17.8906480">
        <ele>2330.2</ele>
        <time>2020-11-16T13:31:20Z</time>
      </trkpt>
      <trkpt lat="28.7535130" lon="-17.8905970">
        <ele>2328.6</ele>
        <time>2020-11-16T13:31:21Z</time>
      </trkpt>
      <trkpt lat="28.7535130" lon="-17.8905970">
        <ele>2328.6</ele>
        <time>2020-11-16T13:31:22Z</time>
      </trkpt>
      <trkpt lat="28.7536500" lon="-17.8905530">
        <ele>2327.0</ele>
        <time>2020-11-16T13:31:23Z</time>
      </trkpt>
      <trkpt lat="28.7537230" lon="-17.8905270">
        <ele>2326.1</ele>
        <time>2020-11-16T13:31:24Z</time>
      </trkpt>
      <trkpt lat="28.7537230" lon="-17.8905270">
        <ele>2326.1</ele>
        <time>2020-11-16T13:31:25Z</time>
      </trkpt>
      <trkpt lat="28.7538800" lon="-17.8904600">
        <ele>2324.3</ele>
        <time>2020-11-16T13:31:26Z</time>
      </trkpt>
      <trkpt lat="28.7538800" lon="-17.8904600">
        <ele>2324.3</ele>
        <time>2020-11-16T13:31:27Z</time>
      </trkpt>
      <trkpt lat="28.7540620" lon="-17.8903850">
        <ele>2322.6</ele>
        <time>2020-11-16T13:31:28Z</time>
      </trkpt>
      <trkpt lat="28.7540620" lon="-17.8903850">
        <ele>2322.6</ele>
        <time>2020-11-16T13:31:29Z</time>
      </trkpt>
      <trkpt lat="28.7542630" lon="-17.8903170">
        <ele>2321.0</ele>
        <time>2020-11-16T13:31:30Z</time>
      </trkpt>
      <trkpt lat="28.7542630" lon="-17.8903170">
        <ele>2321.0</ele>
        <time>2020-11-16T13:31:31Z</time>
      </trkpt>
      <trkpt lat="28.7544780" lon="-17.8902880">
        <ele>2319.9</ele>
        <time>2020-11-16T13:31:32Z</time>
      </trkpt>
      <trkpt lat="28.7544780" lon="-17.8902880">
        <ele>2319.9</ele>
        <time>2020-11-16T13:31:33Z</time>
      </trkpt>
      <trkpt lat="28.7546830" lon="-17.8902480">
        <ele>2318.9</ele>
        <time>2020-11-16T13:31:34Z</time>
      </trkpt>
      <trkpt lat="28.7546830" lon="-17.8902480">
        <ele>2318.9</ele>
        <time>2020-11-16T13:31:35Z</time>
      </trkpt>
      <trkpt lat="28.7548620" lon="-17.8901680">
        <ele>2318.1</ele>
        <time>2020-11-16T13:31:36Z</time>
      </trkpt>
      <trkpt lat="28.7548620" lon="-17.8901680">
        <ele>2318.1</ele>
        <time>2020-11-16T13:31:37Z</time>
      </trkpt>
      <trkpt lat="28.7549950" lon="-17.8900400">
        <ele>2317.3</ele>
        <time>2020-11-16T13:31:38Z</time>
      </trkpt>
      <trkpt lat="28.7549950" lon="-17.8900400">
        <ele>2317.3</ele>
        <time>2020-11-16T13:31:39Z</time>
      </trkpt>
      <trkpt lat="28.7550570" lon="-17.8898520">
        <ele>2316.3</ele>
        <time>2020-11-16T13:31:40Z</time>
      </trkpt>
      <trkpt lat="28.7550570" lon="-17.8898520">
        <ele>2316.3</ele>
        <time>2020-11-16T13:31:41Z</time>
      </trkpt>
      <trkpt lat="28.7550580" lon="-17.8896430">
        <ele>2314.8</ele>
        <time>2020-11-16T13:31:42Z</time>
      </trkpt>
      <trkpt lat="28.7550580" lon="-17.8896430">
        <ele>2314.8</ele>
        <time>2020-11-16T13:31:43Z</time>
      </trkpt>
      <trkpt lat="28.7550400" lon="-17.8894270">
        <ele>2313.3</ele>
        <time>2020-11-16T13:31:44Z</time>
      </trkpt>
      <trkpt lat="28.7550400" lon="-17.8894270">
        <ele>2313.3</ele>
        <time>2020-11-16T13:31:45Z</time>
      </trkpt>
      <trkpt lat="28.7550130" lon="-17.8891980">
        <ele>2311.7</ele>
        <time>2020-11-16T13:31:46Z</time>
      </trkpt>
      <trkpt lat="28.7550030" lon="-17.8890830">
        <ele>2310.9</ele>
        <time>2020-11-16T13:31:47Z</time>
      </trkpt>
      <trkpt lat="28.7550030" lon="-17.8890830">
        <ele>2310.9</ele>
        <time>2020-11-16T13:31:48Z</time>
      </trkpt>
      <trkpt lat="28.7550050" lon="-17.8888580">
        <ele>2309.3</ele>
        <time>2020-11-16T13:31:49Z</time>
      </trkpt>
      <trkpt lat="28.7550050" lon="-17.8888580">
        <ele>2309.3</ele>
        <time>2020-11-16T13:31:50Z</time>
      </trkpt>
      <trkpt lat="28.7550520" lon="-17.8886570">
        <ele>2307.9</ele>
        <time>2020-11-16T13:31:51Z</time>
      </trkpt>
      <trkpt lat="28.7550520" lon="-17.8886570">
        <ele>2307.9</ele>
        <time>2020-11-16T13:31:52Z</time>
      </trkpt>
      <trkpt lat="28.7551480" lon="-17.8885200">
        <ele>2306.7</ele>
        <time>2020-11-16T13:31:53Z</time>
      </trkpt>
      <trkpt lat="28.7552230" lon="-17.8885070">
        <ele>2306.0</ele>
        <time>2020-11-16T13:31:54Z</time>
      </trkpt>
      <trkpt lat="28.7552230" lon="-17.8885070">
        <ele>2306.0</ele>
        <time>2020-11-16T13:31:55Z</time>
      </trkpt>
      <trkpt lat="28.7553750" lon="-17.8885850">
        <ele>2304.7</ele>
        <time>2020-11-16T13:31:56Z</time>
      </trkpt>
      <trkpt lat="28.7554450" lon="-17.8886400">
        <ele>2304.0</ele>
        <time>2020-11-16T13:31:57Z</time>
      </trkpt>
      <trkpt lat="28.7554450" lon="-17.8886400">
        <ele>2304.0</ele>
        <time>2020-11-16T13:31:58Z</time>
      </trkpt>
      <trkpt lat="28.7555970" lon="-17.8887450">
        <ele>2302.6</ele>
        <time>2020-11-16T13:31:59Z</time>
      </trkpt>
      <trkpt lat="28.7556730" lon="-17.8887880">
        <ele>2301.9</ele>
        <time>2020-11-16T13:32:00Z</time>
      </trkpt>
      <trkpt lat="28.7556730" lon="-17.8887880">
        <ele>2301.9</ele>
        <time>2020-11-16T13:32:01Z</time>
      </trkpt>
      <trkpt lat="28.7558480" lon="-17.8888530">
        <ele>2300.5</ele>
        <time>2020-11-16T13:32:02Z</time>
      </trkpt>
      <trkpt lat="28.7558480" lon="-17.8888530">
        <ele>2300.5</ele>
        <time>2020-11-16T13:32:03Z</time>
      </trkpt>
      <trkpt lat="28.7560320" lon="-17.8888830">
        <ele>2299.0</ele>
        <time>2020-11-16T13:32:04Z</time>
      </trkpt>
      <trkpt lat="28.7560320" lon="-17.8888830">
        <ele>2299.0</ele>
        <time>2020-11-16T13:32:05Z</time>
      </trkpt>
      <trkpt lat="28.7562270" lon="-17.8889070">
        <ele>2297.4</ele>
        <time>2020-11-16T13:32:06Z</time>
      </trkpt>
      <trkpt lat="28.7562270" lon="-17.8889070">
        <ele>2297.4</ele>
        <time>2020-11-16T13:32:07Z</time>
      </trkpt>
      <trkpt lat="28.7564150" lon="-17.8888700">
        <ele>2295.9</ele>
        <time>2020-11-16T13:32:08Z</time>
      </trkpt>
      <trkpt lat="28.7564150" lon="-17.8888700">
        <ele>2295.9</ele>
        <time>2020-11-16T13:32:09Z</time>
      </trkpt>
      <trkpt lat="28.7566050" lon="-17.8887450">
        <ele>2294.2</ele>
        <time>2020-11-16T13:32:10Z</time>
      </trkpt>
      <trkpt lat="28.7566050" lon="-17.8887450">
        <ele>2294.2</ele>
        <time>2020-11-16T13:32:11Z</time>
      </trkpt>
      <trkpt lat="28.7568130" lon="-17.8886130">
        <ele>2292.3</ele>
        <time>2020-11-16T13:32:12Z</time>
      </trkpt>
      <trkpt lat="28.7568130" lon="-17.8886130">
        <ele>2292.3</ele>
        <time>2020-11-16T13:32:13Z</time>
      </trkpt>
      <trkpt lat="28.7569980" lon="-17.8884550">
        <ele>2290.4</ele>
        <time>2020-11-16T13:32:14Z</time>
      </trkpt>
      <trkpt lat="28.7569980" lon="-17.8884550">
        <ele>2290.4</ele>
        <time>2020-11-16T13:32:15Z</time>
      </trkpt>
      <trkpt lat="28.7571080" lon="-17.8882300">
        <ele>2288.6</ele>
        <time>2020-11-16T13:32:16Z</time>
      </trkpt>
      <trkpt lat="28.7571080" lon="-17.8882300">
        <ele>2288.6</ele>
        <time>2020-11-16T13:32:17Z</time>
      </trkpt>
      <trkpt lat="28.7571800" lon="-17.8879770">
        <ele>2286.8</ele>
        <time>2020-11-16T13:32:18Z</time>
      </trkpt>
      <trkpt lat="28.7572170" lon="-17.8878600">
        <ele>2285.9</ele>
        <time>2020-11-16T13:32:19Z</time>
      </trkpt>
      <trkpt lat="28.7572170" lon="-17.8878600">
        <ele>2285.9</ele>
        <time>2020-11-16T13:32:20Z</time>
      </trkpt>
      <trkpt lat="28.7572950" lon="-17.8876900">
        <ele>2284.5</ele>
        <time>2020-11-16T13:32:21Z</time>
      </trkpt>
      <trkpt lat="28.7572950" lon="-17.8876900">
        <ele>2284.5</ele>
        <time>2020-11-16T13:32:22Z</time>
      </trkpt>
      <trkpt lat="28.7574450" lon="-17.8876300">
        <ele>2283.3</ele>
        <time>2020-11-16T13:32:23Z</time>
      </trkpt>
      <trkpt lat="28.7574450" lon="-17.8876300">
        <ele>2283.3</ele>
        <time>2020-11-16T13:32:24Z</time>
      </trkpt>
      <trkpt lat="28.7576220" lon="-17.8876420">
        <ele>2281.9</ele>
        <time>2020-11-16T13:32:25Z</time>
      </trkpt>
      <trkpt lat="28.7577170" lon="-17.8876430">
        <ele>2281.1</ele>
        <time>2020-11-16T13:32:26Z</time>
      </trkpt>
      <trkpt lat="28.7577170" lon="-17.8876430">
        <ele>2281.1</ele>
        <time>2020-11-16T13:32:27Z</time>
      </trkpt>
      <trkpt lat="28.7579120" lon="-17.8876830">
        <ele>2279.5</ele>
        <time>2020-11-16T13:32:28Z</time>
      </trkpt>
      <trkpt lat="28.7579120" lon="-17.8876830">
        <ele>2279.5</ele>
        <time>2020-11-16T13:32:29Z</time>
      </trkpt>
      <trkpt lat="28.7581170" lon="-17.8877870">
        <ele>2277.7</ele>
        <time>2020-11-16T13:32:30Z</time>
      </trkpt>
      <trkpt lat="28.7581170" lon="-17.8877870">
        <ele>2277.7</ele>
        <time>2020-11-16T13:32:31Z</time>
      </trkpt>
      <trkpt lat="28.7583080" lon="-17.8878630">
        <ele>2276.1</ele>
        <time>2020-11-16T13:32:32Z</time>
      </trkpt>
      <trkpt lat="28.7583080" lon="-17.8878630">
        <ele>2276.1</ele>
        <time>2020-11-16T13:32:33Z</time>
      </trkpt>
      <trkpt lat="28.7585020" lon="-17.8878420">
        <ele>2274.6</ele>
        <time>2020-11-16T13:32:34Z</time>
      </trkpt>
      <trkpt lat="28.7585020" lon="-17.8878420">
        <ele>2274.6</ele>
        <time>2020-11-16T13:32:35Z</time>
      </trkpt>
      <trkpt lat="28.7586680" lon="-17.8877180">
        <ele>2273.0</ele>
        <time>2020-11-16T13:32:36Z</time>
      </trkpt>
      <trkpt lat="28.7587320" lon="-17.8876300">
        <ele>2272.2</ele>
        <time>2020-11-16T13:32:37Z</time>
      </trkpt>
      <trkpt lat="28.7587880" lon="-17.8875320">
        <ele>2271.4</ele>
        <time>2020-11-16T13:32:38Z</time>
      </trkpt>
      <trkpt lat="28.7587880" lon="-17.8875320">
        <ele>2271.4</ele>
        <time>2020-11-16T13:32:39Z</time>
      </trkpt>
      <trkpt lat="28.7588970" lon="-17.8873170">
        <ele>2269.6</ele>
        <time>2020-11-16T13:32:40Z</time>
      </trkpt>
      <trkpt lat="28.7588970" lon="-17.8873170">
        <ele>2269.6</ele>
        <time>2020-11-16T13:32:41Z</time>
      </trkpt>
      <trkpt lat="28.7589900" lon="-17.8870920">
        <ele>2267.9</ele>
        <time>2020-11-16T13:32:42Z</time>
      </trkpt>
      <trkpt lat="28.7589900" lon="-17.8870920">
        <ele>2267.9</ele>
        <time>2020-11-16T13:32:43Z</time>
      </trkpt>
      <trkpt lat="28.7590680" lon="-17.8868620">
        <ele>2266.2</ele>
        <time>2020-11-16T13:32:44Z</time>
      </trkpt>
      <trkpt lat="28.7590680" lon="-17.8868620">
        <ele>2266.2</ele>
        <time>2020-11-16T13:32:45Z</time>
      </trkpt>
      <trkpt lat="28.7591380" lon="-17.8866430">
        <ele>2264.5</ele>
        <time>2020-11-16T13:32:46Z</time>
      </trkpt>
      <trkpt lat="28.7591380" lon="-17.8866430">
        <ele>2264.5</ele>
        <time>2020-11-16T13:32:47Z</time>
      </trkpt>
      <trkpt lat="28.7591850" lon="-17.8864150">
        <ele>2262.9</ele>
        <time>2020-11-16T13:32:48Z</time>
      </trkpt>
      <trkpt lat="28.7591850" lon="-17.8864150">
        <ele>2262.9</ele>
        <time>2020-11-16T13:32:49Z</time>
      </trkpt>
      <trkpt lat="28.7592320" lon="-17.8861620">
        <ele>2261.1</ele>
        <time>2020-11-16T13:32:50Z</time>
      </trkpt>
      <trkpt lat="28.7592320" lon="-17.8861620">
        <ele>2261.1</ele>
        <time>2020-11-16T13:32:51Z</time>
      </trkpt>
      <trkpt lat="28.7592930" lon="-17.8859130">
        <ele>2259.3</ele>
        <time>2020-11-16T13:32:52Z</time>
      </trkpt>
      <trkpt lat="28.7593170" lon="-17.8857950">
        <ele>2258.4</ele>
        <time>2020-11-16T13:32:53Z</time>
      </trkpt>
      <trkpt lat="28.7593170" lon="-17.8857950">
        <ele>2258.4</ele>
        <time>2020-11-16T13:32:54Z</time>
      </trkpt>
      <trkpt lat="28.7593870" lon="-17.8855820">
        <ele>2256.8</ele>
        <time>2020-11-16T13:32:55Z</time>
      </trkpt>
      <trkpt lat="28.7593870" lon="-17.8855820">
        <ele>2256.8</ele>
        <time>2020-11-16T13:32:56Z</time>
      </trkpt>
      <trkpt lat="28.7594920" lon="-17.8854000">
        <ele>2255.3</ele>
        <time>2020-11-16T13:32:57Z</time>
      </trkpt>
      <trkpt lat="28.7594920" lon="-17.8854000">
        <ele>2255.3</ele>
        <time>2020-11-16T13:32:58Z</time>
      </trkpt>
      <trkpt lat="28.7596470" lon="-17.8852550">
        <ele>2253.7</ele>
        <time>2020-11-16T13:32:59Z</time>
      </trkpt>
      <trkpt lat="28.7596470" lon="-17.8852550">
        <ele>2253.7</ele>
        <time>2020-11-16T13:33:00Z</time>
      </trkpt>
      <trkpt lat="28.7598400" lon="-17.8851700">
        <ele>2252.1</ele>
        <time>2020-11-16T13:33:01Z</time>
      </trkpt>
      <trkpt lat="28.7599400" lon="-17.8851750">
        <ele>2251.3</ele>
        <time>2020-11-16T13:33:02Z</time>
      </trkpt>
      <trkpt lat="28.7599400" lon="-17.8851750">
        <ele>2251.3</ele>
        <time>2020-11-16T13:33:03Z</time>
      </trkpt>
      <trkpt lat="28.7600850" lon="-17.8852870">
        <ele>2249.9</ele>
        <time>2020-11-16T13:33:04Z</time>
      </trkpt>
      <trkpt lat="28.7600850" lon="-17.8852870">
        <ele>2249.9</ele>
        <time>2020-11-16T13:33:05Z</time>
      </trkpt>
      <trkpt lat="28.7601380" lon="-17.8854620">
        <ele>2248.6</ele>
        <time>2020-11-16T13:33:06Z</time>
      </trkpt>
      <trkpt lat="28.7601380" lon="-17.8854620">
        <ele>2248.6</ele>
        <time>2020-11-16T13:33:07Z</time>
      </trkpt>
      <trkpt lat="28.7601980" lon="-17.8856370">
        <ele>2247.3</ele>
        <time>2020-11-16T13:33:08Z</time>
      </trkpt>
      <trkpt lat="28.7602400" lon="-17.8857200">
        <ele>2246.6</ele>
        <time>2020-11-16T13:33:09Z</time>
      </trkpt>
      <trkpt lat="28.7602400" lon="-17.8857200">
        <ele>2246.6</ele>
        <time>2020-11-16T13:33:10Z</time>
      </trkpt>
      <trkpt lat="28.7603300" lon="-17.8858770">
        <ele>2245.2</ele>
        <time>2020-11-16T13:33:11Z</time>
      </trkpt>
      <trkpt lat="28.7603300" lon="-17.8858770">
        <ele>2245.2</ele>
        <time>2020-11-16T13:33:12Z</time>
      </trkpt>
      <trkpt lat="28.7604330" lon="-17.8860350">
        <ele>2244.1</ele>
        <time>2020-11-16T13:33:13Z</time>
      </trkpt>
      <trkpt lat="28.7604880" lon="-17.8861150">
        <ele>2243.4</ele>
        <time>2020-11-16T13:33:14Z</time>
      </trkpt>
      <trkpt lat="28.7604880" lon="-17.8861150">
        <ele>2243.4</ele>
        <time>2020-11-16T13:33:15Z</time>
      </trkpt>
      <trkpt lat="28.7606080" lon="-17.8862870">
        <ele>2241.6</ele>
        <time>2020-11-16T13:33:16Z</time>
      </trkpt>
      <trkpt lat="28.7606830" lon="-17.8863600">
        <ele>2240.6</ele>
        <time>2020-11-16T13:33:17Z</time>
      </trkpt>
      <trkpt lat="28.7606830" lon="-17.8863600">
        <ele>2240.6</ele>
        <time>2020-11-16T13:33:18Z</time>
      </trkpt>
      <trkpt lat="28.7608570" lon="-17.8864580">
        <ele>2238.5</ele>
        <time>2020-11-16T13:33:19Z</time>
      </trkpt>
      <trkpt lat="28.7609350" lon="-17.8864920">
        <ele>2237.7</ele>
        <time>2020-11-16T13:33:20Z</time>
      </trkpt>
      <trkpt lat="28.7609350" lon="-17.8864920">
        <ele>2237.7</ele>
        <time>2020-11-16T13:33:21Z</time>
      </trkpt>
      <trkpt lat="28.7610870" lon="-17.8865730">
        <ele>2236.2</ele>
        <time>2020-11-16T13:33:22Z</time>
      </trkpt>
      <trkpt lat="28.7611650" lon="-17.8866250">
        <ele>2235.5</ele>
        <time>2020-11-16T13:33:23Z</time>
      </trkpt>
      <trkpt lat="28.7611650" lon="-17.8866250">
        <ele>2235.5</ele>
        <time>2020-11-16T13:33:24Z</time>
      </trkpt>
      <trkpt lat="28.7613370" lon="-17.8867150">
        <ele>2234.1</ele>
        <time>2020-11-16T13:33:25Z</time>
      </trkpt>
      <trkpt lat="28.7614220" lon="-17.8867470">
        <ele>2233.4</ele>
        <time>2020-11-16T13:33:26Z</time>
      </trkpt>
      <trkpt lat="28.7614220" lon="-17.8867470">
        <ele>2233.4</ele>
        <time>2020-11-16T13:33:27Z</time>
      </trkpt>
      <trkpt lat="28.7615820" lon="-17.8867550">
        <ele>2232.3</ele>
        <time>2020-11-16T13:33:28Z</time>
      </trkpt>
      <trkpt lat="28.7615820" lon="-17.8867550">
        <ele>2232.3</ele>
        <time>2020-11-16T13:33:29Z</time>
      </trkpt>
      <trkpt lat="28.7617300" lon="-17.8866600">
        <ele>2231.0</ele>
        <time>2020-11-16T13:33:30Z</time>
      </trkpt>
      <trkpt lat="28.7617300" lon="-17.8866600">
        <ele>2231.0</ele>
        <time>2020-11-16T13:33:31Z</time>
      </trkpt>
      <trkpt lat="28.7618730" lon="-17.8865200">
        <ele>2229.6</ele>
        <time>2020-11-16T13:33:32Z</time>
      </trkpt>
      <trkpt lat="28.7618730" lon="-17.8865200">
        <ele>2229.6</ele>
        <time>2020-11-16T13:33:33Z</time>
      </trkpt>
      <trkpt lat="28.7620180" lon="-17.8863480">
        <ele>2228.1</ele>
        <time>2020-11-16T13:33:34Z</time>
      </trkpt>
      <trkpt lat="28.7620930" lon="-17.8862650">
        <ele>2227.3</ele>
        <time>2020-11-16T13:33:35Z</time>
      </trkpt>
      <trkpt lat="28.7621680" lon="-17.8861920">
        <ele>2226.6</ele>
        <time>2020-11-16T13:33:36Z</time>
      </trkpt>
      <trkpt lat="28.7621680" lon="-17.8861920">
        <ele>2226.6</ele>
        <time>2020-11-16T13:33:37Z</time>
      </trkpt>
      <trkpt lat="28.7623230" lon="-17.8861130">
        <ele>2225.3</ele>
        <time>2020-11-16T13:33:38Z</time>
      </trkpt>
      <trkpt lat="28.7623230" lon="-17.8861130">
        <ele>2225.3</ele>
        <time>2020-11-16T13:33:39Z</time>
      </trkpt>
      <trkpt lat="28.7624650" lon="-17.8861550">
        <ele>2224.2</ele>
        <time>2020-11-16T13:33:40Z</time>
      </trkpt>
      <trkpt lat="28.7625220" lon="-17.8862170">
        <ele>2223.6</ele>
        <time>2020-11-16T13:33:41Z</time>
      </trkpt>
      <trkpt lat="28.7625220" lon="-17.8862170">
        <ele>2223.6</ele>
        <time>2020-11-16T13:33:42Z</time>
      </trkpt>
      <trkpt lat="28.7625670" lon="-17.8863870">
        <ele>2222.5</ele>
        <time>2020-11-16T13:33:43Z</time>
      </trkpt>
      <trkpt lat="28.7625570" lon="-17.8864820">
        <ele>2221.9</ele>
        <time>2020-11-16T13:33:44Z</time>
      </trkpt>
      <trkpt lat="28.7625570" lon="-17.8864820">
        <ele>2221.9</ele>
        <time>2020-11-16T13:33:45Z</time>
      </trkpt>
      <trkpt lat="28.7625200" lon="-17.8866850">
        <ele>2220.5</ele>
        <time>2020-11-16T13:33:46Z</time>
      </trkpt>
      <trkpt lat="28.7625050" lon="-17.8867920">
        <ele>2219.8</ele>
        <time>2020-11-16T13:33:47Z</time>
      </trkpt>
      <trkpt lat="28.7625050" lon="-17.8867920">
        <ele>2219.8</ele>
        <time>2020-11-16T13:33:48Z</time>
      </trkpt>
      <trkpt lat="28.7624830" lon="-17.8870120">
        <ele>2218.4</ele>
        <time>2020-11-16T13:33:49Z</time>
      </trkpt>
      <trkpt lat="28.7624830" lon="-17.8870120">
        <ele>2218.4</ele>
        <time>2020-11-16T13:33:50Z</time>
      </trkpt>
      <trkpt lat="28.7624630" lon="-17.8872320">
        <ele>2217.0</ele>
        <time>2020-11-16T13:33:51Z</time>
      </trkpt>
      <trkpt lat="28.7624630" lon="-17.8872320">
        <ele>2217.0</ele>
        <time>2020-11-16T13:33:52Z</time>
      </trkpt>
      <trkpt lat="28.7624400" lon="-17.8874520">
        <ele>2215.5</ele>
        <time>2020-11-16T13:33:53Z</time>
      </trkpt>
      <trkpt lat="28.7624400" lon="-17.8874520">
        <ele>2215.5</ele>
        <time>2020-11-16T13:33:54Z</time>
      </trkpt>
      <trkpt lat="28.7624030" lon="-17.8876720">
        <ele>2214.1</ele>
        <time>2020-11-16T13:33:55Z</time>
      </trkpt>
      <trkpt lat="28.7623820" lon="-17.8877830">
        <ele>2213.3</ele>
        <time>2020-11-16T13:33:56Z</time>
      </trkpt>
      <trkpt lat="28.7623820" lon="-17.8877830">
        <ele>2213.3</ele>
        <time>2020-11-16T13:33:57Z</time>
      </trkpt>
      <trkpt lat="28.7623370" lon="-17.8880030">
        <ele>2211.9</ele>
        <time>2020-11-16T13:33:58Z</time>
      </trkpt>
      <trkpt lat="28.7623030" lon="-17.8881080">
        <ele>2211.2</ele>
        <time>2020-11-16T13:33:59Z</time>
      </trkpt>
      <trkpt lat="28.7623030" lon="-17.8881080">
        <ele>2211.2</ele>
        <time>2020-11-16T13:34:00Z</time>
      </trkpt>
      <trkpt lat="28.7621900" lon="-17.8882930">
        <ele>2209.7</ele>
        <time>2020-11-16T13:34:01Z</time>
      </trkpt>
      <trkpt lat="28.7621900" lon="-17.8882930">
        <ele>2209.7</ele>
        <time>2020-11-16T13:34:02Z</time>
      </trkpt>
      <trkpt lat="28.7620250" lon="-17.8884300">
        <ele>2208.2</ele>
        <time>2020-11-16T13:34:03Z</time>
      </trkpt>
      <trkpt lat="28.7620250" lon="-17.8884300">
        <ele>2208.2</ele>
        <time>2020-11-16T13:34:04Z</time>
      </trkpt>
      <trkpt lat="28.7618330" lon="-17.8885130">
        <ele>2206.7</ele>
        <time>2020-11-16T13:34:05Z</time>
      </trkpt>
      <trkpt lat="28.7618330" lon="-17.8885130">
        <ele>2206.7</ele>
        <time>2020-11-16T13:34:06Z</time>
      </trkpt>
      <trkpt lat="28.7616280" lon="-17.8885220">
        <ele>2205.1</ele>
        <time>2020-11-16T13:34:07Z</time>
      </trkpt>
      <trkpt lat="28.7615230" lon="-17.8885070">
        <ele>2204.4</ele>
        <time>2020-11-16T13:34:08Z</time>
      </trkpt>
      <trkpt lat="28.7615230" lon="-17.8885070">
        <ele>2204.4</ele>
        <time>2020-11-16T13:34:09Z</time>
      </trkpt>
      <trkpt lat="28.7613270" lon="-17.8884780">
        <ele>2202.9</ele>
        <time>2020-11-16T13:34:10Z</time>
      </trkpt>
      <trkpt lat="28.7613270" lon="-17.8884780">
        <ele>2202.9</ele>
        <time>2020-11-16T13:34:11Z</time>
      </trkpt>
      <trkpt lat="28.7611650" lon="-17.8885200">
        <ele>2201.7</ele>
        <time>2020-11-16T13:34:12Z</time>
      </trkpt>
      <trkpt lat="28.7611080" lon="-17.8885830">
        <ele>2201.1</ele>
        <time>2020-11-16T13:34:13Z</time>
      </trkpt>
      <trkpt lat="28.7610680" lon="-17.8886650">
        <ele>2200.5</ele>
        <time>2020-11-16T13:34:14Z</time>
      </trkpt>
      <trkpt lat="28.7610680" lon="-17.8886650">
        <ele>2200.5</ele>
        <time>2020-11-16T13:34:15Z</time>
      </trkpt>
      <trkpt lat="28.7610680" lon="-17.8886650">
        <ele>2200.5</ele>
        <time>2020-11-16T13:34:16Z</time>
      </trkpt>
      <trkpt lat="28.7610700" lon="-17.8888280">
        <ele>2199.4</ele>
        <time>2020-11-16T13:34:17Z</time>
      </trkpt>
      <trkpt lat="28.7611220" lon="-17.8889820">
        <ele>2198.4</ele>
        <time>2020-11-16T13:34:18Z</time>
      </trkpt>
      <trkpt lat="28.7611520" lon="-17.8890550">
        <ele>2197.8</ele>
        <time>2020-11-16T13:34:19Z</time>
      </trkpt>
      <trkpt lat="28.7611820" lon="-17.8891280">
        <ele>2197.3</ele>
        <time>2020-11-16T13:34:20Z</time>
      </trkpt>
      <trkpt lat="28.7611820" lon="-17.8891280">
        <ele>2197.3</ele>
        <time>2020-11-16T13:34:21Z</time>
      </trkpt>
      <trkpt lat="28.7612320" lon="-17.8892870">
        <ele>2196.2</ele>
        <time>2020-11-16T13:34:22Z</time>
      </trkpt>
      <trkpt lat="28.7612320" lon="-17.8892870">
        <ele>2196.2</ele>
        <time>2020-11-16T13:34:23Z</time>
      </trkpt>
      <trkpt lat="28.7612580" lon="-17.8894620">
        <ele>2195.1</ele>
        <time>2020-11-16T13:34:24Z</time>
      </trkpt>
      <trkpt lat="28.7612580" lon="-17.8894620">
        <ele>2195.1</ele>
        <time>2020-11-16T13:34:25Z</time>
      </trkpt>
      <trkpt lat="28.7612600" lon="-17.8896580">
        <ele>2193.8</ele>
        <time>2020-11-16T13:34:26Z</time>
      </trkpt>
      <trkpt lat="28.7612600" lon="-17.8896580">
        <ele>2193.8</ele>
        <time>2020-11-16T13:34:27Z</time>
      </trkpt>
      <trkpt lat="28.7612150" lon="-17.8898620">
        <ele>2192.4</ele>
        <time>2020-11-16T13:34:28Z</time>
      </trkpt>
      <trkpt lat="28.7612150" lon="-17.8898620">
        <ele>2192.4</ele>
        <time>2020-11-16T13:34:29Z</time>
      </trkpt>
      <trkpt lat="28.7611250" lon="-17.8900580">
        <ele>2191.0</ele>
        <time>2020-11-16T13:34:30Z</time>
      </trkpt>
      <trkpt lat="28.7611250" lon="-17.8900580">
        <ele>2191.0</ele>
        <time>2020-11-16T13:34:31Z</time>
      </trkpt>
      <trkpt lat="28.7610120" lon="-17.8902530">
        <ele>2189.5</ele>
        <time>2020-11-16T13:34:32Z</time>
      </trkpt>
      <trkpt lat="28.7610120" lon="-17.8902530">
        <ele>2189.5</ele>
        <time>2020-11-16T13:34:33Z</time>
      </trkpt>
      <trkpt lat="28.7609070" lon="-17.8904600">
        <ele>2187.9</ele>
        <time>2020-11-16T13:34:34Z</time>
      </trkpt>
      <trkpt lat="28.7608620" lon="-17.8905730">
        <ele>2187.1</ele>
        <time>2020-11-16T13:34:35Z</time>
      </trkpt>
      <trkpt lat="28.7608620" lon="-17.8905730">
        <ele>2187.1</ele>
        <time>2020-11-16T13:34:36Z</time>
      </trkpt>
      <trkpt lat="28.7607850" lon="-17.8907830">
        <ele>2185.7</ele>
        <time>2020-11-16T13:34:37Z</time>
      </trkpt>
      <trkpt lat="28.7607520" lon="-17.8908800">
        <ele>2185.0</ele>
        <time>2020-11-16T13:34:38Z</time>
      </trkpt>
      <trkpt lat="28.7607520" lon="-17.8908800">
        <ele>2185.0</ele>
        <time>2020-11-16T13:34:39Z</time>
      </trkpt>
      <trkpt lat="28.7607080" lon="-17.8910570">
        <ele>2183.8</ele>
        <time>2020-11-16T13:34:40Z</time>
      </trkpt>
      <trkpt lat="28.7607080" lon="-17.8910570">
        <ele>2183.8</ele>
        <time>2020-11-16T13:34:41Z</time>
      </trkpt>
      <trkpt lat="28.7607470" lon="-17.8912280">
        <ele>2182.6</ele>
        <time>2020-11-16T13:34:42Z</time>
      </trkpt>
      <trkpt lat="28.7607470" lon="-17.8912280">
        <ele>2182.6</ele>
        <time>2020-11-16T13:34:43Z</time>
      </trkpt>
      <trkpt lat="28.7608700" lon="-17.8913780">
        <ele>2181.3</ele>
        <time>2020-11-16T13:34:44Z</time>
      </trkpt>
      <trkpt lat="28.7608700" lon="-17.8913780">
        <ele>2181.3</ele>
        <time>2020-11-16T13:34:45Z</time>
      </trkpt>
      <trkpt lat="28.7610270" lon="-17.8915120">
        <ele>2179.9</ele>
        <time>2020-11-16T13:34:46Z</time>
      </trkpt>
      <trkpt lat="28.7610270" lon="-17.8915120">
        <ele>2179.9</ele>
        <time>2020-11-16T13:34:47Z</time>
      </trkpt>
      <trkpt lat="28.7611950" lon="-17.8916520">
        <ele>2178.3</ele>
        <time>2020-11-16T13:34:48Z</time>
      </trkpt>
      <trkpt lat="28.7611950" lon="-17.8916520">
        <ele>2178.3</ele>
        <time>2020-11-16T13:34:49Z</time>
      </trkpt>
      <trkpt lat="28.7613720" lon="-17.8918070">
        <ele>2176.7</ele>
        <time>2020-11-16T13:34:50Z</time>
      </trkpt>
      <trkpt lat="28.7613720" lon="-17.8918070">
        <ele>2176.7</ele>
        <time>2020-11-16T13:34:51Z</time>
      </trkpt>
      <trkpt lat="28.7615570" lon="-17.8919620">
        <ele>2175.3</ele>
        <time>2020-11-16T13:34:52Z</time>
      </trkpt>
      <trkpt lat="28.7616520" lon="-17.8920450">
        <ele>2174.0</ele>
        <time>2020-11-16T13:34:53Z</time>
      </trkpt>
      <trkpt lat="28.7616520" lon="-17.8920450">
        <ele>2174.0</ele>
        <time>2020-11-16T13:34:54Z</time>
      </trkpt>
      <trkpt lat="28.7618500" lon="-17.8922170">
        <ele>2172.0</ele>
        <time>2020-11-16T13:34:55Z</time>
      </trkpt>
      <trkpt lat="28.7618500" lon="-17.8922170">
        <ele>2172.0</ele>
        <time>2020-11-16T13:34:56Z</time>
      </trkpt>
      <trkpt lat="28.7620500" lon="-17.8923870">
        <ele>2169.5</ele>
        <time>2020-11-16T13:34:57Z</time>
      </trkpt>
      <trkpt lat="28.7620500" lon="-17.8923870">
        <ele>2169.5</ele>
        <time>2020-11-16T13:34:58Z</time>
      </trkpt>
      <trkpt lat="28.7622500" lon="-17.8925550">
        <ele>2166.9</ele>
        <time>2020-11-16T13:34:59Z</time>
      </trkpt>
      <trkpt lat="28.7622500" lon="-17.8925550">
        <ele>2166.9</ele>
        <time>2020-11-16T13:35:00Z</time>
      </trkpt>
      <trkpt lat="28.7624330" lon="-17.8927130">
        <ele>2165.5</ele>
        <time>2020-11-16T13:35:01Z</time>
      </trkpt>
      <trkpt lat="28.7624330" lon="-17.8927130">
        <ele>2165.5</ele>
        <time>2020-11-16T13:35:02Z</time>
      </trkpt>
      <trkpt lat="28.7625830" lon="-17.8928480">
        <ele>2164.4</ele>
        <time>2020-11-16T13:35:03Z</time>
      </trkpt>
      <trkpt lat="28.7625830" lon="-17.8928480">
        <ele>2164.4</ele>
        <time>2020-11-16T13:35:04Z</time>
      </trkpt>
      <trkpt lat="28.7626900" lon="-17.8929830">
        <ele>2163.4</ele>
        <time>2020-11-16T13:35:05Z</time>
      </trkpt>
      <trkpt lat="28.7626900" lon="-17.8929830">
        <ele>2163.4</ele>
        <time>2020-11-16T13:35:06Z</time>
      </trkpt>
      <trkpt lat="28.7627400" lon="-17.8931500">
        <ele>2162.3</ele>
        <time>2020-11-16T13:35:07Z</time>
      </trkpt>
      <trkpt lat="28.7627400" lon="-17.8931500">
        <ele>2162.3</ele>
        <time>2020-11-16T13:35:08Z</time>
      </trkpt>
      <trkpt lat="28.7627550" lon="-17.8933430">
        <ele>2160.9</ele>
        <time>2020-11-16T13:35:09Z</time>
      </trkpt>
      <trkpt lat="28.7627550" lon="-17.8933430">
        <ele>2160.9</ele>
        <time>2020-11-16T13:35:10Z</time>
      </trkpt>
      <trkpt lat="28.7627650" lon="-17.8935550">
        <ele>2159.7</ele>
        <time>2020-11-16T13:35:11Z</time>
      </trkpt>
      <trkpt lat="28.7627650" lon="-17.8935550">
        <ele>2159.7</ele>
        <time>2020-11-16T13:35:12Z</time>
      </trkpt>
      <trkpt lat="28.7627770" lon="-17.8937800">
        <ele>2158.7</ele>
        <time>2020-11-16T13:35:13Z</time>
      </trkpt>
      <trkpt lat="28.7627770" lon="-17.8937800">
        <ele>2158.7</ele>
        <time>2020-11-16T13:35:14Z</time>
      </trkpt>
      <trkpt lat="28.7627980" lon="-17.8939820">
        <ele>2157.7</ele>
        <time>2020-11-16T13:35:15Z</time>
      </trkpt>
      <trkpt lat="28.7627980" lon="-17.8939820">
        <ele>2157.7</ele>
        <time>2020-11-16T13:35:16Z</time>
      </trkpt>
      <trkpt lat="28.7628900" lon="-17.8941300">
        <ele>2156.5</ele>
        <time>2020-11-16T13:35:17Z</time>
      </trkpt>
      <trkpt lat="28.7628900" lon="-17.8941300">
        <ele>2156.5</ele>
        <time>2020-11-16T13:35:18Z</time>
      </trkpt>
      <trkpt lat="28.7630420" lon="-17.8942170">
        <ele>2155.0</ele>
        <time>2020-11-16T13:35:19Z</time>
      </trkpt>
      <trkpt lat="28.7630420" lon="-17.8942170">
        <ele>2155.0</ele>
        <time>2020-11-16T13:35:20Z</time>
      </trkpt>
      <trkpt lat="28.7632180" lon="-17.8942600">
        <ele>2153.6</ele>
        <time>2020-11-16T13:35:21Z</time>
      </trkpt>
      <trkpt lat="28.7632180" lon="-17.8942600">
        <ele>2153.6</ele>
        <time>2020-11-16T13:35:22Z</time>
      </trkpt>
      <trkpt lat="28.7634080" lon="-17.8942900">
        <ele>2152.4</ele>
        <time>2020-11-16T13:35:23Z</time>
      </trkpt>
      <trkpt lat="28.7634080" lon="-17.8942900">
        <ele>2152.4</ele>
        <time>2020-11-16T13:35:24Z</time>
      </trkpt>
      <trkpt lat="28.7636000" lon="-17.8943070">
        <ele>2151.2</ele>
        <time>2020-11-16T13:35:25Z</time>
      </trkpt>
      <trkpt lat="28.7636920" lon="-17.8943150">
        <ele>2150.5</ele>
        <time>2020-11-16T13:35:26Z</time>
      </trkpt>
      <trkpt lat="28.7636920" lon="-17.8943150">
        <ele>2150.5</ele>
        <time>2020-11-16T13:35:27Z</time>
      </trkpt>
      <trkpt lat="28.7638600" lon="-17.8943270">
        <ele>2148.7</ele>
        <time>2020-11-16T13:35:28Z</time>
      </trkpt>
      <trkpt lat="28.7638600" lon="-17.8943270">
        <ele>2148.7</ele>
        <time>2020-11-16T13:35:29Z</time>
      </trkpt>
      <trkpt lat="28.7640100" lon="-17.8942950">
        <ele>2147.7</ele>
        <time>2020-11-16T13:35:30Z</time>
      </trkpt>
      <trkpt lat="28.7640100" lon="-17.8942950">
        <ele>2147.7</ele>
        <time>2020-11-16T13:35:31Z</time>
      </trkpt>
      <trkpt lat="28.7641580" lon="-17.8942280">
        <ele>2146.3</ele>
        <time>2020-11-16T13:35:32Z</time>
      </trkpt>
      <trkpt lat="28.7641580" lon="-17.8942280">
        <ele>2146.3</ele>
        <time>2020-11-16T13:35:33Z</time>
      </trkpt>
      <trkpt lat="28.7642950" lon="-17.8941050">
        <ele>2144.5</ele>
        <time>2020-11-16T13:35:34Z</time>
      </trkpt>
      <trkpt lat="28.7643600" lon="-17.8940320">
        <ele>2143.7</ele>
        <time>2020-11-16T13:35:35Z</time>
      </trkpt>
      <trkpt lat="28.7643600" lon="-17.8940320">
        <ele>2143.7</ele>
        <time>2020-11-16T13:35:36Z</time>
      </trkpt>
      <trkpt lat="28.7644950" lon="-17.8938800">
        <ele>2142.1</ele>
        <time>2020-11-16T13:35:37Z</time>
      </trkpt>
      <trkpt lat="28.7645680" lon="-17.8938080">
        <ele>2141.5</ele>
        <time>2020-11-16T13:35:38Z</time>
      </trkpt>
      <trkpt lat="28.7645680" lon="-17.8938080">
        <ele>2141.5</ele>
        <time>2020-11-16T13:35:39Z</time>
      </trkpt>
      <trkpt lat="28.7647180" lon="-17.8936800">
        <ele>2139.6</ele>
        <time>2020-11-16T13:35:40Z</time>
      </trkpt>
      <trkpt lat="28.7647180" lon="-17.8936800">
        <ele>2139.6</ele>
        <time>2020-11-16T13:35:41Z</time>
      </trkpt>
      <trkpt lat="28.7648030" lon="-17.8935300">
        <ele>2139.6</ele>
        <time>2020-11-16T13:35:42Z</time>
      </trkpt>
      <trkpt lat="28.7648030" lon="-17.8935300">
        <ele>2139.6</ele>
        <time>2020-11-16T13:35:43Z</time>
      </trkpt>
      <trkpt lat="28.7647780" lon="-17.8933970">
        <ele>2140.4</ele>
        <time>2020-11-16T13:35:44Z</time>
      </trkpt>
      <trkpt lat="28.7647780" lon="-17.8933970">
        <ele>2140.4</ele>
        <time>2020-11-16T13:35:45Z</time>
      </trkpt>
      <trkpt lat="28.7647150" lon="-17.8933050">
        <ele>2141.1</ele>
        <time>2020-11-16T13:35:46Z</time>
      </trkpt>
      <trkpt lat="28.7647150" lon="-17.8933050">
        <ele>2141.1</ele>
        <time>2020-11-16T13:35:47Z</time>
      </trkpt>
      <trkpt lat="28.7646680" lon="-17.8932250">
        <ele>2141.7</ele>
        <time>2020-11-16T13:35:48Z</time>
      </trkpt>
      <trkpt lat="28.7646680" lon="-17.8932250">
        <ele>2141.7</ele>
        <time>2020-11-16T13:35:49Z</time>
      </trkpt>
      <trkpt lat="28.7646280" lon="-17.8931570">
        <ele>2142.2</ele>
        <time>2020-11-16T13:35:50Z</time>
      </trkpt>
      <trkpt lat="28.7646280" lon="-17.8931570">
        <ele>2142.2</ele>
        <time>2020-11-16T13:35:51Z</time>
      </trkpt>
      <trkpt lat="28.7645880" lon="-17.8930870">
        <ele>2142.7</ele>
        <time>2020-11-16T13:35:52Z</time>
      </trkpt>
      <trkpt lat="28.7645880" lon="-17.8930870">
        <ele>2142.7</ele>
        <time>2020-11-16T13:35:53Z</time>
      </trkpt>
      <trkpt lat="28.7645550" lon="-17.8930200">
        <ele>2143.1</ele>
        <time>2020-11-16T13:35:54Z</time>
      </trkpt>
      <trkpt lat="28.7645550" lon="-17.8930200">
        <ele>2143.1</ele>
        <time>2020-11-16T13:35:55Z</time>
      </trkpt>
      <trkpt lat="28.7645230" lon="-17.8929700">
        <ele>2143.5</ele>
        <time>2020-11-16T13:35:56Z</time>
      </trkpt>
      <trkpt lat="28.7645230" lon="-17.8929700">
        <ele>2143.5</ele>
        <time>2020-11-16T13:35:57Z</time>
      </trkpt>
      <trkpt lat="28.7644880" lon="-17.8929170">
        <ele>2143.9</ele>
        <time>2020-11-16T13:35:58Z</time>
      </trkpt>
      <trkpt lat="28.7644880" lon="-17.8929170">
        <ele>2143.9</ele>
        <time>2020-11-16T13:35:59Z</time>
      </trkpt>
      <trkpt lat="28.7644550" lon="-17.8928620">
        <ele>2144.2</ele>
        <time>2020-11-16T13:36:00Z</time>
      </trkpt>
      <trkpt lat="28.7644550" lon="-17.8928620">
        <ele>2144.2</ele>
        <time>2020-11-16T13:36:01Z</time>
      </trkpt>
      <trkpt lat="28.7644250" lon="-17.8928130">
        <ele>2144.6</ele>
        <time>2020-11-16T13:36:02Z</time>
      </trkpt>
      <trkpt lat="28.7644250" lon="-17.8928130">
        <ele>2144.6</ele>
        <time>2020-11-16T13:36:03Z</time>
      </trkpt>
      <trkpt lat="28.7643930" lon="-17.8927680">
        <ele>2144.9</ele>
        <time>2020-11-16T13:36:04Z</time>
      </trkpt>
      <trkpt lat="28.7643930" lon="-17.8927680">
        <ele>2144.9</ele>
        <time>2020-11-16T13:36:05Z</time>
      </trkpt>
      <trkpt lat="28.7643620" lon="-17.8927270">
        <ele>2145.3</ele>
        <time>2020-11-16T13:36:06Z</time>
      </trkpt>
      <trkpt lat="28.7643620" lon="-17.8927270">
        <ele>2145.3</ele>
        <time>2020-11-16T13:36:07Z</time>
      </trkpt>
      <trkpt lat="28.7643270" lon="-17.8926920">
        <ele>2145.6</ele>
        <time>2020-11-16T13:36:08Z</time>
      </trkpt>
      <trkpt lat="28.7643270" lon="-17.8926920">
        <ele>2145.6</ele>
        <time>2020-11-16T13:36:09Z</time>
      </trkpt>
      <trkpt lat="28.7642950" lon="-17.8926530">
        <ele>2145.9</ele>
        <time>2020-11-16T13:36:10Z</time>
      </trkpt>
      <trkpt lat="28.7642950" lon="-17.8926530">
        <ele>2145.9</ele>
        <time>2020-11-16T13:36:11Z</time>
      </trkpt>
      <trkpt lat="28.7642620" lon="-17.8926180">
        <ele>2146.2</ele>
        <time>2020-11-16T13:36:12Z</time>
      </trkpt>
      <trkpt lat="28.7642620" lon="-17.8926180">
        <ele>2146.2</ele>
        <time>2020-11-16T13:36:13Z</time>
      </trkpt>
      <trkpt lat="28.7642300" lon="-17.8925820">
        <ele>2146.5</ele>
        <time>2020-11-16T13:36:14Z</time>
      </trkpt>
      <trkpt lat="28.7642300" lon="-17.8925820">
        <ele>2146.5</ele>
        <time>2020-11-16T13:36:15Z</time>
      </trkpt>
      <trkpt lat="28.7642000" lon="-17.8925480">
        <ele>2146.8</ele>
        <time>2020-11-16T13:36:16Z</time>
      </trkpt>
      <trkpt lat="28.7642000" lon="-17.8925480">
        <ele>2146.8</ele>
        <time>2020-11-16T13:36:17Z</time>
      </trkpt>
      <trkpt lat="28.7641680" lon="-17.8925130">
        <ele>2147.1</ele>
        <time>2020-11-16T13:36:18Z</time>
      </trkpt>
      <trkpt lat="28.7641680" lon="-17.8925130">
        <ele>2147.1</ele>
        <time>2020-11-16T13:36:19Z</time>
      </trkpt>
      <trkpt lat="28.7641400" lon="-17.8924780">
        <ele>2147.3</ele>
        <time>2020-11-16T13:36:20Z</time>
      </trkpt>
      <trkpt lat="28.7641400" lon="-17.8924780">
        <ele>2147.3</ele>
        <time>2020-11-16T13:36:21Z</time>
      </trkpt>
      <trkpt lat="28.7641100" lon="-17.8924470">
        <ele>2147.6</ele>
        <time>2020-11-16T13:36:22Z</time>
      </trkpt>
      <trkpt lat="28.7641100" lon="-17.8924470">
        <ele>2147.6</ele>
        <time>2020-11-16T13:36:23Z</time>
      </trkpt>
      <trkpt lat="28.7640780" lon="-17.8924170">
        <ele>2147.9</ele>
        <time>2020-11-16T13:36:24Z</time>
      </trkpt>
      <trkpt lat="28.7640650" lon="-17.8924000">
        <ele>2148.0</ele>
        <time>2020-11-16T13:36:25Z</time>
      </trkpt>
      <trkpt lat="28.7640650" lon="-17.8924000">
        <ele>2148.0</ele>
        <time>2020-11-16T13:36:26Z</time>
      </trkpt>
      <trkpt lat="28.7640370" lon="-17.8923680">
        <ele>2148.3</ele>
        <time>2020-11-16T13:36:27Z</time>
      </trkpt>
      <trkpt lat="28.7640370" lon="-17.8923680">
        <ele>2148.3</ele>
        <time>2020-11-16T13:36:28Z</time>
      </trkpt>
      <trkpt lat="28.7640050" lon="-17.8923370">
        <ele>2148.6</ele>
        <time>2020-11-16T13:36:29Z</time>
      </trkpt>
      <trkpt lat="28.7639920" lon="-17.8923200">
        <ele>2148.7</ele>
        <time>2020-11-16T13:36:30Z</time>
      </trkpt>
      <trkpt lat="28.7639920" lon="-17.8923200">
        <ele>2148.7</ele>
        <time>2020-11-16T13:36:31Z</time>
      </trkpt>
      <trkpt lat="28.7639630" lon="-17.8922870">
        <ele>2149.0</ele>
        <time>2020-11-16T13:36:32Z</time>
      </trkpt>
      <trkpt lat="28.7639630" lon="-17.8922870">
        <ele>2149.0</ele>
        <time>2020-11-16T13:36:33Z</time>
      </trkpt>
      <trkpt lat="28.7639350" lon="-17.8922530">
        <ele>2149.2</ele>
        <time>2020-11-16T13:36:34Z</time>
      </trkpt>
      <trkpt lat="28.7639200" lon="-17.8922370">
        <ele>2149.4</ele>
        <time>2020-11-16T13:36:35Z</time>
      </trkpt>
      <trkpt lat="28.7639070" lon="-17.8922200">
        <ele>2149.5</ele>
        <time>2020-11-16T13:36:36Z</time>
      </trkpt>
      <trkpt lat="28.7639070" lon="-17.8922200">
        <ele>2149.5</ele>
        <time>2020-11-16T13:36:37Z</time>
      </trkpt>
      <trkpt lat="28.7638780" lon="-17.8921880">
        <ele>2149.8</ele>
        <time>2020-11-16T13:36:38Z</time>
      </trkpt>
      <trkpt lat="28.7638780" lon="-17.8921880">
        <ele>2149.8</ele>
        <time>2020-11-16T13:36:39Z</time>
      </trkpt>
      <trkpt lat="28.7638470" lon="-17.8921550">
        <ele>2150.1</ele>
        <time>2020-11-16T13:36:40Z</time>
      </trkpt>
      <trkpt lat="28.7638320" lon="-17.8921350">
        <ele>2150.2</ele>
        <time>2020-11-16T13:36:41Z</time>
      </trkpt>
      <trkpt lat="28.7638320" lon="-17.8921350">
        <ele>2150.2</ele>
        <time>2020-11-16T13:36:42Z</time>
      </trkpt>
      <trkpt lat="28.7638070" lon="-17.8920950">
        <ele>2150.5</ele>
        <time>2020-11-16T13:36:43Z</time>
      </trkpt>
      <trkpt lat="28.7637920" lon="-17.8920770">
        <ele>2150.7</ele>
        <time>2020-11-16T13:36:44Z</time>
      </trkpt>
      <trkpt lat="28.7637920" lon="-17.8920770">
        <ele>2150.7</ele>
        <time>2020-11-16T13:36:45Z</time>
      </trkpt>
      <trkpt lat="28.7637620" lon="-17.8920470">
        <ele>2150.9</ele>
        <time>2020-11-16T13:36:46Z</time>
      </trkpt>
      <trkpt lat="28.7637620" lon="-17.8920470">
        <ele>2150.9</ele>
        <time>2020-11-16T13:36:47Z</time>
      </trkpt>
      <trkpt lat="28.7637330" lon="-17.8920120">
        <ele>2151.2</ele>
        <time>2020-11-16T13:36:48Z</time>
      </trkpt>
      <trkpt lat="28.7637330" lon="-17.8920120">
        <ele>2151.2</ele>
        <time>2020-11-16T13:36:49Z</time>
      </trkpt>
      <trkpt lat="28.7637070" lon="-17.8919750">
        <ele>2151.5</ele>
        <time>2020-11-16T13:36:50Z</time>
      </trkpt>
      <trkpt lat="28.7637070" lon="-17.8919750">
        <ele>2151.5</ele>
        <time>2020-11-16T13:36:51Z</time>
      </trkpt>
      <trkpt lat="28.7636780" lon="-17.8919380">
        <ele>2151.8</ele>
        <time>2020-11-16T13:36:52Z</time>
      </trkpt>
      <trkpt lat="28.7636630" lon="-17.8919230">
        <ele>2151.9</ele>
        <time>2020-11-16T13:36:53Z</time>
      </trkpt>
      <trkpt lat="28.7636630" lon="-17.8919230">
        <ele>2151.9</ele>
        <time>2020-11-16T13:36:54Z</time>
      </trkpt>
      <trkpt lat="28.7636350" lon="-17.8918870">
        <ele>2152.2</ele>
        <time>2020-11-16T13:36:55Z</time>
      </trkpt>
      <trkpt lat="28.7636350" lon="-17.8918870">
        <ele>2152.2</ele>
        <time>2020-11-16T13:36:56Z</time>
      </trkpt>
      <trkpt lat="28.7636050" lon="-17.8918500">
        <ele>2152.5</ele>
        <time>2020-11-16T13:36:57Z</time>
      </trkpt>
      <trkpt lat="28.7636050" lon="-17.8918500">
        <ele>2152.5</ele>
        <time>2020-11-16T13:36:58Z</time>
      </trkpt>
      <trkpt lat="28.7635780" lon="-17.8918170">
        <ele>2152.8</ele>
        <time>2020-11-16T13:36:59Z</time>
      </trkpt>
      <trkpt lat="28.7635650" lon="-17.8918000">
        <ele>2152.9</ele>
        <time>2020-11-16T13:37:00Z</time>
      </trkpt>
      <trkpt lat="28.7635650" lon="-17.8918000">
        <ele>2152.9</ele>
        <time>2020-11-16T13:37:01Z</time>
      </trkpt>
      <trkpt lat="28.7635370" lon="-17.8917620">
        <ele>2153.2</ele>
        <time>2020-11-16T13:37:02Z</time>
      </trkpt>
      <trkpt lat="28.7635370" lon="-17.8917620">
        <ele>2153.2</ele>
        <time>2020-11-16T13:37:03Z</time>
      </trkpt>
      <trkpt lat="28.7635100" lon="-17.8917280">
        <ele>2153.4</ele>
        <time>2020-11-16T13:37:04Z</time>
      </trkpt>
      <trkpt lat="28.7635100" lon="-17.8917280">
        <ele>2153.4</ele>
        <time>2020-11-16T13:37:05Z</time>
      </trkpt>
      <trkpt lat="28.7634800" lon="-17.8916920">
        <ele>2153.7</ele>
        <time>2020-11-16T13:37:06Z</time>
      </trkpt>
      <trkpt lat="28.7634800" lon="-17.8916920">
        <ele>2153.7</ele>
        <time>2020-11-16T13:37:07Z</time>
      </trkpt>
      <trkpt lat="28.7634530" lon="-17.8916570">
        <ele>2154.0</ele>
        <time>2020-11-16T13:37:08Z</time>
      </trkpt>
      <trkpt lat="28.7634530" lon="-17.8916570">
        <ele>2154.0</ele>
        <time>2020-11-16T13:37:09Z</time>
      </trkpt>
      <trkpt lat="28.7634270" lon="-17.8916220">
        <ele>2154.3</ele>
        <time>2020-11-16T13:37:10Z</time>
      </trkpt>
      <trkpt lat="28.7634270" lon="-17.8916220">
        <ele>2154.3</ele>
        <time>2020-11-16T13:37:11Z</time>
      </trkpt>
      <trkpt lat="28.7633980" lon="-17.8915850">
        <ele>2154.6</ele>
        <time>2020-11-16T13:37:12Z</time>
      </trkpt>
      <trkpt lat="28.7633980" lon="-17.8915850">
        <ele>2154.6</ele>
        <time>2020-11-16T13:37:13Z</time>
      </trkpt>
      <trkpt lat="28.7633700" lon="-17.8915500">
        <ele>2154.9</ele>
        <time>2020-11-16T13:37:14Z</time>
      </trkpt>
      <trkpt lat="28.7633700" lon="-17.8915500">
        <ele>2154.9</ele>
        <time>2020-11-16T13:37:15Z</time>
      </trkpt>
      <trkpt lat="28.7633420" lon="-17.8915130">
        <ele>2155.1</ele>
        <time>2020-11-16T13:37:16Z</time>
      </trkpt>
      <trkpt lat="28.7633420" lon="-17.8915130">
        <ele>2155.1</ele>
        <time>2020-11-16T13:37:17Z</time>
      </trkpt>
      <trkpt lat="28.7633130" lon="-17.8914770">
        <ele>2155.4</ele>
        <time>2020-11-16T13:37:18Z</time>
      </trkpt>
      <trkpt lat="28.7633130" lon="-17.8914770">
        <ele>2155.4</ele>
        <time>2020-11-16T13:37:19Z</time>
      </trkpt>
      <trkpt lat="28.7632850" lon="-17.8914420">
        <ele>2155.7</ele>
        <time>2020-11-16T13:37:20Z</time>
      </trkpt>
      <trkpt lat="28.7632850" lon="-17.8914420">
        <ele>2155.7</ele>
        <time>2020-11-16T13:37:21Z</time>
      </trkpt>
      <trkpt lat="28.7632620" lon="-17.8914030">
        <ele>2156.0</ele>
        <time>2020-11-16T13:37:22Z</time>
      </trkpt>
      <trkpt lat="28.7632620" lon="-17.8914030">
        <ele>2156.0</ele>
        <time>2020-11-16T13:37:23Z</time>
      </trkpt>
      <trkpt lat="28.7632370" lon="-17.8913650">
        <ele>2156.3</ele>
        <time>2020-11-16T13:37:24Z</time>
      </trkpt>
      <trkpt lat="28.7632230" lon="-17.8913450">
        <ele>2156.4</ele>
        <time>2020-11-16T13:37:25Z</time>
      </trkpt>
      <trkpt lat="28.7632230" lon="-17.8913450">
        <ele>2156.4</ele>
        <time>2020-11-16T13:37:26Z</time>
      </trkpt>
      <trkpt lat="28.7631970" lon="-17.8913070">
        <ele>2156.7</ele>
        <time>2020-11-16T13:37:27Z</time>
      </trkpt>
      <trkpt lat="28.7631970" lon="-17.8913070">
        <ele>2156.7</ele>
        <time>2020-11-16T13:37:28Z</time>
      </trkpt>
      <trkpt lat="28.7631700" lon="-17.8912700">
        <ele>2157.0</ele>
        <time>2020-11-16T13:37:29Z</time>
      </trkpt>
      <trkpt lat="28.7631700" lon="-17.8912700">
        <ele>2157.0</ele>
        <time>2020-11-16T13:37:30Z</time>
      </trkpt>
      <trkpt lat="28.7631450" lon="-17.8912320">
        <ele>2157.3</ele>
        <time>2020-11-16T13:37:31Z</time>
      </trkpt>
      <trkpt lat="28.7631450" lon="-17.8912320">
        <ele>2157.3</ele>
        <time>2020-11-16T13:37:32Z</time>
      </trkpt>
      <trkpt lat="28.7631220" lon="-17.8911900">
        <ele>2157.5</ele>
        <time>2020-11-16T13:37:33Z</time>
      </trkpt>
      <trkpt lat="28.7631220" lon="-17.8911900">
        <ele>2157.5</ele>
        <time>2020-11-16T13:37:34Z</time>
      </trkpt>
      <trkpt lat="28.7631020" lon="-17.8911470">
        <ele>2157.8</ele>
        <time>2020-11-16T13:37:35Z</time>
      </trkpt>
      <trkpt lat="28.7631020" lon="-17.8911470">
        <ele>2157.8</ele>
        <time>2020-11-16T13:37:36Z</time>
      </trkpt>
      <trkpt lat="28.7630980" lon="-17.8910980">
        <ele>2158.1</ele>
        <time>2020-11-16T13:37:37Z</time>
      </trkpt>
      <trkpt lat="28.7631030" lon="-17.8910700">
        <ele>2158.3</ele>
        <time>2020-11-16T13:37:38Z</time>
      </trkpt>
      <trkpt lat="28.7631030" lon="-17.8910700">
        <ele>2158.3</ele>
        <time>2020-11-16T13:37:39Z</time>
      </trkpt>
      <trkpt lat="28.7631250" lon="-17.8910180">
        <ele>2158.6</ele>
        <time>2020-11-16T13:37:40Z</time>
      </trkpt>
      <trkpt lat="28.7631250" lon="-17.8910180">
        <ele>2158.6</ele>
        <time>2020-11-16T13:37:41Z</time>
      </trkpt>
      <trkpt lat="28.7631570" lon="-17.8909700">
        <ele>2159.0</ele>
        <time>2020-11-16T13:37:42Z</time>
      </trkpt>
      <trkpt lat="28.7631570" lon="-17.8909700">
        <ele>2159.0</ele>
        <time>2020-11-16T13:37:43Z</time>
      </trkpt>
      <trkpt lat="28.7631930" lon="-17.8909300">
        <ele>2159.3</ele>
        <time>2020-11-16T13:37:44Z</time>
      </trkpt>
      <trkpt lat="28.7632150" lon="-17.8909150">
        <ele>2159.5</ele>
        <time>2020-11-16T13:37:45Z</time>
      </trkpt>
      <trkpt lat="28.7632150" lon="-17.8909150">
        <ele>2159.5</ele>
        <time>2020-11-16T13:37:46Z</time>
      </trkpt>
      <trkpt lat="28.7632600" lon="-17.8908900">
        <ele>2159.8</ele>
        <time>2020-11-16T13:37:47Z</time>
      </trkpt>
      <trkpt lat="28.7632600" lon="-17.8908900">
        <ele>2159.8</ele>
        <time>2020-11-16T13:37:48Z</time>
      </trkpt>
      <trkpt lat="28.7633070" lon="-17.8908700">
        <ele>2160.2</ele>
        <time>2020-11-16T13:37:49Z</time>
      </trkpt>
      <trkpt lat="28.7633070" lon="-17.8908700">
        <ele>2160.2</ele>
        <time>2020-11-16T13:37:50Z</time>
      </trkpt>
      <trkpt lat="28.7633570" lon="-17.8908530">
        <ele>2160.5</ele>
        <time>2020-11-16T13:37:51Z</time>
      </trkpt>
      <trkpt lat="28.7633570" lon="-17.8908530">
        <ele>2160.5</ele>
        <time>2020-11-16T13:37:52Z</time>
      </trkpt>
      <trkpt lat="28.7634030" lon="-17.8908380">
        <ele>2160.8</ele>
        <time>2020-11-16T13:37:53Z</time>
      </trkpt>
      <trkpt lat="28.7634030" lon="-17.8908380">
        <ele>2160.8</ele>
        <time>2020-11-16T13:37:54Z</time>
      </trkpt>
      <trkpt lat="28.7634480" lon="-17.8908250">
        <ele>2161.1</ele>
        <time>2020-11-16T13:37:55Z</time>
      </trkpt>
      <trkpt lat="28.7634480" lon="-17.8908250">
        <ele>2161.1</ele>
        <time>2020-11-16T13:37:56Z</time>
      </trkpt>
      <trkpt lat="28.7634930" lon="-17.8908080">
        <ele>2161.5</ele>
        <time>2020-11-16T13:37:57Z</time>
      </trkpt>
      <trkpt lat="28.7634930" lon="-17.8908080">
        <ele>2161.5</ele>
        <time>2020-11-16T13:37:58Z</time>
      </trkpt>
      <trkpt lat="28.7635380" lon="-17.8907930">
        <ele>2161.8</ele>
        <time>2020-11-16T13:37:59Z</time>
      </trkpt>
      <trkpt lat="28.7635380" lon="-17.8907930">
        <ele>2161.8</ele>
        <time>2020-11-16T13:38:00Z</time>
      </trkpt>
      <trkpt lat="28.7635820" lon="-17.8907780">
        <ele>2162.1</ele>
        <time>2020-11-16T13:38:01Z</time>
      </trkpt>
      <trkpt lat="28.7635820" lon="-17.8907780">
        <ele>2162.1</ele>
        <time>2020-11-16T13:38:02Z</time>
      </trkpt>
      <trkpt lat="28.7636280" lon="-17.8907580">
        <ele>2162.4</ele>
        <time>2020-11-16T13:38:03Z</time>
      </trkpt>
      <trkpt lat="28.7636280" lon="-17.8907580">
        <ele>2162.4</ele>
        <time>2020-11-16T13:38:04Z</time>
      </trkpt>
      <trkpt lat="28.7636750" lon="-17.8907420">
        <ele>2162.7</ele>
        <time>2020-11-16T13:38:05Z</time>
      </trkpt>
      <trkpt lat="28.7636750" lon="-17.8907420">
        <ele>2162.7</ele>
        <time>2020-11-16T13:38:06Z</time>
      </trkpt>
      <trkpt lat="28.7637180" lon="-17.8907230">
        <ele>2163.0</ele>
        <time>2020-11-16T13:38:07Z</time>
      </trkpt>
      <trkpt lat="28.7637180" lon="-17.8907230">
        <ele>2163.0</ele>
        <time>2020-11-16T13:38:08Z</time>
      </trkpt>
      <trkpt lat="28.7637600" lon="-17.8907000">
        <ele>2163.4</ele>
        <time>2020-11-16T13:38:09Z</time>
      </trkpt>
      <trkpt lat="28.7637820" lon="-17.8906880">
        <ele>2163.5</ele>
        <time>2020-11-16T13:38:10Z</time>
      </trkpt>
      <trkpt lat="28.7637820" lon="-17.8906880">
        <ele>2163.5</ele>
        <time>2020-11-16T13:38:11Z</time>
      </trkpt>
      <trkpt lat="28.7638250" lon="-17.8906700">
        <ele>2163.8</ele>
        <time>2020-11-16T13:38:12Z</time>
      </trkpt>
      <trkpt lat="28.7638250" lon="-17.8906700">
        <ele>2163.8</ele>
        <time>2020-11-16T13:38:13Z</time>
      </trkpt>
      <trkpt lat="28.7638650" lon="-17.8906380">
        <ele>2164.2</ele>
        <time>2020-11-16T13:38:14Z</time>
      </trkpt>
      <trkpt lat="28.7638650" lon="-17.8906380">
        <ele>2164.2</ele>
        <time>2020-11-16T13:38:15Z</time>
      </trkpt>
      <trkpt lat="28.7639020" lon="-17.8906030">
        <ele>2164.5</ele>
        <time>2020-11-16T13:38:16Z</time>
      </trkpt>
      <trkpt lat="28.7639020" lon="-17.8906030">
        <ele>2164.5</ele>
        <time>2020-11-16T13:38:17Z</time>
      </trkpt>
      <trkpt lat="28.7639400" lon="-17.8905730">
        <ele>2164.8</ele>
        <time>2020-11-16T13:38:18Z</time>
      </trkpt>
      <trkpt lat="28.7639400" lon="-17.8905730">
        <ele>2164.8</ele>
        <time>2020-11-16T13:38:19Z</time>
      </trkpt>
      <trkpt lat="28.7639730" lon="-17.8905330">
        <ele>2165.1</ele>
        <time>2020-11-16T13:38:20Z</time>
      </trkpt>
      <trkpt lat="28.7639730" lon="-17.8905330">
        <ele>2165.1</ele>
        <time>2020-11-16T13:38:21Z</time>
      </trkpt>
      <trkpt lat="28.7640050" lon="-17.8904920">
        <ele>2165.4</ele>
        <time>2020-11-16T13:38:22Z</time>
      </trkpt>
      <trkpt lat="28.7640050" lon="-17.8904920">
        <ele>2165.4</ele>
        <time>2020-11-16T13:38:23Z</time>
      </trkpt>
      <trkpt lat="28.7640420" lon="-17.8904600">
        <ele>2165.7</ele>
        <time>2020-11-16T13:38:24Z</time>
      </trkpt>
      <trkpt lat="28.7640420" lon="-17.8904600">
        <ele>2165.7</ele>
        <time>2020-11-16T13:38:25Z</time>
      </trkpt>
      <trkpt lat="28.7640750" lon="-17.8904220">
        <ele>2166.1</ele>
        <time>2020-11-16T13:38:26Z</time>
      </trkpt>
      <trkpt lat="28.7640750" lon="-17.8904220">
        <ele>2166.1</ele>
        <time>2020-11-16T13:38:27Z</time>
      </trkpt>
      <trkpt lat="28.7641070" lon="-17.8903830">
        <ele>2166.4</ele>
        <time>2020-11-16T13:38:28Z</time>
      </trkpt>
      <trkpt lat="28.7641230" lon="-17.8903630">
        <ele>2166.5</ele>
        <time>2020-11-16T13:38:29Z</time>
      </trkpt>
      <trkpt lat="28.7641370" lon="-17.8903420">
        <ele>2166.7</ele>
        <time>2020-11-16T13:38:30Z</time>
      </trkpt>
      <trkpt lat="28.7641370" lon="-17.8903420">
        <ele>2166.7</ele>
        <time>2020-11-16T13:38:31Z</time>
      </trkpt>
      <trkpt lat="28.7641700" lon="-17.8903000">
        <ele>2167.0</ele>
        <time>2020-11-16T13:38:32Z</time>
      </trkpt>
      <trkpt lat="28.7641700" lon="-17.8903000">
        <ele>2167.0</ele>
        <time>2020-11-16T13:38:33Z</time>
      </trkpt>
      <trkpt lat="28.7642070" lon="-17.8902630">
        <ele>2167.3</ele>
        <time>2020-11-16T13:38:34Z</time>
      </trkpt>
      <trkpt lat="28.7642250" lon="-17.8902450">
        <ele>2167.5</ele>
        <time>2020-11-16T13:38:35Z</time>
      </trkpt>
      <trkpt lat="28.7642250" lon="-17.8902450">
        <ele>2167.5</ele>
        <time>2020-11-16T13:38:36Z</time>
      </trkpt>
      <trkpt lat="28.7642600" lon="-17.8902050">
        <ele>2167.8</ele>
        <time>2020-11-16T13:38:37Z</time>
      </trkpt>
      <trkpt lat="28.7642800" lon="-17.8901870">
        <ele>2168.0</ele>
        <time>2020-11-16T13:38:38Z</time>
      </trkpt>
      <trkpt lat="28.7642800" lon="-17.8901870">
        <ele>2168.0</ele>
        <time>2020-11-16T13:38:39Z</time>
      </trkpt>
      <trkpt lat="28.7643170" lon="-17.8901500">
        <ele>2168.3</ele>
        <time>2020-11-16T13:38:40Z</time>
      </trkpt>
      <trkpt lat="28.7643170" lon="-17.8901500">
        <ele>2168.3</ele>
        <time>2020-11-16T13:38:41Z</time>
      </trkpt>
      <trkpt lat="28.7643520" lon="-17.8901120">
        <ele>2168.7</ele>
        <time>2020-11-16T13:38:42Z</time>
      </trkpt>
      <trkpt lat="28.7643520" lon="-17.8901120">
        <ele>2168.7</ele>
        <time>2020-11-16T13:38:43Z</time>
      </trkpt>
      <trkpt lat="28.7643870" lon="-17.8900730">
        <ele>2169.0</ele>
        <time>2020-11-16T13:38:44Z</time>
      </trkpt>
      <trkpt lat="28.7643870" lon="-17.8900730">
        <ele>2169.0</ele>
        <time>2020-11-16T13:38:45Z</time>
      </trkpt>
      <trkpt lat="28.7644200" lon="-17.8900350">
        <ele>2169.3</ele>
        <time>2020-11-16T13:38:46Z</time>
      </trkpt>
      <trkpt lat="28.7644380" lon="-17.8900170">
        <ele>2169.5</ele>
        <time>2020-11-16T13:38:47Z</time>
      </trkpt>
      <trkpt lat="28.7644380" lon="-17.8900170">
        <ele>2169.5</ele>
        <time>2020-11-16T13:38:48Z</time>
      </trkpt>
      <trkpt lat="28.7644750" lon="-17.8899820">
        <ele>2169.8</ele>
        <time>2020-11-16T13:38:49Z</time>
      </trkpt>
      <trkpt lat="28.7644750" lon="-17.8899820">
        <ele>2169.8</ele>
        <time>2020-11-16T13:38:50Z</time>
      </trkpt>
      <trkpt lat="28.7645100" lon="-17.8899470">
        <ele>2170.1</ele>
        <time>2020-11-16T13:38:51Z</time>
      </trkpt>
      <trkpt lat="28.7645100" lon="-17.8899470">
        <ele>2170.1</ele>
        <time>2020-11-16T13:38:52Z</time>
      </trkpt>
      <trkpt lat="28.7645420" lon="-17.8899050">
        <ele>2170.4</ele>
        <time>2020-11-16T13:38:53Z</time>
      </trkpt>
      <trkpt lat="28.7645420" lon="-17.8899050">
        <ele>2170.4</ele>
        <time>2020-11-16T13:38:54Z</time>
      </trkpt>
      <trkpt lat="28.7645800" lon="-17.8898720">
        <ele>2170.7</ele>
        <time>2020-11-16T13:38:55Z</time>
      </trkpt>
      <trkpt lat="28.7645800" lon="-17.8898720">
        <ele>2170.7</ele>
        <time>2020-11-16T13:38:56Z</time>
      </trkpt>
      <trkpt lat="28.7646150" lon="-17.8898380">
        <ele>2171.0</ele>
        <time>2020-11-16T13:38:57Z</time>
      </trkpt>
      <trkpt lat="28.7646150" lon="-17.8898380">
        <ele>2171.0</ele>
        <time>2020-11-16T13:38:58Z</time>
      </trkpt>
      <trkpt lat="28.7646500" lon="-17.8898020">
        <ele>2171.4</ele>
        <time>2020-11-16T13:38:59Z</time>
      </trkpt>
      <trkpt lat="28.7646670" lon="-17.8897830">
        <ele>2171.5</ele>
        <time>2020-11-16T13:39:00Z</time>
      </trkpt>
      <trkpt lat="28.7646670" lon="-17.8897830">
        <ele>2171.5</ele>
        <time>2020-11-16T13:39:01Z</time>
      </trkpt>
      <trkpt lat="28.7646970" lon="-17.8897420">
        <ele>2171.8</ele>
        <time>2020-11-16T13:39:02Z</time>
      </trkpt>
      <trkpt lat="28.7646970" lon="-17.8897420">
        <ele>2171.8</ele>
        <time>2020-11-16T13:39:03Z</time>
      </trkpt>
      <trkpt lat="28.7647300" lon="-17.8897030">
        <ele>2172.2</ele>
        <time>2020-11-16T13:39:04Z</time>
      </trkpt>
      <trkpt lat="28.7647300" lon="-17.8897030">
        <ele>2172.2</ele>
        <time>2020-11-16T13:39:05Z</time>
      </trkpt>
      <trkpt lat="28.7647630" lon="-17.8896670">
        <ele>2172.5</ele>
        <time>2020-11-16T13:39:06Z</time>
      </trkpt>
      <trkpt lat="28.7647630" lon="-17.8896670">
        <ele>2172.5</ele>
        <time>2020-11-16T13:39:07Z</time>
      </trkpt>
      <trkpt lat="28.7647900" lon="-17.8896230">
        <ele>2172.8</ele>
        <time>2020-11-16T13:39:08Z</time>
      </trkpt>
      <trkpt lat="28.7647900" lon="-17.8896230">
        <ele>2172.8</ele>
        <time>2020-11-16T13:39:09Z</time>
      </trkpt>
      <trkpt lat="28.7648080" lon="-17.8895750">
        <ele>2173.1</ele>
        <time>2020-11-16T13:39:10Z</time>
      </trkpt>
      <trkpt lat="28.7648080" lon="-17.8895750">
        <ele>2173.1</ele>
        <time>2020-11-16T13:39:11Z</time>
      </trkpt>
      <trkpt lat="28.7648230" lon="-17.8895200">
        <ele>2173.4</ele>
        <time>2020-11-16T13:39:12Z</time>
      </trkpt>
      <trkpt lat="28.7648230" lon="-17.8895200">
        <ele>2173.4</ele>
        <time>2020-11-16T13:39:13Z</time>
      </trkpt>
      <trkpt lat="28.7648280" lon="-17.8894670">
        <ele>2173.7</ele>
        <time>2020-11-16T13:39:14Z</time>
      </trkpt>
      <trkpt lat="28.7648280" lon="-17.8894670">
        <ele>2173.7</ele>
        <time>2020-11-16T13:39:15Z</time>
      </trkpt>
      <trkpt lat="28.7648350" lon="-17.8894150">
        <ele>2174.0</ele>
        <time>2020-11-16T13:39:16Z</time>
      </trkpt>
      <trkpt lat="28.7648350" lon="-17.8894150">
        <ele>2174.0</ele>
        <time>2020-11-16T13:39:17Z</time>
      </trkpt>
      <trkpt lat="28.7648470" lon="-17.8893620">
        <ele>2174.4</ele>
        <time>2020-11-16T13:39:18Z</time>
      </trkpt>
      <trkpt lat="28.7648500" lon="-17.8893370">
        <ele>2174.5</ele>
        <time>2020-11-16T13:39:19Z</time>
      </trkpt>
      <trkpt lat="28.7648500" lon="-17.8893370">
        <ele>2174.5</ele>
        <time>2020-11-16T13:39:20Z</time>
      </trkpt>
      <trkpt lat="28.7648470" lon="-17.8892850">
        <ele>2174.8</ele>
        <time>2020-11-16T13:39:21Z</time>
      </trkpt>
      <trkpt lat="28.7648470" lon="-17.8892850">
        <ele>2174.8</ele>
        <time>2020-11-16T13:39:22Z</time>
      </trkpt>
      <trkpt lat="28.7648480" lon="-17.8892330">
        <ele>2175.1</ele>
        <time>2020-11-16T13:39:23Z</time>
      </trkpt>
      <trkpt lat="28.7648480" lon="-17.8892330">
        <ele>2175.1</ele>
        <time>2020-11-16T13:39:24Z</time>
      </trkpt>
      <trkpt lat="28.7648500" lon="-17.8891820">
        <ele>2175.4</ele>
        <time>2020-11-16T13:39:25Z</time>
      </trkpt>
      <trkpt lat="28.7648500" lon="-17.8891820">
        <ele>2175.4</ele>
        <time>2020-11-16T13:39:26Z</time>
      </trkpt>
      <trkpt lat="28.7648480" lon="-17.8891280">
        <ele>2175.7</ele>
        <time>2020-11-16T13:39:27Z</time>
      </trkpt>
      <trkpt lat="28.7648480" lon="-17.8891030">
        <ele>2175.9</ele>
        <time>2020-11-16T13:39:28Z</time>
      </trkpt>
      <trkpt lat="28.7648480" lon="-17.8891030">
        <ele>2175.9</ele>
        <time>2020-11-16T13:39:29Z</time>
      </trkpt>
      <trkpt lat="28.7648430" lon="-17.8890520">
        <ele>2176.2</ele>
        <time>2020-11-16T13:39:30Z</time>
      </trkpt>
      <trkpt lat="28.7648430" lon="-17.8890520">
        <ele>2176.2</ele>
        <time>2020-11-16T13:39:31Z</time>
      </trkpt>
      <trkpt lat="28.7648430" lon="-17.8890000">
        <ele>2176.5</ele>
        <time>2020-11-16T13:39:32Z</time>
      </trkpt>
      <trkpt lat="28.7648450" lon="-17.8889730">
        <ele>2176.7</ele>
        <time>2020-11-16T13:39:33Z</time>
      </trkpt>
      <trkpt lat="28.7648450" lon="-17.8889730">
        <ele>2176.7</ele>
        <time>2020-11-16T13:39:34Z</time>
      </trkpt>
      <trkpt lat="28.7648380" lon="-17.8889230">
        <ele>2176.9</ele>
        <time>2020-11-16T13:39:35Z</time>
      </trkpt>
      <trkpt lat="28.7648380" lon="-17.8889230">
        <ele>2176.9</ele>
        <time>2020-11-16T13:39:36Z</time>
      </trkpt>
      <trkpt lat="28.7648400" lon="-17.8888700">
        <ele>2177.3</ele>
        <time>2020-11-16T13:39:37Z</time>
      </trkpt>
      <trkpt lat="28.7648400" lon="-17.8888700">
        <ele>2177.3</ele>
        <time>2020-11-16T13:39:38Z</time>
      </trkpt>
      <trkpt lat="28.7648430" lon="-17.8888220">
        <ele>2177.5</ele>
        <time>2020-11-16T13:39:39Z</time>
      </trkpt>
      <trkpt lat="28.7648420" lon="-17.8887970">
        <ele>2177.7</ele>
        <time>2020-11-16T13:39:40Z</time>
      </trkpt>
      <trkpt lat="28.7648420" lon="-17.8887970">
        <ele>2177.7</ele>
        <time>2020-11-16T13:39:41Z</time>
      </trkpt>
      <trkpt lat="28.7648380" lon="-17.8887450">
        <ele>2178.0</ele>
        <time>2020-11-16T13:39:42Z</time>
      </trkpt>
      <trkpt lat="28.7648380" lon="-17.8887450">
        <ele>2178.0</ele>
        <time>2020-11-16T13:39:43Z</time>
      </trkpt>
      <trkpt lat="28.7648320" lon="-17.8886930">
        <ele>2178.3</ele>
        <time>2020-11-16T13:39:44Z</time>
      </trkpt>
      <trkpt lat="28.7648320" lon="-17.8886930">
        <ele>2178.3</ele>
        <time>2020-11-16T13:39:45Z</time>
      </trkpt>
      <trkpt lat="28.7648300" lon="-17.8886430">
        <ele>2178.6</ele>
        <time>2020-11-16T13:39:46Z</time>
      </trkpt>
      <trkpt lat="28.7648320" lon="-17.8886170">
        <ele>2178.8</ele>
        <time>2020-11-16T13:39:47Z</time>
      </trkpt>
      <trkpt lat="28.7648320" lon="-17.8886170">
        <ele>2178.8</ele>
        <time>2020-11-16T13:39:48Z</time>
      </trkpt>
      <trkpt lat="28.7648300" lon="-17.8885680">
        <ele>2179.0</ele>
        <time>2020-11-16T13:39:49Z</time>
      </trkpt>
      <trkpt lat="28.7648270" lon="-17.8885430">
        <ele>2179.2</ele>
        <time>2020-11-16T13:39:50Z</time>
      </trkpt>
      <trkpt lat="28.7648250" lon="-17.8885180">
        <ele>2179.3</ele>
        <time>2020-11-16T13:39:51Z</time>
      </trkpt>
      <trkpt lat="28.7648250" lon="-17.8885180">
        <ele>2179.3</ele>
        <time>2020-11-16T13:39:52Z</time>
      </trkpt>
      <trkpt lat="28.7648230" lon="-17.8884650">
        <ele>2179.6</ele>
        <time>2020-11-16T13:39:53Z</time>
      </trkpt>
      <trkpt lat="28.7648230" lon="-17.8884650">
        <ele>2179.6</ele>
        <time>2020-11-16T13:39:54Z</time>
      </trkpt>
      <trkpt lat="28.7648200" lon="-17.8884130">
        <ele>2180.0</ele>
        <time>2020-11-16T13:39:55Z</time>
      </trkpt>
      <trkpt lat="28.7648150" lon="-17.8883880">
        <ele>2180.1</ele>
        <time>2020-11-16T13:39:56Z</time>
      </trkpt>
      <trkpt lat="28.7648150" lon="-17.8883880">
        <ele>2180.1</ele>
        <time>2020-11-16T13:39:57Z</time>
      </trkpt>
      <trkpt lat="28.7648100" lon="-17.8883370">
        <ele>2180.4</ele>
        <time>2020-11-16T13:39:58Z</time>
      </trkpt>
      <trkpt lat="28.7648100" lon="-17.8883370">
        <ele>2180.4</ele>
        <time>2020-11-16T13:39:59Z</time>
      </trkpt>
      <trkpt lat="28.7648120" lon="-17.8882830">
        <ele>2180.7</ele>
        <time>2020-11-16T13:40:00Z</time>
      </trkpt>
      <trkpt lat="28.7648120" lon="-17.8882830">
        <ele>2180.7</ele>
        <time>2020-11-16T13:40:01Z</time>
      </trkpt>
      <trkpt lat="28.7648050" lon="-17.8882330">
        <ele>2181.0</ele>
        <time>2020-11-16T13:40:02Z</time>
      </trkpt>
      <trkpt lat="28.7648050" lon="-17.8882330">
        <ele>2181.0</ele>
        <time>2020-11-16T13:40:03Z</time>
      </trkpt>
      <trkpt lat="28.7647980" lon="-17.8881820">
        <ele>2181.3</ele>
        <time>2020-11-16T13:40:04Z</time>
      </trkpt>
      <trkpt lat="28.7647930" lon="-17.8881570">
        <ele>2181.5</ele>
        <time>2020-11-16T13:40:05Z</time>
      </trkpt>
      <trkpt lat="28.7647930" lon="-17.8881570">
        <ele>2181.5</ele>
        <time>2020-11-16T13:40:06Z</time>
      </trkpt>
      <trkpt lat="28.7647770" lon="-17.8881070">
        <ele>2181.8</ele>
        <time>2020-11-16T13:40:07Z</time>
      </trkpt>
      <trkpt lat="28.7647670" lon="-17.8880820">
        <ele>2181.9</ele>
        <time>2020-11-16T13:40:08Z</time>
      </trkpt>
      <trkpt lat="28.7647670" lon="-17.8880820">
        <ele>2181.9</ele>
        <time>2020-11-16T13:40:09Z</time>
      </trkpt>
      <trkpt lat="28.7647450" lon="-17.8880350">
        <ele>2182.3</ele>
        <time>2020-11-16T13:40:10Z</time>
      </trkpt>
      <trkpt lat="28.7647450" lon="-17.8880350">
        <ele>2182.3</ele>
        <time>2020-11-16T13:40:11Z</time>
      </trkpt>
      <trkpt lat="28.7647180" lon="-17.8879880">
        <ele>2182.6</ele>
        <time>2020-11-16T13:40:12Z</time>
      </trkpt>
      <trkpt lat="28.7647030" lon="-17.8879670">
        <ele>2182.7</ele>
        <time>2020-11-16T13:40:13Z</time>
      </trkpt>
      <trkpt lat="28.7647030" lon="-17.8879670">
        <ele>2182.7</ele>
        <time>2020-11-16T13:40:14Z</time>
      </trkpt>
      <trkpt lat="28.7646700" lon="-17.8879250">
        <ele>2183.1</ele>
        <time>2020-11-16T13:40:15Z</time>
      </trkpt>
      <trkpt lat="28.7646700" lon="-17.8879250">
        <ele>2183.1</ele>
        <time>2020-11-16T13:40:16Z</time>
      </trkpt>
      <trkpt lat="28.7646380" lon="-17.8878870">
        <ele>2183.4</ele>
        <time>2020-11-16T13:40:17Z</time>
      </trkpt>
      <trkpt lat="28.7646380" lon="-17.8878870">
        <ele>2183.4</ele>
        <time>2020-11-16T13:40:18Z</time>
      </trkpt>
      <trkpt lat="28.7646050" lon="-17.8878500">
        <ele>2183.7</ele>
        <time>2020-11-16T13:40:19Z</time>
      </trkpt>
      <trkpt lat="28.7646050" lon="-17.8878500">
        <ele>2183.7</ele>
        <time>2020-11-16T13:40:20Z</time>
      </trkpt>
      <trkpt lat="28.7645750" lon="-17.8878120">
        <ele>2184.0</ele>
        <time>2020-11-16T13:40:21Z</time>
      </trkpt>
      <trkpt lat="28.7645750" lon="-17.8878120">
        <ele>2184.0</ele>
        <time>2020-11-16T13:40:22Z</time>
      </trkpt>
      <trkpt lat="28.7645430" lon="-17.8877750">
        <ele>2184.3</ele>
        <time>2020-11-16T13:40:23Z</time>
      </trkpt>
      <trkpt lat="28.7645430" lon="-17.8877750">
        <ele>2184.3</ele>
        <time>2020-11-16T13:40:24Z</time>
      </trkpt>
      <trkpt lat="28.7645120" lon="-17.8877400">
        <ele>2184.6</ele>
        <time>2020-11-16T13:40:25Z</time>
      </trkpt>
      <trkpt lat="28.7645120" lon="-17.8877400">
        <ele>2184.6</ele>
        <time>2020-11-16T13:40:26Z</time>
      </trkpt>
      <trkpt lat="28.7644820" lon="-17.8877030">
        <ele>2184.9</ele>
        <time>2020-11-16T13:40:27Z</time>
      </trkpt>
      <trkpt lat="28.7644820" lon="-17.8877030">
        <ele>2184.9</ele>
        <time>2020-11-16T13:40:28Z</time>
      </trkpt>
      <trkpt lat="28.7644530" lon="-17.8876680">
        <ele>2185.2</ele>
        <time>2020-11-16T13:40:29Z</time>
      </trkpt>
      <trkpt lat="28.7644380" lon="-17.8876530">
        <ele>2185.3</ele>
        <time>2020-11-16T13:40:30Z</time>
      </trkpt>
      <trkpt lat="28.7644380" lon="-17.8876530">
        <ele>2185.3</ele>
        <time>2020-11-16T13:40:31Z</time>
      </trkpt>
      <trkpt lat="28.7644070" lon="-17.8876230">
        <ele>2185.6</ele>
        <time>2020-11-16T13:40:32Z</time>
      </trkpt>
      <trkpt lat="28.7644070" lon="-17.8876230">
        <ele>2185.6</ele>
        <time>2020-11-16T13:40:33Z</time>
      </trkpt>
      <trkpt lat="28.7643750" lon="-17.8875880">
        <ele>2185.9</ele>
        <time>2020-11-16T13:40:34Z</time>
      </trkpt>
      <trkpt lat="28.7643600" lon="-17.8875700">
        <ele>2186.0</ele>
        <time>2020-11-16T13:40:35Z</time>
      </trkpt>
      <trkpt lat="28.7643600" lon="-17.8875700">
        <ele>2186.0</ele>
        <time>2020-11-16T13:40:36Z</time>
      </trkpt>
      <trkpt lat="28.7643300" lon="-17.8875330">
        <ele>2186.3</ele>
        <time>2020-11-16T13:40:37Z</time>
      </trkpt>
      <trkpt lat="28.7643150" lon="-17.8875170">
        <ele>2186.5</ele>
        <time>2020-11-16T13:40:38Z</time>
      </trkpt>
      <trkpt lat="28.7643150" lon="-17.8875170">
        <ele>2186.5</ele>
        <time>2020-11-16T13:40:39Z</time>
      </trkpt>
      <trkpt lat="28.7642850" lon="-17.8874880">
        <ele>2186.7</ele>
        <time>2020-11-16T13:40:40Z</time>
      </trkpt>
      <trkpt lat="28.7642680" lon="-17.8874730">
        <ele>2186.9</ele>
        <time>2020-11-16T13:40:41Z</time>
      </trkpt>
      <trkpt lat="28.7642680" lon="-17.8874730">
        <ele>2186.9</ele>
        <time>2020-11-16T13:40:42Z</time>
      </trkpt>
      <trkpt lat="28.7642370" lon="-17.8874400">
        <ele>2187.1</ele>
        <time>2020-11-16T13:40:43Z</time>
      </trkpt>
      <trkpt lat="28.7642220" lon="-17.8874230">
        <ele>2187.3</ele>
        <time>2020-11-16T13:40:44Z</time>
      </trkpt>
      <trkpt lat="28.7642220" lon="-17.8874230">
        <ele>2187.3</ele>
        <time>2020-11-16T13:40:45Z</time>
      </trkpt>
      <trkpt lat="28.7641880" lon="-17.8873930">
        <ele>2187.6</ele>
        <time>2020-11-16T13:40:46Z</time>
      </trkpt>
      <trkpt lat="28.7641730" lon="-17.8873780">
        <ele>2187.7</ele>
        <time>2020-11-16T13:40:47Z</time>
      </trkpt>
      <trkpt lat="28.7641730" lon="-17.8873780">
        <ele>2187.7</ele>
        <time>2020-11-16T13:40:48Z</time>
      </trkpt>
      <trkpt lat="28.7641430" lon="-17.8873430">
        <ele>2188.0</ele>
        <time>2020-11-16T13:40:49Z</time>
      </trkpt>
      <trkpt lat="28.7641280" lon="-17.8873270">
        <ele>2188.1</ele>
        <time>2020-11-16T13:40:50Z</time>
      </trkpt>
      <trkpt lat="28.7641130" lon="-17.8873120">
        <ele>2188.3</ele>
        <time>2020-11-16T13:40:51Z</time>
      </trkpt>
      <trkpt lat="28.7641130" lon="-17.8873120">
        <ele>2188.3</ele>
        <time>2020-11-16T13:40:52Z</time>
      </trkpt>
      <trkpt lat="28.7640830" lon="-17.8872780">
        <ele>2188.6</ele>
        <time>2020-11-16T13:40:53Z</time>
      </trkpt>
      <trkpt lat="28.7640680" lon="-17.8872580">
        <ele>2188.7</ele>
        <time>2020-11-16T13:40:54Z</time>
      </trkpt>
      <trkpt lat="28.7640550" lon="-17.8872380">
        <ele>2188.9</ele>
        <time>2020-11-16T13:40:55Z</time>
      </trkpt>
      <trkpt lat="28.7640550" lon="-17.8872380">
        <ele>2188.9</ele>
        <time>2020-11-16T13:40:56Z</time>
      </trkpt>
      <trkpt lat="28.7640250" lon="-17.8872020">
        <ele>2189.1</ele>
        <time>2020-11-16T13:40:57Z</time>
      </trkpt>
      <trkpt lat="28.7640250" lon="-17.8872020">
        <ele>2189.1</ele>
        <time>2020-11-16T13:40:58Z</time>
      </trkpt>
      <trkpt lat="28.7639980" lon="-17.8871650">
        <ele>2189.4</ele>
        <time>2020-11-16T13:40:59Z</time>
      </trkpt>
      <trkpt lat="28.7639900" lon="-17.8871450">
        <ele>2189.6</ele>
        <time>2020-11-16T13:41:00Z</time>
      </trkpt>
      <trkpt lat="28.7639900" lon="-17.8871450">
        <ele>2189.6</ele>
        <time>2020-11-16T13:41:01Z</time>
      </trkpt>
      <trkpt lat="28.7639750" lon="-17.8870980">
        <ele>2189.8</ele>
        <time>2020-11-16T13:41:02Z</time>
      </trkpt>
      <trkpt lat="28.7639750" lon="-17.8870980">
        <ele>2189.8</ele>
        <time>2020-11-16T13:41:03Z</time>
      </trkpt>
      <trkpt lat="28.7639630" lon="-17.8870500">
        <ele>2190.1</ele>
        <time>2020-11-16T13:41:04Z</time>
      </trkpt>
      <trkpt lat="28.7639600" lon="-17.8870270">
        <ele>2190.3</ele>
        <time>2020-11-16T13:41:05Z</time>
      </trkpt>
      <trkpt lat="28.7639600" lon="-17.8870270">
        <ele>2190.3</ele>
        <time>2020-11-16T13:41:06Z</time>
      </trkpt>
      <trkpt lat="28.7639620" lon="-17.8869770">
        <ele>2190.6</ele>
        <time>2020-11-16T13:41:07Z</time>
      </trkpt>
      <trkpt lat="28.7639620" lon="-17.8869770">
        <ele>2190.6</ele>
        <time>2020-11-16T13:41:08Z</time>
      </trkpt>
      <trkpt lat="28.7639650" lon="-17.8869270">
        <ele>2190.9</ele>
        <time>2020-11-16T13:41:09Z</time>
      </trkpt>
      <trkpt lat="28.7639650" lon="-17.8869270">
        <ele>2190.9</ele>
        <time>2020-11-16T13:41:10Z</time>
      </trkpt>
      <trkpt lat="28.7639680" lon="-17.8868770">
        <ele>2191.2</ele>
        <time>2020-11-16T13:41:11Z</time>
      </trkpt>
      <trkpt lat="28.7639680" lon="-17.8868770">
        <ele>2191.2</ele>
        <time>2020-11-16T13:41:12Z</time>
      </trkpt>
      <trkpt lat="28.7639730" lon="-17.8868300">
        <ele>2191.4</ele>
        <time>2020-11-16T13:41:13Z</time>
      </trkpt>
      <trkpt lat="28.7639730" lon="-17.8868300">
        <ele>2191.4</ele>
        <time>2020-11-16T13:41:14Z</time>
      </trkpt>
      <trkpt lat="28.7639880" lon="-17.8867800">
        <ele>2191.7</ele>
        <time>2020-11-16T13:41:15Z</time>
      </trkpt>
      <trkpt lat="28.7639950" lon="-17.8867570">
        <ele>2191.9</ele>
        <time>2020-11-16T13:41:16Z</time>
      </trkpt>
      <trkpt lat="28.7639950" lon="-17.8867570">
        <ele>2191.9</ele>
        <time>2020-11-16T13:41:17Z</time>
      </trkpt>
      <trkpt lat="28.7640170" lon="-17.8867050">
        <ele>2192.2</ele>
        <time>2020-11-16T13:41:18Z</time>
      </trkpt>
      <trkpt lat="28.7640170" lon="-17.8867050">
        <ele>2192.2</ele>
        <time>2020-11-16T13:41:19Z</time>
      </trkpt>
      <trkpt lat="28.7640400" lon="-17.8866580">
        <ele>2192.5</ele>
        <time>2020-11-16T13:41:20Z</time>
      </trkpt>
      <trkpt lat="28.7640400" lon="-17.8866580">
        <ele>2192.5</ele>
        <time>2020-11-16T13:41:21Z</time>
      </trkpt>
      <trkpt lat="28.7640620" lon="-17.8866080">
        <ele>2192.9</ele>
        <time>2020-11-16T13:41:22Z</time>
      </trkpt>
      <trkpt lat="28.7640620" lon="-17.8866080">
        <ele>2192.9</ele>
        <time>2020-11-16T13:41:23Z</time>
      </trkpt>
      <trkpt lat="28.7640870" lon="-17.8865600">
        <ele>2193.2</ele>
        <time>2020-11-16T13:41:24Z</time>
      </trkpt>
      <trkpt lat="28.7641050" lon="-17.8865400">
        <ele>2193.4</ele>
        <time>2020-11-16T13:41:25Z</time>
      </trkpt>
      <trkpt lat="28.7641270" lon="-17.8865220">
        <ele>2193.6</ele>
        <time>2020-11-16T13:41:26Z</time>
      </trkpt>
      <trkpt lat="28.7641270" lon="-17.8865220">
        <ele>2193.6</ele>
        <time>2020-11-16T13:41:27Z</time>
      </trkpt>
      <trkpt lat="28.7641600" lon="-17.8864780">
        <ele>2193.9</ele>
        <time>2020-11-16T13:41:28Z</time>
      </trkpt>
      <trkpt lat="28.7641600" lon="-17.8864780">
        <ele>2193.9</ele>
        <time>2020-11-16T13:41:29Z</time>
      </trkpt>
      <trkpt lat="28.7641870" lon="-17.8864320">
        <ele>2194.2</ele>
        <time>2020-11-16T13:41:30Z</time>
      </trkpt>
      <trkpt lat="28.7641870" lon="-17.8864320">
        <ele>2194.2</ele>
        <time>2020-11-16T13:41:31Z</time>
      </trkpt>
      <trkpt lat="28.7642300" lon="-17.8863930">
        <ele>2194.6</ele>
        <time>2020-11-16T13:41:32Z</time>
      </trkpt>
      <trkpt lat="28.7642300" lon="-17.8863930">
        <ele>2194.6</ele>
        <time>2020-11-16T13:41:33Z</time>
      </trkpt>
      <trkpt lat="28.7642730" lon="-17.8863450">
        <ele>2195.0</ele>
        <time>2020-11-16T13:41:34Z</time>
      </trkpt>
      <trkpt lat="28.7642730" lon="-17.8863450">
        <ele>2195.0</ele>
        <time>2020-11-16T13:41:35Z</time>
      </trkpt>
      <trkpt lat="28.7643120" lon="-17.8862970">
        <ele>2195.4</ele>
        <time>2020-11-16T13:41:36Z</time>
      </trkpt>
      <trkpt lat="28.7643120" lon="-17.8862970">
        <ele>2195.4</ele>
        <time>2020-11-16T13:41:37Z</time>
      </trkpt>
      <trkpt lat="28.7643500" lon="-17.8862480">
        <ele>2195.8</ele>
        <time>2020-11-16T13:41:38Z</time>
      </trkpt>
      <trkpt lat="28.7643500" lon="-17.8862480">
        <ele>2195.8</ele>
        <time>2020-11-16T13:41:39Z</time>
      </trkpt>
      <trkpt lat="28.7643970" lon="-17.8862050">
        <ele>2196.2</ele>
        <time>2020-11-16T13:41:40Z</time>
      </trkpt>
      <trkpt lat="28.7644200" lon="-17.8861830">
        <ele>2196.4</ele>
        <time>2020-11-16T13:41:41Z</time>
      </trkpt>
      <trkpt lat="28.7644200" lon="-17.8861830">
        <ele>2196.4</ele>
        <time>2020-11-16T13:41:42Z</time>
      </trkpt>
      <trkpt lat="28.7644680" lon="-17.8861470">
        <ele>2196.7</ele>
        <time>2020-11-16T13:41:43Z</time>
      </trkpt>
      <trkpt lat="28.7644930" lon="-17.8861300">
        <ele>2196.9</ele>
        <time>2020-11-16T13:41:44Z</time>
      </trkpt>
      <trkpt lat="28.7644930" lon="-17.8861300">
        <ele>2196.9</ele>
        <time>2020-11-16T13:41:45Z</time>
      </trkpt>
      <trkpt lat="28.7645450" lon="-17.8860920">
        <ele>2197.4</ele>
        <time>2020-11-16T13:41:46Z</time>
      </trkpt>
      <trkpt lat="28.7645450" lon="-17.8860920">
        <ele>2197.4</ele>
        <time>2020-11-16T13:41:47Z</time>
      </trkpt>
      <trkpt lat="28.7645970" lon="-17.8860520">
        <ele>2197.8</ele>
        <time>2020-11-16T13:41:48Z</time>
      </trkpt>
      <trkpt lat="28.7645970" lon="-17.8860520">
        <ele>2197.8</ele>
        <time>2020-11-16T13:41:49Z</time>
      </trkpt>
      <trkpt lat="28.7646520" lon="-17.8860130">
        <ele>2198.1</ele>
        <time>2020-11-16T13:41:50Z</time>
      </trkpt>
      <trkpt lat="28.7646520" lon="-17.8860130">
        <ele>2198.1</ele>
        <time>2020-11-16T13:41:51Z</time>
      </trkpt>
      <trkpt lat="28.7647030" lon="-17.8859770">
        <ele>2198.1</ele>
        <time>2020-11-16T13:41:52Z</time>
      </trkpt>
      <trkpt lat="28.7647300" lon="-17.8859550">
        <ele>2198.0</ele>
        <time>2020-11-16T13:41:53Z</time>
      </trkpt>
      <trkpt lat="28.7647300" lon="-17.8859550">
        <ele>2198.0</ele>
        <time>2020-11-16T13:41:54Z</time>
      </trkpt>
      <trkpt lat="28.7647770" lon="-17.8859070">
        <ele>2198.0</ele>
        <time>2020-11-16T13:41:55Z</time>
      </trkpt>
      <trkpt lat="28.7648020" lon="-17.8858820">
        <ele>2198.0</ele>
        <time>2020-11-16T13:41:56Z</time>
      </trkpt>
      <trkpt lat="28.7648020" lon="-17.8858820">
        <ele>2198.0</ele>
        <time>2020-11-16T13:41:57Z</time>
      </trkpt>
      <trkpt lat="28.7648570" lon="-17.8858430">
        <ele>2198.0</ele>
        <time>2020-11-16T13:41:58Z</time>
      </trkpt>
      <trkpt lat="28.7648820" lon="-17.8858220">
        <ele>2198.0</ele>
        <time>2020-11-16T13:41:59Z</time>
      </trkpt>
      <trkpt lat="28.7648820" lon="-17.8858220">
        <ele>2198.0</ele>
        <time>2020-11-16T13:42:00Z</time>
      </trkpt>
      <trkpt lat="28.7649320" lon="-17.8857770">
        <ele>2198.0</ele>
        <time>2020-11-16T13:42:01Z</time>
      </trkpt>
      <trkpt lat="28.7649320" lon="-17.8857770">
        <ele>2198.0</ele>
        <time>2020-11-16T13:42:02Z</time>
      </trkpt>
      <trkpt lat="28.7649820" lon="-17.8857280">
        <ele>2198.1</ele>
        <time>2020-11-16T13:42:03Z</time>
      </trkpt>
      <trkpt lat="28.7650050" lon="-17.8857020">
        <ele>2198.1</ele>
        <time>2020-11-16T13:42:04Z</time>
      </trkpt>
      <trkpt lat="28.7650050" lon="-17.8857020">
        <ele>2198.1</ele>
        <time>2020-11-16T13:42:05Z</time>
      </trkpt>
      <trkpt lat="28.7650470" lon="-17.8856480">
        <ele>2198.3</ele>
        <time>2020-11-16T13:42:06Z</time>
      </trkpt>
      <trkpt lat="28.7650680" lon="-17.8856250">
        <ele>2198.3</ele>
        <time>2020-11-16T13:42:07Z</time>
      </trkpt>
      <trkpt lat="28.7650680" lon="-17.8856250">
        <ele>2198.3</ele>
        <time>2020-11-16T13:42:08Z</time>
      </trkpt>
      <trkpt lat="28.7650980" lon="-17.8855700">
        <ele>2198.5</ele>
        <time>2020-11-16T13:42:09Z</time>
      </trkpt>
      <trkpt lat="28.7650980" lon="-17.8855700">
        <ele>2198.5</ele>
        <time>2020-11-16T13:42:10Z</time>
      </trkpt>
      <trkpt lat="28.7651170" lon="-17.8855120">
        <ele>2198.7</ele>
        <time>2020-11-16T13:42:11Z</time>
      </trkpt>
      <trkpt lat="28.7651170" lon="-17.8855120">
        <ele>2198.7</ele>
        <time>2020-11-16T13:42:12Z</time>
      </trkpt>
      <trkpt lat="28.7651300" lon="-17.8854500">
        <ele>2198.9</ele>
        <time>2020-11-16T13:42:13Z</time>
      </trkpt>
      <trkpt lat="28.7651350" lon="-17.8854200">
        <ele>2199.0</ele>
        <time>2020-11-16T13:42:14Z</time>
      </trkpt>
      <trkpt lat="28.7651350" lon="-17.8854200">
        <ele>2199.0</ele>
        <time>2020-11-16T13:42:15Z</time>
      </trkpt>
      <trkpt lat="28.7651420" lon="-17.8853620">
        <ele>2199.3</ele>
        <time>2020-11-16T13:42:16Z</time>
      </trkpt>
      <trkpt lat="28.7651450" lon="-17.8853320">
        <ele>2199.5</ele>
        <time>2020-11-16T13:42:17Z</time>
      </trkpt>
      <trkpt lat="28.7651450" lon="-17.8853320">
        <ele>2199.5</ele>
        <time>2020-11-16T13:42:18Z</time>
      </trkpt>
      <trkpt lat="28.7651530" lon="-17.8852720">
        <ele>2199.8</ele>
        <time>2020-11-16T13:42:19Z</time>
      </trkpt>
      <trkpt lat="28.7651530" lon="-17.8852720">
        <ele>2199.8</ele>
        <time>2020-11-16T13:42:20Z</time>
      </trkpt>
      <trkpt lat="28.7651670" lon="-17.8852170">
        <ele>2200.2</ele>
        <time>2020-11-16T13:42:21Z</time>
      </trkpt>
      <trkpt lat="28.7651720" lon="-17.8851900">
        <ele>2200.4</ele>
        <time>2020-11-16T13:42:22Z</time>
      </trkpt>
      <trkpt lat="28.7651720" lon="-17.8851900">
        <ele>2200.4</ele>
        <time>2020-11-16T13:42:23Z</time>
      </trkpt>
      <trkpt lat="28.7651770" lon="-17.8851400">
        <ele>2200.7</ele>
        <time>2020-11-16T13:42:24Z</time>
      </trkpt>
      <trkpt lat="28.7651800" lon="-17.8851170">
        <ele>2200.8</ele>
        <time>2020-11-16T13:42:25Z</time>
      </trkpt>
      <trkpt lat="28.7651820" lon="-17.8850930">
        <ele>2201.0</ele>
        <time>2020-11-16T13:42:26Z</time>
      </trkpt>
      <trkpt lat="28.7651820" lon="-17.8850930">
        <ele>2201.0</ele>
        <time>2020-11-16T13:42:27Z</time>
      </trkpt>
      <trkpt lat="28.7651850" lon="-17.8850430">
        <ele>2201.3</ele>
        <time>2020-11-16T13:42:28Z</time>
      </trkpt>
      <trkpt lat="28.7651850" lon="-17.8850430">
        <ele>2201.3</ele>
        <time>2020-11-16T13:42:29Z</time>
      </trkpt>
      <trkpt lat="28.7651900" lon="-17.8849930">
        <ele>2201.7</ele>
        <time>2020-11-16T13:42:30Z</time>
      </trkpt>
      <trkpt lat="28.7651920" lon="-17.8849680">
        <ele>2201.8</ele>
        <time>2020-11-16T13:42:31Z</time>
      </trkpt>
      <trkpt lat="28.7651930" lon="-17.8849450">
        <ele>2202.0</ele>
        <time>2020-11-16T13:42:32Z</time>
      </trkpt>
      <trkpt lat="28.7651930" lon="-17.8849450">
        <ele>2202.0</ele>
        <time>2020-11-16T13:42:33Z</time>
      </trkpt>
      <trkpt lat="28.7651930" lon="-17.8848970">
        <ele>2202.3</ele>
        <time>2020-11-16T13:42:34Z</time>
      </trkpt>
      <trkpt lat="28.7651930" lon="-17.8848720">
        <ele>2202.5</ele>
        <time>2020-11-16T13:42:35Z</time>
      </trkpt>
      <trkpt lat="28.7651930" lon="-17.8848720">
        <ele>2202.5</ele>
        <time>2020-11-16T13:42:36Z</time>
      </trkpt>
      <trkpt lat="28.7651930" lon="-17.8848200">
        <ele>2202.8</ele>
        <time>2020-11-16T13:42:37Z</time>
      </trkpt>
      <trkpt lat="28.7651950" lon="-17.8847930">
        <ele>2203.0</ele>
        <time>2020-11-16T13:42:38Z</time>
      </trkpt>
      <trkpt lat="28.7651950" lon="-17.8847930">
        <ele>2203.0</ele>
        <time>2020-11-16T13:42:39Z</time>
      </trkpt>
      <trkpt lat="28.7651950" lon="-17.8847420">
        <ele>2203.3</ele>
        <time>2020-11-16T13:42:40Z</time>
      </trkpt>
      <trkpt lat="28.7651950" lon="-17.8847420">
        <ele>2203.4</ele>
        <time>2020-11-16T13:42:41Z</time>
      </trkpt>
      <trkpt lat="28.7651930" lon="-17.8846900">
        <ele>2203.8</ele>
        <time>2020-11-16T13:42:42Z</time>
      </trkpt>
      <trkpt lat="28.7651930" lon="-17.8846900">
        <ele>2203.8</ele>
        <time>2020-11-16T13:42:43Z</time>
      </trkpt>
      <trkpt lat="28.7651920" lon="-17.8846330">
        <ele>2204.2</ele>
        <time>2020-11-16T13:42:44Z</time>
      </trkpt>
      <trkpt lat="28.7651920" lon="-17.8846330">
        <ele>2204.2</ele>
        <time>2020-11-16T13:42:45Z</time>
      </trkpt>
      <trkpt lat="28.7651800" lon="-17.8845700">
        <ele>2204.6</ele>
        <time>2020-11-16T13:42:46Z</time>
      </trkpt>
      <trkpt lat="28.7651700" lon="-17.8845380">
        <ele>2204.8</ele>
        <time>2020-11-16T13:42:47Z</time>
      </trkpt>
      <trkpt lat="28.7651700" lon="-17.8845380">
        <ele>2204.8</ele>
        <time>2020-11-16T13:42:48Z</time>
      </trkpt>
      <trkpt lat="28.7651530" lon="-17.8844750">
        <ele>2205.3</ele>
        <time>2020-11-16T13:42:49Z</time>
      </trkpt>
      <trkpt lat="28.7651470" lon="-17.8844470">
        <ele>2205.5</ele>
        <time>2020-11-16T13:42:50Z</time>
      </trkpt>
      <trkpt lat="28.7651470" lon="-17.8844470">
        <ele>2205.5</ele>
        <time>2020-11-16T13:42:51Z</time>
      </trkpt>
      <trkpt lat="28.7651320" lon="-17.8843930">
        <ele>2205.9</ele>
        <time>2020-11-16T13:42:52Z</time>
      </trkpt>
      <trkpt lat="28.7651320" lon="-17.8843930">
        <ele>2205.9</ele>
        <time>2020-11-16T13:42:53Z</time>
      </trkpt>
      <trkpt lat="28.7651130" lon="-17.8843470">
        <ele>2206.2</ele>
        <time>2020-11-16T13:42:54Z</time>
      </trkpt>
      <trkpt lat="28.7651030" lon="-17.8843220">
        <ele>2206.4</ele>
        <time>2020-11-16T13:42:55Z</time>
      </trkpt>
      <trkpt lat="28.7651030" lon="-17.8843220">
        <ele>2206.4</ele>
        <time>2020-11-16T13:42:56Z</time>
      </trkpt>
      <trkpt lat="28.7650730" lon="-17.8842730">
        <ele>2206.8</ele>
        <time>2020-11-16T13:42:57Z</time>
      </trkpt>
      <trkpt lat="28.7650730" lon="-17.8842730">
        <ele>2206.8</ele>
        <time>2020-11-16T13:42:58Z</time>
      </trkpt>
      <trkpt lat="28.7650730" lon="-17.8842730">
        <ele>2206.8</ele>
        <time>2020-11-16T13:42:59Z</time>
      </trkpt>
      <trkpt lat="28.7650350" lon="-17.8842320">
        <ele>2207.1</ele>
        <time>2020-11-16T13:43:00Z</time>
      </trkpt>
      <trkpt lat="28.7649930" lon="-17.8841970">
        <ele>2207.4</ele>
        <time>2020-11-16T13:43:01Z</time>
      </trkpt>
      <trkpt lat="28.7649930" lon="-17.8841970">
        <ele>2207.4</ele>
        <time>2020-11-16T13:43:02Z</time>
      </trkpt>
      <trkpt lat="28.7649480" lon="-17.8841720">
        <ele>2207.7</ele>
        <time>2020-11-16T13:43:03Z</time>
      </trkpt>
      <trkpt lat="28.7649480" lon="-17.8841720">
        <ele>2207.7</ele>
        <time>2020-11-16T13:43:04Z</time>
      </trkpt>
      <trkpt lat="28.7649100" lon="-17.8841530">
        <ele>2208.0</ele>
        <time>2020-11-16T13:43:05Z</time>
      </trkpt>
      <trkpt lat="28.7649100" lon="-17.8841530">
        <ele>2208.0</ele>
        <time>2020-11-16T13:43:06Z</time>
      </trkpt>
      <trkpt lat="28.7648700" lon="-17.8841350">
        <ele>2208.2</ele>
        <time>2020-11-16T13:43:07Z</time>
      </trkpt>
      <trkpt lat="28.7648520" lon="-17.8841280">
        <ele>2208.4</ele>
        <time>2020-11-16T13:43:08Z</time>
      </trkpt>
      <trkpt lat="28.7648520" lon="-17.8841280">
        <ele>2208.4</ele>
        <time>2020-11-16T13:43:09Z</time>
      </trkpt>
      <trkpt lat="28.7648070" lon="-17.8841130">
        <ele>2208.7</ele>
        <time>2020-11-16T13:43:10Z</time>
      </trkpt>
      <trkpt lat="28.7648070" lon="-17.8841130">
        <ele>2208.7</ele>
        <time>2020-11-16T13:43:11Z</time>
      </trkpt>
      <trkpt lat="28.7647650" lon="-17.8840980">
        <ele>2209.0</ele>
        <time>2020-11-16T13:43:12Z</time>
      </trkpt>
      <trkpt lat="28.7647650" lon="-17.8840980">
        <ele>2209.0</ele>
        <time>2020-11-16T13:43:13Z</time>
      </trkpt>
      <trkpt lat="28.7647300" lon="-17.8840830">
        <ele>2209.3</ele>
        <time>2020-11-16T13:43:14Z</time>
      </trkpt>
      <trkpt lat="28.7647170" lon="-17.8840720">
        <ele>2209.4</ele>
        <time>2020-11-16T13:43:15Z</time>
      </trkpt>
      <trkpt lat="28.7647170" lon="-17.8840720">
        <ele>2209.4</ele>
        <time>2020-11-16T13:43:16Z</time>
      </trkpt>
      <trkpt lat="28.7646900" lon="-17.8840500">
        <ele>2209.7</ele>
        <time>2020-11-16T13:43:17Z</time>
      </trkpt>
      <trkpt lat="28.7646750" lon="-17.8840380">
        <ele>2209.8</ele>
        <time>2020-11-16T13:43:18Z</time>
      </trkpt>
      <trkpt lat="28.7646750" lon="-17.8840380">
        <ele>2209.8</ele>
        <time>2020-11-16T13:43:19Z</time>
      </trkpt>
      <trkpt lat="28.7646400" lon="-17.8840200">
        <ele>2210.1</ele>
        <time>2020-11-16T13:43:20Z</time>
      </trkpt>
      <trkpt lat="28.7646220" lon="-17.8840070">
        <ele>2210.3</ele>
        <time>2020-11-16T13:43:21Z</time>
      </trkpt>
      <trkpt lat="28.7646220" lon="-17.8840070">
        <ele>2210.3</ele>
        <time>2020-11-16T13:43:22Z</time>
      </trkpt>
      <trkpt lat="28.7645920" lon="-17.8839730">
        <ele>2210.6</ele>
        <time>2020-11-16T13:43:23Z</time>
      </trkpt>
      <trkpt lat="28.7645920" lon="-17.8839730">
        <ele>2210.6</ele>
        <time>2020-11-16T13:43:24Z</time>
      </trkpt>
      <trkpt lat="28.7645680" lon="-17.8839400">
        <ele>2210.9</ele>
        <time>2020-11-16T13:43:25Z</time>
      </trkpt>
      <trkpt lat="28.7645530" lon="-17.8839220">
        <ele>2211.1</ele>
        <time>2020-11-16T13:43:26Z</time>
      </trkpt>
      <trkpt lat="28.7645530" lon="-17.8839220">
        <ele>2211.1</ele>
        <time>2020-11-16T13:43:27Z</time>
      </trkpt>
      <trkpt lat="28.7645250" lon="-17.8838880">
        <ele>2211.4</ele>
        <time>2020-11-16T13:43:28Z</time>
      </trkpt>
      <trkpt lat="28.7645100" lon="-17.8838730">
        <ele>2211.5</ele>
        <time>2020-11-16T13:43:29Z</time>
      </trkpt>
      <trkpt lat="28.7645100" lon="-17.8838730">
        <ele>2211.5</ele>
        <time>2020-11-16T13:43:30Z</time>
      </trkpt>
      <trkpt lat="28.7644830" lon="-17.8838420">
        <ele>2211.8</ele>
        <time>2020-11-16T13:43:31Z</time>
      </trkpt>
      <trkpt lat="28.7644720" lon="-17.8838270">
        <ele>2212.0</ele>
        <time>2020-11-16T13:43:32Z</time>
      </trkpt>
      <trkpt lat="28.7644720" lon="-17.8838270">
        <ele>2212.0</ele>
        <time>2020-11-16T13:43:33Z</time>
      </trkpt>
      <trkpt lat="28.7644480" lon="-17.8837930">
        <ele>2212.3</ele>
        <time>2020-11-16T13:43:34Z</time>
      </trkpt>
      <trkpt lat="28.7644350" lon="-17.8837750">
        <ele>2212.5</ele>
        <time>2020-11-16T13:43:35Z</time>
      </trkpt>
      <trkpt lat="28.7644230" lon="-17.8837550">
        <ele>2212.6</ele>
        <time>2020-11-16T13:43:36Z</time>
      </trkpt>
      <trkpt lat="28.7644100" lon="-17.8837420">
        <ele>2212.8</ele>
        <time>2020-11-16T13:43:37Z</time>
      </trkpt>
      <trkpt lat="28.7643970" lon="-17.8837270">
        <ele>2212.9</ele>
        <time>2020-11-16T13:43:38Z</time>
      </trkpt>
      <trkpt lat="28.7643970" lon="-17.8837270">
        <ele>2212.9</ele>
        <time>2020-11-16T13:43:39Z</time>
      </trkpt>
      <trkpt lat="28.7643720" lon="-17.8836950">
        <ele>2213.2</ele>
        <time>2020-11-16T13:43:40Z</time>
      </trkpt>
      <trkpt lat="28.7643720" lon="-17.8836950">
        <ele>2213.2</ele>
        <time>2020-11-16T13:43:41Z</time>
      </trkpt>
      <trkpt lat="28.7643420" lon="-17.8836800">
        <ele>2213.5</ele>
        <time>2020-11-16T13:43:42Z</time>
      </trkpt>
      <trkpt lat="28.7643420" lon="-17.8836800">
        <ele>2213.5</ele>
        <time>2020-11-16T13:43:43Z</time>
      </trkpt>
      <trkpt lat="28.7643180" lon="-17.8836500">
        <ele>2213.8</ele>
        <time>2020-11-16T13:43:44Z</time>
      </trkpt>
      <trkpt lat="28.7643180" lon="-17.8836500">
        <ele>2213.8</ele>
        <time>2020-11-16T13:43:45Z</time>
      </trkpt>
      <trkpt lat="28.7642900" lon="-17.8836230">
        <ele>2214.1</ele>
        <time>2020-11-16T13:43:46Z</time>
      </trkpt>
      <trkpt lat="28.7642800" lon="-17.8836150">
        <ele>2214.2</ele>
        <time>2020-11-16T13:43:47Z</time>
      </trkpt>
      <trkpt lat="28.7642680" lon="-17.8836120">
        <ele>2214.3</ele>
        <time>2020-11-16T13:43:48Z</time>
      </trkpt>
      <trkpt lat="28.7642680" lon="-17.8836120">
        <ele>2214.3</ele>
        <time>2020-11-16T13:43:49Z</time>
      </trkpt>
      <trkpt lat="28.7642330" lon="-17.8836000">
        <ele>2214.6</ele>
        <time>2020-11-16T13:43:50Z</time>
      </trkpt>
      <trkpt lat="28.7642330" lon="-17.8836000">
        <ele>2214.6</ele>
        <time>2020-11-16T13:43:51Z</time>
      </trkpt>
      <trkpt lat="28.7641970" lon="-17.8835770">
        <ele>2215.0</ele>
        <time>2020-11-16T13:43:52Z</time>
      </trkpt>
      <trkpt lat="28.7641770" lon="-17.8835620">
        <ele>2215.1</ele>
        <time>2020-11-16T13:43:53Z</time>
      </trkpt>
      <trkpt lat="28.7641580" lon="-17.8835470">
        <ele>2215.3</ele>
        <time>2020-11-16T13:43:54Z</time>
      </trkpt>
      <trkpt lat="28.7641580" lon="-17.8835470">
        <ele>2215.3</ele>
        <time>2020-11-16T13:43:55Z</time>
      </trkpt>
      <trkpt lat="28.7641250" lon="-17.8835130">
        <ele>2215.6</ele>
        <time>2020-11-16T13:43:56Z</time>
      </trkpt>
      <trkpt lat="28.7641250" lon="-17.8835130">
        <ele>2215.6</ele>
        <time>2020-11-16T13:43:57Z</time>
      </trkpt>
      <trkpt lat="28.7640900" lon="-17.8834770">
        <ele>2215.9</ele>
        <time>2020-11-16T13:43:58Z</time>
      </trkpt>
      <trkpt lat="28.7640900" lon="-17.8834770">
        <ele>2215.9</ele>
        <time>2020-11-16T13:43:59Z</time>
      </trkpt>
      <trkpt lat="28.7640570" lon="-17.8834420">
        <ele>2216.2</ele>
        <time>2020-11-16T13:44:00Z</time>
      </trkpt>
      <trkpt lat="28.7640570" lon="-17.8834420">
        <ele>2216.2</ele>
        <time>2020-11-16T13:44:01Z</time>
      </trkpt>
      <trkpt lat="28.7640300" lon="-17.8833980">
        <ele>2216.5</ele>
        <time>2020-11-16T13:44:02Z</time>
      </trkpt>
      <trkpt lat="28.7640300" lon="-17.8833980">
        <ele>2216.5</ele>
        <time>2020-11-16T13:44:03Z</time>
      </trkpt>
      <trkpt lat="28.7640050" lon="-17.8833470">
        <ele>2216.8</ele>
        <time>2020-11-16T13:44:04Z</time>
      </trkpt>
      <trkpt lat="28.7639930" lon="-17.8833250">
        <ele>2216.9</ele>
        <time>2020-11-16T13:44:05Z</time>
      </trkpt>
      <trkpt lat="28.7639930" lon="-17.8833250">
        <ele>2216.9</ele>
        <time>2020-11-16T13:44:06Z</time>
      </trkpt>
      <trkpt lat="28.7639700" lon="-17.8832800">
        <ele>2217.1</ele>
        <time>2020-11-16T13:44:07Z</time>
      </trkpt>
      <trkpt lat="28.7639630" lon="-17.8832600">
        <ele>2217.2</ele>
        <time>2020-11-16T13:44:08Z</time>
      </trkpt>
      <trkpt lat="28.7639630" lon="-17.8832600">
        <ele>2217.2</ele>
        <time>2020-11-16T13:44:09Z</time>
      </trkpt>
      <trkpt lat="28.7639470" lon="-17.8832130">
        <ele>2217.5</ele>
        <time>2020-11-16T13:44:10Z</time>
      </trkpt>
      <trkpt lat="28.7639380" lon="-17.8831880">
        <ele>2217.6</ele>
        <time>2020-11-16T13:44:11Z</time>
      </trkpt>
      <trkpt lat="28.7639380" lon="-17.8831880">
        <ele>2217.6</ele>
        <time>2020-11-16T13:44:12Z</time>
      </trkpt>
      <trkpt lat="28.7639250" lon="-17.8831480">
        <ele>2217.9</ele>
        <time>2020-11-16T13:44:13Z</time>
      </trkpt>
      <trkpt lat="28.7639200" lon="-17.8831280">
        <ele>2218.0</ele>
        <time>2020-11-16T13:44:14Z</time>
      </trkpt>
      <trkpt lat="28.7639200" lon="-17.8831280">
        <ele>2218.0</ele>
        <time>2020-11-16T13:44:15Z</time>
      </trkpt>
      <trkpt lat="28.7639070" lon="-17.8830850">
        <ele>2218.2</ele>
        <time>2020-11-16T13:44:16Z</time>
      </trkpt>
      <trkpt lat="28.7639070" lon="-17.8830850">
        <ele>2218.2</ele>
        <time>2020-11-16T13:44:17Z</time>
      </trkpt>
      <trkpt lat="28.7638950" lon="-17.8830400">
        <ele>2218.5</ele>
        <time>2020-11-16T13:44:18Z</time>
      </trkpt>
      <trkpt lat="28.7638900" lon="-17.8830150">
        <ele>2218.6</ele>
        <time>2020-11-16T13:44:19Z</time>
      </trkpt>
      <trkpt lat="28.7638880" lon="-17.8829950">
        <ele>2218.7</ele>
        <time>2020-11-16T13:44:20Z</time>
      </trkpt>
      <trkpt lat="28.7638830" lon="-17.8829720">
        <ele>2218.8</ele>
        <time>2020-11-16T13:44:21Z</time>
      </trkpt>
      <trkpt lat="28.7638830" lon="-17.8829720">
        <ele>2218.8</ele>
        <time>2020-11-16T13:44:22Z</time>
      </trkpt>
      <trkpt lat="28.7638680" lon="-17.8829270">
        <ele>2219.1</ele>
        <time>2020-11-16T13:44:23Z</time>
      </trkpt>
      <trkpt lat="28.7638680" lon="-17.8829270">
        <ele>2219.1</ele>
        <time>2020-11-16T13:44:24Z</time>
      </trkpt>
      <trkpt lat="28.7638480" lon="-17.8828830">
        <ele>2219.3</ele>
        <time>2020-11-16T13:44:25Z</time>
      </trkpt>
      <trkpt lat="28.7638400" lon="-17.8828600">
        <ele>2219.4</ele>
        <time>2020-11-16T13:44:26Z</time>
      </trkpt>
      <trkpt lat="28.7638400" lon="-17.8828600">
        <ele>2219.4</ele>
        <time>2020-11-16T13:44:27Z</time>
      </trkpt>
      <trkpt lat="28.7638230" lon="-17.8828130">
        <ele>2219.7</ele>
        <time>2020-11-16T13:44:28Z</time>
      </trkpt>
      <trkpt lat="28.7638150" lon="-17.8827920">
        <ele>2219.8</ele>
        <time>2020-11-16T13:44:29Z</time>
      </trkpt>
      <trkpt lat="28.7638020" lon="-17.8827700">
        <ele>2220.0</ele>
        <time>2020-11-16T13:44:30Z</time>
      </trkpt>
      <trkpt lat="28.7638020" lon="-17.8827700">
        <ele>2220.0</ele>
        <time>2020-11-16T13:44:31Z</time>
      </trkpt>
      <trkpt lat="28.7637800" lon="-17.8827280">
        <ele>2220.3</ele>
        <time>2020-11-16T13:44:32Z</time>
      </trkpt>
      <trkpt lat="28.7637800" lon="-17.8827280">
        <ele>2220.3</ele>
        <time>2020-11-16T13:44:33Z</time>
      </trkpt>
      <trkpt lat="28.7637600" lon="-17.8826870">
        <ele>2220.6</ele>
        <time>2020-11-16T13:44:34Z</time>
      </trkpt>
      <trkpt lat="28.7637520" lon="-17.8826650">
        <ele>2220.8</ele>
        <time>2020-11-16T13:44:35Z</time>
      </trkpt>
      <trkpt lat="28.7637520" lon="-17.8826650">
        <ele>2220.8</ele>
        <time>2020-11-16T13:44:36Z</time>
      </trkpt>
      <trkpt lat="28.7637300" lon="-17.8826250">
        <ele>2221.1</ele>
        <time>2020-11-16T13:44:37Z</time>
      </trkpt>
      <trkpt lat="28.7637170" lon="-17.8826080">
        <ele>2221.3</ele>
        <time>2020-11-16T13:44:38Z</time>
      </trkpt>
      <trkpt lat="28.7637170" lon="-17.8826080">
        <ele>2221.3</ele>
        <time>2020-11-16T13:44:39Z</time>
      </trkpt>
      <trkpt lat="28.7636900" lon="-17.8825730">
        <ele>2221.6</ele>
        <time>2020-11-16T13:44:40Z</time>
      </trkpt>
      <trkpt lat="28.7636900" lon="-17.8825730">
        <ele>2221.6</ele>
        <time>2020-11-16T13:44:41Z</time>
      </trkpt>
      <trkpt lat="28.7636600" lon="-17.8825380">
        <ele>2221.9</ele>
        <time>2020-11-16T13:44:42Z</time>
      </trkpt>
      <trkpt lat="28.7636600" lon="-17.8825380">
        <ele>2221.9</ele>
        <time>2020-11-16T13:44:43Z</time>
      </trkpt>
      <trkpt lat="28.7636170" lon="-17.8825130">
        <ele>2222.3</ele>
        <time>2020-11-16T13:44:44Z</time>
      </trkpt>
      <trkpt lat="28.7636030" lon="-17.8824970">
        <ele>2222.5</ele>
        <time>2020-11-16T13:44:45Z</time>
      </trkpt>
      <trkpt lat="28.7636030" lon="-17.8824970">
        <ele>2222.5</ele>
        <time>2020-11-16T13:44:46Z</time>
      </trkpt>
      <trkpt lat="28.7635770" lon="-17.8824600">
        <ele>2222.8</ele>
        <time>2020-11-16T13:44:47Z</time>
      </trkpt>
      <trkpt lat="28.7635770" lon="-17.8824600">
        <ele>2222.8</ele>
        <time>2020-11-16T13:44:48Z</time>
      </trkpt>
      <trkpt lat="28.7635480" lon="-17.8824230">
        <ele>2223.2</ele>
        <time>2020-11-16T13:44:49Z</time>
      </trkpt>
      <trkpt lat="28.7635480" lon="-17.8824230">
        <ele>2223.2</ele>
        <time>2020-11-16T13:44:50Z</time>
      </trkpt>
      <trkpt lat="28.7635280" lon="-17.8823870">
        <ele>2223.5</ele>
        <time>2020-11-16T13:44:51Z</time>
      </trkpt>
      <trkpt lat="28.7635280" lon="-17.8823870">
        <ele>2223.5</ele>
        <time>2020-11-16T13:44:52Z</time>
      </trkpt>
      <trkpt lat="28.7635030" lon="-17.8823520">
        <ele>2223.9</ele>
        <time>2020-11-16T13:44:53Z</time>
      </trkpt>
      <trkpt lat="28.7635030" lon="-17.8823520">
        <ele>2223.9</ele>
        <time>2020-11-16T13:44:54Z</time>
      </trkpt>
      <trkpt lat="28.7634770" lon="-17.8823220">
        <ele>2224.2</ele>
        <time>2020-11-16T13:44:55Z</time>
      </trkpt>
      <trkpt lat="28.7634770" lon="-17.8823220">
        <ele>2224.2</ele>
        <time>2020-11-16T13:44:56Z</time>
      </trkpt>
      <trkpt lat="28.7634550" lon="-17.8822850">
        <ele>2224.6</ele>
        <time>2020-11-16T13:44:57Z</time>
      </trkpt>
      <trkpt lat="28.7634430" lon="-17.8822620">
        <ele>2224.8</ele>
        <time>2020-11-16T13:44:58Z</time>
      </trkpt>
      <trkpt lat="28.7634430" lon="-17.8822620">
        <ele>2224.8</ele>
        <time>2020-11-16T13:44:59Z</time>
      </trkpt>
      <trkpt lat="28.7634180" lon="-17.8822220">
        <ele>2225.3</ele>
        <time>2020-11-16T13:45:00Z</time>
      </trkpt>
      <trkpt lat="28.7634180" lon="-17.8822220">
        <ele>2225.3</ele>
        <time>2020-11-16T13:45:01Z</time>
      </trkpt>
      <trkpt lat="28.7633870" lon="-17.8821920">
        <ele>2225.7</ele>
        <time>2020-11-16T13:45:02Z</time>
      </trkpt>
      <trkpt lat="28.7633870" lon="-17.8821920">
        <ele>2225.7</ele>
        <time>2020-11-16T13:45:03Z</time>
      </trkpt>
      <trkpt lat="28.7633620" lon="-17.8821530">
        <ele>2226.1</ele>
        <time>2020-11-16T13:45:04Z</time>
      </trkpt>
      <trkpt lat="28.7633620" lon="-17.8821530">
        <ele>2226.1</ele>
        <time>2020-11-16T13:45:05Z</time>
      </trkpt>
      <trkpt lat="28.7633330" lon="-17.8821170">
        <ele>2226.5</ele>
        <time>2020-11-16T13:45:06Z</time>
      </trkpt>
      <trkpt lat="28.7633170" lon="-17.8821020">
        <ele>2226.7</ele>
        <time>2020-11-16T13:45:07Z</time>
      </trkpt>
      <trkpt lat="28.7633170" lon="-17.8821020">
        <ele>2226.7</ele>
        <time>2020-11-16T13:45:08Z</time>
      </trkpt>
      <trkpt lat="28.7632870" lon="-17.8820630">
        <ele>2227.1</ele>
        <time>2020-11-16T13:45:09Z</time>
      </trkpt>
      <trkpt lat="28.7632870" lon="-17.8820630">
        <ele>2227.1</ele>
        <time>2020-11-16T13:45:10Z</time>
      </trkpt>
      <trkpt lat="28.7632620" lon="-17.8820230">
        <ele>2227.6</ele>
        <time>2020-11-16T13:45:11Z</time>
      </trkpt>
      <trkpt lat="28.7632620" lon="-17.8820230">
        <ele>2227.6</ele>
        <time>2020-11-16T13:45:12Z</time>
      </trkpt>
      <trkpt lat="28.7632300" lon="-17.8819930">
        <ele>2228.0</ele>
        <time>2020-11-16T13:45:13Z</time>
      </trkpt>
      <trkpt lat="28.7632120" lon="-17.8819880">
        <ele>2228.1</ele>
        <time>2020-11-16T13:45:14Z</time>
      </trkpt>
      <trkpt lat="28.7632120" lon="-17.8819880">
        <ele>2228.1</ele>
        <time>2020-11-16T13:45:15Z</time>
      </trkpt>
      <trkpt lat="28.7631730" lon="-17.8819570">
        <ele>2228.6</ele>
        <time>2020-11-16T13:45:16Z</time>
      </trkpt>
      <trkpt lat="28.7631730" lon="-17.8819570">
        <ele>2228.6</ele>
        <time>2020-11-16T13:45:17Z</time>
      </trkpt>
      <trkpt lat="28.7631570" lon="-17.8819330">
        <ele>2228.8</ele>
        <time>2020-11-16T13:45:18Z</time>
      </trkpt>
      <trkpt lat="28.7631570" lon="-17.8819330">
        <ele>2228.8</ele>
        <time>2020-11-16T13:45:19Z</time>
      </trkpt>
      <trkpt lat="28.7631280" lon="-17.8819050">
        <ele>2229.2</ele>
        <time>2020-11-16T13:45:20Z</time>
      </trkpt>
      <trkpt lat="28.7631280" lon="-17.8819050">
        <ele>2229.2</ele>
        <time>2020-11-16T13:45:21Z</time>
      </trkpt>
      <trkpt lat="28.7631020" lon="-17.8818680">
        <ele>2229.5</ele>
        <time>2020-11-16T13:45:22Z</time>
      </trkpt>
      <trkpt lat="28.7630880" lon="-17.8818500">
        <ele>2229.7</ele>
        <time>2020-11-16T13:45:23Z</time>
      </trkpt>
      <trkpt lat="28.7630880" lon="-17.8818500">
        <ele>2229.7</ele>
        <time>2020-11-16T13:45:24Z</time>
      </trkpt>
      <trkpt lat="28.7630620" lon="-17.8818080">
        <ele>2230.1</ele>
        <time>2020-11-16T13:45:25Z</time>
      </trkpt>
      <trkpt lat="28.7630620" lon="-17.8818080">
        <ele>2230.1</ele>
        <time>2020-11-16T13:45:26Z</time>
      </trkpt>
      <trkpt lat="28.7630370" lon="-17.8817680">
        <ele>2230.5</ele>
        <time>2020-11-16T13:45:27Z</time>
      </trkpt>
      <trkpt lat="28.7630370" lon="-17.8817680">
        <ele>2230.5</ele>
        <time>2020-11-16T13:45:28Z</time>
      </trkpt>
      <trkpt lat="28.7630100" lon="-17.8817330">
        <ele>2230.9</ele>
        <time>2020-11-16T13:45:29Z</time>
      </trkpt>
      <trkpt lat="28.7629950" lon="-17.8817170">
        <ele>2231.1</ele>
        <time>2020-11-16T13:45:30Z</time>
      </trkpt>
      <trkpt lat="28.7629950" lon="-17.8817170">
        <ele>2231.1</ele>
        <time>2020-11-16T13:45:31Z</time>
      </trkpt>
      <trkpt lat="28.7629730" lon="-17.8816770">
        <ele>2231.4</ele>
        <time>2020-11-16T13:45:32Z</time>
      </trkpt>
      <trkpt lat="28.7629730" lon="-17.8816770">
        <ele>2231.4</ele>
        <time>2020-11-16T13:45:33Z</time>
      </trkpt>
      <trkpt lat="28.7629550" lon="-17.8816330">
        <ele>2231.8</ele>
        <time>2020-11-16T13:45:34Z</time>
      </trkpt>
      <trkpt lat="28.7629550" lon="-17.8816330">
        <ele>2231.8</ele>
        <time>2020-11-16T13:45:35Z</time>
      </trkpt>
      <trkpt lat="28.7629320" lon="-17.8815880">
        <ele>2232.2</ele>
        <time>2020-11-16T13:45:36Z</time>
      </trkpt>
      <trkpt lat="28.7629320" lon="-17.8815880">
        <ele>2232.2</ele>
        <time>2020-11-16T13:45:37Z</time>
      </trkpt>
      <trkpt lat="28.7628970" lon="-17.8815430">
        <ele>2232.5</ele>
        <time>2020-11-16T13:45:38Z</time>
      </trkpt>
      <trkpt lat="28.7628970" lon="-17.8815430">
        <ele>2232.5</ele>
        <time>2020-11-16T13:45:39Z</time>
      </trkpt>
      <trkpt lat="28.7628700" lon="-17.8814980">
        <ele>2232.9</ele>
        <time>2020-11-16T13:45:40Z</time>
      </trkpt>
      <trkpt lat="28.7628700" lon="-17.8814980">
        <ele>2232.9</ele>
        <time>2020-11-16T13:45:41Z</time>
      </trkpt>
      <trkpt lat="28.7628520" lon="-17.8814520">
        <ele>2233.1</ele>
        <time>2020-11-16T13:45:42Z</time>
      </trkpt>
      <trkpt lat="28.7628380" lon="-17.8814280">
        <ele>2233.2</ele>
        <time>2020-11-16T13:45:43Z</time>
      </trkpt>
      <trkpt lat="28.7628380" lon="-17.8814280">
        <ele>2233.2</ele>
        <time>2020-11-16T13:45:44Z</time>
      </trkpt>
      <trkpt lat="28.7628120" lon="-17.8813780">
        <ele>2233.5</ele>
        <time>2020-11-16T13:45:45Z</time>
      </trkpt>
      <trkpt lat="28.7628030" lon="-17.8813500">
        <ele>2233.6</ele>
        <time>2020-11-16T13:45:46Z</time>
      </trkpt>
      <trkpt lat="28.7628030" lon="-17.8813500">
        <ele>2233.6</ele>
        <time>2020-11-16T13:45:47Z</time>
      </trkpt>
      <trkpt lat="28.7627870" lon="-17.8812970">
        <ele>2233.8</ele>
        <time>2020-11-16T13:45:48Z</time>
      </trkpt>
      <trkpt lat="28.7627870" lon="-17.8812970">
        <ele>2233.8</ele>
        <time>2020-11-16T13:45:49Z</time>
      </trkpt>
      <trkpt lat="28.7627780" lon="-17.8812450">
        <ele>2234.1</ele>
        <time>2020-11-16T13:45:50Z</time>
      </trkpt>
      <trkpt lat="28.7627780" lon="-17.8812450">
        <ele>2234.1</ele>
        <time>2020-11-16T13:45:51Z</time>
      </trkpt>
      <trkpt lat="28.7627700" lon="-17.8811820">
        <ele>2234.4</ele>
        <time>2020-11-16T13:45:52Z</time>
      </trkpt>
      <trkpt lat="28.7627670" lon="-17.8811500">
        <ele>2234.6</ele>
        <time>2020-11-16T13:45:53Z</time>
      </trkpt>
      <trkpt lat="28.7627670" lon="-17.8811500">
        <ele>2234.6</ele>
        <time>2020-11-16T13:45:54Z</time>
      </trkpt>
      <trkpt lat="28.7627670" lon="-17.8810800">
        <ele>2235.0</ele>
        <time>2020-11-16T13:45:55Z</time>
      </trkpt>
      <trkpt lat="28.7627680" lon="-17.8810450">
        <ele>2235.3</ele>
        <time>2020-11-16T13:45:56Z</time>
      </trkpt>
      <trkpt lat="28.7627680" lon="-17.8810450">
        <ele>2235.3</ele>
        <time>2020-11-16T13:45:57Z</time>
      </trkpt>
      <trkpt lat="28.7627830" lon="-17.8809820">
        <ele>2235.8</ele>
        <time>2020-11-16T13:45:58Z</time>
      </trkpt>
      <trkpt lat="28.7627830" lon="-17.8809820">
        <ele>2235.8</ele>
        <time>2020-11-16T13:45:59Z</time>
      </trkpt>
      <trkpt lat="28.7627950" lon="-17.8809530">
        <ele>2236.0</ele>
        <time>2020-11-16T13:46:00Z</time>
      </trkpt>
      <trkpt lat="28.7628370" lon="-17.8809100">
        <ele>2236.4</ele>
        <time>2020-11-16T13:46:01Z</time>
      </trkpt>
      <trkpt lat="28.7628580" lon="-17.8808920">
        <ele>2236.6</ele>
        <time>2020-11-16T13:46:02Z</time>
      </trkpt>
      <trkpt lat="28.7628580" lon="-17.8808920">
        <ele>2236.6</ele>
        <time>2020-11-16T13:46:03Z</time>
      </trkpt>
      <trkpt lat="28.7629030" lon="-17.8808580">
        <ele>2236.9</ele>
        <time>2020-11-16T13:46:04Z</time>
      </trkpt>
      <trkpt lat="28.7629030" lon="-17.8808580">
        <ele>2236.9</ele>
        <time>2020-11-16T13:46:05Z</time>
      </trkpt>
      <trkpt lat="28.7629550" lon="-17.8808280">
        <ele>2237.1</ele>
        <time>2020-11-16T13:46:06Z</time>
      </trkpt>
      <trkpt lat="28.7629550" lon="-17.8808280">
        <ele>2237.1</ele>
        <time>2020-11-16T13:46:07Z</time>
      </trkpt>
      <trkpt lat="28.7630150" lon="-17.8808130">
        <ele>2237.2</ele>
        <time>2020-11-16T13:46:08Z</time>
      </trkpt>
      <trkpt lat="28.7630150" lon="-17.8808130">
        <ele>2237.2</ele>
        <time>2020-11-16T13:46:09Z</time>
      </trkpt>
      <trkpt lat="28.7630830" lon="-17.8808070">
        <ele>2237.4</ele>
        <time>2020-11-16T13:46:10Z</time>
      </trkpt>
      <trkpt lat="28.7630830" lon="-17.8808070">
        <ele>2237.4</ele>
        <time>2020-11-16T13:46:11Z</time>
      </trkpt>
      <trkpt lat="28.7631420" lon="-17.8808050">
        <ele>2237.5</ele>
        <time>2020-11-16T13:46:12Z</time>
      </trkpt>
      <trkpt lat="28.7631420" lon="-17.8808050">
        <ele>2237.5</ele>
        <time>2020-11-16T13:46:13Z</time>
      </trkpt>
      <trkpt lat="28.7631950" lon="-17.8808080">
        <ele>2237.5</ele>
        <time>2020-11-16T13:46:14Z</time>
      </trkpt>
      <trkpt lat="28.7631950" lon="-17.8808080">
        <ele>2237.5</ele>
        <time>2020-11-16T13:46:15Z</time>
      </trkpt>
      <trkpt lat="28.7632450" lon="-17.8808100">
        <ele>2237.6</ele>
        <time>2020-11-16T13:46:16Z</time>
      </trkpt>
      <trkpt lat="28.7632450" lon="-17.8808100">
        <ele>2237.6</ele>
        <time>2020-11-16T13:46:17Z</time>
      </trkpt>
      <trkpt lat="28.7633030" lon="-17.8808020">
        <ele>2237.6</ele>
        <time>2020-11-16T13:46:18Z</time>
      </trkpt>
      <trkpt lat="28.7633030" lon="-17.8808020">
        <ele>2237.6</ele>
        <time>2020-11-16T13:46:19Z</time>
      </trkpt>
      <trkpt lat="28.7633520" lon="-17.8807580">
        <ele>2237.6</ele>
        <time>2020-11-16T13:46:20Z</time>
      </trkpt>
      <trkpt lat="28.7633520" lon="-17.8807580">
        <ele>2237.6</ele>
        <time>2020-11-16T13:46:21Z</time>
      </trkpt>
      <trkpt lat="28.7633800" lon="-17.8807000">
        <ele>2237.6</ele>
        <time>2020-11-16T13:46:22Z</time>
      </trkpt>
      <trkpt lat="28.7633800" lon="-17.8807000">
        <ele>2237.6</ele>
        <time>2020-11-16T13:46:23Z</time>
      </trkpt>
      <trkpt lat="28.7633980" lon="-17.8806300">
        <ele>2237.8</ele>
        <time>2020-11-16T13:46:24Z</time>
      </trkpt>
      <trkpt lat="28.7634100" lon="-17.8805920">
        <ele>2237.8</ele>
        <time>2020-11-16T13:46:25Z</time>
      </trkpt>
      <trkpt lat="28.7634100" lon="-17.8805920">
        <ele>2237.8</ele>
        <time>2020-11-16T13:46:26Z</time>
      </trkpt>
      <trkpt lat="28.7634450" lon="-17.8805250">
        <ele>2238.1</ele>
        <time>2020-11-16T13:46:27Z</time>
      </trkpt>
      <trkpt lat="28.7634450" lon="-17.8805250">
        <ele>2238.1</ele>
        <time>2020-11-16T13:46:28Z</time>
      </trkpt>
      <trkpt lat="28.7634820" lon="-17.8804620">
        <ele>2238.3</ele>
        <time>2020-11-16T13:46:29Z</time>
      </trkpt>
      <trkpt lat="28.7635080" lon="-17.8804370">
        <ele>2238.4</ele>
        <time>2020-11-16T13:46:30Z</time>
      </trkpt>
      <trkpt lat="28.7635080" lon="-17.8804370">
        <ele>2238.4</ele>
        <time>2020-11-16T13:46:31Z</time>
      </trkpt>
      <trkpt lat="28.7635700" lon="-17.8803950">
        <ele>2238.6</ele>
        <time>2020-11-16T13:46:32Z</time>
      </trkpt>
      <trkpt lat="28.7636000" lon="-17.8803780">
        <ele>2238.7</ele>
        <time>2020-11-16T13:46:33Z</time>
      </trkpt>
      <trkpt lat="28.7636000" lon="-17.8803780">
        <ele>2238.7</ele>
        <time>2020-11-16T13:46:34Z</time>
      </trkpt>
      <trkpt lat="28.7636620" lon="-17.8803550">
        <ele>2238.9</ele>
        <time>2020-11-16T13:46:35Z</time>
      </trkpt>
      <trkpt lat="28.7636620" lon="-17.8803550">
        <ele>2238.9</ele>
        <time>2020-11-16T13:46:36Z</time>
      </trkpt>
      <trkpt lat="28.7637350" lon="-17.8803350">
        <ele>2239.2</ele>
        <time>2020-11-16T13:46:37Z</time>
      </trkpt>
      <trkpt lat="28.7637800" lon="-17.8803280">
        <ele>2239.4</ele>
        <time>2020-11-16T13:46:38Z</time>
      </trkpt>
      <trkpt lat="28.7637800" lon="-17.8803280">
        <ele>2239.4</ele>
        <time>2020-11-16T13:46:39Z</time>
      </trkpt>
      <trkpt lat="28.7638400" lon="-17.8803050">
        <ele>2239.7</ele>
        <time>2020-11-16T13:46:40Z</time>
      </trkpt>
      <trkpt lat="28.7638400" lon="-17.8803050">
        <ele>2239.7</ele>
        <time>2020-11-16T13:46:41Z</time>
      </trkpt>
      <trkpt lat="28.7638980" lon="-17.8802830">
        <ele>2240.1</ele>
        <time>2020-11-16T13:46:42Z</time>
      </trkpt>
      <trkpt lat="28.7638980" lon="-17.8802830">
        <ele>2240.1</ele>
        <time>2020-11-16T13:46:43Z</time>
      </trkpt>
      <trkpt lat="28.7639580" lon="-17.8802550">
        <ele>2240.4</ele>
        <time>2020-11-16T13:46:44Z</time>
      </trkpt>
      <trkpt lat="28.7639580" lon="-17.8802550">
        <ele>2240.4</ele>
        <time>2020-11-16T13:46:45Z</time>
      </trkpt>
      <trkpt lat="28.7640270" lon="-17.8802330">
        <ele>2240.7</ele>
        <time>2020-11-16T13:46:46Z</time>
      </trkpt>
      <trkpt lat="28.7640480" lon="-17.8802150">
        <ele>2240.9</ele>
        <time>2020-11-16T13:46:47Z</time>
      </trkpt>
      <trkpt lat="28.7640480" lon="-17.8802150">
        <ele>2240.9</ele>
        <time>2020-11-16T13:46:48Z</time>
      </trkpt>
      <trkpt lat="28.7641100" lon="-17.8801830">
        <ele>2241.1</ele>
        <time>2020-11-16T13:46:49Z</time>
      </trkpt>
      <trkpt lat="28.7641450" lon="-17.8801720">
        <ele>2241.3</ele>
        <time>2020-11-16T13:46:50Z</time>
      </trkpt>
      <trkpt lat="28.7641450" lon="-17.8801720">
        <ele>2241.3</ele>
        <time>2020-11-16T13:46:51Z</time>
      </trkpt>
      <trkpt lat="28.7642100" lon="-17.8801430">
        <ele>2241.5</ele>
        <time>2020-11-16T13:46:52Z</time>
      </trkpt>
      <trkpt lat="28.7642100" lon="-17.8801430">
        <ele>2241.5</ele>
        <time>2020-11-16T13:46:53Z</time>
      </trkpt>
      <trkpt lat="28.7642620" lon="-17.8801050">
        <ele>2241.7</ele>
        <time>2020-11-16T13:46:54Z</time>
      </trkpt>
      <trkpt lat="28.7642620" lon="-17.8801050">
        <ele>2241.7</ele>
        <time>2020-11-16T13:46:55Z</time>
      </trkpt>
      <trkpt lat="28.7643050" lon="-17.8800500">
        <ele>2242.0</ele>
        <time>2020-11-16T13:46:56Z</time>
      </trkpt>
      <trkpt lat="28.7643050" lon="-17.8800500">
        <ele>2242.0</ele>
        <time>2020-11-16T13:46:57Z</time>
      </trkpt>
      <trkpt lat="28.7643220" lon="-17.8799830">
        <ele>2242.2</ele>
        <time>2020-11-16T13:46:58Z</time>
      </trkpt>
      <trkpt lat="28.7643220" lon="-17.8799830">
        <ele>2242.2</ele>
        <time>2020-11-16T13:46:59Z</time>
      </trkpt>
      <trkpt lat="28.7643170" lon="-17.8799130">
        <ele>2242.4</ele>
        <time>2020-11-16T13:47:00Z</time>
      </trkpt>
      <trkpt lat="28.7643050" lon="-17.8798800">
        <ele>2242.5</ele>
        <time>2020-11-16T13:47:01Z</time>
      </trkpt>
      <trkpt lat="28.7643050" lon="-17.8798800">
        <ele>2242.5</ele>
        <time>2020-11-16T13:47:02Z</time>
      </trkpt>
      <trkpt lat="28.7642730" lon="-17.8798180">
        <ele>2242.7</ele>
        <time>2020-11-16T13:47:03Z</time>
      </trkpt>
      <trkpt lat="28.7642730" lon="-17.8798180">
        <ele>2242.7</ele>
        <time>2020-11-16T13:47:04Z</time>
      </trkpt>
      <trkpt lat="28.7642500" lon="-17.8797550">
        <ele>2242.9</ele>
        <time>2020-11-16T13:47:05Z</time>
      </trkpt>
      <trkpt lat="28.7642500" lon="-17.8797550">
        <ele>2242.9</ele>
        <time>2020-11-16T13:47:06Z</time>
      </trkpt>
      <trkpt lat="28.7642120" lon="-17.8796970">
        <ele>2243.1</ele>
        <time>2020-11-16T13:47:07Z</time>
      </trkpt>
      <trkpt lat="28.7641920" lon="-17.8796700">
        <ele>2243.1</ele>
        <time>2020-11-16T13:47:08Z</time>
      </trkpt>
      <trkpt lat="28.7641920" lon="-17.8796700">
        <ele>2243.1</ele>
        <time>2020-11-16T13:47:09Z</time>
      </trkpt>
      <trkpt lat="28.7641480" lon="-17.8796170">
        <ele>2243.3</ele>
        <time>2020-11-16T13:47:10Z</time>
      </trkpt>
      <trkpt lat="28.7641480" lon="-17.8796170">
        <ele>2243.3</ele>
        <time>2020-11-16T13:47:11Z</time>
      </trkpt>
      <trkpt lat="28.7641080" lon="-17.8795630">
        <ele>2243.6</ele>
        <time>2020-11-16T13:47:12Z</time>
      </trkpt>
      <trkpt lat="28.7640870" lon="-17.8795350">
        <ele>2243.7</ele>
        <time>2020-11-16T13:47:13Z</time>
      </trkpt>
      <trkpt lat="28.7640870" lon="-17.8795350">
        <ele>2243.7</ele>
        <time>2020-11-16T13:47:14Z</time>
      </trkpt>
      <trkpt lat="28.7640420" lon="-17.8794770">
        <ele>2244.1</ele>
        <time>2020-11-16T13:47:15Z</time>
      </trkpt>
      <trkpt lat="28.7640420" lon="-17.8794770">
        <ele>2244.1</ele>
        <time>2020-11-16T13:47:16Z</time>
      </trkpt>
      <trkpt lat="28.7640000" lon="-17.8794180">
        <ele>2244.5</ele>
        <time>2020-11-16T13:47:17Z</time>
      </trkpt>
      <trkpt lat="28.7640000" lon="-17.8794180">
        <ele>2244.5</ele>
        <time>2020-11-16T13:47:18Z</time>
      </trkpt>
      <trkpt lat="28.7639450" lon="-17.8793500">
        <ele>2244.9</ele>
        <time>2020-11-16T13:47:19Z</time>
      </trkpt>
      <trkpt lat="28.7639450" lon="-17.8793500">
        <ele>2244.9</ele>
        <time>2020-11-16T13:47:20Z</time>
      </trkpt>
      <trkpt lat="28.7639070" lon="-17.8792850">
        <ele>2245.3</ele>
        <time>2020-11-16T13:47:21Z</time>
      </trkpt>
      <trkpt lat="28.7639070" lon="-17.8792850">
        <ele>2245.3</ele>
        <time>2020-11-16T13:47:22Z</time>
      </trkpt>
      <trkpt lat="28.7638850" lon="-17.8792150">
        <ele>2245.6</ele>
        <time>2020-11-16T13:47:23Z</time>
      </trkpt>
      <trkpt lat="28.7638850" lon="-17.8792150">
        <ele>2245.6</ele>
        <time>2020-11-16T13:47:24Z</time>
      </trkpt>
      <trkpt lat="28.7638780" lon="-17.8791420">
        <ele>2246.0</ele>
        <time>2020-11-16T13:47:25Z</time>
      </trkpt>
      <trkpt lat="28.7638750" lon="-17.8791030">
        <ele>2246.1</ele>
        <time>2020-11-16T13:47:26Z</time>
      </trkpt>
      <trkpt lat="28.7638750" lon="-17.8791030">
        <ele>2246.1</ele>
        <time>2020-11-16T13:47:27Z</time>
      </trkpt>
      <trkpt lat="28.7638650" lon="-17.8790220">
        <ele>2246.3</ele>
        <time>2020-11-16T13:47:28Z</time>
      </trkpt>
      <trkpt lat="28.7638570" lon="-17.8789780">
        <ele>2246.4</ele>
        <time>2020-11-16T13:47:29Z</time>
      </trkpt>
      <trkpt lat="28.7638450" lon="-17.8789350">
        <ele>2246.5</ele>
        <time>2020-11-16T13:47:30Z</time>
      </trkpt>
      <trkpt lat="28.7638450" lon="-17.8789350">
        <ele>2246.5</ele>
        <time>2020-11-16T13:47:31Z</time>
      </trkpt>
      <trkpt lat="28.7638180" lon="-17.8788480">
        <ele>2246.7</ele>
        <time>2020-11-16T13:47:32Z</time>
      </trkpt>
      <trkpt lat="28.7638180" lon="-17.8788480">
        <ele>2246.7</ele>
        <time>2020-11-16T13:47:33Z</time>
      </trkpt>
      <trkpt lat="28.7637880" lon="-17.8787630">
        <ele>2247.0</ele>
        <time>2020-11-16T13:47:34Z</time>
      </trkpt>
      <trkpt lat="28.7637880" lon="-17.8787630">
        <ele>2247.0</ele>
        <time>2020-11-16T13:47:35Z</time>
      </trkpt>
      <trkpt lat="28.7637620" lon="-17.8786800">
        <ele>2247.2</ele>
        <time>2020-11-16T13:47:36Z</time>
      </trkpt>
      <trkpt lat="28.7637480" lon="-17.8786370">
        <ele>2247.3</ele>
        <time>2020-11-16T13:47:37Z</time>
      </trkpt>
      <trkpt lat="28.7637370" lon="-17.8785950">
        <ele>2247.4</ele>
        <time>2020-11-16T13:47:38Z</time>
      </trkpt>
      <trkpt lat="28.7637370" lon="-17.8785950">
        <ele>2247.4</ele>
        <time>2020-11-16T13:47:39Z</time>
      </trkpt>
      <trkpt lat="28.7637200" lon="-17.8785070">
        <ele>2247.7</ele>
        <time>2020-11-16T13:47:40Z</time>
      </trkpt>
      <trkpt lat="28.7637200" lon="-17.8785070">
        <ele>2247.7</ele>
        <time>2020-11-16T13:47:41Z</time>
      </trkpt>
      <trkpt lat="28.7637120" lon="-17.8784170">
        <ele>2248.0</ele>
        <time>2020-11-16T13:47:42Z</time>
      </trkpt>
      <trkpt lat="28.7637120" lon="-17.8784170">
        <ele>2248.0</ele>
        <time>2020-11-16T13:47:43Z</time>
      </trkpt>
      <trkpt lat="28.7637250" lon="-17.8783250">
        <ele>2248.2</ele>
        <time>2020-11-16T13:47:44Z</time>
      </trkpt>
      <trkpt lat="28.7637250" lon="-17.8783250">
        <ele>2248.2</ele>
        <time>2020-11-16T13:47:45Z</time>
      </trkpt>
      <trkpt lat="28.7637530" lon="-17.8782380">
        <ele>2248.5</ele>
        <time>2020-11-16T13:47:46Z</time>
      </trkpt>
      <trkpt lat="28.7637720" lon="-17.8781950">
        <ele>2248.6</ele>
        <time>2020-11-16T13:47:47Z</time>
      </trkpt>
      <trkpt lat="28.7637900" lon="-17.8781530">
        <ele>2248.7</ele>
        <time>2020-11-16T13:47:48Z</time>
      </trkpt>
      <trkpt lat="28.7637900" lon="-17.8781530">
        <ele>2248.7</ele>
        <time>2020-11-16T13:47:49Z</time>
      </trkpt>
      <trkpt lat="28.7638220" lon="-17.8780670">
        <ele>2249.0</ele>
        <time>2020-11-16T13:47:50Z</time>
      </trkpt>
      <trkpt lat="28.7638220" lon="-17.8780670">
        <ele>2249.0</ele>
        <time>2020-11-16T13:47:51Z</time>
      </trkpt>
      <trkpt lat="28.7638580" lon="-17.8779850">
        <ele>2249.3</ele>
        <time>2020-11-16T13:47:52Z</time>
      </trkpt>
      <trkpt lat="28.7638580" lon="-17.8779850">
        <ele>2249.3</ele>
        <time>2020-11-16T13:47:53Z</time>
      </trkpt>
      <trkpt lat="28.7638900" lon="-17.8779050">
        <ele>2249.5</ele>
        <time>2020-11-16T13:47:54Z</time>
      </trkpt>
      <trkpt lat="28.7638900" lon="-17.8779050">
        <ele>2249.5</ele>
        <time>2020-11-16T13:47:55Z</time>
      </trkpt>
      <trkpt lat="28.7639320" lon="-17.8778300">
        <ele>2249.8</ele>
        <time>2020-11-16T13:47:56Z</time>
      </trkpt>
      <trkpt lat="28.7639320" lon="-17.8778300">
        <ele>2249.8</ele>
        <time>2020-11-16T13:47:57Z</time>
      </trkpt>
      <trkpt lat="28.7639630" lon="-17.8777550">
        <ele>2250.1</ele>
        <time>2020-11-16T13:47:58Z</time>
      </trkpt>
      <trkpt lat="28.7639630" lon="-17.8777550">
        <ele>2250.1</ele>
        <time>2020-11-16T13:47:59Z</time>
      </trkpt>
      <trkpt lat="28.7639970" lon="-17.8776830">
        <ele>2250.4</ele>
        <time>2020-11-16T13:48:00Z</time>
      </trkpt>
      <trkpt lat="28.7640150" lon="-17.8776480">
        <ele>2250.6</ele>
        <time>2020-11-16T13:48:01Z</time>
      </trkpt>
      <trkpt lat="28.7640150" lon="-17.8776480">
        <ele>2250.6</ele>
        <time>2020-11-16T13:48:02Z</time>
      </trkpt>
      <trkpt lat="28.7640550" lon="-17.8775870">
        <ele>2250.9</ele>
        <time>2020-11-16T13:48:03Z</time>
      </trkpt>
      <trkpt lat="28.7640800" lon="-17.8775600">
        <ele>2251.1</ele>
        <time>2020-11-16T13:48:04Z</time>
      </trkpt>
      <trkpt lat="28.7641020" lon="-17.8775330">
        <ele>2251.3</ele>
        <time>2020-11-16T13:48:05Z</time>
      </trkpt>
      <trkpt lat="28.7641230" lon="-17.8775100">
        <ele>2251.5</ele>
        <time>2020-11-16T13:48:06Z</time>
      </trkpt>
      <trkpt lat="28.7641230" lon="-17.8775100">
        <ele>2251.5</ele>
        <time>2020-11-16T13:48:07Z</time>
      </trkpt>
      <trkpt lat="28.7641700" lon="-17.8774680">
        <ele>2251.8</ele>
        <time>2020-11-16T13:48:08Z</time>
      </trkpt>
      <trkpt lat="28.7641700" lon="-17.8774680">
        <ele>2251.8</ele>
        <time>2020-11-16T13:48:09Z</time>
      </trkpt>
      <trkpt lat="28.7642200" lon="-17.8774330">
        <ele>2252.2</ele>
        <time>2020-11-16T13:48:10Z</time>
      </trkpt>
      <trkpt lat="28.7642450" lon="-17.8774150">
        <ele>2252.4</ele>
        <time>2020-11-16T13:48:11Z</time>
      </trkpt>
      <trkpt lat="28.7642450" lon="-17.8774150">
        <ele>2252.4</ele>
        <time>2020-11-16T13:48:12Z</time>
      </trkpt>
      <trkpt lat="28.7642920" lon="-17.8773730">
        <ele>2252.8</ele>
        <time>2020-11-16T13:48:13Z</time>
      </trkpt>
      <trkpt lat="28.7643150" lon="-17.8773520">
        <ele>2253.0</ele>
        <time>2020-11-16T13:48:14Z</time>
      </trkpt>
      <trkpt lat="28.7643150" lon="-17.8773520">
        <ele>2253.0</ele>
        <time>2020-11-16T13:48:15Z</time>
      </trkpt>
      <trkpt lat="28.7643500" lon="-17.8772950">
        <ele>2253.4</ele>
        <time>2020-11-16T13:48:16Z</time>
      </trkpt>
      <trkpt lat="28.7643650" lon="-17.8772650">
        <ele>2253.5</ele>
        <time>2020-11-16T13:48:17Z</time>
      </trkpt>
      <trkpt lat="28.7643650" lon="-17.8772650">
        <ele>2253.5</ele>
        <time>2020-11-16T13:48:18Z</time>
      </trkpt>
      <trkpt lat="28.7643800" lon="-17.8772020">
        <ele>2253.8</ele>
        <time>2020-11-16T13:48:19Z</time>
      </trkpt>
      <trkpt lat="28.7643750" lon="-17.8771700">
        <ele>2253.9</ele>
        <time>2020-11-16T13:48:20Z</time>
      </trkpt>
      <trkpt lat="28.7643750" lon="-17.8771700">
        <ele>2253.9</ele>
        <time>2020-11-16T13:48:21Z</time>
      </trkpt>
      <trkpt lat="28.7643470" lon="-17.8771070">
        <ele>2254.2</ele>
        <time>2020-11-16T13:48:22Z</time>
      </trkpt>
      <trkpt lat="28.7643470" lon="-17.8771070">
        <ele>2254.2</ele>
        <time>2020-11-16T13:48:23Z</time>
      </trkpt>
      <trkpt lat="28.7643080" lon="-17.8770470">
        <ele>2254.4</ele>
        <time>2020-11-16T13:48:24Z</time>
      </trkpt>
      <trkpt lat="28.7642900" lon="-17.8770170">
        <ele>2254.6</ele>
        <time>2020-11-16T13:48:25Z</time>
      </trkpt>
      <trkpt lat="28.7642900" lon="-17.8770170">
        <ele>2254.6</ele>
        <time>2020-11-16T13:48:26Z</time>
      </trkpt>
      <trkpt lat="28.7642580" lon="-17.8769580">
        <ele>2254.8</ele>
        <time>2020-11-16T13:48:27Z</time>
      </trkpt>
      <trkpt lat="28.7642400" lon="-17.8769280">
        <ele>2254.9</ele>
        <time>2020-11-16T13:48:28Z</time>
      </trkpt>
      <trkpt lat="28.7642400" lon="-17.8769280">
        <ele>2254.9</ele>
        <time>2020-11-16T13:48:29Z</time>
      </trkpt>
      <trkpt lat="28.7642070" lon="-17.8768680">
        <ele>2255.1</ele>
        <time>2020-11-16T13:48:30Z</time>
      </trkpt>
      <trkpt lat="28.7642070" lon="-17.8768680">
        <ele>2255.1</ele>
        <time>2020-11-16T13:48:31Z</time>
      </trkpt>
      <trkpt lat="28.7641670" lon="-17.8768120">
        <ele>2255.4</ele>
        <time>2020-11-16T13:48:32Z</time>
      </trkpt>
      <trkpt lat="28.7641670" lon="-17.8768120">
        <ele>2255.4</ele>
        <time>2020-11-16T13:48:33Z</time>
      </trkpt>
      <trkpt lat="28.7641230" lon="-17.8767570">
        <ele>2255.7</ele>
        <time>2020-11-16T13:48:34Z</time>
      </trkpt>
      <trkpt lat="28.7641230" lon="-17.8767570">
        <ele>2255.7</ele>
        <time>2020-11-16T13:48:35Z</time>
      </trkpt>
      <trkpt lat="28.7640870" lon="-17.8766970">
        <ele>2255.9</ele>
        <time>2020-11-16T13:48:36Z</time>
      </trkpt>
      <trkpt lat="28.7640870" lon="-17.8766970">
        <ele>2255.9</ele>
        <time>2020-11-16T13:48:37Z</time>
      </trkpt>
      <trkpt lat="28.7640550" lon="-17.8766370">
        <ele>2256.2</ele>
        <time>2020-11-16T13:48:38Z</time>
      </trkpt>
      <trkpt lat="28.7640550" lon="-17.8766370">
        <ele>2256.2</ele>
        <time>2020-11-16T13:48:39Z</time>
      </trkpt>
      <trkpt lat="28.7640220" lon="-17.8765750">
        <ele>2256.4</ele>
        <time>2020-11-16T13:48:40Z</time>
      </trkpt>
      <trkpt lat="28.7640050" lon="-17.8765450">
        <ele>2256.6</ele>
        <time>2020-11-16T13:48:41Z</time>
      </trkpt>
      <trkpt lat="28.7640050" lon="-17.8765450">
        <ele>2256.6</ele>
        <time>2020-11-16T13:48:42Z</time>
      </trkpt>
      <trkpt lat="28.7639670" lon="-17.8764870">
        <ele>2256.8</ele>
        <time>2020-11-16T13:48:43Z</time>
      </trkpt>
      <trkpt lat="28.7639470" lon="-17.8764580">
        <ele>2257.0</ele>
        <time>2020-11-16T13:48:44Z</time>
      </trkpt>
      <trkpt lat="28.7639470" lon="-17.8764580">
        <ele>2257.0</ele>
        <time>2020-11-16T13:48:45Z</time>
      </trkpt>
      <trkpt lat="28.7639050" lon="-17.8764030">
        <ele>2257.3</ele>
        <time>2020-11-16T13:48:46Z</time>
      </trkpt>
      <trkpt lat="28.7639050" lon="-17.8764030">
        <ele>2257.3</ele>
        <time>2020-11-16T13:48:47Z</time>
      </trkpt>
      <trkpt lat="28.7638650" lon="-17.8763470">
        <ele>2257.6</ele>
        <time>2020-11-16T13:48:48Z</time>
      </trkpt>
      <trkpt lat="28.7638500" lon="-17.8763180">
        <ele>2257.7</ele>
        <time>2020-11-16T13:48:49Z</time>
      </trkpt>
      <trkpt lat="28.7638500" lon="-17.8763180">
        <ele>2257.7</ele>
        <time>2020-11-16T13:48:50Z</time>
      </trkpt>
      <trkpt lat="28.7638220" lon="-17.8762480">
        <ele>2258.0</ele>
        <time>2020-11-16T13:48:51Z</time>
      </trkpt>
      <trkpt lat="28.7638220" lon="-17.8762480">
        <ele>2258.0</ele>
        <time>2020-11-16T13:48:52Z</time>
      </trkpt>
      <trkpt lat="28.7638020" lon="-17.8761770">
        <ele>2258.3</ele>
        <time>2020-11-16T13:48:53Z</time>
      </trkpt>
      <trkpt lat="28.7637950" lon="-17.8761380">
        <ele>2258.4</ele>
        <time>2020-11-16T13:48:54Z</time>
      </trkpt>
      <trkpt lat="28.7637950" lon="-17.8761380">
        <ele>2258.4</ele>
        <time>2020-11-16T13:48:55Z</time>
      </trkpt>
      <trkpt lat="28.7637850" lon="-17.8760770">
        <ele>2258.7</ele>
        <time>2020-11-16T13:48:56Z</time>
      </trkpt>
      <trkpt lat="28.7637850" lon="-17.8760770">
        <ele>2258.7</ele>
        <time>2020-11-16T13:48:57Z</time>
      </trkpt>
      <trkpt lat="28.7637800" lon="-17.8760200">
        <ele>2258.9</ele>
        <time>2020-11-16T13:48:58Z</time>
      </trkpt>
      <trkpt lat="28.7637800" lon="-17.8760200">
        <ele>2258.9</ele>
        <time>2020-11-16T13:48:59Z</time>
      </trkpt>
      <trkpt lat="28.7637670" lon="-17.8759600">
        <ele>2259.2</ele>
        <time>2020-11-16T13:49:00Z</time>
      </trkpt>
      <trkpt lat="28.7637670" lon="-17.8759600">
        <ele>2259.2</ele>
        <time>2020-11-16T13:49:01Z</time>
      </trkpt>
      <trkpt lat="28.7637550" lon="-17.8758980">
        <ele>2259.5</ele>
        <time>2020-11-16T13:49:02Z</time>
      </trkpt>
      <trkpt lat="28.7637550" lon="-17.8758980">
        <ele>2259.5</ele>
        <time>2020-11-16T13:49:03Z</time>
      </trkpt>
      <trkpt lat="28.7637420" lon="-17.8758350">
        <ele>2259.9</ele>
        <time>2020-11-16T13:49:04Z</time>
      </trkpt>
      <trkpt lat="28.7637350" lon="-17.8758030">
        <ele>2260.0</ele>
        <time>2020-11-16T13:49:05Z</time>
      </trkpt>
      <trkpt lat="28.7637350" lon="-17.8758030">
        <ele>2260.0</ele>
        <time>2020-11-16T13:49:06Z</time>
      </trkpt>
      <trkpt lat="28.7637250" lon="-17.8757400">
        <ele>2260.4</ele>
        <time>2020-11-16T13:49:07Z</time>
      </trkpt>
      <trkpt lat="28.7637230" lon="-17.8757120">
        <ele>2260.6</ele>
        <time>2020-11-16T13:49:08Z</time>
      </trkpt>
      <trkpt lat="28.7637230" lon="-17.8757120">
        <ele>2260.6</ele>
        <time>2020-11-16T13:49:09Z</time>
      </trkpt>
      <trkpt lat="28.7637180" lon="-17.8756480">
        <ele>2260.9</ele>
        <time>2020-11-16T13:49:10Z</time>
      </trkpt>
      <trkpt lat="28.7637180" lon="-17.8756480">
        <ele>2260.9</ele>
        <time>2020-11-16T13:49:11Z</time>
      </trkpt>
      <trkpt lat="28.7636980" lon="-17.8755950">
        <ele>2261.3</ele>
        <time>2020-11-16T13:49:12Z</time>
      </trkpt>
      <trkpt lat="28.7636820" lon="-17.8755720">
        <ele>2261.4</ele>
        <time>2020-11-16T13:49:13Z</time>
      </trkpt>
      <trkpt lat="28.7636650" lon="-17.8755500">
        <ele>2261.6</ele>
        <time>2020-11-16T13:49:14Z</time>
      </trkpt>
      <trkpt lat="28.7636650" lon="-17.8755500">
        <ele>2261.6</ele>
        <time>2020-11-16T13:49:15Z</time>
      </trkpt>
      <trkpt lat="28.7636270" lon="-17.8755100">
        <ele>2261.9</ele>
        <time>2020-11-16T13:49:16Z</time>
      </trkpt>
      <trkpt lat="28.7636270" lon="-17.8755100">
        <ele>2261.9</ele>
        <time>2020-11-16T13:49:17Z</time>
      </trkpt>
      <trkpt lat="28.7635820" lon="-17.8754700">
        <ele>2262.2</ele>
        <time>2020-11-16T13:49:18Z</time>
      </trkpt>
      <trkpt lat="28.7635600" lon="-17.8754520">
        <ele>2262.4</ele>
        <time>2020-11-16T13:49:19Z</time>
      </trkpt>
      <trkpt lat="28.7635600" lon="-17.8754520">
        <ele>2262.4</ele>
        <time>2020-11-16T13:49:20Z</time>
      </trkpt>
      <trkpt lat="28.7635180" lon="-17.8754120">
        <ele>2262.7</ele>
        <time>2020-11-16T13:49:21Z</time>
      </trkpt>
      <trkpt lat="28.7635180" lon="-17.8754120">
        <ele>2262.7</ele>
        <time>2020-11-16T13:49:22Z</time>
      </trkpt>
      <trkpt lat="28.7634770" lon="-17.8753780">
        <ele>2263.0</ele>
        <time>2020-11-16T13:49:23Z</time>
      </trkpt>
      <trkpt lat="28.7634770" lon="-17.8753780">
        <ele>2263.0</ele>
        <time>2020-11-16T13:49:24Z</time>
      </trkpt>
      <trkpt lat="28.7634370" lon="-17.8753500">
        <ele>2263.2</ele>
        <time>2020-11-16T13:49:25Z</time>
      </trkpt>
      <trkpt lat="28.7634150" lon="-17.8753370">
        <ele>2263.3</ele>
        <time>2020-11-16T13:49:26Z</time>
      </trkpt>
      <trkpt lat="28.7634150" lon="-17.8753370">
        <ele>2263.3</ele>
        <time>2020-11-16T13:49:27Z</time>
      </trkpt>
      <trkpt lat="28.7633750" lon="-17.8753050">
        <ele>2263.6</ele>
        <time>2020-11-16T13:49:28Z</time>
      </trkpt>
      <trkpt lat="28.7633750" lon="-17.8753050">
        <ele>2263.6</ele>
        <time>2020-11-16T13:49:29Z</time>
      </trkpt>
      <trkpt lat="28.7633330" lon="-17.8752750">
        <ele>2263.9</ele>
        <time>2020-11-16T13:49:30Z</time>
      </trkpt>
      <trkpt lat="28.7633330" lon="-17.8752750">
        <ele>2263.9</ele>
        <time>2020-11-16T13:49:31Z</time>
      </trkpt>
      <trkpt lat="28.7632920" lon="-17.8752550">
        <ele>2264.1</ele>
        <time>2020-11-16T13:49:32Z</time>
      </trkpt>
      <trkpt lat="28.7632920" lon="-17.8752550">
        <ele>2264.1</ele>
        <time>2020-11-16T13:49:33Z</time>
      </trkpt>
      <trkpt lat="28.7632530" lon="-17.8752250">
        <ele>2264.3</ele>
        <time>2020-11-16T13:49:34Z</time>
      </trkpt>
      <trkpt lat="28.7632530" lon="-17.8752250">
        <ele>2264.3</ele>
        <time>2020-11-16T13:49:35Z</time>
      </trkpt>
      <trkpt lat="28.7632170" lon="-17.8751900">
        <ele>2264.6</ele>
        <time>2020-11-16T13:49:36Z</time>
      </trkpt>
      <trkpt lat="28.7632170" lon="-17.8751900">
        <ele>2264.6</ele>
        <time>2020-11-16T13:49:37Z</time>
      </trkpt>
      <trkpt lat="28.7631750" lon="-17.8751600">
        <ele>2264.9</ele>
        <time>2020-11-16T13:49:38Z</time>
      </trkpt>
      <trkpt lat="28.7631750" lon="-17.8751600">
        <ele>2264.9</ele>
        <time>2020-11-16T13:49:39Z</time>
      </trkpt>
      <trkpt lat="28.7631300" lon="-17.8751230">
        <ele>2265.2</ele>
        <time>2020-11-16T13:49:40Z</time>
      </trkpt>
      <trkpt lat="28.7631300" lon="-17.8751230">
        <ele>2265.2</ele>
        <time>2020-11-16T13:49:41Z</time>
      </trkpt>
      <trkpt lat="28.7630920" lon="-17.8750850">
        <ele>2265.5</ele>
        <time>2020-11-16T13:49:42Z</time>
      </trkpt>
      <trkpt lat="28.7630920" lon="-17.8750850">
        <ele>2265.5</ele>
        <time>2020-11-16T13:49:43Z</time>
      </trkpt>
      <trkpt lat="28.7630530" lon="-17.8750470">
        <ele>2265.7</ele>
        <time>2020-11-16T13:49:44Z</time>
      </trkpt>
      <trkpt lat="28.7630350" lon="-17.8750270">
        <ele>2265.9</ele>
        <time>2020-11-16T13:49:45Z</time>
      </trkpt>
      <trkpt lat="28.7630350" lon="-17.8750270">
        <ele>2265.9</ele>
        <time>2020-11-16T13:49:46Z</time>
      </trkpt>
      <trkpt lat="28.7629950" lon="-17.8749870">
        <ele>2266.2</ele>
        <time>2020-11-16T13:49:47Z</time>
      </trkpt>
      <trkpt lat="28.7629770" lon="-17.8749620">
        <ele>2266.4</ele>
        <time>2020-11-16T13:49:48Z</time>
      </trkpt>
      <trkpt lat="28.7629770" lon="-17.8749620">
        <ele>2266.4</ele>
        <time>2020-11-16T13:49:49Z</time>
      </trkpt>
      <trkpt lat="28.7629470" lon="-17.8749080">
        <ele>2266.7</ele>
        <time>2020-11-16T13:49:50Z</time>
      </trkpt>
      <trkpt lat="28.7629470" lon="-17.8749080">
        <ele>2266.7</ele>
        <time>2020-11-16T13:49:51Z</time>
      </trkpt>
      <trkpt lat="28.7629120" lon="-17.8748580">
        <ele>2267.0</ele>
        <time>2020-11-16T13:49:52Z</time>
      </trkpt>
      <trkpt lat="28.7629120" lon="-17.8748580">
        <ele>2267.0</ele>
        <time>2020-11-16T13:49:53Z</time>
      </trkpt>
      <trkpt lat="28.7628680" lon="-17.8748220">
        <ele>2267.1</ele>
        <time>2020-11-16T13:49:54Z</time>
      </trkpt>
      <trkpt lat="28.7628680" lon="-17.8748220">
        <ele>2267.1</ele>
        <time>2020-11-16T13:49:55Z</time>
      </trkpt>
      <trkpt lat="28.7628250" lon="-17.8747900">
        <ele>2267.2</ele>
        <time>2020-11-16T13:49:56Z</time>
      </trkpt>
      <trkpt lat="28.7628250" lon="-17.8747900">
        <ele>2267.2</ele>
        <time>2020-11-16T13:49:57Z</time>
      </trkpt>
      <trkpt lat="28.7627800" lon="-17.8747700">
        <ele>2267.4</ele>
        <time>2020-11-16T13:49:58Z</time>
      </trkpt>
      <trkpt lat="28.7627570" lon="-17.8747630">
        <ele>2267.4</ele>
        <time>2020-11-16T13:49:59Z</time>
      </trkpt>
      <trkpt lat="28.7627570" lon="-17.8747630">
        <ele>2267.4</ele>
        <time>2020-11-16T13:50:00Z</time>
      </trkpt>
      <trkpt lat="28.7627080" lon="-17.8747520">
        <ele>2267.5</ele>
        <time>2020-11-16T13:50:01Z</time>
      </trkpt>
      <trkpt lat="28.7627080" lon="-17.8747520">
        <ele>2267.5</ele>
        <time>2020-11-16T13:50:02Z</time>
      </trkpt>
      <trkpt lat="28.7626600" lon="-17.8747250">
        <ele>2267.5</ele>
        <time>2020-11-16T13:50:03Z</time>
      </trkpt>
      <trkpt lat="28.7626600" lon="-17.8747250">
        <ele>2267.5</ele>
        <time>2020-11-16T13:50:04Z</time>
      </trkpt>
      <trkpt lat="28.7626170" lon="-17.8746970">
        <ele>2267.6</ele>
        <time>2020-11-16T13:50:05Z</time>
      </trkpt>
      <trkpt lat="28.7626170" lon="-17.8746970">
        <ele>2267.6</ele>
        <time>2020-11-16T13:50:06Z</time>
      </trkpt>
      <trkpt lat="28.7625720" lon="-17.8746620">
        <ele>2267.7</ele>
        <time>2020-11-16T13:50:07Z</time>
      </trkpt>
      <trkpt lat="28.7625480" lon="-17.8746470">
        <ele>2267.7</ele>
        <time>2020-11-16T13:50:08Z</time>
      </trkpt>
      <trkpt lat="28.7625480" lon="-17.8746470">
        <ele>2267.7</ele>
        <time>2020-11-16T13:50:09Z</time>
      </trkpt>
      <trkpt lat="28.7625020" lon="-17.8746080">
        <ele>2267.8</ele>
        <time>2020-11-16T13:50:10Z</time>
      </trkpt>
      <trkpt lat="28.7625020" lon="-17.8746080">
        <ele>2267.8</ele>
        <time>2020-11-16T13:50:11Z</time>
      </trkpt>
      <trkpt lat="28.7624600" lon="-17.8745630">
        <ele>2267.9</ele>
        <time>2020-11-16T13:50:12Z</time>
      </trkpt>
      <trkpt lat="28.7624600" lon="-17.8745630">
        <ele>2267.9</ele>
        <time>2020-11-16T13:50:13Z</time>
      </trkpt>
      <trkpt lat="28.7624180" lon="-17.8745230">
        <ele>2268.0</ele>
        <time>2020-11-16T13:50:14Z</time>
      </trkpt>
      <trkpt lat="28.7624180" lon="-17.8745230">
        <ele>2268.0</ele>
        <time>2020-11-16T13:50:15Z</time>
      </trkpt>
      <trkpt lat="28.7623800" lon="-17.8744820">
        <ele>2268.1</ele>
        <time>2020-11-16T13:50:16Z</time>
      </trkpt>
      <trkpt lat="28.7623800" lon="-17.8744820">
        <ele>2268.1</ele>
        <time>2020-11-16T13:50:17Z</time>
      </trkpt>
      <trkpt lat="28.7623470" lon="-17.8744400">
        <ele>2268.2</ele>
        <time>2020-11-16T13:50:18Z</time>
      </trkpt>
      <trkpt lat="28.7623470" lon="-17.8744400">
        <ele>2268.2</ele>
        <time>2020-11-16T13:50:19Z</time>
      </trkpt>
      <trkpt lat="28.7623070" lon="-17.8743980">
        <ele>2268.3</ele>
        <time>2020-11-16T13:50:20Z</time>
      </trkpt>
      <trkpt lat="28.7623070" lon="-17.8743980">
        <ele>2268.3</ele>
        <time>2020-11-16T13:50:21Z</time>
      </trkpt>
      <trkpt lat="28.7622620" lon="-17.8743600">
        <ele>2268.5</ele>
        <time>2020-11-16T13:50:22Z</time>
      </trkpt>
      <trkpt lat="28.7622620" lon="-17.8743600">
        <ele>2268.5</ele>
        <time>2020-11-16T13:50:23Z</time>
      </trkpt>
      <trkpt lat="28.7622200" lon="-17.8743120">
        <ele>2268.7</ele>
        <time>2020-11-16T13:50:24Z</time>
      </trkpt>
      <trkpt lat="28.7622200" lon="-17.8743120">
        <ele>2268.7</ele>
        <time>2020-11-16T13:50:25Z</time>
      </trkpt>
      <trkpt lat="28.7621800" lon="-17.8742700">
        <ele>2268.9</ele>
        <time>2020-11-16T13:50:26Z</time>
      </trkpt>
      <trkpt lat="28.7621800" lon="-17.8742700">
        <ele>2268.9</ele>
        <time>2020-11-16T13:50:27Z</time>
      </trkpt>
      <trkpt lat="28.7621450" lon="-17.8742230">
        <ele>2269.1</ele>
        <time>2020-11-16T13:50:28Z</time>
      </trkpt>
      <trkpt lat="28.7621450" lon="-17.8742230">
        <ele>2269.1</ele>
        <time>2020-11-16T13:50:29Z</time>
      </trkpt>
      <trkpt lat="28.7621150" lon="-17.8741770">
        <ele>2269.3</ele>
        <time>2020-11-16T13:50:30Z</time>
      </trkpt>
      <trkpt lat="28.7621150" lon="-17.8741770">
        <ele>2269.3</ele>
        <time>2020-11-16T13:50:31Z</time>
      </trkpt>
      <trkpt lat="28.7620800" lon="-17.8741350">
        <ele>2269.5</ele>
        <time>2020-11-16T13:50:32Z</time>
      </trkpt>
      <trkpt lat="28.7620800" lon="-17.8741350">
        <ele>2269.5</ele>
        <time>2020-11-16T13:50:33Z</time>
      </trkpt>
      <trkpt lat="28.7620430" lon="-17.8740950">
        <ele>2269.7</ele>
        <time>2020-11-16T13:50:34Z</time>
      </trkpt>
      <trkpt lat="28.7620430" lon="-17.8740950">
        <ele>2269.7</ele>
        <time>2020-11-16T13:50:35Z</time>
      </trkpt>
      <trkpt lat="28.7620030" lon="-17.8740570">
        <ele>2270.0</ele>
        <time>2020-11-16T13:50:36Z</time>
      </trkpt>
      <trkpt lat="28.7620030" lon="-17.8740570">
        <ele>2270.0</ele>
        <time>2020-11-16T13:50:37Z</time>
      </trkpt>
      <trkpt lat="28.7619600" lon="-17.8740250">
        <ele>2270.2</ele>
        <time>2020-11-16T13:50:38Z</time>
      </trkpt>
      <trkpt lat="28.7619600" lon="-17.8740250">
        <ele>2270.2</ele>
        <time>2020-11-16T13:50:39Z</time>
      </trkpt>
      <trkpt lat="28.7619200" lon="-17.8739970">
        <ele>2270.4</ele>
        <time>2020-11-16T13:50:40Z</time>
      </trkpt>
      <trkpt lat="28.7619200" lon="-17.8739970">
        <ele>2270.4</ele>
        <time>2020-11-16T13:50:41Z</time>
      </trkpt>
      <trkpt lat="28.7618850" lon="-17.8739550">
        <ele>2270.7</ele>
        <time>2020-11-16T13:50:42Z</time>
      </trkpt>
      <trkpt lat="28.7618650" lon="-17.8739320">
        <ele>2270.9</ele>
        <time>2020-11-16T13:50:43Z</time>
      </trkpt>
      <trkpt lat="28.7618650" lon="-17.8739320">
        <ele>2270.9</ele>
        <time>2020-11-16T13:50:44Z</time>
      </trkpt>
      <trkpt lat="28.7618420" lon="-17.8738830">
        <ele>2271.1</ele>
        <time>2020-11-16T13:50:45Z</time>
      </trkpt>
      <trkpt lat="28.7618420" lon="-17.8738830">
        <ele>2271.1</ele>
        <time>2020-11-16T13:50:46Z</time>
      </trkpt>
      <trkpt lat="28.7618070" lon="-17.8738350">
        <ele>2271.4</ele>
        <time>2020-11-16T13:50:47Z</time>
      </trkpt>
      <trkpt lat="28.7618070" lon="-17.8738350">
        <ele>2271.4</ele>
        <time>2020-11-16T13:50:48Z</time>
      </trkpt>
      <trkpt lat="28.7617870" lon="-17.8737850">
        <ele>2271.7</ele>
        <time>2020-11-16T13:50:49Z</time>
      </trkpt>
      <trkpt lat="28.7617870" lon="-17.8737850">
        <ele>2271.7</ele>
        <time>2020-11-16T13:50:50Z</time>
      </trkpt>
      <trkpt lat="28.7617620" lon="-17.8737380">
        <ele>2272.0</ele>
        <time>2020-11-16T13:50:51Z</time>
      </trkpt>
      <trkpt lat="28.7617620" lon="-17.8737380">
        <ele>2272.0</ele>
        <time>2020-11-16T13:50:52Z</time>
      </trkpt>
      <trkpt lat="28.7617250" lon="-17.8736950">
        <ele>2272.3</ele>
        <time>2020-11-16T13:50:53Z</time>
      </trkpt>
      <trkpt lat="28.7617250" lon="-17.8736950">
        <ele>2272.3</ele>
        <time>2020-11-16T13:50:54Z</time>
      </trkpt>
      <trkpt lat="28.7617020" lon="-17.8736470">
        <ele>2272.6</ele>
        <time>2020-11-16T13:50:55Z</time>
      </trkpt>
      <trkpt lat="28.7616870" lon="-17.8736220">
        <ele>2272.7</ele>
        <time>2020-11-16T13:50:56Z</time>
      </trkpt>
      <trkpt lat="28.7616870" lon="-17.8736220">
        <ele>2272.7</ele>
        <time>2020-11-16T13:50:57Z</time>
      </trkpt>
      <trkpt lat="28.7616670" lon="-17.8735700">
        <ele>2273.0</ele>
        <time>2020-11-16T13:50:58Z</time>
      </trkpt>
      <trkpt lat="28.7616670" lon="-17.8735700">
        <ele>2273.0</ele>
        <time>2020-11-16T13:50:59Z</time>
      </trkpt>
      <trkpt lat="28.7616380" lon="-17.8735180">
        <ele>2273.3</ele>
        <time>2020-11-16T13:51:00Z</time>
      </trkpt>
      <trkpt lat="28.7616380" lon="-17.8735180">
        <ele>2273.3</ele>
        <time>2020-11-16T13:51:01Z</time>
      </trkpt>
      <trkpt lat="28.7616000" lon="-17.8734730">
        <ele>2273.6</ele>
        <time>2020-11-16T13:51:02Z</time>
      </trkpt>
      <trkpt lat="28.7616000" lon="-17.8734730">
        <ele>2273.6</ele>
        <time>2020-11-16T13:51:03Z</time>
      </trkpt>
      <trkpt lat="28.7615570" lon="-17.8734330">
        <ele>2273.9</ele>
        <time>2020-11-16T13:51:04Z</time>
      </trkpt>
      <trkpt lat="28.7615570" lon="-17.8734330">
        <ele>2273.9</ele>
        <time>2020-11-16T13:51:05Z</time>
      </trkpt>
      <trkpt lat="28.7615150" lon="-17.8733930">
        <ele>2274.1</ele>
        <time>2020-11-16T13:51:06Z</time>
      </trkpt>
      <trkpt lat="28.7615150" lon="-17.8733930">
        <ele>2274.1</ele>
        <time>2020-11-16T13:51:07Z</time>
      </trkpt>
      <trkpt lat="28.7614680" lon="-17.8733480">
        <ele>2274.3</ele>
        <time>2020-11-16T13:51:08Z</time>
      </trkpt>
      <trkpt lat="28.7614470" lon="-17.8733200">
        <ele>2274.3</ele>
        <time>2020-11-16T13:51:09Z</time>
      </trkpt>
      <trkpt lat="28.7614470" lon="-17.8733200">
        <ele>2274.3</ele>
        <time>2020-11-16T13:51:10Z</time>
      </trkpt>
      <trkpt lat="28.7614070" lon="-17.8732600">
        <ele>2274.5</ele>
        <time>2020-11-16T13:51:11Z</time>
      </trkpt>
      <trkpt lat="28.7614070" lon="-17.8732600">
        <ele>2274.5</ele>
        <time>2020-11-16T13:51:12Z</time>
      </trkpt>
      <trkpt lat="28.7613770" lon="-17.8732050">
        <ele>2274.6</ele>
        <time>2020-11-16T13:51:13Z</time>
      </trkpt>
      <trkpt lat="28.7613770" lon="-17.8732050">
        <ele>2274.6</ele>
        <time>2020-11-16T13:51:14Z</time>
      </trkpt>
      <trkpt lat="28.7613550" lon="-17.8731520">
        <ele>2274.6</ele>
        <time>2020-11-16T13:51:15Z</time>
      </trkpt>
      <trkpt lat="28.7613550" lon="-17.8731520">
        <ele>2274.6</ele>
        <time>2020-11-16T13:51:16Z</time>
      </trkpt>
      <trkpt lat="28.7613470" lon="-17.8730980">
        <ele>2274.7</ele>
        <time>2020-11-16T13:51:17Z</time>
      </trkpt>
      <trkpt lat="28.7613450" lon="-17.8730730">
        <ele>2274.7</ele>
        <time>2020-11-16T13:51:18Z</time>
      </trkpt>
      <trkpt lat="28.7613450" lon="-17.8730730">
        <ele>2274.7</ele>
        <time>2020-11-16T13:51:19Z</time>
      </trkpt>
      <trkpt lat="28.7613400" lon="-17.8730120">
        <ele>2274.8</ele>
        <time>2020-11-16T13:51:20Z</time>
      </trkpt>
      <trkpt lat="28.7613400" lon="-17.8730120">
        <ele>2274.8</ele>
        <time>2020-11-16T13:51:21Z</time>
      </trkpt>
      <trkpt lat="28.7613250" lon="-17.8729480">
        <ele>2274.9</ele>
        <time>2020-11-16T13:51:22Z</time>
      </trkpt>
      <trkpt lat="28.7613250" lon="-17.8729480">
        <ele>2274.9</ele>
        <time>2020-11-16T13:51:23Z</time>
      </trkpt>
      <trkpt lat="28.7613080" lon="-17.8728750">
        <ele>2275.0</ele>
        <time>2020-11-16T13:51:24Z</time>
      </trkpt>
      <trkpt lat="28.7613080" lon="-17.8728750">
        <ele>2275.0</ele>
        <time>2020-11-16T13:51:25Z</time>
      </trkpt>
      <trkpt lat="28.7613030" lon="-17.8728170">
        <ele>2275.1</ele>
        <time>2020-11-16T13:51:26Z</time>
      </trkpt>
      <trkpt lat="28.7613030" lon="-17.8728170">
        <ele>2275.1</ele>
        <time>2020-11-16T13:51:27Z</time>
      </trkpt>
      <trkpt lat="28.7613020" lon="-17.8727530">
        <ele>2275.2</ele>
        <time>2020-11-16T13:51:28Z</time>
      </trkpt>
      <trkpt lat="28.7612970" lon="-17.8727230">
        <ele>2275.3</ele>
        <time>2020-11-16T13:51:29Z</time>
      </trkpt>
      <trkpt lat="28.7612970" lon="-17.8727230">
        <ele>2275.3</ele>
        <time>2020-11-16T13:51:30Z</time>
      </trkpt>
      <trkpt lat="28.7612920" lon="-17.8726650">
        <ele>2275.5</ele>
        <time>2020-11-16T13:51:31Z</time>
      </trkpt>
      <trkpt lat="28.7612920" lon="-17.8726650">
        <ele>2275.5</ele>
        <time>2020-11-16T13:51:32Z</time>
      </trkpt>
      <trkpt lat="28.7612950" lon="-17.8726070">
        <ele>2275.7</ele>
        <time>2020-11-16T13:51:33Z</time>
      </trkpt>
      <trkpt lat="28.7612950" lon="-17.8726070">
        <ele>2275.7</ele>
        <time>2020-11-16T13:51:34Z</time>
      </trkpt>
      <trkpt lat="28.7613000" lon="-17.8725450">
        <ele>2276.0</ele>
        <time>2020-11-16T13:51:35Z</time>
      </trkpt>
      <trkpt lat="28.7613000" lon="-17.8725450">
        <ele>2276.0</ele>
        <time>2020-11-16T13:51:36Z</time>
      </trkpt>
      <trkpt lat="28.7613100" lon="-17.8724850">
        <ele>2276.2</ele>
        <time>2020-11-16T13:51:37Z</time>
      </trkpt>
      <trkpt lat="28.7613100" lon="-17.8724850">
        <ele>2276.2</ele>
        <time>2020-11-16T13:51:38Z</time>
      </trkpt>
      <trkpt lat="28.7613230" lon="-17.8724270">
        <ele>2276.4</ele>
        <time>2020-11-16T13:51:39Z</time>
      </trkpt>
      <trkpt lat="28.7613230" lon="-17.8724270">
        <ele>2276.4</ele>
        <time>2020-11-16T13:51:40Z</time>
      </trkpt>
      <trkpt lat="28.7613430" lon="-17.8723720">
        <ele>2276.6</ele>
        <time>2020-11-16T13:51:41Z</time>
      </trkpt>
      <trkpt lat="28.7613430" lon="-17.8723720">
        <ele>2276.6</ele>
        <time>2020-11-16T13:51:42Z</time>
      </trkpt>
      <trkpt lat="28.7613750" lon="-17.8723220">
        <ele>2276.8</ele>
        <time>2020-11-16T13:51:43Z</time>
      </trkpt>
      <trkpt lat="28.7613930" lon="-17.8723000">
        <ele>2276.9</ele>
        <time>2020-11-16T13:51:44Z</time>
      </trkpt>
      <trkpt lat="28.7613930" lon="-17.8723000">
        <ele>2276.9</ele>
        <time>2020-11-16T13:51:45Z</time>
      </trkpt>
      <trkpt lat="28.7614330" lon="-17.8722550">
        <ele>2277.0</ele>
        <time>2020-11-16T13:51:46Z</time>
      </trkpt>
      <trkpt lat="28.7614500" lon="-17.8722320">
        <ele>2277.1</ele>
        <time>2020-11-16T13:51:47Z</time>
      </trkpt>
      <trkpt lat="28.7614500" lon="-17.8722320">
        <ele>2277.1</ele>
        <time>2020-11-16T13:51:48Z</time>
      </trkpt>
      <trkpt lat="28.7614830" lon="-17.8721820">
        <ele>2277.2</ele>
        <time>2020-11-16T13:51:49Z</time>
      </trkpt>
      <trkpt lat="28.7614830" lon="-17.8721820">
        <ele>2277.2</ele>
        <time>2020-11-16T13:51:50Z</time>
      </trkpt>
      <trkpt lat="28.7615170" lon="-17.8721330">
        <ele>2277.4</ele>
        <time>2020-11-16T13:51:51Z</time>
      </trkpt>
      <trkpt lat="28.7615170" lon="-17.8721330">
        <ele>2277.4</ele>
        <time>2020-11-16T13:51:52Z</time>
      </trkpt>
      <trkpt lat="28.7615520" lon="-17.8720800">
        <ele>2277.5</ele>
        <time>2020-11-16T13:51:53Z</time>
      </trkpt>
      <trkpt lat="28.7615520" lon="-17.8720800">
        <ele>2277.5</ele>
        <time>2020-11-16T13:51:54Z</time>
      </trkpt>
      <trkpt lat="28.7615870" lon="-17.8720230">
        <ele>2277.7</ele>
        <time>2020-11-16T13:51:55Z</time>
      </trkpt>
      <trkpt lat="28.7615870" lon="-17.8720230">
        <ele>2277.7</ele>
        <time>2020-11-16T13:51:56Z</time>
      </trkpt>
      <trkpt lat="28.7616230" lon="-17.8719630">
        <ele>2277.9</ele>
        <time>2020-11-16T13:51:57Z</time>
      </trkpt>
      <trkpt lat="28.7616230" lon="-17.8719630">
        <ele>2277.9</ele>
        <time>2020-11-16T13:51:58Z</time>
      </trkpt>
      <trkpt lat="28.7616470" lon="-17.8718980">
        <ele>2278.1</ele>
        <time>2020-11-16T13:51:59Z</time>
      </trkpt>
      <trkpt lat="28.7616470" lon="-17.8718980">
        <ele>2278.1</ele>
        <time>2020-11-16T13:52:00Z</time>
      </trkpt>
      <trkpt lat="28.7616480" lon="-17.8718280">
        <ele>2278.4</ele>
        <time>2020-11-16T13:52:01Z</time>
      </trkpt>
      <trkpt lat="28.7616480" lon="-17.8718280">
        <ele>2278.4</ele>
        <time>2020-11-16T13:52:02Z</time>
      </trkpt>
      <trkpt lat="28.7616230" lon="-17.8717680">
        <ele>2278.6</ele>
        <time>2020-11-16T13:52:03Z</time>
      </trkpt>
      <trkpt lat="28.7616230" lon="-17.8717680">
        <ele>2278.6</ele>
        <time>2020-11-16T13:52:04Z</time>
      </trkpt>
      <trkpt lat="28.7615800" lon="-17.8717220">
        <ele>2278.9</ele>
        <time>2020-11-16T13:52:05Z</time>
      </trkpt>
      <trkpt lat="28.7615570" lon="-17.8717020">
        <ele>2279.0</ele>
        <time>2020-11-16T13:52:06Z</time>
      </trkpt>
      <trkpt lat="28.7615570" lon="-17.8717020">
        <ele>2279.0</ele>
        <time>2020-11-16T13:52:07Z</time>
      </trkpt>
      <trkpt lat="28.7615120" lon="-17.8716820">
        <ele>2279.2</ele>
        <time>2020-11-16T13:52:08Z</time>
      </trkpt>
      <trkpt lat="28.7615120" lon="-17.8716820">
        <ele>2279.2</ele>
        <time>2020-11-16T13:52:09Z</time>
      </trkpt>
      <trkpt lat="28.7614580" lon="-17.8716780">
        <ele>2279.5</ele>
        <time>2020-11-16T13:52:10Z</time>
      </trkpt>
      <trkpt lat="28.7614580" lon="-17.8716780">
        <ele>2279.5</ele>
        <time>2020-11-16T13:52:11Z</time>
      </trkpt>
      <trkpt lat="28.7614050" lon="-17.8716920">
        <ele>2279.7</ele>
        <time>2020-11-16T13:52:12Z</time>
      </trkpt>
      <trkpt lat="28.7613820" lon="-17.8717000">
        <ele>2279.8</ele>
        <time>2020-11-16T13:52:13Z</time>
      </trkpt>
      <trkpt lat="28.7613580" lon="-17.8717050">
        <ele>2279.9</ele>
        <time>2020-11-16T13:52:14Z</time>
      </trkpt>
      <trkpt lat="28.7613580" lon="-17.8717050">
        <ele>2279.9</ele>
        <time>2020-11-16T13:52:15Z</time>
      </trkpt>
      <trkpt lat="28.7613120" lon="-17.8717150">
        <ele>2280.1</ele>
        <time>2020-11-16T13:52:16Z</time>
      </trkpt>
      <trkpt lat="28.7613120" lon="-17.8717150">
        <ele>2280.1</ele>
        <time>2020-11-16T13:52:17Z</time>
      </trkpt>
      <trkpt lat="28.7612570" lon="-17.8717220">
        <ele>2280.3</ele>
        <time>2020-11-16T13:52:18Z</time>
      </trkpt>
      <trkpt lat="28.7612270" lon="-17.8717200">
        <ele>2280.4</ele>
        <time>2020-11-16T13:52:19Z</time>
      </trkpt>
      <trkpt lat="28.7612270" lon="-17.8717200">
        <ele>2280.4</ele>
        <time>2020-11-16T13:52:20Z</time>
      </trkpt>
      <trkpt lat="28.7611700" lon="-17.8717130">
        <ele>2280.6</ele>
        <time>2020-11-16T13:52:21Z</time>
      </trkpt>
      <trkpt lat="28.7611700" lon="-17.8717130">
        <ele>2280.6</ele>
        <time>2020-11-16T13:52:22Z</time>
      </trkpt>
      <trkpt lat="28.7611220" lon="-17.8717030">
        <ele>2280.7</ele>
        <time>2020-11-16T13:52:23Z</time>
      </trkpt>
      <trkpt lat="28.7611220" lon="-17.8717030">
        <ele>2280.7</ele>
        <time>2020-11-16T13:52:24Z</time>
      </trkpt>
      <trkpt lat="28.7610720" lon="-17.8716930">
        <ele>2280.9</ele>
        <time>2020-11-16T13:52:25Z</time>
      </trkpt>
      <trkpt lat="28.7610720" lon="-17.8716930">
        <ele>2280.9</ele>
        <time>2020-11-16T13:52:26Z</time>
      </trkpt>
      <trkpt lat="28.7610230" lon="-17.8716750">
        <ele>2281.0</ele>
        <time>2020-11-16T13:52:27Z</time>
      </trkpt>
      <trkpt lat="28.7610020" lon="-17.8716620">
        <ele>2281.1</ele>
        <time>2020-11-16T13:52:28Z</time>
      </trkpt>
      <trkpt lat="28.7610020" lon="-17.8716620">
        <ele>2281.1</ele>
        <time>2020-11-16T13:52:29Z</time>
      </trkpt>
      <trkpt lat="28.7609580" lon="-17.8716350">
        <ele>2281.3</ele>
        <time>2020-11-16T13:52:30Z</time>
      </trkpt>
      <trkpt lat="28.7609580" lon="-17.8716350">
        <ele>2281.3</ele>
        <time>2020-11-16T13:52:31Z</time>
      </trkpt>
      <trkpt lat="28.7609230" lon="-17.8715830">
        <ele>2281.5</ele>
        <time>2020-11-16T13:52:32Z</time>
      </trkpt>
      <trkpt lat="28.7609230" lon="-17.8715830">
        <ele>2281.5</ele>
        <time>2020-11-16T13:52:33Z</time>
      </trkpt>
      <trkpt lat="28.7609000" lon="-17.8715370">
        <ele>2281.6</ele>
        <time>2020-11-16T13:52:34Z</time>
      </trkpt>
      <trkpt lat="28.7608870" lon="-17.8715120">
        <ele>2281.7</ele>
        <time>2020-11-16T13:52:35Z</time>
      </trkpt>
      <trkpt lat="28.7608870" lon="-17.8715120">
        <ele>2281.7</ele>
        <time>2020-11-16T13:52:36Z</time>
      </trkpt>
      <trkpt lat="28.7608700" lon="-17.8714650">
        <ele>2281.8</ele>
        <time>2020-11-16T13:52:37Z</time>
      </trkpt>
      <trkpt lat="28.7608670" lon="-17.8714400">
        <ele>2281.9</ele>
        <time>2020-11-16T13:52:38Z</time>
      </trkpt>
      <trkpt lat="28.7608670" lon="-17.8714400">
        <ele>2281.9</ele>
        <time>2020-11-16T13:52:39Z</time>
      </trkpt>
      <trkpt lat="28.7608620" lon="-17.8713800">
        <ele>2282.1</ele>
        <time>2020-11-16T13:52:40Z</time>
      </trkpt>
      <trkpt lat="28.7608620" lon="-17.8713800">
        <ele>2282.1</ele>
        <time>2020-11-16T13:52:41Z</time>
      </trkpt>
      <trkpt lat="28.7608500" lon="-17.8713170">
        <ele>2282.3</ele>
        <time>2020-11-16T13:52:42Z</time>
      </trkpt>
      <trkpt lat="28.7608370" lon="-17.8712830">
        <ele>2282.4</ele>
        <time>2020-11-16T13:52:43Z</time>
      </trkpt>
      <trkpt lat="28.7608370" lon="-17.8712830">
        <ele>2282.4</ele>
        <time>2020-11-16T13:52:44Z</time>
      </trkpt>
      <trkpt lat="28.7608270" lon="-17.8712250">
        <ele>2282.6</ele>
        <time>2020-11-16T13:52:45Z</time>
      </trkpt>
      <trkpt lat="28.7608270" lon="-17.8711970">
        <ele>2282.7</ele>
        <time>2020-11-16T13:52:46Z</time>
      </trkpt>
      <trkpt lat="28.7608270" lon="-17.8711970">
        <ele>2282.7</ele>
        <time>2020-11-16T13:52:47Z</time>
      </trkpt>
      <trkpt lat="28.7608180" lon="-17.8711370">
        <ele>2283.0</ele>
        <time>2020-11-16T13:52:48Z</time>
      </trkpt>
      <trkpt lat="28.7608180" lon="-17.8711370">
        <ele>2283.0</ele>
        <time>2020-11-16T13:52:49Z</time>
      </trkpt>
      <trkpt lat="28.7607920" lon="-17.8710770">
        <ele>2283.2</ele>
        <time>2020-11-16T13:52:50Z</time>
      </trkpt>
      <trkpt lat="28.7607920" lon="-17.8710770">
        <ele>2283.2</ele>
        <time>2020-11-16T13:52:51Z</time>
      </trkpt>
      <trkpt lat="28.7607600" lon="-17.8710320">
        <ele>2283.4</ele>
        <time>2020-11-16T13:52:52Z</time>
      </trkpt>
      <trkpt lat="28.7607470" lon="-17.8710120">
        <ele>2283.5</ele>
        <time>2020-11-16T13:52:53Z</time>
      </trkpt>
      <trkpt lat="28.7607470" lon="-17.8710120">
        <ele>2283.5</ele>
        <time>2020-11-16T13:52:54Z</time>
      </trkpt>
      <trkpt lat="28.7607200" lon="-17.8709770">
        <ele>2283.7</ele>
        <time>2020-11-16T13:52:55Z</time>
      </trkpt>
      <trkpt lat="28.7607200" lon="-17.8709770">
        <ele>2283.7</ele>
        <time>2020-11-16T13:52:56Z</time>
      </trkpt>
      <trkpt lat="28.7606920" lon="-17.8709350">
        <ele>2283.9</ele>
        <time>2020-11-16T13:52:57Z</time>
      </trkpt>
      <trkpt lat="28.7606920" lon="-17.8709350">
        <ele>2283.9</ele>
        <time>2020-11-16T13:52:58Z</time>
      </trkpt>
      <trkpt lat="28.7606670" lon="-17.8708880">
        <ele>2284.1</ele>
        <time>2020-11-16T13:52:59Z</time>
      </trkpt>
      <trkpt lat="28.7606670" lon="-17.8708880">
        <ele>2284.1</ele>
        <time>2020-11-16T13:53:00Z</time>
      </trkpt>
      <trkpt lat="28.7606120" lon="-17.8708330">
        <ele>2284.3</ele>
        <time>2020-11-16T13:53:01Z</time>
      </trkpt>
      <trkpt lat="28.7606120" lon="-17.8708330">
        <ele>2284.3</ele>
        <time>2020-11-16T13:53:02Z</time>
      </trkpt>
      <trkpt lat="28.7606130" lon="-17.8707820">
        <ele>2284.4</ele>
        <time>2020-11-16T13:53:03Z</time>
      </trkpt>
      <trkpt lat="28.7605980" lon="-17.8707470">
        <ele>2284.5</ele>
        <time>2020-11-16T13:53:04Z</time>
      </trkpt>
      <trkpt lat="28.7605980" lon="-17.8707470">
        <ele>2284.5</ele>
        <time>2020-11-16T13:53:05Z</time>
      </trkpt>
      <trkpt lat="28.7605970" lon="-17.8706880">
        <ele>2284.5</ele>
        <time>2020-11-16T13:53:06Z</time>
      </trkpt>
      <trkpt lat="28.7605970" lon="-17.8706880">
        <ele>2284.5</ele>
        <time>2020-11-16T13:53:07Z</time>
      </trkpt>
      <trkpt lat="28.7605680" lon="-17.8706170">
        <ele>2284.6</ele>
        <time>2020-11-16T13:53:08Z</time>
      </trkpt>
      <trkpt lat="28.7605680" lon="-17.8706170">
        <ele>2284.6</ele>
        <time>2020-11-16T13:53:09Z</time>
      </trkpt>
      <trkpt lat="28.7605730" lon="-17.8705530">
        <ele>2284.6</ele>
        <time>2020-11-16T13:53:10Z</time>
      </trkpt>
      <trkpt lat="28.7605730" lon="-17.8705530">
        <ele>2284.6</ele>
        <time>2020-11-16T13:53:11Z</time>
      </trkpt>
      <trkpt lat="28.7605620" lon="-17.8704750">
        <ele>2284.4</ele>
        <time>2020-11-16T13:53:12Z</time>
      </trkpt>
      <trkpt lat="28.7605620" lon="-17.8704750">
        <ele>2284.4</ele>
        <time>2020-11-16T13:53:13Z</time>
      </trkpt>
      <trkpt lat="28.7605430" lon="-17.8704000">
        <ele>2284.2</ele>
        <time>2020-11-16T13:53:14Z</time>
      </trkpt>
      <trkpt lat="28.7605430" lon="-17.8704000">
        <ele>2284.2</ele>
        <time>2020-11-16T13:53:15Z</time>
      </trkpt>
      <trkpt lat="28.7605250" lon="-17.8703180">
        <ele>2283.8</ele>
        <time>2020-11-16T13:53:16Z</time>
      </trkpt>
      <trkpt lat="28.7605250" lon="-17.8703180">
        <ele>2283.8</ele>
        <time>2020-11-16T13:53:17Z</time>
      </trkpt>
      <trkpt lat="28.7604930" lon="-17.8702220">
        <ele>2283.4</ele>
        <time>2020-11-16T13:53:18Z</time>
      </trkpt>
      <trkpt lat="28.7604930" lon="-17.8702220">
        <ele>2283.4</ele>
        <time>2020-11-16T13:53:19Z</time>
      </trkpt>
      <trkpt lat="28.7604280" lon="-17.8701120">
        <ele>2282.7</ele>
        <time>2020-11-16T13:53:20Z</time>
      </trkpt>
      <trkpt lat="28.7604280" lon="-17.8701120">
        <ele>2282.7</ele>
        <time>2020-11-16T13:53:21Z</time>
      </trkpt>
      <trkpt lat="28.7604400" lon="-17.8699950">
        <ele>2282.0</ele>
        <time>2020-11-16T13:53:22Z</time>
      </trkpt>
      <trkpt lat="28.7604400" lon="-17.8699950">
        <ele>2282.0</ele>
        <time>2020-11-16T13:53:23Z</time>
      </trkpt>
      <trkpt lat="28.7604930" lon="-17.8698800">
        <ele>2281.1</ele>
        <time>2020-11-16T13:53:24Z</time>
      </trkpt>
      <trkpt lat="28.7604930" lon="-17.8698800">
        <ele>2281.1</ele>
        <time>2020-11-16T13:53:25Z</time>
      </trkpt>
      <trkpt lat="28.7605630" lon="-17.8697500">
        <ele>2279.7</ele>
        <time>2020-11-16T13:53:26Z</time>
      </trkpt>
      <trkpt lat="28.7605630" lon="-17.8697500">
        <ele>2279.7</ele>
        <time>2020-11-16T13:53:27Z</time>
      </trkpt>
      <trkpt lat="28.7606470" lon="-17.8695980">
        <ele>2278.0</ele>
        <time>2020-11-16T13:53:28Z</time>
      </trkpt>
      <trkpt lat="28.7606470" lon="-17.8695980">
        <ele>2278.0</ele>
        <time>2020-11-16T13:53:29Z</time>
      </trkpt>
      <trkpt lat="28.7607280" lon="-17.8694170">
        <ele>2275.9</ele>
        <time>2020-11-16T13:53:30Z</time>
      </trkpt>
      <trkpt lat="28.7607280" lon="-17.8694170">
        <ele>2275.9</ele>
        <time>2020-11-16T13:53:31Z</time>
      </trkpt>
      <trkpt lat="28.7608230" lon="-17.8692200">
        <ele>2273.5</ele>
        <time>2020-11-16T13:53:32Z</time>
      </trkpt>
      <trkpt lat="28.7608230" lon="-17.8692200">
        <ele>2273.5</ele>
        <time>2020-11-16T13:53:33Z</time>
      </trkpt>
      <trkpt lat="28.7609520" lon="-17.8690450">
        <ele>2271.1</ele>
        <time>2020-11-16T13:53:34Z</time>
      </trkpt>
      <trkpt lat="28.7609520" lon="-17.8690450">
        <ele>2271.1</ele>
        <time>2020-11-16T13:53:35Z</time>
      </trkpt>
      <trkpt lat="28.7610820" lon="-17.8689030">
        <ele>2269.1</ele>
        <time>2020-11-16T13:53:36Z</time>
      </trkpt>
      <trkpt lat="28.7610820" lon="-17.8689030">
        <ele>2269.1</ele>
        <time>2020-11-16T13:53:37Z</time>
      </trkpt>
      <trkpt lat="28.7611630" lon="-17.8687300">
        <ele>2266.7</ele>
        <time>2020-11-16T13:53:38Z</time>
      </trkpt>
      <trkpt lat="28.7611630" lon="-17.8687300">
        <ele>2266.7</ele>
        <time>2020-11-16T13:53:39Z</time>
      </trkpt>
      <trkpt lat="28.7612070" lon="-17.8685120">
        <ele>2263.8</ele>
        <time>2020-11-16T13:53:40Z</time>
      </trkpt>
      <trkpt lat="28.7612070" lon="-17.8685120">
        <ele>2263.8</ele>
        <time>2020-11-16T13:53:41Z</time>
      </trkpt>
      <trkpt lat="28.7612430" lon="-17.8682720">
        <ele>2260.9</ele>
        <time>2020-11-16T13:53:42Z</time>
      </trkpt>
      <trkpt lat="28.7612430" lon="-17.8682720">
        <ele>2260.9</ele>
        <time>2020-11-16T13:53:43Z</time>
      </trkpt>
      <trkpt lat="28.7612500" lon="-17.8680320">
        <ele>2258.3</ele>
        <time>2020-11-16T13:53:44Z</time>
      </trkpt>
      <trkpt lat="28.7612500" lon="-17.8680320">
        <ele>2258.3</ele>
        <time>2020-11-16T13:53:45Z</time>
      </trkpt>
      <trkpt lat="28.7612170" lon="-17.8678130">
        <ele>2256.5</ele>
        <time>2020-11-16T13:53:46Z</time>
      </trkpt>
      <trkpt lat="28.7612100" lon="-17.8677180">
        <ele>2255.8</ele>
        <time>2020-11-16T13:53:47Z</time>
      </trkpt>
      <trkpt lat="28.7612100" lon="-17.8677180">
        <ele>2255.8</ele>
        <time>2020-11-16T13:53:48Z</time>
      </trkpt>
      <trkpt lat="28.7611850" lon="-17.8675580">
        <ele>2254.7</ele>
        <time>2020-11-16T13:53:49Z</time>
      </trkpt>
      <trkpt lat="28.7611850" lon="-17.8675580">
        <ele>2254.7</ele>
        <time>2020-11-16T13:53:50Z</time>
      </trkpt>
      <trkpt lat="28.7611630" lon="-17.8674650">
        <ele>2254.1</ele>
        <time>2020-11-16T13:53:51Z</time>
      </trkpt>
      <trkpt lat="28.7611630" lon="-17.8674650">
        <ele>2254.1</ele>
        <time>2020-11-16T13:53:52Z</time>
      </trkpt>
      <trkpt lat="28.7611520" lon="-17.8674400">
        <ele>2254.0</ele>
        <time>2020-11-16T13:53:53Z</time>
      </trkpt>
      <trkpt lat="28.7611520" lon="-17.8674400">
        <ele>2254.0</ele>
        <time>2020-11-16T13:53:54Z</time>
      </trkpt>
      <trkpt lat="28.7611520" lon="-17.8674380">
        <ele>2254.0</ele>
        <time>2020-11-16T13:53:55Z</time>
      </trkpt>
      <trkpt lat="28.7611520" lon="-17.8674370">
        <ele>2254.0</ele>
        <time>2020-11-16T13:53:56Z</time>
      </trkpt>
      <trkpt lat="28.7611520" lon="-17.8674370">
        <ele>2254.0</ele>
        <time>2020-11-16T13:53:57Z</time>
      </trkpt>
      <trkpt lat="28.7611520" lon="-17.8674370">
        <ele>2254.0</ele>
        <time>2020-11-16T13:56:26Z</time>
      </trkpt>
      <trkpt lat="28.7611520" lon="-17.8674370">
        <ele>2254.0</ele>
        <time>2020-11-16T13:56:27Z</time>
      </trkpt>
      <trkpt lat="28.7611730" lon="-17.8674250">
        <ele>2253.9</ele>
        <time>2020-11-16T13:56:28Z</time>
      </trkpt>
      <trkpt lat="28.7611730" lon="-17.8674250">
        <ele>2253.9</ele>
        <time>2020-11-16T13:56:29Z</time>
      </trkpt>
      <trkpt lat="28.7611870" lon="-17.8674170">
        <ele>2253.8</ele>
        <time>2020-11-16T13:56:30Z</time>
      </trkpt>
      <trkpt lat="28.7611870" lon="-17.8674170">
        <ele>2253.8</ele>
        <time>2020-11-16T13:56:31Z</time>
      </trkpt>
      <trkpt lat="28.7611920" lon="-17.8674050">
        <ele>2253.8</ele>
        <time>2020-11-16T13:56:32Z</time>
      </trkpt>
      <trkpt lat="28.7611920" lon="-17.8674050">
        <ele>2253.8</ele>
        <time>2020-11-16T13:56:33Z</time>
      </trkpt>
      <trkpt lat="28.7611920" lon="-17.8674050">
        <ele>2253.8</ele>
        <time>2020-11-16T13:56:36Z</time>
      </trkpt>
      <trkpt lat="28.7612000" lon="-17.8673430">
        <ele>2253.9</ele>
        <time>2020-11-16T13:56:37Z</time>
      </trkpt>
      <trkpt lat="28.7612000" lon="-17.8673430">
        <ele>2253.9</ele>
        <time>2020-11-16T13:56:38Z</time>
      </trkpt>
      <trkpt lat="28.7612070" lon="-17.8672830">
        <ele>2254.5</ele>
        <time>2020-11-16T13:56:39Z</time>
      </trkpt>
      <trkpt lat="28.7612070" lon="-17.8672830">
        <ele>2254.5</ele>
        <time>2020-11-16T13:56:40Z</time>
      </trkpt>
      <trkpt lat="28.7612170" lon="-17.8672070">
        <ele>2255.3</ele>
        <time>2020-11-16T13:56:41Z</time>
      </trkpt>
      <trkpt lat="28.7612170" lon="-17.8672070">
        <ele>2255.3</ele>
        <time>2020-11-16T13:56:42Z</time>
      </trkpt>
      <trkpt lat="28.7612420" lon="-17.8671270">
        <ele>2256.3</ele>
        <time>2020-11-16T13:56:43Z</time>
      </trkpt>
      <trkpt lat="28.7612550" lon="-17.8670850">
        <ele>2256.8</ele>
        <time>2020-11-16T13:56:44Z</time>
      </trkpt>
      <trkpt lat="28.7612550" lon="-17.8670850">
        <ele>2256.8</ele>
        <time>2020-11-16T13:56:45Z</time>
      </trkpt>
      <trkpt lat="28.7612820" lon="-17.8670030">
        <ele>2257.8</ele>
        <time>2020-11-16T13:56:46Z</time>
      </trkpt>
      <trkpt lat="28.7612820" lon="-17.8670030">
        <ele>2257.8</ele>
        <time>2020-11-16T13:56:47Z</time>
      </trkpt>
      <trkpt lat="28.7613150" lon="-17.8669250">
        <ele>2258.9</ele>
        <time>2020-11-16T13:56:48Z</time>
      </trkpt>
      <trkpt lat="28.7613150" lon="-17.8669250">
        <ele>2258.9</ele>
        <time>2020-11-16T13:56:49Z</time>
      </trkpt>
      <trkpt lat="28.7613520" lon="-17.8668500">
        <ele>2259.9</ele>
        <time>2020-11-16T13:56:50Z</time>
      </trkpt>
      <trkpt lat="28.7613520" lon="-17.8668500">
        <ele>2259.9</ele>
        <time>2020-11-16T13:56:51Z</time>
      </trkpt>
      <trkpt lat="28.7613870" lon="-17.8667770">
        <ele>2260.8</ele>
        <time>2020-11-16T13:56:52Z</time>
      </trkpt>
      <trkpt lat="28.7614050" lon="-17.8667420">
        <ele>2261.3</ele>
        <time>2020-11-16T13:56:53Z</time>
      </trkpt>
      <trkpt lat="28.7614050" lon="-17.8667420">
        <ele>2261.3</ele>
        <time>2020-11-16T13:56:54Z</time>
      </trkpt>
      <trkpt lat="28.7614470" lon="-17.8666780">
        <ele>2262.1</ele>
        <time>2020-11-16T13:56:55Z</time>
      </trkpt>
      <trkpt lat="28.7614470" lon="-17.8666780">
        <ele>2262.1</ele>
        <time>2020-11-16T13:56:56Z</time>
      </trkpt>
      <trkpt lat="28.7614800" lon="-17.8666100">
        <ele>2263.0</ele>
        <time>2020-11-16T13:56:57Z</time>
      </trkpt>
      <trkpt lat="28.7614800" lon="-17.8666100">
        <ele>2263.0</ele>
        <time>2020-11-16T13:56:58Z</time>
      </trkpt>
      <trkpt lat="28.7615080" lon="-17.8665350">
        <ele>2263.8</ele>
        <time>2020-11-16T13:56:59Z</time>
      </trkpt>
      <trkpt lat="28.7615080" lon="-17.8665350">
        <ele>2263.8</ele>
        <time>2020-11-16T13:57:00Z</time>
      </trkpt>
      <trkpt lat="28.7615380" lon="-17.8664550">
        <ele>2264.6</ele>
        <time>2020-11-16T13:57:01Z</time>
      </trkpt>
      <trkpt lat="28.7615380" lon="-17.8664550">
        <ele>2264.6</ele>
        <time>2020-11-16T13:57:02Z</time>
      </trkpt>
      <trkpt lat="28.7615630" lon="-17.8663650">
        <ele>2265.5</ele>
        <time>2020-11-16T13:57:03Z</time>
      </trkpt>
      <trkpt lat="28.7615630" lon="-17.8663650">
        <ele>2265.5</ele>
        <time>2020-11-16T13:57:04Z</time>
      </trkpt>
      <trkpt lat="28.7615800" lon="-17.8662680">
        <ele>2266.3</ele>
        <time>2020-11-16T13:57:05Z</time>
      </trkpt>
      <trkpt lat="28.7615800" lon="-17.8662680">
        <ele>2266.3</ele>
        <time>2020-11-16T13:57:06Z</time>
      </trkpt>
      <trkpt lat="28.7616020" lon="-17.8661650">
        <ele>2267.3</ele>
        <time>2020-11-16T13:57:07Z</time>
      </trkpt>
      <trkpt lat="28.7616020" lon="-17.8661650">
        <ele>2267.3</ele>
        <time>2020-11-16T13:57:08Z</time>
      </trkpt>
      <trkpt lat="28.7616470" lon="-17.8660600">
        <ele>2268.3</ele>
        <time>2020-11-16T13:57:09Z</time>
      </trkpt>
      <trkpt lat="28.7616470" lon="-17.8660600">
        <ele>2268.3</ele>
        <time>2020-11-16T13:57:10Z</time>
      </trkpt>
      <trkpt lat="28.7617100" lon="-17.8659620">
        <ele>2269.4</ele>
        <time>2020-11-16T13:57:11Z</time>
      </trkpt>
      <trkpt lat="28.7617100" lon="-17.8659620">
        <ele>2269.4</ele>
        <time>2020-11-16T13:57:12Z</time>
      </trkpt>
      <trkpt lat="28.7617750" lon="-17.8658580">
        <ele>2270.7</ele>
        <time>2020-11-16T13:57:13Z</time>
      </trkpt>
      <trkpt lat="28.7617750" lon="-17.8658580">
        <ele>2270.7</ele>
        <time>2020-11-16T13:57:14Z</time>
      </trkpt>
      <trkpt lat="28.7618400" lon="-17.8657500">
        <ele>2272.0</ele>
        <time>2020-11-16T13:57:15Z</time>
      </trkpt>
      <trkpt lat="28.7618400" lon="-17.8657500">
        <ele>2272.0</ele>
        <time>2020-11-16T13:57:16Z</time>
      </trkpt>
      <trkpt lat="28.7619070" lon="-17.8656450">
        <ele>2273.0</ele>
        <time>2020-11-16T13:57:17Z</time>
      </trkpt>
      <trkpt lat="28.7619070" lon="-17.8656450">
        <ele>2273.0</ele>
        <time>2020-11-16T13:57:18Z</time>
      </trkpt>
      <trkpt lat="28.7619720" lon="-17.8655570">
        <ele>2272.5</ele>
        <time>2020-11-16T13:57:19Z</time>
      </trkpt>
      <trkpt lat="28.7619720" lon="-17.8655570">
        <ele>2272.5</ele>
        <time>2020-11-16T13:57:20Z</time>
      </trkpt>
      <trkpt lat="28.7620200" lon="-17.8654720">
        <ele>2271.7</ele>
        <time>2020-11-16T13:57:21Z</time>
      </trkpt>
      <trkpt lat="28.7620200" lon="-17.8654720">
        <ele>2271.7</ele>
        <time>2020-11-16T13:57:22Z</time>
      </trkpt>
      <trkpt lat="28.7620670" lon="-17.8653700">
        <ele>2270.6</ele>
        <time>2020-11-16T13:57:23Z</time>
      </trkpt>
      <trkpt lat="28.7620950" lon="-17.8653150">
        <ele>2270.0</ele>
        <time>2020-11-16T13:57:24Z</time>
      </trkpt>
      <trkpt lat="28.7620950" lon="-17.8653150">
        <ele>2270.0</ele>
        <time>2020-11-16T13:57:25Z</time>
      </trkpt>
      <trkpt lat="28.7621630" lon="-17.8652200">
        <ele>2268.7</ele>
        <time>2020-11-16T13:57:26Z</time>
      </trkpt>
      <trkpt lat="28.7621630" lon="-17.8652200">
        <ele>2268.7</ele>
        <time>2020-11-16T13:57:27Z</time>
      </trkpt>
      <trkpt lat="28.7622320" lon="-17.8651230">
        <ele>2267.3</ele>
        <time>2020-11-16T13:57:28Z</time>
      </trkpt>
      <trkpt lat="28.7622320" lon="-17.8651230">
        <ele>2267.3</ele>
        <time>2020-11-16T13:57:29Z</time>
      </trkpt>
      <trkpt lat="28.7623080" lon="-17.8650100">
        <ele>2265.3</ele>
        <time>2020-11-16T13:57:30Z</time>
      </trkpt>
      <trkpt lat="28.7623500" lon="-17.8649550">
        <ele>2264.1</ele>
        <time>2020-11-16T13:57:31Z</time>
      </trkpt>
      <trkpt lat="28.7623500" lon="-17.8649550">
        <ele>2264.1</ele>
        <time>2020-11-16T13:57:32Z</time>
      </trkpt>
      <trkpt lat="28.7624330" lon="-17.8648530">
        <ele>2262.5</ele>
        <time>2020-11-16T13:57:33Z</time>
      </trkpt>
      <trkpt lat="28.7624730" lon="-17.8648000">
        <ele>2261.9</ele>
        <time>2020-11-16T13:57:34Z</time>
      </trkpt>
      <trkpt lat="28.7624730" lon="-17.8648000">
        <ele>2261.9</ele>
        <time>2020-11-16T13:57:35Z</time>
      </trkpt>
      <trkpt lat="28.7625530" lon="-17.8646920">
        <ele>2260.6</ele>
        <time>2020-11-16T13:57:36Z</time>
      </trkpt>
      <trkpt lat="28.7625530" lon="-17.8646920">
        <ele>2260.6</ele>
        <time>2020-11-16T13:57:37Z</time>
      </trkpt>
      <trkpt lat="28.7626380" lon="-17.8645820">
        <ele>2259.2</ele>
        <time>2020-11-16T13:57:38Z</time>
      </trkpt>
      <trkpt lat="28.7626380" lon="-17.8645820">
        <ele>2259.2</ele>
        <time>2020-11-16T13:57:39Z</time>
      </trkpt>
      <trkpt lat="28.7627250" lon="-17.8644670">
        <ele>2257.4</ele>
        <time>2020-11-16T13:57:40Z</time>
      </trkpt>
      <trkpt lat="28.7627250" lon="-17.8644670">
        <ele>2257.4</ele>
        <time>2020-11-16T13:57:41Z</time>
      </trkpt>
      <trkpt lat="28.7628100" lon="-17.8643550">
        <ele>2255.7</ele>
        <time>2020-11-16T13:57:42Z</time>
      </trkpt>
      <trkpt lat="28.7628100" lon="-17.8643550">
        <ele>2255.7</ele>
        <time>2020-11-16T13:57:43Z</time>
      </trkpt>
      <trkpt lat="28.7628950" lon="-17.8642520">
        <ele>2254.3</ele>
        <time>2020-11-16T13:57:44Z</time>
      </trkpt>
      <trkpt lat="28.7628950" lon="-17.8642520">
        <ele>2254.3</ele>
        <time>2020-11-16T13:57:45Z</time>
      </trkpt>
      <trkpt lat="28.7629720" lon="-17.8641580">
        <ele>2253.0</ele>
        <time>2020-11-16T13:57:46Z</time>
      </trkpt>
      <trkpt lat="28.7630120" lon="-17.8641100">
        <ele>2252.3</ele>
        <time>2020-11-16T13:57:47Z</time>
      </trkpt>
      <trkpt lat="28.7630120" lon="-17.8641100">
        <ele>2252.3</ele>
        <time>2020-11-16T13:57:48Z</time>
      </trkpt>
      <trkpt lat="28.7630970" lon="-17.8640200">
        <ele>2251.0</ele>
        <time>2020-11-16T13:57:49Z</time>
      </trkpt>
      <trkpt lat="28.7630970" lon="-17.8640200">
        <ele>2251.0</ele>
        <time>2020-11-16T13:57:50Z</time>
      </trkpt>
      <trkpt lat="28.7631970" lon="-17.8639420">
        <ele>2249.6</ele>
        <time>2020-11-16T13:57:51Z</time>
      </trkpt>
      <trkpt lat="28.7631970" lon="-17.8639420">
        <ele>2249.6</ele>
        <time>2020-11-16T13:57:52Z</time>
      </trkpt>
      <trkpt lat="28.7632920" lon="-17.8638670">
        <ele>2248.4</ele>
        <time>2020-11-16T13:57:53Z</time>
      </trkpt>
      <trkpt lat="28.7632920" lon="-17.8638670">
        <ele>2248.4</ele>
        <time>2020-11-16T13:57:54Z</time>
      </trkpt>
      <trkpt lat="28.7633800" lon="-17.8637830">
        <ele>2247.2</ele>
        <time>2020-11-16T13:57:55Z</time>
      </trkpt>
      <trkpt lat="28.7634250" lon="-17.8637420">
        <ele>2246.7</ele>
        <time>2020-11-16T13:57:56Z</time>
      </trkpt>
      <trkpt lat="28.7634250" lon="-17.8637420">
        <ele>2246.7</ele>
        <time>2020-11-16T13:57:57Z</time>
      </trkpt>
      <trkpt lat="28.7635170" lon="-17.8636630">
        <ele>2245.5</ele>
        <time>2020-11-16T13:57:58Z</time>
      </trkpt>
      <trkpt lat="28.7635170" lon="-17.8636630">
        <ele>2245.5</ele>
        <time>2020-11-16T13:57:59Z</time>
      </trkpt>
      <trkpt lat="28.7635900" lon="-17.8635680">
        <ele>2244.6</ele>
        <time>2020-11-16T13:58:00Z</time>
      </trkpt>
      <trkpt lat="28.7635900" lon="-17.8635680">
        <ele>2244.6</ele>
        <time>2020-11-16T13:58:01Z</time>
      </trkpt>
      <trkpt lat="28.7636270" lon="-17.8634550">
        <ele>2243.9</ele>
        <time>2020-11-16T13:58:02Z</time>
      </trkpt>
      <trkpt lat="28.7636270" lon="-17.8634550">
        <ele>2243.9</ele>
        <time>2020-11-16T13:58:03Z</time>
      </trkpt>
      <trkpt lat="28.7636420" lon="-17.8633350">
        <ele>2243.1</ele>
        <time>2020-11-16T13:58:04Z</time>
      </trkpt>
      <trkpt lat="28.7636450" lon="-17.8632730">
        <ele>2242.5</ele>
        <time>2020-11-16T13:58:05Z</time>
      </trkpt>
      <trkpt lat="28.7636450" lon="-17.8632730">
        <ele>2242.5</ele>
        <time>2020-11-16T13:58:06Z</time>
      </trkpt>
      <trkpt lat="28.7636430" lon="-17.8631520">
        <ele>2241.0</ele>
        <time>2020-11-16T13:58:07Z</time>
      </trkpt>
      <trkpt lat="28.7636430" lon="-17.8631520">
        <ele>2241.0</ele>
        <time>2020-11-16T13:58:08Z</time>
      </trkpt>
      <trkpt lat="28.7636320" lon="-17.8630270">
        <ele>2239.3</ele>
        <time>2020-11-16T13:58:09Z</time>
      </trkpt>
      <trkpt lat="28.7636320" lon="-17.8630270">
        <ele>2239.3</ele>
        <time>2020-11-16T13:58:10Z</time>
      </trkpt>
      <trkpt lat="28.7636050" lon="-17.8629050">
        <ele>2238.1</ele>
        <time>2020-11-16T13:58:11Z</time>
      </trkpt>
      <trkpt lat="28.7636050" lon="-17.8629050">
        <ele>2238.1</ele>
        <time>2020-11-16T13:58:12Z</time>
      </trkpt>
      <trkpt lat="28.7635820" lon="-17.8627780">
        <ele>2236.8</ele>
        <time>2020-11-16T13:58:13Z</time>
      </trkpt>
      <trkpt lat="28.7635750" lon="-17.8627180">
        <ele>2236.3</ele>
        <time>2020-11-16T13:58:14Z</time>
      </trkpt>
      <trkpt lat="28.7635750" lon="-17.8627180">
        <ele>2236.3</ele>
        <time>2020-11-16T13:58:15Z</time>
      </trkpt>
      <trkpt lat="28.7635520" lon="-17.8626020">
        <ele>2235.1</ele>
        <time>2020-11-16T13:58:16Z</time>
      </trkpt>
      <trkpt lat="28.7635520" lon="-17.8626020">
        <ele>2235.1</ele>
        <time>2020-11-16T13:58:17Z</time>
      </trkpt>
      <trkpt lat="28.7635380" lon="-17.8624800">
        <ele>2233.9</ele>
        <time>2020-11-16T13:58:18Z</time>
      </trkpt>
      <trkpt lat="28.7635380" lon="-17.8624800">
        <ele>2233.9</ele>
        <time>2020-11-16T13:58:19Z</time>
      </trkpt>
      <trkpt lat="28.7635250" lon="-17.8623220">
        <ele>2232.4</ele>
        <time>2020-11-16T13:58:20Z</time>
      </trkpt>
      <trkpt lat="28.7635250" lon="-17.8623220">
        <ele>2232.4</ele>
        <time>2020-11-16T13:58:21Z</time>
      </trkpt>
      <trkpt lat="28.7635080" lon="-17.8621500">
        <ele>2230.8</ele>
        <time>2020-11-16T13:58:22Z</time>
      </trkpt>
      <trkpt lat="28.7635080" lon="-17.8621500">
        <ele>2230.8</ele>
        <time>2020-11-16T13:58:23Z</time>
      </trkpt>
      <trkpt lat="28.7634920" lon="-17.8619730">
        <ele>2229.0</ele>
        <time>2020-11-16T13:58:24Z</time>
      </trkpt>
      <trkpt lat="28.7634920" lon="-17.8619730">
        <ele>2229.0</ele>
        <time>2020-11-16T13:58:25Z</time>
      </trkpt>
      <trkpt lat="28.7634950" lon="-17.8618080">
        <ele>2227.5</ele>
        <time>2020-11-16T13:58:26Z</time>
      </trkpt>
      <trkpt lat="28.7634950" lon="-17.8618080">
        <ele>2227.5</ele>
        <time>2020-11-16T13:58:27Z</time>
      </trkpt>
      <trkpt lat="28.7635000" lon="-17.8616450">
        <ele>2225.9</ele>
        <time>2020-11-16T13:58:28Z</time>
      </trkpt>
      <trkpt lat="28.7635000" lon="-17.8616450">
        <ele>2225.9</ele>
        <time>2020-11-16T13:58:29Z</time>
      </trkpt>
      <trkpt lat="28.7635080" lon="-17.8614700">
        <ele>2224.2</ele>
        <time>2020-11-16T13:58:30Z</time>
      </trkpt>
      <trkpt lat="28.7635080" lon="-17.8614700">
        <ele>2224.2</ele>
        <time>2020-11-16T13:58:31Z</time>
      </trkpt>
      <trkpt lat="28.7635180" lon="-17.8613100">
        <ele>2222.7</ele>
        <time>2020-11-16T13:58:32Z</time>
      </trkpt>
      <trkpt lat="28.7635180" lon="-17.8613100">
        <ele>2222.7</ele>
        <time>2020-11-16T13:58:33Z</time>
      </trkpt>
      <trkpt lat="28.7635400" lon="-17.8611480">
        <ele>2221.1</ele>
        <time>2020-11-16T13:58:34Z</time>
      </trkpt>
      <trkpt lat="28.7635400" lon="-17.8611480">
        <ele>2221.1</ele>
        <time>2020-11-16T13:58:35Z</time>
      </trkpt>
      <trkpt lat="28.7635630" lon="-17.8609870">
        <ele>2219.5</ele>
        <time>2020-11-16T13:58:36Z</time>
      </trkpt>
      <trkpt lat="28.7635630" lon="-17.8609870">
        <ele>2219.5</ele>
        <time>2020-11-16T13:58:37Z</time>
      </trkpt>
      <trkpt lat="28.7635870" lon="-17.8608320">
        <ele>2218.0</ele>
        <time>2020-11-16T13:58:38Z</time>
      </trkpt>
      <trkpt lat="28.7635870" lon="-17.8608320">
        <ele>2218.0</ele>
        <time>2020-11-16T13:58:39Z</time>
      </trkpt>
      <trkpt lat="28.7636200" lon="-17.8606630">
        <ele>2216.3</ele>
        <time>2020-11-16T13:58:40Z</time>
      </trkpt>
      <trkpt lat="28.7636200" lon="-17.8606630">
        <ele>2216.3</ele>
        <time>2020-11-16T13:58:41Z</time>
      </trkpt>
      <trkpt lat="28.7636680" lon="-17.8604800">
        <ele>2214.5</ele>
        <time>2020-11-16T13:58:42Z</time>
      </trkpt>
      <trkpt lat="28.7636680" lon="-17.8604800">
        <ele>2214.5</ele>
        <time>2020-11-16T13:58:43Z</time>
      </trkpt>
      <trkpt lat="28.7637130" lon="-17.8603120">
        <ele>2212.8</ele>
        <time>2020-11-16T13:58:44Z</time>
      </trkpt>
      <trkpt lat="28.7637130" lon="-17.8603120">
        <ele>2212.8</ele>
        <time>2020-11-16T13:58:45Z</time>
      </trkpt>
      <trkpt lat="28.7637400" lon="-17.8601530">
        <ele>2211.3</ele>
        <time>2020-11-16T13:58:46Z</time>
      </trkpt>
      <trkpt lat="28.7637480" lon="-17.8600720">
        <ele>2210.5</ele>
        <time>2020-11-16T13:58:47Z</time>
      </trkpt>
      <trkpt lat="28.7637480" lon="-17.8600720">
        <ele>2210.5</ele>
        <time>2020-11-16T13:58:48Z</time>
      </trkpt>
      <trkpt lat="28.7637620" lon="-17.8599030">
        <ele>2208.8</ele>
        <time>2020-11-16T13:58:49Z</time>
      </trkpt>
      <trkpt lat="28.7637620" lon="-17.8599030">
        <ele>2208.8</ele>
        <time>2020-11-16T13:58:50Z</time>
      </trkpt>
      <trkpt lat="28.7637520" lon="-17.8597480">
        <ele>2207.3</ele>
        <time>2020-11-16T13:58:51Z</time>
      </trkpt>
      <trkpt lat="28.7637520" lon="-17.8597480">
        <ele>2207.3</ele>
        <time>2020-11-16T13:58:52Z</time>
      </trkpt>
      <trkpt lat="28.7636800" lon="-17.8596080">
        <ele>2205.8</ele>
        <time>2020-11-16T13:58:53Z</time>
      </trkpt>
      <trkpt lat="28.7636180" lon="-17.8595520">
        <ele>2204.9</ele>
        <time>2020-11-16T13:58:54Z</time>
      </trkpt>
      <trkpt lat="28.7636180" lon="-17.8595520">
        <ele>2204.9</ele>
        <time>2020-11-16T13:58:55Z</time>
      </trkpt>
      <trkpt lat="28.7634730" lon="-17.8594580">
        <ele>2203.1</ele>
        <time>2020-11-16T13:58:56Z</time>
      </trkpt>
      <trkpt lat="28.7634730" lon="-17.8594580">
        <ele>2203.1</ele>
        <time>2020-11-16T13:58:57Z</time>
      </trkpt>
      <trkpt lat="28.7633100" lon="-17.8594080">
        <ele>2201.2</ele>
        <time>2020-11-16T13:58:58Z</time>
      </trkpt>
      <trkpt lat="28.7632300" lon="-17.8594030">
        <ele>2200.4</ele>
        <time>2020-11-16T13:58:59Z</time>
      </trkpt>
      <trkpt lat="28.7632300" lon="-17.8594030">
        <ele>2200.4</ele>
        <time>2020-11-16T13:59:00Z</time>
      </trkpt>
      <trkpt lat="28.7630850" lon="-17.8594130">
        <ele>2198.8</ele>
        <time>2020-11-16T13:59:01Z</time>
      </trkpt>
      <trkpt lat="28.7630850" lon="-17.8594130">
        <ele>2198.8</ele>
        <time>2020-11-16T13:59:02Z</time>
      </trkpt>
      <trkpt lat="28.7629720" lon="-17.8594170">
        <ele>2197.5</ele>
        <time>2020-11-16T13:59:03Z</time>
      </trkpt>
      <trkpt lat="28.7629720" lon="-17.8594170">
        <ele>2197.5</ele>
        <time>2020-11-16T13:59:04Z</time>
      </trkpt>
      <trkpt lat="28.7628950" lon="-17.8593730">
        <ele>2196.6</ele>
        <time>2020-11-16T13:59:05Z</time>
      </trkpt>
      <trkpt lat="28.7628950" lon="-17.8593730">
        <ele>2196.6</ele>
        <time>2020-11-16T13:59:06Z</time>
      </trkpt>
      <trkpt lat="28.7628970" lon="-17.8592900">
        <ele>2195.8</ele>
        <time>2020-11-16T13:59:07Z</time>
      </trkpt>
      <trkpt lat="28.7629220" lon="-17.8592470">
        <ele>2195.3</ele>
        <time>2020-11-16T13:59:08Z</time>
      </trkpt>
      <trkpt lat="28.7629220" lon="-17.8592470">
        <ele>2195.3</ele>
        <time>2020-11-16T13:59:09Z</time>
      </trkpt>
      <trkpt lat="28.7629900" lon="-17.8591630">
        <ele>2194.2</ele>
        <time>2020-11-16T13:59:10Z</time>
      </trkpt>
      <trkpt lat="28.7629900" lon="-17.8591630">
        <ele>2194.2</ele>
        <time>2020-11-16T13:59:11Z</time>
      </trkpt>
      <trkpt lat="28.7630650" lon="-17.8590870">
        <ele>2193.1</ele>
        <time>2020-11-16T13:59:12Z</time>
      </trkpt>
      <trkpt lat="28.7630650" lon="-17.8590870">
        <ele>2193.1</ele>
        <time>2020-11-16T13:59:13Z</time>
      </trkpt>
      <trkpt lat="28.7631250" lon="-17.8590150">
        <ele>2192.1</ele>
        <time>2020-11-16T13:59:14Z</time>
      </trkpt>
      <trkpt lat="28.7631250" lon="-17.8590150">
        <ele>2192.1</ele>
        <time>2020-11-16T13:59:15Z</time>
      </trkpt>
      <trkpt lat="28.7631770" lon="-17.8589470">
        <ele>2191.3</ele>
        <time>2020-11-16T13:59:16Z</time>
      </trkpt>
      <trkpt lat="28.7631770" lon="-17.8589470">
        <ele>2191.3</ele>
        <time>2020-11-16T13:59:17Z</time>
      </trkpt>
      <trkpt lat="28.7632350" lon="-17.8588720">
        <ele>2190.3</ele>
        <time>2020-11-16T13:59:18Z</time>
      </trkpt>
      <trkpt lat="28.7632350" lon="-17.8588720">
        <ele>2190.3</ele>
        <time>2020-11-16T13:59:19Z</time>
      </trkpt>
      <trkpt lat="28.7633080" lon="-17.8587970">
        <ele>2189.2</ele>
        <time>2020-11-16T13:59:20Z</time>
      </trkpt>
      <trkpt lat="28.7633080" lon="-17.8587970">
        <ele>2189.2</ele>
        <time>2020-11-16T13:59:21Z</time>
      </trkpt>
      <trkpt lat="28.7633780" lon="-17.8587300">
        <ele>2188.2</ele>
        <time>2020-11-16T13:59:22Z</time>
      </trkpt>
      <trkpt lat="28.7633780" lon="-17.8587300">
        <ele>2188.2</ele>
        <time>2020-11-16T13:59:23Z</time>
      </trkpt>
      <trkpt lat="28.7634550" lon="-17.8586430">
        <ele>2187.0</ele>
        <time>2020-11-16T13:59:24Z</time>
      </trkpt>
      <trkpt lat="28.7634550" lon="-17.8586430">
        <ele>2187.0</ele>
        <time>2020-11-16T13:59:25Z</time>
      </trkpt>
      <trkpt lat="28.7635500" lon="-17.8585620">
        <ele>2185.7</ele>
        <time>2020-11-16T13:59:26Z</time>
      </trkpt>
      <trkpt lat="28.7635500" lon="-17.8585620">
        <ele>2185.7</ele>
        <time>2020-11-16T13:59:27Z</time>
      </trkpt>
      <trkpt lat="28.7636420" lon="-17.8584880">
        <ele>2184.5</ele>
        <time>2020-11-16T13:59:28Z</time>
      </trkpt>
      <trkpt lat="28.7636420" lon="-17.8584880">
        <ele>2184.5</ele>
        <time>2020-11-16T13:59:29Z</time>
      </trkpt>
      <trkpt lat="28.7637250" lon="-17.8584420">
        <ele>2183.5</ele>
        <time>2020-11-16T13:59:30Z</time>
      </trkpt>
      <trkpt lat="28.7637250" lon="-17.8584420">
        <ele>2183.5</ele>
        <time>2020-11-16T13:59:31Z</time>
      </trkpt>
      <trkpt lat="28.7638080" lon="-17.8584130">
        <ele>2182.5</ele>
        <time>2020-11-16T13:59:32Z</time>
      </trkpt>
      <trkpt lat="28.7638080" lon="-17.8584130">
        <ele>2182.5</ele>
        <time>2020-11-16T13:59:33Z</time>
      </trkpt>
      <trkpt lat="28.7638080" lon="-17.8584130">
        <ele>2182.5</ele>
        <time>2020-11-16T13:59:34Z</time>
      </trkpt>
      <trkpt lat="28.7638950" lon="-17.8583770">
        <ele>2181.5</ele>
        <time>2020-11-16T13:59:35Z</time>
      </trkpt>
      <trkpt lat="28.7639780" lon="-17.8583330">
        <ele>2180.5</ele>
        <time>2020-11-16T13:59:36Z</time>
      </trkpt>
      <trkpt lat="28.7640270" lon="-17.8583120">
        <ele>2179.9</ele>
        <time>2020-11-16T13:59:37Z</time>
      </trkpt>
      <trkpt lat="28.7640270" lon="-17.8583120">
        <ele>2179.9</ele>
        <time>2020-11-16T13:59:38Z</time>
      </trkpt>
      <trkpt lat="28.7641300" lon="-17.8582620">
        <ele>2178.7</ele>
        <time>2020-11-16T13:59:39Z</time>
      </trkpt>
      <trkpt lat="28.7641300" lon="-17.8582620">
        <ele>2178.7</ele>
        <time>2020-11-16T13:59:40Z</time>
      </trkpt>
      <trkpt lat="28.7642250" lon="-17.8581670">
        <ele>2177.3</ele>
        <time>2020-11-16T13:59:41Z</time>
      </trkpt>
      <trkpt lat="28.7642250" lon="-17.8581670">
        <ele>2177.3</ele>
        <time>2020-11-16T13:59:42Z</time>
      </trkpt>
      <trkpt lat="28.7642970" lon="-17.8580550">
        <ele>2176.0</ele>
        <time>2020-11-16T13:59:43Z</time>
      </trkpt>
      <trkpt lat="28.7643320" lon="-17.8580000">
        <ele>2175.3</ele>
        <time>2020-11-16T13:59:44Z</time>
      </trkpt>
      <trkpt lat="28.7643320" lon="-17.8580000">
        <ele>2175.3</ele>
        <time>2020-11-16T13:59:45Z</time>
      </trkpt>
      <trkpt lat="28.7644030" lon="-17.8578950">
        <ele>2174.1</ele>
        <time>2020-11-16T13:59:46Z</time>
      </trkpt>
      <trkpt lat="28.7644030" lon="-17.8578950">
        <ele>2174.1</ele>
        <time>2020-11-16T13:59:47Z</time>
      </trkpt>
      <trkpt lat="28.7644750" lon="-17.8577900">
        <ele>2172.8</ele>
        <time>2020-11-16T13:59:48Z</time>
      </trkpt>
      <trkpt lat="28.7644750" lon="-17.8577900">
        <ele>2172.8</ele>
        <time>2020-11-16T13:59:49Z</time>
      </trkpt>
      <trkpt lat="28.7645520" lon="-17.8576700">
        <ele>2171.4</ele>
        <time>2020-11-16T13:59:50Z</time>
      </trkpt>
      <trkpt lat="28.7645520" lon="-17.8576700">
        <ele>2171.4</ele>
        <time>2020-11-16T13:59:51Z</time>
      </trkpt>
      <trkpt lat="28.7646130" lon="-17.8575380">
        <ele>2169.9</ele>
        <time>2020-11-16T13:59:52Z</time>
      </trkpt>
      <trkpt lat="28.7646130" lon="-17.8575380">
        <ele>2169.9</ele>
        <time>2020-11-16T13:59:53Z</time>
      </trkpt>
      <trkpt lat="28.7646430" lon="-17.8574070">
        <ele>2168.6</ele>
        <time>2020-11-16T13:59:54Z</time>
      </trkpt>
      <trkpt lat="28.7646430" lon="-17.8574070">
        <ele>2168.6</ele>
        <time>2020-11-16T13:59:55Z</time>
      </trkpt>
      <trkpt lat="28.7646580" lon="-17.8572830">
        <ele>2167.4</ele>
        <time>2020-11-16T13:59:56Z</time>
      </trkpt>
      <trkpt lat="28.7646720" lon="-17.8572250">
        <ele>2166.8</ele>
        <time>2020-11-16T13:59:57Z</time>
      </trkpt>
      <trkpt lat="28.7646720" lon="-17.8572250">
        <ele>2166.8</ele>
        <time>2020-11-16T13:59:58Z</time>
      </trkpt>
      <trkpt lat="28.7647080" lon="-17.8571100">
        <ele>2165.7</ele>
        <time>2020-11-16T13:59:59Z</time>
      </trkpt>
      <trkpt lat="28.7647080" lon="-17.8571100">
        <ele>2165.7</ele>
        <time>2020-11-16T14:00:00Z</time>
      </trkpt>
      <trkpt lat="28.7647670" lon="-17.8569980">
        <ele>2164.4</ele>
        <time>2020-11-16T14:00:01Z</time>
      </trkpt>
      <trkpt lat="28.7647670" lon="-17.8569980">
        <ele>2164.4</ele>
        <time>2020-11-16T14:00:02Z</time>
      </trkpt>
      <trkpt lat="28.7648230" lon="-17.8568820">
        <ele>2163.1</ele>
        <time>2020-11-16T14:00:03Z</time>
      </trkpt>
      <trkpt lat="28.7648230" lon="-17.8568820">
        <ele>2163.1</ele>
        <time>2020-11-16T14:00:04Z</time>
      </trkpt>
      <trkpt lat="28.7648670" lon="-17.8567600">
        <ele>2161.9</ele>
        <time>2020-11-16T14:00:05Z</time>
      </trkpt>
      <trkpt lat="28.7648670" lon="-17.8567600">
        <ele>2161.9</ele>
        <time>2020-11-16T14:00:06Z</time>
      </trkpt>
      <trkpt lat="28.7649050" lon="-17.8566430">
        <ele>2160.7</ele>
        <time>2020-11-16T14:00:07Z</time>
      </trkpt>
      <trkpt lat="28.7649050" lon="-17.8566430">
        <ele>2160.7</ele>
        <time>2020-11-16T14:00:08Z</time>
      </trkpt>
      <trkpt lat="28.7649450" lon="-17.8565370">
        <ele>2159.6</ele>
        <time>2020-11-16T14:00:09Z</time>
      </trkpt>
      <trkpt lat="28.7649450" lon="-17.8565370">
        <ele>2159.6</ele>
        <time>2020-11-16T14:00:10Z</time>
      </trkpt>
      <trkpt lat="28.7649950" lon="-17.8564430">
        <ele>2158.5</ele>
        <time>2020-11-16T14:00:11Z</time>
      </trkpt>
      <trkpt lat="28.7649950" lon="-17.8564430">
        <ele>2158.5</ele>
        <time>2020-11-16T14:00:12Z</time>
      </trkpt>
      <trkpt lat="28.7650470" lon="-17.8563550">
        <ele>2157.5</ele>
        <time>2020-11-16T14:00:13Z</time>
      </trkpt>
      <trkpt lat="28.7650700" lon="-17.8563130">
        <ele>2157.0</ele>
        <time>2020-11-16T14:00:14Z</time>
      </trkpt>
      <trkpt lat="28.7650700" lon="-17.8563130">
        <ele>2157.0</ele>
        <time>2020-11-16T14:00:15Z</time>
      </trkpt>
      <trkpt lat="28.7651050" lon="-17.8562230">
        <ele>2156.1</ele>
        <time>2020-11-16T14:00:16Z</time>
      </trkpt>
      <trkpt lat="28.7651050" lon="-17.8562230">
        <ele>2156.1</ele>
        <time>2020-11-16T14:00:17Z</time>
      </trkpt>
      <trkpt lat="28.7651230" lon="-17.8561280">
        <ele>2155.1</ele>
        <time>2020-11-16T14:00:18Z</time>
      </trkpt>
      <trkpt lat="28.7651280" lon="-17.8560830">
        <ele>2154.7</ele>
        <time>2020-11-16T14:00:19Z</time>
      </trkpt>
      <trkpt lat="28.7651330" lon="-17.8560430">
        <ele>2154.3</ele>
        <time>2020-11-16T14:00:20Z</time>
      </trkpt>
      <trkpt lat="28.7651330" lon="-17.8560430">
        <ele>2154.3</ele>
        <time>2020-11-16T14:00:21Z</time>
      </trkpt>
      <trkpt lat="28.7651430" lon="-17.8559870">
        <ele>2153.7</ele>
        <time>2020-11-16T14:00:22Z</time>
      </trkpt>
      <trkpt lat="28.7651430" lon="-17.8559870">
        <ele>2153.7</ele>
        <time>2020-11-16T14:00:23Z</time>
      </trkpt>
      <trkpt lat="28.7651520" lon="-17.8559720">
        <ele>2153.6</ele>
        <time>2020-11-16T14:00:24Z</time>
      </trkpt>
      <trkpt lat="28.7651520" lon="-17.8559720">
        <ele>2153.6</ele>
        <time>2020-11-16T14:00:25Z</time>
      </trkpt>
      <trkpt lat="28.7651530" lon="-17.8559720">
        <ele>2153.6</ele>
        <time>2020-11-16T14:00:26Z</time>
      </trkpt>
      <trkpt lat="28.7651830" lon="-17.8559020">
        <ele>2152.8</ele>
        <time>2020-11-16T14:00:37Z</time>
      </trkpt>
      <trkpt lat="28.7652070" lon="-17.8558520">
        <ele>2152.3</ele>
        <time>2020-11-16T14:00:38Z</time>
      </trkpt>
      <trkpt lat="28.7652070" lon="-17.8558520">
        <ele>2152.3</ele>
        <time>2020-11-16T14:00:39Z</time>
      </trkpt>
      <trkpt lat="28.7652680" lon="-17.8557300">
        <ele>2150.9</ele>
        <time>2020-11-16T14:00:40Z</time>
      </trkpt>
      <trkpt lat="28.7652680" lon="-17.8557300">
        <ele>2150.9</ele>
        <time>2020-11-16T14:00:41Z</time>
      </trkpt>
      <trkpt lat="28.7653400" lon="-17.8555900">
        <ele>2149.4</ele>
        <time>2020-11-16T14:00:42Z</time>
      </trkpt>
      <trkpt lat="28.7653400" lon="-17.8555900">
        <ele>2149.4</ele>
        <time>2020-11-16T14:00:43Z</time>
      </trkpt>
      <trkpt lat="28.7654170" lon="-17.8554470">
        <ele>2147.7</ele>
        <time>2020-11-16T14:00:44Z</time>
      </trkpt>
      <trkpt lat="28.7654170" lon="-17.8554470">
        <ele>2147.7</ele>
        <time>2020-11-16T14:00:45Z</time>
      </trkpt>
      <trkpt lat="28.7654830" lon="-17.8552980">
        <ele>2146.3</ele>
        <time>2020-11-16T14:00:46Z</time>
      </trkpt>
      <trkpt lat="28.7654830" lon="-17.8552980">
        <ele>2146.3</ele>
        <time>2020-11-16T14:00:47Z</time>
      </trkpt>
      <trkpt lat="28.7655480" lon="-17.8551530">
        <ele>2145.0</ele>
        <time>2020-11-16T14:00:48Z</time>
      </trkpt>
      <trkpt lat="28.7655480" lon="-17.8551530">
        <ele>2145.0</ele>
        <time>2020-11-16T14:00:49Z</time>
      </trkpt>
      <trkpt lat="28.7656170" lon="-17.8550020">
        <ele>2143.6</ele>
        <time>2020-11-16T14:00:50Z</time>
      </trkpt>
      <trkpt lat="28.7656170" lon="-17.8550020">
        <ele>2143.6</ele>
        <time>2020-11-16T14:00:51Z</time>
      </trkpt>
      <trkpt lat="28.7656820" lon="-17.8548430">
        <ele>2142.1</ele>
        <time>2020-11-16T14:00:52Z</time>
      </trkpt>
      <trkpt lat="28.7656820" lon="-17.8548430">
        <ele>2142.1</ele>
        <time>2020-11-16T14:00:53Z</time>
      </trkpt>
      <trkpt lat="28.7657520" lon="-17.8547220">
        <ele>2141.0</ele>
        <time>2020-11-16T14:00:54Z</time>
      </trkpt>
      <trkpt lat="28.7657520" lon="-17.8547220">
        <ele>2141.0</ele>
        <time>2020-11-16T14:00:55Z</time>
      </trkpt>
      <trkpt lat="28.7658430" lon="-17.8546720">
        <ele>2140.0</ele>
        <time>2020-11-16T14:00:56Z</time>
      </trkpt>
      <trkpt lat="28.7658430" lon="-17.8546720">
        <ele>2140.0</ele>
        <time>2020-11-16T14:00:57Z</time>
      </trkpt>
      <trkpt lat="28.7659380" lon="-17.8546880">
        <ele>2139.1</ele>
        <time>2020-11-16T14:00:58Z</time>
      </trkpt>
      <trkpt lat="28.7659380" lon="-17.8546880">
        <ele>2139.1</ele>
        <time>2020-11-16T14:00:59Z</time>
      </trkpt>
      <trkpt lat="28.7660350" lon="-17.8547220">
        <ele>2138.2</ele>
        <time>2020-11-16T14:01:00Z</time>
      </trkpt>
      <trkpt lat="28.7660830" lon="-17.8547300">
        <ele>2137.7</ele>
        <time>2020-11-16T14:01:01Z</time>
      </trkpt>
      <trkpt lat="28.7661280" lon="-17.8547400">
        <ele>2137.3</ele>
        <time>2020-11-16T14:01:02Z</time>
      </trkpt>
      <trkpt lat="28.7661280" lon="-17.8547400">
        <ele>2137.3</ele>
        <time>2020-11-16T14:01:03Z</time>
      </trkpt>
      <trkpt lat="28.7662230" lon="-17.8547630">
        <ele>2136.4</ele>
        <time>2020-11-16T14:01:04Z</time>
      </trkpt>
      <trkpt lat="28.7662750" lon="-17.8547720">
        <ele>2135.9</ele>
        <time>2020-11-16T14:01:05Z</time>
      </trkpt>
      <trkpt lat="28.7662750" lon="-17.8547720">
        <ele>2135.9</ele>
        <time>2020-11-16T14:01:06Z</time>
      </trkpt>
      <trkpt lat="28.7663730" lon="-17.8547900">
        <ele>2135.0</ele>
        <time>2020-11-16T14:01:07Z</time>
      </trkpt>
      <trkpt lat="28.7663730" lon="-17.8547900">
        <ele>2135.0</ele>
        <time>2020-11-16T14:01:08Z</time>
      </trkpt>
      <trkpt lat="28.7664420" lon="-17.8548280">
        <ele>2134.3</ele>
        <time>2020-11-16T14:01:09Z</time>
      </trkpt>
      <trkpt lat="28.7664420" lon="-17.8548280">
        <ele>2134.3</ele>
        <time>2020-11-16T14:01:10Z</time>
      </trkpt>
      <trkpt lat="28.7664880" lon="-17.8548980">
        <ele>2133.5</ele>
        <time>2020-11-16T14:01:11Z</time>
      </trkpt>
      <trkpt lat="28.7664880" lon="-17.8548980">
        <ele>2133.5</ele>
        <time>2020-11-16T14:01:12Z</time>
      </trkpt>
      <trkpt lat="28.7665170" lon="-17.8549900">
        <ele>2132.7</ele>
        <time>2020-11-16T14:01:13Z</time>
      </trkpt>
      <trkpt lat="28.7665170" lon="-17.8549900">
        <ele>2132.7</ele>
        <time>2020-11-16T14:01:14Z</time>
      </trkpt>
      <trkpt lat="28.7665420" lon="-17.8550720">
        <ele>2132.0</ele>
        <time>2020-11-16T14:01:15Z</time>
      </trkpt>
      <trkpt lat="28.7665420" lon="-17.8550720">
        <ele>2132.0</ele>
        <time>2020-11-16T14:01:16Z</time>
      </trkpt>
      <trkpt lat="28.7665800" lon="-17.8551530">
        <ele>2131.3</ele>
        <time>2020-11-16T14:01:17Z</time>
      </trkpt>
      <trkpt lat="28.7665800" lon="-17.8551530">
        <ele>2131.3</ele>
        <time>2020-11-16T14:01:18Z</time>
      </trkpt>
      <trkpt lat="28.7666070" lon="-17.8552650">
        <ele>2130.3</ele>
        <time>2020-11-16T14:01:19Z</time>
      </trkpt>
      <trkpt lat="28.7666280" lon="-17.8553250">
        <ele>2129.8</ele>
        <time>2020-11-16T14:01:20Z</time>
      </trkpt>
      <trkpt lat="28.7666280" lon="-17.8553250">
        <ele>2129.8</ele>
        <time>2020-11-16T14:01:21Z</time>
      </trkpt>
      <trkpt lat="28.7666900" lon="-17.8554480">
        <ele>2128.7</ele>
        <time>2020-11-16T14:01:22Z</time>
      </trkpt>
      <trkpt lat="28.7666900" lon="-17.8554480">
        <ele>2128.7</ele>
        <time>2020-11-16T14:01:23Z</time>
      </trkpt>
      <trkpt lat="28.7667520" lon="-17.8555630">
        <ele>2127.5</ele>
        <time>2020-11-16T14:01:24Z</time>
      </trkpt>
      <trkpt lat="28.7667520" lon="-17.8555630">
        <ele>2127.5</ele>
        <time>2020-11-16T14:01:25Z</time>
      </trkpt>
      <trkpt lat="28.7668180" lon="-17.8556750">
        <ele>2126.4</ele>
        <time>2020-11-16T14:01:26Z</time>
      </trkpt>
      <trkpt lat="28.7668180" lon="-17.8556750">
        <ele>2126.4</ele>
        <time>2020-11-16T14:01:27Z</time>
      </trkpt>
      <trkpt lat="28.7668880" lon="-17.8557780">
        <ele>2125.4</ele>
        <time>2020-11-16T14:01:28Z</time>
      </trkpt>
      <trkpt lat="28.7669250" lon="-17.8558230">
        <ele>2124.9</ele>
        <time>2020-11-16T14:01:29Z</time>
      </trkpt>
      <trkpt lat="28.7669250" lon="-17.8558230">
        <ele>2124.9</ele>
        <time>2020-11-16T14:01:30Z</time>
      </trkpt>
      <trkpt lat="28.7670020" lon="-17.8558930">
        <ele>2124.0</ele>
        <time>2020-11-16T14:01:31Z</time>
      </trkpt>
      <trkpt lat="28.7670020" lon="-17.8558930">
        <ele>2124.0</ele>
        <time>2020-11-16T14:01:32Z</time>
      </trkpt>
      <trkpt lat="28.7670820" lon="-17.8559000">
        <ele>2123.2</ele>
        <time>2020-11-16T14:01:33Z</time>
      </trkpt>
      <trkpt lat="28.7670820" lon="-17.8559000">
        <ele>2123.2</ele>
        <time>2020-11-16T14:01:34Z</time>
      </trkpt>
      <trkpt lat="28.7671330" lon="-17.8558580">
        <ele>2122.6</ele>
        <time>2020-11-16T14:01:35Z</time>
      </trkpt>
      <trkpt lat="28.7671330" lon="-17.8558580">
        <ele>2122.6</ele>
        <time>2020-11-16T14:01:36Z</time>
      </trkpt>
      <trkpt lat="28.7671430" lon="-17.8558200">
        <ele>2122.3</ele>
        <time>2020-11-16T14:01:37Z</time>
      </trkpt>
      <trkpt lat="28.7671430" lon="-17.8558120">
        <ele>2122.2</ele>
        <time>2020-11-16T14:01:38Z</time>
      </trkpt>
      <trkpt lat="28.7671430" lon="-17.8558120">
        <ele>2122.2</ele>
        <time>2020-11-16T14:01:39Z</time>
      </trkpt>
      <trkpt lat="28.7671430" lon="-17.8558080">
        <ele>2122.2</ele>
        <time>2020-11-16T14:01:40Z</time>
      </trkpt>
      <trkpt lat="28.7671430" lon="-17.8558080">
        <ele>2122.2</ele>
        <time>2020-11-16T14:05:28Z</time>
      </trkpt>
      <trkpt lat="28.7671280" lon="-17.8557000">
        <ele>2121.3</ele>
        <time>2020-11-16T14:05:29Z</time>
      </trkpt>
      <trkpt lat="28.7671280" lon="-17.8557000">
        <ele>2121.3</ele>
        <time>2020-11-16T14:05:30Z</time>
      </trkpt>
      <trkpt lat="28.7670980" lon="-17.8556130">
        <ele>2120.5</ele>
        <time>2020-11-16T14:05:31Z</time>
      </trkpt>
      <trkpt lat="28.7670850" lon="-17.8555650">
        <ele>2120.1</ele>
        <time>2020-11-16T14:05:32Z</time>
      </trkpt>
      <trkpt lat="28.7670850" lon="-17.8555650">
        <ele>2120.1</ele>
        <time>2020-11-16T14:05:33Z</time>
      </trkpt>
      <trkpt lat="28.7670620" lon="-17.8554770">
        <ele>2119.4</ele>
        <time>2020-11-16T14:05:34Z</time>
      </trkpt>
      <trkpt lat="28.7670620" lon="-17.8554770">
        <ele>2119.4</ele>
        <time>2020-11-16T14:05:35Z</time>
      </trkpt>
      <trkpt lat="28.7670420" lon="-17.8554180">
        <ele>2118.9</ele>
        <time>2020-11-16T14:05:36Z</time>
      </trkpt>
      <trkpt lat="28.7670420" lon="-17.8554180">
        <ele>2118.9</ele>
        <time>2020-11-16T14:05:37Z</time>
      </trkpt>
      <trkpt lat="28.7670220" lon="-17.8553630">
        <ele>2118.4</ele>
        <time>2020-11-16T14:05:38Z</time>
      </trkpt>
      <trkpt lat="28.7670120" lon="-17.8553350">
        <ele>2118.1</ele>
        <time>2020-11-16T14:05:39Z</time>
      </trkpt>
      <trkpt lat="28.7670120" lon="-17.8553350">
        <ele>2118.1</ele>
        <time>2020-11-16T14:05:40Z</time>
      </trkpt>
      <trkpt lat="28.7669980" lon="-17.8552830">
        <ele>2117.7</ele>
        <time>2020-11-16T14:05:41Z</time>
      </trkpt>
      <trkpt lat="28.7669980" lon="-17.8552830">
        <ele>2117.7</ele>
        <time>2020-11-16T14:05:42Z</time>
      </trkpt>
      <trkpt lat="28.7669900" lon="-17.8552270">
        <ele>2117.2</ele>
        <time>2020-11-16T14:05:43Z</time>
      </trkpt>
      <trkpt lat="28.7669900" lon="-17.8552270">
        <ele>2117.2</ele>
        <time>2020-11-16T14:05:44Z</time>
      </trkpt>
      <trkpt lat="28.7669900" lon="-17.8552270">
        <ele>2117.2</ele>
        <time>2020-11-16T14:05:45Z</time>
      </trkpt>
      <trkpt lat="28.7669780" lon="-17.8551770">
        <ele>2116.8</ele>
        <time>2020-11-16T14:05:46Z</time>
      </trkpt>
      <trkpt lat="28.7669770" lon="-17.8551280">
        <ele>2116.4</ele>
        <time>2020-11-16T14:05:47Z</time>
      </trkpt>
      <trkpt lat="28.7669770" lon="-17.8551280">
        <ele>2116.4</ele>
        <time>2020-11-16T14:05:48Z</time>
      </trkpt>
      <trkpt lat="28.7669730" lon="-17.8550730">
        <ele>2116.0</ele>
        <time>2020-11-16T14:05:49Z</time>
      </trkpt>
      <trkpt lat="28.7669730" lon="-17.8550420">
        <ele>2115.7</ele>
        <time>2020-11-16T14:05:50Z</time>
      </trkpt>
      <trkpt lat="28.7669730" lon="-17.8550420">
        <ele>2115.7</ele>
        <time>2020-11-16T14:05:51Z</time>
      </trkpt>
      <trkpt lat="28.7669820" lon="-17.8549820">
        <ele>2115.2</ele>
        <time>2020-11-16T14:05:52Z</time>
      </trkpt>
      <trkpt lat="28.7669820" lon="-17.8549820">
        <ele>2115.2</ele>
        <time>2020-11-16T14:05:53Z</time>
      </trkpt>
      <trkpt lat="28.7669950" lon="-17.8549230">
        <ele>2114.7</ele>
        <time>2020-11-16T14:05:54Z</time>
      </trkpt>
      <trkpt lat="28.7670030" lon="-17.8548920">
        <ele>2114.4</ele>
        <time>2020-11-16T14:05:55Z</time>
      </trkpt>
      <trkpt lat="28.7670030" lon="-17.8548920">
        <ele>2114.4</ele>
        <time>2020-11-16T14:05:56Z</time>
      </trkpt>
      <trkpt lat="28.7670250" lon="-17.8548250">
        <ele>2113.9</ele>
        <time>2020-11-16T14:05:57Z</time>
      </trkpt>
      <trkpt lat="28.7670250" lon="-17.8548250">
        <ele>2113.9</ele>
        <time>2020-11-16T14:05:58Z</time>
      </trkpt>
      <trkpt lat="28.7670470" lon="-17.8547420">
        <ele>2113.1</ele>
        <time>2020-11-16T14:05:59Z</time>
      </trkpt>
      <trkpt lat="28.7670570" lon="-17.8546900">
        <ele>2112.7</ele>
        <time>2020-11-16T14:06:00Z</time>
      </trkpt>
      <trkpt lat="28.7670570" lon="-17.8546900">
        <ele>2112.7</ele>
        <time>2020-11-16T14:06:01Z</time>
      </trkpt>
      <trkpt lat="28.7670980" lon="-17.8545730">
        <ele>2111.7</ele>
        <time>2020-11-16T14:06:02Z</time>
      </trkpt>
      <trkpt lat="28.7670980" lon="-17.8545730">
        <ele>2111.7</ele>
        <time>2020-11-16T14:06:03Z</time>
      </trkpt>
      <trkpt lat="28.7671430" lon="-17.8544700">
        <ele>2110.7</ele>
        <time>2020-11-16T14:06:04Z</time>
      </trkpt>
      <trkpt lat="28.7671430" lon="-17.8544700">
        <ele>2110.7</ele>
        <time>2020-11-16T14:06:05Z</time>
      </trkpt>
      <trkpt lat="28.7671850" lon="-17.8544200">
        <ele>2110.2</ele>
        <time>2020-11-16T14:06:06Z</time>
      </trkpt>
      <trkpt lat="28.7671850" lon="-17.8544200">
        <ele>2110.2</ele>
        <time>2020-11-16T14:06:07Z</time>
      </trkpt>
      <trkpt lat="28.7672150" lon="-17.8543720">
        <ele>2109.7</ele>
        <time>2020-11-16T14:06:08Z</time>
      </trkpt>
      <trkpt lat="28.7672150" lon="-17.8543720">
        <ele>2109.7</ele>
        <time>2020-11-16T14:06:09Z</time>
      </trkpt>
      <trkpt lat="28.7672430" lon="-17.8543230">
        <ele>2109.2</ele>
        <time>2020-11-16T14:06:10Z</time>
      </trkpt>
      <trkpt lat="28.7672430" lon="-17.8543230">
        <ele>2109.2</ele>
        <time>2020-11-16T14:06:11Z</time>
      </trkpt>
      <trkpt lat="28.7672750" lon="-17.8542720">
        <ele>2108.7</ele>
        <time>2020-11-16T14:06:12Z</time>
      </trkpt>
      <trkpt lat="28.7672750" lon="-17.8542720">
        <ele>2108.7</ele>
        <time>2020-11-16T14:06:13Z</time>
      </trkpt>
      <trkpt lat="28.7673000" lon="-17.8542150">
        <ele>2108.2</ele>
        <time>2020-11-16T14:06:14Z</time>
      </trkpt>
      <trkpt lat="28.7673000" lon="-17.8542150">
        <ele>2108.2</ele>
        <time>2020-11-16T14:06:15Z</time>
      </trkpt>
      <trkpt lat="28.7673300" lon="-17.8541520">
        <ele>2107.6</ele>
        <time>2020-11-16T14:06:16Z</time>
      </trkpt>
      <trkpt lat="28.7673300" lon="-17.8541520">
        <ele>2107.6</ele>
        <time>2020-11-16T14:06:17Z</time>
      </trkpt>
      <trkpt lat="28.7673550" lon="-17.8540750">
        <ele>2106.9</ele>
        <time>2020-11-16T14:06:18Z</time>
      </trkpt>
      <trkpt lat="28.7673550" lon="-17.8540750">
        <ele>2106.9</ele>
        <time>2020-11-16T14:06:19Z</time>
      </trkpt>
      <trkpt lat="28.7673750" lon="-17.8540020">
        <ele>2106.3</ele>
        <time>2020-11-16T14:06:20Z</time>
      </trkpt>
      <trkpt lat="28.7673750" lon="-17.8540020">
        <ele>2106.3</ele>
        <time>2020-11-16T14:06:21Z</time>
      </trkpt>
      <trkpt lat="28.7673900" lon="-17.8539370">
        <ele>2105.8</ele>
        <time>2020-11-16T14:06:22Z</time>
      </trkpt>
      <trkpt lat="28.7673900" lon="-17.8539370">
        <ele>2105.8</ele>
        <time>2020-11-16T14:06:23Z</time>
      </trkpt>
      <trkpt lat="28.7673970" lon="-17.8538720">
        <ele>2105.2</ele>
        <time>2020-11-16T14:06:24Z</time>
      </trkpt>
      <trkpt lat="28.7673970" lon="-17.8538720">
        <ele>2105.2</ele>
        <time>2020-11-16T14:06:25Z</time>
      </trkpt>
      <trkpt lat="28.7674070" lon="-17.8538100">
        <ele>2104.7</ele>
        <time>2020-11-16T14:06:26Z</time>
      </trkpt>
      <trkpt lat="28.7674070" lon="-17.8538100">
        <ele>2104.7</ele>
        <time>2020-11-16T14:06:27Z</time>
      </trkpt>
      <trkpt lat="28.7674150" lon="-17.8537480">
        <ele>2104.2</ele>
        <time>2020-11-16T14:06:28Z</time>
      </trkpt>
      <trkpt lat="28.7674150" lon="-17.8537480">
        <ele>2104.2</ele>
        <time>2020-11-16T14:06:29Z</time>
      </trkpt>
      <trkpt lat="28.7674230" lon="-17.8536830">
        <ele>2103.7</ele>
        <time>2020-11-16T14:06:30Z</time>
      </trkpt>
      <trkpt lat="28.7674230" lon="-17.8536830">
        <ele>2103.7</ele>
        <time>2020-11-16T14:06:31Z</time>
      </trkpt>
      <trkpt lat="28.7674180" lon="-17.8536120">
        <ele>2103.1</ele>
        <time>2020-11-16T14:06:32Z</time>
      </trkpt>
      <trkpt lat="28.7674180" lon="-17.8536120">
        <ele>2103.1</ele>
        <time>2020-11-16T14:06:33Z</time>
      </trkpt>
      <trkpt lat="28.7674130" lon="-17.8535480">
        <ele>2102.6</ele>
        <time>2020-11-16T14:06:34Z</time>
      </trkpt>
      <trkpt lat="28.7674130" lon="-17.8535480">
        <ele>2102.6</ele>
        <time>2020-11-16T14:06:35Z</time>
      </trkpt>
      <trkpt lat="28.7674100" lon="-17.8534950">
        <ele>2102.1</ele>
        <time>2020-11-16T14:06:36Z</time>
      </trkpt>
      <trkpt lat="28.7674100" lon="-17.8534950">
        <ele>2102.1</ele>
        <time>2020-11-16T14:06:37Z</time>
      </trkpt>
      <trkpt lat="28.7674150" lon="-17.8534530">
        <ele>2101.8</ele>
        <time>2020-11-16T14:06:38Z</time>
      </trkpt>
      <trkpt lat="28.7674150" lon="-17.8534530">
        <ele>2101.8</ele>
        <time>2020-11-16T14:06:39Z</time>
      </trkpt>
      <trkpt lat="28.7674200" lon="-17.8534100">
        <ele>2101.4</ele>
        <time>2020-11-16T14:06:40Z</time>
      </trkpt>
      <trkpt lat="28.7674200" lon="-17.8534100">
        <ele>2101.4</ele>
        <time>2020-11-16T14:06:41Z</time>
      </trkpt>
      <trkpt lat="28.7674330" lon="-17.8533650">
        <ele>2101.0</ele>
        <time>2020-11-16T14:06:42Z</time>
      </trkpt>
      <trkpt lat="28.7674330" lon="-17.8533650">
        <ele>2101.0</ele>
        <time>2020-11-16T14:06:43Z</time>
      </trkpt>
      <trkpt lat="28.7674430" lon="-17.8533220">
        <ele>2100.7</ele>
        <time>2020-11-16T14:06:44Z</time>
      </trkpt>
      <trkpt lat="28.7674430" lon="-17.8533220">
        <ele>2100.7</ele>
        <time>2020-11-16T14:06:45Z</time>
      </trkpt>
      <trkpt lat="28.7674580" lon="-17.8532750">
        <ele>2100.3</ele>
        <time>2020-11-16T14:06:46Z</time>
      </trkpt>
      <trkpt lat="28.7674580" lon="-17.8532750">
        <ele>2100.3</ele>
        <time>2020-11-16T14:06:47Z</time>
      </trkpt>
      <trkpt lat="28.7674820" lon="-17.8532100">
        <ele>2099.7</ele>
        <time>2020-11-16T14:06:48Z</time>
      </trkpt>
      <trkpt lat="28.7674820" lon="-17.8532100">
        <ele>2099.7</ele>
        <time>2020-11-16T14:06:49Z</time>
      </trkpt>
      <trkpt lat="28.7675020" lon="-17.8531400">
        <ele>2099.1</ele>
        <time>2020-11-16T14:06:50Z</time>
      </trkpt>
      <trkpt lat="28.7675020" lon="-17.8531400">
        <ele>2099.1</ele>
        <time>2020-11-16T14:06:51Z</time>
      </trkpt>
      <trkpt lat="28.7675200" lon="-17.8530720">
        <ele>2098.5</ele>
        <time>2020-11-16T14:06:52Z</time>
      </trkpt>
      <trkpt lat="28.7675200" lon="-17.8530720">
        <ele>2098.5</ele>
        <time>2020-11-16T14:06:53Z</time>
      </trkpt>
      <trkpt lat="28.7675350" lon="-17.8530020">
        <ele>2097.9</ele>
        <time>2020-11-16T14:06:54Z</time>
      </trkpt>
      <trkpt lat="28.7675350" lon="-17.8530020">
        <ele>2097.9</ele>
        <time>2020-11-16T14:06:55Z</time>
      </trkpt>
      <trkpt lat="28.7675480" lon="-17.8529280">
        <ele>2097.3</ele>
        <time>2020-11-16T14:06:56Z</time>
      </trkpt>
      <trkpt lat="28.7675480" lon="-17.8529280">
        <ele>2097.3</ele>
        <time>2020-11-16T14:06:57Z</time>
      </trkpt>
      <trkpt lat="28.7675680" lon="-17.8528530">
        <ele>2096.7</ele>
        <time>2020-11-16T14:06:58Z</time>
      </trkpt>
      <trkpt lat="28.7675680" lon="-17.8528530">
        <ele>2096.7</ele>
        <time>2020-11-16T14:06:59Z</time>
      </trkpt>
      <trkpt lat="28.7675920" lon="-17.8527670">
        <ele>2095.9</ele>
        <time>2020-11-16T14:07:00Z</time>
      </trkpt>
      <trkpt lat="28.7675920" lon="-17.8527670">
        <ele>2095.9</ele>
        <time>2020-11-16T14:07:01Z</time>
      </trkpt>
      <trkpt lat="28.7676200" lon="-17.8526780">
        <ele>2095.1</ele>
        <time>2020-11-16T14:07:02Z</time>
      </trkpt>
      <trkpt lat="28.7676200" lon="-17.8526780">
        <ele>2095.1</ele>
        <time>2020-11-16T14:07:03Z</time>
      </trkpt>
      <trkpt lat="28.7676500" lon="-17.8526020">
        <ele>2094.5</ele>
        <time>2020-11-16T14:07:04Z</time>
      </trkpt>
      <trkpt lat="28.7676500" lon="-17.8526020">
        <ele>2094.5</ele>
        <time>2020-11-16T14:07:05Z</time>
      </trkpt>
      <trkpt lat="28.7676870" lon="-17.8525450">
        <ele>2093.9</ele>
        <time>2020-11-16T14:07:06Z</time>
      </trkpt>
      <trkpt lat="28.7677080" lon="-17.8525270">
        <ele>2093.6</ele>
        <time>2020-11-16T14:07:07Z</time>
      </trkpt>
      <trkpt lat="28.7677080" lon="-17.8525270">
        <ele>2093.6</ele>
        <time>2020-11-16T14:07:08Z</time>
      </trkpt>
      <trkpt lat="28.7677500" lon="-17.8525020">
        <ele>2093.2</ele>
        <time>2020-11-16T14:07:09Z</time>
      </trkpt>
      <trkpt lat="28.7677720" lon="-17.8524900">
        <ele>2093.0</ele>
        <time>2020-11-16T14:07:10Z</time>
      </trkpt>
      <trkpt lat="28.7677720" lon="-17.8524900">
        <ele>2093.0</ele>
        <time>2020-11-16T14:07:11Z</time>
      </trkpt>
      <trkpt lat="28.7678100" lon="-17.8524750">
        <ele>2092.6</ele>
        <time>2020-11-16T14:07:12Z</time>
      </trkpt>
      <trkpt lat="28.7678100" lon="-17.8524750">
        <ele>2092.6</ele>
        <time>2020-11-16T14:07:13Z</time>
      </trkpt>
      <trkpt lat="28.7678520" lon="-17.8524720">
        <ele>2092.2</ele>
        <time>2020-11-16T14:07:14Z</time>
      </trkpt>
      <trkpt lat="28.7678520" lon="-17.8524720">
        <ele>2092.2</ele>
        <time>2020-11-16T14:07:15Z</time>
      </trkpt>
      <trkpt lat="28.7678950" lon="-17.8524650">
        <ele>2091.8</ele>
        <time>2020-11-16T14:07:16Z</time>
      </trkpt>
      <trkpt lat="28.7679180" lon="-17.8524600">
        <ele>2091.6</ele>
        <time>2020-11-16T14:07:17Z</time>
      </trkpt>
      <trkpt lat="28.7679180" lon="-17.8524600">
        <ele>2091.6</ele>
        <time>2020-11-16T14:07:18Z</time>
      </trkpt>
      <trkpt lat="28.7679630" lon="-17.8524480">
        <ele>2091.2</ele>
        <time>2020-11-16T14:07:19Z</time>
      </trkpt>
      <trkpt lat="28.7679630" lon="-17.8524480">
        <ele>2091.2</ele>
        <time>2020-11-16T14:07:20Z</time>
      </trkpt>
      <trkpt lat="28.7680070" lon="-17.8524370">
        <ele>2090.7</ele>
        <time>2020-11-16T14:07:21Z</time>
      </trkpt>
      <trkpt lat="28.7680070" lon="-17.8524370">
        <ele>2090.7</ele>
        <time>2020-11-16T14:07:22Z</time>
      </trkpt>
      <trkpt lat="28.7680530" lon="-17.8524280">
        <ele>2090.3</ele>
        <time>2020-11-16T14:07:23Z</time>
      </trkpt>
      <trkpt lat="28.7680750" lon="-17.8524230">
        <ele>2090.1</ele>
        <time>2020-11-16T14:07:24Z</time>
      </trkpt>
      <trkpt lat="28.7680750" lon="-17.8524230">
        <ele>2090.1</ele>
        <time>2020-11-16T14:07:25Z</time>
      </trkpt>
      <trkpt lat="28.7681170" lon="-17.8524150">
        <ele>2089.7</ele>
        <time>2020-11-16T14:07:26Z</time>
      </trkpt>
      <trkpt lat="28.7681170" lon="-17.8524150">
        <ele>2089.7</ele>
        <time>2020-11-16T14:07:27Z</time>
      </trkpt>
      <trkpt lat="28.7681620" lon="-17.8524120">
        <ele>2089.3</ele>
        <time>2020-11-16T14:07:28Z</time>
      </trkpt>
      <trkpt lat="28.7681620" lon="-17.8524120">
        <ele>2089.3</ele>
        <time>2020-11-16T14:07:29Z</time>
      </trkpt>
      <trkpt lat="28.7681620" lon="-17.8524120">
        <ele>2089.3</ele>
        <time>2020-11-16T14:07:30Z</time>
      </trkpt>
      <trkpt lat="28.7681930" lon="-17.8524080">
        <ele>2089.0</ele>
        <time>2020-11-16T14:07:31Z</time>
      </trkpt>
      <trkpt lat="28.7682230" lon="-17.8524170">
        <ele>2088.7</ele>
        <time>2020-11-16T14:07:32Z</time>
      </trkpt>
      <trkpt lat="28.7682230" lon="-17.8524170">
        <ele>2088.7</ele>
        <time>2020-11-16T14:07:33Z</time>
      </trkpt>
      <trkpt lat="28.7682720" lon="-17.8524130">
        <ele>2088.2</ele>
        <time>2020-11-16T14:07:34Z</time>
      </trkpt>
      <trkpt lat="28.7682720" lon="-17.8524130">
        <ele>2088.2</ele>
        <time>2020-11-16T14:07:35Z</time>
      </trkpt>
      <trkpt lat="28.7683180" lon="-17.8524100">
        <ele>2087.8</ele>
        <time>2020-11-16T14:07:36Z</time>
      </trkpt>
      <trkpt lat="28.7683180" lon="-17.8524100">
        <ele>2087.8</ele>
        <time>2020-11-16T14:07:37Z</time>
      </trkpt>
      <trkpt lat="28.7683570" lon="-17.8524070">
        <ele>2087.4</ele>
        <time>2020-11-16T14:07:38Z</time>
      </trkpt>
      <trkpt lat="28.7683570" lon="-17.8524070">
        <ele>2087.4</ele>
        <time>2020-11-16T14:07:39Z</time>
      </trkpt>
      <trkpt lat="28.7684100" lon="-17.8524070">
        <ele>2086.9</ele>
        <time>2020-11-16T14:07:40Z</time>
      </trkpt>
      <trkpt lat="28.7684100" lon="-17.8524070">
        <ele>2086.9</ele>
        <time>2020-11-16T14:07:41Z</time>
      </trkpt>
      <trkpt lat="28.7684680" lon="-17.8524330">
        <ele>2086.4</ele>
        <time>2020-11-16T14:07:42Z</time>
      </trkpt>
      <trkpt lat="28.7684680" lon="-17.8524330">
        <ele>2086.4</ele>
        <time>2020-11-16T14:07:43Z</time>
      </trkpt>
      <trkpt lat="28.7685280" lon="-17.8524650">
        <ele>2085.7</ele>
        <time>2020-11-16T14:07:44Z</time>
      </trkpt>
      <trkpt lat="28.7685280" lon="-17.8524650">
        <ele>2085.7</ele>
        <time>2020-11-16T14:07:45Z</time>
      </trkpt>
      <trkpt lat="28.7686030" lon="-17.8524750">
        <ele>2085.0</ele>
        <time>2020-11-16T14:07:46Z</time>
      </trkpt>
      <trkpt lat="28.7686030" lon="-17.8524750">
        <ele>2085.0</ele>
        <time>2020-11-16T14:07:47Z</time>
      </trkpt>
      <trkpt lat="28.7686780" lon="-17.8524730">
        <ele>2084.3</ele>
        <time>2020-11-16T14:07:48Z</time>
      </trkpt>
      <trkpt lat="28.7687070" lon="-17.8524700">
        <ele>2084.1</ele>
        <time>2020-11-16T14:07:49Z</time>
      </trkpt>
      <trkpt lat="28.7687070" lon="-17.8524700">
        <ele>2084.1</ele>
        <time>2020-11-16T14:07:50Z</time>
      </trkpt>
      <trkpt lat="28.7687550" lon="-17.8524620">
        <ele>2083.6</ele>
        <time>2020-11-16T14:07:51Z</time>
      </trkpt>
      <trkpt lat="28.7687550" lon="-17.8524620">
        <ele>2083.6</ele>
        <time>2020-11-16T14:07:52Z</time>
      </trkpt>
      <trkpt lat="28.7687920" lon="-17.8524400">
        <ele>2083.2</ele>
        <time>2020-11-16T14:07:53Z</time>
      </trkpt>
      <trkpt lat="28.7687920" lon="-17.8524400">
        <ele>2083.2</ele>
        <time>2020-11-16T14:07:54Z</time>
      </trkpt>
      <trkpt lat="28.7688200" lon="-17.8524170">
        <ele>2082.9</ele>
        <time>2020-11-16T14:07:55Z</time>
      </trkpt>
      <trkpt lat="28.7688200" lon="-17.8524170">
        <ele>2082.9</ele>
        <time>2020-11-16T14:07:56Z</time>
      </trkpt>
      <trkpt lat="28.7688500" lon="-17.8523920">
        <ele>2082.6</ele>
        <time>2020-11-16T14:07:57Z</time>
      </trkpt>
      <trkpt lat="28.7688500" lon="-17.8523920">
        <ele>2082.6</ele>
        <time>2020-11-16T14:07:58Z</time>
      </trkpt>
      <trkpt lat="28.7688970" lon="-17.8523500">
        <ele>2082.0</ele>
        <time>2020-11-16T14:07:59Z</time>
      </trkpt>
      <trkpt lat="28.7688970" lon="-17.8523500">
        <ele>2082.0</ele>
        <time>2020-11-16T14:08:00Z</time>
      </trkpt>
      <trkpt lat="28.7689620" lon="-17.8522880">
        <ele>2081.2</ele>
        <time>2020-11-16T14:08:01Z</time>
      </trkpt>
      <trkpt lat="28.7690000" lon="-17.8522570">
        <ele>2080.8</ele>
        <time>2020-11-16T14:08:02Z</time>
      </trkpt>
      <trkpt lat="28.7690000" lon="-17.8522570">
        <ele>2080.8</ele>
        <time>2020-11-16T14:08:03Z</time>
      </trkpt>
      <trkpt lat="28.7691070" lon="-17.8522120">
        <ele>2079.7</ele>
        <time>2020-11-16T14:08:04Z</time>
      </trkpt>
      <trkpt lat="28.7691070" lon="-17.8522120">
        <ele>2079.7</ele>
        <time>2020-11-16T14:08:05Z</time>
      </trkpt>
      <trkpt lat="28.7692080" lon="-17.8521900">
        <ele>2078.8</ele>
        <time>2020-11-16T14:08:06Z</time>
      </trkpt>
      <trkpt lat="28.7692080" lon="-17.8521900">
        <ele>2078.8</ele>
        <time>2020-11-16T14:08:07Z</time>
      </trkpt>
      <trkpt lat="28.7693120" lon="-17.8521720">
        <ele>2077.8</ele>
        <time>2020-11-16T14:08:08Z</time>
      </trkpt>
      <trkpt lat="28.7693120" lon="-17.8521720">
        <ele>2077.8</ele>
        <time>2020-11-16T14:08:09Z</time>
      </trkpt>
      <trkpt lat="28.7693980" lon="-17.8521400">
        <ele>2076.9</ele>
        <time>2020-11-16T14:08:10Z</time>
      </trkpt>
      <trkpt lat="28.7693980" lon="-17.8521400">
        <ele>2076.9</ele>
        <time>2020-11-16T14:08:11Z</time>
      </trkpt>
      <trkpt lat="28.7694520" lon="-17.8521070">
        <ele>2076.4</ele>
        <time>2020-11-16T14:08:12Z</time>
      </trkpt>
      <trkpt lat="28.7694520" lon="-17.8521070">
        <ele>2076.4</ele>
        <time>2020-11-16T14:08:13Z</time>
      </trkpt>
      <trkpt lat="28.7694950" lon="-17.8520730">
        <ele>2075.9</ele>
        <time>2020-11-16T14:08:14Z</time>
      </trkpt>
      <trkpt lat="28.7694950" lon="-17.8520730">
        <ele>2075.9</ele>
        <time>2020-11-16T14:08:15Z</time>
      </trkpt>
      <trkpt lat="28.7695350" lon="-17.8520450">
        <ele>2075.4</ele>
        <time>2020-11-16T14:08:16Z</time>
      </trkpt>
      <trkpt lat="28.7695350" lon="-17.8520450">
        <ele>2075.4</ele>
        <time>2020-11-16T14:08:17Z</time>
      </trkpt>
      <trkpt lat="28.7695780" lon="-17.8520170">
        <ele>2075.0</ele>
        <time>2020-11-16T14:08:18Z</time>
      </trkpt>
      <trkpt lat="28.7695780" lon="-17.8520170">
        <ele>2075.0</ele>
        <time>2020-11-16T14:08:19Z</time>
      </trkpt>
      <trkpt lat="28.7696300" lon="-17.8519920">
        <ele>2074.5</ele>
        <time>2020-11-16T14:08:20Z</time>
      </trkpt>
      <trkpt lat="28.7696300" lon="-17.8519920">
        <ele>2074.5</ele>
        <time>2020-11-16T14:08:21Z</time>
      </trkpt>
      <trkpt lat="28.7696730" lon="-17.8519720">
        <ele>2074.0</ele>
        <time>2020-11-16T14:08:22Z</time>
      </trkpt>
      <trkpt lat="28.7696730" lon="-17.8519720">
        <ele>2074.0</ele>
        <time>2020-11-16T14:08:23Z</time>
      </trkpt>
      <trkpt lat="28.7697120" lon="-17.8519580">
        <ele>2073.6</ele>
        <time>2020-11-16T14:08:24Z</time>
      </trkpt>
      <trkpt lat="28.7697120" lon="-17.8519580">
        <ele>2073.6</ele>
        <time>2020-11-16T14:08:25Z</time>
      </trkpt>
      <trkpt lat="28.7697350" lon="-17.8519450">
        <ele>2073.4</ele>
        <time>2020-11-16T14:08:26Z</time>
      </trkpt>
      <trkpt lat="28.7697350" lon="-17.8519450">
        <ele>2073.4</ele>
        <time>2020-11-16T14:08:27Z</time>
      </trkpt>
      <trkpt lat="28.7697580" lon="-17.8519270">
        <ele>2073.1</ele>
        <time>2020-11-16T14:08:28Z</time>
      </trkpt>
      <trkpt lat="28.7697580" lon="-17.8519270">
        <ele>2073.1</ele>
        <time>2020-11-16T14:08:29Z</time>
      </trkpt>
      <trkpt lat="28.7697930" lon="-17.8519130">
        <ele>2072.8</ele>
        <time>2020-11-16T14:08:30Z</time>
      </trkpt>
      <trkpt lat="28.7697930" lon="-17.8519130">
        <ele>2072.8</ele>
        <time>2020-11-16T14:08:31Z</time>
      </trkpt>
      <trkpt lat="28.7698370" lon="-17.8518970">
        <ele>2072.4</ele>
        <time>2020-11-16T14:08:32Z</time>
      </trkpt>
      <trkpt lat="28.7698370" lon="-17.8518970">
        <ele>2072.4</ele>
        <time>2020-11-16T14:08:33Z</time>
      </trkpt>
      <trkpt lat="28.7698780" lon="-17.8518750">
        <ele>2071.9</ele>
        <time>2020-11-16T14:08:34Z</time>
      </trkpt>
      <trkpt lat="28.7699020" lon="-17.8518650">
        <ele>2071.7</ele>
        <time>2020-11-16T14:08:35Z</time>
      </trkpt>
      <trkpt lat="28.7699020" lon="-17.8518650">
        <ele>2071.7</ele>
        <time>2020-11-16T14:08:36Z</time>
      </trkpt>
      <trkpt lat="28.7699480" lon="-17.8518500">
        <ele>2071.3</ele>
        <time>2020-11-16T14:08:37Z</time>
      </trkpt>
      <trkpt lat="28.7699730" lon="-17.8518420">
        <ele>2071.0</ele>
        <time>2020-11-16T14:08:38Z</time>
      </trkpt>
      <trkpt lat="28.7699730" lon="-17.8518420">
        <ele>2071.0</ele>
        <time>2020-11-16T14:08:39Z</time>
      </trkpt>
      <trkpt lat="28.7700200" lon="-17.8518320">
        <ele>2070.6</ele>
        <time>2020-11-16T14:08:40Z</time>
      </trkpt>
      <trkpt lat="28.7700200" lon="-17.8518320">
        <ele>2070.6</ele>
        <time>2020-11-16T14:08:41Z</time>
      </trkpt>
      <trkpt lat="28.7700630" lon="-17.8518120">
        <ele>2070.1</ele>
        <time>2020-11-16T14:08:42Z</time>
      </trkpt>
      <trkpt lat="28.7700880" lon="-17.8518000">
        <ele>2069.9</ele>
        <time>2020-11-16T14:08:43Z</time>
      </trkpt>
      <trkpt lat="28.7701150" lon="-17.8517950">
        <ele>2069.6</ele>
        <time>2020-11-16T14:08:44Z</time>
      </trkpt>
      <trkpt lat="28.7701150" lon="-17.8517950">
        <ele>2069.6</ele>
        <time>2020-11-16T14:08:45Z</time>
      </trkpt>
      <trkpt lat="28.7701770" lon="-17.8517730">
        <ele>2069.0</ele>
        <time>2020-11-16T14:08:46Z</time>
      </trkpt>
      <trkpt lat="28.7701770" lon="-17.8517730">
        <ele>2069.0</ele>
        <time>2020-11-16T14:08:47Z</time>
      </trkpt>
      <trkpt lat="28.7702400" lon="-17.8517350">
        <ele>2068.4</ele>
        <time>2020-11-16T14:08:48Z</time>
      </trkpt>
      <trkpt lat="28.7702400" lon="-17.8517350">
        <ele>2068.4</ele>
        <time>2020-11-16T14:08:49Z</time>
      </trkpt>
      <trkpt lat="28.7703000" lon="-17.8516850">
        <ele>2067.7</ele>
        <time>2020-11-16T14:08:50Z</time>
      </trkpt>
      <trkpt lat="28.7703000" lon="-17.8516850">
        <ele>2067.7</ele>
        <time>2020-11-16T14:08:51Z</time>
      </trkpt>
      <trkpt lat="28.7703520" lon="-17.8516370">
        <ele>2067.0</ele>
        <time>2020-11-16T14:08:52Z</time>
      </trkpt>
      <trkpt lat="28.7703520" lon="-17.8516370">
        <ele>2067.0</ele>
        <time>2020-11-16T14:08:53Z</time>
      </trkpt>
      <trkpt lat="28.7703930" lon="-17.8516020">
        <ele>2066.6</ele>
        <time>2020-11-16T14:08:54Z</time>
      </trkpt>
      <trkpt lat="28.7703930" lon="-17.8516020">
        <ele>2066.6</ele>
        <time>2020-11-16T14:08:55Z</time>
      </trkpt>
      <trkpt lat="28.7704420" lon="-17.8515650">
        <ele>2066.0</ele>
        <time>2020-11-16T14:08:56Z</time>
      </trkpt>
      <trkpt lat="28.7704420" lon="-17.8515650">
        <ele>2066.0</ele>
        <time>2020-11-16T14:08:57Z</time>
      </trkpt>
      <trkpt lat="28.7704930" lon="-17.8515220">
        <ele>2065.4</ele>
        <time>2020-11-16T14:08:58Z</time>
      </trkpt>
      <trkpt lat="28.7704930" lon="-17.8515220">
        <ele>2065.4</ele>
        <time>2020-11-16T14:08:59Z</time>
      </trkpt>
      <trkpt lat="28.7705680" lon="-17.8514780">
        <ele>2064.8</ele>
        <time>2020-11-16T14:09:00Z</time>
      </trkpt>
      <trkpt lat="28.7705680" lon="-17.8514780">
        <ele>2064.8</ele>
        <time>2020-11-16T14:09:01Z</time>
      </trkpt>
      <trkpt lat="28.7706300" lon="-17.8514450">
        <ele>2064.2</ele>
        <time>2020-11-16T14:09:02Z</time>
      </trkpt>
      <trkpt lat="28.7706300" lon="-17.8514450">
        <ele>2064.2</ele>
        <time>2020-11-16T14:09:03Z</time>
      </trkpt>
      <trkpt lat="28.7706950" lon="-17.8514230">
        <ele>2063.7</ele>
        <time>2020-11-16T14:09:04Z</time>
      </trkpt>
      <trkpt lat="28.7706950" lon="-17.8514230">
        <ele>2063.7</ele>
        <time>2020-11-16T14:09:05Z</time>
      </trkpt>
      <trkpt lat="28.7707570" lon="-17.8514080">
        <ele>2063.1</ele>
        <time>2020-11-16T14:09:06Z</time>
      </trkpt>
      <trkpt lat="28.7707570" lon="-17.8514080">
        <ele>2063.1</ele>
        <time>2020-11-16T14:09:07Z</time>
      </trkpt>
      <trkpt lat="28.7708250" lon="-17.8513980">
        <ele>2062.6</ele>
        <time>2020-11-16T14:09:08Z</time>
      </trkpt>
      <trkpt lat="28.7708250" lon="-17.8513980">
        <ele>2062.6</ele>
        <time>2020-11-16T14:09:09Z</time>
      </trkpt>
      <trkpt lat="28.7708980" lon="-17.8513920">
        <ele>2062.0</ele>
        <time>2020-11-16T14:09:10Z</time>
      </trkpt>
      <trkpt lat="28.7708980" lon="-17.8513920">
        <ele>2062.0</ele>
        <time>2020-11-16T14:09:11Z</time>
      </trkpt>
      <trkpt lat="28.7709670" lon="-17.8513480">
        <ele>2061.3</ele>
        <time>2020-11-16T14:09:12Z</time>
      </trkpt>
      <trkpt lat="28.7709670" lon="-17.8513480">
        <ele>2061.3</ele>
        <time>2020-11-16T14:09:13Z</time>
      </trkpt>
      <trkpt lat="28.7709950" lon="-17.8512450">
        <ele>2060.6</ele>
        <time>2020-11-16T14:09:14Z</time>
      </trkpt>
      <trkpt lat="28.7709950" lon="-17.8512450">
        <ele>2060.6</ele>
        <time>2020-11-16T14:09:15Z</time>
      </trkpt>
      <trkpt lat="28.7709830" lon="-17.8511080">
        <ele>2059.6</ele>
        <time>2020-11-16T14:09:16Z</time>
      </trkpt>
      <trkpt lat="28.7709830" lon="-17.8511080">
        <ele>2059.6</ele>
        <time>2020-11-16T14:09:17Z</time>
      </trkpt>
      <trkpt lat="28.7709600" lon="-17.8509570">
        <ele>2058.5</ele>
        <time>2020-11-16T14:09:18Z</time>
      </trkpt>
      <trkpt lat="28.7709600" lon="-17.8509570">
        <ele>2058.5</ele>
        <time>2020-11-16T14:09:19Z</time>
      </trkpt>
      <trkpt lat="28.7709300" lon="-17.8507930">
        <ele>2057.3</ele>
        <time>2020-11-16T14:09:20Z</time>
      </trkpt>
      <trkpt lat="28.7709300" lon="-17.8507930">
        <ele>2057.3</ele>
        <time>2020-11-16T14:09:21Z</time>
      </trkpt>
      <trkpt lat="28.7709030" lon="-17.8506480">
        <ele>2056.2</ele>
        <time>2020-11-16T14:09:22Z</time>
      </trkpt>
      <trkpt lat="28.7708920" lon="-17.8505820">
        <ele>2055.7</ele>
        <time>2020-11-16T14:09:23Z</time>
      </trkpt>
      <trkpt lat="28.7708920" lon="-17.8505820">
        <ele>2055.7</ele>
        <time>2020-11-16T14:09:24Z</time>
      </trkpt>
      <trkpt lat="28.7708670" lon="-17.8504570">
        <ele>2054.8</ele>
        <time>2020-11-16T14:09:25Z</time>
      </trkpt>
      <trkpt lat="28.7708670" lon="-17.8504570">
        <ele>2054.8</ele>
        <time>2020-11-16T14:09:26Z</time>
      </trkpt>
      <trkpt lat="28.7708670" lon="-17.8503580">
        <ele>2054.1</ele>
        <time>2020-11-16T14:09:27Z</time>
      </trkpt>
      <trkpt lat="28.7708670" lon="-17.8503580">
        <ele>2054.1</ele>
        <time>2020-11-16T14:09:28Z</time>
      </trkpt>
      <trkpt lat="28.7709180" lon="-17.8502920">
        <ele>2053.5</ele>
        <time>2020-11-16T14:09:29Z</time>
      </trkpt>
      <trkpt lat="28.7709180" lon="-17.8502920">
        <ele>2053.5</ele>
        <time>2020-11-16T14:09:30Z</time>
      </trkpt>
      <trkpt lat="28.7709970" lon="-17.8502630">
        <ele>2052.8</ele>
        <time>2020-11-16T14:09:31Z</time>
      </trkpt>
      <trkpt lat="28.7709970" lon="-17.8502630">
        <ele>2052.8</ele>
        <time>2020-11-16T14:09:32Z</time>
      </trkpt>
      <trkpt lat="28.7710770" lon="-17.8502800">
        <ele>2052.1</ele>
        <time>2020-11-16T14:09:33Z</time>
      </trkpt>
      <trkpt lat="28.7710770" lon="-17.8502800">
        <ele>2052.1</ele>
        <time>2020-11-16T14:09:34Z</time>
      </trkpt>
      <trkpt lat="28.7711450" lon="-17.8503380">
        <ele>2051.4</ele>
        <time>2020-11-16T14:09:35Z</time>
      </trkpt>
      <trkpt lat="28.7711450" lon="-17.8503380">
        <ele>2051.4</ele>
        <time>2020-11-16T14:09:36Z</time>
      </trkpt>
      <trkpt lat="28.7712200" lon="-17.8504030">
        <ele>2050.7</ele>
        <time>2020-11-16T14:09:37Z</time>
      </trkpt>
      <trkpt lat="28.7712200" lon="-17.8504030">
        <ele>2050.7</ele>
        <time>2020-11-16T14:09:38Z</time>
      </trkpt>
      <trkpt lat="28.7712980" lon="-17.8504730">
        <ele>2049.8</ele>
        <time>2020-11-16T14:09:39Z</time>
      </trkpt>
      <trkpt lat="28.7712980" lon="-17.8504730">
        <ele>2049.8</ele>
        <time>2020-11-16T14:09:40Z</time>
      </trkpt>
      <trkpt lat="28.7713720" lon="-17.8505250">
        <ele>2049.1</ele>
        <time>2020-11-16T14:09:41Z</time>
      </trkpt>
      <trkpt lat="28.7713720" lon="-17.8505250">
        <ele>2049.1</ele>
        <time>2020-11-16T14:09:42Z</time>
      </trkpt>
      <trkpt lat="28.7714480" lon="-17.8505730">
        <ele>2048.4</ele>
        <time>2020-11-16T14:09:43Z</time>
      </trkpt>
      <trkpt lat="28.7714480" lon="-17.8505730">
        <ele>2048.4</ele>
        <time>2020-11-16T14:09:44Z</time>
      </trkpt>
      <trkpt lat="28.7715220" lon="-17.8506480">
        <ele>2047.6</ele>
        <time>2020-11-16T14:09:45Z</time>
      </trkpt>
      <trkpt lat="28.7715220" lon="-17.8506480">
        <ele>2047.6</ele>
        <time>2020-11-16T14:09:46Z</time>
      </trkpt>
      <trkpt lat="28.7715900" lon="-17.8507270">
        <ele>2046.8</ele>
        <time>2020-11-16T14:09:47Z</time>
      </trkpt>
      <trkpt lat="28.7715900" lon="-17.8507270">
        <ele>2046.8</ele>
        <time>2020-11-16T14:09:48Z</time>
      </trkpt>
      <trkpt lat="28.7716530" lon="-17.8507950">
        <ele>2046.1</ele>
        <time>2020-11-16T14:09:49Z</time>
      </trkpt>
      <trkpt lat="28.7716820" lon="-17.8508300">
        <ele>2045.8</ele>
        <time>2020-11-16T14:09:50Z</time>
      </trkpt>
      <trkpt lat="28.7716820" lon="-17.8508300">
        <ele>2045.8</ele>
        <time>2020-11-16T14:09:51Z</time>
      </trkpt>
      <trkpt lat="28.7717230" lon="-17.8509130">
        <ele>2045.1</ele>
        <time>2020-11-16T14:09:52Z</time>
      </trkpt>
      <trkpt lat="28.7717230" lon="-17.8509130">
        <ele>2045.1</ele>
        <time>2020-11-16T14:09:53Z</time>
      </trkpt>
      <trkpt lat="28.7717600" lon="-17.8510170">
        <ele>2044.3</ele>
        <time>2020-11-16T14:09:54Z</time>
      </trkpt>
      <trkpt lat="28.7717600" lon="-17.8510170">
        <ele>2044.3</ele>
        <time>2020-11-16T14:09:55Z</time>
      </trkpt>
      <trkpt lat="28.7717820" lon="-17.8511350">
        <ele>2043.4</ele>
        <time>2020-11-16T14:09:56Z</time>
      </trkpt>
      <trkpt lat="28.7717820" lon="-17.8511350">
        <ele>2043.4</ele>
        <time>2020-11-16T14:09:57Z</time>
      </trkpt>
      <trkpt lat="28.7718080" lon="-17.8512370">
        <ele>2042.6</ele>
        <time>2020-11-16T14:09:58Z</time>
      </trkpt>
      <trkpt lat="28.7718330" lon="-17.8512650">
        <ele>2042.4</ele>
        <time>2020-11-16T14:09:59Z</time>
      </trkpt>
      <trkpt lat="28.7718330" lon="-17.8512650">
        <ele>2042.4</ele>
        <time>2020-11-16T14:10:00Z</time>
      </trkpt>
      <trkpt lat="28.7719030" lon="-17.8512580">
        <ele>2041.8</ele>
        <time>2020-11-16T14:10:01Z</time>
      </trkpt>
      <trkpt lat="28.7719300" lon="-17.8512300">
        <ele>2041.5</ele>
        <time>2020-11-16T14:10:02Z</time>
      </trkpt>
      <trkpt lat="28.7719300" lon="-17.8512300">
        <ele>2041.5</ele>
        <time>2020-11-16T14:10:03Z</time>
      </trkpt>
      <trkpt lat="28.7719420" lon="-17.8511170">
        <ele>2040.7</ele>
        <time>2020-11-16T14:10:04Z</time>
      </trkpt>
      <trkpt lat="28.7719420" lon="-17.8511170">
        <ele>2040.7</ele>
        <time>2020-11-16T14:10:05Z</time>
      </trkpt>
      <trkpt lat="28.7719570" lon="-17.8510130">
        <ele>2039.9</ele>
        <time>2020-11-16T14:10:06Z</time>
      </trkpt>
      <trkpt lat="28.7719570" lon="-17.8510130">
        <ele>2039.9</ele>
        <time>2020-11-16T14:10:07Z</time>
      </trkpt>
      <trkpt lat="28.7719900" lon="-17.8509130">
        <ele>2039.1</ele>
        <time>2020-11-16T14:10:08Z</time>
      </trkpt>
      <trkpt lat="28.7719900" lon="-17.8509130">
        <ele>2039.1</ele>
        <time>2020-11-16T14:10:09Z</time>
      </trkpt>
      <trkpt lat="28.7720320" lon="-17.8508250">
        <ele>2038.4</ele>
        <time>2020-11-16T14:10:10Z</time>
      </trkpt>
      <trkpt lat="28.7720320" lon="-17.8508250">
        <ele>2038.4</ele>
        <time>2020-11-16T14:10:11Z</time>
      </trkpt>
      <trkpt lat="28.7720580" lon="-17.8507220">
        <ele>2037.7</ele>
        <time>2020-11-16T14:10:12Z</time>
      </trkpt>
      <trkpt lat="28.7720580" lon="-17.8507220">
        <ele>2037.7</ele>
        <time>2020-11-16T14:10:13Z</time>
      </trkpt>
      <trkpt lat="28.7720720" lon="-17.8506030">
        <ele>2036.8</ele>
        <time>2020-11-16T14:10:14Z</time>
      </trkpt>
      <trkpt lat="28.7720720" lon="-17.8506030">
        <ele>2036.8</ele>
        <time>2020-11-16T14:10:15Z</time>
      </trkpt>
      <trkpt lat="28.7720620" lon="-17.8504950">
        <ele>2036.0</ele>
        <time>2020-11-16T14:10:16Z</time>
      </trkpt>
      <trkpt lat="28.7720520" lon="-17.8504600">
        <ele>2035.8</ele>
        <time>2020-11-16T14:10:17Z</time>
      </trkpt>
      <trkpt lat="28.7720520" lon="-17.8504600">
        <ele>2035.8</ele>
        <time>2020-11-16T14:10:18Z</time>
      </trkpt>
      <trkpt lat="28.7720320" lon="-17.8504130">
        <ele>2035.4</ele>
        <time>2020-11-16T14:10:19Z</time>
      </trkpt>
      <trkpt lat="28.7720230" lon="-17.8503880">
        <ele>2035.2</ele>
        <time>2020-11-16T14:10:20Z</time>
      </trkpt>
      <trkpt lat="28.7720230" lon="-17.8503880">
        <ele>2035.2</ele>
        <time>2020-11-16T14:10:21Z</time>
      </trkpt>
      <trkpt lat="28.7720150" lon="-17.8503370">
        <ele>2034.8</ele>
        <time>2020-11-16T14:10:22Z</time>
      </trkpt>
      <trkpt lat="28.7720150" lon="-17.8503370">
        <ele>2034.8</ele>
        <time>2020-11-16T14:10:23Z</time>
      </trkpt>
      <trkpt lat="28.7720080" lon="-17.8502870">
        <ele>2034.5</ele>
        <time>2020-11-16T14:10:24Z</time>
      </trkpt>
      <trkpt lat="28.7720080" lon="-17.8502870">
        <ele>2034.5</ele>
        <time>2020-11-16T14:10:25Z</time>
      </trkpt>
      <trkpt lat="28.7720100" lon="-17.8502420">
        <ele>2034.1</ele>
        <time>2020-11-16T14:10:26Z</time>
      </trkpt>
      <trkpt lat="28.7720100" lon="-17.8502420">
        <ele>2034.1</ele>
        <time>2020-11-16T14:10:27Z</time>
      </trkpt>
      <trkpt lat="28.7720250" lon="-17.8502050">
        <ele>2033.8</ele>
        <time>2020-11-16T14:10:28Z</time>
      </trkpt>
      <trkpt lat="28.7720250" lon="-17.8502050">
        <ele>2033.8</ele>
        <time>2020-11-16T14:10:29Z</time>
      </trkpt>
      <trkpt lat="28.7720370" lon="-17.8501730">
        <ele>2033.6</ele>
        <time>2020-11-16T14:10:30Z</time>
      </trkpt>
      <trkpt lat="28.7720370" lon="-17.8501730">
        <ele>2033.6</ele>
        <time>2020-11-16T14:10:31Z</time>
      </trkpt>
      <trkpt lat="28.7720520" lon="-17.8501400">
        <ele>2033.3</ele>
        <time>2020-11-16T14:10:32Z</time>
      </trkpt>
      <trkpt lat="28.7720520" lon="-17.8501400">
        <ele>2033.3</ele>
        <time>2020-11-16T14:10:33Z</time>
      </trkpt>
      <trkpt lat="28.7720720" lon="-17.8500980">
        <ele>2033.0</ele>
        <time>2020-11-16T14:10:34Z</time>
      </trkpt>
      <trkpt lat="28.7720720" lon="-17.8500980">
        <ele>2033.0</ele>
        <time>2020-11-16T14:10:35Z</time>
      </trkpt>
      <trkpt lat="28.7721000" lon="-17.8500620">
        <ele>2032.6</ele>
        <time>2020-11-16T14:10:36Z</time>
      </trkpt>
      <trkpt lat="28.7721000" lon="-17.8500620">
        <ele>2032.6</ele>
        <time>2020-11-16T14:10:37Z</time>
      </trkpt>
      <trkpt lat="28.7721230" lon="-17.8500330">
        <ele>2032.4</ele>
        <time>2020-11-16T14:10:38Z</time>
      </trkpt>
      <trkpt lat="28.7721230" lon="-17.8500330">
        <ele>2032.4</ele>
        <time>2020-11-16T14:10:39Z</time>
      </trkpt>
      <trkpt lat="28.7721420" lon="-17.8500080">
        <ele>2032.1</ele>
        <time>2020-11-16T14:10:40Z</time>
      </trkpt>
      <trkpt lat="28.7721420" lon="-17.8500080">
        <ele>2032.1</ele>
        <time>2020-11-16T14:10:41Z</time>
      </trkpt>
      <trkpt lat="28.7721520" lon="-17.8499930">
        <ele>2032.0</ele>
        <time>2020-11-16T14:10:42Z</time>
      </trkpt>
      <trkpt lat="28.7721520" lon="-17.8499930">
        <ele>2032.0</ele>
        <time>2020-11-16T14:10:43Z</time>
      </trkpt>
      <trkpt lat="28.7722170" lon="-17.8499370">
        <ele>2031.3</ele>
        <time>2020-11-16T14:10:50Z</time>
      </trkpt>
      <trkpt lat="28.7722170" lon="-17.8499370">
        <ele>2031.3</ele>
        <time>2020-11-16T14:10:51Z</time>
      </trkpt>
      <trkpt lat="28.7722380" lon="-17.8499050">
        <ele>2031.0</ele>
        <time>2020-11-16T14:10:52Z</time>
      </trkpt>
      <trkpt lat="28.7722380" lon="-17.8499050">
        <ele>2031.0</ele>
        <time>2020-11-16T14:10:53Z</time>
      </trkpt>
      <trkpt lat="28.7722680" lon="-17.8498770">
        <ele>2030.7</ele>
        <time>2020-11-16T14:10:54Z</time>
      </trkpt>
      <trkpt lat="28.7722680" lon="-17.8498770">
        <ele>2030.7</ele>
        <time>2020-11-16T14:10:55Z</time>
      </trkpt>
      <trkpt lat="28.7722970" lon="-17.8498480">
        <ele>2030.4</ele>
        <time>2020-11-16T14:10:56Z</time>
      </trkpt>
      <trkpt lat="28.7722970" lon="-17.8498480">
        <ele>2030.4</ele>
        <time>2020-11-16T14:10:57Z</time>
      </trkpt>
      <trkpt lat="28.7723130" lon="-17.8498230">
        <ele>2030.2</ele>
        <time>2020-11-16T14:10:58Z</time>
      </trkpt>
      <trkpt lat="28.7723180" lon="-17.8498070">
        <ele>2030.0</ele>
        <time>2020-11-16T14:10:59Z</time>
      </trkpt>
      <trkpt lat="28.7723180" lon="-17.8498070">
        <ele>2030.0</ele>
        <time>2020-11-16T14:11:00Z</time>
      </trkpt>
      <trkpt lat="28.7723550" lon="-17.8497830">
        <ele>2029.7</ele>
        <time>2020-11-16T14:11:01Z</time>
      </trkpt>
      <trkpt lat="28.7723550" lon="-17.8497830">
        <ele>2029.7</ele>
        <time>2020-11-16T14:11:02Z</time>
      </trkpt>
      <trkpt lat="28.7724080" lon="-17.8497480">
        <ele>2029.2</ele>
        <time>2020-11-16T14:11:03Z</time>
      </trkpt>
      <trkpt lat="28.7724080" lon="-17.8497480">
        <ele>2029.2</ele>
        <time>2020-11-16T14:11:04Z</time>
      </trkpt>
      <trkpt lat="28.7724370" lon="-17.8497120">
        <ele>2028.8</ele>
        <time>2020-11-16T14:11:05Z</time>
      </trkpt>
      <trkpt lat="28.7724370" lon="-17.8497120">
        <ele>2028.8</ele>
        <time>2020-11-16T14:11:06Z</time>
      </trkpt>
      <trkpt lat="28.7724700" lon="-17.8496780">
        <ele>2028.5</ele>
        <time>2020-11-16T14:11:07Z</time>
      </trkpt>
      <trkpt lat="28.7724880" lon="-17.8496620">
        <ele>2028.3</ele>
        <time>2020-11-16T14:11:08Z</time>
      </trkpt>
      <trkpt lat="28.7724880" lon="-17.8496620">
        <ele>2028.3</ele>
        <time>2020-11-16T14:11:09Z</time>
      </trkpt>
      <trkpt lat="28.7725270" lon="-17.8496430">
        <ele>2028.0</ele>
        <time>2020-11-16T14:11:10Z</time>
      </trkpt>
      <trkpt lat="28.7725270" lon="-17.8496430">
        <ele>2028.0</ele>
        <time>2020-11-16T14:11:11Z</time>
      </trkpt>
      <trkpt lat="28.7725700" lon="-17.8496570">
        <ele>2027.6</ele>
        <time>2020-11-16T14:11:12Z</time>
      </trkpt>
      <trkpt lat="28.7725870" lon="-17.8496780">
        <ele>2027.4</ele>
        <time>2020-11-16T14:11:13Z</time>
      </trkpt>
      <trkpt lat="28.7725970" lon="-17.8497050">
        <ele>2027.2</ele>
        <time>2020-11-16T14:11:14Z</time>
      </trkpt>
      <trkpt lat="28.7725970" lon="-17.8497050">
        <ele>2027.2</ele>
        <time>2020-11-16T14:11:15Z</time>
      </trkpt>
      <trkpt lat="28.7725950" lon="-17.8497600">
        <ele>2026.8</ele>
        <time>2020-11-16T14:11:16Z</time>
      </trkpt>
      <trkpt lat="28.7725950" lon="-17.8497600">
        <ele>2026.8</ele>
        <time>2020-11-16T14:11:17Z</time>
      </trkpt>
      <trkpt lat="28.7725850" lon="-17.8498150">
        <ele>2026.4</ele>
        <time>2020-11-16T14:11:18Z</time>
      </trkpt>
      <trkpt lat="28.7725850" lon="-17.8498150">
        <ele>2026.4</ele>
        <time>2020-11-16T14:11:19Z</time>
      </trkpt>
      <trkpt lat="28.7725750" lon="-17.8498630">
        <ele>2026.0</ele>
        <time>2020-11-16T14:11:20Z</time>
      </trkpt>
      <trkpt lat="28.7725750" lon="-17.8498630">
        <ele>2026.0</ele>
        <time>2020-11-16T14:11:21Z</time>
      </trkpt>
      <trkpt lat="28.7725500" lon="-17.8498970">
        <ele>2025.7</ele>
        <time>2020-11-16T14:11:22Z</time>
      </trkpt>
      <trkpt lat="28.7725500" lon="-17.8498970">
        <ele>2025.7</ele>
        <time>2020-11-16T14:11:23Z</time>
      </trkpt>
      <trkpt lat="28.7725080" lon="-17.8499470">
        <ele>2025.2</ele>
        <time>2020-11-16T14:11:24Z</time>
      </trkpt>
      <trkpt lat="28.7725080" lon="-17.8499470">
        <ele>2025.2</ele>
        <time>2020-11-16T14:11:25Z</time>
      </trkpt>
      <trkpt lat="28.7724450" lon="-17.8499980">
        <ele>2024.6</ele>
        <time>2020-11-16T14:11:26Z</time>
      </trkpt>
      <trkpt lat="28.7724450" lon="-17.8499980">
        <ele>2024.6</ele>
        <time>2020-11-16T14:11:27Z</time>
      </trkpt>
      <trkpt lat="28.7723870" lon="-17.8500670">
        <ele>2023.9</ele>
        <time>2020-11-16T14:11:28Z</time>
      </trkpt>
      <trkpt lat="28.7723870" lon="-17.8500670">
        <ele>2023.9</ele>
        <time>2020-11-16T14:11:29Z</time>
      </trkpt>
      <trkpt lat="28.7723420" lon="-17.8501450">
        <ele>2023.2</ele>
        <time>2020-11-16T14:11:30Z</time>
      </trkpt>
      <trkpt lat="28.7723420" lon="-17.8501450">
        <ele>2023.2</ele>
        <time>2020-11-16T14:11:31Z</time>
      </trkpt>
      <trkpt lat="28.7723350" lon="-17.8502220">
        <ele>2022.7</ele>
        <time>2020-11-16T14:11:32Z</time>
      </trkpt>
      <trkpt lat="28.7723350" lon="-17.8502220">
        <ele>2022.7</ele>
        <time>2020-11-16T14:11:33Z</time>
      </trkpt>
      <trkpt lat="28.7723480" lon="-17.8502930">
        <ele>2022.1</ele>
        <time>2020-11-16T14:11:34Z</time>
      </trkpt>
      <trkpt lat="28.7723480" lon="-17.8502930">
        <ele>2022.1</ele>
        <time>2020-11-16T14:11:35Z</time>
      </trkpt>
      <trkpt lat="28.7723750" lon="-17.8503680">
        <ele>2021.6</ele>
        <time>2020-11-16T14:11:36Z</time>
      </trkpt>
      <trkpt lat="28.7723750" lon="-17.8503680">
        <ele>2021.6</ele>
        <time>2020-11-16T14:11:37Z</time>
      </trkpt>
      <trkpt lat="28.7724100" lon="-17.8504330">
        <ele>2021.0</ele>
        <time>2020-11-16T14:11:38Z</time>
      </trkpt>
      <trkpt lat="28.7724100" lon="-17.8504330">
        <ele>2021.0</ele>
        <time>2020-11-16T14:11:39Z</time>
      </trkpt>
      <trkpt lat="28.7724520" lon="-17.8504870">
        <ele>2020.5</ele>
        <time>2020-11-16T14:11:40Z</time>
      </trkpt>
      <trkpt lat="28.7724520" lon="-17.8504870">
        <ele>2020.5</ele>
        <time>2020-11-16T14:11:41Z</time>
      </trkpt>
      <trkpt lat="28.7724800" lon="-17.8505480">
        <ele>2020.0</ele>
        <time>2020-11-16T14:11:42Z</time>
      </trkpt>
      <trkpt lat="28.7724800" lon="-17.8505480">
        <ele>2020.0</ele>
        <time>2020-11-16T14:11:43Z</time>
      </trkpt>
      <trkpt lat="28.7724930" lon="-17.8506220">
        <ele>2019.5</ele>
        <time>2020-11-16T14:11:44Z</time>
      </trkpt>
      <trkpt lat="28.7724930" lon="-17.8506220">
        <ele>2019.5</ele>
        <time>2020-11-16T14:11:45Z</time>
      </trkpt>
      <trkpt lat="28.7724980" lon="-17.8507070">
        <ele>2018.8</ele>
        <time>2020-11-16T14:11:46Z</time>
      </trkpt>
      <trkpt lat="28.7724980" lon="-17.8507070">
        <ele>2018.8</ele>
        <time>2020-11-16T14:11:47Z</time>
      </trkpt>
      <trkpt lat="28.7724930" lon="-17.8507930">
        <ele>2018.2</ele>
        <time>2020-11-16T14:11:48Z</time>
      </trkpt>
      <trkpt lat="28.7724930" lon="-17.8507930">
        <ele>2018.2</ele>
        <time>2020-11-16T14:11:49Z</time>
      </trkpt>
      <trkpt lat="28.7724820" lon="-17.8508620">
        <ele>2017.7</ele>
        <time>2020-11-16T14:11:50Z</time>
      </trkpt>
      <trkpt lat="28.7724820" lon="-17.8508620">
        <ele>2017.7</ele>
        <time>2020-11-16T14:11:51Z</time>
      </trkpt>
      <trkpt lat="28.7724780" lon="-17.8509230">
        <ele>2017.3</ele>
        <time>2020-11-16T14:11:52Z</time>
      </trkpt>
      <trkpt lat="28.7724780" lon="-17.8509230">
        <ele>2017.3</ele>
        <time>2020-11-16T14:11:53Z</time>
      </trkpt>
      <trkpt lat="28.7724820" lon="-17.8509870">
        <ele>2016.8</ele>
        <time>2020-11-16T14:11:54Z</time>
      </trkpt>
      <trkpt lat="28.7724820" lon="-17.8509870">
        <ele>2016.8</ele>
        <time>2020-11-16T14:11:55Z</time>
      </trkpt>
      <trkpt lat="28.7724850" lon="-17.8510630">
        <ele>2016.3</ele>
        <time>2020-11-16T14:11:56Z</time>
      </trkpt>
      <trkpt lat="28.7724850" lon="-17.8510630">
        <ele>2016.3</ele>
        <time>2020-11-16T14:11:57Z</time>
      </trkpt>
      <trkpt lat="28.7724800" lon="-17.8511480">
        <ele>2015.7</ele>
        <time>2020-11-16T14:11:58Z</time>
      </trkpt>
      <trkpt lat="28.7724800" lon="-17.8511480">
        <ele>2015.7</ele>
        <time>2020-11-16T14:11:59Z</time>
      </trkpt>
      <trkpt lat="28.7724730" lon="-17.8512130">
        <ele>2015.2</ele>
        <time>2020-11-16T14:12:00Z</time>
      </trkpt>
      <trkpt lat="28.7724730" lon="-17.8512130">
        <ele>2015.2</ele>
        <time>2020-11-16T14:12:01Z</time>
      </trkpt>
      <trkpt lat="28.7724620" lon="-17.8512670">
        <ele>2014.8</ele>
        <time>2020-11-16T14:12:02Z</time>
      </trkpt>
      <trkpt lat="28.7724620" lon="-17.8512670">
        <ele>2014.8</ele>
        <time>2020-11-16T14:12:03Z</time>
      </trkpt>
      <trkpt lat="28.7724550" lon="-17.8513220">
        <ele>2014.4</ele>
        <time>2020-11-16T14:12:04Z</time>
      </trkpt>
      <trkpt lat="28.7724530" lon="-17.8513530">
        <ele>2014.2</ele>
        <time>2020-11-16T14:12:05Z</time>
      </trkpt>
      <trkpt lat="28.7724530" lon="-17.8513530">
        <ele>2014.2</ele>
        <time>2020-11-16T14:12:06Z</time>
      </trkpt>
      <trkpt lat="28.7724530" lon="-17.8514130">
        <ele>2013.8</ele>
        <time>2020-11-16T14:12:07Z</time>
      </trkpt>
      <trkpt lat="28.7724530" lon="-17.8514130">
        <ele>2013.8</ele>
        <time>2020-11-16T14:12:08Z</time>
      </trkpt>
      <trkpt lat="28.7724530" lon="-17.8514680">
        <ele>2013.4</ele>
        <time>2020-11-16T14:12:09Z</time>
      </trkpt>
      <trkpt lat="28.7724530" lon="-17.8514680">
        <ele>2013.4</ele>
        <time>2020-11-16T14:12:10Z</time>
      </trkpt>
      <trkpt lat="28.7724580" lon="-17.8515200">
        <ele>2013.0</ele>
        <time>2020-11-16T14:12:11Z</time>
      </trkpt>
      <trkpt lat="28.7724580" lon="-17.8515200">
        <ele>2013.0</ele>
        <time>2020-11-16T14:12:12Z</time>
      </trkpt>
      <trkpt lat="28.7724480" lon="-17.8515800">
        <ele>2012.5</ele>
        <time>2020-11-16T14:12:13Z</time>
      </trkpt>
      <trkpt lat="28.7724380" lon="-17.8516100">
        <ele>2012.3</ele>
        <time>2020-11-16T14:12:14Z</time>
      </trkpt>
      <trkpt lat="28.7724380" lon="-17.8516100">
        <ele>2012.3</ele>
        <time>2020-11-16T14:12:15Z</time>
      </trkpt>
      <trkpt lat="28.7724180" lon="-17.8516720">
        <ele>2011.8</ele>
        <time>2020-11-16T14:12:16Z</time>
      </trkpt>
      <trkpt lat="28.7724180" lon="-17.8516720">
        <ele>2011.8</ele>
        <time>2020-11-16T14:12:17Z</time>
      </trkpt>
      <trkpt lat="28.7724100" lon="-17.8517320">
        <ele>2011.4</ele>
        <time>2020-11-16T14:12:18Z</time>
      </trkpt>
      <trkpt lat="28.7724100" lon="-17.8517320">
        <ele>2011.4</ele>
        <time>2020-11-16T14:12:19Z</time>
      </trkpt>
      <trkpt lat="28.7724200" lon="-17.8517830">
        <ele>2011.0</ele>
        <time>2020-11-16T14:12:20Z</time>
      </trkpt>
      <trkpt lat="28.7724200" lon="-17.8517830">
        <ele>2011.0</ele>
        <time>2020-11-16T14:12:21Z</time>
      </trkpt>
      <trkpt lat="28.7724370" lon="-17.8518280">
        <ele>2010.7</ele>
        <time>2020-11-16T14:12:22Z</time>
      </trkpt>
      <trkpt lat="28.7724370" lon="-17.8518280">
        <ele>2010.7</ele>
        <time>2020-11-16T14:12:23Z</time>
      </trkpt>
      <trkpt lat="28.7724580" lon="-17.8518820">
        <ele>2010.3</ele>
        <time>2020-11-16T14:12:24Z</time>
      </trkpt>
      <trkpt lat="28.7724580" lon="-17.8518820">
        <ele>2010.3</ele>
        <time>2020-11-16T14:12:25Z</time>
      </trkpt>
      <trkpt lat="28.7724930" lon="-17.8519200">
        <ele>2009.9</ele>
        <time>2020-11-16T14:12:26Z</time>
      </trkpt>
      <trkpt lat="28.7724930" lon="-17.8519200">
        <ele>2009.9</ele>
        <time>2020-11-16T14:12:27Z</time>
      </trkpt>
      <trkpt lat="28.7725330" lon="-17.8519600">
        <ele>2009.4</ele>
        <time>2020-11-16T14:12:28Z</time>
      </trkpt>
      <trkpt lat="28.7725330" lon="-17.8519600">
        <ele>2009.4</ele>
        <time>2020-11-16T14:12:29Z</time>
      </trkpt>
      <trkpt lat="28.7726050" lon="-17.8520150">
        <ele>2008.7</ele>
        <time>2020-11-16T14:12:30Z</time>
      </trkpt>
      <trkpt lat="28.7726050" lon="-17.8520150">
        <ele>2008.7</ele>
        <time>2020-11-16T14:12:31Z</time>
      </trkpt>
      <trkpt lat="28.7726850" lon="-17.8520620">
        <ele>2008.0</ele>
        <time>2020-11-16T14:12:32Z</time>
      </trkpt>
      <trkpt lat="28.7726850" lon="-17.8520620">
        <ele>2008.0</ele>
        <time>2020-11-16T14:12:33Z</time>
      </trkpt>
      <trkpt lat="28.7727670" lon="-17.8521020">
        <ele>2007.3</ele>
        <time>2020-11-16T14:12:34Z</time>
      </trkpt>
      <trkpt lat="28.7728120" lon="-17.8521230">
        <ele>2006.9</ele>
        <time>2020-11-16T14:12:35Z</time>
      </trkpt>
      <trkpt lat="28.7728120" lon="-17.8521230">
        <ele>2006.9</ele>
        <time>2020-11-16T14:12:36Z</time>
      </trkpt>
      <trkpt lat="28.7729080" lon="-17.8521620">
        <ele>2006.0</ele>
        <time>2020-11-16T14:12:37Z</time>
      </trkpt>
      <trkpt lat="28.7729080" lon="-17.8521620">
        <ele>2006.0</ele>
        <time>2020-11-16T14:12:38Z</time>
      </trkpt>
      <trkpt lat="28.7729880" lon="-17.8521930">
        <ele>2005.3</ele>
        <time>2020-11-16T14:12:39Z</time>
      </trkpt>
      <trkpt lat="28.7729880" lon="-17.8521930">
        <ele>2005.3</ele>
        <time>2020-11-16T14:12:40Z</time>
      </trkpt>
      <trkpt lat="28.7730350" lon="-17.8522270">
        <ele>2004.9</ele>
        <time>2020-11-16T14:12:41Z</time>
      </trkpt>
      <trkpt lat="28.7730380" lon="-17.8522520">
        <ele>2004.7</ele>
        <time>2020-11-16T14:12:42Z</time>
      </trkpt>
      <trkpt lat="28.7730380" lon="-17.8522520">
        <ele>2004.7</ele>
        <time>2020-11-16T14:12:43Z</time>
      </trkpt>
      <trkpt lat="28.7730330" lon="-17.8522930">
        <ele>2004.4</ele>
        <time>2020-11-16T14:12:44Z</time>
      </trkpt>
      <trkpt lat="28.7730330" lon="-17.8522930">
        <ele>2004.4</ele>
        <time>2020-11-16T14:12:45Z</time>
      </trkpt>
      <trkpt lat="28.7730070" lon="-17.8523300">
        <ele>2004.1</ele>
        <time>2020-11-16T14:12:46Z</time>
      </trkpt>
      <trkpt lat="28.7730070" lon="-17.8523300">
        <ele>2004.1</ele>
        <time>2020-11-16T14:12:47Z</time>
      </trkpt>
      <trkpt lat="28.7729650" lon="-17.8523850">
        <ele>2003.5</ele>
        <time>2020-11-16T14:12:48Z</time>
      </trkpt>
      <trkpt lat="28.7729650" lon="-17.8523850">
        <ele>2003.5</ele>
        <time>2020-11-16T14:12:49Z</time>
      </trkpt>
      <trkpt lat="28.7729120" lon="-17.8524380">
        <ele>2003.0</ele>
        <time>2020-11-16T14:12:50Z</time>
      </trkpt>
      <trkpt lat="28.7729120" lon="-17.8524380">
        <ele>2003.0</ele>
        <time>2020-11-16T14:12:51Z</time>
      </trkpt>
      <trkpt lat="28.7728570" lon="-17.8525050">
        <ele>2002.3</ele>
        <time>2020-11-16T14:12:52Z</time>
      </trkpt>
      <trkpt lat="28.7728570" lon="-17.8525050">
        <ele>2002.3</ele>
        <time>2020-11-16T14:12:53Z</time>
      </trkpt>
      <trkpt lat="28.7727980" lon="-17.8525830">
        <ele>2001.6</ele>
        <time>2020-11-16T14:12:54Z</time>
      </trkpt>
      <trkpt lat="28.7727980" lon="-17.8525830">
        <ele>2001.6</ele>
        <time>2020-11-16T14:12:55Z</time>
      </trkpt>
      <trkpt lat="28.7727430" lon="-17.8526670">
        <ele>2000.8</ele>
        <time>2020-11-16T14:12:56Z</time>
      </trkpt>
      <trkpt lat="28.7727430" lon="-17.8526670">
        <ele>2000.8</ele>
        <time>2020-11-16T14:12:57Z</time>
      </trkpt>
      <trkpt lat="28.7727020" lon="-17.8527620">
        <ele>2000.0</ele>
        <time>2020-11-16T14:12:58Z</time>
      </trkpt>
      <trkpt lat="28.7727020" lon="-17.8527620">
        <ele>2000.0</ele>
        <time>2020-11-16T14:12:59Z</time>
      </trkpt>
      <trkpt lat="28.7726580" lon="-17.8528650">
        <ele>1999.2</ele>
        <time>2020-11-16T14:13:00Z</time>
      </trkpt>
      <trkpt lat="28.7726580" lon="-17.8528650">
        <ele>1999.2</ele>
        <time>2020-11-16T14:13:01Z</time>
      </trkpt>
      <trkpt lat="28.7726300" lon="-17.8529530">
        <ele>1998.6</ele>
        <time>2020-11-16T14:13:02Z</time>
      </trkpt>
      <trkpt lat="28.7726300" lon="-17.8529530">
        <ele>1998.6</ele>
        <time>2020-11-16T14:13:03Z</time>
      </trkpt>
      <trkpt lat="28.7726020" lon="-17.8530320">
        <ele>1997.9</ele>
        <time>2020-11-16T14:13:04Z</time>
      </trkpt>
      <trkpt lat="28.7726020" lon="-17.8530320">
        <ele>1997.9</ele>
        <time>2020-11-16T14:13:05Z</time>
      </trkpt>
      <trkpt lat="28.7725720" lon="-17.8531050">
        <ele>1997.4</ele>
        <time>2020-11-16T14:13:06Z</time>
      </trkpt>
      <trkpt lat="28.7725720" lon="-17.8531050">
        <ele>1997.4</ele>
        <time>2020-11-16T14:13:07Z</time>
      </trkpt>
      <trkpt lat="28.7725400" lon="-17.8531830">
        <ele>1996.7</ele>
        <time>2020-11-16T14:13:08Z</time>
      </trkpt>
      <trkpt lat="28.7725400" lon="-17.8531830">
        <ele>1996.7</ele>
        <time>2020-11-16T14:13:09Z</time>
      </trkpt>
      <trkpt lat="28.7725050" lon="-17.8532620">
        <ele>1996.1</ele>
        <time>2020-11-16T14:13:10Z</time>
      </trkpt>
      <trkpt lat="28.7725050" lon="-17.8532620">
        <ele>1996.1</ele>
        <time>2020-11-16T14:13:11Z</time>
      </trkpt>
      <trkpt lat="28.7724680" lon="-17.8533420">
        <ele>1995.5</ele>
        <time>2020-11-16T14:13:12Z</time>
      </trkpt>
      <trkpt lat="28.7724680" lon="-17.8533420">
        <ele>1995.5</ele>
        <time>2020-11-16T14:13:13Z</time>
      </trkpt>
      <trkpt lat="28.7724480" lon="-17.8534130">
        <ele>1994.9</ele>
        <time>2020-11-16T14:13:14Z</time>
      </trkpt>
      <trkpt lat="28.7724480" lon="-17.8534130">
        <ele>1994.9</ele>
        <time>2020-11-16T14:13:15Z</time>
      </trkpt>
      <trkpt lat="28.7724130" lon="-17.8534920">
        <ele>1994.3</ele>
        <time>2020-11-16T14:13:16Z</time>
      </trkpt>
      <trkpt lat="28.7724130" lon="-17.8534920">
        <ele>1994.3</ele>
        <time>2020-11-16T14:13:17Z</time>
      </trkpt>
      <trkpt lat="28.7723700" lon="-17.8535770">
        <ele>1993.6</ele>
        <time>2020-11-16T14:13:18Z</time>
      </trkpt>
      <trkpt lat="28.7723700" lon="-17.8535770">
        <ele>1993.6</ele>
        <time>2020-11-16T14:13:19Z</time>
      </trkpt>
      <trkpt lat="28.7723220" lon="-17.8536530">
        <ele>1992.9</ele>
        <time>2020-11-16T14:13:20Z</time>
      </trkpt>
      <trkpt lat="28.7723220" lon="-17.8536530">
        <ele>1992.9</ele>
        <time>2020-11-16T14:13:21Z</time>
      </trkpt>
      <trkpt lat="28.7722850" lon="-17.8537120">
        <ele>1992.4</ele>
        <time>2020-11-16T14:13:22Z</time>
      </trkpt>
      <trkpt lat="28.7722850" lon="-17.8537120">
        <ele>1992.4</ele>
        <time>2020-11-16T14:13:23Z</time>
      </trkpt>
      <trkpt lat="28.7722730" lon="-17.8537380">
        <ele>1992.2</ele>
        <time>2020-11-16T14:13:24Z</time>
      </trkpt>
      <trkpt lat="28.7722730" lon="-17.8537380">
        <ele>1992.2</ele>
        <time>2020-11-16T14:13:25Z</time>
      </trkpt>
      <trkpt lat="28.7722700" lon="-17.8537280">
        <ele>1992.1</ele>
        <time>2020-11-16T14:13:26Z</time>
      </trkpt>
      <trkpt lat="28.7722700" lon="-17.8537280">
        <ele>1992.1</ele>
        <time>2020-11-16T14:16:21Z</time>
      </trkpt>
      <trkpt lat="28.7722370" lon="-17.8536900">
        <ele>1991.7</ele>
        <time>2020-11-16T14:16:22Z</time>
      </trkpt>
      <trkpt lat="28.7722370" lon="-17.8536900">
        <ele>1991.7</ele>
        <time>2020-11-16T14:16:23Z</time>
      </trkpt>
      <trkpt lat="28.7722180" lon="-17.8537170">
        <ele>1991.5</ele>
        <time>2020-11-16T14:16:24Z</time>
      </trkpt>
      <trkpt lat="28.7722050" lon="-17.8537530">
        <ele>1991.2</ele>
        <time>2020-11-16T14:16:25Z</time>
      </trkpt>
      <trkpt lat="28.7722050" lon="-17.8537530">
        <ele>1991.2</ele>
        <time>2020-11-16T14:16:26Z</time>
      </trkpt>
      <trkpt lat="28.7721820" lon="-17.8538250">
        <ele>1990.7</ele>
        <time>2020-11-16T14:16:27Z</time>
      </trkpt>
      <trkpt lat="28.7721820" lon="-17.8538250">
        <ele>1990.7</ele>
        <time>2020-11-16T14:16:28Z</time>
      </trkpt>
      <trkpt lat="28.7721620" lon="-17.8538650">
        <ele>1990.0</ele>
        <time>2020-11-16T14:16:29Z</time>
      </trkpt>
      <trkpt lat="28.7721620" lon="-17.8538650">
        <ele>1990.0</ele>
        <time>2020-11-16T14:16:30Z</time>
      </trkpt>
      <trkpt lat="28.7721430" lon="-17.8539130">
        <ele>1989.5</ele>
        <time>2020-11-16T14:16:31Z</time>
      </trkpt>
      <trkpt lat="28.7721350" lon="-17.8539330">
        <ele>1989.3</ele>
        <time>2020-11-16T14:16:32Z</time>
      </trkpt>
      <trkpt lat="28.7721350" lon="-17.8539330">
        <ele>1989.3</ele>
        <time>2020-11-16T14:16:33Z</time>
      </trkpt>
      <trkpt lat="28.7721200" lon="-17.8539550">
        <ele>1989.1</ele>
        <time>2020-11-16T14:16:34Z</time>
      </trkpt>
      <trkpt lat="28.7721200" lon="-17.8539550">
        <ele>1989.1</ele>
        <time>2020-11-16T14:16:35Z</time>
      </trkpt>
      <trkpt lat="28.7721050" lon="-17.8539880">
        <ele>1988.7</ele>
        <time>2020-11-16T14:16:36Z</time>
      </trkpt>
      <trkpt lat="28.7721050" lon="-17.8539880">
        <ele>1988.7</ele>
        <time>2020-11-16T14:16:37Z</time>
      </trkpt>
      <trkpt lat="28.7720970" lon="-17.8540150">
        <ele>1988.5</ele>
        <time>2020-11-16T14:16:38Z</time>
      </trkpt>
      <trkpt lat="28.7720970" lon="-17.8540150">
        <ele>1988.5</ele>
        <time>2020-11-16T14:16:39Z</time>
      </trkpt>
      <trkpt lat="28.7720870" lon="-17.8540430">
        <ele>1988.2</ele>
        <time>2020-11-16T14:16:40Z</time>
      </trkpt>
      <trkpt lat="28.7720870" lon="-17.8540430">
        <ele>1988.2</ele>
        <time>2020-11-16T14:16:41Z</time>
      </trkpt>
      <trkpt lat="28.7720780" lon="-17.8541000">
        <ele>1987.7</ele>
        <time>2020-11-16T14:16:42Z</time>
      </trkpt>
      <trkpt lat="28.7720780" lon="-17.8541000">
        <ele>1987.7</ele>
        <time>2020-11-16T14:16:43Z</time>
      </trkpt>
      <trkpt lat="28.7720630" lon="-17.8541420">
        <ele>1987.2</ele>
        <time>2020-11-16T14:16:44Z</time>
      </trkpt>
      <trkpt lat="28.7720630" lon="-17.8541420">
        <ele>1987.2</ele>
        <time>2020-11-16T14:16:45Z</time>
      </trkpt>
      <trkpt lat="28.7720530" lon="-17.8541820">
        <ele>1986.9</ele>
        <time>2020-11-16T14:16:46Z</time>
      </trkpt>
      <trkpt lat="28.7720530" lon="-17.8541820">
        <ele>1986.9</ele>
        <time>2020-11-16T14:16:47Z</time>
      </trkpt>
      <trkpt lat="28.7720500" lon="-17.8542180">
        <ele>1986.5</ele>
        <time>2020-11-16T14:16:48Z</time>
      </trkpt>
      <trkpt lat="28.7720500" lon="-17.8542180">
        <ele>1986.5</ele>
        <time>2020-11-16T14:16:49Z</time>
      </trkpt>
      <trkpt lat="28.7720380" lon="-17.8542600">
        <ele>1986.1</ele>
        <time>2020-11-16T14:16:50Z</time>
      </trkpt>
      <trkpt lat="28.7720380" lon="-17.8542600">
        <ele>1986.1</ele>
        <time>2020-11-16T14:16:51Z</time>
      </trkpt>
      <trkpt lat="28.7720470" lon="-17.8543100">
        <ele>1985.6</ele>
        <time>2020-11-16T14:16:52Z</time>
      </trkpt>
      <trkpt lat="28.7720470" lon="-17.8543100">
        <ele>1985.6</ele>
        <time>2020-11-16T14:16:53Z</time>
      </trkpt>
      <trkpt lat="28.7720730" lon="-17.8543500">
        <ele>1985.2</ele>
        <time>2020-11-16T14:16:54Z</time>
      </trkpt>
      <trkpt lat="28.7720730" lon="-17.8543500">
        <ele>1985.2</ele>
        <time>2020-11-16T14:16:55Z</time>
      </trkpt>
      <trkpt lat="28.7721080" lon="-17.8543470">
        <ele>1984.8</ele>
        <time>2020-11-16T14:16:56Z</time>
      </trkpt>
      <trkpt lat="28.7721080" lon="-17.8543470">
        <ele>1984.8</ele>
        <time>2020-11-16T14:16:57Z</time>
      </trkpt>
      <trkpt lat="28.7721280" lon="-17.8543170">
        <ele>1984.5</ele>
        <time>2020-11-16T14:16:58Z</time>
      </trkpt>
      <trkpt lat="28.7721280" lon="-17.8543170">
        <ele>1984.5</ele>
        <time>2020-11-16T14:16:59Z</time>
      </trkpt>
      <trkpt lat="28.7721400" lon="-17.8542970">
        <ele>1984.2</ele>
        <time>2020-11-16T14:17:00Z</time>
      </trkpt>
      <trkpt lat="28.7721400" lon="-17.8542970">
        <ele>1984.2</ele>
        <time>2020-11-16T14:17:01Z</time>
      </trkpt>
      <trkpt lat="28.7721500" lon="-17.8542780">
        <ele>1984.0</ele>
        <time>2020-11-16T14:17:02Z</time>
      </trkpt>
      <trkpt lat="28.7721500" lon="-17.8542780">
        <ele>1984.0</ele>
        <time>2020-11-16T14:17:03Z</time>
      </trkpt>
      <trkpt lat="28.7721530" lon="-17.8542500">
        <ele>1983.8</ele>
        <time>2020-11-16T14:17:04Z</time>
      </trkpt>
      <trkpt lat="28.7721530" lon="-17.8542500">
        <ele>1983.8</ele>
        <time>2020-11-16T14:17:05Z</time>
      </trkpt>
      <trkpt lat="28.7721670" lon="-17.8542270">
        <ele>1983.5</ele>
        <time>2020-11-16T14:17:06Z</time>
      </trkpt>
      <trkpt lat="28.7721670" lon="-17.8542270">
        <ele>1983.5</ele>
        <time>2020-11-16T14:17:07Z</time>
      </trkpt>
      <trkpt lat="28.7721880" lon="-17.8541950">
        <ele>1983.1</ele>
        <time>2020-11-16T14:17:08Z</time>
      </trkpt>
      <trkpt lat="28.7721880" lon="-17.8541950">
        <ele>1983.1</ele>
        <time>2020-11-16T14:17:09Z</time>
      </trkpt>
      <trkpt lat="28.7722230" lon="-17.8541350">
        <ele>1982.5</ele>
        <time>2020-11-16T14:17:10Z</time>
      </trkpt>
      <trkpt lat="28.7722230" lon="-17.8541350">
        <ele>1982.5</ele>
        <time>2020-11-16T14:17:11Z</time>
      </trkpt>
      <trkpt lat="28.7722520" lon="-17.8540730">
        <ele>1981.8</ele>
        <time>2020-11-16T14:17:12Z</time>
      </trkpt>
      <trkpt lat="28.7722520" lon="-17.8540730">
        <ele>1981.8</ele>
        <time>2020-11-16T14:17:13Z</time>
      </trkpt>
      <trkpt lat="28.7722930" lon="-17.8540230">
        <ele>1981.2</ele>
        <time>2020-11-16T14:17:14Z</time>
      </trkpt>
      <trkpt lat="28.7722930" lon="-17.8540230">
        <ele>1981.2</ele>
        <time>2020-11-16T14:17:15Z</time>
      </trkpt>
      <trkpt lat="28.7723280" lon="-17.8539750">
        <ele>1980.6</ele>
        <time>2020-11-16T14:17:16Z</time>
      </trkpt>
      <trkpt lat="28.7723280" lon="-17.8539750">
        <ele>1980.6</ele>
        <time>2020-11-16T14:17:17Z</time>
      </trkpt>
      <trkpt lat="28.7723550" lon="-17.8539400">
        <ele>1980.2</ele>
        <time>2020-11-16T14:17:18Z</time>
      </trkpt>
      <trkpt lat="28.7723550" lon="-17.8539400">
        <ele>1980.2</ele>
        <time>2020-11-16T14:17:19Z</time>
      </trkpt>
      <trkpt lat="28.7723950" lon="-17.8538930">
        <ele>1979.6</ele>
        <time>2020-11-16T14:17:20Z</time>
      </trkpt>
      <trkpt lat="28.7723950" lon="-17.8538930">
        <ele>1979.6</ele>
        <time>2020-11-16T14:17:21Z</time>
      </trkpt>
      <trkpt lat="28.7724470" lon="-17.8538280">
        <ele>1978.8</ele>
        <time>2020-11-16T14:17:22Z</time>
      </trkpt>
      <trkpt lat="28.7724470" lon="-17.8538280">
        <ele>1978.8</ele>
        <time>2020-11-16T14:17:23Z</time>
      </trkpt>
      <trkpt lat="28.7725080" lon="-17.8537650">
        <ele>1977.9</ele>
        <time>2020-11-16T14:17:24Z</time>
      </trkpt>
      <trkpt lat="28.7725080" lon="-17.8537650">
        <ele>1977.9</ele>
        <time>2020-11-16T14:17:25Z</time>
      </trkpt>
      <trkpt lat="28.7725780" lon="-17.8536950">
        <ele>1976.9</ele>
        <time>2020-11-16T14:17:26Z</time>
      </trkpt>
      <trkpt lat="28.7725780" lon="-17.8536950">
        <ele>1976.9</ele>
        <time>2020-11-16T14:17:27Z</time>
      </trkpt>
      <trkpt lat="28.7726380" lon="-17.8536120">
        <ele>1975.9</ele>
        <time>2020-11-16T14:17:28Z</time>
      </trkpt>
      <trkpt lat="28.7726380" lon="-17.8536120">
        <ele>1975.9</ele>
        <time>2020-11-16T14:17:29Z</time>
      </trkpt>
      <trkpt lat="28.7726950" lon="-17.8535170">
        <ele>1974.9</ele>
        <time>2020-11-16T14:17:30Z</time>
      </trkpt>
      <trkpt lat="28.7726950" lon="-17.8535170">
        <ele>1974.9</ele>
        <time>2020-11-16T14:17:31Z</time>
      </trkpt>
      <trkpt lat="28.7727520" lon="-17.8534250">
        <ele>1973.8</ele>
        <time>2020-11-16T14:17:32Z</time>
      </trkpt>
      <trkpt lat="28.7727520" lon="-17.8534250">
        <ele>1973.8</ele>
        <time>2020-11-16T14:17:33Z</time>
      </trkpt>
      <trkpt lat="28.7728020" lon="-17.8533500">
        <ele>1973.0</ele>
        <time>2020-11-16T14:17:34Z</time>
      </trkpt>
      <trkpt lat="28.7728020" lon="-17.8533500">
        <ele>1973.0</ele>
        <time>2020-11-16T14:17:35Z</time>
      </trkpt>
      <trkpt lat="28.7728570" lon="-17.8532650">
        <ele>1972.0</ele>
        <time>2020-11-16T14:17:36Z</time>
      </trkpt>
      <trkpt lat="28.7728570" lon="-17.8532650">
        <ele>1972.0</ele>
        <time>2020-11-16T14:17:37Z</time>
      </trkpt>
      <trkpt lat="28.7729150" lon="-17.8531680">
        <ele>1970.9</ele>
        <time>2020-11-16T14:17:38Z</time>
      </trkpt>
      <trkpt lat="28.7729400" lon="-17.8531230">
        <ele>1970.4</ele>
        <time>2020-11-16T14:17:39Z</time>
      </trkpt>
      <trkpt lat="28.7729400" lon="-17.8531230">
        <ele>1970.4</ele>
        <time>2020-11-16T14:17:40Z</time>
      </trkpt>
      <trkpt lat="28.7729770" lon="-17.8530400">
        <ele>1969.6</ele>
        <time>2020-11-16T14:17:41Z</time>
      </trkpt>
      <trkpt lat="28.7729770" lon="-17.8530400">
        <ele>1969.6</ele>
        <time>2020-11-16T14:17:42Z</time>
      </trkpt>
      <trkpt lat="28.7730130" lon="-17.8529670">
        <ele>1968.8</ele>
        <time>2020-11-16T14:17:43Z</time>
      </trkpt>
      <trkpt lat="28.7730130" lon="-17.8529670">
        <ele>1968.8</ele>
        <time>2020-11-16T14:17:44Z</time>
      </trkpt>
      <trkpt lat="28.7730650" lon="-17.8529000">
        <ele>1968.0</ele>
        <time>2020-11-16T14:17:45Z</time>
      </trkpt>
      <trkpt lat="28.7730650" lon="-17.8529000">
        <ele>1968.0</ele>
        <time>2020-11-16T14:17:46Z</time>
      </trkpt>
      <trkpt lat="28.7731320" lon="-17.8528400">
        <ele>1967.1</ele>
        <time>2020-11-16T14:17:47Z</time>
      </trkpt>
      <trkpt lat="28.7731320" lon="-17.8528400">
        <ele>1967.1</ele>
        <time>2020-11-16T14:17:48Z</time>
      </trkpt>
      <trkpt lat="28.7732120" lon="-17.8527750">
        <ele>1966.0</ele>
        <time>2020-11-16T14:17:49Z</time>
      </trkpt>
      <trkpt lat="28.7732550" lon="-17.8527450">
        <ele>1965.5</ele>
        <time>2020-11-16T14:17:50Z</time>
      </trkpt>
      <trkpt lat="28.7732550" lon="-17.8527450">
        <ele>1965.5</ele>
        <time>2020-11-16T14:17:51Z</time>
      </trkpt>
      <trkpt lat="28.7733520" lon="-17.8526820">
        <ele>1964.3</ele>
        <time>2020-11-16T14:17:52Z</time>
      </trkpt>
      <trkpt lat="28.7733520" lon="-17.8526820">
        <ele>1964.3</ele>
        <time>2020-11-16T14:17:53Z</time>
      </trkpt>
      <trkpt lat="28.7734700" lon="-17.8526150">
        <ele>1962.9</ele>
        <time>2020-11-16T14:17:54Z</time>
      </trkpt>
      <trkpt lat="28.7734700" lon="-17.8526150">
        <ele>1962.9</ele>
        <time>2020-11-16T14:17:55Z</time>
      </trkpt>
      <trkpt lat="28.7735850" lon="-17.8525180">
        <ele>1961.4</ele>
        <time>2020-11-16T14:17:56Z</time>
      </trkpt>
      <trkpt lat="28.7735850" lon="-17.8525180">
        <ele>1961.4</ele>
        <time>2020-11-16T14:17:57Z</time>
      </trkpt>
      <trkpt lat="28.7736920" lon="-17.8524480">
        <ele>1960.1</ele>
        <time>2020-11-16T14:17:58Z</time>
      </trkpt>
      <trkpt lat="28.7736920" lon="-17.8524480">
        <ele>1960.1</ele>
        <time>2020-11-16T14:17:59Z</time>
      </trkpt>
      <trkpt lat="28.7737780" lon="-17.8523870">
        <ele>1959.1</ele>
        <time>2020-11-16T14:18:00Z</time>
      </trkpt>
      <trkpt lat="28.7737780" lon="-17.8523870">
        <ele>1959.1</ele>
        <time>2020-11-16T14:18:01Z</time>
      </trkpt>
      <trkpt lat="28.7738700" lon="-17.8523380">
        <ele>1958.0</ele>
        <time>2020-11-16T14:18:02Z</time>
      </trkpt>
      <trkpt lat="28.7738700" lon="-17.8523380">
        <ele>1958.0</ele>
        <time>2020-11-16T14:18:03Z</time>
      </trkpt>
      <trkpt lat="28.7739700" lon="-17.8523020">
        <ele>1956.9</ele>
        <time>2020-11-16T14:18:04Z</time>
      </trkpt>
      <trkpt lat="28.7740170" lon="-17.8522880">
        <ele>1956.4</ele>
        <time>2020-11-16T14:18:05Z</time>
      </trkpt>
      <trkpt lat="28.7740170" lon="-17.8522880">
        <ele>1956.4</ele>
        <time>2020-11-16T14:18:06Z</time>
      </trkpt>
      <trkpt lat="28.7741020" lon="-17.8522570">
        <ele>1955.4</ele>
        <time>2020-11-16T14:18:07Z</time>
      </trkpt>
      <trkpt lat="28.7741250" lon="-17.8522270">
        <ele>1955.1</ele>
        <time>2020-11-16T14:18:08Z</time>
      </trkpt>
      <trkpt lat="28.7741250" lon="-17.8522270">
        <ele>1955.1</ele>
        <time>2020-11-16T14:18:09Z</time>
      </trkpt>
      <trkpt lat="28.7741320" lon="-17.8521450">
        <ele>1954.3</ele>
        <time>2020-11-16T14:18:10Z</time>
      </trkpt>
      <trkpt lat="28.7741320" lon="-17.8521450">
        <ele>1954.3</ele>
        <time>2020-11-16T14:18:11Z</time>
      </trkpt>
      <trkpt lat="28.7740970" lon="-17.8520820">
        <ele>1953.6</ele>
        <time>2020-11-16T14:18:12Z</time>
      </trkpt>
      <trkpt lat="28.7740970" lon="-17.8520820">
        <ele>1953.6</ele>
        <time>2020-11-16T14:18:13Z</time>
      </trkpt>
      <trkpt lat="28.7740330" lon="-17.8520300">
        <ele>1952.8</ele>
        <time>2020-11-16T14:18:14Z</time>
      </trkpt>
      <trkpt lat="28.7740330" lon="-17.8520300">
        <ele>1952.8</ele>
        <time>2020-11-16T14:18:15Z</time>
      </trkpt>
      <trkpt lat="28.7739530" lon="-17.8519720">
        <ele>1951.8</ele>
        <time>2020-11-16T14:18:16Z</time>
      </trkpt>
      <trkpt lat="28.7739530" lon="-17.8519720">
        <ele>1951.8</ele>
        <time>2020-11-16T14:18:17Z</time>
      </trkpt>
      <trkpt lat="28.7738670" lon="-17.8519180">
        <ele>1950.8</ele>
        <time>2020-11-16T14:18:18Z</time>
      </trkpt>
      <trkpt lat="28.7738670" lon="-17.8519180">
        <ele>1950.8</ele>
        <time>2020-11-16T14:18:19Z</time>
      </trkpt>
      <trkpt lat="28.7737780" lon="-17.8518650">
        <ele>1949.7</ele>
        <time>2020-11-16T14:18:20Z</time>
      </trkpt>
      <trkpt lat="28.7737780" lon="-17.8518650">
        <ele>1949.7</ele>
        <time>2020-11-16T14:18:21Z</time>
      </trkpt>
      <trkpt lat="28.7736880" lon="-17.8518220">
        <ele>1948.7</ele>
        <time>2020-11-16T14:18:22Z</time>
      </trkpt>
      <trkpt lat="28.7736880" lon="-17.8518220">
        <ele>1948.7</ele>
        <time>2020-11-16T14:18:23Z</time>
      </trkpt>
      <trkpt lat="28.7735930" lon="-17.8518070">
        <ele>1947.7</ele>
        <time>2020-11-16T14:18:24Z</time>
      </trkpt>
      <trkpt lat="28.7735930" lon="-17.8518070">
        <ele>1947.7</ele>
        <time>2020-11-16T14:18:25Z</time>
      </trkpt>
      <trkpt lat="28.7735000" lon="-17.8517980">
        <ele>1946.7</ele>
        <time>2020-11-16T14:18:26Z</time>
      </trkpt>
      <trkpt lat="28.7735000" lon="-17.8517980">
        <ele>1946.7</ele>
        <time>2020-11-16T14:18:27Z</time>
      </trkpt>
      <trkpt lat="28.7734120" lon="-17.8517850">
        <ele>1945.7</ele>
        <time>2020-11-16T14:18:28Z</time>
      </trkpt>
      <trkpt lat="28.7734120" lon="-17.8517850">
        <ele>1945.7</ele>
        <time>2020-11-16T14:18:29Z</time>
      </trkpt>
      <trkpt lat="28.7733550" lon="-17.8517620">
        <ele>1945.1</ele>
        <time>2020-11-16T14:18:30Z</time>
      </trkpt>
      <trkpt lat="28.7733550" lon="-17.8517620">
        <ele>1945.1</ele>
        <time>2020-11-16T14:18:31Z</time>
      </trkpt>
      <trkpt lat="28.7733180" lon="-17.8517000">
        <ele>1944.4</ele>
        <time>2020-11-16T14:18:32Z</time>
      </trkpt>
      <trkpt lat="28.7733180" lon="-17.8517000">
        <ele>1944.4</ele>
        <time>2020-11-16T14:18:33Z</time>
      </trkpt>
      <trkpt lat="28.7732730" lon="-17.8516100">
        <ele>1943.5</ele>
        <time>2020-11-16T14:18:34Z</time>
      </trkpt>
      <trkpt lat="28.7732730" lon="-17.8516100">
        <ele>1943.5</ele>
        <time>2020-11-16T14:18:35Z</time>
      </trkpt>
      <trkpt lat="28.7732520" lon="-17.8515370">
        <ele>1942.8</ele>
        <time>2020-11-16T14:18:36Z</time>
      </trkpt>
      <trkpt lat="28.7732530" lon="-17.8515150">
        <ele>1942.5</ele>
        <time>2020-11-16T14:18:37Z</time>
      </trkpt>
      <trkpt lat="28.7732620" lon="-17.8514850">
        <ele>1942.3</ele>
        <time>2020-11-16T14:18:38Z</time>
      </trkpt>
      <trkpt lat="28.7732620" lon="-17.8514850">
        <ele>1942.3</ele>
        <time>2020-11-16T14:18:39Z</time>
      </trkpt>
      <trkpt lat="28.7732770" lon="-17.8514050">
        <ele>1941.5</ele>
        <time>2020-11-16T14:18:40Z</time>
      </trkpt>
      <trkpt lat="28.7732770" lon="-17.8514050">
        <ele>1941.5</ele>
        <time>2020-11-16T14:18:41Z</time>
      </trkpt>
      <trkpt lat="28.7732930" lon="-17.8513350">
        <ele>1940.8</ele>
        <time>2020-11-16T14:18:42Z</time>
      </trkpt>
      <trkpt lat="28.7732930" lon="-17.8513350">
        <ele>1940.8</ele>
        <time>2020-11-16T14:18:43Z</time>
      </trkpt>
      <trkpt lat="28.7733200" lon="-17.8512570">
        <ele>1940.1</ele>
        <time>2020-11-16T14:18:44Z</time>
      </trkpt>
      <trkpt lat="28.7733350" lon="-17.8512080">
        <ele>1939.6</ele>
        <time>2020-11-16T14:18:45Z</time>
      </trkpt>
      <trkpt lat="28.7733350" lon="-17.8512080">
        <ele>1939.6</ele>
        <time>2020-11-16T14:18:46Z</time>
      </trkpt>
      <trkpt lat="28.7733600" lon="-17.8511170">
        <ele>1938.7</ele>
        <time>2020-11-16T14:18:47Z</time>
      </trkpt>
      <trkpt lat="28.7733600" lon="-17.8511170">
        <ele>1938.7</ele>
        <time>2020-11-16T14:18:48Z</time>
      </trkpt>
      <trkpt lat="28.7733820" lon="-17.8510550">
        <ele>1938.1</ele>
        <time>2020-11-16T14:18:49Z</time>
      </trkpt>
      <trkpt lat="28.7733820" lon="-17.8510550">
        <ele>1938.1</ele>
        <time>2020-11-16T14:18:50Z</time>
      </trkpt>
      <trkpt lat="28.7733950" lon="-17.8510000">
        <ele>1937.6</ele>
        <time>2020-11-16T14:18:51Z</time>
      </trkpt>
      <trkpt lat="28.7733950" lon="-17.8510000">
        <ele>1937.6</ele>
        <time>2020-11-16T14:18:52Z</time>
      </trkpt>
      <trkpt lat="28.7734130" lon="-17.8509370">
        <ele>1936.9</ele>
        <time>2020-11-16T14:18:53Z</time>
      </trkpt>
      <trkpt lat="28.7734130" lon="-17.8509370">
        <ele>1936.9</ele>
        <time>2020-11-16T14:18:54Z</time>
      </trkpt>
      <trkpt lat="28.7734250" lon="-17.8508700">
        <ele>1936.3</ele>
        <time>2020-11-16T14:18:55Z</time>
      </trkpt>
      <trkpt lat="28.7734250" lon="-17.8508700">
        <ele>1936.3</ele>
        <time>2020-11-16T14:18:56Z</time>
      </trkpt>
      <trkpt lat="28.7734300" lon="-17.8508020">
        <ele>1935.7</ele>
        <time>2020-11-16T14:18:57Z</time>
      </trkpt>
      <trkpt lat="28.7734300" lon="-17.8508020">
        <ele>1935.7</ele>
        <time>2020-11-16T14:18:58Z</time>
      </trkpt>
      <trkpt lat="28.7734650" lon="-17.8507450">
        <ele>1935.0</ele>
        <time>2020-11-16T14:18:59Z</time>
      </trkpt>
      <trkpt lat="28.7734650" lon="-17.8507450">
        <ele>1935.0</ele>
        <time>2020-11-16T14:19:00Z</time>
      </trkpt>
      <trkpt lat="28.7735000" lon="-17.8507000">
        <ele>1934.5</ele>
        <time>2020-11-16T14:19:01Z</time>
      </trkpt>
      <trkpt lat="28.7735170" lon="-17.8506770">
        <ele>1934.2</ele>
        <time>2020-11-16T14:19:02Z</time>
      </trkpt>
      <trkpt lat="28.7735450" lon="-17.8506500">
        <ele>1933.8</ele>
        <time>2020-11-16T14:19:03Z</time>
      </trkpt>
      <trkpt lat="28.7735450" lon="-17.8506500">
        <ele>1933.8</ele>
        <time>2020-11-16T14:19:04Z</time>
      </trkpt>
      <trkpt lat="28.7735970" lon="-17.8505880">
        <ele>1933.0</ele>
        <time>2020-11-16T14:19:05Z</time>
      </trkpt>
      <trkpt lat="28.7735970" lon="-17.8505880">
        <ele>1933.0</ele>
        <time>2020-11-16T14:19:06Z</time>
      </trkpt>
      <trkpt lat="28.7736330" lon="-17.8505300">
        <ele>1932.4</ele>
        <time>2020-11-16T14:19:07Z</time>
      </trkpt>
      <trkpt lat="28.7736330" lon="-17.8505300">
        <ele>1932.4</ele>
        <time>2020-11-16T14:19:08Z</time>
      </trkpt>
      <trkpt lat="28.7736750" lon="-17.8504850">
        <ele>1931.8</ele>
        <time>2020-11-16T14:19:09Z</time>
      </trkpt>
      <trkpt lat="28.7736750" lon="-17.8504850">
        <ele>1931.8</ele>
        <time>2020-11-16T14:19:10Z</time>
      </trkpt>
      <trkpt lat="28.7737270" lon="-17.8504450">
        <ele>1931.1</ele>
        <time>2020-11-16T14:19:11Z</time>
      </trkpt>
      <trkpt lat="28.7737270" lon="-17.8504450">
        <ele>1931.1</ele>
        <time>2020-11-16T14:19:12Z</time>
      </trkpt>
      <trkpt lat="28.7737700" lon="-17.8504080">
        <ele>1930.5</ele>
        <time>2020-11-16T14:19:13Z</time>
      </trkpt>
      <trkpt lat="28.7737920" lon="-17.8503870">
        <ele>1930.2</ele>
        <time>2020-11-16T14:19:14Z</time>
      </trkpt>
      <trkpt lat="28.7737920" lon="-17.8503870">
        <ele>1930.2</ele>
        <time>2020-11-16T14:19:15Z</time>
      </trkpt>
      <trkpt lat="28.7738370" lon="-17.8503430">
        <ele>1929.6</ele>
        <time>2020-11-16T14:19:16Z</time>
      </trkpt>
      <trkpt lat="28.7738370" lon="-17.8503430">
        <ele>1929.6</ele>
        <time>2020-11-16T14:19:17Z</time>
      </trkpt>
      <trkpt lat="28.7738780" lon="-17.8503120">
        <ele>1929.1</ele>
        <time>2020-11-16T14:19:18Z</time>
      </trkpt>
      <trkpt lat="28.7738780" lon="-17.8503120">
        <ele>1929.1</ele>
        <time>2020-11-16T14:19:19Z</time>
      </trkpt>
      <trkpt lat="28.7739170" lon="-17.8502850">
        <ele>1928.6</ele>
        <time>2020-11-16T14:19:20Z</time>
      </trkpt>
      <trkpt lat="28.7739170" lon="-17.8502850">
        <ele>1928.6</ele>
        <time>2020-11-16T14:19:21Z</time>
      </trkpt>
      <trkpt lat="28.7739600" lon="-17.8502550">
        <ele>1928.1</ele>
        <time>2020-11-16T14:19:22Z</time>
      </trkpt>
      <trkpt lat="28.7739600" lon="-17.8502550">
        <ele>1928.1</ele>
        <time>2020-11-16T14:19:23Z</time>
      </trkpt>
      <trkpt lat="28.7740080" lon="-17.8502270">
        <ele>1927.5</ele>
        <time>2020-11-16T14:19:24Z</time>
      </trkpt>
      <trkpt lat="28.7740080" lon="-17.8502270">
        <ele>1927.5</ele>
        <time>2020-11-16T14:19:25Z</time>
      </trkpt>
      <trkpt lat="28.7740480" lon="-17.8501920">
        <ele>1927.0</ele>
        <time>2020-11-16T14:19:26Z</time>
      </trkpt>
      <trkpt lat="28.7740480" lon="-17.8501920">
        <ele>1927.0</ele>
        <time>2020-11-16T14:19:27Z</time>
      </trkpt>
      <trkpt lat="28.7740900" lon="-17.8501550">
        <ele>1926.4</ele>
        <time>2020-11-16T14:19:28Z</time>
      </trkpt>
      <trkpt lat="28.7740900" lon="-17.8501550">
        <ele>1926.4</ele>
        <time>2020-11-16T14:19:29Z</time>
      </trkpt>
      <trkpt lat="28.7741420" lon="-17.8501250">
        <ele>1925.8</ele>
        <time>2020-11-16T14:19:30Z</time>
      </trkpt>
      <trkpt lat="28.7741420" lon="-17.8501250">
        <ele>1925.8</ele>
        <time>2020-11-16T14:19:31Z</time>
      </trkpt>
      <trkpt lat="28.7741830" lon="-17.8500780">
        <ele>1925.2</ele>
        <time>2020-11-16T14:19:32Z</time>
      </trkpt>
      <trkpt lat="28.7741830" lon="-17.8500780">
        <ele>1925.2</ele>
        <time>2020-11-16T14:19:33Z</time>
      </trkpt>
      <trkpt lat="28.7742200" lon="-17.8500380">
        <ele>1924.7</ele>
        <time>2020-11-16T14:19:34Z</time>
      </trkpt>
      <trkpt lat="28.7742420" lon="-17.8500180">
        <ele>1924.4</ele>
        <time>2020-11-16T14:19:35Z</time>
      </trkpt>
      <trkpt lat="28.7742420" lon="-17.8500180">
        <ele>1924.4</ele>
        <time>2020-11-16T14:19:36Z</time>
      </trkpt>
      <trkpt lat="28.7742930" lon="-17.8499730">
        <ele>1923.7</ele>
        <time>2020-11-16T14:19:37Z</time>
      </trkpt>
      <trkpt lat="28.7742930" lon="-17.8499730">
        <ele>1923.7</ele>
        <time>2020-11-16T14:19:38Z</time>
      </trkpt>
      <trkpt lat="28.7743380" lon="-17.8499220">
        <ele>1923.0</ele>
        <time>2020-11-16T14:19:39Z</time>
      </trkpt>
      <trkpt lat="28.7743570" lon="-17.8498930">
        <ele>1922.7</ele>
        <time>2020-11-16T14:19:40Z</time>
      </trkpt>
      <trkpt lat="28.7743570" lon="-17.8498930">
        <ele>1922.7</ele>
        <time>2020-11-16T14:19:41Z</time>
      </trkpt>
      <trkpt lat="28.7743830" lon="-17.8498300">
        <ele>1922.0</ele>
        <time>2020-11-16T14:19:42Z</time>
      </trkpt>
      <trkpt lat="28.7743830" lon="-17.8498300">
        <ele>1922.0</ele>
        <time>2020-11-16T14:19:43Z</time>
      </trkpt>
      <trkpt lat="28.7744130" lon="-17.8497580">
        <ele>1921.3</ele>
        <time>2020-11-16T14:19:44Z</time>
      </trkpt>
      <trkpt lat="28.7744130" lon="-17.8497580">
        <ele>1921.3</ele>
        <time>2020-11-16T14:19:45Z</time>
      </trkpt>
      <trkpt lat="28.7744580" lon="-17.8496800">
        <ele>1920.4</ele>
        <time>2020-11-16T14:19:46Z</time>
      </trkpt>
      <trkpt lat="28.7744580" lon="-17.8496800">
        <ele>1920.4</ele>
        <time>2020-11-16T14:19:47Z</time>
      </trkpt>
      <trkpt lat="28.7745150" lon="-17.8495930">
        <ele>1919.4</ele>
        <time>2020-11-16T14:19:48Z</time>
      </trkpt>
      <trkpt lat="28.7745150" lon="-17.8495930">
        <ele>1919.4</ele>
        <time>2020-11-16T14:19:49Z</time>
      </trkpt>
      <trkpt lat="28.7745830" lon="-17.8495120">
        <ele>1918.4</ele>
        <time>2020-11-16T14:19:50Z</time>
      </trkpt>
      <trkpt lat="28.7745830" lon="-17.8495120">
        <ele>1918.4</ele>
        <time>2020-11-16T14:19:51Z</time>
      </trkpt>
      <trkpt lat="28.7746570" lon="-17.8494320">
        <ele>1917.3</ele>
        <time>2020-11-16T14:19:52Z</time>
      </trkpt>
      <trkpt lat="28.7746570" lon="-17.8494320">
        <ele>1917.3</ele>
        <time>2020-11-16T14:19:53Z</time>
      </trkpt>
      <trkpt lat="28.7747200" lon="-17.8493530">
        <ele>1916.3</ele>
        <time>2020-11-16T14:19:54Z</time>
      </trkpt>
      <trkpt lat="28.7747200" lon="-17.8493530">
        <ele>1916.3</ele>
        <time>2020-11-16T14:19:55Z</time>
      </trkpt>
      <trkpt lat="28.7747820" lon="-17.8492830">
        <ele>1915.4</ele>
        <time>2020-11-16T14:19:56Z</time>
      </trkpt>
      <trkpt lat="28.7747820" lon="-17.8492830">
        <ele>1915.4</ele>
        <time>2020-11-16T14:19:57Z</time>
      </trkpt>
      <trkpt lat="28.7748600" lon="-17.8492330">
        <ele>1914.5</ele>
        <time>2020-11-16T14:19:58Z</time>
      </trkpt>
      <trkpt lat="28.7748600" lon="-17.8492330">
        <ele>1914.5</ele>
        <time>2020-11-16T14:19:59Z</time>
      </trkpt>
      <trkpt lat="28.7749170" lon="-17.8491680">
        <ele>1913.6</ele>
        <time>2020-11-16T14:20:00Z</time>
      </trkpt>
      <trkpt lat="28.7749170" lon="-17.8491680">
        <ele>1913.6</ele>
        <time>2020-11-16T14:20:01Z</time>
      </trkpt>
      <trkpt lat="28.7749600" lon="-17.8491180">
        <ele>1913.0</ele>
        <time>2020-11-16T14:20:02Z</time>
      </trkpt>
      <trkpt lat="28.7749600" lon="-17.8491180">
        <ele>1913.0</ele>
        <time>2020-11-16T14:20:03Z</time>
      </trkpt>
      <trkpt lat="28.7750230" lon="-17.8490870">
        <ele>1912.3</ele>
        <time>2020-11-16T14:20:04Z</time>
      </trkpt>
      <trkpt lat="28.7750530" lon="-17.8490670">
        <ele>1911.9</ele>
        <time>2020-11-16T14:20:05Z</time>
      </trkpt>
      <trkpt lat="28.7750530" lon="-17.8490670">
        <ele>1911.9</ele>
        <time>2020-11-16T14:20:06Z</time>
      </trkpt>
      <trkpt lat="28.7751120" lon="-17.8490350">
        <ele>1911.2</ele>
        <time>2020-11-16T14:20:07Z</time>
      </trkpt>
      <trkpt lat="28.7751120" lon="-17.8490350">
        <ele>1911.2</ele>
        <time>2020-11-16T14:20:08Z</time>
      </trkpt>
      <trkpt lat="28.7751670" lon="-17.8490000">
        <ele>1910.6</ele>
        <time>2020-11-16T14:20:09Z</time>
      </trkpt>
      <trkpt lat="28.7751670" lon="-17.8490000">
        <ele>1910.6</ele>
        <time>2020-11-16T14:20:10Z</time>
      </trkpt>
      <trkpt lat="28.7752180" lon="-17.8489720">
        <ele>1910.0</ele>
        <time>2020-11-16T14:20:11Z</time>
      </trkpt>
      <trkpt lat="28.7752180" lon="-17.8489720">
        <ele>1910.0</ele>
        <time>2020-11-16T14:20:12Z</time>
      </trkpt>
      <trkpt lat="28.7752700" lon="-17.8489350">
        <ele>1909.3</ele>
        <time>2020-11-16T14:20:13Z</time>
      </trkpt>
      <trkpt lat="28.7752700" lon="-17.8489350">
        <ele>1909.3</ele>
        <time>2020-11-16T14:20:14Z</time>
      </trkpt>
      <trkpt lat="28.7753020" lon="-17.8488950">
        <ele>1908.8</ele>
        <time>2020-11-16T14:20:15Z</time>
      </trkpt>
      <trkpt lat="28.7753020" lon="-17.8488950">
        <ele>1908.8</ele>
        <time>2020-11-16T14:20:16Z</time>
      </trkpt>
      <trkpt lat="28.7753430" lon="-17.8488620">
        <ele>1908.3</ele>
        <time>2020-11-16T14:20:17Z</time>
      </trkpt>
      <trkpt lat="28.7753430" lon="-17.8488620">
        <ele>1908.3</ele>
        <time>2020-11-16T14:20:18Z</time>
      </trkpt>
      <trkpt lat="28.7754070" lon="-17.8488180">
        <ele>1907.5</ele>
        <time>2020-11-16T14:20:19Z</time>
      </trkpt>
      <trkpt lat="28.7754070" lon="-17.8488180">
        <ele>1907.5</ele>
        <time>2020-11-16T14:20:20Z</time>
      </trkpt>
      <trkpt lat="28.7754900" lon="-17.8487850">
        <ele>1906.6</ele>
        <time>2020-11-16T14:20:21Z</time>
      </trkpt>
      <trkpt lat="28.7754900" lon="-17.8487850">
        <ele>1906.6</ele>
        <time>2020-11-16T14:20:22Z</time>
      </trkpt>
      <trkpt lat="28.7755500" lon="-17.8487550">
        <ele>1905.9</ele>
        <time>2020-11-16T14:20:23Z</time>
      </trkpt>
      <trkpt lat="28.7755750" lon="-17.8487400">
        <ele>1905.6</ele>
        <time>2020-11-16T14:20:24Z</time>
      </trkpt>
      <trkpt lat="28.7755750" lon="-17.8487400">
        <ele>1905.6</ele>
        <time>2020-11-16T14:20:25Z</time>
      </trkpt>
      <trkpt lat="28.7756300" lon="-17.8487120">
        <ele>1904.9</ele>
        <time>2020-11-16T14:20:26Z</time>
      </trkpt>
      <trkpt lat="28.7756300" lon="-17.8487120">
        <ele>1904.9</ele>
        <time>2020-11-16T14:20:27Z</time>
      </trkpt>
      <trkpt lat="28.7756930" lon="-17.8486830">
        <ele>1904.2</ele>
        <time>2020-11-16T14:20:28Z</time>
      </trkpt>
      <trkpt lat="28.7756930" lon="-17.8486830">
        <ele>1904.2</ele>
        <time>2020-11-16T14:20:29Z</time>
      </trkpt>
      <trkpt lat="28.7757700" lon="-17.8486350">
        <ele>1903.3</ele>
        <time>2020-11-16T14:20:30Z</time>
      </trkpt>
      <trkpt lat="28.7757700" lon="-17.8486350">
        <ele>1903.3</ele>
        <time>2020-11-16T14:20:31Z</time>
      </trkpt>
      <trkpt lat="28.7758300" lon="-17.8485950">
        <ele>1902.6</ele>
        <time>2020-11-16T14:20:32Z</time>
      </trkpt>
      <trkpt lat="28.7758300" lon="-17.8485950">
        <ele>1902.6</ele>
        <time>2020-11-16T14:20:33Z</time>
      </trkpt>
      <trkpt lat="28.7758870" lon="-17.8485550">
        <ele>1901.9</ele>
        <time>2020-11-16T14:20:34Z</time>
      </trkpt>
      <trkpt lat="28.7758870" lon="-17.8485550">
        <ele>1901.9</ele>
        <time>2020-11-16T14:20:35Z</time>
      </trkpt>
      <trkpt lat="28.7759320" lon="-17.8485070">
        <ele>1901.2</ele>
        <time>2020-11-16T14:20:36Z</time>
      </trkpt>
      <trkpt lat="28.7759320" lon="-17.8485070">
        <ele>1901.2</ele>
        <time>2020-11-16T14:20:37Z</time>
      </trkpt>
      <trkpt lat="28.7759600" lon="-17.8484630">
        <ele>1900.7</ele>
        <time>2020-11-16T14:20:38Z</time>
      </trkpt>
      <trkpt lat="28.7759600" lon="-17.8484630">
        <ele>1900.7</ele>
        <time>2020-11-16T14:20:39Z</time>
      </trkpt>
      <trkpt lat="28.7760020" lon="-17.8484230">
        <ele>1900.1</ele>
        <time>2020-11-16T14:20:40Z</time>
      </trkpt>
      <trkpt lat="28.7760250" lon="-17.8484020">
        <ele>1899.8</ele>
        <time>2020-11-16T14:20:41Z</time>
      </trkpt>
      <trkpt lat="28.7760250" lon="-17.8484020">
        <ele>1899.8</ele>
        <time>2020-11-16T14:20:42Z</time>
      </trkpt>
      <trkpt lat="28.7760700" lon="-17.8483370">
        <ele>1899.1</ele>
        <time>2020-11-16T14:20:43Z</time>
      </trkpt>
      <trkpt lat="28.7760920" lon="-17.8483000">
        <ele>1898.7</ele>
        <time>2020-11-16T14:20:44Z</time>
      </trkpt>
      <trkpt lat="28.7760920" lon="-17.8483000">
        <ele>1898.7</ele>
        <time>2020-11-16T14:20:45Z</time>
      </trkpt>
      <trkpt lat="28.7761270" lon="-17.8482250">
        <ele>1897.9</ele>
        <time>2020-11-16T14:20:46Z</time>
      </trkpt>
      <trkpt lat="28.7761270" lon="-17.8482250">
        <ele>1897.9</ele>
        <time>2020-11-16T14:20:47Z</time>
      </trkpt>
      <trkpt lat="28.7761520" lon="-17.8481480">
        <ele>1897.4</ele>
        <time>2020-11-16T14:20:48Z</time>
      </trkpt>
      <trkpt lat="28.7761520" lon="-17.8481480">
        <ele>1897.4</ele>
        <time>2020-11-16T14:20:49Z</time>
      </trkpt>
      <trkpt lat="28.7761600" lon="-17.8480780">
        <ele>1896.9</ele>
        <time>2020-11-16T14:20:50Z</time>
      </trkpt>
      <trkpt lat="28.7761600" lon="-17.8480780">
        <ele>1896.9</ele>
        <time>2020-11-16T14:20:51Z</time>
      </trkpt>
      <trkpt lat="28.7761580" lon="-17.8480120">
        <ele>1896.5</ele>
        <time>2020-11-16T14:20:52Z</time>
      </trkpt>
      <trkpt lat="28.7761580" lon="-17.8480120">
        <ele>1896.5</ele>
        <time>2020-11-16T14:20:53Z</time>
      </trkpt>
      <trkpt lat="28.7761570" lon="-17.8479470">
        <ele>1896.1</ele>
        <time>2020-11-16T14:20:54Z</time>
      </trkpt>
      <trkpt lat="28.7761570" lon="-17.8479470">
        <ele>1896.1</ele>
        <time>2020-11-16T14:20:55Z</time>
      </trkpt>
      <trkpt lat="28.7761700" lon="-17.8478880">
        <ele>1895.7</ele>
        <time>2020-11-16T14:20:56Z</time>
      </trkpt>
      <trkpt lat="28.7761920" lon="-17.8478650">
        <ele>1895.5</ele>
        <time>2020-11-16T14:20:57Z</time>
      </trkpt>
      <trkpt lat="28.7761920" lon="-17.8478650">
        <ele>1895.5</ele>
        <time>2020-11-16T14:20:58Z</time>
      </trkpt>
      <trkpt lat="28.7762430" lon="-17.8478500">
        <ele>1895.1</ele>
        <time>2020-11-16T14:20:59Z</time>
      </trkpt>
      <trkpt lat="28.7762430" lon="-17.8478500">
        <ele>1895.1</ele>
        <time>2020-11-16T14:21:00Z</time>
      </trkpt>
      <trkpt lat="28.7763050" lon="-17.8478720">
        <ele>1894.6</ele>
        <time>2020-11-16T14:21:01Z</time>
      </trkpt>
      <trkpt lat="28.7763280" lon="-17.8479000">
        <ele>1894.4</ele>
        <time>2020-11-16T14:21:02Z</time>
      </trkpt>
      <trkpt lat="28.7763280" lon="-17.8479000">
        <ele>1894.4</ele>
        <time>2020-11-16T14:21:03Z</time>
      </trkpt>
      <trkpt lat="28.7763450" lon="-17.8479820">
        <ele>1893.8</ele>
        <time>2020-11-16T14:21:04Z</time>
      </trkpt>
      <trkpt lat="28.7763450" lon="-17.8479820">
        <ele>1893.8</ele>
        <time>2020-11-16T14:21:05Z</time>
      </trkpt>
      <trkpt lat="28.7763370" lon="-17.8480700">
        <ele>1893.2</ele>
        <time>2020-11-16T14:21:06Z</time>
      </trkpt>
      <trkpt lat="28.7763370" lon="-17.8480700">
        <ele>1893.2</ele>
        <time>2020-11-16T14:21:07Z</time>
      </trkpt>
      <trkpt lat="28.7763230" lon="-17.8481570">
        <ele>1892.7</ele>
        <time>2020-11-16T14:21:08Z</time>
      </trkpt>
      <trkpt lat="28.7763230" lon="-17.8481570">
        <ele>1892.7</ele>
        <time>2020-11-16T14:21:09Z</time>
      </trkpt>
      <trkpt lat="28.7763170" lon="-17.8482370">
        <ele>1892.2</ele>
        <time>2020-11-16T14:21:10Z</time>
      </trkpt>
      <trkpt lat="28.7763170" lon="-17.8482370">
        <ele>1892.2</ele>
        <time>2020-11-16T14:21:11Z</time>
      </trkpt>
      <trkpt lat="28.7763130" lon="-17.8483100">
        <ele>1891.7</ele>
        <time>2020-11-16T14:21:12Z</time>
      </trkpt>
      <trkpt lat="28.7763130" lon="-17.8483100">
        <ele>1891.7</ele>
        <time>2020-11-16T14:21:13Z</time>
      </trkpt>
      <trkpt lat="28.7763150" lon="-17.8483830">
        <ele>1891.2</ele>
        <time>2020-11-16T14:21:14Z</time>
      </trkpt>
      <trkpt lat="28.7763150" lon="-17.8483830">
        <ele>1891.2</ele>
        <time>2020-11-16T14:21:15Z</time>
      </trkpt>
      <trkpt lat="28.7763320" lon="-17.8484420">
        <ele>1890.8</ele>
        <time>2020-11-16T14:21:16Z</time>
      </trkpt>
      <trkpt lat="28.7763320" lon="-17.8484420">
        <ele>1890.8</ele>
        <time>2020-11-16T14:21:17Z</time>
      </trkpt>
      <trkpt lat="28.7763720" lon="-17.8484750">
        <ele>1890.5</ele>
        <time>2020-11-16T14:21:18Z</time>
      </trkpt>
      <trkpt lat="28.7763720" lon="-17.8484750">
        <ele>1890.5</ele>
        <time>2020-11-16T14:21:19Z</time>
      </trkpt>
      <trkpt lat="28.7764150" lon="-17.8484720">
        <ele>1890.1</ele>
        <time>2020-11-16T14:21:20Z</time>
      </trkpt>
      <trkpt lat="28.7764150" lon="-17.8484720">
        <ele>1890.1</ele>
        <time>2020-11-16T14:21:21Z</time>
      </trkpt>
      <trkpt lat="28.7764430" lon="-17.8484350">
        <ele>1889.8</ele>
        <time>2020-11-16T14:21:22Z</time>
      </trkpt>
      <trkpt lat="28.7764470" lon="-17.8484130">
        <ele>1889.7</ele>
        <time>2020-11-16T14:21:23Z</time>
      </trkpt>
      <trkpt lat="28.7764470" lon="-17.8484130">
        <ele>1889.7</ele>
        <time>2020-11-16T14:21:24Z</time>
      </trkpt>
      <trkpt lat="28.7764530" lon="-17.8483620">
        <ele>1889.4</ele>
        <time>2020-11-16T14:21:25Z</time>
      </trkpt>
      <trkpt lat="28.7764600" lon="-17.8483300">
        <ele>1889.2</ele>
        <time>2020-11-16T14:21:26Z</time>
      </trkpt>
      <trkpt lat="28.7764600" lon="-17.8483300">
        <ele>1889.2</ele>
        <time>2020-11-16T14:21:27Z</time>
      </trkpt>
      <trkpt lat="28.7764600" lon="-17.8482450">
        <ele>1888.6</ele>
        <time>2020-11-16T14:21:28Z</time>
      </trkpt>
      <trkpt lat="28.7764580" lon="-17.8482020">
        <ele>1888.3</ele>
        <time>2020-11-16T14:21:29Z</time>
      </trkpt>
      <trkpt lat="28.7764580" lon="-17.8482020">
        <ele>1888.3</ele>
        <time>2020-11-16T14:21:30Z</time>
      </trkpt>
      <trkpt lat="28.7764830" lon="-17.8481080">
        <ele>1887.7</ele>
        <time>2020-11-16T14:21:31Z</time>
      </trkpt>
      <trkpt lat="28.7764970" lon="-17.8480600">
        <ele>1887.4</ele>
        <time>2020-11-16T14:21:32Z</time>
      </trkpt>
      <trkpt lat="28.7764970" lon="-17.8480600">
        <ele>1887.4</ele>
        <time>2020-11-16T14:21:33Z</time>
      </trkpt>
      <trkpt lat="28.7765220" lon="-17.8479520">
        <ele>1886.7</ele>
        <time>2020-11-16T14:21:34Z</time>
      </trkpt>
      <trkpt lat="28.7765220" lon="-17.8479520">
        <ele>1886.7</ele>
        <time>2020-11-16T14:21:35Z</time>
      </trkpt>
      <trkpt lat="28.7765350" lon="-17.8478550">
        <ele>1886.0</ele>
        <time>2020-11-16T14:21:36Z</time>
      </trkpt>
      <trkpt lat="28.7765350" lon="-17.8478550">
        <ele>1886.0</ele>
        <time>2020-11-16T14:21:37Z</time>
      </trkpt>
      <trkpt lat="28.7765500" lon="-17.8477770">
        <ele>1885.5</ele>
        <time>2020-11-16T14:21:38Z</time>
      </trkpt>
      <trkpt lat="28.7765500" lon="-17.8477770">
        <ele>1885.5</ele>
        <time>2020-11-16T14:21:39Z</time>
      </trkpt>
      <trkpt lat="28.7765920" lon="-17.8477250">
        <ele>1885.1</ele>
        <time>2020-11-16T14:21:40Z</time>
      </trkpt>
      <trkpt lat="28.7765920" lon="-17.8477250">
        <ele>1885.1</ele>
        <time>2020-11-16T14:21:41Z</time>
      </trkpt>
      <trkpt lat="28.7766500" lon="-17.8477180">
        <ele>1884.6</ele>
        <time>2020-11-16T14:21:42Z</time>
      </trkpt>
      <trkpt lat="28.7766500" lon="-17.8477180">
        <ele>1884.6</ele>
        <time>2020-11-16T14:21:43Z</time>
      </trkpt>
      <trkpt lat="28.7766900" lon="-17.8477650">
        <ele>1884.2</ele>
        <time>2020-11-16T14:21:44Z</time>
      </trkpt>
      <trkpt lat="28.7766900" lon="-17.8477650">
        <ele>1884.2</ele>
        <time>2020-11-16T14:21:45Z</time>
      </trkpt>
      <trkpt lat="28.7767100" lon="-17.8478280">
        <ele>1883.8</ele>
        <time>2020-11-16T14:21:46Z</time>
      </trkpt>
      <trkpt lat="28.7767100" lon="-17.8478280">
        <ele>1883.8</ele>
        <time>2020-11-16T14:21:47Z</time>
      </trkpt>
      <trkpt lat="28.7767100" lon="-17.8479030">
        <ele>1883.3</ele>
        <time>2020-11-16T14:21:48Z</time>
      </trkpt>
      <trkpt lat="28.7767100" lon="-17.8479030">
        <ele>1883.3</ele>
        <time>2020-11-16T14:21:49Z</time>
      </trkpt>
      <trkpt lat="28.7767050" lon="-17.8479970">
        <ele>1882.7</ele>
        <time>2020-11-16T14:21:50Z</time>
      </trkpt>
      <trkpt lat="28.7767050" lon="-17.8479970">
        <ele>1882.7</ele>
        <time>2020-11-16T14:21:51Z</time>
      </trkpt>
      <trkpt lat="28.7766920" lon="-17.8480970">
        <ele>1882.1</ele>
        <time>2020-11-16T14:21:52Z</time>
      </trkpt>
      <trkpt lat="28.7766920" lon="-17.8480970">
        <ele>1882.1</ele>
        <time>2020-11-16T14:21:53Z</time>
      </trkpt>
      <trkpt lat="28.7766950" lon="-17.8481820">
        <ele>1881.5</ele>
        <time>2020-11-16T14:21:54Z</time>
      </trkpt>
      <trkpt lat="28.7766950" lon="-17.8481820">
        <ele>1881.5</ele>
        <time>2020-11-16T14:21:55Z</time>
      </trkpt>
      <trkpt lat="28.7767030" lon="-17.8482520">
        <ele>1881.1</ele>
        <time>2020-11-16T14:21:56Z</time>
      </trkpt>
      <trkpt lat="28.7767030" lon="-17.8482520">
        <ele>1881.1</ele>
        <time>2020-11-16T14:21:57Z</time>
      </trkpt>
      <trkpt lat="28.7767250" lon="-17.8483200">
        <ele>1880.6</ele>
        <time>2020-11-16T14:21:58Z</time>
      </trkpt>
      <trkpt lat="28.7767250" lon="-17.8483200">
        <ele>1880.6</ele>
        <time>2020-11-16T14:21:59Z</time>
      </trkpt>
      <trkpt lat="28.7767500" lon="-17.8483880">
        <ele>1880.1</ele>
        <time>2020-11-16T14:22:00Z</time>
      </trkpt>
      <trkpt lat="28.7767500" lon="-17.8483880">
        <ele>1880.1</ele>
        <time>2020-11-16T14:22:01Z</time>
      </trkpt>
      <trkpt lat="28.7767770" lon="-17.8484480">
        <ele>1879.7</ele>
        <time>2020-11-16T14:22:02Z</time>
      </trkpt>
      <trkpt lat="28.7767770" lon="-17.8484480">
        <ele>1879.7</ele>
        <time>2020-11-16T14:22:03Z</time>
      </trkpt>
      <trkpt lat="28.7768130" lon="-17.8484870">
        <ele>1879.3</ele>
        <time>2020-11-16T14:22:04Z</time>
      </trkpt>
      <trkpt lat="28.7768130" lon="-17.8484870">
        <ele>1879.3</ele>
        <time>2020-11-16T14:22:05Z</time>
      </trkpt>
      <trkpt lat="28.7768700" lon="-17.8485030">
        <ele>1878.9</ele>
        <time>2020-11-16T14:22:06Z</time>
      </trkpt>
      <trkpt lat="28.7768700" lon="-17.8485030">
        <ele>1878.9</ele>
        <time>2020-11-16T14:22:07Z</time>
      </trkpt>
      <trkpt lat="28.7769350" lon="-17.8484820">
        <ele>1878.4</ele>
        <time>2020-11-16T14:22:08Z</time>
      </trkpt>
      <trkpt lat="28.7769350" lon="-17.8484820">
        <ele>1878.4</ele>
        <time>2020-11-16T14:22:09Z</time>
      </trkpt>
      <trkpt lat="28.7769820" lon="-17.8484480">
        <ele>1878.0</ele>
        <time>2020-11-16T14:22:10Z</time>
      </trkpt>
      <trkpt lat="28.7769820" lon="-17.8484480">
        <ele>1878.0</ele>
        <time>2020-11-16T14:22:11Z</time>
      </trkpt>
      <trkpt lat="28.7770100" lon="-17.8483970">
        <ele>1877.6</ele>
        <time>2020-11-16T14:22:12Z</time>
      </trkpt>
      <trkpt lat="28.7770100" lon="-17.8483970">
        <ele>1877.6</ele>
        <time>2020-11-16T14:22:13Z</time>
      </trkpt>
      <trkpt lat="28.7770030" lon="-17.8483370">
        <ele>1877.2</ele>
        <time>2020-11-16T14:22:14Z</time>
      </trkpt>
      <trkpt lat="28.7770030" lon="-17.8483370">
        <ele>1877.2</ele>
        <time>2020-11-16T14:22:15Z</time>
      </trkpt>
      <trkpt lat="28.7769880" lon="-17.8482750">
        <ele>1876.8</ele>
        <time>2020-11-16T14:22:16Z</time>
      </trkpt>
      <trkpt lat="28.7769880" lon="-17.8482750">
        <ele>1876.8</ele>
        <time>2020-11-16T14:22:17Z</time>
      </trkpt>
      <trkpt lat="28.7769770" lon="-17.8482150">
        <ele>1876.4</ele>
        <time>2020-11-16T14:22:18Z</time>
      </trkpt>
      <trkpt lat="28.7769770" lon="-17.8482150">
        <ele>1876.4</ele>
        <time>2020-11-16T14:22:19Z</time>
      </trkpt>
      <trkpt lat="28.7769620" lon="-17.8481530">
        <ele>1876.0</ele>
        <time>2020-11-16T14:22:20Z</time>
      </trkpt>
      <trkpt lat="28.7769620" lon="-17.8481530">
        <ele>1876.0</ele>
        <time>2020-11-16T14:22:21Z</time>
      </trkpt>
      <trkpt lat="28.7769550" lon="-17.8480820">
        <ele>1875.5</ele>
        <time>2020-11-16T14:22:22Z</time>
      </trkpt>
      <trkpt lat="28.7769550" lon="-17.8480820">
        <ele>1875.5</ele>
        <time>2020-11-16T14:22:23Z</time>
      </trkpt>
      <trkpt lat="28.7769800" lon="-17.8480180">
        <ele>1875.1</ele>
        <time>2020-11-16T14:22:24Z</time>
      </trkpt>
      <trkpt lat="28.7769800" lon="-17.8480180">
        <ele>1875.1</ele>
        <time>2020-11-16T14:22:25Z</time>
      </trkpt>
      <trkpt lat="28.7770380" lon="-17.8479650">
        <ele>1874.5</ele>
        <time>2020-11-16T14:22:26Z</time>
      </trkpt>
      <trkpt lat="28.7770380" lon="-17.8479650">
        <ele>1874.5</ele>
        <time>2020-11-16T14:22:27Z</time>
      </trkpt>
      <trkpt lat="28.7771050" lon="-17.8479150">
        <ele>1874.0</ele>
        <time>2020-11-16T14:22:28Z</time>
      </trkpt>
      <trkpt lat="28.7771050" lon="-17.8479150">
        <ele>1874.0</ele>
        <time>2020-11-16T14:22:29Z</time>
      </trkpt>
      <trkpt lat="28.7771770" lon="-17.8478530">
        <ele>1873.3</ele>
        <time>2020-11-16T14:22:30Z</time>
      </trkpt>
      <trkpt lat="28.7771770" lon="-17.8478530">
        <ele>1873.3</ele>
        <time>2020-11-16T14:22:31Z</time>
      </trkpt>
      <trkpt lat="28.7772520" lon="-17.8477870">
        <ele>1872.6</ele>
        <time>2020-11-16T14:22:32Z</time>
      </trkpt>
      <trkpt lat="28.7772520" lon="-17.8477870">
        <ele>1872.6</ele>
        <time>2020-11-16T14:22:33Z</time>
      </trkpt>
      <trkpt lat="28.7773150" lon="-17.8477120">
        <ele>1871.9</ele>
        <time>2020-11-16T14:22:34Z</time>
      </trkpt>
      <trkpt lat="28.7773150" lon="-17.8477120">
        <ele>1871.9</ele>
        <time>2020-11-16T14:22:35Z</time>
      </trkpt>
      <trkpt lat="28.7773550" lon="-17.8476250">
        <ele>1871.3</ele>
        <time>2020-11-16T14:22:36Z</time>
      </trkpt>
      <trkpt lat="28.7773550" lon="-17.8476250">
        <ele>1871.3</ele>
        <time>2020-11-16T14:22:37Z</time>
      </trkpt>
      <trkpt lat="28.7773780" lon="-17.8475470">
        <ele>1870.8</ele>
        <time>2020-11-16T14:22:38Z</time>
      </trkpt>
      <trkpt lat="28.7773780" lon="-17.8475470">
        <ele>1870.8</ele>
        <time>2020-11-16T14:22:39Z</time>
      </trkpt>
      <trkpt lat="28.7773730" lon="-17.8474920">
        <ele>1870.4</ele>
        <time>2020-11-16T14:22:40Z</time>
      </trkpt>
      <trkpt lat="28.7773730" lon="-17.8474920">
        <ele>1870.4</ele>
        <time>2020-11-16T14:22:41Z</time>
      </trkpt>
      <trkpt lat="28.7773880" lon="-17.8474400">
        <ele>1870.1</ele>
        <time>2020-11-16T14:22:42Z</time>
      </trkpt>
      <trkpt lat="28.7773880" lon="-17.8474400">
        <ele>1870.1</ele>
        <time>2020-11-16T14:22:43Z</time>
      </trkpt>
      <trkpt lat="28.7774180" lon="-17.8474000">
        <ele>1869.7</ele>
        <time>2020-11-16T14:22:44Z</time>
      </trkpt>
      <trkpt lat="28.7774180" lon="-17.8474000">
        <ele>1869.7</ele>
        <time>2020-11-16T14:22:45Z</time>
      </trkpt>
      <trkpt lat="28.7774550" lon="-17.8473730">
        <ele>1869.4</ele>
        <time>2020-11-16T14:22:46Z</time>
      </trkpt>
      <trkpt lat="28.7774550" lon="-17.8473730">
        <ele>1869.4</ele>
        <time>2020-11-16T14:22:47Z</time>
      </trkpt>
      <trkpt lat="28.7775020" lon="-17.8473820">
        <ele>1869.1</ele>
        <time>2020-11-16T14:22:48Z</time>
      </trkpt>
      <trkpt lat="28.7775020" lon="-17.8473820">
        <ele>1869.1</ele>
        <time>2020-11-16T14:22:49Z</time>
      </trkpt>
      <trkpt lat="28.7775400" lon="-17.8474150">
        <ele>1868.7</ele>
        <time>2020-11-16T14:22:50Z</time>
      </trkpt>
      <trkpt lat="28.7775400" lon="-17.8474150">
        <ele>1868.7</ele>
        <time>2020-11-16T14:22:51Z</time>
      </trkpt>
      <trkpt lat="28.7775670" lon="-17.8474630">
        <ele>1868.4</ele>
        <time>2020-11-16T14:22:52Z</time>
      </trkpt>
      <trkpt lat="28.7775670" lon="-17.8474630">
        <ele>1868.4</ele>
        <time>2020-11-16T14:22:53Z</time>
      </trkpt>
      <trkpt lat="28.7775800" lon="-17.8475130">
        <ele>1868.0</ele>
        <time>2020-11-16T14:22:54Z</time>
      </trkpt>
      <trkpt lat="28.7775800" lon="-17.8475130">
        <ele>1868.0</ele>
        <time>2020-11-16T14:22:55Z</time>
      </trkpt>
      <trkpt lat="28.7775780" lon="-17.8475780">
        <ele>1867.6</ele>
        <time>2020-11-16T14:22:56Z</time>
      </trkpt>
      <trkpt lat="28.7775780" lon="-17.8475780">
        <ele>1867.6</ele>
        <time>2020-11-16T14:22:57Z</time>
      </trkpt>
      <trkpt lat="28.7775550" lon="-17.8476580">
        <ele>1867.1</ele>
        <time>2020-11-16T14:22:58Z</time>
      </trkpt>
      <trkpt lat="28.7775550" lon="-17.8476580">
        <ele>1867.1</ele>
        <time>2020-11-16T14:22:59Z</time>
      </trkpt>
      <trkpt lat="28.7775070" lon="-17.8477350">
        <ele>1866.5</ele>
        <time>2020-11-16T14:23:00Z</time>
      </trkpt>
      <trkpt lat="28.7775070" lon="-17.8477350">
        <ele>1866.5</ele>
        <time>2020-11-16T14:23:01Z</time>
      </trkpt>
      <trkpt lat="28.7774550" lon="-17.8478070">
        <ele>1865.9</ele>
        <time>2020-11-16T14:23:02Z</time>
      </trkpt>
      <trkpt lat="28.7774550" lon="-17.8478070">
        <ele>1865.9</ele>
        <time>2020-11-16T14:23:03Z</time>
      </trkpt>
      <trkpt lat="28.7773950" lon="-17.8478750">
        <ele>1865.2</ele>
        <time>2020-11-16T14:23:04Z</time>
      </trkpt>
      <trkpt lat="28.7773650" lon="-17.8479130">
        <ele>1864.9</ele>
        <time>2020-11-16T14:23:05Z</time>
      </trkpt>
      <trkpt lat="28.7773650" lon="-17.8479130">
        <ele>1864.9</ele>
        <time>2020-11-16T14:23:06Z</time>
      </trkpt>
      <trkpt lat="28.7773080" lon="-17.8480020">
        <ele>1864.2</ele>
        <time>2020-11-16T14:23:07Z</time>
      </trkpt>
      <trkpt lat="28.7773080" lon="-17.8480020">
        <ele>1864.2</ele>
        <time>2020-11-16T14:23:08Z</time>
      </trkpt>
      <trkpt lat="28.7772750" lon="-17.8480980">
        <ele>1863.5</ele>
        <time>2020-11-16T14:23:09Z</time>
      </trkpt>
      <trkpt lat="28.7772750" lon="-17.8480980">
        <ele>1863.5</ele>
        <time>2020-11-16T14:23:10Z</time>
      </trkpt>
      <trkpt lat="28.7772620" lon="-17.8481850">
        <ele>1863.0</ele>
        <time>2020-11-16T14:23:11Z</time>
      </trkpt>
      <trkpt lat="28.7772620" lon="-17.8481850">
        <ele>1863.0</ele>
        <time>2020-11-16T14:23:12Z</time>
      </trkpt>
      <trkpt lat="28.7772680" lon="-17.8482520">
        <ele>1862.5</ele>
        <time>2020-11-16T14:23:13Z</time>
      </trkpt>
      <trkpt lat="28.7772680" lon="-17.8482520">
        <ele>1862.5</ele>
        <time>2020-11-16T14:23:14Z</time>
      </trkpt>
      <trkpt lat="28.7772880" lon="-17.8483280">
        <ele>1862.0</ele>
        <time>2020-11-16T14:23:15Z</time>
      </trkpt>
      <trkpt lat="28.7772880" lon="-17.8483280">
        <ele>1862.0</ele>
        <time>2020-11-16T14:23:16Z</time>
      </trkpt>
      <trkpt lat="28.7773250" lon="-17.8483900">
        <ele>1861.6</ele>
        <time>2020-11-16T14:23:17Z</time>
      </trkpt>
      <trkpt lat="28.7773250" lon="-17.8483900">
        <ele>1861.6</ele>
        <time>2020-11-16T14:23:18Z</time>
      </trkpt>
      <trkpt lat="28.7773750" lon="-17.8484050">
        <ele>1861.2</ele>
        <time>2020-11-16T14:23:19Z</time>
      </trkpt>
      <trkpt lat="28.7773750" lon="-17.8484050">
        <ele>1861.2</ele>
        <time>2020-11-16T14:23:20Z</time>
      </trkpt>
      <trkpt lat="28.7774070" lon="-17.8483680">
        <ele>1860.8</ele>
        <time>2020-11-16T14:23:21Z</time>
      </trkpt>
      <trkpt lat="28.7774070" lon="-17.8483680">
        <ele>1860.8</ele>
        <time>2020-11-16T14:23:22Z</time>
      </trkpt>
      <trkpt lat="28.7774300" lon="-17.8482980">
        <ele>1860.4</ele>
        <time>2020-11-16T14:23:23Z</time>
      </trkpt>
      <trkpt lat="28.7774300" lon="-17.8482980">
        <ele>1860.4</ele>
        <time>2020-11-16T14:23:24Z</time>
      </trkpt>
      <trkpt lat="28.7774450" lon="-17.8482270">
        <ele>1859.9</ele>
        <time>2020-11-16T14:23:25Z</time>
      </trkpt>
      <trkpt lat="28.7774530" lon="-17.8481970">
        <ele>1859.7</ele>
        <time>2020-11-16T14:23:26Z</time>
      </trkpt>
      <trkpt lat="28.7774530" lon="-17.8481970">
        <ele>1859.7</ele>
        <time>2020-11-16T14:23:27Z</time>
      </trkpt>
      <trkpt lat="28.7774670" lon="-17.8481570">
        <ele>1859.4</ele>
        <time>2020-11-16T14:23:28Z</time>
      </trkpt>
      <trkpt lat="28.7774670" lon="-17.8481570">
        <ele>1859.4</ele>
        <time>2020-11-16T14:23:29Z</time>
      </trkpt>
      <trkpt lat="28.7774970" lon="-17.8481020">
        <ele>1859.0</ele>
        <time>2020-11-16T14:23:30Z</time>
      </trkpt>
      <trkpt lat="28.7774970" lon="-17.8481020">
        <ele>1859.0</ele>
        <time>2020-11-16T14:23:31Z</time>
      </trkpt>
      <trkpt lat="28.7775530" lon="-17.8480370">
        <ele>1858.4</ele>
        <time>2020-11-16T14:23:32Z</time>
      </trkpt>
      <trkpt lat="28.7775530" lon="-17.8480370">
        <ele>1858.4</ele>
        <time>2020-11-16T14:23:33Z</time>
      </trkpt>
      <trkpt lat="28.7776230" lon="-17.8479700">
        <ele>1857.8</ele>
        <time>2020-11-16T14:23:34Z</time>
      </trkpt>
      <trkpt lat="28.7776230" lon="-17.8479700">
        <ele>1857.8</ele>
        <time>2020-11-16T14:23:35Z</time>
      </trkpt>
      <trkpt lat="28.7776850" lon="-17.8478920">
        <ele>1857.1</ele>
        <time>2020-11-16T14:23:36Z</time>
      </trkpt>
      <trkpt lat="28.7776850" lon="-17.8478920">
        <ele>1857.1</ele>
        <time>2020-11-16T14:23:37Z</time>
      </trkpt>
      <trkpt lat="28.7777450" lon="-17.8478200">
        <ele>1856.4</ele>
        <time>2020-11-16T14:23:38Z</time>
      </trkpt>
      <trkpt lat="28.7777450" lon="-17.8478200">
        <ele>1856.4</ele>
        <time>2020-11-16T14:23:39Z</time>
      </trkpt>
      <trkpt lat="28.7778130" lon="-17.8477720">
        <ele>1855.9</ele>
        <time>2020-11-16T14:23:40Z</time>
      </trkpt>
      <trkpt lat="28.7778130" lon="-17.8477720">
        <ele>1855.9</ele>
        <time>2020-11-16T14:23:41Z</time>
      </trkpt>
      <trkpt lat="28.7778820" lon="-17.8477170">
        <ele>1855.2</ele>
        <time>2020-11-16T14:23:42Z</time>
      </trkpt>
      <trkpt lat="28.7778820" lon="-17.8477170">
        <ele>1855.2</ele>
        <time>2020-11-16T14:23:43Z</time>
      </trkpt>
      <trkpt lat="28.7779670" lon="-17.8476550">
        <ele>1854.5</ele>
        <time>2020-11-16T14:23:44Z</time>
      </trkpt>
      <trkpt lat="28.7779670" lon="-17.8476550">
        <ele>1854.5</ele>
        <time>2020-11-16T14:23:45Z</time>
      </trkpt>
      <trkpt lat="28.7780530" lon="-17.8475930">
        <ele>1853.8</ele>
        <time>2020-11-16T14:23:46Z</time>
      </trkpt>
      <trkpt lat="28.7780530" lon="-17.8475930">
        <ele>1853.8</ele>
        <time>2020-11-16T14:23:47Z</time>
      </trkpt>
      <trkpt lat="28.7780950" lon="-17.8475130">
        <ele>1853.2</ele>
        <time>2020-11-16T14:23:48Z</time>
      </trkpt>
      <trkpt lat="28.7780950" lon="-17.8475130">
        <ele>1853.2</ele>
        <time>2020-11-16T14:23:49Z</time>
      </trkpt>
      <trkpt lat="28.7780950" lon="-17.8474230">
        <ele>1852.6</ele>
        <time>2020-11-16T14:23:50Z</time>
      </trkpt>
      <trkpt lat="28.7780950" lon="-17.8474230">
        <ele>1852.6</ele>
        <time>2020-11-16T14:23:51Z</time>
      </trkpt>
      <trkpt lat="28.7780750" lon="-17.8473500">
        <ele>1852.1</ele>
        <time>2020-11-16T14:23:52Z</time>
      </trkpt>
      <trkpt lat="28.7780750" lon="-17.8473500">
        <ele>1852.1</ele>
        <time>2020-11-16T14:23:53Z</time>
      </trkpt>
      <trkpt lat="28.7780530" lon="-17.8472920">
        <ele>1851.7</ele>
        <time>2020-11-16T14:23:54Z</time>
      </trkpt>
      <trkpt lat="28.7780530" lon="-17.8472920">
        <ele>1851.7</ele>
        <time>2020-11-16T14:23:55Z</time>
      </trkpt>
      <trkpt lat="28.7780330" lon="-17.8472300">
        <ele>1851.3</ele>
        <time>2020-11-16T14:23:56Z</time>
      </trkpt>
      <trkpt lat="28.7780330" lon="-17.8472300">
        <ele>1851.3</ele>
        <time>2020-11-16T14:23:57Z</time>
      </trkpt>
      <trkpt lat="28.7780030" lon="-17.8471730">
        <ele>1850.8</ele>
        <time>2020-11-16T14:23:58Z</time>
      </trkpt>
      <trkpt lat="28.7780030" lon="-17.8471730">
        <ele>1850.8</ele>
        <time>2020-11-16T14:23:59Z</time>
      </trkpt>
      <trkpt lat="28.7779720" lon="-17.8471250">
        <ele>1850.5</ele>
        <time>2020-11-16T14:24:00Z</time>
      </trkpt>
      <trkpt lat="28.7779720" lon="-17.8471250">
        <ele>1850.5</ele>
        <time>2020-11-16T14:24:01Z</time>
      </trkpt>
      <trkpt lat="28.7779500" lon="-17.8470720">
        <ele>1850.1</ele>
        <time>2020-11-16T14:24:02Z</time>
      </trkpt>
      <trkpt lat="28.7779500" lon="-17.8470720">
        <ele>1850.1</ele>
        <time>2020-11-16T14:24:03Z</time>
      </trkpt>
      <trkpt lat="28.7779350" lon="-17.8470130">
        <ele>1849.7</ele>
        <time>2020-11-16T14:24:04Z</time>
      </trkpt>
      <trkpt lat="28.7779350" lon="-17.8470130">
        <ele>1849.7</ele>
        <time>2020-11-16T14:24:05Z</time>
      </trkpt>
      <trkpt lat="28.7779480" lon="-17.8469670">
        <ele>1849.4</ele>
        <time>2020-11-16T14:24:06Z</time>
      </trkpt>
      <trkpt lat="28.7779480" lon="-17.8469670">
        <ele>1849.4</ele>
        <time>2020-11-16T14:24:07Z</time>
      </trkpt>
      <trkpt lat="28.7779950" lon="-17.8469480">
        <ele>1849.0</ele>
        <time>2020-11-16T14:24:08Z</time>
      </trkpt>
      <trkpt lat="28.7779950" lon="-17.8469480">
        <ele>1849.0</ele>
        <time>2020-11-16T14:24:09Z</time>
      </trkpt>
      <trkpt lat="28.7780450" lon="-17.8469550">
        <ele>1848.6</ele>
        <time>2020-11-16T14:24:10Z</time>
      </trkpt>
      <trkpt lat="28.7780450" lon="-17.8469550">
        <ele>1848.6</ele>
        <time>2020-11-16T14:24:11Z</time>
      </trkpt>
      <trkpt lat="28.7780850" lon="-17.8470020">
        <ele>1848.2</ele>
        <time>2020-11-16T14:24:12Z</time>
      </trkpt>
      <trkpt lat="28.7780850" lon="-17.8470020">
        <ele>1848.2</ele>
        <time>2020-11-16T14:24:13Z</time>
      </trkpt>
      <trkpt lat="28.7781180" lon="-17.8470620">
        <ele>1847.8</ele>
        <time>2020-11-16T14:24:14Z</time>
      </trkpt>
      <trkpt lat="28.7781180" lon="-17.8470620">
        <ele>1847.8</ele>
        <time>2020-11-16T14:24:15Z</time>
      </trkpt>
      <trkpt lat="28.7781520" lon="-17.8471220">
        <ele>1847.3</ele>
        <time>2020-11-16T14:24:16Z</time>
      </trkpt>
      <trkpt lat="28.7781520" lon="-17.8471220">
        <ele>1847.3</ele>
        <time>2020-11-16T14:24:17Z</time>
      </trkpt>
      <trkpt lat="28.7781850" lon="-17.8471750">
        <ele>1846.9</ele>
        <time>2020-11-16T14:24:18Z</time>
      </trkpt>
      <trkpt lat="28.7781850" lon="-17.8471750">
        <ele>1846.9</ele>
        <time>2020-11-16T14:24:19Z</time>
      </trkpt>
      <trkpt lat="28.7782130" lon="-17.8472180">
        <ele>1846.5</ele>
        <time>2020-11-16T14:24:20Z</time>
      </trkpt>
      <trkpt lat="28.7782130" lon="-17.8472180">
        <ele>1846.5</ele>
        <time>2020-11-16T14:24:21Z</time>
      </trkpt>
      <trkpt lat="28.7782430" lon="-17.8472770">
        <ele>1846.1</ele>
        <time>2020-11-16T14:24:22Z</time>
      </trkpt>
      <trkpt lat="28.7782430" lon="-17.8472770">
        <ele>1846.1</ele>
        <time>2020-11-16T14:24:23Z</time>
      </trkpt>
      <trkpt lat="28.7782800" lon="-17.8473470">
        <ele>1845.6</ele>
        <time>2020-11-16T14:24:24Z</time>
      </trkpt>
      <trkpt lat="28.7782800" lon="-17.8473470">
        <ele>1845.6</ele>
        <time>2020-11-16T14:24:25Z</time>
      </trkpt>
      <trkpt lat="28.7783280" lon="-17.8474180">
        <ele>1845.0</ele>
        <time>2020-11-16T14:24:26Z</time>
      </trkpt>
      <trkpt lat="28.7783280" lon="-17.8474180">
        <ele>1845.0</ele>
        <time>2020-11-16T14:24:27Z</time>
      </trkpt>
      <trkpt lat="28.7783720" lon="-17.8474970">
        <ele>1844.4</ele>
        <time>2020-11-16T14:24:28Z</time>
      </trkpt>
      <trkpt lat="28.7783720" lon="-17.8474970">
        <ele>1844.4</ele>
        <time>2020-11-16T14:24:29Z</time>
      </trkpt>
      <trkpt lat="28.7784170" lon="-17.8475630">
        <ele>1843.9</ele>
        <time>2020-11-16T14:24:30Z</time>
      </trkpt>
      <trkpt lat="28.7784170" lon="-17.8475630">
        <ele>1843.9</ele>
        <time>2020-11-16T14:24:31Z</time>
      </trkpt>
      <trkpt lat="28.7784550" lon="-17.8476450">
        <ele>1843.3</ele>
        <time>2020-11-16T14:24:32Z</time>
      </trkpt>
      <trkpt lat="28.7784550" lon="-17.8476450">
        <ele>1843.3</ele>
        <time>2020-11-16T14:24:33Z</time>
      </trkpt>
      <trkpt lat="28.7784650" lon="-17.8477430">
        <ele>1842.6</ele>
        <time>2020-11-16T14:24:34Z</time>
      </trkpt>
      <trkpt lat="28.7784650" lon="-17.8477430">
        <ele>1842.6</ele>
        <time>2020-11-16T14:24:35Z</time>
      </trkpt>
      <trkpt lat="28.7784200" lon="-17.8478270">
        <ele>1842.0</ele>
        <time>2020-11-16T14:24:36Z</time>
      </trkpt>
      <trkpt lat="28.7784200" lon="-17.8478270">
        <ele>1842.0</ele>
        <time>2020-11-16T14:24:37Z</time>
      </trkpt>
      <trkpt lat="28.7783380" lon="-17.8478800">
        <ele>1841.3</ele>
        <time>2020-11-16T14:24:38Z</time>
      </trkpt>
      <trkpt lat="28.7783380" lon="-17.8478800">
        <ele>1841.3</ele>
        <time>2020-11-16T14:24:39Z</time>
      </trkpt>
      <trkpt lat="28.7782500" lon="-17.8479120">
        <ele>1840.6</ele>
        <time>2020-11-16T14:24:40Z</time>
      </trkpt>
      <trkpt lat="28.7782500" lon="-17.8479120">
        <ele>1840.6</ele>
        <time>2020-11-16T14:24:41Z</time>
      </trkpt>
      <trkpt lat="28.7781650" lon="-17.8479350">
        <ele>1840.0</ele>
        <time>2020-11-16T14:24:42Z</time>
      </trkpt>
      <trkpt lat="28.7781230" lon="-17.8479480">
        <ele>1839.7</ele>
        <time>2020-11-16T14:24:43Z</time>
      </trkpt>
      <trkpt lat="28.7781230" lon="-17.8479480">
        <ele>1839.7</ele>
        <time>2020-11-16T14:24:44Z</time>
      </trkpt>
      <trkpt lat="28.7780520" lon="-17.8479920">
        <ele>1839.1</ele>
        <time>2020-11-16T14:24:45Z</time>
      </trkpt>
      <trkpt lat="28.7780180" lon="-17.8480170">
        <ele>1838.8</ele>
        <time>2020-11-16T14:24:46Z</time>
      </trkpt>
      <trkpt lat="28.7780180" lon="-17.8480170">
        <ele>1838.8</ele>
        <time>2020-11-16T14:24:47Z</time>
      </trkpt>
      <trkpt lat="28.7779780" lon="-17.8480780">
        <ele>1838.3</ele>
        <time>2020-11-16T14:24:48Z</time>
      </trkpt>
      <trkpt lat="28.7779720" lon="-17.8481150">
        <ele>1838.1</ele>
        <time>2020-11-16T14:24:49Z</time>
      </trkpt>
      <trkpt lat="28.7779720" lon="-17.8481150">
        <ele>1838.1</ele>
        <time>2020-11-16T14:24:50Z</time>
      </trkpt>
      <trkpt lat="28.7779720" lon="-17.8481900">
        <ele>1837.6</ele>
        <time>2020-11-16T14:24:51Z</time>
      </trkpt>
      <trkpt lat="28.7779720" lon="-17.8481900">
        <ele>1837.6</ele>
        <time>2020-11-16T14:24:52Z</time>
      </trkpt>
      <trkpt lat="28.7779870" lon="-17.8482650">
        <ele>1837.1</ele>
        <time>2020-11-16T14:24:53Z</time>
      </trkpt>
      <trkpt lat="28.7779870" lon="-17.8482650">
        <ele>1837.1</ele>
        <time>2020-11-16T14:24:54Z</time>
      </trkpt>
      <trkpt lat="28.7780020" lon="-17.8483470">
        <ele>1836.6</ele>
        <time>2020-11-16T14:24:55Z</time>
      </trkpt>
      <trkpt lat="28.7780020" lon="-17.8483470">
        <ele>1836.6</ele>
        <time>2020-11-16T14:24:56Z</time>
      </trkpt>
      <trkpt lat="28.7780180" lon="-17.8484100">
        <ele>1836.1</ele>
        <time>2020-11-16T14:24:57Z</time>
      </trkpt>
      <trkpt lat="28.7780180" lon="-17.8484100">
        <ele>1836.1</ele>
        <time>2020-11-16T14:24:58Z</time>
      </trkpt>
      <trkpt lat="28.7780680" lon="-17.8484450">
        <ele>1835.7</ele>
        <time>2020-11-16T14:24:59Z</time>
      </trkpt>
      <trkpt lat="28.7780680" lon="-17.8484450">
        <ele>1835.7</ele>
        <time>2020-11-16T14:25:00Z</time>
      </trkpt>
      <trkpt lat="28.7781050" lon="-17.8484350">
        <ele>1835.4</ele>
        <time>2020-11-16T14:25:01Z</time>
      </trkpt>
      <trkpt lat="28.7781150" lon="-17.8484080">
        <ele>1835.2</ele>
        <time>2020-11-16T14:25:02Z</time>
      </trkpt>
      <trkpt lat="28.7781150" lon="-17.8484080">
        <ele>1835.2</ele>
        <time>2020-11-16T14:25:03Z</time>
      </trkpt>
      <trkpt lat="28.7781300" lon="-17.8483430">
        <ele>1834.8</ele>
        <time>2020-11-16T14:25:04Z</time>
      </trkpt>
      <trkpt lat="28.7781300" lon="-17.8483430">
        <ele>1834.8</ele>
        <time>2020-11-16T14:25:05Z</time>
      </trkpt>
      <trkpt lat="28.7781250" lon="-17.8482870">
        <ele>1834.5</ele>
        <time>2020-11-16T14:25:06Z</time>
      </trkpt>
      <trkpt lat="28.7781250" lon="-17.8482870">
        <ele>1834.5</ele>
        <time>2020-11-16T14:25:07Z</time>
      </trkpt>
      <trkpt lat="28.7781130" lon="-17.8482420">
        <ele>1834.2</ele>
        <time>2020-11-16T14:25:08Z</time>
      </trkpt>
      <trkpt lat="28.7781130" lon="-17.8482420">
        <ele>1834.2</ele>
        <time>2020-11-16T14:25:09Z</time>
      </trkpt>
      <trkpt lat="28.7781220" lon="-17.8481920">
        <ele>1833.8</ele>
        <time>2020-11-16T14:25:10Z</time>
      </trkpt>
      <trkpt lat="28.7781220" lon="-17.8481920">
        <ele>1833.8</ele>
        <time>2020-11-16T14:25:11Z</time>
      </trkpt>
      <trkpt lat="28.7781570" lon="-17.8481520">
        <ele>1833.5</ele>
        <time>2020-11-16T14:25:12Z</time>
      </trkpt>
      <trkpt lat="28.7781570" lon="-17.8481520">
        <ele>1833.5</ele>
        <time>2020-11-16T14:25:13Z</time>
      </trkpt>
      <trkpt lat="28.7781900" lon="-17.8481230">
        <ele>1833.2</ele>
        <time>2020-11-16T14:25:14Z</time>
      </trkpt>
      <trkpt lat="28.7781900" lon="-17.8481230">
        <ele>1833.2</ele>
        <time>2020-11-16T14:25:15Z</time>
      </trkpt>
      <trkpt lat="28.7782250" lon="-17.8481030">
        <ele>1832.9</ele>
        <time>2020-11-16T14:25:16Z</time>
      </trkpt>
      <trkpt lat="28.7782250" lon="-17.8481030">
        <ele>1832.9</ele>
        <time>2020-11-16T14:25:17Z</time>
      </trkpt>
      <trkpt lat="28.7782650" lon="-17.8480880">
        <ele>1832.6</ele>
        <time>2020-11-16T14:25:18Z</time>
      </trkpt>
      <trkpt lat="28.7782650" lon="-17.8480880">
        <ele>1832.6</ele>
        <time>2020-11-16T14:25:19Z</time>
      </trkpt>
      <trkpt lat="28.7783070" lon="-17.8480800">
        <ele>1832.3</ele>
        <time>2020-11-16T14:25:20Z</time>
      </trkpt>
      <trkpt lat="28.7783070" lon="-17.8480800">
        <ele>1832.3</ele>
        <time>2020-11-16T14:25:21Z</time>
      </trkpt>
      <trkpt lat="28.7783750" lon="-17.8480680">
        <ele>1831.7</ele>
        <time>2020-11-16T14:25:22Z</time>
      </trkpt>
      <trkpt lat="28.7783750" lon="-17.8480680">
        <ele>1831.7</ele>
        <time>2020-11-16T14:25:23Z</time>
      </trkpt>
      <trkpt lat="28.7784500" lon="-17.8480600">
        <ele>1831.2</ele>
        <time>2020-11-16T14:25:24Z</time>
      </trkpt>
      <trkpt lat="28.7784500" lon="-17.8480600">
        <ele>1831.2</ele>
        <time>2020-11-16T14:25:25Z</time>
      </trkpt>
      <trkpt lat="28.7785300" lon="-17.8480530">
        <ele>1830.6</ele>
        <time>2020-11-16T14:25:26Z</time>
      </trkpt>
      <trkpt lat="28.7785300" lon="-17.8480530">
        <ele>1830.6</ele>
        <time>2020-11-16T14:25:27Z</time>
      </trkpt>
      <trkpt lat="28.7786130" lon="-17.8480330">
        <ele>1830.0</ele>
        <time>2020-11-16T14:25:28Z</time>
      </trkpt>
      <trkpt lat="28.7786130" lon="-17.8480330">
        <ele>1830.0</ele>
        <time>2020-11-16T14:25:29Z</time>
      </trkpt>
      <trkpt lat="28.7787000" lon="-17.8479970">
        <ele>1829.3</ele>
        <time>2020-11-16T14:25:30Z</time>
      </trkpt>
      <trkpt lat="28.7787000" lon="-17.8479970">
        <ele>1829.3</ele>
        <time>2020-11-16T14:25:31Z</time>
      </trkpt>
      <trkpt lat="28.7787730" lon="-17.8479350">
        <ele>1828.8</ele>
        <time>2020-11-16T14:25:32Z</time>
      </trkpt>
      <trkpt lat="28.7787730" lon="-17.8479350">
        <ele>1828.8</ele>
        <time>2020-11-16T14:25:33Z</time>
      </trkpt>
      <trkpt lat="28.7788330" lon="-17.8478530">
        <ele>1827.8</ele>
        <time>2020-11-16T14:25:34Z</time>
      </trkpt>
      <trkpt lat="28.7788330" lon="-17.8478530">
        <ele>1827.8</ele>
        <time>2020-11-16T14:25:35Z</time>
      </trkpt>
      <trkpt lat="28.7788330" lon="-17.8478530">
        <ele>1827.8</ele>
        <time>2020-11-16T14:25:36Z</time>
      </trkpt>
      <trkpt lat="28.7788580" lon="-17.8477580">
        <ele>1827.0</ele>
        <time>2020-11-16T14:25:37Z</time>
      </trkpt>
      <trkpt lat="28.7788550" lon="-17.8476700">
        <ele>1826.2</ele>
        <time>2020-11-16T14:25:38Z</time>
      </trkpt>
      <trkpt lat="28.7788550" lon="-17.8476700">
        <ele>1826.2</ele>
        <time>2020-11-16T14:25:39Z</time>
      </trkpt>
      <trkpt lat="28.7788400" lon="-17.8475770">
        <ele>1825.3</ele>
        <time>2020-11-16T14:25:40Z</time>
      </trkpt>
      <trkpt lat="28.7788400" lon="-17.8475770">
        <ele>1825.3</ele>
        <time>2020-11-16T14:25:41Z</time>
      </trkpt>
      <trkpt lat="28.7788180" lon="-17.8474750">
        <ele>1824.4</ele>
        <time>2020-11-16T14:25:42Z</time>
      </trkpt>
      <trkpt lat="28.7788180" lon="-17.8474750">
        <ele>1824.4</ele>
        <time>2020-11-16T14:25:43Z</time>
      </trkpt>
      <trkpt lat="28.7787870" lon="-17.8473700">
        <ele>1823.4</ele>
        <time>2020-11-16T14:25:44Z</time>
      </trkpt>
      <trkpt lat="28.7787870" lon="-17.8473700">
        <ele>1823.4</ele>
        <time>2020-11-16T14:25:45Z</time>
      </trkpt>
      <trkpt lat="28.7787620" lon="-17.8472580">
        <ele>1822.4</ele>
        <time>2020-11-16T14:25:46Z</time>
      </trkpt>
      <trkpt lat="28.7787620" lon="-17.8472580">
        <ele>1822.4</ele>
        <time>2020-11-16T14:25:47Z</time>
      </trkpt>
      <trkpt lat="28.7787270" lon="-17.8471450">
        <ele>1821.4</ele>
        <time>2020-11-16T14:25:48Z</time>
      </trkpt>
      <trkpt lat="28.7787270" lon="-17.8471450">
        <ele>1821.4</ele>
        <time>2020-11-16T14:25:49Z</time>
      </trkpt>
      <trkpt lat="28.7786820" lon="-17.8470280">
        <ele>1820.2</ele>
        <time>2020-11-16T14:25:50Z</time>
      </trkpt>
      <trkpt lat="28.7786820" lon="-17.8470280">
        <ele>1820.2</ele>
        <time>2020-11-16T14:25:51Z</time>
      </trkpt>
      <trkpt lat="28.7786330" lon="-17.8469250">
        <ele>1819.2</ele>
        <time>2020-11-16T14:25:52Z</time>
      </trkpt>
      <trkpt lat="28.7786330" lon="-17.8469250">
        <ele>1819.2</ele>
        <time>2020-11-16T14:25:53Z</time>
      </trkpt>
      <trkpt lat="28.7785880" lon="-17.8468420">
        <ele>1818.3</ele>
        <time>2020-11-16T14:25:54Z</time>
      </trkpt>
      <trkpt lat="28.7785880" lon="-17.8468420">
        <ele>1818.3</ele>
        <time>2020-11-16T14:25:55Z</time>
      </trkpt>
      <trkpt lat="28.7785380" lon="-17.8467480">
        <ele>1817.4</ele>
        <time>2020-11-16T14:25:56Z</time>
      </trkpt>
      <trkpt lat="28.7785380" lon="-17.8467480">
        <ele>1817.4</ele>
        <time>2020-11-16T14:25:57Z</time>
      </trkpt>
      <trkpt lat="28.7785220" lon="-17.8466400">
        <ele>1816.4</ele>
        <time>2020-11-16T14:25:58Z</time>
      </trkpt>
      <trkpt lat="28.7785180" lon="-17.8465830">
        <ele>1815.9</ele>
        <time>2020-11-16T14:25:59Z</time>
      </trkpt>
      <trkpt lat="28.7785180" lon="-17.8465830">
        <ele>1815.9</ele>
        <time>2020-11-16T14:26:00Z</time>
      </trkpt>
      <trkpt lat="28.7785000" lon="-17.8464880">
        <ele>1815.0</ele>
        <time>2020-11-16T14:26:01Z</time>
      </trkpt>
      <trkpt lat="28.7785000" lon="-17.8464880">
        <ele>1815.0</ele>
        <time>2020-11-16T14:26:02Z</time>
      </trkpt>
      <trkpt lat="28.7784680" lon="-17.8464150">
        <ele>1814.3</ele>
        <time>2020-11-16T14:26:03Z</time>
      </trkpt>
      <trkpt lat="28.7784680" lon="-17.8464150">
        <ele>1814.3</ele>
        <time>2020-11-16T14:26:04Z</time>
      </trkpt>
      <trkpt lat="28.7784370" lon="-17.8463620">
        <ele>1813.7</ele>
        <time>2020-11-16T14:26:05Z</time>
      </trkpt>
      <trkpt lat="28.7784370" lon="-17.8463620">
        <ele>1813.7</ele>
        <time>2020-11-16T14:26:06Z</time>
      </trkpt>
      <trkpt lat="28.7783950" lon="-17.8463200">
        <ele>1813.2</ele>
        <time>2020-11-16T14:26:07Z</time>
      </trkpt>
      <trkpt lat="28.7783950" lon="-17.8463200">
        <ele>1813.2</ele>
        <time>2020-11-16T14:26:08Z</time>
      </trkpt>
      <trkpt lat="28.7783580" lon="-17.8462650">
        <ele>1812.6</ele>
        <time>2020-11-16T14:26:09Z</time>
      </trkpt>
      <trkpt lat="28.7783430" lon="-17.8462350">
        <ele>1812.3</ele>
        <time>2020-11-16T14:26:10Z</time>
      </trkpt>
      <trkpt lat="28.7783430" lon="-17.8462350">
        <ele>1812.3</ele>
        <time>2020-11-16T14:26:11Z</time>
      </trkpt>
      <trkpt lat="28.7783580" lon="-17.8461870">
        <ele>1811.8</ele>
        <time>2020-11-16T14:26:12Z</time>
      </trkpt>
      <trkpt lat="28.7783580" lon="-17.8461870">
        <ele>1811.8</ele>
        <time>2020-11-16T14:26:13Z</time>
      </trkpt>
      <trkpt lat="28.7784000" lon="-17.8461670">
        <ele>1811.3</ele>
        <time>2020-11-16T14:26:14Z</time>
      </trkpt>
      <trkpt lat="28.7784000" lon="-17.8461670">
        <ele>1811.3</ele>
        <time>2020-11-16T14:26:15Z</time>
      </trkpt>
      <trkpt lat="28.7784480" lon="-17.8461650">
        <ele>1810.9</ele>
        <time>2020-11-16T14:26:16Z</time>
      </trkpt>
      <trkpt lat="28.7784480" lon="-17.8461650">
        <ele>1810.9</ele>
        <time>2020-11-16T14:26:17Z</time>
      </trkpt>
      <trkpt lat="28.7784850" lon="-17.8462080">
        <ele>1810.3</ele>
        <time>2020-11-16T14:26:18Z</time>
      </trkpt>
      <trkpt lat="28.7784850" lon="-17.8462080">
        <ele>1810.3</ele>
        <time>2020-11-16T14:26:19Z</time>
      </trkpt>
      <trkpt lat="28.7785220" lon="-17.8462600">
        <ele>1809.7</ele>
        <time>2020-11-16T14:26:20Z</time>
      </trkpt>
      <trkpt lat="28.7785220" lon="-17.8462600">
        <ele>1809.7</ele>
        <time>2020-11-16T14:26:21Z</time>
      </trkpt>
      <trkpt lat="28.7785600" lon="-17.8463150">
        <ele>1809.1</ele>
        <time>2020-11-16T14:26:22Z</time>
      </trkpt>
      <trkpt lat="28.7785600" lon="-17.8463150">
        <ele>1809.1</ele>
        <time>2020-11-16T14:26:23Z</time>
      </trkpt>
      <trkpt lat="28.7785920" lon="-17.8463770">
        <ele>1808.5</ele>
        <time>2020-11-16T14:26:24Z</time>
      </trkpt>
      <trkpt lat="28.7785920" lon="-17.8463770">
        <ele>1808.5</ele>
        <time>2020-11-16T14:26:25Z</time>
      </trkpt>
      <trkpt lat="28.7786150" lon="-17.8464450">
        <ele>1807.8</ele>
        <time>2020-11-16T14:26:26Z</time>
      </trkpt>
      <trkpt lat="28.7786150" lon="-17.8464450">
        <ele>1807.8</ele>
        <time>2020-11-16T14:26:27Z</time>
      </trkpt>
      <trkpt lat="28.7786330" lon="-17.8464980">
        <ele>1807.3</ele>
        <time>2020-11-16T14:26:28Z</time>
      </trkpt>
      <trkpt lat="28.7786380" lon="-17.8465200">
        <ele>1807.1</ele>
        <time>2020-11-16T14:26:29Z</time>
      </trkpt>
      <trkpt lat="28.7786380" lon="-17.8465200">
        <ele>1807.1</ele>
        <time>2020-11-16T14:26:30Z</time>
      </trkpt>
      <trkpt lat="28.7786450" lon="-17.8465600">
        <ele>1806.8</ele>
        <time>2020-11-16T14:26:31Z</time>
      </trkpt>
      <trkpt lat="28.7786450" lon="-17.8465600">
        <ele>1806.8</ele>
        <time>2020-11-16T14:26:32Z</time>
      </trkpt>
      <trkpt lat="28.7786570" lon="-17.8466070">
        <ele>1806.3</ele>
        <time>2020-11-16T14:26:33Z</time>
      </trkpt>
      <trkpt lat="28.7786570" lon="-17.8466070">
        <ele>1806.3</ele>
        <time>2020-11-16T14:26:34Z</time>
      </trkpt>
      <trkpt lat="28.7786880" lon="-17.8466550">
        <ele>1805.8</ele>
        <time>2020-11-16T14:26:35Z</time>
      </trkpt>
      <trkpt lat="28.7786880" lon="-17.8466550">
        <ele>1805.8</ele>
        <time>2020-11-16T14:26:36Z</time>
      </trkpt>
      <trkpt lat="28.7787320" lon="-17.8466950">
        <ele>1805.2</ele>
        <time>2020-11-16T14:26:37Z</time>
      </trkpt>
      <trkpt lat="28.7787320" lon="-17.8466950">
        <ele>1805.2</ele>
        <time>2020-11-16T14:26:38Z</time>
      </trkpt>
      <trkpt lat="28.7787720" lon="-17.8467320">
        <ele>1804.7</ele>
        <time>2020-11-16T14:26:39Z</time>
      </trkpt>
      <trkpt lat="28.7787720" lon="-17.8467320">
        <ele>1804.7</ele>
        <time>2020-11-16T14:26:40Z</time>
      </trkpt>
      <trkpt lat="28.7788100" lon="-17.8467570">
        <ele>1804.3</ele>
        <time>2020-11-16T14:26:41Z</time>
      </trkpt>
      <trkpt lat="28.7788100" lon="-17.8467570">
        <ele>1804.3</ele>
        <time>2020-11-16T14:26:42Z</time>
      </trkpt>
      <trkpt lat="28.7788350" lon="-17.8467730">
        <ele>1804.0</ele>
        <time>2020-11-16T14:26:43Z</time>
      </trkpt>
      <trkpt lat="28.7788350" lon="-17.8467730">
        <ele>1804.0</ele>
        <time>2020-11-16T14:26:44Z</time>
      </trkpt>
      <trkpt lat="28.7788670" lon="-17.8467930">
        <ele>1803.6</ele>
        <time>2020-11-16T14:26:45Z</time>
      </trkpt>
      <trkpt lat="28.7788670" lon="-17.8467930">
        <ele>1803.6</ele>
        <time>2020-11-16T14:26:46Z</time>
      </trkpt>
      <trkpt lat="28.7788780" lon="-17.8467920">
        <ele>1803.5</ele>
        <time>2020-11-16T14:26:47Z</time>
      </trkpt>
      <trkpt lat="28.7788780" lon="-17.8467920">
        <ele>1803.5</ele>
        <time>2020-11-16T14:26:48Z</time>
      </trkpt>
      <trkpt lat="28.7788780" lon="-17.8467880">
        <ele>1803.5</ele>
        <time>2020-11-16T14:26:49Z</time>
      </trkpt>
      <trkpt lat="28.7788780" lon="-17.8467880">
        <ele>1803.5</ele>
        <time>2020-11-16T14:27:50Z</time>
      </trkpt>
      <trkpt lat="28.7789380" lon="-17.8468180">
        <ele>1802.8</ele>
        <time>2020-11-16T14:27:51Z</time>
      </trkpt>
      <trkpt lat="28.7789500" lon="-17.8468430">
        <ele>1802.6</ele>
        <time>2020-11-16T14:27:52Z</time>
      </trkpt>
      <trkpt lat="28.7789500" lon="-17.8468430">
        <ele>1802.6</ele>
        <time>2020-11-16T14:27:53Z</time>
      </trkpt>
      <trkpt lat="28.7789780" lon="-17.8468920">
        <ele>1802.0</ele>
        <time>2020-11-16T14:27:54Z</time>
      </trkpt>
      <trkpt lat="28.7789780" lon="-17.8468920">
        <ele>1802.0</ele>
        <time>2020-11-16T14:27:55Z</time>
      </trkpt>
      <trkpt lat="28.7790170" lon="-17.8469480">
        <ele>1801.4</ele>
        <time>2020-11-16T14:27:56Z</time>
      </trkpt>
      <trkpt lat="28.7790170" lon="-17.8469480">
        <ele>1801.4</ele>
        <time>2020-11-16T14:27:57Z</time>
      </trkpt>
      <trkpt lat="28.7790550" lon="-17.8470120">
        <ele>1800.7</ele>
        <time>2020-11-16T14:27:58Z</time>
      </trkpt>
      <trkpt lat="28.7790550" lon="-17.8470120">
        <ele>1800.7</ele>
        <time>2020-11-16T14:27:59Z</time>
      </trkpt>
      <trkpt lat="28.7790850" lon="-17.8470780">
        <ele>1800.1</ele>
        <time>2020-11-16T14:28:00Z</time>
      </trkpt>
      <trkpt lat="28.7790850" lon="-17.8470780">
        <ele>1800.1</ele>
        <time>2020-11-16T14:28:01Z</time>
      </trkpt>
      <trkpt lat="28.7791170" lon="-17.8471630">
        <ele>1799.3</ele>
        <time>2020-11-16T14:28:02Z</time>
      </trkpt>
      <trkpt lat="28.7791170" lon="-17.8471630">
        <ele>1799.3</ele>
        <time>2020-11-16T14:28:03Z</time>
      </trkpt>
      <trkpt lat="28.7791430" lon="-17.8472680">
        <ele>1798.3</ele>
        <time>2020-11-16T14:28:04Z</time>
      </trkpt>
      <trkpt lat="28.7791430" lon="-17.8472680">
        <ele>1798.3</ele>
        <time>2020-11-16T14:28:05Z</time>
      </trkpt>
      <trkpt lat="28.7791930" lon="-17.8473620">
        <ele>1797.3</ele>
        <time>2020-11-16T14:28:06Z</time>
      </trkpt>
      <trkpt lat="28.7791930" lon="-17.8473620">
        <ele>1797.3</ele>
        <time>2020-11-16T14:28:07Z</time>
      </trkpt>
      <trkpt lat="28.7792380" lon="-17.8474600">
        <ele>1796.3</ele>
        <time>2020-11-16T14:28:08Z</time>
      </trkpt>
      <trkpt lat="28.7792380" lon="-17.8474600">
        <ele>1796.3</ele>
        <time>2020-11-16T14:28:09Z</time>
      </trkpt>
      <trkpt lat="28.7792830" lon="-17.8475520">
        <ele>1795.4</ele>
        <time>2020-11-16T14:28:10Z</time>
      </trkpt>
      <trkpt lat="28.7792830" lon="-17.8475520">
        <ele>1795.4</ele>
        <time>2020-11-16T14:28:11Z</time>
      </trkpt>
      <trkpt lat="28.7793070" lon="-17.8476500">
        <ele>1794.5</ele>
        <time>2020-11-16T14:28:12Z</time>
      </trkpt>
      <trkpt lat="28.7793070" lon="-17.8476500">
        <ele>1794.5</ele>
        <time>2020-11-16T14:28:13Z</time>
      </trkpt>
      <trkpt lat="28.7793270" lon="-17.8477450">
        <ele>1793.6</ele>
        <time>2020-11-16T14:28:14Z</time>
      </trkpt>
      <trkpt lat="28.7793270" lon="-17.8477450">
        <ele>1793.6</ele>
        <time>2020-11-16T14:28:15Z</time>
      </trkpt>
      <trkpt lat="28.7793550" lon="-17.8478180">
        <ele>1792.9</ele>
        <time>2020-11-16T14:28:16Z</time>
      </trkpt>
      <trkpt lat="28.7793550" lon="-17.8478180">
        <ele>1792.9</ele>
        <time>2020-11-16T14:28:17Z</time>
      </trkpt>
      <trkpt lat="28.7794100" lon="-17.8478150">
        <ele>1792.4</ele>
        <time>2020-11-16T14:28:18Z</time>
      </trkpt>
      <trkpt lat="28.7794100" lon="-17.8478150">
        <ele>1792.4</ele>
        <time>2020-11-16T14:28:19Z</time>
      </trkpt>
      <trkpt lat="28.7794550" lon="-17.8477680">
        <ele>1791.8</ele>
        <time>2020-11-16T14:28:20Z</time>
      </trkpt>
      <trkpt lat="28.7794550" lon="-17.8477680">
        <ele>1791.8</ele>
        <time>2020-11-16T14:28:21Z</time>
      </trkpt>
      <trkpt lat="28.7794580" lon="-17.8477250">
        <ele>1791.4</ele>
        <time>2020-11-16T14:28:22Z</time>
      </trkpt>
      <trkpt lat="28.7794580" lon="-17.8477250">
        <ele>1791.4</ele>
        <time>2020-11-16T14:28:23Z</time>
      </trkpt>
      <trkpt lat="28.7794320" lon="-17.8476630">
        <ele>1790.8</ele>
        <time>2020-11-16T14:28:24Z</time>
      </trkpt>
      <trkpt lat="28.7794200" lon="-17.8476280">
        <ele>1790.4</ele>
        <time>2020-11-16T14:28:25Z</time>
      </trkpt>
      <trkpt lat="28.7794070" lon="-17.8475920">
        <ele>1790.1</ele>
        <time>2020-11-16T14:28:26Z</time>
      </trkpt>
      <trkpt lat="28.7794070" lon="-17.8475920">
        <ele>1790.1</ele>
        <time>2020-11-16T14:28:27Z</time>
      </trkpt>
      <trkpt lat="28.7793830" lon="-17.8475100">
        <ele>1789.3</ele>
        <time>2020-11-16T14:28:28Z</time>
      </trkpt>
      <trkpt lat="28.7793830" lon="-17.8475100">
        <ele>1789.3</ele>
        <time>2020-11-16T14:28:29Z</time>
      </trkpt>
      <trkpt lat="28.7793650" lon="-17.8474200">
        <ele>1788.5</ele>
        <time>2020-11-16T14:28:30Z</time>
      </trkpt>
      <trkpt lat="28.7793650" lon="-17.8474200">
        <ele>1788.5</ele>
        <time>2020-11-16T14:28:31Z</time>
      </trkpt>
      <trkpt lat="28.7793480" lon="-17.8473130">
        <ele>1787.6</ele>
        <time>2020-11-16T14:28:32Z</time>
      </trkpt>
      <trkpt lat="28.7793480" lon="-17.8473130">
        <ele>1787.6</ele>
        <time>2020-11-16T14:28:33Z</time>
      </trkpt>
      <trkpt lat="28.7793280" lon="-17.8471830">
        <ele>1786.4</ele>
        <time>2020-11-16T14:28:34Z</time>
      </trkpt>
      <trkpt lat="28.7793280" lon="-17.8471830">
        <ele>1786.4</ele>
        <time>2020-11-16T14:28:35Z</time>
      </trkpt>
      <trkpt lat="28.7793080" lon="-17.8470480">
        <ele>1785.2</ele>
        <time>2020-11-16T14:28:36Z</time>
      </trkpt>
      <trkpt lat="28.7793080" lon="-17.8470480">
        <ele>1785.2</ele>
        <time>2020-11-16T14:28:37Z</time>
      </trkpt>
      <trkpt lat="28.7792950" lon="-17.8469270">
        <ele>1784.1</ele>
        <time>2020-11-16T14:28:38Z</time>
      </trkpt>
      <trkpt lat="28.7792950" lon="-17.8469270">
        <ele>1784.1</ele>
        <time>2020-11-16T14:28:39Z</time>
      </trkpt>
      <trkpt lat="28.7792730" lon="-17.8468150">
        <ele>1783.1</ele>
        <time>2020-11-16T14:28:40Z</time>
      </trkpt>
      <trkpt lat="28.7792730" lon="-17.8468150">
        <ele>1783.1</ele>
        <time>2020-11-16T14:28:41Z</time>
      </trkpt>
      <trkpt lat="28.7792170" lon="-17.8467120">
        <ele>1782.0</ele>
        <time>2020-11-16T14:28:42Z</time>
      </trkpt>
      <trkpt lat="28.7792170" lon="-17.8467120">
        <ele>1782.0</ele>
        <time>2020-11-16T14:28:43Z</time>
      </trkpt>
      <trkpt lat="28.7791400" lon="-17.8466270">
        <ele>1780.9</ele>
        <time>2020-11-16T14:28:44Z</time>
      </trkpt>
      <trkpt lat="28.7791400" lon="-17.8466270">
        <ele>1780.9</ele>
        <time>2020-11-16T14:28:45Z</time>
      </trkpt>
      <trkpt lat="28.7790650" lon="-17.8465650">
        <ele>1780.0</ele>
        <time>2020-11-16T14:28:46Z</time>
      </trkpt>
      <trkpt lat="28.7790650" lon="-17.8465650">
        <ele>1780.0</ele>
        <time>2020-11-16T14:28:47Z</time>
      </trkpt>
      <trkpt lat="28.7790180" lon="-17.8465220">
        <ele>1779.4</ele>
        <time>2020-11-16T14:28:48Z</time>
      </trkpt>
      <trkpt lat="28.7790180" lon="-17.8465220">
        <ele>1779.4</ele>
        <time>2020-11-16T14:28:49Z</time>
      </trkpt>
      <trkpt lat="28.7789900" lon="-17.8464870">
        <ele>1779.0</ele>
        <time>2020-11-16T14:28:50Z</time>
      </trkpt>
      <trkpt lat="28.7789900" lon="-17.8464870">
        <ele>1779.0</ele>
        <time>2020-11-16T14:28:51Z</time>
      </trkpt>
      <trkpt lat="28.7789580" lon="-17.8464380">
        <ele>1778.4</ele>
        <time>2020-11-16T14:28:52Z</time>
      </trkpt>
      <trkpt lat="28.7789580" lon="-17.8464380">
        <ele>1778.4</ele>
        <time>2020-11-16T14:28:53Z</time>
      </trkpt>
      <trkpt lat="28.7789330" lon="-17.8463650">
        <ele>1777.7</ele>
        <time>2020-11-16T14:28:54Z</time>
      </trkpt>
      <trkpt lat="28.7789330" lon="-17.8463650">
        <ele>1777.7</ele>
        <time>2020-11-16T14:28:55Z</time>
      </trkpt>
      <trkpt lat="28.7789330" lon="-17.8462900">
        <ele>1777.1</ele>
        <time>2020-11-16T14:28:56Z</time>
      </trkpt>
      <trkpt lat="28.7789330" lon="-17.8462900">
        <ele>1777.1</ele>
        <time>2020-11-16T14:28:57Z</time>
      </trkpt>
      <trkpt lat="28.7789820" lon="-17.8462380">
        <ele>1776.4</ele>
        <time>2020-11-16T14:28:58Z</time>
      </trkpt>
      <trkpt lat="28.7789820" lon="-17.8462380">
        <ele>1776.4</ele>
        <time>2020-11-16T14:28:59Z</time>
      </trkpt>
      <trkpt lat="28.7790250" lon="-17.8462380">
        <ele>1776.0</ele>
        <time>2020-11-16T14:29:00Z</time>
      </trkpt>
      <trkpt lat="28.7790250" lon="-17.8462380">
        <ele>1776.0</ele>
        <time>2020-11-16T14:29:01Z</time>
      </trkpt>
      <trkpt lat="28.7790550" lon="-17.8462800">
        <ele>1775.5</ele>
        <time>2020-11-16T14:29:02Z</time>
      </trkpt>
      <trkpt lat="28.7790550" lon="-17.8462800">
        <ele>1775.5</ele>
        <time>2020-11-16T14:29:03Z</time>
      </trkpt>
      <trkpt lat="28.7790730" lon="-17.8463450">
        <ele>1774.9</ele>
        <time>2020-11-16T14:29:04Z</time>
      </trkpt>
      <trkpt lat="28.7790730" lon="-17.8463450">
        <ele>1774.9</ele>
        <time>2020-11-16T14:29:05Z</time>
      </trkpt>
      <trkpt lat="28.7790950" lon="-17.8464020">
        <ele>1774.3</ele>
        <time>2020-11-16T14:29:06Z</time>
      </trkpt>
      <trkpt lat="28.7790950" lon="-17.8464020">
        <ele>1774.3</ele>
        <time>2020-11-16T14:29:07Z</time>
      </trkpt>
      <trkpt lat="28.7791170" lon="-17.8464470">
        <ele>1773.9</ele>
        <time>2020-11-16T14:29:08Z</time>
      </trkpt>
      <trkpt lat="28.7791170" lon="-17.8464470">
        <ele>1773.9</ele>
        <time>2020-11-16T14:29:09Z</time>
      </trkpt>
      <trkpt lat="28.7791330" lon="-17.8464780">
        <ele>1773.6</ele>
        <time>2020-11-16T14:29:10Z</time>
      </trkpt>
      <trkpt lat="28.7791330" lon="-17.8464780">
        <ele>1773.6</ele>
        <time>2020-11-16T14:29:11Z</time>
      </trkpt>
      <trkpt lat="28.7791550" lon="-17.8465020">
        <ele>1773.3</ele>
        <time>2020-11-16T14:29:12Z</time>
      </trkpt>
      <trkpt lat="28.7791550" lon="-17.8465020">
        <ele>1773.3</ele>
        <time>2020-11-16T14:29:13Z</time>
      </trkpt>
      <trkpt lat="28.7792020" lon="-17.8465230">
        <ele>1772.7</ele>
        <time>2020-11-16T14:29:14Z</time>
      </trkpt>
      <trkpt lat="28.7792020" lon="-17.8465230">
        <ele>1772.7</ele>
        <time>2020-11-16T14:29:15Z</time>
      </trkpt>
      <trkpt lat="28.7792550" lon="-17.8465530">
        <ele>1772.2</ele>
        <time>2020-11-16T14:29:16Z</time>
      </trkpt>
      <trkpt lat="28.7792550" lon="-17.8465530">
        <ele>1772.2</ele>
        <time>2020-11-16T14:29:17Z</time>
      </trkpt>
      <trkpt lat="28.7793200" lon="-17.8465880">
        <ele>1771.4</ele>
        <time>2020-11-16T14:29:18Z</time>
      </trkpt>
      <trkpt lat="28.7793200" lon="-17.8465880">
        <ele>1771.4</ele>
        <time>2020-11-16T14:29:19Z</time>
      </trkpt>
      <trkpt lat="28.7793880" lon="-17.8466300">
        <ele>1770.6</ele>
        <time>2020-11-16T14:29:20Z</time>
      </trkpt>
      <trkpt lat="28.7793880" lon="-17.8466300">
        <ele>1770.6</ele>
        <time>2020-11-16T14:29:21Z</time>
      </trkpt>
      <trkpt lat="28.7794400" lon="-17.8466770">
        <ele>1770.0</ele>
        <time>2020-11-16T14:29:22Z</time>
      </trkpt>
      <trkpt lat="28.7794400" lon="-17.8466770">
        <ele>1770.0</ele>
        <time>2020-11-16T14:29:23Z</time>
      </trkpt>
      <trkpt lat="28.7794680" lon="-17.8467370">
        <ele>1769.4</ele>
        <time>2020-11-16T14:29:24Z</time>
      </trkpt>
      <trkpt lat="28.7794680" lon="-17.8467370">
        <ele>1769.4</ele>
        <time>2020-11-16T14:29:25Z</time>
      </trkpt>
      <trkpt lat="28.7794900" lon="-17.8468230">
        <ele>1768.6</ele>
        <time>2020-11-16T14:29:26Z</time>
      </trkpt>
      <trkpt lat="28.7794900" lon="-17.8468230">
        <ele>1768.6</ele>
        <time>2020-11-16T14:29:27Z</time>
      </trkpt>
      <trkpt lat="28.7795320" lon="-17.8469130">
        <ele>1767.7</ele>
        <time>2020-11-16T14:29:28Z</time>
      </trkpt>
      <trkpt lat="28.7795320" lon="-17.8469130">
        <ele>1767.7</ele>
        <time>2020-11-16T14:29:29Z</time>
      </trkpt>
      <trkpt lat="28.7795770" lon="-17.8469970">
        <ele>1766.8</ele>
        <time>2020-11-16T14:29:30Z</time>
      </trkpt>
      <trkpt lat="28.7795770" lon="-17.8469970">
        <ele>1766.8</ele>
        <time>2020-11-16T14:29:31Z</time>
      </trkpt>
      <trkpt lat="28.7796230" lon="-17.8470820">
        <ele>1765.9</ele>
        <time>2020-11-16T14:29:32Z</time>
      </trkpt>
      <trkpt lat="28.7796230" lon="-17.8470820">
        <ele>1765.9</ele>
        <time>2020-11-16T14:29:33Z</time>
      </trkpt>
      <trkpt lat="28.7796850" lon="-17.8471630">
        <ele>1765.0</ele>
        <time>2020-11-16T14:29:34Z</time>
      </trkpt>
      <trkpt lat="28.7796850" lon="-17.8471630">
        <ele>1765.0</ele>
        <time>2020-11-16T14:29:35Z</time>
      </trkpt>
      <trkpt lat="28.7797320" lon="-17.8472270">
        <ele>1764.2</ele>
        <time>2020-11-16T14:29:36Z</time>
      </trkpt>
      <trkpt lat="28.7797320" lon="-17.8472270">
        <ele>1764.2</ele>
        <time>2020-11-16T14:29:37Z</time>
      </trkpt>
      <trkpt lat="28.7797780" lon="-17.8472970">
        <ele>1763.5</ele>
        <time>2020-11-16T14:29:38Z</time>
      </trkpt>
      <trkpt lat="28.7797780" lon="-17.8472970">
        <ele>1763.5</ele>
        <time>2020-11-16T14:29:39Z</time>
      </trkpt>
      <trkpt lat="28.7798280" lon="-17.8473670">
        <ele>1762.7</ele>
        <time>2020-11-16T14:29:40Z</time>
      </trkpt>
      <trkpt lat="28.7798280" lon="-17.8473670">
        <ele>1762.7</ele>
        <time>2020-11-16T14:29:41Z</time>
      </trkpt>
      <trkpt lat="28.7798730" lon="-17.8474400">
        <ele>1761.9</ele>
        <time>2020-11-16T14:29:42Z</time>
      </trkpt>
      <trkpt lat="28.7798730" lon="-17.8474400">
        <ele>1761.9</ele>
        <time>2020-11-16T14:29:43Z</time>
      </trkpt>
      <trkpt lat="28.7798980" lon="-17.8475220">
        <ele>1761.1</ele>
        <time>2020-11-16T14:29:44Z</time>
      </trkpt>
      <trkpt lat="28.7798980" lon="-17.8475220">
        <ele>1761.1</ele>
        <time>2020-11-16T14:29:45Z</time>
      </trkpt>
      <trkpt lat="28.7799250" lon="-17.8476130">
        <ele>1760.3</ele>
        <time>2020-11-16T14:29:46Z</time>
      </trkpt>
      <trkpt lat="28.7799250" lon="-17.8476130">
        <ele>1760.3</ele>
        <time>2020-11-16T14:29:47Z</time>
      </trkpt>
      <trkpt lat="28.7799180" lon="-17.8477170">
        <ele>1759.3</ele>
        <time>2020-11-16T14:29:48Z</time>
      </trkpt>
      <trkpt lat="28.7799180" lon="-17.8477170">
        <ele>1759.3</ele>
        <time>2020-11-16T14:29:49Z</time>
      </trkpt>
      <trkpt lat="28.7798830" lon="-17.8478170">
        <ele>1758.4</ele>
        <time>2020-11-16T14:29:50Z</time>
      </trkpt>
      <trkpt lat="28.7798830" lon="-17.8478170">
        <ele>1758.4</ele>
        <time>2020-11-16T14:29:51Z</time>
      </trkpt>
      <trkpt lat="28.7798450" lon="-17.8479000">
        <ele>1757.6</ele>
        <time>2020-11-16T14:29:52Z</time>
      </trkpt>
      <trkpt lat="28.7798450" lon="-17.8479000">
        <ele>1757.6</ele>
        <time>2020-11-16T14:29:53Z</time>
      </trkpt>
      <trkpt lat="28.7798130" lon="-17.8479820">
        <ele>1756.8</ele>
        <time>2020-11-16T14:29:54Z</time>
      </trkpt>
      <trkpt lat="28.7798130" lon="-17.8479820">
        <ele>1756.8</ele>
        <time>2020-11-16T14:29:55Z</time>
      </trkpt>
      <trkpt lat="28.7797570" lon="-17.8480830">
        <ele>1755.7</ele>
        <time>2020-11-16T14:29:56Z</time>
      </trkpt>
      <trkpt lat="28.7797570" lon="-17.8480830">
        <ele>1755.7</ele>
        <time>2020-11-16T14:29:57Z</time>
      </trkpt>
      <trkpt lat="28.7797180" lon="-17.8481270">
        <ele>1755.2</ele>
        <time>2020-11-16T14:29:58Z</time>
      </trkpt>
      <trkpt lat="28.7797180" lon="-17.8481270">
        <ele>1755.2</ele>
        <time>2020-11-16T14:29:59Z</time>
      </trkpt>
      <trkpt lat="28.7796980" lon="-17.8481570">
        <ele>1754.8</ele>
        <time>2020-11-16T14:30:00Z</time>
      </trkpt>
      <trkpt lat="28.7796980" lon="-17.8481570">
        <ele>1754.8</ele>
        <time>2020-11-16T14:30:01Z</time>
      </trkpt>
      <trkpt lat="28.7796870" lon="-17.8481770">
        <ele>1754.6</ele>
        <time>2020-11-16T14:30:02Z</time>
      </trkpt>
      <trkpt lat="28.7796870" lon="-17.8481770">
        <ele>1754.6</ele>
        <time>2020-11-16T14:30:03Z</time>
      </trkpt>
      <trkpt lat="28.7796630" lon="-17.8482380">
        <ele>1754.0</ele>
        <time>2020-11-16T14:30:04Z</time>
      </trkpt>
      <trkpt lat="28.7796630" lon="-17.8482380">
        <ele>1754.0</ele>
        <time>2020-11-16T14:30:05Z</time>
      </trkpt>
      <trkpt lat="28.7796470" lon="-17.8483170">
        <ele>1753.3</ele>
        <time>2020-11-16T14:30:06Z</time>
      </trkpt>
      <trkpt lat="28.7796470" lon="-17.8483170">
        <ele>1753.3</ele>
        <time>2020-11-16T14:30:07Z</time>
      </trkpt>
      <trkpt lat="28.7796370" lon="-17.8483900">
        <ele>1752.7</ele>
        <time>2020-11-16T14:30:08Z</time>
      </trkpt>
      <trkpt lat="28.7796370" lon="-17.8483900">
        <ele>1752.7</ele>
        <time>2020-11-16T14:30:09Z</time>
      </trkpt>
      <trkpt lat="28.7796870" lon="-17.8484200">
        <ele>1752.1</ele>
        <time>2020-11-16T14:30:10Z</time>
      </trkpt>
      <trkpt lat="28.7796870" lon="-17.8484200">
        <ele>1752.1</ele>
        <time>2020-11-16T14:30:11Z</time>
      </trkpt>
      <trkpt lat="28.7797350" lon="-17.8484220">
        <ele>1751.6</ele>
        <time>2020-11-16T14:30:12Z</time>
      </trkpt>
      <trkpt lat="28.7797550" lon="-17.8484130">
        <ele>1751.4</ele>
        <time>2020-11-16T14:30:13Z</time>
      </trkpt>
      <trkpt lat="28.7797550" lon="-17.8484130">
        <ele>1751.4</ele>
        <time>2020-11-16T14:30:14Z</time>
      </trkpt>
      <trkpt lat="28.7797880" lon="-17.8483750">
        <ele>1750.9</ele>
        <time>2020-11-16T14:30:15Z</time>
      </trkpt>
      <trkpt lat="28.7797880" lon="-17.8483750">
        <ele>1750.9</ele>
        <time>2020-11-16T14:30:16Z</time>
      </trkpt>
      <trkpt lat="28.7798130" lon="-17.8483280">
        <ele>1750.4</ele>
        <time>2020-11-16T14:30:17Z</time>
      </trkpt>
      <trkpt lat="28.7798130" lon="-17.8483280">
        <ele>1750.4</ele>
        <time>2020-11-16T14:30:18Z</time>
      </trkpt>
      <trkpt lat="28.7798320" lon="-17.8482880">
        <ele>1750.0</ele>
        <time>2020-11-16T14:30:19Z</time>
      </trkpt>
      <trkpt lat="28.7798350" lon="-17.8482770">
        <ele>1749.9</ele>
        <time>2020-11-16T14:30:20Z</time>
      </trkpt>
      <trkpt lat="28.7798350" lon="-17.8482770">
        <ele>1749.9</ele>
        <time>2020-11-16T14:30:21Z</time>
      </trkpt>
      <trkpt lat="28.7798520" lon="-17.8482520">
        <ele>1749.6</ele>
        <time>2020-11-16T14:30:22Z</time>
      </trkpt>
      <trkpt lat="28.7798520" lon="-17.8482520">
        <ele>1749.6</ele>
        <time>2020-11-16T14:30:23Z</time>
      </trkpt>
      <trkpt lat="28.7798820" lon="-17.8482080">
        <ele>1749.1</ele>
        <time>2020-11-16T14:30:24Z</time>
      </trkpt>
      <trkpt lat="28.7798820" lon="-17.8482080">
        <ele>1749.1</ele>
        <time>2020-11-16T14:30:25Z</time>
      </trkpt>
      <trkpt lat="28.7799350" lon="-17.8481600">
        <ele>1748.5</ele>
        <time>2020-11-16T14:30:26Z</time>
      </trkpt>
      <trkpt lat="28.7799350" lon="-17.8481600">
        <ele>1748.5</ele>
        <time>2020-11-16T14:30:27Z</time>
      </trkpt>
      <trkpt lat="28.7799750" lon="-17.8480950">
        <ele>1747.8</ele>
        <time>2020-11-16T14:30:28Z</time>
      </trkpt>
      <trkpt lat="28.7799750" lon="-17.8480950">
        <ele>1747.8</ele>
        <time>2020-11-16T14:30:29Z</time>
      </trkpt>
      <trkpt lat="28.7800300" lon="-17.8480200">
        <ele>1746.9</ele>
        <time>2020-11-16T14:30:30Z</time>
      </trkpt>
      <trkpt lat="28.7800300" lon="-17.8480200">
        <ele>1746.9</ele>
        <time>2020-11-16T14:30:31Z</time>
      </trkpt>
      <trkpt lat="28.7800620" lon="-17.8479420">
        <ele>1746.1</ele>
        <time>2020-11-16T14:30:32Z</time>
      </trkpt>
      <trkpt lat="28.7800700" lon="-17.8478980">
        <ele>1745.7</ele>
        <time>2020-11-16T14:30:33Z</time>
      </trkpt>
      <trkpt lat="28.7800700" lon="-17.8478980">
        <ele>1745.7</ele>
        <time>2020-11-16T14:30:34Z</time>
      </trkpt>
      <trkpt lat="28.7801080" lon="-17.8478150">
        <ele>1744.9</ele>
        <time>2020-11-16T14:30:35Z</time>
      </trkpt>
      <trkpt lat="28.7801080" lon="-17.8478150">
        <ele>1744.9</ele>
        <time>2020-11-16T14:30:36Z</time>
      </trkpt>
      <trkpt lat="28.7801470" lon="-17.8477280">
        <ele>1744.0</ele>
        <time>2020-11-16T14:30:37Z</time>
      </trkpt>
      <trkpt lat="28.7801470" lon="-17.8477280">
        <ele>1744.0</ele>
        <time>2020-11-16T14:30:38Z</time>
      </trkpt>
      <trkpt lat="28.7801980" lon="-17.8476330">
        <ele>1743.1</ele>
        <time>2020-11-16T14:30:39Z</time>
      </trkpt>
      <trkpt lat="28.7801980" lon="-17.8476330">
        <ele>1743.1</ele>
        <time>2020-11-16T14:30:40Z</time>
      </trkpt>
      <trkpt lat="28.7802470" lon="-17.8475500">
        <ele>1742.2</ele>
        <time>2020-11-16T14:30:41Z</time>
      </trkpt>
      <trkpt lat="28.7802470" lon="-17.8475500">
        <ele>1742.2</ele>
        <time>2020-11-16T14:30:42Z</time>
      </trkpt>
      <trkpt lat="28.7803070" lon="-17.8474870">
        <ele>1741.4</ele>
        <time>2020-11-16T14:30:43Z</time>
      </trkpt>
      <trkpt lat="28.7803070" lon="-17.8474870">
        <ele>1741.4</ele>
        <time>2020-11-16T14:30:44Z</time>
      </trkpt>
      <trkpt lat="28.7803720" lon="-17.8474320">
        <ele>1740.5</ele>
        <time>2020-11-16T14:30:45Z</time>
      </trkpt>
      <trkpt lat="28.7803720" lon="-17.8474320">
        <ele>1740.5</ele>
        <time>2020-11-16T14:30:46Z</time>
      </trkpt>
      <trkpt lat="28.7804520" lon="-17.8473630">
        <ele>1739.5</ele>
        <time>2020-11-16T14:30:47Z</time>
      </trkpt>
      <trkpt lat="28.7804520" lon="-17.8473630">
        <ele>1739.5</ele>
        <time>2020-11-16T14:30:48Z</time>
      </trkpt>
      <trkpt lat="28.7805180" lon="-17.8472770">
        <ele>1738.5</ele>
        <time>2020-11-16T14:30:49Z</time>
      </trkpt>
      <trkpt lat="28.7805180" lon="-17.8472770">
        <ele>1738.5</ele>
        <time>2020-11-16T14:30:50Z</time>
      </trkpt>
      <trkpt lat="28.7805630" lon="-17.8471800">
        <ele>1737.5</ele>
        <time>2020-11-16T14:30:51Z</time>
      </trkpt>
      <trkpt lat="28.7805630" lon="-17.8471800">
        <ele>1737.5</ele>
        <time>2020-11-16T14:30:52Z</time>
      </trkpt>
      <trkpt lat="28.7805600" lon="-17.8470820">
        <ele>1736.7</ele>
        <time>2020-11-16T14:30:53Z</time>
      </trkpt>
      <trkpt lat="28.7805480" lon="-17.8470370">
        <ele>1736.3</ele>
        <time>2020-11-16T14:30:54Z</time>
      </trkpt>
      <trkpt lat="28.7805480" lon="-17.8470370">
        <ele>1736.3</ele>
        <time>2020-11-16T14:30:55Z</time>
      </trkpt>
      <trkpt lat="28.7805080" lon="-17.8469500">
        <ele>1735.1</ele>
        <time>2020-11-16T14:30:56Z</time>
      </trkpt>
      <trkpt lat="28.7805080" lon="-17.8469500">
        <ele>1735.1</ele>
        <time>2020-11-16T14:30:57Z</time>
      </trkpt>
      <trkpt lat="28.7804600" lon="-17.8468750">
        <ele>1734.6</ele>
        <time>2020-11-16T14:30:58Z</time>
      </trkpt>
      <trkpt lat="28.7804600" lon="-17.8468750">
        <ele>1734.6</ele>
        <time>2020-11-16T14:30:59Z</time>
      </trkpt>
      <trkpt lat="28.7804070" lon="-17.8468000">
        <ele>1734.0</ele>
        <time>2020-11-16T14:31:00Z</time>
      </trkpt>
      <trkpt lat="28.7804070" lon="-17.8468000">
        <ele>1734.0</ele>
        <time>2020-11-16T14:31:01Z</time>
      </trkpt>
      <trkpt lat="28.7803700" lon="-17.8467230">
        <ele>1733.4</ele>
        <time>2020-11-16T14:31:02Z</time>
      </trkpt>
      <trkpt lat="28.7803700" lon="-17.8467230">
        <ele>1733.4</ele>
        <time>2020-11-16T14:31:03Z</time>
      </trkpt>
      <trkpt lat="28.7803320" lon="-17.8466280">
        <ele>1732.8</ele>
        <time>2020-11-16T14:31:04Z</time>
      </trkpt>
      <trkpt lat="28.7803320" lon="-17.8466280">
        <ele>1732.8</ele>
        <time>2020-11-16T14:31:05Z</time>
      </trkpt>
      <trkpt lat="28.7803080" lon="-17.8465270">
        <ele>1732.1</ele>
        <time>2020-11-16T14:31:06Z</time>
      </trkpt>
      <trkpt lat="28.7802900" lon="-17.8464730">
        <ele>1731.8</ele>
        <time>2020-11-16T14:31:07Z</time>
      </trkpt>
      <trkpt lat="28.7802900" lon="-17.8464730">
        <ele>1731.8</ele>
        <time>2020-11-16T14:31:08Z</time>
      </trkpt>
      <trkpt lat="28.7802350" lon="-17.8463930">
        <ele>1731.1</ele>
        <time>2020-11-16T14:31:09Z</time>
      </trkpt>
      <trkpt lat="28.7802030" lon="-17.8463650">
        <ele>1730.8</ele>
        <time>2020-11-16T14:31:10Z</time>
      </trkpt>
      <trkpt lat="28.7802030" lon="-17.8463650">
        <ele>1730.8</ele>
        <time>2020-11-16T14:31:11Z</time>
      </trkpt>
      <trkpt lat="28.7801520" lon="-17.8463130">
        <ele>1730.4</ele>
        <time>2020-11-16T14:31:12Z</time>
      </trkpt>
      <trkpt lat="28.7801520" lon="-17.8463130">
        <ele>1730.4</ele>
        <time>2020-11-16T14:31:13Z</time>
      </trkpt>
      <trkpt lat="28.7801030" lon="-17.8462650">
        <ele>1729.9</ele>
        <time>2020-11-16T14:31:14Z</time>
      </trkpt>
      <trkpt lat="28.7801030" lon="-17.8462650">
        <ele>1729.9</ele>
        <time>2020-11-16T14:31:15Z</time>
      </trkpt>
      <trkpt lat="28.7800780" lon="-17.8462030">
        <ele>1729.5</ele>
        <time>2020-11-16T14:31:16Z</time>
      </trkpt>
      <trkpt lat="28.7800780" lon="-17.8462030">
        <ele>1729.5</ele>
        <time>2020-11-16T14:31:17Z</time>
      </trkpt>
      <trkpt lat="28.7800700" lon="-17.8461400">
        <ele>1729.1</ele>
        <time>2020-11-16T14:31:18Z</time>
      </trkpt>
      <trkpt lat="28.7800700" lon="-17.8461400">
        <ele>1729.1</ele>
        <time>2020-11-16T14:31:19Z</time>
      </trkpt>
      <trkpt lat="28.7800820" lon="-17.8460830">
        <ele>1728.7</ele>
        <time>2020-11-16T14:31:20Z</time>
      </trkpt>
      <trkpt lat="28.7800820" lon="-17.8460830">
        <ele>1728.7</ele>
        <time>2020-11-16T14:31:21Z</time>
      </trkpt>
      <trkpt lat="28.7800850" lon="-17.8460320">
        <ele>1728.4</ele>
        <time>2020-11-16T14:31:22Z</time>
      </trkpt>
      <trkpt lat="28.7800850" lon="-17.8460320">
        <ele>1728.4</ele>
        <time>2020-11-16T14:31:23Z</time>
      </trkpt>
      <trkpt lat="28.7801020" lon="-17.8459630">
        <ele>1727.9</ele>
        <time>2020-11-16T14:31:24Z</time>
      </trkpt>
      <trkpt lat="28.7801020" lon="-17.8459630">
        <ele>1727.9</ele>
        <time>2020-11-16T14:31:25Z</time>
      </trkpt>
      <trkpt lat="28.7801050" lon="-17.8458930">
        <ele>1727.5</ele>
        <time>2020-11-16T14:31:26Z</time>
      </trkpt>
      <trkpt lat="28.7801050" lon="-17.8458930">
        <ele>1727.5</ele>
        <time>2020-11-16T14:31:27Z</time>
      </trkpt>
      <trkpt lat="28.7800800" lon="-17.8458370">
        <ele>1727.1</ele>
        <time>2020-11-16T14:31:28Z</time>
      </trkpt>
      <trkpt lat="28.7800800" lon="-17.8458370">
        <ele>1727.1</ele>
        <time>2020-11-16T14:31:29Z</time>
      </trkpt>
      <trkpt lat="28.7800300" lon="-17.8457870">
        <ele>1726.6</ele>
        <time>2020-11-16T14:31:30Z</time>
      </trkpt>
      <trkpt lat="28.7799880" lon="-17.8457700">
        <ele>1726.3</ele>
        <time>2020-11-16T14:31:31Z</time>
      </trkpt>
      <trkpt lat="28.7799880" lon="-17.8457700">
        <ele>1726.3</ele>
        <time>2020-11-16T14:31:32Z</time>
      </trkpt>
      <trkpt lat="28.7799230" lon="-17.8457400">
        <ele>1725.8</ele>
        <time>2020-11-16T14:31:33Z</time>
      </trkpt>
      <trkpt lat="28.7799230" lon="-17.8457400">
        <ele>1725.8</ele>
        <time>2020-11-16T14:31:34Z</time>
      </trkpt>
      <trkpt lat="28.7798650" lon="-17.8457050">
        <ele>1725.4</ele>
        <time>2020-11-16T14:31:35Z</time>
      </trkpt>
      <trkpt lat="28.7798650" lon="-17.8457050">
        <ele>1725.4</ele>
        <time>2020-11-16T14:31:36Z</time>
      </trkpt>
      <trkpt lat="28.7798020" lon="-17.8456770">
        <ele>1724.9</ele>
        <time>2020-11-16T14:31:37Z</time>
      </trkpt>
      <trkpt lat="28.7798020" lon="-17.8456770">
        <ele>1724.9</ele>
        <time>2020-11-16T14:31:38Z</time>
      </trkpt>
      <trkpt lat="28.7797480" lon="-17.8456370">
        <ele>1724.4</ele>
        <time>2020-11-16T14:31:39Z</time>
      </trkpt>
      <trkpt lat="28.7797480" lon="-17.8456370">
        <ele>1724.4</ele>
        <time>2020-11-16T14:31:40Z</time>
      </trkpt>
      <trkpt lat="28.7796820" lon="-17.8455980">
        <ele>1723.9</ele>
        <time>2020-11-16T14:31:41Z</time>
      </trkpt>
      <trkpt lat="28.7796820" lon="-17.8455980">
        <ele>1723.9</ele>
        <time>2020-11-16T14:31:42Z</time>
      </trkpt>
      <trkpt lat="28.7796170" lon="-17.8455650">
        <ele>1723.4</ele>
        <time>2020-11-16T14:31:43Z</time>
      </trkpt>
      <trkpt lat="28.7795870" lon="-17.8455520">
        <ele>1723.2</ele>
        <time>2020-11-16T14:31:44Z</time>
      </trkpt>
      <trkpt lat="28.7795870" lon="-17.8455520">
        <ele>1723.2</ele>
        <time>2020-11-16T14:31:45Z</time>
      </trkpt>
      <trkpt lat="28.7795200" lon="-17.8455250">
        <ele>1722.7</ele>
        <time>2020-11-16T14:31:46Z</time>
      </trkpt>
      <trkpt lat="28.7795200" lon="-17.8455250">
        <ele>1722.7</ele>
        <time>2020-11-16T14:31:47Z</time>
      </trkpt>
      <trkpt lat="28.7794580" lon="-17.8454980">
        <ele>1722.2</ele>
        <time>2020-11-16T14:31:48Z</time>
      </trkpt>
      <trkpt lat="28.7794580" lon="-17.8454980">
        <ele>1722.2</ele>
        <time>2020-11-16T14:31:49Z</time>
      </trkpt>
      <trkpt lat="28.7794150" lon="-17.8454580">
        <ele>1721.8</ele>
        <time>2020-11-16T14:31:50Z</time>
      </trkpt>
      <trkpt lat="28.7794150" lon="-17.8454580">
        <ele>1721.8</ele>
        <time>2020-11-16T14:31:51Z</time>
      </trkpt>
      <trkpt lat="28.7793730" lon="-17.8454050">
        <ele>1721.4</ele>
        <time>2020-11-16T14:31:52Z</time>
      </trkpt>
      <trkpt lat="28.7793730" lon="-17.8454050">
        <ele>1721.4</ele>
        <time>2020-11-16T14:31:53Z</time>
      </trkpt>
      <trkpt lat="28.7793420" lon="-17.8453430">
        <ele>1720.9</ele>
        <time>2020-11-16T14:31:54Z</time>
      </trkpt>
      <trkpt lat="28.7793420" lon="-17.8453430">
        <ele>1720.9</ele>
        <time>2020-11-16T14:31:55Z</time>
      </trkpt>
      <trkpt lat="28.7793130" lon="-17.8452820">
        <ele>1720.5</ele>
        <time>2020-11-16T14:31:56Z</time>
      </trkpt>
      <trkpt lat="28.7793130" lon="-17.8452820">
        <ele>1720.5</ele>
        <time>2020-11-16T14:31:57Z</time>
      </trkpt>
      <trkpt lat="28.7792820" lon="-17.8452150">
        <ele>1720.0</ele>
        <time>2020-11-16T14:31:58Z</time>
      </trkpt>
      <trkpt lat="28.7792820" lon="-17.8452150">
        <ele>1720.0</ele>
        <time>2020-11-16T14:31:59Z</time>
      </trkpt>
      <trkpt lat="28.7792330" lon="-17.8451330">
        <ele>1719.4</ele>
        <time>2020-11-16T14:32:00Z</time>
      </trkpt>
      <trkpt lat="28.7792330" lon="-17.8451330">
        <ele>1719.4</ele>
        <time>2020-11-16T14:32:01Z</time>
      </trkpt>
      <trkpt lat="28.7791870" lon="-17.8450680">
        <ele>1718.9</ele>
        <time>2020-11-16T14:32:02Z</time>
      </trkpt>
      <trkpt lat="28.7791870" lon="-17.8450680">
        <ele>1718.9</ele>
        <time>2020-11-16T14:32:03Z</time>
      </trkpt>
      <trkpt lat="28.7791430" lon="-17.8450230">
        <ele>1718.5</ele>
        <time>2020-11-16T14:32:04Z</time>
      </trkpt>
      <trkpt lat="28.7791430" lon="-17.8450230">
        <ele>1718.5</ele>
        <time>2020-11-16T14:32:05Z</time>
      </trkpt>
      <trkpt lat="28.7791000" lon="-17.8449730">
        <ele>1718.0</ele>
        <time>2020-11-16T14:32:06Z</time>
      </trkpt>
      <trkpt lat="28.7791000" lon="-17.8449730">
        <ele>1718.0</ele>
        <time>2020-11-16T14:32:07Z</time>
      </trkpt>
      <trkpt lat="28.7790670" lon="-17.8449170">
        <ele>1717.6</ele>
        <time>2020-11-16T14:32:08Z</time>
      </trkpt>
      <trkpt lat="28.7790670" lon="-17.8449170">
        <ele>1717.6</ele>
        <time>2020-11-16T14:32:09Z</time>
      </trkpt>
      <trkpt lat="28.7790430" lon="-17.8448570">
        <ele>1717.2</ele>
        <time>2020-11-16T14:32:10Z</time>
      </trkpt>
      <trkpt lat="28.7790430" lon="-17.8448570">
        <ele>1717.2</ele>
        <time>2020-11-16T14:32:11Z</time>
      </trkpt>
      <trkpt lat="28.7790200" lon="-17.8448030">
        <ele>1716.8</ele>
        <time>2020-11-16T14:32:12Z</time>
      </trkpt>
      <trkpt lat="28.7790200" lon="-17.8448030">
        <ele>1716.8</ele>
        <time>2020-11-16T14:32:13Z</time>
      </trkpt>
      <trkpt lat="28.7789900" lon="-17.8447530">
        <ele>1716.4</ele>
        <time>2020-11-16T14:32:14Z</time>
      </trkpt>
      <trkpt lat="28.7789900" lon="-17.8447530">
        <ele>1716.4</ele>
        <time>2020-11-16T14:32:15Z</time>
      </trkpt>
      <trkpt lat="28.7789570" lon="-17.8447020">
        <ele>1716.0</ele>
        <time>2020-11-16T14:32:16Z</time>
      </trkpt>
      <trkpt lat="28.7789570" lon="-17.8447020">
        <ele>1716.0</ele>
        <time>2020-11-16T14:32:17Z</time>
      </trkpt>
      <trkpt lat="28.7789150" lon="-17.8446500">
        <ele>1715.6</ele>
        <time>2020-11-16T14:32:18Z</time>
      </trkpt>
      <trkpt lat="28.7789150" lon="-17.8446500">
        <ele>1715.6</ele>
        <time>2020-11-16T14:32:19Z</time>
      </trkpt>
      <trkpt lat="28.7788680" lon="-17.8446120">
        <ele>1715.2</ele>
        <time>2020-11-16T14:32:20Z</time>
      </trkpt>
      <trkpt lat="28.7788680" lon="-17.8446120">
        <ele>1715.2</ele>
        <time>2020-11-16T14:32:21Z</time>
      </trkpt>
      <trkpt lat="28.7788250" lon="-17.8445830">
        <ele>1714.8</ele>
        <time>2020-11-16T14:32:22Z</time>
      </trkpt>
      <trkpt lat="28.7788250" lon="-17.8445830">
        <ele>1714.8</ele>
        <time>2020-11-16T14:32:23Z</time>
      </trkpt>
      <trkpt lat="28.7787900" lon="-17.8445550">
        <ele>1714.5</ele>
        <time>2020-11-16T14:32:24Z</time>
      </trkpt>
      <trkpt lat="28.7787900" lon="-17.8445550">
        <ele>1714.5</ele>
        <time>2020-11-16T14:32:25Z</time>
      </trkpt>
      <trkpt lat="28.7787330" lon="-17.8445380">
        <ele>1714.1</ele>
        <time>2020-11-16T14:32:26Z</time>
      </trkpt>
      <trkpt lat="28.7787330" lon="-17.8445380">
        <ele>1713.9</ele>
        <time>2020-11-16T14:32:27Z</time>
      </trkpt>
      <trkpt lat="28.7787180" lon="-17.8444880">
        <ele>1711.9</ele>
        <time>2020-11-16T14:32:28Z</time>
      </trkpt>
      <trkpt lat="28.7787180" lon="-17.8444880">
        <ele>1711.7</ele>
        <time>2020-11-16T14:32:29Z</time>
      </trkpt>
      <trkpt lat="28.7787430" lon="-17.8444470">
        <ele>1706.7</ele>
        <time>2020-11-16T14:32:30Z</time>
      </trkpt>
      <trkpt lat="28.7787430" lon="-17.8444470">
        <ele>1706.5</ele>
        <time>2020-11-16T14:32:31Z</time>
      </trkpt>
      <trkpt lat="28.7787730" lon="-17.8444480">
        <ele>1704.7</ele>
        <time>2020-11-16T14:32:32Z</time>
      </trkpt>
      <trkpt lat="28.7787730" lon="-17.8444480">
        <ele>1704.5</ele>
        <time>2020-11-16T14:32:33Z</time>
      </trkpt>
      <trkpt lat="28.7788650" lon="-17.8444780">
        <ele>1703.8</ele>
        <time>2020-11-16T14:32:34Z</time>
      </trkpt>
      <trkpt lat="28.7788650" lon="-17.8444780">
        <ele>1703.6</ele>
        <time>2020-11-16T14:32:35Z</time>
      </trkpt>
      <trkpt lat="28.7789150" lon="-17.8445130">
        <ele>1702.8</ele>
        <time>2020-11-16T14:32:36Z</time>
      </trkpt>
      <trkpt lat="28.7789370" lon="-17.8445350">
        <ele>1702.6</ele>
        <time>2020-11-16T14:32:37Z</time>
      </trkpt>
      <trkpt lat="28.7789370" lon="-17.8445350">
        <ele>1702.4</ele>
        <time>2020-11-16T14:32:38Z</time>
      </trkpt>
      <trkpt lat="28.7789930" lon="-17.8445620">
        <ele>1701.5</ele>
        <time>2020-11-16T14:32:39Z</time>
      </trkpt>
      <trkpt lat="28.7789930" lon="-17.8445620">
        <ele>1701.3</ele>
        <time>2020-11-16T14:32:40Z</time>
      </trkpt>
      <trkpt lat="28.7790450" lon="-17.8446300">
        <ele>1707.1</ele>
        <time>2020-11-16T14:32:41Z</time>
      </trkpt>
      <trkpt lat="28.7790450" lon="-17.8446300">
        <ele>1706.9</ele>
        <time>2020-11-16T14:32:42Z</time>
      </trkpt>
      <trkpt lat="28.7790970" lon="-17.8447170">
        <ele>1710.6</ele>
        <time>2020-11-16T14:32:43Z</time>
      </trkpt>
      <trkpt lat="28.7790970" lon="-17.8447170">
        <ele>1710.4</ele>
        <time>2020-11-16T14:32:44Z</time>
      </trkpt>
      <trkpt lat="28.7791450" lon="-17.8447770">
        <ele>1712.0</ele>
        <time>2020-11-16T14:32:45Z</time>
      </trkpt>
      <trkpt lat="28.7791450" lon="-17.8447770">
        <ele>1711.8</ele>
        <time>2020-11-16T14:32:46Z</time>
      </trkpt>
      <trkpt lat="28.7791980" lon="-17.8448270">
        <ele>1713.0</ele>
        <time>2020-11-16T14:32:47Z</time>
      </trkpt>
      <trkpt lat="28.7791980" lon="-17.8448270">
        <ele>1712.9</ele>
        <time>2020-11-16T14:32:48Z</time>
      </trkpt>
      <trkpt lat="28.7792470" lon="-17.8448620">
        <ele>1711.4</ele>
        <time>2020-11-16T14:32:49Z</time>
      </trkpt>
      <trkpt lat="28.7792470" lon="-17.8448620">
        <ele>1711.2</ele>
        <time>2020-11-16T14:32:50Z</time>
      </trkpt>
      <trkpt lat="28.7792970" lon="-17.8448800">
        <ele>1708.4</ele>
        <time>2020-11-16T14:32:51Z</time>
      </trkpt>
      <trkpt lat="28.7792970" lon="-17.8448800">
        <ele>1708.4</ele>
        <time>2020-11-16T14:32:52Z</time>
      </trkpt>
      <trkpt lat="28.7793150" lon="-17.8449200">
        <ele>1708.1</ele>
        <time>2020-11-16T14:32:53Z</time>
      </trkpt>
      <trkpt lat="28.7793150" lon="-17.8449200">
        <ele>1708.1</ele>
        <time>2020-11-16T14:32:54Z</time>
      </trkpt>
      <trkpt lat="28.7793430" lon="-17.8449470">
        <ele>1707.9</ele>
        <time>2020-11-16T14:32:55Z</time>
      </trkpt>
      <trkpt lat="28.7793430" lon="-17.8449470">
        <ele>1707.9</ele>
        <time>2020-11-16T14:32:56Z</time>
      </trkpt>
      <trkpt lat="28.7793800" lon="-17.8449730">
        <ele>1707.5</ele>
        <time>2020-11-16T14:32:57Z</time>
      </trkpt>
      <trkpt lat="28.7793800" lon="-17.8449730">
        <ele>1707.5</ele>
        <time>2020-11-16T14:32:58Z</time>
      </trkpt>
      <trkpt lat="28.7794120" lon="-17.8450130">
        <ele>1707.2</ele>
        <time>2020-11-16T14:32:59Z</time>
      </trkpt>
      <trkpt lat="28.7794120" lon="-17.8450130">
        <ele>1707.2</ele>
        <time>2020-11-16T14:33:00Z</time>
      </trkpt>
      <trkpt lat="28.7794530" lon="-17.8450530">
        <ele>1706.8</ele>
        <time>2020-11-16T14:33:01Z</time>
      </trkpt>
      <trkpt lat="28.7794770" lon="-17.8450720">
        <ele>1706.6</ele>
        <time>2020-11-16T14:33:02Z</time>
      </trkpt>
      <trkpt lat="28.7794770" lon="-17.8450720">
        <ele>1706.6</ele>
        <time>2020-11-16T14:33:03Z</time>
      </trkpt>
      <trkpt lat="28.7795270" lon="-17.8451050">
        <ele>1706.1</ele>
        <time>2020-11-16T14:33:04Z</time>
      </trkpt>
      <trkpt lat="28.7795270" lon="-17.8451050">
        <ele>1706.1</ele>
        <time>2020-11-16T14:33:05Z</time>
      </trkpt>
      <trkpt lat="28.7795620" lon="-17.8451370">
        <ele>1705.8</ele>
        <time>2020-11-16T14:33:06Z</time>
      </trkpt>
      <trkpt lat="28.7795620" lon="-17.8451370">
        <ele>1705.8</ele>
        <time>2020-11-16T14:33:07Z</time>
      </trkpt>
      <trkpt lat="28.7796200" lon="-17.8451700">
        <ele>1705.3</ele>
        <time>2020-11-16T14:33:08Z</time>
      </trkpt>
      <trkpt lat="28.7796200" lon="-17.8451700">
        <ele>1705.3</ele>
        <time>2020-11-16T14:33:09Z</time>
      </trkpt>
      <trkpt lat="28.7796700" lon="-17.8451930">
        <ele>1704.9</ele>
        <time>2020-11-16T14:33:10Z</time>
      </trkpt>
      <trkpt lat="28.7796700" lon="-17.8451930">
        <ele>1704.9</ele>
        <time>2020-11-16T14:33:11Z</time>
      </trkpt>
      <trkpt lat="28.7797180" lon="-17.8452350">
        <ele>1704.5</ele>
        <time>2020-11-16T14:33:12Z</time>
      </trkpt>
      <trkpt lat="28.7797180" lon="-17.8452350">
        <ele>1704.5</ele>
        <time>2020-11-16T14:33:13Z</time>
      </trkpt>
      <trkpt lat="28.7797670" lon="-17.8452730">
        <ele>1704.0</ele>
        <time>2020-11-16T14:33:14Z</time>
      </trkpt>
      <trkpt lat="28.7797670" lon="-17.8452730">
        <ele>1704.0</ele>
        <time>2020-11-16T14:33:15Z</time>
      </trkpt>
      <trkpt lat="28.7798230" lon="-17.8452920">
        <ele>1703.6</ele>
        <time>2020-11-16T14:33:16Z</time>
      </trkpt>
      <trkpt lat="28.7798230" lon="-17.8452920">
        <ele>1703.6</ele>
        <time>2020-11-16T14:33:17Z</time>
      </trkpt>
      <trkpt lat="28.7798670" lon="-17.8453150">
        <ele>1703.2</ele>
        <time>2020-11-16T14:33:18Z</time>
      </trkpt>
      <trkpt lat="28.7798670" lon="-17.8453150">
        <ele>1703.2</ele>
        <time>2020-11-16T14:33:19Z</time>
      </trkpt>
      <trkpt lat="28.7799170" lon="-17.8453450">
        <ele>1702.8</ele>
        <time>2020-11-16T14:33:20Z</time>
      </trkpt>
      <trkpt lat="28.7799170" lon="-17.8453450">
        <ele>1702.8</ele>
        <time>2020-11-16T14:33:21Z</time>
      </trkpt>
      <trkpt lat="28.7799700" lon="-17.8453520">
        <ele>1702.4</ele>
        <time>2020-11-16T14:33:22Z</time>
      </trkpt>
      <trkpt lat="28.7799700" lon="-17.8453520">
        <ele>1702.4</ele>
        <time>2020-11-16T14:33:23Z</time>
      </trkpt>
      <trkpt lat="28.7800250" lon="-17.8453330">
        <ele>1702.0</ele>
        <time>2020-11-16T14:33:24Z</time>
      </trkpt>
      <trkpt lat="28.7800250" lon="-17.8453330">
        <ele>1702.0</ele>
        <time>2020-11-16T14:33:25Z</time>
      </trkpt>
      <trkpt lat="28.7800850" lon="-17.8453030">
        <ele>1701.5</ele>
        <time>2020-11-16T14:33:26Z</time>
      </trkpt>
      <trkpt lat="28.7800850" lon="-17.8453030">
        <ele>1701.5</ele>
        <time>2020-11-16T14:33:27Z</time>
      </trkpt>
      <trkpt lat="28.7801180" lon="-17.8452900">
        <ele>1701.2</ele>
        <time>2020-11-16T14:33:28Z</time>
      </trkpt>
      <trkpt lat="28.7801180" lon="-17.8452900">
        <ele>1701.2</ele>
        <time>2020-11-16T14:33:29Z</time>
      </trkpt>
      <trkpt lat="28.7801780" lon="-17.8452850">
        <ele>1700.8</ele>
        <time>2020-11-16T14:33:30Z</time>
      </trkpt>
      <trkpt lat="28.7801780" lon="-17.8452850">
        <ele>1700.8</ele>
        <time>2020-11-16T14:33:31Z</time>
      </trkpt>
      <trkpt lat="28.7802380" lon="-17.8452980">
        <ele>1700.3</ele>
        <time>2020-11-16T14:33:32Z</time>
      </trkpt>
      <trkpt lat="28.7802380" lon="-17.8452980">
        <ele>1700.3</ele>
        <time>2020-11-16T14:33:33Z</time>
      </trkpt>
      <trkpt lat="28.7803200" lon="-17.8453350">
        <ele>1699.7</ele>
        <time>2020-11-16T14:33:34Z</time>
      </trkpt>
      <trkpt lat="28.7803200" lon="-17.8453350">
        <ele>1699.7</ele>
        <time>2020-11-16T14:33:35Z</time>
      </trkpt>
      <trkpt lat="28.7803850" lon="-17.8453820">
        <ele>1699.1</ele>
        <time>2020-11-16T14:33:36Z</time>
      </trkpt>
      <trkpt lat="28.7803850" lon="-17.8453820">
        <ele>1699.1</ele>
        <time>2020-11-16T14:33:37Z</time>
      </trkpt>
      <trkpt lat="28.7804450" lon="-17.8454270">
        <ele>1698.6</ele>
        <time>2020-11-16T14:33:38Z</time>
      </trkpt>
      <trkpt lat="28.7804450" lon="-17.8454270">
        <ele>1698.6</ele>
        <time>2020-11-16T14:33:39Z</time>
      </trkpt>
      <trkpt lat="28.7805000" lon="-17.8454580">
        <ele>1698.1</ele>
        <time>2020-11-16T14:33:40Z</time>
      </trkpt>
      <trkpt lat="28.7805000" lon="-17.8454580">
        <ele>1698.1</ele>
        <time>2020-11-16T14:33:41Z</time>
      </trkpt>
      <trkpt lat="28.7805530" lon="-17.8454770">
        <ele>1697.7</ele>
        <time>2020-11-16T14:33:42Z</time>
      </trkpt>
      <trkpt lat="28.7805530" lon="-17.8454770">
        <ele>1697.7</ele>
        <time>2020-11-16T14:33:43Z</time>
      </trkpt>
      <trkpt lat="28.7806080" lon="-17.8454720">
        <ele>1697.3</ele>
        <time>2020-11-16T14:33:44Z</time>
      </trkpt>
      <trkpt lat="28.7806080" lon="-17.8454720">
        <ele>1697.3</ele>
        <time>2020-11-16T14:33:45Z</time>
      </trkpt>
      <trkpt lat="28.7806670" lon="-17.8454520">
        <ele>1696.8</ele>
        <time>2020-11-16T14:33:46Z</time>
      </trkpt>
      <trkpt lat="28.7806670" lon="-17.8454520">
        <ele>1696.8</ele>
        <time>2020-11-16T14:33:47Z</time>
      </trkpt>
      <trkpt lat="28.7807320" lon="-17.8454120">
        <ele>1696.3</ele>
        <time>2020-11-16T14:33:48Z</time>
      </trkpt>
      <trkpt lat="28.7807320" lon="-17.8454120">
        <ele>1696.3</ele>
        <time>2020-11-16T14:33:49Z</time>
      </trkpt>
      <trkpt lat="28.7808120" lon="-17.8453720">
        <ele>1695.6</ele>
        <time>2020-11-16T14:33:50Z</time>
      </trkpt>
      <trkpt lat="28.7808120" lon="-17.8453720">
        <ele>1695.6</ele>
        <time>2020-11-16T14:33:51Z</time>
      </trkpt>
      <trkpt lat="28.7808970" lon="-17.8453350">
        <ele>1695.0</ele>
        <time>2020-11-16T14:33:52Z</time>
      </trkpt>
      <trkpt lat="28.7808970" lon="-17.8453350">
        <ele>1695.0</ele>
        <time>2020-11-16T14:33:53Z</time>
      </trkpt>
      <trkpt lat="28.7809770" lon="-17.8453030">
        <ele>1694.3</ele>
        <time>2020-11-16T14:33:54Z</time>
      </trkpt>
      <trkpt lat="28.7809770" lon="-17.8453030">
        <ele>1694.3</ele>
        <time>2020-11-16T14:33:55Z</time>
      </trkpt>
      <trkpt lat="28.7810450" lon="-17.8453270">
        <ele>1693.8</ele>
        <time>2020-11-16T14:33:56Z</time>
      </trkpt>
      <trkpt lat="28.7810450" lon="-17.8453270">
        <ele>1693.8</ele>
        <time>2020-11-16T14:33:57Z</time>
      </trkpt>
      <trkpt lat="28.7811020" lon="-17.8453850">
        <ele>1693.2</ele>
        <time>2020-11-16T14:33:58Z</time>
      </trkpt>
      <trkpt lat="28.7811020" lon="-17.8453850">
        <ele>1693.2</ele>
        <time>2020-11-16T14:33:59Z</time>
      </trkpt>
      <trkpt lat="28.7811280" lon="-17.8454720">
        <ele>1692.6</ele>
        <time>2020-11-16T14:34:00Z</time>
      </trkpt>
      <trkpt lat="28.7811280" lon="-17.8454720">
        <ele>1692.6</ele>
        <time>2020-11-16T14:34:01Z</time>
      </trkpt>
      <trkpt lat="28.7811250" lon="-17.8455800">
        <ele>1691.9</ele>
        <time>2020-11-16T14:34:02Z</time>
      </trkpt>
      <trkpt lat="28.7811250" lon="-17.8455800">
        <ele>1691.9</ele>
        <time>2020-11-16T14:34:03Z</time>
      </trkpt>
      <trkpt lat="28.7810880" lon="-17.8456850">
        <ele>1691.2</ele>
        <time>2020-11-16T14:34:04Z</time>
      </trkpt>
      <trkpt lat="28.7810880" lon="-17.8456850">
        <ele>1691.2</ele>
        <time>2020-11-16T14:34:05Z</time>
      </trkpt>
      <trkpt lat="28.7810330" lon="-17.8457920">
        <ele>1690.4</ele>
        <time>2020-11-16T14:34:06Z</time>
      </trkpt>
      <trkpt lat="28.7810330" lon="-17.8457920">
        <ele>1690.4</ele>
        <time>2020-11-16T14:34:07Z</time>
      </trkpt>
      <trkpt lat="28.7809880" lon="-17.8458820">
        <ele>1689.7</ele>
        <time>2020-11-16T14:34:08Z</time>
      </trkpt>
      <trkpt lat="28.7809880" lon="-17.8458820">
        <ele>1689.7</ele>
        <time>2020-11-16T14:34:09Z</time>
      </trkpt>
      <trkpt lat="28.7809780" lon="-17.8459580">
        <ele>1689.2</ele>
        <time>2020-11-16T14:34:10Z</time>
      </trkpt>
      <trkpt lat="28.7809780" lon="-17.8459580">
        <ele>1689.2</ele>
        <time>2020-11-16T14:34:11Z</time>
      </trkpt>
      <trkpt lat="28.7810230" lon="-17.8460220">
        <ele>1688.7</ele>
        <time>2020-11-16T14:34:12Z</time>
      </trkpt>
      <trkpt lat="28.7810230" lon="-17.8460220">
        <ele>1688.7</ele>
        <time>2020-11-16T14:34:13Z</time>
      </trkpt>
      <trkpt lat="28.7810730" lon="-17.8460700">
        <ele>1688.2</ele>
        <time>2020-11-16T14:34:14Z</time>
      </trkpt>
      <trkpt lat="28.7810730" lon="-17.8460700">
        <ele>1688.2</ele>
        <time>2020-11-16T14:34:15Z</time>
      </trkpt>
      <trkpt lat="28.7811400" lon="-17.8461350">
        <ele>1687.5</ele>
        <time>2020-11-16T14:34:16Z</time>
      </trkpt>
      <trkpt lat="28.7811400" lon="-17.8461350">
        <ele>1687.5</ele>
        <time>2020-11-16T14:34:17Z</time>
      </trkpt>
      <trkpt lat="28.7812020" lon="-17.8461930">
        <ele>1686.9</ele>
        <time>2020-11-16T14:34:18Z</time>
      </trkpt>
      <trkpt lat="28.7812020" lon="-17.8461930">
        <ele>1686.9</ele>
        <time>2020-11-16T14:34:19Z</time>
      </trkpt>
      <trkpt lat="28.7812670" lon="-17.8462580">
        <ele>1686.3</ele>
        <time>2020-11-16T14:34:20Z</time>
      </trkpt>
      <trkpt lat="28.7812670" lon="-17.8462580">
        <ele>1686.3</ele>
        <time>2020-11-16T14:34:21Z</time>
      </trkpt>
      <trkpt lat="28.7813420" lon="-17.8462950">
        <ele>1685.7</ele>
        <time>2020-11-16T14:34:22Z</time>
      </trkpt>
      <trkpt lat="28.7813420" lon="-17.8462950">
        <ele>1685.7</ele>
        <time>2020-11-16T14:34:23Z</time>
      </trkpt>
      <trkpt lat="28.7813930" lon="-17.8463020">
        <ele>1685.3</ele>
        <time>2020-11-16T14:34:24Z</time>
      </trkpt>
      <trkpt lat="28.7813930" lon="-17.8463020">
        <ele>1685.3</ele>
        <time>2020-11-16T14:34:25Z</time>
      </trkpt>
      <trkpt lat="28.7814470" lon="-17.8463100">
        <ele>1684.9</ele>
        <time>2020-11-16T14:34:26Z</time>
      </trkpt>
      <trkpt lat="28.7814470" lon="-17.8463100">
        <ele>1684.9</ele>
        <time>2020-11-16T14:34:27Z</time>
      </trkpt>
      <trkpt lat="28.7815000" lon="-17.8463370">
        <ele>1684.4</ele>
        <time>2020-11-16T14:34:28Z</time>
      </trkpt>
      <trkpt lat="28.7815000" lon="-17.8463370">
        <ele>1684.4</ele>
        <time>2020-11-16T14:34:29Z</time>
      </trkpt>
      <trkpt lat="28.7815570" lon="-17.8463850">
        <ele>1683.9</ele>
        <time>2020-11-16T14:34:30Z</time>
      </trkpt>
      <trkpt lat="28.7815980" lon="-17.8464150">
        <ele>1683.6</ele>
        <time>2020-11-16T14:34:31Z</time>
      </trkpt>
      <trkpt lat="28.7815980" lon="-17.8464150">
        <ele>1683.6</ele>
        <time>2020-11-16T14:34:32Z</time>
      </trkpt>
      <trkpt lat="28.7816830" lon="-17.8464830">
        <ele>1682.8</ele>
        <time>2020-11-16T14:34:33Z</time>
      </trkpt>
      <trkpt lat="28.7816830" lon="-17.8464830">
        <ele>1682.8</ele>
        <time>2020-11-16T14:34:34Z</time>
      </trkpt>
      <trkpt lat="28.7817530" lon="-17.8465750">
        <ele>1682.0</ele>
        <time>2020-11-16T14:34:35Z</time>
      </trkpt>
      <trkpt lat="28.7817530" lon="-17.8465750">
        <ele>1682.0</ele>
        <time>2020-11-16T14:34:36Z</time>
      </trkpt>
      <trkpt lat="28.7818120" lon="-17.8466420">
        <ele>1681.4</ele>
        <time>2020-11-16T14:34:37Z</time>
      </trkpt>
      <trkpt lat="28.7818120" lon="-17.8466420">
        <ele>1681.4</ele>
        <time>2020-11-16T14:34:38Z</time>
      </trkpt>
      <trkpt lat="28.7818400" lon="-17.8466980">
        <ele>1680.9</ele>
        <time>2020-11-16T14:34:39Z</time>
      </trkpt>
      <trkpt lat="28.7818400" lon="-17.8466980">
        <ele>1680.9</ele>
        <time>2020-11-16T14:34:40Z</time>
      </trkpt>
      <trkpt lat="28.7818700" lon="-17.8467600">
        <ele>1680.5</ele>
        <time>2020-11-16T14:34:41Z</time>
      </trkpt>
      <trkpt lat="28.7818700" lon="-17.8467600">
        <ele>1680.5</ele>
        <time>2020-11-16T14:34:42Z</time>
      </trkpt>
      <trkpt lat="28.7819070" lon="-17.8468350">
        <ele>1679.9</ele>
        <time>2020-11-16T14:34:43Z</time>
      </trkpt>
      <trkpt lat="28.7819070" lon="-17.8468350">
        <ele>1679.9</ele>
        <time>2020-11-16T14:34:44Z</time>
      </trkpt>
      <trkpt lat="28.7819420" lon="-17.8469400">
        <ele>1679.2</ele>
        <time>2020-11-16T14:34:45Z</time>
      </trkpt>
      <trkpt lat="28.7819420" lon="-17.8469400">
        <ele>1679.2</ele>
        <time>2020-11-16T14:34:46Z</time>
      </trkpt>
      <trkpt lat="28.7819530" lon="-17.8470520">
        <ele>1678.5</ele>
        <time>2020-11-16T14:34:47Z</time>
      </trkpt>
      <trkpt lat="28.7819530" lon="-17.8470520">
        <ele>1678.5</ele>
        <time>2020-11-16T14:34:48Z</time>
      </trkpt>
      <trkpt lat="28.7819530" lon="-17.8471580">
        <ele>1677.8</ele>
        <time>2020-11-16T14:34:49Z</time>
      </trkpt>
      <trkpt lat="28.7819530" lon="-17.8471580">
        <ele>1677.8</ele>
        <time>2020-11-16T14:34:50Z</time>
      </trkpt>
      <trkpt lat="28.7819620" lon="-17.8472670">
        <ele>1677.0</ele>
        <time>2020-11-16T14:34:51Z</time>
      </trkpt>
      <trkpt lat="28.7819620" lon="-17.8472670">
        <ele>1677.0</ele>
        <time>2020-11-16T14:34:52Z</time>
      </trkpt>
      <trkpt lat="28.7819620" lon="-17.8473820">
        <ele>1676.3</ele>
        <time>2020-11-16T14:34:53Z</time>
      </trkpt>
      <trkpt lat="28.7819520" lon="-17.8474500">
        <ele>1675.8</ele>
        <time>2020-11-16T14:34:54Z</time>
      </trkpt>
      <trkpt lat="28.7819520" lon="-17.8474500">
        <ele>1675.8</ele>
        <time>2020-11-16T14:34:55Z</time>
      </trkpt>
      <trkpt lat="28.7819470" lon="-17.8475800">
        <ele>1675.0</ele>
        <time>2020-11-16T14:34:56Z</time>
      </trkpt>
      <trkpt lat="28.7819470" lon="-17.8475800">
        <ele>1675.0</ele>
        <time>2020-11-16T14:34:57Z</time>
      </trkpt>
      <trkpt lat="28.7819620" lon="-17.8476950">
        <ele>1674.2</ele>
        <time>2020-11-16T14:34:58Z</time>
      </trkpt>
      <trkpt lat="28.7819620" lon="-17.8476950">
        <ele>1674.2</ele>
        <time>2020-11-16T14:34:59Z</time>
      </trkpt>
      <trkpt lat="28.7820000" lon="-17.8477970">
        <ele>1673.5</ele>
        <time>2020-11-16T14:35:00Z</time>
      </trkpt>
      <trkpt lat="28.7820000" lon="-17.8477970">
        <ele>1673.5</ele>
        <time>2020-11-16T14:35:01Z</time>
      </trkpt>
      <trkpt lat="28.7820580" lon="-17.8478680">
        <ele>1672.9</ele>
        <time>2020-11-16T14:35:02Z</time>
      </trkpt>
      <trkpt lat="28.7820580" lon="-17.8478680">
        <ele>1672.9</ele>
        <time>2020-11-16T14:35:03Z</time>
      </trkpt>
      <trkpt lat="28.7821230" lon="-17.8479470">
        <ele>1672.2</ele>
        <time>2020-11-16T14:35:04Z</time>
      </trkpt>
      <trkpt lat="28.7821230" lon="-17.8479470">
        <ele>1672.2</ele>
        <time>2020-11-16T14:35:05Z</time>
      </trkpt>
      <trkpt lat="28.7821980" lon="-17.8480120">
        <ele>1671.5</ele>
        <time>2020-11-16T14:35:06Z</time>
      </trkpt>
      <trkpt lat="28.7822280" lon="-17.8480200">
        <ele>1671.2</ele>
        <time>2020-11-16T14:35:07Z</time>
      </trkpt>
      <trkpt lat="28.7822280" lon="-17.8480200">
        <ele>1671.2</ele>
        <time>2020-11-16T14:35:08Z</time>
      </trkpt>
      <trkpt lat="28.7822950" lon="-17.8480030">
        <ele>1670.7</ele>
        <time>2020-11-16T14:35:09Z</time>
      </trkpt>
      <trkpt lat="28.7822950" lon="-17.8480030">
        <ele>1670.7</ele>
        <time>2020-11-16T14:35:10Z</time>
      </trkpt>
      <trkpt lat="28.7823280" lon="-17.8479480">
        <ele>1670.3</ele>
        <time>2020-11-16T14:35:11Z</time>
      </trkpt>
      <trkpt lat="28.7823280" lon="-17.8479480">
        <ele>1670.3</ele>
        <time>2020-11-16T14:35:12Z</time>
      </trkpt>
      <trkpt lat="28.7823150" lon="-17.8478850">
        <ele>1669.9</ele>
        <time>2020-11-16T14:35:13Z</time>
      </trkpt>
      <trkpt lat="28.7823150" lon="-17.8478850">
        <ele>1669.9</ele>
        <time>2020-11-16T14:35:14Z</time>
      </trkpt>
      <trkpt lat="28.7822780" lon="-17.8478450">
        <ele>1669.5</ele>
        <time>2020-11-16T14:35:15Z</time>
      </trkpt>
      <trkpt lat="28.7822780" lon="-17.8478450">
        <ele>1669.5</ele>
        <time>2020-11-16T14:35:16Z</time>
      </trkpt>
      <trkpt lat="28.7822250" lon="-17.8478000">
        <ele>1668.8</ele>
        <time>2020-11-16T14:35:17Z</time>
      </trkpt>
      <trkpt lat="28.7822250" lon="-17.8478000">
        <ele>1668.8</ele>
        <time>2020-11-16T14:35:18Z</time>
      </trkpt>
      <trkpt lat="28.7821720" lon="-17.8477630">
        <ele>1668.2</ele>
        <time>2020-11-16T14:35:19Z</time>
      </trkpt>
      <trkpt lat="28.7821720" lon="-17.8477630">
        <ele>1668.2</ele>
        <time>2020-11-16T14:35:20Z</time>
      </trkpt>
      <trkpt lat="28.7821480" lon="-17.8476980">
        <ele>1667.6</ele>
        <time>2020-11-16T14:35:21Z</time>
      </trkpt>
      <trkpt lat="28.7821480" lon="-17.8476980">
        <ele>1667.6</ele>
        <time>2020-11-16T14:35:22Z</time>
      </trkpt>
      <trkpt lat="28.7821470" lon="-17.8476350">
        <ele>1667.0</ele>
        <time>2020-11-16T14:35:23Z</time>
      </trkpt>
      <trkpt lat="28.7821470" lon="-17.8476350">
        <ele>1667.0</ele>
        <time>2020-11-16T14:35:24Z</time>
      </trkpt>
      <trkpt lat="28.7821570" lon="-17.8475680">
        <ele>1666.4</ele>
        <time>2020-11-16T14:35:25Z</time>
      </trkpt>
      <trkpt lat="28.7821600" lon="-17.8475300">
        <ele>1666.1</ele>
        <time>2020-11-16T14:35:26Z</time>
      </trkpt>
      <trkpt lat="28.7821600" lon="-17.8475300">
        <ele>1666.1</ele>
        <time>2020-11-16T14:35:27Z</time>
      </trkpt>
      <trkpt lat="28.7821950" lon="-17.8474370">
        <ele>1665.2</ele>
        <time>2020-11-16T14:35:28Z</time>
      </trkpt>
      <trkpt lat="28.7821950" lon="-17.8474370">
        <ele>1665.2</ele>
        <time>2020-11-16T14:35:29Z</time>
      </trkpt>
      <trkpt lat="28.7822280" lon="-17.8473420">
        <ele>1664.3</ele>
        <time>2020-11-16T14:35:30Z</time>
      </trkpt>
      <trkpt lat="28.7822280" lon="-17.8473420">
        <ele>1664.3</ele>
        <time>2020-11-16T14:35:31Z</time>
      </trkpt>
      <trkpt lat="28.7822550" lon="-17.8472530">
        <ele>1663.5</ele>
        <time>2020-11-16T14:35:32Z</time>
      </trkpt>
      <trkpt lat="28.7822550" lon="-17.8472530">
        <ele>1663.5</ele>
        <time>2020-11-16T14:35:33Z</time>
      </trkpt>
      <trkpt lat="28.7823030" lon="-17.8471480">
        <ele>1662.4</ele>
        <time>2020-11-16T14:35:34Z</time>
      </trkpt>
      <trkpt lat="28.7823030" lon="-17.8471480">
        <ele>1662.4</ele>
        <time>2020-11-16T14:35:35Z</time>
      </trkpt>
      <trkpt lat="28.7823180" lon="-17.8470600">
        <ele>1661.6</ele>
        <time>2020-11-16T14:35:36Z</time>
      </trkpt>
      <trkpt lat="28.7823180" lon="-17.8470600">
        <ele>1661.6</ele>
        <time>2020-11-16T14:35:37Z</time>
      </trkpt>
      <trkpt lat="28.7823500" lon="-17.8469930">
        <ele>1661.0</ele>
        <time>2020-11-16T14:35:38Z</time>
      </trkpt>
      <trkpt lat="28.7823500" lon="-17.8469930">
        <ele>1661.0</ele>
        <time>2020-11-16T14:35:39Z</time>
      </trkpt>
      <trkpt lat="28.7823670" lon="-17.8469270">
        <ele>1660.4</ele>
        <time>2020-11-16T14:35:40Z</time>
      </trkpt>
      <trkpt lat="28.7823670" lon="-17.8469270">
        <ele>1660.4</ele>
        <time>2020-11-16T14:35:41Z</time>
      </trkpt>
      <trkpt lat="28.7823800" lon="-17.8468420">
        <ele>1659.6</ele>
        <time>2020-11-16T14:35:42Z</time>
      </trkpt>
      <trkpt lat="28.7823800" lon="-17.8468420">
        <ele>1659.6</ele>
        <time>2020-11-16T14:35:43Z</time>
      </trkpt>
      <trkpt lat="28.7823730" lon="-17.8467530">
        <ele>1658.8</ele>
        <time>2020-11-16T14:35:44Z</time>
      </trkpt>
      <trkpt lat="28.7823730" lon="-17.8467530">
        <ele>1658.8</ele>
        <time>2020-11-16T14:35:45Z</time>
      </trkpt>
      <trkpt lat="28.7823530" lon="-17.8466620">
        <ele>1658.0</ele>
        <time>2020-11-16T14:35:46Z</time>
      </trkpt>
      <trkpt lat="28.7823530" lon="-17.8466620">
        <ele>1658.0</ele>
        <time>2020-11-16T14:35:47Z</time>
      </trkpt>
      <trkpt lat="28.7823200" lon="-17.8465730">
        <ele>1657.2</ele>
        <time>2020-11-16T14:35:48Z</time>
      </trkpt>
      <trkpt lat="28.7823200" lon="-17.8465730">
        <ele>1657.2</ele>
        <time>2020-11-16T14:35:49Z</time>
      </trkpt>
      <trkpt lat="28.7823020" lon="-17.8465030">
        <ele>1656.5</ele>
        <time>2020-11-16T14:35:50Z</time>
      </trkpt>
      <trkpt lat="28.7823020" lon="-17.8465030">
        <ele>1656.5</ele>
        <time>2020-11-16T14:35:51Z</time>
      </trkpt>
      <trkpt lat="28.7822730" lon="-17.8464570">
        <ele>1656.0</ele>
        <time>2020-11-16T14:35:52Z</time>
      </trkpt>
      <trkpt lat="28.7822730" lon="-17.8464570">
        <ele>1656.0</ele>
        <time>2020-11-16T14:35:53Z</time>
      </trkpt>
      <trkpt lat="28.7822320" lon="-17.8463880">
        <ele>1655.3</ele>
        <time>2020-11-16T14:35:54Z</time>
      </trkpt>
      <trkpt lat="28.7822050" lon="-17.8463500">
        <ele>1654.9</ele>
        <time>2020-11-16T14:35:55Z</time>
      </trkpt>
      <trkpt lat="28.7821700" lon="-17.8463070">
        <ele>1654.3</ele>
        <time>2020-11-16T14:35:56Z</time>
      </trkpt>
      <trkpt lat="28.7821700" lon="-17.8463070">
        <ele>1654.3</ele>
        <time>2020-11-16T14:35:57Z</time>
      </trkpt>
      <trkpt lat="28.7820930" lon="-17.8462220">
        <ele>1653.3</ele>
        <time>2020-11-16T14:35:58Z</time>
      </trkpt>
      <trkpt lat="28.7820930" lon="-17.8462220">
        <ele>1653.3</ele>
        <time>2020-11-16T14:35:59Z</time>
      </trkpt>
      <trkpt lat="28.7820050" lon="-17.8461500">
        <ele>1652.2</ele>
        <time>2020-11-16T14:36:00Z</time>
      </trkpt>
      <trkpt lat="28.7820050" lon="-17.8461500">
        <ele>1652.2</ele>
        <time>2020-11-16T14:36:01Z</time>
      </trkpt>
      <trkpt lat="28.7819070" lon="-17.8461050">
        <ele>1651.1</ele>
        <time>2020-11-16T14:36:02Z</time>
      </trkpt>
      <trkpt lat="28.7819070" lon="-17.8461050">
        <ele>1651.1</ele>
        <time>2020-11-16T14:36:03Z</time>
      </trkpt>
      <trkpt lat="28.7818220" lon="-17.8460720">
        <ele>1650.2</ele>
        <time>2020-11-16T14:36:04Z</time>
      </trkpt>
      <trkpt lat="28.7818220" lon="-17.8460720">
        <ele>1650.2</ele>
        <time>2020-11-16T14:36:05Z</time>
      </trkpt>
      <trkpt lat="28.7817670" lon="-17.8460380">
        <ele>1649.6</ele>
        <time>2020-11-16T14:36:06Z</time>
      </trkpt>
      <trkpt lat="28.7817670" lon="-17.8460380">
        <ele>1649.6</ele>
        <time>2020-11-16T14:36:07Z</time>
      </trkpt>
      <trkpt lat="28.7817280" lon="-17.8459950">
        <ele>1649.1</ele>
        <time>2020-11-16T14:36:08Z</time>
      </trkpt>
      <trkpt lat="28.7817280" lon="-17.8459950">
        <ele>1649.1</ele>
        <time>2020-11-16T14:36:09Z</time>
      </trkpt>
      <trkpt lat="28.7816930" lon="-17.8459200">
        <ele>1648.3</ele>
        <time>2020-11-16T14:36:10Z</time>
      </trkpt>
      <trkpt lat="28.7816930" lon="-17.8459200">
        <ele>1648.3</ele>
        <time>2020-11-16T14:36:11Z</time>
      </trkpt>
      <trkpt lat="28.7816980" lon="-17.8458720">
        <ele>1647.9</ele>
        <time>2020-11-16T14:36:12Z</time>
      </trkpt>
      <trkpt lat="28.7816980" lon="-17.8458720">
        <ele>1647.9</ele>
        <time>2020-11-16T14:36:13Z</time>
      </trkpt>
      <trkpt lat="28.7817070" lon="-17.8458080">
        <ele>1647.3</ele>
        <time>2020-11-16T14:36:14Z</time>
      </trkpt>
      <trkpt lat="28.7817070" lon="-17.8458080">
        <ele>1647.3</ele>
        <time>2020-11-16T14:36:15Z</time>
      </trkpt>
      <trkpt lat="28.7817520" lon="-17.8457550">
        <ele>1646.7</ele>
        <time>2020-11-16T14:36:16Z</time>
      </trkpt>
      <trkpt lat="28.7817520" lon="-17.8457550">
        <ele>1646.7</ele>
        <time>2020-11-16T14:36:17Z</time>
      </trkpt>
      <trkpt lat="28.7818320" lon="-17.8457030">
        <ele>1645.8</ele>
        <time>2020-11-16T14:36:18Z</time>
      </trkpt>
      <trkpt lat="28.7818320" lon="-17.8457030">
        <ele>1645.8</ele>
        <time>2020-11-16T14:36:19Z</time>
      </trkpt>
      <trkpt lat="28.7818850" lon="-17.8456350">
        <ele>1645.0</ele>
        <time>2020-11-16T14:36:20Z</time>
      </trkpt>
      <trkpt lat="28.7818850" lon="-17.8456350">
        <ele>1645.0</ele>
        <time>2020-11-16T14:36:21Z</time>
      </trkpt>
      <trkpt lat="28.7819280" lon="-17.8455600">
        <ele>1644.2</ele>
        <time>2020-11-16T14:36:22Z</time>
      </trkpt>
      <trkpt lat="28.7819520" lon="-17.8455230">
        <ele>1643.8</ele>
        <time>2020-11-16T14:36:23Z</time>
      </trkpt>
      <trkpt lat="28.7819520" lon="-17.8455230">
        <ele>1643.8</ele>
        <time>2020-11-16T14:36:24Z</time>
      </trkpt>
      <trkpt lat="28.7820080" lon="-17.8454550">
        <ele>1642.9</ele>
        <time>2020-11-16T14:36:25Z</time>
      </trkpt>
      <trkpt lat="28.7820380" lon="-17.8454220">
        <ele>1642.5</ele>
        <time>2020-11-16T14:36:26Z</time>
      </trkpt>
      <trkpt lat="28.7820380" lon="-17.8454220">
        <ele>1642.5</ele>
        <time>2020-11-16T14:36:27Z</time>
      </trkpt>
      <trkpt lat="28.7821080" lon="-17.8453520">
        <ele>1641.6</ele>
        <time>2020-11-16T14:36:28Z</time>
      </trkpt>
      <trkpt lat="28.7821080" lon="-17.8453520">
        <ele>1641.6</ele>
        <time>2020-11-16T14:36:29Z</time>
      </trkpt>
      <trkpt lat="28.7821830" lon="-17.8452730">
        <ele>1640.6</ele>
        <time>2020-11-16T14:36:30Z</time>
      </trkpt>
      <trkpt lat="28.7821830" lon="-17.8452730">
        <ele>1640.6</ele>
        <time>2020-11-16T14:36:31Z</time>
      </trkpt>
      <trkpt lat="28.7822550" lon="-17.8452030">
        <ele>1639.6</ele>
        <time>2020-11-16T14:36:32Z</time>
      </trkpt>
      <trkpt lat="28.7822550" lon="-17.8452030">
        <ele>1639.6</ele>
        <time>2020-11-16T14:36:33Z</time>
      </trkpt>
      <trkpt lat="28.7823230" lon="-17.8451470">
        <ele>1638.8</ele>
        <time>2020-11-16T14:36:34Z</time>
      </trkpt>
      <trkpt lat="28.7823230" lon="-17.8451470">
        <ele>1638.8</ele>
        <time>2020-11-16T14:36:35Z</time>
      </trkpt>
      <trkpt lat="28.7824320" lon="-17.8450950">
        <ele>1637.6</ele>
        <time>2020-11-16T14:36:36Z</time>
      </trkpt>
      <trkpt lat="28.7824320" lon="-17.8450950">
        <ele>1637.6</ele>
        <time>2020-11-16T14:36:37Z</time>
      </trkpt>
      <trkpt lat="28.7825250" lon="-17.8450480">
        <ele>1636.6</ele>
        <time>2020-11-16T14:36:38Z</time>
      </trkpt>
      <trkpt lat="28.7825250" lon="-17.8450480">
        <ele>1636.6</ele>
        <time>2020-11-16T14:36:39Z</time>
      </trkpt>
      <trkpt lat="28.7826200" lon="-17.8450230">
        <ele>1635.6</ele>
        <time>2020-11-16T14:36:40Z</time>
      </trkpt>
      <trkpt lat="28.7826200" lon="-17.8450230">
        <ele>1635.6</ele>
        <time>2020-11-16T14:36:41Z</time>
      </trkpt>
      <trkpt lat="28.7827220" lon="-17.8450020">
        <ele>1634.6</ele>
        <time>2020-11-16T14:36:42Z</time>
      </trkpt>
      <trkpt lat="28.7827220" lon="-17.8450020">
        <ele>1634.6</ele>
        <time>2020-11-16T14:36:43Z</time>
      </trkpt>
      <trkpt lat="28.7828130" lon="-17.8449620">
        <ele>1633.6</ele>
        <time>2020-11-16T14:36:44Z</time>
      </trkpt>
      <trkpt lat="28.7828130" lon="-17.8449620">
        <ele>1633.6</ele>
        <time>2020-11-16T14:36:45Z</time>
      </trkpt>
      <trkpt lat="28.7829100" lon="-17.8449150">
        <ele>1632.5</ele>
        <time>2020-11-16T14:36:46Z</time>
      </trkpt>
      <trkpt lat="28.7829100" lon="-17.8449150">
        <ele>1632.5</ele>
        <time>2020-11-16T14:36:47Z</time>
      </trkpt>
      <trkpt lat="28.7830120" lon="-17.8448850">
        <ele>1631.5</ele>
        <time>2020-11-16T14:36:48Z</time>
      </trkpt>
      <trkpt lat="28.7830120" lon="-17.8448850">
        <ele>1631.5</ele>
        <time>2020-11-16T14:36:49Z</time>
      </trkpt>
      <trkpt lat="28.7831220" lon="-17.8448750">
        <ele>1630.4</ele>
        <time>2020-11-16T14:36:50Z</time>
      </trkpt>
      <trkpt lat="28.7831220" lon="-17.8448750">
        <ele>1630.4</ele>
        <time>2020-11-16T14:36:51Z</time>
      </trkpt>
      <trkpt lat="28.7832200" lon="-17.8448370">
        <ele>1629.3</ele>
        <time>2020-11-16T14:36:52Z</time>
      </trkpt>
      <trkpt lat="28.7832650" lon="-17.8447980">
        <ele>1628.8</ele>
        <time>2020-11-16T14:36:53Z</time>
      </trkpt>
      <trkpt lat="28.7832650" lon="-17.8447980">
        <ele>1628.8</ele>
        <time>2020-11-16T14:36:54Z</time>
      </trkpt>
      <trkpt lat="28.7833450" lon="-17.8447150">
        <ele>1627.7</ele>
        <time>2020-11-16T14:36:55Z</time>
      </trkpt>
      <trkpt lat="28.7833830" lon="-17.8446750">
        <ele>1627.2</ele>
        <time>2020-11-16T14:36:56Z</time>
      </trkpt>
      <trkpt lat="28.7833830" lon="-17.8446750">
        <ele>1627.2</ele>
        <time>2020-11-16T14:36:57Z</time>
      </trkpt>
      <trkpt lat="28.7834480" lon="-17.8445980">
        <ele>1626.2</ele>
        <time>2020-11-16T14:36:58Z</time>
      </trkpt>
      <trkpt lat="28.7834480" lon="-17.8445980">
        <ele>1626.2</ele>
        <time>2020-11-16T14:36:59Z</time>
      </trkpt>
      <trkpt lat="28.7835080" lon="-17.8445280">
        <ele>1625.4</ele>
        <time>2020-11-16T14:37:00Z</time>
      </trkpt>
      <trkpt lat="28.7835080" lon="-17.8445280">
        <ele>1625.4</ele>
        <time>2020-11-16T14:37:01Z</time>
      </trkpt>
      <trkpt lat="28.7835400" lon="-17.8444300">
        <ele>1624.5</ele>
        <time>2020-11-16T14:37:02Z</time>
      </trkpt>
      <trkpt lat="28.7835400" lon="-17.8444300">
        <ele>1624.5</ele>
        <time>2020-11-16T14:37:03Z</time>
      </trkpt>
      <trkpt lat="28.7835400" lon="-17.8443220">
        <ele>1623.5</ele>
        <time>2020-11-16T14:37:04Z</time>
      </trkpt>
      <trkpt lat="28.7835400" lon="-17.8443220">
        <ele>1623.5</ele>
        <time>2020-11-16T14:37:05Z</time>
      </trkpt>
      <trkpt lat="28.7834980" lon="-17.8442070">
        <ele>1622.4</ele>
        <time>2020-11-16T14:37:06Z</time>
      </trkpt>
      <trkpt lat="28.7834980" lon="-17.8442070">
        <ele>1622.4</ele>
        <time>2020-11-16T14:37:07Z</time>
      </trkpt>
      <trkpt lat="28.7834550" lon="-17.8441170">
        <ele>1621.5</ele>
        <time>2020-11-16T14:37:08Z</time>
      </trkpt>
      <trkpt lat="28.7834550" lon="-17.8441170">
        <ele>1621.5</ele>
        <time>2020-11-16T14:37:09Z</time>
      </trkpt>
      <trkpt lat="28.7834220" lon="-17.8440200">
        <ele>1620.6</ele>
        <time>2020-11-16T14:37:10Z</time>
      </trkpt>
      <trkpt lat="28.7834220" lon="-17.8440200">
        <ele>1620.6</ele>
        <time>2020-11-16T14:37:11Z</time>
      </trkpt>
      <trkpt lat="28.7833870" lon="-17.8439100">
        <ele>1619.6</ele>
        <time>2020-11-16T14:37:12Z</time>
      </trkpt>
      <trkpt lat="28.7833870" lon="-17.8439100">
        <ele>1619.6</ele>
        <time>2020-11-16T14:37:13Z</time>
      </trkpt>
      <trkpt lat="28.7833550" lon="-17.8438020">
        <ele>1618.6</ele>
        <time>2020-11-16T14:37:14Z</time>
      </trkpt>
      <trkpt lat="28.7833550" lon="-17.8438020">
        <ele>1618.6</ele>
        <time>2020-11-16T14:37:15Z</time>
      </trkpt>
      <trkpt lat="28.7833300" lon="-17.8436980">
        <ele>1617.6</ele>
        <time>2020-11-16T14:37:16Z</time>
      </trkpt>
      <trkpt lat="28.7833300" lon="-17.8436980">
        <ele>1617.6</ele>
        <time>2020-11-16T14:37:17Z</time>
      </trkpt>
      <trkpt lat="28.7833220" lon="-17.8436000">
        <ele>1616.8</ele>
        <time>2020-11-16T14:37:18Z</time>
      </trkpt>
      <trkpt lat="28.7833220" lon="-17.8436000">
        <ele>1616.8</ele>
        <time>2020-11-16T14:37:19Z</time>
      </trkpt>
      <trkpt lat="28.7833400" lon="-17.8434970">
        <ele>1615.9</ele>
        <time>2020-11-16T14:37:20Z</time>
      </trkpt>
      <trkpt lat="28.7833400" lon="-17.8434970">
        <ele>1615.9</ele>
        <time>2020-11-16T14:37:21Z</time>
      </trkpt>
      <trkpt lat="28.7833570" lon="-17.8434070">
        <ele>1615.0</ele>
        <time>2020-11-16T14:37:22Z</time>
      </trkpt>
      <trkpt lat="28.7833570" lon="-17.8434070">
        <ele>1615.0</ele>
        <time>2020-11-16T14:37:23Z</time>
      </trkpt>
      <trkpt lat="28.7833800" lon="-17.8433220">
        <ele>1614.3</ele>
        <time>2020-11-16T14:37:24Z</time>
      </trkpt>
      <trkpt lat="28.7833800" lon="-17.8433220">
        <ele>1614.3</ele>
        <time>2020-11-16T14:37:25Z</time>
      </trkpt>
      <trkpt lat="28.7834250" lon="-17.8432370">
        <ele>1613.4</ele>
        <time>2020-11-16T14:37:26Z</time>
      </trkpt>
      <trkpt lat="28.7834250" lon="-17.8432370">
        <ele>1613.4</ele>
        <time>2020-11-16T14:37:27Z</time>
      </trkpt>
      <trkpt lat="28.7834420" lon="-17.8431470">
        <ele>1612.6</ele>
        <time>2020-11-16T14:37:28Z</time>
      </trkpt>
      <trkpt lat="28.7834420" lon="-17.8431470">
        <ele>1612.6</ele>
        <time>2020-11-16T14:37:29Z</time>
      </trkpt>
      <trkpt lat="28.7834500" lon="-17.8430620">
        <ele>1611.8</ele>
        <time>2020-11-16T14:37:30Z</time>
      </trkpt>
      <trkpt lat="28.7834500" lon="-17.8430620">
        <ele>1611.8</ele>
        <time>2020-11-16T14:37:31Z</time>
      </trkpt>
      <trkpt lat="28.7834720" lon="-17.8429730">
        <ele>1611.0</ele>
        <time>2020-11-16T14:37:32Z</time>
      </trkpt>
      <trkpt lat="28.7834720" lon="-17.8429730">
        <ele>1611.0</ele>
        <time>2020-11-16T14:37:33Z</time>
      </trkpt>
      <trkpt lat="28.7834950" lon="-17.8428870">
        <ele>1610.2</ele>
        <time>2020-11-16T14:37:34Z</time>
      </trkpt>
      <trkpt lat="28.7834950" lon="-17.8428870">
        <ele>1610.2</ele>
        <time>2020-11-16T14:37:35Z</time>
      </trkpt>
      <trkpt lat="28.7835230" lon="-17.8428030">
        <ele>1609.4</ele>
        <time>2020-11-16T14:37:36Z</time>
      </trkpt>
      <trkpt lat="28.7835230" lon="-17.8428030">
        <ele>1609.4</ele>
        <time>2020-11-16T14:37:37Z</time>
      </trkpt>
      <trkpt lat="28.7835520" lon="-17.8427300">
        <ele>1608.7</ele>
        <time>2020-11-16T14:37:38Z</time>
      </trkpt>
      <trkpt lat="28.7835520" lon="-17.8427300">
        <ele>1608.7</ele>
        <time>2020-11-16T14:37:39Z</time>
      </trkpt>
      <trkpt lat="28.7835930" lon="-17.8426950">
        <ele>1608.2</ele>
        <time>2020-11-16T14:37:40Z</time>
      </trkpt>
      <trkpt lat="28.7835930" lon="-17.8426950">
        <ele>1608.2</ele>
        <time>2020-11-16T14:37:41Z</time>
      </trkpt>
      <trkpt lat="28.7836470" lon="-17.8426920">
        <ele>1607.7</ele>
        <time>2020-11-16T14:37:42Z</time>
      </trkpt>
      <trkpt lat="28.7836470" lon="-17.8426920">
        <ele>1607.7</ele>
        <time>2020-11-16T14:37:43Z</time>
      </trkpt>
      <trkpt lat="28.7836950" lon="-17.8427000">
        <ele>1607.2</ele>
        <time>2020-11-16T14:37:44Z</time>
      </trkpt>
      <trkpt lat="28.7836950" lon="-17.8427000">
        <ele>1607.2</ele>
        <time>2020-11-16T14:37:45Z</time>
      </trkpt>
      <trkpt lat="28.7837470" lon="-17.8427150">
        <ele>1606.7</ele>
        <time>2020-11-16T14:37:46Z</time>
      </trkpt>
      <trkpt lat="28.7837470" lon="-17.8427150">
        <ele>1606.7</ele>
        <time>2020-11-16T14:37:47Z</time>
      </trkpt>
      <trkpt lat="28.7837870" lon="-17.8427270">
        <ele>1606.2</ele>
        <time>2020-11-16T14:37:48Z</time>
      </trkpt>
      <trkpt lat="28.7837870" lon="-17.8427270">
        <ele>1606.2</ele>
        <time>2020-11-16T14:37:49Z</time>
      </trkpt>
      <trkpt lat="28.7838050" lon="-17.8427350">
        <ele>1606.1</ele>
        <time>2020-11-16T14:37:50Z</time>
      </trkpt>
      <trkpt lat="28.7838050" lon="-17.8427350">
        <ele>1606.1</ele>
        <time>2020-11-16T14:37:51Z</time>
      </trkpt>
      <trkpt lat="28.7838050" lon="-17.8427400">
        <ele>1606.0</ele>
        <time>2020-11-16T14:39:04Z</time>
      </trkpt>
      <trkpt lat="28.7838050" lon="-17.8427400">
        <ele>1606.0</ele>
        <time>2020-11-16T14:39:05Z</time>
      </trkpt>
      <trkpt lat="28.7837980" lon="-17.8428270">
        <ele>1605.2</ele>
        <time>2020-11-16T14:39:06Z</time>
      </trkpt>
      <trkpt lat="28.7837980" lon="-17.8428270">
        <ele>1605.2</ele>
        <time>2020-11-16T14:39:07Z</time>
      </trkpt>
      <trkpt lat="28.7837780" lon="-17.8429180">
        <ele>1604.4</ele>
        <time>2020-11-16T14:39:08Z</time>
      </trkpt>
      <trkpt lat="28.7837780" lon="-17.8429180">
        <ele>1604.4</ele>
        <time>2020-11-16T14:39:09Z</time>
      </trkpt>
      <trkpt lat="28.7837470" lon="-17.8430170">
        <ele>1603.5</ele>
        <time>2020-11-16T14:39:10Z</time>
      </trkpt>
      <trkpt lat="28.7837470" lon="-17.8430170">
        <ele>1603.5</ele>
        <time>2020-11-16T14:39:11Z</time>
      </trkpt>
      <trkpt lat="28.7837150" lon="-17.8431080">
        <ele>1602.6</ele>
        <time>2020-11-16T14:39:12Z</time>
      </trkpt>
      <trkpt lat="28.7837150" lon="-17.8431080">
        <ele>1602.6</ele>
        <time>2020-11-16T14:39:13Z</time>
      </trkpt>
      <trkpt lat="28.7836970" lon="-17.8431820">
        <ele>1602.0</ele>
        <time>2020-11-16T14:39:14Z</time>
      </trkpt>
      <trkpt lat="28.7836970" lon="-17.8431820">
        <ele>1602.0</ele>
        <time>2020-11-16T14:39:15Z</time>
      </trkpt>
      <trkpt lat="28.7836970" lon="-17.8432520">
        <ele>1601.3</ele>
        <time>2020-11-16T14:39:16Z</time>
      </trkpt>
      <trkpt lat="28.7836970" lon="-17.8432520">
        <ele>1601.3</ele>
        <time>2020-11-16T14:39:17Z</time>
      </trkpt>
      <trkpt lat="28.7837170" lon="-17.8433070">
        <ele>1600.8</ele>
        <time>2020-11-16T14:39:18Z</time>
      </trkpt>
      <trkpt lat="28.7837170" lon="-17.8433070">
        <ele>1600.8</ele>
        <time>2020-11-16T14:39:19Z</time>
      </trkpt>
      <trkpt lat="28.7837250" lon="-17.8433270">
        <ele>1600.6</ele>
        <time>2020-11-16T14:39:20Z</time>
      </trkpt>
      <trkpt lat="28.7837250" lon="-17.8433270">
        <ele>1600.6</ele>
        <time>2020-11-16T14:39:21Z</time>
      </trkpt>
      <trkpt lat="28.7837230" lon="-17.8433300">
        <ele>1600.6</ele>
        <time>2020-11-16T14:40:19Z</time>
      </trkpt>
      <trkpt lat="28.7837420" lon="-17.8434170">
        <ele>1599.8</ele>
        <time>2020-11-16T14:40:20Z</time>
      </trkpt>
      <trkpt lat="28.7837420" lon="-17.8434350">
        <ele>1599.7</ele>
        <time>2020-11-16T14:40:21Z</time>
      </trkpt>
      <trkpt lat="28.7837420" lon="-17.8434350">
        <ele>1599.7</ele>
        <time>2020-11-16T14:40:22Z</time>
      </trkpt>
      <trkpt lat="28.7837500" lon="-17.8434600">
        <ele>1599.4</ele>
        <time>2020-11-16T14:40:23Z</time>
      </trkpt>
      <trkpt lat="28.7837500" lon="-17.8434600">
        <ele>1599.4</ele>
        <time>2020-11-16T14:40:24Z</time>
      </trkpt>
      <trkpt lat="28.7837730" lon="-17.8435000">
        <ele>1599.0</ele>
        <time>2020-11-16T14:40:25Z</time>
      </trkpt>
      <trkpt lat="28.7837880" lon="-17.8435230">
        <ele>1598.8</ele>
        <time>2020-11-16T14:40:26Z</time>
      </trkpt>
      <trkpt lat="28.7837880" lon="-17.8435230">
        <ele>1598.8</ele>
        <time>2020-11-16T14:40:27Z</time>
      </trkpt>
      <trkpt lat="28.7838320" lon="-17.8435650">
        <ele>1598.2</ele>
        <time>2020-11-16T14:40:28Z</time>
      </trkpt>
      <trkpt lat="28.7838320" lon="-17.8435650">
        <ele>1598.2</ele>
        <time>2020-11-16T14:40:29Z</time>
      </trkpt>
      <trkpt lat="28.7838720" lon="-17.8436050">
        <ele>1597.6</ele>
        <time>2020-11-16T14:40:30Z</time>
      </trkpt>
      <trkpt lat="28.7838720" lon="-17.8436050">
        <ele>1597.6</ele>
        <time>2020-11-16T14:40:31Z</time>
      </trkpt>
      <trkpt lat="28.7839150" lon="-17.8436320">
        <ele>1597.2</ele>
        <time>2020-11-16T14:40:32Z</time>
      </trkpt>
      <trkpt lat="28.7839150" lon="-17.8436320">
        <ele>1597.2</ele>
        <time>2020-11-16T14:40:33Z</time>
      </trkpt>
      <trkpt lat="28.7839700" lon="-17.8436630">
        <ele>1596.5</ele>
        <time>2020-11-16T14:40:34Z</time>
      </trkpt>
      <trkpt lat="28.7839700" lon="-17.8436630">
        <ele>1596.5</ele>
        <time>2020-11-16T14:40:35Z</time>
      </trkpt>
      <trkpt lat="28.7840420" lon="-17.8437070">
        <ele>1595.7</ele>
        <time>2020-11-16T14:40:36Z</time>
      </trkpt>
      <trkpt lat="28.7840420" lon="-17.8437070">
        <ele>1595.7</ele>
        <time>2020-11-16T14:40:37Z</time>
      </trkpt>
      <trkpt lat="28.7841180" lon="-17.8437400">
        <ele>1594.9</ele>
        <time>2020-11-16T14:40:38Z</time>
      </trkpt>
      <trkpt lat="28.7841180" lon="-17.8437400">
        <ele>1594.9</ele>
        <time>2020-11-16T14:40:39Z</time>
      </trkpt>
      <trkpt lat="28.7841930" lon="-17.8437650">
        <ele>1594.1</ele>
        <time>2020-11-16T14:40:40Z</time>
      </trkpt>
      <trkpt lat="28.7841930" lon="-17.8437650">
        <ele>1594.1</ele>
        <time>2020-11-16T14:40:41Z</time>
      </trkpt>
      <trkpt lat="28.7842630" lon="-17.8437950">
        <ele>1593.4</ele>
        <time>2020-11-16T14:40:42Z</time>
      </trkpt>
      <trkpt lat="28.7842980" lon="-17.8438080">
        <ele>1593.0</ele>
        <time>2020-11-16T14:40:43Z</time>
      </trkpt>
      <trkpt lat="28.7842980" lon="-17.8438080">
        <ele>1593.0</ele>
        <time>2020-11-16T14:40:44Z</time>
      </trkpt>
      <trkpt lat="28.7843720" lon="-17.8438320">
        <ele>1592.2</ele>
        <time>2020-11-16T14:40:45Z</time>
      </trkpt>
      <trkpt lat="28.7844080" lon="-17.8438480">
        <ele>1591.8</ele>
        <time>2020-11-16T14:40:46Z</time>
      </trkpt>
      <trkpt lat="28.7844080" lon="-17.8438480">
        <ele>1591.8</ele>
        <time>2020-11-16T14:40:47Z</time>
      </trkpt>
      <trkpt lat="28.7844930" lon="-17.8438670">
        <ele>1591.0</ele>
        <time>2020-11-16T14:40:48Z</time>
      </trkpt>
      <trkpt lat="28.7844930" lon="-17.8438670">
        <ele>1591.0</ele>
        <time>2020-11-16T14:40:49Z</time>
      </trkpt>
      <trkpt lat="28.7845630" lon="-17.8439000">
        <ele>1590.2</ele>
        <time>2020-11-16T14:40:50Z</time>
      </trkpt>
      <trkpt lat="28.7845630" lon="-17.8439000">
        <ele>1590.2</ele>
        <time>2020-11-16T14:40:51Z</time>
      </trkpt>
      <trkpt lat="28.7845830" lon="-17.8439800">
        <ele>1589.5</ele>
        <time>2020-11-16T14:40:52Z</time>
      </trkpt>
      <trkpt lat="28.7845830" lon="-17.8439800">
        <ele>1589.5</ele>
        <time>2020-11-16T14:40:53Z</time>
      </trkpt>
      <trkpt lat="28.7845720" lon="-17.8440550">
        <ele>1588.8</ele>
        <time>2020-11-16T14:40:54Z</time>
      </trkpt>
      <trkpt lat="28.7845720" lon="-17.8440550">
        <ele>1588.8</ele>
        <time>2020-11-16T14:40:55Z</time>
      </trkpt>
      <trkpt lat="28.7845500" lon="-17.8441130">
        <ele>1588.3</ele>
        <time>2020-11-16T14:40:56Z</time>
      </trkpt>
      <trkpt lat="28.7845500" lon="-17.8441130">
        <ele>1588.3</ele>
        <time>2020-11-16T14:40:57Z</time>
      </trkpt>
      <trkpt lat="28.7845100" lon="-17.8441700">
        <ele>1587.6</ele>
        <time>2020-11-16T14:40:58Z</time>
      </trkpt>
      <trkpt lat="28.7845100" lon="-17.8441700">
        <ele>1587.6</ele>
        <time>2020-11-16T14:40:59Z</time>
      </trkpt>
      <trkpt lat="28.7844620" lon="-17.8442470">
        <ele>1586.8</ele>
        <time>2020-11-16T14:41:00Z</time>
      </trkpt>
      <trkpt lat="28.7844620" lon="-17.8442470">
        <ele>1586.8</ele>
        <time>2020-11-16T14:41:01Z</time>
      </trkpt>
      <trkpt lat="28.7844000" lon="-17.8443230">
        <ele>1585.9</ele>
        <time>2020-11-16T14:41:02Z</time>
      </trkpt>
      <trkpt lat="28.7844000" lon="-17.8443230">
        <ele>1585.9</ele>
        <time>2020-11-16T14:41:03Z</time>
      </trkpt>
      <trkpt lat="28.7843650" lon="-17.8443930">
        <ele>1585.2</ele>
        <time>2020-11-16T14:41:04Z</time>
      </trkpt>
      <trkpt lat="28.7843650" lon="-17.8443930">
        <ele>1585.2</ele>
        <time>2020-11-16T14:41:05Z</time>
      </trkpt>
      <trkpt lat="28.7843420" lon="-17.8444420">
        <ele>1584.7</ele>
        <time>2020-11-16T14:41:06Z</time>
      </trkpt>
      <trkpt lat="28.7843420" lon="-17.8444420">
        <ele>1584.7</ele>
        <time>2020-11-16T14:41:07Z</time>
      </trkpt>
      <trkpt lat="28.7843250" lon="-17.8444870">
        <ele>1584.3</ele>
        <time>2020-11-16T14:41:08Z</time>
      </trkpt>
      <trkpt lat="28.7843250" lon="-17.8444870">
        <ele>1584.3</ele>
        <time>2020-11-16T14:41:09Z</time>
      </trkpt>
      <trkpt lat="28.7843070" lon="-17.8445420">
        <ele>1583.7</ele>
        <time>2020-11-16T14:41:10Z</time>
      </trkpt>
      <trkpt lat="28.7842970" lon="-17.8445750">
        <ele>1583.4</ele>
        <time>2020-11-16T14:41:11Z</time>
      </trkpt>
      <trkpt lat="28.7842970" lon="-17.8445750">
        <ele>1583.4</ele>
        <time>2020-11-16T14:41:12Z</time>
      </trkpt>
      <trkpt lat="28.7842780" lon="-17.8446420">
        <ele>1582.8</ele>
        <time>2020-11-16T14:41:13Z</time>
      </trkpt>
      <trkpt lat="28.7842670" lon="-17.8446780">
        <ele>1582.5</ele>
        <time>2020-11-16T14:41:14Z</time>
      </trkpt>
      <trkpt lat="28.7842670" lon="-17.8446780">
        <ele>1582.5</ele>
        <time>2020-11-16T14:41:15Z</time>
      </trkpt>
      <trkpt lat="28.7842450" lon="-17.8447470">
        <ele>1581.8</ele>
        <time>2020-11-16T14:41:16Z</time>
      </trkpt>
      <trkpt lat="28.7842450" lon="-17.8447470">
        <ele>1581.8</ele>
        <time>2020-11-16T14:41:17Z</time>
      </trkpt>
      <trkpt lat="28.7841980" lon="-17.8448370">
        <ele>1580.9</ele>
        <time>2020-11-16T14:41:18Z</time>
      </trkpt>
      <trkpt lat="28.7841980" lon="-17.8448370">
        <ele>1580.9</ele>
        <time>2020-11-16T14:41:19Z</time>
      </trkpt>
      <trkpt lat="28.7841580" lon="-17.8449250">
        <ele>1580.1</ele>
        <time>2020-11-16T14:41:20Z</time>
      </trkpt>
      <trkpt lat="28.7841580" lon="-17.8449250">
        <ele>1580.1</ele>
        <time>2020-11-16T14:41:21Z</time>
      </trkpt>
      <trkpt lat="28.7841320" lon="-17.8450000">
        <ele>1579.3</ele>
        <time>2020-11-16T14:41:22Z</time>
      </trkpt>
      <trkpt lat="28.7841320" lon="-17.8450000">
        <ele>1579.3</ele>
        <time>2020-11-16T14:41:23Z</time>
      </trkpt>
      <trkpt lat="28.7841180" lon="-17.8450800">
        <ele>1578.4</ele>
        <time>2020-11-16T14:41:24Z</time>
      </trkpt>
      <trkpt lat="28.7841120" lon="-17.8451070">
        <ele>1578.1</ele>
        <time>2020-11-16T14:41:25Z</time>
      </trkpt>
      <trkpt lat="28.7841120" lon="-17.8451070">
        <ele>1578.1</ele>
        <time>2020-11-16T14:41:26Z</time>
      </trkpt>
      <trkpt lat="28.7840820" lon="-17.8451730">
        <ele>1577.4</ele>
        <time>2020-11-16T14:41:27Z</time>
      </trkpt>
      <trkpt lat="28.7840820" lon="-17.8451730">
        <ele>1577.4</ele>
        <time>2020-11-16T14:41:28Z</time>
      </trkpt>
      <trkpt lat="28.7840750" lon="-17.8452200">
        <ele>1576.9</ele>
        <time>2020-11-16T14:41:29Z</time>
      </trkpt>
      <trkpt lat="28.7840670" lon="-17.8452480">
        <ele>1576.6</ele>
        <time>2020-11-16T14:41:30Z</time>
      </trkpt>
      <trkpt lat="28.7840670" lon="-17.8452480">
        <ele>1576.6</ele>
        <time>2020-11-16T14:41:31Z</time>
      </trkpt>
      <trkpt lat="28.7839980" lon="-17.8453180">
        <ele>1575.5</ele>
        <time>2020-11-16T14:41:32Z</time>
      </trkpt>
      <trkpt lat="28.7839980" lon="-17.8453180">
        <ele>1575.5</ele>
        <time>2020-11-16T14:41:33Z</time>
      </trkpt>
      <trkpt lat="28.7838930" lon="-17.8453920">
        <ele>1574.1</ele>
        <time>2020-11-16T14:41:34Z</time>
      </trkpt>
      <trkpt lat="28.7838930" lon="-17.8453920">
        <ele>1574.1</ele>
        <time>2020-11-16T14:41:35Z</time>
      </trkpt>
      <trkpt lat="28.7837820" lon="-17.8454600">
        <ele>1572.6</ele>
        <time>2020-11-16T14:41:36Z</time>
      </trkpt>
      <trkpt lat="28.7837820" lon="-17.8454600">
        <ele>1572.6</ele>
        <time>2020-11-16T14:41:37Z</time>
      </trkpt>
      <trkpt lat="28.7836420" lon="-17.8455080">
        <ele>1570.9</ele>
        <time>2020-11-16T14:41:38Z</time>
      </trkpt>
      <trkpt lat="28.7836420" lon="-17.8455080">
        <ele>1570.9</ele>
        <time>2020-11-16T14:41:39Z</time>
      </trkpt>
      <trkpt lat="28.7835380" lon="-17.8455450">
        <ele>1569.6</ele>
        <time>2020-11-16T14:41:40Z</time>
      </trkpt>
      <trkpt lat="28.7835380" lon="-17.8455450">
        <ele>1569.6</ele>
        <time>2020-11-16T14:41:41Z</time>
      </trkpt>
      <trkpt lat="28.7834780" lon="-17.8455900">
        <ele>1568.8</ele>
        <time>2020-11-16T14:41:42Z</time>
      </trkpt>
      <trkpt lat="28.7834780" lon="-17.8455900">
        <ele>1568.8</ele>
        <time>2020-11-16T14:41:43Z</time>
      </trkpt>
      <trkpt lat="28.7834630" lon="-17.8456480">
        <ele>1568.2</ele>
        <time>2020-11-16T14:41:44Z</time>
      </trkpt>
      <trkpt lat="28.7834630" lon="-17.8456480">
        <ele>1568.2</ele>
        <time>2020-11-16T14:41:45Z</time>
      </trkpt>
      <trkpt lat="28.7834870" lon="-17.8457150">
        <ele>1567.4</ele>
        <time>2020-11-16T14:41:46Z</time>
      </trkpt>
      <trkpt lat="28.7834870" lon="-17.8457150">
        <ele>1567.4</ele>
        <time>2020-11-16T14:41:47Z</time>
      </trkpt>
      <trkpt lat="28.7835280" lon="-17.8457970">
        <ele>1566.5</ele>
        <time>2020-11-16T14:41:48Z</time>
      </trkpt>
      <trkpt lat="28.7835570" lon="-17.8458430">
        <ele>1565.9</ele>
        <time>2020-11-16T14:41:49Z</time>
      </trkpt>
      <trkpt lat="28.7835870" lon="-17.8458950">
        <ele>1565.3</ele>
        <time>2020-11-16T14:41:50Z</time>
      </trkpt>
      <trkpt lat="28.7835870" lon="-17.8458950">
        <ele>1565.3</ele>
        <time>2020-11-16T14:41:51Z</time>
      </trkpt>
      <trkpt lat="28.7836480" lon="-17.8459930">
        <ele>1564.0</ele>
        <time>2020-11-16T14:41:52Z</time>
      </trkpt>
      <trkpt lat="28.7836480" lon="-17.8459930">
        <ele>1564.0</ele>
        <time>2020-11-16T14:41:53Z</time>
      </trkpt>
      <trkpt lat="28.7837020" lon="-17.8460880">
        <ele>1562.9</ele>
        <time>2020-11-16T14:41:54Z</time>
      </trkpt>
      <trkpt lat="28.7837020" lon="-17.8460880">
        <ele>1562.9</ele>
        <time>2020-11-16T14:41:55Z</time>
      </trkpt>
      <trkpt lat="28.7837570" lon="-17.8461650">
        <ele>1561.9</ele>
        <time>2020-11-16T14:41:56Z</time>
      </trkpt>
      <trkpt lat="28.7837570" lon="-17.8461650">
        <ele>1561.9</ele>
        <time>2020-11-16T14:41:57Z</time>
      </trkpt>
      <trkpt lat="28.7837880" lon="-17.8462200">
        <ele>1561.2</ele>
        <time>2020-11-16T14:41:58Z</time>
      </trkpt>
      <trkpt lat="28.7837880" lon="-17.8462200">
        <ele>1561.2</ele>
        <time>2020-11-16T14:41:59Z</time>
      </trkpt>
      <trkpt lat="28.7838180" lon="-17.8462820">
        <ele>1560.5</ele>
        <time>2020-11-16T14:42:00Z</time>
      </trkpt>
      <trkpt lat="28.7838180" lon="-17.8462820">
        <ele>1560.5</ele>
        <time>2020-11-16T14:42:01Z</time>
      </trkpt>
      <trkpt lat="28.7838330" lon="-17.8463620">
        <ele>1559.6</ele>
        <time>2020-11-16T14:42:02Z</time>
      </trkpt>
      <trkpt lat="28.7838330" lon="-17.8463620">
        <ele>1559.6</ele>
        <time>2020-11-16T14:42:03Z</time>
      </trkpt>
      <trkpt lat="28.7838700" lon="-17.8464270">
        <ele>1558.9</ele>
        <time>2020-11-16T14:42:04Z</time>
      </trkpt>
      <trkpt lat="28.7838950" lon="-17.8464580">
        <ele>1558.4</ele>
        <time>2020-11-16T14:42:05Z</time>
      </trkpt>
      <trkpt lat="28.7838950" lon="-17.8464580">
        <ele>1558.4</ele>
        <time>2020-11-16T14:42:06Z</time>
      </trkpt>
      <trkpt lat="28.7839350" lon="-17.8464820">
        <ele>1557.9</ele>
        <time>2020-11-16T14:42:07Z</time>
      </trkpt>
      <trkpt lat="28.7839350" lon="-17.8464820">
        <ele>1557.9</ele>
        <time>2020-11-16T14:42:08Z</time>
      </trkpt>
      <trkpt lat="28.7839780" lon="-17.8464900">
        <ele>1557.4</ele>
        <time>2020-11-16T14:42:09Z</time>
      </trkpt>
      <trkpt lat="28.7839780" lon="-17.8464900">
        <ele>1557.4</ele>
        <time>2020-11-16T14:42:10Z</time>
      </trkpt>
      <trkpt lat="28.7840480" lon="-17.8464930">
        <ele>1556.6</ele>
        <time>2020-11-16T14:42:11Z</time>
      </trkpt>
      <trkpt lat="28.7840480" lon="-17.8464930">
        <ele>1556.6</ele>
        <time>2020-11-16T14:42:12Z</time>
      </trkpt>
      <trkpt lat="28.7841050" lon="-17.8465150">
        <ele>1555.9</ele>
        <time>2020-11-16T14:42:13Z</time>
      </trkpt>
      <trkpt lat="28.7841050" lon="-17.8465150">
        <ele>1555.9</ele>
        <time>2020-11-16T14:42:14Z</time>
      </trkpt>
      <trkpt lat="28.7841880" lon="-17.8465150">
        <ele>1554.9</ele>
        <time>2020-11-16T14:42:15Z</time>
      </trkpt>
      <trkpt lat="28.7841880" lon="-17.8465150">
        <ele>1554.9</ele>
        <time>2020-11-16T14:42:16Z</time>
      </trkpt>
      <trkpt lat="28.7842500" lon="-17.8465100">
        <ele>1554.2</ele>
        <time>2020-11-16T14:42:17Z</time>
      </trkpt>
      <trkpt lat="28.7842500" lon="-17.8465100">
        <ele>1554.2</ele>
        <time>2020-11-16T14:42:18Z</time>
      </trkpt>
      <trkpt lat="28.7843120" lon="-17.8464970">
        <ele>1553.4</ele>
        <time>2020-11-16T14:42:19Z</time>
      </trkpt>
      <trkpt lat="28.7843120" lon="-17.8464970">
        <ele>1553.4</ele>
        <time>2020-11-16T14:42:20Z</time>
      </trkpt>
      <trkpt lat="28.7843580" lon="-17.8464820">
        <ele>1552.9</ele>
        <time>2020-11-16T14:42:21Z</time>
      </trkpt>
      <trkpt lat="28.7843820" lon="-17.8464780">
        <ele>1552.6</ele>
        <time>2020-11-16T14:42:22Z</time>
      </trkpt>
      <trkpt lat="28.7843820" lon="-17.8464780">
        <ele>1552.6</ele>
        <time>2020-11-16T14:42:23Z</time>
      </trkpt>
      <trkpt lat="28.7844530" lon="-17.8464680">
        <ele>1551.8</ele>
        <time>2020-11-16T14:42:24Z</time>
      </trkpt>
      <trkpt lat="28.7844530" lon="-17.8464680">
        <ele>1551.8</ele>
        <time>2020-11-16T14:42:25Z</time>
      </trkpt>
      <trkpt lat="28.7845180" lon="-17.8464580">
        <ele>1551.0</ele>
        <time>2020-11-16T14:42:26Z</time>
      </trkpt>
      <trkpt lat="28.7845180" lon="-17.8464580">
        <ele>1551.0</ele>
        <time>2020-11-16T14:42:27Z</time>
      </trkpt>
      <trkpt lat="28.7846200" lon="-17.8464430">
        <ele>1549.8</ele>
        <time>2020-11-16T14:42:28Z</time>
      </trkpt>
      <trkpt lat="28.7846200" lon="-17.8464430">
        <ele>1549.8</ele>
        <time>2020-11-16T14:42:29Z</time>
      </trkpt>
      <trkpt lat="28.7847520" lon="-17.8464230">
        <ele>1548.3</ele>
        <time>2020-11-16T14:42:30Z</time>
      </trkpt>
      <trkpt lat="28.7847520" lon="-17.8464230">
        <ele>1548.3</ele>
        <time>2020-11-16T14:42:31Z</time>
      </trkpt>
      <trkpt lat="28.7848450" lon="-17.8464000">
        <ele>1547.2</ele>
        <time>2020-11-16T14:42:32Z</time>
      </trkpt>
      <trkpt lat="28.7848450" lon="-17.8464000">
        <ele>1547.2</ele>
        <time>2020-11-16T14:42:33Z</time>
      </trkpt>
      <trkpt lat="28.7849150" lon="-17.8463920">
        <ele>1546.3</ele>
        <time>2020-11-16T14:42:34Z</time>
      </trkpt>
      <trkpt lat="28.7849150" lon="-17.8463920">
        <ele>1546.3</ele>
        <time>2020-11-16T14:42:35Z</time>
      </trkpt>
      <trkpt lat="28.7850080" lon="-17.8463950">
        <ele>1545.2</ele>
        <time>2020-11-16T14:42:36Z</time>
      </trkpt>
      <trkpt lat="28.7850080" lon="-17.8463950">
        <ele>1545.2</ele>
        <time>2020-11-16T14:42:37Z</time>
      </trkpt>
      <trkpt lat="28.7850770" lon="-17.8464180">
        <ele>1544.4</ele>
        <time>2020-11-16T14:42:38Z</time>
      </trkpt>
      <trkpt lat="28.7850770" lon="-17.8464180">
        <ele>1544.4</ele>
        <time>2020-11-16T14:42:39Z</time>
      </trkpt>
      <trkpt lat="28.7851300" lon="-17.8464420">
        <ele>1543.7</ele>
        <time>2020-11-16T14:42:40Z</time>
      </trkpt>
      <trkpt lat="28.7851520" lon="-17.8464430">
        <ele>1543.5</ele>
        <time>2020-11-16T14:42:41Z</time>
      </trkpt>
      <trkpt lat="28.7851520" lon="-17.8464430">
        <ele>1543.5</ele>
        <time>2020-11-16T14:42:42Z</time>
      </trkpt>
      <trkpt lat="28.7852020" lon="-17.8464400">
        <ele>1542.9</ele>
        <time>2020-11-16T14:42:43Z</time>
      </trkpt>
      <trkpt lat="28.7852020" lon="-17.8464400">
        <ele>1542.9</ele>
        <time>2020-11-16T14:42:44Z</time>
      </trkpt>
      <trkpt lat="28.7852400" lon="-17.8464330">
        <ele>1542.5</ele>
        <time>2020-11-16T14:42:45Z</time>
      </trkpt>
      <trkpt lat="28.7852400" lon="-17.8464330">
        <ele>1542.5</ele>
        <time>2020-11-16T14:42:46Z</time>
      </trkpt>
      <trkpt lat="28.7852400" lon="-17.8464330">
        <ele>1542.5</ele>
        <time>2020-11-16T14:42:47Z</time>
      </trkpt>
      <trkpt lat="28.7852400" lon="-17.8464330">
        <ele>1542.5</ele>
        <time>2020-11-16T14:43:30Z</time>
      </trkpt>
      <trkpt lat="28.7854320" lon="-17.8464350">
        <ele>1540.2</ele>
        <time>2020-11-16T14:43:31Z</time>
      </trkpt>
      <trkpt lat="28.7854320" lon="-17.8464350">
        <ele>1540.2</ele>
        <time>2020-11-16T14:43:32Z</time>
      </trkpt>
      <trkpt lat="28.7854720" lon="-17.8464450">
        <ele>1539.7</ele>
        <time>2020-11-16T14:43:33Z</time>
      </trkpt>
      <trkpt lat="28.7855050" lon="-17.8464380">
        <ele>1539.4</ele>
        <time>2020-11-16T14:43:34Z</time>
      </trkpt>
      <trkpt lat="28.7855050" lon="-17.8464380">
        <ele>1539.4</ele>
        <time>2020-11-16T14:43:35Z</time>
      </trkpt>
      <trkpt lat="28.7855680" lon="-17.8464350">
        <ele>1538.6</ele>
        <time>2020-11-16T14:43:36Z</time>
      </trkpt>
      <trkpt lat="28.7855680" lon="-17.8464350">
        <ele>1538.6</ele>
        <time>2020-11-16T14:43:37Z</time>
      </trkpt>
      <trkpt lat="28.7856200" lon="-17.8464430">
        <ele>1538.0</ele>
        <time>2020-11-16T14:43:38Z</time>
      </trkpt>
      <trkpt lat="28.7856200" lon="-17.8464430">
        <ele>1538.0</ele>
        <time>2020-11-16T14:43:39Z</time>
      </trkpt>
      <trkpt lat="28.7856800" lon="-17.8464650">
        <ele>1537.3</ele>
        <time>2020-11-16T14:43:40Z</time>
      </trkpt>
      <trkpt lat="28.7856800" lon="-17.8464650">
        <ele>1537.3</ele>
        <time>2020-11-16T14:43:41Z</time>
      </trkpt>
      <trkpt lat="28.7857470" lon="-17.8464770">
        <ele>1536.5</ele>
        <time>2020-11-16T14:43:42Z</time>
      </trkpt>
      <trkpt lat="28.7857780" lon="-17.8464870">
        <ele>1536.1</ele>
        <time>2020-11-16T14:43:43Z</time>
      </trkpt>
      <trkpt lat="28.7857780" lon="-17.8464870">
        <ele>1536.1</ele>
        <time>2020-11-16T14:43:44Z</time>
      </trkpt>
      <trkpt lat="28.7858430" lon="-17.8465030">
        <ele>1535.3</ele>
        <time>2020-11-16T14:43:45Z</time>
      </trkpt>
      <trkpt lat="28.7858430" lon="-17.8465030">
        <ele>1535.3</ele>
        <time>2020-11-16T14:43:46Z</time>
      </trkpt>
      <trkpt lat="28.7859020" lon="-17.8465080">
        <ele>1534.6</ele>
        <time>2020-11-16T14:43:47Z</time>
      </trkpt>
      <trkpt lat="28.7859020" lon="-17.8465080">
        <ele>1534.6</ele>
        <time>2020-11-16T14:43:48Z</time>
      </trkpt>
      <trkpt lat="28.7860030" lon="-17.8464850">
        <ele>1533.4</ele>
        <time>2020-11-16T14:43:49Z</time>
      </trkpt>
      <trkpt lat="28.7860030" lon="-17.8464850">
        <ele>1533.4</ele>
        <time>2020-11-16T14:43:50Z</time>
      </trkpt>
      <trkpt lat="28.7860750" lon="-17.8464870">
        <ele>1532.6</ele>
        <time>2020-11-16T14:43:51Z</time>
      </trkpt>
      <trkpt lat="28.7860750" lon="-17.8464870">
        <ele>1532.6</ele>
        <time>2020-11-16T14:43:52Z</time>
      </trkpt>
      <trkpt lat="28.7861450" lon="-17.8464880">
        <ele>1531.8</ele>
        <time>2020-11-16T14:43:53Z</time>
      </trkpt>
      <trkpt lat="28.7861450" lon="-17.8464880">
        <ele>1531.8</ele>
        <time>2020-11-16T14:43:54Z</time>
      </trkpt>
      <trkpt lat="28.7862150" lon="-17.8464950">
        <ele>1531.0</ele>
        <time>2020-11-16T14:43:55Z</time>
      </trkpt>
      <trkpt lat="28.7862150" lon="-17.8464950">
        <ele>1531.0</ele>
        <time>2020-11-16T14:43:56Z</time>
      </trkpt>
      <trkpt lat="28.7862930" lon="-17.8464950">
        <ele>1530.1</ele>
        <time>2020-11-16T14:43:57Z</time>
      </trkpt>
      <trkpt lat="28.7862930" lon="-17.8464950">
        <ele>1530.1</ele>
        <time>2020-11-16T14:43:58Z</time>
      </trkpt>
      <trkpt lat="28.7864050" lon="-17.8464500">
        <ele>1528.7</ele>
        <time>2020-11-16T14:43:59Z</time>
      </trkpt>
      <trkpt lat="28.7864380" lon="-17.8464500">
        <ele>1528.3</ele>
        <time>2020-11-16T14:44:00Z</time>
      </trkpt>
      <trkpt lat="28.7864380" lon="-17.8464500">
        <ele>1528.3</ele>
        <time>2020-11-16T14:44:01Z</time>
      </trkpt>
      <trkpt lat="28.7865120" lon="-17.8464500">
        <ele>1527.4</ele>
        <time>2020-11-16T14:44:02Z</time>
      </trkpt>
      <trkpt lat="28.7865120" lon="-17.8464500">
        <ele>1527.4</ele>
        <time>2020-11-16T14:44:03Z</time>
      </trkpt>
      <trkpt lat="28.7865750" lon="-17.8464450">
        <ele>1526.7</ele>
        <time>2020-11-16T14:44:04Z</time>
      </trkpt>
      <trkpt lat="28.7865750" lon="-17.8464450">
        <ele>1526.7</ele>
        <time>2020-11-16T14:44:05Z</time>
      </trkpt>
      <trkpt lat="28.7866150" lon="-17.8464300">
        <ele>1526.2</ele>
        <time>2020-11-16T14:44:06Z</time>
      </trkpt>
      <trkpt lat="28.7866150" lon="-17.8464300">
        <ele>1526.2</ele>
        <time>2020-11-16T14:44:07Z</time>
      </trkpt>
      <trkpt lat="28.7866800" lon="-17.8464200">
        <ele>1525.4</ele>
        <time>2020-11-16T14:44:08Z</time>
      </trkpt>
      <trkpt lat="28.7866800" lon="-17.8464200">
        <ele>1525.4</ele>
        <time>2020-11-16T14:44:09Z</time>
      </trkpt>
      <trkpt lat="28.7867270" lon="-17.8464070">
        <ele>1524.9</ele>
        <time>2020-11-16T14:44:10Z</time>
      </trkpt>
      <trkpt lat="28.7867270" lon="-17.8464070">
        <ele>1524.9</ele>
        <time>2020-11-16T14:44:11Z</time>
      </trkpt>
      <trkpt lat="28.7867850" lon="-17.8463730">
        <ele>1524.1</ele>
        <time>2020-11-16T14:44:12Z</time>
      </trkpt>
      <trkpt lat="28.7867850" lon="-17.8463730">
        <ele>1524.1</ele>
        <time>2020-11-16T14:44:13Z</time>
      </trkpt>
      <trkpt lat="28.7869130" lon="-17.8463420">
        <ele>1522.6</ele>
        <time>2020-11-16T14:44:14Z</time>
      </trkpt>
      <trkpt lat="28.7869130" lon="-17.8463420">
        <ele>1522.6</ele>
        <time>2020-11-16T14:44:15Z</time>
      </trkpt>
      <trkpt lat="28.7870380" lon="-17.8463520">
        <ele>1521.1</ele>
        <time>2020-11-16T14:44:16Z</time>
      </trkpt>
      <trkpt lat="28.7870380" lon="-17.8463520">
        <ele>1521.1</ele>
        <time>2020-11-16T14:44:17Z</time>
      </trkpt>
      <trkpt lat="28.7871070" lon="-17.8464000">
        <ele>1520.2</ele>
        <time>2020-11-16T14:44:18Z</time>
      </trkpt>
      <trkpt lat="28.7871070" lon="-17.8464000">
        <ele>1520.2</ele>
        <time>2020-11-16T14:44:19Z</time>
      </trkpt>
      <trkpt lat="28.7871720" lon="-17.8464630">
        <ele>1519.2</ele>
        <time>2020-11-16T14:44:20Z</time>
      </trkpt>
      <trkpt lat="28.7871720" lon="-17.8464630">
        <ele>1519.2</ele>
        <time>2020-11-16T14:44:21Z</time>
      </trkpt>
      <trkpt lat="28.7872200" lon="-17.8465280">
        <ele>1518.3</ele>
        <time>2020-11-16T14:44:22Z</time>
      </trkpt>
      <trkpt lat="28.7872200" lon="-17.8465280">
        <ele>1518.3</ele>
        <time>2020-11-16T14:44:23Z</time>
      </trkpt>
      <trkpt lat="28.7872670" lon="-17.8465950">
        <ele>1517.5</ele>
        <time>2020-11-16T14:44:24Z</time>
      </trkpt>
      <trkpt lat="28.7872670" lon="-17.8465950">
        <ele>1517.5</ele>
        <time>2020-11-16T14:44:25Z</time>
      </trkpt>
      <trkpt lat="28.7873070" lon="-17.8466580">
        <ele>1516.7</ele>
        <time>2020-11-16T14:44:26Z</time>
      </trkpt>
      <trkpt lat="28.7873070" lon="-17.8466580">
        <ele>1516.7</ele>
        <time>2020-11-16T14:44:27Z</time>
      </trkpt>
      <trkpt lat="28.7873430" lon="-17.8467270">
        <ele>1515.8</ele>
        <time>2020-11-16T14:44:28Z</time>
      </trkpt>
      <trkpt lat="28.7873430" lon="-17.8467270">
        <ele>1515.8</ele>
        <time>2020-11-16T14:44:29Z</time>
      </trkpt>
      <trkpt lat="28.7873800" lon="-17.8467980">
        <ele>1515.0</ele>
        <time>2020-11-16T14:44:30Z</time>
      </trkpt>
      <trkpt lat="28.7873980" lon="-17.8468370">
        <ele>1514.5</ele>
        <time>2020-11-16T14:44:31Z</time>
      </trkpt>
      <trkpt lat="28.7874100" lon="-17.8468770">
        <ele>1514.1</ele>
        <time>2020-11-16T14:44:32Z</time>
      </trkpt>
      <trkpt lat="28.7874100" lon="-17.8468770">
        <ele>1514.1</ele>
        <time>2020-11-16T14:44:33Z</time>
      </trkpt>
      <trkpt lat="28.7874180" lon="-17.8469530">
        <ele>1513.3</ele>
        <time>2020-11-16T14:44:34Z</time>
      </trkpt>
      <trkpt lat="28.7874180" lon="-17.8469530">
        <ele>1513.3</ele>
        <time>2020-11-16T14:44:35Z</time>
      </trkpt>
      <trkpt lat="28.7874250" lon="-17.8470280">
        <ele>1512.6</ele>
        <time>2020-11-16T14:44:36Z</time>
      </trkpt>
      <trkpt lat="28.7874250" lon="-17.8470280">
        <ele>1512.6</ele>
        <time>2020-11-16T14:44:37Z</time>
      </trkpt>
      <trkpt lat="28.7874480" lon="-17.8471170">
        <ele>1511.6</ele>
        <time>2020-11-16T14:44:38Z</time>
      </trkpt>
      <trkpt lat="28.7874480" lon="-17.8471170">
        <ele>1511.6</ele>
        <time>2020-11-16T14:44:39Z</time>
      </trkpt>
      <trkpt lat="28.7874470" lon="-17.8471980">
        <ele>1510.8</ele>
        <time>2020-11-16T14:44:40Z</time>
      </trkpt>
      <trkpt lat="28.7874470" lon="-17.8471980">
        <ele>1510.8</ele>
        <time>2020-11-16T14:44:41Z</time>
      </trkpt>
      <trkpt lat="28.7874620" lon="-17.8472750">
        <ele>1510.0</ele>
        <time>2020-11-16T14:44:42Z</time>
      </trkpt>
      <trkpt lat="28.7874780" lon="-17.8473130">
        <ele>1509.6</ele>
        <time>2020-11-16T14:44:43Z</time>
      </trkpt>
      <trkpt lat="28.7875180" lon="-17.8473470">
        <ele>1509.0</ele>
        <time>2020-11-16T14:44:44Z</time>
      </trkpt>
      <trkpt lat="28.7875180" lon="-17.8473470">
        <ele>1509.0</ele>
        <time>2020-11-16T14:44:45Z</time>
      </trkpt>
      <trkpt lat="28.7876230" lon="-17.8473780">
        <ele>1507.7</ele>
        <time>2020-11-16T14:44:46Z</time>
      </trkpt>
      <trkpt lat="28.7876230" lon="-17.8473780">
        <ele>1507.7</ele>
        <time>2020-11-16T14:44:47Z</time>
      </trkpt>
      <trkpt lat="28.7876670" lon="-17.8473480">
        <ele>1507.1</ele>
        <time>2020-11-16T14:44:48Z</time>
      </trkpt>
      <trkpt lat="28.7876670" lon="-17.8473480">
        <ele>1507.1</ele>
        <time>2020-11-16T14:44:49Z</time>
      </trkpt>
      <trkpt lat="28.7877020" lon="-17.8472980">
        <ele>1506.5</ele>
        <time>2020-11-16T14:44:50Z</time>
      </trkpt>
      <trkpt lat="28.7877020" lon="-17.8472980">
        <ele>1506.5</ele>
        <time>2020-11-16T14:44:51Z</time>
      </trkpt>
      <trkpt lat="28.7877330" lon="-17.8472430">
        <ele>1505.8</ele>
        <time>2020-11-16T14:44:52Z</time>
      </trkpt>
      <trkpt lat="28.7877430" lon="-17.8472080">
        <ele>1505.4</ele>
        <time>2020-11-16T14:44:53Z</time>
      </trkpt>
      <trkpt lat="28.7877430" lon="-17.8472080">
        <ele>1505.4</ele>
        <time>2020-11-16T14:44:54Z</time>
      </trkpt>
      <trkpt lat="28.7877680" lon="-17.8471420">
        <ele>1504.7</ele>
        <time>2020-11-16T14:44:55Z</time>
      </trkpt>
      <trkpt lat="28.7877680" lon="-17.8471420">
        <ele>1504.7</ele>
        <time>2020-11-16T14:44:56Z</time>
      </trkpt>
      <trkpt lat="28.7878070" lon="-17.8470600">
        <ele>1503.7</ele>
        <time>2020-11-16T14:44:57Z</time>
      </trkpt>
      <trkpt lat="28.7878070" lon="-17.8470600">
        <ele>1503.7</ele>
        <time>2020-11-16T14:44:58Z</time>
      </trkpt>
      <trkpt lat="28.7878370" lon="-17.8469950">
        <ele>1503.0</ele>
        <time>2020-11-16T14:44:59Z</time>
      </trkpt>
      <trkpt lat="28.7878370" lon="-17.8469950">
        <ele>1503.0</ele>
        <time>2020-11-16T14:45:00Z</time>
      </trkpt>
      <trkpt lat="28.7878670" lon="-17.8469300">
        <ele>1502.2</ele>
        <time>2020-11-16T14:45:01Z</time>
      </trkpt>
      <trkpt lat="28.7878670" lon="-17.8469300">
        <ele>1502.2</ele>
        <time>2020-11-16T14:45:02Z</time>
      </trkpt>
      <trkpt lat="28.7878850" lon="-17.8468530">
        <ele>1501.4</ele>
        <time>2020-11-16T14:45:03Z</time>
      </trkpt>
      <trkpt lat="28.7878850" lon="-17.8468530">
        <ele>1501.4</ele>
        <time>2020-11-16T14:45:04Z</time>
      </trkpt>
      <trkpt lat="28.7879150" lon="-17.8467800">
        <ele>1500.6</ele>
        <time>2020-11-16T14:45:05Z</time>
      </trkpt>
      <trkpt lat="28.7879150" lon="-17.8467800">
        <ele>1500.6</ele>
        <time>2020-11-16T14:45:06Z</time>
      </trkpt>
      <trkpt lat="28.7879270" lon="-17.8467020">
        <ele>1499.8</ele>
        <time>2020-11-16T14:45:07Z</time>
      </trkpt>
      <trkpt lat="28.7879270" lon="-17.8467020">
        <ele>1499.8</ele>
        <time>2020-11-16T14:45:08Z</time>
      </trkpt>
      <trkpt lat="28.7879220" lon="-17.8466130">
        <ele>1498.9</ele>
        <time>2020-11-16T14:45:09Z</time>
      </trkpt>
      <trkpt lat="28.7879220" lon="-17.8466130">
        <ele>1498.9</ele>
        <time>2020-11-16T14:45:10Z</time>
      </trkpt>
      <trkpt lat="28.7879170" lon="-17.8465270">
        <ele>1498.0</ele>
        <time>2020-11-16T14:45:11Z</time>
      </trkpt>
      <trkpt lat="28.7879170" lon="-17.8465270">
        <ele>1498.0</ele>
        <time>2020-11-16T14:45:12Z</time>
      </trkpt>
      <trkpt lat="28.7878880" lon="-17.8464530">
        <ele>1497.2</ele>
        <time>2020-11-16T14:45:13Z</time>
      </trkpt>
      <trkpt lat="28.7878880" lon="-17.8464530">
        <ele>1497.2</ele>
        <time>2020-11-16T14:45:14Z</time>
      </trkpt>
      <trkpt lat="28.7878850" lon="-17.8463830">
        <ele>1496.5</ele>
        <time>2020-11-16T14:45:15Z</time>
      </trkpt>
      <trkpt lat="28.7878850" lon="-17.8463830">
        <ele>1496.5</ele>
        <time>2020-11-16T14:45:16Z</time>
      </trkpt>
      <trkpt lat="28.7879100" lon="-17.8463030">
        <ele>1495.6</ele>
        <time>2020-11-16T14:45:17Z</time>
      </trkpt>
      <trkpt lat="28.7879100" lon="-17.8463030">
        <ele>1495.6</ele>
        <time>2020-11-16T14:45:18Z</time>
      </trkpt>
      <trkpt lat="28.7879730" lon="-17.8462730">
        <ele>1494.8</ele>
        <time>2020-11-16T14:45:19Z</time>
      </trkpt>
      <trkpt lat="28.7880030" lon="-17.8462820">
        <ele>1494.4</ele>
        <time>2020-11-16T14:45:20Z</time>
      </trkpt>
      <trkpt lat="28.7880030" lon="-17.8462820">
        <ele>1494.4</ele>
        <time>2020-11-16T14:45:21Z</time>
      </trkpt>
      <trkpt lat="28.7880420" lon="-17.8463180">
        <ele>1493.8</ele>
        <time>2020-11-16T14:45:22Z</time>
      </trkpt>
      <trkpt lat="28.7880420" lon="-17.8463180">
        <ele>1493.8</ele>
        <time>2020-11-16T14:45:23Z</time>
      </trkpt>
      <trkpt lat="28.7880720" lon="-17.8463620">
        <ele>1493.3</ele>
        <time>2020-11-16T14:45:24Z</time>
      </trkpt>
      <trkpt lat="28.7880820" lon="-17.8463880">
        <ele>1493.0</ele>
        <time>2020-11-16T14:45:25Z</time>
      </trkpt>
      <trkpt lat="28.7880920" lon="-17.8464120">
        <ele>1492.7</ele>
        <time>2020-11-16T14:45:26Z</time>
      </trkpt>
      <trkpt lat="28.7880920" lon="-17.8464120">
        <ele>1492.7</ele>
        <time>2020-11-16T14:45:27Z</time>
      </trkpt>
      <trkpt lat="28.7881150" lon="-17.8464570">
        <ele>1492.2</ele>
        <time>2020-11-16T14:45:28Z</time>
      </trkpt>
      <trkpt lat="28.7881150" lon="-17.8464570">
        <ele>1492.2</ele>
        <time>2020-11-16T14:45:29Z</time>
      </trkpt>
      <trkpt lat="28.7881230" lon="-17.8465070">
        <ele>1491.7</ele>
        <time>2020-11-16T14:45:30Z</time>
      </trkpt>
      <trkpt lat="28.7881230" lon="-17.8465070">
        <ele>1491.7</ele>
        <time>2020-11-16T14:45:31Z</time>
      </trkpt>
      <trkpt lat="28.7881380" lon="-17.8465700">
        <ele>1491.0</ele>
        <time>2020-11-16T14:45:32Z</time>
      </trkpt>
      <trkpt lat="28.7881380" lon="-17.8465700">
        <ele>1491.0</ele>
        <time>2020-11-16T14:45:33Z</time>
      </trkpt>
      <trkpt lat="28.7881620" lon="-17.8466480">
        <ele>1490.2</ele>
        <time>2020-11-16T14:45:34Z</time>
      </trkpt>
      <trkpt lat="28.7881620" lon="-17.8466480">
        <ele>1490.2</ele>
        <time>2020-11-16T14:45:35Z</time>
      </trkpt>
      <trkpt lat="28.7881830" lon="-17.8467130">
        <ele>1489.4</ele>
        <time>2020-11-16T14:45:36Z</time>
      </trkpt>
      <trkpt lat="28.7881830" lon="-17.8467130">
        <ele>1489.4</ele>
        <time>2020-11-16T14:45:37Z</time>
      </trkpt>
      <trkpt lat="28.7882070" lon="-17.8467730">
        <ele>1488.8</ele>
        <time>2020-11-16T14:45:38Z</time>
      </trkpt>
      <trkpt lat="28.7882070" lon="-17.8467730">
        <ele>1488.8</ele>
        <time>2020-11-16T14:45:39Z</time>
      </trkpt>
      <trkpt lat="28.7882230" lon="-17.8468300">
        <ele>1488.2</ele>
        <time>2020-11-16T14:45:40Z</time>
      </trkpt>
      <trkpt lat="28.7882230" lon="-17.8468300">
        <ele>1488.2</ele>
        <time>2020-11-16T14:45:41Z</time>
      </trkpt>
      <trkpt lat="28.7882380" lon="-17.8468800">
        <ele>1487.6</ele>
        <time>2020-11-16T14:45:42Z</time>
      </trkpt>
      <trkpt lat="28.7882380" lon="-17.8468800">
        <ele>1487.6</ele>
        <time>2020-11-16T14:45:43Z</time>
      </trkpt>
      <trkpt lat="28.7882550" lon="-17.8469380">
        <ele>1487.0</ele>
        <time>2020-11-16T14:45:44Z</time>
      </trkpt>
      <trkpt lat="28.7882550" lon="-17.8469380">
        <ele>1487.0</ele>
        <time>2020-11-16T14:45:45Z</time>
      </trkpt>
      <trkpt lat="28.7882850" lon="-17.8470100">
        <ele>1486.2</ele>
        <time>2020-11-16T14:45:46Z</time>
      </trkpt>
      <trkpt lat="28.7882850" lon="-17.8470100">
        <ele>1486.2</ele>
        <time>2020-11-16T14:45:47Z</time>
      </trkpt>
      <trkpt lat="28.7883430" lon="-17.8471200">
        <ele>1484.9</ele>
        <time>2020-11-16T14:45:48Z</time>
      </trkpt>
      <trkpt lat="28.7883430" lon="-17.8471200">
        <ele>1484.9</ele>
        <time>2020-11-16T14:45:49Z</time>
      </trkpt>
      <trkpt lat="28.7883680" lon="-17.8471900">
        <ele>1484.1</ele>
        <time>2020-11-16T14:45:50Z</time>
      </trkpt>
      <trkpt lat="28.7883680" lon="-17.8471900">
        <ele>1484.1</ele>
        <time>2020-11-16T14:45:51Z</time>
      </trkpt>
      <trkpt lat="28.7883820" lon="-17.8472630">
        <ele>1483.3</ele>
        <time>2020-11-16T14:45:52Z</time>
      </trkpt>
      <trkpt lat="28.7883820" lon="-17.8472630">
        <ele>1483.3</ele>
        <time>2020-11-16T14:45:53Z</time>
      </trkpt>
      <trkpt lat="28.7883730" lon="-17.8473100">
        <ele>1482.8</ele>
        <time>2020-11-16T14:45:54Z</time>
      </trkpt>
      <trkpt lat="28.7883730" lon="-17.8473100">
        <ele>1482.8</ele>
        <time>2020-11-16T14:45:55Z</time>
      </trkpt>
      <trkpt lat="28.7883650" lon="-17.8473650">
        <ele>1482.3</ele>
        <time>2020-11-16T14:45:56Z</time>
      </trkpt>
      <trkpt lat="28.7883650" lon="-17.8473650">
        <ele>1482.3</ele>
        <time>2020-11-16T14:45:57Z</time>
      </trkpt>
      <trkpt lat="28.7883730" lon="-17.8474420">
        <ele>1481.5</ele>
        <time>2020-11-16T14:45:58Z</time>
      </trkpt>
      <trkpt lat="28.7883950" lon="-17.8474700">
        <ele>1481.1</ele>
        <time>2020-11-16T14:45:59Z</time>
      </trkpt>
      <trkpt lat="28.7883950" lon="-17.8474700">
        <ele>1481.1</ele>
        <time>2020-11-16T14:46:00Z</time>
      </trkpt>
      <trkpt lat="28.7884630" lon="-17.8474820">
        <ele>1480.3</ele>
        <time>2020-11-16T14:46:01Z</time>
      </trkpt>
      <trkpt lat="28.7884630" lon="-17.8474820">
        <ele>1480.3</ele>
        <time>2020-11-16T14:46:02Z</time>
      </trkpt>
      <trkpt lat="28.7885180" lon="-17.8474370">
        <ele>1479.5</ele>
        <time>2020-11-16T14:46:03Z</time>
      </trkpt>
      <trkpt lat="28.7885380" lon="-17.8474000">
        <ele>1479.1</ele>
        <time>2020-11-16T14:46:04Z</time>
      </trkpt>
      <trkpt lat="28.7885380" lon="-17.8474000">
        <ele>1479.1</ele>
        <time>2020-11-16T14:46:05Z</time>
      </trkpt>
      <trkpt lat="28.7885670" lon="-17.8473130">
        <ele>1478.6</ele>
        <time>2020-11-16T14:46:06Z</time>
      </trkpt>
      <trkpt lat="28.7885670" lon="-17.8473130">
        <ele>1478.6</ele>
        <time>2020-11-16T14:46:07Z</time>
      </trkpt>
      <trkpt lat="28.7885920" lon="-17.8472300">
        <ele>1477.9</ele>
        <time>2020-11-16T14:46:08Z</time>
      </trkpt>
      <trkpt lat="28.7885920" lon="-17.8472300">
        <ele>1477.9</ele>
        <time>2020-11-16T14:46:09Z</time>
      </trkpt>
      <trkpt lat="28.7886000" lon="-17.8471380">
        <ele>1477.1</ele>
        <time>2020-11-16T14:46:10Z</time>
      </trkpt>
      <trkpt lat="28.7886000" lon="-17.8471380">
        <ele>1477.1</ele>
        <time>2020-11-16T14:46:11Z</time>
      </trkpt>
      <trkpt lat="28.7886280" lon="-17.8470550">
        <ele>1476.3</ele>
        <time>2020-11-16T14:46:12Z</time>
      </trkpt>
      <trkpt lat="28.7886280" lon="-17.8470550">
        <ele>1476.3</ele>
        <time>2020-11-16T14:46:13Z</time>
      </trkpt>
      <trkpt lat="28.7886530" lon="-17.8469700">
        <ele>1475.5</ele>
        <time>2020-11-16T14:46:14Z</time>
      </trkpt>
      <trkpt lat="28.7886530" lon="-17.8469700">
        <ele>1475.5</ele>
        <time>2020-11-16T14:46:15Z</time>
      </trkpt>
      <trkpt lat="28.7886880" lon="-17.8468780">
        <ele>1474.8</ele>
        <time>2020-11-16T14:46:16Z</time>
      </trkpt>
      <trkpt lat="28.7886880" lon="-17.8468780">
        <ele>1474.8</ele>
        <time>2020-11-16T14:46:17Z</time>
      </trkpt>
      <trkpt lat="28.7887230" lon="-17.8467980">
        <ele>1474.2</ele>
        <time>2020-11-16T14:46:18Z</time>
      </trkpt>
      <trkpt lat="28.7887230" lon="-17.8467980">
        <ele>1474.2</ele>
        <time>2020-11-16T14:46:19Z</time>
      </trkpt>
      <trkpt lat="28.7887530" lon="-17.8467370">
        <ele>1473.7</ele>
        <time>2020-11-16T14:46:20Z</time>
      </trkpt>
      <trkpt lat="28.7887530" lon="-17.8467370">
        <ele>1473.7</ele>
        <time>2020-11-16T14:46:21Z</time>
      </trkpt>
      <trkpt lat="28.7887720" lon="-17.8466650">
        <ele>1473.0</ele>
        <time>2020-11-16T14:46:22Z</time>
      </trkpt>
      <trkpt lat="28.7887720" lon="-17.8466650">
        <ele>1473.0</ele>
        <time>2020-11-16T14:46:23Z</time>
      </trkpt>
      <trkpt lat="28.7887600" lon="-17.8465780">
        <ele>1472.3</ele>
        <time>2020-11-16T14:46:24Z</time>
      </trkpt>
      <trkpt lat="28.7887600" lon="-17.8465780">
        <ele>1472.3</ele>
        <time>2020-11-16T14:46:25Z</time>
      </trkpt>
      <trkpt lat="28.7887350" lon="-17.8464880">
        <ele>1471.5</ele>
        <time>2020-11-16T14:46:26Z</time>
      </trkpt>
      <trkpt lat="28.7887350" lon="-17.8464880">
        <ele>1471.5</ele>
        <time>2020-11-16T14:46:27Z</time>
      </trkpt>
      <trkpt lat="28.7887200" lon="-17.8463970">
        <ele>1470.8</ele>
        <time>2020-11-16T14:46:28Z</time>
      </trkpt>
      <trkpt lat="28.7887200" lon="-17.8463970">
        <ele>1470.8</ele>
        <time>2020-11-16T14:46:29Z</time>
      </trkpt>
      <trkpt lat="28.7887200" lon="-17.8463270">
        <ele>1470.2</ele>
        <time>2020-11-16T14:46:30Z</time>
      </trkpt>
      <trkpt lat="28.7887170" lon="-17.8462980">
        <ele>1470.0</ele>
        <time>2020-11-16T14:46:31Z</time>
      </trkpt>
      <trkpt lat="28.7887170" lon="-17.8462980">
        <ele>1470.0</ele>
        <time>2020-11-16T14:46:32Z</time>
      </trkpt>
      <trkpt lat="28.7887270" lon="-17.8462270">
        <ele>1469.3</ele>
        <time>2020-11-16T14:46:33Z</time>
      </trkpt>
      <trkpt lat="28.7887270" lon="-17.8462270">
        <ele>1469.3</ele>
        <time>2020-11-16T14:46:34Z</time>
      </trkpt>
      <trkpt lat="28.7887220" lon="-17.8461470">
        <ele>1468.6</ele>
        <time>2020-11-16T14:46:35Z</time>
      </trkpt>
      <trkpt lat="28.7887220" lon="-17.8461470">
        <ele>1468.6</ele>
        <time>2020-11-16T14:46:36Z</time>
      </trkpt>
      <trkpt lat="28.7887200" lon="-17.8460820">
        <ele>1467.9</ele>
        <time>2020-11-16T14:46:37Z</time>
      </trkpt>
      <trkpt lat="28.7887350" lon="-17.8460420">
        <ele>1467.4</ele>
        <time>2020-11-16T14:46:38Z</time>
      </trkpt>
      <trkpt lat="28.7887350" lon="-17.8460420">
        <ele>1467.4</ele>
        <time>2020-11-16T14:46:39Z</time>
      </trkpt>
      <trkpt lat="28.7887530" lon="-17.8459750">
        <ele>1466.6</ele>
        <time>2020-11-16T14:46:40Z</time>
      </trkpt>
      <trkpt lat="28.7887530" lon="-17.8459750">
        <ele>1466.6</ele>
        <time>2020-11-16T14:46:41Z</time>
      </trkpt>
      <trkpt lat="28.7887420" lon="-17.8459120">
        <ele>1465.9</ele>
        <time>2020-11-16T14:46:42Z</time>
      </trkpt>
      <trkpt lat="28.7887420" lon="-17.8459120">
        <ele>1465.9</ele>
        <time>2020-11-16T14:46:43Z</time>
      </trkpt>
      <trkpt lat="28.7887970" lon="-17.8458700">
        <ele>1465.1</ele>
        <time>2020-11-16T14:46:44Z</time>
      </trkpt>
      <trkpt lat="28.7887970" lon="-17.8458700">
        <ele>1465.1</ele>
        <time>2020-11-16T14:46:45Z</time>
      </trkpt>
      <trkpt lat="28.7888430" lon="-17.8458800">
        <ele>1464.7</ele>
        <time>2020-11-16T14:46:46Z</time>
      </trkpt>
      <trkpt lat="28.7888430" lon="-17.8458800">
        <ele>1464.7</ele>
        <time>2020-11-16T14:46:47Z</time>
      </trkpt>
      <trkpt lat="28.7888800" lon="-17.8459280">
        <ele>1464.3</ele>
        <time>2020-11-16T14:46:48Z</time>
      </trkpt>
      <trkpt lat="28.7888800" lon="-17.8459280">
        <ele>1464.3</ele>
        <time>2020-11-16T14:46:49Z</time>
      </trkpt>
      <trkpt lat="28.7888730" lon="-17.8459700">
        <ele>1464.0</ele>
        <time>2020-11-16T14:46:50Z</time>
      </trkpt>
      <trkpt lat="28.7888730" lon="-17.8459700">
        <ele>1464.0</ele>
        <time>2020-11-16T14:46:51Z</time>
      </trkpt>
      <trkpt lat="28.7888850" lon="-17.8460220">
        <ele>1463.7</ele>
        <time>2020-11-16T14:46:52Z</time>
      </trkpt>
      <trkpt lat="28.7888850" lon="-17.8460220">
        <ele>1463.7</ele>
        <time>2020-11-16T14:46:53Z</time>
      </trkpt>
      <trkpt lat="28.7889000" lon="-17.8460920">
        <ele>1463.4</ele>
        <time>2020-11-16T14:46:54Z</time>
      </trkpt>
      <trkpt lat="28.7889000" lon="-17.8460920">
        <ele>1463.4</ele>
        <time>2020-11-16T14:46:55Z</time>
      </trkpt>
      <trkpt lat="28.7889200" lon="-17.8461600">
        <ele>1463.1</ele>
        <time>2020-11-16T14:46:56Z</time>
      </trkpt>
      <trkpt lat="28.7889200" lon="-17.8461600">
        <ele>1463.1</ele>
        <time>2020-11-16T14:46:57Z</time>
      </trkpt>
      <trkpt lat="28.7889680" lon="-17.8462250">
        <ele>1462.7</ele>
        <time>2020-11-16T14:46:58Z</time>
      </trkpt>
      <trkpt lat="28.7889680" lon="-17.8462250">
        <ele>1462.7</ele>
        <time>2020-11-16T14:46:59Z</time>
      </trkpt>
      <trkpt lat="28.7890280" lon="-17.8462750">
        <ele>1462.3</ele>
        <time>2020-11-16T14:47:00Z</time>
      </trkpt>
      <trkpt lat="28.7890280" lon="-17.8462750">
        <ele>1462.3</ele>
        <time>2020-11-16T14:47:01Z</time>
      </trkpt>
      <trkpt lat="28.7890770" lon="-17.8463270">
        <ele>1462.0</ele>
        <time>2020-11-16T14:47:02Z</time>
      </trkpt>
      <trkpt lat="28.7890770" lon="-17.8463270">
        <ele>1462.0</ele>
        <time>2020-11-16T14:47:03Z</time>
      </trkpt>
      <trkpt lat="28.7891230" lon="-17.8463950">
        <ele>1461.5</ele>
        <time>2020-11-16T14:47:04Z</time>
      </trkpt>
      <trkpt lat="28.7891230" lon="-17.8463950">
        <ele>1461.5</ele>
        <time>2020-11-16T14:47:05Z</time>
      </trkpt>
      <trkpt lat="28.7891730" lon="-17.8464770">
        <ele>1460.9</ele>
        <time>2020-11-16T14:47:06Z</time>
      </trkpt>
      <trkpt lat="28.7891730" lon="-17.8464770">
        <ele>1460.9</ele>
        <time>2020-11-16T14:47:07Z</time>
      </trkpt>
      <trkpt lat="28.7892050" lon="-17.8465530">
        <ele>1460.3</ele>
        <time>2020-11-16T14:47:08Z</time>
      </trkpt>
      <trkpt lat="28.7892050" lon="-17.8465530">
        <ele>1460.3</ele>
        <time>2020-11-16T14:47:09Z</time>
      </trkpt>
      <trkpt lat="28.7892330" lon="-17.8466270">
        <ele>1459.6</ele>
        <time>2020-11-16T14:47:10Z</time>
      </trkpt>
      <trkpt lat="28.7892330" lon="-17.8466270">
        <ele>1459.6</ele>
        <time>2020-11-16T14:47:11Z</time>
      </trkpt>
      <trkpt lat="28.7892500" lon="-17.8467030">
        <ele>1458.8</ele>
        <time>2020-11-16T14:47:12Z</time>
      </trkpt>
      <trkpt lat="28.7892500" lon="-17.8467030">
        <ele>1458.8</ele>
        <time>2020-11-16T14:47:13Z</time>
      </trkpt>
      <trkpt lat="28.7892530" lon="-17.8467800">
        <ele>1458.1</ele>
        <time>2020-11-16T14:47:14Z</time>
      </trkpt>
      <trkpt lat="28.7892530" lon="-17.8467800">
        <ele>1458.1</ele>
        <time>2020-11-16T14:47:15Z</time>
      </trkpt>
      <trkpt lat="28.7892700" lon="-17.8468680">
        <ele>1457.5</ele>
        <time>2020-11-16T14:47:16Z</time>
      </trkpt>
      <trkpt lat="28.7892900" lon="-17.8469230">
        <ele>1457.2</ele>
        <time>2020-11-16T14:47:17Z</time>
      </trkpt>
      <trkpt lat="28.7892900" lon="-17.8469230">
        <ele>1457.2</ele>
        <time>2020-11-16T14:47:18Z</time>
      </trkpt>
      <trkpt lat="28.7893080" lon="-17.8470220">
        <ele>1456.6</ele>
        <time>2020-11-16T14:47:19Z</time>
      </trkpt>
      <trkpt lat="28.7893080" lon="-17.8470220">
        <ele>1456.6</ele>
        <time>2020-11-16T14:47:20Z</time>
      </trkpt>
      <trkpt lat="28.7893170" lon="-17.8471320">
        <ele>1456.0</ele>
        <time>2020-11-16T14:47:21Z</time>
      </trkpt>
      <trkpt lat="28.7893170" lon="-17.8471320">
        <ele>1456.0</ele>
        <time>2020-11-16T14:47:22Z</time>
      </trkpt>
      <trkpt lat="28.7893320" lon="-17.8472150">
        <ele>1455.5</ele>
        <time>2020-11-16T14:47:23Z</time>
      </trkpt>
      <trkpt lat="28.7893320" lon="-17.8472150">
        <ele>1455.5</ele>
        <time>2020-11-16T14:47:24Z</time>
      </trkpt>
      <trkpt lat="28.7893530" lon="-17.8473130">
        <ele>1454.6</ele>
        <time>2020-11-16T14:47:25Z</time>
      </trkpt>
      <trkpt lat="28.7893720" lon="-17.8473620">
        <ele>1454.2</ele>
        <time>2020-11-16T14:47:26Z</time>
      </trkpt>
      <trkpt lat="28.7893720" lon="-17.8473620">
        <ele>1454.2</ele>
        <time>2020-11-16T14:47:27Z</time>
      </trkpt>
      <trkpt lat="28.7893950" lon="-17.8474530">
        <ele>1453.4</ele>
        <time>2020-11-16T14:47:28Z</time>
      </trkpt>
      <trkpt lat="28.7893950" lon="-17.8474530">
        <ele>1453.4</ele>
        <time>2020-11-16T14:47:29Z</time>
      </trkpt>
      <trkpt lat="28.7894080" lon="-17.8475300">
        <ele>1452.7</ele>
        <time>2020-11-16T14:47:30Z</time>
      </trkpt>
      <trkpt lat="28.7894080" lon="-17.8475300">
        <ele>1452.7</ele>
        <time>2020-11-16T14:47:31Z</time>
      </trkpt>
      <trkpt lat="28.7893750" lon="-17.8476230">
        <ele>1452.0</ele>
        <time>2020-11-16T14:47:32Z</time>
      </trkpt>
      <trkpt lat="28.7893620" lon="-17.8476620">
        <ele>1451.8</ele>
        <time>2020-11-16T14:47:33Z</time>
      </trkpt>
      <trkpt lat="28.7893620" lon="-17.8476620">
        <ele>1451.8</ele>
        <time>2020-11-16T14:47:34Z</time>
      </trkpt>
      <trkpt lat="28.7893530" lon="-17.8477450">
        <ele>1451.2</ele>
        <time>2020-11-16T14:47:35Z</time>
      </trkpt>
      <trkpt lat="28.7893530" lon="-17.8477450">
        <ele>1451.2</ele>
        <time>2020-11-16T14:47:36Z</time>
      </trkpt>
      <trkpt lat="28.7893270" lon="-17.8478150">
        <ele>1450.6</ele>
        <time>2020-11-16T14:47:37Z</time>
      </trkpt>
      <trkpt lat="28.7893270" lon="-17.8478150">
        <ele>1450.6</ele>
        <time>2020-11-16T14:47:38Z</time>
      </trkpt>
      <trkpt lat="28.7893250" lon="-17.8478870">
        <ele>1449.9</ele>
        <time>2020-11-16T14:47:39Z</time>
      </trkpt>
      <trkpt lat="28.7893470" lon="-17.8479280">
        <ele>1449.5</ele>
        <time>2020-11-16T14:47:40Z</time>
      </trkpt>
      <trkpt lat="28.7893470" lon="-17.8479280">
        <ele>1449.5</ele>
        <time>2020-11-16T14:47:41Z</time>
      </trkpt>
      <trkpt lat="28.7894020" lon="-17.8479650">
        <ele>1448.6</ele>
        <time>2020-11-16T14:47:42Z</time>
      </trkpt>
      <trkpt lat="28.7894020" lon="-17.8479650">
        <ele>1448.6</ele>
        <time>2020-11-16T14:47:43Z</time>
      </trkpt>
      <trkpt lat="28.7894550" lon="-17.8479580">
        <ele>1448.0</ele>
        <time>2020-11-16T14:47:44Z</time>
      </trkpt>
      <trkpt lat="28.7894550" lon="-17.8479580">
        <ele>1448.0</ele>
        <time>2020-11-16T14:47:45Z</time>
      </trkpt>
      <trkpt lat="28.7894920" lon="-17.8479170">
        <ele>1447.3</ele>
        <time>2020-11-16T14:47:46Z</time>
      </trkpt>
      <trkpt lat="28.7894920" lon="-17.8479170">
        <ele>1447.3</ele>
        <time>2020-11-16T14:47:47Z</time>
      </trkpt>
      <trkpt lat="28.7895270" lon="-17.8478670">
        <ele>1446.6</ele>
        <time>2020-11-16T14:47:48Z</time>
      </trkpt>
      <trkpt lat="28.7895270" lon="-17.8478670">
        <ele>1446.6</ele>
        <time>2020-11-16T14:47:49Z</time>
      </trkpt>
      <trkpt lat="28.7895650" lon="-17.8477880">
        <ele>1445.7</ele>
        <time>2020-11-16T14:47:50Z</time>
      </trkpt>
      <trkpt lat="28.7895650" lon="-17.8477880">
        <ele>1445.7</ele>
        <time>2020-11-16T14:47:51Z</time>
      </trkpt>
      <trkpt lat="28.7896170" lon="-17.8477250">
        <ele>1445.0</ele>
        <time>2020-11-16T14:47:52Z</time>
      </trkpt>
      <trkpt lat="28.7896380" lon="-17.8477000">
        <ele>1444.8</ele>
        <time>2020-11-16T14:47:53Z</time>
      </trkpt>
      <trkpt lat="28.7896630" lon="-17.8476700">
        <ele>1444.4</ele>
        <time>2020-11-16T14:47:54Z</time>
      </trkpt>
      <trkpt lat="28.7896630" lon="-17.8476700">
        <ele>1444.4</ele>
        <time>2020-11-16T14:47:55Z</time>
      </trkpt>
      <trkpt lat="28.7897120" lon="-17.8476020">
        <ele>1443.7</ele>
        <time>2020-11-16T14:47:56Z</time>
      </trkpt>
      <trkpt lat="28.7897120" lon="-17.8476020">
        <ele>1443.7</ele>
        <time>2020-11-16T14:47:57Z</time>
      </trkpt>
      <trkpt lat="28.7897420" lon="-17.8475270">
        <ele>1443.0</ele>
        <time>2020-11-16T14:47:58Z</time>
      </trkpt>
      <trkpt lat="28.7897420" lon="-17.8475270">
        <ele>1443.0</ele>
        <time>2020-11-16T14:47:59Z</time>
      </trkpt>
      <trkpt lat="28.7897680" lon="-17.8474470">
        <ele>1442.3</ele>
        <time>2020-11-16T14:48:00Z</time>
      </trkpt>
      <trkpt lat="28.7897680" lon="-17.8474470">
        <ele>1442.3</ele>
        <time>2020-11-16T14:48:01Z</time>
      </trkpt>
      <trkpt lat="28.7897850" lon="-17.8473850">
        <ele>1441.8</ele>
        <time>2020-11-16T14:48:02Z</time>
      </trkpt>
      <trkpt lat="28.7897850" lon="-17.8473850">
        <ele>1441.8</ele>
        <time>2020-11-16T14:48:03Z</time>
      </trkpt>
      <trkpt lat="28.7897780" lon="-17.8473080">
        <ele>1441.2</ele>
        <time>2020-11-16T14:48:04Z</time>
      </trkpt>
      <trkpt lat="28.7897820" lon="-17.8472780">
        <ele>1440.9</ele>
        <time>2020-11-16T14:48:05Z</time>
      </trkpt>
      <trkpt lat="28.7897820" lon="-17.8472780">
        <ele>1440.9</ele>
        <time>2020-11-16T14:48:06Z</time>
      </trkpt>
      <trkpt lat="28.7898080" lon="-17.8472170">
        <ele>1440.2</ele>
        <time>2020-11-16T14:48:07Z</time>
      </trkpt>
      <trkpt lat="28.7898350" lon="-17.8471920">
        <ele>1439.8</ele>
        <time>2020-11-16T14:48:08Z</time>
      </trkpt>
      <trkpt lat="28.7898350" lon="-17.8471920">
        <ele>1439.8</ele>
        <time>2020-11-16T14:48:09Z</time>
      </trkpt>
      <trkpt lat="28.7898820" lon="-17.8471480">
        <ele>1439.0</ele>
        <time>2020-11-16T14:48:10Z</time>
      </trkpt>
      <trkpt lat="28.7898820" lon="-17.8471480">
        <ele>1439.0</ele>
        <time>2020-11-16T14:48:11Z</time>
      </trkpt>
      <trkpt lat="28.7899320" lon="-17.8471200">
        <ele>1438.3</ele>
        <time>2020-11-16T14:48:12Z</time>
      </trkpt>
      <trkpt lat="28.7899320" lon="-17.8471200">
        <ele>1438.3</ele>
        <time>2020-11-16T14:48:13Z</time>
      </trkpt>
      <trkpt lat="28.7899780" lon="-17.8470670">
        <ele>1437.5</ele>
        <time>2020-11-16T14:48:14Z</time>
      </trkpt>
      <trkpt lat="28.7899780" lon="-17.8470670">
        <ele>1437.5</ele>
        <time>2020-11-16T14:48:15Z</time>
      </trkpt>
      <trkpt lat="28.7900100" lon="-17.8469930">
        <ele>1436.7</ele>
        <time>2020-11-16T14:48:16Z</time>
      </trkpt>
      <trkpt lat="28.7900100" lon="-17.8469930">
        <ele>1436.7</ele>
        <time>2020-11-16T14:48:17Z</time>
      </trkpt>
      <trkpt lat="28.7900470" lon="-17.8469070">
        <ele>1435.8</ele>
        <time>2020-11-16T14:48:18Z</time>
      </trkpt>
      <trkpt lat="28.7900470" lon="-17.8469070">
        <ele>1435.8</ele>
        <time>2020-11-16T14:48:19Z</time>
      </trkpt>
      <trkpt lat="28.7900700" lon="-17.8468420">
        <ele>1435.1</ele>
        <time>2020-11-16T14:48:20Z</time>
      </trkpt>
      <trkpt lat="28.7900700" lon="-17.8468420">
        <ele>1435.1</ele>
        <time>2020-11-16T14:48:21Z</time>
      </trkpt>
      <trkpt lat="28.7901080" lon="-17.8467220">
        <ele>1433.9</ele>
        <time>2020-11-16T14:48:22Z</time>
      </trkpt>
      <trkpt lat="28.7901080" lon="-17.8467220">
        <ele>1433.9</ele>
        <time>2020-11-16T14:48:23Z</time>
      </trkpt>
      <trkpt lat="28.7901280" lon="-17.8465670">
        <ele>1432.7</ele>
        <time>2020-11-16T14:48:24Z</time>
      </trkpt>
      <trkpt lat="28.7901280" lon="-17.8465670">
        <ele>1432.7</ele>
        <time>2020-11-16T14:48:25Z</time>
      </trkpt>
      <trkpt lat="28.7901300" lon="-17.8464350">
        <ele>1431.8</ele>
        <time>2020-11-16T14:48:26Z</time>
      </trkpt>
      <trkpt lat="28.7901300" lon="-17.8464350">
        <ele>1431.8</ele>
        <time>2020-11-16T14:48:27Z</time>
      </trkpt>
      <trkpt lat="28.7901220" lon="-17.8463430">
        <ele>1431.2</ele>
        <time>2020-11-16T14:48:28Z</time>
      </trkpt>
      <trkpt lat="28.7901220" lon="-17.8463430">
        <ele>1431.2</ele>
        <time>2020-11-16T14:48:29Z</time>
      </trkpt>
      <trkpt lat="28.7901280" lon="-17.8462580">
        <ele>1430.5</ele>
        <time>2020-11-16T14:48:30Z</time>
      </trkpt>
      <trkpt lat="28.7901420" lon="-17.8462150">
        <ele>1430.0</ele>
        <time>2020-11-16T14:48:31Z</time>
      </trkpt>
      <trkpt lat="28.7901420" lon="-17.8462150">
        <ele>1430.0</ele>
        <time>2020-11-16T14:48:32Z</time>
      </trkpt>
      <trkpt lat="28.7901900" lon="-17.8461420">
        <ele>1429.0</ele>
        <time>2020-11-16T14:48:33Z</time>
      </trkpt>
      <trkpt lat="28.7901900" lon="-17.8461420">
        <ele>1429.0</ele>
        <time>2020-11-16T14:48:34Z</time>
      </trkpt>
      <trkpt lat="28.7902370" lon="-17.8460770">
        <ele>1427.9</ele>
        <time>2020-11-16T14:48:35Z</time>
      </trkpt>
      <trkpt lat="28.7902370" lon="-17.8460770">
        <ele>1427.9</ele>
        <time>2020-11-16T14:48:36Z</time>
      </trkpt>
      <trkpt lat="28.7902920" lon="-17.8460100">
        <ele>1426.7</ele>
        <time>2020-11-16T14:48:37Z</time>
      </trkpt>
      <trkpt lat="28.7902920" lon="-17.8460100">
        <ele>1426.7</ele>
        <time>2020-11-16T14:48:38Z</time>
      </trkpt>
      <trkpt lat="28.7903650" lon="-17.8459850">
        <ele>1425.5</ele>
        <time>2020-11-16T14:48:39Z</time>
      </trkpt>
      <trkpt lat="28.7903650" lon="-17.8459850">
        <ele>1425.5</ele>
        <time>2020-11-16T14:48:40Z</time>
      </trkpt>
      <trkpt lat="28.7904150" lon="-17.8460200">
        <ele>1424.7</ele>
        <time>2020-11-16T14:48:41Z</time>
      </trkpt>
      <trkpt lat="28.7904150" lon="-17.8460200">
        <ele>1424.7</ele>
        <time>2020-11-16T14:48:42Z</time>
      </trkpt>
      <trkpt lat="28.7904050" lon="-17.8461030">
        <ele>1423.9</ele>
        <time>2020-11-16T14:48:43Z</time>
      </trkpt>
      <trkpt lat="28.7903950" lon="-17.8461350">
        <ele>1423.6</ele>
        <time>2020-11-16T14:48:44Z</time>
      </trkpt>
      <trkpt lat="28.7903950" lon="-17.8461350">
        <ele>1423.6</ele>
        <time>2020-11-16T14:48:45Z</time>
      </trkpt>
      <trkpt lat="28.7903670" lon="-17.8461970">
        <ele>1423.2</ele>
        <time>2020-11-16T14:48:46Z</time>
      </trkpt>
      <trkpt lat="28.7903670" lon="-17.8461970">
        <ele>1423.2</ele>
        <time>2020-11-16T14:48:47Z</time>
      </trkpt>
      <trkpt lat="28.7903730" lon="-17.8462680">
        <ele>1422.8</ele>
        <time>2020-11-16T14:48:48Z</time>
      </trkpt>
      <trkpt lat="28.7903730" lon="-17.8462680">
        <ele>1422.8</ele>
        <time>2020-11-16T14:48:49Z</time>
      </trkpt>
      <trkpt lat="28.7903980" lon="-17.8463280">
        <ele>1422.4</ele>
        <time>2020-11-16T14:48:50Z</time>
      </trkpt>
      <trkpt lat="28.7903980" lon="-17.8463280">
        <ele>1422.4</ele>
        <time>2020-11-16T14:48:51Z</time>
      </trkpt>
      <trkpt lat="28.7904280" lon="-17.8464070">
        <ele>1422.0</ele>
        <time>2020-11-16T14:48:52Z</time>
      </trkpt>
      <trkpt lat="28.7904280" lon="-17.8464070">
        <ele>1422.0</ele>
        <time>2020-11-16T14:48:53Z</time>
      </trkpt>
      <trkpt lat="28.7904750" lon="-17.8464920">
        <ele>1421.3</ele>
        <time>2020-11-16T14:48:54Z</time>
      </trkpt>
      <trkpt lat="28.7904830" lon="-17.8465270">
        <ele>1421.1</ele>
        <time>2020-11-16T14:48:55Z</time>
      </trkpt>
      <trkpt lat="28.7904830" lon="-17.8465270">
        <ele>1421.1</ele>
        <time>2020-11-16T14:48:56Z</time>
      </trkpt>
      <trkpt lat="28.7905250" lon="-17.8465950">
        <ele>1420.3</ele>
        <time>2020-11-16T14:48:57Z</time>
      </trkpt>
      <trkpt lat="28.7905250" lon="-17.8465950">
        <ele>1420.3</ele>
        <time>2020-11-16T14:48:58Z</time>
      </trkpt>
      <trkpt lat="28.7905600" lon="-17.8466650">
        <ele>1419.6</ele>
        <time>2020-11-16T14:48:59Z</time>
      </trkpt>
      <trkpt lat="28.7905730" lon="-17.8467000">
        <ele>1419.2</ele>
        <time>2020-11-16T14:49:00Z</time>
      </trkpt>
      <trkpt lat="28.7905730" lon="-17.8467000">
        <ele>1419.2</ele>
        <time>2020-11-16T14:49:01Z</time>
      </trkpt>
      <trkpt lat="28.7906050" lon="-17.8467670">
        <ele>1418.6</ele>
        <time>2020-11-16T14:49:02Z</time>
      </trkpt>
      <trkpt lat="28.7906050" lon="-17.8467670">
        <ele>1418.6</ele>
        <time>2020-11-16T14:49:03Z</time>
      </trkpt>
      <trkpt lat="28.7906320" lon="-17.8468220">
        <ele>1418.1</ele>
        <time>2020-11-16T14:49:04Z</time>
      </trkpt>
      <trkpt lat="28.7906320" lon="-17.8468220">
        <ele>1418.1</ele>
        <time>2020-11-16T14:49:05Z</time>
      </trkpt>
      <trkpt lat="28.7906580" lon="-17.8468770">
        <ele>1417.6</ele>
        <time>2020-11-16T14:49:06Z</time>
      </trkpt>
      <trkpt lat="28.7906580" lon="-17.8468770">
        <ele>1417.6</ele>
        <time>2020-11-16T14:49:07Z</time>
      </trkpt>
      <trkpt lat="28.7906770" lon="-17.8469430">
        <ele>1417.0</ele>
        <time>2020-11-16T14:49:08Z</time>
      </trkpt>
      <trkpt lat="28.7906770" lon="-17.8469430">
        <ele>1417.0</ele>
        <time>2020-11-16T14:49:09Z</time>
      </trkpt>
      <trkpt lat="28.7906650" lon="-17.8470180">
        <ele>1416.4</ele>
        <time>2020-11-16T14:49:10Z</time>
      </trkpt>
      <trkpt lat="28.7906650" lon="-17.8470180">
        <ele>1416.4</ele>
        <time>2020-11-16T14:49:11Z</time>
      </trkpt>
      <trkpt lat="28.7906730" lon="-17.8470730">
        <ele>1416.0</ele>
        <time>2020-11-16T14:49:12Z</time>
      </trkpt>
      <trkpt lat="28.7906730" lon="-17.8470730">
        <ele>1416.0</ele>
        <time>2020-11-16T14:49:13Z</time>
      </trkpt>
      <trkpt lat="28.7906920" lon="-17.8471930">
        <ele>1415.1</ele>
        <time>2020-11-16T14:49:14Z</time>
      </trkpt>
      <trkpt lat="28.7906920" lon="-17.8471930">
        <ele>1415.1</ele>
        <time>2020-11-16T14:49:15Z</time>
      </trkpt>
      <trkpt lat="28.7907300" lon="-17.8473100">
        <ele>1414.6</ele>
        <time>2020-11-16T14:49:16Z</time>
      </trkpt>
      <trkpt lat="28.7907430" lon="-17.8473580">
        <ele>1414.4</ele>
        <time>2020-11-16T14:49:17Z</time>
      </trkpt>
      <trkpt lat="28.7907430" lon="-17.8473580">
        <ele>1414.4</ele>
        <time>2020-11-16T14:49:18Z</time>
      </trkpt>
      <trkpt lat="28.7907580" lon="-17.8474550">
        <ele>1413.9</ele>
        <time>2020-11-16T14:49:19Z</time>
      </trkpt>
      <trkpt lat="28.7907580" lon="-17.8474550">
        <ele>1413.9</ele>
        <time>2020-11-16T14:49:20Z</time>
      </trkpt>
      <trkpt lat="28.7907830" lon="-17.8475780">
        <ele>1413.0</ele>
        <time>2020-11-16T14:49:21Z</time>
      </trkpt>
      <trkpt lat="28.7908030" lon="-17.8476320">
        <ele>1412.6</ele>
        <time>2020-11-16T14:49:22Z</time>
      </trkpt>
      <trkpt lat="28.7908030" lon="-17.8476320">
        <ele>1412.6</ele>
        <time>2020-11-16T14:49:23Z</time>
      </trkpt>
      <trkpt lat="28.7908780" lon="-17.8477630">
        <ele>1411.6</ele>
        <time>2020-11-16T14:49:24Z</time>
      </trkpt>
      <trkpt lat="28.7908970" lon="-17.8478120">
        <ele>1411.3</ele>
        <time>2020-11-16T14:49:25Z</time>
      </trkpt>
      <trkpt lat="28.7908970" lon="-17.8478120">
        <ele>1411.3</ele>
        <time>2020-11-16T14:49:26Z</time>
      </trkpt>
      <trkpt lat="28.7909450" lon="-17.8479150">
        <ele>1410.4</ele>
        <time>2020-11-16T14:49:27Z</time>
      </trkpt>
      <trkpt lat="28.7909450" lon="-17.8479150">
        <ele>1410.4</ele>
        <time>2020-11-16T14:49:28Z</time>
      </trkpt>
      <trkpt lat="28.7909980" lon="-17.8480100">
        <ele>1409.6</ele>
        <time>2020-11-16T14:49:29Z</time>
      </trkpt>
      <trkpt lat="28.7909980" lon="-17.8480100">
        <ele>1409.6</ele>
        <time>2020-11-16T14:49:30Z</time>
      </trkpt>
      <trkpt lat="28.7910430" lon="-17.8481280">
        <ele>1408.6</ele>
        <time>2020-11-16T14:49:31Z</time>
      </trkpt>
      <trkpt lat="28.7910530" lon="-17.8481850">
        <ele>1408.1</ele>
        <time>2020-11-16T14:49:32Z</time>
      </trkpt>
      <trkpt lat="28.7910530" lon="-17.8481850">
        <ele>1408.1</ele>
        <time>2020-11-16T14:49:33Z</time>
      </trkpt>
      <trkpt lat="28.7910580" lon="-17.8482830">
        <ele>1407.3</ele>
        <time>2020-11-16T14:49:34Z</time>
      </trkpt>
      <trkpt lat="28.7910580" lon="-17.8482830">
        <ele>1407.3</ele>
        <time>2020-11-16T14:49:35Z</time>
      </trkpt>
      <trkpt lat="28.7910470" lon="-17.8483670">
        <ele>1406.6</ele>
        <time>2020-11-16T14:49:36Z</time>
      </trkpt>
      <trkpt lat="28.7910470" lon="-17.8483670">
        <ele>1406.6</ele>
        <time>2020-11-16T14:49:37Z</time>
      </trkpt>
      <trkpt lat="28.7910680" lon="-17.8484780">
        <ele>1405.7</ele>
        <time>2020-11-16T14:49:38Z</time>
      </trkpt>
      <trkpt lat="28.7910680" lon="-17.8484780">
        <ele>1405.7</ele>
        <time>2020-11-16T14:49:39Z</time>
      </trkpt>
      <trkpt lat="28.7910880" lon="-17.8485770">
        <ele>1404.9</ele>
        <time>2020-11-16T14:49:40Z</time>
      </trkpt>
      <trkpt lat="28.7910880" lon="-17.8485770">
        <ele>1404.9</ele>
        <time>2020-11-16T14:49:41Z</time>
      </trkpt>
      <trkpt lat="28.7911230" lon="-17.8486230">
        <ele>1404.4</ele>
        <time>2020-11-16T14:49:42Z</time>
      </trkpt>
      <trkpt lat="28.7911230" lon="-17.8486230">
        <ele>1404.4</ele>
        <time>2020-11-16T14:49:43Z</time>
      </trkpt>
      <trkpt lat="28.7911670" lon="-17.8485980">
        <ele>1403.8</ele>
        <time>2020-11-16T14:49:44Z</time>
      </trkpt>
      <trkpt lat="28.7911670" lon="-17.8485980">
        <ele>1403.8</ele>
        <time>2020-11-16T14:49:45Z</time>
      </trkpt>
      <trkpt lat="28.7912000" lon="-17.8485280">
        <ele>1403.0</ele>
        <time>2020-11-16T14:49:46Z</time>
      </trkpt>
      <trkpt lat="28.7912000" lon="-17.8485280">
        <ele>1403.0</ele>
        <time>2020-11-16T14:49:47Z</time>
      </trkpt>
      <trkpt lat="28.7912050" lon="-17.8484600">
        <ele>1402.3</ele>
        <time>2020-11-16T14:49:48Z</time>
      </trkpt>
      <trkpt lat="28.7912050" lon="-17.8484600">
        <ele>1402.3</ele>
        <time>2020-11-16T14:49:49Z</time>
      </trkpt>
      <trkpt lat="28.7912200" lon="-17.8483880">
        <ele>1401.6</ele>
        <time>2020-11-16T14:49:50Z</time>
      </trkpt>
      <trkpt lat="28.7912200" lon="-17.8483880">
        <ele>1401.6</ele>
        <time>2020-11-16T14:49:51Z</time>
      </trkpt>
      <trkpt lat="28.7912680" lon="-17.8483100">
        <ele>1400.7</ele>
        <time>2020-11-16T14:49:52Z</time>
      </trkpt>
      <trkpt lat="28.7912680" lon="-17.8483100">
        <ele>1400.7</ele>
        <time>2020-11-16T14:49:53Z</time>
      </trkpt>
      <trkpt lat="28.7913330" lon="-17.8482470">
        <ele>1399.7</ele>
        <time>2020-11-16T14:49:54Z</time>
      </trkpt>
      <trkpt lat="28.7913330" lon="-17.8482470">
        <ele>1399.7</ele>
        <time>2020-11-16T14:49:55Z</time>
      </trkpt>
      <trkpt lat="28.7913950" lon="-17.8481950">
        <ele>1398.9</ele>
        <time>2020-11-16T14:49:56Z</time>
      </trkpt>
      <trkpt lat="28.7913950" lon="-17.8481950">
        <ele>1398.9</ele>
        <time>2020-11-16T14:49:57Z</time>
      </trkpt>
      <trkpt lat="28.7914680" lon="-17.8481520">
        <ele>1398.0</ele>
        <time>2020-11-16T14:49:58Z</time>
      </trkpt>
      <trkpt lat="28.7915030" lon="-17.8481230">
        <ele>1397.5</ele>
        <time>2020-11-16T14:49:59Z</time>
      </trkpt>
      <trkpt lat="28.7915030" lon="-17.8481230">
        <ele>1397.5</ele>
        <time>2020-11-16T14:50:00Z</time>
      </trkpt>
      <trkpt lat="28.7915670" lon="-17.8480720">
        <ele>1396.7</ele>
        <time>2020-11-16T14:50:01Z</time>
      </trkpt>
      <trkpt lat="28.7915670" lon="-17.8480720">
        <ele>1396.5</ele>
        <time>2020-11-16T14:50:02Z</time>
      </trkpt>
      <trkpt lat="28.7915980" lon="-17.8480150">
        <ele>1396.2</ele>
        <time>2020-11-16T14:50:03Z</time>
      </trkpt>
      <trkpt lat="28.7916050" lon="-17.8479830">
        <ele>1396.0</ele>
        <time>2020-11-16T14:50:04Z</time>
      </trkpt>
      <trkpt lat="28.7916050" lon="-17.8479830">
        <ele>1396.0</ele>
        <time>2020-11-16T14:50:05Z</time>
      </trkpt>
      <trkpt lat="28.7915850" lon="-17.8479170">
        <ele>1395.7</ele>
        <time>2020-11-16T14:50:06Z</time>
      </trkpt>
      <trkpt lat="28.7915850" lon="-17.8479170">
        <ele>1395.7</ele>
        <time>2020-11-16T14:50:07Z</time>
      </trkpt>
      <trkpt lat="28.7915300" lon="-17.8478650">
        <ele>1395.3</ele>
        <time>2020-11-16T14:50:08Z</time>
      </trkpt>
      <trkpt lat="28.7915300" lon="-17.8478650">
        <ele>1395.3</ele>
        <time>2020-11-16T14:50:09Z</time>
      </trkpt>
      <trkpt lat="28.7914750" lon="-17.8478020">
        <ele>1394.9</ele>
        <time>2020-11-16T14:50:10Z</time>
      </trkpt>
      <trkpt lat="28.7914750" lon="-17.8478020">
        <ele>1394.9</ele>
        <time>2020-11-16T14:50:11Z</time>
      </trkpt>
      <trkpt lat="28.7914300" lon="-17.8477270">
        <ele>1394.4</ele>
        <time>2020-11-16T14:50:12Z</time>
      </trkpt>
      <trkpt lat="28.7914300" lon="-17.8477270">
        <ele>1394.4</ele>
        <time>2020-11-16T14:50:13Z</time>
      </trkpt>
      <trkpt lat="28.7914030" lon="-17.8476480">
        <ele>1394.0</ele>
        <time>2020-11-16T14:50:14Z</time>
      </trkpt>
      <trkpt lat="28.7914030" lon="-17.8476480">
        <ele>1394.0</ele>
        <time>2020-11-16T14:50:15Z</time>
      </trkpt>
      <trkpt lat="28.7914230" lon="-17.8475620">
        <ele>1393.6</ele>
        <time>2020-11-16T14:50:16Z</time>
      </trkpt>
      <trkpt lat="28.7914230" lon="-17.8475620">
        <ele>1393.6</ele>
        <time>2020-11-16T14:50:17Z</time>
      </trkpt>
      <trkpt lat="28.7914580" lon="-17.8474980">
        <ele>1393.2</ele>
        <time>2020-11-16T14:50:18Z</time>
      </trkpt>
      <trkpt lat="28.7914580" lon="-17.8474980">
        <ele>1393.2</ele>
        <time>2020-11-16T14:50:19Z</time>
      </trkpt>
      <trkpt lat="28.7914970" lon="-17.8474630">
        <ele>1392.9</ele>
        <time>2020-11-16T14:50:20Z</time>
      </trkpt>
      <trkpt lat="28.7914970" lon="-17.8474630">
        <ele>1392.9</ele>
        <time>2020-11-16T14:50:21Z</time>
      </trkpt>
      <trkpt lat="28.7915350" lon="-17.8474250">
        <ele>1392.7</ele>
        <time>2020-11-16T14:50:22Z</time>
      </trkpt>
      <trkpt lat="28.7915350" lon="-17.8474250">
        <ele>1392.7</ele>
        <time>2020-11-16T14:50:23Z</time>
      </trkpt>
      <trkpt lat="28.7915600" lon="-17.8473580">
        <ele>1392.3</ele>
        <time>2020-11-16T14:50:24Z</time>
      </trkpt>
      <trkpt lat="28.7915680" lon="-17.8473150">
        <ele>1392.1</ele>
        <time>2020-11-16T14:50:25Z</time>
      </trkpt>
      <trkpt lat="28.7915800" lon="-17.8472650">
        <ele>1391.8</ele>
        <time>2020-11-16T14:50:26Z</time>
      </trkpt>
      <trkpt lat="28.7915800" lon="-17.8472650">
        <ele>1391.8</ele>
        <time>2020-11-16T14:50:27Z</time>
      </trkpt>
      <trkpt lat="28.7915930" lon="-17.8471450">
        <ele>1391.3</ele>
        <time>2020-11-16T14:50:28Z</time>
      </trkpt>
      <trkpt lat="28.7915930" lon="-17.8471450">
        <ele>1391.3</ele>
        <time>2020-11-16T14:50:29Z</time>
      </trkpt>
      <trkpt lat="28.7916050" lon="-17.8470480">
        <ele>1390.8</ele>
        <time>2020-11-16T14:50:30Z</time>
      </trkpt>
      <trkpt lat="28.7916050" lon="-17.8470480">
        <ele>1390.8</ele>
        <time>2020-11-16T14:50:31Z</time>
      </trkpt>
      <trkpt lat="28.7916320" lon="-17.8469350">
        <ele>1390.2</ele>
        <time>2020-11-16T14:50:32Z</time>
      </trkpt>
      <trkpt lat="28.7916330" lon="-17.8468920">
        <ele>1390.0</ele>
        <time>2020-11-16T14:50:33Z</time>
      </trkpt>
      <trkpt lat="28.7916330" lon="-17.8468920">
        <ele>1390.0</ele>
        <time>2020-11-16T14:50:34Z</time>
      </trkpt>
      <trkpt lat="28.7916630" lon="-17.8467980">
        <ele>1389.5</ele>
        <time>2020-11-16T14:50:35Z</time>
      </trkpt>
      <trkpt lat="28.7916630" lon="-17.8467980">
        <ele>1389.5</ele>
        <time>2020-11-16T14:50:36Z</time>
      </trkpt>
      <trkpt lat="28.7917180" lon="-17.8467130">
        <ele>1389.0</ele>
        <time>2020-11-16T14:50:37Z</time>
      </trkpt>
      <trkpt lat="28.7917400" lon="-17.8466780">
        <ele>1388.8</ele>
        <time>2020-11-16T14:50:38Z</time>
      </trkpt>
      <trkpt lat="28.7917400" lon="-17.8466780">
        <ele>1388.8</ele>
        <time>2020-11-16T14:50:39Z</time>
      </trkpt>
      <trkpt lat="28.7917930" lon="-17.8466230">
        <ele>1388.4</ele>
        <time>2020-11-16T14:50:40Z</time>
      </trkpt>
      <trkpt lat="28.7917930" lon="-17.8466230">
        <ele>1388.4</ele>
        <time>2020-11-16T14:50:41Z</time>
      </trkpt>
      <trkpt lat="28.7918730" lon="-17.8465580">
        <ele>1387.9</ele>
        <time>2020-11-16T14:50:42Z</time>
      </trkpt>
      <trkpt lat="28.7918730" lon="-17.8465580">
        <ele>1387.9</ele>
        <time>2020-11-16T14:50:43Z</time>
      </trkpt>
      <trkpt lat="28.7919550" lon="-17.8464750">
        <ele>1387.3</ele>
        <time>2020-11-16T14:50:44Z</time>
      </trkpt>
      <trkpt lat="28.7919550" lon="-17.8464750">
        <ele>1387.3</ele>
        <time>2020-11-16T14:50:45Z</time>
      </trkpt>
      <trkpt lat="28.7920420" lon="-17.8464000">
        <ele>1386.6</ele>
        <time>2020-11-16T14:50:46Z</time>
      </trkpt>
      <trkpt lat="28.7920420" lon="-17.8464000">
        <ele>1386.6</ele>
        <time>2020-11-16T14:50:47Z</time>
      </trkpt>
      <trkpt lat="28.7921150" lon="-17.8463350">
        <ele>1386.1</ele>
        <time>2020-11-16T14:50:48Z</time>
      </trkpt>
      <trkpt lat="28.7921150" lon="-17.8463350">
        <ele>1386.1</ele>
        <time>2020-11-16T14:50:49Z</time>
      </trkpt>
      <trkpt lat="28.7921980" lon="-17.8462350">
        <ele>1385.5</ele>
        <time>2020-11-16T14:50:50Z</time>
      </trkpt>
      <trkpt lat="28.7921980" lon="-17.8462350">
        <ele>1385.5</ele>
        <time>2020-11-16T14:50:51Z</time>
      </trkpt>
      <trkpt lat="28.7922720" lon="-17.8461430">
        <ele>1384.9</ele>
        <time>2020-11-16T14:50:52Z</time>
      </trkpt>
      <trkpt lat="28.7923070" lon="-17.8461080">
        <ele>1384.6</ele>
        <time>2020-11-16T14:50:53Z</time>
      </trkpt>
      <trkpt lat="28.7923380" lon="-17.8460770">
        <ele>1384.4</ele>
        <time>2020-11-16T14:50:54Z</time>
      </trkpt>
      <trkpt lat="28.7923380" lon="-17.8460770">
        <ele>1384.4</ele>
        <time>2020-11-16T14:50:55Z</time>
      </trkpt>
      <trkpt lat="28.7924070" lon="-17.8460100">
        <ele>1383.9</ele>
        <time>2020-11-16T14:50:56Z</time>
      </trkpt>
      <trkpt lat="28.7924070" lon="-17.8460100">
        <ele>1383.9</ele>
        <time>2020-11-16T14:50:57Z</time>
      </trkpt>
      <trkpt lat="28.7924880" lon="-17.8459080">
        <ele>1383.2</ele>
        <time>2020-11-16T14:50:58Z</time>
      </trkpt>
      <trkpt lat="28.7924880" lon="-17.8459080">
        <ele>1383.2</ele>
        <time>2020-11-16T14:50:59Z</time>
      </trkpt>
      <trkpt lat="28.7925220" lon="-17.8458180">
        <ele>1382.7</ele>
        <time>2020-11-16T14:51:00Z</time>
      </trkpt>
      <trkpt lat="28.7925330" lon="-17.8457700">
        <ele>1382.5</ele>
        <time>2020-11-16T14:51:01Z</time>
      </trkpt>
      <trkpt lat="28.7925330" lon="-17.8457700">
        <ele>1382.5</ele>
        <time>2020-11-16T14:51:02Z</time>
      </trkpt>
      <trkpt lat="28.7925630" lon="-17.8456720">
        <ele>1382.0</ele>
        <time>2020-11-16T14:51:03Z</time>
      </trkpt>
      <trkpt lat="28.7925630" lon="-17.8456720">
        <ele>1382.0</ele>
        <time>2020-11-16T14:51:04Z</time>
      </trkpt>
      <trkpt lat="28.7925770" lon="-17.8455620">
        <ele>1381.5</ele>
        <time>2020-11-16T14:51:05Z</time>
      </trkpt>
      <trkpt lat="28.7925770" lon="-17.8455620">
        <ele>1381.5</ele>
        <time>2020-11-16T14:51:06Z</time>
      </trkpt>
      <trkpt lat="28.7925930" lon="-17.8454400">
        <ele>1380.9</ele>
        <time>2020-11-16T14:51:07Z</time>
      </trkpt>
      <trkpt lat="28.7925900" lon="-17.8453730">
        <ele>1380.5</ele>
        <time>2020-11-16T14:51:08Z</time>
      </trkpt>
      <trkpt lat="28.7925900" lon="-17.8453730">
        <ele>1380.5</ele>
        <time>2020-11-16T14:51:09Z</time>
      </trkpt>
      <trkpt lat="28.7925600" lon="-17.8452680">
        <ele>1380.0</ele>
        <time>2020-11-16T14:51:10Z</time>
      </trkpt>
      <trkpt lat="28.7925600" lon="-17.8452680">
        <ele>1380.0</ele>
        <time>2020-11-16T14:51:11Z</time>
      </trkpt>
      <trkpt lat="28.7925480" lon="-17.8451580">
        <ele>1379.5</ele>
        <time>2020-11-16T14:51:12Z</time>
      </trkpt>
      <trkpt lat="28.7925480" lon="-17.8451580">
        <ele>1379.5</ele>
        <time>2020-11-16T14:51:13Z</time>
      </trkpt>
      <trkpt lat="28.7925230" lon="-17.8450700">
        <ele>1379.0</ele>
        <time>2020-11-16T14:51:14Z</time>
      </trkpt>
      <trkpt lat="28.7925230" lon="-17.8450700">
        <ele>1379.0</ele>
        <time>2020-11-16T14:51:15Z</time>
      </trkpt>
      <trkpt lat="28.7924880" lon="-17.8449720">
        <ele>1378.5</ele>
        <time>2020-11-16T14:51:16Z</time>
      </trkpt>
      <trkpt lat="28.7924880" lon="-17.8449720">
        <ele>1378.5</ele>
        <time>2020-11-16T14:51:17Z</time>
      </trkpt>
      <trkpt lat="28.7924880" lon="-17.8448750">
        <ele>1378.0</ele>
        <time>2020-11-16T14:51:18Z</time>
      </trkpt>
      <trkpt lat="28.7924920" lon="-17.8448380">
        <ele>1377.8</ele>
        <time>2020-11-16T14:51:19Z</time>
      </trkpt>
      <trkpt lat="28.7925120" lon="-17.8448170">
        <ele>1377.7</ele>
        <time>2020-11-16T14:51:20Z</time>
      </trkpt>
      <trkpt lat="28.7925120" lon="-17.8448170">
        <ele>1377.7</ele>
        <time>2020-11-16T14:51:21Z</time>
      </trkpt>
      <trkpt lat="28.7925670" lon="-17.8448080">
        <ele>1377.4</ele>
        <time>2020-11-16T14:51:22Z</time>
      </trkpt>
      <trkpt lat="28.7925670" lon="-17.8448080">
        <ele>1377.4</ele>
        <time>2020-11-16T14:51:23Z</time>
      </trkpt>
      <trkpt lat="28.7926280" lon="-17.8448430">
        <ele>1377.0</ele>
        <time>2020-11-16T14:51:24Z</time>
      </trkpt>
      <trkpt lat="28.7926280" lon="-17.8448430">
        <ele>1377.0</ele>
        <time>2020-11-16T14:51:25Z</time>
      </trkpt>
      <trkpt lat="28.7926850" lon="-17.8449070">
        <ele>1376.6</ele>
        <time>2020-11-16T14:51:26Z</time>
      </trkpt>
      <trkpt lat="28.7926850" lon="-17.8449070">
        <ele>1376.6</ele>
        <time>2020-11-16T14:51:27Z</time>
      </trkpt>
      <trkpt lat="28.7927300" lon="-17.8449780">
        <ele>1376.1</ele>
        <time>2020-11-16T14:51:28Z</time>
      </trkpt>
      <trkpt lat="28.7927300" lon="-17.8449780">
        <ele>1376.1</ele>
        <time>2020-11-16T14:51:29Z</time>
      </trkpt>
      <trkpt lat="28.7927680" lon="-17.8450680">
        <ele>1375.7</ele>
        <time>2020-11-16T14:51:30Z</time>
      </trkpt>
      <trkpt lat="28.7927680" lon="-17.8450680">
        <ele>1375.7</ele>
        <time>2020-11-16T14:51:31Z</time>
      </trkpt>
      <trkpt lat="28.7928200" lon="-17.8451520">
        <ele>1375.2</ele>
        <time>2020-11-16T14:51:32Z</time>
      </trkpt>
      <trkpt lat="28.7928200" lon="-17.8451520">
        <ele>1375.2</ele>
        <time>2020-11-16T14:51:33Z</time>
      </trkpt>
      <trkpt lat="28.7928700" lon="-17.8452300">
        <ele>1374.7</ele>
        <time>2020-11-16T14:51:34Z</time>
      </trkpt>
      <trkpt lat="28.7928880" lon="-17.8452580">
        <ele>1374.5</ele>
        <time>2020-11-16T14:51:35Z</time>
      </trkpt>
      <trkpt lat="28.7928880" lon="-17.8452580">
        <ele>1374.5</ele>
        <time>2020-11-16T14:51:36Z</time>
      </trkpt>
      <trkpt lat="28.7929250" lon="-17.8452970">
        <ele>1374.2</ele>
        <time>2020-11-16T14:51:37Z</time>
      </trkpt>
      <trkpt lat="28.7929250" lon="-17.8452970">
        <ele>1374.2</ele>
        <time>2020-11-16T14:51:38Z</time>
      </trkpt>
      <trkpt lat="28.7929650" lon="-17.8453450">
        <ele>1373.9</ele>
        <time>2020-11-16T14:51:39Z</time>
      </trkpt>
      <trkpt lat="28.7929650" lon="-17.8453450">
        <ele>1373.9</ele>
        <time>2020-11-16T14:51:40Z</time>
      </trkpt>
      <trkpt lat="28.7930150" lon="-17.8454000">
        <ele>1373.5</ele>
        <time>2020-11-16T14:51:41Z</time>
      </trkpt>
      <trkpt lat="28.7930150" lon="-17.8454000">
        <ele>1373.5</ele>
        <time>2020-11-16T14:51:42Z</time>
      </trkpt>
      <trkpt lat="28.7930600" lon="-17.8454470">
        <ele>1373.2</ele>
        <time>2020-11-16T14:51:43Z</time>
      </trkpt>
      <trkpt lat="28.7930780" lon="-17.8454750">
        <ele>1373.0</ele>
        <time>2020-11-16T14:51:44Z</time>
      </trkpt>
      <trkpt lat="28.7930780" lon="-17.8454750">
        <ele>1373.0</ele>
        <time>2020-11-16T14:51:45Z</time>
      </trkpt>
      <trkpt lat="28.7931120" lon="-17.8455370">
        <ele>1372.7</ele>
        <time>2020-11-16T14:51:46Z</time>
      </trkpt>
      <trkpt lat="28.7931120" lon="-17.8455370">
        <ele>1372.7</ele>
        <time>2020-11-16T14:51:47Z</time>
      </trkpt>
      <trkpt lat="28.7931320" lon="-17.8456000">
        <ele>1372.4</ele>
        <time>2020-11-16T14:51:48Z</time>
      </trkpt>
      <trkpt lat="28.7931320" lon="-17.8456000">
        <ele>1372.4</ele>
        <time>2020-11-16T14:51:49Z</time>
      </trkpt>
      <trkpt lat="28.7931350" lon="-17.8456700">
        <ele>1372.0</ele>
        <time>2020-11-16T14:51:50Z</time>
      </trkpt>
      <trkpt lat="28.7931350" lon="-17.8456700">
        <ele>1372.0</ele>
        <time>2020-11-16T14:51:51Z</time>
      </trkpt>
      <trkpt lat="28.7931450" lon="-17.8457520">
        <ele>1371.6</ele>
        <time>2020-11-16T14:51:52Z</time>
      </trkpt>
      <trkpt lat="28.7931450" lon="-17.8457520">
        <ele>1371.6</ele>
        <time>2020-11-16T14:51:53Z</time>
      </trkpt>
      <trkpt lat="28.7931650" lon="-17.8458330">
        <ele>1371.2</ele>
        <time>2020-11-16T14:51:54Z</time>
      </trkpt>
      <trkpt lat="28.7931650" lon="-17.8458330">
        <ele>1371.2</ele>
        <time>2020-11-16T14:51:55Z</time>
      </trkpt>
      <trkpt lat="28.7931770" lon="-17.8459150">
        <ele>1370.8</ele>
        <time>2020-11-16T14:51:56Z</time>
      </trkpt>
      <trkpt lat="28.7931770" lon="-17.8459150">
        <ele>1370.8</ele>
        <time>2020-11-16T14:51:57Z</time>
      </trkpt>
      <trkpt lat="28.7931720" lon="-17.8460030">
        <ele>1370.4</ele>
        <time>2020-11-16T14:51:58Z</time>
      </trkpt>
      <trkpt lat="28.7931720" lon="-17.8460030">
        <ele>1370.4</ele>
        <time>2020-11-16T14:51:59Z</time>
      </trkpt>
      <trkpt lat="28.7931420" lon="-17.8461250">
        <ele>1369.8</ele>
        <time>2020-11-16T14:52:00Z</time>
      </trkpt>
      <trkpt lat="28.7931420" lon="-17.8461250">
        <ele>1369.8</ele>
        <time>2020-11-16T14:52:01Z</time>
      </trkpt>
      <trkpt lat="28.7931370" lon="-17.8462230">
        <ele>1369.3</ele>
        <time>2020-11-16T14:52:02Z</time>
      </trkpt>
      <trkpt lat="28.7931370" lon="-17.8462230">
        <ele>1369.3</ele>
        <time>2020-11-16T14:52:03Z</time>
      </trkpt>
      <trkpt lat="28.7931400" lon="-17.8463100">
        <ele>1368.9</ele>
        <time>2020-11-16T14:52:04Z</time>
      </trkpt>
      <trkpt lat="28.7931400" lon="-17.8463100">
        <ele>1368.9</ele>
        <time>2020-11-16T14:52:05Z</time>
      </trkpt>
      <trkpt lat="28.7931220" lon="-17.8463850">
        <ele>1368.5</ele>
        <time>2020-11-16T14:52:06Z</time>
      </trkpt>
      <trkpt lat="28.7931220" lon="-17.8463850">
        <ele>1368.5</ele>
        <time>2020-11-16T14:52:07Z</time>
      </trkpt>
      <trkpt lat="28.7930830" lon="-17.8464350">
        <ele>1368.2</ele>
        <time>2020-11-16T14:52:08Z</time>
      </trkpt>
      <trkpt lat="28.7930830" lon="-17.8464350">
        <ele>1368.2</ele>
        <time>2020-11-16T14:52:09Z</time>
      </trkpt>
      <trkpt lat="28.7930480" lon="-17.8464730">
        <ele>1367.9</ele>
        <time>2020-11-16T14:52:10Z</time>
      </trkpt>
      <trkpt lat="28.7930480" lon="-17.8464730">
        <ele>1367.9</ele>
        <time>2020-11-16T14:52:11Z</time>
      </trkpt>
      <trkpt lat="28.7930220" lon="-17.8465200">
        <ele>1367.6</ele>
        <time>2020-11-16T14:52:12Z</time>
      </trkpt>
      <trkpt lat="28.7930220" lon="-17.8465200">
        <ele>1367.6</ele>
        <time>2020-11-16T14:52:13Z</time>
      </trkpt>
      <trkpt lat="28.7930230" lon="-17.8466000">
        <ele>1367.2</ele>
        <time>2020-11-16T14:52:14Z</time>
      </trkpt>
      <trkpt lat="28.7930230" lon="-17.8466000">
        <ele>1367.2</ele>
        <time>2020-11-16T14:52:15Z</time>
      </trkpt>
      <trkpt lat="28.7930580" lon="-17.8466980">
        <ele>1366.7</ele>
        <time>2020-11-16T14:52:16Z</time>
      </trkpt>
      <trkpt lat="28.7930580" lon="-17.8466980">
        <ele>1366.7</ele>
        <time>2020-11-16T14:52:17Z</time>
      </trkpt>
      <trkpt lat="28.7931050" lon="-17.8467870">
        <ele>1366.2</ele>
        <time>2020-11-16T14:52:18Z</time>
      </trkpt>
      <trkpt lat="28.7931050" lon="-17.8467870">
        <ele>1366.2</ele>
        <time>2020-11-16T14:52:19Z</time>
      </trkpt>
      <trkpt lat="28.7931380" lon="-17.8468720">
        <ele>1365.8</ele>
        <time>2020-11-16T14:52:20Z</time>
      </trkpt>
      <trkpt lat="28.7931380" lon="-17.8468720">
        <ele>1365.8</ele>
        <time>2020-11-16T14:52:21Z</time>
      </trkpt>
      <trkpt lat="28.7931870" lon="-17.8469620">
        <ele>1365.3</ele>
        <time>2020-11-16T14:52:22Z</time>
      </trkpt>
      <trkpt lat="28.7931870" lon="-17.8469620">
        <ele>1365.3</ele>
        <time>2020-11-16T14:52:23Z</time>
      </trkpt>
      <trkpt lat="28.7932520" lon="-17.8470600">
        <ele>1364.7</ele>
        <time>2020-11-16T14:52:24Z</time>
      </trkpt>
      <trkpt lat="28.7932520" lon="-17.8470600">
        <ele>1364.7</ele>
        <time>2020-11-16T14:52:25Z</time>
      </trkpt>
      <trkpt lat="28.7932920" lon="-17.8471500">
        <ele>1364.2</ele>
        <time>2020-11-16T14:52:26Z</time>
      </trkpt>
      <trkpt lat="28.7932920" lon="-17.8471500">
        <ele>1364.2</ele>
        <time>2020-11-16T14:52:27Z</time>
      </trkpt>
      <trkpt lat="28.7932770" lon="-17.8472150">
        <ele>1363.9</ele>
        <time>2020-11-16T14:52:28Z</time>
      </trkpt>
      <trkpt lat="28.7932770" lon="-17.8472150">
        <ele>1363.9</ele>
        <time>2020-11-16T14:52:29Z</time>
      </trkpt>
      <trkpt lat="28.7932400" lon="-17.8472880">
        <ele>1363.4</ele>
        <time>2020-11-16T14:52:30Z</time>
      </trkpt>
      <trkpt lat="28.7932400" lon="-17.8472880">
        <ele>1363.4</ele>
        <time>2020-11-16T14:52:31Z</time>
      </trkpt>
      <trkpt lat="28.7931930" lon="-17.8473680">
        <ele>1363.0</ele>
        <time>2020-11-16T14:52:32Z</time>
      </trkpt>
      <trkpt lat="28.7931930" lon="-17.8473680">
        <ele>1363.0</ele>
        <time>2020-11-16T14:52:33Z</time>
      </trkpt>
      <trkpt lat="28.7931470" lon="-17.8474450">
        <ele>1362.5</ele>
        <time>2020-11-16T14:52:34Z</time>
      </trkpt>
      <trkpt lat="28.7931470" lon="-17.8474450">
        <ele>1362.5</ele>
        <time>2020-11-16T14:52:35Z</time>
      </trkpt>
      <trkpt lat="28.7931170" lon="-17.8475130">
        <ele>1362.2</ele>
        <time>2020-11-16T14:52:36Z</time>
      </trkpt>
      <trkpt lat="28.7931000" lon="-17.8475480">
        <ele>1362.0</ele>
        <time>2020-11-16T14:52:37Z</time>
      </trkpt>
      <trkpt lat="28.7931000" lon="-17.8475480">
        <ele>1362.0</ele>
        <time>2020-11-16T14:52:38Z</time>
      </trkpt>
      <trkpt lat="28.7930980" lon="-17.8476500">
        <ele>1361.5</ele>
        <time>2020-11-16T14:52:39Z</time>
      </trkpt>
      <trkpt lat="28.7930980" lon="-17.8476500">
        <ele>1361.5</ele>
        <time>2020-11-16T14:52:40Z</time>
      </trkpt>
      <trkpt lat="28.7931270" lon="-17.8477420">
        <ele>1361.0</ele>
        <time>2020-11-16T14:52:41Z</time>
      </trkpt>
      <trkpt lat="28.7931270" lon="-17.8477420">
        <ele>1361.0</ele>
        <time>2020-11-16T14:52:42Z</time>
      </trkpt>
      <trkpt lat="28.7931250" lon="-17.8478530">
        <ele>1360.5</ele>
        <time>2020-11-16T14:52:43Z</time>
      </trkpt>
      <trkpt lat="28.7931420" lon="-17.8479080">
        <ele>1360.2</ele>
        <time>2020-11-16T14:52:44Z</time>
      </trkpt>
      <trkpt lat="28.7931420" lon="-17.8479080">
        <ele>1360.2</ele>
        <time>2020-11-16T14:52:45Z</time>
      </trkpt>
      <trkpt lat="28.7931650" lon="-17.8480180">
        <ele>1359.6</ele>
        <time>2020-11-16T14:52:46Z</time>
      </trkpt>
      <trkpt lat="28.7931650" lon="-17.8480180">
        <ele>1359.6</ele>
        <time>2020-11-16T14:52:47Z</time>
      </trkpt>
      <trkpt lat="28.7932050" lon="-17.8481480">
        <ele>1359.0</ele>
        <time>2020-11-16T14:52:48Z</time>
      </trkpt>
      <trkpt lat="28.7932050" lon="-17.8481480">
        <ele>1359.0</ele>
        <time>2020-11-16T14:52:49Z</time>
      </trkpt>
      <trkpt lat="28.7932400" lon="-17.8483020">
        <ele>1358.2</ele>
        <time>2020-11-16T14:52:50Z</time>
      </trkpt>
      <trkpt lat="28.7932400" lon="-17.8483020">
        <ele>1358.5</ele>
        <time>2020-11-16T14:52:51Z</time>
      </trkpt>
      <trkpt lat="28.7932870" lon="-17.8484550">
        <ele>1356.9</ele>
        <time>2020-11-16T14:52:52Z</time>
      </trkpt>
      <trkpt lat="28.7932870" lon="-17.8484550">
        <ele>1357.2</ele>
        <time>2020-11-16T14:52:53Z</time>
      </trkpt>
      <trkpt lat="28.7933070" lon="-17.8485980">
        <ele>1357.1</ele>
        <time>2020-11-16T14:52:54Z</time>
      </trkpt>
      <trkpt lat="28.7933070" lon="-17.8485980">
        <ele>1357.4</ele>
        <time>2020-11-16T14:52:55Z</time>
      </trkpt>
      <trkpt lat="28.7932780" lon="-17.8487430">
        <ele>1357.2</ele>
        <time>2020-11-16T14:52:56Z</time>
      </trkpt>
      <trkpt lat="28.7932780" lon="-17.8487430">
        <ele>1357.5</ele>
        <time>2020-11-16T14:52:57Z</time>
      </trkpt>
      <trkpt lat="28.7932350" lon="-17.8488720">
        <ele>1358.3</ele>
        <time>2020-11-16T14:52:58Z</time>
      </trkpt>
      <trkpt lat="28.7932350" lon="-17.8488720">
        <ele>1358.6</ele>
        <time>2020-11-16T14:52:59Z</time>
      </trkpt>
      <trkpt lat="28.7932050" lon="-17.8489700">
        <ele>1357.5</ele>
        <time>2020-11-16T14:53:00Z</time>
      </trkpt>
      <trkpt lat="28.7932050" lon="-17.8489700">
        <ele>1357.7</ele>
        <time>2020-11-16T14:53:01Z</time>
      </trkpt>
      <trkpt lat="28.7931770" lon="-17.8490920">
        <ele>1357.5</ele>
        <time>2020-11-16T14:53:02Z</time>
      </trkpt>
      <trkpt lat="28.7931770" lon="-17.8490920">
        <ele>1357.8</ele>
        <time>2020-11-16T14:53:03Z</time>
      </trkpt>
      <trkpt lat="28.7932120" lon="-17.8491780">
        <ele>1355.2</ele>
        <time>2020-11-16T14:53:04Z</time>
      </trkpt>
      <trkpt lat="28.7932120" lon="-17.8491780">
        <ele>1355.5</ele>
        <time>2020-11-16T14:53:05Z</time>
      </trkpt>
      <trkpt lat="28.7932780" lon="-17.8492200">
        <ele>1352.9</ele>
        <time>2020-11-16T14:53:06Z</time>
      </trkpt>
      <trkpt lat="28.7932780" lon="-17.8492200">
        <ele>1352.9</ele>
        <time>2020-11-16T14:53:07Z</time>
      </trkpt>
      <trkpt lat="28.7933330" lon="-17.8492000">
        <ele>1352.6</ele>
        <time>2020-11-16T14:53:08Z</time>
      </trkpt>
      <trkpt lat="28.7933330" lon="-17.8492000">
        <ele>1352.6</ele>
        <time>2020-11-16T14:53:09Z</time>
      </trkpt>
      <trkpt lat="28.7933620" lon="-17.8491480">
        <ele>1352.3</ele>
        <time>2020-11-16T14:53:10Z</time>
      </trkpt>
      <trkpt lat="28.7933620" lon="-17.8491480">
        <ele>1352.3</ele>
        <time>2020-11-16T14:53:11Z</time>
      </trkpt>
      <trkpt lat="28.7933750" lon="-17.8491080">
        <ele>1352.1</ele>
        <time>2020-11-16T14:53:12Z</time>
      </trkpt>
      <trkpt lat="28.7933850" lon="-17.8490850">
        <ele>1352.0</ele>
        <time>2020-11-16T14:53:13Z</time>
      </trkpt>
      <trkpt lat="28.7933850" lon="-17.8490850">
        <ele>1352.0</ele>
        <time>2020-11-16T14:53:14Z</time>
      </trkpt>
      <trkpt lat="28.7934020" lon="-17.8490380">
        <ele>1351.7</ele>
        <time>2020-11-16T14:53:15Z</time>
      </trkpt>
      <trkpt lat="28.7934020" lon="-17.8490380">
        <ele>1351.7</ele>
        <time>2020-11-16T14:53:16Z</time>
      </trkpt>
      <trkpt lat="28.7934270" lon="-17.8489820">
        <ele>1351.4</ele>
        <time>2020-11-16T14:53:17Z</time>
      </trkpt>
      <trkpt lat="28.7934270" lon="-17.8489820">
        <ele>1351.4</ele>
        <time>2020-11-16T14:53:18Z</time>
      </trkpt>
      <trkpt lat="28.7934380" lon="-17.8489080">
        <ele>1351.1</ele>
        <time>2020-11-16T14:53:19Z</time>
      </trkpt>
      <trkpt lat="28.7934450" lon="-17.8488720">
        <ele>1350.9</ele>
        <time>2020-11-16T14:53:20Z</time>
      </trkpt>
      <trkpt lat="28.7934450" lon="-17.8488720">
        <ele>1350.9</ele>
        <time>2020-11-16T14:53:21Z</time>
      </trkpt>
      <trkpt lat="28.7934550" lon="-17.8487900">
        <ele>1350.6</ele>
        <time>2020-11-16T14:53:22Z</time>
      </trkpt>
      <trkpt lat="28.7934550" lon="-17.8487900">
        <ele>1350.6</ele>
        <time>2020-11-16T14:53:23Z</time>
      </trkpt>
      <trkpt lat="28.7934550" lon="-17.8487020">
        <ele>1350.2</ele>
        <time>2020-11-16T14:53:24Z</time>
      </trkpt>
      <trkpt lat="28.7934550" lon="-17.8486550">
        <ele>1349.9</ele>
        <time>2020-11-16T14:53:25Z</time>
      </trkpt>
      <trkpt lat="28.7934550" lon="-17.8486550">
        <ele>1349.9</ele>
        <time>2020-11-16T14:53:26Z</time>
      </trkpt>
      <trkpt lat="28.7934500" lon="-17.8485670">
        <ele>1349.5</ele>
        <time>2020-11-16T14:53:27Z</time>
      </trkpt>
      <trkpt lat="28.7934500" lon="-17.8485670">
        <ele>1349.5</ele>
        <time>2020-11-16T14:53:28Z</time>
      </trkpt>
      <trkpt lat="28.7934580" lon="-17.8484780">
        <ele>1349.1</ele>
        <time>2020-11-16T14:53:29Z</time>
      </trkpt>
      <trkpt lat="28.7934580" lon="-17.8484780">
        <ele>1349.1</ele>
        <time>2020-11-16T14:53:30Z</time>
      </trkpt>
      <trkpt lat="28.7934420" lon="-17.8483830">
        <ele>1348.7</ele>
        <time>2020-11-16T14:53:31Z</time>
      </trkpt>
      <trkpt lat="28.7934530" lon="-17.8483250">
        <ele>1348.4</ele>
        <time>2020-11-16T14:53:32Z</time>
      </trkpt>
      <trkpt lat="28.7934530" lon="-17.8483250">
        <ele>1348.4</ele>
        <time>2020-11-16T14:53:33Z</time>
      </trkpt>
      <trkpt lat="28.7934830" lon="-17.8482100">
        <ele>1347.9</ele>
        <time>2020-11-16T14:53:34Z</time>
      </trkpt>
      <trkpt lat="28.7934830" lon="-17.8482100">
        <ele>1347.9</ele>
        <time>2020-11-16T14:53:35Z</time>
      </trkpt>
      <trkpt lat="28.7935200" lon="-17.8481050">
        <ele>1347.3</ele>
        <time>2020-11-16T14:53:36Z</time>
      </trkpt>
      <trkpt lat="28.7935200" lon="-17.8481050">
        <ele>1347.3</ele>
        <time>2020-11-16T14:53:37Z</time>
      </trkpt>
      <trkpt lat="28.7934980" lon="-17.8480050">
        <ele>1346.9</ele>
        <time>2020-11-16T14:53:38Z</time>
      </trkpt>
      <trkpt lat="28.7934980" lon="-17.8480050">
        <ele>1346.9</ele>
        <time>2020-11-16T14:53:39Z</time>
      </trkpt>
      <trkpt lat="28.7934530" lon="-17.8479220">
        <ele>1346.4</ele>
        <time>2020-11-16T14:53:40Z</time>
      </trkpt>
      <trkpt lat="28.7934420" lon="-17.8478830">
        <ele>1345.9</ele>
        <time>2020-11-16T14:53:41Z</time>
      </trkpt>
      <trkpt lat="28.7934420" lon="-17.8478830">
        <ele>1345.9</ele>
        <time>2020-11-16T14:53:42Z</time>
      </trkpt>
      <trkpt lat="28.7934630" lon="-17.8478000">
        <ele>1344.9</ele>
        <time>2020-11-16T14:53:43Z</time>
      </trkpt>
      <trkpt lat="28.7934630" lon="-17.8478000">
        <ele>1344.9</ele>
        <time>2020-11-16T14:53:44Z</time>
      </trkpt>
      <trkpt lat="28.7935250" lon="-17.8477550">
        <ele>1344.0</ele>
        <time>2020-11-16T14:53:45Z</time>
      </trkpt>
      <trkpt lat="28.7935250" lon="-17.8477550">
        <ele>1344.0</ele>
        <time>2020-11-16T14:53:46Z</time>
      </trkpt>
      <trkpt lat="28.7936220" lon="-17.8477030">
        <ele>1342.6</ele>
        <time>2020-11-16T14:53:47Z</time>
      </trkpt>
      <trkpt lat="28.7936220" lon="-17.8477030">
        <ele>1342.6</ele>
        <time>2020-11-16T14:53:48Z</time>
      </trkpt>
      <trkpt lat="28.7937070" lon="-17.8476450">
        <ele>1341.3</ele>
        <time>2020-11-16T14:53:49Z</time>
      </trkpt>
      <trkpt lat="28.7937070" lon="-17.8476450">
        <ele>1341.3</ele>
        <time>2020-11-16T14:53:50Z</time>
      </trkpt>
      <trkpt lat="28.7937930" lon="-17.8476020">
        <ele>1340.1</ele>
        <time>2020-11-16T14:53:51Z</time>
      </trkpt>
      <trkpt lat="28.7937930" lon="-17.8476020">
        <ele>1340.1</ele>
        <time>2020-11-16T14:53:52Z</time>
      </trkpt>
      <trkpt lat="28.7938850" lon="-17.8475600">
        <ele>1338.8</ele>
        <time>2020-11-16T14:53:53Z</time>
      </trkpt>
      <trkpt lat="28.7938850" lon="-17.8475600">
        <ele>1338.8</ele>
        <time>2020-11-16T14:53:54Z</time>
      </trkpt>
      <trkpt lat="28.7939880" lon="-17.8475280">
        <ele>1337.4</ele>
        <time>2020-11-16T14:53:55Z</time>
      </trkpt>
      <trkpt lat="28.7940420" lon="-17.8475130">
        <ele>1336.6</ele>
        <time>2020-11-16T14:53:56Z</time>
      </trkpt>
      <trkpt lat="28.7940420" lon="-17.8475130">
        <ele>1336.6</ele>
        <time>2020-11-16T14:53:57Z</time>
      </trkpt>
      <trkpt lat="28.7941350" lon="-17.8474520">
        <ele>1335.2</ele>
        <time>2020-11-16T14:53:58Z</time>
      </trkpt>
      <trkpt lat="28.7941670" lon="-17.8474150">
        <ele>1334.6</ele>
        <time>2020-11-16T14:53:59Z</time>
      </trkpt>
      <trkpt lat="28.7941670" lon="-17.8474150">
        <ele>1334.6</ele>
        <time>2020-11-16T14:54:00Z</time>
      </trkpt>
      <trkpt lat="28.7941450" lon="-17.8473320">
        <ele>1333.6</ele>
        <time>2020-11-16T14:54:01Z</time>
      </trkpt>
      <trkpt lat="28.7941450" lon="-17.8473320">
        <ele>1333.6</ele>
        <time>2020-11-16T14:54:02Z</time>
      </trkpt>
      <trkpt lat="28.7940800" lon="-17.8472230">
        <ele>1332.2</ele>
        <time>2020-11-16T14:54:03Z</time>
      </trkpt>
      <trkpt lat="28.7940800" lon="-17.8472230">
        <ele>1332.2</ele>
        <time>2020-11-16T14:54:04Z</time>
      </trkpt>
      <trkpt lat="28.7940400" lon="-17.8471300">
        <ele>1330.9</ele>
        <time>2020-11-16T14:54:05Z</time>
      </trkpt>
      <trkpt lat="28.7940400" lon="-17.8471300">
        <ele>1330.9</ele>
        <time>2020-11-16T14:54:06Z</time>
      </trkpt>
      <trkpt lat="28.7940380" lon="-17.8470400">
        <ele>1329.8</ele>
        <time>2020-11-16T14:54:07Z</time>
      </trkpt>
      <trkpt lat="28.7940650" lon="-17.8470000">
        <ele>1329.2</ele>
        <time>2020-11-16T14:54:08Z</time>
      </trkpt>
      <trkpt lat="28.7940650" lon="-17.8470000">
        <ele>1329.2</ele>
        <time>2020-11-16T14:54:09Z</time>
      </trkpt>
      <trkpt lat="28.7941180" lon="-17.8469650">
        <ele>1328.3</ele>
        <time>2020-11-16T14:54:10Z</time>
      </trkpt>
      <trkpt lat="28.7941180" lon="-17.8469650">
        <ele>1328.3</ele>
        <time>2020-11-16T14:54:11Z</time>
      </trkpt>
      <trkpt lat="28.7942170" lon="-17.8469170">
        <ele>1326.9</ele>
        <time>2020-11-16T14:54:12Z</time>
      </trkpt>
      <trkpt lat="28.7942700" lon="-17.8468950">
        <ele>1326.2</ele>
        <time>2020-11-16T14:54:13Z</time>
      </trkpt>
      <trkpt lat="28.7942700" lon="-17.8468950">
        <ele>1326.2</ele>
        <time>2020-11-16T14:54:14Z</time>
      </trkpt>
      <trkpt lat="28.7943530" lon="-17.8468480">
        <ele>1325.0</ele>
        <time>2020-11-16T14:54:15Z</time>
      </trkpt>
      <trkpt lat="28.7943530" lon="-17.8468480">
        <ele>1325.0</ele>
        <time>2020-11-16T14:54:16Z</time>
      </trkpt>
      <trkpt lat="28.7944250" lon="-17.8467800">
        <ele>1323.9</ele>
        <time>2020-11-16T14:54:17Z</time>
      </trkpt>
      <trkpt lat="28.7944250" lon="-17.8467800">
        <ele>1323.9</ele>
        <time>2020-11-16T14:54:18Z</time>
      </trkpt>
      <trkpt lat="28.7944930" lon="-17.8467020">
        <ele>1322.6</ele>
        <time>2020-11-16T14:54:19Z</time>
      </trkpt>
      <trkpt lat="28.7945180" lon="-17.8466420">
        <ele>1321.9</ele>
        <time>2020-11-16T14:54:20Z</time>
      </trkpt>
      <trkpt lat="28.7945180" lon="-17.8466420">
        <ele>1321.9</ele>
        <time>2020-11-16T14:54:21Z</time>
      </trkpt>
      <trkpt lat="28.7945520" lon="-17.8465150">
        <ele>1320.4</ele>
        <time>2020-11-16T14:54:22Z</time>
      </trkpt>
      <trkpt lat="28.7945520" lon="-17.8465150">
        <ele>1320.4</ele>
        <time>2020-11-16T14:54:23Z</time>
      </trkpt>
      <trkpt lat="28.7945450" lon="-17.8463970">
        <ele>1319.0</ele>
        <time>2020-11-16T14:54:24Z</time>
      </trkpt>
      <trkpt lat="28.7945450" lon="-17.8463970">
        <ele>1319.0</ele>
        <time>2020-11-16T14:54:25Z</time>
      </trkpt>
      <trkpt lat="28.7945830" lon="-17.8463030">
        <ele>1317.8</ele>
        <time>2020-11-16T14:54:26Z</time>
      </trkpt>
      <trkpt lat="28.7945830" lon="-17.8463030">
        <ele>1317.8</ele>
        <time>2020-11-16T14:54:27Z</time>
      </trkpt>
      <trkpt lat="28.7946570" lon="-17.8462050">
        <ele>1316.3</ele>
        <time>2020-11-16T14:54:28Z</time>
      </trkpt>
      <trkpt lat="28.7946570" lon="-17.8462050">
        <ele>1316.3</ele>
        <time>2020-11-16T14:54:29Z</time>
      </trkpt>
      <trkpt lat="28.7947230" lon="-17.8461030">
        <ele>1315.0</ele>
        <time>2020-11-16T14:54:30Z</time>
      </trkpt>
      <trkpt lat="28.7947230" lon="-17.8461030">
        <ele>1315.0</ele>
        <time>2020-11-16T14:54:31Z</time>
      </trkpt>
      <trkpt lat="28.7947830" lon="-17.8460220">
        <ele>1313.9</ele>
        <time>2020-11-16T14:54:32Z</time>
      </trkpt>
      <trkpt lat="28.7948100" lon="-17.8459830">
        <ele>1313.3</ele>
        <time>2020-11-16T14:54:33Z</time>
      </trkpt>
      <trkpt lat="28.7948100" lon="-17.8459830">
        <ele>1313.3</ele>
        <time>2020-11-16T14:54:34Z</time>
      </trkpt>
      <trkpt lat="28.7948780" lon="-17.8458800">
        <ele>1311.9</ele>
        <time>2020-11-16T14:54:35Z</time>
      </trkpt>
      <trkpt lat="28.7948780" lon="-17.8458800">
        <ele>1311.9</ele>
        <time>2020-11-16T14:54:36Z</time>
      </trkpt>
      <trkpt lat="28.7949400" lon="-17.8458050">
        <ele>1310.7</ele>
        <time>2020-11-16T14:54:37Z</time>
      </trkpt>
      <trkpt lat="28.7949800" lon="-17.8457550">
        <ele>1310.0</ele>
        <time>2020-11-16T14:54:38Z</time>
      </trkpt>
      <trkpt lat="28.7949800" lon="-17.8457550">
        <ele>1310.0</ele>
        <time>2020-11-16T14:54:39Z</time>
      </trkpt>
      <trkpt lat="28.7950570" lon="-17.8456530">
        <ele>1308.5</ele>
        <time>2020-11-16T14:54:40Z</time>
      </trkpt>
      <trkpt lat="28.7950570" lon="-17.8456530">
        <ele>1308.5</ele>
        <time>2020-11-16T14:54:41Z</time>
      </trkpt>
      <trkpt lat="28.7950830" lon="-17.8455320">
        <ele>1307.3</ele>
        <time>2020-11-16T14:54:42Z</time>
      </trkpt>
      <trkpt lat="28.7950830" lon="-17.8455320">
        <ele>1307.3</ele>
        <time>2020-11-16T14:54:43Z</time>
      </trkpt>
      <trkpt lat="28.7951000" lon="-17.8454080">
        <ele>1306.0</ele>
        <time>2020-11-16T14:54:44Z</time>
      </trkpt>
      <trkpt lat="28.7951000" lon="-17.8454080">
        <ele>1306.0</ele>
        <time>2020-11-16T14:54:45Z</time>
      </trkpt>
      <trkpt lat="28.7950920" lon="-17.8452480">
        <ele>1304.4</ele>
        <time>2020-11-16T14:54:46Z</time>
      </trkpt>
      <trkpt lat="28.7950920" lon="-17.8452480">
        <ele>1304.4</ele>
        <time>2020-11-16T14:54:47Z</time>
      </trkpt>
      <trkpt lat="28.7951000" lon="-17.8450980">
        <ele>1302.9</ele>
        <time>2020-11-16T14:54:48Z</time>
      </trkpt>
      <trkpt lat="28.7951000" lon="-17.8450980">
        <ele>1302.9</ele>
        <time>2020-11-16T14:54:49Z</time>
      </trkpt>
      <trkpt lat="28.7951150" lon="-17.8449620">
        <ele>1301.5</ele>
        <time>2020-11-16T14:54:50Z</time>
      </trkpt>
      <trkpt lat="28.7951150" lon="-17.8449620">
        <ele>1301.5</ele>
        <time>2020-11-16T14:54:51Z</time>
      </trkpt>
      <trkpt lat="28.7950970" lon="-17.8448480">
        <ele>1300.4</ele>
        <time>2020-11-16T14:54:52Z</time>
      </trkpt>
      <trkpt lat="28.7950970" lon="-17.8448480">
        <ele>1300.4</ele>
        <time>2020-11-16T14:54:53Z</time>
      </trkpt>
      <trkpt lat="28.7950700" lon="-17.8447270">
        <ele>1299.2</ele>
        <time>2020-11-16T14:54:54Z</time>
      </trkpt>
      <trkpt lat="28.7950700" lon="-17.8447270">
        <ele>1299.2</ele>
        <time>2020-11-16T14:54:55Z</time>
      </trkpt>
      <trkpt lat="28.7950280" lon="-17.8446280">
        <ele>1298.1</ele>
        <time>2020-11-16T14:54:56Z</time>
      </trkpt>
      <trkpt lat="28.7950280" lon="-17.8446280">
        <ele>1298.1</ele>
        <time>2020-11-16T14:54:57Z</time>
      </trkpt>
      <trkpt lat="28.7950130" lon="-17.8445500">
        <ele>1297.3</ele>
        <time>2020-11-16T14:54:58Z</time>
      </trkpt>
      <trkpt lat="28.7950130" lon="-17.8445500">
        <ele>1297.3</ele>
        <time>2020-11-16T14:54:59Z</time>
      </trkpt>
      <trkpt lat="28.7950620" lon="-17.8444700">
        <ele>1296.2</ele>
        <time>2020-11-16T14:55:00Z</time>
      </trkpt>
      <trkpt lat="28.7951050" lon="-17.8444400">
        <ele>1295.6</ele>
        <time>2020-11-16T14:55:01Z</time>
      </trkpt>
      <trkpt lat="28.7951050" lon="-17.8444400">
        <ele>1295.6</ele>
        <time>2020-11-16T14:55:02Z</time>
      </trkpt>
      <trkpt lat="28.7951900" lon="-17.8443580">
        <ele>1294.2</ele>
        <time>2020-11-16T14:55:03Z</time>
      </trkpt>
      <trkpt lat="28.7951900" lon="-17.8443580">
        <ele>1294.2</ele>
        <time>2020-11-16T14:55:04Z</time>
      </trkpt>
      <trkpt lat="28.7952030" lon="-17.8441700">
        <ele>1292.2</ele>
        <time>2020-11-16T14:55:05Z</time>
      </trkpt>
      <trkpt lat="28.7952030" lon="-17.8441700">
        <ele>1292.2</ele>
        <time>2020-11-16T14:55:06Z</time>
      </trkpt>
      <trkpt lat="28.7952030" lon="-17.8440520">
        <ele>1290.8</ele>
        <time>2020-11-16T14:55:07Z</time>
      </trkpt>
      <trkpt lat="28.7951920" lon="-17.8439930">
        <ele>1290.1</ele>
        <time>2020-11-16T14:55:08Z</time>
      </trkpt>
      <trkpt lat="28.7951920" lon="-17.8439930">
        <ele>1290.1</ele>
        <time>2020-11-16T14:55:09Z</time>
      </trkpt>
      <trkpt lat="28.7951830" lon="-17.8438900">
        <ele>1288.9</ele>
        <time>2020-11-16T14:55:10Z</time>
      </trkpt>
      <trkpt lat="28.7951830" lon="-17.8438900">
        <ele>1288.9</ele>
        <time>2020-11-16T14:55:11Z</time>
      </trkpt>
      <trkpt lat="28.7952130" lon="-17.8438230">
        <ele>1288.0</ele>
        <time>2020-11-16T14:55:12Z</time>
      </trkpt>
      <trkpt lat="28.7952130" lon="-17.8438230">
        <ele>1288.0</ele>
        <time>2020-11-16T14:55:13Z</time>
      </trkpt>
      <trkpt lat="28.7952550" lon="-17.8438070">
        <ele>1285.7</ele>
        <time>2020-11-16T14:55:14Z</time>
      </trkpt>
      <trkpt lat="28.7952550" lon="-17.8438070">
        <ele>1285.7</ele>
        <time>2020-11-16T14:55:15Z</time>
      </trkpt>
      <trkpt lat="28.7952970" lon="-17.8438180">
        <ele>1285.2</ele>
        <time>2020-11-16T14:55:16Z</time>
      </trkpt>
      <trkpt lat="28.7952970" lon="-17.8438180">
        <ele>1285.2</ele>
        <time>2020-11-16T14:55:17Z</time>
      </trkpt>
      <trkpt lat="28.7953250" lon="-17.8438670">
        <ele>1284.7</ele>
        <time>2020-11-16T14:55:18Z</time>
      </trkpt>
      <trkpt lat="28.7953430" lon="-17.8438920">
        <ele>1284.4</ele>
        <time>2020-11-16T14:55:19Z</time>
      </trkpt>
      <trkpt lat="28.7953630" lon="-17.8439180">
        <ele>1284.1</ele>
        <time>2020-11-16T14:55:20Z</time>
      </trkpt>
      <trkpt lat="28.7953630" lon="-17.8439180">
        <ele>1284.1</ele>
        <time>2020-11-16T14:55:21Z</time>
      </trkpt>
      <trkpt lat="28.7954170" lon="-17.8439820">
        <ele>1283.5</ele>
        <time>2020-11-16T14:55:22Z</time>
      </trkpt>
      <trkpt lat="28.7954170" lon="-17.8439820">
        <ele>1283.5</ele>
        <time>2020-11-16T14:55:23Z</time>
      </trkpt>
      <trkpt lat="28.7954550" lon="-17.8440420">
        <ele>1283.0</ele>
        <time>2020-11-16T14:55:24Z</time>
      </trkpt>
      <trkpt lat="28.7954550" lon="-17.8440420">
        <ele>1283.0</ele>
        <time>2020-11-16T14:55:25Z</time>
      </trkpt>
      <trkpt lat="28.7955050" lon="-17.8441020">
        <ele>1282.4</ele>
        <time>2020-11-16T14:55:26Z</time>
      </trkpt>
      <trkpt lat="28.7955050" lon="-17.8441020">
        <ele>1282.4</ele>
        <time>2020-11-16T14:55:27Z</time>
      </trkpt>
      <trkpt lat="28.7955380" lon="-17.8441730">
        <ele>1281.8</ele>
        <time>2020-11-16T14:55:28Z</time>
      </trkpt>
      <trkpt lat="28.7955380" lon="-17.8441730">
        <ele>1281.8</ele>
        <time>2020-11-16T14:55:29Z</time>
      </trkpt>
      <trkpt lat="28.7955430" lon="-17.8442520">
        <ele>1281.3</ele>
        <time>2020-11-16T14:55:30Z</time>
      </trkpt>
      <trkpt lat="28.7955430" lon="-17.8442520">
        <ele>1281.3</ele>
        <time>2020-11-16T14:55:31Z</time>
      </trkpt>
      <trkpt lat="28.7955480" lon="-17.8443470">
        <ele>1280.7</ele>
        <time>2020-11-16T14:55:32Z</time>
      </trkpt>
      <trkpt lat="28.7955480" lon="-17.8443470">
        <ele>1280.7</ele>
        <time>2020-11-16T14:55:33Z</time>
      </trkpt>
      <trkpt lat="28.7955920" lon="-17.8444420">
        <ele>1280.1</ele>
        <time>2020-11-16T14:55:34Z</time>
      </trkpt>
      <trkpt lat="28.7955920" lon="-17.8444420">
        <ele>1280.1</ele>
        <time>2020-11-16T14:55:35Z</time>
      </trkpt>
      <trkpt lat="28.7956650" lon="-17.8445520">
        <ele>1279.2</ele>
        <time>2020-11-16T14:55:36Z</time>
      </trkpt>
      <trkpt lat="28.7956650" lon="-17.8445520">
        <ele>1279.2</ele>
        <time>2020-11-16T14:55:37Z</time>
      </trkpt>
      <trkpt lat="28.7957420" lon="-17.8446520">
        <ele>1278.2</ele>
        <time>2020-11-16T14:55:38Z</time>
      </trkpt>
      <trkpt lat="28.7957420" lon="-17.8446520">
        <ele>1278.2</ele>
        <time>2020-11-16T14:55:39Z</time>
      </trkpt>
      <trkpt lat="28.7957520" lon="-17.8447720">
        <ele>1277.2</ele>
        <time>2020-11-16T14:55:40Z</time>
      </trkpt>
      <trkpt lat="28.7957520" lon="-17.8447720">
        <ele>1277.2</ele>
        <time>2020-11-16T14:55:41Z</time>
      </trkpt>
      <trkpt lat="28.7957450" lon="-17.8449000">
        <ele>1276.2</ele>
        <time>2020-11-16T14:55:42Z</time>
      </trkpt>
      <trkpt lat="28.7957450" lon="-17.8449000">
        <ele>1276.2</ele>
        <time>2020-11-16T14:55:43Z</time>
      </trkpt>
      <trkpt lat="28.7957770" lon="-17.8450430">
        <ele>1275.1</ele>
        <time>2020-11-16T14:55:44Z</time>
      </trkpt>
      <trkpt lat="28.7957770" lon="-17.8450430">
        <ele>1275.1</ele>
        <time>2020-11-16T14:55:45Z</time>
      </trkpt>
      <trkpt lat="28.7957700" lon="-17.8451930">
        <ele>1274.0</ele>
        <time>2020-11-16T14:55:46Z</time>
      </trkpt>
      <trkpt lat="28.7957700" lon="-17.8451930">
        <ele>1274.0</ele>
        <time>2020-11-16T14:55:47Z</time>
      </trkpt>
      <trkpt lat="28.7957930" lon="-17.8453100">
        <ele>1273.1</ele>
        <time>2020-11-16T14:55:48Z</time>
      </trkpt>
      <trkpt lat="28.7957930" lon="-17.8453100">
        <ele>1273.1</ele>
        <time>2020-11-16T14:55:49Z</time>
      </trkpt>
      <trkpt lat="28.7958370" lon="-17.8454280">
        <ele>1272.1</ele>
        <time>2020-11-16T14:55:50Z</time>
      </trkpt>
      <trkpt lat="28.7958370" lon="-17.8454280">
        <ele>1272.1</ele>
        <time>2020-11-16T14:55:51Z</time>
      </trkpt>
      <trkpt lat="28.7958800" lon="-17.8455420">
        <ele>1271.2</ele>
        <time>2020-11-16T14:55:52Z</time>
      </trkpt>
      <trkpt lat="28.7958800" lon="-17.8455420">
        <ele>1271.2</ele>
        <time>2020-11-16T14:55:53Z</time>
      </trkpt>
      <trkpt lat="28.7959070" lon="-17.8456520">
        <ele>1270.3</ele>
        <time>2020-11-16T14:55:54Z</time>
      </trkpt>
      <trkpt lat="28.7959070" lon="-17.8456520">
        <ele>1270.3</ele>
        <time>2020-11-16T14:55:55Z</time>
      </trkpt>
      <trkpt lat="28.7959250" lon="-17.8457500">
        <ele>1269.6</ele>
        <time>2020-11-16T14:55:56Z</time>
      </trkpt>
      <trkpt lat="28.7959250" lon="-17.8457500">
        <ele>1269.6</ele>
        <time>2020-11-16T14:55:57Z</time>
      </trkpt>
      <trkpt lat="28.7959180" lon="-17.8458870">
        <ele>1268.7</ele>
        <time>2020-11-16T14:55:58Z</time>
      </trkpt>
      <trkpt lat="28.7959180" lon="-17.8458870">
        <ele>1268.7</ele>
        <time>2020-11-16T14:55:59Z</time>
      </trkpt>
      <trkpt lat="28.7958850" lon="-17.8460000">
        <ele>1267.8</ele>
        <time>2020-11-16T14:56:00Z</time>
      </trkpt>
      <trkpt lat="28.7958850" lon="-17.8460000">
        <ele>1267.8</ele>
        <time>2020-11-16T14:56:01Z</time>
      </trkpt>
      <trkpt lat="28.7958530" lon="-17.8460850">
        <ele>1267.1</ele>
        <time>2020-11-16T14:56:02Z</time>
      </trkpt>
      <trkpt lat="28.7958530" lon="-17.8460850">
        <ele>1267.1</ele>
        <time>2020-11-16T14:56:03Z</time>
      </trkpt>
      <trkpt lat="28.7958150" lon="-17.8461600">
        <ele>1266.3</ele>
        <time>2020-11-16T14:56:04Z</time>
      </trkpt>
      <trkpt lat="28.7958150" lon="-17.8461600">
        <ele>1266.3</ele>
        <time>2020-11-16T14:56:05Z</time>
      </trkpt>
      <trkpt lat="28.7958030" lon="-17.8462370">
        <ele>1265.6</ele>
        <time>2020-11-16T14:56:06Z</time>
      </trkpt>
      <trkpt lat="28.7958030" lon="-17.8462370">
        <ele>1265.6</ele>
        <time>2020-11-16T14:56:07Z</time>
      </trkpt>
      <trkpt lat="28.7958270" lon="-17.8463450">
        <ele>1264.6</ele>
        <time>2020-11-16T14:56:08Z</time>
      </trkpt>
      <trkpt lat="28.7958270" lon="-17.8463450">
        <ele>1264.6</ele>
        <time>2020-11-16T14:56:09Z</time>
      </trkpt>
      <trkpt lat="28.7958720" lon="-17.8463980">
        <ele>1263.8</ele>
        <time>2020-11-16T14:56:10Z</time>
      </trkpt>
      <trkpt lat="28.7958720" lon="-17.8463980">
        <ele>1263.8</ele>
        <time>2020-11-16T14:56:11Z</time>
      </trkpt>
      <trkpt lat="28.7959250" lon="-17.8463720">
        <ele>1263.2</ele>
        <time>2020-11-16T14:56:12Z</time>
      </trkpt>
      <trkpt lat="28.7959250" lon="-17.8463720">
        <ele>1263.2</ele>
        <time>2020-11-16T14:56:13Z</time>
      </trkpt>
      <trkpt lat="28.7959720" lon="-17.8463370">
        <ele>1262.6</ele>
        <time>2020-11-16T14:56:14Z</time>
      </trkpt>
      <trkpt lat="28.7959720" lon="-17.8463370">
        <ele>1262.6</ele>
        <time>2020-11-16T14:56:15Z</time>
      </trkpt>
      <trkpt lat="28.7960370" lon="-17.8462830">
        <ele>1261.8</ele>
        <time>2020-11-16T14:56:16Z</time>
      </trkpt>
      <trkpt lat="28.7960370" lon="-17.8462830">
        <ele>1261.8</ele>
        <time>2020-11-16T14:56:17Z</time>
      </trkpt>
      <trkpt lat="28.7961150" lon="-17.8462250">
        <ele>1261.0</ele>
        <time>2020-11-16T14:56:18Z</time>
      </trkpt>
      <trkpt lat="28.7961150" lon="-17.8462250">
        <ele>1261.0</ele>
        <time>2020-11-16T14:56:19Z</time>
      </trkpt>
      <trkpt lat="28.7961870" lon="-17.8461480">
        <ele>1260.0</ele>
        <time>2020-11-16T14:56:20Z</time>
      </trkpt>
      <trkpt lat="28.7961870" lon="-17.8461480">
        <ele>1260.0</ele>
        <time>2020-11-16T14:56:21Z</time>
      </trkpt>
      <trkpt lat="28.7962670" lon="-17.8460650">
        <ele>1258.9</ele>
        <time>2020-11-16T14:56:22Z</time>
      </trkpt>
      <trkpt lat="28.7962670" lon="-17.8460650">
        <ele>1258.9</ele>
        <time>2020-11-16T14:56:23Z</time>
      </trkpt>
      <trkpt lat="28.7963320" lon="-17.8459770">
        <ele>1258.0</ele>
        <time>2020-11-16T14:56:24Z</time>
      </trkpt>
      <trkpt lat="28.7963320" lon="-17.8459770">
        <ele>1258.0</ele>
        <time>2020-11-16T14:56:25Z</time>
      </trkpt>
      <trkpt lat="28.7963930" lon="-17.8458980">
        <ele>1257.0</ele>
        <time>2020-11-16T14:56:26Z</time>
      </trkpt>
      <trkpt lat="28.7963930" lon="-17.8458980">
        <ele>1257.0</ele>
        <time>2020-11-16T14:56:27Z</time>
      </trkpt>
      <trkpt lat="28.7964600" lon="-17.8458270">
        <ele>1256.1</ele>
        <time>2020-11-16T14:56:28Z</time>
      </trkpt>
      <trkpt lat="28.7964600" lon="-17.8458270">
        <ele>1256.1</ele>
        <time>2020-11-16T14:56:29Z</time>
      </trkpt>
      <trkpt lat="28.7965300" lon="-17.8457680">
        <ele>1255.3</ele>
        <time>2020-11-16T14:56:30Z</time>
      </trkpt>
      <trkpt lat="28.7965300" lon="-17.8457680">
        <ele>1255.3</ele>
        <time>2020-11-16T14:56:31Z</time>
      </trkpt>
      <trkpt lat="28.7965970" lon="-17.8457230">
        <ele>1254.6</ele>
        <time>2020-11-16T14:56:32Z</time>
      </trkpt>
      <trkpt lat="28.7965970" lon="-17.8457230">
        <ele>1254.6</ele>
        <time>2020-11-16T14:56:33Z</time>
      </trkpt>
      <trkpt lat="28.7966820" lon="-17.8456970">
        <ele>1253.8</ele>
        <time>2020-11-16T14:56:34Z</time>
      </trkpt>
      <trkpt lat="28.7967270" lon="-17.8456800">
        <ele>1253.4</ele>
        <time>2020-11-16T14:56:35Z</time>
      </trkpt>
      <trkpt lat="28.7967270" lon="-17.8456800">
        <ele>1253.4</ele>
        <time>2020-11-16T14:56:36Z</time>
      </trkpt>
      <trkpt lat="28.7968120" lon="-17.8456600">
        <ele>1252.7</ele>
        <time>2020-11-16T14:56:37Z</time>
      </trkpt>
      <trkpt lat="28.7968120" lon="-17.8456600">
        <ele>1252.7</ele>
        <time>2020-11-16T14:56:38Z</time>
      </trkpt>
      <trkpt lat="28.7968950" lon="-17.8455970">
        <ele>1251.8</ele>
        <time>2020-11-16T14:56:39Z</time>
      </trkpt>
      <trkpt lat="28.7969170" lon="-17.8455580">
        <ele>1251.4</ele>
        <time>2020-11-16T14:56:40Z</time>
      </trkpt>
      <trkpt lat="28.7969170" lon="-17.8455580">
        <ele>1251.4</ele>
        <time>2020-11-16T14:56:41Z</time>
      </trkpt>
      <trkpt lat="28.7969520" lon="-17.8454520">
        <ele>1250.5</ele>
        <time>2020-11-16T14:56:42Z</time>
      </trkpt>
      <trkpt lat="28.7969520" lon="-17.8454520">
        <ele>1250.5</ele>
        <time>2020-11-16T14:56:43Z</time>
      </trkpt>
      <trkpt lat="28.7969850" lon="-17.8453570">
        <ele>1249.7</ele>
        <time>2020-11-16T14:56:44Z</time>
      </trkpt>
      <trkpt lat="28.7969850" lon="-17.8453570">
        <ele>1249.7</ele>
        <time>2020-11-16T14:56:45Z</time>
      </trkpt>
      <trkpt lat="28.7970220" lon="-17.8452650">
        <ele>1248.9</ele>
        <time>2020-11-16T14:56:46Z</time>
      </trkpt>
      <trkpt lat="28.7970220" lon="-17.8452650">
        <ele>1248.9</ele>
        <time>2020-11-16T14:56:47Z</time>
      </trkpt>
      <trkpt lat="28.7970430" lon="-17.8451350">
        <ele>1247.8</ele>
        <time>2020-11-16T14:56:48Z</time>
      </trkpt>
      <trkpt lat="28.7970430" lon="-17.8451350">
        <ele>1247.8</ele>
        <time>2020-11-16T14:56:49Z</time>
      </trkpt>
      <trkpt lat="28.7970600" lon="-17.8450280">
        <ele>1246.8</ele>
        <time>2020-11-16T14:56:50Z</time>
      </trkpt>
      <trkpt lat="28.7970600" lon="-17.8450280">
        <ele>1246.8</ele>
        <time>2020-11-16T14:56:51Z</time>
      </trkpt>
      <trkpt lat="28.7970900" lon="-17.8449530">
        <ele>1245.9</ele>
        <time>2020-11-16T14:56:52Z</time>
      </trkpt>
      <trkpt lat="28.7971030" lon="-17.8449330">
        <ele>1245.6</ele>
        <time>2020-11-16T14:56:53Z</time>
      </trkpt>
      <trkpt lat="28.7971030" lon="-17.8449330">
        <ele>1245.6</ele>
        <time>2020-11-16T14:56:54Z</time>
      </trkpt>
      <trkpt lat="28.7971350" lon="-17.8449100">
        <ele>1245.1</ele>
        <time>2020-11-16T14:56:55Z</time>
      </trkpt>
      <trkpt lat="28.7971530" lon="-17.8449100">
        <ele>1244.9</ele>
        <time>2020-11-16T14:56:56Z</time>
      </trkpt>
      <trkpt lat="28.7971530" lon="-17.8449100">
        <ele>1244.9</ele>
        <time>2020-11-16T14:56:57Z</time>
      </trkpt>
      <trkpt lat="28.7971920" lon="-17.8449430">
        <ele>1244.3</ele>
        <time>2020-11-16T14:56:58Z</time>
      </trkpt>
      <trkpt lat="28.7971920" lon="-17.8449430">
        <ele>1244.3</ele>
        <time>2020-11-16T14:56:59Z</time>
      </trkpt>
      <trkpt lat="28.7972020" lon="-17.8449770">
        <ele>1243.9</ele>
        <time>2020-11-16T14:57:00Z</time>
      </trkpt>
      <trkpt lat="28.7972020" lon="-17.8449770">
        <ele>1243.9</ele>
        <time>2020-11-16T14:57:01Z</time>
      </trkpt>
      <trkpt lat="28.7972120" lon="-17.8449950">
        <ele>1243.7</ele>
        <time>2020-11-16T14:57:02Z</time>
      </trkpt>
      <trkpt lat="28.7972120" lon="-17.8449950">
        <ele>1243.7</ele>
        <time>2020-11-16T14:57:03Z</time>
      </trkpt>
      <trkpt lat="28.7972250" lon="-17.8450150">
        <ele>1243.5</ele>
        <time>2020-11-16T14:57:04Z</time>
      </trkpt>
      <trkpt lat="28.7972250" lon="-17.8450150">
        <ele>1243.5</ele>
        <time>2020-11-16T14:57:05Z</time>
      </trkpt>
      <trkpt lat="28.7972330" lon="-17.8450380">
        <ele>1243.3</ele>
        <time>2020-11-16T14:57:06Z</time>
      </trkpt>
      <trkpt lat="28.7972330" lon="-17.8450380">
        <ele>1243.3</ele>
        <time>2020-11-16T14:57:07Z</time>
      </trkpt>
      <trkpt lat="28.7972650" lon="-17.8450780">
        <ele>1242.8</ele>
        <time>2020-11-16T14:57:08Z</time>
      </trkpt>
      <trkpt lat="28.7972650" lon="-17.8450780">
        <ele>1242.8</ele>
        <time>2020-11-16T14:57:09Z</time>
      </trkpt>
      <trkpt lat="28.7972950" lon="-17.8451320">
        <ele>1242.3</ele>
        <time>2020-11-16T14:57:10Z</time>
      </trkpt>
      <trkpt lat="28.7972950" lon="-17.8451320">
        <ele>1242.3</ele>
        <time>2020-11-16T14:57:11Z</time>
      </trkpt>
      <trkpt lat="28.7973320" lon="-17.8452130">
        <ele>1241.5</ele>
        <time>2020-11-16T14:57:12Z</time>
      </trkpt>
      <trkpt lat="28.7973320" lon="-17.8452130">
        <ele>1241.5</ele>
        <time>2020-11-16T14:57:13Z</time>
      </trkpt>
      <trkpt lat="28.7973870" lon="-17.8452920">
        <ele>1240.7</ele>
        <time>2020-11-16T14:57:14Z</time>
      </trkpt>
      <trkpt lat="28.7973870" lon="-17.8452920">
        <ele>1240.7</ele>
        <time>2020-11-16T14:57:15Z</time>
      </trkpt>
      <trkpt lat="28.7974280" lon="-17.8453920">
        <ele>1239.9</ele>
        <time>2020-11-16T14:57:16Z</time>
      </trkpt>
      <trkpt lat="28.7974280" lon="-17.8453920">
        <ele>1239.9</ele>
        <time>2020-11-16T14:57:17Z</time>
      </trkpt>
      <trkpt lat="28.7974670" lon="-17.8454770">
        <ele>1239.2</ele>
        <time>2020-11-16T14:57:18Z</time>
      </trkpt>
      <trkpt lat="28.7974870" lon="-17.8455170">
        <ele>1238.8</ele>
        <time>2020-11-16T14:57:19Z</time>
      </trkpt>
      <trkpt lat="28.7975030" lon="-17.8455580">
        <ele>1238.4</ele>
        <time>2020-11-16T14:57:20Z</time>
      </trkpt>
      <trkpt lat="28.7975030" lon="-17.8455580">
        <ele>1238.4</ele>
        <time>2020-11-16T14:57:21Z</time>
      </trkpt>
      <trkpt lat="28.7975050" lon="-17.8456820">
        <ele>1237.4</ele>
        <time>2020-11-16T14:57:22Z</time>
      </trkpt>
      <trkpt lat="28.7974770" lon="-17.8457770">
        <ele>1236.5</ele>
        <time>2020-11-16T14:57:23Z</time>
      </trkpt>
      <trkpt lat="28.7974770" lon="-17.8457770">
        <ele>1236.5</ele>
        <time>2020-11-16T14:57:24Z</time>
      </trkpt>
      <trkpt lat="28.7974430" lon="-17.8459520">
        <ele>1235.0</ele>
        <time>2020-11-16T14:57:25Z</time>
      </trkpt>
      <trkpt lat="28.7974430" lon="-17.8459520">
        <ele>1235.0</ele>
        <time>2020-11-16T14:57:26Z</time>
      </trkpt>
      <trkpt lat="28.7974370" lon="-17.8461000">
        <ele>1233.8</ele>
        <time>2020-11-16T14:57:27Z</time>
      </trkpt>
      <trkpt lat="28.7974370" lon="-17.8461000">
        <ele>1233.8</ele>
        <time>2020-11-16T14:57:28Z</time>
      </trkpt>
      <trkpt lat="28.7974300" lon="-17.8462170">
        <ele>1232.8</ele>
        <time>2020-11-16T14:57:29Z</time>
      </trkpt>
      <trkpt lat="28.7974300" lon="-17.8462170">
        <ele>1232.8</ele>
        <time>2020-11-16T14:57:30Z</time>
      </trkpt>
      <trkpt lat="28.7974200" lon="-17.8463400">
        <ele>1231.8</ele>
        <time>2020-11-16T14:57:31Z</time>
      </trkpt>
      <trkpt lat="28.7974200" lon="-17.8463400">
        <ele>1231.8</ele>
        <time>2020-11-16T14:57:32Z</time>
      </trkpt>
      <trkpt lat="28.7974030" lon="-17.8464280">
        <ele>1231.1</ele>
        <time>2020-11-16T14:57:33Z</time>
      </trkpt>
      <trkpt lat="28.7974030" lon="-17.8464620">
        <ele>1230.9</ele>
        <time>2020-11-16T14:57:34Z</time>
      </trkpt>
      <trkpt lat="28.7974030" lon="-17.8464620">
        <ele>1230.9</ele>
        <time>2020-11-16T14:57:35Z</time>
      </trkpt>
      <trkpt lat="28.7974130" lon="-17.8465400">
        <ele>1230.4</ele>
        <time>2020-11-16T14:57:36Z</time>
      </trkpt>
      <trkpt lat="28.7974130" lon="-17.8465400">
        <ele>1230.4</ele>
        <time>2020-11-16T14:57:37Z</time>
      </trkpt>
      <trkpt lat="28.7974230" lon="-17.8466320">
        <ele>1229.8</ele>
        <time>2020-11-16T14:57:38Z</time>
      </trkpt>
      <trkpt lat="28.7974230" lon="-17.8466320">
        <ele>1229.8</ele>
        <time>2020-11-16T14:57:39Z</time>
      </trkpt>
      <trkpt lat="28.7974530" lon="-17.8467500">
        <ele>1228.9</ele>
        <time>2020-11-16T14:57:40Z</time>
      </trkpt>
      <trkpt lat="28.7974530" lon="-17.8467500">
        <ele>1228.9</ele>
        <time>2020-11-16T14:57:41Z</time>
      </trkpt>
      <trkpt lat="28.7974650" lon="-17.8468850">
        <ele>1227.7</ele>
        <time>2020-11-16T14:57:42Z</time>
      </trkpt>
      <trkpt lat="28.7974650" lon="-17.8468850">
        <ele>1227.7</ele>
        <time>2020-11-16T14:57:43Z</time>
      </trkpt>
      <trkpt lat="28.7974850" lon="-17.8469880">
        <ele>1226.5</ele>
        <time>2020-11-16T14:57:44Z</time>
      </trkpt>
      <trkpt lat="28.7974850" lon="-17.8469880">
        <ele>1226.5</ele>
        <time>2020-11-16T14:57:45Z</time>
      </trkpt>
      <trkpt lat="28.7975650" lon="-17.8469980">
        <ele>1225.4</ele>
        <time>2020-11-16T14:57:46Z</time>
      </trkpt>
      <trkpt lat="28.7975650" lon="-17.8469980">
        <ele>1225.4</ele>
        <time>2020-11-16T14:57:47Z</time>
      </trkpt>
      <trkpt lat="28.7975980" lon="-17.8469370">
        <ele>1224.7</ele>
        <time>2020-11-16T14:57:48Z</time>
      </trkpt>
      <trkpt lat="28.7975980" lon="-17.8469370">
        <ele>1224.7</ele>
        <time>2020-11-16T14:57:49Z</time>
      </trkpt>
      <trkpt lat="28.7976250" lon="-17.8468480">
        <ele>1223.8</ele>
        <time>2020-11-16T14:57:50Z</time>
      </trkpt>
      <trkpt lat="28.7976250" lon="-17.8468480">
        <ele>1223.8</ele>
        <time>2020-11-16T14:57:51Z</time>
      </trkpt>
      <trkpt lat="28.7976730" lon="-17.8467520">
        <ele>1222.8</ele>
        <time>2020-11-16T14:57:52Z</time>
      </trkpt>
      <trkpt lat="28.7976730" lon="-17.8467520">
        <ele>1222.8</ele>
        <time>2020-11-16T14:57:53Z</time>
      </trkpt>
      <trkpt lat="28.7977270" lon="-17.8466780">
        <ele>1221.9</ele>
        <time>2020-11-16T14:57:54Z</time>
      </trkpt>
      <trkpt lat="28.7977600" lon="-17.8466480">
        <ele>1221.5</ele>
        <time>2020-11-16T14:57:55Z</time>
      </trkpt>
      <trkpt lat="28.7977600" lon="-17.8466480">
        <ele>1221.5</ele>
        <time>2020-11-16T14:57:56Z</time>
      </trkpt>
      <trkpt lat="28.7978250" lon="-17.8465900">
        <ele>1220.6</ele>
        <time>2020-11-16T14:57:57Z</time>
      </trkpt>
      <trkpt lat="28.7978250" lon="-17.8465900">
        <ele>1220.6</ele>
        <time>2020-11-16T14:57:58Z</time>
      </trkpt>
      <trkpt lat="28.7978800" lon="-17.8465350">
        <ele>1219.9</ele>
        <time>2020-11-16T14:57:59Z</time>
      </trkpt>
      <trkpt lat="28.7978800" lon="-17.8465350">
        <ele>1219.9</ele>
        <time>2020-11-16T14:58:00Z</time>
      </trkpt>
      <trkpt lat="28.7979320" lon="-17.8464750">
        <ele>1219.2</ele>
        <time>2020-11-16T14:58:01Z</time>
      </trkpt>
      <trkpt lat="28.7979320" lon="-17.8464750">
        <ele>1219.2</ele>
        <time>2020-11-16T14:58:02Z</time>
      </trkpt>
      <trkpt lat="28.7980020" lon="-17.8464150">
        <ele>1218.3</ele>
        <time>2020-11-16T14:58:03Z</time>
      </trkpt>
      <trkpt lat="28.7980020" lon="-17.8464150">
        <ele>1218.3</ele>
        <time>2020-11-16T14:58:04Z</time>
      </trkpt>
      <trkpt lat="28.7980800" lon="-17.8463350">
        <ele>1217.4</ele>
        <time>2020-11-16T14:58:05Z</time>
      </trkpt>
      <trkpt lat="28.7981170" lon="-17.8462870">
        <ele>1216.9</ele>
        <time>2020-11-16T14:58:06Z</time>
      </trkpt>
      <trkpt lat="28.7981170" lon="-17.8462870">
        <ele>1216.9</ele>
        <time>2020-11-16T14:58:07Z</time>
      </trkpt>
      <trkpt lat="28.7981730" lon="-17.8461800">
        <ele>1215.9</ele>
        <time>2020-11-16T14:58:08Z</time>
      </trkpt>
      <trkpt lat="28.7981730" lon="-17.8461800">
        <ele>1215.9</ele>
        <time>2020-11-16T14:58:09Z</time>
      </trkpt>
      <trkpt lat="28.7982150" lon="-17.8460550">
        <ele>1214.8</ele>
        <time>2020-11-16T14:58:10Z</time>
      </trkpt>
      <trkpt lat="28.7982280" lon="-17.8459950">
        <ele>1214.4</ele>
        <time>2020-11-16T14:58:11Z</time>
      </trkpt>
      <trkpt lat="28.7982280" lon="-17.8459950">
        <ele>1214.4</ele>
        <time>2020-11-16T14:58:12Z</time>
      </trkpt>
      <trkpt lat="28.7982400" lon="-17.8458630">
        <ele>1213.4</ele>
        <time>2020-11-16T14:58:13Z</time>
      </trkpt>
      <trkpt lat="28.7982400" lon="-17.8458630">
        <ele>1213.4</ele>
        <time>2020-11-16T14:58:14Z</time>
      </trkpt>
      <trkpt lat="28.7982150" lon="-17.8457620">
        <ele>1212.7</ele>
        <time>2020-11-16T14:58:15Z</time>
      </trkpt>
      <trkpt lat="28.7982150" lon="-17.8457620">
        <ele>1212.7</ele>
        <time>2020-11-16T14:58:16Z</time>
      </trkpt>
      <trkpt lat="28.7982200" lon="-17.8456720">
        <ele>1212.0</ele>
        <time>2020-11-16T14:58:17Z</time>
      </trkpt>
      <trkpt lat="28.7982200" lon="-17.8456720">
        <ele>1212.0</ele>
        <time>2020-11-16T14:58:18Z</time>
      </trkpt>
      <trkpt lat="28.7982630" lon="-17.8455970">
        <ele>1211.1</ele>
        <time>2020-11-16T14:58:19Z</time>
      </trkpt>
      <trkpt lat="28.7982950" lon="-17.8455850">
        <ele>1210.7</ele>
        <time>2020-11-16T14:58:20Z</time>
      </trkpt>
      <trkpt lat="28.7982950" lon="-17.8455850">
        <ele>1210.7</ele>
        <time>2020-11-16T14:58:21Z</time>
      </trkpt>
      <trkpt lat="28.7983520" lon="-17.8456020">
        <ele>1209.9</ele>
        <time>2020-11-16T14:58:22Z</time>
      </trkpt>
      <trkpt lat="28.7983520" lon="-17.8456020">
        <ele>1209.9</ele>
        <time>2020-11-16T14:58:23Z</time>
      </trkpt>
      <trkpt lat="28.7983720" lon="-17.8456780">
        <ele>1209.5</ele>
        <time>2020-11-16T14:58:24Z</time>
      </trkpt>
      <trkpt lat="28.7983720" lon="-17.8456780">
        <ele>1209.5</ele>
        <time>2020-11-16T14:58:25Z</time>
      </trkpt>
      <trkpt lat="28.7983980" lon="-17.8457600">
        <ele>1209.1</ele>
        <time>2020-11-16T14:58:26Z</time>
      </trkpt>
      <trkpt lat="28.7983980" lon="-17.8457600">
        <ele>1209.1</ele>
        <time>2020-11-16T14:58:27Z</time>
      </trkpt>
      <trkpt lat="28.7984400" lon="-17.8458470">
        <ele>1208.6</ele>
        <time>2020-11-16T14:58:28Z</time>
      </trkpt>
      <trkpt lat="28.7984400" lon="-17.8458470">
        <ele>1208.6</ele>
        <time>2020-11-16T14:58:29Z</time>
      </trkpt>
      <trkpt lat="28.7984830" lon="-17.8459300">
        <ele>1208.1</ele>
        <time>2020-11-16T14:58:30Z</time>
      </trkpt>
      <trkpt lat="28.7984830" lon="-17.8459300">
        <ele>1208.1</ele>
        <time>2020-11-16T14:58:31Z</time>
      </trkpt>
      <trkpt lat="28.7984970" lon="-17.8460170">
        <ele>1207.7</ele>
        <time>2020-11-16T14:58:32Z</time>
      </trkpt>
      <trkpt lat="28.7984970" lon="-17.8460170">
        <ele>1207.7</ele>
        <time>2020-11-16T14:58:33Z</time>
      </trkpt>
      <trkpt lat="28.7985030" lon="-17.8461170">
        <ele>1207.1</ele>
        <time>2020-11-16T14:58:34Z</time>
      </trkpt>
      <trkpt lat="28.7985030" lon="-17.8461170">
        <ele>1207.1</ele>
        <time>2020-11-16T14:58:35Z</time>
      </trkpt>
      <trkpt lat="28.7984920" lon="-17.8461920">
        <ele>1206.7</ele>
        <time>2020-11-16T14:58:36Z</time>
      </trkpt>
      <trkpt lat="28.7984920" lon="-17.8461920">
        <ele>1206.7</ele>
        <time>2020-11-16T14:58:37Z</time>
      </trkpt>
      <trkpt lat="28.7984700" lon="-17.8462680">
        <ele>1206.2</ele>
        <time>2020-11-16T14:58:38Z</time>
      </trkpt>
      <trkpt lat="28.7984700" lon="-17.8462680">
        <ele>1206.2</ele>
        <time>2020-11-16T14:58:39Z</time>
      </trkpt>
      <trkpt lat="28.7984330" lon="-17.8463400">
        <ele>1205.6</ele>
        <time>2020-11-16T14:58:40Z</time>
      </trkpt>
      <trkpt lat="28.7984330" lon="-17.8463400">
        <ele>1205.6</ele>
        <time>2020-11-16T14:58:41Z</time>
      </trkpt>
      <trkpt lat="28.7984020" lon="-17.8464320">
        <ele>1204.9</ele>
        <time>2020-11-16T14:58:42Z</time>
      </trkpt>
      <trkpt lat="28.7984020" lon="-17.8464320">
        <ele>1204.9</ele>
        <time>2020-11-16T14:58:43Z</time>
      </trkpt>
      <trkpt lat="28.7983700" lon="-17.8465550">
        <ele>1204.2</ele>
        <time>2020-11-16T14:58:44Z</time>
      </trkpt>
      <trkpt lat="28.7983700" lon="-17.8465550">
        <ele>1204.2</ele>
        <time>2020-11-16T14:58:45Z</time>
      </trkpt>
      <trkpt lat="28.7983650" lon="-17.8466780">
        <ele>1203.5</ele>
        <time>2020-11-16T14:58:46Z</time>
      </trkpt>
      <trkpt lat="28.7983650" lon="-17.8466780">
        <ele>1203.5</ele>
        <time>2020-11-16T14:58:47Z</time>
      </trkpt>
      <trkpt lat="28.7983380" lon="-17.8467830">
        <ele>1203.0</ele>
        <time>2020-11-16T14:58:48Z</time>
      </trkpt>
      <trkpt lat="28.7983380" lon="-17.8467830">
        <ele>1203.0</ele>
        <time>2020-11-16T14:58:49Z</time>
      </trkpt>
      <trkpt lat="28.7983170" lon="-17.8468870">
        <ele>1202.6</ele>
        <time>2020-11-16T14:58:50Z</time>
      </trkpt>
      <trkpt lat="28.7983080" lon="-17.8469250">
        <ele>1202.4</ele>
        <time>2020-11-16T14:58:51Z</time>
      </trkpt>
      <trkpt lat="28.7983080" lon="-17.8469250">
        <ele>1202.4</ele>
        <time>2020-11-16T14:58:52Z</time>
      </trkpt>
      <trkpt lat="28.7982880" lon="-17.8470070">
        <ele>1202.0</ele>
        <time>2020-11-16T14:58:53Z</time>
      </trkpt>
      <trkpt lat="28.7982920" lon="-17.8470520">
        <ele>1201.8</ele>
        <time>2020-11-16T14:58:54Z</time>
      </trkpt>
      <trkpt lat="28.7982920" lon="-17.8470520">
        <ele>1201.8</ele>
        <time>2020-11-16T14:58:55Z</time>
      </trkpt>
      <trkpt lat="28.7983020" lon="-17.8471770">
        <ele>1201.2</ele>
        <time>2020-11-16T14:58:56Z</time>
      </trkpt>
      <trkpt lat="28.7983020" lon="-17.8471770">
        <ele>1201.9</ele>
        <time>2020-11-16T14:58:57Z</time>
      </trkpt>
      <trkpt lat="28.7983180" lon="-17.8473050">
        <ele>1198.4</ele>
        <time>2020-11-16T14:58:58Z</time>
      </trkpt>
      <trkpt lat="28.7983270" lon="-17.8473670">
        <ele>1198.0</ele>
        <time>2020-11-16T14:58:59Z</time>
      </trkpt>
      <trkpt lat="28.7983270" lon="-17.8473670">
        <ele>1198.8</ele>
        <time>2020-11-16T14:59:00Z</time>
      </trkpt>
      <trkpt lat="28.7983320" lon="-17.8474720">
        <ele>1196.3</ele>
        <time>2020-11-16T14:59:01Z</time>
      </trkpt>
      <trkpt lat="28.7983320" lon="-17.8474720">
        <ele>1197.1</ele>
        <time>2020-11-16T14:59:02Z</time>
      </trkpt>
      <trkpt lat="28.7983070" lon="-17.8475920">
        <ele>1195.9</ele>
        <time>2020-11-16T14:59:03Z</time>
      </trkpt>
      <trkpt lat="28.7983070" lon="-17.8475920">
        <ele>1196.6</ele>
        <time>2020-11-16T14:59:04Z</time>
      </trkpt>
      <trkpt lat="28.7982880" lon="-17.8477100">
        <ele>1195.5</ele>
        <time>2020-11-16T14:59:05Z</time>
      </trkpt>
      <trkpt lat="28.7982880" lon="-17.8477100">
        <ele>1196.2</ele>
        <time>2020-11-16T14:59:06Z</time>
      </trkpt>
      <trkpt lat="28.7983220" lon="-17.8477830">
        <ele>1194.0</ele>
        <time>2020-11-16T14:59:07Z</time>
      </trkpt>
      <trkpt lat="28.7983220" lon="-17.8477830">
        <ele>1194.7</ele>
        <time>2020-11-16T14:59:08Z</time>
      </trkpt>
      <trkpt lat="28.7983850" lon="-17.8477680">
        <ele>1194.6</ele>
        <time>2020-11-16T14:59:09Z</time>
      </trkpt>
      <trkpt lat="28.7984020" lon="-17.8477280">
        <ele>1194.3</ele>
        <time>2020-11-16T14:59:10Z</time>
      </trkpt>
      <trkpt lat="28.7984020" lon="-17.8477280">
        <ele>1194.3</ele>
        <time>2020-11-16T14:59:11Z</time>
      </trkpt>
      <trkpt lat="28.7984220" lon="-17.8476600">
        <ele>1193.8</ele>
        <time>2020-11-16T14:59:12Z</time>
      </trkpt>
      <trkpt lat="28.7984220" lon="-17.8476600">
        <ele>1193.8</ele>
        <time>2020-11-16T14:59:13Z</time>
      </trkpt>
      <trkpt lat="28.7984600" lon="-17.8476330">
        <ele>1193.4</ele>
        <time>2020-11-16T14:59:14Z</time>
      </trkpt>
      <trkpt lat="28.7984600" lon="-17.8476330">
        <ele>1193.4</ele>
        <time>2020-11-16T14:59:15Z</time>
      </trkpt>
      <trkpt lat="28.7984430" lon="-17.8475520">
        <ele>1192.8</ele>
        <time>2020-11-16T14:59:16Z</time>
      </trkpt>
      <trkpt lat="28.7984400" lon="-17.8475100">
        <ele>1192.4</ele>
        <time>2020-11-16T14:59:17Z</time>
      </trkpt>
      <trkpt lat="28.7984400" lon="-17.8475100">
        <ele>1192.4</ele>
        <time>2020-11-16T14:59:18Z</time>
      </trkpt>
      <trkpt lat="28.7984220" lon="-17.8474330">
        <ele>1191.7</ele>
        <time>2020-11-16T14:59:19Z</time>
      </trkpt>
      <trkpt lat="28.7984130" lon="-17.8474030">
        <ele>1191.4</ele>
        <time>2020-11-16T14:59:20Z</time>
      </trkpt>
      <trkpt lat="28.7984130" lon="-17.8474030">
        <ele>1191.4</ele>
        <time>2020-11-16T14:59:21Z</time>
      </trkpt>
      <trkpt lat="28.7984270" lon="-17.8473420">
        <ele>1190.9</ele>
        <time>2020-11-16T14:59:22Z</time>
      </trkpt>
      <trkpt lat="28.7984270" lon="-17.8473420">
        <ele>1190.9</ele>
        <time>2020-11-16T14:59:23Z</time>
      </trkpt>
      <trkpt lat="28.7984680" lon="-17.8472900">
        <ele>1190.4</ele>
        <time>2020-11-16T14:59:24Z</time>
      </trkpt>
      <trkpt lat="28.7984680" lon="-17.8472900">
        <ele>1190.4</ele>
        <time>2020-11-16T14:59:25Z</time>
      </trkpt>
      <trkpt lat="28.7985370" lon="-17.8472470">
        <ele>1189.8</ele>
        <time>2020-11-16T14:59:26Z</time>
      </trkpt>
      <trkpt lat="28.7985370" lon="-17.8472470">
        <ele>1189.8</ele>
        <time>2020-11-16T14:59:27Z</time>
      </trkpt>
      <trkpt lat="28.7986280" lon="-17.8471920">
        <ele>1189.1</ele>
        <time>2020-11-16T14:59:28Z</time>
      </trkpt>
      <trkpt lat="28.7986280" lon="-17.8471920">
        <ele>1189.1</ele>
        <time>2020-11-16T14:59:29Z</time>
      </trkpt>
      <trkpt lat="28.7987520" lon="-17.8471330">
        <ele>1188.2</ele>
        <time>2020-11-16T14:59:30Z</time>
      </trkpt>
      <trkpt lat="28.7987930" lon="-17.8471100">
        <ele>1187.9</ele>
        <time>2020-11-16T14:59:31Z</time>
      </trkpt>
      <trkpt lat="28.7987930" lon="-17.8471100">
        <ele>1187.9</ele>
        <time>2020-11-16T14:59:32Z</time>
      </trkpt>
      <trkpt lat="28.7989000" lon="-17.8470950">
        <ele>1187.3</ele>
        <time>2020-11-16T14:59:33Z</time>
      </trkpt>
      <trkpt lat="28.7989470" lon="-17.8471000">
        <ele>1187.0</ele>
        <time>2020-11-16T14:59:34Z</time>
      </trkpt>
      <trkpt lat="28.7989470" lon="-17.8471000">
        <ele>1187.0</ele>
        <time>2020-11-16T14:59:35Z</time>
      </trkpt>
      <trkpt lat="28.7990320" lon="-17.8471180">
        <ele>1186.5</ele>
        <time>2020-11-16T14:59:36Z</time>
      </trkpt>
      <trkpt lat="28.7990730" lon="-17.8471370">
        <ele>1186.3</ele>
        <time>2020-11-16T14:59:37Z</time>
      </trkpt>
      <trkpt lat="28.7990730" lon="-17.8471370">
        <ele>1186.3</ele>
        <time>2020-11-16T14:59:38Z</time>
      </trkpt>
      <trkpt lat="28.7991680" lon="-17.8471650">
        <ele>1185.6</ele>
        <time>2020-11-16T14:59:39Z</time>
      </trkpt>
      <trkpt lat="28.7991680" lon="-17.8471650">
        <ele>1185.6</ele>
        <time>2020-11-16T14:59:40Z</time>
      </trkpt>
      <trkpt lat="28.7992580" lon="-17.8471730">
        <ele>1184.9</ele>
        <time>2020-11-16T14:59:41Z</time>
      </trkpt>
      <trkpt lat="28.7992970" lon="-17.8471680">
        <ele>1184.5</ele>
        <time>2020-11-16T14:59:42Z</time>
      </trkpt>
      <trkpt lat="28.7992970" lon="-17.8471680">
        <ele>1184.5</ele>
        <time>2020-11-16T14:59:43Z</time>
      </trkpt>
      <trkpt lat="28.7993670" lon="-17.8471000">
        <ele>1183.9</ele>
        <time>2020-11-16T14:59:44Z</time>
      </trkpt>
      <trkpt lat="28.7993670" lon="-17.8471000">
        <ele>1183.9</ele>
        <time>2020-11-16T14:59:45Z</time>
      </trkpt>
      <trkpt lat="28.7994170" lon="-17.8470270">
        <ele>1183.5</ele>
        <time>2020-11-16T14:59:46Z</time>
      </trkpt>
      <trkpt lat="28.7994430" lon="-17.8469820">
        <ele>1183.2</ele>
        <time>2020-11-16T14:59:47Z</time>
      </trkpt>
      <trkpt lat="28.7994430" lon="-17.8469820">
        <ele>1183.2</ele>
        <time>2020-11-16T14:59:48Z</time>
      </trkpt>
      <trkpt lat="28.7994980" lon="-17.8468770">
        <ele>1182.7</ele>
        <time>2020-11-16T14:59:49Z</time>
      </trkpt>
      <trkpt lat="28.7994980" lon="-17.8468770">
        <ele>1182.7</ele>
        <time>2020-11-16T14:59:50Z</time>
      </trkpt>
      <trkpt lat="28.7995270" lon="-17.8467930">
        <ele>1182.2</ele>
        <time>2020-11-16T14:59:51Z</time>
      </trkpt>
      <trkpt lat="28.7995270" lon="-17.8467930">
        <ele>1182.2</ele>
        <time>2020-11-16T14:59:52Z</time>
      </trkpt>
      <trkpt lat="28.7995530" lon="-17.8467320">
        <ele>1181.9</ele>
        <time>2020-11-16T14:59:53Z</time>
      </trkpt>
      <trkpt lat="28.7995530" lon="-17.8467320">
        <ele>1181.9</ele>
        <time>2020-11-16T14:59:54Z</time>
      </trkpt>
      <trkpt lat="28.7995800" lon="-17.8466830">
        <ele>1181.6</ele>
        <time>2020-11-16T14:59:55Z</time>
      </trkpt>
      <trkpt lat="28.7995800" lon="-17.8466830">
        <ele>1181.6</ele>
        <time>2020-11-16T14:59:56Z</time>
      </trkpt>
      <trkpt lat="28.7996130" lon="-17.8466250">
        <ele>1180.9</ele>
        <time>2020-11-16T14:59:57Z</time>
      </trkpt>
      <trkpt lat="28.7996270" lon="-17.8466050">
        <ele>1180.6</ele>
        <time>2020-11-16T14:59:58Z</time>
      </trkpt>
      <trkpt lat="28.7996270" lon="-17.8466050">
        <ele>1180.6</ele>
        <time>2020-11-16T14:59:59Z</time>
      </trkpt>
      <trkpt lat="28.7996570" lon="-17.8465950">
        <ele>1180.2</ele>
        <time>2020-11-16T15:00:00Z</time>
      </trkpt>
      <trkpt lat="28.7996570" lon="-17.8465950">
        <ele>1180.2</ele>
        <time>2020-11-16T15:00:01Z</time>
      </trkpt>
      <trkpt lat="28.7996770" lon="-17.8466170">
        <ele>1179.8</ele>
        <time>2020-11-16T15:00:02Z</time>
      </trkpt>
      <trkpt lat="28.7996770" lon="-17.8466170">
        <ele>1179.8</ele>
        <time>2020-11-16T15:00:03Z</time>
      </trkpt>
      <trkpt lat="28.7996850" lon="-17.8466220">
        <ele>1179.7</ele>
        <time>2020-11-16T15:00:04Z</time>
      </trkpt>
      <trkpt lat="28.7996850" lon="-17.8466220">
        <ele>1179.7</ele>
        <time>2020-11-16T15:00:05Z</time>
      </trkpt>
      <trkpt lat="28.7996920" lon="-17.8466130">
        <ele>1179.5</ele>
        <time>2020-11-16T15:00:06Z</time>
      </trkpt>
      <trkpt lat="28.7996920" lon="-17.8466130">
        <ele>1179.5</ele>
        <time>2020-11-16T15:00:59Z</time>
      </trkpt>
      <trkpt lat="28.7996370" lon="-17.8465920">
        <ele>1178.7</ele>
        <time>2020-11-16T15:01:00Z</time>
      </trkpt>
      <trkpt lat="28.7996350" lon="-17.8466120">
        <ele>1178.5</ele>
        <time>2020-11-16T15:01:01Z</time>
      </trkpt>
      <trkpt lat="28.7996350" lon="-17.8466120">
        <ele>1178.5</ele>
        <time>2020-11-16T15:01:02Z</time>
      </trkpt>
      <trkpt lat="28.7996350" lon="-17.8466730">
        <ele>1177.8</ele>
        <time>2020-11-16T15:01:03Z</time>
      </trkpt>
      <trkpt lat="28.7996350" lon="-17.8466730">
        <ele>1177.8</ele>
        <time>2020-11-16T15:01:04Z</time>
      </trkpt>
      <trkpt lat="28.7996350" lon="-17.8467320">
        <ele>1177.2</ele>
        <time>2020-11-16T15:01:05Z</time>
      </trkpt>
      <trkpt lat="28.7996350" lon="-17.8467320">
        <ele>1177.2</ele>
        <time>2020-11-16T15:01:06Z</time>
      </trkpt>
      <trkpt lat="28.7996320" lon="-17.8467970">
        <ele>1176.6</ele>
        <time>2020-11-16T15:01:07Z</time>
      </trkpt>
      <trkpt lat="28.7996320" lon="-17.8467970">
        <ele>1176.6</ele>
        <time>2020-11-16T15:01:08Z</time>
      </trkpt>
      <trkpt lat="28.7996330" lon="-17.8468650">
        <ele>1176.0</ele>
        <time>2020-11-16T15:01:09Z</time>
      </trkpt>
      <trkpt lat="28.7996330" lon="-17.8468650">
        <ele>1176.0</ele>
        <time>2020-11-16T15:01:10Z</time>
      </trkpt>
      <trkpt lat="28.7996530" lon="-17.8469430">
        <ele>1175.3</ele>
        <time>2020-11-16T15:01:11Z</time>
      </trkpt>
      <trkpt lat="28.7996530" lon="-17.8469430">
        <ele>1175.3</ele>
        <time>2020-11-16T15:01:12Z</time>
      </trkpt>
      <trkpt lat="28.7996720" lon="-17.8470350">
        <ele>1174.5</ele>
        <time>2020-11-16T15:01:13Z</time>
      </trkpt>
      <trkpt lat="28.7996720" lon="-17.8470350">
        <ele>1174.5</ele>
        <time>2020-11-16T15:01:14Z</time>
      </trkpt>
      <trkpt lat="28.7996450" lon="-17.8471100">
        <ele>1173.9</ele>
        <time>2020-11-16T15:01:15Z</time>
      </trkpt>
      <trkpt lat="28.7996450" lon="-17.8471100">
        <ele>1173.9</ele>
        <time>2020-11-16T15:01:16Z</time>
      </trkpt>
      <trkpt lat="28.7996000" lon="-17.8471580">
        <ele>1173.3</ele>
        <time>2020-11-16T15:01:17Z</time>
      </trkpt>
      <trkpt lat="28.7996000" lon="-17.8471580">
        <ele>1173.3</ele>
        <time>2020-11-16T15:01:18Z</time>
      </trkpt>
      <trkpt lat="28.7995450" lon="-17.8471820">
        <ele>1172.7</ele>
        <time>2020-11-16T15:01:19Z</time>
      </trkpt>
      <trkpt lat="28.7995450" lon="-17.8471820">
        <ele>1172.7</ele>
        <time>2020-11-16T15:01:20Z</time>
      </trkpt>
      <trkpt lat="28.7995000" lon="-17.8471900">
        <ele>1172.3</ele>
        <time>2020-11-16T15:01:21Z</time>
      </trkpt>
      <trkpt lat="28.7995000" lon="-17.8471900">
        <ele>1172.3</ele>
        <time>2020-11-16T15:01:22Z</time>
      </trkpt>
      <trkpt lat="28.7994620" lon="-17.8472050">
        <ele>1171.9</ele>
        <time>2020-11-16T15:01:23Z</time>
      </trkpt>
      <trkpt lat="28.7994620" lon="-17.8472050">
        <ele>1171.9</ele>
        <time>2020-11-16T15:01:24Z</time>
      </trkpt>
      <trkpt lat="28.7994120" lon="-17.8472250">
        <ele>1171.4</ele>
        <time>2020-11-16T15:01:25Z</time>
      </trkpt>
      <trkpt lat="28.7994120" lon="-17.8472250">
        <ele>1171.4</ele>
        <time>2020-11-16T15:01:26Z</time>
      </trkpt>
      <trkpt lat="28.7993520" lon="-17.8472480">
        <ele>1170.7</ele>
        <time>2020-11-16T15:01:27Z</time>
      </trkpt>
      <trkpt lat="28.7993520" lon="-17.8472480">
        <ele>1170.7</ele>
        <time>2020-11-16T15:01:28Z</time>
      </trkpt>
      <trkpt lat="28.7993020" lon="-17.8472620">
        <ele>1170.2</ele>
        <time>2020-11-16T15:01:29Z</time>
      </trkpt>
      <trkpt lat="28.7993020" lon="-17.8472620">
        <ele>1170.2</ele>
        <time>2020-11-16T15:01:30Z</time>
      </trkpt>
      <trkpt lat="28.7992570" lon="-17.8472670">
        <ele>1169.7</ele>
        <time>2020-11-16T15:01:31Z</time>
      </trkpt>
      <trkpt lat="28.7992570" lon="-17.8472670">
        <ele>1169.7</ele>
        <time>2020-11-16T15:01:32Z</time>
      </trkpt>
      <trkpt lat="28.7991830" lon="-17.8473050">
        <ele>1168.7</ele>
        <time>2020-11-16T15:01:33Z</time>
      </trkpt>
      <trkpt lat="28.7991520" lon="-17.8473180">
        <ele>1168.3</ele>
        <time>2020-11-16T15:01:34Z</time>
      </trkpt>
      <trkpt lat="28.7991230" lon="-17.8473200">
        <ele>1168.0</ele>
        <time>2020-11-16T15:01:35Z</time>
      </trkpt>
      <trkpt lat="28.7991230" lon="-17.8473200">
        <ele>1168.0</ele>
        <time>2020-11-16T15:01:36Z</time>
      </trkpt>
      <trkpt lat="28.7990100" lon="-17.8473730">
        <ele>1166.6</ele>
        <time>2020-11-16T15:01:37Z</time>
      </trkpt>
      <trkpt lat="28.7989820" lon="-17.8473850">
        <ele>1166.2</ele>
        <time>2020-11-16T15:01:38Z</time>
      </trkpt>
      <trkpt lat="28.7989820" lon="-17.8473850">
        <ele>1166.2</ele>
        <time>2020-11-16T15:01:39Z</time>
      </trkpt>
      <trkpt lat="28.7989150" lon="-17.8474130">
        <ele>1165.5</ele>
        <time>2020-11-16T15:01:40Z</time>
      </trkpt>
      <trkpt lat="28.7989150" lon="-17.8474130">
        <ele>1165.5</ele>
        <time>2020-11-16T15:01:41Z</time>
      </trkpt>
      <trkpt lat="28.7988930" lon="-17.8474450">
        <ele>1165.1</ele>
        <time>2020-11-16T15:01:42Z</time>
      </trkpt>
      <trkpt lat="28.7988930" lon="-17.8474450">
        <ele>1165.1</ele>
        <time>2020-11-16T15:01:43Z</time>
      </trkpt>
      <trkpt lat="28.7988800" lon="-17.8475320">
        <ele>1164.3</ele>
        <time>2020-11-16T15:01:44Z</time>
      </trkpt>
      <trkpt lat="28.7988800" lon="-17.8475320">
        <ele>1164.3</ele>
        <time>2020-11-16T15:01:45Z</time>
      </trkpt>
      <trkpt lat="28.7988670" lon="-17.8476400">
        <ele>1163.4</ele>
        <time>2020-11-16T15:01:46Z</time>
      </trkpt>
      <trkpt lat="28.7988670" lon="-17.8476400">
        <ele>1163.4</ele>
        <time>2020-11-16T15:01:47Z</time>
      </trkpt>
      <trkpt lat="28.7988930" lon="-17.8477580">
        <ele>1162.2</ele>
        <time>2020-11-16T15:01:48Z</time>
      </trkpt>
      <trkpt lat="28.7988930" lon="-17.8477580">
        <ele>1162.2</ele>
        <time>2020-11-16T15:01:49Z</time>
      </trkpt>
      <trkpt lat="28.7989570" lon="-17.8478620">
        <ele>1161.0</ele>
        <time>2020-11-16T15:01:50Z</time>
      </trkpt>
      <trkpt lat="28.7989570" lon="-17.8478620">
        <ele>1161.0</ele>
        <time>2020-11-16T15:01:51Z</time>
      </trkpt>
      <trkpt lat="28.7990270" lon="-17.8479520">
        <ele>1159.7</ele>
        <time>2020-11-16T15:01:52Z</time>
      </trkpt>
      <trkpt lat="28.7990270" lon="-17.8479520">
        <ele>1159.7</ele>
        <time>2020-11-16T15:01:53Z</time>
      </trkpt>
      <trkpt lat="28.7990620" lon="-17.8479930">
        <ele>1159.1</ele>
        <time>2020-11-16T15:01:54Z</time>
      </trkpt>
      <trkpt lat="28.7990620" lon="-17.8479930">
        <ele>1159.1</ele>
        <time>2020-11-16T15:01:55Z</time>
      </trkpt>
      <trkpt lat="28.7990780" lon="-17.8480350">
        <ele>1158.6</ele>
        <time>2020-11-16T15:01:56Z</time>
      </trkpt>
      <trkpt lat="28.7990780" lon="-17.8480350">
        <ele>1158.6</ele>
        <time>2020-11-16T15:01:57Z</time>
      </trkpt>
      <trkpt lat="28.7991170" lon="-17.8481120">
        <ele>1157.7</ele>
        <time>2020-11-16T15:01:58Z</time>
      </trkpt>
      <trkpt lat="28.7991430" lon="-17.8481750">
        <ele>1156.9</ele>
        <time>2020-11-16T15:01:59Z</time>
      </trkpt>
      <trkpt lat="28.7991430" lon="-17.8481750">
        <ele>1156.9</ele>
        <time>2020-11-16T15:02:00Z</time>
      </trkpt>
      <trkpt lat="28.7991920" lon="-17.8482730">
        <ele>1155.8</ele>
        <time>2020-11-16T15:02:01Z</time>
      </trkpt>
      <trkpt lat="28.7991920" lon="-17.8482730">
        <ele>1155.8</ele>
        <time>2020-11-16T15:02:02Z</time>
      </trkpt>
      <trkpt lat="28.7992720" lon="-17.8483650">
        <ele>1154.6</ele>
        <time>2020-11-16T15:02:03Z</time>
      </trkpt>
      <trkpt lat="28.7992980" lon="-17.8484100">
        <ele>1154.2</ele>
        <time>2020-11-16T15:02:04Z</time>
      </trkpt>
      <trkpt lat="28.7992980" lon="-17.8484100">
        <ele>1154.2</ele>
        <time>2020-11-16T15:02:05Z</time>
      </trkpt>
      <trkpt lat="28.7993520" lon="-17.8484970">
        <ele>1153.4</ele>
        <time>2020-11-16T15:02:06Z</time>
      </trkpt>
      <trkpt lat="28.7993520" lon="-17.8484970">
        <ele>1153.4</ele>
        <time>2020-11-16T15:02:07Z</time>
      </trkpt>
      <trkpt lat="28.7993330" lon="-17.8486270">
        <ele>1152.4</ele>
        <time>2020-11-16T15:02:08Z</time>
      </trkpt>
      <trkpt lat="28.7993330" lon="-17.8486270">
        <ele>1152.4</ele>
        <time>2020-11-16T15:02:09Z</time>
      </trkpt>
      <trkpt lat="28.7993280" lon="-17.8487300">
        <ele>1151.6</ele>
        <time>2020-11-16T15:02:10Z</time>
      </trkpt>
      <trkpt lat="28.7993280" lon="-17.8487300">
        <ele>1151.6</ele>
        <time>2020-11-16T15:02:11Z</time>
      </trkpt>
      <trkpt lat="28.7993150" lon="-17.8488200">
        <ele>1150.8</ele>
        <time>2020-11-16T15:02:12Z</time>
      </trkpt>
      <trkpt lat="28.7993150" lon="-17.8488200">
        <ele>1150.8</ele>
        <time>2020-11-16T15:02:13Z</time>
      </trkpt>
      <trkpt lat="28.7992930" lon="-17.8488730">
        <ele>1150.3</ele>
        <time>2020-11-16T15:02:14Z</time>
      </trkpt>
      <trkpt lat="28.7992930" lon="-17.8488730">
        <ele>1150.3</ele>
        <time>2020-11-16T15:02:15Z</time>
      </trkpt>
      <trkpt lat="28.7992720" lon="-17.8489150">
        <ele>1149.8</ele>
        <time>2020-11-16T15:02:16Z</time>
      </trkpt>
      <trkpt lat="28.7992670" lon="-17.8489350">
        <ele>1149.6</ele>
        <time>2020-11-16T15:02:17Z</time>
      </trkpt>
      <trkpt lat="28.7992670" lon="-17.8489350">
        <ele>1149.6</ele>
        <time>2020-11-16T15:02:18Z</time>
      </trkpt>
      <trkpt lat="28.7992780" lon="-17.8489770">
        <ele>1148.5</ele>
        <time>2020-11-16T15:02:19Z</time>
      </trkpt>
      <trkpt lat="28.7992870" lon="-17.8489900">
        <ele>1148.4</ele>
        <time>2020-11-16T15:02:20Z</time>
      </trkpt>
      <trkpt lat="28.7992870" lon="-17.8489900">
        <ele>1148.4</ele>
        <time>2020-11-16T15:02:21Z</time>
      </trkpt>
      <trkpt lat="28.7993280" lon="-17.8490030">
        <ele>1147.9</ele>
        <time>2020-11-16T15:02:22Z</time>
      </trkpt>
      <trkpt lat="28.7993500" lon="-17.8490000">
        <ele>1147.6</ele>
        <time>2020-11-16T15:02:23Z</time>
      </trkpt>
      <trkpt lat="28.7993500" lon="-17.8490000">
        <ele>1147.6</ele>
        <time>2020-11-16T15:02:24Z</time>
      </trkpt>
      <trkpt lat="28.7993950" lon="-17.8489670">
        <ele>1147.1</ele>
        <time>2020-11-16T15:02:25Z</time>
      </trkpt>
      <trkpt lat="28.7994130" lon="-17.8489400">
        <ele>1146.8</ele>
        <time>2020-11-16T15:02:26Z</time>
      </trkpt>
      <trkpt lat="28.7994130" lon="-17.8489400">
        <ele>1146.8</ele>
        <time>2020-11-16T15:02:27Z</time>
      </trkpt>
      <trkpt lat="28.7994350" lon="-17.8488920">
        <ele>1146.4</ele>
        <time>2020-11-16T15:02:28Z</time>
      </trkpt>
      <trkpt lat="28.7994450" lon="-17.8488680">
        <ele>1146.2</ele>
        <time>2020-11-16T15:02:29Z</time>
      </trkpt>
      <trkpt lat="28.7994450" lon="-17.8488680">
        <ele>1146.2</ele>
        <time>2020-11-16T15:02:30Z</time>
      </trkpt>
      <trkpt lat="28.7994570" lon="-17.8488080">
        <ele>1145.7</ele>
        <time>2020-11-16T15:02:31Z</time>
      </trkpt>
      <trkpt lat="28.7994620" lon="-17.8487820">
        <ele>1145.5</ele>
        <time>2020-11-16T15:02:32Z</time>
      </trkpt>
      <trkpt lat="28.7994620" lon="-17.8487820">
        <ele>1145.5</ele>
        <time>2020-11-16T15:02:33Z</time>
      </trkpt>
      <trkpt lat="28.7994700" lon="-17.8487270">
        <ele>1145.1</ele>
        <time>2020-11-16T15:02:34Z</time>
      </trkpt>
      <trkpt lat="28.7994700" lon="-17.8487270">
        <ele>1145.1</ele>
        <time>2020-11-16T15:02:35Z</time>
      </trkpt>
      <trkpt lat="28.7994780" lon="-17.8486630">
        <ele>1144.8</ele>
        <time>2020-11-16T15:02:36Z</time>
      </trkpt>
      <trkpt lat="28.7994780" lon="-17.8486630">
        <ele>1144.8</ele>
        <time>2020-11-16T15:02:37Z</time>
      </trkpt>
      <trkpt lat="28.7994620" lon="-17.8485920">
        <ele>1144.5</ele>
        <time>2020-11-16T15:02:38Z</time>
      </trkpt>
      <trkpt lat="28.7994620" lon="-17.8485920">
        <ele>1144.5</ele>
        <time>2020-11-16T15:02:39Z</time>
      </trkpt>
      <trkpt lat="28.7994300" lon="-17.8485330">
        <ele>1144.2</ele>
        <time>2020-11-16T15:02:40Z</time>
      </trkpt>
      <trkpt lat="28.7994130" lon="-17.8485100">
        <ele>1144.1</ele>
        <time>2020-11-16T15:02:41Z</time>
      </trkpt>
      <trkpt lat="28.7994130" lon="-17.8485100">
        <ele>1144.1</ele>
        <time>2020-11-16T15:02:42Z</time>
      </trkpt>
      <trkpt lat="28.7993820" lon="-17.8484520">
        <ele>1143.8</ele>
        <time>2020-11-16T15:02:43Z</time>
      </trkpt>
      <trkpt lat="28.7993820" lon="-17.8484520">
        <ele>1143.8</ele>
        <time>2020-11-16T15:02:44Z</time>
      </trkpt>
      <trkpt lat="28.7993330" lon="-17.8483820">
        <ele>1143.5</ele>
        <time>2020-11-16T15:02:45Z</time>
      </trkpt>
      <trkpt lat="28.7993330" lon="-17.8483820">
        <ele>1143.5</ele>
        <time>2020-11-16T15:02:46Z</time>
      </trkpt>
      <trkpt lat="28.7992750" lon="-17.8483000">
        <ele>1143.1</ele>
        <time>2020-11-16T15:02:47Z</time>
      </trkpt>
      <trkpt lat="28.7992750" lon="-17.8483000">
        <ele>1143.1</ele>
        <time>2020-11-16T15:02:48Z</time>
      </trkpt>
      <trkpt lat="28.7992350" lon="-17.8482180">
        <ele>1142.7</ele>
        <time>2020-11-16T15:02:49Z</time>
      </trkpt>
      <trkpt lat="28.7992350" lon="-17.8482180">
        <ele>1142.7</ele>
        <time>2020-11-16T15:02:50Z</time>
      </trkpt>
      <trkpt lat="28.7992200" lon="-17.8481430">
        <ele>1142.4</ele>
        <time>2020-11-16T15:02:51Z</time>
      </trkpt>
      <trkpt lat="28.7992200" lon="-17.8481430">
        <ele>1142.4</ele>
        <time>2020-11-16T15:02:52Z</time>
      </trkpt>
      <trkpt lat="28.7992080" lon="-17.8480550">
        <ele>1142.1</ele>
        <time>2020-11-16T15:02:53Z</time>
      </trkpt>
      <trkpt lat="28.7992080" lon="-17.8480550">
        <ele>1142.1</ele>
        <time>2020-11-16T15:02:54Z</time>
      </trkpt>
      <trkpt lat="28.7992070" lon="-17.8479850">
        <ele>1141.9</ele>
        <time>2020-11-16T15:02:55Z</time>
      </trkpt>
      <trkpt lat="28.7992070" lon="-17.8479850">
        <ele>1141.9</ele>
        <time>2020-11-16T15:02:56Z</time>
      </trkpt>
      <trkpt lat="28.7992100" lon="-17.8479370">
        <ele>1141.8</ele>
        <time>2020-11-16T15:02:57Z</time>
      </trkpt>
      <trkpt lat="28.7992100" lon="-17.8479370">
        <ele>1141.8</ele>
        <time>2020-11-16T15:02:58Z</time>
      </trkpt>
      <trkpt lat="28.7992600" lon="-17.8478730">
        <ele>1141.7</ele>
        <time>2020-11-16T15:02:59Z</time>
      </trkpt>
      <trkpt lat="28.7992880" lon="-17.8478500">
        <ele>1141.6</ele>
        <time>2020-11-16T15:03:00Z</time>
      </trkpt>
      <trkpt lat="28.7992880" lon="-17.8478500">
        <ele>1141.6</ele>
        <time>2020-11-16T15:03:01Z</time>
      </trkpt>
      <trkpt lat="28.7993500" lon="-17.8478250">
        <ele>1141.4</ele>
        <time>2020-11-16T15:03:02Z</time>
      </trkpt>
      <trkpt lat="28.7993500" lon="-17.8478250">
        <ele>1141.4</ele>
        <time>2020-11-16T15:03:03Z</time>
      </trkpt>
      <trkpt lat="28.7994120" lon="-17.8478130">
        <ele>1141.0</ele>
        <time>2020-11-16T15:03:04Z</time>
      </trkpt>
      <trkpt lat="28.7994120" lon="-17.8478130">
        <ele>1141.0</ele>
        <time>2020-11-16T15:03:05Z</time>
      </trkpt>
      <trkpt lat="28.7994650" lon="-17.8477800">
        <ele>1140.6</ele>
        <time>2020-11-16T15:03:06Z</time>
      </trkpt>
      <trkpt lat="28.7994650" lon="-17.8477800">
        <ele>1140.6</ele>
        <time>2020-11-16T15:03:07Z</time>
      </trkpt>
      <trkpt lat="28.7995770" lon="-17.8478000">
        <ele>1139.6</ele>
        <time>2020-11-16T15:03:08Z</time>
      </trkpt>
      <trkpt lat="28.7995770" lon="-17.8478000">
        <ele>1139.6</ele>
        <time>2020-11-16T15:03:09Z</time>
      </trkpt>
      <trkpt lat="28.7996800" lon="-17.8478120">
        <ele>1138.6</ele>
        <time>2020-11-16T15:03:10Z</time>
      </trkpt>
      <trkpt lat="28.7996800" lon="-17.8478120">
        <ele>1138.6</ele>
        <time>2020-11-16T15:03:11Z</time>
      </trkpt>
      <trkpt lat="28.7997800" lon="-17.8478220">
        <ele>1137.6</ele>
        <time>2020-11-16T15:03:12Z</time>
      </trkpt>
      <trkpt lat="28.7997800" lon="-17.8478220">
        <ele>1137.6</ele>
        <time>2020-11-16T15:03:13Z</time>
      </trkpt>
      <trkpt lat="28.7998620" lon="-17.8478420">
        <ele>1136.9</ele>
        <time>2020-11-16T15:03:14Z</time>
      </trkpt>
      <trkpt lat="28.7998620" lon="-17.8478420">
        <ele>1136.9</ele>
        <time>2020-11-16T15:03:15Z</time>
      </trkpt>
      <trkpt lat="28.7999320" lon="-17.8478380">
        <ele>1136.3</ele>
        <time>2020-11-16T15:03:16Z</time>
      </trkpt>
      <trkpt lat="28.7999320" lon="-17.8478380">
        <ele>1136.3</ele>
        <time>2020-11-16T15:03:17Z</time>
      </trkpt>
      <trkpt lat="28.7999970" lon="-17.8478380">
        <ele>1135.8</ele>
        <time>2020-11-16T15:03:18Z</time>
      </trkpt>
      <trkpt lat="28.7999970" lon="-17.8478380">
        <ele>1135.8</ele>
        <time>2020-11-16T15:03:19Z</time>
      </trkpt>
      <trkpt lat="28.8000480" lon="-17.8478450">
        <ele>1135.4</ele>
        <time>2020-11-16T15:03:20Z</time>
      </trkpt>
      <trkpt lat="28.8000480" lon="-17.8478450">
        <ele>1135.4</ele>
        <time>2020-11-16T15:03:21Z</time>
      </trkpt>
      <trkpt lat="28.8001030" lon="-17.8478650">
        <ele>1134.9</ele>
        <time>2020-11-16T15:03:22Z</time>
      </trkpt>
      <trkpt lat="28.8001030" lon="-17.8478650">
        <ele>1134.9</ele>
        <time>2020-11-16T15:03:23Z</time>
      </trkpt>
      <trkpt lat="28.8001520" lon="-17.8478630">
        <ele>1134.5</ele>
        <time>2020-11-16T15:03:24Z</time>
      </trkpt>
      <trkpt lat="28.8001520" lon="-17.8478630">
        <ele>1134.5</ele>
        <time>2020-11-16T15:03:25Z</time>
      </trkpt>
      <trkpt lat="28.8002130" lon="-17.8478600">
        <ele>1134.0</ele>
        <time>2020-11-16T15:03:26Z</time>
      </trkpt>
      <trkpt lat="28.8002130" lon="-17.8478600">
        <ele>1134.0</ele>
        <time>2020-11-16T15:03:27Z</time>
      </trkpt>
      <trkpt lat="28.8002770" lon="-17.8478420">
        <ele>1133.4</ele>
        <time>2020-11-16T15:03:28Z</time>
      </trkpt>
      <trkpt lat="28.8002770" lon="-17.8478420">
        <ele>1133.4</ele>
        <time>2020-11-16T15:03:29Z</time>
      </trkpt>
      <trkpt lat="28.8003420" lon="-17.8478350">
        <ele>1132.9</ele>
        <time>2020-11-16T15:03:30Z</time>
      </trkpt>
      <trkpt lat="28.8003420" lon="-17.8478350">
        <ele>1132.9</ele>
        <time>2020-11-16T15:03:31Z</time>
      </trkpt>
      <trkpt lat="28.8004120" lon="-17.8478170">
        <ele>1132.2</ele>
        <time>2020-11-16T15:03:32Z</time>
      </trkpt>
      <trkpt lat="28.8004120" lon="-17.8478170">
        <ele>1132.2</ele>
        <time>2020-11-16T15:03:33Z</time>
      </trkpt>
      <trkpt lat="28.8004830" lon="-17.8478150">
        <ele>1131.6</ele>
        <time>2020-11-16T15:03:34Z</time>
      </trkpt>
      <trkpt lat="28.8005180" lon="-17.8478080">
        <ele>1131.3</ele>
        <time>2020-11-16T15:03:35Z</time>
      </trkpt>
      <trkpt lat="28.8005180" lon="-17.8478080">
        <ele>1131.3</ele>
        <time>2020-11-16T15:03:36Z</time>
      </trkpt>
      <trkpt lat="28.8005680" lon="-17.8477400">
        <ele>1130.6</ele>
        <time>2020-11-16T15:03:37Z</time>
      </trkpt>
      <trkpt lat="28.8005680" lon="-17.8477400">
        <ele>1130.6</ele>
        <time>2020-11-16T15:03:38Z</time>
      </trkpt>
      <trkpt lat="28.8005870" lon="-17.8476700">
        <ele>1130.0</ele>
        <time>2020-11-16T15:03:39Z</time>
      </trkpt>
      <trkpt lat="28.8005800" lon="-17.8476320">
        <ele>1129.7</ele>
        <time>2020-11-16T15:03:40Z</time>
      </trkpt>
      <trkpt lat="28.8005800" lon="-17.8476320">
        <ele>1129.7</ele>
        <time>2020-11-16T15:03:41Z</time>
      </trkpt>
      <trkpt lat="28.8005500" lon="-17.8475570">
        <ele>1129.1</ele>
        <time>2020-11-16T15:03:42Z</time>
      </trkpt>
      <trkpt lat="28.8005500" lon="-17.8475570">
        <ele>1129.1</ele>
        <time>2020-11-16T15:03:43Z</time>
      </trkpt>
      <trkpt lat="28.8005170" lon="-17.8474830">
        <ele>1128.5</ele>
        <time>2020-11-16T15:03:44Z</time>
      </trkpt>
      <trkpt lat="28.8005170" lon="-17.8474830">
        <ele>1128.5</ele>
        <time>2020-11-16T15:03:45Z</time>
      </trkpt>
      <trkpt lat="28.8005030" lon="-17.8474050">
        <ele>1128.0</ele>
        <time>2020-11-16T15:03:46Z</time>
      </trkpt>
      <trkpt lat="28.8005030" lon="-17.8474050">
        <ele>1128.0</ele>
        <time>2020-11-16T15:03:47Z</time>
      </trkpt>
      <trkpt lat="28.8005380" lon="-17.8473280">
        <ele>1127.5</ele>
        <time>2020-11-16T15:03:48Z</time>
      </trkpt>
      <trkpt lat="28.8005380" lon="-17.8473280">
        <ele>1127.5</ele>
        <time>2020-11-16T15:03:49Z</time>
      </trkpt>
      <trkpt lat="28.8005800" lon="-17.8472800">
        <ele>1127.1</ele>
        <time>2020-11-16T15:03:50Z</time>
      </trkpt>
      <trkpt lat="28.8005800" lon="-17.8472800">
        <ele>1127.1</ele>
        <time>2020-11-16T15:03:51Z</time>
      </trkpt>
      <trkpt lat="28.8006420" lon="-17.8472480">
        <ele>1126.7</ele>
        <time>2020-11-16T15:03:52Z</time>
      </trkpt>
      <trkpt lat="28.8006420" lon="-17.8472480">
        <ele>1126.7</ele>
        <time>2020-11-16T15:03:53Z</time>
      </trkpt>
      <trkpt lat="28.8007080" lon="-17.8472350">
        <ele>1126.3</ele>
        <time>2020-11-16T15:03:54Z</time>
      </trkpt>
      <trkpt lat="28.8007080" lon="-17.8472350">
        <ele>1126.3</ele>
        <time>2020-11-16T15:03:55Z</time>
      </trkpt>
      <trkpt lat="28.8007950" lon="-17.8472370">
        <ele>1125.7</ele>
        <time>2020-11-16T15:03:56Z</time>
      </trkpt>
      <trkpt lat="28.8007950" lon="-17.8472370">
        <ele>1125.7</ele>
        <time>2020-11-16T15:03:57Z</time>
      </trkpt>
      <trkpt lat="28.8009030" lon="-17.8472350">
        <ele>1124.9</ele>
        <time>2020-11-16T15:03:58Z</time>
      </trkpt>
      <trkpt lat="28.8009030" lon="-17.8472350">
        <ele>1125.7</ele>
        <time>2020-11-16T15:03:59Z</time>
      </trkpt>
      <trkpt lat="28.8009870" lon="-17.8472470">
        <ele>1122.3</ele>
        <time>2020-11-16T15:04:00Z</time>
      </trkpt>
      <trkpt lat="28.8009870" lon="-17.8472470">
        <ele>1123.1</ele>
        <time>2020-11-16T15:04:01Z</time>
      </trkpt>
      <trkpt lat="28.8010420" lon="-17.8472500">
        <ele>1121.4</ele>
        <time>2020-11-16T15:04:02Z</time>
      </trkpt>
      <trkpt lat="28.8010420" lon="-17.8472500">
        <ele>1122.2</ele>
        <time>2020-11-16T15:04:03Z</time>
      </trkpt>
      <trkpt lat="28.8010950" lon="-17.8472570">
        <ele>1121.6</ele>
        <time>2020-11-16T15:04:04Z</time>
      </trkpt>
      <trkpt lat="28.8010950" lon="-17.8472570">
        <ele>1122.4</ele>
        <time>2020-11-16T15:04:05Z</time>
      </trkpt>
      <trkpt lat="28.8011580" lon="-17.8472430">
        <ele>1121.4</ele>
        <time>2020-11-16T15:04:06Z</time>
      </trkpt>
      <trkpt lat="28.8011580" lon="-17.8472430">
        <ele>1122.2</ele>
        <time>2020-11-16T15:04:07Z</time>
      </trkpt>
      <trkpt lat="28.8012200" lon="-17.8472100">
        <ele>1120.3</ele>
        <time>2020-11-16T15:04:08Z</time>
      </trkpt>
      <trkpt lat="28.8012200" lon="-17.8472100">
        <ele>1121.2</ele>
        <time>2020-11-16T15:04:09Z</time>
      </trkpt>
      <trkpt lat="28.8012580" lon="-17.8472180">
        <ele>1120.6</ele>
        <time>2020-11-16T15:04:10Z</time>
      </trkpt>
      <trkpt lat="28.8012580" lon="-17.8472180">
        <ele>1120.6</ele>
        <time>2020-11-16T15:04:11Z</time>
      </trkpt>
      <trkpt lat="28.8012580" lon="-17.8472600">
        <ele>1120.3</ele>
        <time>2020-11-16T15:04:12Z</time>
      </trkpt>
      <trkpt lat="28.8012580" lon="-17.8472600">
        <ele>1120.3</ele>
        <time>2020-11-16T15:04:13Z</time>
      </trkpt>
      <trkpt lat="28.8012280" lon="-17.8472930">
        <ele>1120.0</ele>
        <time>2020-11-16T15:04:14Z</time>
      </trkpt>
      <trkpt lat="28.8012280" lon="-17.8472930">
        <ele>1120.0</ele>
        <time>2020-11-16T15:04:15Z</time>
      </trkpt>
      <trkpt lat="28.8011800" lon="-17.8473180">
        <ele>1119.6</ele>
        <time>2020-11-16T15:04:16Z</time>
      </trkpt>
      <trkpt lat="28.8011800" lon="-17.8473180">
        <ele>1119.6</ele>
        <time>2020-11-16T15:04:17Z</time>
      </trkpt>
      <trkpt lat="28.8011270" lon="-17.8473230">
        <ele>1119.3</ele>
        <time>2020-11-16T15:04:18Z</time>
      </trkpt>
      <trkpt lat="28.8011270" lon="-17.8473230">
        <ele>1119.3</ele>
        <time>2020-11-16T15:04:19Z</time>
      </trkpt>
      <trkpt lat="28.8010680" lon="-17.8473070">
        <ele>1118.9</ele>
        <time>2020-11-16T15:04:20Z</time>
      </trkpt>
      <trkpt lat="28.8010680" lon="-17.8473070">
        <ele>1118.9</ele>
        <time>2020-11-16T15:04:21Z</time>
      </trkpt>
      <trkpt lat="28.8010080" lon="-17.8472850">
        <ele>1118.5</ele>
        <time>2020-11-16T15:04:22Z</time>
      </trkpt>
      <trkpt lat="28.8010080" lon="-17.8472850">
        <ele>1118.5</ele>
        <time>2020-11-16T15:04:23Z</time>
      </trkpt>
      <trkpt lat="28.8009620" lon="-17.8472650">
        <ele>1118.1</ele>
        <time>2020-11-16T15:04:24Z</time>
      </trkpt>
      <trkpt lat="28.8009620" lon="-17.8472650">
        <ele>1118.1</ele>
        <time>2020-11-16T15:04:25Z</time>
      </trkpt>
      <trkpt lat="28.8009220" lon="-17.8472530">
        <ele>1117.7</ele>
        <time>2020-11-16T15:04:26Z</time>
      </trkpt>
      <trkpt lat="28.8009220" lon="-17.8472530">
        <ele>1117.7</ele>
        <time>2020-11-16T15:04:27Z</time>
      </trkpt>
      <trkpt lat="28.8008630" lon="-17.8472780">
        <ele>1117.2</ele>
        <time>2020-11-16T15:04:28Z</time>
      </trkpt>
      <trkpt lat="28.8008630" lon="-17.8472780">
        <ele>1117.2</ele>
        <time>2020-11-16T15:04:29Z</time>
      </trkpt>
      <trkpt lat="28.8007930" lon="-17.8473370">
        <ele>1116.6</ele>
        <time>2020-11-16T15:04:30Z</time>
      </trkpt>
      <trkpt lat="28.8007930" lon="-17.8473370">
        <ele>1116.6</ele>
        <time>2020-11-16T15:04:31Z</time>
      </trkpt>
      <trkpt lat="28.8007570" lon="-17.8473930">
        <ele>1116.1</ele>
        <time>2020-11-16T15:04:32Z</time>
      </trkpt>
      <trkpt lat="28.8007570" lon="-17.8473930">
        <ele>1116.1</ele>
        <time>2020-11-16T15:04:33Z</time>
      </trkpt>
      <trkpt lat="28.8007400" lon="-17.8474650">
        <ele>1115.8</ele>
        <time>2020-11-16T15:04:34Z</time>
      </trkpt>
      <trkpt lat="28.8007400" lon="-17.8474650">
        <ele>1115.8</ele>
        <time>2020-11-16T15:04:35Z</time>
      </trkpt>
      <trkpt lat="28.8007270" lon="-17.8475470">
        <ele>1115.4</ele>
        <time>2020-11-16T15:04:36Z</time>
      </trkpt>
      <trkpt lat="28.8007270" lon="-17.8475470">
        <ele>1115.4</ele>
        <time>2020-11-16T15:04:37Z</time>
      </trkpt>
      <trkpt lat="28.8007170" lon="-17.8476180">
        <ele>1115.1</ele>
        <time>2020-11-16T15:04:38Z</time>
      </trkpt>
      <trkpt lat="28.8007270" lon="-17.8476430">
        <ele>1114.9</ele>
        <time>2020-11-16T15:04:39Z</time>
      </trkpt>
      <trkpt lat="28.8007270" lon="-17.8476430">
        <ele>1114.9</ele>
        <time>2020-11-16T15:04:40Z</time>
      </trkpt>
      <trkpt lat="28.8007570" lon="-17.8477000">
        <ele>1114.5</ele>
        <time>2020-11-16T15:04:41Z</time>
      </trkpt>
      <trkpt lat="28.8007570" lon="-17.8477000">
        <ele>1114.5</ele>
        <time>2020-11-16T15:04:42Z</time>
      </trkpt>
      <trkpt lat="28.8007880" lon="-17.8477680">
        <ele>1114.2</ele>
        <time>2020-11-16T15:04:43Z</time>
      </trkpt>
      <trkpt lat="28.8007880" lon="-17.8477680">
        <ele>1114.2</ele>
        <time>2020-11-16T15:04:44Z</time>
      </trkpt>
      <trkpt lat="28.8008200" lon="-17.8478570">
        <ele>1113.8</ele>
        <time>2020-11-16T15:04:45Z</time>
      </trkpt>
      <trkpt lat="28.8008370" lon="-17.8478870">
        <ele>1113.6</ele>
        <time>2020-11-16T15:04:46Z</time>
      </trkpt>
      <trkpt lat="28.8008370" lon="-17.8478870">
        <ele>1113.6</ele>
        <time>2020-11-16T15:04:47Z</time>
      </trkpt>
      <trkpt lat="28.8008820" lon="-17.8479230">
        <ele>1113.4</ele>
        <time>2020-11-16T15:04:48Z</time>
      </trkpt>
      <trkpt lat="28.8008820" lon="-17.8479230">
        <ele>1113.4</ele>
        <time>2020-11-16T15:04:49Z</time>
      </trkpt>
      <trkpt lat="28.8008280" lon="-17.8479880">
        <ele>1113.0</ele>
        <time>2020-11-16T15:04:50Z</time>
      </trkpt>
      <trkpt lat="28.8008280" lon="-17.8479880">
        <ele>1113.0</ele>
        <time>2020-11-16T15:04:51Z</time>
      </trkpt>
      <trkpt lat="28.8007450" lon="-17.8480320">
        <ele>1112.5</ele>
        <time>2020-11-16T15:04:52Z</time>
      </trkpt>
      <trkpt lat="28.8007450" lon="-17.8480320">
        <ele>1112.5</ele>
        <time>2020-11-16T15:04:53Z</time>
      </trkpt>
      <trkpt lat="28.8006600" lon="-17.8480480">
        <ele>1112.0</ele>
        <time>2020-11-16T15:04:54Z</time>
      </trkpt>
      <trkpt lat="28.8006180" lon="-17.8480570">
        <ele>1111.7</ele>
        <time>2020-11-16T15:04:55Z</time>
      </trkpt>
      <trkpt lat="28.8006180" lon="-17.8480570">
        <ele>1111.7</ele>
        <time>2020-11-16T15:04:56Z</time>
      </trkpt>
      <trkpt lat="28.8005470" lon="-17.8480650">
        <ele>1111.2</ele>
        <time>2020-11-16T15:04:57Z</time>
      </trkpt>
      <trkpt lat="28.8005470" lon="-17.8480650">
        <ele>1111.2</ele>
        <time>2020-11-16T15:04:58Z</time>
      </trkpt>
      <trkpt lat="28.8004830" lon="-17.8480700">
        <ele>1110.8</ele>
        <time>2020-11-16T15:04:59Z</time>
      </trkpt>
      <trkpt lat="28.8004480" lon="-17.8480780">
        <ele>1110.5</ele>
        <time>2020-11-16T15:05:00Z</time>
      </trkpt>
      <trkpt lat="28.8004480" lon="-17.8480780">
        <ele>1110.5</ele>
        <time>2020-11-16T15:05:01Z</time>
      </trkpt>
      <trkpt lat="28.8003700" lon="-17.8481020">
        <ele>1110.0</ele>
        <time>2020-11-16T15:05:02Z</time>
      </trkpt>
      <trkpt lat="28.8003700" lon="-17.8481020">
        <ele>1110.0</ele>
        <time>2020-11-16T15:05:03Z</time>
      </trkpt>
      <trkpt lat="28.8002900" lon="-17.8481170">
        <ele>1109.5</ele>
        <time>2020-11-16T15:05:04Z</time>
      </trkpt>
      <trkpt lat="28.8002900" lon="-17.8481170">
        <ele>1109.5</ele>
        <time>2020-11-16T15:05:05Z</time>
      </trkpt>
      <trkpt lat="28.8002080" lon="-17.8481320">
        <ele>1109.0</ele>
        <time>2020-11-16T15:05:06Z</time>
      </trkpt>
      <trkpt lat="28.8002080" lon="-17.8481320">
        <ele>1109.0</ele>
        <time>2020-11-16T15:05:07Z</time>
      </trkpt>
      <trkpt lat="28.8001350" lon="-17.8481520">
        <ele>1108.5</ele>
        <time>2020-11-16T15:05:08Z</time>
      </trkpt>
      <trkpt lat="28.8001350" lon="-17.8481520">
        <ele>1108.5</ele>
        <time>2020-11-16T15:05:09Z</time>
      </trkpt>
      <trkpt lat="28.8000650" lon="-17.8481720">
        <ele>1107.8</ele>
        <time>2020-11-16T15:05:10Z</time>
      </trkpt>
      <trkpt lat="28.8000650" lon="-17.8481720">
        <ele>1107.8</ele>
        <time>2020-11-16T15:05:11Z</time>
      </trkpt>
      <trkpt lat="28.8000130" lon="-17.8481870">
        <ele>1107.4</ele>
        <time>2020-11-16T15:05:12Z</time>
      </trkpt>
      <trkpt lat="28.8000130" lon="-17.8481870">
        <ele>1107.4</ele>
        <time>2020-11-16T15:05:13Z</time>
      </trkpt>
      <trkpt lat="28.7999430" lon="-17.8482270">
        <ele>1106.8</ele>
        <time>2020-11-16T15:05:14Z</time>
      </trkpt>
      <trkpt lat="28.7999430" lon="-17.8482270">
        <ele>1106.8</ele>
        <time>2020-11-16T15:05:15Z</time>
      </trkpt>
      <trkpt lat="28.7999050" lon="-17.8482880">
        <ele>1106.6</ele>
        <time>2020-11-16T15:05:16Z</time>
      </trkpt>
      <trkpt lat="28.7999050" lon="-17.8482880">
        <ele>1106.6</ele>
        <time>2020-11-16T15:05:17Z</time>
      </trkpt>
      <trkpt lat="28.7999100" lon="-17.8483300">
        <ele>1106.5</ele>
        <time>2020-11-16T15:05:18Z</time>
      </trkpt>
      <trkpt lat="28.7999100" lon="-17.8483300">
        <ele>1106.5</ele>
        <time>2020-11-16T15:05:19Z</time>
      </trkpt>
      <trkpt lat="28.7999550" lon="-17.8483370">
        <ele>1106.4</ele>
        <time>2020-11-16T15:05:20Z</time>
      </trkpt>
      <trkpt lat="28.7999550" lon="-17.8483370">
        <ele>1106.4</ele>
        <time>2020-11-16T15:05:21Z</time>
      </trkpt>
      <trkpt lat="28.8000100" lon="-17.8483500">
        <ele>1106.3</ele>
        <time>2020-11-16T15:05:22Z</time>
      </trkpt>
      <trkpt lat="28.8000100" lon="-17.8483500">
        <ele>1106.3</ele>
        <time>2020-11-16T15:05:23Z</time>
      </trkpt>
      <trkpt lat="28.8000800" lon="-17.8483630">
        <ele>1106.1</ele>
        <time>2020-11-16T15:05:24Z</time>
      </trkpt>
      <trkpt lat="28.8000800" lon="-17.8483630">
        <ele>1106.1</ele>
        <time>2020-11-16T15:05:25Z</time>
      </trkpt>
      <trkpt lat="28.8001350" lon="-17.8483850">
        <ele>1105.8</ele>
        <time>2020-11-16T15:05:26Z</time>
      </trkpt>
      <trkpt lat="28.8001680" lon="-17.8483920">
        <ele>1105.7</ele>
        <time>2020-11-16T15:05:27Z</time>
      </trkpt>
      <trkpt lat="28.8001680" lon="-17.8483920">
        <ele>1105.7</ele>
        <time>2020-11-16T15:05:28Z</time>
      </trkpt>
      <trkpt lat="28.8002120" lon="-17.8484180">
        <ele>1105.4</ele>
        <time>2020-11-16T15:05:29Z</time>
      </trkpt>
      <trkpt lat="28.8002120" lon="-17.8484180">
        <ele>1105.4</ele>
        <time>2020-11-16T15:05:30Z</time>
      </trkpt>
      <trkpt lat="28.8002600" lon="-17.8484820">
        <ele>1104.9</ele>
        <time>2020-11-16T15:05:31Z</time>
      </trkpt>
      <trkpt lat="28.8003030" lon="-17.8485120">
        <ele>1104.5</ele>
        <time>2020-11-16T15:05:32Z</time>
      </trkpt>
      <trkpt lat="28.8003030" lon="-17.8485120">
        <ele>1104.5</ele>
        <time>2020-11-16T15:05:33Z</time>
      </trkpt>
      <trkpt lat="28.8003630" lon="-17.8485980">
        <ele>1103.7</ele>
        <time>2020-11-16T15:05:34Z</time>
      </trkpt>
      <trkpt lat="28.8003630" lon="-17.8485980">
        <ele>1103.7</ele>
        <time>2020-11-16T15:05:35Z</time>
      </trkpt>
      <trkpt lat="28.8004280" lon="-17.8486680">
        <ele>1102.9</ele>
        <time>2020-11-16T15:05:36Z</time>
      </trkpt>
      <trkpt lat="28.8004280" lon="-17.8486680">
        <ele>1102.9</ele>
        <time>2020-11-16T15:05:37Z</time>
      </trkpt>
      <trkpt lat="28.8005030" lon="-17.8487370">
        <ele>1102.1</ele>
        <time>2020-11-16T15:05:38Z</time>
      </trkpt>
      <trkpt lat="28.8005030" lon="-17.8487370">
        <ele>1102.1</ele>
        <time>2020-11-16T15:05:39Z</time>
      </trkpt>
      <trkpt lat="28.8005750" lon="-17.8488080">
        <ele>1101.3</ele>
        <time>2020-11-16T15:05:40Z</time>
      </trkpt>
      <trkpt lat="28.8006100" lon="-17.8488480">
        <ele>1101.0</ele>
        <time>2020-11-16T15:05:41Z</time>
      </trkpt>
      <trkpt lat="28.8006100" lon="-17.8488480">
        <ele>1101.0</ele>
        <time>2020-11-16T15:05:42Z</time>
      </trkpt>
      <trkpt lat="28.8006880" lon="-17.8488820">
        <ele>1100.5</ele>
        <time>2020-11-16T15:05:43Z</time>
      </trkpt>
      <trkpt lat="28.8006880" lon="-17.8488820">
        <ele>1100.5</ele>
        <time>2020-11-16T15:05:44Z</time>
      </trkpt>
      <trkpt lat="28.8007570" lon="-17.8489530">
        <ele>1099.9</ele>
        <time>2020-11-16T15:05:45Z</time>
      </trkpt>
      <trkpt lat="28.8007570" lon="-17.8489530">
        <ele>1099.9</ele>
        <time>2020-11-16T15:05:46Z</time>
      </trkpt>
      <trkpt lat="28.8007850" lon="-17.8490420">
        <ele>1099.3</ele>
        <time>2020-11-16T15:05:47Z</time>
      </trkpt>
      <trkpt lat="28.8007850" lon="-17.8490420">
        <ele>1099.3</ele>
        <time>2020-11-16T15:05:48Z</time>
      </trkpt>
      <trkpt lat="28.8007920" lon="-17.8491320">
        <ele>1098.8</ele>
        <time>2020-11-16T15:05:49Z</time>
      </trkpt>
      <trkpt lat="28.8008050" lon="-17.8491680">
        <ele>1098.6</ele>
        <time>2020-11-16T15:05:50Z</time>
      </trkpt>
      <trkpt lat="28.8008050" lon="-17.8491680">
        <ele>1098.6</ele>
        <time>2020-11-16T15:05:51Z</time>
      </trkpt>
      <trkpt lat="28.8008470" lon="-17.8492480">
        <ele>1098.2</ele>
        <time>2020-11-16T15:05:52Z</time>
      </trkpt>
      <trkpt lat="28.8008770" lon="-17.8492830">
        <ele>1098.0</ele>
        <time>2020-11-16T15:05:53Z</time>
      </trkpt>
      <trkpt lat="28.8008770" lon="-17.8492830">
        <ele>1098.0</ele>
        <time>2020-11-16T15:05:54Z</time>
      </trkpt>
      <trkpt lat="28.8009520" lon="-17.8493280">
        <ele>1097.7</ele>
        <time>2020-11-16T15:05:55Z</time>
      </trkpt>
      <trkpt lat="28.8009520" lon="-17.8493280">
        <ele>1097.7</ele>
        <time>2020-11-16T15:05:56Z</time>
      </trkpt>
      <trkpt lat="28.8010420" lon="-17.8493670">
        <ele>1097.4</ele>
        <time>2020-11-16T15:05:57Z</time>
      </trkpt>
      <trkpt lat="28.8010420" lon="-17.8493670">
        <ele>1097.4</ele>
        <time>2020-11-16T15:05:58Z</time>
      </trkpt>
      <trkpt lat="28.8011230" lon="-17.8494070">
        <ele>1096.9</ele>
        <time>2020-11-16T15:05:59Z</time>
      </trkpt>
      <trkpt lat="28.8011230" lon="-17.8494070">
        <ele>1096.9</ele>
        <time>2020-11-16T15:06:00Z</time>
      </trkpt>
      <trkpt lat="28.8011870" lon="-17.8494780">
        <ele>1096.4</ele>
        <time>2020-11-16T15:06:01Z</time>
      </trkpt>
      <trkpt lat="28.8011870" lon="-17.8494780">
        <ele>1096.4</ele>
        <time>2020-11-16T15:06:02Z</time>
      </trkpt>
      <trkpt lat="28.8012350" lon="-17.8495520">
        <ele>1095.9</ele>
        <time>2020-11-16T15:06:03Z</time>
      </trkpt>
      <trkpt lat="28.8012350" lon="-17.8495520">
        <ele>1095.9</ele>
        <time>2020-11-16T15:06:04Z</time>
      </trkpt>
      <trkpt lat="28.8012530" lon="-17.8496220">
        <ele>1095.5</ele>
        <time>2020-11-16T15:06:05Z</time>
      </trkpt>
      <trkpt lat="28.8012530" lon="-17.8496220">
        <ele>1095.5</ele>
        <time>2020-11-16T15:06:06Z</time>
      </trkpt>
      <trkpt lat="28.8012330" lon="-17.8496750">
        <ele>1095.2</ele>
        <time>2020-11-16T15:06:07Z</time>
      </trkpt>
      <trkpt lat="28.8012180" lon="-17.8497030">
        <ele>1095.0</ele>
        <time>2020-11-16T15:06:08Z</time>
      </trkpt>
      <trkpt lat="28.8012180" lon="-17.8497030">
        <ele>1095.0</ele>
        <time>2020-11-16T15:06:09Z</time>
      </trkpt>
      <trkpt lat="28.8011730" lon="-17.8497750">
        <ele>1094.6</ele>
        <time>2020-11-16T15:06:10Z</time>
      </trkpt>
      <trkpt lat="28.8011550" lon="-17.8498080">
        <ele>1094.4</ele>
        <time>2020-11-16T15:06:11Z</time>
      </trkpt>
      <trkpt lat="28.8011550" lon="-17.8498080">
        <ele>1094.4</ele>
        <time>2020-11-16T15:06:12Z</time>
      </trkpt>
      <trkpt lat="28.8011450" lon="-17.8498650">
        <ele>1094.0</ele>
        <time>2020-11-16T15:06:13Z</time>
      </trkpt>
      <trkpt lat="28.8011450" lon="-17.8498650">
        <ele>1094.0</ele>
        <time>2020-11-16T15:06:14Z</time>
      </trkpt>
      <trkpt lat="28.8011670" lon="-17.8499250">
        <ele>1093.7</ele>
        <time>2020-11-16T15:06:15Z</time>
      </trkpt>
      <trkpt lat="28.8011670" lon="-17.8499250">
        <ele>1093.7</ele>
        <time>2020-11-16T15:06:16Z</time>
      </trkpt>
      <trkpt lat="28.8012070" lon="-17.8499870">
        <ele>1093.2</ele>
        <time>2020-11-16T15:06:17Z</time>
      </trkpt>
      <trkpt lat="28.8012070" lon="-17.8499870">
        <ele>1093.2</ele>
        <time>2020-11-16T15:06:18Z</time>
      </trkpt>
      <trkpt lat="28.8012500" lon="-17.8500250">
        <ele>1092.8</ele>
        <time>2020-11-16T15:06:19Z</time>
      </trkpt>
      <trkpt lat="28.8012720" lon="-17.8500430">
        <ele>1092.6</ele>
        <time>2020-11-16T15:06:20Z</time>
      </trkpt>
      <trkpt lat="28.8012720" lon="-17.8500430">
        <ele>1092.6</ele>
        <time>2020-11-16T15:06:21Z</time>
      </trkpt>
      <trkpt lat="28.8013230" lon="-17.8500870">
        <ele>1092.2</ele>
        <time>2020-11-16T15:06:22Z</time>
      </trkpt>
      <trkpt lat="28.8013230" lon="-17.8500870">
        <ele>1092.2</ele>
        <time>2020-11-16T15:06:23Z</time>
      </trkpt>
      <trkpt lat="28.8013670" lon="-17.8501470">
        <ele>1091.6</ele>
        <time>2020-11-16T15:06:24Z</time>
      </trkpt>
      <trkpt lat="28.8013670" lon="-17.8501470">
        <ele>1091.6</ele>
        <time>2020-11-16T15:06:25Z</time>
      </trkpt>
      <trkpt lat="28.8013700" lon="-17.8502380">
        <ele>1091.0</ele>
        <time>2020-11-16T15:06:26Z</time>
      </trkpt>
      <trkpt lat="28.8013700" lon="-17.8502380">
        <ele>1091.0</ele>
        <time>2020-11-16T15:06:27Z</time>
      </trkpt>
      <trkpt lat="28.8013720" lon="-17.8503380">
        <ele>1090.3</ele>
        <time>2020-11-16T15:06:28Z</time>
      </trkpt>
      <trkpt lat="28.8013720" lon="-17.8503380">
        <ele>1090.3</ele>
        <time>2020-11-16T15:06:29Z</time>
      </trkpt>
      <trkpt lat="28.8013620" lon="-17.8504450">
        <ele>1089.9</ele>
        <time>2020-11-16T15:06:30Z</time>
      </trkpt>
      <trkpt lat="28.8013600" lon="-17.8504980">
        <ele>1089.7</ele>
        <time>2020-11-16T15:06:31Z</time>
      </trkpt>
      <trkpt lat="28.8013650" lon="-17.8505530">
        <ele>1089.6</ele>
        <time>2020-11-16T15:06:32Z</time>
      </trkpt>
      <trkpt lat="28.8013650" lon="-17.8505530">
        <ele>1089.6</ele>
        <time>2020-11-16T15:06:33Z</time>
      </trkpt>
      <trkpt lat="28.8013670" lon="-17.8506750">
        <ele>1089.4</ele>
        <time>2020-11-16T15:06:34Z</time>
      </trkpt>
      <trkpt lat="28.8013670" lon="-17.8506750">
        <ele>1089.4</ele>
        <time>2020-11-16T15:06:35Z</time>
      </trkpt>
      <trkpt lat="28.8013750" lon="-17.8507850">
        <ele>1089.1</ele>
        <time>2020-11-16T15:06:36Z</time>
      </trkpt>
      <trkpt lat="28.8013750" lon="-17.8507850">
        <ele>1089.1</ele>
        <time>2020-11-16T15:06:37Z</time>
      </trkpt>
      <trkpt lat="28.8013770" lon="-17.8508930">
        <ele>1088.9</ele>
        <time>2020-11-16T15:06:38Z</time>
      </trkpt>
      <trkpt lat="28.8013770" lon="-17.8508930">
        <ele>1088.9</ele>
        <time>2020-11-16T15:06:39Z</time>
      </trkpt>
      <trkpt lat="28.8013700" lon="-17.8510020">
        <ele>1088.6</ele>
        <time>2020-11-16T15:06:40Z</time>
      </trkpt>
      <trkpt lat="28.8013700" lon="-17.8510020">
        <ele>1088.6</ele>
        <time>2020-11-16T15:06:41Z</time>
      </trkpt>
      <trkpt lat="28.8013880" lon="-17.8510850">
        <ele>1088.4</ele>
        <time>2020-11-16T15:06:42Z</time>
      </trkpt>
      <trkpt lat="28.8013880" lon="-17.8510850">
        <ele>1088.4</ele>
        <time>2020-11-16T15:06:43Z</time>
      </trkpt>
      <trkpt lat="28.8014430" lon="-17.8511430">
        <ele>1088.1</ele>
        <time>2020-11-16T15:06:44Z</time>
      </trkpt>
      <trkpt lat="28.8014430" lon="-17.8511430">
        <ele>1088.1</ele>
        <time>2020-11-16T15:06:45Z</time>
      </trkpt>
      <trkpt lat="28.8015150" lon="-17.8511380">
        <ele>1087.8</ele>
        <time>2020-11-16T15:06:46Z</time>
      </trkpt>
      <trkpt lat="28.8015430" lon="-17.8511280">
        <ele>1087.7</ele>
        <time>2020-11-16T15:06:47Z</time>
      </trkpt>
      <trkpt lat="28.8015430" lon="-17.8511280">
        <ele>1087.7</ele>
        <time>2020-11-16T15:06:48Z</time>
      </trkpt>
      <trkpt lat="28.8015880" lon="-17.8511100">
        <ele>1087.5</ele>
        <time>2020-11-16T15:06:49Z</time>
      </trkpt>
      <trkpt lat="28.8015880" lon="-17.8511100">
        <ele>1087.5</ele>
        <time>2020-11-16T15:06:50Z</time>
      </trkpt>
      <trkpt lat="28.8016000" lon="-17.8510780">
        <ele>1087.4</ele>
        <time>2020-11-16T15:06:51Z</time>
      </trkpt>
      <trkpt lat="28.8016000" lon="-17.8510780">
        <ele>1087.4</ele>
        <time>2020-11-16T15:06:52Z</time>
      </trkpt>
      <trkpt lat="28.8016130" lon="-17.8510000">
        <ele>1087.1</ele>
        <time>2020-11-16T15:06:53Z</time>
      </trkpt>
      <trkpt lat="28.8016130" lon="-17.8510000">
        <ele>1087.1</ele>
        <time>2020-11-16T15:06:54Z</time>
      </trkpt>
      <trkpt lat="28.8015980" lon="-17.8509230">
        <ele>1086.9</ele>
        <time>2020-11-16T15:06:55Z</time>
      </trkpt>
      <trkpt lat="28.8015970" lon="-17.8508800">
        <ele>1086.8</ele>
        <time>2020-11-16T15:06:56Z</time>
      </trkpt>
      <trkpt lat="28.8015970" lon="-17.8508800">
        <ele>1086.8</ele>
        <time>2020-11-16T15:06:57Z</time>
      </trkpt>
      <trkpt lat="28.8015800" lon="-17.8507750">
        <ele>1086.6</ele>
        <time>2020-11-16T15:06:58Z</time>
      </trkpt>
      <trkpt lat="28.8015800" lon="-17.8507750">
        <ele>1086.6</ele>
        <time>2020-11-16T15:06:59Z</time>
      </trkpt>
      <trkpt lat="28.8015500" lon="-17.8506620">
        <ele>1086.3</ele>
        <time>2020-11-16T15:07:00Z</time>
      </trkpt>
      <trkpt lat="28.8015470" lon="-17.8506100">
        <ele>1086.2</ele>
        <time>2020-11-16T15:07:01Z</time>
      </trkpt>
      <trkpt lat="28.8015470" lon="-17.8506100">
        <ele>1086.2</ele>
        <time>2020-11-16T15:07:02Z</time>
      </trkpt>
      <trkpt lat="28.8015500" lon="-17.8505080">
        <ele>1086.1</ele>
        <time>2020-11-16T15:07:03Z</time>
      </trkpt>
      <trkpt lat="28.8015500" lon="-17.8505080">
        <ele>1086.1</ele>
        <time>2020-11-16T15:07:04Z</time>
      </trkpt>
      <trkpt lat="28.8015470" lon="-17.8504220">
        <ele>1086.0</ele>
        <time>2020-11-16T15:07:05Z</time>
      </trkpt>
      <trkpt lat="28.8015470" lon="-17.8504220">
        <ele>1086.0</ele>
        <time>2020-11-16T15:07:06Z</time>
      </trkpt>
      <trkpt lat="28.8015470" lon="-17.8503450">
        <ele>1085.8</ele>
        <time>2020-11-16T15:07:07Z</time>
      </trkpt>
      <trkpt lat="28.8015470" lon="-17.8503450">
        <ele>1085.8</ele>
        <time>2020-11-16T15:07:08Z</time>
      </trkpt>
      <trkpt lat="28.8015450" lon="-17.8502570">
        <ele>1085.6</ele>
        <time>2020-11-16T15:07:09Z</time>
      </trkpt>
      <trkpt lat="28.8015450" lon="-17.8502570">
        <ele>1085.6</ele>
        <time>2020-11-16T15:07:10Z</time>
      </trkpt>
      <trkpt lat="28.8015770" lon="-17.8501730">
        <ele>1085.4</ele>
        <time>2020-11-16T15:07:11Z</time>
      </trkpt>
      <trkpt lat="28.8015770" lon="-17.8501730">
        <ele>1085.4</ele>
        <time>2020-11-16T15:07:12Z</time>
      </trkpt>
      <trkpt lat="28.8016270" lon="-17.8501220">
        <ele>1085.2</ele>
        <time>2020-11-16T15:07:13Z</time>
      </trkpt>
      <trkpt lat="28.8016270" lon="-17.8501220">
        <ele>1085.2</ele>
        <time>2020-11-16T15:07:14Z</time>
      </trkpt>
      <trkpt lat="28.8017020" lon="-17.8500830">
        <ele>1085.0</ele>
        <time>2020-11-16T15:07:15Z</time>
      </trkpt>
      <trkpt lat="28.8017020" lon="-17.8500830">
        <ele>1085.0</ele>
        <time>2020-11-16T15:07:16Z</time>
      </trkpt>
      <trkpt lat="28.8017920" lon="-17.8500480">
        <ele>1084.7</ele>
        <time>2020-11-16T15:07:17Z</time>
      </trkpt>
      <trkpt lat="28.8017920" lon="-17.8500480">
        <ele>1084.7</ele>
        <time>2020-11-16T15:07:18Z</time>
      </trkpt>
      <trkpt lat="28.8018670" lon="-17.8500030">
        <ele>1084.3</ele>
        <time>2020-11-16T15:07:19Z</time>
      </trkpt>
      <trkpt lat="28.8018930" lon="-17.8499770">
        <ele>1084.1</ele>
        <time>2020-11-16T15:07:20Z</time>
      </trkpt>
      <trkpt lat="28.8018930" lon="-17.8499770">
        <ele>1084.1</ele>
        <time>2020-11-16T15:07:21Z</time>
      </trkpt>
      <trkpt lat="28.8019320" lon="-17.8499270">
        <ele>1083.8</ele>
        <time>2020-11-16T15:07:22Z</time>
      </trkpt>
      <trkpt lat="28.8019320" lon="-17.8499270">
        <ele>1083.8</ele>
        <time>2020-11-16T15:07:23Z</time>
      </trkpt>
      <trkpt lat="28.8019270" lon="-17.8498620">
        <ele>1083.5</ele>
        <time>2020-11-16T15:07:24Z</time>
      </trkpt>
      <trkpt lat="28.8019270" lon="-17.8498620">
        <ele>1083.5</ele>
        <time>2020-11-16T15:07:25Z</time>
      </trkpt>
      <trkpt lat="28.8018970" lon="-17.8497950">
        <ele>1083.2</ele>
        <time>2020-11-16T15:07:26Z</time>
      </trkpt>
      <trkpt lat="28.8018970" lon="-17.8497950">
        <ele>1083.2</ele>
        <time>2020-11-16T15:07:27Z</time>
      </trkpt>
      <trkpt lat="28.8018770" lon="-17.8497520">
        <ele>1083.0</ele>
        <time>2020-11-16T15:07:28Z</time>
      </trkpt>
      <trkpt lat="28.8018770" lon="-17.8497520">
        <ele>1083.0</ele>
        <time>2020-11-16T15:07:29Z</time>
      </trkpt>
      <trkpt lat="28.8018730" lon="-17.8497330">
        <ele>1083.0</ele>
        <time>2020-11-16T15:07:30Z</time>
      </trkpt>
      <trkpt lat="28.8018730" lon="-17.8497330">
        <ele>1083.0</ele>
        <time>2020-11-16T15:07:31Z</time>
      </trkpt>
      <trkpt lat="28.8018680" lon="-17.8497130">
        <ele>1082.9</ele>
        <time>2020-11-16T15:07:32Z</time>
      </trkpt>
      <trkpt lat="28.8018680" lon="-17.8497130">
        <ele>1082.9</ele>
        <time>2020-11-16T15:07:33Z</time>
      </trkpt>
      <trkpt lat="28.8018700" lon="-17.8497070">
        <ele>1082.9</ele>
        <time>2020-11-16T15:07:34Z</time>
      </trkpt>
      <trkpt lat="28.8018700" lon="-17.8497070">
        <ele>1082.9</ele>
        <time>2020-11-16T15:07:35Z</time>
      </trkpt>
      <trkpt lat="28.8018700" lon="-17.8497070">
        <ele>1082.9</ele>
        <time>2020-11-16T15:08:26Z</time>
      </trkpt>
      <trkpt lat="28.8018070" lon="-17.8495970">
        <ele>1082.5</ele>
        <time>2020-11-16T15:08:27Z</time>
      </trkpt>
      <trkpt lat="28.8017780" lon="-17.8495700">
        <ele>1082.3</ele>
        <time>2020-11-16T15:08:28Z</time>
      </trkpt>
      <trkpt lat="28.8017480" lon="-17.8495430">
        <ele>1082.0</ele>
        <time>2020-11-16T15:08:29Z</time>
      </trkpt>
      <trkpt lat="28.8017480" lon="-17.8495430">
        <ele>1082.0</ele>
        <time>2020-11-16T15:08:30Z</time>
      </trkpt>
      <trkpt lat="28.8017030" lon="-17.8494870">
        <ele>1081.6</ele>
        <time>2020-11-16T15:08:31Z</time>
      </trkpt>
      <trkpt lat="28.8016780" lon="-17.8494630">
        <ele>1081.5</ele>
        <time>2020-11-16T15:08:32Z</time>
      </trkpt>
      <trkpt lat="28.8016780" lon="-17.8494630">
        <ele>1081.5</ele>
        <time>2020-11-16T15:08:33Z</time>
      </trkpt>
      <trkpt lat="28.8016430" lon="-17.8494050">
        <ele>1081.2</ele>
        <time>2020-11-16T15:08:34Z</time>
      </trkpt>
      <trkpt lat="28.8016430" lon="-17.8494050">
        <ele>1081.2</ele>
        <time>2020-11-16T15:08:35Z</time>
      </trkpt>
      <trkpt lat="28.8016020" lon="-17.8493280">
        <ele>1081.0</ele>
        <time>2020-11-16T15:08:36Z</time>
      </trkpt>
      <trkpt lat="28.8015870" lon="-17.8492870">
        <ele>1080.8</ele>
        <time>2020-11-16T15:08:37Z</time>
      </trkpt>
      <trkpt lat="28.8015870" lon="-17.8492870">
        <ele>1080.8</ele>
        <time>2020-11-16T15:08:38Z</time>
      </trkpt>
      <trkpt lat="28.8015450" lon="-17.8492050">
        <ele>1080.5</ele>
        <time>2020-11-16T15:08:39Z</time>
      </trkpt>
      <trkpt lat="28.8015450" lon="-17.8492050">
        <ele>1080.5</ele>
        <time>2020-11-16T15:08:40Z</time>
      </trkpt>
      <trkpt lat="28.8015080" lon="-17.8491370">
        <ele>1080.2</ele>
        <time>2020-11-16T15:08:41Z</time>
      </trkpt>
      <trkpt lat="28.8015080" lon="-17.8491370">
        <ele>1080.2</ele>
        <time>2020-11-16T15:08:42Z</time>
      </trkpt>
      <trkpt lat="28.8014600" lon="-17.8490750">
        <ele>1079.8</ele>
        <time>2020-11-16T15:08:43Z</time>
      </trkpt>
      <trkpt lat="28.8014600" lon="-17.8490750">
        <ele>1079.8</ele>
        <time>2020-11-16T15:08:44Z</time>
      </trkpt>
      <trkpt lat="28.8014170" lon="-17.8490170">
        <ele>1079.5</ele>
        <time>2020-11-16T15:08:45Z</time>
      </trkpt>
      <trkpt lat="28.8014170" lon="-17.8490170">
        <ele>1079.5</ele>
        <time>2020-11-16T15:08:46Z</time>
      </trkpt>
      <trkpt lat="28.8014030" lon="-17.8489470">
        <ele>1079.1</ele>
        <time>2020-11-16T15:08:47Z</time>
      </trkpt>
      <trkpt lat="28.8014030" lon="-17.8489470">
        <ele>1079.1</ele>
        <time>2020-11-16T15:08:48Z</time>
      </trkpt>
      <trkpt lat="28.8014120" lon="-17.8488780">
        <ele>1078.7</ele>
        <time>2020-11-16T15:08:49Z</time>
      </trkpt>
      <trkpt lat="28.8014120" lon="-17.8488780">
        <ele>1078.7</ele>
        <time>2020-11-16T15:08:50Z</time>
      </trkpt>
      <trkpt lat="28.8014550" lon="-17.8488330">
        <ele>1078.3</ele>
        <time>2020-11-16T15:08:51Z</time>
      </trkpt>
      <trkpt lat="28.8014550" lon="-17.8488330">
        <ele>1078.3</ele>
        <time>2020-11-16T15:08:52Z</time>
      </trkpt>
      <trkpt lat="28.8015000" lon="-17.8488130">
        <ele>1078.1</ele>
        <time>2020-11-16T15:08:53Z</time>
      </trkpt>
      <trkpt lat="28.8015000" lon="-17.8488130">
        <ele>1078.1</ele>
        <time>2020-11-16T15:08:54Z</time>
      </trkpt>
      <trkpt lat="28.8015470" lon="-17.8488020">
        <ele>1077.8</ele>
        <time>2020-11-16T15:08:55Z</time>
      </trkpt>
      <trkpt lat="28.8015870" lon="-17.8488030">
        <ele>1077.6</ele>
        <time>2020-11-16T15:08:56Z</time>
      </trkpt>
      <trkpt lat="28.8015870" lon="-17.8488030">
        <ele>1077.6</ele>
        <time>2020-11-16T15:08:57Z</time>
      </trkpt>
      <trkpt lat="28.8016550" lon="-17.8488150">
        <ele>1077.3</ele>
        <time>2020-11-16T15:08:58Z</time>
      </trkpt>
      <trkpt lat="28.8016550" lon="-17.8488150">
        <ele>1077.3</ele>
        <time>2020-11-16T15:08:59Z</time>
      </trkpt>
      <trkpt lat="28.8017430" lon="-17.8488250">
        <ele>1077.0</ele>
        <time>2020-11-16T15:09:00Z</time>
      </trkpt>
      <trkpt lat="28.8017430" lon="-17.8488250">
        <ele>1077.0</ele>
        <time>2020-11-16T15:09:01Z</time>
      </trkpt>
      <trkpt lat="28.8018170" lon="-17.8488420">
        <ele>1076.7</ele>
        <time>2020-11-16T15:09:02Z</time>
      </trkpt>
      <trkpt lat="28.8018170" lon="-17.8488420">
        <ele>1076.7</ele>
        <time>2020-11-16T15:09:03Z</time>
      </trkpt>
      <trkpt lat="28.8018800" lon="-17.8488600">
        <ele>1076.5</ele>
        <time>2020-11-16T15:09:04Z</time>
      </trkpt>
      <trkpt lat="28.8018800" lon="-17.8488600">
        <ele>1076.5</ele>
        <time>2020-11-16T15:09:05Z</time>
      </trkpt>
      <trkpt lat="28.8019450" lon="-17.8488700">
        <ele>1076.3</ele>
        <time>2020-11-16T15:09:06Z</time>
      </trkpt>
      <trkpt lat="28.8019450" lon="-17.8488700">
        <ele>1076.3</ele>
        <time>2020-11-16T15:09:07Z</time>
      </trkpt>
      <trkpt lat="28.8020250" lon="-17.8488720">
        <ele>1076.1</ele>
        <time>2020-11-16T15:09:08Z</time>
      </trkpt>
      <trkpt lat="28.8020250" lon="-17.8488720">
        <ele>1076.1</ele>
        <time>2020-11-16T15:09:09Z</time>
      </trkpt>
      <trkpt lat="28.8021150" lon="-17.8488750">
        <ele>1075.9</ele>
        <time>2020-11-16T15:09:10Z</time>
      </trkpt>
      <trkpt lat="28.8021150" lon="-17.8488750">
        <ele>1076.7</ele>
        <time>2020-11-16T15:09:11Z</time>
      </trkpt>
      <trkpt lat="28.8021980" lon="-17.8488730">
        <ele>1075.5</ele>
        <time>2020-11-16T15:09:12Z</time>
      </trkpt>
      <trkpt lat="28.8021980" lon="-17.8488730">
        <ele>1076.3</ele>
        <time>2020-11-16T15:09:13Z</time>
      </trkpt>
      <trkpt lat="28.8022730" lon="-17.8488770">
        <ele>1074.9</ele>
        <time>2020-11-16T15:09:14Z</time>
      </trkpt>
      <trkpt lat="28.8022730" lon="-17.8488770">
        <ele>1075.7</ele>
        <time>2020-11-16T15:09:15Z</time>
      </trkpt>
      <trkpt lat="28.8023550" lon="-17.8488620">
        <ele>1074.3</ele>
        <time>2020-11-16T15:09:16Z</time>
      </trkpt>
      <trkpt lat="28.8023550" lon="-17.8488620">
        <ele>1075.1</ele>
        <time>2020-11-16T15:09:17Z</time>
      </trkpt>
      <trkpt lat="28.8024300" lon="-17.8488300">
        <ele>1074.3</ele>
        <time>2020-11-16T15:09:18Z</time>
      </trkpt>
      <trkpt lat="28.8024300" lon="-17.8488300">
        <ele>1075.1</ele>
        <time>2020-11-16T15:09:19Z</time>
      </trkpt>
      <trkpt lat="28.8024930" lon="-17.8488030">
        <ele>1073.8</ele>
        <time>2020-11-16T15:09:20Z</time>
      </trkpt>
      <trkpt lat="28.8024930" lon="-17.8488030">
        <ele>1074.6</ele>
        <time>2020-11-16T15:09:21Z</time>
      </trkpt>
      <trkpt lat="28.8025500" lon="-17.8488250">
        <ele>1074.2</ele>
        <time>2020-11-16T15:09:22Z</time>
      </trkpt>
      <trkpt lat="28.8025500" lon="-17.8488250">
        <ele>1074.2</ele>
        <time>2020-11-16T15:09:23Z</time>
      </trkpt>
      <trkpt lat="28.8025650" lon="-17.8488580">
        <ele>1074.1</ele>
        <time>2020-11-16T15:09:24Z</time>
      </trkpt>
      <trkpt lat="28.8025650" lon="-17.8488580">
        <ele>1074.1</ele>
        <time>2020-11-16T15:09:25Z</time>
      </trkpt>
      <trkpt lat="28.8025430" lon="-17.8489020">
        <ele>1073.9</ele>
        <time>2020-11-16T15:09:26Z</time>
      </trkpt>
      <trkpt lat="28.8025430" lon="-17.8489020">
        <ele>1073.9</ele>
        <time>2020-11-16T15:09:27Z</time>
      </trkpt>
      <trkpt lat="28.8024920" lon="-17.8489180">
        <ele>1073.7</ele>
        <time>2020-11-16T15:09:28Z</time>
      </trkpt>
      <trkpt lat="28.8024920" lon="-17.8489180">
        <ele>1073.7</ele>
        <time>2020-11-16T15:09:29Z</time>
      </trkpt>
      <trkpt lat="28.8024270" lon="-17.8489200">
        <ele>1073.4</ele>
        <time>2020-11-16T15:09:30Z</time>
      </trkpt>
      <trkpt lat="28.8023930" lon="-17.8489330">
        <ele>1073.2</ele>
        <time>2020-11-16T15:09:31Z</time>
      </trkpt>
      <trkpt lat="28.8023600" lon="-17.8489500">
        <ele>1073.1</ele>
        <time>2020-11-16T15:09:32Z</time>
      </trkpt>
      <trkpt lat="28.8023600" lon="-17.8489500">
        <ele>1073.1</ele>
        <time>2020-11-16T15:09:33Z</time>
      </trkpt>
      <trkpt lat="28.8022850" lon="-17.8489800">
        <ele>1072.7</ele>
        <time>2020-11-16T15:09:34Z</time>
      </trkpt>
      <trkpt lat="28.8022850" lon="-17.8489800">
        <ele>1072.7</ele>
        <time>2020-11-16T15:09:35Z</time>
      </trkpt>
      <trkpt lat="28.8022050" lon="-17.8489930">
        <ele>1072.3</ele>
        <time>2020-11-16T15:09:36Z</time>
      </trkpt>
      <trkpt lat="28.8022050" lon="-17.8489930">
        <ele>1072.3</ele>
        <time>2020-11-16T15:09:37Z</time>
      </trkpt>
      <trkpt lat="28.8021420" lon="-17.8490120">
        <ele>1071.9</ele>
        <time>2020-11-16T15:09:38Z</time>
      </trkpt>
      <trkpt lat="28.8021420" lon="-17.8490120">
        <ele>1071.9</ele>
        <time>2020-11-16T15:09:39Z</time>
      </trkpt>
      <trkpt lat="28.8020720" lon="-17.8490330">
        <ele>1071.5</ele>
        <time>2020-11-16T15:09:40Z</time>
      </trkpt>
      <trkpt lat="28.8020720" lon="-17.8490330">
        <ele>1071.5</ele>
        <time>2020-11-16T15:09:41Z</time>
      </trkpt>
      <trkpt lat="28.8020130" lon="-17.8490520">
        <ele>1071.0</ele>
        <time>2020-11-16T15:09:42Z</time>
      </trkpt>
      <trkpt lat="28.8020130" lon="-17.8490520">
        <ele>1071.0</ele>
        <time>2020-11-16T15:09:43Z</time>
      </trkpt>
      <trkpt lat="28.8019570" lon="-17.8490770">
        <ele>1070.5</ele>
        <time>2020-11-16T15:09:44Z</time>
      </trkpt>
      <trkpt lat="28.8019570" lon="-17.8490770">
        <ele>1070.5</ele>
        <time>2020-11-16T15:09:45Z</time>
      </trkpt>
      <trkpt lat="28.8019220" lon="-17.8491080">
        <ele>1070.2</ele>
        <time>2020-11-16T15:09:46Z</time>
      </trkpt>
      <trkpt lat="28.8019220" lon="-17.8491080">
        <ele>1070.2</ele>
        <time>2020-11-16T15:09:47Z</time>
      </trkpt>
      <trkpt lat="28.8019020" lon="-17.8491200">
        <ele>1070.0</ele>
        <time>2020-11-16T15:09:48Z</time>
      </trkpt>
      <trkpt lat="28.8019020" lon="-17.8491200">
        <ele>1070.0</ele>
        <time>2020-11-16T15:09:49Z</time>
      </trkpt>
      <trkpt lat="28.8019380" lon="-17.8491500">
        <ele>1069.7</ele>
        <time>2020-11-16T15:09:50Z</time>
      </trkpt>
      <trkpt lat="28.8019380" lon="-17.8491500">
        <ele>1069.7</ele>
        <time>2020-11-16T15:09:51Z</time>
      </trkpt>
      <trkpt lat="28.8019830" lon="-17.8492000">
        <ele>1069.4</ele>
        <time>2020-11-16T15:09:52Z</time>
      </trkpt>
      <trkpt lat="28.8019830" lon="-17.8492000">
        <ele>1069.4</ele>
        <time>2020-11-16T15:09:53Z</time>
      </trkpt>
      <trkpt lat="28.8020500" lon="-17.8492420">
        <ele>1069.1</ele>
        <time>2020-11-16T15:09:54Z</time>
      </trkpt>
      <trkpt lat="28.8020850" lon="-17.8492780">
        <ele>1069.5</ele>
        <time>2020-11-16T15:09:55Z</time>
      </trkpt>
      <trkpt lat="28.8020850" lon="-17.8492780">
        <ele>1069.5</ele>
        <time>2020-11-16T15:09:56Z</time>
      </trkpt>
      <trkpt lat="28.8021480" lon="-17.8493330">
        <ele>1070.2</ele>
        <time>2020-11-16T15:09:57Z</time>
      </trkpt>
      <trkpt lat="28.8021480" lon="-17.8493330">
        <ele>1070.2</ele>
        <time>2020-11-16T15:09:58Z</time>
      </trkpt>
      <trkpt lat="28.8022000" lon="-17.8493930">
        <ele>1071.0</ele>
        <time>2020-11-16T15:09:59Z</time>
      </trkpt>
      <trkpt lat="28.8022330" lon="-17.8494380">
        <ele>1071.5</ele>
        <time>2020-11-16T15:10:00Z</time>
      </trkpt>
      <trkpt lat="28.8022330" lon="-17.8494380">
        <ele>1071.5</ele>
        <time>2020-11-16T15:10:01Z</time>
      </trkpt>
      <trkpt lat="28.8022620" lon="-17.8495030">
        <ele>1072.1</ele>
        <time>2020-11-16T15:10:02Z</time>
      </trkpt>
      <trkpt lat="28.8022830" lon="-17.8495320">
        <ele>1072.4</ele>
        <time>2020-11-16T15:10:03Z</time>
      </trkpt>
      <trkpt lat="28.8022830" lon="-17.8495320">
        <ele>1072.4</ele>
        <time>2020-11-16T15:10:04Z</time>
      </trkpt>
      <trkpt lat="28.8023020" lon="-17.8495900">
        <ele>1072.8</ele>
        <time>2020-11-16T15:10:05Z</time>
      </trkpt>
      <trkpt lat="28.8023180" lon="-17.8496230">
        <ele>1073.0</ele>
        <time>2020-11-16T15:10:06Z</time>
      </trkpt>
      <trkpt lat="28.8023180" lon="-17.8496230">
        <ele>1073.0</ele>
        <time>2020-11-16T15:10:07Z</time>
      </trkpt>
      <trkpt lat="28.8023420" lon="-17.8496750">
        <ele>1073.3</ele>
        <time>2020-11-16T15:10:08Z</time>
      </trkpt>
      <trkpt lat="28.8023420" lon="-17.8496750">
        <ele>1073.3</ele>
        <time>2020-11-16T15:10:09Z</time>
      </trkpt>
      <trkpt lat="28.8023630" lon="-17.8497270">
        <ele>1073.5</ele>
        <time>2020-11-16T15:10:10Z</time>
      </trkpt>
      <trkpt lat="28.8023630" lon="-17.8497270">
        <ele>1073.5</ele>
        <time>2020-11-16T15:10:11Z</time>
      </trkpt>
      <trkpt lat="28.8023750" lon="-17.8497820">
        <ele>1073.7</ele>
        <time>2020-11-16T15:10:12Z</time>
      </trkpt>
      <trkpt lat="28.8023750" lon="-17.8497820">
        <ele>1073.7</ele>
        <time>2020-11-16T15:10:13Z</time>
      </trkpt>
      <trkpt lat="28.8023880" lon="-17.8498450">
        <ele>1073.8</ele>
        <time>2020-11-16T15:10:14Z</time>
      </trkpt>
      <trkpt lat="28.8023880" lon="-17.8498450">
        <ele>1073.8</ele>
        <time>2020-11-16T15:10:15Z</time>
      </trkpt>
      <trkpt lat="28.8024070" lon="-17.8499220">
        <ele>1073.9</ele>
        <time>2020-11-16T15:10:16Z</time>
      </trkpt>
      <trkpt lat="28.8024070" lon="-17.8499220">
        <ele>1073.9</ele>
        <time>2020-11-16T15:10:17Z</time>
      </trkpt>
      <trkpt lat="28.8024070" lon="-17.8499870">
        <ele>1073.9</ele>
        <time>2020-11-16T15:10:18Z</time>
      </trkpt>
      <trkpt lat="28.8024070" lon="-17.8499870">
        <ele>1073.9</ele>
        <time>2020-11-16T15:10:19Z</time>
      </trkpt>
      <trkpt lat="28.8023720" lon="-17.8500500">
        <ele>1073.8</ele>
        <time>2020-11-16T15:10:20Z</time>
      </trkpt>
      <trkpt lat="28.8023720" lon="-17.8500500">
        <ele>1073.8</ele>
        <time>2020-11-16T15:10:21Z</time>
      </trkpt>
      <trkpt lat="28.8023300" lon="-17.8501270">
        <ele>1073.5</ele>
        <time>2020-11-16T15:10:22Z</time>
      </trkpt>
      <trkpt lat="28.8023300" lon="-17.8501270">
        <ele>1073.5</ele>
        <time>2020-11-16T15:10:23Z</time>
      </trkpt>
      <trkpt lat="28.8023150" lon="-17.8502120">
        <ele>1073.1</ele>
        <time>2020-11-16T15:10:24Z</time>
      </trkpt>
      <trkpt lat="28.8023150" lon="-17.8502120">
        <ele>1073.1</ele>
        <time>2020-11-16T15:10:25Z</time>
      </trkpt>
      <trkpt lat="28.8023330" lon="-17.8503130">
        <ele>1072.6</ele>
        <time>2020-11-16T15:10:26Z</time>
      </trkpt>
      <trkpt lat="28.8023330" lon="-17.8503130">
        <ele>1072.6</ele>
        <time>2020-11-16T15:10:27Z</time>
      </trkpt>
      <trkpt lat="28.8023770" lon="-17.8504520">
        <ele>1072.1</ele>
        <time>2020-11-16T15:10:28Z</time>
      </trkpt>
      <trkpt lat="28.8024120" lon="-17.8505150">
        <ele>1071.9</ele>
        <time>2020-11-16T15:10:29Z</time>
      </trkpt>
      <trkpt lat="28.8024120" lon="-17.8505150">
        <ele>1071.9</ele>
        <time>2020-11-16T15:10:30Z</time>
      </trkpt>
      <trkpt lat="28.8024620" lon="-17.8506480">
        <ele>1071.7</ele>
        <time>2020-11-16T15:10:31Z</time>
      </trkpt>
      <trkpt lat="28.8024620" lon="-17.8506480">
        <ele>1071.7</ele>
        <time>2020-11-16T15:10:32Z</time>
      </trkpt>
      <trkpt lat="28.8024880" lon="-17.8507770">
        <ele>1071.5</ele>
        <time>2020-11-16T15:10:33Z</time>
      </trkpt>
      <trkpt lat="28.8024880" lon="-17.8507770">
        <ele>1071.5</ele>
        <time>2020-11-16T15:10:34Z</time>
      </trkpt>
      <trkpt lat="28.8024580" lon="-17.8509030">
        <ele>1071.1</ele>
        <time>2020-11-16T15:10:35Z</time>
      </trkpt>
      <trkpt lat="28.8024580" lon="-17.8509030">
        <ele>1071.1</ele>
        <time>2020-11-16T15:10:36Z</time>
      </trkpt>
      <trkpt lat="28.8023830" lon="-17.8509830">
        <ele>1070.5</ele>
        <time>2020-11-16T15:10:37Z</time>
      </trkpt>
      <trkpt lat="28.8023830" lon="-17.8509830">
        <ele>1070.5</ele>
        <time>2020-11-16T15:10:38Z</time>
      </trkpt>
      <trkpt lat="28.8022630" lon="-17.8510580">
        <ele>1069.7</ele>
        <time>2020-11-16T15:10:39Z</time>
      </trkpt>
      <trkpt lat="28.8022030" lon="-17.8511030">
        <ele>1069.4</ele>
        <time>2020-11-16T15:10:40Z</time>
      </trkpt>
      <trkpt lat="28.8022030" lon="-17.8511030">
        <ele>1069.4</ele>
        <time>2020-11-16T15:10:41Z</time>
      </trkpt>
      <trkpt lat="28.8021320" lon="-17.8512030">
        <ele>1069.2</ele>
        <time>2020-11-16T15:10:42Z</time>
      </trkpt>
      <trkpt lat="28.8021320" lon="-17.8512030">
        <ele>1069.2</ele>
        <time>2020-11-16T15:10:43Z</time>
      </trkpt>
      <trkpt lat="28.8020900" lon="-17.8513220">
        <ele>1069.2</ele>
        <time>2020-11-16T15:10:44Z</time>
      </trkpt>
      <trkpt lat="28.8020900" lon="-17.8513220">
        <ele>1069.2</ele>
        <time>2020-11-16T15:10:45Z</time>
      </trkpt>
      <trkpt lat="28.8020330" lon="-17.8514420">
        <ele>1069.4</ele>
        <time>2020-11-16T15:10:46Z</time>
      </trkpt>
      <trkpt lat="28.8020330" lon="-17.8514420">
        <ele>1069.4</ele>
        <time>2020-11-16T15:10:47Z</time>
      </trkpt>
      <trkpt lat="28.8019280" lon="-17.8515070">
        <ele>1069.6</ele>
        <time>2020-11-16T15:10:48Z</time>
      </trkpt>
      <trkpt lat="28.8019280" lon="-17.8515070">
        <ele>1069.6</ele>
        <time>2020-11-16T15:10:49Z</time>
      </trkpt>
      <trkpt lat="28.8018230" lon="-17.8515380">
        <ele>1069.7</ele>
        <time>2020-11-16T15:10:50Z</time>
      </trkpt>
      <trkpt lat="28.8018230" lon="-17.8515380">
        <ele>1069.7</ele>
        <time>2020-11-16T15:10:51Z</time>
      </trkpt>
      <trkpt lat="28.8017180" lon="-17.8515430">
        <ele>1069.8</ele>
        <time>2020-11-16T15:10:52Z</time>
      </trkpt>
      <trkpt lat="28.8017180" lon="-17.8515430">
        <ele>1069.8</ele>
        <time>2020-11-16T15:10:53Z</time>
      </trkpt>
      <trkpt lat="28.8015980" lon="-17.8515670">
        <ele>1069.8</ele>
        <time>2020-11-16T15:10:54Z</time>
      </trkpt>
      <trkpt lat="28.8015980" lon="-17.8515670">
        <ele>1069.8</ele>
        <time>2020-11-16T15:10:55Z</time>
      </trkpt>
      <trkpt lat="28.8014780" lon="-17.8515900">
        <ele>1069.7</ele>
        <time>2020-11-16T15:10:56Z</time>
      </trkpt>
      <trkpt lat="28.8014780" lon="-17.8515900">
        <ele>1069.7</ele>
        <time>2020-11-16T15:10:57Z</time>
      </trkpt>
      <trkpt lat="28.8013620" lon="-17.8516050">
        <ele>1069.7</ele>
        <time>2020-11-16T15:10:58Z</time>
      </trkpt>
      <trkpt lat="28.8013620" lon="-17.8516050">
        <ele>1069.7</ele>
        <time>2020-11-16T15:10:59Z</time>
      </trkpt>
      <trkpt lat="28.8012450" lon="-17.8515830">
        <ele>1069.6</ele>
        <time>2020-11-16T15:11:00Z</time>
      </trkpt>
      <trkpt lat="28.8012450" lon="-17.8515830">
        <ele>1069.6</ele>
        <time>2020-11-16T15:11:01Z</time>
      </trkpt>
      <trkpt lat="28.8011550" lon="-17.8515650">
        <ele>1069.6</ele>
        <time>2020-11-16T15:11:02Z</time>
      </trkpt>
      <trkpt lat="28.8011550" lon="-17.8515650">
        <ele>1069.6</ele>
        <time>2020-11-16T15:11:03Z</time>
      </trkpt>
      <trkpt lat="28.8010520" lon="-17.8515430">
        <ele>1069.6</ele>
        <time>2020-11-16T15:11:04Z</time>
      </trkpt>
      <trkpt lat="28.8010520" lon="-17.8515430">
        <ele>1069.6</ele>
        <time>2020-11-16T15:11:05Z</time>
      </trkpt>
      <trkpt lat="28.8009330" lon="-17.8515100">
        <ele>1069.7</ele>
        <time>2020-11-16T15:11:06Z</time>
      </trkpt>
      <trkpt lat="28.8009330" lon="-17.8515100">
        <ele>1069.7</ele>
        <time>2020-11-16T15:11:07Z</time>
      </trkpt>
      <trkpt lat="28.8008350" lon="-17.8514570">
        <ele>1069.8</ele>
        <time>2020-11-16T15:11:08Z</time>
      </trkpt>
      <trkpt lat="28.8008350" lon="-17.8514570">
        <ele>1069.8</ele>
        <time>2020-11-16T15:11:09Z</time>
      </trkpt>
      <trkpt lat="28.8007320" lon="-17.8514050">
        <ele>1069.9</ele>
        <time>2020-11-16T15:11:10Z</time>
      </trkpt>
      <trkpt lat="28.8007320" lon="-17.8514050">
        <ele>1069.9</ele>
        <time>2020-11-16T15:11:11Z</time>
      </trkpt>
      <trkpt lat="28.8006300" lon="-17.8513650">
        <ele>1070.0</ele>
        <time>2020-11-16T15:11:12Z</time>
      </trkpt>
      <trkpt lat="28.8006300" lon="-17.8513650">
        <ele>1070.0</ele>
        <time>2020-11-16T15:11:13Z</time>
      </trkpt>
      <trkpt lat="28.8005250" lon="-17.8513330">
        <ele>1070.0</ele>
        <time>2020-11-16T15:11:14Z</time>
      </trkpt>
      <trkpt lat="28.8005250" lon="-17.8513330">
        <ele>1070.0</ele>
        <time>2020-11-16T15:11:15Z</time>
      </trkpt>
      <trkpt lat="28.8004370" lon="-17.8512670">
        <ele>1069.9</ele>
        <time>2020-11-16T15:11:16Z</time>
      </trkpt>
      <trkpt lat="28.8004030" lon="-17.8512230">
        <ele>1069.8</ele>
        <time>2020-11-16T15:11:17Z</time>
      </trkpt>
      <trkpt lat="28.8004030" lon="-17.8512230">
        <ele>1069.8</ele>
        <time>2020-11-16T15:11:18Z</time>
      </trkpt>
      <trkpt lat="28.8003220" lon="-17.8511170">
        <ele>1069.4</ele>
        <time>2020-11-16T15:11:19Z</time>
      </trkpt>
      <trkpt lat="28.8002780" lon="-17.8510580">
        <ele>1069.1</ele>
        <time>2020-11-16T15:11:20Z</time>
      </trkpt>
      <trkpt lat="28.8002120" lon="-17.8510220">
        <ele>1068.7</ele>
        <time>2020-11-16T15:11:21Z</time>
      </trkpt>
      <trkpt lat="28.8002120" lon="-17.8510220">
        <ele>1068.7</ele>
        <time>2020-11-16T15:11:22Z</time>
      </trkpt>
      <trkpt lat="28.8000750" lon="-17.8509620">
        <ele>1068.1</ele>
        <time>2020-11-16T15:11:23Z</time>
      </trkpt>
      <trkpt lat="28.8000750" lon="-17.8509620">
        <ele>1068.1</ele>
        <time>2020-11-16T15:11:24Z</time>
      </trkpt>
      <trkpt lat="28.7999370" lon="-17.8509330">
        <ele>1067.7</ele>
        <time>2020-11-16T15:11:25Z</time>
      </trkpt>
      <trkpt lat="28.7998750" lon="-17.8509350">
        <ele>1067.5</ele>
        <time>2020-11-16T15:11:26Z</time>
      </trkpt>
      <trkpt lat="28.7998750" lon="-17.8509350">
        <ele>1067.5</ele>
        <time>2020-11-16T15:11:27Z</time>
      </trkpt>
      <trkpt lat="28.7997950" lon="-17.8509920">
        <ele>1067.4</ele>
        <time>2020-11-16T15:11:28Z</time>
      </trkpt>
      <trkpt lat="28.7997950" lon="-17.8509920">
        <ele>1067.7</ele>
        <time>2020-11-16T15:11:29Z</time>
      </trkpt>
      <trkpt lat="28.7998020" lon="-17.8511200">
        <ele>1066.0</ele>
        <time>2020-11-16T15:11:30Z</time>
      </trkpt>
      <trkpt lat="28.7998020" lon="-17.8511200">
        <ele>1066.4</ele>
        <time>2020-11-16T15:11:31Z</time>
      </trkpt>
      <trkpt lat="28.7998630" lon="-17.8512400">
        <ele>1064.8</ele>
        <time>2020-11-16T15:11:32Z</time>
      </trkpt>
      <trkpt lat="28.7998630" lon="-17.8512400">
        <ele>1065.1</ele>
        <time>2020-11-16T15:11:33Z</time>
      </trkpt>
      <trkpt lat="28.7999000" lon="-17.8513680">
        <ele>1063.6</ele>
        <time>2020-11-16T15:11:34Z</time>
      </trkpt>
      <trkpt lat="28.7999000" lon="-17.8513680">
        <ele>1063.6</ele>
        <time>2020-11-16T15:11:35Z</time>
      </trkpt>
      <trkpt lat="28.7999280" lon="-17.8514900">
        <ele>1062.4</ele>
        <time>2020-11-16T15:11:36Z</time>
      </trkpt>
      <trkpt lat="28.7999280" lon="-17.8514900">
        <ele>1062.4</ele>
        <time>2020-11-16T15:11:37Z</time>
      </trkpt>
      <trkpt lat="28.7999320" lon="-17.8516170">
        <ele>1061.2</ele>
        <time>2020-11-16T15:11:38Z</time>
      </trkpt>
      <trkpt lat="28.7999320" lon="-17.8516170">
        <ele>1061.2</ele>
        <time>2020-11-16T15:11:39Z</time>
      </trkpt>
      <trkpt lat="28.7999880" lon="-17.8517380">
        <ele>1059.9</ele>
        <time>2020-11-16T15:11:40Z</time>
      </trkpt>
      <trkpt lat="28.7999880" lon="-17.8517380">
        <ele>1059.9</ele>
        <time>2020-11-16T15:11:41Z</time>
      </trkpt>
      <trkpt lat="28.8000600" lon="-17.8518230">
        <ele>1058.9</ele>
        <time>2020-11-16T15:11:42Z</time>
      </trkpt>
      <trkpt lat="28.8000600" lon="-17.8518230">
        <ele>1058.9</ele>
        <time>2020-11-16T15:11:43Z</time>
      </trkpt>
      <trkpt lat="28.8001120" lon="-17.8519570">
        <ele>1057.7</ele>
        <time>2020-11-16T15:11:44Z</time>
      </trkpt>
      <trkpt lat="28.8001120" lon="-17.8519570">
        <ele>1057.7</ele>
        <time>2020-11-16T15:11:45Z</time>
      </trkpt>
      <trkpt lat="28.8001230" lon="-17.8521400">
        <ele>1055.9</ele>
        <time>2020-11-16T15:11:46Z</time>
      </trkpt>
      <trkpt lat="28.8001230" lon="-17.8521400">
        <ele>1055.9</ele>
        <time>2020-11-16T15:11:47Z</time>
      </trkpt>
      <trkpt lat="28.8001270" lon="-17.8523320">
        <ele>1053.9</ele>
        <time>2020-11-16T15:11:48Z</time>
      </trkpt>
      <trkpt lat="28.8001200" lon="-17.8524100">
        <ele>1053.2</ele>
        <time>2020-11-16T15:11:49Z</time>
      </trkpt>
      <trkpt lat="28.8001200" lon="-17.8524100">
        <ele>1053.2</ele>
        <time>2020-11-16T15:11:50Z</time>
      </trkpt>
      <trkpt lat="28.8001100" lon="-17.8525950">
        <ele>1051.5</ele>
        <time>2020-11-16T15:11:51Z</time>
      </trkpt>
      <trkpt lat="28.8001100" lon="-17.8525950">
        <ele>1051.5</ele>
        <time>2020-11-16T15:11:52Z</time>
      </trkpt>
      <trkpt lat="28.8001600" lon="-17.8527520">
        <ele>1049.6</ele>
        <time>2020-11-16T15:11:53Z</time>
      </trkpt>
      <trkpt lat="28.8001600" lon="-17.8527520">
        <ele>1049.6</ele>
        <time>2020-11-16T15:11:54Z</time>
      </trkpt>
      <trkpt lat="28.8002050" lon="-17.8529080">
        <ele>1047.6</ele>
        <time>2020-11-16T15:11:55Z</time>
      </trkpt>
      <trkpt lat="28.8002050" lon="-17.8529080">
        <ele>1047.6</ele>
        <time>2020-11-16T15:11:56Z</time>
      </trkpt>
      <trkpt lat="28.8001370" lon="-17.8530770">
        <ele>1045.3</ele>
        <time>2020-11-16T15:11:57Z</time>
      </trkpt>
      <trkpt lat="28.8001370" lon="-17.8530770">
        <ele>1045.3</ele>
        <time>2020-11-16T15:11:58Z</time>
      </trkpt>
      <trkpt lat="28.8000050" lon="-17.8532230">
        <ele>1042.9</ele>
        <time>2020-11-16T15:11:59Z</time>
      </trkpt>
      <trkpt lat="28.7999300" lon="-17.8532980">
        <ele>1041.9</ele>
        <time>2020-11-16T15:12:00Z</time>
      </trkpt>
      <trkpt lat="28.7999300" lon="-17.8532980">
        <ele>1041.9</ele>
        <time>2020-11-16T15:12:01Z</time>
      </trkpt>
      <trkpt lat="28.7997970" lon="-17.8534570">
        <ele>1040.5</ele>
        <time>2020-11-16T15:12:02Z</time>
      </trkpt>
      <trkpt lat="28.7997970" lon="-17.8534570">
        <ele>1040.5</ele>
        <time>2020-11-16T15:12:03Z</time>
      </trkpt>
      <trkpt lat="28.7996750" lon="-17.8535920">
        <ele>1039.6</ele>
        <time>2020-11-16T15:12:04Z</time>
      </trkpt>
      <trkpt lat="28.7996300" lon="-17.8536670">
        <ele>1039.2</ele>
        <time>2020-11-16T15:12:05Z</time>
      </trkpt>
      <trkpt lat="28.7996300" lon="-17.8536670">
        <ele>1039.2</ele>
        <time>2020-11-16T15:12:06Z</time>
      </trkpt>
      <trkpt lat="28.7995200" lon="-17.8537600">
        <ele>1038.3</ele>
        <time>2020-11-16T15:12:07Z</time>
      </trkpt>
      <trkpt lat="28.7994780" lon="-17.8537770">
        <ele>1038.0</ele>
        <time>2020-11-16T15:12:08Z</time>
      </trkpt>
      <trkpt lat="28.7994780" lon="-17.8537770">
        <ele>1038.0</ele>
        <time>2020-11-16T15:12:09Z</time>
      </trkpt>
      <trkpt lat="28.7993630" lon="-17.8536820">
        <ele>1036.6</ele>
        <time>2020-11-16T15:12:10Z</time>
      </trkpt>
      <trkpt lat="28.7993080" lon="-17.8536350">
        <ele>1035.9</ele>
        <time>2020-11-16T15:12:11Z</time>
      </trkpt>
      <trkpt lat="28.7993080" lon="-17.8536350">
        <ele>1035.9</ele>
        <time>2020-11-16T15:12:12Z</time>
      </trkpt>
      <trkpt lat="28.7991630" lon="-17.8536100">
        <ele>1034.2</ele>
        <time>2020-11-16T15:12:13Z</time>
      </trkpt>
      <trkpt lat="28.7990870" lon="-17.8536270">
        <ele>1033.3</ele>
        <time>2020-11-16T15:12:14Z</time>
      </trkpt>
      <trkpt lat="28.7990870" lon="-17.8536270">
        <ele>1033.3</ele>
        <time>2020-11-16T15:12:15Z</time>
      </trkpt>
      <trkpt lat="28.7989270" lon="-17.8536600">
        <ele>1031.9</ele>
        <time>2020-11-16T15:12:16Z</time>
      </trkpt>
      <trkpt lat="28.7989270" lon="-17.8536600">
        <ele>1031.9</ele>
        <time>2020-11-16T15:12:17Z</time>
      </trkpt>
      <trkpt lat="28.7987470" lon="-17.8536620">
        <ele>1030.4</ele>
        <time>2020-11-16T15:12:18Z</time>
      </trkpt>
      <trkpt lat="28.7987470" lon="-17.8536620">
        <ele>1030.4</ele>
        <time>2020-11-16T15:12:19Z</time>
      </trkpt>
      <trkpt lat="28.7986080" lon="-17.8536870">
        <ele>1029.2</ele>
        <time>2020-11-16T15:12:20Z</time>
      </trkpt>
      <trkpt lat="28.7986080" lon="-17.8536870">
        <ele>1029.2</ele>
        <time>2020-11-16T15:12:21Z</time>
      </trkpt>
      <trkpt lat="28.7984520" lon="-17.8538080">
        <ele>1027.8</ele>
        <time>2020-11-16T15:12:22Z</time>
      </trkpt>
      <trkpt lat="28.7983780" lon="-17.8538600">
        <ele>1027.4</ele>
        <time>2020-11-16T15:12:23Z</time>
      </trkpt>
      <trkpt lat="28.7983780" lon="-17.8538600">
        <ele>1027.4</ele>
        <time>2020-11-16T15:12:24Z</time>
      </trkpt>
      <trkpt lat="28.7982830" lon="-17.8539650">
        <ele>1026.8</ele>
        <time>2020-11-16T15:12:25Z</time>
      </trkpt>
      <trkpt lat="28.7982830" lon="-17.8539650">
        <ele>1026.8</ele>
        <time>2020-11-16T15:12:26Z</time>
      </trkpt>
      <trkpt lat="28.7982470" lon="-17.8540680">
        <ele>1026.5</ele>
        <time>2020-11-16T15:12:27Z</time>
      </trkpt>
      <trkpt lat="28.7982470" lon="-17.8540680">
        <ele>1026.5</ele>
        <time>2020-11-16T15:12:28Z</time>
      </trkpt>
      <trkpt lat="28.7982750" lon="-17.8541850">
        <ele>1026.2</ele>
        <time>2020-11-16T15:12:29Z</time>
      </trkpt>
      <trkpt lat="28.7982750" lon="-17.8541850">
        <ele>1026.2</ele>
        <time>2020-11-16T15:12:30Z</time>
      </trkpt>
      <trkpt lat="28.7983950" lon="-17.8542170">
        <ele>1025.7</ele>
        <time>2020-11-16T15:12:31Z</time>
      </trkpt>
      <trkpt lat="28.7984330" lon="-17.8542520">
        <ele>1025.6</ele>
        <time>2020-11-16T15:12:32Z</time>
      </trkpt>
      <trkpt lat="28.7984330" lon="-17.8542520">
        <ele>1025.6</ele>
        <time>2020-11-16T15:12:33Z</time>
      </trkpt>
      <trkpt lat="28.7985170" lon="-17.8542870">
        <ele>1025.3</ele>
        <time>2020-11-16T15:12:34Z</time>
      </trkpt>
      <trkpt lat="28.7985550" lon="-17.8542820">
        <ele>1025.1</ele>
        <time>2020-11-16T15:12:35Z</time>
      </trkpt>
      <trkpt lat="28.7985550" lon="-17.8542820">
        <ele>1025.1</ele>
        <time>2020-11-16T15:12:36Z</time>
      </trkpt>
      <trkpt lat="28.7986550" lon="-17.8542970">
        <ele>1024.8</ele>
        <time>2020-11-16T15:12:37Z</time>
      </trkpt>
      <trkpt lat="28.7986550" lon="-17.8542970">
        <ele>1024.8</ele>
        <time>2020-11-16T15:12:38Z</time>
      </trkpt>
      <trkpt lat="28.7987130" lon="-17.8544130">
        <ele>1024.5</ele>
        <time>2020-11-16T15:12:39Z</time>
      </trkpt>
      <trkpt lat="28.7987130" lon="-17.8544130">
        <ele>1024.5</ele>
        <time>2020-11-16T15:12:40Z</time>
      </trkpt>
      <trkpt lat="28.7986930" lon="-17.8545470">
        <ele>1024.0</ele>
        <time>2020-11-16T15:12:41Z</time>
      </trkpt>
      <trkpt lat="28.7986930" lon="-17.8545470">
        <ele>1024.0</ele>
        <time>2020-11-16T15:12:42Z</time>
      </trkpt>
      <trkpt lat="28.7986430" lon="-17.8546930">
        <ele>1023.1</ele>
        <time>2020-11-16T15:12:43Z</time>
      </trkpt>
      <trkpt lat="28.7986430" lon="-17.8546930">
        <ele>1023.1</ele>
        <time>2020-11-16T15:12:44Z</time>
      </trkpt>
      <trkpt lat="28.7985700" lon="-17.8548380">
        <ele>1022.0</ele>
        <time>2020-11-16T15:12:45Z</time>
      </trkpt>
      <trkpt lat="28.7985230" lon="-17.8549250">
        <ele>1021.3</ele>
        <time>2020-11-16T15:12:46Z</time>
      </trkpt>
      <trkpt lat="28.7985230" lon="-17.8549250">
        <ele>1021.3</ele>
        <time>2020-11-16T15:12:47Z</time>
      </trkpt>
      <trkpt lat="28.7984570" lon="-17.8550870">
        <ele>1020.1</ele>
        <time>2020-11-16T15:12:48Z</time>
      </trkpt>
      <trkpt lat="28.7984570" lon="-17.8550870">
        <ele>1020.1</ele>
        <time>2020-11-16T15:12:49Z</time>
      </trkpt>
      <trkpt lat="28.7984730" lon="-17.8552300">
        <ele>1019.4</ele>
        <time>2020-11-16T15:12:50Z</time>
      </trkpt>
      <trkpt lat="28.7984730" lon="-17.8552300">
        <ele>1019.4</ele>
        <time>2020-11-16T15:12:51Z</time>
      </trkpt>
      <trkpt lat="28.7985000" lon="-17.8553750">
        <ele>1018.8</ele>
        <time>2020-11-16T15:12:52Z</time>
      </trkpt>
      <trkpt lat="28.7985000" lon="-17.8553750">
        <ele>1018.8</ele>
        <time>2020-11-16T15:12:53Z</time>
      </trkpt>
      <trkpt lat="28.7985350" lon="-17.8555170">
        <ele>1018.3</ele>
        <time>2020-11-16T15:12:54Z</time>
      </trkpt>
      <trkpt lat="28.7985480" lon="-17.8555780">
        <ele>1018.1</ele>
        <time>2020-11-16T15:12:55Z</time>
      </trkpt>
      <trkpt lat="28.7985480" lon="-17.8555780">
        <ele>1018.1</ele>
        <time>2020-11-16T15:12:56Z</time>
      </trkpt>
      <trkpt lat="28.7985850" lon="-17.8557150">
        <ele>1017.7</ele>
        <time>2020-11-16T15:12:57Z</time>
      </trkpt>
      <trkpt lat="28.7985850" lon="-17.8557150">
        <ele>1017.7</ele>
        <time>2020-11-16T15:12:58Z</time>
      </trkpt>
      <trkpt lat="28.7986430" lon="-17.8558630">
        <ele>1017.3</ele>
        <time>2020-11-16T15:12:59Z</time>
      </trkpt>
      <trkpt lat="28.7986430" lon="-17.8558630">
        <ele>1017.3</ele>
        <time>2020-11-16T15:13:00Z</time>
      </trkpt>
      <trkpt lat="28.7986870" lon="-17.8560270">
        <ele>1016.8</ele>
        <time>2020-11-16T15:13:01Z</time>
      </trkpt>
      <trkpt lat="28.7987320" lon="-17.8561050">
        <ele>1016.4</ele>
        <time>2020-11-16T15:13:02Z</time>
      </trkpt>
      <trkpt lat="28.7987320" lon="-17.8561050">
        <ele>1016.4</ele>
        <time>2020-11-16T15:13:03Z</time>
      </trkpt>
      <trkpt lat="28.7986980" lon="-17.8562720">
        <ele>1015.7</ele>
        <time>2020-11-16T15:13:04Z</time>
      </trkpt>
      <trkpt lat="28.7986980" lon="-17.8562720">
        <ele>1015.7</ele>
        <time>2020-11-16T15:13:05Z</time>
      </trkpt>
      <trkpt lat="28.7986180" lon="-17.8564130">
        <ele>1014.8</ele>
        <time>2020-11-16T15:13:06Z</time>
      </trkpt>
      <trkpt lat="28.7986180" lon="-17.8564130">
        <ele>1014.8</ele>
        <time>2020-11-16T15:13:07Z</time>
      </trkpt>
      <trkpt lat="28.7985100" lon="-17.8565000">
        <ele>1014.1</ele>
        <time>2020-11-16T15:13:08Z</time>
      </trkpt>
      <trkpt lat="28.7985100" lon="-17.8565000">
        <ele>1014.1</ele>
        <time>2020-11-16T15:13:09Z</time>
      </trkpt>
      <trkpt lat="28.7983870" lon="-17.8564820">
        <ele>1013.6</ele>
        <time>2020-11-16T15:13:10Z</time>
      </trkpt>
      <trkpt lat="28.7983870" lon="-17.8564820">
        <ele>1013.6</ele>
        <time>2020-11-16T15:13:11Z</time>
      </trkpt>
      <trkpt lat="28.7983020" lon="-17.8564050">
        <ele>1013.3</ele>
        <time>2020-11-16T15:13:12Z</time>
      </trkpt>
      <trkpt lat="28.7983020" lon="-17.8564050">
        <ele>1013.3</ele>
        <time>2020-11-16T15:13:13Z</time>
      </trkpt>
      <trkpt lat="28.7982470" lon="-17.8563250">
        <ele>1013.1</ele>
        <time>2020-11-16T15:13:14Z</time>
      </trkpt>
      <trkpt lat="28.7982470" lon="-17.8563250">
        <ele>1013.1</ele>
        <time>2020-11-16T15:13:15Z</time>
      </trkpt>
      <trkpt lat="28.7981970" lon="-17.8562380">
        <ele>1013.1</ele>
        <time>2020-11-16T15:13:16Z</time>
      </trkpt>
      <trkpt lat="28.7981670" lon="-17.8562070">
        <ele>1013.2</ele>
        <time>2020-11-16T15:13:17Z</time>
      </trkpt>
      <trkpt lat="28.7981670" lon="-17.8562070">
        <ele>1013.2</ele>
        <time>2020-11-16T15:13:18Z</time>
      </trkpt>
      <trkpt lat="28.7981000" lon="-17.8561430">
        <ele>1013.4</ele>
        <time>2020-11-16T15:13:19Z</time>
      </trkpt>
      <trkpt lat="28.7980700" lon="-17.8561130">
        <ele>1013.5</ele>
        <time>2020-11-16T15:13:20Z</time>
      </trkpt>
      <trkpt lat="28.7980700" lon="-17.8561130">
        <ele>1013.5</ele>
        <time>2020-11-16T15:13:21Z</time>
      </trkpt>
      <trkpt lat="28.7979880" lon="-17.8560570">
        <ele>1013.8</ele>
        <time>2020-11-16T15:13:22Z</time>
      </trkpt>
      <trkpt lat="28.7979400" lon="-17.8560320">
        <ele>1014.0</ele>
        <time>2020-11-16T15:13:23Z</time>
      </trkpt>
      <trkpt lat="28.7978970" lon="-17.8560070">
        <ele>1014.2</ele>
        <time>2020-11-16T15:13:24Z</time>
      </trkpt>
      <trkpt lat="28.7978970" lon="-17.8560070">
        <ele>1014.2</ele>
        <time>2020-11-16T15:13:25Z</time>
      </trkpt>
      <trkpt lat="28.7978250" lon="-17.8559500">
        <ele>1014.4</ele>
        <time>2020-11-16T15:13:26Z</time>
      </trkpt>
      <trkpt lat="28.7978250" lon="-17.8559500">
        <ele>1014.4</ele>
        <time>2020-11-16T15:13:27Z</time>
      </trkpt>
      <trkpt lat="28.7977680" lon="-17.8558780">
        <ele>1014.7</ele>
        <time>2020-11-16T15:13:28Z</time>
      </trkpt>
      <trkpt lat="28.7977680" lon="-17.8558780">
        <ele>1014.7</ele>
        <time>2020-11-16T15:13:29Z</time>
      </trkpt>
      <trkpt lat="28.7977080" lon="-17.8558180">
        <ele>1014.9</ele>
        <time>2020-11-16T15:13:30Z</time>
      </trkpt>
      <trkpt lat="28.7977080" lon="-17.8558180">
        <ele>1014.9</ele>
        <time>2020-11-16T15:13:31Z</time>
      </trkpt>
      <trkpt lat="28.7976370" lon="-17.8557570">
        <ele>1015.2</ele>
        <time>2020-11-16T15:13:32Z</time>
      </trkpt>
      <trkpt lat="28.7976370" lon="-17.8557570">
        <ele>1015.2</ele>
        <time>2020-11-16T15:13:33Z</time>
      </trkpt>
      <trkpt lat="28.7975550" lon="-17.8556980">
        <ele>1015.5</ele>
        <time>2020-11-16T15:13:34Z</time>
      </trkpt>
      <trkpt lat="28.7975550" lon="-17.8556980">
        <ele>1015.5</ele>
        <time>2020-11-16T15:13:35Z</time>
      </trkpt>
      <trkpt lat="28.7974680" lon="-17.8556470">
        <ele>1015.7</ele>
        <time>2020-11-16T15:13:36Z</time>
      </trkpt>
      <trkpt lat="28.7974680" lon="-17.8556470">
        <ele>1015.7</ele>
        <time>2020-11-16T15:13:37Z</time>
      </trkpt>
      <trkpt lat="28.7973730" lon="-17.8556000">
        <ele>1015.8</ele>
        <time>2020-11-16T15:13:38Z</time>
      </trkpt>
      <trkpt lat="28.7973730" lon="-17.8556000">
        <ele>1015.8</ele>
        <time>2020-11-16T15:13:39Z</time>
      </trkpt>
      <trkpt lat="28.7972930" lon="-17.8555620">
        <ele>1015.8</ele>
        <time>2020-11-16T15:13:40Z</time>
      </trkpt>
      <trkpt lat="28.7972570" lon="-17.8555470">
        <ele>1015.9</ele>
        <time>2020-11-16T15:13:41Z</time>
      </trkpt>
      <trkpt lat="28.7972570" lon="-17.8555470">
        <ele>1015.9</ele>
        <time>2020-11-16T15:13:42Z</time>
      </trkpt>
      <trkpt lat="28.7971670" lon="-17.8555180">
        <ele>1016.1</ele>
        <time>2020-11-16T15:13:43Z</time>
      </trkpt>
      <trkpt lat="28.7971280" lon="-17.8554980">
        <ele>1016.2</ele>
        <time>2020-11-16T15:13:44Z</time>
      </trkpt>
      <trkpt lat="28.7971280" lon="-17.8554980">
        <ele>1016.2</ele>
        <time>2020-11-16T15:13:45Z</time>
      </trkpt>
      <trkpt lat="28.7970570" lon="-17.8554720">
        <ele>1016.5</ele>
        <time>2020-11-16T15:13:46Z</time>
      </trkpt>
      <trkpt lat="28.7970570" lon="-17.8554720">
        <ele>1016.5</ele>
        <time>2020-11-16T15:13:47Z</time>
      </trkpt>
      <trkpt lat="28.7969950" lon="-17.8554500">
        <ele>1016.7</ele>
        <time>2020-11-16T15:13:48Z</time>
      </trkpt>
      <trkpt lat="28.7969950" lon="-17.8554500">
        <ele>1016.7</ele>
        <time>2020-11-16T15:13:49Z</time>
      </trkpt>
      <trkpt lat="28.7969450" lon="-17.8554420">
        <ele>1017.0</ele>
        <time>2020-11-16T15:13:50Z</time>
      </trkpt>
      <trkpt lat="28.7969450" lon="-17.8554420">
        <ele>1017.0</ele>
        <time>2020-11-16T15:13:51Z</time>
      </trkpt>
      <trkpt lat="28.7968850" lon="-17.8554400">
        <ele>1017.3</ele>
        <time>2020-11-16T15:13:52Z</time>
      </trkpt>
      <trkpt lat="28.7968850" lon="-17.8554400">
        <ele>1017.3</ele>
        <time>2020-11-16T15:13:53Z</time>
      </trkpt>
      <trkpt lat="28.7968370" lon="-17.8554380">
        <ele>1017.6</ele>
        <time>2020-11-16T15:13:54Z</time>
      </trkpt>
      <trkpt lat="28.7968370" lon="-17.8554380">
        <ele>1017.6</ele>
        <time>2020-11-16T15:13:55Z</time>
      </trkpt>
      <trkpt lat="28.7967830" lon="-17.8554400">
        <ele>1017.9</ele>
        <time>2020-11-16T15:13:56Z</time>
      </trkpt>
      <trkpt lat="28.7967830" lon="-17.8554400">
        <ele>1017.9</ele>
        <time>2020-11-16T15:13:57Z</time>
      </trkpt>
      <trkpt lat="28.7967150" lon="-17.8554580">
        <ele>1018.4</ele>
        <time>2020-11-16T15:13:58Z</time>
      </trkpt>
      <trkpt lat="28.7967150" lon="-17.8554580">
        <ele>1018.4</ele>
        <time>2020-11-16T15:13:59Z</time>
      </trkpt>
      <trkpt lat="28.7966600" lon="-17.8554580">
        <ele>1018.8</ele>
        <time>2020-11-16T15:14:00Z</time>
      </trkpt>
      <trkpt lat="28.7966600" lon="-17.8554580">
        <ele>1018.8</ele>
        <time>2020-11-16T15:14:01Z</time>
      </trkpt>
      <trkpt lat="28.7966080" lon="-17.8554670">
        <ele>1019.3</ele>
        <time>2020-11-16T15:14:02Z</time>
      </trkpt>
      <trkpt lat="28.7966080" lon="-17.8554670">
        <ele>1019.3</ele>
        <time>2020-11-16T15:14:03Z</time>
      </trkpt>
      <trkpt lat="28.7965670" lon="-17.8554820">
        <ele>1019.7</ele>
        <time>2020-11-16T15:14:04Z</time>
      </trkpt>
      <trkpt lat="28.7965670" lon="-17.8554820">
        <ele>1019.7</ele>
        <time>2020-11-16T15:14:05Z</time>
      </trkpt>
      <trkpt lat="28.7965480" lon="-17.8555000">
        <ele>1019.9</ele>
        <time>2020-11-16T15:14:06Z</time>
      </trkpt>
      <trkpt lat="28.7965480" lon="-17.8555000">
        <ele>1019.9</ele>
        <time>2020-11-16T15:14:07Z</time>
      </trkpt>
      <trkpt lat="28.7965170" lon="-17.8555400">
        <ele>1020.4</ele>
        <time>2020-11-16T15:14:08Z</time>
      </trkpt>
      <trkpt lat="28.7965170" lon="-17.8555400">
        <ele>1020.4</ele>
        <time>2020-11-16T15:14:09Z</time>
      </trkpt>
      <trkpt lat="28.7964850" lon="-17.8555700">
        <ele>1020.8</ele>
        <time>2020-11-16T15:14:10Z</time>
      </trkpt>
      <trkpt lat="28.7964850" lon="-17.8555700">
        <ele>1020.8</ele>
        <time>2020-11-16T15:14:11Z</time>
      </trkpt>
      <trkpt lat="28.7964620" lon="-17.8556070">
        <ele>1021.2</ele>
        <time>2020-11-16T15:14:12Z</time>
      </trkpt>
      <trkpt lat="28.7964620" lon="-17.8556070">
        <ele>1021.2</ele>
        <time>2020-11-16T15:14:13Z</time>
      </trkpt>
      <trkpt lat="28.7964400" lon="-17.8556300">
        <ele>1021.5</ele>
        <time>2020-11-16T15:14:14Z</time>
      </trkpt>
      <trkpt lat="28.7964400" lon="-17.8556300">
        <ele>1021.5</ele>
        <time>2020-11-16T15:14:15Z</time>
      </trkpt>
      <trkpt lat="28.7964150" lon="-17.8556650">
        <ele>1021.9</ele>
        <time>2020-11-16T15:14:16Z</time>
      </trkpt>
      <trkpt lat="28.7964150" lon="-17.8556650">
        <ele>1021.9</ele>
        <time>2020-11-16T15:14:17Z</time>
      </trkpt>
      <trkpt lat="28.7963900" lon="-17.8556970">
        <ele>1022.3</ele>
        <time>2020-11-16T15:14:18Z</time>
      </trkpt>
      <trkpt lat="28.7963900" lon="-17.8556970">
        <ele>1022.3</ele>
        <time>2020-11-16T15:14:19Z</time>
      </trkpt>
      <trkpt lat="28.7963600" lon="-17.8557250">
        <ele>1022.6</ele>
        <time>2020-11-16T15:14:20Z</time>
      </trkpt>
      <trkpt lat="28.7963600" lon="-17.8557250">
        <ele>1022.6</ele>
        <time>2020-11-16T15:14:21Z</time>
      </trkpt>
      <trkpt lat="28.7963280" lon="-17.8557520">
        <ele>1023.0</ele>
        <time>2020-11-16T15:14:22Z</time>
      </trkpt>
      <trkpt lat="28.7963280" lon="-17.8557520">
        <ele>1023.0</ele>
        <time>2020-11-16T15:14:23Z</time>
      </trkpt>
      <trkpt lat="28.7962980" lon="-17.8557650">
        <ele>1023.3</ele>
        <time>2020-11-16T15:14:24Z</time>
      </trkpt>
      <trkpt lat="28.7962980" lon="-17.8557650">
        <ele>1023.3</ele>
        <time>2020-11-16T15:14:25Z</time>
      </trkpt>
      <trkpt lat="28.7962680" lon="-17.8557680">
        <ele>1023.6</ele>
        <time>2020-11-16T15:14:26Z</time>
      </trkpt>
      <trkpt lat="28.7962680" lon="-17.8557680">
        <ele>1023.6</ele>
        <time>2020-11-16T15:14:27Z</time>
      </trkpt>
      <trkpt lat="28.7962400" lon="-17.8557830">
        <ele>1023.8</ele>
        <time>2020-11-16T15:14:28Z</time>
      </trkpt>
      <trkpt lat="28.7962400" lon="-17.8557830">
        <ele>1023.8</ele>
        <time>2020-11-16T15:14:29Z</time>
      </trkpt>
      <trkpt lat="28.7962080" lon="-17.8558050">
        <ele>1024.2</ele>
        <time>2020-11-16T15:14:30Z</time>
      </trkpt>
      <trkpt lat="28.7962080" lon="-17.8558050">
        <ele>1024.2</ele>
        <time>2020-11-16T15:14:31Z</time>
      </trkpt>
      <trkpt lat="28.7961700" lon="-17.8558270">
        <ele>1024.6</ele>
        <time>2020-11-16T15:14:32Z</time>
      </trkpt>
      <trkpt lat="28.7961700" lon="-17.8558270">
        <ele>1024.6</ele>
        <time>2020-11-16T15:14:33Z</time>
      </trkpt>
      <trkpt lat="28.7961400" lon="-17.8558550">
        <ele>1024.9</ele>
        <time>2020-11-16T15:14:34Z</time>
      </trkpt>
      <trkpt lat="28.7961320" lon="-17.8558630">
        <ele>1025.0</ele>
        <time>2020-11-16T15:14:35Z</time>
      </trkpt>
      <trkpt lat="28.7961180" lon="-17.8558780">
        <ele>1025.2</ele>
        <time>2020-11-16T15:14:36Z</time>
      </trkpt>
      <trkpt lat="28.7961180" lon="-17.8558780">
        <ele>1025.2</ele>
        <time>2020-11-16T15:14:37Z</time>
      </trkpt>
      <trkpt lat="28.7960970" lon="-17.8559100">
        <ele>1025.5</ele>
        <time>2020-11-16T15:14:38Z</time>
      </trkpt>
      <trkpt lat="28.7960970" lon="-17.8559100">
        <ele>1025.5</ele>
        <time>2020-11-16T15:14:39Z</time>
      </trkpt>
      <trkpt lat="28.7960820" lon="-17.8559300">
        <ele>1025.7</ele>
        <time>2020-11-16T15:14:40Z</time>
      </trkpt>
      <trkpt lat="28.7960820" lon="-17.8559300">
        <ele>1025.7</ele>
        <time>2020-11-16T15:14:41Z</time>
      </trkpt>
      <trkpt lat="28.7960650" lon="-17.8559530">
        <ele>1025.9</ele>
        <time>2020-11-16T15:14:42Z</time>
      </trkpt>
      <trkpt lat="28.7960650" lon="-17.8559530">
        <ele>1025.9</ele>
        <time>2020-11-16T15:14:43Z</time>
      </trkpt>
      <trkpt lat="28.7960450" lon="-17.8559880">
        <ele>1026.2</ele>
        <time>2020-11-16T15:14:44Z</time>
      </trkpt>
      <trkpt lat="28.7960450" lon="-17.8559880">
        <ele>1026.2</ele>
        <time>2020-11-16T15:14:45Z</time>
      </trkpt>
      <trkpt lat="28.7960320" lon="-17.8560380">
        <ele>1026.6</ele>
        <time>2020-11-16T15:14:46Z</time>
      </trkpt>
      <trkpt lat="28.7960320" lon="-17.8560380">
        <ele>1026.6</ele>
        <time>2020-11-16T15:14:47Z</time>
      </trkpt>
      <trkpt lat="28.7960130" lon="-17.8560830">
        <ele>1026.9</ele>
        <time>2020-11-16T15:14:48Z</time>
      </trkpt>
      <trkpt lat="28.7960130" lon="-17.8560830">
        <ele>1026.9</ele>
        <time>2020-11-16T15:14:49Z</time>
      </trkpt>
      <trkpt lat="28.7960050" lon="-17.8561250">
        <ele>1027.2</ele>
        <time>2020-11-16T15:14:50Z</time>
      </trkpt>
      <trkpt lat="28.7960050" lon="-17.8561250">
        <ele>1027.2</ele>
        <time>2020-11-16T15:14:51Z</time>
      </trkpt>
      <trkpt lat="28.7959830" lon="-17.8561800">
        <ele>1027.6</ele>
        <time>2020-11-16T15:14:52Z</time>
      </trkpt>
      <trkpt lat="28.7959830" lon="-17.8561800">
        <ele>1027.6</ele>
        <time>2020-11-16T15:14:53Z</time>
      </trkpt>
      <trkpt lat="28.7959750" lon="-17.8562350">
        <ele>1027.9</ele>
        <time>2020-11-16T15:14:54Z</time>
      </trkpt>
      <trkpt lat="28.7959750" lon="-17.8562350">
        <ele>1027.9</ele>
        <time>2020-11-16T15:14:55Z</time>
      </trkpt>
      <trkpt lat="28.7959570" lon="-17.8562900">
        <ele>1028.1</ele>
        <time>2020-11-16T15:14:56Z</time>
      </trkpt>
      <trkpt lat="28.7959570" lon="-17.8562900">
        <ele>1028.1</ele>
        <time>2020-11-16T15:14:57Z</time>
      </trkpt>
      <trkpt lat="28.7959720" lon="-17.8563820">
        <ele>1028.3</ele>
        <time>2020-11-16T15:14:58Z</time>
      </trkpt>
      <trkpt lat="28.7959720" lon="-17.8563820">
        <ele>1028.3</ele>
        <time>2020-11-16T15:14:59Z</time>
      </trkpt>
      <trkpt lat="28.7960050" lon="-17.8565000">
        <ele>1028.2</ele>
        <time>2020-11-16T15:15:00Z</time>
      </trkpt>
      <trkpt lat="28.7960000" lon="-17.8565480">
        <ele>1028.2</ele>
        <time>2020-11-16T15:15:01Z</time>
      </trkpt>
      <trkpt lat="28.7959820" lon="-17.8565880">
        <ele>1028.2</ele>
        <time>2020-11-16T15:15:02Z</time>
      </trkpt>
      <trkpt lat="28.7959820" lon="-17.8565880">
        <ele>1028.2</ele>
        <time>2020-11-16T15:15:03Z</time>
      </trkpt>
      <trkpt lat="28.7959520" lon="-17.8566650">
        <ele>1028.1</ele>
        <time>2020-11-16T15:15:04Z</time>
      </trkpt>
      <trkpt lat="28.7959480" lon="-17.8566970">
        <ele>1028.1</ele>
        <time>2020-11-16T15:15:05Z</time>
      </trkpt>
      <trkpt lat="28.7959480" lon="-17.8566970">
        <ele>1028.1</ele>
        <time>2020-11-16T15:15:06Z</time>
      </trkpt>
      <trkpt lat="28.7959580" lon="-17.8567650">
        <ele>1028.2</ele>
        <time>2020-11-16T15:15:07Z</time>
      </trkpt>
      <trkpt lat="28.7959720" lon="-17.8568130">
        <ele>1028.2</ele>
        <time>2020-11-16T15:15:08Z</time>
      </trkpt>
      <trkpt lat="28.7959720" lon="-17.8568130">
        <ele>1028.2</ele>
        <time>2020-11-16T15:15:09Z</time>
      </trkpt>
      <trkpt lat="28.7959630" lon="-17.8568950">
        <ele>1028.3</ele>
        <time>2020-11-16T15:15:10Z</time>
      </trkpt>
      <trkpt lat="28.7959630" lon="-17.8568950">
        <ele>1028.3</ele>
        <time>2020-11-16T15:15:11Z</time>
      </trkpt>
      <trkpt lat="28.7959770" lon="-17.8569770">
        <ele>1028.4</ele>
        <time>2020-11-16T15:15:12Z</time>
      </trkpt>
      <trkpt lat="28.7959770" lon="-17.8569770">
        <ele>1028.4</ele>
        <time>2020-11-16T15:15:13Z</time>
      </trkpt>
      <trkpt lat="28.7959750" lon="-17.8570450">
        <ele>1028.6</ele>
        <time>2020-11-16T15:15:14Z</time>
      </trkpt>
      <trkpt lat="28.7959750" lon="-17.8570450">
        <ele>1028.6</ele>
        <time>2020-11-16T15:15:15Z</time>
      </trkpt>
      <trkpt lat="28.7959550" lon="-17.8571280">
        <ele>1028.9</ele>
        <time>2020-11-16T15:15:16Z</time>
      </trkpt>
      <trkpt lat="28.7959550" lon="-17.8571280">
        <ele>1028.9</ele>
        <time>2020-11-16T15:15:17Z</time>
      </trkpt>
      <trkpt lat="28.7959550" lon="-17.8572030">
        <ele>1029.3</ele>
        <time>2020-11-16T15:15:18Z</time>
      </trkpt>
      <trkpt lat="28.7959550" lon="-17.8572030">
        <ele>1029.3</ele>
        <time>2020-11-16T15:15:19Z</time>
      </trkpt>
      <trkpt lat="28.7959230" lon="-17.8573250">
        <ele>1029.8</ele>
        <time>2020-11-16T15:15:20Z</time>
      </trkpt>
      <trkpt lat="28.7959230" lon="-17.8573250">
        <ele>1029.8</ele>
        <time>2020-11-16T15:15:21Z</time>
      </trkpt>
      <trkpt lat="28.7959020" lon="-17.8573870">
        <ele>1029.9</ele>
        <time>2020-11-16T15:15:22Z</time>
      </trkpt>
      <trkpt lat="28.7959020" lon="-17.8573870">
        <ele>1029.9</ele>
        <time>2020-11-16T15:15:23Z</time>
      </trkpt>
      <trkpt lat="28.7958880" lon="-17.8574100">
        <ele>1029.9</ele>
        <time>2020-11-16T15:15:24Z</time>
      </trkpt>
      <trkpt lat="28.7958880" lon="-17.8574100">
        <ele>1029.9</ele>
        <time>2020-11-16T15:15:25Z</time>
      </trkpt>
      <trkpt lat="28.7958450" lon="-17.8574020">
        <ele>1029.9</ele>
        <time>2020-11-16T15:15:26Z</time>
      </trkpt>
      <trkpt lat="28.7958450" lon="-17.8574020">
        <ele>1029.9</ele>
        <time>2020-11-16T15:15:27Z</time>
      </trkpt>
      <trkpt lat="28.7958220" lon="-17.8573900">
        <ele>1029.9</ele>
        <time>2020-11-16T15:15:28Z</time>
      </trkpt>
      <trkpt lat="28.7958220" lon="-17.8573900">
        <ele>1029.9</ele>
        <time>2020-11-16T15:15:29Z</time>
      </trkpt>
      <trkpt lat="28.7958020" lon="-17.8573830">
        <ele>1029.9</ele>
        <time>2020-11-16T15:15:30Z</time>
      </trkpt>
      <trkpt lat="28.7958020" lon="-17.8573830">
        <ele>1029.9</ele>
        <time>2020-11-16T15:15:31Z</time>
      </trkpt>
      <trkpt lat="28.7957920" lon="-17.8573730">
        <ele>1029.9</ele>
        <time>2020-11-16T15:15:32Z</time>
      </trkpt>
      <trkpt lat="28.7957920" lon="-17.8573730">
        <ele>1029.9</ele>
        <time>2020-11-16T15:15:33Z</time>
      </trkpt>
      <trkpt lat="28.7957920" lon="-17.8573670">
        <ele>1029.9</ele>
        <time>2020-11-16T15:15:34Z</time>
      </trkpt>
      <trkpt lat="28.7957920" lon="-17.8573670">
        <ele>1029.9</ele>
        <time>2020-11-16T15:16:06Z</time>
      </trkpt>
      <trkpt lat="28.7957920" lon="-17.8573670">
        <ele>1029.9</ele>
        <time>2020-11-16T15:16:07Z</time>
      </trkpt>
      <trkpt lat="28.7957430" lon="-17.8574070">
        <ele>1030.0</ele>
        <time>2020-11-16T15:16:08Z</time>
      </trkpt>
      <trkpt lat="28.7957430" lon="-17.8574070">
        <ele>1030.0</ele>
        <time>2020-11-16T15:16:09Z</time>
      </trkpt>
      <trkpt lat="28.7957770" lon="-17.8574200">
        <ele>1030.0</ele>
        <time>2020-11-16T15:16:10Z</time>
      </trkpt>
      <trkpt lat="28.7957970" lon="-17.8574280">
        <ele>1030.0</ele>
        <time>2020-11-16T15:16:11Z</time>
      </trkpt>
      <trkpt lat="28.7957970" lon="-17.8574280">
        <ele>1030.0</ele>
        <time>2020-11-16T15:16:12Z</time>
      </trkpt>
      <trkpt lat="28.7958480" lon="-17.8574550">
        <ele>1031.1</ele>
        <time>2020-11-16T15:16:13Z</time>
      </trkpt>
      <trkpt lat="28.7958630" lon="-17.8574700">
        <ele>1031.8</ele>
        <time>2020-11-16T15:16:14Z</time>
      </trkpt>
      <trkpt lat="28.7958630" lon="-17.8574700">
        <ele>1031.8</ele>
        <time>2020-11-16T15:16:15Z</time>
      </trkpt>
      <trkpt lat="28.7958820" lon="-17.8575170">
        <ele>1033.5</ele>
        <time>2020-11-16T15:16:16Z</time>
      </trkpt>
      <trkpt lat="28.7958820" lon="-17.8575170">
        <ele>1033.5</ele>
        <time>2020-11-16T15:16:17Z</time>
      </trkpt>
      <trkpt lat="28.7959000" lon="-17.8575420">
        <ele>1034.6</ele>
        <time>2020-11-16T15:16:18Z</time>
      </trkpt>
      <trkpt lat="28.7959000" lon="-17.8575420">
        <ele>1034.6</ele>
        <time>2020-11-16T15:16:19Z</time>
      </trkpt>
      <trkpt lat="28.7959220" lon="-17.8575700">
        <ele>1035.8</ele>
        <time>2020-11-16T15:16:20Z</time>
      </trkpt>
      <trkpt lat="28.7959220" lon="-17.8575700">
        <ele>1035.8</ele>
        <time>2020-11-16T15:16:21Z</time>
      </trkpt>
      <trkpt lat="28.7959380" lon="-17.8576050">
        <ele>1037.1</ele>
        <time>2020-11-16T15:16:22Z</time>
      </trkpt>
      <trkpt lat="28.7959380" lon="-17.8576050">
        <ele>1037.1</ele>
        <time>2020-11-16T15:16:23Z</time>
      </trkpt>
      <trkpt lat="28.7959480" lon="-17.8576450">
        <ele>1038.5</ele>
        <time>2020-11-16T15:16:24Z</time>
      </trkpt>
      <trkpt lat="28.7959480" lon="-17.8576450">
        <ele>1038.5</ele>
        <time>2020-11-16T15:16:25Z</time>
      </trkpt>
      <trkpt lat="28.7959630" lon="-17.8576780">
        <ele>1039.7</ele>
        <time>2020-11-16T15:16:26Z</time>
      </trkpt>
      <trkpt lat="28.7959630" lon="-17.8576780">
        <ele>1039.7</ele>
        <time>2020-11-16T15:16:27Z</time>
      </trkpt>
      <trkpt lat="28.7959750" lon="-17.8577120">
        <ele>1041.0</ele>
        <time>2020-11-16T15:16:28Z</time>
      </trkpt>
      <trkpt lat="28.7959750" lon="-17.8577120">
        <ele>1041.0</ele>
        <time>2020-11-16T15:16:29Z</time>
      </trkpt>
      <trkpt lat="28.7959900" lon="-17.8577500">
        <ele>1042.4</ele>
        <time>2020-11-16T15:16:30Z</time>
      </trkpt>
      <trkpt lat="28.7959900" lon="-17.8577500">
        <ele>1042.4</ele>
        <time>2020-11-16T15:16:31Z</time>
      </trkpt>
      <trkpt lat="28.7960000" lon="-17.8577850">
        <ele>1043.6</ele>
        <time>2020-11-16T15:16:32Z</time>
      </trkpt>
      <trkpt lat="28.7960000" lon="-17.8577850">
        <ele>1043.6</ele>
        <time>2020-11-16T15:16:33Z</time>
      </trkpt>
      <trkpt lat="28.7959970" lon="-17.8578150">
        <ele>1044.6</ele>
        <time>2020-11-16T15:16:34Z</time>
      </trkpt>
      <trkpt lat="28.7959950" lon="-17.8578280">
        <ele>1045.0</ele>
        <time>2020-11-16T15:16:35Z</time>
      </trkpt>
      <trkpt lat="28.7959950" lon="-17.8578280">
        <ele>1045.0</ele>
        <time>2020-11-16T15:16:36Z</time>
      </trkpt>
      <trkpt lat="28.7959880" lon="-17.8578600">
        <ele>1046.1</ele>
        <time>2020-11-16T15:16:37Z</time>
      </trkpt>
      <trkpt lat="28.7959880" lon="-17.8578600">
        <ele>1046.1</ele>
        <time>2020-11-16T15:16:38Z</time>
      </trkpt>
      <trkpt lat="28.7959570" lon="-17.8578680">
        <ele>1047.3</ele>
        <time>2020-11-16T15:16:39Z</time>
      </trkpt>
      <trkpt lat="28.7959570" lon="-17.8578680">
        <ele>1047.3</ele>
        <time>2020-11-16T15:16:40Z</time>
      </trkpt>
      <trkpt lat="28.7959180" lon="-17.8578770">
        <ele>1048.8</ele>
        <time>2020-11-16T15:16:41Z</time>
      </trkpt>
      <trkpt lat="28.7959020" lon="-17.8578870">
        <ele>1049.5</ele>
        <time>2020-11-16T15:16:42Z</time>
      </trkpt>
      <trkpt lat="28.7959020" lon="-17.8578870">
        <ele>1049.5</ele>
        <time>2020-11-16T15:16:43Z</time>
      </trkpt>
      <trkpt lat="28.7958700" lon="-17.8578950">
        <ele>1050.8</ele>
        <time>2020-11-16T15:16:44Z</time>
      </trkpt>
      <trkpt lat="28.7958700" lon="-17.8578950">
        <ele>1050.8</ele>
        <time>2020-11-16T15:16:45Z</time>
      </trkpt>
      <trkpt lat="28.7958330" lon="-17.8578950">
        <ele>1052.2</ele>
        <time>2020-11-16T15:16:46Z</time>
      </trkpt>
      <trkpt lat="28.7958330" lon="-17.8578950">
        <ele>1052.2</ele>
        <time>2020-11-16T15:16:47Z</time>
      </trkpt>
      <trkpt lat="28.7958080" lon="-17.8579030">
        <ele>1053.1</ele>
        <time>2020-11-16T15:16:48Z</time>
      </trkpt>
      <trkpt lat="28.7958080" lon="-17.8579030">
        <ele>1053.1</ele>
        <time>2020-11-16T15:16:49Z</time>
      </trkpt>
      <trkpt lat="28.7957880" lon="-17.8579030">
        <ele>1053.9</ele>
        <time>2020-11-16T15:16:50Z</time>
      </trkpt>
      <trkpt lat="28.7957880" lon="-17.8579030">
        <ele>1053.9</ele>
        <time>2020-11-16T15:16:51Z</time>
      </trkpt>
      <trkpt lat="28.7957630" lon="-17.8579080">
        <ele>1054.8</ele>
        <time>2020-11-16T15:16:52Z</time>
      </trkpt>
      <trkpt lat="28.7957630" lon="-17.8579080">
        <ele>1054.8</ele>
        <time>2020-11-16T15:16:53Z</time>
      </trkpt>
      <trkpt lat="28.7957530" lon="-17.8579130">
        <ele>1055.2</ele>
        <time>2020-11-16T15:16:54Z</time>
      </trkpt>
      <trkpt lat="28.7957530" lon="-17.8579130">
        <ele>1055.2</ele>
        <time>2020-11-16T15:16:55Z</time>
      </trkpt>
      <trkpt lat="28.7957300" lon="-17.8579300">
        <ele>1056.2</ele>
        <time>2020-11-16T15:16:56Z</time>
      </trkpt>
      <trkpt lat="28.7957200" lon="-17.8579320">
        <ele>1056.6</ele>
        <time>2020-11-16T15:16:57Z</time>
      </trkpt>
      <trkpt lat="28.7957200" lon="-17.8579320">
        <ele>1056.6</ele>
        <time>2020-11-16T15:16:58Z</time>
      </trkpt>
      <trkpt lat="28.7956920" lon="-17.8579330">
        <ele>1057.6</ele>
        <time>2020-11-16T15:16:59Z</time>
      </trkpt>
      <trkpt lat="28.7956820" lon="-17.8579350">
        <ele>1057.9</ele>
        <time>2020-11-16T15:17:00Z</time>
      </trkpt>
      <trkpt lat="28.7956820" lon="-17.8579350">
        <ele>1057.9</ele>
        <time>2020-11-16T15:17:01Z</time>
      </trkpt>
      <trkpt lat="28.7956520" lon="-17.8579430">
        <ele>1059.0</ele>
        <time>2020-11-16T15:17:02Z</time>
      </trkpt>
      <trkpt lat="28.7956520" lon="-17.8579430">
        <ele>1059.0</ele>
        <time>2020-11-16T15:17:03Z</time>
      </trkpt>
      <trkpt lat="28.7956250" lon="-17.8579500">
        <ele>1060.0</ele>
        <time>2020-11-16T15:17:04Z</time>
      </trkpt>
      <trkpt lat="28.7956250" lon="-17.8579500">
        <ele>1060.0</ele>
        <time>2020-11-16T15:17:05Z</time>
      </trkpt>
      <trkpt lat="28.7956020" lon="-17.8579500">
        <ele>1060.8</ele>
        <time>2020-11-16T15:17:06Z</time>
      </trkpt>
      <trkpt lat="28.7955930" lon="-17.8579480">
        <ele>1061.1</ele>
        <time>2020-11-16T15:17:07Z</time>
      </trkpt>
      <trkpt lat="28.7955800" lon="-17.8579450">
        <ele>1061.6</ele>
        <time>2020-11-16T15:17:08Z</time>
      </trkpt>
      <trkpt lat="28.7955750" lon="-17.8579380">
        <ele>1061.9</ele>
        <time>2020-11-16T15:17:09Z</time>
      </trkpt>
      <trkpt lat="28.7955750" lon="-17.8579380">
        <ele>1061.9</ele>
        <time>2020-11-16T15:17:10Z</time>
      </trkpt>
      <trkpt lat="28.7955470" lon="-17.8579400">
        <ele>1062.9</ele>
        <time>2020-11-16T15:17:11Z</time>
      </trkpt>
      <trkpt lat="28.7955250" lon="-17.8579370">
        <ele>1063.7</ele>
        <time>2020-11-16T15:17:12Z</time>
      </trkpt>
      <trkpt lat="28.7955250" lon="-17.8579370">
        <ele>1063.7</ele>
        <time>2020-11-16T15:17:13Z</time>
      </trkpt>
      <trkpt lat="28.7954970" lon="-17.8579300">
        <ele>1064.6</ele>
        <time>2020-11-16T15:17:14Z</time>
      </trkpt>
      <trkpt lat="28.7954970" lon="-17.8579300">
        <ele>1064.6</ele>
        <time>2020-11-16T15:17:15Z</time>
      </trkpt>
      <trkpt lat="28.7954680" lon="-17.8579350">
        <ele>1065.6</ele>
        <time>2020-11-16T15:17:16Z</time>
      </trkpt>
      <trkpt lat="28.7954550" lon="-17.8579380">
        <ele>1066.1</ele>
        <time>2020-11-16T15:17:17Z</time>
      </trkpt>
      <trkpt lat="28.7954550" lon="-17.8579380">
        <ele>1066.1</ele>
        <time>2020-11-16T15:17:18Z</time>
      </trkpt>
      <trkpt lat="28.7954320" lon="-17.8579550">
        <ele>1067.0</ele>
        <time>2020-11-16T15:17:19Z</time>
      </trkpt>
      <trkpt lat="28.7954200" lon="-17.8579670">
        <ele>1067.6</ele>
        <time>2020-11-16T15:17:20Z</time>
      </trkpt>
      <trkpt lat="28.7954200" lon="-17.8579670">
        <ele>1067.6</ele>
        <time>2020-11-16T15:17:21Z</time>
      </trkpt>
      <trkpt lat="28.7953980" lon="-17.8579720">
        <ele>1068.3</ele>
        <time>2020-11-16T15:17:22Z</time>
      </trkpt>
      <trkpt lat="28.7953980" lon="-17.8579720">
        <ele>1068.3</ele>
        <time>2020-11-16T15:17:23Z</time>
      </trkpt>
      <trkpt lat="28.7953900" lon="-17.8579700">
        <ele>1068.6</ele>
        <time>2020-11-16T15:17:24Z</time>
      </trkpt>
      <trkpt lat="28.7953900" lon="-17.8579700">
        <ele>1068.6</ele>
        <time>2020-11-16T15:17:25Z</time>
      </trkpt>
      <trkpt lat="28.7953900" lon="-17.8579700">
        <ele>1068.6</ele>
        <time>2020-11-16T15:17:28Z</time>
      </trkpt>
      <trkpt lat="28.7953220" lon="-17.8580020">
        <ele>1071.0</ele>
        <time>2020-11-16T15:17:29Z</time>
      </trkpt>
      <trkpt lat="28.7953070" lon="-17.8580050">
        <ele>1071.5</ele>
        <time>2020-11-16T15:17:30Z</time>
      </trkpt>
      <trkpt lat="28.7953070" lon="-17.8580050">
        <ele>1071.5</ele>
        <time>2020-11-16T15:17:31Z</time>
      </trkpt>
      <trkpt lat="28.7952770" lon="-17.8580150">
        <ele>1072.6</ele>
        <time>2020-11-16T15:17:32Z</time>
      </trkpt>
      <trkpt lat="28.7952770" lon="-17.8580150">
        <ele>1072.6</ele>
        <time>2020-11-16T15:17:33Z</time>
      </trkpt>
      <trkpt lat="28.7952370" lon="-17.8580250">
        <ele>1073.9</ele>
        <time>2020-11-16T15:17:34Z</time>
      </trkpt>
      <trkpt lat="28.7952370" lon="-17.8580250">
        <ele>1073.9</ele>
        <time>2020-11-16T15:17:35Z</time>
      </trkpt>
      <trkpt lat="28.7951970" lon="-17.8580470">
        <ele>1075.4</ele>
        <time>2020-11-16T15:17:36Z</time>
      </trkpt>
      <trkpt lat="28.7951970" lon="-17.8580470">
        <ele>1075.4</ele>
        <time>2020-11-16T15:17:37Z</time>
      </trkpt>
      <trkpt lat="28.7951620" lon="-17.8580680">
        <ele>1076.7</ele>
        <time>2020-11-16T15:17:38Z</time>
      </trkpt>
      <trkpt lat="28.7951620" lon="-17.8580680">
        <ele>1076.7</ele>
        <time>2020-11-16T15:17:39Z</time>
      </trkpt>
      <trkpt lat="28.7951280" lon="-17.8581020">
        <ele>1078.2</ele>
        <time>2020-11-16T15:17:40Z</time>
      </trkpt>
      <trkpt lat="28.7951280" lon="-17.8581020">
        <ele>1078.2</ele>
        <time>2020-11-16T15:17:41Z</time>
      </trkpt>
      <trkpt lat="28.7950970" lon="-17.8581230">
        <ele>1079.4</ele>
        <time>2020-11-16T15:17:42Z</time>
      </trkpt>
      <trkpt lat="28.7950970" lon="-17.8581230">
        <ele>1079.4</ele>
        <time>2020-11-16T15:17:43Z</time>
      </trkpt>
      <trkpt lat="28.7950300" lon="-17.8582030">
        <ele>1082.6</ele>
        <time>2020-11-16T15:17:44Z</time>
      </trkpt>
      <trkpt lat="28.7950300" lon="-17.8582030">
        <ele>1082.6</ele>
        <time>2020-11-16T15:17:45Z</time>
      </trkpt>
      <trkpt lat="28.7949980" lon="-17.8582170">
        <ele>1083.6</ele>
        <time>2020-11-16T15:17:46Z</time>
      </trkpt>
      <trkpt lat="28.7949980" lon="-17.8582170">
        <ele>1083.6</ele>
        <time>2020-11-16T15:17:47Z</time>
      </trkpt>
      <trkpt lat="28.7949630" lon="-17.8582430">
        <ele>1085.2</ele>
        <time>2020-11-16T15:17:48Z</time>
      </trkpt>
      <trkpt lat="28.7949470" lon="-17.8582600">
        <ele>1086.0</ele>
        <time>2020-11-16T15:17:49Z</time>
      </trkpt>
      <trkpt lat="28.7949470" lon="-17.8582600">
        <ele>1086.0</ele>
        <time>2020-11-16T15:17:50Z</time>
      </trkpt>
      <trkpt lat="28.7949180" lon="-17.8583180">
        <ele>1088.3</ele>
        <time>2020-11-16T15:17:51Z</time>
      </trkpt>
      <trkpt lat="28.7949180" lon="-17.8583180">
        <ele>1088.3</ele>
        <time>2020-11-16T15:17:52Z</time>
      </trkpt>
      <trkpt lat="28.7948970" lon="-17.8583430">
        <ele>1089.5</ele>
        <time>2020-11-16T15:17:53Z</time>
      </trkpt>
      <trkpt lat="28.7948830" lon="-17.8583500">
        <ele>1092.6</ele>
        <time>2020-11-16T15:17:54Z</time>
      </trkpt>
      <trkpt lat="28.7948830" lon="-17.8583500">
        <ele>1092.6</ele>
        <time>2020-11-16T15:17:55Z</time>
      </trkpt>
      <trkpt lat="28.7948950" lon="-17.8584330">
        <ele>1092.6</ele>
        <time>2020-11-16T15:17:56Z</time>
      </trkpt>
      <trkpt lat="28.7948950" lon="-17.8584330">
        <ele>1092.6</ele>
        <time>2020-11-16T15:17:57Z</time>
      </trkpt>
      <trkpt lat="28.7949080" lon="-17.8585100">
        <ele>1092.6</ele>
        <time>2020-11-16T15:17:58Z</time>
      </trkpt>
      <trkpt lat="28.7949080" lon="-17.8585100">
        <ele>1092.6</ele>
        <time>2020-11-16T15:17:59Z</time>
      </trkpt>
      <trkpt lat="28.7949380" lon="-17.8585330">
        <ele>1092.5</ele>
        <time>2020-11-16T15:18:00Z</time>
      </trkpt>
      <trkpt lat="28.7949380" lon="-17.8585330">
        <ele>1092.5</ele>
        <time>2020-11-16T15:18:01Z</time>
      </trkpt>
      <trkpt lat="28.7949680" lon="-17.8585530">
        <ele>1092.5</ele>
        <time>2020-11-16T15:18:02Z</time>
      </trkpt>
      <trkpt lat="28.7949680" lon="-17.8585530">
        <ele>1092.5</ele>
        <time>2020-11-16T15:18:03Z</time>
      </trkpt>
      <trkpt lat="28.7949930" lon="-17.8585580">
        <ele>1092.5</ele>
        <time>2020-11-16T15:18:04Z</time>
      </trkpt>
      <trkpt lat="28.7949930" lon="-17.8585580">
        <ele>1092.5</ele>
        <time>2020-11-16T15:18:05Z</time>
      </trkpt>
      <trkpt lat="28.7950130" lon="-17.8585730">
        <ele>1092.4</ele>
        <time>2020-11-16T15:18:06Z</time>
      </trkpt>
      <trkpt lat="28.7950130" lon="-17.8585730">
        <ele>1092.4</ele>
        <time>2020-11-16T15:18:07Z</time>
      </trkpt>
      <trkpt lat="28.7950530" lon="-17.8585670">
        <ele>1092.4</ele>
        <time>2020-11-16T15:18:08Z</time>
      </trkpt>
      <trkpt lat="28.7950530" lon="-17.8585670">
        <ele>1092.4</ele>
        <time>2020-11-16T15:18:09Z</time>
      </trkpt>
      <trkpt lat="28.7950980" lon="-17.8585730">
        <ele>1092.3</ele>
        <time>2020-11-16T15:18:10Z</time>
      </trkpt>
      <trkpt lat="28.7950980" lon="-17.8585730">
        <ele>1092.3</ele>
        <time>2020-11-16T15:18:11Z</time>
      </trkpt>
      <trkpt lat="28.7951350" lon="-17.8585930">
        <ele>1092.3</ele>
        <time>2020-11-16T15:18:12Z</time>
      </trkpt>
      <trkpt lat="28.7951350" lon="-17.8585930">
        <ele>1092.3</ele>
        <time>2020-11-16T15:18:13Z</time>
      </trkpt>
      <trkpt lat="28.7951900" lon="-17.8585970">
        <ele>1092.3</ele>
        <time>2020-11-16T15:18:14Z</time>
      </trkpt>
      <trkpt lat="28.7951900" lon="-17.8585970">
        <ele>1092.3</ele>
        <time>2020-11-16T15:18:15Z</time>
      </trkpt>
      <trkpt lat="28.7952400" lon="-17.8585880">
        <ele>1092.2</ele>
        <time>2020-11-16T15:18:16Z</time>
      </trkpt>
      <trkpt lat="28.7952400" lon="-17.8585880">
        <ele>1092.2</ele>
        <time>2020-11-16T15:18:17Z</time>
      </trkpt>
      <trkpt lat="28.7952700" lon="-17.8585870">
        <ele>1092.2</ele>
        <time>2020-11-16T15:18:18Z</time>
      </trkpt>
      <trkpt lat="28.7952700" lon="-17.8585870">
        <ele>1092.2</ele>
        <time>2020-11-16T15:18:19Z</time>
      </trkpt>
      <trkpt lat="28.7952850" lon="-17.8585450">
        <ele>1092.2</ele>
        <time>2020-11-16T15:18:20Z</time>
      </trkpt>
      <trkpt lat="28.7952850" lon="-17.8585450">
        <ele>1092.2</ele>
        <time>2020-11-16T15:18:21Z</time>
      </trkpt>
      <trkpt lat="28.7953230" lon="-17.8585080">
        <ele>1092.2</ele>
        <time>2020-11-16T15:18:22Z</time>
      </trkpt>
      <trkpt lat="28.7953230" lon="-17.8585080">
        <ele>1092.2</ele>
        <time>2020-11-16T15:18:23Z</time>
      </trkpt>
      <trkpt lat="28.7953600" lon="-17.8584880">
        <ele>1092.2</ele>
        <time>2020-11-16T15:18:24Z</time>
      </trkpt>
      <trkpt lat="28.7953600" lon="-17.8584880">
        <ele>1092.2</ele>
        <time>2020-11-16T15:18:25Z</time>
      </trkpt>
      <trkpt lat="28.7953980" lon="-17.8584900">
        <ele>1092.2</ele>
        <time>2020-11-16T15:18:26Z</time>
      </trkpt>
      <trkpt lat="28.7953980" lon="-17.8584900">
        <ele>1092.2</ele>
        <time>2020-11-16T15:18:27Z</time>
      </trkpt>
      <trkpt lat="28.7954420" lon="-17.8584980">
        <ele>1092.2</ele>
        <time>2020-11-16T15:18:28Z</time>
      </trkpt>
      <trkpt lat="28.7954620" lon="-17.8585000">
        <ele>1092.3</ele>
        <time>2020-11-16T15:18:29Z</time>
      </trkpt>
      <trkpt lat="28.7954620" lon="-17.8585000">
        <ele>1092.3</ele>
        <time>2020-11-16T15:18:30Z</time>
      </trkpt>
      <trkpt lat="28.7954970" lon="-17.8585030">
        <ele>1092.3</ele>
        <time>2020-11-16T15:18:31Z</time>
      </trkpt>
      <trkpt lat="28.7954970" lon="-17.8585030">
        <ele>1092.3</ele>
        <time>2020-11-16T15:18:32Z</time>
      </trkpt>
      <trkpt lat="28.7955270" lon="-17.8585200">
        <ele>1092.3</ele>
        <time>2020-11-16T15:18:33Z</time>
      </trkpt>
      <trkpt lat="28.7955420" lon="-17.8585270">
        <ele>1092.4</ele>
        <time>2020-11-16T15:18:34Z</time>
      </trkpt>
      <trkpt lat="28.7955420" lon="-17.8585270">
        <ele>1092.4</ele>
        <time>2020-11-16T15:18:35Z</time>
      </trkpt>
      <trkpt lat="28.7955800" lon="-17.8585330">
        <ele>1092.4</ele>
        <time>2020-11-16T15:18:36Z</time>
      </trkpt>
      <trkpt lat="28.7955800" lon="-17.8585330">
        <ele>1092.4</ele>
        <time>2020-11-16T15:18:37Z</time>
      </trkpt>
      <trkpt lat="28.7956050" lon="-17.8585400">
        <ele>1092.5</ele>
        <time>2020-11-16T15:18:38Z</time>
      </trkpt>
      <trkpt lat="28.7956050" lon="-17.8585400">
        <ele>1092.5</ele>
        <time>2020-11-16T15:18:39Z</time>
      </trkpt>
      <trkpt lat="28.7956300" lon="-17.8585470">
        <ele>1092.6</ele>
        <time>2020-11-16T15:18:40Z</time>
      </trkpt>
      <trkpt lat="28.7956300" lon="-17.8585470">
        <ele>1092.6</ele>
        <time>2020-11-16T15:18:41Z</time>
      </trkpt>
      <trkpt lat="28.7956550" lon="-17.8585500">
        <ele>1092.6</ele>
        <time>2020-11-16T15:18:42Z</time>
      </trkpt>
      <trkpt lat="28.7956550" lon="-17.8585500">
        <ele>1092.6</ele>
        <time>2020-11-16T15:18:43Z</time>
      </trkpt>
      <trkpt lat="28.7956880" lon="-17.8585700">
        <ele>1092.7</ele>
        <time>2020-11-16T15:18:44Z</time>
      </trkpt>
      <trkpt lat="28.7956880" lon="-17.8585700">
        <ele>1092.7</ele>
        <time>2020-11-16T15:18:45Z</time>
      </trkpt>
      <trkpt lat="28.7957180" lon="-17.8585880">
        <ele>1092.7</ele>
        <time>2020-11-16T15:18:46Z</time>
      </trkpt>
      <trkpt lat="28.7957330" lon="-17.8585920">
        <ele>1092.8</ele>
        <time>2020-11-16T15:18:47Z</time>
      </trkpt>
      <trkpt lat="28.7957330" lon="-17.8585920">
        <ele>1092.8</ele>
        <time>2020-11-16T15:18:48Z</time>
      </trkpt>
      <trkpt lat="28.7957580" lon="-17.8586000">
        <ele>1092.8</ele>
        <time>2020-11-16T15:18:49Z</time>
      </trkpt>
      <trkpt lat="28.7957700" lon="-17.8586030">
        <ele>1092.8</ele>
        <time>2020-11-16T15:18:50Z</time>
      </trkpt>
      <trkpt lat="28.7957700" lon="-17.8586030">
        <ele>1092.8</ele>
        <time>2020-11-16T15:18:51Z</time>
      </trkpt>
      <trkpt lat="28.7957950" lon="-17.8586380">
        <ele>1092.9</ele>
        <time>2020-11-16T15:18:52Z</time>
      </trkpt>
      <trkpt lat="28.7957950" lon="-17.8586380">
        <ele>1092.9</ele>
        <time>2020-11-16T15:18:53Z</time>
      </trkpt>
      <trkpt lat="28.7958150" lon="-17.8586650">
        <ele>1092.9</ele>
        <time>2020-11-16T15:18:54Z</time>
      </trkpt>
      <trkpt lat="28.7958150" lon="-17.8586650">
        <ele>1092.9</ele>
        <time>2020-11-16T15:18:55Z</time>
      </trkpt>
      <trkpt lat="28.7958420" lon="-17.8586850">
        <ele>1092.9</ele>
        <time>2020-11-16T15:18:56Z</time>
      </trkpt>
      <trkpt lat="28.7958420" lon="-17.8586850">
        <ele>1092.9</ele>
        <time>2020-11-16T15:18:57Z</time>
      </trkpt>
      <trkpt lat="28.7958680" lon="-17.8586950">
        <ele>1093.0</ele>
        <time>2020-11-16T15:18:58Z</time>
      </trkpt>
      <trkpt lat="28.7958680" lon="-17.8586950">
        <ele>1093.0</ele>
        <time>2020-11-16T15:18:59Z</time>
      </trkpt>
      <trkpt lat="28.7959000" lon="-17.8586920">
        <ele>1093.0</ele>
        <time>2020-11-16T15:19:00Z</time>
      </trkpt>
      <trkpt lat="28.7959120" lon="-17.8586880">
        <ele>1093.0</ele>
        <time>2020-11-16T15:19:01Z</time>
      </trkpt>
      <trkpt lat="28.7959120" lon="-17.8586880">
        <ele>1093.0</ele>
        <time>2020-11-16T15:19:02Z</time>
      </trkpt>
      <trkpt lat="28.7959470" lon="-17.8586920">
        <ele>1093.0</ele>
        <time>2020-11-16T15:19:03Z</time>
      </trkpt>
      <trkpt lat="28.7959470" lon="-17.8586920">
        <ele>1093.0</ele>
        <time>2020-11-16T15:19:04Z</time>
      </trkpt>
      <trkpt lat="28.7959720" lon="-17.8586880">
        <ele>1093.0</ele>
        <time>2020-11-16T15:19:05Z</time>
      </trkpt>
      <trkpt lat="28.7959800" lon="-17.8586880">
        <ele>1093.0</ele>
        <time>2020-11-16T15:19:06Z</time>
      </trkpt>
      <trkpt lat="28.7959800" lon="-17.8586880">
        <ele>1093.0</ele>
        <time>2020-11-16T15:19:07Z</time>
      </trkpt>
      <trkpt lat="28.7960000" lon="-17.8586930">
        <ele>1093.0</ele>
        <time>2020-11-16T15:19:08Z</time>
      </trkpt>
      <trkpt lat="28.7960000" lon="-17.8586930">
        <ele>1093.0</ele>
        <time>2020-11-16T15:19:09Z</time>
      </trkpt>
      <trkpt lat="28.7960330" lon="-17.8587150">
        <ele>1093.0</ele>
        <time>2020-11-16T15:19:10Z</time>
      </trkpt>
      <trkpt lat="28.7960330" lon="-17.8587150">
        <ele>1093.0</ele>
        <time>2020-11-16T15:19:11Z</time>
      </trkpt>
      <trkpt lat="28.7960630" lon="-17.8587250">
        <ele>1093.0</ele>
        <time>2020-11-16T15:19:12Z</time>
      </trkpt>
      <trkpt lat="28.7960630" lon="-17.8587250">
        <ele>1093.0</ele>
        <time>2020-11-16T15:19:13Z</time>
      </trkpt>
      <trkpt lat="28.7961030" lon="-17.8587400">
        <ele>1092.9</ele>
        <time>2020-11-16T15:19:14Z</time>
      </trkpt>
      <trkpt lat="28.7961030" lon="-17.8587400">
        <ele>1092.9</ele>
        <time>2020-11-16T15:19:15Z</time>
      </trkpt>
      <trkpt lat="28.7961520" lon="-17.8587520">
        <ele>1092.9</ele>
        <time>2020-11-16T15:19:16Z</time>
      </trkpt>
      <trkpt lat="28.7961720" lon="-17.8587600">
        <ele>1092.8</ele>
        <time>2020-11-16T15:19:17Z</time>
      </trkpt>
      <trkpt lat="28.7961720" lon="-17.8587600">
        <ele>1092.8</ele>
        <time>2020-11-16T15:19:18Z</time>
      </trkpt>
      <trkpt lat="28.7962350" lon="-17.8587780">
        <ele>1092.7</ele>
        <time>2020-11-16T15:19:19Z</time>
      </trkpt>
      <trkpt lat="28.7962350" lon="-17.8587780">
        <ele>1092.7</ele>
        <time>2020-11-16T15:19:20Z</time>
      </trkpt>
      <trkpt lat="28.7962920" lon="-17.8587930">
        <ele>1092.6</ele>
        <time>2020-11-16T15:19:21Z</time>
      </trkpt>
      <trkpt lat="28.7962920" lon="-17.8587930">
        <ele>1092.6</ele>
        <time>2020-11-16T15:19:22Z</time>
      </trkpt>
      <trkpt lat="28.7963400" lon="-17.8587880">
        <ele>1092.4</ele>
        <time>2020-11-16T15:19:23Z</time>
      </trkpt>
      <trkpt lat="28.7963600" lon="-17.8587830">
        <ele>1092.4</ele>
        <time>2020-11-16T15:19:24Z</time>
      </trkpt>
      <trkpt lat="28.7963600" lon="-17.8587830">
        <ele>1092.4</ele>
        <time>2020-11-16T15:19:25Z</time>
      </trkpt>
      <trkpt lat="28.7963980" lon="-17.8587750">
        <ele>1092.2</ele>
        <time>2020-11-16T15:19:26Z</time>
      </trkpt>
      <trkpt lat="28.7963980" lon="-17.8587750">
        <ele>1092.2</ele>
        <time>2020-11-16T15:19:27Z</time>
      </trkpt>
      <trkpt lat="28.7964250" lon="-17.8587550">
        <ele>1092.1</ele>
        <time>2020-11-16T15:19:28Z</time>
      </trkpt>
      <trkpt lat="28.7964250" lon="-17.8587550">
        <ele>1092.1</ele>
        <time>2020-11-16T15:19:29Z</time>
      </trkpt>
      <trkpt lat="28.7964630" lon="-17.8587350">
        <ele>1092.0</ele>
        <time>2020-11-16T15:19:30Z</time>
      </trkpt>
      <trkpt lat="28.7964630" lon="-17.8587350">
        <ele>1092.0</ele>
        <time>2020-11-16T15:19:31Z</time>
      </trkpt>
      <trkpt lat="28.7965030" lon="-17.8587250">
        <ele>1091.9</ele>
        <time>2020-11-16T15:19:32Z</time>
      </trkpt>
      <trkpt lat="28.7965030" lon="-17.8587250">
        <ele>1091.9</ele>
        <time>2020-11-16T15:19:33Z</time>
      </trkpt>
      <trkpt lat="28.7965350" lon="-17.8587130">
        <ele>1091.8</ele>
        <time>2020-11-16T15:19:34Z</time>
      </trkpt>
      <trkpt lat="28.7965520" lon="-17.8587130">
        <ele>1091.8</ele>
        <time>2020-11-16T15:19:35Z</time>
      </trkpt>
      <trkpt lat="28.7965520" lon="-17.8587130">
        <ele>1091.8</ele>
        <time>2020-11-16T15:19:36Z</time>
      </trkpt>
      <trkpt lat="28.7965750" lon="-17.8586980">
        <ele>1091.7</ele>
        <time>2020-11-16T15:19:37Z</time>
      </trkpt>
      <trkpt lat="28.7965750" lon="-17.8586980">
        <ele>1091.7</ele>
        <time>2020-11-16T15:19:38Z</time>
      </trkpt>
      <trkpt lat="28.7966050" lon="-17.8586620">
        <ele>1091.6</ele>
        <time>2020-11-16T15:19:39Z</time>
      </trkpt>
      <trkpt lat="28.7966050" lon="-17.8586620">
        <ele>1091.6</ele>
        <time>2020-11-16T15:19:40Z</time>
      </trkpt>
      <trkpt lat="28.7966200" lon="-17.8586380">
        <ele>1091.6</ele>
        <time>2020-11-16T15:19:41Z</time>
      </trkpt>
      <trkpt lat="28.7966200" lon="-17.8586380">
        <ele>1091.6</ele>
        <time>2020-11-16T15:19:42Z</time>
      </trkpt>
      <trkpt lat="28.7966450" lon="-17.8586070">
        <ele>1091.5</ele>
        <time>2020-11-16T15:19:43Z</time>
      </trkpt>
      <trkpt lat="28.7966450" lon="-17.8586070">
        <ele>1091.5</ele>
        <time>2020-11-16T15:19:44Z</time>
      </trkpt>
      <trkpt lat="28.7966630" lon="-17.8585900">
        <ele>1091.4</ele>
        <time>2020-11-16T15:19:45Z</time>
      </trkpt>
      <trkpt lat="28.7966630" lon="-17.8585900">
        <ele>1091.4</ele>
        <time>2020-11-16T15:19:46Z</time>
      </trkpt>
      <trkpt lat="28.7966920" lon="-17.8585480">
        <ele>1091.3</ele>
        <time>2020-11-16T15:19:47Z</time>
      </trkpt>
      <trkpt lat="28.7966920" lon="-17.8585480">
        <ele>1091.3</ele>
        <time>2020-11-16T15:19:48Z</time>
      </trkpt>
      <trkpt lat="28.7967430" lon="-17.8584570">
        <ele>1091.0</ele>
        <time>2020-11-16T15:19:49Z</time>
      </trkpt>
      <trkpt lat="28.7967430" lon="-17.8584570">
        <ele>1091.0</ele>
        <time>2020-11-16T15:19:50Z</time>
      </trkpt>
      <trkpt lat="28.7968000" lon="-17.8583520">
        <ele>1090.5</ele>
        <time>2020-11-16T15:19:51Z</time>
      </trkpt>
      <trkpt lat="28.7968000" lon="-17.8583520">
        <ele>1090.5</ele>
        <time>2020-11-16T15:19:52Z</time>
      </trkpt>
      <trkpt lat="28.7968320" lon="-17.8582980">
        <ele>1090.2</ele>
        <time>2020-11-16T15:19:53Z</time>
      </trkpt>
      <trkpt lat="28.7968320" lon="-17.8582980">
        <ele>1090.2</ele>
        <time>2020-11-16T15:19:54Z</time>
      </trkpt>
      <trkpt lat="28.7968620" lon="-17.8582380">
        <ele>1089.9</ele>
        <time>2020-11-16T15:19:55Z</time>
      </trkpt>
      <trkpt lat="28.7968820" lon="-17.8582180">
        <ele>1089.8</ele>
        <time>2020-11-16T15:19:56Z</time>
      </trkpt>
      <trkpt lat="28.7968820" lon="-17.8582180">
        <ele>1089.8</ele>
        <time>2020-11-16T15:19:57Z</time>
      </trkpt>
      <trkpt lat="28.7969330" lon="-17.8582170">
        <ele>1089.5</ele>
        <time>2020-11-16T15:19:58Z</time>
      </trkpt>
      <trkpt lat="28.7969330" lon="-17.8582170">
        <ele>1089.5</ele>
        <time>2020-11-16T15:19:59Z</time>
      </trkpt>
      <trkpt lat="28.7969850" lon="-17.8582450">
        <ele>1089.2</ele>
        <time>2020-11-16T15:20:00Z</time>
      </trkpt>
      <trkpt lat="28.7969850" lon="-17.8582450">
        <ele>1089.2</ele>
        <time>2020-11-16T15:20:01Z</time>
      </trkpt>
      <trkpt lat="28.7970280" lon="-17.8582800">
        <ele>1088.9</ele>
        <time>2020-11-16T15:20:02Z</time>
      </trkpt>
      <trkpt lat="28.7970280" lon="-17.8582800">
        <ele>1088.9</ele>
        <time>2020-11-16T15:20:03Z</time>
      </trkpt>
      <trkpt lat="28.7970700" lon="-17.8583120">
        <ele>1088.6</ele>
        <time>2020-11-16T15:20:04Z</time>
      </trkpt>
      <trkpt lat="28.7970700" lon="-17.8583120">
        <ele>1088.6</ele>
        <time>2020-11-16T15:20:05Z</time>
      </trkpt>
      <trkpt lat="28.7971050" lon="-17.8583400">
        <ele>1088.4</ele>
        <time>2020-11-16T15:20:06Z</time>
      </trkpt>
      <trkpt lat="28.7971050" lon="-17.8583400">
        <ele>1088.4</ele>
        <time>2020-11-16T15:20:07Z</time>
      </trkpt>
      <trkpt lat="28.7971280" lon="-17.8583670">
        <ele>1088.2</ele>
        <time>2020-11-16T15:20:08Z</time>
      </trkpt>
      <trkpt lat="28.7971420" lon="-17.8583780">
        <ele>1088.2</ele>
        <time>2020-11-16T15:20:09Z</time>
      </trkpt>
      <trkpt lat="28.7971420" lon="-17.8583780">
        <ele>1088.2</ele>
        <time>2020-11-16T15:20:10Z</time>
      </trkpt>
      <trkpt lat="28.7971650" lon="-17.8584100">
        <ele>1088.0</ele>
        <time>2020-11-16T15:20:11Z</time>
      </trkpt>
      <trkpt lat="28.7971800" lon="-17.8584220">
        <ele>1087.9</ele>
        <time>2020-11-16T15:20:12Z</time>
      </trkpt>
      <trkpt lat="28.7971800" lon="-17.8584220">
        <ele>1087.9</ele>
        <time>2020-11-16T15:20:13Z</time>
      </trkpt>
      <trkpt lat="28.7972180" lon="-17.8584470">
        <ele>1087.8</ele>
        <time>2020-11-16T15:20:14Z</time>
      </trkpt>
      <trkpt lat="28.7972180" lon="-17.8584470">
        <ele>1087.8</ele>
        <time>2020-11-16T15:20:15Z</time>
      </trkpt>
      <trkpt lat="28.7972520" lon="-17.8584780">
        <ele>1087.6</ele>
        <time>2020-11-16T15:20:16Z</time>
      </trkpt>
      <trkpt lat="28.7972520" lon="-17.8584780">
        <ele>1087.6</ele>
        <time>2020-11-16T15:20:17Z</time>
      </trkpt>
      <trkpt lat="28.7973000" lon="-17.8585020">
        <ele>1087.5</ele>
        <time>2020-11-16T15:20:18Z</time>
      </trkpt>
      <trkpt lat="28.7973000" lon="-17.8585020">
        <ele>1087.5</ele>
        <time>2020-11-16T15:20:19Z</time>
      </trkpt>
      <trkpt lat="28.7973320" lon="-17.8585280">
        <ele>1087.4</ele>
        <time>2020-11-16T15:20:20Z</time>
      </trkpt>
      <trkpt lat="28.7973320" lon="-17.8585280">
        <ele>1087.4</ele>
        <time>2020-11-16T15:20:21Z</time>
      </trkpt>
      <trkpt lat="28.7973600" lon="-17.8585430">
        <ele>1087.3</ele>
        <time>2020-11-16T15:20:22Z</time>
      </trkpt>
      <trkpt lat="28.7973770" lon="-17.8585530">
        <ele>1087.2</ele>
        <time>2020-11-16T15:20:23Z</time>
      </trkpt>
      <trkpt lat="28.7973770" lon="-17.8585530">
        <ele>1087.2</ele>
        <time>2020-11-16T15:20:24Z</time>
      </trkpt>
      <trkpt lat="28.7974200" lon="-17.8585730">
        <ele>1087.1</ele>
        <time>2020-11-16T15:20:25Z</time>
      </trkpt>
      <trkpt lat="28.7974200" lon="-17.8585730">
        <ele>1087.1</ele>
        <time>2020-11-16T15:20:26Z</time>
      </trkpt>
      <trkpt lat="28.7974630" lon="-17.8586030">
        <ele>1087.0</ele>
        <time>2020-11-16T15:20:27Z</time>
      </trkpt>
      <trkpt lat="28.7974630" lon="-17.8586030">
        <ele>1087.0</ele>
        <time>2020-11-16T15:20:28Z</time>
      </trkpt>
      <trkpt lat="28.7974970" lon="-17.8586270">
        <ele>1086.9</ele>
        <time>2020-11-16T15:20:29Z</time>
      </trkpt>
      <trkpt lat="28.7974970" lon="-17.8586270">
        <ele>1086.9</ele>
        <time>2020-11-16T15:20:30Z</time>
      </trkpt>
      <trkpt lat="28.7975370" lon="-17.8586550">
        <ele>1086.8</ele>
        <time>2020-11-16T15:20:31Z</time>
      </trkpt>
      <trkpt lat="28.7975550" lon="-17.8586680">
        <ele>1086.8</ele>
        <time>2020-11-16T15:20:32Z</time>
      </trkpt>
      <trkpt lat="28.7975550" lon="-17.8586680">
        <ele>1086.8</ele>
        <time>2020-11-16T15:20:33Z</time>
      </trkpt>
      <trkpt lat="28.7975930" lon="-17.8586870">
        <ele>1086.7</ele>
        <time>2020-11-16T15:20:34Z</time>
      </trkpt>
      <trkpt lat="28.7975930" lon="-17.8586870">
        <ele>1086.7</ele>
        <time>2020-11-16T15:20:35Z</time>
      </trkpt>
      <trkpt lat="28.7976220" lon="-17.8587080">
        <ele>1086.7</ele>
        <time>2020-11-16T15:20:36Z</time>
      </trkpt>
      <trkpt lat="28.7976420" lon="-17.8587150">
        <ele>1086.6</ele>
        <time>2020-11-16T15:20:37Z</time>
      </trkpt>
      <trkpt lat="28.7976420" lon="-17.8587150">
        <ele>1086.6</ele>
        <time>2020-11-16T15:20:38Z</time>
      </trkpt>
      <trkpt lat="28.7976770" lon="-17.8587370">
        <ele>1086.6</ele>
        <time>2020-11-16T15:20:39Z</time>
      </trkpt>
      <trkpt lat="28.7976770" lon="-17.8587370">
        <ele>1086.6</ele>
        <time>2020-11-16T15:20:40Z</time>
      </trkpt>
      <trkpt lat="28.7977030" lon="-17.8587580">
        <ele>1086.5</ele>
        <time>2020-11-16T15:20:41Z</time>
      </trkpt>
      <trkpt lat="28.7977030" lon="-17.8587580">
        <ele>1086.5</ele>
        <time>2020-11-16T15:20:42Z</time>
      </trkpt>
      <trkpt lat="28.7977320" lon="-17.8587720">
        <ele>1086.5</ele>
        <time>2020-11-16T15:20:43Z</time>
      </trkpt>
      <trkpt lat="28.7977430" lon="-17.8587800">
        <ele>1086.4</ele>
        <time>2020-11-16T15:20:44Z</time>
      </trkpt>
      <trkpt lat="28.7977430" lon="-17.8587800">
        <ele>1086.4</ele>
        <time>2020-11-16T15:20:45Z</time>
      </trkpt>
      <trkpt lat="28.7977650" lon="-17.8588070">
        <ele>1086.4</ele>
        <time>2020-11-16T15:20:46Z</time>
      </trkpt>
      <trkpt lat="28.7977650" lon="-17.8588070">
        <ele>1086.4</ele>
        <time>2020-11-16T15:20:47Z</time>
      </trkpt>
      <trkpt lat="28.7978020" lon="-17.8588330">
        <ele>1086.3</ele>
        <time>2020-11-16T15:20:48Z</time>
      </trkpt>
      <trkpt lat="28.7978020" lon="-17.8588330">
        <ele>1086.3</ele>
        <time>2020-11-16T15:20:49Z</time>
      </trkpt>
      <trkpt lat="28.7978330" lon="-17.8588600">
        <ele>1086.2</ele>
        <time>2020-11-16T15:20:50Z</time>
      </trkpt>
      <trkpt lat="28.7978330" lon="-17.8588600">
        <ele>1086.2</ele>
        <time>2020-11-16T15:20:51Z</time>
      </trkpt>
      <trkpt lat="28.7978670" lon="-17.8588870">
        <ele>1086.2</ele>
        <time>2020-11-16T15:20:52Z</time>
      </trkpt>
      <trkpt lat="28.7978820" lon="-17.8588950">
        <ele>1086.1</ele>
        <time>2020-11-16T15:20:53Z</time>
      </trkpt>
      <trkpt lat="28.7978820" lon="-17.8588950">
        <ele>1086.1</ele>
        <time>2020-11-16T15:20:54Z</time>
      </trkpt>
      <trkpt lat="28.7979280" lon="-17.8589030">
        <ele>1086.1</ele>
        <time>2020-11-16T15:20:55Z</time>
      </trkpt>
      <trkpt lat="28.7979280" lon="-17.8589030">
        <ele>1086.1</ele>
        <time>2020-11-16T15:20:56Z</time>
      </trkpt>
      <trkpt lat="28.7979850" lon="-17.8589600">
        <ele>1085.9</ele>
        <time>2020-11-16T15:20:57Z</time>
      </trkpt>
      <trkpt lat="28.7979850" lon="-17.8589600">
        <ele>1085.9</ele>
        <time>2020-11-16T15:20:58Z</time>
      </trkpt>
      <trkpt lat="28.7980320" lon="-17.8590180">
        <ele>1085.8</ele>
        <time>2020-11-16T15:20:59Z</time>
      </trkpt>
      <trkpt lat="28.7980470" lon="-17.8590270">
        <ele>1085.8</ele>
        <time>2020-11-16T15:21:00Z</time>
      </trkpt>
      <trkpt lat="28.7980470" lon="-17.8590270">
        <ele>1085.8</ele>
        <time>2020-11-16T15:21:01Z</time>
      </trkpt>
      <trkpt lat="28.7980780" lon="-17.8590430">
        <ele>1085.8</ele>
        <time>2020-11-16T15:21:02Z</time>
      </trkpt>
      <trkpt lat="28.7980780" lon="-17.8590430">
        <ele>1085.8</ele>
        <time>2020-11-16T15:21:03Z</time>
      </trkpt>
      <trkpt lat="28.7981230" lon="-17.8590530">
        <ele>1085.8</ele>
        <time>2020-11-16T15:21:04Z</time>
      </trkpt>
      <trkpt lat="28.7981230" lon="-17.8590530">
        <ele>1085.8</ele>
        <time>2020-11-16T15:21:05Z</time>
      </trkpt>
      <trkpt lat="28.7981600" lon="-17.8590700">
        <ele>1085.7</ele>
        <time>2020-11-16T15:21:06Z</time>
      </trkpt>
      <trkpt lat="28.7981600" lon="-17.8590700">
        <ele>1085.7</ele>
        <time>2020-11-16T15:21:07Z</time>
      </trkpt>
      <trkpt lat="28.7981870" lon="-17.8590870">
        <ele>1085.7</ele>
        <time>2020-11-16T15:21:08Z</time>
      </trkpt>
      <trkpt lat="28.7981870" lon="-17.8590870">
        <ele>1085.7</ele>
        <time>2020-11-16T15:21:09Z</time>
      </trkpt>
      <trkpt lat="28.7982150" lon="-17.8590920">
        <ele>1085.7</ele>
        <time>2020-11-16T15:21:10Z</time>
      </trkpt>
      <trkpt lat="28.7982150" lon="-17.8590920">
        <ele>1085.7</ele>
        <time>2020-11-16T15:21:11Z</time>
      </trkpt>
      <trkpt lat="28.7982420" lon="-17.8591100">
        <ele>1085.7</ele>
        <time>2020-11-16T15:21:12Z</time>
      </trkpt>
      <trkpt lat="28.7982420" lon="-17.8591100">
        <ele>1085.7</ele>
        <time>2020-11-16T15:21:13Z</time>
      </trkpt>
      <trkpt lat="28.7982600" lon="-17.8591230">
        <ele>1085.7</ele>
        <time>2020-11-16T15:21:14Z</time>
      </trkpt>
      <trkpt lat="28.7982600" lon="-17.8591230">
        <ele>1085.7</ele>
        <time>2020-11-16T15:21:15Z</time>
      </trkpt>
      <trkpt lat="28.7982850" lon="-17.8591380">
        <ele>1085.7</ele>
        <time>2020-11-16T15:21:16Z</time>
      </trkpt>
      <trkpt lat="28.7982850" lon="-17.8591380">
        <ele>1085.7</ele>
        <time>2020-11-16T15:21:17Z</time>
      </trkpt>
      <trkpt lat="28.7983420" lon="-17.8591480">
        <ele>1085.8</ele>
        <time>2020-11-16T15:21:18Z</time>
      </trkpt>
      <trkpt lat="28.7983420" lon="-17.8591480">
        <ele>1085.8</ele>
        <time>2020-11-16T15:21:19Z</time>
      </trkpt>
      <trkpt lat="28.7983900" lon="-17.8591680">
        <ele>1085.8</ele>
        <time>2020-11-16T15:21:20Z</time>
      </trkpt>
      <trkpt lat="28.7983900" lon="-17.8591680">
        <ele>1085.8</ele>
        <time>2020-11-16T15:21:21Z</time>
      </trkpt>
      <trkpt lat="28.7984420" lon="-17.8591880">
        <ele>1085.7</ele>
        <time>2020-11-16T15:21:22Z</time>
      </trkpt>
      <trkpt lat="28.7984420" lon="-17.8591880">
        <ele>1085.7</ele>
        <time>2020-11-16T15:21:23Z</time>
      </trkpt>
      <trkpt lat="28.7984870" lon="-17.8592070">
        <ele>1085.7</ele>
        <time>2020-11-16T15:21:24Z</time>
      </trkpt>
      <trkpt lat="28.7984870" lon="-17.8592070">
        <ele>1085.7</ele>
        <time>2020-11-16T15:21:25Z</time>
      </trkpt>
      <trkpt lat="28.7985280" lon="-17.8592270">
        <ele>1085.6</ele>
        <time>2020-11-16T15:21:26Z</time>
      </trkpt>
      <trkpt lat="28.7985280" lon="-17.8592270">
        <ele>1085.6</ele>
        <time>2020-11-16T15:21:27Z</time>
      </trkpt>
      <trkpt lat="28.7985630" lon="-17.8592500">
        <ele>1085.6</ele>
        <time>2020-11-16T15:21:28Z</time>
      </trkpt>
      <trkpt lat="28.7985630" lon="-17.8592500">
        <ele>1085.6</ele>
        <time>2020-11-16T15:21:29Z</time>
      </trkpt>
      <trkpt lat="28.7985980" lon="-17.8592600">
        <ele>1085.5</ele>
        <time>2020-11-16T15:21:30Z</time>
      </trkpt>
      <trkpt lat="28.7985980" lon="-17.8592600">
        <ele>1085.5</ele>
        <time>2020-11-16T15:21:31Z</time>
      </trkpt>
      <trkpt lat="28.7986280" lon="-17.8592530">
        <ele>1085.5</ele>
        <time>2020-11-16T15:21:32Z</time>
      </trkpt>
      <trkpt lat="28.7986280" lon="-17.8592530">
        <ele>1085.5</ele>
        <time>2020-11-16T15:21:33Z</time>
      </trkpt>
      <trkpt lat="28.7986630" lon="-17.8592630">
        <ele>1085.4</ele>
        <time>2020-11-16T15:21:34Z</time>
      </trkpt>
      <trkpt lat="28.7986880" lon="-17.8592720">
        <ele>1085.3</ele>
        <time>2020-11-16T15:21:35Z</time>
      </trkpt>
      <trkpt lat="28.7986880" lon="-17.8592720">
        <ele>1085.3</ele>
        <time>2020-11-16T15:21:36Z</time>
      </trkpt>
      <trkpt lat="28.7987370" lon="-17.8592920">
        <ele>1085.2</ele>
        <time>2020-11-16T15:21:37Z</time>
      </trkpt>
      <trkpt lat="28.7987530" lon="-17.8592970">
        <ele>1085.2</ele>
        <time>2020-11-16T15:21:38Z</time>
      </trkpt>
      <trkpt lat="28.7987530" lon="-17.8592970">
        <ele>1085.2</ele>
        <time>2020-11-16T15:21:39Z</time>
      </trkpt>
      <trkpt lat="28.7987950" lon="-17.8593050">
        <ele>1085.0</ele>
        <time>2020-11-16T15:21:40Z</time>
      </trkpt>
      <trkpt lat="28.7988180" lon="-17.8593120">
        <ele>1085.0</ele>
        <time>2020-11-16T15:21:41Z</time>
      </trkpt>
      <trkpt lat="28.7988180" lon="-17.8593120">
        <ele>1085.0</ele>
        <time>2020-11-16T15:21:42Z</time>
      </trkpt>
      <trkpt lat="28.7988630" lon="-17.8593080">
        <ele>1084.9</ele>
        <time>2020-11-16T15:21:43Z</time>
      </trkpt>
      <trkpt lat="28.7988630" lon="-17.8593080">
        <ele>1084.9</ele>
        <time>2020-11-16T15:21:44Z</time>
      </trkpt>
      <trkpt lat="28.7989030" lon="-17.8593120">
        <ele>1084.8</ele>
        <time>2020-11-16T15:21:45Z</time>
      </trkpt>
      <trkpt lat="28.7989030" lon="-17.8593120">
        <ele>1084.8</ele>
        <time>2020-11-16T15:21:46Z</time>
      </trkpt>
      <trkpt lat="28.7989400" lon="-17.8593080">
        <ele>1084.7</ele>
        <time>2020-11-16T15:21:47Z</time>
      </trkpt>
      <trkpt lat="28.7989400" lon="-17.8593080">
        <ele>1084.7</ele>
        <time>2020-11-16T15:21:48Z</time>
      </trkpt>
      <trkpt lat="28.7989850" lon="-17.8593080">
        <ele>1084.5</ele>
        <time>2020-11-16T15:21:49Z</time>
      </trkpt>
      <trkpt lat="28.7990050" lon="-17.8593080">
        <ele>1084.5</ele>
        <time>2020-11-16T15:21:50Z</time>
      </trkpt>
      <trkpt lat="28.7990050" lon="-17.8593080">
        <ele>1084.5</ele>
        <time>2020-11-16T15:21:51Z</time>
      </trkpt>
      <trkpt lat="28.7990750" lon="-17.8593080">
        <ele>1084.2</ele>
        <time>2020-11-16T15:21:52Z</time>
      </trkpt>
      <trkpt lat="28.7990750" lon="-17.8593080">
        <ele>1084.2</ele>
        <time>2020-11-16T15:21:53Z</time>
      </trkpt>
      <trkpt lat="28.7991170" lon="-17.8593150">
        <ele>1084.0</ele>
        <time>2020-11-16T15:21:54Z</time>
      </trkpt>
      <trkpt lat="28.7991170" lon="-17.8593150">
        <ele>1084.0</ele>
        <time>2020-11-16T15:21:55Z</time>
      </trkpt>
      <trkpt lat="28.7991820" lon="-17.8593270">
        <ele>1083.7</ele>
        <time>2020-11-16T15:21:56Z</time>
      </trkpt>
      <trkpt lat="28.7991820" lon="-17.8593270">
        <ele>1083.7</ele>
        <time>2020-11-16T15:21:57Z</time>
      </trkpt>
      <trkpt lat="28.7992370" lon="-17.8593570">
        <ele>1083.2</ele>
        <time>2020-11-16T15:21:58Z</time>
      </trkpt>
      <trkpt lat="28.7992620" lon="-17.8593780">
        <ele>1082.9</ele>
        <time>2020-11-16T15:21:59Z</time>
      </trkpt>
      <trkpt lat="28.7992620" lon="-17.8593780">
        <ele>1082.9</ele>
        <time>2020-11-16T15:22:00Z</time>
      </trkpt>
      <trkpt lat="28.7993120" lon="-17.8594280">
        <ele>1082.2</ele>
        <time>2020-11-16T15:22:01Z</time>
      </trkpt>
      <trkpt lat="28.7993120" lon="-17.8594280">
        <ele>1082.2</ele>
        <time>2020-11-16T15:22:02Z</time>
      </trkpt>
      <trkpt lat="28.7993670" lon="-17.8594550">
        <ele>1081.4</ele>
        <time>2020-11-16T15:22:03Z</time>
      </trkpt>
      <trkpt lat="28.7993820" lon="-17.8594600">
        <ele>1081.2</ele>
        <time>2020-11-16T15:22:04Z</time>
      </trkpt>
      <trkpt lat="28.7993820" lon="-17.8594600">
        <ele>1081.2</ele>
        <time>2020-11-16T15:22:05Z</time>
      </trkpt>
      <trkpt lat="28.7993880" lon="-17.8594550">
        <ele>1081.1</ele>
        <time>2020-11-16T15:22:06Z</time>
      </trkpt>
      <trkpt lat="28.7993880" lon="-17.8594550">
        <ele>1081.1</ele>
        <time>2020-11-16T15:22:07Z</time>
      </trkpt>
      <trkpt lat="28.7993900" lon="-17.8594520">
        <ele>1081.0</ele>
        <time>2020-11-16T15:22:50Z</time>
      </trkpt>
      <trkpt lat="28.7993900" lon="-17.8594520">
        <ele>1081.0</ele>
        <time>2020-11-16T15:22:51Z</time>
      </trkpt>
      <trkpt lat="28.7993600" lon="-17.8595350">
        <ele>1079.9</ele>
        <time>2020-11-16T15:22:52Z</time>
      </trkpt>
      <trkpt lat="28.7993600" lon="-17.8595350">
        <ele>1079.9</ele>
        <time>2020-11-16T15:22:53Z</time>
      </trkpt>
      <trkpt lat="28.7993250" lon="-17.8596000">
        <ele>1079.0</ele>
        <time>2020-11-16T15:22:54Z</time>
      </trkpt>
      <trkpt lat="28.7993250" lon="-17.8596000">
        <ele>1079.0</ele>
        <time>2020-11-16T15:22:55Z</time>
      </trkpt>
      <trkpt lat="28.7992950" lon="-17.8596720">
        <ele>1078.2</ele>
        <time>2020-11-16T15:22:56Z</time>
      </trkpt>
      <trkpt lat="28.7992950" lon="-17.8596720">
        <ele>1078.2</ele>
        <time>2020-11-16T15:22:57Z</time>
      </trkpt>
      <trkpt lat="28.7992570" lon="-17.8597480">
        <ele>1078.0</ele>
        <time>2020-11-16T15:22:58Z</time>
      </trkpt>
      <trkpt lat="28.7992570" lon="-17.8597480">
        <ele>1078.0</ele>
        <time>2020-11-16T15:22:59Z</time>
      </trkpt>
      <trkpt lat="28.7991930" lon="-17.8598250">
        <ele>1077.8</ele>
        <time>2020-11-16T15:23:00Z</time>
      </trkpt>
      <trkpt lat="28.7991930" lon="-17.8598250">
        <ele>1077.8</ele>
        <time>2020-11-16T15:23:01Z</time>
      </trkpt>
      <trkpt lat="28.7991150" lon="-17.8599080">
        <ele>1077.6</ele>
        <time>2020-11-16T15:23:02Z</time>
      </trkpt>
      <trkpt lat="28.7991150" lon="-17.8599080">
        <ele>1077.6</ele>
        <time>2020-11-16T15:23:03Z</time>
      </trkpt>
      <trkpt lat="28.7990150" lon="-17.8599880">
        <ele>1077.4</ele>
        <time>2020-11-16T15:23:04Z</time>
      </trkpt>
      <trkpt lat="28.7990150" lon="-17.8599880">
        <ele>1077.4</ele>
        <time>2020-11-16T15:23:05Z</time>
      </trkpt>
      <trkpt lat="28.7989020" lon="-17.8600700">
        <ele>1077.2</ele>
        <time>2020-11-16T15:23:06Z</time>
      </trkpt>
      <trkpt lat="28.7988480" lon="-17.8601170">
        <ele>1077.1</ele>
        <time>2020-11-16T15:23:07Z</time>
      </trkpt>
      <trkpt lat="28.7987980" lon="-17.8601680">
        <ele>1077.0</ele>
        <time>2020-11-16T15:23:08Z</time>
      </trkpt>
      <trkpt lat="28.7987980" lon="-17.8601680">
        <ele>1077.0</ele>
        <time>2020-11-16T15:23:09Z</time>
      </trkpt>
      <trkpt lat="28.7987070" lon="-17.8602820">
        <ele>1076.8</ele>
        <time>2020-11-16T15:23:10Z</time>
      </trkpt>
      <trkpt lat="28.7987070" lon="-17.8602820">
        <ele>1076.8</ele>
        <time>2020-11-16T15:23:11Z</time>
      </trkpt>
      <trkpt lat="28.7986480" lon="-17.8604250">
        <ele>1076.5</ele>
        <time>2020-11-16T15:23:12Z</time>
      </trkpt>
      <trkpt lat="28.7986480" lon="-17.8604250">
        <ele>1076.5</ele>
        <time>2020-11-16T15:23:13Z</time>
      </trkpt>
      <trkpt lat="28.7985780" lon="-17.8605620">
        <ele>1076.1</ele>
        <time>2020-11-16T15:23:14Z</time>
      </trkpt>
      <trkpt lat="28.7985780" lon="-17.8605620">
        <ele>1076.1</ele>
        <time>2020-11-16T15:23:15Z</time>
      </trkpt>
      <trkpt lat="28.7984870" lon="-17.8606720">
        <ele>1075.7</ele>
        <time>2020-11-16T15:23:16Z</time>
      </trkpt>
      <trkpt lat="28.7984450" lon="-17.8607230">
        <ele>1075.6</ele>
        <time>2020-11-16T15:23:17Z</time>
      </trkpt>
      <trkpt lat="28.7984450" lon="-17.8607230">
        <ele>1075.6</ele>
        <time>2020-11-16T15:23:18Z</time>
      </trkpt>
      <trkpt lat="28.7984320" lon="-17.8608320">
        <ele>1075.5</ele>
        <time>2020-11-16T15:23:19Z</time>
      </trkpt>
      <trkpt lat="28.7984500" lon="-17.8608830">
        <ele>1075.4</ele>
        <time>2020-11-16T15:23:20Z</time>
      </trkpt>
      <trkpt lat="28.7984500" lon="-17.8608830">
        <ele>1075.4</ele>
        <time>2020-11-16T15:23:21Z</time>
      </trkpt>
      <trkpt lat="28.7985050" lon="-17.8609770">
        <ele>1075.3</ele>
        <time>2020-11-16T15:23:22Z</time>
      </trkpt>
      <trkpt lat="28.7985050" lon="-17.8609770">
        <ele>1075.3</ele>
        <time>2020-11-16T15:23:23Z</time>
      </trkpt>
      <trkpt lat="28.7986200" lon="-17.8610630">
        <ele>1075.2</ele>
        <time>2020-11-16T15:23:24Z</time>
      </trkpt>
      <trkpt lat="28.7986830" lon="-17.8611070">
        <ele>1075.2</ele>
        <time>2020-11-16T15:23:25Z</time>
      </trkpt>
      <trkpt lat="28.7986830" lon="-17.8611070">
        <ele>1075.2</ele>
        <time>2020-11-16T15:23:26Z</time>
      </trkpt>
      <trkpt lat="28.7988070" lon="-17.8611570">
        <ele>1075.4</ele>
        <time>2020-11-16T15:23:27Z</time>
      </trkpt>
      <trkpt lat="28.7988070" lon="-17.8611570">
        <ele>1075.4</ele>
        <time>2020-11-16T15:23:28Z</time>
      </trkpt>
      <trkpt lat="28.7989270" lon="-17.8611750">
        <ele>1075.7</ele>
        <time>2020-11-16T15:23:29Z</time>
      </trkpt>
      <trkpt lat="28.7989270" lon="-17.8611750">
        <ele>1075.7</ele>
        <time>2020-11-16T15:23:30Z</time>
      </trkpt>
      <trkpt lat="28.7990530" lon="-17.8611800">
        <ele>1075.9</ele>
        <time>2020-11-16T15:23:31Z</time>
      </trkpt>
      <trkpt lat="28.7990530" lon="-17.8611800">
        <ele>1075.9</ele>
        <time>2020-11-16T15:23:32Z</time>
      </trkpt>
      <trkpt lat="28.7991880" lon="-17.8612170">
        <ele>1076.1</ele>
        <time>2020-11-16T15:23:33Z</time>
      </trkpt>
      <trkpt lat="28.7991880" lon="-17.8612170">
        <ele>1076.1</ele>
        <time>2020-11-16T15:23:34Z</time>
      </trkpt>
      <trkpt lat="28.7993220" lon="-17.8612580">
        <ele>1076.3</ele>
        <time>2020-11-16T15:23:35Z</time>
      </trkpt>
      <trkpt lat="28.7993220" lon="-17.8612580">
        <ele>1076.3</ele>
        <time>2020-11-16T15:23:36Z</time>
      </trkpt>
      <trkpt lat="28.7994550" lon="-17.8612930">
        <ele>1076.3</ele>
        <time>2020-11-16T15:23:37Z</time>
      </trkpt>
      <trkpt lat="28.7994550" lon="-17.8612930">
        <ele>1076.3</ele>
        <time>2020-11-16T15:23:38Z</time>
      </trkpt>
      <trkpt lat="28.7995880" lon="-17.8613620">
        <ele>1076.0</ele>
        <time>2020-11-16T15:23:39Z</time>
      </trkpt>
      <trkpt lat="28.7995880" lon="-17.8613620">
        <ele>1076.0</ele>
        <time>2020-11-16T15:23:40Z</time>
      </trkpt>
      <trkpt lat="28.7996870" lon="-17.8614750">
        <ele>1075.6</ele>
        <time>2020-11-16T15:23:41Z</time>
      </trkpt>
      <trkpt lat="28.7996870" lon="-17.8614750">
        <ele>1075.6</ele>
        <time>2020-11-16T15:23:42Z</time>
      </trkpt>
      <trkpt lat="28.7998050" lon="-17.8616070">
        <ele>1074.6</ele>
        <time>2020-11-16T15:23:43Z</time>
      </trkpt>
      <trkpt lat="28.7998050" lon="-17.8616070">
        <ele>1074.6</ele>
        <time>2020-11-16T15:23:44Z</time>
      </trkpt>
      <trkpt lat="28.7999700" lon="-17.8617080">
        <ele>1072.8</ele>
        <time>2020-11-16T15:23:45Z</time>
      </trkpt>
      <trkpt lat="28.8000620" lon="-17.8617470">
        <ele>1071.8</ele>
        <time>2020-11-16T15:23:46Z</time>
      </trkpt>
      <trkpt lat="28.8000620" lon="-17.8617470">
        <ele>1071.8</ele>
        <time>2020-11-16T15:23:47Z</time>
      </trkpt>
      <trkpt lat="28.8002630" lon="-17.8617770">
        <ele>1070.0</ele>
        <time>2020-11-16T15:23:48Z</time>
      </trkpt>
      <trkpt lat="28.8003700" lon="-17.8617800">
        <ele>1069.4</ele>
        <time>2020-11-16T15:23:49Z</time>
      </trkpt>
      <trkpt lat="28.8003700" lon="-17.8617800">
        <ele>1069.4</ele>
        <time>2020-11-16T15:23:50Z</time>
      </trkpt>
      <trkpt lat="28.8005770" lon="-17.8617870">
        <ele>1068.5</ele>
        <time>2020-11-16T15:23:51Z</time>
      </trkpt>
      <trkpt lat="28.8005770" lon="-17.8617870">
        <ele>1068.5</ele>
        <time>2020-11-16T15:23:52Z</time>
      </trkpt>
      <trkpt lat="28.8006730" lon="-17.8618780">
        <ele>1068.2</ele>
        <time>2020-11-16T15:23:53Z</time>
      </trkpt>
      <trkpt lat="28.8006820" lon="-17.8619280">
        <ele>1068.0</ele>
        <time>2020-11-16T15:23:54Z</time>
      </trkpt>
      <trkpt lat="28.8006820" lon="-17.8619280">
        <ele>1068.0</ele>
        <time>2020-11-16T15:23:55Z</time>
      </trkpt>
      <trkpt lat="28.8006480" lon="-17.8620530">
        <ele>1067.8</ele>
        <time>2020-11-16T15:23:56Z</time>
      </trkpt>
      <trkpt lat="28.8006480" lon="-17.8620530">
        <ele>1067.8</ele>
        <time>2020-11-16T15:23:57Z</time>
      </trkpt>
      <trkpt lat="28.8006200" lon="-17.8621870">
        <ele>1067.5</ele>
        <time>2020-11-16T15:23:58Z</time>
      </trkpt>
      <trkpt lat="28.8006200" lon="-17.8621870">
        <ele>1067.5</ele>
        <time>2020-11-16T15:23:59Z</time>
      </trkpt>
      <trkpt lat="28.8005670" lon="-17.8622930">
        <ele>1067.2</ele>
        <time>2020-11-16T15:24:00Z</time>
      </trkpt>
      <trkpt lat="28.8005250" lon="-17.8623450">
        <ele>1067.1</ele>
        <time>2020-11-16T15:24:01Z</time>
      </trkpt>
      <trkpt lat="28.8004730" lon="-17.8623870">
        <ele>1067.0</ele>
        <time>2020-11-16T15:24:02Z</time>
      </trkpt>
      <trkpt lat="28.8004730" lon="-17.8623870">
        <ele>1067.0</ele>
        <time>2020-11-16T15:24:03Z</time>
      </trkpt>
      <trkpt lat="28.8003700" lon="-17.8624630">
        <ele>1066.7</ele>
        <time>2020-11-16T15:24:04Z</time>
      </trkpt>
      <trkpt lat="28.8003150" lon="-17.8624970">
        <ele>1066.6</ele>
        <time>2020-11-16T15:24:05Z</time>
      </trkpt>
      <trkpt lat="28.8003150" lon="-17.8624970">
        <ele>1066.6</ele>
        <time>2020-11-16T15:24:06Z</time>
      </trkpt>
      <trkpt lat="28.8001880" lon="-17.8625470">
        <ele>1066.4</ele>
        <time>2020-11-16T15:24:07Z</time>
      </trkpt>
      <trkpt lat="28.8001880" lon="-17.8625470">
        <ele>1066.4</ele>
        <time>2020-11-16T15:24:08Z</time>
      </trkpt>
      <trkpt lat="28.8000530" lon="-17.8625700">
        <ele>1066.1</ele>
        <time>2020-11-16T15:24:09Z</time>
      </trkpt>
      <trkpt lat="28.8000530" lon="-17.8625700">
        <ele>1066.1</ele>
        <time>2020-11-16T15:24:10Z</time>
      </trkpt>
      <trkpt lat="28.7999230" lon="-17.8625900">
        <ele>1065.8</ele>
        <time>2020-11-16T15:24:11Z</time>
      </trkpt>
      <trkpt lat="28.7999230" lon="-17.8625900">
        <ele>1065.8</ele>
        <time>2020-11-16T15:24:12Z</time>
      </trkpt>
      <trkpt lat="28.7997970" lon="-17.8626180">
        <ele>1065.4</ele>
        <time>2020-11-16T15:24:13Z</time>
      </trkpt>
      <trkpt lat="28.7997330" lon="-17.8626320">
        <ele>1065.1</ele>
        <time>2020-11-16T15:24:14Z</time>
      </trkpt>
      <trkpt lat="28.7997330" lon="-17.8626320">
        <ele>1065.1</ele>
        <time>2020-11-16T15:24:15Z</time>
      </trkpt>
      <trkpt lat="28.7996030" lon="-17.8626730">
        <ele>1064.3</ele>
        <time>2020-11-16T15:24:16Z</time>
      </trkpt>
      <trkpt lat="28.7995330" lon="-17.8626920">
        <ele>1063.8</ele>
        <time>2020-11-16T15:24:17Z</time>
      </trkpt>
      <trkpt lat="28.7994680" lon="-17.8627070">
        <ele>1063.3</ele>
        <time>2020-11-16T15:24:18Z</time>
      </trkpt>
      <trkpt lat="28.7994680" lon="-17.8627070">
        <ele>1063.3</ele>
        <time>2020-11-16T15:24:19Z</time>
      </trkpt>
      <trkpt lat="28.7993500" lon="-17.8627580">
        <ele>1062.4</ele>
        <time>2020-11-16T15:24:20Z</time>
      </trkpt>
      <trkpt lat="28.7993280" lon="-17.8628050">
        <ele>1061.9</ele>
        <time>2020-11-16T15:24:21Z</time>
      </trkpt>
      <trkpt lat="28.7993280" lon="-17.8628050">
        <ele>1061.9</ele>
        <time>2020-11-16T15:24:22Z</time>
      </trkpt>
      <trkpt lat="28.7993670" lon="-17.8629230">
        <ele>1060.9</ele>
        <time>2020-11-16T15:24:23Z</time>
      </trkpt>
      <trkpt lat="28.7993670" lon="-17.8629230">
        <ele>1060.9</ele>
        <time>2020-11-16T15:24:24Z</time>
      </trkpt>
      <trkpt lat="28.7994300" lon="-17.8630470">
        <ele>1059.7</ele>
        <time>2020-11-16T15:24:25Z</time>
      </trkpt>
      <trkpt lat="28.7994300" lon="-17.8630470">
        <ele>1059.7</ele>
        <time>2020-11-16T15:24:26Z</time>
      </trkpt>
      <trkpt lat="28.7995620" lon="-17.8631600">
        <ele>1058.1</ele>
        <time>2020-11-16T15:24:27Z</time>
      </trkpt>
      <trkpt lat="28.7996300" lon="-17.8632020">
        <ele>1057.3</ele>
        <time>2020-11-16T15:24:28Z</time>
      </trkpt>
      <trkpt lat="28.7996300" lon="-17.8632020">
        <ele>1057.3</ele>
        <time>2020-11-16T15:24:29Z</time>
      </trkpt>
      <trkpt lat="28.7997630" lon="-17.8632800">
        <ele>1055.6</ele>
        <time>2020-11-16T15:24:30Z</time>
      </trkpt>
      <trkpt lat="28.7997630" lon="-17.8632800">
        <ele>1055.6</ele>
        <time>2020-11-16T15:24:31Z</time>
      </trkpt>
      <trkpt lat="28.7999820" lon="-17.8633130">
        <ele>1052.9</ele>
        <time>2020-11-16T15:24:32Z</time>
      </trkpt>
      <trkpt lat="28.7999820" lon="-17.8633130">
        <ele>1052.9</ele>
        <time>2020-11-16T15:24:33Z</time>
      </trkpt>
      <trkpt lat="28.8002170" lon="-17.8633800">
        <ele>1049.7</ele>
        <time>2020-11-16T15:24:34Z</time>
      </trkpt>
      <trkpt lat="28.8002170" lon="-17.8633800">
        <ele>1049.7</ele>
        <time>2020-11-16T15:24:35Z</time>
      </trkpt>
      <trkpt lat="28.8004480" lon="-17.8634250">
        <ele>1046.7</ele>
        <time>2020-11-16T15:24:36Z</time>
      </trkpt>
      <trkpt lat="28.8004480" lon="-17.8634250">
        <ele>1046.7</ele>
        <time>2020-11-16T15:24:37Z</time>
      </trkpt>
      <trkpt lat="28.8006850" lon="-17.8634650">
        <ele>1044.1</ele>
        <time>2020-11-16T15:24:38Z</time>
      </trkpt>
      <trkpt lat="28.8006850" lon="-17.8634650">
        <ele>1044.1</ele>
        <time>2020-11-16T15:24:39Z</time>
      </trkpt>
      <trkpt lat="28.8009350" lon="-17.8635380">
        <ele>1041.5</ele>
        <time>2020-11-16T15:24:40Z</time>
      </trkpt>
      <trkpt lat="28.8009350" lon="-17.8635380">
        <ele>1041.5</ele>
        <time>2020-11-16T15:24:41Z</time>
      </trkpt>
      <trkpt lat="28.8011750" lon="-17.8636320">
        <ele>1039.3</ele>
        <time>2020-11-16T15:24:42Z</time>
      </trkpt>
      <trkpt lat="28.8011750" lon="-17.8636320">
        <ele>1039.3</ele>
        <time>2020-11-16T15:24:43Z</time>
      </trkpt>
      <trkpt lat="28.8013880" lon="-17.8637070">
        <ele>1037.6</ele>
        <time>2020-11-16T15:24:44Z</time>
      </trkpt>
      <trkpt lat="28.8013880" lon="-17.8637070">
        <ele>1037.6</ele>
        <time>2020-11-16T15:24:45Z</time>
      </trkpt>
      <trkpt lat="28.8015630" lon="-17.8637900">
        <ele>1036.3</ele>
        <time>2020-11-16T15:24:46Z</time>
      </trkpt>
      <trkpt lat="28.8015630" lon="-17.8637900">
        <ele>1036.3</ele>
        <time>2020-11-16T15:24:47Z</time>
      </trkpt>
      <trkpt lat="28.8016530" lon="-17.8639120">
        <ele>1035.4</ele>
        <time>2020-11-16T15:24:48Z</time>
      </trkpt>
      <trkpt lat="28.8016530" lon="-17.8639120">
        <ele>1035.4</ele>
        <time>2020-11-16T15:24:49Z</time>
      </trkpt>
      <trkpt lat="28.8016080" lon="-17.8640250">
        <ele>1034.6</ele>
        <time>2020-11-16T15:24:50Z</time>
      </trkpt>
      <trkpt lat="28.8016080" lon="-17.8640250">
        <ele>1034.6</ele>
        <time>2020-11-16T15:24:51Z</time>
      </trkpt>
      <trkpt lat="28.8015030" lon="-17.8640400">
        <ele>1034.3</ele>
        <time>2020-11-16T15:24:52Z</time>
      </trkpt>
      <trkpt lat="28.8015030" lon="-17.8640400">
        <ele>1034.3</ele>
        <time>2020-11-16T15:24:53Z</time>
      </trkpt>
      <trkpt lat="28.8013820" lon="-17.8640200">
        <ele>1033.8</ele>
        <time>2020-11-16T15:24:54Z</time>
      </trkpt>
      <trkpt lat="28.8013820" lon="-17.8640200">
        <ele>1033.8</ele>
        <time>2020-11-16T15:24:55Z</time>
      </trkpt>
      <trkpt lat="28.8012250" lon="-17.8640120">
        <ele>1033.1</ele>
        <time>2020-11-16T15:24:56Z</time>
      </trkpt>
      <trkpt lat="28.8012250" lon="-17.8640120">
        <ele>1033.1</ele>
        <time>2020-11-16T15:24:57Z</time>
      </trkpt>
      <trkpt lat="28.8010730" lon="-17.8640600">
        <ele>1032.4</ele>
        <time>2020-11-16T15:24:58Z</time>
      </trkpt>
      <trkpt lat="28.8010730" lon="-17.8640600">
        <ele>1032.4</ele>
        <time>2020-11-16T15:24:59Z</time>
      </trkpt>
      <trkpt lat="28.8009170" lon="-17.8641030">
        <ele>1032.1</ele>
        <time>2020-11-16T15:25:00Z</time>
      </trkpt>
      <trkpt lat="28.8009170" lon="-17.8641030">
        <ele>1032.1</ele>
        <time>2020-11-16T15:25:01Z</time>
      </trkpt>
      <trkpt lat="28.8007470" lon="-17.8641720">
        <ele>1032.2</ele>
        <time>2020-11-16T15:25:02Z</time>
      </trkpt>
      <trkpt lat="28.8007470" lon="-17.8641720">
        <ele>1032.2</ele>
        <time>2020-11-16T15:25:03Z</time>
      </trkpt>
      <trkpt lat="28.8005950" lon="-17.8642780">
        <ele>1032.5</ele>
        <time>2020-11-16T15:25:04Z</time>
      </trkpt>
      <trkpt lat="28.8005950" lon="-17.8642780">
        <ele>1032.5</ele>
        <time>2020-11-16T15:25:05Z</time>
      </trkpt>
      <trkpt lat="28.8004850" lon="-17.8644000">
        <ele>1033.1</ele>
        <time>2020-11-16T15:25:06Z</time>
      </trkpt>
      <trkpt lat="28.8004850" lon="-17.8644000">
        <ele>1033.1</ele>
        <time>2020-11-16T15:25:07Z</time>
      </trkpt>
      <trkpt lat="28.8003980" lon="-17.8645000">
        <ele>1033.5</ele>
        <time>2020-11-16T15:25:08Z</time>
      </trkpt>
      <trkpt lat="28.8003980" lon="-17.8645000">
        <ele>1033.5</ele>
        <time>2020-11-16T15:25:09Z</time>
      </trkpt>
      <trkpt lat="28.8003570" lon="-17.8645830">
        <ele>1033.8</ele>
        <time>2020-11-16T15:25:10Z</time>
      </trkpt>
      <trkpt lat="28.8003570" lon="-17.8645830">
        <ele>1033.8</ele>
        <time>2020-11-16T15:25:11Z</time>
      </trkpt>
      <trkpt lat="28.8003780" lon="-17.8646270">
        <ele>1033.9</ele>
        <time>2020-11-16T15:25:12Z</time>
      </trkpt>
      <trkpt lat="28.8003780" lon="-17.8646270">
        <ele>1033.9</ele>
        <time>2020-11-16T15:25:13Z</time>
      </trkpt>
      <trkpt lat="28.8004350" lon="-17.8646350">
        <ele>1034.0</ele>
        <time>2020-11-16T15:25:14Z</time>
      </trkpt>
      <trkpt lat="28.8004350" lon="-17.8646350">
        <ele>1034.0</ele>
        <time>2020-11-16T15:25:15Z</time>
      </trkpt>
      <trkpt lat="28.8005220" lon="-17.8646150">
        <ele>1034.0</ele>
        <time>2020-11-16T15:25:16Z</time>
      </trkpt>
      <trkpt lat="28.8005220" lon="-17.8646150">
        <ele>1034.0</ele>
        <time>2020-11-16T15:25:17Z</time>
      </trkpt>
      <trkpt lat="28.8006150" lon="-17.8645870">
        <ele>1033.6</ele>
        <time>2020-11-16T15:25:18Z</time>
      </trkpt>
      <trkpt lat="28.8006150" lon="-17.8645870">
        <ele>1033.6</ele>
        <time>2020-11-16T15:25:19Z</time>
      </trkpt>
      <trkpt lat="28.8007400" lon="-17.8645530">
        <ele>1032.9</ele>
        <time>2020-11-16T15:25:20Z</time>
      </trkpt>
      <trkpt lat="28.8007400" lon="-17.8645530">
        <ele>1032.9</ele>
        <time>2020-11-16T15:25:21Z</time>
      </trkpt>
      <trkpt lat="28.8009320" lon="-17.8645330">
        <ele>1031.3</ele>
        <time>2020-11-16T15:25:22Z</time>
      </trkpt>
      <trkpt lat="28.8009320" lon="-17.8645330">
        <ele>1031.3</ele>
        <time>2020-11-16T15:25:23Z</time>
      </trkpt>
      <trkpt lat="28.8011130" lon="-17.8645980">
        <ele>1029.2</ele>
        <time>2020-11-16T15:25:24Z</time>
      </trkpt>
      <trkpt lat="28.8011130" lon="-17.8645980">
        <ele>1029.2</ele>
        <time>2020-11-16T15:25:25Z</time>
      </trkpt>
      <trkpt lat="28.8013120" lon="-17.8647270">
        <ele>1026.8</ele>
        <time>2020-11-16T15:25:26Z</time>
      </trkpt>
      <trkpt lat="28.8013120" lon="-17.8647270">
        <ele>1026.8</ele>
        <time>2020-11-16T15:25:27Z</time>
      </trkpt>
      <trkpt lat="28.8015030" lon="-17.8648630">
        <ele>1025.2</ele>
        <time>2020-11-16T15:25:28Z</time>
      </trkpt>
      <trkpt lat="28.8015030" lon="-17.8648630">
        <ele>1025.2</ele>
        <time>2020-11-16T15:25:29Z</time>
      </trkpt>
      <trkpt lat="28.8016880" lon="-17.8649430">
        <ele>1024.1</ele>
        <time>2020-11-16T15:25:30Z</time>
      </trkpt>
      <trkpt lat="28.8016880" lon="-17.8649430">
        <ele>1024.1</ele>
        <time>2020-11-16T15:25:31Z</time>
      </trkpt>
      <trkpt lat="28.8018920" lon="-17.8649550">
        <ele>1022.9</ele>
        <time>2020-11-16T15:25:32Z</time>
      </trkpt>
      <trkpt lat="28.8018920" lon="-17.8649550">
        <ele>1022.9</ele>
        <time>2020-11-16T15:25:33Z</time>
      </trkpt>
      <trkpt lat="28.8020950" lon="-17.8649430">
        <ele>1021.4</ele>
        <time>2020-11-16T15:25:34Z</time>
      </trkpt>
      <trkpt lat="28.8020950" lon="-17.8649430">
        <ele>1021.4</ele>
        <time>2020-11-16T15:25:35Z</time>
      </trkpt>
      <trkpt lat="28.8023080" lon="-17.8650000">
        <ele>1019.7</ele>
        <time>2020-11-16T15:25:36Z</time>
      </trkpt>
      <trkpt lat="28.8023080" lon="-17.8650000">
        <ele>1019.7</ele>
        <time>2020-11-16T15:25:37Z</time>
      </trkpt>
      <trkpt lat="28.8025220" lon="-17.8650680">
        <ele>1018.0</ele>
        <time>2020-11-16T15:25:38Z</time>
      </trkpt>
      <trkpt lat="28.8025220" lon="-17.8650680">
        <ele>1018.0</ele>
        <time>2020-11-16T15:25:39Z</time>
      </trkpt>
      <trkpt lat="28.8027230" lon="-17.8650920">
        <ele>1016.3</ele>
        <time>2020-11-16T15:25:40Z</time>
      </trkpt>
      <trkpt lat="28.8027230" lon="-17.8650920">
        <ele>1016.3</ele>
        <time>2020-11-16T15:25:41Z</time>
      </trkpt>
      <trkpt lat="28.8028800" lon="-17.8652020">
        <ele>1014.7</ele>
        <time>2020-11-16T15:25:42Z</time>
      </trkpt>
      <trkpt lat="28.8029470" lon="-17.8652900">
        <ele>1013.8</ele>
        <time>2020-11-16T15:25:43Z</time>
      </trkpt>
      <trkpt lat="28.8029470" lon="-17.8652900">
        <ele>1013.8</ele>
        <time>2020-11-16T15:25:44Z</time>
      </trkpt>
      <trkpt lat="28.8030600" lon="-17.8654870">
        <ele>1012.0</ele>
        <time>2020-11-16T15:25:45Z</time>
      </trkpt>
      <trkpt lat="28.8030600" lon="-17.8654870">
        <ele>1012.0</ele>
        <time>2020-11-16T15:25:46Z</time>
      </trkpt>
      <trkpt lat="28.8031130" lon="-17.8656430">
        <ele>1010.7</ele>
        <time>2020-11-16T15:25:47Z</time>
      </trkpt>
      <trkpt lat="28.8031130" lon="-17.8656430">
        <ele>1010.7</ele>
        <time>2020-11-16T15:25:48Z</time>
      </trkpt>
      <trkpt lat="28.8030680" lon="-17.8657870">
        <ele>1009.5</ele>
        <time>2020-11-16T15:25:49Z</time>
      </trkpt>
      <trkpt lat="28.8029950" lon="-17.8658450">
        <ele>1008.7</ele>
        <time>2020-11-16T15:25:50Z</time>
      </trkpt>
      <trkpt lat="28.8029950" lon="-17.8658450">
        <ele>1008.7</ele>
        <time>2020-11-16T15:25:51Z</time>
      </trkpt>
      <trkpt lat="28.8028620" lon="-17.8659820">
        <ele>1007.7</ele>
        <time>2020-11-16T15:25:52Z</time>
      </trkpt>
      <trkpt lat="28.8028450" lon="-17.8660600">
        <ele>1007.4</ele>
        <time>2020-11-16T15:25:53Z</time>
      </trkpt>
      <trkpt lat="28.8028450" lon="-17.8660600">
        <ele>1007.4</ele>
        <time>2020-11-16T15:25:54Z</time>
      </trkpt>
      <trkpt lat="28.8028970" lon="-17.8661420">
        <ele>1007.2</ele>
        <time>2020-11-16T15:25:55Z</time>
      </trkpt>
      <trkpt lat="28.8028970" lon="-17.8661420">
        <ele>1007.2</ele>
        <time>2020-11-16T15:25:56Z</time>
      </trkpt>
      <trkpt lat="28.8029780" lon="-17.8661730">
        <ele>1007.2</ele>
        <time>2020-11-16T15:25:57Z</time>
      </trkpt>
      <trkpt lat="28.8029780" lon="-17.8661730">
        <ele>1007.2</ele>
        <time>2020-11-16T15:25:58Z</time>
      </trkpt>
      <trkpt lat="28.8030680" lon="-17.8662350">
        <ele>1007.2</ele>
        <time>2020-11-16T15:25:59Z</time>
      </trkpt>
      <trkpt lat="28.8030680" lon="-17.8662350">
        <ele>1007.2</ele>
        <time>2020-11-16T15:26:00Z</time>
      </trkpt>
      <trkpt lat="28.8031300" lon="-17.8663580">
        <ele>1007.4</ele>
        <time>2020-11-16T15:26:01Z</time>
      </trkpt>
      <trkpt lat="28.8031300" lon="-17.8663580">
        <ele>1007.4</ele>
        <time>2020-11-16T15:26:02Z</time>
      </trkpt>
      <trkpt lat="28.8031980" lon="-17.8664870">
        <ele>1008.1</ele>
        <time>2020-11-16T15:26:03Z</time>
      </trkpt>
      <trkpt lat="28.8031980" lon="-17.8664870">
        <ele>1008.1</ele>
        <time>2020-11-16T15:26:04Z</time>
      </trkpt>
      <trkpt lat="28.8032980" lon="-17.8665730">
        <ele>1009.1</ele>
        <time>2020-11-16T15:26:05Z</time>
      </trkpt>
      <trkpt lat="28.8032980" lon="-17.8665730">
        <ele>1009.1</ele>
        <time>2020-11-16T15:26:06Z</time>
      </trkpt>
      <trkpt lat="28.8034070" lon="-17.8666130">
        <ele>1010.1</ele>
        <time>2020-11-16T15:26:07Z</time>
      </trkpt>
      <trkpt lat="28.8034600" lon="-17.8666300">
        <ele>1010.7</ele>
        <time>2020-11-16T15:26:08Z</time>
      </trkpt>
      <trkpt lat="28.8034600" lon="-17.8666300">
        <ele>1010.7</ele>
        <time>2020-11-16T15:26:09Z</time>
      </trkpt>
      <trkpt lat="28.8035650" lon="-17.8666730">
        <ele>1011.9</ele>
        <time>2020-11-16T15:26:10Z</time>
      </trkpt>
      <trkpt lat="28.8035650" lon="-17.8666730">
        <ele>1011.9</ele>
        <time>2020-11-16T15:26:11Z</time>
      </trkpt>
      <trkpt lat="28.8036550" lon="-17.8667150">
        <ele>1012.9</ele>
        <time>2020-11-16T15:26:12Z</time>
      </trkpt>
      <trkpt lat="28.8036550" lon="-17.8667150">
        <ele>1012.9</ele>
        <time>2020-11-16T15:26:13Z</time>
      </trkpt>
      <trkpt lat="28.8037380" lon="-17.8667600">
        <ele>1013.8</ele>
        <time>2020-11-16T15:26:14Z</time>
      </trkpt>
      <trkpt lat="28.8037380" lon="-17.8667600">
        <ele>1013.8</ele>
        <time>2020-11-16T15:26:15Z</time>
      </trkpt>
      <trkpt lat="28.8038170" lon="-17.8668100">
        <ele>1014.6</ele>
        <time>2020-11-16T15:26:16Z</time>
      </trkpt>
      <trkpt lat="28.8038170" lon="-17.8668100">
        <ele>1014.6</ele>
        <time>2020-11-16T15:26:17Z</time>
      </trkpt>
      <trkpt lat="28.8039000" lon="-17.8668600">
        <ele>1015.3</ele>
        <time>2020-11-16T15:26:18Z</time>
      </trkpt>
      <trkpt lat="28.8039000" lon="-17.8668600">
        <ele>1015.3</ele>
        <time>2020-11-16T15:26:19Z</time>
      </trkpt>
      <trkpt lat="28.8039830" lon="-17.8669180">
        <ele>1015.8</ele>
        <time>2020-11-16T15:26:20Z</time>
      </trkpt>
      <trkpt lat="28.8039830" lon="-17.8669180">
        <ele>1015.8</ele>
        <time>2020-11-16T15:26:21Z</time>
      </trkpt>
      <trkpt lat="28.8040600" lon="-17.8669830">
        <ele>1016.3</ele>
        <time>2020-11-16T15:26:22Z</time>
      </trkpt>
      <trkpt lat="28.8040600" lon="-17.8669830">
        <ele>1016.3</ele>
        <time>2020-11-16T15:26:23Z</time>
      </trkpt>
      <trkpt lat="28.8041330" lon="-17.8670580">
        <ele>1016.6</ele>
        <time>2020-11-16T15:26:24Z</time>
      </trkpt>
      <trkpt lat="28.8041330" lon="-17.8670580">
        <ele>1016.6</ele>
        <time>2020-11-16T15:26:25Z</time>
      </trkpt>
      <trkpt lat="28.8041870" lon="-17.8671430">
        <ele>1016.7</ele>
        <time>2020-11-16T15:26:26Z</time>
      </trkpt>
      <trkpt lat="28.8041870" lon="-17.8671430">
        <ele>1016.7</ele>
        <time>2020-11-16T15:26:27Z</time>
      </trkpt>
      <trkpt lat="28.8042320" lon="-17.8672350">
        <ele>1016.8</ele>
        <time>2020-11-16T15:26:28Z</time>
      </trkpt>
      <trkpt lat="28.8042550" lon="-17.8672820">
        <ele>1016.8</ele>
        <time>2020-11-16T15:26:29Z</time>
      </trkpt>
      <trkpt lat="28.8042550" lon="-17.8672820">
        <ele>1016.8</ele>
        <time>2020-11-16T15:26:30Z</time>
      </trkpt>
      <trkpt lat="28.8043130" lon="-17.8673800">
        <ele>1016.9</ele>
        <time>2020-11-16T15:26:31Z</time>
      </trkpt>
      <trkpt lat="28.8043130" lon="-17.8673800">
        <ele>1016.9</ele>
        <time>2020-11-16T15:26:32Z</time>
      </trkpt>
      <trkpt lat="28.8043830" lon="-17.8674670">
        <ele>1016.9</ele>
        <time>2020-11-16T15:26:33Z</time>
      </trkpt>
      <trkpt lat="28.8043830" lon="-17.8674670">
        <ele>1016.9</ele>
        <time>2020-11-16T15:26:34Z</time>
      </trkpt>
      <trkpt lat="28.8044450" lon="-17.8675550">
        <ele>1016.8</ele>
        <time>2020-11-16T15:26:35Z</time>
      </trkpt>
      <trkpt lat="28.8044450" lon="-17.8675550">
        <ele>1016.8</ele>
        <time>2020-11-16T15:26:36Z</time>
      </trkpt>
      <trkpt lat="28.8044250" lon="-17.8676730">
        <ele>1016.3</ele>
        <time>2020-11-16T15:26:37Z</time>
      </trkpt>
      <trkpt lat="28.8043850" lon="-17.8677200">
        <ele>1016.0</ele>
        <time>2020-11-16T15:26:38Z</time>
      </trkpt>
      <trkpt lat="28.8043850" lon="-17.8677200">
        <ele>1016.0</ele>
        <time>2020-11-16T15:26:39Z</time>
      </trkpt>
      <trkpt lat="28.8042530" lon="-17.8677300">
        <ele>1015.0</ele>
        <time>2020-11-16T15:26:40Z</time>
      </trkpt>
      <trkpt lat="28.8042530" lon="-17.8677300">
        <ele>1015.0</ele>
        <time>2020-11-16T15:26:41Z</time>
      </trkpt>
      <trkpt lat="28.8041080" lon="-17.8677170">
        <ele>1013.8</ele>
        <time>2020-11-16T15:26:42Z</time>
      </trkpt>
      <trkpt lat="28.8041080" lon="-17.8677170">
        <ele>1013.8</ele>
        <time>2020-11-16T15:26:43Z</time>
      </trkpt>
      <trkpt lat="28.8039730" lon="-17.8677600">
        <ele>1012.9</ele>
        <time>2020-11-16T15:26:44Z</time>
      </trkpt>
      <trkpt lat="28.8039730" lon="-17.8677600">
        <ele>1012.9</ele>
        <time>2020-11-16T15:26:45Z</time>
      </trkpt>
      <trkpt lat="28.8038130" lon="-17.8678370">
        <ele>1012.0</ele>
        <time>2020-11-16T15:26:46Z</time>
      </trkpt>
      <trkpt lat="28.8038130" lon="-17.8678370">
        <ele>1012.0</ele>
        <time>2020-11-16T15:26:47Z</time>
      </trkpt>
      <trkpt lat="28.8036330" lon="-17.8678670">
        <ele>1011.3</ele>
        <time>2020-11-16T15:26:48Z</time>
      </trkpt>
      <trkpt lat="28.8035430" lon="-17.8678620">
        <ele>1011.1</ele>
        <time>2020-11-16T15:26:49Z</time>
      </trkpt>
      <trkpt lat="28.8035430" lon="-17.8678620">
        <ele>1011.1</ele>
        <time>2020-11-16T15:26:50Z</time>
      </trkpt>
      <trkpt lat="28.8033700" lon="-17.8678650">
        <ele>1010.7</ele>
        <time>2020-11-16T15:26:51Z</time>
      </trkpt>
      <trkpt lat="28.8033700" lon="-17.8678650">
        <ele>1010.7</ele>
        <time>2020-11-16T15:26:52Z</time>
      </trkpt>
      <trkpt lat="28.8032170" lon="-17.8679270">
        <ele>1010.3</ele>
        <time>2020-11-16T15:26:53Z</time>
      </trkpt>
      <trkpt lat="28.8032170" lon="-17.8679270">
        <ele>1010.3</ele>
        <time>2020-11-16T15:26:54Z</time>
      </trkpt>
      <trkpt lat="28.8030970" lon="-17.8680080">
        <ele>1009.5</ele>
        <time>2020-11-16T15:26:55Z</time>
      </trkpt>
      <trkpt lat="28.8030970" lon="-17.8680080">
        <ele>1009.5</ele>
        <time>2020-11-16T15:26:56Z</time>
      </trkpt>
      <trkpt lat="28.8030620" lon="-17.8681520">
        <ele>1007.2</ele>
        <time>2020-11-16T15:26:57Z</time>
      </trkpt>
      <trkpt lat="28.8030620" lon="-17.8681520">
        <ele>1007.2</ele>
        <time>2020-11-16T15:26:58Z</time>
      </trkpt>
      <trkpt lat="28.8031520" lon="-17.8682620">
        <ele>1005.1</ele>
        <time>2020-11-16T15:26:59Z</time>
      </trkpt>
      <trkpt lat="28.8031520" lon="-17.8682620">
        <ele>1005.1</ele>
        <time>2020-11-16T15:27:00Z</time>
      </trkpt>
      <trkpt lat="28.8032380" lon="-17.8683520">
        <ele>1003.5</ele>
        <time>2020-11-16T15:27:01Z</time>
      </trkpt>
      <trkpt lat="28.8032380" lon="-17.8683520">
        <ele>1003.5</ele>
        <time>2020-11-16T15:27:02Z</time>
      </trkpt>
      <trkpt lat="28.8033080" lon="-17.8684420">
        <ele>1002.2</ele>
        <time>2020-11-16T15:27:03Z</time>
      </trkpt>
      <trkpt lat="28.8033080" lon="-17.8684420">
        <ele>1002.2</ele>
        <time>2020-11-16T15:27:04Z</time>
      </trkpt>
      <trkpt lat="28.8033620" lon="-17.8685200">
        <ele>1001.4</ele>
        <time>2020-11-16T15:27:05Z</time>
      </trkpt>
      <trkpt lat="28.8033620" lon="-17.8685200">
        <ele>1001.4</ele>
        <time>2020-11-16T15:27:06Z</time>
      </trkpt>
      <trkpt lat="28.8034020" lon="-17.8685870">
        <ele>1000.7</ele>
        <time>2020-11-16T15:27:07Z</time>
      </trkpt>
      <trkpt lat="28.8034020" lon="-17.8685870">
        <ele>1000.7</ele>
        <time>2020-11-16T15:27:08Z</time>
      </trkpt>
      <trkpt lat="28.8034400" lon="-17.8686500">
        <ele>1000.2</ele>
        <time>2020-11-16T15:27:09Z</time>
      </trkpt>
      <trkpt lat="28.8034400" lon="-17.8686500">
        <ele>1000.2</ele>
        <time>2020-11-16T15:27:10Z</time>
      </trkpt>
      <trkpt lat="28.8034700" lon="-17.8687180">
        <ele>999.6</ele>
        <time>2020-11-16T15:27:11Z</time>
      </trkpt>
      <trkpt lat="28.8034700" lon="-17.8687180">
        <ele>999.6</ele>
        <time>2020-11-16T15:27:12Z</time>
      </trkpt>
      <trkpt lat="28.8034880" lon="-17.8687900">
        <ele>999.0</ele>
        <time>2020-11-16T15:27:13Z</time>
      </trkpt>
      <trkpt lat="28.8034900" lon="-17.8688270">
        <ele>998.7</ele>
        <time>2020-11-16T15:27:14Z</time>
      </trkpt>
      <trkpt lat="28.8034900" lon="-17.8688270">
        <ele>998.7</ele>
        <time>2020-11-16T15:27:15Z</time>
      </trkpt>
      <trkpt lat="28.8034680" lon="-17.8688920">
        <ele>998.8</ele>
        <time>2020-11-16T15:27:16Z</time>
      </trkpt>
      <trkpt lat="28.8034680" lon="-17.8688920">
        <ele>998.8</ele>
        <time>2020-11-16T15:27:17Z</time>
      </trkpt>
      <trkpt lat="28.8034180" lon="-17.8689420">
        <ele>999.2</ele>
        <time>2020-11-16T15:27:18Z</time>
      </trkpt>
      <trkpt lat="28.8034180" lon="-17.8689420">
        <ele>999.2</ele>
        <time>2020-11-16T15:27:19Z</time>
      </trkpt>
      <trkpt lat="28.8033620" lon="-17.8689920">
        <ele>999.6</ele>
        <time>2020-11-16T15:27:20Z</time>
      </trkpt>
      <trkpt lat="28.8033620" lon="-17.8689920">
        <ele>999.6</ele>
        <time>2020-11-16T15:27:21Z</time>
      </trkpt>
      <trkpt lat="28.8033030" lon="-17.8690550">
        <ele>1000.0</ele>
        <time>2020-11-16T15:27:22Z</time>
      </trkpt>
      <trkpt lat="28.8033030" lon="-17.8690550">
        <ele>1000.0</ele>
        <time>2020-11-16T15:27:23Z</time>
      </trkpt>
      <trkpt lat="28.8032620" lon="-17.8691280">
        <ele>1000.5</ele>
        <time>2020-11-16T15:27:24Z</time>
      </trkpt>
      <trkpt lat="28.8032620" lon="-17.8691280">
        <ele>1000.5</ele>
        <time>2020-11-16T15:27:25Z</time>
      </trkpt>
      <trkpt lat="28.8032500" lon="-17.8692130">
        <ele>1001.0</ele>
        <time>2020-11-16T15:27:26Z</time>
      </trkpt>
      <trkpt lat="28.8032500" lon="-17.8692130">
        <ele>1001.0</ele>
        <time>2020-11-16T15:27:27Z</time>
      </trkpt>
      <trkpt lat="28.8032850" lon="-17.8692880">
        <ele>1001.5</ele>
        <time>2020-11-16T15:27:28Z</time>
      </trkpt>
      <trkpt lat="28.8032850" lon="-17.8692880">
        <ele>1001.5</ele>
        <time>2020-11-16T15:27:29Z</time>
      </trkpt>
      <trkpt lat="28.8033470" lon="-17.8693320">
        <ele>1002.1</ele>
        <time>2020-11-16T15:27:30Z</time>
      </trkpt>
      <trkpt lat="28.8033470" lon="-17.8693320">
        <ele>1002.1</ele>
        <time>2020-11-16T15:27:31Z</time>
      </trkpt>
      <trkpt lat="28.8034080" lon="-17.8693570">
        <ele>1002.7</ele>
        <time>2020-11-16T15:27:32Z</time>
      </trkpt>
      <trkpt lat="28.8034080" lon="-17.8693570">
        <ele>1002.7</ele>
        <time>2020-11-16T15:27:33Z</time>
      </trkpt>
      <trkpt lat="28.8034620" lon="-17.8693800">
        <ele>1003.2</ele>
        <time>2020-11-16T15:27:34Z</time>
      </trkpt>
      <trkpt lat="28.8034620" lon="-17.8693800">
        <ele>1003.2</ele>
        <time>2020-11-16T15:27:35Z</time>
      </trkpt>
      <trkpt lat="28.8035120" lon="-17.8694050">
        <ele>1003.8</ele>
        <time>2020-11-16T15:27:36Z</time>
      </trkpt>
      <trkpt lat="28.8035120" lon="-17.8694050">
        <ele>1003.8</ele>
        <time>2020-11-16T15:27:37Z</time>
      </trkpt>
      <trkpt lat="28.8035420" lon="-17.8694420">
        <ele>1004.3</ele>
        <time>2020-11-16T15:27:38Z</time>
      </trkpt>
      <trkpt lat="28.8035420" lon="-17.8694420">
        <ele>1004.3</ele>
        <time>2020-11-16T15:27:39Z</time>
      </trkpt>
      <trkpt lat="28.8035700" lon="-17.8694830">
        <ele>1004.2</ele>
        <time>2020-11-16T15:27:40Z</time>
      </trkpt>
      <trkpt lat="28.8035700" lon="-17.8694830">
        <ele>1004.2</ele>
        <time>2020-11-16T15:27:41Z</time>
      </trkpt>
      <trkpt lat="28.8036020" lon="-17.8695200">
        <ele>1003.9</ele>
        <time>2020-11-16T15:27:42Z</time>
      </trkpt>
      <trkpt lat="28.8036020" lon="-17.8695200">
        <ele>1003.9</ele>
        <time>2020-11-16T15:27:43Z</time>
      </trkpt>
      <trkpt lat="28.8036250" lon="-17.8695620">
        <ele>1003.7</ele>
        <time>2020-11-16T15:27:44Z</time>
      </trkpt>
      <trkpt lat="28.8036250" lon="-17.8695620">
        <ele>1003.7</ele>
        <time>2020-11-16T15:27:45Z</time>
      </trkpt>
      <trkpt lat="28.8036450" lon="-17.8696080">
        <ele>1003.5</ele>
        <time>2020-11-16T15:27:46Z</time>
      </trkpt>
      <trkpt lat="28.8036450" lon="-17.8696080">
        <ele>1003.5</ele>
        <time>2020-11-16T15:27:47Z</time>
      </trkpt>
      <trkpt lat="28.8036630" lon="-17.8696550">
        <ele>1003.2</ele>
        <time>2020-11-16T15:27:48Z</time>
      </trkpt>
      <trkpt lat="28.8036630" lon="-17.8696550">
        <ele>1003.2</ele>
        <time>2020-11-16T15:27:49Z</time>
      </trkpt>
      <trkpt lat="28.8036930" lon="-17.8697000">
        <ele>1002.9</ele>
        <time>2020-11-16T15:27:50Z</time>
      </trkpt>
      <trkpt lat="28.8036930" lon="-17.8697000">
        <ele>1002.9</ele>
        <time>2020-11-16T15:27:51Z</time>
      </trkpt>
      <trkpt lat="28.8037280" lon="-17.8697450">
        <ele>1002.6</ele>
        <time>2020-11-16T15:27:52Z</time>
      </trkpt>
      <trkpt lat="28.8037430" lon="-17.8697700">
        <ele>1002.4</ele>
        <time>2020-11-16T15:27:53Z</time>
      </trkpt>
      <trkpt lat="28.8037430" lon="-17.8697700">
        <ele>1002.4</ele>
        <time>2020-11-16T15:27:54Z</time>
      </trkpt>
      <trkpt lat="28.8037700" lon="-17.8698180">
        <ele>1002.0</ele>
        <time>2020-11-16T15:27:55Z</time>
      </trkpt>
      <trkpt lat="28.8037870" lon="-17.8698400">
        <ele>1001.8</ele>
        <time>2020-11-16T15:27:56Z</time>
      </trkpt>
      <trkpt lat="28.8037870" lon="-17.8698400">
        <ele>1001.8</ele>
        <time>2020-11-16T15:27:57Z</time>
      </trkpt>
      <trkpt lat="28.8038050" lon="-17.8698850">
        <ele>1001.3</ele>
        <time>2020-11-16T15:27:58Z</time>
      </trkpt>
      <trkpt lat="28.8038050" lon="-17.8698850">
        <ele>1001.3</ele>
        <time>2020-11-16T15:27:59Z</time>
      </trkpt>
      <trkpt lat="28.8038330" lon="-17.8699280">
        <ele>1000.8</ele>
        <time>2020-11-16T15:28:00Z</time>
      </trkpt>
      <trkpt lat="28.8038330" lon="-17.8699280">
        <ele>1000.8</ele>
        <time>2020-11-16T15:28:01Z</time>
      </trkpt>
      <trkpt lat="28.8038570" lon="-17.8699830">
        <ele>1000.2</ele>
        <time>2020-11-16T15:28:02Z</time>
      </trkpt>
      <trkpt lat="28.8038570" lon="-17.8699830">
        <ele>1000.2</ele>
        <time>2020-11-16T15:28:03Z</time>
      </trkpt>
      <trkpt lat="28.8038770" lon="-17.8700500">
        <ele>1000.3</ele>
        <time>2020-11-16T15:28:04Z</time>
      </trkpt>
      <trkpt lat="28.8038770" lon="-17.8700500">
        <ele>1000.3</ele>
        <time>2020-11-16T15:28:05Z</time>
      </trkpt>
      <trkpt lat="28.8038930" lon="-17.8701450">
        <ele>1000.5</ele>
        <time>2020-11-16T15:28:06Z</time>
      </trkpt>
      <trkpt lat="28.8038930" lon="-17.8701450">
        <ele>1000.5</ele>
        <time>2020-11-16T15:28:07Z</time>
      </trkpt>
      <trkpt lat="28.8038830" lon="-17.8702470">
        <ele>1000.5</ele>
        <time>2020-11-16T15:28:08Z</time>
      </trkpt>
      <trkpt lat="28.8038830" lon="-17.8702470">
        <ele>1000.5</ele>
        <time>2020-11-16T15:28:09Z</time>
      </trkpt>
      <trkpt lat="28.8038480" lon="-17.8703480">
        <ele>1000.4</ele>
        <time>2020-11-16T15:28:10Z</time>
      </trkpt>
      <trkpt lat="28.8038480" lon="-17.8703480">
        <ele>1000.4</ele>
        <time>2020-11-16T15:28:11Z</time>
      </trkpt>
      <trkpt lat="28.8037950" lon="-17.8704480">
        <ele>1000.3</ele>
        <time>2020-11-16T15:28:12Z</time>
      </trkpt>
      <trkpt lat="28.8037950" lon="-17.8704480">
        <ele>1000.3</ele>
        <time>2020-11-16T15:28:13Z</time>
      </trkpt>
      <trkpt lat="28.8037180" lon="-17.8705420">
        <ele>1000.1</ele>
        <time>2020-11-16T15:28:14Z</time>
      </trkpt>
      <trkpt lat="28.8037180" lon="-17.8705420">
        <ele>1000.1</ele>
        <time>2020-11-16T15:28:15Z</time>
      </trkpt>
      <trkpt lat="28.8036330" lon="-17.8706380">
        <ele>999.9</ele>
        <time>2020-11-16T15:28:16Z</time>
      </trkpt>
      <trkpt lat="28.8036330" lon="-17.8706380">
        <ele>999.9</ele>
        <time>2020-11-16T15:28:17Z</time>
      </trkpt>
      <trkpt lat="28.8035400" lon="-17.8707500">
        <ele>999.7</ele>
        <time>2020-11-16T15:28:18Z</time>
      </trkpt>
      <trkpt lat="28.8035400" lon="-17.8707500">
        <ele>999.7</ele>
        <time>2020-11-16T15:28:19Z</time>
      </trkpt>
      <trkpt lat="28.8034400" lon="-17.8708550">
        <ele>999.5</ele>
        <time>2020-11-16T15:28:20Z</time>
      </trkpt>
      <trkpt lat="28.8034400" lon="-17.8708550">
        <ele>999.5</ele>
        <time>2020-11-16T15:28:21Z</time>
      </trkpt>
      <trkpt lat="28.8033250" lon="-17.8709350">
        <ele>999.2</ele>
        <time>2020-11-16T15:28:22Z</time>
      </trkpt>
      <trkpt lat="28.8033250" lon="-17.8709350">
        <ele>999.2</ele>
        <time>2020-11-16T15:28:23Z</time>
      </trkpt>
      <trkpt lat="28.8031750" lon="-17.8709780">
        <ele>998.9</ele>
        <time>2020-11-16T15:28:24Z</time>
      </trkpt>
      <trkpt lat="28.8031750" lon="-17.8709780">
        <ele>998.9</ele>
        <time>2020-11-16T15:28:25Z</time>
      </trkpt>
      <trkpt lat="28.8030130" lon="-17.8710570">
        <ele>998.7</ele>
        <time>2020-11-16T15:28:26Z</time>
      </trkpt>
      <trkpt lat="28.8030130" lon="-17.8710570">
        <ele>998.7</ele>
        <time>2020-11-16T15:28:27Z</time>
      </trkpt>
      <trkpt lat="28.8029230" lon="-17.8711350">
        <ele>998.4</ele>
        <time>2020-11-16T15:28:28Z</time>
      </trkpt>
      <trkpt lat="28.8029230" lon="-17.8711350">
        <ele>998.4</ele>
        <time>2020-11-16T15:28:29Z</time>
      </trkpt>
      <trkpt lat="28.8028750" lon="-17.8712180">
        <ele>997.9</ele>
        <time>2020-11-16T15:28:30Z</time>
      </trkpt>
      <trkpt lat="28.8028750" lon="-17.8712180">
        <ele>997.9</ele>
        <time>2020-11-16T15:28:31Z</time>
      </trkpt>
      <trkpt lat="28.8028630" lon="-17.8712920">
        <ele>997.5</ele>
        <time>2020-11-16T15:28:32Z</time>
      </trkpt>
      <trkpt lat="28.8028630" lon="-17.8712920">
        <ele>997.5</ele>
        <time>2020-11-16T15:28:33Z</time>
      </trkpt>
      <trkpt lat="28.8028450" lon="-17.8713600">
        <ele>997.1</ele>
        <time>2020-11-16T15:28:34Z</time>
      </trkpt>
      <trkpt lat="28.8028450" lon="-17.8713600">
        <ele>997.1</ele>
        <time>2020-11-16T15:28:35Z</time>
      </trkpt>
      <trkpt lat="28.8028100" lon="-17.8714400">
        <ele>996.1</ele>
        <time>2020-11-16T15:28:36Z</time>
      </trkpt>
      <trkpt lat="28.8028100" lon="-17.8714400">
        <ele>996.1</ele>
        <time>2020-11-16T15:28:37Z</time>
      </trkpt>
      <trkpt lat="28.8027450" lon="-17.8714900">
        <ele>995.6</ele>
        <time>2020-11-16T15:28:38Z</time>
      </trkpt>
      <trkpt lat="28.8027450" lon="-17.8714900">
        <ele>995.6</ele>
        <time>2020-11-16T15:28:39Z</time>
      </trkpt>
      <trkpt lat="28.8026630" lon="-17.8715170">
        <ele>995.2</ele>
        <time>2020-11-16T15:28:40Z</time>
      </trkpt>
      <trkpt lat="28.8026630" lon="-17.8715170">
        <ele>995.2</ele>
        <time>2020-11-16T15:28:41Z</time>
      </trkpt>
      <trkpt lat="28.8025680" lon="-17.8715400">
        <ele>994.6</ele>
        <time>2020-11-16T15:28:42Z</time>
      </trkpt>
      <trkpt lat="28.8025680" lon="-17.8715400">
        <ele>994.6</ele>
        <time>2020-11-16T15:28:43Z</time>
      </trkpt>
      <trkpt lat="28.8024520" lon="-17.8715650">
        <ele>994.0</ele>
        <time>2020-11-16T15:28:44Z</time>
      </trkpt>
      <trkpt lat="28.8024520" lon="-17.8715650">
        <ele>994.0</ele>
        <time>2020-11-16T15:28:45Z</time>
      </trkpt>
      <trkpt lat="28.8023120" lon="-17.8716100">
        <ele>993.0</ele>
        <time>2020-11-16T15:28:46Z</time>
      </trkpt>
      <trkpt lat="28.8023120" lon="-17.8716100">
        <ele>993.0</ele>
        <time>2020-11-16T15:28:47Z</time>
      </trkpt>
      <trkpt lat="28.8021470" lon="-17.8716470">
        <ele>992.0</ele>
        <time>2020-11-16T15:28:48Z</time>
      </trkpt>
      <trkpt lat="28.8021470" lon="-17.8716470">
        <ele>992.0</ele>
        <time>2020-11-16T15:28:49Z</time>
      </trkpt>
      <trkpt lat="28.8019620" lon="-17.8716670">
        <ele>990.9</ele>
        <time>2020-11-16T15:28:50Z</time>
      </trkpt>
      <trkpt lat="28.8019620" lon="-17.8716670">
        <ele>990.9</ele>
        <time>2020-11-16T15:28:51Z</time>
      </trkpt>
      <trkpt lat="28.8017530" lon="-17.8716930">
        <ele>989.8</ele>
        <time>2020-11-16T15:28:52Z</time>
      </trkpt>
      <trkpt lat="28.8016430" lon="-17.8717130">
        <ele>989.1</ele>
        <time>2020-11-16T15:28:53Z</time>
      </trkpt>
      <trkpt lat="28.8016430" lon="-17.8717130">
        <ele>989.1</ele>
        <time>2020-11-16T15:28:54Z</time>
      </trkpt>
      <trkpt lat="28.8014280" lon="-17.8717450">
        <ele>987.8</ele>
        <time>2020-11-16T15:28:55Z</time>
      </trkpt>
      <trkpt lat="28.8014280" lon="-17.8717450">
        <ele>987.8</ele>
        <time>2020-11-16T15:28:56Z</time>
      </trkpt>
      <trkpt lat="28.8012020" lon="-17.8717720">
        <ele>986.6</ele>
        <time>2020-11-16T15:28:57Z</time>
      </trkpt>
      <trkpt lat="28.8012020" lon="-17.8717720">
        <ele>986.6</ele>
        <time>2020-11-16T15:28:58Z</time>
      </trkpt>
      <trkpt lat="28.8009720" lon="-17.8717900">
        <ele>985.4</ele>
        <time>2020-11-16T15:28:59Z</time>
      </trkpt>
      <trkpt lat="28.8009720" lon="-17.8717900">
        <ele>985.4</ele>
        <time>2020-11-16T15:29:00Z</time>
      </trkpt>
      <trkpt lat="28.8007370" lon="-17.8718120">
        <ele>984.1</ele>
        <time>2020-11-16T15:29:01Z</time>
      </trkpt>
      <trkpt lat="28.8006200" lon="-17.8718220">
        <ele>983.4</ele>
        <time>2020-11-16T15:29:02Z</time>
      </trkpt>
      <trkpt lat="28.8006200" lon="-17.8718220">
        <ele>983.4</ele>
        <time>2020-11-16T15:29:03Z</time>
      </trkpt>
      <trkpt lat="28.8003750" lon="-17.8718380">
        <ele>981.8</ele>
        <time>2020-11-16T15:29:04Z</time>
      </trkpt>
      <trkpt lat="28.8003750" lon="-17.8718380">
        <ele>981.8</ele>
        <time>2020-11-16T15:29:05Z</time>
      </trkpt>
      <trkpt lat="28.8001220" lon="-17.8718450">
        <ele>980.1</ele>
        <time>2020-11-16T15:29:06Z</time>
      </trkpt>
      <trkpt lat="28.8001220" lon="-17.8718450">
        <ele>980.1</ele>
        <time>2020-11-16T15:29:07Z</time>
      </trkpt>
      <trkpt lat="28.7998600" lon="-17.8718430">
        <ele>978.4</ele>
        <time>2020-11-16T15:29:08Z</time>
      </trkpt>
      <trkpt lat="28.7998600" lon="-17.8718430">
        <ele>978.4</ele>
        <time>2020-11-16T15:29:09Z</time>
      </trkpt>
      <trkpt lat="28.7996100" lon="-17.8718200">
        <ele>977.1</ele>
        <time>2020-11-16T15:29:10Z</time>
      </trkpt>
      <trkpt lat="28.7996100" lon="-17.8718200">
        <ele>977.1</ele>
        <time>2020-11-16T15:29:11Z</time>
      </trkpt>
      <trkpt lat="28.7993600" lon="-17.8718500">
        <ele>976.5</ele>
        <time>2020-11-16T15:29:12Z</time>
      </trkpt>
      <trkpt lat="28.7992480" lon="-17.8719000">
        <ele>976.5</ele>
        <time>2020-11-16T15:29:13Z</time>
      </trkpt>
      <trkpt lat="28.7992480" lon="-17.8719000">
        <ele>976.5</ele>
        <time>2020-11-16T15:29:14Z</time>
      </trkpt>
      <trkpt lat="28.7990970" lon="-17.8720830">
        <ele>976.9</ele>
        <time>2020-11-16T15:29:15Z</time>
      </trkpt>
      <trkpt lat="28.7990970" lon="-17.8720830">
        <ele>976.9</ele>
        <time>2020-11-16T15:29:16Z</time>
      </trkpt>
      <trkpt lat="28.7990530" lon="-17.8723080">
        <ele>977.7</ele>
        <time>2020-11-16T15:29:17Z</time>
      </trkpt>
      <trkpt lat="28.7990530" lon="-17.8723080">
        <ele>977.7</ele>
        <time>2020-11-16T15:29:18Z</time>
      </trkpt>
      <trkpt lat="28.7990830" lon="-17.8725220">
        <ele>978.6</ele>
        <time>2020-11-16T15:29:19Z</time>
      </trkpt>
      <trkpt lat="28.7990830" lon="-17.8725220">
        <ele>978.6</ele>
        <time>2020-11-16T15:29:20Z</time>
      </trkpt>
      <trkpt lat="28.7991970" lon="-17.8726770">
        <ele>979.4</ele>
        <time>2020-11-16T15:29:21Z</time>
      </trkpt>
      <trkpt lat="28.7992550" lon="-17.8727430">
        <ele>979.9</ele>
        <time>2020-11-16T15:29:22Z</time>
      </trkpt>
      <trkpt lat="28.7992550" lon="-17.8727430">
        <ele>979.9</ele>
        <time>2020-11-16T15:29:23Z</time>
      </trkpt>
      <trkpt lat="28.7993850" lon="-17.8728320">
        <ele>980.8</ele>
        <time>2020-11-16T15:29:24Z</time>
      </trkpt>
      <trkpt lat="28.7994520" lon="-17.8728620">
        <ele>981.3</ele>
        <time>2020-11-16T15:29:25Z</time>
      </trkpt>
      <trkpt lat="28.7994520" lon="-17.8728620">
        <ele>981.3</ele>
        <time>2020-11-16T15:29:26Z</time>
      </trkpt>
      <trkpt lat="28.7995780" lon="-17.8729380">
        <ele>982.2</ele>
        <time>2020-11-16T15:29:27Z</time>
      </trkpt>
      <trkpt lat="28.7995780" lon="-17.8729380">
        <ele>982.2</ele>
        <time>2020-11-16T15:29:28Z</time>
      </trkpt>
      <trkpt lat="28.7996920" lon="-17.8730150">
        <ele>983.0</ele>
        <time>2020-11-16T15:29:29Z</time>
      </trkpt>
      <trkpt lat="28.7996920" lon="-17.8730150">
        <ele>983.0</ele>
        <time>2020-11-16T15:29:30Z</time>
      </trkpt>
      <trkpt lat="28.7998020" lon="-17.8730900">
        <ele>983.8</ele>
        <time>2020-11-16T15:29:31Z</time>
      </trkpt>
      <trkpt lat="28.7998550" lon="-17.8731230">
        <ele>984.2</ele>
        <time>2020-11-16T15:29:32Z</time>
      </trkpt>
      <trkpt lat="28.7998550" lon="-17.8731230">
        <ele>984.2</ele>
        <time>2020-11-16T15:29:33Z</time>
      </trkpt>
      <trkpt lat="28.7999470" lon="-17.8731930">
        <ele>984.8</ele>
        <time>2020-11-16T15:29:34Z</time>
      </trkpt>
      <trkpt lat="28.7999470" lon="-17.8731930">
        <ele>984.8</ele>
        <time>2020-11-16T15:29:35Z</time>
      </trkpt>
      <trkpt lat="28.8000380" lon="-17.8732630">
        <ele>985.6</ele>
        <time>2020-11-16T15:29:36Z</time>
      </trkpt>
      <trkpt lat="28.8000380" lon="-17.8732630">
        <ele>985.6</ele>
        <time>2020-11-16T15:29:37Z</time>
      </trkpt>
      <trkpt lat="28.8001180" lon="-17.8733230">
        <ele>986.2</ele>
        <time>2020-11-16T15:29:38Z</time>
      </trkpt>
      <trkpt lat="28.8001180" lon="-17.8733230">
        <ele>986.2</ele>
        <time>2020-11-16T15:29:39Z</time>
      </trkpt>
      <trkpt lat="28.8001970" lon="-17.8733780">
        <ele>986.8</ele>
        <time>2020-11-16T15:29:40Z</time>
      </trkpt>
      <trkpt lat="28.8001970" lon="-17.8733780">
        <ele>986.8</ele>
        <time>2020-11-16T15:29:41Z</time>
      </trkpt>
      <trkpt lat="28.8002680" lon="-17.8734450">
        <ele>987.4</ele>
        <time>2020-11-16T15:29:42Z</time>
      </trkpt>
      <trkpt lat="28.8002680" lon="-17.8734450">
        <ele>987.4</ele>
        <time>2020-11-16T15:29:43Z</time>
      </trkpt>
      <trkpt lat="28.8003330" lon="-17.8735130">
        <ele>988.0</ele>
        <time>2020-11-16T15:29:44Z</time>
      </trkpt>
      <trkpt lat="28.8003330" lon="-17.8735130">
        <ele>988.0</ele>
        <time>2020-11-16T15:29:45Z</time>
      </trkpt>
      <trkpt lat="28.8003970" lon="-17.8735820">
        <ele>988.6</ele>
        <time>2020-11-16T15:29:46Z</time>
      </trkpt>
      <trkpt lat="28.8003970" lon="-17.8735820">
        <ele>988.6</ele>
        <time>2020-11-16T15:29:47Z</time>
      </trkpt>
      <trkpt lat="28.8004580" lon="-17.8736470">
        <ele>989.1</ele>
        <time>2020-11-16T15:29:48Z</time>
      </trkpt>
      <trkpt lat="28.8004580" lon="-17.8736470">
        <ele>989.1</ele>
        <time>2020-11-16T15:29:49Z</time>
      </trkpt>
      <trkpt lat="28.8005270" lon="-17.8737120">
        <ele>989.7</ele>
        <time>2020-11-16T15:29:50Z</time>
      </trkpt>
      <trkpt lat="28.8005270" lon="-17.8737120">
        <ele>989.7</ele>
        <time>2020-11-16T15:29:51Z</time>
      </trkpt>
      <trkpt lat="28.8005870" lon="-17.8737850">
        <ele>990.3</ele>
        <time>2020-11-16T15:29:52Z</time>
      </trkpt>
      <trkpt lat="28.8005870" lon="-17.8737850">
        <ele>990.3</ele>
        <time>2020-11-16T15:29:53Z</time>
      </trkpt>
      <trkpt lat="28.8006400" lon="-17.8738550">
        <ele>990.8</ele>
        <time>2020-11-16T15:29:54Z</time>
      </trkpt>
      <trkpt lat="28.8006400" lon="-17.8738550">
        <ele>990.8</ele>
        <time>2020-11-16T15:29:55Z</time>
      </trkpt>
      <trkpt lat="28.8007100" lon="-17.8739330">
        <ele>991.4</ele>
        <time>2020-11-16T15:29:56Z</time>
      </trkpt>
      <trkpt lat="28.8007100" lon="-17.8739330">
        <ele>991.4</ele>
        <time>2020-11-16T15:29:57Z</time>
      </trkpt>
      <trkpt lat="28.8007700" lon="-17.8740120">
        <ele>991.9</ele>
        <time>2020-11-16T15:29:58Z</time>
      </trkpt>
      <trkpt lat="28.8007920" lon="-17.8740520">
        <ele>992.2</ele>
        <time>2020-11-16T15:29:59Z</time>
      </trkpt>
      <trkpt lat="28.8007920" lon="-17.8740520">
        <ele>992.2</ele>
        <time>2020-11-16T15:30:00Z</time>
      </trkpt>
      <trkpt lat="28.8008380" lon="-17.8741270">
        <ele>992.6</ele>
        <time>2020-11-16T15:30:01Z</time>
      </trkpt>
      <trkpt lat="28.8008380" lon="-17.8741270">
        <ele>992.6</ele>
        <time>2020-11-16T15:30:02Z</time>
      </trkpt>
      <trkpt lat="28.8008870" lon="-17.8741950">
        <ele>993.0</ele>
        <time>2020-11-16T15:30:03Z</time>
      </trkpt>
      <trkpt lat="28.8009100" lon="-17.8742300">
        <ele>993.2</ele>
        <time>2020-11-16T15:30:04Z</time>
      </trkpt>
      <trkpt lat="28.8009100" lon="-17.8742300">
        <ele>993.2</ele>
        <time>2020-11-16T15:30:05Z</time>
      </trkpt>
      <trkpt lat="28.8009580" lon="-17.8743000">
        <ele>993.6</ele>
        <time>2020-11-16T15:30:06Z</time>
      </trkpt>
      <trkpt lat="28.8009580" lon="-17.8743000">
        <ele>993.6</ele>
        <time>2020-11-16T15:30:07Z</time>
      </trkpt>
      <trkpt lat="28.8009980" lon="-17.8743800">
        <ele>994.0</ele>
        <time>2020-11-16T15:30:08Z</time>
      </trkpt>
      <trkpt lat="28.8009980" lon="-17.8743800">
        <ele>994.0</ele>
        <time>2020-11-16T15:30:09Z</time>
      </trkpt>
      <trkpt lat="28.8010420" lon="-17.8744600">
        <ele>994.4</ele>
        <time>2020-11-16T15:30:10Z</time>
      </trkpt>
      <trkpt lat="28.8010420" lon="-17.8744600">
        <ele>994.4</ele>
        <time>2020-11-16T15:30:11Z</time>
      </trkpt>
      <trkpt lat="28.8010950" lon="-17.8745370">
        <ele>994.9</ele>
        <time>2020-11-16T15:30:12Z</time>
      </trkpt>
      <trkpt lat="28.8010950" lon="-17.8745370">
        <ele>994.9</ele>
        <time>2020-11-16T15:30:13Z</time>
      </trkpt>
      <trkpt lat="28.8011480" lon="-17.8746130">
        <ele>995.3</ele>
        <time>2020-11-16T15:30:14Z</time>
      </trkpt>
      <trkpt lat="28.8011480" lon="-17.8746130">
        <ele>995.3</ele>
        <time>2020-11-16T15:30:15Z</time>
      </trkpt>
      <trkpt lat="28.8012070" lon="-17.8746850">
        <ele>995.7</ele>
        <time>2020-11-16T15:30:16Z</time>
      </trkpt>
      <trkpt lat="28.8012070" lon="-17.8746850">
        <ele>995.7</ele>
        <time>2020-11-16T15:30:17Z</time>
      </trkpt>
      <trkpt lat="28.8012650" lon="-17.8747470">
        <ele>996.1</ele>
        <time>2020-11-16T15:30:18Z</time>
      </trkpt>
      <trkpt lat="28.8012650" lon="-17.8747470">
        <ele>996.1</ele>
        <time>2020-11-16T15:30:19Z</time>
      </trkpt>
      <trkpt lat="28.8013250" lon="-17.8748030">
        <ele>996.5</ele>
        <time>2020-11-16T15:30:20Z</time>
      </trkpt>
      <trkpt lat="28.8013250" lon="-17.8748030">
        <ele>996.5</ele>
        <time>2020-11-16T15:30:21Z</time>
      </trkpt>
      <trkpt lat="28.8013800" lon="-17.8748580">
        <ele>996.9</ele>
        <time>2020-11-16T15:30:22Z</time>
      </trkpt>
      <trkpt lat="28.8013800" lon="-17.8748580">
        <ele>996.9</ele>
        <time>2020-11-16T15:30:23Z</time>
      </trkpt>
      <trkpt lat="28.8014430" lon="-17.8749020">
        <ele>997.2</ele>
        <time>2020-11-16T15:30:24Z</time>
      </trkpt>
      <trkpt lat="28.8014430" lon="-17.8749020">
        <ele>997.2</ele>
        <time>2020-11-16T15:30:25Z</time>
      </trkpt>
      <trkpt lat="28.8015120" lon="-17.8749430">
        <ele>997.6</ele>
        <time>2020-11-16T15:30:26Z</time>
      </trkpt>
      <trkpt lat="28.8015120" lon="-17.8749430">
        <ele>997.6</ele>
        <time>2020-11-16T15:30:27Z</time>
      </trkpt>
      <trkpt lat="28.8015720" lon="-17.8749850">
        <ele>998.0</ele>
        <time>2020-11-16T15:30:28Z</time>
      </trkpt>
      <trkpt lat="28.8015720" lon="-17.8749850">
        <ele>998.0</ele>
        <time>2020-11-16T15:30:29Z</time>
      </trkpt>
      <trkpt lat="28.8016430" lon="-17.8750300">
        <ele>998.4</ele>
        <time>2020-11-16T15:30:30Z</time>
      </trkpt>
      <trkpt lat="28.8016430" lon="-17.8750300">
        <ele>998.4</ele>
        <time>2020-11-16T15:30:31Z</time>
      </trkpt>
      <trkpt lat="28.8017130" lon="-17.8750700">
        <ele>998.8</ele>
        <time>2020-11-16T15:30:32Z</time>
      </trkpt>
      <trkpt lat="28.8017130" lon="-17.8750700">
        <ele>998.8</ele>
        <time>2020-11-16T15:30:33Z</time>
      </trkpt>
      <trkpt lat="28.8017850" lon="-17.8751130">
        <ele>999.2</ele>
        <time>2020-11-16T15:30:34Z</time>
      </trkpt>
      <trkpt lat="28.8017850" lon="-17.8751130">
        <ele>999.2</ele>
        <time>2020-11-16T15:30:35Z</time>
      </trkpt>
      <trkpt lat="28.8018580" lon="-17.8751550">
        <ele>999.6</ele>
        <time>2020-11-16T15:30:36Z</time>
      </trkpt>
      <trkpt lat="28.8018580" lon="-17.8751550">
        <ele>999.6</ele>
        <time>2020-11-16T15:30:37Z</time>
      </trkpt>
      <trkpt lat="28.8019320" lon="-17.8751980">
        <ele>999.9</ele>
        <time>2020-11-16T15:30:38Z</time>
      </trkpt>
      <trkpt lat="28.8019320" lon="-17.8751980">
        <ele>999.9</ele>
        <time>2020-11-16T15:30:39Z</time>
      </trkpt>
      <trkpt lat="28.8020000" lon="-17.8752480">
        <ele>1000.3</ele>
        <time>2020-11-16T15:30:40Z</time>
      </trkpt>
      <trkpt lat="28.8020000" lon="-17.8752480">
        <ele>1000.3</ele>
        <time>2020-11-16T15:30:41Z</time>
      </trkpt>
      <trkpt lat="28.8020700" lon="-17.8752980">
        <ele>1000.7</ele>
        <time>2020-11-16T15:30:42Z</time>
      </trkpt>
      <trkpt lat="28.8020700" lon="-17.8752980">
        <ele>1000.7</ele>
        <time>2020-11-16T15:30:43Z</time>
      </trkpt>
      <trkpt lat="28.8021320" lon="-17.8753570">
        <ele>1001.0</ele>
        <time>2020-11-16T15:30:44Z</time>
      </trkpt>
      <trkpt lat="28.8021320" lon="-17.8753570">
        <ele>1001.0</ele>
        <time>2020-11-16T15:30:45Z</time>
      </trkpt>
      <trkpt lat="28.8021800" lon="-17.8754280">
        <ele>1001.3</ele>
        <time>2020-11-16T15:30:46Z</time>
      </trkpt>
      <trkpt lat="28.8021800" lon="-17.8754280">
        <ele>1001.3</ele>
        <time>2020-11-16T15:30:47Z</time>
      </trkpt>
      <trkpt lat="28.8022320" lon="-17.8755000">
        <ele>1001.6</ele>
        <time>2020-11-16T15:30:48Z</time>
      </trkpt>
      <trkpt lat="28.8022320" lon="-17.8755000">
        <ele>1001.6</ele>
        <time>2020-11-16T15:30:49Z</time>
      </trkpt>
      <trkpt lat="28.8022830" lon="-17.8755680">
        <ele>1001.9</ele>
        <time>2020-11-16T15:30:50Z</time>
      </trkpt>
      <trkpt lat="28.8023050" lon="-17.8756050">
        <ele>1002.1</ele>
        <time>2020-11-16T15:30:51Z</time>
      </trkpt>
      <trkpt lat="28.8023050" lon="-17.8756050">
        <ele>1002.1</ele>
        <time>2020-11-16T15:30:52Z</time>
      </trkpt>
      <trkpt lat="28.8023430" lon="-17.8756820">
        <ele>1002.3</ele>
        <time>2020-11-16T15:30:53Z</time>
      </trkpt>
      <trkpt lat="28.8023550" lon="-17.8757220">
        <ele>1002.4</ele>
        <time>2020-11-16T15:30:54Z</time>
      </trkpt>
      <trkpt lat="28.8023550" lon="-17.8757220">
        <ele>1002.4</ele>
        <time>2020-11-16T15:30:55Z</time>
      </trkpt>
      <trkpt lat="28.8023780" lon="-17.8758070">
        <ele>1002.7</ele>
        <time>2020-11-16T15:30:56Z</time>
      </trkpt>
      <trkpt lat="28.8023780" lon="-17.8758070">
        <ele>1002.7</ele>
        <time>2020-11-16T15:30:57Z</time>
      </trkpt>
      <trkpt lat="28.8023780" lon="-17.8758980">
        <ele>1002.9</ele>
        <time>2020-11-16T15:30:58Z</time>
      </trkpt>
      <trkpt lat="28.8023780" lon="-17.8758980">
        <ele>1002.9</ele>
        <time>2020-11-16T15:30:59Z</time>
      </trkpt>
      <trkpt lat="28.8023650" lon="-17.8759920">
        <ele>1003.0</ele>
        <time>2020-11-16T15:31:00Z</time>
      </trkpt>
      <trkpt lat="28.8023650" lon="-17.8759920">
        <ele>1003.0</ele>
        <time>2020-11-16T15:31:01Z</time>
      </trkpt>
      <trkpt lat="28.8023380" lon="-17.8760770">
        <ele>1003.2</ele>
        <time>2020-11-16T15:31:02Z</time>
      </trkpt>
      <trkpt lat="28.8023200" lon="-17.8761170">
        <ele>1003.2</ele>
        <time>2020-11-16T15:31:03Z</time>
      </trkpt>
      <trkpt lat="28.8023200" lon="-17.8761170">
        <ele>1003.2</ele>
        <time>2020-11-16T15:31:04Z</time>
      </trkpt>
      <trkpt lat="28.8022730" lon="-17.8761980">
        <ele>1003.4</ele>
        <time>2020-11-16T15:31:05Z</time>
      </trkpt>
      <trkpt lat="28.8022730" lon="-17.8761980">
        <ele>1003.4</ele>
        <time>2020-11-16T15:31:06Z</time>
      </trkpt>
      <trkpt lat="28.8022120" lon="-17.8762750">
        <ele>1003.5</ele>
        <time>2020-11-16T15:31:07Z</time>
      </trkpt>
      <trkpt lat="28.8021800" lon="-17.8763150">
        <ele>1003.6</ele>
        <time>2020-11-16T15:31:08Z</time>
      </trkpt>
      <trkpt lat="28.8021800" lon="-17.8763150">
        <ele>1003.6</ele>
        <time>2020-11-16T15:31:09Z</time>
      </trkpt>
      <trkpt lat="28.8021170" lon="-17.8763980">
        <ele>1003.7</ele>
        <time>2020-11-16T15:31:10Z</time>
      </trkpt>
      <trkpt lat="28.8021170" lon="-17.8763980">
        <ele>1003.7</ele>
        <time>2020-11-16T15:31:11Z</time>
      </trkpt>
      <trkpt lat="28.8020500" lon="-17.8764770">
        <ele>1003.9</ele>
        <time>2020-11-16T15:31:12Z</time>
      </trkpt>
      <trkpt lat="28.8020500" lon="-17.8764770">
        <ele>1003.9</ele>
        <time>2020-11-16T15:31:13Z</time>
      </trkpt>
      <trkpt lat="28.8019830" lon="-17.8765600">
        <ele>1004.1</ele>
        <time>2020-11-16T15:31:14Z</time>
      </trkpt>
      <trkpt lat="28.8019830" lon="-17.8765600">
        <ele>1004.1</ele>
        <time>2020-11-16T15:31:15Z</time>
      </trkpt>
      <trkpt lat="28.8019180" lon="-17.8766450">
        <ele>1004.3</ele>
        <time>2020-11-16T15:31:16Z</time>
      </trkpt>
      <trkpt lat="28.8019180" lon="-17.8766450">
        <ele>1004.3</ele>
        <time>2020-11-16T15:31:17Z</time>
      </trkpt>
      <trkpt lat="28.8018470" lon="-17.8767280">
        <ele>1004.6</ele>
        <time>2020-11-16T15:31:18Z</time>
      </trkpt>
      <trkpt lat="28.8018470" lon="-17.8767280">
        <ele>1004.6</ele>
        <time>2020-11-16T15:31:19Z</time>
      </trkpt>
      <trkpt lat="28.8017870" lon="-17.8768150">
        <ele>1004.9</ele>
        <time>2020-11-16T15:31:20Z</time>
      </trkpt>
      <trkpt lat="28.8017870" lon="-17.8768150">
        <ele>1004.9</ele>
        <time>2020-11-16T15:31:21Z</time>
      </trkpt>
      <trkpt lat="28.8017400" lon="-17.8769070">
        <ele>1005.3</ele>
        <time>2020-11-16T15:31:22Z</time>
      </trkpt>
      <trkpt lat="28.8017400" lon="-17.8769070">
        <ele>1005.3</ele>
        <time>2020-11-16T15:31:23Z</time>
      </trkpt>
      <trkpt lat="28.8016980" lon="-17.8769950">
        <ele>1005.6</ele>
        <time>2020-11-16T15:31:24Z</time>
      </trkpt>
      <trkpt lat="28.8016980" lon="-17.8769950">
        <ele>1005.6</ele>
        <time>2020-11-16T15:31:25Z</time>
      </trkpt>
      <trkpt lat="28.8016670" lon="-17.8770780">
        <ele>1005.9</ele>
        <time>2020-11-16T15:31:26Z</time>
      </trkpt>
      <trkpt lat="28.8016670" lon="-17.8770780">
        <ele>1005.9</ele>
        <time>2020-11-16T15:31:27Z</time>
      </trkpt>
      <trkpt lat="28.8016670" lon="-17.8771880">
        <ele>1006.3</ele>
        <time>2020-11-16T15:31:28Z</time>
      </trkpt>
      <trkpt lat="28.8016670" lon="-17.8771880">
        <ele>1006.3</ele>
        <time>2020-11-16T15:31:29Z</time>
      </trkpt>
      <trkpt lat="28.8016820" lon="-17.8772880">
        <ele>1006.2</ele>
        <time>2020-11-16T15:31:30Z</time>
      </trkpt>
      <trkpt lat="28.8016820" lon="-17.8772880">
        <ele>1006.2</ele>
        <time>2020-11-16T15:31:31Z</time>
      </trkpt>
      <trkpt lat="28.8017150" lon="-17.8773870">
        <ele>1004.9</ele>
        <time>2020-11-16T15:31:32Z</time>
      </trkpt>
      <trkpt lat="28.8017150" lon="-17.8773870">
        <ele>1004.9</ele>
        <time>2020-11-16T15:31:33Z</time>
      </trkpt>
      <trkpt lat="28.8017630" lon="-17.8774600">
        <ele>1003.9</ele>
        <time>2020-11-16T15:31:34Z</time>
      </trkpt>
      <trkpt lat="28.8017920" lon="-17.8774920">
        <ele>1003.3</ele>
        <time>2020-11-16T15:31:35Z</time>
      </trkpt>
      <trkpt lat="28.8017920" lon="-17.8774920">
        <ele>1003.3</ele>
        <time>2020-11-16T15:31:36Z</time>
      </trkpt>
      <trkpt lat="28.8018500" lon="-17.8775500">
        <ele>1002.3</ele>
        <time>2020-11-16T15:31:37Z</time>
      </trkpt>
      <trkpt lat="28.8018830" lon="-17.8775750">
        <ele>1001.8</ele>
        <time>2020-11-16T15:31:38Z</time>
      </trkpt>
      <trkpt lat="28.8019150" lon="-17.8775980">
        <ele>1001.4</ele>
        <time>2020-11-16T15:31:39Z</time>
      </trkpt>
      <trkpt lat="28.8019150" lon="-17.8775980">
        <ele>1001.4</ele>
        <time>2020-11-16T15:31:40Z</time>
      </trkpt>
      <trkpt lat="28.8019770" lon="-17.8776330">
        <ele>1000.5</ele>
        <time>2020-11-16T15:31:41Z</time>
      </trkpt>
      <trkpt lat="28.8019770" lon="-17.8776330">
        <ele>1000.5</ele>
        <time>2020-11-16T15:31:42Z</time>
      </trkpt>
      <trkpt lat="28.8020280" lon="-17.8776700">
        <ele>999.7</ele>
        <time>2020-11-16T15:31:43Z</time>
      </trkpt>
      <trkpt lat="28.8020570" lon="-17.8776830">
        <ele>999.4</ele>
        <time>2020-11-16T15:31:44Z</time>
      </trkpt>
      <trkpt lat="28.8020570" lon="-17.8776830">
        <ele>999.4</ele>
        <time>2020-11-16T15:31:45Z</time>
      </trkpt>
      <trkpt lat="28.8021100" lon="-17.8777150">
        <ele>999.2</ele>
        <time>2020-11-16T15:31:46Z</time>
      </trkpt>
      <trkpt lat="28.8021100" lon="-17.8777150">
        <ele>999.2</ele>
        <time>2020-11-16T15:31:47Z</time>
      </trkpt>
      <trkpt lat="28.8021600" lon="-17.8777430">
        <ele>999.3</ele>
        <time>2020-11-16T15:31:48Z</time>
      </trkpt>
      <trkpt lat="28.8021600" lon="-17.8777430">
        <ele>999.3</ele>
        <time>2020-11-16T15:31:49Z</time>
      </trkpt>
      <trkpt lat="28.8022080" lon="-17.8777700">
        <ele>999.5</ele>
        <time>2020-11-16T15:31:50Z</time>
      </trkpt>
      <trkpt lat="28.8022080" lon="-17.8777700">
        <ele>999.5</ele>
        <time>2020-11-16T15:31:51Z</time>
      </trkpt>
      <trkpt lat="28.8022480" lon="-17.8778050">
        <ele>999.6</ele>
        <time>2020-11-16T15:31:52Z</time>
      </trkpt>
      <trkpt lat="28.8022480" lon="-17.8778050">
        <ele>999.6</ele>
        <time>2020-11-16T15:31:53Z</time>
      </trkpt>
      <trkpt lat="28.8022870" lon="-17.8778470">
        <ele>999.8</ele>
        <time>2020-11-16T15:31:54Z</time>
      </trkpt>
      <trkpt lat="28.8022870" lon="-17.8778470">
        <ele>999.8</ele>
        <time>2020-11-16T15:31:55Z</time>
      </trkpt>
      <trkpt lat="28.8023350" lon="-17.8778730">
        <ele>1000.0</ele>
        <time>2020-11-16T15:31:56Z</time>
      </trkpt>
      <trkpt lat="28.8023350" lon="-17.8778730">
        <ele>1000.0</ele>
        <time>2020-11-16T15:31:57Z</time>
      </trkpt>
      <trkpt lat="28.8023880" lon="-17.8778880">
        <ele>1000.1</ele>
        <time>2020-11-16T15:31:58Z</time>
      </trkpt>
      <trkpt lat="28.8023880" lon="-17.8778880">
        <ele>1000.1</ele>
        <time>2020-11-16T15:31:59Z</time>
      </trkpt>
      <trkpt lat="28.8024550" lon="-17.8778920">
        <ele>1000.4</ele>
        <time>2020-11-16T15:32:00Z</time>
      </trkpt>
      <trkpt lat="28.8024550" lon="-17.8778920">
        <ele>1000.4</ele>
        <time>2020-11-16T15:32:01Z</time>
      </trkpt>
      <trkpt lat="28.8025150" lon="-17.8778880">
        <ele>1000.6</ele>
        <time>2020-11-16T15:32:02Z</time>
      </trkpt>
      <trkpt lat="28.8025150" lon="-17.8778880">
        <ele>1000.6</ele>
        <time>2020-11-16T15:32:03Z</time>
      </trkpt>
      <trkpt lat="28.8025730" lon="-17.8778870">
        <ele>1000.8</ele>
        <time>2020-11-16T15:32:04Z</time>
      </trkpt>
      <trkpt lat="28.8026030" lon="-17.8778870">
        <ele>1000.8</ele>
        <time>2020-11-16T15:32:05Z</time>
      </trkpt>
      <trkpt lat="28.8026030" lon="-17.8778870">
        <ele>1000.8</ele>
        <time>2020-11-16T15:32:06Z</time>
      </trkpt>
      <trkpt lat="28.8026620" lon="-17.8778930">
        <ele>1001.0</ele>
        <time>2020-11-16T15:32:07Z</time>
      </trkpt>
      <trkpt lat="28.8026620" lon="-17.8778930">
        <ele>1001.0</ele>
        <time>2020-11-16T15:32:08Z</time>
      </trkpt>
      <trkpt lat="28.8027180" lon="-17.8779000">
        <ele>1001.2</ele>
        <time>2020-11-16T15:32:09Z</time>
      </trkpt>
      <trkpt lat="28.8027180" lon="-17.8779000">
        <ele>1001.2</ele>
        <time>2020-11-16T15:32:10Z</time>
      </trkpt>
      <trkpt lat="28.8027670" lon="-17.8779080">
        <ele>1001.4</ele>
        <time>2020-11-16T15:32:11Z</time>
      </trkpt>
      <trkpt lat="28.8027670" lon="-17.8779080">
        <ele>1001.4</ele>
        <time>2020-11-16T15:32:12Z</time>
      </trkpt>
      <trkpt lat="28.8028220" lon="-17.8779120">
        <ele>1001.6</ele>
        <time>2020-11-16T15:32:13Z</time>
      </trkpt>
      <trkpt lat="28.8028220" lon="-17.8779120">
        <ele>1001.6</ele>
        <time>2020-11-16T15:32:14Z</time>
      </trkpt>
      <trkpt lat="28.8028730" lon="-17.8779180">
        <ele>1001.7</ele>
        <time>2020-11-16T15:32:15Z</time>
      </trkpt>
      <trkpt lat="28.8028730" lon="-17.8779180">
        <ele>1001.7</ele>
        <time>2020-11-16T15:32:16Z</time>
      </trkpt>
      <trkpt lat="28.8029350" lon="-17.8779180">
        <ele>1002.0</ele>
        <time>2020-11-16T15:32:17Z</time>
      </trkpt>
      <trkpt lat="28.8029350" lon="-17.8779180">
        <ele>1002.0</ele>
        <time>2020-11-16T15:32:18Z</time>
      </trkpt>
      <trkpt lat="28.8029880" lon="-17.8779230">
        <ele>1002.2</ele>
        <time>2020-11-16T15:32:19Z</time>
      </trkpt>
      <trkpt lat="28.8029880" lon="-17.8779230">
        <ele>1002.2</ele>
        <time>2020-11-16T15:32:20Z</time>
      </trkpt>
      <trkpt lat="28.8030450" lon="-17.8779280">
        <ele>1002.4</ele>
        <time>2020-11-16T15:32:21Z</time>
      </trkpt>
      <trkpt lat="28.8030450" lon="-17.8779280">
        <ele>1002.4</ele>
        <time>2020-11-16T15:32:22Z</time>
      </trkpt>
      <trkpt lat="28.8031000" lon="-17.8779370">
        <ele>1002.6</ele>
        <time>2020-11-16T15:32:23Z</time>
      </trkpt>
      <trkpt lat="28.8031000" lon="-17.8779370">
        <ele>1002.6</ele>
        <time>2020-11-16T15:32:24Z</time>
      </trkpt>
      <trkpt lat="28.8031570" lon="-17.8779380">
        <ele>1002.8</ele>
        <time>2020-11-16T15:32:25Z</time>
      </trkpt>
      <trkpt lat="28.8031570" lon="-17.8779380">
        <ele>1002.8</ele>
        <time>2020-11-16T15:32:26Z</time>
      </trkpt>
      <trkpt lat="28.8032070" lon="-17.8779500">
        <ele>1003.0</ele>
        <time>2020-11-16T15:32:27Z</time>
      </trkpt>
      <trkpt lat="28.8032070" lon="-17.8779500">
        <ele>1003.0</ele>
        <time>2020-11-16T15:32:28Z</time>
      </trkpt>
      <trkpt lat="28.8032530" lon="-17.8779600">
        <ele>1003.1</ele>
        <time>2020-11-16T15:32:29Z</time>
      </trkpt>
      <trkpt lat="28.8032530" lon="-17.8779600">
        <ele>1003.1</ele>
        <time>2020-11-16T15:32:30Z</time>
      </trkpt>
      <trkpt lat="28.8033030" lon="-17.8779780">
        <ele>1003.3</ele>
        <time>2020-11-16T15:32:31Z</time>
      </trkpt>
      <trkpt lat="28.8033250" lon="-17.8779880">
        <ele>1003.4</ele>
        <time>2020-11-16T15:32:32Z</time>
      </trkpt>
      <trkpt lat="28.8033250" lon="-17.8779880">
        <ele>1003.4</ele>
        <time>2020-11-16T15:32:33Z</time>
      </trkpt>
      <trkpt lat="28.8033750" lon="-17.8780030">
        <ele>1003.6</ele>
        <time>2020-11-16T15:32:34Z</time>
      </trkpt>
      <trkpt lat="28.8033750" lon="-17.8780030">
        <ele>1003.6</ele>
        <time>2020-11-16T15:32:35Z</time>
      </trkpt>
      <trkpt lat="28.8034200" lon="-17.8780320">
        <ele>1003.8</ele>
        <time>2020-11-16T15:32:36Z</time>
      </trkpt>
      <trkpt lat="28.8034200" lon="-17.8780320">
        <ele>1003.8</ele>
        <time>2020-11-16T15:32:37Z</time>
      </trkpt>
      <trkpt lat="28.8034600" lon="-17.8780680">
        <ele>1004.0</ele>
        <time>2020-11-16T15:32:38Z</time>
      </trkpt>
      <trkpt lat="28.8034600" lon="-17.8780680">
        <ele>1004.0</ele>
        <time>2020-11-16T15:32:39Z</time>
      </trkpt>
      <trkpt lat="28.8035000" lon="-17.8781030">
        <ele>1004.2</ele>
        <time>2020-11-16T15:32:40Z</time>
      </trkpt>
      <trkpt lat="28.8035150" lon="-17.8781220">
        <ele>1004.3</ele>
        <time>2020-11-16T15:32:41Z</time>
      </trkpt>
      <trkpt lat="28.8035150" lon="-17.8781220">
        <ele>1004.3</ele>
        <time>2020-11-16T15:32:42Z</time>
      </trkpt>
      <trkpt lat="28.8035450" lon="-17.8781580">
        <ele>1004.5</ele>
        <time>2020-11-16T15:32:43Z</time>
      </trkpt>
      <trkpt lat="28.8035450" lon="-17.8781580">
        <ele>1004.5</ele>
        <time>2020-11-16T15:32:44Z</time>
      </trkpt>
      <trkpt lat="28.8035750" lon="-17.8781980">
        <ele>1004.6</ele>
        <time>2020-11-16T15:32:45Z</time>
      </trkpt>
      <trkpt lat="28.8035750" lon="-17.8781980">
        <ele>1004.6</ele>
        <time>2020-11-16T15:32:46Z</time>
      </trkpt>
      <trkpt lat="28.8036070" lon="-17.8782450">
        <ele>1004.7</ele>
        <time>2020-11-16T15:32:47Z</time>
      </trkpt>
      <trkpt lat="28.8036070" lon="-17.8782450">
        <ele>1004.7</ele>
        <time>2020-11-16T15:32:48Z</time>
      </trkpt>
      <trkpt lat="28.8036300" lon="-17.8782880">
        <ele>1004.7</ele>
        <time>2020-11-16T15:32:49Z</time>
      </trkpt>
      <trkpt lat="28.8036420" lon="-17.8783120">
        <ele>1004.7</ele>
        <time>2020-11-16T15:32:50Z</time>
      </trkpt>
      <trkpt lat="28.8036420" lon="-17.8783120">
        <ele>1004.7</ele>
        <time>2020-11-16T15:32:51Z</time>
      </trkpt>
      <trkpt lat="28.8036520" lon="-17.8783650">
        <ele>1004.9</ele>
        <time>2020-11-16T15:32:52Z</time>
      </trkpt>
      <trkpt lat="28.8036520" lon="-17.8783650">
        <ele>1004.9</ele>
        <time>2020-11-16T15:32:53Z</time>
      </trkpt>
      <trkpt lat="28.8036330" lon="-17.8784200">
        <ele>1005.2</ele>
        <time>2020-11-16T15:32:54Z</time>
      </trkpt>
      <trkpt lat="28.8036130" lon="-17.8784450">
        <ele>1005.4</ele>
        <time>2020-11-16T15:32:55Z</time>
      </trkpt>
      <trkpt lat="28.8036130" lon="-17.8784450">
        <ele>1005.4</ele>
        <time>2020-11-16T15:32:56Z</time>
      </trkpt>
      <trkpt lat="28.8035470" lon="-17.8784650">
        <ele>1005.9</ele>
        <time>2020-11-16T15:32:57Z</time>
      </trkpt>
      <trkpt lat="28.8035470" lon="-17.8784650">
        <ele>1005.9</ele>
        <time>2020-11-16T15:32:58Z</time>
      </trkpt>
      <trkpt lat="28.8034900" lon="-17.8784380">
        <ele>1006.5</ele>
        <time>2020-11-16T15:32:59Z</time>
      </trkpt>
      <trkpt lat="28.8034720" lon="-17.8784150">
        <ele>1006.7</ele>
        <time>2020-11-16T15:33:00Z</time>
      </trkpt>
      <trkpt lat="28.8034720" lon="-17.8784150">
        <ele>1006.7</ele>
        <time>2020-11-16T15:33:01Z</time>
      </trkpt>
      <trkpt lat="28.8034450" lon="-17.8783620">
        <ele>1007.3</ele>
        <time>2020-11-16T15:33:02Z</time>
      </trkpt>
      <trkpt lat="28.8034450" lon="-17.8783620">
        <ele>1007.3</ele>
        <time>2020-11-16T15:33:03Z</time>
      </trkpt>
      <trkpt lat="28.8034280" lon="-17.8783220">
        <ele>1007.7</ele>
        <time>2020-11-16T15:33:04Z</time>
      </trkpt>
      <trkpt lat="28.8034280" lon="-17.8783220">
        <ele>1007.7</ele>
        <time>2020-11-16T15:33:05Z</time>
      </trkpt>
      <trkpt lat="28.8034070" lon="-17.8782870">
        <ele>1008.2</ele>
        <time>2020-11-16T15:33:06Z</time>
      </trkpt>
      <trkpt lat="28.8034070" lon="-17.8782870">
        <ele>1008.2</ele>
        <time>2020-11-16T15:33:07Z</time>
      </trkpt>
      <trkpt lat="28.8033770" lon="-17.8782580">
        <ele>1008.7</ele>
        <time>2020-11-16T15:33:08Z</time>
      </trkpt>
      <trkpt lat="28.8033770" lon="-17.8782580">
        <ele>1008.7</ele>
        <time>2020-11-16T15:33:09Z</time>
      </trkpt>
      <trkpt lat="28.8033450" lon="-17.8782350">
        <ele>1009.2</ele>
        <time>2020-11-16T15:33:10Z</time>
      </trkpt>
      <trkpt lat="28.8033450" lon="-17.8782350">
        <ele>1009.2</ele>
        <time>2020-11-16T15:33:11Z</time>
      </trkpt>
      <trkpt lat="28.8033080" lon="-17.8782200">
        <ele>1009.7</ele>
        <time>2020-11-16T15:33:12Z</time>
      </trkpt>
      <trkpt lat="28.8033080" lon="-17.8782200">
        <ele>1009.7</ele>
        <time>2020-11-16T15:33:13Z</time>
      </trkpt>
      <trkpt lat="28.8032720" lon="-17.8782120">
        <ele>1010.2</ele>
        <time>2020-11-16T15:33:14Z</time>
      </trkpt>
      <trkpt lat="28.8032720" lon="-17.8782120">
        <ele>1010.2</ele>
        <time>2020-11-16T15:33:15Z</time>
      </trkpt>
      <trkpt lat="28.8032400" lon="-17.8782170">
        <ele>1010.7</ele>
        <time>2020-11-16T15:33:16Z</time>
      </trkpt>
      <trkpt lat="28.8032400" lon="-17.8782170">
        <ele>1010.7</ele>
        <time>2020-11-16T15:33:17Z</time>
      </trkpt>
      <trkpt lat="28.8031980" lon="-17.8782300">
        <ele>1011.3</ele>
        <time>2020-11-16T15:33:18Z</time>
      </trkpt>
      <trkpt lat="28.8031980" lon="-17.8782300">
        <ele>1011.3</ele>
        <time>2020-11-16T15:33:19Z</time>
      </trkpt>
      <trkpt lat="28.8031580" lon="-17.8782370">
        <ele>1012.0</ele>
        <time>2020-11-16T15:33:20Z</time>
      </trkpt>
      <trkpt lat="28.8031580" lon="-17.8782370">
        <ele>1012.0</ele>
        <time>2020-11-16T15:33:21Z</time>
      </trkpt>
      <trkpt lat="28.8031220" lon="-17.8782420">
        <ele>1012.6</ele>
        <time>2020-11-16T15:33:22Z</time>
      </trkpt>
      <trkpt lat="28.8031220" lon="-17.8782420">
        <ele>1012.6</ele>
        <time>2020-11-16T15:33:23Z</time>
      </trkpt>
      <trkpt lat="28.8030880" lon="-17.8782550">
        <ele>1013.2</ele>
        <time>2020-11-16T15:33:24Z</time>
      </trkpt>
      <trkpt lat="28.8030880" lon="-17.8782550">
        <ele>1013.2</ele>
        <time>2020-11-16T15:33:25Z</time>
      </trkpt>
      <trkpt lat="28.8030630" lon="-17.8782770">
        <ele>1013.8</ele>
        <time>2020-11-16T15:33:26Z</time>
      </trkpt>
      <trkpt lat="28.8030630" lon="-17.8782770">
        <ele>1014.1</ele>
        <time>2020-11-16T15:33:27Z</time>
      </trkpt>
      <trkpt lat="28.8030580" lon="-17.8783020">
        <ele>1014.1</ele>
        <time>2020-11-16T15:33:28Z</time>
      </trkpt>
      <trkpt lat="28.8030580" lon="-17.8783020">
        <ele>1014.1</ele>
        <time>2020-11-16T15:33:29Z</time>
      </trkpt>
      <trkpt lat="28.8030650" lon="-17.8783230">
        <ele>1014.2</ele>
        <time>2020-11-16T15:33:30Z</time>
      </trkpt>
      <trkpt lat="28.8030650" lon="-17.8783230">
        <ele>1014.2</ele>
        <time>2020-11-16T15:33:31Z</time>
      </trkpt>
      <trkpt lat="28.8030600" lon="-17.8783520">
        <ele>1014.2</ele>
        <time>2020-11-16T15:33:32Z</time>
      </trkpt>
      <trkpt lat="28.8030600" lon="-17.8783520">
        <ele>1014.2</ele>
        <time>2020-11-16T15:33:33Z</time>
      </trkpt>
      <trkpt lat="28.8030580" lon="-17.8783770">
        <ele>1014.3</ele>
        <time>2020-11-16T15:33:34Z</time>
      </trkpt>
      <trkpt lat="28.8030520" lon="-17.8784000">
        <ele>1014.4</ele>
        <time>2020-11-16T15:33:35Z</time>
      </trkpt>
      <trkpt lat="28.8030520" lon="-17.8784000">
        <ele>1014.4</ele>
        <time>2020-11-16T15:33:36Z</time>
      </trkpt>
      <trkpt lat="28.8030450" lon="-17.8784370">
        <ele>1014.4</ele>
        <time>2020-11-16T15:33:37Z</time>
      </trkpt>
      <trkpt lat="28.8030450" lon="-17.8784370">
        <ele>1014.4</ele>
        <time>2020-11-16T15:33:38Z</time>
      </trkpt>
      <trkpt lat="28.8030350" lon="-17.8784750">
        <ele>1014.5</ele>
        <time>2020-11-16T15:33:39Z</time>
      </trkpt>
      <trkpt lat="28.8030350" lon="-17.8784750">
        <ele>1014.5</ele>
        <time>2020-11-16T15:33:40Z</time>
      </trkpt>
      <trkpt lat="28.8030270" lon="-17.8785180">
        <ele>1014.6</ele>
        <time>2020-11-16T15:33:41Z</time>
      </trkpt>
      <trkpt lat="28.8030270" lon="-17.8785180">
        <ele>1014.6</ele>
        <time>2020-11-16T15:33:42Z</time>
      </trkpt>
      <trkpt lat="28.8030180" lon="-17.8785530">
        <ele>1014.7</ele>
        <time>2020-11-16T15:33:43Z</time>
      </trkpt>
      <trkpt lat="28.8030180" lon="-17.8785530">
        <ele>1014.7</ele>
        <time>2020-11-16T15:33:44Z</time>
      </trkpt>
      <trkpt lat="28.8030030" lon="-17.8785870">
        <ele>1014.7</ele>
        <time>2020-11-16T15:33:45Z</time>
      </trkpt>
      <trkpt lat="28.8030030" lon="-17.8785870">
        <ele>1014.7</ele>
        <time>2020-11-16T15:33:46Z</time>
      </trkpt>
      <trkpt lat="28.8029970" lon="-17.8786270">
        <ele>1014.8</ele>
        <time>2020-11-16T15:33:47Z</time>
      </trkpt>
      <trkpt lat="28.8029970" lon="-17.8786270">
        <ele>1014.8</ele>
        <time>2020-11-16T15:33:48Z</time>
      </trkpt>
      <trkpt lat="28.8030020" lon="-17.8786670">
        <ele>1014.8</ele>
        <time>2020-11-16T15:33:49Z</time>
      </trkpt>
      <trkpt lat="28.8030020" lon="-17.8786830">
        <ele>1014.9</ele>
        <time>2020-11-16T15:33:50Z</time>
      </trkpt>
      <trkpt lat="28.8030020" lon="-17.8786830">
        <ele>1014.9</ele>
        <time>2020-11-16T15:33:51Z</time>
      </trkpt>
      <trkpt lat="28.8029880" lon="-17.8786980">
        <ele>1014.9</ele>
        <time>2020-11-16T15:33:52Z</time>
      </trkpt>
      <trkpt lat="28.8029880" lon="-17.8786980">
        <ele>1014.9</ele>
        <time>2020-11-16T15:33:53Z</time>
      </trkpt>
      <trkpt lat="28.8029870" lon="-17.8786680">
        <ele>1014.9</ele>
        <time>2020-11-16T15:33:54Z</time>
      </trkpt>
      <trkpt lat="28.8029870" lon="-17.8786680">
        <ele>1014.9</ele>
        <time>2020-11-16T15:33:55Z</time>
      </trkpt>
      <trkpt lat="28.8030000" lon="-17.8786370">
        <ele>1015.0</ele>
        <time>2020-11-16T15:33:56Z</time>
      </trkpt>
      <trkpt lat="28.8030000" lon="-17.8786370">
        <ele>1015.0</ele>
        <time>2020-11-16T15:33:57Z</time>
      </trkpt>
      <trkpt lat="28.8030200" lon="-17.8785980">
        <ele>1015.0</ele>
        <time>2020-11-16T15:33:58Z</time>
      </trkpt>
      <trkpt lat="28.8030200" lon="-17.8785980">
        <ele>1015.0</ele>
        <time>2020-11-16T15:33:59Z</time>
      </trkpt>
      <trkpt lat="28.8030380" lon="-17.8785580">
        <ele>1015.1</ele>
        <time>2020-11-16T15:34:00Z</time>
      </trkpt>
      <trkpt lat="28.8030380" lon="-17.8785580">
        <ele>1015.1</ele>
        <time>2020-11-16T15:34:01Z</time>
      </trkpt>
      <trkpt lat="28.8030570" lon="-17.8785180">
        <ele>1015.2</ele>
        <time>2020-11-16T15:34:02Z</time>
      </trkpt>
      <trkpt lat="28.8030570" lon="-17.8785180">
        <ele>1015.2</ele>
        <time>2020-11-16T15:34:03Z</time>
      </trkpt>
      <trkpt lat="28.8030570" lon="-17.8784750">
        <ele>1015.2</ele>
        <time>2020-11-16T15:34:04Z</time>
      </trkpt>
      <trkpt lat="28.8030570" lon="-17.8784750">
        <ele>1015.2</ele>
        <time>2020-11-16T15:34:05Z</time>
      </trkpt>
      <trkpt lat="28.8030570" lon="-17.8784280">
        <ele>1015.3</ele>
        <time>2020-11-16T15:34:06Z</time>
      </trkpt>
      <trkpt lat="28.8030570" lon="-17.8784280">
        <ele>1015.3</ele>
        <time>2020-11-16T15:34:07Z</time>
      </trkpt>
      <trkpt lat="28.8030520" lon="-17.8783800">
        <ele>1015.4</ele>
        <time>2020-11-16T15:34:08Z</time>
      </trkpt>
      <trkpt lat="28.8030520" lon="-17.8783800">
        <ele>1015.4</ele>
        <time>2020-11-16T15:34:09Z</time>
      </trkpt>
      <trkpt lat="28.8030530" lon="-17.8783320">
        <ele>1015.5</ele>
        <time>2020-11-16T15:34:10Z</time>
      </trkpt>
      <trkpt lat="28.8030530" lon="-17.8783320">
        <ele>1015.5</ele>
        <time>2020-11-16T15:34:11Z</time>
      </trkpt>
      <trkpt lat="28.8030650" lon="-17.8782880">
        <ele>1015.6</ele>
        <time>2020-11-16T15:34:12Z</time>
      </trkpt>
      <trkpt lat="28.8030650" lon="-17.8782880">
        <ele>1015.6</ele>
        <time>2020-11-16T15:34:13Z</time>
      </trkpt>
      <trkpt lat="28.8030720" lon="-17.8782750">
        <ele>1015.6</ele>
        <time>2020-11-16T15:34:14Z</time>
      </trkpt>
      <trkpt lat="28.8030720" lon="-17.8782750">
        <ele>1015.6</ele>
        <time>2020-11-16T15:34:15Z</time>
      </trkpt>
      <trkpt lat="28.8030750" lon="-17.8782730">
        <ele>1015.6</ele>
        <time>2020-11-16T15:34:25Z</time>
      </trkpt>
      <trkpt lat="28.8030480" lon="-17.8781750">
        <ele>1015.8</ele>
        <time>2020-11-16T15:34:26Z</time>
      </trkpt>
      <trkpt lat="28.8030480" lon="-17.8781750">
        <ele>1015.8</ele>
        <time>2020-11-16T15:34:27Z</time>
      </trkpt>
      <trkpt lat="28.8030350" lon="-17.8781830">
        <ele>1015.9</ele>
        <time>2020-11-16T15:34:28Z</time>
      </trkpt>
      <trkpt lat="28.8030350" lon="-17.8781830">
        <ele>1015.9</ele>
        <time>2020-11-16T15:34:29Z</time>
      </trkpt>
      <trkpt lat="28.8030350" lon="-17.8781830">
        <ele>1015.9</ele>
        <time>2020-11-16T15:36:10Z</time>
      </trkpt>
      <trkpt lat="28.8030370" lon="-17.8782430">
        <ele>1016.0</ele>
        <time>2020-11-16T15:36:11Z</time>
      </trkpt>
      <trkpt lat="28.8030370" lon="-17.8782430">
        <ele>1016.0</ele>
        <time>2020-11-16T15:36:12Z</time>
      </trkpt>
      <trkpt lat="28.8030400" lon="-17.8782920">
        <ele>1016.1</ele>
        <time>2020-11-16T15:37:00Z</time>
      </trkpt>
      <trkpt lat="28.8030420" lon="-17.8783220">
        <ele>1016.1</ele>
        <time>2020-11-16T15:37:01Z</time>
      </trkpt>
      <trkpt lat="28.8030400" lon="-17.8783480">
        <ele>1016.2</ele>
        <time>2020-11-16T15:37:02Z</time>
      </trkpt>
      <trkpt lat="28.8030400" lon="-17.8783480">
        <ele>1016.2</ele>
        <time>2020-11-16T15:37:03Z</time>
      </trkpt>
      <trkpt lat="28.8030320" lon="-17.8784030">
        <ele>1016.3</ele>
        <time>2020-11-16T15:37:04Z</time>
      </trkpt>
      <trkpt lat="28.8030320" lon="-17.8784030">
        <ele>1016.3</ele>
        <time>2020-11-16T15:37:05Z</time>
      </trkpt>
      <trkpt lat="28.8030150" lon="-17.8784550">
        <ele>1016.4</ele>
        <time>2020-11-16T15:37:06Z</time>
      </trkpt>
      <trkpt lat="28.8030150" lon="-17.8784550">
        <ele>1016.4</ele>
        <time>2020-11-16T15:37:07Z</time>
      </trkpt>
      <trkpt lat="28.8030000" lon="-17.8785170">
        <ele>1016.5</ele>
        <time>2020-11-16T15:37:08Z</time>
      </trkpt>
      <trkpt lat="28.8030000" lon="-17.8785170">
        <ele>1016.5</ele>
        <time>2020-11-16T15:37:09Z</time>
      </trkpt>
      <trkpt lat="28.8029820" lon="-17.8785820">
        <ele>1016.7</ele>
        <time>2020-11-16T15:37:10Z</time>
      </trkpt>
      <trkpt lat="28.8029820" lon="-17.8785820">
        <ele>1016.7</ele>
        <time>2020-11-16T15:37:11Z</time>
      </trkpt>
      <trkpt lat="28.8029780" lon="-17.8786500">
        <ele>1016.8</ele>
        <time>2020-11-16T15:37:12Z</time>
      </trkpt>
      <trkpt lat="28.8029780" lon="-17.8786500">
        <ele>1016.8</ele>
        <time>2020-11-16T15:37:13Z</time>
      </trkpt>
      <trkpt lat="28.8029780" lon="-17.8787180">
        <ele>1017.0</ele>
        <time>2020-11-16T15:37:14Z</time>
      </trkpt>
      <trkpt lat="28.8029780" lon="-17.8787180">
        <ele>1017.0</ele>
        <time>2020-11-16T15:37:15Z</time>
      </trkpt>
      <trkpt lat="28.8029780" lon="-17.8787920">
        <ele>1017.1</ele>
        <time>2020-11-16T15:37:16Z</time>
      </trkpt>
      <trkpt lat="28.8029780" lon="-17.8787920">
        <ele>1017.1</ele>
        <time>2020-11-16T15:37:17Z</time>
      </trkpt>
      <trkpt lat="28.8029820" lon="-17.8788600">
        <ele>1017.2</ele>
        <time>2020-11-16T15:37:18Z</time>
      </trkpt>
      <trkpt lat="28.8029820" lon="-17.8788600">
        <ele>1017.2</ele>
        <time>2020-11-16T15:37:19Z</time>
      </trkpt>
      <trkpt lat="28.8029830" lon="-17.8789300">
        <ele>1017.4</ele>
        <time>2020-11-16T15:37:20Z</time>
      </trkpt>
      <trkpt lat="28.8029830" lon="-17.8789300">
        <ele>1017.4</ele>
        <time>2020-11-16T15:37:21Z</time>
      </trkpt>
      <trkpt lat="28.8029770" lon="-17.8789970">
        <ele>1017.6</ele>
        <time>2020-11-16T15:37:22Z</time>
      </trkpt>
      <trkpt lat="28.8029770" lon="-17.8789970">
        <ele>1017.6</ele>
        <time>2020-11-16T15:37:23Z</time>
      </trkpt>
      <trkpt lat="28.8029720" lon="-17.8790620">
        <ele>1017.8</ele>
        <time>2020-11-16T15:37:24Z</time>
      </trkpt>
      <trkpt lat="28.8029720" lon="-17.8790620">
        <ele>1017.8</ele>
        <time>2020-11-16T15:37:25Z</time>
      </trkpt>
      <trkpt lat="28.8029720" lon="-17.8791230">
        <ele>1018.0</ele>
        <time>2020-11-16T15:37:26Z</time>
      </trkpt>
      <trkpt lat="28.8029720" lon="-17.8791230">
        <ele>1018.0</ele>
        <time>2020-11-16T15:37:27Z</time>
      </trkpt>
      <trkpt lat="28.8029580" lon="-17.8791870">
        <ele>1018.2</ele>
        <time>2020-11-16T15:37:28Z</time>
      </trkpt>
      <trkpt lat="28.8029550" lon="-17.8792120">
        <ele>1018.3</ele>
        <time>2020-11-16T15:37:29Z</time>
      </trkpt>
      <trkpt lat="28.8029550" lon="-17.8792120">
        <ele>1018.3</ele>
        <time>2020-11-16T15:37:30Z</time>
      </trkpt>
      <trkpt lat="28.8029470" lon="-17.8792620">
        <ele>1018.5</ele>
        <time>2020-11-16T15:37:31Z</time>
      </trkpt>
      <trkpt lat="28.8029470" lon="-17.8792620">
        <ele>1018.5</ele>
        <time>2020-11-16T15:37:32Z</time>
      </trkpt>
      <trkpt lat="28.8029450" lon="-17.8793250">
        <ele>1018.7</ele>
        <time>2020-11-16T15:37:33Z</time>
      </trkpt>
      <trkpt lat="28.8029430" lon="-17.8793600">
        <ele>1018.8</ele>
        <time>2020-11-16T15:37:34Z</time>
      </trkpt>
      <trkpt lat="28.8029430" lon="-17.8793600">
        <ele>1018.8</ele>
        <time>2020-11-16T15:37:35Z</time>
      </trkpt>
      <trkpt lat="28.8029320" lon="-17.8794170">
        <ele>1019.0</ele>
        <time>2020-11-16T15:37:36Z</time>
      </trkpt>
      <trkpt lat="28.8029320" lon="-17.8794170">
        <ele>1019.0</ele>
        <time>2020-11-16T15:37:37Z</time>
      </trkpt>
      <trkpt lat="28.8029420" lon="-17.8794680">
        <ele>1019.2</ele>
        <time>2020-11-16T15:37:38Z</time>
      </trkpt>
      <trkpt lat="28.8029420" lon="-17.8794680">
        <ele>1019.2</ele>
        <time>2020-11-16T15:37:39Z</time>
      </trkpt>
      <trkpt lat="28.8029530" lon="-17.8795180">
        <ele>1019.2</ele>
        <time>2020-11-16T15:37:40Z</time>
      </trkpt>
      <trkpt lat="28.8029530" lon="-17.8795180">
        <ele>1019.2</ele>
        <time>2020-11-16T15:37:41Z</time>
      </trkpt>
      <trkpt lat="28.8029700" lon="-17.8795750">
        <ele>1019.3</ele>
        <time>2020-11-16T15:37:42Z</time>
      </trkpt>
      <trkpt lat="28.8029700" lon="-17.8795750">
        <ele>1019.3</ele>
        <time>2020-11-16T15:37:43Z</time>
      </trkpt>
      <trkpt lat="28.8030100" lon="-17.8796350">
        <ele>1019.4</ele>
        <time>2020-11-16T15:37:44Z</time>
      </trkpt>
      <trkpt lat="28.8030320" lon="-17.8796630">
        <ele>1019.4</ele>
        <time>2020-11-16T15:37:45Z</time>
      </trkpt>
      <trkpt lat="28.8030320" lon="-17.8796630">
        <ele>1019.4</ele>
        <time>2020-11-16T15:37:46Z</time>
      </trkpt>
      <trkpt lat="28.8030550" lon="-17.8797180">
        <ele>1019.5</ele>
        <time>2020-11-16T15:37:47Z</time>
      </trkpt>
      <trkpt lat="28.8030550" lon="-17.8797180">
        <ele>1019.5</ele>
        <time>2020-11-16T15:37:48Z</time>
      </trkpt>
      <trkpt lat="28.8030630" lon="-17.8797750">
        <ele>1019.7</ele>
        <time>2020-11-16T15:37:49Z</time>
      </trkpt>
      <trkpt lat="28.8030620" lon="-17.8798030">
        <ele>1019.8</ele>
        <time>2020-11-16T15:37:50Z</time>
      </trkpt>
      <trkpt lat="28.8030620" lon="-17.8798030">
        <ele>1019.8</ele>
        <time>2020-11-16T15:37:51Z</time>
      </trkpt>
      <trkpt lat="28.8030530" lon="-17.8798520">
        <ele>1019.9</ele>
        <time>2020-11-16T15:37:52Z</time>
      </trkpt>
      <trkpt lat="28.8030530" lon="-17.8798520">
        <ele>1019.9</ele>
        <time>2020-11-16T15:37:53Z</time>
      </trkpt>
      <trkpt lat="28.8030470" lon="-17.8799000">
        <ele>1020.0</ele>
        <time>2020-11-16T15:37:54Z</time>
      </trkpt>
      <trkpt lat="28.8030470" lon="-17.8799000">
        <ele>1020.0</ele>
        <time>2020-11-16T15:37:55Z</time>
      </trkpt>
      <trkpt lat="28.8030370" lon="-17.8799480">
        <ele>1020.1</ele>
        <time>2020-11-16T15:37:56Z</time>
      </trkpt>
      <trkpt lat="28.8030370" lon="-17.8799480">
        <ele>1020.1</ele>
        <time>2020-11-16T15:37:57Z</time>
      </trkpt>
      <trkpt lat="28.8030180" lon="-17.8799920">
        <ele>1020.3</ele>
        <time>2020-11-16T15:37:58Z</time>
      </trkpt>
      <trkpt lat="28.8030180" lon="-17.8799920">
        <ele>1020.3</ele>
        <time>2020-11-16T15:37:59Z</time>
      </trkpt>
      <trkpt lat="28.8029950" lon="-17.8800300">
        <ele>1020.4</ele>
        <time>2020-11-16T15:38:00Z</time>
      </trkpt>
      <trkpt lat="28.8029950" lon="-17.8800300">
        <ele>1020.4</ele>
        <time>2020-11-16T15:38:01Z</time>
      </trkpt>
      <trkpt lat="28.8029620" lon="-17.8800630">
        <ele>1020.5</ele>
        <time>2020-11-16T15:38:02Z</time>
      </trkpt>
      <trkpt lat="28.8029620" lon="-17.8800630">
        <ele>1020.5</ele>
        <time>2020-11-16T15:38:03Z</time>
      </trkpt>
      <trkpt lat="28.8029470" lon="-17.8801020">
        <ele>1020.5</ele>
        <time>2020-11-16T15:38:04Z</time>
      </trkpt>
      <trkpt lat="28.8029470" lon="-17.8801020">
        <ele>1020.5</ele>
        <time>2020-11-16T15:38:05Z</time>
      </trkpt>
      <trkpt lat="28.8029200" lon="-17.8801400">
        <ele>1020.6</ele>
        <time>2020-11-16T15:38:06Z</time>
      </trkpt>
      <trkpt lat="28.8029200" lon="-17.8801400">
        <ele>1020.6</ele>
        <time>2020-11-16T15:38:07Z</time>
      </trkpt>
      <trkpt lat="28.8028930" lon="-17.8801770">
        <ele>1020.9</ele>
        <time>2020-11-16T15:38:08Z</time>
      </trkpt>
      <trkpt lat="28.8028930" lon="-17.8801770">
        <ele>1020.9</ele>
        <time>2020-11-16T15:38:09Z</time>
      </trkpt>
      <trkpt lat="28.8028720" lon="-17.8802170">
        <ele>1021.3</ele>
        <time>2020-11-16T15:38:10Z</time>
      </trkpt>
      <trkpt lat="28.8028720" lon="-17.8802170">
        <ele>1021.3</ele>
        <time>2020-11-16T15:38:11Z</time>
      </trkpt>
      <trkpt lat="28.8028500" lon="-17.8802600">
        <ele>1021.8</ele>
        <time>2020-11-16T15:38:12Z</time>
      </trkpt>
      <trkpt lat="28.8028500" lon="-17.8802600">
        <ele>1021.8</ele>
        <time>2020-11-16T15:38:13Z</time>
      </trkpt>
      <trkpt lat="28.8028200" lon="-17.8802950">
        <ele>1022.2</ele>
        <time>2020-11-16T15:38:14Z</time>
      </trkpt>
      <trkpt lat="28.8028200" lon="-17.8802950">
        <ele>1022.2</ele>
        <time>2020-11-16T15:38:15Z</time>
      </trkpt>
      <trkpt lat="28.8027930" lon="-17.8803300">
        <ele>1022.7</ele>
        <time>2020-11-16T15:38:16Z</time>
      </trkpt>
      <trkpt lat="28.8027930" lon="-17.8803300">
        <ele>1022.7</ele>
        <time>2020-11-16T15:38:17Z</time>
      </trkpt>
      <trkpt lat="28.8027650" lon="-17.8803600">
        <ele>1023.1</ele>
        <time>2020-11-16T15:38:18Z</time>
      </trkpt>
      <trkpt lat="28.8027650" lon="-17.8803600">
        <ele>1023.1</ele>
        <time>2020-11-16T15:38:19Z</time>
      </trkpt>
      <trkpt lat="28.8027400" lon="-17.8803950">
        <ele>1023.6</ele>
        <time>2020-11-16T15:38:20Z</time>
      </trkpt>
      <trkpt lat="28.8027400" lon="-17.8803950">
        <ele>1023.6</ele>
        <time>2020-11-16T15:38:21Z</time>
      </trkpt>
      <trkpt lat="28.8027280" lon="-17.8804270">
        <ele>1023.9</ele>
        <time>2020-11-16T15:38:22Z</time>
      </trkpt>
      <trkpt lat="28.8027280" lon="-17.8804270">
        <ele>1023.9</ele>
        <time>2020-11-16T15:38:23Z</time>
      </trkpt>
      <trkpt lat="28.8027050" lon="-17.8804580">
        <ele>1024.3</ele>
        <time>2020-11-16T15:38:24Z</time>
      </trkpt>
      <trkpt lat="28.8027050" lon="-17.8804580">
        <ele>1024.3</ele>
        <time>2020-11-16T15:38:25Z</time>
      </trkpt>
      <trkpt lat="28.8026730" lon="-17.8804800">
        <ele>1024.7</ele>
        <time>2020-11-16T15:38:26Z</time>
      </trkpt>
      <trkpt lat="28.8026580" lon="-17.8804930">
        <ele>1024.9</ele>
        <time>2020-11-16T15:38:27Z</time>
      </trkpt>
      <trkpt lat="28.8026580" lon="-17.8804930">
        <ele>1024.9</ele>
        <time>2020-11-16T15:38:28Z</time>
      </trkpt>
      <trkpt lat="28.8026270" lon="-17.8805250">
        <ele>1025.4</ele>
        <time>2020-11-16T15:38:29Z</time>
      </trkpt>
      <trkpt lat="28.8026270" lon="-17.8805250">
        <ele>1025.4</ele>
        <time>2020-11-16T15:38:30Z</time>
      </trkpt>
      <trkpt lat="28.8025950" lon="-17.8805520">
        <ele>1025.8</ele>
        <time>2020-11-16T15:38:31Z</time>
      </trkpt>
      <trkpt lat="28.8025950" lon="-17.8805520">
        <ele>1025.8</ele>
        <time>2020-11-16T15:38:32Z</time>
      </trkpt>
      <trkpt lat="28.8025650" lon="-17.8805780">
        <ele>1026.2</ele>
        <time>2020-11-16T15:38:33Z</time>
      </trkpt>
      <trkpt lat="28.8025650" lon="-17.8805780">
        <ele>1026.2</ele>
        <time>2020-11-16T15:38:34Z</time>
      </trkpt>
      <trkpt lat="28.8025320" lon="-17.8805950">
        <ele>1026.6</ele>
        <time>2020-11-16T15:38:35Z</time>
      </trkpt>
      <trkpt lat="28.8025320" lon="-17.8805950">
        <ele>1026.6</ele>
        <time>2020-11-16T15:38:36Z</time>
      </trkpt>
      <trkpt lat="28.8025030" lon="-17.8806130">
        <ele>1026.9</ele>
        <time>2020-11-16T15:38:37Z</time>
      </trkpt>
      <trkpt lat="28.8025030" lon="-17.8806130">
        <ele>1026.9</ele>
        <time>2020-11-16T15:38:38Z</time>
      </trkpt>
      <trkpt lat="28.8024720" lon="-17.8806320">
        <ele>1027.3</ele>
        <time>2020-11-16T15:38:39Z</time>
      </trkpt>
      <trkpt lat="28.8024720" lon="-17.8806320">
        <ele>1027.3</ele>
        <time>2020-11-16T15:38:40Z</time>
      </trkpt>
      <trkpt lat="28.8024380" lon="-17.8806450">
        <ele>1027.7</ele>
        <time>2020-11-16T15:38:41Z</time>
      </trkpt>
      <trkpt lat="28.8024380" lon="-17.8806450">
        <ele>1027.7</ele>
        <time>2020-11-16T15:38:42Z</time>
      </trkpt>
      <trkpt lat="28.8023950" lon="-17.8806630">
        <ele>1028.2</ele>
        <time>2020-11-16T15:38:43Z</time>
      </trkpt>
      <trkpt lat="28.8023950" lon="-17.8806630">
        <ele>1028.2</ele>
        <time>2020-11-16T15:38:44Z</time>
      </trkpt>
      <trkpt lat="28.8023570" lon="-17.8806720">
        <ele>1028.6</ele>
        <time>2020-11-16T15:38:45Z</time>
      </trkpt>
      <trkpt lat="28.8023570" lon="-17.8806720">
        <ele>1028.6</ele>
        <time>2020-11-16T15:38:46Z</time>
      </trkpt>
      <trkpt lat="28.8023180" lon="-17.8806880">
        <ele>1029.1</ele>
        <time>2020-11-16T15:38:47Z</time>
      </trkpt>
      <trkpt lat="28.8023180" lon="-17.8806880">
        <ele>1029.1</ele>
        <time>2020-11-16T15:38:48Z</time>
      </trkpt>
      <trkpt lat="28.8022780" lon="-17.8807050">
        <ele>1029.5</ele>
        <time>2020-11-16T15:38:49Z</time>
      </trkpt>
      <trkpt lat="28.8022780" lon="-17.8807050">
        <ele>1029.5</ele>
        <time>2020-11-16T15:38:50Z</time>
      </trkpt>
      <trkpt lat="28.8022400" lon="-17.8807100">
        <ele>1029.9</ele>
        <time>2020-11-16T15:38:51Z</time>
      </trkpt>
      <trkpt lat="28.8022400" lon="-17.8807100">
        <ele>1029.9</ele>
        <time>2020-11-16T15:38:52Z</time>
      </trkpt>
      <trkpt lat="28.8022030" lon="-17.8807150">
        <ele>1030.3</ele>
        <time>2020-11-16T15:38:53Z</time>
      </trkpt>
      <trkpt lat="28.8022030" lon="-17.8807150">
        <ele>1030.3</ele>
        <time>2020-11-16T15:38:54Z</time>
      </trkpt>
      <trkpt lat="28.8021650" lon="-17.8807200">
        <ele>1030.7</ele>
        <time>2020-11-16T15:38:55Z</time>
      </trkpt>
      <trkpt lat="28.8021470" lon="-17.8807220">
        <ele>1030.9</ele>
        <time>2020-11-16T15:38:56Z</time>
      </trkpt>
      <trkpt lat="28.8021470" lon="-17.8807220">
        <ele>1030.9</ele>
        <time>2020-11-16T15:38:57Z</time>
      </trkpt>
      <trkpt lat="28.8021100" lon="-17.8807270">
        <ele>1031.2</ele>
        <time>2020-11-16T15:38:58Z</time>
      </trkpt>
      <trkpt lat="28.8021100" lon="-17.8807270">
        <ele>1031.2</ele>
        <time>2020-11-16T15:38:59Z</time>
      </trkpt>
      <trkpt lat="28.8020750" lon="-17.8807250">
        <ele>1031.6</ele>
        <time>2020-11-16T15:39:00Z</time>
      </trkpt>
      <trkpt lat="28.8020750" lon="-17.8807250">
        <ele>1031.6</ele>
        <time>2020-11-16T15:39:01Z</time>
      </trkpt>
      <trkpt lat="28.8020400" lon="-17.8807130">
        <ele>1031.9</ele>
        <time>2020-11-16T15:39:02Z</time>
      </trkpt>
      <trkpt lat="28.8020400" lon="-17.8807130">
        <ele>1031.9</ele>
        <time>2020-11-16T15:39:03Z</time>
      </trkpt>
      <trkpt lat="28.8020020" lon="-17.8807120">
        <ele>1032.3</ele>
        <time>2020-11-16T15:39:04Z</time>
      </trkpt>
      <trkpt lat="28.8020020" lon="-17.8807120">
        <ele>1032.3</ele>
        <time>2020-11-16T15:39:05Z</time>
      </trkpt>
      <trkpt lat="28.8019630" lon="-17.8807150">
        <ele>1032.7</ele>
        <time>2020-11-16T15:39:06Z</time>
      </trkpt>
      <trkpt lat="28.8019630" lon="-17.8807150">
        <ele>1032.7</ele>
        <time>2020-11-16T15:39:07Z</time>
      </trkpt>
      <trkpt lat="28.8019250" lon="-17.8807170">
        <ele>1033.1</ele>
        <time>2020-11-16T15:39:08Z</time>
      </trkpt>
      <trkpt lat="28.8019250" lon="-17.8807170">
        <ele>1033.1</ele>
        <time>2020-11-16T15:39:09Z</time>
      </trkpt>
      <trkpt lat="28.8018870" lon="-17.8807220">
        <ele>1033.4</ele>
        <time>2020-11-16T15:39:10Z</time>
      </trkpt>
      <trkpt lat="28.8018870" lon="-17.8807220">
        <ele>1033.4</ele>
        <time>2020-11-16T15:39:11Z</time>
      </trkpt>
      <trkpt lat="28.8018500" lon="-17.8807230">
        <ele>1033.8</ele>
        <time>2020-11-16T15:39:12Z</time>
      </trkpt>
      <trkpt lat="28.8018500" lon="-17.8807230">
        <ele>1033.8</ele>
        <time>2020-11-16T15:39:13Z</time>
      </trkpt>
      <trkpt lat="28.8018130" lon="-17.8807250">
        <ele>1034.1</ele>
        <time>2020-11-16T15:39:14Z</time>
      </trkpt>
      <trkpt lat="28.8018130" lon="-17.8807250">
        <ele>1034.1</ele>
        <time>2020-11-16T15:39:15Z</time>
      </trkpt>
      <trkpt lat="28.8017780" lon="-17.8807200">
        <ele>1034.5</ele>
        <time>2020-11-16T15:39:16Z</time>
      </trkpt>
      <trkpt lat="28.8017780" lon="-17.8807200">
        <ele>1034.5</ele>
        <time>2020-11-16T15:39:17Z</time>
      </trkpt>
      <trkpt lat="28.8017420" lon="-17.8807080">
        <ele>1034.8</ele>
        <time>2020-11-16T15:39:18Z</time>
      </trkpt>
      <trkpt lat="28.8017420" lon="-17.8807080">
        <ele>1034.8</ele>
        <time>2020-11-16T15:39:19Z</time>
      </trkpt>
      <trkpt lat="28.8017050" lon="-17.8807070">
        <ele>1035.6</ele>
        <time>2020-11-16T15:39:20Z</time>
      </trkpt>
      <trkpt lat="28.8016870" lon="-17.8807030">
        <ele>1036.1</ele>
        <time>2020-11-16T15:39:21Z</time>
      </trkpt>
      <trkpt lat="28.8016870" lon="-17.8807030">
        <ele>1036.1</ele>
        <time>2020-11-16T15:39:22Z</time>
      </trkpt>
      <trkpt lat="28.8016550" lon="-17.8806930">
        <ele>1037.1</ele>
        <time>2020-11-16T15:39:23Z</time>
      </trkpt>
      <trkpt lat="28.8016550" lon="-17.8806930">
        <ele>1037.1</ele>
        <time>2020-11-16T15:39:24Z</time>
      </trkpt>
      <trkpt lat="28.8016170" lon="-17.8806820">
        <ele>1038.3</ele>
        <time>2020-11-16T15:39:25Z</time>
      </trkpt>
      <trkpt lat="28.8015970" lon="-17.8806770">
        <ele>1038.9</ele>
        <time>2020-11-16T15:39:26Z</time>
      </trkpt>
      <trkpt lat="28.8015970" lon="-17.8806770">
        <ele>1038.9</ele>
        <time>2020-11-16T15:39:27Z</time>
      </trkpt>
      <trkpt lat="28.8015700" lon="-17.8806670">
        <ele>1039.7</ele>
        <time>2020-11-16T15:39:28Z</time>
      </trkpt>
      <trkpt lat="28.8015570" lon="-17.8806620">
        <ele>1040.1</ele>
        <time>2020-11-16T15:39:29Z</time>
      </trkpt>
      <trkpt lat="28.8015400" lon="-17.8806550">
        <ele>1040.7</ele>
        <time>2020-11-16T15:39:30Z</time>
      </trkpt>
      <trkpt lat="28.8015400" lon="-17.8806550">
        <ele>1040.7</ele>
        <time>2020-11-16T15:39:31Z</time>
      </trkpt>
      <trkpt lat="28.8015080" lon="-17.8806450">
        <ele>1041.7</ele>
        <time>2020-11-16T15:39:32Z</time>
      </trkpt>
      <trkpt lat="28.8015080" lon="-17.8806450">
        <ele>1041.7</ele>
        <time>2020-11-16T15:39:33Z</time>
      </trkpt>
      <trkpt lat="28.8014750" lon="-17.8806380">
        <ele>1042.7</ele>
        <time>2020-11-16T15:39:34Z</time>
      </trkpt>
      <trkpt lat="28.8014750" lon="-17.8806380">
        <ele>1042.7</ele>
        <time>2020-11-16T15:39:35Z</time>
      </trkpt>
      <trkpt lat="28.8014300" lon="-17.8806350">
        <ele>1044.0</ele>
        <time>2020-11-16T15:39:36Z</time>
      </trkpt>
      <trkpt lat="28.8014300" lon="-17.8806350">
        <ele>1044.0</ele>
        <time>2020-11-16T15:39:37Z</time>
      </trkpt>
      <trkpt lat="28.8013970" lon="-17.8806250">
        <ele>1045.1</ele>
        <time>2020-11-16T15:39:38Z</time>
      </trkpt>
      <trkpt lat="28.8013970" lon="-17.8806250">
        <ele>1045.1</ele>
        <time>2020-11-16T15:39:39Z</time>
      </trkpt>
      <trkpt lat="28.8013580" lon="-17.8806170">
        <ele>1046.3</ele>
        <time>2020-11-16T15:39:40Z</time>
      </trkpt>
      <trkpt lat="28.8013580" lon="-17.8806170">
        <ele>1046.3</ele>
        <time>2020-11-16T15:39:41Z</time>
      </trkpt>
      <trkpt lat="28.8013300" lon="-17.8806020">
        <ele>1047.2</ele>
        <time>2020-11-16T15:39:42Z</time>
      </trkpt>
      <trkpt lat="28.8013300" lon="-17.8806020">
        <ele>1047.2</ele>
        <time>2020-11-16T15:39:43Z</time>
      </trkpt>
      <trkpt lat="28.8012970" lon="-17.8805870">
        <ele>1048.2</ele>
        <time>2020-11-16T15:39:44Z</time>
      </trkpt>
      <trkpt lat="28.8012970" lon="-17.8805870">
        <ele>1048.2</ele>
        <time>2020-11-16T15:39:45Z</time>
      </trkpt>
      <trkpt lat="28.8012620" lon="-17.8805730">
        <ele>1049.4</ele>
        <time>2020-11-16T15:39:46Z</time>
      </trkpt>
      <trkpt lat="28.8012620" lon="-17.8805730">
        <ele>1049.4</ele>
        <time>2020-11-16T15:39:47Z</time>
      </trkpt>
      <trkpt lat="28.8012350" lon="-17.8805570">
        <ele>1049.6</ele>
        <time>2020-11-16T15:39:48Z</time>
      </trkpt>
      <trkpt lat="28.8012350" lon="-17.8805570">
        <ele>1049.6</ele>
        <time>2020-11-16T15:39:49Z</time>
      </trkpt>
      <trkpt lat="28.8012100" lon="-17.8805350">
        <ele>1049.8</ele>
        <time>2020-11-16T15:39:50Z</time>
      </trkpt>
      <trkpt lat="28.8012100" lon="-17.8805350">
        <ele>1049.8</ele>
        <time>2020-11-16T15:39:51Z</time>
      </trkpt>
      <trkpt lat="28.8011870" lon="-17.8805200">
        <ele>1050.0</ele>
        <time>2020-11-16T15:39:52Z</time>
      </trkpt>
      <trkpt lat="28.8011870" lon="-17.8805200">
        <ele>1050.0</ele>
        <time>2020-11-16T15:39:53Z</time>
      </trkpt>
      <trkpt lat="28.8011620" lon="-17.8805030">
        <ele>1050.3</ele>
        <time>2020-11-16T15:39:54Z</time>
      </trkpt>
      <trkpt lat="28.8011620" lon="-17.8805030">
        <ele>1050.3</ele>
        <time>2020-11-16T15:39:55Z</time>
      </trkpt>
      <trkpt lat="28.8011300" lon="-17.8804950">
        <ele>1050.5</ele>
        <time>2020-11-16T15:39:56Z</time>
      </trkpt>
      <trkpt lat="28.8011300" lon="-17.8804950">
        <ele>1050.5</ele>
        <time>2020-11-16T15:39:57Z</time>
      </trkpt>
      <trkpt lat="28.8010980" lon="-17.8804830">
        <ele>1050.8</ele>
        <time>2020-11-16T15:39:58Z</time>
      </trkpt>
      <trkpt lat="28.8010980" lon="-17.8804830">
        <ele>1050.8</ele>
        <time>2020-11-16T15:39:59Z</time>
      </trkpt>
      <trkpt lat="28.8010670" lon="-17.8804670">
        <ele>1051.0</ele>
        <time>2020-11-16T15:40:00Z</time>
      </trkpt>
      <trkpt lat="28.8010670" lon="-17.8804670">
        <ele>1051.0</ele>
        <time>2020-11-16T15:40:01Z</time>
      </trkpt>
      <trkpt lat="28.8010350" lon="-17.8804520">
        <ele>1051.3</ele>
        <time>2020-11-16T15:40:02Z</time>
      </trkpt>
      <trkpt lat="28.8010350" lon="-17.8804520">
        <ele>1051.3</ele>
        <time>2020-11-16T15:40:03Z</time>
      </trkpt>
      <trkpt lat="28.8010050" lon="-17.8804530">
        <ele>1051.5</ele>
        <time>2020-11-16T15:40:04Z</time>
      </trkpt>
      <trkpt lat="28.8010050" lon="-17.8804530">
        <ele>1051.5</ele>
        <time>2020-11-16T15:40:05Z</time>
      </trkpt>
      <trkpt lat="28.8009630" lon="-17.8804350">
        <ele>1051.9</ele>
        <time>2020-11-16T15:40:06Z</time>
      </trkpt>
      <trkpt lat="28.8009630" lon="-17.8804350">
        <ele>1051.9</ele>
        <time>2020-11-16T15:40:07Z</time>
      </trkpt>
      <trkpt lat="28.8009280" lon="-17.8804230">
        <ele>1052.2</ele>
        <time>2020-11-16T15:40:08Z</time>
      </trkpt>
      <trkpt lat="28.8009280" lon="-17.8804230">
        <ele>1052.2</ele>
        <time>2020-11-16T15:40:09Z</time>
      </trkpt>
      <trkpt lat="28.8009020" lon="-17.8804080">
        <ele>1052.4</ele>
        <time>2020-11-16T15:40:10Z</time>
      </trkpt>
      <trkpt lat="28.8009020" lon="-17.8804080">
        <ele>1052.4</ele>
        <time>2020-11-16T15:40:11Z</time>
      </trkpt>
      <trkpt lat="28.8008680" lon="-17.8803950">
        <ele>1052.6</ele>
        <time>2020-11-16T15:40:12Z</time>
      </trkpt>
      <trkpt lat="28.8008680" lon="-17.8803950">
        <ele>1052.6</ele>
        <time>2020-11-16T15:40:13Z</time>
      </trkpt>
      <trkpt lat="28.8008450" lon="-17.8803820">
        <ele>1052.8</ele>
        <time>2020-11-16T15:40:14Z</time>
      </trkpt>
      <trkpt lat="28.8008450" lon="-17.8803820">
        <ele>1052.8</ele>
        <time>2020-11-16T15:40:15Z</time>
      </trkpt>
      <trkpt lat="28.8008180" lon="-17.8803670">
        <ele>1053.0</ele>
        <time>2020-11-16T15:40:16Z</time>
      </trkpt>
      <trkpt lat="28.8008180" lon="-17.8803670">
        <ele>1053.0</ele>
        <time>2020-11-16T15:40:17Z</time>
      </trkpt>
      <trkpt lat="28.8007920" lon="-17.8803480">
        <ele>1053.2</ele>
        <time>2020-11-16T15:40:18Z</time>
      </trkpt>
      <trkpt lat="28.8007920" lon="-17.8803480">
        <ele>1053.2</ele>
        <time>2020-11-16T15:40:19Z</time>
      </trkpt>
      <trkpt lat="28.8007580" lon="-17.8803330">
        <ele>1053.5</ele>
        <time>2020-11-16T15:40:20Z</time>
      </trkpt>
      <trkpt lat="28.8007580" lon="-17.8803330">
        <ele>1053.5</ele>
        <time>2020-11-16T15:40:21Z</time>
      </trkpt>
      <trkpt lat="28.8007230" lon="-17.8803150">
        <ele>1053.9</ele>
        <time>2020-11-16T15:40:22Z</time>
      </trkpt>
      <trkpt lat="28.8007230" lon="-17.8803150">
        <ele>1053.9</ele>
        <time>2020-11-16T15:40:23Z</time>
      </trkpt>
      <trkpt lat="28.8006880" lon="-17.8802980">
        <ele>1054.3</ele>
        <time>2020-11-16T15:40:24Z</time>
      </trkpt>
      <trkpt lat="28.8006880" lon="-17.8802980">
        <ele>1054.3</ele>
        <time>2020-11-16T15:40:25Z</time>
      </trkpt>
      <trkpt lat="28.8006530" lon="-17.8802830">
        <ele>1054.7</ele>
        <time>2020-11-16T15:40:26Z</time>
      </trkpt>
      <trkpt lat="28.8006530" lon="-17.8802830">
        <ele>1054.7</ele>
        <time>2020-11-16T15:40:27Z</time>
      </trkpt>
      <trkpt lat="28.8006180" lon="-17.8802680">
        <ele>1055.1</ele>
        <time>2020-11-16T15:40:28Z</time>
      </trkpt>
      <trkpt lat="28.8006180" lon="-17.8802680">
        <ele>1055.1</ele>
        <time>2020-11-16T15:40:29Z</time>
      </trkpt>
      <trkpt lat="28.8005820" lon="-17.8802520">
        <ele>1055.5</ele>
        <time>2020-11-16T15:40:30Z</time>
      </trkpt>
      <trkpt lat="28.8005820" lon="-17.8802520">
        <ele>1055.5</ele>
        <time>2020-11-16T15:40:31Z</time>
      </trkpt>
      <trkpt lat="28.8005470" lon="-17.8802420">
        <ele>1055.9</ele>
        <time>2020-11-16T15:40:32Z</time>
      </trkpt>
      <trkpt lat="28.8005470" lon="-17.8802420">
        <ele>1055.9</ele>
        <time>2020-11-16T15:40:33Z</time>
      </trkpt>
      <trkpt lat="28.8005080" lon="-17.8802280">
        <ele>1056.3</ele>
        <time>2020-11-16T15:40:34Z</time>
      </trkpt>
      <trkpt lat="28.8005080" lon="-17.8802280">
        <ele>1056.3</ele>
        <time>2020-11-16T15:40:35Z</time>
      </trkpt>
      <trkpt lat="28.8004770" lon="-17.8802120">
        <ele>1056.7</ele>
        <time>2020-11-16T15:40:36Z</time>
      </trkpt>
      <trkpt lat="28.8004770" lon="-17.8802120">
        <ele>1056.7</ele>
        <time>2020-11-16T15:40:37Z</time>
      </trkpt>
      <trkpt lat="28.8004450" lon="-17.8801900">
        <ele>1057.1</ele>
        <time>2020-11-16T15:40:38Z</time>
      </trkpt>
      <trkpt lat="28.8004450" lon="-17.8801900">
        <ele>1057.1</ele>
        <time>2020-11-16T15:40:39Z</time>
      </trkpt>
      <trkpt lat="28.8004100" lon="-17.8801720">
        <ele>1057.5</ele>
        <time>2020-11-16T15:40:40Z</time>
      </trkpt>
      <trkpt lat="28.8004100" lon="-17.8801720">
        <ele>1057.5</ele>
        <time>2020-11-16T15:40:41Z</time>
      </trkpt>
      <trkpt lat="28.8003700" lon="-17.8801550">
        <ele>1057.9</ele>
        <time>2020-11-16T15:40:42Z</time>
      </trkpt>
      <trkpt lat="28.8003700" lon="-17.8801550">
        <ele>1057.9</ele>
        <time>2020-11-16T15:40:43Z</time>
      </trkpt>
      <trkpt lat="28.8003300" lon="-17.8801420">
        <ele>1058.4</ele>
        <time>2020-11-16T15:40:44Z</time>
      </trkpt>
      <trkpt lat="28.8003300" lon="-17.8801420">
        <ele>1058.4</ele>
        <time>2020-11-16T15:40:45Z</time>
      </trkpt>
      <trkpt lat="28.8002900" lon="-17.8801320">
        <ele>1058.8</ele>
        <time>2020-11-16T15:40:46Z</time>
      </trkpt>
      <trkpt lat="28.8002900" lon="-17.8801320">
        <ele>1058.8</ele>
        <time>2020-11-16T15:40:47Z</time>
      </trkpt>
      <trkpt lat="28.8002570" lon="-17.8801270">
        <ele>1059.2</ele>
        <time>2020-11-16T15:40:48Z</time>
      </trkpt>
      <trkpt lat="28.8002570" lon="-17.8801270">
        <ele>1059.2</ele>
        <time>2020-11-16T15:40:49Z</time>
      </trkpt>
      <trkpt lat="28.8002230" lon="-17.8801180">
        <ele>1059.6</ele>
        <time>2020-11-16T15:40:50Z</time>
      </trkpt>
      <trkpt lat="28.8002230" lon="-17.8801180">
        <ele>1059.6</ele>
        <time>2020-11-16T15:40:51Z</time>
      </trkpt>
      <trkpt lat="28.8001870" lon="-17.8801080">
        <ele>1060.0</ele>
        <time>2020-11-16T15:40:52Z</time>
      </trkpt>
      <trkpt lat="28.8001870" lon="-17.8801080">
        <ele>1060.0</ele>
        <time>2020-11-16T15:40:53Z</time>
      </trkpt>
      <trkpt lat="28.8001470" lon="-17.8801030">
        <ele>1060.4</ele>
        <time>2020-11-16T15:40:54Z</time>
      </trkpt>
      <trkpt lat="28.8001470" lon="-17.8801030">
        <ele>1060.4</ele>
        <time>2020-11-16T15:40:55Z</time>
      </trkpt>
      <trkpt lat="28.8001100" lon="-17.8801030">
        <ele>1060.8</ele>
        <time>2020-11-16T15:40:56Z</time>
      </trkpt>
      <trkpt lat="28.8001100" lon="-17.8801030">
        <ele>1060.8</ele>
        <time>2020-11-16T15:40:57Z</time>
      </trkpt>
      <trkpt lat="28.8000750" lon="-17.8801030">
        <ele>1061.2</ele>
        <time>2020-11-16T15:40:58Z</time>
      </trkpt>
      <trkpt lat="28.8000750" lon="-17.8801030">
        <ele>1061.2</ele>
        <time>2020-11-16T15:40:59Z</time>
      </trkpt>
      <trkpt lat="28.8000420" lon="-17.8801070">
        <ele>1061.6</ele>
        <time>2020-11-16T15:41:00Z</time>
      </trkpt>
      <trkpt lat="28.8000420" lon="-17.8801070">
        <ele>1061.6</ele>
        <time>2020-11-16T15:41:01Z</time>
      </trkpt>
      <trkpt lat="28.8000070" lon="-17.8801150">
        <ele>1062.0</ele>
        <time>2020-11-16T15:41:02Z</time>
      </trkpt>
      <trkpt lat="28.8000070" lon="-17.8801150">
        <ele>1062.0</ele>
        <time>2020-11-16T15:41:03Z</time>
      </trkpt>
      <trkpt lat="28.7999700" lon="-17.8801270">
        <ele>1062.4</ele>
        <time>2020-11-16T15:41:04Z</time>
      </trkpt>
      <trkpt lat="28.7999700" lon="-17.8801270">
        <ele>1062.4</ele>
        <time>2020-11-16T15:41:05Z</time>
      </trkpt>
      <trkpt lat="28.7999320" lon="-17.8801370">
        <ele>1062.8</ele>
        <time>2020-11-16T15:41:06Z</time>
      </trkpt>
      <trkpt lat="28.7999320" lon="-17.8801370">
        <ele>1062.8</ele>
        <time>2020-11-16T15:41:07Z</time>
      </trkpt>
      <trkpt lat="28.7998950" lon="-17.8801430">
        <ele>1063.2</ele>
        <time>2020-11-16T15:41:08Z</time>
      </trkpt>
      <trkpt lat="28.7998950" lon="-17.8801430">
        <ele>1063.2</ele>
        <time>2020-11-16T15:41:09Z</time>
      </trkpt>
      <trkpt lat="28.7998530" lon="-17.8801600">
        <ele>1063.6</ele>
        <time>2020-11-16T15:41:10Z</time>
      </trkpt>
      <trkpt lat="28.7998300" lon="-17.8801700">
        <ele>1063.8</ele>
        <time>2020-11-16T15:41:11Z</time>
      </trkpt>
      <trkpt lat="28.7998300" lon="-17.8801700">
        <ele>1063.8</ele>
        <time>2020-11-16T15:41:12Z</time>
      </trkpt>
      <trkpt lat="28.7997880" lon="-17.8801920">
        <ele>1064.3</ele>
        <time>2020-11-16T15:41:13Z</time>
      </trkpt>
      <trkpt lat="28.7997880" lon="-17.8801920">
        <ele>1064.3</ele>
        <time>2020-11-16T15:41:14Z</time>
      </trkpt>
      <trkpt lat="28.7997500" lon="-17.8802120">
        <ele>1064.6</ele>
        <time>2020-11-16T15:41:15Z</time>
      </trkpt>
      <trkpt lat="28.7997500" lon="-17.8802120">
        <ele>1064.6</ele>
        <time>2020-11-16T15:41:16Z</time>
      </trkpt>
      <trkpt lat="28.7997150" lon="-17.8802300">
        <ele>1064.9</ele>
        <time>2020-11-16T15:41:17Z</time>
      </trkpt>
      <trkpt lat="28.7997150" lon="-17.8802300">
        <ele>1064.9</ele>
        <time>2020-11-16T15:41:18Z</time>
      </trkpt>
      <trkpt lat="28.7996800" lon="-17.8802470">
        <ele>1065.2</ele>
        <time>2020-11-16T15:41:19Z</time>
      </trkpt>
      <trkpt lat="28.7996600" lon="-17.8802650">
        <ele>1065.4</ele>
        <time>2020-11-16T15:41:20Z</time>
      </trkpt>
      <trkpt lat="28.7996600" lon="-17.8802650">
        <ele>1065.4</ele>
        <time>2020-11-16T15:41:21Z</time>
      </trkpt>
      <trkpt lat="28.7996280" lon="-17.8802970">
        <ele>1065.7</ele>
        <time>2020-11-16T15:41:22Z</time>
      </trkpt>
      <trkpt lat="28.7996130" lon="-17.8803130">
        <ele>1065.9</ele>
        <time>2020-11-16T15:41:23Z</time>
      </trkpt>
      <trkpt lat="28.7996130" lon="-17.8803130">
        <ele>1065.9</ele>
        <time>2020-11-16T15:41:24Z</time>
      </trkpt>
      <trkpt lat="28.7995880" lon="-17.8803550">
        <ele>1066.2</ele>
        <time>2020-11-16T15:41:25Z</time>
      </trkpt>
      <trkpt lat="28.7995730" lon="-17.8803750">
        <ele>1066.3</ele>
        <time>2020-11-16T15:41:26Z</time>
      </trkpt>
      <trkpt lat="28.7995730" lon="-17.8803750">
        <ele>1066.3</ele>
        <time>2020-11-16T15:41:27Z</time>
      </trkpt>
      <trkpt lat="28.7995470" lon="-17.8804070">
        <ele>1066.5</ele>
        <time>2020-11-16T15:41:28Z</time>
      </trkpt>
      <trkpt lat="28.7995470" lon="-17.8804070">
        <ele>1066.5</ele>
        <time>2020-11-16T15:41:29Z</time>
      </trkpt>
      <trkpt lat="28.7995230" lon="-17.8804480">
        <ele>1066.8</ele>
        <time>2020-11-16T15:41:30Z</time>
      </trkpt>
      <trkpt lat="28.7995230" lon="-17.8804480">
        <ele>1066.8</ele>
        <time>2020-11-16T15:41:31Z</time>
      </trkpt>
      <trkpt lat="28.7994970" lon="-17.8804900">
        <ele>1067.1</ele>
        <time>2020-11-16T15:41:32Z</time>
      </trkpt>
      <trkpt lat="28.7994970" lon="-17.8804900">
        <ele>1067.1</ele>
        <time>2020-11-16T15:41:33Z</time>
      </trkpt>
      <trkpt lat="28.7994770" lon="-17.8805350">
        <ele>1067.3</ele>
        <time>2020-11-16T15:41:34Z</time>
      </trkpt>
      <trkpt lat="28.7994770" lon="-17.8805350">
        <ele>1067.3</ele>
        <time>2020-11-16T15:41:35Z</time>
      </trkpt>
      <trkpt lat="28.7994620" lon="-17.8805780">
        <ele>1067.5</ele>
        <time>2020-11-16T15:41:36Z</time>
      </trkpt>
      <trkpt lat="28.7994620" lon="-17.8805780">
        <ele>1067.5</ele>
        <time>2020-11-16T15:41:37Z</time>
      </trkpt>
      <trkpt lat="28.7994470" lon="-17.8806280">
        <ele>1067.8</ele>
        <time>2020-11-16T15:41:38Z</time>
      </trkpt>
      <trkpt lat="28.7994470" lon="-17.8806280">
        <ele>1067.8</ele>
        <time>2020-11-16T15:41:39Z</time>
      </trkpt>
      <trkpt lat="28.7994070" lon="-17.8806970">
        <ele>1068.2</ele>
        <time>2020-11-16T15:41:40Z</time>
      </trkpt>
      <trkpt lat="28.7993970" lon="-17.8807250">
        <ele>1068.4</ele>
        <time>2020-11-16T15:41:41Z</time>
      </trkpt>
      <trkpt lat="28.7993970" lon="-17.8807250">
        <ele>1068.4</ele>
        <time>2020-11-16T15:41:42Z</time>
      </trkpt>
      <trkpt lat="28.7993750" lon="-17.8807820">
        <ele>1068.8</ele>
        <time>2020-11-16T15:41:43Z</time>
      </trkpt>
      <trkpt lat="28.7993750" lon="-17.8807820">
        <ele>1068.8</ele>
        <time>2020-11-16T15:41:44Z</time>
      </trkpt>
      <trkpt lat="28.7993600" lon="-17.8808280">
        <ele>1069.1</ele>
        <time>2020-11-16T15:41:45Z</time>
      </trkpt>
      <trkpt lat="28.7993600" lon="-17.8808280">
        <ele>1069.1</ele>
        <time>2020-11-16T15:41:46Z</time>
      </trkpt>
      <trkpt lat="28.7993470" lon="-17.8808650">
        <ele>1069.4</ele>
        <time>2020-11-16T15:41:47Z</time>
      </trkpt>
      <trkpt lat="28.7993470" lon="-17.8808650">
        <ele>1069.4</ele>
        <time>2020-11-16T15:41:48Z</time>
      </trkpt>
      <trkpt lat="28.7993300" lon="-17.8809100">
        <ele>1069.7</ele>
        <time>2020-11-16T15:41:49Z</time>
      </trkpt>
      <trkpt lat="28.7993320" lon="-17.8809420">
        <ele>1070.0</ele>
        <time>2020-11-16T15:41:50Z</time>
      </trkpt>
      <trkpt lat="28.7993320" lon="-17.8809420">
        <ele>1070.0</ele>
        <time>2020-11-16T15:41:51Z</time>
      </trkpt>
      <trkpt lat="28.7993250" lon="-17.8809850">
        <ele>1070.3</ele>
        <time>2020-11-16T15:41:52Z</time>
      </trkpt>
      <trkpt lat="28.7993170" lon="-17.8810050">
        <ele>1070.4</ele>
        <time>2020-11-16T15:41:53Z</time>
      </trkpt>
      <trkpt lat="28.7993100" lon="-17.8810250">
        <ele>1070.6</ele>
        <time>2020-11-16T15:41:54Z</time>
      </trkpt>
      <trkpt lat="28.7993100" lon="-17.8810250">
        <ele>1070.6</ele>
        <time>2020-11-16T15:41:55Z</time>
      </trkpt>
      <trkpt lat="28.7993120" lon="-17.8810880">
        <ele>1071.1</ele>
        <time>2020-11-16T15:41:56Z</time>
      </trkpt>
      <trkpt lat="28.7993120" lon="-17.8810880">
        <ele>1071.1</ele>
        <time>2020-11-16T15:41:57Z</time>
      </trkpt>
      <trkpt lat="28.7993220" lon="-17.8811530">
        <ele>1071.6</ele>
        <time>2020-11-16T15:41:58Z</time>
      </trkpt>
      <trkpt lat="28.7993220" lon="-17.8811530">
        <ele>1071.6</ele>
        <time>2020-11-16T15:41:59Z</time>
      </trkpt>
      <trkpt lat="28.7993250" lon="-17.8812070">
        <ele>1072.0</ele>
        <time>2020-11-16T15:42:00Z</time>
      </trkpt>
      <trkpt lat="28.7993250" lon="-17.8812070">
        <ele>1072.0</ele>
        <time>2020-11-16T15:42:01Z</time>
      </trkpt>
      <trkpt lat="28.7993320" lon="-17.8812580">
        <ele>1072.4</ele>
        <time>2020-11-16T15:42:02Z</time>
      </trkpt>
      <trkpt lat="28.7993320" lon="-17.8812580">
        <ele>1072.4</ele>
        <time>2020-11-16T15:42:03Z</time>
      </trkpt>
      <trkpt lat="28.7993480" lon="-17.8813150">
        <ele>1072.9</ele>
        <time>2020-11-16T15:42:04Z</time>
      </trkpt>
      <trkpt lat="28.7993480" lon="-17.8813150">
        <ele>1072.9</ele>
        <time>2020-11-16T15:42:05Z</time>
      </trkpt>
      <trkpt lat="28.7993580" lon="-17.8813680">
        <ele>1073.4</ele>
        <time>2020-11-16T15:42:06Z</time>
      </trkpt>
      <trkpt lat="28.7993580" lon="-17.8813680">
        <ele>1073.4</ele>
        <time>2020-11-16T15:42:07Z</time>
      </trkpt>
      <trkpt lat="28.7993670" lon="-17.8814220">
        <ele>1073.9</ele>
        <time>2020-11-16T15:42:08Z</time>
      </trkpt>
      <trkpt lat="28.7993670" lon="-17.8814220">
        <ele>1073.9</ele>
        <time>2020-11-16T15:42:09Z</time>
      </trkpt>
      <trkpt lat="28.7993730" lon="-17.8814730">
        <ele>1074.4</ele>
        <time>2020-11-16T15:42:10Z</time>
      </trkpt>
      <trkpt lat="28.7993800" lon="-17.8815020">
        <ele>1074.6</ele>
        <time>2020-11-16T15:42:11Z</time>
      </trkpt>
      <trkpt lat="28.7993830" lon="-17.8815230">
        <ele>1074.8</ele>
        <time>2020-11-16T15:42:12Z</time>
      </trkpt>
      <trkpt lat="28.7993830" lon="-17.8815230">
        <ele>1074.8</ele>
        <time>2020-11-16T15:42:13Z</time>
      </trkpt>
      <trkpt lat="28.7993880" lon="-17.8815700">
        <ele>1075.3</ele>
        <time>2020-11-16T15:42:14Z</time>
      </trkpt>
      <trkpt lat="28.7993880" lon="-17.8815700">
        <ele>1075.3</ele>
        <time>2020-11-16T15:42:15Z</time>
      </trkpt>
      <trkpt lat="28.7993850" lon="-17.8816170">
        <ele>1075.8</ele>
        <time>2020-11-16T15:42:16Z</time>
      </trkpt>
      <trkpt lat="28.7993850" lon="-17.8816170">
        <ele>1075.8</ele>
        <time>2020-11-16T15:42:17Z</time>
      </trkpt>
      <trkpt lat="28.7993820" lon="-17.8816600">
        <ele>1076.2</ele>
        <time>2020-11-16T15:42:18Z</time>
      </trkpt>
      <trkpt lat="28.7993820" lon="-17.8816600">
        <ele>1076.2</ele>
        <time>2020-11-16T15:42:19Z</time>
      </trkpt>
      <trkpt lat="28.7993720" lon="-17.8817000">
        <ele>1076.6</ele>
        <time>2020-11-16T15:42:20Z</time>
      </trkpt>
      <trkpt lat="28.7993720" lon="-17.8817000">
        <ele>1076.6</ele>
        <time>2020-11-16T15:42:21Z</time>
      </trkpt>
      <trkpt lat="28.7993550" lon="-17.8817400">
        <ele>1077.0</ele>
        <time>2020-11-16T15:42:22Z</time>
      </trkpt>
      <trkpt lat="28.7993550" lon="-17.8817400">
        <ele>1077.0</ele>
        <time>2020-11-16T15:42:23Z</time>
      </trkpt>
      <trkpt lat="28.7993430" lon="-17.8817800">
        <ele>1077.4</ele>
        <time>2020-11-16T15:42:24Z</time>
      </trkpt>
      <trkpt lat="28.7993430" lon="-17.8817800">
        <ele>1077.4</ele>
        <time>2020-11-16T15:42:25Z</time>
      </trkpt>
      <trkpt lat="28.7993380" lon="-17.8818150">
        <ele>1077.8</ele>
        <time>2020-11-16T15:42:26Z</time>
      </trkpt>
      <trkpt lat="28.7993380" lon="-17.8818150">
        <ele>1077.8</ele>
        <time>2020-11-16T15:42:27Z</time>
      </trkpt>
      <trkpt lat="28.7993350" lon="-17.8818480">
        <ele>1078.1</ele>
        <time>2020-11-16T15:42:28Z</time>
      </trkpt>
      <trkpt lat="28.7993350" lon="-17.8818480">
        <ele>1078.1</ele>
        <time>2020-11-16T15:42:29Z</time>
      </trkpt>
      <trkpt lat="28.7993320" lon="-17.8818780">
        <ele>1078.3</ele>
        <time>2020-11-16T15:42:30Z</time>
      </trkpt>
      <trkpt lat="28.7993320" lon="-17.8818780">
        <ele>1078.3</ele>
        <time>2020-11-16T15:42:31Z</time>
      </trkpt>
      <trkpt lat="28.7993250" lon="-17.8819220">
        <ele>1078.8</ele>
        <time>2020-11-16T15:42:32Z</time>
      </trkpt>
      <trkpt lat="28.7993250" lon="-17.8819220">
        <ele>1078.8</ele>
        <time>2020-11-16T15:42:33Z</time>
      </trkpt>
      <trkpt lat="28.7993250" lon="-17.8819670">
        <ele>1079.2</ele>
        <time>2020-11-16T15:42:34Z</time>
      </trkpt>
      <trkpt lat="28.7993200" lon="-17.8819900">
        <ele>1079.4</ele>
        <time>2020-11-16T15:42:35Z</time>
      </trkpt>
      <trkpt lat="28.7993200" lon="-17.8819900">
        <ele>1079.4</ele>
        <time>2020-11-16T15:42:36Z</time>
      </trkpt>
      <trkpt lat="28.7993180" lon="-17.8820430">
        <ele>1079.9</ele>
        <time>2020-11-16T15:42:37Z</time>
      </trkpt>
      <trkpt lat="28.7993180" lon="-17.8820430">
        <ele>1079.9</ele>
        <time>2020-11-16T15:42:38Z</time>
      </trkpt>
      <trkpt lat="28.7993130" lon="-17.8820880">
        <ele>1080.3</ele>
        <time>2020-11-16T15:42:39Z</time>
      </trkpt>
      <trkpt lat="28.7993130" lon="-17.8820880">
        <ele>1080.3</ele>
        <time>2020-11-16T15:42:40Z</time>
      </trkpt>
      <trkpt lat="28.7993150" lon="-17.8821380">
        <ele>1080.7</ele>
        <time>2020-11-16T15:42:41Z</time>
      </trkpt>
      <trkpt lat="28.7993150" lon="-17.8821380">
        <ele>1080.7</ele>
        <time>2020-11-16T15:42:42Z</time>
      </trkpt>
      <trkpt lat="28.7993130" lon="-17.8821930">
        <ele>1081.1</ele>
        <time>2020-11-16T15:42:43Z</time>
      </trkpt>
      <trkpt lat="28.7993000" lon="-17.8822130">
        <ele>1081.3</ele>
        <time>2020-11-16T15:42:44Z</time>
      </trkpt>
      <trkpt lat="28.7993000" lon="-17.8822130">
        <ele>1081.3</ele>
        <time>2020-11-16T15:42:45Z</time>
      </trkpt>
      <trkpt lat="28.7992870" lon="-17.8822570">
        <ele>1081.7</ele>
        <time>2020-11-16T15:42:46Z</time>
      </trkpt>
      <trkpt lat="28.7992820" lon="-17.8822820">
        <ele>1081.8</ele>
        <time>2020-11-16T15:42:47Z</time>
      </trkpt>
      <trkpt lat="28.7992820" lon="-17.8822820">
        <ele>1081.8</ele>
        <time>2020-11-16T15:42:48Z</time>
      </trkpt>
      <trkpt lat="28.7992680" lon="-17.8823370">
        <ele>1082.3</ele>
        <time>2020-11-16T15:42:49Z</time>
      </trkpt>
      <trkpt lat="28.7992680" lon="-17.8823370">
        <ele>1082.3</ele>
        <time>2020-11-16T15:42:50Z</time>
      </trkpt>
      <trkpt lat="28.7992470" lon="-17.8823830">
        <ele>1082.6</ele>
        <time>2020-11-16T15:42:51Z</time>
      </trkpt>
      <trkpt lat="28.7992470" lon="-17.8823830">
        <ele>1082.6</ele>
        <time>2020-11-16T15:42:52Z</time>
      </trkpt>
      <trkpt lat="28.7992300" lon="-17.8824370">
        <ele>1083.0</ele>
        <time>2020-11-16T15:42:53Z</time>
      </trkpt>
      <trkpt lat="28.7992300" lon="-17.8824370">
        <ele>1083.0</ele>
        <time>2020-11-16T15:42:54Z</time>
      </trkpt>
      <trkpt lat="28.7992120" lon="-17.8824800">
        <ele>1083.3</ele>
        <time>2020-11-16T15:42:55Z</time>
      </trkpt>
      <trkpt lat="28.7992120" lon="-17.8824800">
        <ele>1083.3</ele>
        <time>2020-11-16T15:42:56Z</time>
      </trkpt>
      <trkpt lat="28.7992020" lon="-17.8825250">
        <ele>1083.6</ele>
        <time>2020-11-16T15:42:57Z</time>
      </trkpt>
      <trkpt lat="28.7992020" lon="-17.8825250">
        <ele>1083.6</ele>
        <time>2020-11-16T15:42:58Z</time>
      </trkpt>
      <trkpt lat="28.7991880" lon="-17.8825830">
        <ele>1084.0</ele>
        <time>2020-11-16T15:42:59Z</time>
      </trkpt>
      <trkpt lat="28.7991880" lon="-17.8825830">
        <ele>1084.0</ele>
        <time>2020-11-16T15:43:00Z</time>
      </trkpt>
      <trkpt lat="28.7991800" lon="-17.8826280">
        <ele>1084.3</ele>
        <time>2020-11-16T15:43:01Z</time>
      </trkpt>
      <trkpt lat="28.7991800" lon="-17.8826280">
        <ele>1084.3</ele>
        <time>2020-11-16T15:43:02Z</time>
      </trkpt>
      <trkpt lat="28.7991680" lon="-17.8826730">
        <ele>1084.5</ele>
        <time>2020-11-16T15:43:03Z</time>
      </trkpt>
      <trkpt lat="28.7991680" lon="-17.8826730">
        <ele>1084.5</ele>
        <time>2020-11-16T15:43:04Z</time>
      </trkpt>
      <trkpt lat="28.7991580" lon="-17.8827120">
        <ele>1084.8</ele>
        <time>2020-11-16T15:43:05Z</time>
      </trkpt>
      <trkpt lat="28.7991580" lon="-17.8827120">
        <ele>1084.8</ele>
        <time>2020-11-16T15:43:06Z</time>
      </trkpt>
      <trkpt lat="28.7991450" lon="-17.8827600">
        <ele>1085.1</ele>
        <time>2020-11-16T15:43:07Z</time>
      </trkpt>
      <trkpt lat="28.7991450" lon="-17.8827600">
        <ele>1085.1</ele>
        <time>2020-11-16T15:43:08Z</time>
      </trkpt>
      <trkpt lat="28.7991250" lon="-17.8828120">
        <ele>1085.4</ele>
        <time>2020-11-16T15:43:09Z</time>
      </trkpt>
      <trkpt lat="28.7991100" lon="-17.8828420">
        <ele>1085.5</ele>
        <time>2020-11-16T15:43:10Z</time>
      </trkpt>
      <trkpt lat="28.7991100" lon="-17.8828420">
        <ele>1085.5</ele>
        <time>2020-11-16T15:43:11Z</time>
      </trkpt>
      <trkpt lat="28.7990920" lon="-17.8829180">
        <ele>1086.0</ele>
        <time>2020-11-16T15:43:12Z</time>
      </trkpt>
      <trkpt lat="28.7990920" lon="-17.8829180">
        <ele>1086.0</ele>
        <time>2020-11-16T15:43:13Z</time>
      </trkpt>
      <trkpt lat="28.7990750" lon="-17.8829600">
        <ele>1086.2</ele>
        <time>2020-11-16T15:43:14Z</time>
      </trkpt>
      <trkpt lat="28.7990750" lon="-17.8829600">
        <ele>1086.2</ele>
        <time>2020-11-16T15:43:15Z</time>
      </trkpt>
      <trkpt lat="28.7990600" lon="-17.8830170">
        <ele>1086.5</ele>
        <time>2020-11-16T15:43:16Z</time>
      </trkpt>
      <trkpt lat="28.7990600" lon="-17.8830170">
        <ele>1086.5</ele>
        <time>2020-11-16T15:43:17Z</time>
      </trkpt>
      <trkpt lat="28.7990380" lon="-17.8830670">
        <ele>1086.8</ele>
        <time>2020-11-16T15:43:18Z</time>
      </trkpt>
      <trkpt lat="28.7990380" lon="-17.8830670">
        <ele>1086.8</ele>
        <time>2020-11-16T15:43:19Z</time>
      </trkpt>
      <trkpt lat="28.7990180" lon="-17.8831130">
        <ele>1087.1</ele>
        <time>2020-11-16T15:43:20Z</time>
      </trkpt>
      <trkpt lat="28.7990180" lon="-17.8831130">
        <ele>1087.1</ele>
        <time>2020-11-16T15:43:21Z</time>
      </trkpt>
      <trkpt lat="28.7989950" lon="-17.8831650">
        <ele>1087.4</ele>
        <time>2020-11-16T15:43:22Z</time>
      </trkpt>
      <trkpt lat="28.7989950" lon="-17.8831650">
        <ele>1087.4</ele>
        <time>2020-11-16T15:43:23Z</time>
      </trkpt>
      <trkpt lat="28.7989800" lon="-17.8832200">
        <ele>1087.7</ele>
        <time>2020-11-16T15:43:24Z</time>
      </trkpt>
      <trkpt lat="28.7989800" lon="-17.8832200">
        <ele>1087.7</ele>
        <time>2020-11-16T15:43:25Z</time>
      </trkpt>
      <trkpt lat="28.7989580" lon="-17.8832750">
        <ele>1088.1</ele>
        <time>2020-11-16T15:43:26Z</time>
      </trkpt>
      <trkpt lat="28.7989580" lon="-17.8832750">
        <ele>1088.1</ele>
        <time>2020-11-16T15:43:27Z</time>
      </trkpt>
      <trkpt lat="28.7989370" lon="-17.8833250">
        <ele>1088.4</ele>
        <time>2020-11-16T15:43:28Z</time>
      </trkpt>
      <trkpt lat="28.7989370" lon="-17.8833250">
        <ele>1088.4</ele>
        <time>2020-11-16T15:43:29Z</time>
      </trkpt>
      <trkpt lat="28.7989080" lon="-17.8833850">
        <ele>1088.8</ele>
        <time>2020-11-16T15:43:30Z</time>
      </trkpt>
      <trkpt lat="28.7989080" lon="-17.8833850">
        <ele>1088.8</ele>
        <time>2020-11-16T15:43:31Z</time>
      </trkpt>
      <trkpt lat="28.7988800" lon="-17.8834380">
        <ele>1089.1</ele>
        <time>2020-11-16T15:43:32Z</time>
      </trkpt>
      <trkpt lat="28.7988800" lon="-17.8834380">
        <ele>1089.1</ele>
        <time>2020-11-16T15:43:33Z</time>
      </trkpt>
      <trkpt lat="28.7988450" lon="-17.8834920">
        <ele>1089.5</ele>
        <time>2020-11-16T15:43:34Z</time>
      </trkpt>
      <trkpt lat="28.7988300" lon="-17.8835130">
        <ele>1089.6</ele>
        <time>2020-11-16T15:43:35Z</time>
      </trkpt>
      <trkpt lat="28.7988300" lon="-17.8835130">
        <ele>1089.6</ele>
        <time>2020-11-16T15:43:36Z</time>
      </trkpt>
      <trkpt lat="28.7988020" lon="-17.8835530">
        <ele>1089.9</ele>
        <time>2020-11-16T15:43:37Z</time>
      </trkpt>
      <trkpt lat="28.7988020" lon="-17.8835530">
        <ele>1089.9</ele>
        <time>2020-11-16T15:43:38Z</time>
      </trkpt>
      <trkpt lat="28.7987670" lon="-17.8835950">
        <ele>1090.2</ele>
        <time>2020-11-16T15:43:39Z</time>
      </trkpt>
      <trkpt lat="28.7987670" lon="-17.8835950">
        <ele>1090.2</ele>
        <time>2020-11-16T15:43:40Z</time>
      </trkpt>
      <trkpt lat="28.7987320" lon="-17.8836300">
        <ele>1090.5</ele>
        <time>2020-11-16T15:43:41Z</time>
      </trkpt>
      <trkpt lat="28.7987320" lon="-17.8836300">
        <ele>1090.5</ele>
        <time>2020-11-16T15:43:42Z</time>
      </trkpt>
      <trkpt lat="28.7986950" lon="-17.8836850">
        <ele>1090.9</ele>
        <time>2020-11-16T15:43:43Z</time>
      </trkpt>
      <trkpt lat="28.7986800" lon="-17.8837070">
        <ele>1091.0</ele>
        <time>2020-11-16T15:43:44Z</time>
      </trkpt>
      <trkpt lat="28.7986800" lon="-17.8837070">
        <ele>1091.0</ele>
        <time>2020-11-16T15:43:45Z</time>
      </trkpt>
      <trkpt lat="28.7986470" lon="-17.8837480">
        <ele>1091.3</ele>
        <time>2020-11-16T15:43:46Z</time>
      </trkpt>
      <trkpt lat="28.7986470" lon="-17.8837480">
        <ele>1091.3</ele>
        <time>2020-11-16T15:43:47Z</time>
      </trkpt>
      <trkpt lat="28.7986070" lon="-17.8837780">
        <ele>1091.6</ele>
        <time>2020-11-16T15:43:48Z</time>
      </trkpt>
      <trkpt lat="28.7986070" lon="-17.8837780">
        <ele>1091.6</ele>
        <time>2020-11-16T15:43:49Z</time>
      </trkpt>
      <trkpt lat="28.7985720" lon="-17.8838080">
        <ele>1091.9</ele>
        <time>2020-11-16T15:43:50Z</time>
      </trkpt>
      <trkpt lat="28.7985720" lon="-17.8838080">
        <ele>1091.9</ele>
        <time>2020-11-16T15:43:51Z</time>
      </trkpt>
      <trkpt lat="28.7985300" lon="-17.8838430">
        <ele>1092.2</ele>
        <time>2020-11-16T15:43:52Z</time>
      </trkpt>
      <trkpt lat="28.7985100" lon="-17.8838630">
        <ele>1092.3</ele>
        <time>2020-11-16T15:43:53Z</time>
      </trkpt>
      <trkpt lat="28.7985100" lon="-17.8838630">
        <ele>1092.3</ele>
        <time>2020-11-16T15:43:54Z</time>
      </trkpt>
      <trkpt lat="28.7984720" lon="-17.8839030">
        <ele>1092.6</ele>
        <time>2020-11-16T15:43:55Z</time>
      </trkpt>
      <trkpt lat="28.7984720" lon="-17.8839030">
        <ele>1092.6</ele>
        <time>2020-11-16T15:43:56Z</time>
      </trkpt>
      <trkpt lat="28.7984320" lon="-17.8839300">
        <ele>1092.9</ele>
        <time>2020-11-16T15:43:57Z</time>
      </trkpt>
      <trkpt lat="28.7984120" lon="-17.8839450">
        <ele>1093.1</ele>
        <time>2020-11-16T15:43:58Z</time>
      </trkpt>
      <trkpt lat="28.7984120" lon="-17.8839450">
        <ele>1093.1</ele>
        <time>2020-11-16T15:43:59Z</time>
      </trkpt>
      <trkpt lat="28.7983720" lon="-17.8839780">
        <ele>1093.4</ele>
        <time>2020-11-16T15:44:00Z</time>
      </trkpt>
      <trkpt lat="28.7983720" lon="-17.8839780">
        <ele>1093.4</ele>
        <time>2020-11-16T15:44:01Z</time>
      </trkpt>
      <trkpt lat="28.7983380" lon="-17.8840150">
        <ele>1093.6</ele>
        <time>2020-11-16T15:44:02Z</time>
      </trkpt>
      <trkpt lat="28.7983380" lon="-17.8840150">
        <ele>1093.6</ele>
        <time>2020-11-16T15:44:03Z</time>
      </trkpt>
      <trkpt lat="28.7983000" lon="-17.8840500">
        <ele>1093.9</ele>
        <time>2020-11-16T15:44:04Z</time>
      </trkpt>
      <trkpt lat="28.7983000" lon="-17.8840500">
        <ele>1093.9</ele>
        <time>2020-11-16T15:44:05Z</time>
      </trkpt>
      <trkpt lat="28.7982750" lon="-17.8840850">
        <ele>1094.2</ele>
        <time>2020-11-16T15:44:06Z</time>
      </trkpt>
      <trkpt lat="28.7982750" lon="-17.8840850">
        <ele>1094.2</ele>
        <time>2020-11-16T15:44:07Z</time>
      </trkpt>
      <trkpt lat="28.7982380" lon="-17.8841130">
        <ele>1094.5</ele>
        <time>2020-11-16T15:44:08Z</time>
      </trkpt>
      <trkpt lat="28.7982380" lon="-17.8841130">
        <ele>1094.5</ele>
        <time>2020-11-16T15:44:09Z</time>
      </trkpt>
      <trkpt lat="28.7982020" lon="-17.8841450">
        <ele>1094.7</ele>
        <time>2020-11-16T15:44:10Z</time>
      </trkpt>
      <trkpt lat="28.7982020" lon="-17.8841450">
        <ele>1094.7</ele>
        <time>2020-11-16T15:44:11Z</time>
      </trkpt>
      <trkpt lat="28.7981620" lon="-17.8841750">
        <ele>1095.0</ele>
        <time>2020-11-16T15:44:12Z</time>
      </trkpt>
      <trkpt lat="28.7981620" lon="-17.8841750">
        <ele>1095.0</ele>
        <time>2020-11-16T15:44:13Z</time>
      </trkpt>
      <trkpt lat="28.7981100" lon="-17.8842230">
        <ele>1095.5</ele>
        <time>2020-11-16T15:44:14Z</time>
      </trkpt>
      <trkpt lat="28.7981100" lon="-17.8842230">
        <ele>1095.5</ele>
        <time>2020-11-16T15:44:15Z</time>
      </trkpt>
      <trkpt lat="28.7980700" lon="-17.8842770">
        <ele>1095.9</ele>
        <time>2020-11-16T15:44:16Z</time>
      </trkpt>
      <trkpt lat="28.7980700" lon="-17.8842770">
        <ele>1095.9</ele>
        <time>2020-11-16T15:44:17Z</time>
      </trkpt>
      <trkpt lat="28.7980380" lon="-17.8843330">
        <ele>1096.3</ele>
        <time>2020-11-16T15:44:18Z</time>
      </trkpt>
      <trkpt lat="28.7980380" lon="-17.8843330">
        <ele>1096.3</ele>
        <time>2020-11-16T15:44:19Z</time>
      </trkpt>
      <trkpt lat="28.7979980" lon="-17.8843820">
        <ele>1096.7</ele>
        <time>2020-11-16T15:44:20Z</time>
      </trkpt>
      <trkpt lat="28.7979980" lon="-17.8843820">
        <ele>1096.7</ele>
        <time>2020-11-16T15:44:21Z</time>
      </trkpt>
      <trkpt lat="28.7979600" lon="-17.8844320">
        <ele>1096.9</ele>
        <time>2020-11-16T15:44:22Z</time>
      </trkpt>
      <trkpt lat="28.7979600" lon="-17.8844320">
        <ele>1096.9</ele>
        <time>2020-11-16T15:44:23Z</time>
      </trkpt>
      <trkpt lat="28.7979470" lon="-17.8844950">
        <ele>1096.9</ele>
        <time>2020-11-16T15:44:24Z</time>
      </trkpt>
      <trkpt lat="28.7979470" lon="-17.8844950">
        <ele>1096.9</ele>
        <time>2020-11-16T15:44:25Z</time>
      </trkpt>
      <trkpt lat="28.7979400" lon="-17.8845430">
        <ele>1096.9</ele>
        <time>2020-11-16T15:44:26Z</time>
      </trkpt>
      <trkpt lat="28.7979400" lon="-17.8845430">
        <ele>1096.9</ele>
        <time>2020-11-16T15:44:27Z</time>
      </trkpt>
      <trkpt lat="28.7979220" lon="-17.8845750">
        <ele>1096.9</ele>
        <time>2020-11-16T15:44:28Z</time>
      </trkpt>
      <trkpt lat="28.7979220" lon="-17.8845750">
        <ele>1096.9</ele>
        <time>2020-11-16T15:44:29Z</time>
      </trkpt>
      <trkpt lat="28.7978920" lon="-17.8846130">
        <ele>1096.9</ele>
        <time>2020-11-16T15:44:30Z</time>
      </trkpt>
      <trkpt lat="28.7978920" lon="-17.8846130">
        <ele>1096.9</ele>
        <time>2020-11-16T15:44:31Z</time>
      </trkpt>
      <trkpt lat="28.7978550" lon="-17.8846530">
        <ele>1096.9</ele>
        <time>2020-11-16T15:44:32Z</time>
      </trkpt>
      <trkpt lat="28.7978550" lon="-17.8846530">
        <ele>1096.9</ele>
        <time>2020-11-16T15:44:33Z</time>
      </trkpt>
      <trkpt lat="28.7978430" lon="-17.8846950">
        <ele>1096.9</ele>
        <time>2020-11-16T15:44:34Z</time>
      </trkpt>
      <trkpt lat="28.7978350" lon="-17.8847120">
        <ele>1096.9</ele>
        <time>2020-11-16T15:44:35Z</time>
      </trkpt>
      <trkpt lat="28.7978350" lon="-17.8847120">
        <ele>1096.9</ele>
        <time>2020-11-16T15:44:36Z</time>
      </trkpt>
      <trkpt lat="28.7978220" lon="-17.8847300">
        <ele>1096.9</ele>
        <time>2020-11-16T15:44:37Z</time>
      </trkpt>
      <trkpt lat="28.7978220" lon="-17.8847300">
        <ele>1096.9</ele>
        <time>2020-11-16T15:44:38Z</time>
      </trkpt>
      <trkpt lat="28.7978100" lon="-17.8847420">
        <ele>1096.9</ele>
        <time>2020-11-16T15:44:39Z</time>
      </trkpt>
      <trkpt lat="28.7978100" lon="-17.8847420">
        <ele>1096.9</ele>
        <time>2020-11-16T15:44:40Z</time>
      </trkpt>
      <trkpt lat="28.7977370" lon="-17.8849050">
        <ele>1096.9</ele>
        <time>2020-11-16T15:45:36Z</time>
      </trkpt>
      <trkpt lat="28.7977370" lon="-17.8849050">
        <ele>1096.9</ele>
        <time>2020-11-16T15:45:37Z</time>
      </trkpt>
      <trkpt lat="28.7977370" lon="-17.8849050">
        <ele>1096.9</ele>
        <time>2020-11-16T15:45:38Z</time>
      </trkpt>
      <trkpt lat="28.7977150" lon="-17.8849170">
        <ele>1096.9</ele>
        <time>2020-11-16T15:45:39Z</time>
      </trkpt>
      <trkpt lat="28.7977030" lon="-17.8849270">
        <ele>1096.9</ele>
        <time>2020-11-16T15:45:40Z</time>
      </trkpt>
      <trkpt lat="28.7976880" lon="-17.8849570">
        <ele>1096.9</ele>
        <time>2020-11-16T15:45:41Z</time>
      </trkpt>
      <trkpt lat="28.7976880" lon="-17.8849570">
        <ele>1096.9</ele>
        <time>2020-11-16T15:45:42Z</time>
      </trkpt>
      <trkpt lat="28.7976720" lon="-17.8849850">
        <ele>1096.9</ele>
        <time>2020-11-16T15:45:43Z</time>
      </trkpt>
      <trkpt lat="28.7976720" lon="-17.8849850">
        <ele>1096.9</ele>
        <time>2020-11-16T15:45:44Z</time>
      </trkpt>
      <trkpt lat="28.7976450" lon="-17.8850200">
        <ele>1096.9</ele>
        <time>2020-11-16T15:45:45Z</time>
      </trkpt>
      <trkpt lat="28.7976450" lon="-17.8850200">
        <ele>1096.9</ele>
        <time>2020-11-16T15:45:46Z</time>
      </trkpt>
      <trkpt lat="28.7976280" lon="-17.8850650">
        <ele>1097.0</ele>
        <time>2020-11-16T15:45:47Z</time>
      </trkpt>
      <trkpt lat="28.7976280" lon="-17.8850650">
        <ele>1097.0</ele>
        <time>2020-11-16T15:45:48Z</time>
      </trkpt>
      <trkpt lat="28.7976280" lon="-17.8850650">
        <ele>1097.0</ele>
        <time>2020-11-16T15:45:49Z</time>
      </trkpt>
      <trkpt lat="28.7976130" lon="-17.8851130">
        <ele>1097.0</ele>
        <time>2020-11-16T15:45:50Z</time>
      </trkpt>
      <trkpt lat="28.7976000" lon="-17.8851630">
        <ele>1097.0</ele>
        <time>2020-11-16T15:45:51Z</time>
      </trkpt>
      <trkpt lat="28.7976000" lon="-17.8851630">
        <ele>1097.0</ele>
        <time>2020-11-16T15:45:52Z</time>
      </trkpt>
      <trkpt lat="28.7975850" lon="-17.8852070">
        <ele>1097.0</ele>
        <time>2020-11-16T15:45:53Z</time>
      </trkpt>
      <trkpt lat="28.7975850" lon="-17.8852070">
        <ele>1097.0</ele>
        <time>2020-11-16T15:45:54Z</time>
      </trkpt>
      <trkpt lat="28.7975850" lon="-17.8852070">
        <ele>1097.0</ele>
        <time>2020-11-16T15:45:55Z</time>
      </trkpt>
      <trkpt lat="28.7975750" lon="-17.8852570">
        <ele>1097.0</ele>
        <time>2020-11-16T15:45:56Z</time>
      </trkpt>
      <trkpt lat="28.7975750" lon="-17.8852570">
        <ele>1097.0</ele>
        <time>2020-11-16T15:45:57Z</time>
      </trkpt>
      <trkpt lat="28.7975580" lon="-17.8853070">
        <ele>1097.0</ele>
        <time>2020-11-16T15:45:58Z</time>
      </trkpt>
      <trkpt lat="28.7975470" lon="-17.8853300">
        <ele>1097.0</ele>
        <time>2020-11-16T15:45:59Z</time>
      </trkpt>
      <trkpt lat="28.7975470" lon="-17.8853300">
        <ele>1097.0</ele>
        <time>2020-11-16T15:46:00Z</time>
      </trkpt>
      <trkpt lat="28.7975400" lon="-17.8853820">
        <ele>1097.0</ele>
        <time>2020-11-16T15:46:01Z</time>
      </trkpt>
      <trkpt lat="28.7975280" lon="-17.8854330">
        <ele>1097.0</ele>
        <time>2020-11-16T15:46:02Z</time>
      </trkpt>
      <trkpt lat="28.7975280" lon="-17.8854330">
        <ele>1097.0</ele>
        <time>2020-11-16T15:46:03Z</time>
      </trkpt>
      <trkpt lat="28.7975170" lon="-17.8854880">
        <ele>1097.1</ele>
        <time>2020-11-16T15:46:04Z</time>
      </trkpt>
      <trkpt lat="28.7975100" lon="-17.8855130">
        <ele>1097.1</ele>
        <time>2020-11-16T15:46:05Z</time>
      </trkpt>
      <trkpt lat="28.7975100" lon="-17.8855130">
        <ele>1097.1</ele>
        <time>2020-11-16T15:46:06Z</time>
      </trkpt>
      <trkpt lat="28.7975100" lon="-17.8855130">
        <ele>1097.1</ele>
        <time>2020-11-16T15:46:07Z</time>
      </trkpt>
      <trkpt lat="28.7974980" lon="-17.8855670">
        <ele>1097.1</ele>
        <time>2020-11-16T15:46:08Z</time>
      </trkpt>
      <trkpt lat="28.7974930" lon="-17.8856150">
        <ele>1097.1</ele>
        <time>2020-11-16T15:46:09Z</time>
      </trkpt>
      <trkpt lat="28.7974870" lon="-17.8856430">
        <ele>1097.1</ele>
        <time>2020-11-16T15:46:10Z</time>
      </trkpt>
      <trkpt lat="28.7974870" lon="-17.8856430">
        <ele>1097.1</ele>
        <time>2020-11-16T15:46:11Z</time>
      </trkpt>
      <trkpt lat="28.7974780" lon="-17.8856950">
        <ele>1097.1</ele>
        <time>2020-11-16T15:46:12Z</time>
      </trkpt>
      <trkpt lat="28.7974780" lon="-17.8856950">
        <ele>1097.1</ele>
        <time>2020-11-16T15:46:13Z</time>
      </trkpt>
      <trkpt lat="28.7974780" lon="-17.8856950">
        <ele>1097.1</ele>
        <time>2020-11-16T15:46:14Z</time>
      </trkpt>
      <trkpt lat="28.7974750" lon="-17.8857520">
        <ele>1097.1</ele>
        <time>2020-11-16T15:46:15Z</time>
      </trkpt>
      <trkpt lat="28.7974700" lon="-17.8858100">
        <ele>1097.1</ele>
        <time>2020-11-16T15:46:16Z</time>
      </trkpt>
      <trkpt lat="28.7974700" lon="-17.8858100">
        <ele>1097.1</ele>
        <time>2020-11-16T15:46:17Z</time>
      </trkpt>
      <trkpt lat="28.7974680" lon="-17.8858630">
        <ele>1097.0</ele>
        <time>2020-11-16T15:46:18Z</time>
      </trkpt>
      <trkpt lat="28.7974670" lon="-17.8858870">
        <ele>1097.0</ele>
        <time>2020-11-16T15:46:19Z</time>
      </trkpt>
      <trkpt lat="28.7974670" lon="-17.8858870">
        <ele>1097.0</ele>
        <time>2020-11-16T15:46:20Z</time>
      </trkpt>
      <trkpt lat="28.7974600" lon="-17.8859320">
        <ele>1097.0</ele>
        <time>2020-11-16T15:46:21Z</time>
      </trkpt>
      <trkpt lat="28.7974600" lon="-17.8859320">
        <ele>1097.0</ele>
        <time>2020-11-16T15:46:22Z</time>
      </trkpt>
      <trkpt lat="28.7974520" lon="-17.8859750">
        <ele>1097.0</ele>
        <time>2020-11-16T15:46:23Z</time>
      </trkpt>
      <trkpt lat="28.7974520" lon="-17.8859750">
        <ele>1097.0</ele>
        <time>2020-11-16T15:46:24Z</time>
      </trkpt>
      <trkpt lat="28.7974670" lon="-17.8860300">
        <ele>1097.0</ele>
        <time>2020-11-16T15:46:25Z</time>
      </trkpt>
      <trkpt lat="28.7974670" lon="-17.8860300">
        <ele>1097.0</ele>
        <time>2020-11-16T15:46:26Z</time>
      </trkpt>
      <trkpt lat="28.7974680" lon="-17.8860730">
        <ele>1096.9</ele>
        <time>2020-11-16T15:46:27Z</time>
      </trkpt>
      <trkpt lat="28.7974680" lon="-17.8860730">
        <ele>1096.9</ele>
        <time>2020-11-16T15:46:28Z</time>
      </trkpt>
      <trkpt lat="28.7974680" lon="-17.8860730">
        <ele>1096.9</ele>
        <time>2020-11-16T15:46:29Z</time>
      </trkpt>
      <trkpt lat="28.7974930" lon="-17.8861270">
        <ele>1097.3</ele>
        <time>2020-11-16T15:46:30Z</time>
      </trkpt>
      <trkpt lat="28.7975170" lon="-17.8861780">
        <ele>1097.7</ele>
        <time>2020-11-16T15:46:31Z</time>
      </trkpt>
      <trkpt lat="28.7975270" lon="-17.8862020">
        <ele>1097.9</ele>
        <time>2020-11-16T15:46:32Z</time>
      </trkpt>
      <trkpt lat="28.7975270" lon="-17.8862020">
        <ele>1097.9</ele>
        <time>2020-11-16T15:46:33Z</time>
      </trkpt>
      <trkpt lat="28.7975350" lon="-17.8862350">
        <ele>1098.2</ele>
        <time>2020-11-16T15:46:34Z</time>
      </trkpt>
      <trkpt lat="28.7975350" lon="-17.8862350">
        <ele>1098.2</ele>
        <time>2020-11-16T15:46:35Z</time>
      </trkpt>
      <trkpt lat="28.7975350" lon="-17.8862350">
        <ele>1098.2</ele>
        <time>2020-11-16T15:46:36Z</time>
      </trkpt>
      <trkpt lat="28.7975820" lon="-17.8863030">
        <ele>1098.8</ele>
        <time>2020-11-16T15:46:37Z</time>
      </trkpt>
      <trkpt lat="28.7975820" lon="-17.8863030">
        <ele>1098.8</ele>
        <time>2020-11-16T15:46:38Z</time>
      </trkpt>
      <trkpt lat="28.7976250" lon="-17.8863400">
        <ele>1099.3</ele>
        <time>2020-11-16T15:46:39Z</time>
      </trkpt>
      <trkpt lat="28.7976250" lon="-17.8863400">
        <ele>1099.3</ele>
        <time>2020-11-16T15:46:40Z</time>
      </trkpt>
      <trkpt lat="28.7976250" lon="-17.8863400">
        <ele>1099.3</ele>
        <time>2020-11-16T15:46:41Z</time>
      </trkpt>
      <trkpt lat="28.7976830" lon="-17.8863920">
        <ele>1099.9</ele>
        <time>2020-11-16T15:46:42Z</time>
      </trkpt>
      <trkpt lat="28.7977280" lon="-17.8864380">
        <ele>1099.4</ele>
        <time>2020-11-16T15:46:43Z</time>
      </trkpt>
      <trkpt lat="28.7977280" lon="-17.8864380">
        <ele>1099.4</ele>
        <time>2020-11-16T15:46:44Z</time>
      </trkpt>
      <trkpt lat="28.7977620" lon="-17.8864720">
        <ele>1099.0</ele>
        <time>2020-11-16T15:46:45Z</time>
      </trkpt>
      <trkpt lat="28.7977620" lon="-17.8864720">
        <ele>1099.0</ele>
        <time>2020-11-16T15:46:46Z</time>
      </trkpt>
      <trkpt lat="28.7977620" lon="-17.8864720">
        <ele>1099.0</ele>
        <time>2020-11-16T15:46:47Z</time>
      </trkpt>
      <trkpt lat="28.7977920" lon="-17.8865080">
        <ele>1098.6</ele>
        <time>2020-11-16T15:46:48Z</time>
      </trkpt>
      <trkpt lat="28.7978280" lon="-17.8865370">
        <ele>1098.2</ele>
        <time>2020-11-16T15:46:49Z</time>
      </trkpt>
      <trkpt lat="28.7978280" lon="-17.8865370">
        <ele>1098.2</ele>
        <time>2020-11-16T15:46:50Z</time>
      </trkpt>
      <trkpt lat="28.7978280" lon="-17.8865370">
        <ele>1098.2</ele>
        <time>2020-11-16T15:46:51Z</time>
      </trkpt>
      <trkpt lat="28.7978620" lon="-17.8865630">
        <ele>1097.8</ele>
        <time>2020-11-16T15:46:52Z</time>
      </trkpt>
      <trkpt lat="28.7978870" lon="-17.8865920">
        <ele>1097.5</ele>
        <time>2020-11-16T15:46:53Z</time>
      </trkpt>
      <trkpt lat="28.7978870" lon="-17.8865920">
        <ele>1097.5</ele>
        <time>2020-11-16T15:46:54Z</time>
      </trkpt>
      <trkpt lat="28.7978870" lon="-17.8865920">
        <ele>1097.5</ele>
        <time>2020-11-16T15:46:55Z</time>
      </trkpt>
      <trkpt lat="28.7979220" lon="-17.8866320">
        <ele>1097.0</ele>
        <time>2020-11-16T15:46:56Z</time>
      </trkpt>
      <trkpt lat="28.7979220" lon="-17.8866320">
        <ele>1097.0</ele>
        <time>2020-11-16T15:46:57Z</time>
      </trkpt>
      <trkpt lat="28.7979550" lon="-17.8866700">
        <ele>1096.6</ele>
        <time>2020-11-16T15:46:58Z</time>
      </trkpt>
      <trkpt lat="28.7979680" lon="-17.8866920">
        <ele>1096.3</ele>
        <time>2020-11-16T15:46:59Z</time>
      </trkpt>
      <trkpt lat="28.7979970" lon="-17.8867380">
        <ele>1095.8</ele>
        <time>2020-11-16T15:47:00Z</time>
      </trkpt>
      <trkpt lat="28.7979970" lon="-17.8867380">
        <ele>1095.8</ele>
        <time>2020-11-16T15:47:01Z</time>
      </trkpt>
      <trkpt lat="28.7980270" lon="-17.8867880">
        <ele>1095.3</ele>
        <time>2020-11-16T15:47:02Z</time>
      </trkpt>
      <trkpt lat="28.7980270" lon="-17.8867880">
        <ele>1095.3</ele>
        <time>2020-11-16T15:47:03Z</time>
      </trkpt>
      <trkpt lat="28.7980570" lon="-17.8868430">
        <ele>1094.9</ele>
        <time>2020-11-16T15:47:04Z</time>
      </trkpt>
      <trkpt lat="28.7980570" lon="-17.8868430">
        <ele>1094.9</ele>
        <time>2020-11-16T15:47:05Z</time>
      </trkpt>
      <trkpt lat="28.7980830" lon="-17.8868980">
        <ele>1095.0</ele>
        <time>2020-11-16T15:47:06Z</time>
      </trkpt>
      <trkpt lat="28.7980830" lon="-17.8868980">
        <ele>1095.0</ele>
        <time>2020-11-16T15:47:07Z</time>
      </trkpt>
      <trkpt lat="28.7980980" lon="-17.8869630">
        <ele>1095.0</ele>
        <time>2020-11-16T15:47:08Z</time>
      </trkpt>
      <trkpt lat="28.7980980" lon="-17.8869630">
        <ele>1095.0</ele>
        <time>2020-11-16T15:47:09Z</time>
      </trkpt>
      <trkpt lat="28.7981050" lon="-17.8869930">
        <ele>1095.0</ele>
        <time>2020-11-16T15:47:10Z</time>
      </trkpt>
      <trkpt lat="28.7981050" lon="-17.8869930">
        <ele>1095.0</ele>
        <time>2020-11-16T15:47:11Z</time>
      </trkpt>
      <trkpt lat="28.7981080" lon="-17.8870500">
        <ele>1095.0</ele>
        <time>2020-11-16T15:47:12Z</time>
      </trkpt>
      <trkpt lat="28.7981120" lon="-17.8871050">
        <ele>1095.0</ele>
        <time>2020-11-16T15:47:13Z</time>
      </trkpt>
      <trkpt lat="28.7981120" lon="-17.8871050">
        <ele>1095.0</ele>
        <time>2020-11-16T15:47:14Z</time>
      </trkpt>
      <trkpt lat="28.7981120" lon="-17.8871580">
        <ele>1095.0</ele>
        <time>2020-11-16T15:47:15Z</time>
      </trkpt>
      <trkpt lat="28.7981120" lon="-17.8871580">
        <ele>1095.0</ele>
        <time>2020-11-16T15:47:16Z</time>
      </trkpt>
      <trkpt lat="28.7980970" lon="-17.8872100">
        <ele>1094.9</ele>
        <time>2020-11-16T15:47:17Z</time>
      </trkpt>
      <trkpt lat="28.7980900" lon="-17.8872380">
        <ele>1094.9</ele>
        <time>2020-11-16T15:47:18Z</time>
      </trkpt>
      <trkpt lat="28.7980820" lon="-17.8872650">
        <ele>1094.8</ele>
        <time>2020-11-16T15:47:19Z</time>
      </trkpt>
      <trkpt lat="28.7980820" lon="-17.8872650">
        <ele>1094.8</ele>
        <time>2020-11-16T15:47:20Z</time>
      </trkpt>
      <trkpt lat="28.7980780" lon="-17.8873230">
        <ele>1094.7</ele>
        <time>2020-11-16T15:47:21Z</time>
      </trkpt>
      <trkpt lat="28.7980780" lon="-17.8873230">
        <ele>1094.7</ele>
        <time>2020-11-16T15:47:22Z</time>
      </trkpt>
      <trkpt lat="28.7980530" lon="-17.8873870">
        <ele>1094.5</ele>
        <time>2020-11-16T15:47:23Z</time>
      </trkpt>
      <trkpt lat="28.7980530" lon="-17.8873870">
        <ele>1094.5</ele>
        <time>2020-11-16T15:47:24Z</time>
      </trkpt>
      <trkpt lat="28.7980350" lon="-17.8874520">
        <ele>1094.3</ele>
        <time>2020-11-16T15:47:25Z</time>
      </trkpt>
      <trkpt lat="28.7980350" lon="-17.8874520">
        <ele>1094.3</ele>
        <time>2020-11-16T15:47:26Z</time>
      </trkpt>
      <trkpt lat="28.7980080" lon="-17.8875150">
        <ele>1094.1</ele>
        <time>2020-11-16T15:47:27Z</time>
      </trkpt>
      <trkpt lat="28.7980080" lon="-17.8875150">
        <ele>1094.1</ele>
        <time>2020-11-16T15:47:28Z</time>
      </trkpt>
      <trkpt lat="28.7980080" lon="-17.8875150">
        <ele>1094.1</ele>
        <time>2020-11-16T15:47:29Z</time>
      </trkpt>
      <trkpt lat="28.7979430" lon="-17.8875870">
        <ele>1093.7</ele>
        <time>2020-11-16T15:47:30Z</time>
      </trkpt>
      <trkpt lat="28.7979430" lon="-17.8875870">
        <ele>1093.7</ele>
        <time>2020-11-16T15:47:31Z</time>
      </trkpt>
      <trkpt lat="28.7979120" lon="-17.8876130">
        <ele>1093.5</ele>
        <time>2020-11-16T15:47:32Z</time>
      </trkpt>
      <trkpt lat="28.7978220" lon="-17.8876850">
        <ele>1092.9</ele>
        <time>2020-11-16T15:47:33Z</time>
      </trkpt>
      <trkpt lat="28.7978220" lon="-17.8876850">
        <ele>1092.9</ele>
        <time>2020-11-16T15:47:34Z</time>
      </trkpt>
      <trkpt lat="28.7977250" lon="-17.8877720">
        <ele>1092.2</ele>
        <time>2020-11-16T15:47:35Z</time>
      </trkpt>
      <trkpt lat="28.7977250" lon="-17.8877720">
        <ele>1092.2</ele>
        <time>2020-11-16T15:47:36Z</time>
      </trkpt>
      <trkpt lat="28.7977250" lon="-17.8877720">
        <ele>1092.2</ele>
        <time>2020-11-16T15:47:37Z</time>
      </trkpt>
      <trkpt lat="28.7976200" lon="-17.8878700">
        <ele>1091.2</ele>
        <time>2020-11-16T15:47:38Z</time>
      </trkpt>
      <trkpt lat="28.7976200" lon="-17.8878700">
        <ele>1091.2</ele>
        <time>2020-11-16T15:47:39Z</time>
      </trkpt>
      <trkpt lat="28.7974980" lon="-17.8879750">
        <ele>1090.1</ele>
        <time>2020-11-16T15:47:40Z</time>
      </trkpt>
      <trkpt lat="28.7973530" lon="-17.8880880">
        <ele>1088.7</ele>
        <time>2020-11-16T15:47:41Z</time>
      </trkpt>
      <trkpt lat="28.7973530" lon="-17.8880880">
        <ele>1088.7</ele>
        <time>2020-11-16T15:47:42Z</time>
      </trkpt>
      <trkpt lat="28.7972400" lon="-17.8881830">
        <ele>1087.7</ele>
        <time>2020-11-16T15:47:43Z</time>
      </trkpt>
      <trkpt lat="28.7972400" lon="-17.8881830">
        <ele>1087.7</ele>
        <time>2020-11-16T15:47:44Z</time>
      </trkpt>
      <trkpt lat="28.7972400" lon="-17.8881830">
        <ele>1087.7</ele>
        <time>2020-11-16T15:47:45Z</time>
      </trkpt>
      <trkpt lat="28.7971850" lon="-17.8882100">
        <ele>1087.3</ele>
        <time>2020-11-16T15:47:46Z</time>
      </trkpt>
      <trkpt lat="28.7971880" lon="-17.8882180">
        <ele>1087.2</ele>
        <time>2020-11-16T15:47:47Z</time>
      </trkpt>
      <trkpt lat="28.7971970" lon="-17.8882250">
        <ele>1087.1</ele>
        <time>2020-11-16T15:47:48Z</time>
      </trkpt>
      <trkpt lat="28.7972000" lon="-17.8882200">
        <ele>1087.1</ele>
        <time>2020-11-16T15:47:49Z</time>
      </trkpt>
      <trkpt lat="28.7972070" lon="-17.8882200">
        <ele>1087.0</ele>
        <time>2020-11-16T15:47:50Z</time>
      </trkpt>
      <trkpt lat="28.7972120" lon="-17.8882230">
        <ele>1087.0</ele>
        <time>2020-11-16T15:47:51Z</time>
      </trkpt>
      <trkpt lat="28.7972120" lon="-17.8882230">
        <ele>1087.0</ele>
        <time>2020-11-16T15:47:52Z</time>
      </trkpt>
      <trkpt lat="28.7972270" lon="-17.8882200">
        <ele>1086.9</ele>
        <time>2020-11-16T15:47:53Z</time>
      </trkpt>
      <trkpt lat="28.7972300" lon="-17.8882200">
        <ele>1086.9</ele>
        <time>2020-11-16T15:47:54Z</time>
      </trkpt>
      <trkpt lat="28.7972300" lon="-17.8882200">
        <ele>1086.9</ele>
        <time>2020-11-16T15:47:55Z</time>
      </trkpt>
      <trkpt lat="28.7972350" lon="-17.8882200">
        <ele>1086.8</ele>
        <time>2020-11-16T15:47:56Z</time>
      </trkpt>
      <trkpt lat="28.7972350" lon="-17.8882200">
        <ele>1086.8</ele>
        <time>2020-11-16T15:47:57Z</time>
      </trkpt>
      <trkpt lat="28.7972480" lon="-17.8882230">
        <ele>1086.8</ele>
        <time>2020-11-16T15:47:58Z</time>
      </trkpt>
      <trkpt lat="28.7972480" lon="-17.8882230">
        <ele>1086.8</ele>
        <time>2020-11-16T15:47:59Z</time>
      </trkpt>
      <trkpt lat="28.7972550" lon="-17.8882280">
        <ele>1086.7</ele>
        <time>2020-11-16T15:48:00Z</time>
      </trkpt>
      <trkpt lat="28.7972630" lon="-17.8882300">
        <ele>1086.6</ele>
        <time>2020-11-16T15:48:01Z</time>
      </trkpt>
      <trkpt lat="28.7972630" lon="-17.8882300">
        <ele>1086.6</ele>
        <time>2020-11-16T15:48:02Z</time>
      </trkpt>
      <trkpt lat="28.7972930" lon="-17.8882330">
        <ele>1086.4</ele>
        <time>2020-11-16T15:48:03Z</time>
      </trkpt>
      <trkpt lat="28.7972930" lon="-17.8882330">
        <ele>1086.4</ele>
        <time>2020-11-16T15:48:04Z</time>
      </trkpt>
      <trkpt lat="28.7973180" lon="-17.8882180">
        <ele>1086.2</ele>
        <time>2020-11-16T15:48:05Z</time>
      </trkpt>
      <trkpt lat="28.7973180" lon="-17.8882180">
        <ele>1086.2</ele>
        <time>2020-11-16T15:48:06Z</time>
      </trkpt>
      <trkpt lat="28.7973380" lon="-17.8882020">
        <ele>1086.0</ele>
        <time>2020-11-16T15:48:07Z</time>
      </trkpt>
      <trkpt lat="28.7973380" lon="-17.8882020">
        <ele>1086.0</ele>
        <time>2020-11-16T15:48:08Z</time>
      </trkpt>
      <trkpt lat="28.7973450" lon="-17.8881830">
        <ele>1085.8</ele>
        <time>2020-11-16T15:48:09Z</time>
      </trkpt>
      <trkpt lat="28.7973450" lon="-17.8881850">
        <ele>1085.8</ele>
        <time>2020-11-16T15:48:10Z</time>
      </trkpt>
      <trkpt lat="28.7973470" lon="-17.8881780">
        <ele>1085.8</ele>
        <time>2020-11-16T15:48:11Z</time>
      </trkpt>
      <trkpt lat="28.7973470" lon="-17.8881780">
        <ele>1085.8</ele>
        <time>2020-11-16T15:50:32Z</time>
      </trkpt>
      <trkpt lat="28.7972870" lon="-17.8881980">
        <ele>1085.2</ele>
        <time>2020-11-16T15:50:33Z</time>
      </trkpt>
      <trkpt lat="28.7972630" lon="-17.8882050">
        <ele>1085.0</ele>
        <time>2020-11-16T15:50:34Z</time>
      </trkpt>
      <trkpt lat="28.7972630" lon="-17.8882050">
        <ele>1085.0</ele>
        <time>2020-11-16T15:50:35Z</time>
      </trkpt>
      <trkpt lat="28.7971970" lon="-17.8882300">
        <ele>1084.4</ele>
        <time>2020-11-16T15:50:36Z</time>
      </trkpt>
      <trkpt lat="28.7971970" lon="-17.8882300">
        <ele>1084.4</ele>
        <time>2020-11-16T15:50:37Z</time>
      </trkpt>
      <trkpt lat="28.7971280" lon="-17.8882380">
        <ele>1083.8</ele>
        <time>2020-11-16T15:50:38Z</time>
      </trkpt>
      <trkpt lat="28.7971280" lon="-17.8882380">
        <ele>1083.8</ele>
        <time>2020-11-16T15:50:39Z</time>
      </trkpt>
      <trkpt lat="28.7970530" lon="-17.8882770">
        <ele>1083.0</ele>
        <time>2020-11-16T15:50:40Z</time>
      </trkpt>
      <trkpt lat="28.7970530" lon="-17.8882770">
        <ele>1083.0</ele>
        <time>2020-11-16T15:50:41Z</time>
      </trkpt>
      <trkpt lat="28.7969580" lon="-17.8883450">
        <ele>1081.8</ele>
        <time>2020-11-16T15:50:42Z</time>
      </trkpt>
      <trkpt lat="28.7969580" lon="-17.8883450">
        <ele>1081.8</ele>
        <time>2020-11-16T15:50:43Z</time>
      </trkpt>
      <trkpt lat="28.7968480" lon="-17.8884030">
        <ele>1080.6</ele>
        <time>2020-11-16T15:50:44Z</time>
      </trkpt>
      <trkpt lat="28.7968480" lon="-17.8884030">
        <ele>1080.6</ele>
        <time>2020-11-16T15:50:45Z</time>
      </trkpt>
      <trkpt lat="28.7967070" lon="-17.8884580">
        <ele>1079.0</ele>
        <time>2020-11-16T15:50:46Z</time>
      </trkpt>
      <trkpt lat="28.7967070" lon="-17.8884580">
        <ele>1079.0</ele>
        <time>2020-11-16T15:50:47Z</time>
      </trkpt>
      <trkpt lat="28.7965430" lon="-17.8885320">
        <ele>1077.0</ele>
        <time>2020-11-16T15:50:48Z</time>
      </trkpt>
      <trkpt lat="28.7964480" lon="-17.8885820">
        <ele>1075.8</ele>
        <time>2020-11-16T15:50:49Z</time>
      </trkpt>
      <trkpt lat="28.7964480" lon="-17.8885820">
        <ele>1075.8</ele>
        <time>2020-11-16T15:50:50Z</time>
      </trkpt>
      <trkpt lat="28.7962580" lon="-17.8886820">
        <ele>1073.5</ele>
        <time>2020-11-16T15:50:51Z</time>
      </trkpt>
      <trkpt lat="28.7961570" lon="-17.8887320">
        <ele>1072.4</ele>
        <time>2020-11-16T15:50:52Z</time>
      </trkpt>
      <trkpt lat="28.7961570" lon="-17.8887320">
        <ele>1072.4</ele>
        <time>2020-11-16T15:50:53Z</time>
      </trkpt>
      <trkpt lat="28.7959400" lon="-17.8888370">
        <ele>1070.5</ele>
        <time>2020-11-16T15:50:54Z</time>
      </trkpt>
      <trkpt lat="28.7959400" lon="-17.8888370">
        <ele>1070.5</ele>
        <time>2020-11-16T15:50:55Z</time>
      </trkpt>
      <trkpt lat="28.7957370" lon="-17.8889830">
        <ele>1069.5</ele>
        <time>2020-11-16T15:50:56Z</time>
      </trkpt>
      <trkpt lat="28.7957370" lon="-17.8889830">
        <ele>1069.5</ele>
        <time>2020-11-16T15:50:57Z</time>
      </trkpt>
      <trkpt lat="28.7955670" lon="-17.8891720">
        <ele>1069.2</ele>
        <time>2020-11-16T15:50:58Z</time>
      </trkpt>
      <trkpt lat="28.7955670" lon="-17.8891720">
        <ele>1069.2</ele>
        <time>2020-11-16T15:50:59Z</time>
      </trkpt>
      <trkpt lat="28.7955620" lon="-17.8893800">
        <ele>1069.3</ele>
        <time>2020-11-16T15:51:00Z</time>
      </trkpt>
      <trkpt lat="28.7956000" lon="-17.8894850">
        <ele>1069.6</ele>
        <time>2020-11-16T15:51:01Z</time>
      </trkpt>
      <trkpt lat="28.7956670" lon="-17.8895850">
        <ele>1070.0</ele>
        <time>2020-11-16T15:51:02Z</time>
      </trkpt>
      <trkpt lat="28.7956670" lon="-17.8895850">
        <ele>1070.0</ele>
        <time>2020-11-16T15:51:03Z</time>
      </trkpt>
      <trkpt lat="28.7958700" lon="-17.8896970">
        <ele>1071.5</ele>
        <time>2020-11-16T15:51:04Z</time>
      </trkpt>
      <trkpt lat="28.7959670" lon="-17.8897300">
        <ele>1072.4</ele>
        <time>2020-11-16T15:51:05Z</time>
      </trkpt>
      <trkpt lat="28.7959670" lon="-17.8897300">
        <ele>1072.4</ele>
        <time>2020-11-16T15:51:06Z</time>
      </trkpt>
      <trkpt lat="28.7961280" lon="-17.8897770">
        <ele>1073.9</ele>
        <time>2020-11-16T15:51:07Z</time>
      </trkpt>
      <trkpt lat="28.7961280" lon="-17.8897770">
        <ele>1073.9</ele>
        <time>2020-11-16T15:51:08Z</time>
      </trkpt>
      <trkpt lat="28.7962300" lon="-17.8898070">
        <ele>1074.9</ele>
        <time>2020-11-16T15:51:09Z</time>
      </trkpt>
      <trkpt lat="28.7962300" lon="-17.8898070">
        <ele>1074.9</ele>
        <time>2020-11-16T15:51:10Z</time>
      </trkpt>
      <trkpt lat="28.7963030" lon="-17.8898170">
        <ele>1075.7</ele>
        <time>2020-11-16T15:51:11Z</time>
      </trkpt>
      <trkpt lat="28.7963330" lon="-17.8898270">
        <ele>1076.0</ele>
        <time>2020-11-16T15:51:12Z</time>
      </trkpt>
      <trkpt lat="28.7963330" lon="-17.8898270">
        <ele>1076.0</ele>
        <time>2020-11-16T15:51:13Z</time>
      </trkpt>
      <trkpt lat="28.7963880" lon="-17.8898420">
        <ele>1076.6</ele>
        <time>2020-11-16T15:51:14Z</time>
      </trkpt>
      <trkpt lat="28.7963880" lon="-17.8898420">
        <ele>1076.6</ele>
        <time>2020-11-16T15:51:15Z</time>
      </trkpt>
      <trkpt lat="28.7964300" lon="-17.8898600">
        <ele>1077.1</ele>
        <time>2020-11-16T15:51:16Z</time>
      </trkpt>
      <trkpt lat="28.7964300" lon="-17.8898600">
        <ele>1077.1</ele>
        <time>2020-11-16T15:51:17Z</time>
      </trkpt>
      <trkpt lat="28.7964600" lon="-17.8898820">
        <ele>1077.5</ele>
        <time>2020-11-16T15:51:18Z</time>
      </trkpt>
      <trkpt lat="28.7964770" lon="-17.8898900">
        <ele>1077.7</ele>
        <time>2020-11-16T15:51:19Z</time>
      </trkpt>
      <trkpt lat="28.7964770" lon="-17.8898900">
        <ele>1077.7</ele>
        <time>2020-11-16T15:51:20Z</time>
      </trkpt>
      <trkpt lat="28.7965100" lon="-17.8899120">
        <ele>1078.1</ele>
        <time>2020-11-16T15:51:21Z</time>
      </trkpt>
      <trkpt lat="28.7965100" lon="-17.8899120">
        <ele>1078.1</ele>
        <time>2020-11-16T15:51:22Z</time>
      </trkpt>
      <trkpt lat="28.7965430" lon="-17.8899350">
        <ele>1078.5</ele>
        <time>2020-11-16T15:51:23Z</time>
      </trkpt>
      <trkpt lat="28.7965430" lon="-17.8899350">
        <ele>1078.5</ele>
        <time>2020-11-16T15:51:24Z</time>
      </trkpt>
      <trkpt lat="28.7965770" lon="-17.8899580">
        <ele>1078.9</ele>
        <time>2020-11-16T15:51:25Z</time>
      </trkpt>
      <trkpt lat="28.7965770" lon="-17.8899580">
        <ele>1078.9</ele>
        <time>2020-11-16T15:51:26Z</time>
      </trkpt>
      <trkpt lat="28.7966030" lon="-17.8899750">
        <ele>1079.2</ele>
        <time>2020-11-16T15:51:27Z</time>
      </trkpt>
      <trkpt lat="28.7966030" lon="-17.8899750">
        <ele>1079.2</ele>
        <time>2020-11-16T15:51:28Z</time>
      </trkpt>
      <trkpt lat="28.7966280" lon="-17.8899950">
        <ele>1079.6</ele>
        <time>2020-11-16T15:51:29Z</time>
      </trkpt>
      <trkpt lat="28.7966420" lon="-17.8900050">
        <ele>1079.7</ele>
        <time>2020-11-16T15:51:30Z</time>
      </trkpt>
      <trkpt lat="28.7966420" lon="-17.8900050">
        <ele>1079.7</ele>
        <time>2020-11-16T15:51:31Z</time>
      </trkpt>
      <trkpt lat="28.7966850" lon="-17.8900070">
        <ele>1080.2</ele>
        <time>2020-11-16T15:51:32Z</time>
      </trkpt>
      <trkpt lat="28.7966850" lon="-17.8900070">
        <ele>1080.2</ele>
        <time>2020-11-16T15:51:33Z</time>
      </trkpt>
      <trkpt lat="28.7967280" lon="-17.8899780">
        <ele>1080.7</ele>
        <time>2020-11-16T15:51:34Z</time>
      </trkpt>
      <trkpt lat="28.7967280" lon="-17.8899780">
        <ele>1080.7</ele>
        <time>2020-11-16T15:51:35Z</time>
      </trkpt>
      <trkpt lat="28.7967650" lon="-17.8899970">
        <ele>1081.1</ele>
        <time>2020-11-16T15:51:36Z</time>
      </trkpt>
      <trkpt lat="28.7967650" lon="-17.8899970">
        <ele>1081.1</ele>
        <time>2020-11-16T15:51:37Z</time>
      </trkpt>
      <trkpt lat="28.7968080" lon="-17.8900270">
        <ele>1081.6</ele>
        <time>2020-11-16T15:51:38Z</time>
      </trkpt>
      <trkpt lat="28.7968080" lon="-17.8900270">
        <ele>1081.6</ele>
        <time>2020-11-16T15:51:39Z</time>
      </trkpt>
      <trkpt lat="28.7968400" lon="-17.8900400">
        <ele>1081.9</ele>
        <time>2020-11-16T15:51:40Z</time>
      </trkpt>
      <trkpt lat="28.7968400" lon="-17.8900400">
        <ele>1081.9</ele>
        <time>2020-11-16T15:51:41Z</time>
      </trkpt>
      <trkpt lat="28.7968920" lon="-17.8900370">
        <ele>1082.5</ele>
        <time>2020-11-16T15:51:42Z</time>
      </trkpt>
      <trkpt lat="28.7968920" lon="-17.8900370">
        <ele>1082.5</ele>
        <time>2020-11-16T15:51:43Z</time>
      </trkpt>
      <trkpt lat="28.7969380" lon="-17.8900370">
        <ele>1082.9</ele>
        <time>2020-11-16T15:51:44Z</time>
      </trkpt>
      <trkpt lat="28.7969380" lon="-17.8900370">
        <ele>1082.9</ele>
        <time>2020-11-16T15:51:45Z</time>
      </trkpt>
      <trkpt lat="28.7969820" lon="-17.8900520">
        <ele>1083.3</ele>
        <time>2020-11-16T15:51:46Z</time>
      </trkpt>
      <trkpt lat="28.7969820" lon="-17.8900520">
        <ele>1083.3</ele>
        <time>2020-11-16T15:51:47Z</time>
      </trkpt>
      <trkpt lat="28.7970180" lon="-17.8900820">
        <ele>1083.8</ele>
        <time>2020-11-16T15:51:48Z</time>
      </trkpt>
      <trkpt lat="28.7970180" lon="-17.8900820">
        <ele>1083.8</ele>
        <time>2020-11-16T15:51:49Z</time>
      </trkpt>
      <trkpt lat="28.7970450" lon="-17.8901000">
        <ele>1084.1</ele>
        <time>2020-11-16T15:51:50Z</time>
      </trkpt>
      <trkpt lat="28.7970450" lon="-17.8901000">
        <ele>1084.1</ele>
        <time>2020-11-16T15:51:51Z</time>
      </trkpt>
      <trkpt lat="28.7970730" lon="-17.8901250">
        <ele>1084.4</ele>
        <time>2020-11-16T15:51:52Z</time>
      </trkpt>
      <trkpt lat="28.7970850" lon="-17.8901400">
        <ele>1084.6</ele>
        <time>2020-11-16T15:51:53Z</time>
      </trkpt>
      <trkpt lat="28.7970850" lon="-17.8901400">
        <ele>1084.6</ele>
        <time>2020-11-16T15:51:54Z</time>
      </trkpt>
      <trkpt lat="28.7971120" lon="-17.8901680">
        <ele>1085.0</ele>
        <time>2020-11-16T15:51:55Z</time>
      </trkpt>
      <trkpt lat="28.7971270" lon="-17.8901770">
        <ele>1085.1</ele>
        <time>2020-11-16T15:51:56Z</time>
      </trkpt>
      <trkpt lat="28.7971270" lon="-17.8901770">
        <ele>1085.1</ele>
        <time>2020-11-16T15:51:57Z</time>
      </trkpt>
      <trkpt lat="28.7971570" lon="-17.8901950">
        <ele>1085.5</ele>
        <time>2020-11-16T15:51:58Z</time>
      </trkpt>
      <trkpt lat="28.7971570" lon="-17.8901950">
        <ele>1085.5</ele>
        <time>2020-11-16T15:51:59Z</time>
      </trkpt>
      <trkpt lat="28.7971820" lon="-17.8902180">
        <ele>1085.8</ele>
        <time>2020-11-16T15:52:00Z</time>
      </trkpt>
      <trkpt lat="28.7971820" lon="-17.8902180">
        <ele>1085.8</ele>
        <time>2020-11-16T15:52:01Z</time>
      </trkpt>
      <trkpt lat="28.7972100" lon="-17.8902420">
        <ele>1086.1</ele>
        <time>2020-11-16T15:52:02Z</time>
      </trkpt>
      <trkpt lat="28.7972100" lon="-17.8902420">
        <ele>1086.1</ele>
        <time>2020-11-16T15:52:03Z</time>
      </trkpt>
      <trkpt lat="28.7972470" lon="-17.8902570">
        <ele>1086.4</ele>
        <time>2020-11-16T15:52:04Z</time>
      </trkpt>
      <trkpt lat="28.7972470" lon="-17.8902570">
        <ele>1086.4</ele>
        <time>2020-11-16T15:52:05Z</time>
      </trkpt>
      <trkpt lat="28.7972820" lon="-17.8902670">
        <ele>1086.8</ele>
        <time>2020-11-16T15:52:06Z</time>
      </trkpt>
      <trkpt lat="28.7972980" lon="-17.8902730">
        <ele>1086.9</ele>
        <time>2020-11-16T15:52:07Z</time>
      </trkpt>
      <trkpt lat="28.7972980" lon="-17.8902730">
        <ele>1086.9</ele>
        <time>2020-11-16T15:52:08Z</time>
      </trkpt>
      <trkpt lat="28.7973320" lon="-17.8902950">
        <ele>1087.3</ele>
        <time>2020-11-16T15:52:09Z</time>
      </trkpt>
      <trkpt lat="28.7973320" lon="-17.8902950">
        <ele>1087.3</ele>
        <time>2020-11-16T15:52:10Z</time>
      </trkpt>
      <trkpt lat="28.7973620" lon="-17.8903120">
        <ele>1087.6</ele>
        <time>2020-11-16T15:52:11Z</time>
      </trkpt>
      <trkpt lat="28.7973620" lon="-17.8903120">
        <ele>1087.6</ele>
        <time>2020-11-16T15:52:12Z</time>
      </trkpt>
      <trkpt lat="28.7973950" lon="-17.8903350">
        <ele>1087.9</ele>
        <time>2020-11-16T15:52:13Z</time>
      </trkpt>
      <trkpt lat="28.7974080" lon="-17.8903450">
        <ele>1088.1</ele>
        <time>2020-11-16T15:52:14Z</time>
      </trkpt>
      <trkpt lat="28.7974080" lon="-17.8903450">
        <ele>1088.1</ele>
        <time>2020-11-16T15:52:15Z</time>
      </trkpt>
      <trkpt lat="28.7974380" lon="-17.8903620">
        <ele>1088.4</ele>
        <time>2020-11-16T15:52:16Z</time>
      </trkpt>
      <trkpt lat="28.7974380" lon="-17.8903620">
        <ele>1088.4</ele>
        <time>2020-11-16T15:52:17Z</time>
      </trkpt>
      <trkpt lat="28.7974630" lon="-17.8903870">
        <ele>1088.7</ele>
        <time>2020-11-16T15:52:18Z</time>
      </trkpt>
      <trkpt lat="28.7974630" lon="-17.8903870">
        <ele>1088.7</ele>
        <time>2020-11-16T15:52:19Z</time>
      </trkpt>
      <trkpt lat="28.7974920" lon="-17.8904070">
        <ele>1089.0</ele>
        <time>2020-11-16T15:52:20Z</time>
      </trkpt>
      <trkpt lat="28.7974920" lon="-17.8904070">
        <ele>1089.0</ele>
        <time>2020-11-16T15:52:21Z</time>
      </trkpt>
      <trkpt lat="28.7975180" lon="-17.8904330">
        <ele>1089.3</ele>
        <time>2020-11-16T15:52:22Z</time>
      </trkpt>
      <trkpt lat="28.7975180" lon="-17.8904330">
        <ele>1089.3</ele>
        <time>2020-11-16T15:52:23Z</time>
      </trkpt>
      <trkpt lat="28.7975480" lon="-17.8904530">
        <ele>1089.6</ele>
        <time>2020-11-16T15:52:24Z</time>
      </trkpt>
      <trkpt lat="28.7975480" lon="-17.8904530">
        <ele>1089.6</ele>
        <time>2020-11-16T15:52:25Z</time>
      </trkpt>
      <trkpt lat="28.7975730" lon="-17.8904730">
        <ele>1089.9</ele>
        <time>2020-11-16T15:52:26Z</time>
      </trkpt>
      <trkpt lat="28.7975730" lon="-17.8904730">
        <ele>1089.9</ele>
        <time>2020-11-16T15:52:27Z</time>
      </trkpt>
      <trkpt lat="28.7975980" lon="-17.8905000">
        <ele>1090.2</ele>
        <time>2020-11-16T15:52:28Z</time>
      </trkpt>
      <trkpt lat="28.7975980" lon="-17.8905000">
        <ele>1090.2</ele>
        <time>2020-11-16T15:52:29Z</time>
      </trkpt>
      <trkpt lat="28.7976250" lon="-17.8905150">
        <ele>1090.4</ele>
        <time>2020-11-16T15:52:30Z</time>
      </trkpt>
      <trkpt lat="28.7976250" lon="-17.8905150">
        <ele>1090.4</ele>
        <time>2020-11-16T15:52:31Z</time>
      </trkpt>
      <trkpt lat="28.7976570" lon="-17.8905320">
        <ele>1090.7</ele>
        <time>2020-11-16T15:52:32Z</time>
      </trkpt>
      <trkpt lat="28.7976570" lon="-17.8905320">
        <ele>1090.7</ele>
        <time>2020-11-16T15:52:33Z</time>
      </trkpt>
      <trkpt lat="28.7976850" lon="-17.8905580">
        <ele>1091.0</ele>
        <time>2020-11-16T15:52:34Z</time>
      </trkpt>
      <trkpt lat="28.7976970" lon="-17.8905700">
        <ele>1091.1</ele>
        <time>2020-11-16T15:52:35Z</time>
      </trkpt>
      <trkpt lat="28.7976970" lon="-17.8905700">
        <ele>1091.1</ele>
        <time>2020-11-16T15:52:36Z</time>
      </trkpt>
      <trkpt lat="28.7977180" lon="-17.8905970">
        <ele>1091.4</ele>
        <time>2020-11-16T15:52:37Z</time>
      </trkpt>
      <trkpt lat="28.7977280" lon="-17.8906100">
        <ele>1091.5</ele>
        <time>2020-11-16T15:52:38Z</time>
      </trkpt>
      <trkpt lat="28.7977280" lon="-17.8906100">
        <ele>1091.5</ele>
        <time>2020-11-16T15:52:39Z</time>
      </trkpt>
      <trkpt lat="28.7977420" lon="-17.8906480">
        <ele>1091.8</ele>
        <time>2020-11-16T15:52:40Z</time>
      </trkpt>
      <trkpt lat="28.7977530" lon="-17.8906630">
        <ele>1091.9</ele>
        <time>2020-11-16T15:52:41Z</time>
      </trkpt>
      <trkpt lat="28.7977530" lon="-17.8906630">
        <ele>1091.9</ele>
        <time>2020-11-16T15:52:42Z</time>
      </trkpt>
      <trkpt lat="28.7977750" lon="-17.8907020">
        <ele>1092.3</ele>
        <time>2020-11-16T15:52:43Z</time>
      </trkpt>
      <trkpt lat="28.7977880" lon="-17.8907170">
        <ele>1092.4</ele>
        <time>2020-11-16T15:52:44Z</time>
      </trkpt>
      <trkpt lat="28.7977880" lon="-17.8907170">
        <ele>1092.4</ele>
        <time>2020-11-16T15:52:45Z</time>
      </trkpt>
      <trkpt lat="28.7978120" lon="-17.8907580">
        <ele>1092.7</ele>
        <time>2020-11-16T15:52:46Z</time>
      </trkpt>
      <trkpt lat="28.7978120" lon="-17.8907580">
        <ele>1092.7</ele>
        <time>2020-11-16T15:52:47Z</time>
      </trkpt>
      <trkpt lat="28.7978350" lon="-17.8907950">
        <ele>1093.0</ele>
        <time>2020-11-16T15:52:48Z</time>
      </trkpt>
      <trkpt lat="28.7978350" lon="-17.8907950">
        <ele>1093.0</ele>
        <time>2020-11-16T15:52:49Z</time>
      </trkpt>
      <trkpt lat="28.7978530" lon="-17.8908330">
        <ele>1093.4</ele>
        <time>2020-11-16T15:52:50Z</time>
      </trkpt>
      <trkpt lat="28.7978530" lon="-17.8908330">
        <ele>1093.4</ele>
        <time>2020-11-16T15:52:51Z</time>
      </trkpt>
      <trkpt lat="28.7978670" lon="-17.8908770">
        <ele>1093.9</ele>
        <time>2020-11-16T15:52:52Z</time>
      </trkpt>
      <trkpt lat="28.7978720" lon="-17.8908980">
        <ele>1094.1</ele>
        <time>2020-11-16T15:52:53Z</time>
      </trkpt>
      <trkpt lat="28.7978720" lon="-17.8908980">
        <ele>1094.1</ele>
        <time>2020-11-16T15:52:54Z</time>
      </trkpt>
      <trkpt lat="28.7978820" lon="-17.8909400">
        <ele>1094.5</ele>
        <time>2020-11-16T15:52:55Z</time>
      </trkpt>
      <trkpt lat="28.7978820" lon="-17.8909400">
        <ele>1094.5</ele>
        <time>2020-11-16T15:52:56Z</time>
      </trkpt>
      <trkpt lat="28.7978970" lon="-17.8909820">
        <ele>1094.9</ele>
        <time>2020-11-16T15:52:57Z</time>
      </trkpt>
      <trkpt lat="28.7978970" lon="-17.8909820">
        <ele>1094.9</ele>
        <time>2020-11-16T15:52:58Z</time>
      </trkpt>
      <trkpt lat="28.7979130" lon="-17.8910300">
        <ele>1095.3</ele>
        <time>2020-11-16T15:52:59Z</time>
      </trkpt>
      <trkpt lat="28.7979130" lon="-17.8910300">
        <ele>1095.3</ele>
        <time>2020-11-16T15:53:00Z</time>
      </trkpt>
      <trkpt lat="28.7979220" lon="-17.8910820">
        <ele>1095.8</ele>
        <time>2020-11-16T15:53:01Z</time>
      </trkpt>
      <trkpt lat="28.7979250" lon="-17.8911050">
        <ele>1096.0</ele>
        <time>2020-11-16T15:53:02Z</time>
      </trkpt>
      <trkpt lat="28.7979250" lon="-17.8911050">
        <ele>1096.0</ele>
        <time>2020-11-16T15:53:03Z</time>
      </trkpt>
      <trkpt lat="28.7979230" lon="-17.8911570">
        <ele>1096.5</ele>
        <time>2020-11-16T15:53:04Z</time>
      </trkpt>
      <trkpt lat="28.7979230" lon="-17.8911570">
        <ele>1096.5</ele>
        <time>2020-11-16T15:53:05Z</time>
      </trkpt>
      <trkpt lat="28.7979150" lon="-17.8912100">
        <ele>1096.9</ele>
        <time>2020-11-16T15:53:06Z</time>
      </trkpt>
      <trkpt lat="28.7979150" lon="-17.8912100">
        <ele>1096.9</ele>
        <time>2020-11-16T15:53:07Z</time>
      </trkpt>
      <trkpt lat="28.7979020" lon="-17.8912570">
        <ele>1097.4</ele>
        <time>2020-11-16T15:53:08Z</time>
      </trkpt>
      <trkpt lat="28.7979020" lon="-17.8912570">
        <ele>1097.4</ele>
        <time>2020-11-16T15:53:09Z</time>
      </trkpt>
      <trkpt lat="28.7978880" lon="-17.8913100">
        <ele>1097.8</ele>
        <time>2020-11-16T15:53:10Z</time>
      </trkpt>
      <trkpt lat="28.7978850" lon="-17.8913380">
        <ele>1098.1</ele>
        <time>2020-11-16T15:53:11Z</time>
      </trkpt>
      <trkpt lat="28.7978850" lon="-17.8913380">
        <ele>1098.1</ele>
        <time>2020-11-16T15:53:12Z</time>
      </trkpt>
      <trkpt lat="28.7978630" lon="-17.8913880">
        <ele>1098.6</ele>
        <time>2020-11-16T15:53:13Z</time>
      </trkpt>
      <trkpt lat="28.7978630" lon="-17.8913880">
        <ele>1098.6</ele>
        <time>2020-11-16T15:53:14Z</time>
      </trkpt>
      <trkpt lat="28.7978470" lon="-17.8914330">
        <ele>1099.0</ele>
        <time>2020-11-16T15:53:15Z</time>
      </trkpt>
      <trkpt lat="28.7978470" lon="-17.8914330">
        <ele>1099.0</ele>
        <time>2020-11-16T15:53:16Z</time>
      </trkpt>
      <trkpt lat="28.7978230" lon="-17.8914870">
        <ele>1099.6</ele>
        <time>2020-11-16T15:53:17Z</time>
      </trkpt>
      <trkpt lat="28.7978230" lon="-17.8914870">
        <ele>1099.6</ele>
        <time>2020-11-16T15:53:18Z</time>
      </trkpt>
      <trkpt lat="28.7978030" lon="-17.8915300">
        <ele>1100.1</ele>
        <time>2020-11-16T15:53:19Z</time>
      </trkpt>
      <trkpt lat="28.7978030" lon="-17.8915300">
        <ele>1100.1</ele>
        <time>2020-11-16T15:53:20Z</time>
      </trkpt>
      <trkpt lat="28.7977730" lon="-17.8915700">
        <ele>1100.5</ele>
        <time>2020-11-16T15:53:21Z</time>
      </trkpt>
      <trkpt lat="28.7977730" lon="-17.8915700">
        <ele>1100.5</ele>
        <time>2020-11-16T15:53:22Z</time>
      </trkpt>
      <trkpt lat="28.7977430" lon="-17.8916080">
        <ele>1101.0</ele>
        <time>2020-11-16T15:53:23Z</time>
      </trkpt>
      <trkpt lat="28.7977430" lon="-17.8916080">
        <ele>1101.0</ele>
        <time>2020-11-16T15:53:24Z</time>
      </trkpt>
      <trkpt lat="28.7977150" lon="-17.8916470">
        <ele>1101.5</ele>
        <time>2020-11-16T15:53:25Z</time>
      </trkpt>
      <trkpt lat="28.7977150" lon="-17.8916470">
        <ele>1101.5</ele>
        <time>2020-11-16T15:53:26Z</time>
      </trkpt>
      <trkpt lat="28.7976870" lon="-17.8916800">
        <ele>1102.0</ele>
        <time>2020-11-16T15:53:27Z</time>
      </trkpt>
      <trkpt lat="28.7976870" lon="-17.8916800">
        <ele>1102.0</ele>
        <time>2020-11-16T15:53:28Z</time>
      </trkpt>
      <trkpt lat="28.7976520" lon="-17.8917080">
        <ele>1102.5</ele>
        <time>2020-11-16T15:53:29Z</time>
      </trkpt>
      <trkpt lat="28.7976520" lon="-17.8917080">
        <ele>1102.5</ele>
        <time>2020-11-16T15:53:30Z</time>
      </trkpt>
      <trkpt lat="28.7976100" lon="-17.8917350">
        <ele>1103.1</ele>
        <time>2020-11-16T15:53:31Z</time>
      </trkpt>
      <trkpt lat="28.7976100" lon="-17.8917350">
        <ele>1103.1</ele>
        <time>2020-11-16T15:53:32Z</time>
      </trkpt>
      <trkpt lat="28.7975770" lon="-17.8917620">
        <ele>1103.6</ele>
        <time>2020-11-16T15:53:33Z</time>
      </trkpt>
      <trkpt lat="28.7975620" lon="-17.8917750">
        <ele>1103.8</ele>
        <time>2020-11-16T15:53:34Z</time>
      </trkpt>
      <trkpt lat="28.7975450" lon="-17.8917880">
        <ele>1104.0</ele>
        <time>2020-11-16T15:53:35Z</time>
      </trkpt>
      <trkpt lat="28.7975450" lon="-17.8917880">
        <ele>1104.0</ele>
        <time>2020-11-16T15:53:36Z</time>
      </trkpt>
      <trkpt lat="28.7975000" lon="-17.8918100">
        <ele>1104.6</ele>
        <time>2020-11-16T15:53:37Z</time>
      </trkpt>
      <trkpt lat="28.7975000" lon="-17.8918100">
        <ele>1104.6</ele>
        <time>2020-11-16T15:53:38Z</time>
      </trkpt>
      <trkpt lat="28.7974580" lon="-17.8918250">
        <ele>1105.2</ele>
        <time>2020-11-16T15:53:39Z</time>
      </trkpt>
      <trkpt lat="28.7974580" lon="-17.8918250">
        <ele>1105.2</ele>
        <time>2020-11-16T15:53:40Z</time>
      </trkpt>
      <trkpt lat="28.7974170" lon="-17.8918400">
        <ele>1105.7</ele>
        <time>2020-11-16T15:53:41Z</time>
      </trkpt>
      <trkpt lat="28.7973950" lon="-17.8918620">
        <ele>1106.1</ele>
        <time>2020-11-16T15:53:42Z</time>
      </trkpt>
      <trkpt lat="28.7973950" lon="-17.8918620">
        <ele>1106.1</ele>
        <time>2020-11-16T15:53:43Z</time>
      </trkpt>
      <trkpt lat="28.7973530" lon="-17.8918800">
        <ele>1106.6</ele>
        <time>2020-11-16T15:53:44Z</time>
      </trkpt>
      <trkpt lat="28.7973530" lon="-17.8918800">
        <ele>1106.6</ele>
        <time>2020-11-16T15:53:45Z</time>
      </trkpt>
      <trkpt lat="28.7973130" lon="-17.8918950">
        <ele>1107.2</ele>
        <time>2020-11-16T15:53:46Z</time>
      </trkpt>
      <trkpt lat="28.7972930" lon="-17.8919050">
        <ele>1107.5</ele>
        <time>2020-11-16T15:53:47Z</time>
      </trkpt>
      <trkpt lat="28.7972930" lon="-17.8919050">
        <ele>1107.5</ele>
        <time>2020-11-16T15:53:48Z</time>
      </trkpt>
      <trkpt lat="28.7972530" lon="-17.8919220">
        <ele>1108.0</ele>
        <time>2020-11-16T15:53:49Z</time>
      </trkpt>
      <trkpt lat="28.7972330" lon="-17.8919300">
        <ele>1108.3</ele>
        <time>2020-11-16T15:53:50Z</time>
      </trkpt>
      <trkpt lat="28.7972330" lon="-17.8919300">
        <ele>1108.3</ele>
        <time>2020-11-16T15:53:51Z</time>
      </trkpt>
      <trkpt lat="28.7971920" lon="-17.8919480">
        <ele>1108.8</ele>
        <time>2020-11-16T15:53:52Z</time>
      </trkpt>
      <trkpt lat="28.7971920" lon="-17.8919480">
        <ele>1108.8</ele>
        <time>2020-11-16T15:53:53Z</time>
      </trkpt>
      <trkpt lat="28.7971530" lon="-17.8919650">
        <ele>1109.4</ele>
        <time>2020-11-16T15:53:54Z</time>
      </trkpt>
      <trkpt lat="28.7971350" lon="-17.8919730">
        <ele>1109.6</ele>
        <time>2020-11-16T15:53:55Z</time>
      </trkpt>
      <trkpt lat="28.7971350" lon="-17.8919730">
        <ele>1109.6</ele>
        <time>2020-11-16T15:53:56Z</time>
      </trkpt>
      <trkpt lat="28.7970970" lon="-17.8919930">
        <ele>1110.2</ele>
        <time>2020-11-16T15:53:57Z</time>
      </trkpt>
      <trkpt lat="28.7970970" lon="-17.8919930">
        <ele>1110.2</ele>
        <time>2020-11-16T15:53:58Z</time>
      </trkpt>
      <trkpt lat="28.7970570" lon="-17.8920150">
        <ele>1110.7</ele>
        <time>2020-11-16T15:53:59Z</time>
      </trkpt>
      <trkpt lat="28.7970570" lon="-17.8920150">
        <ele>1110.7</ele>
        <time>2020-11-16T15:54:00Z</time>
      </trkpt>
      <trkpt lat="28.7970150" lon="-17.8920330">
        <ele>1111.3</ele>
        <time>2020-11-16T15:54:01Z</time>
      </trkpt>
      <trkpt lat="28.7970150" lon="-17.8920330">
        <ele>1111.3</ele>
        <time>2020-11-16T15:54:02Z</time>
      </trkpt>
      <trkpt lat="28.7969750" lon="-17.8920480">
        <ele>1111.9</ele>
        <time>2020-11-16T15:54:03Z</time>
      </trkpt>
      <trkpt lat="28.7969750" lon="-17.8920480">
        <ele>1111.9</ele>
        <time>2020-11-16T15:54:04Z</time>
      </trkpt>
      <trkpt lat="28.7969370" lon="-17.8920680">
        <ele>1112.4</ele>
        <time>2020-11-16T15:54:05Z</time>
      </trkpt>
      <trkpt lat="28.7969370" lon="-17.8920680">
        <ele>1112.4</ele>
        <time>2020-11-16T15:54:06Z</time>
      </trkpt>
      <trkpt lat="28.7968970" lon="-17.8920880">
        <ele>1113.0</ele>
        <time>2020-11-16T15:54:07Z</time>
      </trkpt>
      <trkpt lat="28.7968970" lon="-17.8920880">
        <ele>1113.0</ele>
        <time>2020-11-16T15:54:08Z</time>
      </trkpt>
      <trkpt lat="28.7968670" lon="-17.8921220">
        <ele>1113.5</ele>
        <time>2020-11-16T15:54:09Z</time>
      </trkpt>
      <trkpt lat="28.7968670" lon="-17.8921220">
        <ele>1113.5</ele>
        <time>2020-11-16T15:54:10Z</time>
      </trkpt>
      <trkpt lat="28.7968350" lon="-17.8921480">
        <ele>1114.0</ele>
        <time>2020-11-16T15:54:11Z</time>
      </trkpt>
      <trkpt lat="28.7968350" lon="-17.8921480">
        <ele>1114.0</ele>
        <time>2020-11-16T15:54:12Z</time>
      </trkpt>
      <trkpt lat="28.7967950" lon="-17.8921430">
        <ele>1114.5</ele>
        <time>2020-11-16T15:54:13Z</time>
      </trkpt>
      <trkpt lat="28.7967950" lon="-17.8921430">
        <ele>1114.5</ele>
        <time>2020-11-16T15:54:14Z</time>
      </trkpt>
      <trkpt lat="28.7967570" lon="-17.8921770">
        <ele>1115.1</ele>
        <time>2020-11-16T15:54:15Z</time>
      </trkpt>
      <trkpt lat="28.7967570" lon="-17.8921770">
        <ele>1115.1</ele>
        <time>2020-11-16T15:54:16Z</time>
      </trkpt>
      <trkpt lat="28.7967230" lon="-17.8922080">
        <ele>1115.6</ele>
        <time>2020-11-16T15:54:17Z</time>
      </trkpt>
      <trkpt lat="28.7967230" lon="-17.8922080">
        <ele>1115.6</ele>
        <time>2020-11-16T15:54:18Z</time>
      </trkpt>
      <trkpt lat="28.7967020" lon="-17.8922370">
        <ele>1115.8</ele>
        <time>2020-11-16T15:54:19Z</time>
      </trkpt>
      <trkpt lat="28.7966830" lon="-17.8922520">
        <ele>1115.8</ele>
        <time>2020-11-16T15:54:20Z</time>
      </trkpt>
      <trkpt lat="28.7966830" lon="-17.8922520">
        <ele>1115.8</ele>
        <time>2020-11-16T15:54:21Z</time>
      </trkpt>
      <trkpt lat="28.7966570" lon="-17.8922850">
        <ele>1116.0</ele>
        <time>2020-11-16T15:54:22Z</time>
      </trkpt>
      <trkpt lat="28.7966570" lon="-17.8922850">
        <ele>1116.0</ele>
        <time>2020-11-16T15:54:23Z</time>
      </trkpt>
      <trkpt lat="28.7966370" lon="-17.8923220">
        <ele>1116.1</ele>
        <time>2020-11-16T15:54:24Z</time>
      </trkpt>
      <trkpt lat="28.7966370" lon="-17.8923220">
        <ele>1116.1</ele>
        <time>2020-11-16T15:54:25Z</time>
      </trkpt>
      <trkpt lat="28.7966230" lon="-17.8923620">
        <ele>1116.3</ele>
        <time>2020-11-16T15:54:26Z</time>
      </trkpt>
      <trkpt lat="28.7966230" lon="-17.8923620">
        <ele>1116.3</ele>
        <time>2020-11-16T15:54:27Z</time>
      </trkpt>
      <trkpt lat="28.7966080" lon="-17.8924020">
        <ele>1116.4</ele>
        <time>2020-11-16T15:54:28Z</time>
      </trkpt>
      <trkpt lat="28.7966020" lon="-17.8924230">
        <ele>1116.5</ele>
        <time>2020-11-16T15:54:29Z</time>
      </trkpt>
      <trkpt lat="28.7966020" lon="-17.8924230">
        <ele>1116.5</ele>
        <time>2020-11-16T15:54:30Z</time>
      </trkpt>
      <trkpt lat="28.7965920" lon="-17.8924620">
        <ele>1116.6</ele>
        <time>2020-11-16T15:54:31Z</time>
      </trkpt>
      <trkpt lat="28.7965830" lon="-17.8924820">
        <ele>1116.6</ele>
        <time>2020-11-16T15:54:32Z</time>
      </trkpt>
      <trkpt lat="28.7965830" lon="-17.8924820">
        <ele>1116.6</ele>
        <time>2020-11-16T15:54:33Z</time>
      </trkpt>
      <trkpt lat="28.7965570" lon="-17.8925180">
        <ele>1116.8</ele>
        <time>2020-11-16T15:54:34Z</time>
      </trkpt>
      <trkpt lat="28.7965430" lon="-17.8925380">
        <ele>1116.8</ele>
        <time>2020-11-16T15:54:35Z</time>
      </trkpt>
      <trkpt lat="28.7965430" lon="-17.8925380">
        <ele>1116.8</ele>
        <time>2020-11-16T15:54:36Z</time>
      </trkpt>
      <trkpt lat="28.7965180" lon="-17.8925800">
        <ele>1116.9</ele>
        <time>2020-11-16T15:54:37Z</time>
      </trkpt>
      <trkpt lat="28.7965150" lon="-17.8926030">
        <ele>1117.0</ele>
        <time>2020-11-16T15:54:38Z</time>
      </trkpt>
      <trkpt lat="28.7965150" lon="-17.8926030">
        <ele>1117.0</ele>
        <time>2020-11-16T15:54:39Z</time>
      </trkpt>
      <trkpt lat="28.7965050" lon="-17.8926600">
        <ele>1117.1</ele>
        <time>2020-11-16T15:54:40Z</time>
      </trkpt>
      <trkpt lat="28.7965050" lon="-17.8926600">
        <ele>1117.1</ele>
        <time>2020-11-16T15:54:41Z</time>
      </trkpt>
      <trkpt lat="28.7964930" lon="-17.8927170">
        <ele>1117.3</ele>
        <time>2020-11-16T15:54:42Z</time>
      </trkpt>
      <trkpt lat="28.7964880" lon="-17.8927430">
        <ele>1117.3</ele>
        <time>2020-11-16T15:54:43Z</time>
      </trkpt>
      <trkpt lat="28.7964880" lon="-17.8927430">
        <ele>1117.3</ele>
        <time>2020-11-16T15:54:44Z</time>
      </trkpt>
      <trkpt lat="28.7964750" lon="-17.8927830">
        <ele>1117.4</ele>
        <time>2020-11-16T15:54:45Z</time>
      </trkpt>
      <trkpt lat="28.7964750" lon="-17.8927830">
        <ele>1117.4</ele>
        <time>2020-11-16T15:54:46Z</time>
      </trkpt>
      <trkpt lat="28.7964680" lon="-17.8928380">
        <ele>1117.5</ele>
        <time>2020-11-16T15:54:47Z</time>
      </trkpt>
      <trkpt lat="28.7964680" lon="-17.8928380">
        <ele>1117.5</ele>
        <time>2020-11-16T15:54:48Z</time>
      </trkpt>
      <trkpt lat="28.7964580" lon="-17.8928870">
        <ele>1117.6</ele>
        <time>2020-11-16T15:54:49Z</time>
      </trkpt>
      <trkpt lat="28.7964570" lon="-17.8929150">
        <ele>1117.6</ele>
        <time>2020-11-16T15:54:50Z</time>
      </trkpt>
      <trkpt lat="28.7964570" lon="-17.8929430">
        <ele>1117.6</ele>
        <time>2020-11-16T15:54:51Z</time>
      </trkpt>
      <trkpt lat="28.7964570" lon="-17.8929430">
        <ele>1117.6</ele>
        <time>2020-11-16T15:54:52Z</time>
      </trkpt>
      <trkpt lat="28.7964550" lon="-17.8930020">
        <ele>1117.7</ele>
        <time>2020-11-16T15:54:53Z</time>
      </trkpt>
      <trkpt lat="28.7964530" lon="-17.8930300">
        <ele>1117.7</ele>
        <time>2020-11-16T15:54:54Z</time>
      </trkpt>
      <trkpt lat="28.7964530" lon="-17.8930300">
        <ele>1117.7</ele>
        <time>2020-11-16T15:54:55Z</time>
      </trkpt>
      <trkpt lat="28.7964450" lon="-17.8930850">
        <ele>1117.6</ele>
        <time>2020-11-16T15:54:56Z</time>
      </trkpt>
      <trkpt lat="28.7964450" lon="-17.8930850">
        <ele>1117.6</ele>
        <time>2020-11-16T15:54:57Z</time>
      </trkpt>
      <trkpt lat="28.7964450" lon="-17.8931450">
        <ele>1117.4</ele>
        <time>2020-11-16T15:54:58Z</time>
      </trkpt>
      <trkpt lat="28.7964450" lon="-17.8931450">
        <ele>1117.4</ele>
        <time>2020-11-16T15:54:59Z</time>
      </trkpt>
      <trkpt lat="28.7964470" lon="-17.8931980">
        <ele>1117.3</ele>
        <time>2020-11-16T15:55:00Z</time>
      </trkpt>
      <trkpt lat="28.7964450" lon="-17.8932270">
        <ele>1117.2</ele>
        <time>2020-11-16T15:55:01Z</time>
      </trkpt>
      <trkpt lat="28.7964480" lon="-17.8932570">
        <ele>1117.1</ele>
        <time>2020-11-16T15:55:02Z</time>
      </trkpt>
      <trkpt lat="28.7964480" lon="-17.8932570">
        <ele>1117.1</ele>
        <time>2020-11-16T15:55:03Z</time>
      </trkpt>
      <trkpt lat="28.7964500" lon="-17.8933180">
        <ele>1116.9</ele>
        <time>2020-11-16T15:55:04Z</time>
      </trkpt>
      <trkpt lat="28.7964500" lon="-17.8933180">
        <ele>1116.9</ele>
        <time>2020-11-16T15:55:05Z</time>
      </trkpt>
      <trkpt lat="28.7964370" lon="-17.8933830">
        <ele>1116.7</ele>
        <time>2020-11-16T15:55:06Z</time>
      </trkpt>
      <trkpt lat="28.7964370" lon="-17.8933830">
        <ele>1116.7</ele>
        <time>2020-11-16T15:55:07Z</time>
      </trkpt>
      <trkpt lat="28.7964450" lon="-17.8934570">
        <ele>1116.4</ele>
        <time>2020-11-16T15:55:08Z</time>
      </trkpt>
      <trkpt lat="28.7964530" lon="-17.8934930">
        <ele>1116.3</ele>
        <time>2020-11-16T15:55:09Z</time>
      </trkpt>
      <trkpt lat="28.7964550" lon="-17.8935230">
        <ele>1116.2</ele>
        <time>2020-11-16T15:55:10Z</time>
      </trkpt>
      <trkpt lat="28.7964550" lon="-17.8935230">
        <ele>1116.2</ele>
        <time>2020-11-16T15:55:11Z</time>
      </trkpt>
      <trkpt lat="28.7964520" lon="-17.8935820">
        <ele>1116.2</ele>
        <time>2020-11-16T15:55:12Z</time>
      </trkpt>
      <trkpt lat="28.7964520" lon="-17.8935820">
        <ele>1116.2</ele>
        <time>2020-11-16T15:55:13Z</time>
      </trkpt>
      <trkpt lat="28.7964630" lon="-17.8936450">
        <ele>1116.2</ele>
        <time>2020-11-16T15:55:14Z</time>
      </trkpt>
      <trkpt lat="28.7964630" lon="-17.8936450">
        <ele>1116.2</ele>
        <time>2020-11-16T15:55:15Z</time>
      </trkpt>
      <trkpt lat="28.7965020" lon="-17.8937130">
        <ele>1116.3</ele>
        <time>2020-11-16T15:55:16Z</time>
      </trkpt>
      <trkpt lat="28.7965070" lon="-17.8937480">
        <ele>1116.3</ele>
        <time>2020-11-16T15:55:17Z</time>
      </trkpt>
      <trkpt lat="28.7965070" lon="-17.8937480">
        <ele>1116.3</ele>
        <time>2020-11-16T15:55:18Z</time>
      </trkpt>
      <trkpt lat="28.7964950" lon="-17.8938130">
        <ele>1116.4</ele>
        <time>2020-11-16T15:55:19Z</time>
      </trkpt>
      <trkpt lat="28.7964950" lon="-17.8938130">
        <ele>1116.4</ele>
        <time>2020-11-16T15:55:20Z</time>
      </trkpt>
      <trkpt lat="28.7964820" lon="-17.8938800">
        <ele>1116.5</ele>
        <time>2020-11-16T15:55:21Z</time>
      </trkpt>
      <trkpt lat="28.7964820" lon="-17.8938800">
        <ele>1116.5</ele>
        <time>2020-11-16T15:55:22Z</time>
      </trkpt>
      <trkpt lat="28.7964780" lon="-17.8939470">
        <ele>1116.6</ele>
        <time>2020-11-16T15:55:23Z</time>
      </trkpt>
      <trkpt lat="28.7964780" lon="-17.8939470">
        <ele>1116.6</ele>
        <time>2020-11-16T15:55:24Z</time>
      </trkpt>
      <trkpt lat="28.7964680" lon="-17.8940070">
        <ele>1116.7</ele>
        <time>2020-11-16T15:55:25Z</time>
      </trkpt>
      <trkpt lat="28.7964630" lon="-17.8940370">
        <ele>1116.7</ele>
        <time>2020-11-16T15:55:26Z</time>
      </trkpt>
      <trkpt lat="28.7964630" lon="-17.8940370">
        <ele>1116.7</ele>
        <time>2020-11-16T15:55:27Z</time>
      </trkpt>
      <trkpt lat="28.7964600" lon="-17.8941080">
        <ele>1116.8</ele>
        <time>2020-11-16T15:55:28Z</time>
      </trkpt>
      <trkpt lat="28.7964600" lon="-17.8941080">
        <ele>1116.8</ele>
        <time>2020-11-16T15:55:29Z</time>
      </trkpt>
      <trkpt lat="28.7964570" lon="-17.8941800">
        <ele>1116.9</ele>
        <time>2020-11-16T15:55:30Z</time>
      </trkpt>
      <trkpt lat="28.7964570" lon="-17.8941800">
        <ele>1116.9</ele>
        <time>2020-11-16T15:55:31Z</time>
      </trkpt>
      <trkpt lat="28.7964470" lon="-17.8942470">
        <ele>1117.0</ele>
        <time>2020-11-16T15:55:32Z</time>
      </trkpt>
      <trkpt lat="28.7964470" lon="-17.8942470">
        <ele>1117.0</ele>
        <time>2020-11-16T15:55:33Z</time>
      </trkpt>
      <trkpt lat="28.7964330" lon="-17.8943170">
        <ele>1117.0</ele>
        <time>2020-11-16T15:55:34Z</time>
      </trkpt>
      <trkpt lat="28.7964330" lon="-17.8943170">
        <ele>1117.0</ele>
        <time>2020-11-16T15:55:35Z</time>
      </trkpt>
      <trkpt lat="28.7964220" lon="-17.8943930">
        <ele>1117.0</ele>
        <time>2020-11-16T15:55:36Z</time>
      </trkpt>
      <trkpt lat="28.7964220" lon="-17.8943930">
        <ele>1117.0</ele>
        <time>2020-11-16T15:55:37Z</time>
      </trkpt>
      <trkpt lat="28.7964050" lon="-17.8944600">
        <ele>1117.0</ele>
        <time>2020-11-16T15:55:38Z</time>
      </trkpt>
      <trkpt lat="28.7964050" lon="-17.8944600">
        <ele>1117.0</ele>
        <time>2020-11-16T15:55:39Z</time>
      </trkpt>
      <trkpt lat="28.7963880" lon="-17.8945370">
        <ele>1117.0</ele>
        <time>2020-11-16T15:55:40Z</time>
      </trkpt>
      <trkpt lat="28.7963880" lon="-17.8945370">
        <ele>1117.0</ele>
        <time>2020-11-16T15:55:41Z</time>
      </trkpt>
      <trkpt lat="28.7963700" lon="-17.8946100">
        <ele>1117.0</ele>
        <time>2020-11-16T15:55:42Z</time>
      </trkpt>
      <trkpt lat="28.7963700" lon="-17.8946100">
        <ele>1117.0</ele>
        <time>2020-11-16T15:55:43Z</time>
      </trkpt>
      <trkpt lat="28.7963500" lon="-17.8946880">
        <ele>1116.9</ele>
        <time>2020-11-16T15:55:44Z</time>
      </trkpt>
      <trkpt lat="28.7963500" lon="-17.8946880">
        <ele>1116.9</ele>
        <time>2020-11-16T15:55:45Z</time>
      </trkpt>
      <trkpt lat="28.7963230" lon="-17.8947780">
        <ele>1116.7</ele>
        <time>2020-11-16T15:55:46Z</time>
      </trkpt>
      <trkpt lat="28.7963230" lon="-17.8947780">
        <ele>1116.7</ele>
        <time>2020-11-16T15:55:47Z</time>
      </trkpt>
      <trkpt lat="28.7963030" lon="-17.8948800">
        <ele>1116.4</ele>
        <time>2020-11-16T15:55:48Z</time>
      </trkpt>
      <trkpt lat="28.7963030" lon="-17.8948800">
        <ele>1116.4</ele>
        <time>2020-11-16T15:55:49Z</time>
      </trkpt>
      <trkpt lat="28.7962730" lon="-17.8949870">
        <ele>1116.1</ele>
        <time>2020-11-16T15:55:50Z</time>
      </trkpt>
      <trkpt lat="28.7962550" lon="-17.8950430">
        <ele>1116.0</ele>
        <time>2020-11-16T15:55:51Z</time>
      </trkpt>
      <trkpt lat="28.7962400" lon="-17.8951000">
        <ele>1115.8</ele>
        <time>2020-11-16T15:55:52Z</time>
      </trkpt>
      <trkpt lat="28.7962400" lon="-17.8951000">
        <ele>1115.8</ele>
        <time>2020-11-16T15:55:53Z</time>
      </trkpt>
      <trkpt lat="28.7962030" lon="-17.8952230">
        <ele>1115.4</ele>
        <time>2020-11-16T15:55:54Z</time>
      </trkpt>
      <trkpt lat="28.7962030" lon="-17.8952230">
        <ele>1115.4</ele>
        <time>2020-11-16T15:55:55Z</time>
      </trkpt>
      <trkpt lat="28.7961680" lon="-17.8953520">
        <ele>1114.9</ele>
        <time>2020-11-16T15:55:56Z</time>
      </trkpt>
      <trkpt lat="28.7961680" lon="-17.8953520">
        <ele>1114.9</ele>
        <time>2020-11-16T15:55:57Z</time>
      </trkpt>
      <trkpt lat="28.7961380" lon="-17.8954830">
        <ele>1114.4</ele>
        <time>2020-11-16T15:55:58Z</time>
      </trkpt>
      <trkpt lat="28.7961380" lon="-17.8954830">
        <ele>1114.4</ele>
        <time>2020-11-16T15:55:59Z</time>
      </trkpt>
      <trkpt lat="28.7961050" lon="-17.8956230">
        <ele>1113.9</ele>
        <time>2020-11-16T15:56:00Z</time>
      </trkpt>
      <trkpt lat="28.7961050" lon="-17.8956230">
        <ele>1113.9</ele>
        <time>2020-11-16T15:56:01Z</time>
      </trkpt>
      <trkpt lat="28.7960750" lon="-17.8957670">
        <ele>1113.3</ele>
        <time>2020-11-16T15:56:02Z</time>
      </trkpt>
      <trkpt lat="28.7960750" lon="-17.8957670">
        <ele>1113.3</ele>
        <time>2020-11-16T15:56:03Z</time>
      </trkpt>
      <trkpt lat="28.7960420" lon="-17.8959200">
        <ele>1112.8</ele>
        <time>2020-11-16T15:56:04Z</time>
      </trkpt>
      <trkpt lat="28.7960420" lon="-17.8959200">
        <ele>1112.8</ele>
        <time>2020-11-16T15:56:05Z</time>
      </trkpt>
      <trkpt lat="28.7960080" lon="-17.8960770">
        <ele>1112.2</ele>
        <time>2020-11-16T15:56:06Z</time>
      </trkpt>
      <trkpt lat="28.7960080" lon="-17.8960770">
        <ele>1112.2</ele>
        <time>2020-11-16T15:56:07Z</time>
      </trkpt>
      <trkpt lat="28.7959720" lon="-17.8962400">
        <ele>1111.5</ele>
        <time>2020-11-16T15:56:08Z</time>
      </trkpt>
      <trkpt lat="28.7959720" lon="-17.8962400">
        <ele>1111.5</ele>
        <time>2020-11-16T15:56:09Z</time>
      </trkpt>
      <trkpt lat="28.7959350" lon="-17.8964100">
        <ele>1110.9</ele>
        <time>2020-11-16T15:56:10Z</time>
      </trkpt>
      <trkpt lat="28.7959350" lon="-17.8964100">
        <ele>1110.9</ele>
        <time>2020-11-16T15:56:11Z</time>
      </trkpt>
      <trkpt lat="28.7959000" lon="-17.8965880">
        <ele>1110.1</ele>
        <time>2020-11-16T15:56:12Z</time>
      </trkpt>
      <trkpt lat="28.7959000" lon="-17.8965880">
        <ele>1110.1</ele>
        <time>2020-11-16T15:56:13Z</time>
      </trkpt>
      <trkpt lat="28.7958580" lon="-17.8967630">
        <ele>1109.4</ele>
        <time>2020-11-16T15:56:14Z</time>
      </trkpt>
      <trkpt lat="28.7958580" lon="-17.8967630">
        <ele>1109.4</ele>
        <time>2020-11-16T15:56:15Z</time>
      </trkpt>
      <trkpt lat="28.7958200" lon="-17.8969450">
        <ele>1108.5</ele>
        <time>2020-11-16T15:56:16Z</time>
      </trkpt>
      <trkpt lat="28.7958200" lon="-17.8969450">
        <ele>1108.5</ele>
        <time>2020-11-16T15:56:17Z</time>
      </trkpt>
      <trkpt lat="28.7957800" lon="-17.8971420">
        <ele>1107.6</ele>
        <time>2020-11-16T15:56:18Z</time>
      </trkpt>
      <trkpt lat="28.7957800" lon="-17.8971420">
        <ele>1107.6</ele>
        <time>2020-11-16T15:56:19Z</time>
      </trkpt>
      <trkpt lat="28.7957330" lon="-17.8973470">
        <ele>1106.6</ele>
        <time>2020-11-16T15:56:20Z</time>
      </trkpt>
      <trkpt lat="28.7957330" lon="-17.8973470">
        <ele>1106.6</ele>
        <time>2020-11-16T15:56:21Z</time>
      </trkpt>
      <trkpt lat="28.7956930" lon="-17.8975620">
        <ele>1105.6</ele>
        <time>2020-11-16T15:56:22Z</time>
      </trkpt>
      <trkpt lat="28.7956930" lon="-17.8975620">
        <ele>1105.6</ele>
        <time>2020-11-16T15:56:23Z</time>
      </trkpt>
      <trkpt lat="28.7956700" lon="-17.8977820">
        <ele>1104.9</ele>
        <time>2020-11-16T15:56:24Z</time>
      </trkpt>
      <trkpt lat="28.7956700" lon="-17.8977820">
        <ele>1104.9</ele>
        <time>2020-11-16T15:56:25Z</time>
      </trkpt>
      <trkpt lat="28.7956650" lon="-17.8979870">
        <ele>1104.5</ele>
        <time>2020-11-16T15:56:26Z</time>
      </trkpt>
      <trkpt lat="28.7956650" lon="-17.8979870">
        <ele>1104.5</ele>
        <time>2020-11-16T15:56:27Z</time>
      </trkpt>
      <trkpt lat="28.7956700" lon="-17.8981620">
        <ele>1104.2</ele>
        <time>2020-11-16T15:56:28Z</time>
      </trkpt>
      <trkpt lat="28.7956700" lon="-17.8981620">
        <ele>1104.2</ele>
        <time>2020-11-16T15:56:29Z</time>
      </trkpt>
      <trkpt lat="28.7956870" lon="-17.8983020">
        <ele>1104.1</ele>
        <time>2020-11-16T15:56:30Z</time>
      </trkpt>
      <trkpt lat="28.7956870" lon="-17.8983020">
        <ele>1104.1</ele>
        <time>2020-11-16T15:56:31Z</time>
      </trkpt>
      <trkpt lat="28.7957070" lon="-17.8983980">
        <ele>1104.1</ele>
        <time>2020-11-16T15:56:32Z</time>
      </trkpt>
      <trkpt lat="28.7957070" lon="-17.8983980">
        <ele>1104.1</ele>
        <time>2020-11-16T15:56:33Z</time>
      </trkpt>
      <trkpt lat="28.7957220" lon="-17.8984770">
        <ele>1104.3</ele>
        <time>2020-11-16T15:56:34Z</time>
      </trkpt>
      <trkpt lat="28.7957220" lon="-17.8984770">
        <ele>1104.3</ele>
        <time>2020-11-16T15:56:35Z</time>
      </trkpt>
      <trkpt lat="28.7957380" lon="-17.8985500">
        <ele>1104.6</ele>
        <time>2020-11-16T15:56:36Z</time>
      </trkpt>
      <trkpt lat="28.7957380" lon="-17.8985500">
        <ele>1104.6</ele>
        <time>2020-11-16T15:56:37Z</time>
      </trkpt>
      <trkpt lat="28.7957520" lon="-17.8985970">
        <ele>1104.9</ele>
        <time>2020-11-16T15:56:38Z</time>
      </trkpt>
      <trkpt lat="28.7957520" lon="-17.8985970">
        <ele>1104.9</ele>
        <time>2020-11-16T15:56:39Z</time>
      </trkpt>
      <trkpt lat="28.7957550" lon="-17.8985920">
        <ele>1104.8</ele>
        <time>2020-11-16T15:56:40Z</time>
      </trkpt>
      <trkpt lat="28.7957570" lon="-17.8985920">
        <ele>1104.8</ele>
        <time>2020-11-16T15:56:41Z</time>
      </trkpt>
      <trkpt lat="28.7957180" lon="-17.8986170">
        <ele>1104.7</ele>
        <time>2020-11-16T15:57:20Z</time>
      </trkpt>
      <trkpt lat="28.7957180" lon="-17.8986170">
        <ele>1104.7</ele>
        <time>2020-11-16T15:57:21Z</time>
      </trkpt>
      <trkpt lat="28.7956880" lon="-17.8986200">
        <ele>1104.6</ele>
        <time>2020-11-16T15:57:22Z</time>
      </trkpt>
      <trkpt lat="28.7956880" lon="-17.8986200">
        <ele>1104.6</ele>
        <time>2020-11-16T15:57:23Z</time>
      </trkpt>
      <trkpt lat="28.7956720" lon="-17.8985850">
        <ele>1104.5</ele>
        <time>2020-11-16T15:57:24Z</time>
      </trkpt>
      <trkpt lat="28.7956680" lon="-17.8985600">
        <ele>1104.4</ele>
        <time>2020-11-16T15:57:25Z</time>
      </trkpt>
      <trkpt lat="28.7956680" lon="-17.8985600">
        <ele>1104.4</ele>
        <time>2020-11-16T15:57:26Z</time>
      </trkpt>
      <trkpt lat="28.7956620" lon="-17.8985020">
        <ele>1104.3</ele>
        <time>2020-11-16T15:57:27Z</time>
      </trkpt>
      <trkpt lat="28.7956620" lon="-17.8985020">
        <ele>1104.3</ele>
        <time>2020-11-16T15:57:28Z</time>
      </trkpt>
      <trkpt lat="28.7956530" lon="-17.8984380">
        <ele>1104.1</ele>
        <time>2020-11-16T15:57:29Z</time>
      </trkpt>
      <trkpt lat="28.7956530" lon="-17.8984380">
        <ele>1104.1</ele>
        <time>2020-11-16T15:57:30Z</time>
      </trkpt>
      <trkpt lat="28.7956470" lon="-17.8983670">
        <ele>1104.1</ele>
        <time>2020-11-16T15:57:31Z</time>
      </trkpt>
      <trkpt lat="28.7956470" lon="-17.8983670">
        <ele>1104.1</ele>
        <time>2020-11-16T15:57:32Z</time>
      </trkpt>
      <trkpt lat="28.7956450" lon="-17.8982900">
        <ele>1104.1</ele>
        <time>2020-11-16T15:57:33Z</time>
      </trkpt>
      <trkpt lat="28.7956450" lon="-17.8982900">
        <ele>1104.1</ele>
        <time>2020-11-16T15:57:34Z</time>
      </trkpt>
      <trkpt lat="28.7956450" lon="-17.8982100">
        <ele>1104.2</ele>
        <time>2020-11-16T15:57:35Z</time>
      </trkpt>
      <trkpt lat="28.7956450" lon="-17.8982100">
        <ele>1104.2</ele>
        <time>2020-11-16T15:57:36Z</time>
      </trkpt>
      <trkpt lat="28.7956430" lon="-17.8981220">
        <ele>1104.3</ele>
        <time>2020-11-16T15:57:37Z</time>
      </trkpt>
      <trkpt lat="28.7956430" lon="-17.8981220">
        <ele>1104.3</ele>
        <time>2020-11-16T15:57:38Z</time>
      </trkpt>
      <trkpt lat="28.7956400" lon="-17.8980300">
        <ele>1104.4</ele>
        <time>2020-11-16T15:57:39Z</time>
      </trkpt>
      <trkpt lat="28.7956400" lon="-17.8980300">
        <ele>1104.4</ele>
        <time>2020-11-16T15:57:40Z</time>
      </trkpt>
      <trkpt lat="28.7956400" lon="-17.8979380">
        <ele>1104.6</ele>
        <time>2020-11-16T15:57:41Z</time>
      </trkpt>
      <trkpt lat="28.7956400" lon="-17.8979380">
        <ele>1104.6</ele>
        <time>2020-11-16T15:57:42Z</time>
      </trkpt>
      <trkpt lat="28.7956400" lon="-17.8978480">
        <ele>1104.8</ele>
        <time>2020-11-16T15:57:43Z</time>
      </trkpt>
      <trkpt lat="28.7956400" lon="-17.8978480">
        <ele>1104.8</ele>
        <time>2020-11-16T15:57:44Z</time>
      </trkpt>
      <trkpt lat="28.7956420" lon="-17.8977580">
        <ele>1105.0</ele>
        <time>2020-11-16T15:57:45Z</time>
      </trkpt>
      <trkpt lat="28.7956420" lon="-17.8977580">
        <ele>1105.0</ele>
        <time>2020-11-16T15:57:46Z</time>
      </trkpt>
      <trkpt lat="28.7956550" lon="-17.8976750">
        <ele>1105.3</ele>
        <time>2020-11-16T15:57:47Z</time>
      </trkpt>
      <trkpt lat="28.7956550" lon="-17.8976750">
        <ele>1105.3</ele>
        <time>2020-11-16T15:57:48Z</time>
      </trkpt>
      <trkpt lat="28.7956630" lon="-17.8975900">
        <ele>1105.6</ele>
        <time>2020-11-16T15:57:49Z</time>
      </trkpt>
      <trkpt lat="28.7956680" lon="-17.8975500">
        <ele>1105.7</ele>
        <time>2020-11-16T15:57:50Z</time>
      </trkpt>
      <trkpt lat="28.7956680" lon="-17.8975500">
        <ele>1105.7</ele>
        <time>2020-11-16T15:57:51Z</time>
      </trkpt>
      <trkpt lat="28.7956830" lon="-17.8974730">
        <ele>1106.1</ele>
        <time>2020-11-16T15:57:52Z</time>
      </trkpt>
      <trkpt lat="28.7956830" lon="-17.8974730">
        <ele>1106.1</ele>
        <time>2020-11-16T15:57:53Z</time>
      </trkpt>
      <trkpt lat="28.7956930" lon="-17.8974050">
        <ele>1106.4</ele>
        <time>2020-11-16T15:57:54Z</time>
      </trkpt>
      <trkpt lat="28.7957000" lon="-17.8973720">
        <ele>1106.5</ele>
        <time>2020-11-16T15:57:55Z</time>
      </trkpt>
      <trkpt lat="28.7957000" lon="-17.8973720">
        <ele>1106.5</ele>
        <time>2020-11-16T15:57:56Z</time>
      </trkpt>
      <trkpt lat="28.7957150" lon="-17.8973100">
        <ele>1106.8</ele>
        <time>2020-11-16T15:57:57Z</time>
      </trkpt>
      <trkpt lat="28.7957150" lon="-17.8973100">
        <ele>1106.8</ele>
        <time>2020-11-16T15:57:58Z</time>
      </trkpt>
      <trkpt lat="28.7957300" lon="-17.8972480">
        <ele>1107.1</ele>
        <time>2020-11-16T15:57:59Z</time>
      </trkpt>
      <trkpt lat="28.7957300" lon="-17.8972480">
        <ele>1107.1</ele>
        <time>2020-11-16T15:58:00Z</time>
      </trkpt>
      <trkpt lat="28.7957430" lon="-17.8971870">
        <ele>1107.4</ele>
        <time>2020-11-16T15:58:01Z</time>
      </trkpt>
      <trkpt lat="28.7957430" lon="-17.8971870">
        <ele>1107.4</ele>
        <time>2020-11-16T15:58:02Z</time>
      </trkpt>
      <trkpt lat="28.7957570" lon="-17.8971250">
        <ele>1107.7</ele>
        <time>2020-11-16T15:58:03Z</time>
      </trkpt>
      <trkpt lat="28.7957570" lon="-17.8971250">
        <ele>1107.7</ele>
        <time>2020-11-16T15:58:04Z</time>
      </trkpt>
      <trkpt lat="28.7957700" lon="-17.8970670">
        <ele>1108.0</ele>
        <time>2020-11-16T15:58:05Z</time>
      </trkpt>
      <trkpt lat="28.7957700" lon="-17.8970670">
        <ele>1108.0</ele>
        <time>2020-11-16T15:58:06Z</time>
      </trkpt>
      <trkpt lat="28.7957800" lon="-17.8970100">
        <ele>1108.3</ele>
        <time>2020-11-16T15:58:07Z</time>
      </trkpt>
      <trkpt lat="28.7957830" lon="-17.8969800">
        <ele>1108.4</ele>
        <time>2020-11-16T15:58:08Z</time>
      </trkpt>
      <trkpt lat="28.7957830" lon="-17.8969800">
        <ele>1108.4</ele>
        <time>2020-11-16T15:58:09Z</time>
      </trkpt>
      <trkpt lat="28.7958000" lon="-17.8969220">
        <ele>1108.7</ele>
        <time>2020-11-16T15:58:10Z</time>
      </trkpt>
      <trkpt lat="28.7958000" lon="-17.8969220">
        <ele>1108.7</ele>
        <time>2020-11-16T15:58:11Z</time>
      </trkpt>
      <trkpt lat="28.7958220" lon="-17.8968600">
        <ele>1109.0</ele>
        <time>2020-11-16T15:58:12Z</time>
      </trkpt>
      <trkpt lat="28.7958220" lon="-17.8968600">
        <ele>1109.0</ele>
        <time>2020-11-16T15:58:13Z</time>
      </trkpt>
      <trkpt lat="28.7958420" lon="-17.8967980">
        <ele>1109.3</ele>
        <time>2020-11-16T15:58:14Z</time>
      </trkpt>
      <trkpt lat="28.7958420" lon="-17.8967980">
        <ele>1109.3</ele>
        <time>2020-11-16T15:58:15Z</time>
      </trkpt>
      <trkpt lat="28.7958600" lon="-17.8967370">
        <ele>1109.6</ele>
        <time>2020-11-16T15:58:16Z</time>
      </trkpt>
      <trkpt lat="28.7958600" lon="-17.8967370">
        <ele>1109.6</ele>
        <time>2020-11-16T15:58:17Z</time>
      </trkpt>
      <trkpt lat="28.7958680" lon="-17.8966730">
        <ele>1109.8</ele>
        <time>2020-11-16T15:58:18Z</time>
      </trkpt>
      <trkpt lat="28.7958680" lon="-17.8966730">
        <ele>1109.8</ele>
        <time>2020-11-16T15:58:19Z</time>
      </trkpt>
      <trkpt lat="28.7958720" lon="-17.8966100">
        <ele>1110.1</ele>
        <time>2020-11-16T15:58:20Z</time>
      </trkpt>
      <trkpt lat="28.7958720" lon="-17.8966100">
        <ele>1110.1</ele>
        <time>2020-11-16T15:58:21Z</time>
      </trkpt>
      <trkpt lat="28.7958850" lon="-17.8965480">
        <ele>1110.4</ele>
        <time>2020-11-16T15:58:22Z</time>
      </trkpt>
      <trkpt lat="28.7958850" lon="-17.8965480">
        <ele>1110.4</ele>
        <time>2020-11-16T15:58:23Z</time>
      </trkpt>
      <trkpt lat="28.7958930" lon="-17.8964870">
        <ele>1110.6</ele>
        <time>2020-11-16T15:58:24Z</time>
      </trkpt>
      <trkpt lat="28.7958930" lon="-17.8964870">
        <ele>1110.6</ele>
        <time>2020-11-16T15:58:25Z</time>
      </trkpt>
      <trkpt lat="28.7959070" lon="-17.8964270">
        <ele>1110.9</ele>
        <time>2020-11-16T15:58:26Z</time>
      </trkpt>
      <trkpt lat="28.7959070" lon="-17.8964270">
        <ele>1110.9</ele>
        <time>2020-11-16T15:58:27Z</time>
      </trkpt>
      <trkpt lat="28.7959220" lon="-17.8963670">
        <ele>1111.1</ele>
        <time>2020-11-16T15:58:28Z</time>
      </trkpt>
      <trkpt lat="28.7959220" lon="-17.8963670">
        <ele>1111.1</ele>
        <time>2020-11-16T15:58:29Z</time>
      </trkpt>
      <trkpt lat="28.7959370" lon="-17.8963100">
        <ele>1111.3</ele>
        <time>2020-11-16T15:58:30Z</time>
      </trkpt>
      <trkpt lat="28.7959370" lon="-17.8963100">
        <ele>1111.3</ele>
        <time>2020-11-16T15:58:31Z</time>
      </trkpt>
      <trkpt lat="28.7959500" lon="-17.8962500">
        <ele>1111.6</ele>
        <time>2020-11-16T15:58:32Z</time>
      </trkpt>
      <trkpt lat="28.7959500" lon="-17.8962500">
        <ele>1111.6</ele>
        <time>2020-11-16T15:58:33Z</time>
      </trkpt>
      <trkpt lat="28.7959500" lon="-17.8962500">
        <ele>1111.6</ele>
        <time>2020-11-16T15:58:34Z</time>
      </trkpt>
      <trkpt lat="28.7959630" lon="-17.8961900">
        <ele>1111.8</ele>
        <time>2020-11-16T15:58:35Z</time>
      </trkpt>
      <trkpt lat="28.7959750" lon="-17.8961300">
        <ele>1112.0</ele>
        <time>2020-11-16T15:58:36Z</time>
      </trkpt>
      <trkpt lat="28.7959750" lon="-17.8961300">
        <ele>1112.0</ele>
        <time>2020-11-16T15:58:37Z</time>
      </trkpt>
      <trkpt lat="28.7959850" lon="-17.8960700">
        <ele>1112.3</ele>
        <time>2020-11-16T15:58:38Z</time>
      </trkpt>
      <trkpt lat="28.7959850" lon="-17.8960700">
        <ele>1112.3</ele>
        <time>2020-11-16T15:58:39Z</time>
      </trkpt>
      <trkpt lat="28.7960000" lon="-17.8960080">
        <ele>1112.5</ele>
        <time>2020-11-16T15:58:40Z</time>
      </trkpt>
      <trkpt lat="28.7960000" lon="-17.8960080">
        <ele>1112.5</ele>
        <time>2020-11-16T15:58:41Z</time>
      </trkpt>
      <trkpt lat="28.7960170" lon="-17.8959500">
        <ele>1112.7</ele>
        <time>2020-11-16T15:58:42Z</time>
      </trkpt>
      <trkpt lat="28.7960170" lon="-17.8959500">
        <ele>1112.7</ele>
        <time>2020-11-16T15:58:43Z</time>
      </trkpt>
      <trkpt lat="28.7960270" lon="-17.8958920">
        <ele>1112.9</ele>
        <time>2020-11-16T15:58:44Z</time>
      </trkpt>
      <trkpt lat="28.7960270" lon="-17.8958920">
        <ele>1112.9</ele>
        <time>2020-11-16T15:58:45Z</time>
      </trkpt>
      <trkpt lat="28.7960420" lon="-17.8958320">
        <ele>1113.2</ele>
        <time>2020-11-16T15:58:46Z</time>
      </trkpt>
      <trkpt lat="28.7960420" lon="-17.8958320">
        <ele>1113.2</ele>
        <time>2020-11-16T15:58:47Z</time>
      </trkpt>
      <trkpt lat="28.7960570" lon="-17.8957700">
        <ele>1113.4</ele>
        <time>2020-11-16T15:58:48Z</time>
      </trkpt>
      <trkpt lat="28.7960570" lon="-17.8957700">
        <ele>1113.4</ele>
        <time>2020-11-16T15:58:49Z</time>
      </trkpt>
      <trkpt lat="28.7960750" lon="-17.8957080">
        <ele>1113.6</ele>
        <time>2020-11-16T15:58:50Z</time>
      </trkpt>
      <trkpt lat="28.7960750" lon="-17.8957080">
        <ele>1113.6</ele>
        <time>2020-11-16T15:58:51Z</time>
      </trkpt>
      <trkpt lat="28.7960900" lon="-17.8956450">
        <ele>1113.9</ele>
        <time>2020-11-16T15:58:52Z</time>
      </trkpt>
      <trkpt lat="28.7960900" lon="-17.8956450">
        <ele>1113.9</ele>
        <time>2020-11-16T15:58:53Z</time>
      </trkpt>
      <trkpt lat="28.7960950" lon="-17.8956170">
        <ele>1114.0</ele>
        <time>2020-11-16T15:58:54Z</time>
      </trkpt>
      <trkpt lat="28.7961070" lon="-17.8955580">
        <ele>1114.2</ele>
        <time>2020-11-16T15:58:55Z</time>
      </trkpt>
      <trkpt lat="28.7961100" lon="-17.8955280">
        <ele>1114.3</ele>
        <time>2020-11-16T15:58:56Z</time>
      </trkpt>
      <trkpt lat="28.7961100" lon="-17.8955280">
        <ele>1114.3</ele>
        <time>2020-11-16T15:58:57Z</time>
      </trkpt>
      <trkpt lat="28.7961230" lon="-17.8954680">
        <ele>1114.6</ele>
        <time>2020-11-16T15:58:58Z</time>
      </trkpt>
      <trkpt lat="28.7961230" lon="-17.8954680">
        <ele>1114.6</ele>
        <time>2020-11-16T15:58:59Z</time>
      </trkpt>
      <trkpt lat="28.7961370" lon="-17.8954080">
        <ele>1114.8</ele>
        <time>2020-11-16T15:59:00Z</time>
      </trkpt>
      <trkpt lat="28.7961370" lon="-17.8954080">
        <ele>1114.8</ele>
        <time>2020-11-16T15:59:01Z</time>
      </trkpt>
      <trkpt lat="28.7961500" lon="-17.8953480">
        <ele>1115.0</ele>
        <time>2020-11-16T15:59:02Z</time>
      </trkpt>
      <trkpt lat="28.7961500" lon="-17.8953480">
        <ele>1115.0</ele>
        <time>2020-11-16T15:59:03Z</time>
      </trkpt>
      <trkpt lat="28.7961630" lon="-17.8952880">
        <ele>1115.2</ele>
        <time>2020-11-16T15:59:04Z</time>
      </trkpt>
      <trkpt lat="28.7961630" lon="-17.8952880">
        <ele>1115.2</ele>
        <time>2020-11-16T15:59:05Z</time>
      </trkpt>
      <trkpt lat="28.7961750" lon="-17.8952280">
        <ele>1115.4</ele>
        <time>2020-11-16T15:59:06Z</time>
      </trkpt>
      <trkpt lat="28.7961750" lon="-17.8952280">
        <ele>1115.4</ele>
        <time>2020-11-16T15:59:07Z</time>
      </trkpt>
      <trkpt lat="28.7961920" lon="-17.8951670">
        <ele>1115.6</ele>
        <time>2020-11-16T15:59:08Z</time>
      </trkpt>
      <trkpt lat="28.7961920" lon="-17.8951670">
        <ele>1115.6</ele>
        <time>2020-11-16T15:59:09Z</time>
      </trkpt>
      <trkpt lat="28.7962120" lon="-17.8951050">
        <ele>1115.8</ele>
        <time>2020-11-16T15:59:10Z</time>
      </trkpt>
      <trkpt lat="28.7962120" lon="-17.8951050">
        <ele>1115.8</ele>
        <time>2020-11-16T15:59:11Z</time>
      </trkpt>
      <trkpt lat="28.7962270" lon="-17.8950400">
        <ele>1116.0</ele>
        <time>2020-11-16T15:59:12Z</time>
      </trkpt>
      <trkpt lat="28.7962270" lon="-17.8950400">
        <ele>1116.0</ele>
        <time>2020-11-16T15:59:13Z</time>
      </trkpt>
      <trkpt lat="28.7962470" lon="-17.8949770">
        <ele>1116.2</ele>
        <time>2020-11-16T15:59:14Z</time>
      </trkpt>
      <trkpt lat="28.7962470" lon="-17.8949770">
        <ele>1116.2</ele>
        <time>2020-11-16T15:59:15Z</time>
      </trkpt>
      <trkpt lat="28.7962650" lon="-17.8949130">
        <ele>1116.4</ele>
        <time>2020-11-16T15:59:16Z</time>
      </trkpt>
      <trkpt lat="28.7962650" lon="-17.8949130">
        <ele>1116.4</ele>
        <time>2020-11-16T15:59:17Z</time>
      </trkpt>
      <trkpt lat="28.7962820" lon="-17.8948480">
        <ele>1116.5</ele>
        <time>2020-11-16T15:59:18Z</time>
      </trkpt>
      <trkpt lat="28.7962900" lon="-17.8948150">
        <ele>1116.6</ele>
        <time>2020-11-16T15:59:19Z</time>
      </trkpt>
      <trkpt lat="28.7962900" lon="-17.8948150">
        <ele>1116.6</ele>
        <time>2020-11-16T15:59:20Z</time>
      </trkpt>
      <trkpt lat="28.7963080" lon="-17.8947520">
        <ele>1116.8</ele>
        <time>2020-11-16T15:59:21Z</time>
      </trkpt>
      <trkpt lat="28.7963080" lon="-17.8947520">
        <ele>1116.8</ele>
        <time>2020-11-16T15:59:22Z</time>
      </trkpt>
      <trkpt lat="28.7963250" lon="-17.8946850">
        <ele>1116.9</ele>
        <time>2020-11-16T15:59:23Z</time>
      </trkpt>
      <trkpt lat="28.7963330" lon="-17.8946500">
        <ele>1116.9</ele>
        <time>2020-11-16T15:59:24Z</time>
      </trkpt>
      <trkpt lat="28.7963330" lon="-17.8946500">
        <ele>1116.9</ele>
        <time>2020-11-16T15:59:25Z</time>
      </trkpt>
      <trkpt lat="28.7963470" lon="-17.8945780">
        <ele>1117.0</ele>
        <time>2020-11-16T15:59:26Z</time>
      </trkpt>
      <trkpt lat="28.7963470" lon="-17.8945780">
        <ele>1117.0</ele>
        <time>2020-11-16T15:59:27Z</time>
      </trkpt>
      <trkpt lat="28.7963650" lon="-17.8945020">
        <ele>1117.0</ele>
        <time>2020-11-16T15:59:28Z</time>
      </trkpt>
      <trkpt lat="28.7963650" lon="-17.8945020">
        <ele>1117.0</ele>
        <time>2020-11-16T15:59:29Z</time>
      </trkpt>
      <trkpt lat="28.7963650" lon="-17.8945020">
        <ele>1117.0</ele>
        <time>2020-11-16T15:59:30Z</time>
      </trkpt>
      <trkpt lat="28.7963820" lon="-17.8944220">
        <ele>1117.0</ele>
        <time>2020-11-16T15:59:31Z</time>
      </trkpt>
      <trkpt lat="28.7963970" lon="-17.8943400">
        <ele>1117.0</ele>
        <time>2020-11-16T15:59:32Z</time>
      </trkpt>
      <trkpt lat="28.7963970" lon="-17.8943400">
        <ele>1117.0</ele>
        <time>2020-11-16T15:59:33Z</time>
      </trkpt>
      <trkpt lat="28.7964150" lon="-17.8942570">
        <ele>1117.0</ele>
        <time>2020-11-16T15:59:34Z</time>
      </trkpt>
      <trkpt lat="28.7964150" lon="-17.8942570">
        <ele>1117.0</ele>
        <time>2020-11-16T15:59:35Z</time>
      </trkpt>
      <trkpt lat="28.7964300" lon="-17.8941670">
        <ele>1116.9</ele>
        <time>2020-11-16T15:59:36Z</time>
      </trkpt>
      <trkpt lat="28.7964370" lon="-17.8941220">
        <ele>1116.8</ele>
        <time>2020-11-16T15:59:37Z</time>
      </trkpt>
      <trkpt lat="28.7964370" lon="-17.8941220">
        <ele>1116.8</ele>
        <time>2020-11-16T15:59:38Z</time>
      </trkpt>
      <trkpt lat="28.7964520" lon="-17.8940320">
        <ele>1116.7</ele>
        <time>2020-11-16T15:59:39Z</time>
      </trkpt>
      <trkpt lat="28.7964520" lon="-17.8940320">
        <ele>1116.7</ele>
        <time>2020-11-16T15:59:40Z</time>
      </trkpt>
      <trkpt lat="28.7964580" lon="-17.8939400">
        <ele>1116.6</ele>
        <time>2020-11-16T15:59:41Z</time>
      </trkpt>
      <trkpt lat="28.7964580" lon="-17.8939400">
        <ele>1116.6</ele>
        <time>2020-11-16T15:59:42Z</time>
      </trkpt>
      <trkpt lat="28.7964650" lon="-17.8938470">
        <ele>1116.5</ele>
        <time>2020-11-16T15:59:43Z</time>
      </trkpt>
      <trkpt lat="28.7964700" lon="-17.8938000">
        <ele>1116.4</ele>
        <time>2020-11-16T15:59:44Z</time>
      </trkpt>
      <trkpt lat="28.7964700" lon="-17.8938000">
        <ele>1116.4</ele>
        <time>2020-11-16T15:59:45Z</time>
      </trkpt>
      <trkpt lat="28.7964730" lon="-17.8937070">
        <ele>1116.3</ele>
        <time>2020-11-16T15:59:46Z</time>
      </trkpt>
      <trkpt lat="28.7964730" lon="-17.8937070">
        <ele>1116.3</ele>
        <time>2020-11-16T15:59:47Z</time>
      </trkpt>
      <trkpt lat="28.7964630" lon="-17.8936220">
        <ele>1116.2</ele>
        <time>2020-11-16T15:59:48Z</time>
      </trkpt>
      <trkpt lat="28.7964630" lon="-17.8936220">
        <ele>1116.2</ele>
        <time>2020-11-16T15:59:49Z</time>
      </trkpt>
      <trkpt lat="28.7964470" lon="-17.8935630">
        <ele>1116.2</ele>
        <time>2020-11-16T15:59:50Z</time>
      </trkpt>
      <trkpt lat="28.7964470" lon="-17.8935630">
        <ele>1116.2</ele>
        <time>2020-11-16T15:59:51Z</time>
      </trkpt>
      <trkpt lat="28.7964470" lon="-17.8935630">
        <ele>1116.2</ele>
        <time>2020-11-16T15:59:52Z</time>
      </trkpt>
      <trkpt lat="28.7964330" lon="-17.8935450">
        <ele>1116.2</ele>
        <time>2020-11-16T15:59:53Z</time>
      </trkpt>
      <trkpt lat="28.7964330" lon="-17.8935450">
        <ele>1116.2</ele>
        <time>2020-11-16T15:59:54Z</time>
      </trkpt>
      <trkpt lat="28.7964580" lon="-17.8934730">
        <ele>1116.4</ele>
        <time>2020-11-16T16:00:13Z</time>
      </trkpt>
      <trkpt lat="28.7964670" lon="-17.8934470">
        <ele>1116.5</ele>
        <time>2020-11-16T16:00:14Z</time>
      </trkpt>
      <trkpt lat="28.7964670" lon="-17.8934470">
        <ele>1116.5</ele>
        <time>2020-11-16T16:00:15Z</time>
      </trkpt>
      <trkpt lat="28.7964750" lon="-17.8933750">
        <ele>1116.7</ele>
        <time>2020-11-16T16:00:16Z</time>
      </trkpt>
      <trkpt lat="28.7964750" lon="-17.8933750">
        <ele>1116.7</ele>
        <time>2020-11-16T16:00:17Z</time>
      </trkpt>
      <trkpt lat="28.7964680" lon="-17.8932920">
        <ele>1117.0</ele>
        <time>2020-11-16T16:00:18Z</time>
      </trkpt>
      <trkpt lat="28.7964680" lon="-17.8932920">
        <ele>1117.0</ele>
        <time>2020-11-16T16:00:19Z</time>
      </trkpt>
      <trkpt lat="28.7964700" lon="-17.8932070">
        <ele>1117.2</ele>
        <time>2020-11-16T16:00:20Z</time>
      </trkpt>
      <trkpt lat="28.7964700" lon="-17.8932070">
        <ele>1117.2</ele>
        <time>2020-11-16T16:00:21Z</time>
      </trkpt>
      <trkpt lat="28.7964600" lon="-17.8931120">
        <ele>1117.5</ele>
        <time>2020-11-16T16:00:22Z</time>
      </trkpt>
      <trkpt lat="28.7964600" lon="-17.8931120">
        <ele>1117.5</ele>
        <time>2020-11-16T16:00:23Z</time>
      </trkpt>
      <trkpt lat="28.7964630" lon="-17.8930150">
        <ele>1117.7</ele>
        <time>2020-11-16T16:00:24Z</time>
      </trkpt>
      <trkpt lat="28.7964630" lon="-17.8930150">
        <ele>1117.7</ele>
        <time>2020-11-16T16:00:25Z</time>
      </trkpt>
      <trkpt lat="28.7964700" lon="-17.8929050">
        <ele>1117.6</ele>
        <time>2020-11-16T16:00:26Z</time>
      </trkpt>
      <trkpt lat="28.7964700" lon="-17.8929050">
        <ele>1117.6</ele>
        <time>2020-11-16T16:00:27Z</time>
      </trkpt>
      <trkpt lat="28.7964850" lon="-17.8927870">
        <ele>1117.4</ele>
        <time>2020-11-16T16:00:28Z</time>
      </trkpt>
      <trkpt lat="28.7964850" lon="-17.8927870">
        <ele>1117.4</ele>
        <time>2020-11-16T16:00:29Z</time>
      </trkpt>
      <trkpt lat="28.7965030" lon="-17.8926620">
        <ele>1117.1</ele>
        <time>2020-11-16T16:00:30Z</time>
      </trkpt>
      <trkpt lat="28.7965030" lon="-17.8926620">
        <ele>1117.1</ele>
        <time>2020-11-16T16:00:31Z</time>
      </trkpt>
      <trkpt lat="28.7965320" lon="-17.8925520">
        <ele>1116.9</ele>
        <time>2020-11-16T16:00:32Z</time>
      </trkpt>
      <trkpt lat="28.7965320" lon="-17.8925520">
        <ele>1116.9</ele>
        <time>2020-11-16T16:00:33Z</time>
      </trkpt>
      <trkpt lat="28.7965450" lon="-17.8924630">
        <ele>1116.7</ele>
        <time>2020-11-16T16:00:34Z</time>
      </trkpt>
      <trkpt lat="28.7965450" lon="-17.8924630">
        <ele>1116.7</ele>
        <time>2020-11-16T16:00:35Z</time>
      </trkpt>
      <trkpt lat="28.7965480" lon="-17.8924270">
        <ele>1116.6</ele>
        <time>2020-11-16T16:00:36Z</time>
      </trkpt>
      <trkpt lat="28.7965530" lon="-17.8924200">
        <ele>1116.5</ele>
        <time>2020-11-16T16:00:37Z</time>
      </trkpt>
      <trkpt lat="28.7965530" lon="-17.8924200">
        <ele>1116.5</ele>
        <time>2020-11-16T16:00:38Z</time>
      </trkpt>
      <trkpt lat="28.7965780" lon="-17.8923870">
        <ele>1116.4</ele>
        <time>2020-11-16T16:00:39Z</time>
      </trkpt>
      <trkpt lat="28.7965780" lon="-17.8923870">
        <ele>1116.4</ele>
        <time>2020-11-16T16:00:40Z</time>
      </trkpt>
      <trkpt lat="28.7966170" lon="-17.8923370">
        <ele>1116.2</ele>
        <time>2020-11-16T16:00:41Z</time>
      </trkpt>
      <trkpt lat="28.7966170" lon="-17.8923370">
        <ele>1116.2</ele>
        <time>2020-11-16T16:00:42Z</time>
      </trkpt>
      <trkpt lat="28.7966750" lon="-17.8922700">
        <ele>1115.9</ele>
        <time>2020-11-16T16:00:43Z</time>
      </trkpt>
      <trkpt lat="28.7966750" lon="-17.8922700">
        <ele>1115.9</ele>
        <time>2020-11-16T16:00:44Z</time>
      </trkpt>
      <trkpt lat="28.7967580" lon="-17.8922030">
        <ele>1115.4</ele>
        <time>2020-11-16T16:00:45Z</time>
      </trkpt>
      <trkpt lat="28.7967580" lon="-17.8922030">
        <ele>1115.4</ele>
        <time>2020-11-16T16:00:46Z</time>
      </trkpt>
      <trkpt lat="28.7968570" lon="-17.8921200">
        <ele>1112.3</ele>
        <time>2020-11-16T16:00:47Z</time>
      </trkpt>
      <trkpt lat="28.7969000" lon="-17.8920680">
        <ele>1111.0</ele>
        <time>2020-11-16T16:00:48Z</time>
      </trkpt>
      <trkpt lat="28.7969000" lon="-17.8920680">
        <ele>1111.0</ele>
        <time>2020-11-16T16:00:49Z</time>
      </trkpt>
      <trkpt lat="28.7969000" lon="-17.8920680">
        <ele>1111.0</ele>
        <time>2020-11-16T16:00:50Z</time>
      </trkpt>
      <trkpt lat="28.7969450" lon="-17.8919570">
        <ele>1110.0</ele>
        <time>2020-11-16T16:00:51Z</time>
      </trkpt>
      <trkpt lat="28.7969750" lon="-17.8919000">
        <ele>1110.2</ele>
        <time>2020-11-16T16:00:52Z</time>
      </trkpt>
      <trkpt lat="28.7969750" lon="-17.8919000">
        <ele>1110.2</ele>
        <time>2020-11-16T16:00:53Z</time>
      </trkpt>
      <trkpt lat="28.7969780" lon="-17.8918950">
        <ele>1110.2</ele>
        <time>2020-11-16T16:00:54Z</time>
      </trkpt>
      <trkpt lat="28.7969780" lon="-17.8918950">
        <ele>1110.2</ele>
        <time>2020-11-16T16:00:55Z</time>
      </trkpt>
      <trkpt lat="28.7969780" lon="-17.8918930">
        <ele>1110.2</ele>
        <time>2020-11-16T16:00:56Z</time>
      </trkpt>
      <trkpt lat="28.7969780" lon="-17.8918930">
        <ele>1110.2</ele>
        <time>2020-11-16T16:00:57Z</time>
      </trkpt>
      <trkpt lat="28.7969780" lon="-17.8918930">
        <ele>1110.2</ele>
        <time>2020-11-16T16:01:47Z</time>
      </trkpt>
      <trkpt lat="28.7969780" lon="-17.8918930">
        <ele>1110.2</ele>
        <time>2020-11-16T16:01:48Z</time>
      </trkpt>
      <trkpt lat="28.7969450" lon="-17.8919030">
        <ele>1110.4</ele>
        <time>2020-11-16T16:01:49Z</time>
      </trkpt>
      <trkpt lat="28.7969450" lon="-17.8919030">
        <ele>1110.4</ele>
        <time>2020-11-16T16:01:53Z</time>
      </trkpt>
      <trkpt lat="28.7969220" lon="-17.8919130">
        <ele>1110.6</ele>
        <time>2020-11-16T16:01:54Z</time>
      </trkpt>
      <trkpt lat="28.7969030" lon="-17.8919120">
        <ele>1110.8</ele>
        <time>2020-11-16T16:01:55Z</time>
      </trkpt>
      <trkpt lat="28.7969030" lon="-17.8919120">
        <ele>1110.8</ele>
        <time>2020-11-16T16:01:56Z</time>
      </trkpt>
      <trkpt lat="28.7968670" lon="-17.8918920">
        <ele>1111.3</ele>
        <time>2020-11-16T16:01:57Z</time>
      </trkpt>
      <trkpt lat="28.7968670" lon="-17.8918920">
        <ele>1111.3</ele>
        <time>2020-11-16T16:01:58Z</time>
      </trkpt>
      <trkpt lat="28.7968530" lon="-17.8918680">
        <ele>1111.7</ele>
        <time>2020-11-16T16:01:59Z</time>
      </trkpt>
      <trkpt lat="28.7968530" lon="-17.8918680">
        <ele>1111.7</ele>
        <time>2020-11-16T16:02:00Z</time>
      </trkpt>
      <trkpt lat="28.7968480" lon="-17.8918430">
        <ele>1112.1</ele>
        <time>2020-11-16T16:02:01Z</time>
      </trkpt>
      <trkpt lat="28.7968480" lon="-17.8918430">
        <ele>1112.1</ele>
        <time>2020-11-16T16:02:02Z</time>
      </trkpt>
      <trkpt lat="28.7968380" lon="-17.8918250">
        <ele>1112.4</ele>
        <time>2020-11-16T16:02:03Z</time>
      </trkpt>
      <trkpt lat="28.7968380" lon="-17.8918250">
        <ele>1112.4</ele>
        <time>2020-11-16T16:02:04Z</time>
      </trkpt>
      <trkpt lat="28.7968270" lon="-17.8918050">
        <ele>1112.7</ele>
        <time>2020-11-16T16:02:05Z</time>
      </trkpt>
      <trkpt lat="28.7968270" lon="-17.8918050">
        <ele>1112.7</ele>
        <time>2020-11-16T16:02:06Z</time>
      </trkpt>
      <trkpt lat="28.7968350" lon="-17.8917680">
        <ele>1113.2</ele>
        <time>2020-11-16T16:02:07Z</time>
      </trkpt>
      <trkpt lat="28.7968480" lon="-17.8917480">
        <ele>1113.5</ele>
        <time>2020-11-16T16:02:08Z</time>
      </trkpt>
      <trkpt lat="28.7968480" lon="-17.8917480">
        <ele>1113.5</ele>
        <time>2020-11-16T16:02:09Z</time>
      </trkpt>
      <trkpt lat="28.7968770" lon="-17.8917120">
        <ele>1114.0</ele>
        <time>2020-11-16T16:02:10Z</time>
      </trkpt>
      <trkpt lat="28.7968770" lon="-17.8917120">
        <ele>1114.0</ele>
        <time>2020-11-16T16:02:11Z</time>
      </trkpt>
      <trkpt lat="28.7969020" lon="-17.8916850">
        <ele>1114.3</ele>
        <time>2020-11-16T16:02:12Z</time>
      </trkpt>
      <trkpt lat="28.7969020" lon="-17.8916850">
        <ele>1114.3</ele>
        <time>2020-11-16T16:02:13Z</time>
      </trkpt>
      <trkpt lat="28.7969220" lon="-17.8916680">
        <ele>1114.5</ele>
        <time>2020-11-16T16:02:14Z</time>
      </trkpt>
      <trkpt lat="28.7969220" lon="-17.8916680">
        <ele>1114.5</ele>
        <time>2020-11-16T16:02:15Z</time>
      </trkpt>
      <trkpt lat="28.7969350" lon="-17.8916420">
        <ele>1114.7</ele>
        <time>2020-11-16T16:02:16Z</time>
      </trkpt>
      <trkpt lat="28.7969350" lon="-17.8916420">
        <ele>1114.7</ele>
        <time>2020-11-16T16:02:17Z</time>
      </trkpt>
      <trkpt lat="28.7969450" lon="-17.8916050">
        <ele>1115.0</ele>
        <time>2020-11-16T16:02:18Z</time>
      </trkpt>
      <trkpt lat="28.7969450" lon="-17.8916050">
        <ele>1115.0</ele>
        <time>2020-11-16T16:02:19Z</time>
      </trkpt>
      <trkpt lat="28.7969500" lon="-17.8915620">
        <ele>1115.2</ele>
        <time>2020-11-16T16:02:20Z</time>
      </trkpt>
      <trkpt lat="28.7969500" lon="-17.8915620">
        <ele>1115.2</ele>
        <time>2020-11-16T16:02:21Z</time>
      </trkpt>
      <trkpt lat="28.7969470" lon="-17.8915220">
        <ele>1115.5</ele>
        <time>2020-11-16T16:02:22Z</time>
      </trkpt>
      <trkpt lat="28.7969470" lon="-17.8915220">
        <ele>1115.5</ele>
        <time>2020-11-16T16:02:23Z</time>
      </trkpt>
      <trkpt lat="28.7969250" lon="-17.8914780">
        <ele>1115.7</ele>
        <time>2020-11-16T16:02:24Z</time>
      </trkpt>
      <trkpt lat="28.7969250" lon="-17.8914780">
        <ele>1115.7</ele>
        <time>2020-11-16T16:02:25Z</time>
      </trkpt>
      <trkpt lat="28.7969020" lon="-17.8914380">
        <ele>1116.0</ele>
        <time>2020-11-16T16:02:26Z</time>
      </trkpt>
      <trkpt lat="28.7969020" lon="-17.8914380">
        <ele>1116.0</ele>
        <time>2020-11-16T16:02:27Z</time>
      </trkpt>
      <trkpt lat="28.7968830" lon="-17.8914000">
        <ele>1116.2</ele>
        <time>2020-11-16T16:02:28Z</time>
      </trkpt>
      <trkpt lat="28.7968730" lon="-17.8913820">
        <ele>1116.3</ele>
        <time>2020-11-16T16:02:29Z</time>
      </trkpt>
      <trkpt lat="28.7968620" lon="-17.8913650">
        <ele>1116.3</ele>
        <time>2020-11-16T16:02:30Z</time>
      </trkpt>
      <trkpt lat="28.7968620" lon="-17.8913650">
        <ele>1116.3</ele>
        <time>2020-11-16T16:02:31Z</time>
      </trkpt>
      <trkpt lat="28.7968420" lon="-17.8913300">
        <ele>1116.5</ele>
        <time>2020-11-16T16:02:32Z</time>
      </trkpt>
      <trkpt lat="28.7968420" lon="-17.8913300">
        <ele>1116.5</ele>
        <time>2020-11-16T16:02:33Z</time>
      </trkpt>
      <trkpt lat="28.7968270" lon="-17.8912900">
        <ele>1116.7</ele>
        <time>2020-11-16T16:02:34Z</time>
      </trkpt>
      <trkpt lat="28.7968270" lon="-17.8912900">
        <ele>1116.7</ele>
        <time>2020-11-16T16:02:35Z</time>
      </trkpt>
      <trkpt lat="28.7968130" lon="-17.8912470">
        <ele>1116.9</ele>
        <time>2020-11-16T16:02:36Z</time>
      </trkpt>
      <trkpt lat="28.7968130" lon="-17.8912470">
        <ele>1116.9</ele>
        <time>2020-11-16T16:02:37Z</time>
      </trkpt>
      <trkpt lat="28.7968070" lon="-17.8912030">
        <ele>1117.2</ele>
        <time>2020-11-16T16:02:38Z</time>
      </trkpt>
      <trkpt lat="28.7968070" lon="-17.8912030">
        <ele>1117.2</ele>
        <time>2020-11-16T16:02:39Z</time>
      </trkpt>
      <trkpt lat="28.7968030" lon="-17.8911580">
        <ele>1117.5</ele>
        <time>2020-11-16T16:02:40Z</time>
      </trkpt>
      <trkpt lat="28.7968030" lon="-17.8911580">
        <ele>1117.5</ele>
        <time>2020-11-16T16:02:41Z</time>
      </trkpt>
      <trkpt lat="28.7967980" lon="-17.8911180">
        <ele>1117.8</ele>
        <time>2020-11-16T16:02:42Z</time>
      </trkpt>
      <trkpt lat="28.7967980" lon="-17.8911180">
        <ele>1117.8</ele>
        <time>2020-11-16T16:02:43Z</time>
      </trkpt>
      <trkpt lat="28.7967950" lon="-17.8910750">
        <ele>1118.1</ele>
        <time>2020-11-16T16:02:44Z</time>
      </trkpt>
      <trkpt lat="28.7967950" lon="-17.8910750">
        <ele>1118.1</ele>
        <time>2020-11-16T16:02:45Z</time>
      </trkpt>
      <trkpt lat="28.7967900" lon="-17.8910330">
        <ele>1118.4</ele>
        <time>2020-11-16T16:02:46Z</time>
      </trkpt>
      <trkpt lat="28.7967900" lon="-17.8910330">
        <ele>1118.4</ele>
        <time>2020-11-16T16:02:47Z</time>
      </trkpt>
      <trkpt lat="28.7967880" lon="-17.8909880">
        <ele>1118.8</ele>
        <time>2020-11-16T16:02:48Z</time>
      </trkpt>
      <trkpt lat="28.7967880" lon="-17.8909880">
        <ele>1118.8</ele>
        <time>2020-11-16T16:02:49Z</time>
      </trkpt>
      <trkpt lat="28.7967830" lon="-17.8909480">
        <ele>1119.1</ele>
        <time>2020-11-16T16:02:50Z</time>
      </trkpt>
      <trkpt lat="28.7967830" lon="-17.8909480">
        <ele>1119.1</ele>
        <time>2020-11-16T16:02:51Z</time>
      </trkpt>
      <trkpt lat="28.7967880" lon="-17.8909130">
        <ele>1119.4</ele>
        <time>2020-11-16T16:02:52Z</time>
      </trkpt>
      <trkpt lat="28.7967880" lon="-17.8909130">
        <ele>1119.4</ele>
        <time>2020-11-16T16:02:53Z</time>
      </trkpt>
      <trkpt lat="28.7967800" lon="-17.8908800">
        <ele>1119.6</ele>
        <time>2020-11-16T16:02:54Z</time>
      </trkpt>
      <trkpt lat="28.7967800" lon="-17.8908800">
        <ele>1119.6</ele>
        <time>2020-11-16T16:02:55Z</time>
      </trkpt>
      <trkpt lat="28.7967630" lon="-17.8908400">
        <ele>1120.0</ele>
        <time>2020-11-16T16:02:56Z</time>
      </trkpt>
      <trkpt lat="28.7967630" lon="-17.8908400">
        <ele>1120.0</ele>
        <time>2020-11-16T16:02:57Z</time>
      </trkpt>
      <trkpt lat="28.7967580" lon="-17.8908030">
        <ele>1120.3</ele>
        <time>2020-11-16T16:02:58Z</time>
      </trkpt>
      <trkpt lat="28.7967580" lon="-17.8908030">
        <ele>1120.3</ele>
        <time>2020-11-16T16:02:59Z</time>
      </trkpt>
      <trkpt lat="28.7967550" lon="-17.8907800">
        <ele>1120.5</ele>
        <time>2020-11-16T16:03:00Z</time>
      </trkpt>
      <trkpt lat="28.7967550" lon="-17.8907800">
        <ele>1120.5</ele>
        <time>2020-11-16T16:03:01Z</time>
      </trkpt>
      <trkpt lat="28.7967480" lon="-17.8907600">
        <ele>1120.7</ele>
        <time>2020-11-16T16:03:02Z</time>
      </trkpt>
      <trkpt lat="28.7967480" lon="-17.8907600">
        <ele>1120.7</ele>
        <time>2020-11-16T16:03:03Z</time>
      </trkpt>
      <trkpt lat="28.7967320" lon="-17.8907430">
        <ele>1120.9</ele>
        <time>2020-11-16T16:03:04Z</time>
      </trkpt>
      <trkpt lat="28.7967320" lon="-17.8907430">
        <ele>1120.9</ele>
        <time>2020-11-16T16:03:05Z</time>
      </trkpt>
      <trkpt lat="28.7967130" lon="-17.8907180">
        <ele>1121.2</ele>
        <time>2020-11-16T16:03:06Z</time>
      </trkpt>
      <trkpt lat="28.7967130" lon="-17.8907180">
        <ele>1121.2</ele>
        <time>2020-11-16T16:03:07Z</time>
      </trkpt>
      <trkpt lat="28.7966870" lon="-17.8906930">
        <ele>1121.6</ele>
        <time>2020-11-16T16:03:08Z</time>
      </trkpt>
      <trkpt lat="28.7966870" lon="-17.8906930">
        <ele>1121.6</ele>
        <time>2020-11-16T16:03:09Z</time>
      </trkpt>
      <trkpt lat="28.7966530" lon="-17.8906730">
        <ele>1121.9</ele>
        <time>2020-11-16T16:03:10Z</time>
      </trkpt>
      <trkpt lat="28.7966530" lon="-17.8906730">
        <ele>1121.9</ele>
        <time>2020-11-16T16:03:11Z</time>
      </trkpt>
      <trkpt lat="28.7966170" lon="-17.8906580">
        <ele>1122.3</ele>
        <time>2020-11-16T16:03:12Z</time>
      </trkpt>
      <trkpt lat="28.7966170" lon="-17.8906580">
        <ele>1122.3</ele>
        <time>2020-11-16T16:03:13Z</time>
      </trkpt>
      <trkpt lat="28.7965630" lon="-17.8906600">
        <ele>1122.7</ele>
        <time>2020-11-16T16:03:14Z</time>
      </trkpt>
      <trkpt lat="28.7965630" lon="-17.8906600">
        <ele>1122.7</ele>
        <time>2020-11-16T16:03:15Z</time>
      </trkpt>
      <trkpt lat="28.7965080" lon="-17.8906750">
        <ele>1123.0</ele>
        <time>2020-11-16T16:03:16Z</time>
      </trkpt>
      <trkpt lat="28.7965080" lon="-17.8906750">
        <ele>1123.0</ele>
        <time>2020-11-16T16:03:17Z</time>
      </trkpt>
      <trkpt lat="28.7964800" lon="-17.8906880">
        <ele>1123.2</ele>
        <time>2020-11-16T16:03:18Z</time>
      </trkpt>
      <trkpt lat="28.7964800" lon="-17.8906880">
        <ele>1123.2</ele>
        <time>2020-11-16T16:03:19Z</time>
      </trkpt>
      <trkpt lat="28.7964550" lon="-17.8907130">
        <ele>1123.4</ele>
        <time>2020-11-16T16:03:20Z</time>
      </trkpt>
      <trkpt lat="28.7964550" lon="-17.8907130">
        <ele>1123.4</ele>
        <time>2020-11-16T16:03:21Z</time>
      </trkpt>
      <trkpt lat="28.7964400" lon="-17.8907420">
        <ele>1123.6</ele>
        <time>2020-11-16T16:03:22Z</time>
      </trkpt>
      <trkpt lat="28.7964400" lon="-17.8907420">
        <ele>1123.6</ele>
        <time>2020-11-16T16:03:23Z</time>
      </trkpt>
      <trkpt lat="28.7964280" lon="-17.8907720">
        <ele>1123.8</ele>
        <time>2020-11-16T16:03:24Z</time>
      </trkpt>
      <trkpt lat="28.7964280" lon="-17.8907720">
        <ele>1123.8</ele>
        <time>2020-11-16T16:03:25Z</time>
      </trkpt>
      <trkpt lat="28.7964220" lon="-17.8908000">
        <ele>1123.9</ele>
        <time>2020-11-16T16:03:26Z</time>
      </trkpt>
      <trkpt lat="28.7964220" lon="-17.8908000">
        <ele>1123.9</ele>
        <time>2020-11-16T16:03:27Z</time>
      </trkpt>
      <trkpt lat="28.7964130" lon="-17.8908430">
        <ele>1124.1</ele>
        <time>2020-11-16T16:03:28Z</time>
      </trkpt>
      <trkpt lat="28.7964130" lon="-17.8908430">
        <ele>1124.1</ele>
        <time>2020-11-16T16:03:29Z</time>
      </trkpt>
      <trkpt lat="28.7964230" lon="-17.8908770">
        <ele>1124.2</ele>
        <time>2020-11-16T16:03:30Z</time>
      </trkpt>
      <trkpt lat="28.7964230" lon="-17.8908770">
        <ele>1124.2</ele>
        <time>2020-11-16T16:03:31Z</time>
      </trkpt>
      <trkpt lat="28.7964180" lon="-17.8909100">
        <ele>1124.2</ele>
        <time>2020-11-16T16:03:32Z</time>
      </trkpt>
      <trkpt lat="28.7964180" lon="-17.8909100">
        <ele>1124.2</ele>
        <time>2020-11-16T16:03:33Z</time>
      </trkpt>
      <trkpt lat="28.7964020" lon="-17.8909650">
        <ele>1124.3</ele>
        <time>2020-11-16T16:03:34Z</time>
      </trkpt>
      <trkpt lat="28.7963950" lon="-17.8909880">
        <ele>1124.4</ele>
        <time>2020-11-16T16:03:35Z</time>
      </trkpt>
      <trkpt lat="28.7963950" lon="-17.8909880">
        <ele>1124.4</ele>
        <time>2020-11-16T16:03:36Z</time>
      </trkpt>
      <trkpt lat="28.7963880" lon="-17.8910370">
        <ele>1124.4</ele>
        <time>2020-11-16T16:03:37Z</time>
      </trkpt>
      <trkpt lat="28.7963880" lon="-17.8910370">
        <ele>1124.4</ele>
        <time>2020-11-16T16:03:38Z</time>
      </trkpt>
      <trkpt lat="28.7963730" lon="-17.8910870">
        <ele>1124.5</ele>
        <time>2020-11-16T16:03:39Z</time>
      </trkpt>
      <trkpt lat="28.7963730" lon="-17.8910870">
        <ele>1124.5</ele>
        <time>2020-11-16T16:03:40Z</time>
      </trkpt>
      <trkpt lat="28.7963530" lon="-17.8911180">
        <ele>1124.5</ele>
        <time>2020-11-16T16:03:41Z</time>
      </trkpt>
      <trkpt lat="28.7963530" lon="-17.8911180">
        <ele>1124.5</ele>
        <time>2020-11-16T16:03:42Z</time>
      </trkpt>
      <trkpt lat="28.7963250" lon="-17.8911620">
        <ele>1124.6</ele>
        <time>2020-11-16T16:03:43Z</time>
      </trkpt>
      <trkpt lat="28.7963100" lon="-17.8911820">
        <ele>1124.7</ele>
        <time>2020-11-16T16:03:44Z</time>
      </trkpt>
      <trkpt lat="28.7963100" lon="-17.8911820">
        <ele>1124.7</ele>
        <time>2020-11-16T16:03:45Z</time>
      </trkpt>
      <trkpt lat="28.7962800" lon="-17.8912130">
        <ele>1124.8</ele>
        <time>2020-11-16T16:03:46Z</time>
      </trkpt>
      <trkpt lat="28.7962800" lon="-17.8912130">
        <ele>1124.8</ele>
        <time>2020-11-16T16:03:47Z</time>
      </trkpt>
      <trkpt lat="28.7962550" lon="-17.8912500">
        <ele>1124.9</ele>
        <time>2020-11-16T16:03:48Z</time>
      </trkpt>
      <trkpt lat="28.7962550" lon="-17.8912500">
        <ele>1124.9</ele>
        <time>2020-11-16T16:03:49Z</time>
      </trkpt>
      <trkpt lat="28.7962420" lon="-17.8912850">
        <ele>1125.0</ele>
        <time>2020-11-16T16:03:50Z</time>
      </trkpt>
      <trkpt lat="28.7962420" lon="-17.8912850">
        <ele>1125.0</ele>
        <time>2020-11-16T16:03:51Z</time>
      </trkpt>
      <trkpt lat="28.7962180" lon="-17.8913270">
        <ele>1125.1</ele>
        <time>2020-11-16T16:03:52Z</time>
      </trkpt>
      <trkpt lat="28.7962100" lon="-17.8913430">
        <ele>1125.2</ele>
        <time>2020-11-16T16:03:53Z</time>
      </trkpt>
      <trkpt lat="28.7962100" lon="-17.8913430">
        <ele>1125.2</ele>
        <time>2020-11-16T16:03:54Z</time>
      </trkpt>
      <trkpt lat="28.7961880" lon="-17.8913850">
        <ele>1125.4</ele>
        <time>2020-11-16T16:03:55Z</time>
      </trkpt>
      <trkpt lat="28.7961880" lon="-17.8913850">
        <ele>1125.4</ele>
        <time>2020-11-16T16:03:56Z</time>
      </trkpt>
      <trkpt lat="28.7961650" lon="-17.8914320">
        <ele>1125.6</ele>
        <time>2020-11-16T16:03:57Z</time>
      </trkpt>
      <trkpt lat="28.7961650" lon="-17.8914320">
        <ele>1125.6</ele>
        <time>2020-11-16T16:03:58Z</time>
      </trkpt>
      <trkpt lat="28.7961400" lon="-17.8914680">
        <ele>1125.7</ele>
        <time>2020-11-16T16:03:59Z</time>
      </trkpt>
      <trkpt lat="28.7961400" lon="-17.8914680">
        <ele>1125.7</ele>
        <time>2020-11-16T16:04:00Z</time>
      </trkpt>
      <trkpt lat="28.7961080" lon="-17.8915000">
        <ele>1125.9</ele>
        <time>2020-11-16T16:04:01Z</time>
      </trkpt>
      <trkpt lat="28.7961080" lon="-17.8915000">
        <ele>1125.9</ele>
        <time>2020-11-16T16:04:02Z</time>
      </trkpt>
      <trkpt lat="28.7960830" lon="-17.8915400">
        <ele>1126.1</ele>
        <time>2020-11-16T16:04:03Z</time>
      </trkpt>
      <trkpt lat="28.7960830" lon="-17.8915400">
        <ele>1126.1</ele>
        <time>2020-11-16T16:04:04Z</time>
      </trkpt>
      <trkpt lat="28.7960730" lon="-17.8915820">
        <ele>1126.3</ele>
        <time>2020-11-16T16:04:05Z</time>
      </trkpt>
      <trkpt lat="28.7960730" lon="-17.8915820">
        <ele>1126.3</ele>
        <time>2020-11-16T16:04:06Z</time>
      </trkpt>
      <trkpt lat="28.7960630" lon="-17.8916220">
        <ele>1126.5</ele>
        <time>2020-11-16T16:04:07Z</time>
      </trkpt>
      <trkpt lat="28.7960630" lon="-17.8916220">
        <ele>1126.5</ele>
        <time>2020-11-16T16:04:08Z</time>
      </trkpt>
      <trkpt lat="28.7960550" lon="-17.8916580">
        <ele>1126.7</ele>
        <time>2020-11-16T16:04:09Z</time>
      </trkpt>
      <trkpt lat="28.7960550" lon="-17.8916580">
        <ele>1126.7</ele>
        <time>2020-11-16T16:04:10Z</time>
      </trkpt>
      <trkpt lat="28.7960450" lon="-17.8916980">
        <ele>1126.9</ele>
        <time>2020-11-16T16:04:11Z</time>
      </trkpt>
      <trkpt lat="28.7960450" lon="-17.8916980">
        <ele>1126.9</ele>
        <time>2020-11-16T16:04:12Z</time>
      </trkpt>
      <trkpt lat="28.7960370" lon="-17.8917370">
        <ele>1127.1</ele>
        <time>2020-11-16T16:04:13Z</time>
      </trkpt>
      <trkpt lat="28.7960350" lon="-17.8917580">
        <ele>1127.2</ele>
        <time>2020-11-16T16:04:14Z</time>
      </trkpt>
      <trkpt lat="28.7960350" lon="-17.8917580">
        <ele>1127.2</ele>
        <time>2020-11-16T16:04:15Z</time>
      </trkpt>
      <trkpt lat="28.7960250" lon="-17.8918000">
        <ele>1127.5</ele>
        <time>2020-11-16T16:04:16Z</time>
      </trkpt>
      <trkpt lat="28.7960250" lon="-17.8918000">
        <ele>1127.5</ele>
        <time>2020-11-16T16:04:17Z</time>
      </trkpt>
      <trkpt lat="28.7960130" lon="-17.8918450">
        <ele>1127.9</ele>
        <time>2020-11-16T16:04:18Z</time>
      </trkpt>
      <trkpt lat="28.7960120" lon="-17.8918650">
        <ele>1128.0</ele>
        <time>2020-11-16T16:04:19Z</time>
      </trkpt>
      <trkpt lat="28.7960120" lon="-17.8918650">
        <ele>1128.0</ele>
        <time>2020-11-16T16:04:20Z</time>
      </trkpt>
      <trkpt lat="28.7960020" lon="-17.8919020">
        <ele>1128.3</ele>
        <time>2020-11-16T16:04:21Z</time>
      </trkpt>
      <trkpt lat="28.7960020" lon="-17.8919020">
        <ele>1128.3</ele>
        <time>2020-11-16T16:04:22Z</time>
      </trkpt>
      <trkpt lat="28.7959870" lon="-17.8919450">
        <ele>1128.7</ele>
        <time>2020-11-16T16:04:23Z</time>
      </trkpt>
      <trkpt lat="28.7959820" lon="-17.8919670">
        <ele>1128.9</ele>
        <time>2020-11-16T16:04:24Z</time>
      </trkpt>
      <trkpt lat="28.7959820" lon="-17.8919670">
        <ele>1128.9</ele>
        <time>2020-11-16T16:04:25Z</time>
      </trkpt>
      <trkpt lat="28.7959700" lon="-17.8920080">
        <ele>1129.2</ele>
        <time>2020-11-16T16:04:26Z</time>
      </trkpt>
      <trkpt lat="28.7959650" lon="-17.8920300">
        <ele>1129.4</ele>
        <time>2020-11-16T16:04:27Z</time>
      </trkpt>
      <trkpt lat="28.7959650" lon="-17.8920300">
        <ele>1129.4</ele>
        <time>2020-11-16T16:04:28Z</time>
      </trkpt>
      <trkpt lat="28.7959450" lon="-17.8920720">
        <ele>1129.8</ele>
        <time>2020-11-16T16:04:29Z</time>
      </trkpt>
      <trkpt lat="28.7959320" lon="-17.8920930">
        <ele>1130.0</ele>
        <time>2020-11-16T16:04:30Z</time>
      </trkpt>
      <trkpt lat="28.7959320" lon="-17.8920930">
        <ele>1130.0</ele>
        <time>2020-11-16T16:04:31Z</time>
      </trkpt>
      <trkpt lat="28.7959050" lon="-17.8921280">
        <ele>1130.4</ele>
        <time>2020-11-16T16:04:32Z</time>
      </trkpt>
      <trkpt lat="28.7959050" lon="-17.8921280">
        <ele>1130.4</ele>
        <time>2020-11-16T16:04:33Z</time>
      </trkpt>
      <trkpt lat="28.7958800" lon="-17.8921580">
        <ele>1130.7</ele>
        <time>2020-11-16T16:04:34Z</time>
      </trkpt>
      <trkpt lat="28.7958800" lon="-17.8921580">
        <ele>1130.7</ele>
        <time>2020-11-16T16:04:35Z</time>
      </trkpt>
      <trkpt lat="28.7958550" lon="-17.8921880">
        <ele>1131.1</ele>
        <time>2020-11-16T16:04:36Z</time>
      </trkpt>
      <trkpt lat="28.7958420" lon="-17.8921970">
        <ele>1131.2</ele>
        <time>2020-11-16T16:04:37Z</time>
      </trkpt>
      <trkpt lat="28.7958420" lon="-17.8921970">
        <ele>1131.2</ele>
        <time>2020-11-16T16:04:38Z</time>
      </trkpt>
      <trkpt lat="28.7958080" lon="-17.8922120">
        <ele>1131.5</ele>
        <time>2020-11-16T16:04:39Z</time>
      </trkpt>
      <trkpt lat="28.7958080" lon="-17.8922120">
        <ele>1131.5</ele>
        <time>2020-11-16T16:04:40Z</time>
      </trkpt>
      <trkpt lat="28.7957750" lon="-17.8922130">
        <ele>1131.8</ele>
        <time>2020-11-16T16:04:41Z</time>
      </trkpt>
      <trkpt lat="28.7957750" lon="-17.8922130">
        <ele>1131.8</ele>
        <time>2020-11-16T16:04:42Z</time>
      </trkpt>
      <trkpt lat="28.7957420" lon="-17.8921980">
        <ele>1132.1</ele>
        <time>2020-11-16T16:04:43Z</time>
      </trkpt>
      <trkpt lat="28.7957420" lon="-17.8921980">
        <ele>1132.1</ele>
        <time>2020-11-16T16:04:44Z</time>
      </trkpt>
      <trkpt lat="28.7957220" lon="-17.8921680">
        <ele>1132.3</ele>
        <time>2020-11-16T16:04:45Z</time>
      </trkpt>
      <trkpt lat="28.7957220" lon="-17.8921680">
        <ele>1132.3</ele>
        <time>2020-11-16T16:04:46Z</time>
      </trkpt>
      <trkpt lat="28.7957050" lon="-17.8921400">
        <ele>1132.5</ele>
        <time>2020-11-16T16:04:47Z</time>
      </trkpt>
      <trkpt lat="28.7956980" lon="-17.8921250">
        <ele>1132.6</ele>
        <time>2020-11-16T16:04:48Z</time>
      </trkpt>
      <trkpt lat="28.7956980" lon="-17.8921250">
        <ele>1132.6</ele>
        <time>2020-11-16T16:04:49Z</time>
      </trkpt>
      <trkpt lat="28.7957000" lon="-17.8920800">
        <ele>1132.8</ele>
        <time>2020-11-16T16:04:50Z</time>
      </trkpt>
      <trkpt lat="28.7957000" lon="-17.8920800">
        <ele>1132.8</ele>
        <time>2020-11-16T16:04:51Z</time>
      </trkpt>
      <trkpt lat="28.7957130" lon="-17.8920320">
        <ele>1133.0</ele>
        <time>2020-11-16T16:04:52Z</time>
      </trkpt>
      <trkpt lat="28.7957130" lon="-17.8920100">
        <ele>1133.1</ele>
        <time>2020-11-16T16:04:53Z</time>
      </trkpt>
      <trkpt lat="28.7957130" lon="-17.8920100">
        <ele>1133.1</ele>
        <time>2020-11-16T16:04:54Z</time>
      </trkpt>
      <trkpt lat="28.7957170" lon="-17.8919680">
        <ele>1133.3</ele>
        <time>2020-11-16T16:04:55Z</time>
      </trkpt>
      <trkpt lat="28.7957170" lon="-17.8919430">
        <ele>1133.3</ele>
        <time>2020-11-16T16:04:56Z</time>
      </trkpt>
      <trkpt lat="28.7957170" lon="-17.8919430">
        <ele>1133.3</ele>
        <time>2020-11-16T16:04:57Z</time>
      </trkpt>
      <trkpt lat="28.7957170" lon="-17.8918950">
        <ele>1133.5</ele>
        <time>2020-11-16T16:04:58Z</time>
      </trkpt>
      <trkpt lat="28.7957150" lon="-17.8918680">
        <ele>1133.5</ele>
        <time>2020-11-16T16:04:59Z</time>
      </trkpt>
      <trkpt lat="28.7957150" lon="-17.8918680">
        <ele>1133.5</ele>
        <time>2020-11-16T16:05:00Z</time>
      </trkpt>
      <trkpt lat="28.7957000" lon="-17.8918320">
        <ele>1133.6</ele>
        <time>2020-11-16T16:05:01Z</time>
      </trkpt>
      <trkpt lat="28.7956900" lon="-17.8918150">
        <ele>1133.7</ele>
        <time>2020-11-16T16:05:02Z</time>
      </trkpt>
      <trkpt lat="28.7956900" lon="-17.8918150">
        <ele>1133.7</ele>
        <time>2020-11-16T16:05:03Z</time>
      </trkpt>
      <trkpt lat="28.7956720" lon="-17.8917850">
        <ele>1133.8</ele>
        <time>2020-11-16T16:05:04Z</time>
      </trkpt>
      <trkpt lat="28.7956720" lon="-17.8917850">
        <ele>1133.8</ele>
        <time>2020-11-16T16:05:05Z</time>
      </trkpt>
      <trkpt lat="28.7956550" lon="-17.8917570">
        <ele>1133.9</ele>
        <time>2020-11-16T16:05:06Z</time>
      </trkpt>
      <trkpt lat="28.7956550" lon="-17.8917570">
        <ele>1133.9</ele>
        <time>2020-11-16T16:05:07Z</time>
      </trkpt>
      <trkpt lat="28.7956370" lon="-17.8917280">
        <ele>1134.0</ele>
        <time>2020-11-16T16:05:08Z</time>
      </trkpt>
      <trkpt lat="28.7956370" lon="-17.8917280">
        <ele>1134.0</ele>
        <time>2020-11-16T16:05:09Z</time>
      </trkpt>
      <trkpt lat="28.7956080" lon="-17.8917030">
        <ele>1134.1</ele>
        <time>2020-11-16T16:05:10Z</time>
      </trkpt>
      <trkpt lat="28.7956080" lon="-17.8917030">
        <ele>1134.1</ele>
        <time>2020-11-16T16:05:11Z</time>
      </trkpt>
      <trkpt lat="28.7955850" lon="-17.8916800">
        <ele>1134.2</ele>
        <time>2020-11-16T16:05:12Z</time>
      </trkpt>
      <trkpt lat="28.7955850" lon="-17.8916800">
        <ele>1134.2</ele>
        <time>2020-11-16T16:05:13Z</time>
      </trkpt>
      <trkpt lat="28.7955520" lon="-17.8916530">
        <ele>1134.4</ele>
        <time>2020-11-16T16:05:14Z</time>
      </trkpt>
      <trkpt lat="28.7955520" lon="-17.8916530">
        <ele>1134.4</ele>
        <time>2020-11-16T16:05:15Z</time>
      </trkpt>
      <trkpt lat="28.7955000" lon="-17.8916370">
        <ele>1134.5</ele>
        <time>2020-11-16T16:05:16Z</time>
      </trkpt>
      <trkpt lat="28.7955000" lon="-17.8916370">
        <ele>1134.5</ele>
        <time>2020-11-16T16:05:17Z</time>
      </trkpt>
      <trkpt lat="28.7954570" lon="-17.8916320">
        <ele>1134.7</ele>
        <time>2020-11-16T16:05:18Z</time>
      </trkpt>
      <trkpt lat="28.7954570" lon="-17.8916320">
        <ele>1134.7</ele>
        <time>2020-11-16T16:05:19Z</time>
      </trkpt>
      <trkpt lat="28.7954150" lon="-17.8916320">
        <ele>1134.9</ele>
        <time>2020-11-16T16:05:20Z</time>
      </trkpt>
      <trkpt lat="28.7954150" lon="-17.8916320">
        <ele>1134.9</ele>
        <time>2020-11-16T16:05:21Z</time>
      </trkpt>
      <trkpt lat="28.7953750" lon="-17.8916350">
        <ele>1135.1</ele>
        <time>2020-11-16T16:05:22Z</time>
      </trkpt>
      <trkpt lat="28.7953750" lon="-17.8916350">
        <ele>1135.1</ele>
        <time>2020-11-16T16:05:23Z</time>
      </trkpt>
      <trkpt lat="28.7953420" lon="-17.8916530">
        <ele>1135.4</ele>
        <time>2020-11-16T16:05:24Z</time>
      </trkpt>
      <trkpt lat="28.7953420" lon="-17.8916530">
        <ele>1135.4</ele>
        <time>2020-11-16T16:05:25Z</time>
      </trkpt>
      <trkpt lat="28.7953120" lon="-17.8916730">
        <ele>1135.6</ele>
        <time>2020-11-16T16:05:26Z</time>
      </trkpt>
      <trkpt lat="28.7953120" lon="-17.8916730">
        <ele>1135.6</ele>
        <time>2020-11-16T16:05:27Z</time>
      </trkpt>
      <trkpt lat="28.7952850" lon="-17.8917020">
        <ele>1135.9</ele>
        <time>2020-11-16T16:05:28Z</time>
      </trkpt>
      <trkpt lat="28.7952730" lon="-17.8917130">
        <ele>1136.0</ele>
        <time>2020-11-16T16:05:29Z</time>
      </trkpt>
      <trkpt lat="28.7952730" lon="-17.8917130">
        <ele>1136.0</ele>
        <time>2020-11-16T16:05:30Z</time>
      </trkpt>
      <trkpt lat="28.7952350" lon="-17.8917270">
        <ele>1136.3</ele>
        <time>2020-11-16T16:05:31Z</time>
      </trkpt>
      <trkpt lat="28.7952350" lon="-17.8917270">
        <ele>1136.3</ele>
        <time>2020-11-16T16:05:32Z</time>
      </trkpt>
      <trkpt lat="28.7952100" lon="-17.8917420">
        <ele>1136.5</ele>
        <time>2020-11-16T16:05:33Z</time>
      </trkpt>
      <trkpt lat="28.7952100" lon="-17.8917420">
        <ele>1136.5</ele>
        <time>2020-11-16T16:05:34Z</time>
      </trkpt>
      <trkpt lat="28.7951850" lon="-17.8917480">
        <ele>1136.6</ele>
        <time>2020-11-16T16:05:35Z</time>
      </trkpt>
      <trkpt lat="28.7951850" lon="-17.8917480">
        <ele>1136.6</ele>
        <time>2020-11-16T16:05:36Z</time>
      </trkpt>
      <trkpt lat="28.7951570" lon="-17.8917620">
        <ele>1136.8</ele>
        <time>2020-11-16T16:05:37Z</time>
      </trkpt>
      <trkpt lat="28.7951370" lon="-17.8917800">
        <ele>1136.9</ele>
        <time>2020-11-16T16:05:38Z</time>
      </trkpt>
      <trkpt lat="28.7951370" lon="-17.8917800">
        <ele>1136.9</ele>
        <time>2020-11-16T16:05:39Z</time>
      </trkpt>
      <trkpt lat="28.7951020" lon="-17.8918170">
        <ele>1137.1</ele>
        <time>2020-11-16T16:05:40Z</time>
      </trkpt>
      <trkpt lat="28.7950850" lon="-17.8918280">
        <ele>1137.2</ele>
        <time>2020-11-16T16:05:41Z</time>
      </trkpt>
      <trkpt lat="28.7950850" lon="-17.8918280">
        <ele>1137.2</ele>
        <time>2020-11-16T16:05:42Z</time>
      </trkpt>
      <trkpt lat="28.7950600" lon="-17.8918450">
        <ele>1137.4</ele>
        <time>2020-11-16T16:05:43Z</time>
      </trkpt>
      <trkpt lat="28.7950450" lon="-17.8918530">
        <ele>1137.5</ele>
        <time>2020-11-16T16:05:44Z</time>
      </trkpt>
      <trkpt lat="28.7950300" lon="-17.8918650">
        <ele>1137.6</ele>
        <time>2020-11-16T16:05:45Z</time>
      </trkpt>
      <trkpt lat="28.7950300" lon="-17.8918650">
        <ele>1137.6</ele>
        <time>2020-11-16T16:05:46Z</time>
      </trkpt>
      <trkpt lat="28.7949980" lon="-17.8918970">
        <ele>1137.8</ele>
        <time>2020-11-16T16:05:47Z</time>
      </trkpt>
      <trkpt lat="28.7949980" lon="-17.8918970">
        <ele>1137.8</ele>
        <time>2020-11-16T16:05:48Z</time>
      </trkpt>
      <trkpt lat="28.7949720" lon="-17.8919280">
        <ele>1138.1</ele>
        <time>2020-11-16T16:05:49Z</time>
      </trkpt>
      <trkpt lat="28.7949580" lon="-17.8919380">
        <ele>1138.2</ele>
        <time>2020-11-16T16:05:50Z</time>
      </trkpt>
      <trkpt lat="28.7949580" lon="-17.8919380">
        <ele>1138.2</ele>
        <time>2020-11-16T16:05:51Z</time>
      </trkpt>
      <trkpt lat="28.7949320" lon="-17.8919600">
        <ele>1138.4</ele>
        <time>2020-11-16T16:05:52Z</time>
      </trkpt>
      <trkpt lat="28.7949320" lon="-17.8919600">
        <ele>1138.4</ele>
        <time>2020-11-16T16:05:53Z</time>
      </trkpt>
      <trkpt lat="28.7949020" lon="-17.8919870">
        <ele>1138.7</ele>
        <time>2020-11-16T16:05:54Z</time>
      </trkpt>
      <trkpt lat="28.7948870" lon="-17.8919980">
        <ele>1138.9</ele>
        <time>2020-11-16T16:05:55Z</time>
      </trkpt>
      <trkpt lat="28.7948700" lon="-17.8920030">
        <ele>1139.0</ele>
        <time>2020-11-16T16:05:56Z</time>
      </trkpt>
      <trkpt lat="28.7948700" lon="-17.8920030">
        <ele>1139.0</ele>
        <time>2020-11-16T16:05:57Z</time>
      </trkpt>
      <trkpt lat="28.7948350" lon="-17.8920280">
        <ele>1139.4</ele>
        <time>2020-11-16T16:05:58Z</time>
      </trkpt>
      <trkpt lat="28.7948350" lon="-17.8920280">
        <ele>1139.4</ele>
        <time>2020-11-16T16:05:59Z</time>
      </trkpt>
      <trkpt lat="28.7948070" lon="-17.8920520">
        <ele>1139.7</ele>
        <time>2020-11-16T16:06:00Z</time>
      </trkpt>
      <trkpt lat="28.7947950" lon="-17.8920650">
        <ele>1139.8</ele>
        <time>2020-11-16T16:06:01Z</time>
      </trkpt>
      <trkpt lat="28.7947950" lon="-17.8920650">
        <ele>1139.8</ele>
        <time>2020-11-16T16:06:02Z</time>
      </trkpt>
      <trkpt lat="28.7947670" lon="-17.8920770">
        <ele>1140.1</ele>
        <time>2020-11-16T16:06:03Z</time>
      </trkpt>
      <trkpt lat="28.7947670" lon="-17.8920770">
        <ele>1140.1</ele>
        <time>2020-11-16T16:06:04Z</time>
      </trkpt>
      <trkpt lat="28.7947400" lon="-17.8920920">
        <ele>1140.4</ele>
        <time>2020-11-16T16:06:05Z</time>
      </trkpt>
      <trkpt lat="28.7947400" lon="-17.8920920">
        <ele>1140.4</ele>
        <time>2020-11-16T16:06:06Z</time>
      </trkpt>
      <trkpt lat="28.7947050" lon="-17.8920880">
        <ele>1140.8</ele>
        <time>2020-11-16T16:06:07Z</time>
      </trkpt>
      <trkpt lat="28.7946950" lon="-17.8920970">
        <ele>1140.9</ele>
        <time>2020-11-16T16:06:08Z</time>
      </trkpt>
      <trkpt lat="28.7946950" lon="-17.8920970">
        <ele>1140.9</ele>
        <time>2020-11-16T16:06:09Z</time>
      </trkpt>
      <trkpt lat="28.7946730" lon="-17.8921250">
        <ele>1141.3</ele>
        <time>2020-11-16T16:06:10Z</time>
      </trkpt>
      <trkpt lat="28.7946650" lon="-17.8921420">
        <ele>1141.5</ele>
        <time>2020-11-16T16:06:11Z</time>
      </trkpt>
      <trkpt lat="28.7946530" lon="-17.8921520">
        <ele>1141.6</ele>
        <time>2020-11-16T16:06:12Z</time>
      </trkpt>
      <trkpt lat="28.7946530" lon="-17.8921520">
        <ele>1141.6</ele>
        <time>2020-11-16T16:06:13Z</time>
      </trkpt>
      <trkpt lat="28.7946320" lon="-17.8921750">
        <ele>1141.9</ele>
        <time>2020-11-16T16:06:14Z</time>
      </trkpt>
      <trkpt lat="28.7946100" lon="-17.8921850">
        <ele>1142.2</ele>
        <time>2020-11-16T16:06:15Z</time>
      </trkpt>
      <trkpt lat="28.7946100" lon="-17.8921850">
        <ele>1142.2</ele>
        <time>2020-11-16T16:06:16Z</time>
      </trkpt>
      <trkpt lat="28.7945700" lon="-17.8922020">
        <ele>1142.6</ele>
        <time>2020-11-16T16:06:17Z</time>
      </trkpt>
      <trkpt lat="28.7945700" lon="-17.8922020">
        <ele>1142.6</ele>
        <time>2020-11-16T16:06:18Z</time>
      </trkpt>
      <trkpt lat="28.7945270" lon="-17.8922150">
        <ele>1143.0</ele>
        <time>2020-11-16T16:06:19Z</time>
      </trkpt>
      <trkpt lat="28.7945270" lon="-17.8922150">
        <ele>1143.0</ele>
        <time>2020-11-16T16:06:20Z</time>
      </trkpt>
      <trkpt lat="28.7944950" lon="-17.8922320">
        <ele>1143.4</ele>
        <time>2020-11-16T16:06:21Z</time>
      </trkpt>
      <trkpt lat="28.7944950" lon="-17.8922320">
        <ele>1143.4</ele>
        <time>2020-11-16T16:06:22Z</time>
      </trkpt>
      <trkpt lat="28.7944620" lon="-17.8922500">
        <ele>1143.7</ele>
        <time>2020-11-16T16:06:23Z</time>
      </trkpt>
      <trkpt lat="28.7944620" lon="-17.8922500">
        <ele>1143.7</ele>
        <time>2020-11-16T16:06:24Z</time>
      </trkpt>
      <trkpt lat="28.7944300" lon="-17.8922670">
        <ele>1144.0</ele>
        <time>2020-11-16T16:06:25Z</time>
      </trkpt>
      <trkpt lat="28.7944150" lon="-17.8922750">
        <ele>1144.2</ele>
        <time>2020-11-16T16:06:26Z</time>
      </trkpt>
      <trkpt lat="28.7944020" lon="-17.8922830">
        <ele>1144.3</ele>
        <time>2020-11-16T16:06:27Z</time>
      </trkpt>
      <trkpt lat="28.7944020" lon="-17.8922830">
        <ele>1144.3</ele>
        <time>2020-11-16T16:06:28Z</time>
      </trkpt>
      <trkpt lat="28.7943730" lon="-17.8922870">
        <ele>1144.6</ele>
        <time>2020-11-16T16:06:29Z</time>
      </trkpt>
      <trkpt lat="28.7943730" lon="-17.8922870">
        <ele>1144.6</ele>
        <time>2020-11-16T16:06:30Z</time>
      </trkpt>
      <trkpt lat="28.7943470" lon="-17.8922970">
        <ele>1144.8</ele>
        <time>2020-11-16T16:06:31Z</time>
      </trkpt>
      <trkpt lat="28.7943330" lon="-17.8923080">
        <ele>1145.0</ele>
        <time>2020-11-16T16:06:32Z</time>
      </trkpt>
      <trkpt lat="28.7943330" lon="-17.8923080">
        <ele>1145.0</ele>
        <time>2020-11-16T16:06:33Z</time>
      </trkpt>
      <trkpt lat="28.7943020" lon="-17.8923430">
        <ele>1145.3</ele>
        <time>2020-11-16T16:06:34Z</time>
      </trkpt>
      <trkpt lat="28.7942880" lon="-17.8923630">
        <ele>1145.5</ele>
        <time>2020-11-16T16:06:35Z</time>
      </trkpt>
      <trkpt lat="28.7942880" lon="-17.8923630">
        <ele>1145.5</ele>
        <time>2020-11-16T16:06:36Z</time>
      </trkpt>
      <trkpt lat="28.7942630" lon="-17.8923800">
        <ele>1146.6</ele>
        <time>2020-11-16T16:06:37Z</time>
      </trkpt>
      <trkpt lat="28.7942470" lon="-17.8923930">
        <ele>1147.2</ele>
        <time>2020-11-16T16:06:38Z</time>
      </trkpt>
      <trkpt lat="28.7942470" lon="-17.8923930">
        <ele>1147.2</ele>
        <time>2020-11-16T16:06:39Z</time>
      </trkpt>
      <trkpt lat="28.7942050" lon="-17.8924220">
        <ele>1148.5</ele>
        <time>2020-11-16T16:06:40Z</time>
      </trkpt>
      <trkpt lat="28.7942050" lon="-17.8924220">
        <ele>1148.5</ele>
        <time>2020-11-16T16:06:41Z</time>
      </trkpt>
      <trkpt lat="28.7941700" lon="-17.8924400">
        <ele>1149.6</ele>
        <time>2020-11-16T16:06:42Z</time>
      </trkpt>
      <trkpt lat="28.7941700" lon="-17.8924400">
        <ele>1149.6</ele>
        <time>2020-11-16T16:06:43Z</time>
      </trkpt>
      <trkpt lat="28.7941470" lon="-17.8924650">
        <ele>1150.5</ele>
        <time>2020-11-16T16:06:44Z</time>
      </trkpt>
      <trkpt lat="28.7941380" lon="-17.8924780">
        <ele>1150.9</ele>
        <time>2020-11-16T16:06:45Z</time>
      </trkpt>
      <trkpt lat="28.7941380" lon="-17.8924780">
        <ele>1150.9</ele>
        <time>2020-11-16T16:06:46Z</time>
      </trkpt>
      <trkpt lat="28.7941330" lon="-17.8924780">
        <ele>1151.0</ele>
        <time>2020-11-16T16:06:47Z</time>
      </trkpt>
      <trkpt lat="28.7941330" lon="-17.8924780">
        <ele>1151.0</ele>
        <time>2020-11-16T16:06:48Z</time>
      </trkpt>
      <trkpt lat="28.7941320" lon="-17.8924770">
        <ele>1151.1</ele>
        <time>2020-11-16T16:06:49Z</time>
      </trkpt>
      <trkpt lat="28.7941320" lon="-17.8924770">
        <ele>1151.1</ele>
        <time>2020-11-16T16:10:25Z</time>
      </trkpt>
      <trkpt lat="28.7940750" lon="-17.8925000">
        <ele>1152.1</ele>
        <time>2020-11-16T16:10:26Z</time>
      </trkpt>
      <trkpt lat="28.7940750" lon="-17.8925000">
        <ele>1152.1</ele>
        <time>2020-11-16T16:10:27Z</time>
      </trkpt>
      <trkpt lat="28.7940350" lon="-17.8925230">
        <ele>1152.2</ele>
        <time>2020-11-16T16:10:28Z</time>
      </trkpt>
      <trkpt lat="28.7940350" lon="-17.8925230">
        <ele>1152.2</ele>
        <time>2020-11-16T16:10:29Z</time>
      </trkpt>
      <trkpt lat="28.7940050" lon="-17.8925380">
        <ele>1152.4</ele>
        <time>2020-11-16T16:10:30Z</time>
      </trkpt>
      <trkpt lat="28.7939870" lon="-17.8925530">
        <ele>1152.4</ele>
        <time>2020-11-16T16:10:31Z</time>
      </trkpt>
      <trkpt lat="28.7939870" lon="-17.8925530">
        <ele>1152.4</ele>
        <time>2020-11-16T16:10:32Z</time>
      </trkpt>
      <trkpt lat="28.7939520" lon="-17.8925750">
        <ele>1152.6</ele>
        <time>2020-11-16T16:10:33Z</time>
      </trkpt>
      <trkpt lat="28.7939520" lon="-17.8925750">
        <ele>1152.6</ele>
        <time>2020-11-16T16:10:34Z</time>
      </trkpt>
      <trkpt lat="28.7939100" lon="-17.8925950">
        <ele>1152.8</ele>
        <time>2020-11-16T16:10:35Z</time>
      </trkpt>
      <trkpt lat="28.7938880" lon="-17.8926100">
        <ele>1152.9</ele>
        <time>2020-11-16T16:10:36Z</time>
      </trkpt>
      <trkpt lat="28.7938880" lon="-17.8926100">
        <ele>1152.9</ele>
        <time>2020-11-16T16:10:37Z</time>
      </trkpt>
      <trkpt lat="28.7938530" lon="-17.8926250">
        <ele>1153.1</ele>
        <time>2020-11-16T16:10:38Z</time>
      </trkpt>
      <trkpt lat="28.7938530" lon="-17.8926250">
        <ele>1153.1</ele>
        <time>2020-11-16T16:10:39Z</time>
      </trkpt>
      <trkpt lat="28.7938150" lon="-17.8926320">
        <ele>1153.3</ele>
        <time>2020-11-16T16:10:40Z</time>
      </trkpt>
      <trkpt lat="28.7938150" lon="-17.8926320">
        <ele>1153.3</ele>
        <time>2020-11-16T16:10:41Z</time>
      </trkpt>
      <trkpt lat="28.7937830" lon="-17.8926380">
        <ele>1153.5</ele>
        <time>2020-11-16T16:10:42Z</time>
      </trkpt>
      <trkpt lat="28.7937830" lon="-17.8926380">
        <ele>1153.5</ele>
        <time>2020-11-16T16:10:43Z</time>
      </trkpt>
      <trkpt lat="28.7937530" lon="-17.8926480">
        <ele>1153.7</ele>
        <time>2020-11-16T16:10:44Z</time>
      </trkpt>
      <trkpt lat="28.7937530" lon="-17.8926480">
        <ele>1153.7</ele>
        <time>2020-11-16T16:10:45Z</time>
      </trkpt>
      <trkpt lat="28.7937280" lon="-17.8926670">
        <ele>1153.8</ele>
        <time>2020-11-16T16:10:46Z</time>
      </trkpt>
      <trkpt lat="28.7937200" lon="-17.8926820">
        <ele>1153.9</ele>
        <time>2020-11-16T16:10:47Z</time>
      </trkpt>
      <trkpt lat="28.7937200" lon="-17.8926820">
        <ele>1153.9</ele>
        <time>2020-11-16T16:10:48Z</time>
      </trkpt>
      <trkpt lat="28.7937080" lon="-17.8927200">
        <ele>1154.1</ele>
        <time>2020-11-16T16:10:49Z</time>
      </trkpt>
      <trkpt lat="28.7937120" lon="-17.8927430">
        <ele>1154.3</ele>
        <time>2020-11-16T16:10:50Z</time>
      </trkpt>
      <trkpt lat="28.7937120" lon="-17.8927430">
        <ele>1154.3</ele>
        <time>2020-11-16T16:10:51Z</time>
      </trkpt>
      <trkpt lat="28.7937280" lon="-17.8927870">
        <ele>1154.5</ele>
        <time>2020-11-16T16:10:52Z</time>
      </trkpt>
      <trkpt lat="28.7937420" lon="-17.8928030">
        <ele>1154.6</ele>
        <time>2020-11-16T16:10:53Z</time>
      </trkpt>
      <trkpt lat="28.7937420" lon="-17.8928030">
        <ele>1154.6</ele>
        <time>2020-11-16T16:10:54Z</time>
      </trkpt>
      <trkpt lat="28.7937700" lon="-17.8928300">
        <ele>1154.8</ele>
        <time>2020-11-16T16:10:55Z</time>
      </trkpt>
      <trkpt lat="28.7937850" lon="-17.8928420">
        <ele>1154.9</ele>
        <time>2020-11-16T16:10:56Z</time>
      </trkpt>
      <trkpt lat="28.7937850" lon="-17.8928420">
        <ele>1154.9</ele>
        <time>2020-11-16T16:10:57Z</time>
      </trkpt>
      <trkpt lat="28.7938120" lon="-17.8928680">
        <ele>1155.1</ele>
        <time>2020-11-16T16:10:58Z</time>
      </trkpt>
      <trkpt lat="28.7938270" lon="-17.8928820">
        <ele>1155.2</ele>
        <time>2020-11-16T16:10:59Z</time>
      </trkpt>
      <trkpt lat="28.7938270" lon="-17.8928820">
        <ele>1155.2</ele>
        <time>2020-11-16T16:11:00Z</time>
      </trkpt>
      <trkpt lat="28.7938600" lon="-17.8929050">
        <ele>1155.4</ele>
        <time>2020-11-16T16:11:01Z</time>
      </trkpt>
      <trkpt lat="28.7938600" lon="-17.8929050">
        <ele>1155.4</ele>
        <time>2020-11-16T16:11:02Z</time>
      </trkpt>
      <trkpt lat="28.7938980" lon="-17.8929300">
        <ele>1155.6</ele>
        <time>2020-11-16T16:11:03Z</time>
      </trkpt>
      <trkpt lat="28.7938980" lon="-17.8929300">
        <ele>1155.6</ele>
        <time>2020-11-16T16:11:04Z</time>
      </trkpt>
      <trkpt lat="28.7939330" lon="-17.8929580">
        <ele>1155.8</ele>
        <time>2020-11-16T16:11:05Z</time>
      </trkpt>
      <trkpt lat="28.7939330" lon="-17.8929580">
        <ele>1155.8</ele>
        <time>2020-11-16T16:11:06Z</time>
      </trkpt>
      <trkpt lat="28.7939730" lon="-17.8929800">
        <ele>1156.0</ele>
        <time>2020-11-16T16:11:07Z</time>
      </trkpt>
      <trkpt lat="28.7939730" lon="-17.8929800">
        <ele>1156.0</ele>
        <time>2020-11-16T16:11:08Z</time>
      </trkpt>
      <trkpt lat="28.7940080" lon="-17.8929900">
        <ele>1156.2</ele>
        <time>2020-11-16T16:11:09Z</time>
      </trkpt>
      <trkpt lat="28.7940080" lon="-17.8929900">
        <ele>1156.2</ele>
        <time>2020-11-16T16:11:10Z</time>
      </trkpt>
      <trkpt lat="28.7940520" lon="-17.8929980">
        <ele>1156.4</ele>
        <time>2020-11-16T16:11:11Z</time>
      </trkpt>
      <trkpt lat="28.7940730" lon="-17.8930030">
        <ele>1156.5</ele>
        <time>2020-11-16T16:11:12Z</time>
      </trkpt>
      <trkpt lat="28.7940730" lon="-17.8930030">
        <ele>1156.5</ele>
        <time>2020-11-16T16:11:13Z</time>
      </trkpt>
      <trkpt lat="28.7941150" lon="-17.8930050">
        <ele>1156.7</ele>
        <time>2020-11-16T16:11:14Z</time>
      </trkpt>
      <trkpt lat="28.7941150" lon="-17.8930050">
        <ele>1156.7</ele>
        <time>2020-11-16T16:11:15Z</time>
      </trkpt>
      <trkpt lat="28.7941530" lon="-17.8930220">
        <ele>1156.9</ele>
        <time>2020-11-16T16:11:16Z</time>
      </trkpt>
      <trkpt lat="28.7941720" lon="-17.8930350">
        <ele>1157.0</ele>
        <time>2020-11-16T16:11:17Z</time>
      </trkpt>
      <trkpt lat="28.7941720" lon="-17.8930350">
        <ele>1157.0</ele>
        <time>2020-11-16T16:11:18Z</time>
      </trkpt>
      <trkpt lat="28.7941980" lon="-17.8930700">
        <ele>1157.1</ele>
        <time>2020-11-16T16:11:19Z</time>
      </trkpt>
      <trkpt lat="28.7942050" lon="-17.8930920">
        <ele>1157.2</ele>
        <time>2020-11-16T16:11:20Z</time>
      </trkpt>
      <trkpt lat="28.7942050" lon="-17.8930920">
        <ele>1157.2</ele>
        <time>2020-11-16T16:11:21Z</time>
      </trkpt>
      <trkpt lat="28.7942020" lon="-17.8931380">
        <ele>1157.4</ele>
        <time>2020-11-16T16:11:22Z</time>
      </trkpt>
      <trkpt lat="28.7942020" lon="-17.8931380">
        <ele>1157.4</ele>
        <time>2020-11-16T16:11:23Z</time>
      </trkpt>
      <trkpt lat="28.7941830" lon="-17.8931830">
        <ele>1157.6</ele>
        <time>2020-11-16T16:11:24Z</time>
      </trkpt>
      <trkpt lat="28.7941830" lon="-17.8931830">
        <ele>1157.6</ele>
        <time>2020-11-16T16:11:25Z</time>
      </trkpt>
      <trkpt lat="28.7941830" lon="-17.8931830">
        <ele>1157.6</ele>
        <time>2020-11-16T16:11:26Z</time>
      </trkpt>
      <trkpt lat="28.7941620" lon="-17.8932180">
        <ele>1157.7</ele>
        <time>2020-11-16T16:11:27Z</time>
      </trkpt>
      <trkpt lat="28.7941330" lon="-17.8932520">
        <ele>1157.9</ele>
        <time>2020-11-16T16:11:28Z</time>
      </trkpt>
      <trkpt lat="28.7941330" lon="-17.8932520">
        <ele>1157.9</ele>
        <time>2020-11-16T16:11:29Z</time>
      </trkpt>
      <trkpt lat="28.7941050" lon="-17.8932770">
        <ele>1158.1</ele>
        <time>2020-11-16T16:11:30Z</time>
      </trkpt>
      <trkpt lat="28.7941050" lon="-17.8932770">
        <ele>1158.1</ele>
        <time>2020-11-16T16:11:31Z</time>
      </trkpt>
      <trkpt lat="28.7940770" lon="-17.8933050">
        <ele>1158.3</ele>
        <time>2020-11-16T16:11:32Z</time>
      </trkpt>
      <trkpt lat="28.7940770" lon="-17.8933050">
        <ele>1158.3</ele>
        <time>2020-11-16T16:11:33Z</time>
      </trkpt>
      <trkpt lat="28.7940500" lon="-17.8933370">
        <ele>1158.5</ele>
        <time>2020-11-16T16:11:34Z</time>
      </trkpt>
      <trkpt lat="28.7940380" lon="-17.8933470">
        <ele>1158.6</ele>
        <time>2020-11-16T16:11:35Z</time>
      </trkpt>
      <trkpt lat="28.7940380" lon="-17.8933470">
        <ele>1158.6</ele>
        <time>2020-11-16T16:11:36Z</time>
      </trkpt>
      <trkpt lat="28.7940100" lon="-17.8933830">
        <ele>1158.8</ele>
        <time>2020-11-16T16:11:37Z</time>
      </trkpt>
      <trkpt lat="28.7939970" lon="-17.8934000">
        <ele>1158.9</ele>
        <time>2020-11-16T16:11:38Z</time>
      </trkpt>
      <trkpt lat="28.7939970" lon="-17.8934000">
        <ele>1158.9</ele>
        <time>2020-11-16T16:11:39Z</time>
      </trkpt>
      <trkpt lat="28.7939680" lon="-17.8934350">
        <ele>1159.1</ele>
        <time>2020-11-16T16:11:40Z</time>
      </trkpt>
      <trkpt lat="28.7939620" lon="-17.8934480">
        <ele>1159.1</ele>
        <time>2020-11-16T16:11:41Z</time>
      </trkpt>
      <trkpt lat="28.7939620" lon="-17.8934480">
        <ele>1159.1</ele>
        <time>2020-11-16T16:11:42Z</time>
      </trkpt>
      <trkpt lat="28.7939380" lon="-17.8934800">
        <ele>1159.3</ele>
        <time>2020-11-16T16:11:43Z</time>
      </trkpt>
      <trkpt lat="28.7939270" lon="-17.8934930">
        <ele>1159.3</ele>
        <time>2020-11-16T16:11:44Z</time>
      </trkpt>
      <trkpt lat="28.7939270" lon="-17.8934930">
        <ele>1159.3</ele>
        <time>2020-11-16T16:11:45Z</time>
      </trkpt>
      <trkpt lat="28.7939030" lon="-17.8935250">
        <ele>1159.5</ele>
        <time>2020-11-16T16:11:46Z</time>
      </trkpt>
      <trkpt lat="28.7939030" lon="-17.8935250">
        <ele>1159.5</ele>
        <time>2020-11-16T16:11:47Z</time>
      </trkpt>
      <trkpt lat="28.7938930" lon="-17.8935430">
        <ele>1159.6</ele>
        <time>2020-11-16T16:11:48Z</time>
      </trkpt>
      <trkpt lat="28.7938730" lon="-17.8935680">
        <ele>1159.7</ele>
        <time>2020-11-16T16:11:49Z</time>
      </trkpt>
      <trkpt lat="28.7938730" lon="-17.8935680">
        <ele>1159.7</ele>
        <time>2020-11-16T16:11:50Z</time>
      </trkpt>
      <trkpt lat="28.7938370" lon="-17.8935870">
        <ele>1159.8</ele>
        <time>2020-11-16T16:11:51Z</time>
      </trkpt>
      <trkpt lat="28.7938370" lon="-17.8935870">
        <ele>1159.8</ele>
        <time>2020-11-16T16:11:52Z</time>
      </trkpt>
      <trkpt lat="28.7938000" lon="-17.8936030">
        <ele>1160.0</ele>
        <time>2020-11-16T16:11:53Z</time>
      </trkpt>
      <trkpt lat="28.7938000" lon="-17.8936030">
        <ele>1160.0</ele>
        <time>2020-11-16T16:11:54Z</time>
      </trkpt>
      <trkpt lat="28.7937720" lon="-17.8936250">
        <ele>1160.2</ele>
        <time>2020-11-16T16:11:55Z</time>
      </trkpt>
      <trkpt lat="28.7937720" lon="-17.8936250">
        <ele>1160.2</ele>
        <time>2020-11-16T16:11:56Z</time>
      </trkpt>
      <trkpt lat="28.7937520" lon="-17.8936580">
        <ele>1160.3</ele>
        <time>2020-11-16T16:11:57Z</time>
      </trkpt>
      <trkpt lat="28.7937400" lon="-17.8936780">
        <ele>1160.4</ele>
        <time>2020-11-16T16:11:58Z</time>
      </trkpt>
      <trkpt lat="28.7937400" lon="-17.8936780">
        <ele>1160.4</ele>
        <time>2020-11-16T16:11:59Z</time>
      </trkpt>
      <trkpt lat="28.7937170" lon="-17.8937100">
        <ele>1160.6</ele>
        <time>2020-11-16T16:12:00Z</time>
      </trkpt>
      <trkpt lat="28.7937170" lon="-17.8937100">
        <ele>1160.6</ele>
        <time>2020-11-16T16:12:01Z</time>
      </trkpt>
      <trkpt lat="28.7937080" lon="-17.8937180">
        <ele>1160.7</ele>
        <time>2020-11-16T16:12:02Z</time>
      </trkpt>
      <trkpt lat="28.7937080" lon="-17.8937180">
        <ele>1160.7</ele>
        <time>2020-11-16T16:12:03Z</time>
      </trkpt>
      <trkpt lat="28.7937070" lon="-17.8937200">
        <ele>1160.7</ele>
        <time>2020-11-16T16:12:04Z</time>
      </trkpt>
      <trkpt lat="28.7937070" lon="-17.8937200">
        <ele>1160.7</ele>
        <time>2020-11-16T16:12:05Z</time>
      </trkpt>
      <trkpt lat="28.7936920" lon="-17.8937430">
        <ele>1160.8</ele>
        <time>2020-11-16T16:12:19Z</time>
      </trkpt>
      <trkpt lat="28.7936920" lon="-17.8937430">
        <ele>1160.8</ele>
        <time>2020-11-16T16:12:20Z</time>
      </trkpt>
      <trkpt lat="28.7936920" lon="-17.8937530">
        <ele>1160.9</ele>
        <time>2020-11-16T16:12:21Z</time>
      </trkpt>
      <trkpt lat="28.7936920" lon="-17.8937570">
        <ele>1160.9</ele>
        <time>2020-11-16T16:12:22Z</time>
      </trkpt>
      <trkpt lat="28.7936920" lon="-17.8937570">
        <ele>1160.9</ele>
        <time>2020-11-16T16:12:23Z</time>
      </trkpt>
      <trkpt lat="28.7936950" lon="-17.8937670">
        <ele>1160.9</ele>
        <time>2020-11-16T16:12:24Z</time>
      </trkpt>
      <trkpt lat="28.7936970" lon="-17.8937680">
        <ele>1160.9</ele>
        <time>2020-11-16T16:12:25Z</time>
      </trkpt>
      <trkpt lat="28.7936970" lon="-17.8937680">
        <ele>1160.9</ele>
        <time>2020-11-16T16:12:26Z</time>
      </trkpt>
      <trkpt lat="28.7936980" lon="-17.8937720">
        <ele>1161.0</ele>
        <time>2020-11-16T16:12:27Z</time>
      </trkpt>
      <trkpt lat="28.7936870" lon="-17.8938320">
        <ele>1161.3</ele>
        <time>2020-11-16T16:12:48Z</time>
      </trkpt>
      <trkpt lat="28.7936870" lon="-17.8938320">
        <ele>1161.3</ele>
        <time>2020-11-16T16:12:49Z</time>
      </trkpt>
      <trkpt lat="28.7937000" lon="-17.8938570">
        <ele>1161.4</ele>
        <time>2020-11-16T16:12:50Z</time>
      </trkpt>
      <trkpt lat="28.7937000" lon="-17.8938570">
        <ele>1161.4</ele>
        <time>2020-11-16T16:12:51Z</time>
      </trkpt>
      <trkpt lat="28.7937100" lon="-17.8938900">
        <ele>1161.6</ele>
        <time>2020-11-16T16:12:52Z</time>
      </trkpt>
      <trkpt lat="28.7937100" lon="-17.8938900">
        <ele>1161.6</ele>
        <time>2020-11-16T16:12:53Z</time>
      </trkpt>
      <trkpt lat="28.7937120" lon="-17.8939220">
        <ele>1161.7</ele>
        <time>2020-11-16T16:12:54Z</time>
      </trkpt>
      <trkpt lat="28.7937120" lon="-17.8939220">
        <ele>1161.7</ele>
        <time>2020-11-16T16:12:55Z</time>
      </trkpt>
      <trkpt lat="28.7937000" lon="-17.8939570">
        <ele>1161.9</ele>
        <time>2020-11-16T16:12:56Z</time>
      </trkpt>
      <trkpt lat="28.7937000" lon="-17.8939570">
        <ele>1161.9</ele>
        <time>2020-11-16T16:12:57Z</time>
      </trkpt>
      <trkpt lat="28.7936830" lon="-17.8939820">
        <ele>1162.1</ele>
        <time>2020-11-16T16:12:58Z</time>
      </trkpt>
      <trkpt lat="28.7936830" lon="-17.8939820">
        <ele>1162.1</ele>
        <time>2020-11-16T16:12:59Z</time>
      </trkpt>
      <trkpt lat="28.7936520" lon="-17.8939980">
        <ele>1162.4</ele>
        <time>2020-11-16T16:13:00Z</time>
      </trkpt>
      <trkpt lat="28.7936520" lon="-17.8939980">
        <ele>1162.4</ele>
        <time>2020-11-16T16:13:01Z</time>
      </trkpt>
      <trkpt lat="28.7936100" lon="-17.8940200">
        <ele>1162.7</ele>
        <time>2020-11-16T16:13:02Z</time>
      </trkpt>
      <trkpt lat="28.7936100" lon="-17.8940200">
        <ele>1162.7</ele>
        <time>2020-11-16T16:13:03Z</time>
      </trkpt>
      <trkpt lat="28.7935680" lon="-17.8940180">
        <ele>1163.0</ele>
        <time>2020-11-16T16:13:04Z</time>
      </trkpt>
      <trkpt lat="28.7935680" lon="-17.8940180">
        <ele>1163.0</ele>
        <time>2020-11-16T16:13:05Z</time>
      </trkpt>
      <trkpt lat="28.7935300" lon="-17.8940130">
        <ele>1163.3</ele>
        <time>2020-11-16T16:13:06Z</time>
      </trkpt>
      <trkpt lat="28.7935300" lon="-17.8940130">
        <ele>1163.3</ele>
        <time>2020-11-16T16:13:07Z</time>
      </trkpt>
      <trkpt lat="28.7934930" lon="-17.8940120">
        <ele>1163.6</ele>
        <time>2020-11-16T16:13:08Z</time>
      </trkpt>
      <trkpt lat="28.7934930" lon="-17.8940120">
        <ele>1163.6</ele>
        <time>2020-11-16T16:13:09Z</time>
      </trkpt>
      <trkpt lat="28.7934570" lon="-17.8940080">
        <ele>1163.8</ele>
        <time>2020-11-16T16:13:10Z</time>
      </trkpt>
      <trkpt lat="28.7934570" lon="-17.8940080">
        <ele>1163.8</ele>
        <time>2020-11-16T16:13:11Z</time>
      </trkpt>
      <trkpt lat="28.7934180" lon="-17.8940030">
        <ele>1164.1</ele>
        <time>2020-11-16T16:13:12Z</time>
      </trkpt>
      <trkpt lat="28.7934180" lon="-17.8940030">
        <ele>1164.1</ele>
        <time>2020-11-16T16:13:13Z</time>
      </trkpt>
      <trkpt lat="28.7933780" lon="-17.8940070">
        <ele>1164.4</ele>
        <time>2020-11-16T16:13:14Z</time>
      </trkpt>
      <trkpt lat="28.7933780" lon="-17.8940070">
        <ele>1164.4</ele>
        <time>2020-11-16T16:13:15Z</time>
      </trkpt>
      <trkpt lat="28.7933400" lon="-17.8940130">
        <ele>1164.7</ele>
        <time>2020-11-16T16:13:16Z</time>
      </trkpt>
      <trkpt lat="28.7933400" lon="-17.8940130">
        <ele>1164.7</ele>
        <time>2020-11-16T16:13:17Z</time>
      </trkpt>
      <trkpt lat="28.7933000" lon="-17.8940150">
        <ele>1165.0</ele>
        <time>2020-11-16T16:13:18Z</time>
      </trkpt>
      <trkpt lat="28.7933000" lon="-17.8940150">
        <ele>1165.0</ele>
        <time>2020-11-16T16:13:19Z</time>
      </trkpt>
      <trkpt lat="28.7932580" lon="-17.8940150">
        <ele>1165.3</ele>
        <time>2020-11-16T16:13:20Z</time>
      </trkpt>
      <trkpt lat="28.7932580" lon="-17.8940150">
        <ele>1165.3</ele>
        <time>2020-11-16T16:13:21Z</time>
      </trkpt>
      <trkpt lat="28.7932220" lon="-17.8940200">
        <ele>1165.5</ele>
        <time>2020-11-16T16:13:22Z</time>
      </trkpt>
      <trkpt lat="28.7932220" lon="-17.8940200">
        <ele>1165.5</ele>
        <time>2020-11-16T16:13:23Z</time>
      </trkpt>
      <trkpt lat="28.7931770" lon="-17.8940320">
        <ele>1165.8</ele>
        <time>2020-11-16T16:13:24Z</time>
      </trkpt>
      <trkpt lat="28.7931770" lon="-17.8940320">
        <ele>1165.8</ele>
        <time>2020-11-16T16:13:25Z</time>
      </trkpt>
      <trkpt lat="28.7931350" lon="-17.8940420">
        <ele>1166.1</ele>
        <time>2020-11-16T16:13:26Z</time>
      </trkpt>
      <trkpt lat="28.7931350" lon="-17.8940420">
        <ele>1166.1</ele>
        <time>2020-11-16T16:13:27Z</time>
      </trkpt>
      <trkpt lat="28.7930970" lon="-17.8940530">
        <ele>1166.4</ele>
        <time>2020-11-16T16:13:28Z</time>
      </trkpt>
      <trkpt lat="28.7930750" lon="-17.8940620">
        <ele>1166.5</ele>
        <time>2020-11-16T16:13:29Z</time>
      </trkpt>
      <trkpt lat="28.7930750" lon="-17.8940620">
        <ele>1166.5</ele>
        <time>2020-11-16T16:13:30Z</time>
      </trkpt>
      <trkpt lat="28.7930380" lon="-17.8940820">
        <ele>1166.8</ele>
        <time>2020-11-16T16:13:31Z</time>
      </trkpt>
      <trkpt lat="28.7930380" lon="-17.8940820">
        <ele>1166.8</ele>
        <time>2020-11-16T16:13:32Z</time>
      </trkpt>
      <trkpt lat="28.7930000" lon="-17.8941000">
        <ele>1167.0</ele>
        <time>2020-11-16T16:13:33Z</time>
      </trkpt>
      <trkpt lat="28.7929820" lon="-17.8941130">
        <ele>1167.1</ele>
        <time>2020-11-16T16:13:34Z</time>
      </trkpt>
      <trkpt lat="28.7929820" lon="-17.8941130">
        <ele>1167.1</ele>
        <time>2020-11-16T16:13:35Z</time>
      </trkpt>
      <trkpt lat="28.7929450" lon="-17.8941400">
        <ele>1167.3</ele>
        <time>2020-11-16T16:13:36Z</time>
      </trkpt>
      <trkpt lat="28.7929450" lon="-17.8941400">
        <ele>1167.3</ele>
        <time>2020-11-16T16:13:37Z</time>
      </trkpt>
      <trkpt lat="28.7929130" lon="-17.8941750">
        <ele>1167.5</ele>
        <time>2020-11-16T16:13:38Z</time>
      </trkpt>
      <trkpt lat="28.7929130" lon="-17.8941750">
        <ele>1167.5</ele>
        <time>2020-11-16T16:13:39Z</time>
      </trkpt>
      <trkpt lat="28.7928900" lon="-17.8942120">
        <ele>1167.7</ele>
        <time>2020-11-16T16:13:40Z</time>
      </trkpt>
      <trkpt lat="28.7928900" lon="-17.8942120">
        <ele>1167.7</ele>
        <time>2020-11-16T16:13:41Z</time>
      </trkpt>
      <trkpt lat="28.7928730" lon="-17.8942580">
        <ele>1167.9</ele>
        <time>2020-11-16T16:13:42Z</time>
      </trkpt>
      <trkpt lat="28.7928670" lon="-17.8942820">
        <ele>1168.0</ele>
        <time>2020-11-16T16:13:43Z</time>
      </trkpt>
      <trkpt lat="28.7928670" lon="-17.8942820">
        <ele>1168.0</ele>
        <time>2020-11-16T16:13:44Z</time>
      </trkpt>
      <trkpt lat="28.7928630" lon="-17.8943220">
        <ele>1168.2</ele>
        <time>2020-11-16T16:13:45Z</time>
      </trkpt>
      <trkpt lat="28.7928630" lon="-17.8943220">
        <ele>1168.2</ele>
        <time>2020-11-16T16:13:46Z</time>
      </trkpt>
      <trkpt lat="28.7928530" lon="-17.8943630">
        <ele>1168.4</ele>
        <time>2020-11-16T16:13:47Z</time>
      </trkpt>
      <trkpt lat="28.7928530" lon="-17.8943630">
        <ele>1168.4</ele>
        <time>2020-11-16T16:13:48Z</time>
      </trkpt>
      <trkpt lat="28.7928350" lon="-17.8944050">
        <ele>1168.6</ele>
        <time>2020-11-16T16:13:49Z</time>
      </trkpt>
      <trkpt lat="28.7928250" lon="-17.8944230">
        <ele>1168.7</ele>
        <time>2020-11-16T16:13:50Z</time>
      </trkpt>
      <trkpt lat="28.7928250" lon="-17.8944230">
        <ele>1168.7</ele>
        <time>2020-11-16T16:13:51Z</time>
      </trkpt>
      <trkpt lat="28.7927980" lon="-17.8944550">
        <ele>1169.0</ele>
        <time>2020-11-16T16:13:52Z</time>
      </trkpt>
      <trkpt lat="28.7927980" lon="-17.8944550">
        <ele>1169.0</ele>
        <time>2020-11-16T16:13:53Z</time>
      </trkpt>
      <trkpt lat="28.7927820" lon="-17.8944920">
        <ele>1169.3</ele>
        <time>2020-11-16T16:13:54Z</time>
      </trkpt>
      <trkpt lat="28.7927820" lon="-17.8944920">
        <ele>1169.3</ele>
        <time>2020-11-16T16:13:55Z</time>
      </trkpt>
      <trkpt lat="28.7927780" lon="-17.8945280">
        <ele>1169.6</ele>
        <time>2020-11-16T16:13:56Z</time>
      </trkpt>
      <trkpt lat="28.7927780" lon="-17.8945280">
        <ele>1169.6</ele>
        <time>2020-11-16T16:13:57Z</time>
      </trkpt>
      <trkpt lat="28.7928000" lon="-17.8945670">
        <ele>1169.9</ele>
        <time>2020-11-16T16:13:58Z</time>
      </trkpt>
      <trkpt lat="28.7928000" lon="-17.8945670">
        <ele>1169.9</ele>
        <time>2020-11-16T16:13:59Z</time>
      </trkpt>
      <trkpt lat="28.7928300" lon="-17.8946020">
        <ele>1170.1</ele>
        <time>2020-11-16T16:14:00Z</time>
      </trkpt>
      <trkpt lat="28.7928300" lon="-17.8946020">
        <ele>1170.1</ele>
        <time>2020-11-16T16:14:01Z</time>
      </trkpt>
      <trkpt lat="28.7928700" lon="-17.8946220">
        <ele>1170.4</ele>
        <time>2020-11-16T16:14:02Z</time>
      </trkpt>
      <trkpt lat="28.7928700" lon="-17.8946220">
        <ele>1170.4</ele>
        <time>2020-11-16T16:14:03Z</time>
      </trkpt>
      <trkpt lat="28.7929100" lon="-17.8946370">
        <ele>1170.7</ele>
        <time>2020-11-16T16:14:04Z</time>
      </trkpt>
      <trkpt lat="28.7929100" lon="-17.8946370">
        <ele>1170.7</ele>
        <time>2020-11-16T16:14:05Z</time>
      </trkpt>
      <trkpt lat="28.7929570" lon="-17.8946550">
        <ele>1171.0</ele>
        <time>2020-11-16T16:14:06Z</time>
      </trkpt>
      <trkpt lat="28.7929570" lon="-17.8946550">
        <ele>1171.0</ele>
        <time>2020-11-16T16:14:07Z</time>
      </trkpt>
      <trkpt lat="28.7929950" lon="-17.8946830">
        <ele>1171.4</ele>
        <time>2020-11-16T16:14:08Z</time>
      </trkpt>
      <trkpt lat="28.7929950" lon="-17.8946830">
        <ele>1171.4</ele>
        <time>2020-11-16T16:14:09Z</time>
      </trkpt>
      <trkpt lat="28.7930380" lon="-17.8947100">
        <ele>1171.6</ele>
        <time>2020-11-16T16:14:10Z</time>
      </trkpt>
      <trkpt lat="28.7930380" lon="-17.8947100">
        <ele>1171.6</ele>
        <time>2020-11-16T16:14:11Z</time>
      </trkpt>
      <trkpt lat="28.7930770" lon="-17.8947400">
        <ele>1171.9</ele>
        <time>2020-11-16T16:14:12Z</time>
      </trkpt>
      <trkpt lat="28.7930770" lon="-17.8947400">
        <ele>1171.9</ele>
        <time>2020-11-16T16:14:13Z</time>
      </trkpt>
      <trkpt lat="28.7930770" lon="-17.8947400">
        <ele>1171.9</ele>
        <time>2020-11-16T16:14:14Z</time>
      </trkpt>
      <trkpt lat="28.7931030" lon="-17.8947780">
        <ele>1172.1</ele>
        <time>2020-11-16T16:14:15Z</time>
      </trkpt>
      <trkpt lat="28.7931200" lon="-17.8948230">
        <ele>1172.4</ele>
        <time>2020-11-16T16:14:16Z</time>
      </trkpt>
      <trkpt lat="28.7931200" lon="-17.8948230">
        <ele>1172.4</ele>
        <time>2020-11-16T16:14:17Z</time>
      </trkpt>
      <trkpt lat="28.7931350" lon="-17.8948720">
        <ele>1172.6</ele>
        <time>2020-11-16T16:14:18Z</time>
      </trkpt>
      <trkpt lat="28.7931450" lon="-17.8948930">
        <ele>1172.7</ele>
        <time>2020-11-16T16:14:19Z</time>
      </trkpt>
      <trkpt lat="28.7931450" lon="-17.8948930">
        <ele>1172.7</ele>
        <time>2020-11-16T16:14:20Z</time>
      </trkpt>
      <trkpt lat="28.7931670" lon="-17.8949350">
        <ele>1173.0</ele>
        <time>2020-11-16T16:14:21Z</time>
      </trkpt>
      <trkpt lat="28.7931670" lon="-17.8949350">
        <ele>1173.0</ele>
        <time>2020-11-16T16:14:22Z</time>
      </trkpt>
      <trkpt lat="28.7931870" lon="-17.8949730">
        <ele>1173.2</ele>
        <time>2020-11-16T16:14:23Z</time>
      </trkpt>
      <trkpt lat="28.7931870" lon="-17.8949730">
        <ele>1173.2</ele>
        <time>2020-11-16T16:14:24Z</time>
      </trkpt>
      <trkpt lat="28.7932100" lon="-17.8950120">
        <ele>1173.5</ele>
        <time>2020-11-16T16:14:25Z</time>
      </trkpt>
      <trkpt lat="28.7932100" lon="-17.8950120">
        <ele>1173.5</ele>
        <time>2020-11-16T16:14:26Z</time>
      </trkpt>
      <trkpt lat="28.7932380" lon="-17.8950500">
        <ele>1173.8</ele>
        <time>2020-11-16T16:14:27Z</time>
      </trkpt>
      <trkpt lat="28.7932380" lon="-17.8950500">
        <ele>1173.8</ele>
        <time>2020-11-16T16:14:28Z</time>
      </trkpt>
      <trkpt lat="28.7932750" lon="-17.8950720">
        <ele>1174.2</ele>
        <time>2020-11-16T16:14:29Z</time>
      </trkpt>
      <trkpt lat="28.7932750" lon="-17.8950720">
        <ele>1174.2</ele>
        <time>2020-11-16T16:14:30Z</time>
      </trkpt>
      <trkpt lat="28.7933100" lon="-17.8950950">
        <ele>1174.5</ele>
        <time>2020-11-16T16:14:31Z</time>
      </trkpt>
      <trkpt lat="28.7933270" lon="-17.8951050">
        <ele>1174.7</ele>
        <time>2020-11-16T16:14:32Z</time>
      </trkpt>
      <trkpt lat="28.7933430" lon="-17.8951130">
        <ele>1174.9</ele>
        <time>2020-11-16T16:14:33Z</time>
      </trkpt>
      <trkpt lat="28.7933430" lon="-17.8951130">
        <ele>1174.9</ele>
        <time>2020-11-16T16:14:34Z</time>
      </trkpt>
      <trkpt lat="28.7933430" lon="-17.8951130">
        <ele>1174.9</ele>
        <time>2020-11-16T16:14:35Z</time>
      </trkpt>
      <trkpt lat="28.7933720" lon="-17.8951400">
        <ele>1175.2</ele>
        <time>2020-11-16T16:14:36Z</time>
      </trkpt>
      <trkpt lat="28.7934000" lon="-17.8951670">
        <ele>1175.6</ele>
        <time>2020-11-16T16:14:37Z</time>
      </trkpt>
      <trkpt lat="28.7934150" lon="-17.8951830">
        <ele>1175.9</ele>
        <time>2020-11-16T16:14:38Z</time>
      </trkpt>
      <trkpt lat="28.7934270" lon="-17.8952030">
        <ele>1176.1</ele>
        <time>2020-11-16T16:14:39Z</time>
      </trkpt>
      <trkpt lat="28.7934270" lon="-17.8952030">
        <ele>1176.1</ele>
        <time>2020-11-16T16:14:40Z</time>
      </trkpt>
      <trkpt lat="28.7934400" lon="-17.8952430">
        <ele>1176.6</ele>
        <time>2020-11-16T16:14:41Z</time>
      </trkpt>
      <trkpt lat="28.7934430" lon="-17.8952630">
        <ele>1176.8</ele>
        <time>2020-11-16T16:14:42Z</time>
      </trkpt>
      <trkpt lat="28.7934430" lon="-17.8952630">
        <ele>1176.8</ele>
        <time>2020-11-16T16:14:43Z</time>
      </trkpt>
      <trkpt lat="28.7934400" lon="-17.8953070">
        <ele>1177.3</ele>
        <time>2020-11-16T16:14:44Z</time>
      </trkpt>
      <trkpt lat="28.7934280" lon="-17.8953230">
        <ele>1177.5</ele>
        <time>2020-11-16T16:14:45Z</time>
      </trkpt>
      <trkpt lat="28.7934280" lon="-17.8953230">
        <ele>1177.5</ele>
        <time>2020-11-16T16:14:46Z</time>
      </trkpt>
      <trkpt lat="28.7934280" lon="-17.8953230">
        <ele>1177.5</ele>
        <time>2020-11-16T16:14:47Z</time>
      </trkpt>
      <trkpt lat="28.7933920" lon="-17.8953470">
        <ele>1178.2</ele>
        <time>2020-11-16T16:14:48Z</time>
      </trkpt>
      <trkpt lat="28.7933550" lon="-17.8953650">
        <ele>1178.6</ele>
        <time>2020-11-16T16:14:49Z</time>
      </trkpt>
      <trkpt lat="28.7933550" lon="-17.8953650">
        <ele>1178.6</ele>
        <time>2020-11-16T16:14:50Z</time>
      </trkpt>
      <trkpt lat="28.7933180" lon="-17.8953570">
        <ele>1179.0</ele>
        <time>2020-11-16T16:14:51Z</time>
      </trkpt>
      <trkpt lat="28.7933180" lon="-17.8953570">
        <ele>1179.0</ele>
        <time>2020-11-16T16:14:52Z</time>
      </trkpt>
      <trkpt lat="28.7932870" lon="-17.8953420">
        <ele>1179.3</ele>
        <time>2020-11-16T16:14:53Z</time>
      </trkpt>
      <trkpt lat="28.7932870" lon="-17.8953420">
        <ele>1179.3</ele>
        <time>2020-11-16T16:14:54Z</time>
      </trkpt>
      <trkpt lat="28.7932670" lon="-17.8953130">
        <ele>1179.6</ele>
        <time>2020-11-16T16:14:55Z</time>
      </trkpt>
      <trkpt lat="28.7932600" lon="-17.8953030">
        <ele>1179.7</ele>
        <time>2020-11-16T16:14:56Z</time>
      </trkpt>
      <trkpt lat="28.7932600" lon="-17.8953030">
        <ele>1179.7</ele>
        <time>2020-11-16T16:14:57Z</time>
      </trkpt>
      <trkpt lat="28.7932520" lon="-17.8952920">
        <ele>1179.8</ele>
        <time>2020-11-16T16:14:58Z</time>
      </trkpt>
      <trkpt lat="28.7932520" lon="-17.8952920">
        <ele>1179.8</ele>
        <time>2020-11-16T16:14:59Z</time>
      </trkpt>
      <trkpt lat="28.7932320" lon="-17.8952700">
        <ele>1180.0</ele>
        <time>2020-11-16T16:15:00Z</time>
      </trkpt>
      <trkpt lat="28.7932320" lon="-17.8952700">
        <ele>1180.0</ele>
        <time>2020-11-16T16:15:01Z</time>
      </trkpt>
      <trkpt lat="28.7932000" lon="-17.8952350">
        <ele>1180.3</ele>
        <time>2020-11-16T16:15:02Z</time>
      </trkpt>
      <trkpt lat="28.7932000" lon="-17.8952350">
        <ele>1180.3</ele>
        <time>2020-11-16T16:15:03Z</time>
      </trkpt>
      <trkpt lat="28.7931630" lon="-17.8952030">
        <ele>1180.6</ele>
        <time>2020-11-16T16:15:04Z</time>
      </trkpt>
      <trkpt lat="28.7931450" lon="-17.8951870">
        <ele>1180.8</ele>
        <time>2020-11-16T16:15:05Z</time>
      </trkpt>
      <trkpt lat="28.7931450" lon="-17.8951870">
        <ele>1180.8</ele>
        <time>2020-11-16T16:15:06Z</time>
      </trkpt>
      <trkpt lat="28.7931080" lon="-17.8951580">
        <ele>1181.1</ele>
        <time>2020-11-16T16:15:07Z</time>
      </trkpt>
      <trkpt lat="28.7931080" lon="-17.8951580">
        <ele>1181.1</ele>
        <time>2020-11-16T16:15:08Z</time>
      </trkpt>
      <trkpt lat="28.7930780" lon="-17.8951270">
        <ele>1181.3</ele>
        <time>2020-11-16T16:15:09Z</time>
      </trkpt>
      <trkpt lat="28.7930650" lon="-17.8951080">
        <ele>1181.5</ele>
        <time>2020-11-16T16:15:10Z</time>
      </trkpt>
      <trkpt lat="28.7930650" lon="-17.8951080">
        <ele>1181.5</ele>
        <time>2020-11-16T16:15:11Z</time>
      </trkpt>
      <trkpt lat="28.7930380" lon="-17.8950720">
        <ele>1181.7</ele>
        <time>2020-11-16T16:15:12Z</time>
      </trkpt>
      <trkpt lat="28.7930380" lon="-17.8950720">
        <ele>1181.7</ele>
        <time>2020-11-16T16:15:13Z</time>
      </trkpt>
      <trkpt lat="28.7930150" lon="-17.8950270">
        <ele>1182.1</ele>
        <time>2020-11-16T16:15:14Z</time>
      </trkpt>
      <trkpt lat="28.7930150" lon="-17.8950270">
        <ele>1182.1</ele>
        <time>2020-11-16T16:15:15Z</time>
      </trkpt>
      <trkpt lat="28.7929950" lon="-17.8949870">
        <ele>1182.4</ele>
        <time>2020-11-16T16:15:16Z</time>
      </trkpt>
      <trkpt lat="28.7929950" lon="-17.8949870">
        <ele>1182.4</ele>
        <time>2020-11-16T16:15:17Z</time>
      </trkpt>
      <trkpt lat="28.7929650" lon="-17.8949480">
        <ele>1182.8</ele>
        <time>2020-11-16T16:15:18Z</time>
      </trkpt>
      <trkpt lat="28.7929650" lon="-17.8949480">
        <ele>1182.8</ele>
        <time>2020-11-16T16:15:19Z</time>
      </trkpt>
      <trkpt lat="28.7929420" lon="-17.8949120">
        <ele>1183.1</ele>
        <time>2020-11-16T16:15:20Z</time>
      </trkpt>
      <trkpt lat="28.7929330" lon="-17.8948930">
        <ele>1183.2</ele>
        <time>2020-11-16T16:15:21Z</time>
      </trkpt>
      <trkpt lat="28.7929330" lon="-17.8948930">
        <ele>1183.2</ele>
        <time>2020-11-16T16:15:22Z</time>
      </trkpt>
      <trkpt lat="28.7929030" lon="-17.8948650">
        <ele>1183.5</ele>
        <time>2020-11-16T16:15:23Z</time>
      </trkpt>
      <trkpt lat="28.7929030" lon="-17.8948650">
        <ele>1183.5</ele>
        <time>2020-11-16T16:15:24Z</time>
      </trkpt>
      <trkpt lat="28.7928630" lon="-17.8948480">
        <ele>1183.9</ele>
        <time>2020-11-16T16:15:25Z</time>
      </trkpt>
      <trkpt lat="28.7928470" lon="-17.8948420">
        <ele>1184.0</ele>
        <time>2020-11-16T16:15:26Z</time>
      </trkpt>
      <trkpt lat="28.7928470" lon="-17.8948420">
        <ele>1184.0</ele>
        <time>2020-11-16T16:15:27Z</time>
      </trkpt>
      <trkpt lat="28.7928100" lon="-17.8948350">
        <ele>1184.3</ele>
        <time>2020-11-16T16:15:28Z</time>
      </trkpt>
      <trkpt lat="28.7928100" lon="-17.8948350">
        <ele>1184.3</ele>
        <time>2020-11-16T16:15:29Z</time>
      </trkpt>
      <trkpt lat="28.7928100" lon="-17.8948350">
        <ele>1184.3</ele>
        <time>2020-11-16T16:15:30Z</time>
      </trkpt>
      <trkpt lat="28.7927530" lon="-17.8948300">
        <ele>1184.8</ele>
        <time>2020-11-16T16:15:31Z</time>
      </trkpt>
      <trkpt lat="28.7927530" lon="-17.8948300">
        <ele>1184.8</ele>
        <time>2020-11-16T16:15:32Z</time>
      </trkpt>
      <trkpt lat="28.7927120" lon="-17.8948280">
        <ele>1185.1</ele>
        <time>2020-11-16T16:15:33Z</time>
      </trkpt>
      <trkpt lat="28.7927120" lon="-17.8948280">
        <ele>1185.1</ele>
        <time>2020-11-16T16:15:34Z</time>
      </trkpt>
      <trkpt lat="28.7926670" lon="-17.8948200">
        <ele>1185.5</ele>
        <time>2020-11-16T16:15:35Z</time>
      </trkpt>
      <trkpt lat="28.7926470" lon="-17.8948150">
        <ele>1185.7</ele>
        <time>2020-11-16T16:15:36Z</time>
      </trkpt>
      <trkpt lat="28.7926470" lon="-17.8948150">
        <ele>1185.7</ele>
        <time>2020-11-16T16:15:37Z</time>
      </trkpt>
      <trkpt lat="28.7926050" lon="-17.8948100">
        <ele>1186.0</ele>
        <time>2020-11-16T16:15:38Z</time>
      </trkpt>
      <trkpt lat="28.7925820" lon="-17.8948080">
        <ele>1186.2</ele>
        <time>2020-11-16T16:15:39Z</time>
      </trkpt>
      <trkpt lat="28.7925820" lon="-17.8948080">
        <ele>1186.2</ele>
        <time>2020-11-16T16:15:40Z</time>
      </trkpt>
      <trkpt lat="28.7925380" lon="-17.8948080">
        <ele>1186.6</ele>
        <time>2020-11-16T16:15:41Z</time>
      </trkpt>
      <trkpt lat="28.7925380" lon="-17.8948080">
        <ele>1186.6</ele>
        <time>2020-11-16T16:15:42Z</time>
      </trkpt>
      <trkpt lat="28.7924980" lon="-17.8947950">
        <ele>1187.0</ele>
        <time>2020-11-16T16:15:43Z</time>
      </trkpt>
      <trkpt lat="28.7924780" lon="-17.8947950">
        <ele>1187.1</ele>
        <time>2020-11-16T16:15:44Z</time>
      </trkpt>
      <trkpt lat="28.7924780" lon="-17.8947950">
        <ele>1187.1</ele>
        <time>2020-11-16T16:15:45Z</time>
      </trkpt>
      <trkpt lat="28.7924370" lon="-17.8947950">
        <ele>1187.5</ele>
        <time>2020-11-16T16:15:46Z</time>
      </trkpt>
      <trkpt lat="28.7924370" lon="-17.8947950">
        <ele>1187.5</ele>
        <time>2020-11-16T16:15:47Z</time>
      </trkpt>
      <trkpt lat="28.7924000" lon="-17.8947870">
        <ele>1187.8</ele>
        <time>2020-11-16T16:15:48Z</time>
      </trkpt>
      <trkpt lat="28.7924000" lon="-17.8947870">
        <ele>1187.8</ele>
        <time>2020-11-16T16:15:49Z</time>
      </trkpt>
      <trkpt lat="28.7923580" lon="-17.8947850">
        <ele>1188.2</ele>
        <time>2020-11-16T16:15:50Z</time>
      </trkpt>
      <trkpt lat="28.7923580" lon="-17.8947850">
        <ele>1188.2</ele>
        <time>2020-11-16T16:15:51Z</time>
      </trkpt>
      <trkpt lat="28.7923100" lon="-17.8947930">
        <ele>1188.7</ele>
        <time>2020-11-16T16:15:52Z</time>
      </trkpt>
      <trkpt lat="28.7923100" lon="-17.8947930">
        <ele>1188.7</ele>
        <time>2020-11-16T16:15:53Z</time>
      </trkpt>
      <trkpt lat="28.7922670" lon="-17.8947950">
        <ele>1189.1</ele>
        <time>2020-11-16T16:15:54Z</time>
      </trkpt>
      <trkpt lat="28.7922670" lon="-17.8947950">
        <ele>1189.1</ele>
        <time>2020-11-16T16:15:55Z</time>
      </trkpt>
      <trkpt lat="28.7922250" lon="-17.8948130">
        <ele>1189.6</ele>
        <time>2020-11-16T16:15:56Z</time>
      </trkpt>
      <trkpt lat="28.7922250" lon="-17.8948130">
        <ele>1189.6</ele>
        <time>2020-11-16T16:15:57Z</time>
      </trkpt>
      <trkpt lat="28.7921830" lon="-17.8948250">
        <ele>1190.0</ele>
        <time>2020-11-16T16:15:58Z</time>
      </trkpt>
      <trkpt lat="28.7921830" lon="-17.8948250">
        <ele>1190.0</ele>
        <time>2020-11-16T16:15:59Z</time>
      </trkpt>
      <trkpt lat="28.7921620" lon="-17.8948280">
        <ele>1190.2</ele>
        <time>2020-11-16T16:16:00Z</time>
      </trkpt>
      <trkpt lat="28.7921230" lon="-17.8948370">
        <ele>1190.6</ele>
        <time>2020-11-16T16:16:01Z</time>
      </trkpt>
      <trkpt lat="28.7921020" lon="-17.8948420">
        <ele>1190.8</ele>
        <time>2020-11-16T16:16:02Z</time>
      </trkpt>
      <trkpt lat="28.7921020" lon="-17.8948420">
        <ele>1190.8</ele>
        <time>2020-11-16T16:16:03Z</time>
      </trkpt>
      <trkpt lat="28.7920620" lon="-17.8948550">
        <ele>1191.2</ele>
        <time>2020-11-16T16:16:04Z</time>
      </trkpt>
      <trkpt lat="28.7920430" lon="-17.8948700">
        <ele>1191.4</ele>
        <time>2020-11-16T16:16:05Z</time>
      </trkpt>
      <trkpt lat="28.7920430" lon="-17.8948700">
        <ele>1191.4</ele>
        <time>2020-11-16T16:16:06Z</time>
      </trkpt>
      <trkpt lat="28.7920050" lon="-17.8948870">
        <ele>1191.8</ele>
        <time>2020-11-16T16:16:07Z</time>
      </trkpt>
      <trkpt lat="28.7920050" lon="-17.8948870">
        <ele>1191.8</ele>
        <time>2020-11-16T16:16:08Z</time>
      </trkpt>
      <trkpt lat="28.7919650" lon="-17.8949020">
        <ele>1192.1</ele>
        <time>2020-11-16T16:16:09Z</time>
      </trkpt>
      <trkpt lat="28.7919470" lon="-17.8949100">
        <ele>1192.3</ele>
        <time>2020-11-16T16:16:10Z</time>
      </trkpt>
      <trkpt lat="28.7919470" lon="-17.8949100">
        <ele>1192.3</ele>
        <time>2020-11-16T16:16:11Z</time>
      </trkpt>
      <trkpt lat="28.7919080" lon="-17.8949170">
        <ele>1192.7</ele>
        <time>2020-11-16T16:16:12Z</time>
      </trkpt>
      <trkpt lat="28.7918870" lon="-17.8949120">
        <ele>1193.0</ele>
        <time>2020-11-16T16:16:13Z</time>
      </trkpt>
      <trkpt lat="28.7918650" lon="-17.8948900">
        <ele>1193.3</ele>
        <time>2020-11-16T16:16:14Z</time>
      </trkpt>
      <trkpt lat="28.7918650" lon="-17.8948900">
        <ele>1193.3</ele>
        <time>2020-11-16T16:16:15Z</time>
      </trkpt>
      <trkpt lat="28.7918280" lon="-17.8948620">
        <ele>1193.7</ele>
        <time>2020-11-16T16:16:16Z</time>
      </trkpt>
      <trkpt lat="28.7918280" lon="-17.8948620">
        <ele>1193.7</ele>
        <time>2020-11-16T16:16:17Z</time>
      </trkpt>
      <trkpt lat="28.7918100" lon="-17.8948220">
        <ele>1194.1</ele>
        <time>2020-11-16T16:16:18Z</time>
      </trkpt>
      <trkpt lat="28.7918050" lon="-17.8948020">
        <ele>1194.3</ele>
        <time>2020-11-16T16:16:19Z</time>
      </trkpt>
      <trkpt lat="28.7918030" lon="-17.8947770">
        <ele>1194.5</ele>
        <time>2020-11-16T16:16:20Z</time>
      </trkpt>
      <trkpt lat="28.7918030" lon="-17.8947770">
        <ele>1194.5</ele>
        <time>2020-11-16T16:16:21Z</time>
      </trkpt>
      <trkpt lat="28.7917970" lon="-17.8947320">
        <ele>1194.9</ele>
        <time>2020-11-16T16:16:22Z</time>
      </trkpt>
      <trkpt lat="28.7917970" lon="-17.8947320">
        <ele>1194.9</ele>
        <time>2020-11-16T16:16:23Z</time>
      </trkpt>
      <trkpt lat="28.7918050" lon="-17.8946870">
        <ele>1195.3</ele>
        <time>2020-11-16T16:16:24Z</time>
      </trkpt>
      <trkpt lat="28.7918050" lon="-17.8946870">
        <ele>1195.3</ele>
        <time>2020-11-16T16:16:25Z</time>
      </trkpt>
      <trkpt lat="28.7918000" lon="-17.8946430">
        <ele>1195.7</ele>
        <time>2020-11-16T16:16:26Z</time>
      </trkpt>
      <trkpt lat="28.7918000" lon="-17.8946430">
        <ele>1195.7</ele>
        <time>2020-11-16T16:16:27Z</time>
      </trkpt>
      <trkpt lat="28.7917920" lon="-17.8946050">
        <ele>1196.1</ele>
        <time>2020-11-16T16:16:28Z</time>
      </trkpt>
      <trkpt lat="28.7917920" lon="-17.8946050">
        <ele>1196.1</ele>
        <time>2020-11-16T16:16:29Z</time>
      </trkpt>
      <trkpt lat="28.7917900" lon="-17.8945600">
        <ele>1196.4</ele>
        <time>2020-11-16T16:16:30Z</time>
      </trkpt>
      <trkpt lat="28.7917900" lon="-17.8945600">
        <ele>1196.4</ele>
        <time>2020-11-16T16:16:31Z</time>
      </trkpt>
      <trkpt lat="28.7917780" lon="-17.8945200">
        <ele>1196.8</ele>
        <time>2020-11-16T16:16:32Z</time>
      </trkpt>
      <trkpt lat="28.7917780" lon="-17.8945200">
        <ele>1196.8</ele>
        <time>2020-11-16T16:16:33Z</time>
      </trkpt>
      <trkpt lat="28.7917780" lon="-17.8944770">
        <ele>1197.2</ele>
        <time>2020-11-16T16:16:34Z</time>
      </trkpt>
      <trkpt lat="28.7917780" lon="-17.8944770">
        <ele>1197.2</ele>
        <time>2020-11-16T16:16:35Z</time>
      </trkpt>
      <trkpt lat="28.7917750" lon="-17.8944330">
        <ele>1197.5</ele>
        <time>2020-11-16T16:16:36Z</time>
      </trkpt>
      <trkpt lat="28.7917880" lon="-17.8944100">
        <ele>1197.7</ele>
        <time>2020-11-16T16:16:37Z</time>
      </trkpt>
      <trkpt lat="28.7918030" lon="-17.8943850">
        <ele>1198.0</ele>
        <time>2020-11-16T16:16:38Z</time>
      </trkpt>
      <trkpt lat="28.7918030" lon="-17.8943850">
        <ele>1198.0</ele>
        <time>2020-11-16T16:16:39Z</time>
      </trkpt>
      <trkpt lat="28.7918220" lon="-17.8943480">
        <ele>1198.3</ele>
        <time>2020-11-16T16:16:40Z</time>
      </trkpt>
      <trkpt lat="28.7918220" lon="-17.8943480">
        <ele>1198.3</ele>
        <time>2020-11-16T16:16:41Z</time>
      </trkpt>
      <trkpt lat="28.7918450" lon="-17.8943120">
        <ele>1198.7</ele>
        <time>2020-11-16T16:16:42Z</time>
      </trkpt>
      <trkpt lat="28.7918450" lon="-17.8943120">
        <ele>1198.7</ele>
        <time>2020-11-16T16:16:43Z</time>
      </trkpt>
      <trkpt lat="28.7918600" lon="-17.8942750">
        <ele>1199.0</ele>
        <time>2020-11-16T16:16:44Z</time>
      </trkpt>
      <trkpt lat="28.7918600" lon="-17.8942750">
        <ele>1199.0</ele>
        <time>2020-11-16T16:16:45Z</time>
      </trkpt>
      <trkpt lat="28.7918680" lon="-17.8942370">
        <ele>1199.3</ele>
        <time>2020-11-16T16:16:46Z</time>
      </trkpt>
      <trkpt lat="28.7918680" lon="-17.8942370">
        <ele>1199.3</ele>
        <time>2020-11-16T16:16:47Z</time>
      </trkpt>
      <trkpt lat="28.7918800" lon="-17.8941950">
        <ele>1199.7</ele>
        <time>2020-11-16T16:16:48Z</time>
      </trkpt>
      <trkpt lat="28.7918820" lon="-17.8941730">
        <ele>1199.9</ele>
        <time>2020-11-16T16:16:49Z</time>
      </trkpt>
      <trkpt lat="28.7918750" lon="-17.8941520">
        <ele>1200.1</ele>
        <time>2020-11-16T16:16:50Z</time>
      </trkpt>
      <trkpt lat="28.7918750" lon="-17.8941520">
        <ele>1200.1</ele>
        <time>2020-11-16T16:16:51Z</time>
      </trkpt>
      <trkpt lat="28.7918720" lon="-17.8941100">
        <ele>1200.4</ele>
        <time>2020-11-16T16:16:52Z</time>
      </trkpt>
      <trkpt lat="28.7918720" lon="-17.8941100">
        <ele>1200.4</ele>
        <time>2020-11-16T16:16:53Z</time>
      </trkpt>
      <trkpt lat="28.7918530" lon="-17.8940780">
        <ele>1200.7</ele>
        <time>2020-11-16T16:16:54Z</time>
      </trkpt>
      <trkpt lat="28.7918530" lon="-17.8940780">
        <ele>1200.7</ele>
        <time>2020-11-16T16:16:55Z</time>
      </trkpt>
      <trkpt lat="28.7918380" lon="-17.8940550">
        <ele>1201.0</ele>
        <time>2020-11-16T16:16:56Z</time>
      </trkpt>
      <trkpt lat="28.7918380" lon="-17.8940550">
        <ele>1201.0</ele>
        <time>2020-11-16T16:16:57Z</time>
      </trkpt>
      <trkpt lat="28.7917930" lon="-17.8940170">
        <ele>1201.4</ele>
        <time>2020-11-16T16:16:58Z</time>
      </trkpt>
      <trkpt lat="28.7917930" lon="-17.8940170">
        <ele>1201.4</ele>
        <time>2020-11-16T16:16:59Z</time>
      </trkpt>
      <trkpt lat="28.7917930" lon="-17.8940170">
        <ele>1201.4</ele>
        <time>2020-11-16T16:17:00Z</time>
      </trkpt>
      <trkpt lat="28.7917700" lon="-17.8939650">
        <ele>1201.9</ele>
        <time>2020-11-16T16:17:01Z</time>
      </trkpt>
      <trkpt lat="28.7917570" lon="-17.8939150">
        <ele>1202.3</ele>
        <time>2020-11-16T16:17:02Z</time>
      </trkpt>
      <trkpt lat="28.7917570" lon="-17.8939150">
        <ele>1202.3</ele>
        <time>2020-11-16T16:17:03Z</time>
      </trkpt>
      <trkpt lat="28.7917480" lon="-17.8938780">
        <ele>1202.6</ele>
        <time>2020-11-16T16:17:04Z</time>
      </trkpt>
      <trkpt lat="28.7917480" lon="-17.8938780">
        <ele>1202.6</ele>
        <time>2020-11-16T16:17:05Z</time>
      </trkpt>
      <trkpt lat="28.7917520" lon="-17.8938350">
        <ele>1202.9</ele>
        <time>2020-11-16T16:17:06Z</time>
      </trkpt>
      <trkpt lat="28.7917520" lon="-17.8938350">
        <ele>1202.9</ele>
        <time>2020-11-16T16:17:07Z</time>
      </trkpt>
      <trkpt lat="28.7917700" lon="-17.8937920">
        <ele>1203.3</ele>
        <time>2020-11-16T16:17:08Z</time>
      </trkpt>
      <trkpt lat="28.7917700" lon="-17.8937920">
        <ele>1203.3</ele>
        <time>2020-11-16T16:17:09Z</time>
      </trkpt>
      <trkpt lat="28.7917800" lon="-17.8937550">
        <ele>1203.6</ele>
        <time>2020-11-16T16:17:10Z</time>
      </trkpt>
      <trkpt lat="28.7917800" lon="-17.8937550">
        <ele>1203.6</ele>
        <time>2020-11-16T16:17:11Z</time>
      </trkpt>
      <trkpt lat="28.7917920" lon="-17.8937130">
        <ele>1204.0</ele>
        <time>2020-11-16T16:17:12Z</time>
      </trkpt>
      <trkpt lat="28.7917920" lon="-17.8937130">
        <ele>1204.0</ele>
        <time>2020-11-16T16:17:13Z</time>
      </trkpt>
      <trkpt lat="28.7918130" lon="-17.8936730">
        <ele>1204.5</ele>
        <time>2020-11-16T16:17:14Z</time>
      </trkpt>
      <trkpt lat="28.7918130" lon="-17.8936730">
        <ele>1204.5</ele>
        <time>2020-11-16T16:17:15Z</time>
      </trkpt>
      <trkpt lat="28.7918330" lon="-17.8936350">
        <ele>1205.0</ele>
        <time>2020-11-16T16:17:16Z</time>
      </trkpt>
      <trkpt lat="28.7918330" lon="-17.8936350">
        <ele>1205.0</ele>
        <time>2020-11-16T16:17:17Z</time>
      </trkpt>
      <trkpt lat="28.7918480" lon="-17.8935950">
        <ele>1205.4</ele>
        <time>2020-11-16T16:17:18Z</time>
      </trkpt>
      <trkpt lat="28.7918480" lon="-17.8935950">
        <ele>1205.4</ele>
        <time>2020-11-16T16:17:19Z</time>
      </trkpt>
      <trkpt lat="28.7918670" lon="-17.8935650">
        <ele>1205.8</ele>
        <time>2020-11-16T16:17:20Z</time>
      </trkpt>
      <trkpt lat="28.7918670" lon="-17.8935650">
        <ele>1205.8</ele>
        <time>2020-11-16T16:17:21Z</time>
      </trkpt>
      <trkpt lat="28.7918780" lon="-17.8935300">
        <ele>1206.2</ele>
        <time>2020-11-16T16:17:22Z</time>
      </trkpt>
      <trkpt lat="28.7918830" lon="-17.8935130">
        <ele>1206.4</ele>
        <time>2020-11-16T16:17:23Z</time>
      </trkpt>
      <trkpt lat="28.7918830" lon="-17.8935130">
        <ele>1206.4</ele>
        <time>2020-11-16T16:17:24Z</time>
      </trkpt>
      <trkpt lat="28.7918950" lon="-17.8934800">
        <ele>1206.8</ele>
        <time>2020-11-16T16:17:25Z</time>
      </trkpt>
      <trkpt lat="28.7918950" lon="-17.8934800">
        <ele>1206.8</ele>
        <time>2020-11-16T16:17:26Z</time>
      </trkpt>
      <trkpt lat="28.7918970" lon="-17.8934630">
        <ele>1207.0</ele>
        <time>2020-11-16T16:17:27Z</time>
      </trkpt>
      <trkpt lat="28.7918820" lon="-17.8934270">
        <ele>1207.4</ele>
        <time>2020-11-16T16:17:28Z</time>
      </trkpt>
      <trkpt lat="28.7918800" lon="-17.8934170">
        <ele>1207.5</ele>
        <time>2020-11-16T16:17:29Z</time>
      </trkpt>
      <trkpt lat="28.7918800" lon="-17.8934170">
        <ele>1207.5</ele>
        <time>2020-11-16T16:17:30Z</time>
      </trkpt>
      <trkpt lat="28.7918630" lon="-17.8933900">
        <ele>1207.9</ele>
        <time>2020-11-16T16:17:31Z</time>
      </trkpt>
      <trkpt lat="28.7918630" lon="-17.8933900">
        <ele>1207.9</ele>
        <time>2020-11-16T16:17:32Z</time>
      </trkpt>
      <trkpt lat="28.7918500" lon="-17.8933630">
        <ele>1208.2</ele>
        <time>2020-11-16T16:17:33Z</time>
      </trkpt>
      <trkpt lat="28.7918500" lon="-17.8933630">
        <ele>1208.2</ele>
        <time>2020-11-16T16:17:34Z</time>
      </trkpt>
      <trkpt lat="28.7918370" lon="-17.8933180">
        <ele>1208.8</ele>
        <time>2020-11-16T16:17:35Z</time>
      </trkpt>
      <trkpt lat="28.7918370" lon="-17.8933180">
        <ele>1208.8</ele>
        <time>2020-11-16T16:17:36Z</time>
      </trkpt>
      <trkpt lat="28.7918300" lon="-17.8932680">
        <ele>1209.3</ele>
        <time>2020-11-16T16:17:37Z</time>
      </trkpt>
      <trkpt lat="28.7918220" lon="-17.8932480">
        <ele>1209.6</ele>
        <time>2020-11-16T16:17:38Z</time>
      </trkpt>
      <trkpt lat="28.7918220" lon="-17.8932480">
        <ele>1209.6</ele>
        <time>2020-11-16T16:17:39Z</time>
      </trkpt>
      <trkpt lat="28.7918000" lon="-17.8932220">
        <ele>1210.0</ele>
        <time>2020-11-16T16:17:40Z</time>
      </trkpt>
      <trkpt lat="28.7917850" lon="-17.8932130">
        <ele>1210.2</ele>
        <time>2020-11-16T16:17:41Z</time>
      </trkpt>
      <trkpt lat="28.7917850" lon="-17.8932130">
        <ele>1210.2</ele>
        <time>2020-11-16T16:17:42Z</time>
      </trkpt>
      <trkpt lat="28.7917630" lon="-17.8932020">
        <ele>1210.5</ele>
        <time>2020-11-16T16:17:43Z</time>
      </trkpt>
      <trkpt lat="28.7917530" lon="-17.8931950">
        <ele>1210.7</ele>
        <time>2020-11-16T16:17:44Z</time>
      </trkpt>
      <trkpt lat="28.7917530" lon="-17.8931950">
        <ele>1210.7</ele>
        <time>2020-11-16T16:17:45Z</time>
      </trkpt>
      <trkpt lat="28.7917200" lon="-17.8931880">
        <ele>1211.1</ele>
        <time>2020-11-16T16:17:46Z</time>
      </trkpt>
      <trkpt lat="28.7917050" lon="-17.8931900">
        <ele>1211.3</ele>
        <time>2020-11-16T16:17:47Z</time>
      </trkpt>
      <trkpt lat="28.7917050" lon="-17.8931900">
        <ele>1211.3</ele>
        <time>2020-11-16T16:17:48Z</time>
      </trkpt>
      <trkpt lat="28.7916870" lon="-17.8931970">
        <ele>1211.5</ele>
        <time>2020-11-16T16:17:49Z</time>
      </trkpt>
      <trkpt lat="28.7916730" lon="-17.8932070">
        <ele>1211.7</ele>
        <time>2020-11-16T16:17:50Z</time>
      </trkpt>
      <trkpt lat="28.7916730" lon="-17.8932070">
        <ele>1211.7</ele>
        <time>2020-11-16T16:17:51Z</time>
      </trkpt>
      <trkpt lat="28.7916420" lon="-17.8932100">
        <ele>1212.1</ele>
        <time>2020-11-16T16:17:52Z</time>
      </trkpt>
      <trkpt lat="28.7916420" lon="-17.8932100">
        <ele>1212.1</ele>
        <time>2020-11-16T16:17:53Z</time>
      </trkpt>
      <trkpt lat="28.7916070" lon="-17.8932150">
        <ele>1212.6</ele>
        <time>2020-11-16T16:17:54Z</time>
      </trkpt>
      <trkpt lat="28.7916070" lon="-17.8932150">
        <ele>1212.6</ele>
        <time>2020-11-16T16:17:55Z</time>
      </trkpt>
      <trkpt lat="28.7915700" lon="-17.8932220">
        <ele>1213.0</ele>
        <time>2020-11-16T16:17:56Z</time>
      </trkpt>
      <trkpt lat="28.7915700" lon="-17.8932220">
        <ele>1213.0</ele>
        <time>2020-11-16T16:17:57Z</time>
      </trkpt>
      <trkpt lat="28.7915420" lon="-17.8932330">
        <ele>1213.4</ele>
        <time>2020-11-16T16:17:58Z</time>
      </trkpt>
      <trkpt lat="28.7915420" lon="-17.8932330">
        <ele>1213.4</ele>
        <time>2020-11-16T16:17:59Z</time>
      </trkpt>
      <trkpt lat="28.7915020" lon="-17.8932420">
        <ele>1213.9</ele>
        <time>2020-11-16T16:18:00Z</time>
      </trkpt>
      <trkpt lat="28.7914880" lon="-17.8932530">
        <ele>1214.1</ele>
        <time>2020-11-16T16:18:01Z</time>
      </trkpt>
      <trkpt lat="28.7914880" lon="-17.8932530">
        <ele>1214.1</ele>
        <time>2020-11-16T16:18:02Z</time>
      </trkpt>
      <trkpt lat="28.7914730" lon="-17.8932650">
        <ele>1214.3</ele>
        <time>2020-11-16T16:18:03Z</time>
      </trkpt>
      <trkpt lat="28.7914200" lon="-17.8932950">
        <ele>1215.0</ele>
        <time>2020-11-16T16:18:04Z</time>
      </trkpt>
      <trkpt lat="28.7913980" lon="-17.8932770">
        <ele>1215.2</ele>
        <time>2020-11-16T16:18:05Z</time>
      </trkpt>
      <trkpt lat="28.7913980" lon="-17.8932770">
        <ele>1215.2</ele>
        <time>2020-11-16T16:18:06Z</time>
      </trkpt>
      <trkpt lat="28.7913570" lon="-17.8932780">
        <ele>1215.6</ele>
        <time>2020-11-16T16:18:07Z</time>
      </trkpt>
      <trkpt lat="28.7913380" lon="-17.8932780">
        <ele>1215.8</ele>
        <time>2020-11-16T16:18:08Z</time>
      </trkpt>
      <trkpt lat="28.7913380" lon="-17.8932780">
        <ele>1215.8</ele>
        <time>2020-11-16T16:18:09Z</time>
      </trkpt>
      <trkpt lat="28.7912980" lon="-17.8932830">
        <ele>1216.2</ele>
        <time>2020-11-16T16:18:10Z</time>
      </trkpt>
      <trkpt lat="28.7912800" lon="-17.8932820">
        <ele>1216.3</ele>
        <time>2020-11-16T16:18:11Z</time>
      </trkpt>
      <trkpt lat="28.7912800" lon="-17.8932820">
        <ele>1216.3</ele>
        <time>2020-11-16T16:18:12Z</time>
      </trkpt>
      <trkpt lat="28.7912420" lon="-17.8932680">
        <ele>1216.7</ele>
        <time>2020-11-16T16:18:13Z</time>
      </trkpt>
      <trkpt lat="28.7912420" lon="-17.8932680">
        <ele>1216.7</ele>
        <time>2020-11-16T16:18:14Z</time>
      </trkpt>
      <trkpt lat="28.7912080" lon="-17.8932500">
        <ele>1217.3</ele>
        <time>2020-11-16T16:18:15Z</time>
      </trkpt>
      <trkpt lat="28.7912080" lon="-17.8932500">
        <ele>1217.3</ele>
        <time>2020-11-16T16:18:16Z</time>
      </trkpt>
      <trkpt lat="28.7911780" lon="-17.8932320">
        <ele>1217.5</ele>
        <time>2020-11-16T16:18:17Z</time>
      </trkpt>
      <trkpt lat="28.7911780" lon="-17.8932320">
        <ele>1217.5</ele>
        <time>2020-11-16T16:18:18Z</time>
      </trkpt>
      <trkpt lat="28.7911630" lon="-17.8932080">
        <ele>1217.8</ele>
        <time>2020-11-16T16:18:19Z</time>
      </trkpt>
      <trkpt lat="28.7911630" lon="-17.8932080">
        <ele>1217.8</ele>
        <time>2020-11-16T16:18:20Z</time>
      </trkpt>
      <trkpt lat="28.7911500" lon="-17.8931950">
        <ele>1217.9</ele>
        <time>2020-11-16T16:18:21Z</time>
      </trkpt>
      <trkpt lat="28.7911320" lon="-17.8931900">
        <ele>1218.1</ele>
        <time>2020-11-16T16:18:22Z</time>
      </trkpt>
      <trkpt lat="28.7911320" lon="-17.8931900">
        <ele>1218.1</ele>
        <time>2020-11-16T16:18:23Z</time>
      </trkpt>
      <trkpt lat="28.7911220" lon="-17.8931670">
        <ele>1218.3</ele>
        <time>2020-11-16T16:18:24Z</time>
      </trkpt>
      <trkpt lat="28.7911220" lon="-17.8931670">
        <ele>1218.3</ele>
        <time>2020-11-16T16:18:25Z</time>
      </trkpt>
      <trkpt lat="28.7911030" lon="-17.8931350">
        <ele>1218.6</ele>
        <time>2020-11-16T16:18:26Z</time>
      </trkpt>
      <trkpt lat="28.7911030" lon="-17.8931150">
        <ele>1218.8</ele>
        <time>2020-11-16T16:18:27Z</time>
      </trkpt>
      <trkpt lat="28.7911030" lon="-17.8931150">
        <ele>1218.8</ele>
        <time>2020-11-16T16:18:28Z</time>
      </trkpt>
      <trkpt lat="28.7911030" lon="-17.8931150">
        <ele>1218.8</ele>
        <time>2020-11-16T16:18:29Z</time>
      </trkpt>
      <trkpt lat="28.7910920" lon="-17.8930750">
        <ele>1219.1</ele>
        <time>2020-11-16T16:18:30Z</time>
      </trkpt>
      <trkpt lat="28.7910620" lon="-17.8930230">
        <ele>1219.6</ele>
        <time>2020-11-16T16:18:31Z</time>
      </trkpt>
      <trkpt lat="28.7910680" lon="-17.8930050">
        <ele>1219.8</ele>
        <time>2020-11-16T16:18:32Z</time>
      </trkpt>
      <trkpt lat="28.7910680" lon="-17.8930050">
        <ele>1219.8</ele>
        <time>2020-11-16T16:18:33Z</time>
      </trkpt>
      <trkpt lat="28.7910820" lon="-17.8929600">
        <ele>1220.1</ele>
        <time>2020-11-16T16:18:34Z</time>
      </trkpt>
      <trkpt lat="28.7910930" lon="-17.8929400">
        <ele>1220.2</ele>
        <time>2020-11-16T16:18:35Z</time>
      </trkpt>
      <trkpt lat="28.7910930" lon="-17.8929400">
        <ele>1220.2</ele>
        <time>2020-11-16T16:18:36Z</time>
      </trkpt>
      <trkpt lat="28.7911230" lon="-17.8929080">
        <ele>1220.5</ele>
        <time>2020-11-16T16:18:37Z</time>
      </trkpt>
      <trkpt lat="28.7911330" lon="-17.8928870">
        <ele>1220.7</ele>
        <time>2020-11-16T16:18:38Z</time>
      </trkpt>
      <trkpt lat="28.7911330" lon="-17.8928870">
        <ele>1220.7</ele>
        <time>2020-11-16T16:18:39Z</time>
      </trkpt>
      <trkpt lat="28.7911950" lon="-17.8928630">
        <ele>1221.1</ele>
        <time>2020-11-16T16:18:40Z</time>
      </trkpt>
      <trkpt lat="28.7911950" lon="-17.8928630">
        <ele>1221.1</ele>
        <time>2020-11-16T16:18:41Z</time>
      </trkpt>
      <trkpt lat="28.7912250" lon="-17.8928470">
        <ele>1221.3</ele>
        <time>2020-11-16T16:18:42Z</time>
      </trkpt>
      <trkpt lat="28.7912250" lon="-17.8928470">
        <ele>1221.3</ele>
        <time>2020-11-16T16:18:43Z</time>
      </trkpt>
      <trkpt lat="28.7912520" lon="-17.8928220">
        <ele>1221.6</ele>
        <time>2020-11-16T16:18:44Z</time>
      </trkpt>
      <trkpt lat="28.7912520" lon="-17.8928220">
        <ele>1221.6</ele>
        <time>2020-11-16T16:18:45Z</time>
      </trkpt>
      <trkpt lat="28.7912750" lon="-17.8927900">
        <ele>1221.8</ele>
        <time>2020-11-16T16:18:46Z</time>
      </trkpt>
      <trkpt lat="28.7912750" lon="-17.8927900">
        <ele>1221.8</ele>
        <time>2020-11-16T16:18:47Z</time>
      </trkpt>
      <trkpt lat="28.7913000" lon="-17.8927620">
        <ele>1222.0</ele>
        <time>2020-11-16T16:18:48Z</time>
      </trkpt>
      <trkpt lat="28.7913000" lon="-17.8927620">
        <ele>1222.0</ele>
        <time>2020-11-16T16:18:49Z</time>
      </trkpt>
      <trkpt lat="28.7913250" lon="-17.8927330">
        <ele>1222.2</ele>
        <time>2020-11-16T16:18:50Z</time>
      </trkpt>
      <trkpt lat="28.7913250" lon="-17.8927330">
        <ele>1222.2</ele>
        <time>2020-11-16T16:18:51Z</time>
      </trkpt>
      <trkpt lat="28.7913530" lon="-17.8927000">
        <ele>1222.4</ele>
        <time>2020-11-16T16:18:52Z</time>
      </trkpt>
      <trkpt lat="28.7913530" lon="-17.8927000">
        <ele>1222.4</ele>
        <time>2020-11-16T16:18:53Z</time>
      </trkpt>
      <trkpt lat="28.7913770" lon="-17.8926600">
        <ele>1222.7</ele>
        <time>2020-11-16T16:18:54Z</time>
      </trkpt>
      <trkpt lat="28.7913770" lon="-17.8926600">
        <ele>1222.7</ele>
        <time>2020-11-16T16:18:55Z</time>
      </trkpt>
      <trkpt lat="28.7914050" lon="-17.8926280">
        <ele>1222.9</ele>
        <time>2020-11-16T16:18:56Z</time>
      </trkpt>
      <trkpt lat="28.7914050" lon="-17.8926280">
        <ele>1222.9</ele>
        <time>2020-11-16T16:18:57Z</time>
      </trkpt>
      <trkpt lat="28.7914220" lon="-17.8925900">
        <ele>1223.0</ele>
        <time>2020-11-16T16:18:58Z</time>
      </trkpt>
      <trkpt lat="28.7914220" lon="-17.8925900">
        <ele>1223.0</ele>
        <time>2020-11-16T16:18:59Z</time>
      </trkpt>
      <trkpt lat="28.7914170" lon="-17.8925500">
        <ele>1223.2</ele>
        <time>2020-11-16T16:19:00Z</time>
      </trkpt>
      <trkpt lat="28.7914170" lon="-17.8925500">
        <ele>1223.2</ele>
        <time>2020-11-16T16:19:01Z</time>
      </trkpt>
      <trkpt lat="28.7913870" lon="-17.8924870">
        <ele>1223.6</ele>
        <time>2020-11-16T16:19:02Z</time>
      </trkpt>
      <trkpt lat="28.7913870" lon="-17.8924870">
        <ele>1223.6</ele>
        <time>2020-11-16T16:19:03Z</time>
      </trkpt>
      <trkpt lat="28.7913870" lon="-17.8924870">
        <ele>1223.6</ele>
        <time>2020-11-16T16:19:04Z</time>
      </trkpt>
      <trkpt lat="28.7913750" lon="-17.8924470">
        <ele>1223.9</ele>
        <time>2020-11-16T16:19:05Z</time>
      </trkpt>
      <trkpt lat="28.7913780" lon="-17.8924120">
        <ele>1224.2</ele>
        <time>2020-11-16T16:19:06Z</time>
      </trkpt>
      <trkpt lat="28.7913780" lon="-17.8924120">
        <ele>1224.2</ele>
        <time>2020-11-16T16:19:07Z</time>
      </trkpt>
      <trkpt lat="28.7913670" lon="-17.8923800">
        <ele>1224.4</ele>
        <time>2020-11-16T16:19:08Z</time>
      </trkpt>
      <trkpt lat="28.7913670" lon="-17.8923800">
        <ele>1224.4</ele>
        <time>2020-11-16T16:19:09Z</time>
      </trkpt>
      <trkpt lat="28.7913680" lon="-17.8923570">
        <ele>1224.6</ele>
        <time>2020-11-16T16:19:10Z</time>
      </trkpt>
      <trkpt lat="28.7913500" lon="-17.8923480">
        <ele>1224.7</ele>
        <time>2020-11-16T16:19:11Z</time>
      </trkpt>
      <trkpt lat="28.7913500" lon="-17.8923480">
        <ele>1224.7</ele>
        <time>2020-11-16T16:19:12Z</time>
      </trkpt>
      <trkpt lat="28.7913200" lon="-17.8923330">
        <ele>1225.0</ele>
        <time>2020-11-16T16:19:13Z</time>
      </trkpt>
      <trkpt lat="28.7912950" lon="-17.8923350">
        <ele>1225.2</ele>
        <time>2020-11-16T16:19:14Z</time>
      </trkpt>
      <trkpt lat="28.7912950" lon="-17.8923350">
        <ele>1225.2</ele>
        <time>2020-11-16T16:19:15Z</time>
      </trkpt>
      <trkpt lat="28.7912480" lon="-17.8923470">
        <ele>1225.6</ele>
        <time>2020-11-16T16:19:16Z</time>
      </trkpt>
      <trkpt lat="28.7912280" lon="-17.8923530">
        <ele>1225.7</ele>
        <time>2020-11-16T16:19:17Z</time>
      </trkpt>
      <trkpt lat="28.7912280" lon="-17.8923530">
        <ele>1225.7</ele>
        <time>2020-11-16T16:19:18Z</time>
      </trkpt>
      <trkpt lat="28.7911980" lon="-17.8923770">
        <ele>1226.0</ele>
        <time>2020-11-16T16:19:19Z</time>
      </trkpt>
      <trkpt lat="28.7911980" lon="-17.8923770">
        <ele>1226.0</ele>
        <time>2020-11-16T16:19:20Z</time>
      </trkpt>
      <trkpt lat="28.7911780" lon="-17.8924120">
        <ele>1226.3</ele>
        <time>2020-11-16T16:19:21Z</time>
      </trkpt>
      <trkpt lat="28.7911780" lon="-17.8924120">
        <ele>1226.3</ele>
        <time>2020-11-16T16:19:22Z</time>
      </trkpt>
      <trkpt lat="28.7911670" lon="-17.8924450">
        <ele>1226.6</ele>
        <time>2020-11-16T16:19:23Z</time>
      </trkpt>
      <trkpt lat="28.7911670" lon="-17.8924450">
        <ele>1226.6</ele>
        <time>2020-11-16T16:19:24Z</time>
      </trkpt>
      <trkpt lat="28.7911570" lon="-17.8924780">
        <ele>1226.8</ele>
        <time>2020-11-16T16:19:25Z</time>
      </trkpt>
      <trkpt lat="28.7911530" lon="-17.8924920">
        <ele>1226.9</ele>
        <time>2020-11-16T16:19:26Z</time>
      </trkpt>
      <trkpt lat="28.7911530" lon="-17.8924920">
        <ele>1226.9</ele>
        <time>2020-11-16T16:19:27Z</time>
      </trkpt>
      <trkpt lat="28.7911420" lon="-17.8925280">
        <ele>1227.2</ele>
        <time>2020-11-16T16:19:28Z</time>
      </trkpt>
      <trkpt lat="28.7911420" lon="-17.8925280">
        <ele>1227.2</ele>
        <time>2020-11-16T16:19:29Z</time>
      </trkpt>
      <trkpt lat="28.7911150" lon="-17.8925680">
        <ele>1227.6</ele>
        <time>2020-11-16T16:19:30Z</time>
      </trkpt>
      <trkpt lat="28.7911030" lon="-17.8925820">
        <ele>1227.7</ele>
        <time>2020-11-16T16:19:31Z</time>
      </trkpt>
      <trkpt lat="28.7911030" lon="-17.8925820">
        <ele>1227.7</ele>
        <time>2020-11-16T16:19:32Z</time>
      </trkpt>
      <trkpt lat="28.7910670" lon="-17.8926080">
        <ele>1228.0</ele>
        <time>2020-11-16T16:19:33Z</time>
      </trkpt>
      <trkpt lat="28.7910630" lon="-17.8926180">
        <ele>1228.1</ele>
        <time>2020-11-16T16:19:34Z</time>
      </trkpt>
      <trkpt lat="28.7910670" lon="-17.8926180">
        <ele>1228.1</ele>
        <time>2020-11-16T16:19:35Z</time>
      </trkpt>
      <trkpt lat="28.7910670" lon="-17.8926180">
        <ele>1228.1</ele>
        <time>2020-11-16T16:19:36Z</time>
      </trkpt>
      <trkpt lat="28.7910500" lon="-17.8926370">
        <ele>1228.3</ele>
        <time>2020-11-16T16:19:37Z</time>
      </trkpt>
      <trkpt lat="28.7910330" lon="-17.8926570">
        <ele>1228.5</ele>
        <time>2020-11-16T16:19:38Z</time>
      </trkpt>
      <trkpt lat="28.7910330" lon="-17.8926570">
        <ele>1228.5</ele>
        <time>2020-11-16T16:19:39Z</time>
      </trkpt>
      <trkpt lat="28.7909970" lon="-17.8926870">
        <ele>1228.9</ele>
        <time>2020-11-16T16:19:40Z</time>
      </trkpt>
      <trkpt lat="28.7909970" lon="-17.8926870">
        <ele>1228.9</ele>
        <time>2020-11-16T16:19:41Z</time>
      </trkpt>
      <trkpt lat="28.7909600" lon="-17.8927050">
        <ele>1229.1</ele>
        <time>2020-11-16T16:19:42Z</time>
      </trkpt>
      <trkpt lat="28.7909430" lon="-17.8927150">
        <ele>1229.3</ele>
        <time>2020-11-16T16:19:43Z</time>
      </trkpt>
      <trkpt lat="28.7909300" lon="-17.8927220">
        <ele>1229.4</ele>
        <time>2020-11-16T16:19:44Z</time>
      </trkpt>
      <trkpt lat="28.7909300" lon="-17.8927220">
        <ele>1229.4</ele>
        <time>2020-11-16T16:19:45Z</time>
      </trkpt>
      <trkpt lat="28.7908850" lon="-17.8927280">
        <ele>1229.6</ele>
        <time>2020-11-16T16:19:46Z</time>
      </trkpt>
      <trkpt lat="28.7908850" lon="-17.8927280">
        <ele>1229.6</ele>
        <time>2020-11-16T16:19:47Z</time>
      </trkpt>
      <trkpt lat="28.7908530" lon="-17.8927250">
        <ele>1229.8</ele>
        <time>2020-11-16T16:19:48Z</time>
      </trkpt>
      <trkpt lat="28.7908400" lon="-17.8927250">
        <ele>1229.9</ele>
        <time>2020-11-16T16:19:49Z</time>
      </trkpt>
      <trkpt lat="28.7908400" lon="-17.8927250">
        <ele>1229.9</ele>
        <time>2020-11-16T16:19:50Z</time>
      </trkpt>
      <trkpt lat="28.7908400" lon="-17.8927250">
        <ele>1229.9</ele>
        <time>2020-11-16T16:19:51Z</time>
      </trkpt>
      <trkpt lat="28.7908100" lon="-17.8927330">
        <ele>1230.1</ele>
        <time>2020-11-16T16:19:52Z</time>
      </trkpt>
      <trkpt lat="28.7907780" lon="-17.8927430">
        <ele>1230.2</ele>
        <time>2020-11-16T16:19:53Z</time>
      </trkpt>
      <trkpt lat="28.7907780" lon="-17.8927430">
        <ele>1230.2</ele>
        <time>2020-11-16T16:19:54Z</time>
      </trkpt>
      <trkpt lat="28.7907500" lon="-17.8927570">
        <ele>1230.4</ele>
        <time>2020-11-16T16:19:55Z</time>
      </trkpt>
      <trkpt lat="28.7907430" lon="-17.8927550">
        <ele>1230.5</ele>
        <time>2020-11-16T16:19:56Z</time>
      </trkpt>
      <trkpt lat="28.7907430" lon="-17.8927550">
        <ele>1230.5</ele>
        <time>2020-11-16T16:19:57Z</time>
      </trkpt>
      <trkpt lat="28.7907180" lon="-17.8927570">
        <ele>1230.6</ele>
        <time>2020-11-16T16:19:58Z</time>
      </trkpt>
      <trkpt lat="28.7907180" lon="-17.8927570">
        <ele>1230.6</ele>
        <time>2020-11-16T16:19:59Z</time>
      </trkpt>
      <trkpt lat="28.7906830" lon="-17.8927630">
        <ele>1230.8</ele>
        <time>2020-11-16T16:20:00Z</time>
      </trkpt>
      <trkpt lat="28.7906830" lon="-17.8927630">
        <ele>1230.8</ele>
        <time>2020-11-16T16:20:01Z</time>
      </trkpt>
      <trkpt lat="28.7906520" lon="-17.8927730">
        <ele>1231.0</ele>
        <time>2020-11-16T16:20:02Z</time>
      </trkpt>
      <trkpt lat="28.7906520" lon="-17.8927730">
        <ele>1231.0</ele>
        <time>2020-11-16T16:20:03Z</time>
      </trkpt>
      <trkpt lat="28.7905970" lon="-17.8927880">
        <ele>1231.4</ele>
        <time>2020-11-16T16:20:04Z</time>
      </trkpt>
      <trkpt lat="28.7905970" lon="-17.8927880">
        <ele>1231.4</ele>
        <time>2020-11-16T16:20:05Z</time>
      </trkpt>
      <trkpt lat="28.7905550" lon="-17.8928200">
        <ele>1231.9</ele>
        <time>2020-11-16T16:20:06Z</time>
      </trkpt>
      <trkpt lat="28.7905550" lon="-17.8928200">
        <ele>1231.9</ele>
        <time>2020-11-16T16:20:07Z</time>
      </trkpt>
      <trkpt lat="28.7905520" lon="-17.8928480">
        <ele>1232.1</ele>
        <time>2020-11-16T16:20:08Z</time>
      </trkpt>
      <trkpt lat="28.7905520" lon="-17.8928480">
        <ele>1232.1</ele>
        <time>2020-11-16T16:20:09Z</time>
      </trkpt>
      <trkpt lat="28.7905550" lon="-17.8928870">
        <ele>1232.3</ele>
        <time>2020-11-16T16:20:10Z</time>
      </trkpt>
      <trkpt lat="28.7905550" lon="-17.8928870">
        <ele>1232.3</ele>
        <time>2020-11-16T16:20:11Z</time>
      </trkpt>
      <trkpt lat="28.7905520" lon="-17.8929120">
        <ele>1232.5</ele>
        <time>2020-11-16T16:20:12Z</time>
      </trkpt>
      <trkpt lat="28.7905520" lon="-17.8929220">
        <ele>1232.6</ele>
        <time>2020-11-16T16:20:13Z</time>
      </trkpt>
      <trkpt lat="28.7905520" lon="-17.8929330">
        <ele>1232.7</ele>
        <time>2020-11-16T16:20:14Z</time>
      </trkpt>
      <trkpt lat="28.7905520" lon="-17.8929330">
        <ele>1232.7</ele>
        <time>2020-11-16T16:20:15Z</time>
      </trkpt>
      <trkpt lat="28.7905500" lon="-17.8929800">
        <ele>1233.0</ele>
        <time>2020-11-16T16:20:16Z</time>
      </trkpt>
      <trkpt lat="28.7905500" lon="-17.8929800">
        <ele>1233.0</ele>
        <time>2020-11-16T16:20:17Z</time>
      </trkpt>
      <trkpt lat="28.7905480" lon="-17.8930270">
        <ele>1233.4</ele>
        <time>2020-11-16T16:20:18Z</time>
      </trkpt>
      <trkpt lat="28.7905480" lon="-17.8930270">
        <ele>1233.4</ele>
        <time>2020-11-16T16:20:19Z</time>
      </trkpt>
      <trkpt lat="28.7905480" lon="-17.8930270">
        <ele>1233.4</ele>
        <time>2020-11-16T16:20:20Z</time>
      </trkpt>
      <trkpt lat="28.7905470" lon="-17.8930670">
        <ele>1233.7</ele>
        <time>2020-11-16T16:20:21Z</time>
      </trkpt>
      <trkpt lat="28.7905400" lon="-17.8931050">
        <ele>1234.1</ele>
        <time>2020-11-16T16:20:22Z</time>
      </trkpt>
      <trkpt lat="28.7905400" lon="-17.8931050">
        <ele>1234.1</ele>
        <time>2020-11-16T16:20:23Z</time>
      </trkpt>
      <trkpt lat="28.7905400" lon="-17.8931350">
        <ele>1234.3</ele>
        <time>2020-11-16T16:20:24Z</time>
      </trkpt>
      <trkpt lat="28.7905400" lon="-17.8931350">
        <ele>1234.3</ele>
        <time>2020-11-16T16:20:25Z</time>
      </trkpt>
      <trkpt lat="28.7905350" lon="-17.8931580">
        <ele>1234.5</ele>
        <time>2020-11-16T16:20:26Z</time>
      </trkpt>
      <trkpt lat="28.7905350" lon="-17.8931580">
        <ele>1234.5</ele>
        <time>2020-11-16T16:20:27Z</time>
      </trkpt>
      <trkpt lat="28.7905370" lon="-17.8931950">
        <ele>1234.8</ele>
        <time>2020-11-16T16:20:28Z</time>
      </trkpt>
      <trkpt lat="28.7905370" lon="-17.8931950">
        <ele>1234.8</ele>
        <time>2020-11-16T16:20:29Z</time>
      </trkpt>
      <trkpt lat="28.7905270" lon="-17.8932250">
        <ele>1235.1</ele>
        <time>2020-11-16T16:20:30Z</time>
      </trkpt>
      <trkpt lat="28.7905270" lon="-17.8932250">
        <ele>1235.1</ele>
        <time>2020-11-16T16:20:31Z</time>
      </trkpt>
      <trkpt lat="28.7905130" lon="-17.8932580">
        <ele>1235.4</ele>
        <time>2020-11-16T16:20:32Z</time>
      </trkpt>
      <trkpt lat="28.7905130" lon="-17.8932580">
        <ele>1235.4</ele>
        <time>2020-11-16T16:20:33Z</time>
      </trkpt>
      <trkpt lat="28.7904920" lon="-17.8933070">
        <ele>1235.8</ele>
        <time>2020-11-16T16:20:34Z</time>
      </trkpt>
      <trkpt lat="28.7904830" lon="-17.8933250">
        <ele>1235.9</ele>
        <time>2020-11-16T16:20:35Z</time>
      </trkpt>
      <trkpt lat="28.7904830" lon="-17.8933250">
        <ele>1235.9</ele>
        <time>2020-11-16T16:20:36Z</time>
      </trkpt>
      <trkpt lat="28.7904620" lon="-17.8933600">
        <ele>1236.1</ele>
        <time>2020-11-16T16:20:37Z</time>
      </trkpt>
      <trkpt lat="28.7904530" lon="-17.8933770">
        <ele>1236.2</ele>
        <time>2020-11-16T16:20:38Z</time>
      </trkpt>
      <trkpt lat="28.7904530" lon="-17.8933770">
        <ele>1236.2</ele>
        <time>2020-11-16T16:20:39Z</time>
      </trkpt>
      <trkpt lat="28.7904400" lon="-17.8934030">
        <ele>1236.4</ele>
        <time>2020-11-16T16:20:40Z</time>
      </trkpt>
      <trkpt lat="28.7904270" lon="-17.8934120">
        <ele>1236.5</ele>
        <time>2020-11-16T16:20:41Z</time>
      </trkpt>
      <trkpt lat="28.7904270" lon="-17.8934120">
        <ele>1236.5</ele>
        <time>2020-11-16T16:20:42Z</time>
      </trkpt>
      <trkpt lat="28.7904230" lon="-17.8934300">
        <ele>1236.6</ele>
        <time>2020-11-16T16:20:43Z</time>
      </trkpt>
      <trkpt lat="28.7904230" lon="-17.8934300">
        <ele>1236.6</ele>
        <time>2020-11-16T16:20:44Z</time>
      </trkpt>
      <trkpt lat="28.7904080" lon="-17.8934550">
        <ele>1236.8</ele>
        <time>2020-11-16T16:20:45Z</time>
      </trkpt>
      <trkpt lat="28.7903880" lon="-17.8934880">
        <ele>1237.1</ele>
        <time>2020-11-16T16:20:46Z</time>
      </trkpt>
      <trkpt lat="28.7903880" lon="-17.8934880">
        <ele>1237.1</ele>
        <time>2020-11-16T16:20:47Z</time>
      </trkpt>
      <trkpt lat="28.7903720" lon="-17.8935170">
        <ele>1237.3</ele>
        <time>2020-11-16T16:20:48Z</time>
      </trkpt>
      <trkpt lat="28.7903720" lon="-17.8935170">
        <ele>1237.3</ele>
        <time>2020-11-16T16:20:49Z</time>
      </trkpt>
      <trkpt lat="28.7903700" lon="-17.8935450">
        <ele>1237.5</ele>
        <time>2020-11-16T16:20:50Z</time>
      </trkpt>
      <trkpt lat="28.7903730" lon="-17.8935650">
        <ele>1237.6</ele>
        <time>2020-11-16T16:20:51Z</time>
      </trkpt>
      <trkpt lat="28.7903730" lon="-17.8935650">
        <ele>1237.6</ele>
        <time>2020-11-16T16:20:52Z</time>
      </trkpt>
      <trkpt lat="28.7903880" lon="-17.8936020">
        <ele>1237.9</ele>
        <time>2020-11-16T16:20:53Z</time>
      </trkpt>
      <trkpt lat="28.7903880" lon="-17.8936020">
        <ele>1237.9</ele>
        <time>2020-11-16T16:20:54Z</time>
      </trkpt>
      <trkpt lat="28.7904070" lon="-17.8936280">
        <ele>1238.1</ele>
        <time>2020-11-16T16:20:55Z</time>
      </trkpt>
      <trkpt lat="28.7904070" lon="-17.8936280">
        <ele>1238.1</ele>
        <time>2020-11-16T16:20:56Z</time>
      </trkpt>
      <trkpt lat="28.7904150" lon="-17.8936550">
        <ele>1238.3</ele>
        <time>2020-11-16T16:20:57Z</time>
      </trkpt>
      <trkpt lat="28.7904150" lon="-17.8936550">
        <ele>1238.3</ele>
        <time>2020-11-16T16:20:58Z</time>
      </trkpt>
      <trkpt lat="28.7904480" lon="-17.8936730">
        <ele>1238.6</ele>
        <time>2020-11-16T16:20:59Z</time>
      </trkpt>
      <trkpt lat="28.7904480" lon="-17.8936730">
        <ele>1238.6</ele>
        <time>2020-11-16T16:21:00Z</time>
      </trkpt>
      <trkpt lat="28.7904730" lon="-17.8936970">
        <ele>1238.9</ele>
        <time>2020-11-16T16:21:01Z</time>
      </trkpt>
      <trkpt lat="28.7904850" lon="-17.8937080">
        <ele>1239.1</ele>
        <time>2020-11-16T16:21:02Z</time>
      </trkpt>
      <trkpt lat="28.7904850" lon="-17.8937080">
        <ele>1239.1</ele>
        <time>2020-11-16T16:21:03Z</time>
      </trkpt>
      <trkpt lat="28.7905100" lon="-17.8937270">
        <ele>1239.3</ele>
        <time>2020-11-16T16:21:04Z</time>
      </trkpt>
      <trkpt lat="28.7905100" lon="-17.8937270">
        <ele>1239.3</ele>
        <time>2020-11-16T16:21:05Z</time>
      </trkpt>
      <trkpt lat="28.7905750" lon="-17.8937550">
        <ele>1239.9</ele>
        <time>2020-11-16T16:21:06Z</time>
      </trkpt>
      <trkpt lat="28.7905750" lon="-17.8937550">
        <ele>1239.9</ele>
        <time>2020-11-16T16:21:07Z</time>
      </trkpt>
      <trkpt lat="28.7906120" lon="-17.8937830">
        <ele>1240.3</ele>
        <time>2020-11-16T16:21:08Z</time>
      </trkpt>
      <trkpt lat="28.7906120" lon="-17.8937830">
        <ele>1240.3</ele>
        <time>2020-11-16T16:21:09Z</time>
      </trkpt>
      <trkpt lat="28.7906370" lon="-17.8938100">
        <ele>1240.5</ele>
        <time>2020-11-16T16:21:10Z</time>
      </trkpt>
      <trkpt lat="28.7906370" lon="-17.8938100">
        <ele>1240.5</ele>
        <time>2020-11-16T16:21:11Z</time>
      </trkpt>
      <trkpt lat="28.7906620" lon="-17.8938250">
        <ele>1240.8</ele>
        <time>2020-11-16T16:21:12Z</time>
      </trkpt>
      <trkpt lat="28.7906620" lon="-17.8938250">
        <ele>1240.8</ele>
        <time>2020-11-16T16:21:13Z</time>
      </trkpt>
      <trkpt lat="28.7906870" lon="-17.8938420">
        <ele>1241.0</ele>
        <time>2020-11-16T16:21:14Z</time>
      </trkpt>
      <trkpt lat="28.7906870" lon="-17.8938420">
        <ele>1241.0</ele>
        <time>2020-11-16T16:21:15Z</time>
      </trkpt>
      <trkpt lat="28.7907170" lon="-17.8938630">
        <ele>1241.3</ele>
        <time>2020-11-16T16:21:16Z</time>
      </trkpt>
      <trkpt lat="28.7907170" lon="-17.8938630">
        <ele>1241.3</ele>
        <time>2020-11-16T16:21:17Z</time>
      </trkpt>
      <trkpt lat="28.7907170" lon="-17.8938630">
        <ele>1241.3</ele>
        <time>2020-11-16T16:21:18Z</time>
      </trkpt>
      <trkpt lat="28.7907450" lon="-17.8938870">
        <ele>1241.7</ele>
        <time>2020-11-16T16:21:19Z</time>
      </trkpt>
      <trkpt lat="28.7907720" lon="-17.8939150">
        <ele>1242.0</ele>
        <time>2020-11-16T16:21:20Z</time>
      </trkpt>
      <trkpt lat="28.7907720" lon="-17.8939150">
        <ele>1242.0</ele>
        <time>2020-11-16T16:21:21Z</time>
      </trkpt>
      <trkpt lat="28.7907780" lon="-17.8939530">
        <ele>1242.3</ele>
        <time>2020-11-16T16:21:22Z</time>
      </trkpt>
      <trkpt lat="28.7907780" lon="-17.8939530">
        <ele>1242.3</ele>
        <time>2020-11-16T16:21:23Z</time>
      </trkpt>
      <trkpt lat="28.7907830" lon="-17.8939880">
        <ele>1242.6</ele>
        <time>2020-11-16T16:21:24Z</time>
      </trkpt>
      <trkpt lat="28.7907820" lon="-17.8940030">
        <ele>1242.7</ele>
        <time>2020-11-16T16:21:25Z</time>
      </trkpt>
      <trkpt lat="28.7907820" lon="-17.8940030">
        <ele>1242.7</ele>
        <time>2020-11-16T16:21:26Z</time>
      </trkpt>
      <trkpt lat="28.7907850" lon="-17.8940300">
        <ele>1242.9</ele>
        <time>2020-11-16T16:21:27Z</time>
      </trkpt>
      <trkpt lat="28.7907850" lon="-17.8940300">
        <ele>1242.9</ele>
        <time>2020-11-16T16:21:28Z</time>
      </trkpt>
      <trkpt lat="28.7907830" lon="-17.8940600">
        <ele>1243.1</ele>
        <time>2020-11-16T16:21:29Z</time>
      </trkpt>
      <trkpt lat="28.7907830" lon="-17.8940600">
        <ele>1243.1</ele>
        <time>2020-11-16T16:21:30Z</time>
      </trkpt>
      <trkpt lat="28.7907820" lon="-17.8940970">
        <ele>1243.3</ele>
        <time>2020-11-16T16:21:31Z</time>
      </trkpt>
      <trkpt lat="28.7907820" lon="-17.8940970">
        <ele>1243.3</ele>
        <time>2020-11-16T16:21:32Z</time>
      </trkpt>
      <trkpt lat="28.7907670" lon="-17.8941180">
        <ele>1243.5</ele>
        <time>2020-11-16T16:21:33Z</time>
      </trkpt>
      <trkpt lat="28.7907670" lon="-17.8941180">
        <ele>1243.5</ele>
        <time>2020-11-16T16:21:34Z</time>
      </trkpt>
      <trkpt lat="28.7907470" lon="-17.8941480">
        <ele>1243.7</ele>
        <time>2020-11-16T16:21:35Z</time>
      </trkpt>
      <trkpt lat="28.7907470" lon="-17.8941480">
        <ele>1243.7</ele>
        <time>2020-11-16T16:21:36Z</time>
      </trkpt>
      <trkpt lat="28.7907120" lon="-17.8942280">
        <ele>1244.3</ele>
        <time>2020-11-16T16:21:37Z</time>
      </trkpt>
      <trkpt lat="28.7907120" lon="-17.8942280">
        <ele>1244.3</ele>
        <time>2020-11-16T16:21:38Z</time>
      </trkpt>
      <trkpt lat="28.7906950" lon="-17.8942620">
        <ele>1244.5</ele>
        <time>2020-11-16T16:21:39Z</time>
      </trkpt>
      <trkpt lat="28.7906950" lon="-17.8942620">
        <ele>1244.5</ele>
        <time>2020-11-16T16:21:40Z</time>
      </trkpt>
      <trkpt lat="28.7906770" lon="-17.8942780">
        <ele>1244.7</ele>
        <time>2020-11-16T16:21:41Z</time>
      </trkpt>
      <trkpt lat="28.7906770" lon="-17.8942780">
        <ele>1244.7</ele>
        <time>2020-11-16T16:21:42Z</time>
      </trkpt>
      <trkpt lat="28.7906370" lon="-17.8943120">
        <ele>1245.0</ele>
        <time>2020-11-16T16:21:43Z</time>
      </trkpt>
      <trkpt lat="28.7906370" lon="-17.8943120">
        <ele>1245.0</ele>
        <time>2020-11-16T16:21:44Z</time>
      </trkpt>
      <trkpt lat="28.7906070" lon="-17.8943280">
        <ele>1245.3</ele>
        <time>2020-11-16T16:21:45Z</time>
      </trkpt>
      <trkpt lat="28.7906070" lon="-17.8943280">
        <ele>1245.3</ele>
        <time>2020-11-16T16:21:46Z</time>
      </trkpt>
      <trkpt lat="28.7905650" lon="-17.8943470">
        <ele>1245.6</ele>
        <time>2020-11-16T16:21:47Z</time>
      </trkpt>
      <trkpt lat="28.7905650" lon="-17.8943470">
        <ele>1245.6</ele>
        <time>2020-11-16T16:21:48Z</time>
      </trkpt>
      <trkpt lat="28.7905300" lon="-17.8943570">
        <ele>1245.8</ele>
        <time>2020-11-16T16:21:49Z</time>
      </trkpt>
      <trkpt lat="28.7905130" lon="-17.8943600">
        <ele>1245.9</ele>
        <time>2020-11-16T16:21:50Z</time>
      </trkpt>
      <trkpt lat="28.7904970" lon="-17.8943620">
        <ele>1246.0</ele>
        <time>2020-11-16T16:21:51Z</time>
      </trkpt>
      <trkpt lat="28.7904970" lon="-17.8943620">
        <ele>1246.0</ele>
        <time>2020-11-16T16:21:52Z</time>
      </trkpt>
      <trkpt lat="28.7904630" lon="-17.8943580">
        <ele>1246.1</ele>
        <time>2020-11-16T16:21:53Z</time>
      </trkpt>
      <trkpt lat="28.7904630" lon="-17.8943580">
        <ele>1246.1</ele>
        <time>2020-11-16T16:21:54Z</time>
      </trkpt>
      <trkpt lat="28.7904270" lon="-17.8943600">
        <ele>1246.3</ele>
        <time>2020-11-16T16:21:55Z</time>
      </trkpt>
      <trkpt lat="28.7904270" lon="-17.8943600">
        <ele>1246.3</ele>
        <time>2020-11-16T16:21:56Z</time>
      </trkpt>
      <trkpt lat="28.7903950" lon="-17.8943620">
        <ele>1246.4</ele>
        <time>2020-11-16T16:21:57Z</time>
      </trkpt>
      <trkpt lat="28.7903950" lon="-17.8943620">
        <ele>1246.4</ele>
        <time>2020-11-16T16:21:58Z</time>
      </trkpt>
      <trkpt lat="28.7903650" lon="-17.8943700">
        <ele>1246.5</ele>
        <time>2020-11-16T16:21:59Z</time>
      </trkpt>
      <trkpt lat="28.7903470" lon="-17.8943750">
        <ele>1246.5</ele>
        <time>2020-11-16T16:22:00Z</time>
      </trkpt>
      <trkpt lat="28.7903280" lon="-17.8943800">
        <ele>1246.6</ele>
        <time>2020-11-16T16:22:01Z</time>
      </trkpt>
      <trkpt lat="28.7903280" lon="-17.8943800">
        <ele>1246.6</ele>
        <time>2020-11-16T16:22:02Z</time>
      </trkpt>
      <trkpt lat="28.7903280" lon="-17.8943800">
        <ele>1246.6</ele>
        <time>2020-11-16T16:22:03Z</time>
      </trkpt>
      <trkpt lat="28.7902920" lon="-17.8943870">
        <ele>1246.7</ele>
        <time>2020-11-16T16:22:04Z</time>
      </trkpt>
      <trkpt lat="28.7902580" lon="-17.8943900">
        <ele>1246.8</ele>
        <time>2020-11-16T16:22:05Z</time>
      </trkpt>
      <trkpt lat="28.7902320" lon="-17.8943920">
        <ele>1246.8</ele>
        <time>2020-11-16T16:22:06Z</time>
      </trkpt>
      <trkpt lat="28.7902320" lon="-17.8943920">
        <ele>1246.8</ele>
        <time>2020-11-16T16:22:07Z</time>
      </trkpt>
      <trkpt lat="28.7901700" lon="-17.8944020">
        <ele>1247.0</ele>
        <time>2020-11-16T16:22:08Z</time>
      </trkpt>
      <trkpt lat="28.7901700" lon="-17.8944020">
        <ele>1247.0</ele>
        <time>2020-11-16T16:22:09Z</time>
      </trkpt>
      <trkpt lat="28.7901170" lon="-17.8944000">
        <ele>1247.2</ele>
        <time>2020-11-16T16:22:10Z</time>
      </trkpt>
      <trkpt lat="28.7901170" lon="-17.8944000">
        <ele>1247.2</ele>
        <time>2020-11-16T16:22:11Z</time>
      </trkpt>
      <trkpt lat="28.7900630" lon="-17.8943970">
        <ele>1247.4</ele>
        <time>2020-11-16T16:22:12Z</time>
      </trkpt>
      <trkpt lat="28.7900400" lon="-17.8943980">
        <ele>1247.4</ele>
        <time>2020-11-16T16:22:13Z</time>
      </trkpt>
      <trkpt lat="28.7900180" lon="-17.8943980">
        <ele>1247.5</ele>
        <time>2020-11-16T16:22:14Z</time>
      </trkpt>
      <trkpt lat="28.7900180" lon="-17.8943980">
        <ele>1247.5</ele>
        <time>2020-11-16T16:22:15Z</time>
      </trkpt>
      <trkpt lat="28.7899750" lon="-17.8944000">
        <ele>1247.7</ele>
        <time>2020-11-16T16:22:16Z</time>
      </trkpt>
      <trkpt lat="28.7899530" lon="-17.8944020">
        <ele>1247.7</ele>
        <time>2020-11-16T16:22:17Z</time>
      </trkpt>
      <trkpt lat="28.7899530" lon="-17.8944020">
        <ele>1247.7</ele>
        <time>2020-11-16T16:22:18Z</time>
      </trkpt>
      <trkpt lat="28.7899180" lon="-17.8944080">
        <ele>1247.9</ele>
        <time>2020-11-16T16:22:19Z</time>
      </trkpt>
      <trkpt lat="28.7899180" lon="-17.8944080">
        <ele>1247.9</ele>
        <time>2020-11-16T16:22:20Z</time>
      </trkpt>
      <trkpt lat="28.7898800" lon="-17.8944170">
        <ele>1248.0</ele>
        <time>2020-11-16T16:22:21Z</time>
      </trkpt>
      <trkpt lat="28.7898650" lon="-17.8944180">
        <ele>1248.0</ele>
        <time>2020-11-16T16:22:22Z</time>
      </trkpt>
      <trkpt lat="28.7898650" lon="-17.8944180">
        <ele>1248.0</ele>
        <time>2020-11-16T16:22:23Z</time>
      </trkpt>
      <trkpt lat="28.7898370" lon="-17.8944300">
        <ele>1248.1</ele>
        <time>2020-11-16T16:22:24Z</time>
      </trkpt>
      <trkpt lat="28.7898370" lon="-17.8944300">
        <ele>1248.1</ele>
        <time>2020-11-16T16:22:25Z</time>
      </trkpt>
      <trkpt lat="28.7898050" lon="-17.8944380">
        <ele>1248.3</ele>
        <time>2020-11-16T16:22:26Z</time>
      </trkpt>
      <trkpt lat="28.7898050" lon="-17.8944380">
        <ele>1248.3</ele>
        <time>2020-11-16T16:22:27Z</time>
      </trkpt>
      <trkpt lat="28.7898050" lon="-17.8944380">
        <ele>1248.3</ele>
        <time>2020-11-16T16:22:28Z</time>
      </trkpt>
      <trkpt lat="28.7897770" lon="-17.8944530">
        <ele>1248.4</ele>
        <time>2020-11-16T16:22:29Z</time>
      </trkpt>
      <trkpt lat="28.7897470" lon="-17.8944680">
        <ele>1248.5</ele>
        <time>2020-11-16T16:22:30Z</time>
      </trkpt>
      <trkpt lat="28.7897320" lon="-17.8944750">
        <ele>1248.6</ele>
        <time>2020-11-16T16:22:31Z</time>
      </trkpt>
      <trkpt lat="28.7897120" lon="-17.8944800">
        <ele>1248.6</ele>
        <time>2020-11-16T16:22:32Z</time>
      </trkpt>
      <trkpt lat="28.7897120" lon="-17.8944800">
        <ele>1248.6</ele>
        <time>2020-11-16T16:22:33Z</time>
      </trkpt>
      <trkpt lat="28.7896770" lon="-17.8945000">
        <ele>1248.7</ele>
        <time>2020-11-16T16:22:34Z</time>
      </trkpt>
      <trkpt lat="28.7896620" lon="-17.8945070">
        <ele>1248.8</ele>
        <time>2020-11-16T16:22:35Z</time>
      </trkpt>
      <trkpt lat="28.7896620" lon="-17.8945070">
        <ele>1248.8</ele>
        <time>2020-11-16T16:22:36Z</time>
      </trkpt>
      <trkpt lat="28.7896300" lon="-17.8945200">
        <ele>1248.9</ele>
        <time>2020-11-16T16:22:37Z</time>
      </trkpt>
      <trkpt lat="28.7895830" lon="-17.8945430">
        <ele>1249.0</ele>
        <time>2020-11-16T16:22:38Z</time>
      </trkpt>
      <trkpt lat="28.7895830" lon="-17.8945430">
        <ele>1249.0</ele>
        <time>2020-11-16T16:22:39Z</time>
      </trkpt>
      <trkpt lat="28.7895350" lon="-17.8945830">
        <ele>1249.2</ele>
        <time>2020-11-16T16:22:40Z</time>
      </trkpt>
      <trkpt lat="28.7895350" lon="-17.8945830">
        <ele>1249.2</ele>
        <time>2020-11-16T16:22:41Z</time>
      </trkpt>
      <trkpt lat="28.7895080" lon="-17.8946380">
        <ele>1249.4</ele>
        <time>2020-11-16T16:22:42Z</time>
      </trkpt>
      <trkpt lat="28.7895080" lon="-17.8946380">
        <ele>1249.4</ele>
        <time>2020-11-16T16:22:43Z</time>
      </trkpt>
      <trkpt lat="28.7895050" lon="-17.8946800">
        <ele>1249.6</ele>
        <time>2020-11-16T16:22:44Z</time>
      </trkpt>
      <trkpt lat="28.7895050" lon="-17.8946800">
        <ele>1249.6</ele>
        <time>2020-11-16T16:22:45Z</time>
      </trkpt>
      <trkpt lat="28.7895270" lon="-17.8947130">
        <ele>1249.8</ele>
        <time>2020-11-16T16:22:46Z</time>
      </trkpt>
      <trkpt lat="28.7895270" lon="-17.8947130">
        <ele>1249.8</ele>
        <time>2020-11-16T16:22:47Z</time>
      </trkpt>
      <trkpt lat="28.7895480" lon="-17.8947380">
        <ele>1250.0</ele>
        <time>2020-11-16T16:22:48Z</time>
      </trkpt>
      <trkpt lat="28.7895570" lon="-17.8947480">
        <ele>1250.0</ele>
        <time>2020-11-16T16:22:49Z</time>
      </trkpt>
      <trkpt lat="28.7895630" lon="-17.8947550">
        <ele>1250.1</ele>
        <time>2020-11-16T16:22:50Z</time>
      </trkpt>
      <trkpt lat="28.7895630" lon="-17.8947550">
        <ele>1250.1</ele>
        <time>2020-11-16T16:22:51Z</time>
      </trkpt>
      <trkpt lat="28.7895800" lon="-17.8947650">
        <ele>1250.2</ele>
        <time>2020-11-16T16:22:52Z</time>
      </trkpt>
      <trkpt lat="28.7895800" lon="-17.8947650">
        <ele>1250.2</ele>
        <time>2020-11-16T16:22:53Z</time>
      </trkpt>
      <trkpt lat="28.7896100" lon="-17.8947800">
        <ele>1250.3</ele>
        <time>2020-11-16T16:22:54Z</time>
      </trkpt>
      <trkpt lat="28.7896100" lon="-17.8947800">
        <ele>1250.3</ele>
        <time>2020-11-16T16:22:55Z</time>
      </trkpt>
      <trkpt lat="28.7896380" lon="-17.8948020">
        <ele>1250.5</ele>
        <time>2020-11-16T16:22:56Z</time>
      </trkpt>
      <trkpt lat="28.7896380" lon="-17.8948020">
        <ele>1250.5</ele>
        <time>2020-11-16T16:22:57Z</time>
      </trkpt>
      <trkpt lat="28.7896780" lon="-17.8948350">
        <ele>1250.8</ele>
        <time>2020-11-16T16:22:58Z</time>
      </trkpt>
      <trkpt lat="28.7896780" lon="-17.8948350">
        <ele>1250.8</ele>
        <time>2020-11-16T16:22:59Z</time>
      </trkpt>
      <trkpt lat="28.7897070" lon="-17.8948630">
        <ele>1251.1</ele>
        <time>2020-11-16T16:23:00Z</time>
      </trkpt>
      <trkpt lat="28.7897070" lon="-17.8948630">
        <ele>1251.1</ele>
        <time>2020-11-16T16:23:01Z</time>
      </trkpt>
      <trkpt lat="28.7897330" lon="-17.8948950">
        <ele>1251.4</ele>
        <time>2020-11-16T16:23:02Z</time>
      </trkpt>
      <trkpt lat="28.7897330" lon="-17.8948950">
        <ele>1251.4</ele>
        <time>2020-11-16T16:23:03Z</time>
      </trkpt>
      <trkpt lat="28.7897720" lon="-17.8949330">
        <ele>1251.7</ele>
        <time>2020-11-16T16:23:04Z</time>
      </trkpt>
      <trkpt lat="28.7898000" lon="-17.8949480">
        <ele>1252.0</ele>
        <time>2020-11-16T16:23:05Z</time>
      </trkpt>
      <trkpt lat="28.7898000" lon="-17.8949480">
        <ele>1252.0</ele>
        <time>2020-11-16T16:23:06Z</time>
      </trkpt>
      <trkpt lat="28.7898330" lon="-17.8949780">
        <ele>1252.2</ele>
        <time>2020-11-16T16:23:07Z</time>
      </trkpt>
      <trkpt lat="28.7898330" lon="-17.8949780">
        <ele>1252.2</ele>
        <time>2020-11-16T16:23:08Z</time>
      </trkpt>
      <trkpt lat="28.7898730" lon="-17.8950150">
        <ele>1252.6</ele>
        <time>2020-11-16T16:23:09Z</time>
      </trkpt>
      <trkpt lat="28.7898850" lon="-17.8950320">
        <ele>1252.7</ele>
        <time>2020-11-16T16:23:10Z</time>
      </trkpt>
      <trkpt lat="28.7898850" lon="-17.8950320">
        <ele>1252.7</ele>
        <time>2020-11-16T16:23:11Z</time>
      </trkpt>
      <trkpt lat="28.7899100" lon="-17.8950580">
        <ele>1252.9</ele>
        <time>2020-11-16T16:23:12Z</time>
      </trkpt>
      <trkpt lat="28.7899100" lon="-17.8950580">
        <ele>1252.9</ele>
        <time>2020-11-16T16:23:13Z</time>
      </trkpt>
      <trkpt lat="28.7899400" lon="-17.8950820">
        <ele>1253.2</ele>
        <time>2020-11-16T16:23:14Z</time>
      </trkpt>
      <trkpt lat="28.7899400" lon="-17.8950820">
        <ele>1253.2</ele>
        <time>2020-11-16T16:23:15Z</time>
      </trkpt>
      <trkpt lat="28.7899770" lon="-17.8951150">
        <ele>1253.5</ele>
        <time>2020-11-16T16:23:16Z</time>
      </trkpt>
      <trkpt lat="28.7899770" lon="-17.8951150">
        <ele>1253.5</ele>
        <time>2020-11-16T16:23:17Z</time>
      </trkpt>
      <trkpt lat="28.7900120" lon="-17.8951470">
        <ele>1253.9</ele>
        <time>2020-11-16T16:23:18Z</time>
      </trkpt>
      <trkpt lat="28.7900300" lon="-17.8951630">
        <ele>1254.0</ele>
        <time>2020-11-16T16:23:19Z</time>
      </trkpt>
      <trkpt lat="28.7900300" lon="-17.8951630">
        <ele>1254.0</ele>
        <time>2020-11-16T16:23:20Z</time>
      </trkpt>
      <trkpt lat="28.7900600" lon="-17.8951930">
        <ele>1254.3</ele>
        <time>2020-11-16T16:23:21Z</time>
      </trkpt>
      <trkpt lat="28.7900600" lon="-17.8951930">
        <ele>1254.3</ele>
        <time>2020-11-16T16:23:22Z</time>
      </trkpt>
      <trkpt lat="28.7900880" lon="-17.8952220">
        <ele>1254.6</ele>
        <time>2020-11-16T16:23:23Z</time>
      </trkpt>
      <trkpt lat="28.7900880" lon="-17.8952220">
        <ele>1254.6</ele>
        <time>2020-11-16T16:23:24Z</time>
      </trkpt>
      <trkpt lat="28.7901100" lon="-17.8952520">
        <ele>1254.9</ele>
        <time>2020-11-16T16:23:25Z</time>
      </trkpt>
      <trkpt lat="28.7901200" lon="-17.8952720">
        <ele>1255.0</ele>
        <time>2020-11-16T16:23:26Z</time>
      </trkpt>
      <trkpt lat="28.7901200" lon="-17.8952720">
        <ele>1255.0</ele>
        <time>2020-11-16T16:23:27Z</time>
      </trkpt>
      <trkpt lat="28.7901420" lon="-17.8953130">
        <ele>1255.3</ele>
        <time>2020-11-16T16:23:28Z</time>
      </trkpt>
      <trkpt lat="28.7901420" lon="-17.8953130">
        <ele>1255.3</ele>
        <time>2020-11-16T16:23:29Z</time>
      </trkpt>
      <trkpt lat="28.7901620" lon="-17.8953530">
        <ele>1255.6</ele>
        <time>2020-11-16T16:23:30Z</time>
      </trkpt>
      <trkpt lat="28.7901780" lon="-17.8953680">
        <ele>1255.7</ele>
        <time>2020-11-16T16:23:31Z</time>
      </trkpt>
      <trkpt lat="28.7901780" lon="-17.8953680">
        <ele>1255.7</ele>
        <time>2020-11-16T16:23:32Z</time>
      </trkpt>
      <trkpt lat="28.7902080" lon="-17.8954000">
        <ele>1256.0</ele>
        <time>2020-11-16T16:23:33Z</time>
      </trkpt>
      <trkpt lat="28.7902080" lon="-17.8954000">
        <ele>1256.0</ele>
        <time>2020-11-16T16:23:34Z</time>
      </trkpt>
      <trkpt lat="28.7902330" lon="-17.8954300">
        <ele>1256.3</ele>
        <time>2020-11-16T16:23:35Z</time>
      </trkpt>
      <trkpt lat="28.7902330" lon="-17.8954300">
        <ele>1256.3</ele>
        <time>2020-11-16T16:23:36Z</time>
      </trkpt>
      <trkpt lat="28.7902520" lon="-17.8954550">
        <ele>1256.5</ele>
        <time>2020-11-16T16:23:37Z</time>
      </trkpt>
      <trkpt lat="28.7902520" lon="-17.8954550">
        <ele>1256.5</ele>
        <time>2020-11-16T16:23:38Z</time>
      </trkpt>
      <trkpt lat="28.7902750" lon="-17.8954920">
        <ele>1256.8</ele>
        <time>2020-11-16T16:23:39Z</time>
      </trkpt>
      <trkpt lat="28.7902750" lon="-17.8954920">
        <ele>1256.8</ele>
        <time>2020-11-16T16:23:40Z</time>
      </trkpt>
      <trkpt lat="28.7902980" lon="-17.8955270">
        <ele>1257.1</ele>
        <time>2020-11-16T16:23:41Z</time>
      </trkpt>
      <trkpt lat="28.7903100" lon="-17.8955370">
        <ele>1257.2</ele>
        <time>2020-11-16T16:23:42Z</time>
      </trkpt>
      <trkpt lat="28.7903100" lon="-17.8955370">
        <ele>1257.2</ele>
        <time>2020-11-16T16:23:43Z</time>
      </trkpt>
      <trkpt lat="28.7903300" lon="-17.8955720">
        <ele>1257.5</ele>
        <time>2020-11-16T16:23:44Z</time>
      </trkpt>
      <trkpt lat="28.7903300" lon="-17.8955720">
        <ele>1257.5</ele>
        <time>2020-11-16T16:23:45Z</time>
      </trkpt>
      <trkpt lat="28.7903530" lon="-17.8955970">
        <ele>1257.7</ele>
        <time>2020-11-16T16:23:46Z</time>
      </trkpt>
      <trkpt lat="28.7903530" lon="-17.8955970">
        <ele>1257.7</ele>
        <time>2020-11-16T16:23:47Z</time>
      </trkpt>
      <trkpt lat="28.7903800" lon="-17.8956150">
        <ele>1258.0</ele>
        <time>2020-11-16T16:23:48Z</time>
      </trkpt>
      <trkpt lat="28.7903950" lon="-17.8956280">
        <ele>1258.1</ele>
        <time>2020-11-16T16:23:49Z</time>
      </trkpt>
      <trkpt lat="28.7903950" lon="-17.8956280">
        <ele>1258.1</ele>
        <time>2020-11-16T16:23:50Z</time>
      </trkpt>
      <trkpt lat="28.7904270" lon="-17.8956550">
        <ele>1258.5</ele>
        <time>2020-11-16T16:23:51Z</time>
      </trkpt>
      <trkpt lat="28.7904270" lon="-17.8956550">
        <ele>1258.5</ele>
        <time>2020-11-16T16:23:52Z</time>
      </trkpt>
      <trkpt lat="28.7904530" lon="-17.8956800">
        <ele>1258.8</ele>
        <time>2020-11-16T16:23:53Z</time>
      </trkpt>
      <trkpt lat="28.7904530" lon="-17.8956800">
        <ele>1258.8</ele>
        <time>2020-11-16T16:23:54Z</time>
      </trkpt>
      <trkpt lat="28.7904830" lon="-17.8957100">
        <ele>1259.1</ele>
        <time>2020-11-16T16:23:55Z</time>
      </trkpt>
      <trkpt lat="28.7904830" lon="-17.8957100">
        <ele>1259.1</ele>
        <time>2020-11-16T16:23:56Z</time>
      </trkpt>
      <trkpt lat="28.7905130" lon="-17.8957330">
        <ele>1259.5</ele>
        <time>2020-11-16T16:23:57Z</time>
      </trkpt>
      <trkpt lat="28.7905130" lon="-17.8957330">
        <ele>1259.5</ele>
        <time>2020-11-16T16:23:58Z</time>
      </trkpt>
      <trkpt lat="28.7905470" lon="-17.8957530">
        <ele>1259.9</ele>
        <time>2020-11-16T16:23:59Z</time>
      </trkpt>
      <trkpt lat="28.7905600" lon="-17.8957620">
        <ele>1260.1</ele>
        <time>2020-11-16T16:24:00Z</time>
      </trkpt>
      <trkpt lat="28.7905600" lon="-17.8957620">
        <ele>1260.1</ele>
        <time>2020-11-16T16:24:01Z</time>
      </trkpt>
      <trkpt lat="28.7905920" lon="-17.8957950">
        <ele>1260.5</ele>
        <time>2020-11-16T16:24:02Z</time>
      </trkpt>
      <trkpt lat="28.7905920" lon="-17.8957950">
        <ele>1260.5</ele>
        <time>2020-11-16T16:24:03Z</time>
      </trkpt>
      <trkpt lat="28.7905920" lon="-17.8957950">
        <ele>1260.5</ele>
        <time>2020-11-16T16:24:04Z</time>
      </trkpt>
      <trkpt lat="28.7906300" lon="-17.8958150">
        <ele>1260.9</ele>
        <time>2020-11-16T16:24:05Z</time>
      </trkpt>
      <trkpt lat="28.7906520" lon="-17.8958420">
        <ele>1261.3</ele>
        <time>2020-11-16T16:24:06Z</time>
      </trkpt>
      <trkpt lat="28.7906520" lon="-17.8958420">
        <ele>1261.3</ele>
        <time>2020-11-16T16:24:07Z</time>
      </trkpt>
      <trkpt lat="28.7906720" lon="-17.8958720">
        <ele>1261.6</ele>
        <time>2020-11-16T16:24:08Z</time>
      </trkpt>
      <trkpt lat="28.7906720" lon="-17.8958720">
        <ele>1261.6</ele>
        <time>2020-11-16T16:24:09Z</time>
      </trkpt>
      <trkpt lat="28.7906870" lon="-17.8959020">
        <ele>1261.9</ele>
        <time>2020-11-16T16:24:10Z</time>
      </trkpt>
      <trkpt lat="28.7906870" lon="-17.8959020">
        <ele>1261.9</ele>
        <time>2020-11-16T16:24:11Z</time>
      </trkpt>
      <trkpt lat="28.7907150" lon="-17.8959070">
        <ele>1262.2</ele>
        <time>2020-11-16T16:24:12Z</time>
      </trkpt>
      <trkpt lat="28.7907150" lon="-17.8959070">
        <ele>1262.2</ele>
        <time>2020-11-16T16:24:13Z</time>
      </trkpt>
      <trkpt lat="28.7907230" lon="-17.8959150">
        <ele>1262.3</ele>
        <time>2020-11-16T16:24:14Z</time>
      </trkpt>
      <trkpt lat="28.7907230" lon="-17.8959150">
        <ele>1262.3</ele>
        <time>2020-11-16T16:24:15Z</time>
      </trkpt>
      <trkpt lat="28.7907220" lon="-17.8959170">
        <ele>1262.3</ele>
        <time>2020-11-16T16:24:16Z</time>
      </trkpt>
      <trkpt lat="28.7907220" lon="-17.8959170">
        <ele>1262.3</ele>
        <time>2020-11-16T16:24:17Z</time>
      </trkpt>
      <trkpt lat="28.7907170" lon="-17.8959230">
        <ele>1262.4</ele>
        <time>2020-11-16T16:24:18Z</time>
      </trkpt>
      <trkpt lat="28.7907170" lon="-17.8959230">
        <ele>1262.4</ele>
        <time>2020-11-16T16:24:19Z</time>
      </trkpt>
      <trkpt lat="28.7907170" lon="-17.8959230">
        <ele>1262.4</ele>
        <time>2020-11-16T16:24:20Z</time>
      </trkpt>
      <trkpt lat="28.7907170" lon="-17.8959230">
        <ele>1262.4</ele>
        <time>2020-11-16T16:27:57Z</time>
      </trkpt>
      <trkpt lat="28.7907050" lon="-17.8958930">
        <ele>1262.7</ele>
        <time>2020-11-16T16:27:58Z</time>
      </trkpt>
      <trkpt lat="28.7907050" lon="-17.8958930">
        <ele>1262.7</ele>
        <time>2020-11-16T16:27:59Z</time>
      </trkpt>
      <trkpt lat="28.7907020" lon="-17.8958980">
        <ele>1262.7</ele>
        <time>2020-11-16T16:28:00Z</time>
      </trkpt>
      <trkpt lat="28.7907020" lon="-17.8958980">
        <ele>1262.7</ele>
        <time>2020-11-16T16:28:02Z</time>
      </trkpt>
      <trkpt lat="28.7907020" lon="-17.8958980">
        <ele>1262.7</ele>
        <time>2020-11-16T16:28:03Z</time>
      </trkpt>
      <trkpt lat="28.7906570" lon="-17.8959150">
        <ele>1263.1</ele>
        <time>2020-11-16T16:28:04Z</time>
      </trkpt>
      <trkpt lat="28.7906380" lon="-17.8959270">
        <ele>1263.2</ele>
        <time>2020-11-16T16:28:05Z</time>
      </trkpt>
      <trkpt lat="28.7906380" lon="-17.8959270">
        <ele>1263.2</ele>
        <time>2020-11-16T16:28:06Z</time>
      </trkpt>
      <trkpt lat="28.7905980" lon="-17.8959480">
        <ele>1263.5</ele>
        <time>2020-11-16T16:28:07Z</time>
      </trkpt>
      <trkpt lat="28.7905980" lon="-17.8959480">
        <ele>1263.5</ele>
        <time>2020-11-16T16:28:08Z</time>
      </trkpt>
      <trkpt lat="28.7905670" lon="-17.8959630">
        <ele>1263.7</ele>
        <time>2020-11-16T16:28:09Z</time>
      </trkpt>
      <trkpt lat="28.7905670" lon="-17.8959630">
        <ele>1263.7</ele>
        <time>2020-11-16T16:28:10Z</time>
      </trkpt>
      <trkpt lat="28.7905150" lon="-17.8959800">
        <ele>1264.1</ele>
        <time>2020-11-16T16:28:11Z</time>
      </trkpt>
      <trkpt lat="28.7905150" lon="-17.8959800">
        <ele>1264.1</ele>
        <time>2020-11-16T16:28:12Z</time>
      </trkpt>
      <trkpt lat="28.7904700" lon="-17.8959970">
        <ele>1264.5</ele>
        <time>2020-11-16T16:28:13Z</time>
      </trkpt>
      <trkpt lat="28.7904500" lon="-17.8960020">
        <ele>1264.6</ele>
        <time>2020-11-16T16:28:14Z</time>
      </trkpt>
      <trkpt lat="28.7904500" lon="-17.8960020">
        <ele>1264.6</ele>
        <time>2020-11-16T16:28:15Z</time>
      </trkpt>
      <trkpt lat="28.7904170" lon="-17.8960030">
        <ele>1264.9</ele>
        <time>2020-11-16T16:28:16Z</time>
      </trkpt>
      <trkpt lat="28.7904170" lon="-17.8960030">
        <ele>1264.9</ele>
        <time>2020-11-16T16:28:17Z</time>
      </trkpt>
      <trkpt lat="28.7903900" lon="-17.8960080">
        <ele>1265.0</ele>
        <time>2020-11-16T16:28:18Z</time>
      </trkpt>
      <trkpt lat="28.7903900" lon="-17.8960080">
        <ele>1265.0</ele>
        <time>2020-11-16T16:28:19Z</time>
      </trkpt>
      <trkpt lat="28.7903670" lon="-17.8960180">
        <ele>1265.2</ele>
        <time>2020-11-16T16:28:20Z</time>
      </trkpt>
      <trkpt lat="28.7903670" lon="-17.8960180">
        <ele>1265.2</ele>
        <time>2020-11-16T16:28:21Z</time>
      </trkpt>
      <trkpt lat="28.7903450" lon="-17.8960300">
        <ele>1265.4</ele>
        <time>2020-11-16T16:28:22Z</time>
      </trkpt>
      <trkpt lat="28.7903450" lon="-17.8960300">
        <ele>1265.4</ele>
        <time>2020-11-16T16:28:23Z</time>
      </trkpt>
      <trkpt lat="28.7903170" lon="-17.8960370">
        <ele>1265.5</ele>
        <time>2020-11-16T16:28:24Z</time>
      </trkpt>
      <trkpt lat="28.7902980" lon="-17.8960330">
        <ele>1265.6</ele>
        <time>2020-11-16T16:28:25Z</time>
      </trkpt>
      <trkpt lat="28.7902830" lon="-17.8960330">
        <ele>1265.7</ele>
        <time>2020-11-16T16:28:26Z</time>
      </trkpt>
      <trkpt lat="28.7902830" lon="-17.8960330">
        <ele>1265.7</ele>
        <time>2020-11-16T16:28:27Z</time>
      </trkpt>
      <trkpt lat="28.7902480" lon="-17.8960380">
        <ele>1265.9</ele>
        <time>2020-11-16T16:28:28Z</time>
      </trkpt>
      <trkpt lat="28.7902480" lon="-17.8960380">
        <ele>1265.9</ele>
        <time>2020-11-16T16:28:29Z</time>
      </trkpt>
      <trkpt lat="28.7902150" lon="-17.8960370">
        <ele>1266.1</ele>
        <time>2020-11-16T16:28:30Z</time>
      </trkpt>
      <trkpt lat="28.7902150" lon="-17.8960370">
        <ele>1266.1</ele>
        <time>2020-11-16T16:28:31Z</time>
      </trkpt>
      <trkpt lat="28.7901830" lon="-17.8960370">
        <ele>1266.2</ele>
        <time>2020-11-16T16:28:32Z</time>
      </trkpt>
      <trkpt lat="28.7901830" lon="-17.8960370">
        <ele>1266.2</ele>
        <time>2020-11-16T16:28:33Z</time>
      </trkpt>
      <trkpt lat="28.7901470" lon="-17.8960380">
        <ele>1266.4</ele>
        <time>2020-11-16T16:28:34Z</time>
      </trkpt>
      <trkpt lat="28.7901470" lon="-17.8960380">
        <ele>1266.4</ele>
        <time>2020-11-16T16:28:35Z</time>
      </trkpt>
      <trkpt lat="28.7901030" lon="-17.8960370">
        <ele>1266.6</ele>
        <time>2020-11-16T16:28:36Z</time>
      </trkpt>
      <trkpt lat="28.7901030" lon="-17.8960370">
        <ele>1266.6</ele>
        <time>2020-11-16T16:28:37Z</time>
      </trkpt>
      <trkpt lat="28.7900720" lon="-17.8960300">
        <ele>1266.7</ele>
        <time>2020-11-16T16:28:38Z</time>
      </trkpt>
      <trkpt lat="28.7900720" lon="-17.8960300">
        <ele>1266.7</ele>
        <time>2020-11-16T16:28:39Z</time>
      </trkpt>
      <trkpt lat="28.7900430" lon="-17.8960250">
        <ele>1266.8</ele>
        <time>2020-11-16T16:28:40Z</time>
      </trkpt>
      <trkpt lat="28.7900430" lon="-17.8960250">
        <ele>1266.8</ele>
        <time>2020-11-16T16:28:41Z</time>
      </trkpt>
      <trkpt lat="28.7900180" lon="-17.8960280">
        <ele>1266.9</ele>
        <time>2020-11-16T16:28:42Z</time>
      </trkpt>
      <trkpt lat="28.7900050" lon="-17.8960280">
        <ele>1267.0</ele>
        <time>2020-11-16T16:28:43Z</time>
      </trkpt>
      <trkpt lat="28.7900050" lon="-17.8960280">
        <ele>1267.0</ele>
        <time>2020-11-16T16:28:44Z</time>
      </trkpt>
      <trkpt lat="28.7899800" lon="-17.8960370">
        <ele>1267.1</ele>
        <time>2020-11-16T16:28:45Z</time>
      </trkpt>
      <trkpt lat="28.7899700" lon="-17.8960380">
        <ele>1267.1</ele>
        <time>2020-11-16T16:28:46Z</time>
      </trkpt>
      <trkpt lat="28.7899700" lon="-17.8960380">
        <ele>1267.1</ele>
        <time>2020-11-16T16:28:47Z</time>
      </trkpt>
      <trkpt lat="28.7899520" lon="-17.8960430">
        <ele>1267.2</ele>
        <time>2020-11-16T16:28:48Z</time>
      </trkpt>
      <trkpt lat="28.7899520" lon="-17.8960430">
        <ele>1267.2</ele>
        <time>2020-11-16T16:28:49Z</time>
      </trkpt>
      <trkpt lat="28.7899300" lon="-17.8960500">
        <ele>1267.2</ele>
        <time>2020-11-16T16:28:50Z</time>
      </trkpt>
      <trkpt lat="28.7899300" lon="-17.8960500">
        <ele>1267.2</ele>
        <time>2020-11-16T16:28:51Z</time>
      </trkpt>
      <trkpt lat="28.7898930" lon="-17.8960620">
        <ele>1267.4</ele>
        <time>2020-11-16T16:28:52Z</time>
      </trkpt>
      <trkpt lat="28.7898680" lon="-17.8960630">
        <ele>1267.4</ele>
        <time>2020-11-16T16:28:53Z</time>
      </trkpt>
      <trkpt lat="28.7898680" lon="-17.8960630">
        <ele>1267.4</ele>
        <time>2020-11-16T16:28:54Z</time>
      </trkpt>
      <trkpt lat="28.7898250" lon="-17.8960630">
        <ele>1267.6</ele>
        <time>2020-11-16T16:28:55Z</time>
      </trkpt>
      <trkpt lat="28.7898100" lon="-17.8960720">
        <ele>1267.6</ele>
        <time>2020-11-16T16:28:56Z</time>
      </trkpt>
      <trkpt lat="28.7898100" lon="-17.8960720">
        <ele>1267.6</ele>
        <time>2020-11-16T16:28:57Z</time>
      </trkpt>
      <trkpt lat="28.7897780" lon="-17.8960930">
        <ele>1267.7</ele>
        <time>2020-11-16T16:28:58Z</time>
      </trkpt>
      <trkpt lat="28.7897780" lon="-17.8960930">
        <ele>1267.7</ele>
        <time>2020-11-16T16:28:59Z</time>
      </trkpt>
      <trkpt lat="28.7897520" lon="-17.8961150">
        <ele>1267.7</ele>
        <time>2020-11-16T16:29:00Z</time>
      </trkpt>
      <trkpt lat="28.7897520" lon="-17.8961150">
        <ele>1267.7</ele>
        <time>2020-11-16T16:29:01Z</time>
      </trkpt>
      <trkpt lat="28.7897120" lon="-17.8961330">
        <ele>1267.8</ele>
        <time>2020-11-16T16:29:02Z</time>
      </trkpt>
      <trkpt lat="28.7897120" lon="-17.8961330">
        <ele>1267.8</ele>
        <time>2020-11-16T16:29:03Z</time>
      </trkpt>
      <trkpt lat="28.7896730" lon="-17.8961530">
        <ele>1267.9</ele>
        <time>2020-11-16T16:29:04Z</time>
      </trkpt>
      <trkpt lat="28.7896730" lon="-17.8961530">
        <ele>1267.9</ele>
        <time>2020-11-16T16:29:05Z</time>
      </trkpt>
      <trkpt lat="28.7896330" lon="-17.8961870">
        <ele>1267.9</ele>
        <time>2020-11-16T16:29:06Z</time>
      </trkpt>
      <trkpt lat="28.7896130" lon="-17.8962020">
        <ele>1267.9</ele>
        <time>2020-11-16T16:29:07Z</time>
      </trkpt>
      <trkpt lat="28.7896130" lon="-17.8962020">
        <ele>1267.9</ele>
        <time>2020-11-16T16:29:08Z</time>
      </trkpt>
      <trkpt lat="28.7895520" lon="-17.8962620">
        <ele>1267.9</ele>
        <time>2020-11-16T16:29:09Z</time>
      </trkpt>
      <trkpt lat="28.7895520" lon="-17.8962620">
        <ele>1267.9</ele>
        <time>2020-11-16T16:29:10Z</time>
      </trkpt>
      <trkpt lat="28.7895450" lon="-17.8963150">
        <ele>1267.9</ele>
        <time>2020-11-16T16:29:11Z</time>
      </trkpt>
      <trkpt lat="28.7895570" lon="-17.8963380">
        <ele>1267.8</ele>
        <time>2020-11-16T16:29:12Z</time>
      </trkpt>
      <trkpt lat="28.7895570" lon="-17.8963380">
        <ele>1267.8</ele>
        <time>2020-11-16T16:29:13Z</time>
      </trkpt>
      <trkpt lat="28.7895750" lon="-17.8963850">
        <ele>1267.8</ele>
        <time>2020-11-16T16:29:14Z</time>
      </trkpt>
      <trkpt lat="28.7895750" lon="-17.8963850">
        <ele>1267.8</ele>
        <time>2020-11-16T16:29:15Z</time>
      </trkpt>
      <trkpt lat="28.7896050" lon="-17.8964270">
        <ele>1267.8</ele>
        <time>2020-11-16T16:29:16Z</time>
      </trkpt>
      <trkpt lat="28.7896170" lon="-17.8964520">
        <ele>1267.8</ele>
        <time>2020-11-16T16:29:17Z</time>
      </trkpt>
      <trkpt lat="28.7896170" lon="-17.8964520">
        <ele>1267.8</ele>
        <time>2020-11-16T16:29:18Z</time>
      </trkpt>
      <trkpt lat="28.7896500" lon="-17.8964920">
        <ele>1267.9</ele>
        <time>2020-11-16T16:29:19Z</time>
      </trkpt>
      <trkpt lat="28.7896670" lon="-17.8965080">
        <ele>1267.9</ele>
        <time>2020-11-16T16:29:20Z</time>
      </trkpt>
      <trkpt lat="28.7896670" lon="-17.8965080">
        <ele>1267.9</ele>
        <time>2020-11-16T16:29:21Z</time>
      </trkpt>
      <trkpt lat="28.7897000" lon="-17.8965430">
        <ele>1267.9</ele>
        <time>2020-11-16T16:29:22Z</time>
      </trkpt>
      <trkpt lat="28.7897000" lon="-17.8965430">
        <ele>1267.9</ele>
        <time>2020-11-16T16:29:23Z</time>
      </trkpt>
      <trkpt lat="28.7897230" lon="-17.8965850">
        <ele>1268.0</ele>
        <time>2020-11-16T16:29:24Z</time>
      </trkpt>
      <trkpt lat="28.7897230" lon="-17.8965850">
        <ele>1268.0</ele>
        <time>2020-11-16T16:29:25Z</time>
      </trkpt>
      <trkpt lat="28.7897450" lon="-17.8966250">
        <ele>1268.1</ele>
        <time>2020-11-16T16:29:26Z</time>
      </trkpt>
      <trkpt lat="28.7897450" lon="-17.8966250">
        <ele>1268.1</ele>
        <time>2020-11-16T16:29:27Z</time>
      </trkpt>
      <trkpt lat="28.7897700" lon="-17.8966600">
        <ele>1268.2</ele>
        <time>2020-11-16T16:29:28Z</time>
      </trkpt>
      <trkpt lat="28.7897700" lon="-17.8966600">
        <ele>1268.2</ele>
        <time>2020-11-16T16:29:29Z</time>
      </trkpt>
      <trkpt lat="28.7897930" lon="-17.8967030">
        <ele>1268.3</ele>
        <time>2020-11-16T16:29:30Z</time>
      </trkpt>
      <trkpt lat="28.7898020" lon="-17.8967250">
        <ele>1268.3</ele>
        <time>2020-11-16T16:29:31Z</time>
      </trkpt>
      <trkpt lat="28.7898020" lon="-17.8967250">
        <ele>1268.3</ele>
        <time>2020-11-16T16:29:32Z</time>
      </trkpt>
      <trkpt lat="28.7898130" lon="-17.8967750">
        <ele>1268.4</ele>
        <time>2020-11-16T16:29:33Z</time>
      </trkpt>
      <trkpt lat="28.7898130" lon="-17.8967750">
        <ele>1268.4</ele>
        <time>2020-11-16T16:29:34Z</time>
      </trkpt>
      <trkpt lat="28.7898350" lon="-17.8968280">
        <ele>1268.5</ele>
        <time>2020-11-16T16:29:35Z</time>
      </trkpt>
      <trkpt lat="28.7898420" lon="-17.8968600">
        <ele>1268.6</ele>
        <time>2020-11-16T16:29:36Z</time>
      </trkpt>
      <trkpt lat="28.7898420" lon="-17.8968600">
        <ele>1268.6</ele>
        <time>2020-11-16T16:29:37Z</time>
      </trkpt>
      <trkpt lat="28.7898530" lon="-17.8969350">
        <ele>1268.8</ele>
        <time>2020-11-16T16:29:38Z</time>
      </trkpt>
      <trkpt lat="28.7898530" lon="-17.8969350">
        <ele>1268.8</ele>
        <time>2020-11-16T16:29:39Z</time>
      </trkpt>
      <trkpt lat="28.7898580" lon="-17.8969970">
        <ele>1269.0</ele>
        <time>2020-11-16T16:29:40Z</time>
      </trkpt>
      <trkpt lat="28.7898580" lon="-17.8969970">
        <ele>1269.0</ele>
        <time>2020-11-16T16:29:41Z</time>
      </trkpt>
      <trkpt lat="28.7898670" lon="-17.8970450">
        <ele>1269.1</ele>
        <time>2020-11-16T16:29:42Z</time>
      </trkpt>
      <trkpt lat="28.7898680" lon="-17.8970680">
        <ele>1269.2</ele>
        <time>2020-11-16T16:29:43Z</time>
      </trkpt>
      <trkpt lat="28.7898750" lon="-17.8970930">
        <ele>1269.2</ele>
        <time>2020-11-16T16:29:44Z</time>
      </trkpt>
      <trkpt lat="28.7898750" lon="-17.8970930">
        <ele>1269.2</ele>
        <time>2020-11-16T16:29:45Z</time>
      </trkpt>
      <trkpt lat="28.7898800" lon="-17.8971370">
        <ele>1269.4</ele>
        <time>2020-11-16T16:29:46Z</time>
      </trkpt>
      <trkpt lat="28.7898800" lon="-17.8971370">
        <ele>1269.4</ele>
        <time>2020-11-16T16:29:47Z</time>
      </trkpt>
      <trkpt lat="28.7898930" lon="-17.8971800">
        <ele>1269.5</ele>
        <time>2020-11-16T16:29:48Z</time>
      </trkpt>
      <trkpt lat="28.7898930" lon="-17.8971800">
        <ele>1269.5</ele>
        <time>2020-11-16T16:29:49Z</time>
      </trkpt>
      <trkpt lat="28.7899170" lon="-17.8972230">
        <ele>1269.7</ele>
        <time>2020-11-16T16:29:50Z</time>
      </trkpt>
      <trkpt lat="28.7899170" lon="-17.8972230">
        <ele>1269.7</ele>
        <time>2020-11-16T16:29:51Z</time>
      </trkpt>
      <trkpt lat="28.7899220" lon="-17.8972630">
        <ele>1269.9</ele>
        <time>2020-11-16T16:29:52Z</time>
      </trkpt>
      <trkpt lat="28.7899220" lon="-17.8972630">
        <ele>1269.9</ele>
        <time>2020-11-16T16:29:53Z</time>
      </trkpt>
      <trkpt lat="28.7899150" lon="-17.8973030">
        <ele>1271.0</ele>
        <time>2020-11-16T16:29:54Z</time>
      </trkpt>
      <trkpt lat="28.7899150" lon="-17.8973030">
        <ele>1271.0</ele>
        <time>2020-11-16T16:29:55Z</time>
      </trkpt>
      <trkpt lat="28.7899020" lon="-17.8973420">
        <ele>1271.4</ele>
        <time>2020-11-16T16:29:56Z</time>
      </trkpt>
      <trkpt lat="28.7899020" lon="-17.8973420">
        <ele>1271.4</ele>
        <time>2020-11-16T16:29:57Z</time>
      </trkpt>
      <trkpt lat="28.7898730" lon="-17.8973800">
        <ele>1272.0</ele>
        <time>2020-11-16T16:29:58Z</time>
      </trkpt>
      <trkpt lat="28.7898580" lon="-17.8973970">
        <ele>1272.2</ele>
        <time>2020-11-16T16:29:59Z</time>
      </trkpt>
      <trkpt lat="28.7898580" lon="-17.8973970">
        <ele>1272.2</ele>
        <time>2020-11-16T16:30:00Z</time>
      </trkpt>
      <trkpt lat="28.7898280" lon="-17.8974280">
        <ele>1272.7</ele>
        <time>2020-11-16T16:30:01Z</time>
      </trkpt>
      <trkpt lat="28.7898130" lon="-17.8974380">
        <ele>1272.9</ele>
        <time>2020-11-16T16:30:02Z</time>
      </trkpt>
      <trkpt lat="28.7898130" lon="-17.8974380">
        <ele>1272.9</ele>
        <time>2020-11-16T16:30:03Z</time>
      </trkpt>
      <trkpt lat="28.7897950" lon="-17.8974600">
        <ele>1273.2</ele>
        <time>2020-11-16T16:30:04Z</time>
      </trkpt>
      <trkpt lat="28.7897870" lon="-17.8974720">
        <ele>1273.4</ele>
        <time>2020-11-16T16:30:05Z</time>
      </trkpt>
      <trkpt lat="28.7897870" lon="-17.8974720">
        <ele>1273.4</ele>
        <time>2020-11-16T16:30:06Z</time>
      </trkpt>
      <trkpt lat="28.7897750" lon="-17.8974900">
        <ele>1273.7</ele>
        <time>2020-11-16T16:30:07Z</time>
      </trkpt>
      <trkpt lat="28.7897770" lon="-17.8975050">
        <ele>1273.8</ele>
        <time>2020-11-16T16:30:08Z</time>
      </trkpt>
      <trkpt lat="28.7897770" lon="-17.8975050">
        <ele>1273.8</ele>
        <time>2020-11-16T16:30:09Z</time>
      </trkpt>
      <trkpt lat="28.7897530" lon="-17.8975280">
        <ele>1274.3</ele>
        <time>2020-11-16T16:30:10Z</time>
      </trkpt>
      <trkpt lat="28.7897530" lon="-17.8975280">
        <ele>1274.3</ele>
        <time>2020-11-16T16:30:11Z</time>
      </trkpt>
      <trkpt lat="28.7897280" lon="-17.8975470">
        <ele>1274.7</ele>
        <time>2020-11-16T16:30:12Z</time>
      </trkpt>
      <trkpt lat="28.7897280" lon="-17.8975470">
        <ele>1274.7</ele>
        <time>2020-11-16T16:30:13Z</time>
      </trkpt>
      <trkpt lat="28.7897070" lon="-17.8975680">
        <ele>1275.1</ele>
        <time>2020-11-16T16:30:14Z</time>
      </trkpt>
      <trkpt lat="28.7896930" lon="-17.8975800">
        <ele>1275.4</ele>
        <time>2020-11-16T16:30:15Z</time>
      </trkpt>
      <trkpt lat="28.7896930" lon="-17.8975800">
        <ele>1275.4</ele>
        <time>2020-11-16T16:30:16Z</time>
      </trkpt>
      <trkpt lat="28.7896700" lon="-17.8976020">
        <ele>1275.9</ele>
        <time>2020-11-16T16:30:17Z</time>
      </trkpt>
      <trkpt lat="28.7896700" lon="-17.8976020">
        <ele>1275.9</ele>
        <time>2020-11-16T16:30:18Z</time>
      </trkpt>
      <trkpt lat="28.7896520" lon="-17.8976120">
        <ele>1276.2</ele>
        <time>2020-11-16T16:30:19Z</time>
      </trkpt>
      <trkpt lat="28.7896520" lon="-17.8976120">
        <ele>1276.2</ele>
        <time>2020-11-16T16:30:20Z</time>
      </trkpt>
      <trkpt lat="28.7896320" lon="-17.8976280">
        <ele>1276.6</ele>
        <time>2020-11-16T16:30:21Z</time>
      </trkpt>
      <trkpt lat="28.7896320" lon="-17.8976280">
        <ele>1276.6</ele>
        <time>2020-11-16T16:30:22Z</time>
      </trkpt>
      <trkpt lat="28.7896120" lon="-17.8976430">
        <ele>1277.0</ele>
        <time>2020-11-16T16:30:23Z</time>
      </trkpt>
      <trkpt lat="28.7896050" lon="-17.8976520">
        <ele>1277.1</ele>
        <time>2020-11-16T16:30:24Z</time>
      </trkpt>
      <trkpt lat="28.7895970" lon="-17.8976580">
        <ele>1277.3</ele>
        <time>2020-11-16T16:30:25Z</time>
      </trkpt>
      <trkpt lat="28.7895900" lon="-17.8976670">
        <ele>1277.5</ele>
        <time>2020-11-16T16:30:26Z</time>
      </trkpt>
      <trkpt lat="28.7895900" lon="-17.8976670">
        <ele>1277.5</ele>
        <time>2020-11-16T16:30:27Z</time>
      </trkpt>
      <trkpt lat="28.7895720" lon="-17.8976820">
        <ele>1277.8</ele>
        <time>2020-11-16T16:30:28Z</time>
      </trkpt>
      <trkpt lat="28.7895630" lon="-17.8976850">
        <ele>1278.0</ele>
        <time>2020-11-16T16:30:29Z</time>
      </trkpt>
      <trkpt lat="28.7895630" lon="-17.8976850">
        <ele>1278.0</ele>
        <time>2020-11-16T16:30:30Z</time>
      </trkpt>
      <trkpt lat="28.7895450" lon="-17.8976980">
        <ele>1278.3</ele>
        <time>2020-11-16T16:30:31Z</time>
      </trkpt>
      <trkpt lat="28.7895450" lon="-17.8976980">
        <ele>1278.3</ele>
        <time>2020-11-16T16:30:32Z</time>
      </trkpt>
      <trkpt lat="28.7895320" lon="-17.8977080">
        <ele>1278.5</ele>
        <time>2020-11-16T16:30:33Z</time>
      </trkpt>
      <trkpt lat="28.7895320" lon="-17.8977080">
        <ele>1278.5</ele>
        <time>2020-11-16T16:30:34Z</time>
      </trkpt>
      <trkpt lat="28.7895180" lon="-17.8977130">
        <ele>1278.8</ele>
        <time>2020-11-16T16:30:35Z</time>
      </trkpt>
      <trkpt lat="28.7895180" lon="-17.8977130">
        <ele>1278.8</ele>
        <time>2020-11-16T16:30:36Z</time>
      </trkpt>
      <trkpt lat="28.7895000" lon="-17.8977330">
        <ele>1279.2</ele>
        <time>2020-11-16T16:30:37Z</time>
      </trkpt>
      <trkpt lat="28.7894920" lon="-17.8977430">
        <ele>1279.3</ele>
        <time>2020-11-16T16:30:38Z</time>
      </trkpt>
      <trkpt lat="28.7894920" lon="-17.8977430">
        <ele>1279.3</ele>
        <time>2020-11-16T16:30:39Z</time>
      </trkpt>
      <trkpt lat="28.7894280" lon="-17.8977580">
        <ele>1280.3</ele>
        <time>2020-11-16T16:30:40Z</time>
      </trkpt>
      <trkpt lat="28.7894280" lon="-17.8977580">
        <ele>1280.3</ele>
        <time>2020-11-16T16:30:41Z</time>
      </trkpt>
      <trkpt lat="28.7894030" lon="-17.8977780">
        <ele>1280.7</ele>
        <time>2020-11-16T16:30:42Z</time>
      </trkpt>
      <trkpt lat="28.7894030" lon="-17.8977780">
        <ele>1280.7</ele>
        <time>2020-11-16T16:30:43Z</time>
      </trkpt>
      <trkpt lat="28.7893770" lon="-17.8978000">
        <ele>1281.2</ele>
        <time>2020-11-16T16:30:44Z</time>
      </trkpt>
      <trkpt lat="28.7893700" lon="-17.8978170">
        <ele>1281.4</ele>
        <time>2020-11-16T16:30:45Z</time>
      </trkpt>
      <trkpt lat="28.7893700" lon="-17.8978170">
        <ele>1281.4</ele>
        <time>2020-11-16T16:30:46Z</time>
      </trkpt>
      <trkpt lat="28.7893500" lon="-17.8978450">
        <ele>1281.8</ele>
        <time>2020-11-16T16:30:47Z</time>
      </trkpt>
      <trkpt lat="28.7893500" lon="-17.8978450">
        <ele>1281.8</ele>
        <time>2020-11-16T16:30:48Z</time>
      </trkpt>
      <trkpt lat="28.7893380" lon="-17.8978730">
        <ele>1282.1</ele>
        <time>2020-11-16T16:30:49Z</time>
      </trkpt>
      <trkpt lat="28.7893370" lon="-17.8978900">
        <ele>1282.3</ele>
        <time>2020-11-16T16:30:50Z</time>
      </trkpt>
      <trkpt lat="28.7893370" lon="-17.8978900">
        <ele>1282.3</ele>
        <time>2020-11-16T16:30:51Z</time>
      </trkpt>
      <trkpt lat="28.7893280" lon="-17.8979220">
        <ele>1282.6</ele>
        <time>2020-11-16T16:30:52Z</time>
      </trkpt>
      <trkpt lat="28.7893280" lon="-17.8979220">
        <ele>1282.6</ele>
        <time>2020-11-16T16:30:53Z</time>
      </trkpt>
      <trkpt lat="28.7893280" lon="-17.8979450">
        <ele>1282.9</ele>
        <time>2020-11-16T16:30:54Z</time>
      </trkpt>
      <trkpt lat="28.7893280" lon="-17.8979450">
        <ele>1282.9</ele>
        <time>2020-11-16T16:30:55Z</time>
      </trkpt>
      <trkpt lat="28.7893250" lon="-17.8979770">
        <ele>1283.2</ele>
        <time>2020-11-16T16:30:56Z</time>
      </trkpt>
      <trkpt lat="28.7893250" lon="-17.8979770">
        <ele>1283.2</ele>
        <time>2020-11-16T16:30:57Z</time>
      </trkpt>
      <trkpt lat="28.7893330" lon="-17.8980030">
        <ele>1283.5</ele>
        <time>2020-11-16T16:30:58Z</time>
      </trkpt>
      <trkpt lat="28.7893330" lon="-17.8980030">
        <ele>1283.5</ele>
        <time>2020-11-16T16:30:59Z</time>
      </trkpt>
      <trkpt lat="28.7893480" lon="-17.8980300">
        <ele>1283.8</ele>
        <time>2020-11-16T16:31:00Z</time>
      </trkpt>
      <trkpt lat="28.7893480" lon="-17.8980300">
        <ele>1283.8</ele>
        <time>2020-11-16T16:31:01Z</time>
      </trkpt>
      <trkpt lat="28.7893630" lon="-17.8980530">
        <ele>1284.0</ele>
        <time>2020-11-16T16:31:02Z</time>
      </trkpt>
      <trkpt lat="28.7893630" lon="-17.8980530">
        <ele>1284.0</ele>
        <time>2020-11-16T16:31:03Z</time>
      </trkpt>
      <trkpt lat="28.7893950" lon="-17.8980770">
        <ele>1284.4</ele>
        <time>2020-11-16T16:31:04Z</time>
      </trkpt>
      <trkpt lat="28.7893950" lon="-17.8980770">
        <ele>1284.4</ele>
        <time>2020-11-16T16:31:05Z</time>
      </trkpt>
      <trkpt lat="28.7894270" lon="-17.8981050">
        <ele>1284.9</ele>
        <time>2020-11-16T16:31:06Z</time>
      </trkpt>
      <trkpt lat="28.7894350" lon="-17.8981200">
        <ele>1285.1</ele>
        <time>2020-11-16T16:31:07Z</time>
      </trkpt>
      <trkpt lat="28.7894350" lon="-17.8981200">
        <ele>1285.1</ele>
        <time>2020-11-16T16:31:08Z</time>
      </trkpt>
      <trkpt lat="28.7894630" lon="-17.8981480">
        <ele>1285.5</ele>
        <time>2020-11-16T16:31:09Z</time>
      </trkpt>
      <trkpt lat="28.7894800" lon="-17.8981650">
        <ele>1285.7</ele>
        <time>2020-11-16T16:31:10Z</time>
      </trkpt>
      <trkpt lat="28.7894800" lon="-17.8981650">
        <ele>1285.7</ele>
        <time>2020-11-16T16:31:11Z</time>
      </trkpt>
      <trkpt lat="28.7895230" lon="-17.8982120">
        <ele>1286.3</ele>
        <time>2020-11-16T16:31:12Z</time>
      </trkpt>
      <trkpt lat="28.7895230" lon="-17.8982120">
        <ele>1286.3</ele>
        <time>2020-11-16T16:31:13Z</time>
      </trkpt>
      <trkpt lat="28.7895450" lon="-17.8982220">
        <ele>1286.5</ele>
        <time>2020-11-16T16:31:14Z</time>
      </trkpt>
      <trkpt lat="28.7895450" lon="-17.8982220">
        <ele>1286.5</ele>
        <time>2020-11-16T16:31:15Z</time>
      </trkpt>
      <trkpt lat="28.7895550" lon="-17.8982300">
        <ele>1286.6</ele>
        <time>2020-11-16T16:31:16Z</time>
      </trkpt>
      <trkpt lat="28.7895670" lon="-17.8982370">
        <ele>1286.7</ele>
        <time>2020-11-16T16:31:17Z</time>
      </trkpt>
      <trkpt lat="28.7895670" lon="-17.8982370">
        <ele>1286.7</ele>
        <time>2020-11-16T16:31:18Z</time>
      </trkpt>
      <trkpt lat="28.7895870" lon="-17.8982500">
        <ele>1286.9</ele>
        <time>2020-11-16T16:31:19Z</time>
      </trkpt>
      <trkpt lat="28.7895870" lon="-17.8982500">
        <ele>1286.9</ele>
        <time>2020-11-16T16:31:20Z</time>
      </trkpt>
      <trkpt lat="28.7896120" lon="-17.8982680">
        <ele>1287.1</ele>
        <time>2020-11-16T16:31:21Z</time>
      </trkpt>
      <trkpt lat="28.7896120" lon="-17.8982680">
        <ele>1287.1</ele>
        <time>2020-11-16T16:31:22Z</time>
      </trkpt>
      <trkpt lat="28.7896280" lon="-17.8983050">
        <ele>1287.4</ele>
        <time>2020-11-16T16:31:23Z</time>
      </trkpt>
      <trkpt lat="28.7896280" lon="-17.8983050">
        <ele>1287.4</ele>
        <time>2020-11-16T16:31:24Z</time>
      </trkpt>
      <trkpt lat="28.7896420" lon="-17.8983500">
        <ele>1287.7</ele>
        <time>2020-11-16T16:31:25Z</time>
      </trkpt>
      <trkpt lat="28.7896450" lon="-17.8983730">
        <ele>1287.9</ele>
        <time>2020-11-16T16:31:26Z</time>
      </trkpt>
      <trkpt lat="28.7896450" lon="-17.8983730">
        <ele>1287.9</ele>
        <time>2020-11-16T16:31:27Z</time>
      </trkpt>
      <trkpt lat="28.7896450" lon="-17.8984150">
        <ele>1288.2</ele>
        <time>2020-11-16T16:31:28Z</time>
      </trkpt>
      <trkpt lat="28.7896450" lon="-17.8984150">
        <ele>1288.2</ele>
        <time>2020-11-16T16:31:29Z</time>
      </trkpt>
      <trkpt lat="28.7896280" lon="-17.8984520">
        <ele>1288.5</ele>
        <time>2020-11-16T16:31:30Z</time>
      </trkpt>
      <trkpt lat="28.7896220" lon="-17.8984700">
        <ele>1288.6</ele>
        <time>2020-11-16T16:31:31Z</time>
      </trkpt>
      <trkpt lat="28.7896220" lon="-17.8984700">
        <ele>1288.6</ele>
        <time>2020-11-16T16:31:32Z</time>
      </trkpt>
      <trkpt lat="28.7896030" lon="-17.8985020">
        <ele>1288.8</ele>
        <time>2020-11-16T16:31:33Z</time>
      </trkpt>
      <trkpt lat="28.7896030" lon="-17.8985020">
        <ele>1288.8</ele>
        <time>2020-11-16T16:31:34Z</time>
      </trkpt>
      <trkpt lat="28.7895870" lon="-17.8985250">
        <ele>1289.0</ele>
        <time>2020-11-16T16:31:35Z</time>
      </trkpt>
      <trkpt lat="28.7895870" lon="-17.8985250">
        <ele>1289.0</ele>
        <time>2020-11-16T16:31:36Z</time>
      </trkpt>
      <trkpt lat="28.7895680" lon="-17.8985570">
        <ele>1289.2</ele>
        <time>2020-11-16T16:31:37Z</time>
      </trkpt>
      <trkpt lat="28.7895680" lon="-17.8985570">
        <ele>1289.2</ele>
        <time>2020-11-16T16:31:38Z</time>
      </trkpt>
      <trkpt lat="28.7895500" lon="-17.8985820">
        <ele>1289.3</ele>
        <time>2020-11-16T16:31:39Z</time>
      </trkpt>
      <trkpt lat="28.7895500" lon="-17.8985820">
        <ele>1289.3</ele>
        <time>2020-11-16T16:31:40Z</time>
      </trkpt>
      <trkpt lat="28.7895270" lon="-17.8986070">
        <ele>1289.5</ele>
        <time>2020-11-16T16:31:41Z</time>
      </trkpt>
      <trkpt lat="28.7895270" lon="-17.8986070">
        <ele>1289.5</ele>
        <time>2020-11-16T16:31:42Z</time>
      </trkpt>
      <trkpt lat="28.7894930" lon="-17.8986370">
        <ele>1289.7</ele>
        <time>2020-11-16T16:31:43Z</time>
      </trkpt>
      <trkpt lat="28.7894750" lon="-17.8986520">
        <ele>1289.8</ele>
        <time>2020-11-16T16:31:44Z</time>
      </trkpt>
      <trkpt lat="28.7894580" lon="-17.8986630">
        <ele>1289.8</ele>
        <time>2020-11-16T16:31:45Z</time>
      </trkpt>
      <trkpt lat="28.7894580" lon="-17.8986630">
        <ele>1289.8</ele>
        <time>2020-11-16T16:31:46Z</time>
      </trkpt>
      <trkpt lat="28.7894250" lon="-17.8986920">
        <ele>1290.0</ele>
        <time>2020-11-16T16:31:47Z</time>
      </trkpt>
      <trkpt lat="28.7894250" lon="-17.8986920">
        <ele>1290.0</ele>
        <time>2020-11-16T16:31:48Z</time>
      </trkpt>
      <trkpt lat="28.7893870" lon="-17.8987200">
        <ele>1290.1</ele>
        <time>2020-11-16T16:31:49Z</time>
      </trkpt>
      <trkpt lat="28.7893700" lon="-17.8987350">
        <ele>1290.1</ele>
        <time>2020-11-16T16:31:50Z</time>
      </trkpt>
      <trkpt lat="28.7893700" lon="-17.8987350">
        <ele>1290.1</ele>
        <time>2020-11-16T16:31:51Z</time>
      </trkpt>
      <trkpt lat="28.7893350" lon="-17.8987630">
        <ele>1290.3</ele>
        <time>2020-11-16T16:31:52Z</time>
      </trkpt>
      <trkpt lat="28.7893170" lon="-17.8987770">
        <ele>1290.3</ele>
        <time>2020-11-16T16:31:53Z</time>
      </trkpt>
      <trkpt lat="28.7893170" lon="-17.8987770">
        <ele>1290.3</ele>
        <time>2020-11-16T16:31:54Z</time>
      </trkpt>
      <trkpt lat="28.7892850" lon="-17.8988070">
        <ele>1290.4</ele>
        <time>2020-11-16T16:31:55Z</time>
      </trkpt>
      <trkpt lat="28.7892850" lon="-17.8988070">
        <ele>1290.4</ele>
        <time>2020-11-16T16:31:56Z</time>
      </trkpt>
      <trkpt lat="28.7892500" lon="-17.8988270">
        <ele>1290.6</ele>
        <time>2020-11-16T16:31:57Z</time>
      </trkpt>
      <trkpt lat="28.7892250" lon="-17.8988400">
        <ele>1290.7</ele>
        <time>2020-11-16T16:31:58Z</time>
      </trkpt>
      <trkpt lat="28.7892250" lon="-17.8988400">
        <ele>1290.7</ele>
        <time>2020-11-16T16:31:59Z</time>
      </trkpt>
      <trkpt lat="28.7891820" lon="-17.8988700">
        <ele>1290.9</ele>
        <time>2020-11-16T16:32:00Z</time>
      </trkpt>
      <trkpt lat="28.7891820" lon="-17.8988700">
        <ele>1290.9</ele>
        <time>2020-11-16T16:32:01Z</time>
      </trkpt>
      <trkpt lat="28.7891520" lon="-17.8988950">
        <ele>1291.1</ele>
        <time>2020-11-16T16:32:02Z</time>
      </trkpt>
      <trkpt lat="28.7891520" lon="-17.8988950">
        <ele>1291.1</ele>
        <time>2020-11-16T16:32:03Z</time>
      </trkpt>
      <trkpt lat="28.7891200" lon="-17.8989270">
        <ele>1291.2</ele>
        <time>2020-11-16T16:32:04Z</time>
      </trkpt>
      <trkpt lat="28.7891200" lon="-17.8989270">
        <ele>1291.2</ele>
        <time>2020-11-16T16:32:05Z</time>
      </trkpt>
      <trkpt lat="28.7890980" lon="-17.8989570">
        <ele>1291.4</ele>
        <time>2020-11-16T16:32:06Z</time>
      </trkpt>
      <trkpt lat="28.7890920" lon="-17.8989720">
        <ele>1291.4</ele>
        <time>2020-11-16T16:32:07Z</time>
      </trkpt>
      <trkpt lat="28.7890820" lon="-17.8989930">
        <ele>1291.5</ele>
        <time>2020-11-16T16:32:08Z</time>
      </trkpt>
      <trkpt lat="28.7890820" lon="-17.8989930">
        <ele>1291.5</ele>
        <time>2020-11-16T16:32:09Z</time>
      </trkpt>
      <trkpt lat="28.7890580" lon="-17.8990730">
        <ele>1291.6</ele>
        <time>2020-11-16T16:32:10Z</time>
      </trkpt>
      <trkpt lat="28.7890430" lon="-17.8991120">
        <ele>1291.7</ele>
        <time>2020-11-16T16:32:11Z</time>
      </trkpt>
      <trkpt lat="28.7890430" lon="-17.8991120">
        <ele>1291.7</ele>
        <time>2020-11-16T16:32:12Z</time>
      </trkpt>
      <trkpt lat="28.7890050" lon="-17.8991870">
        <ele>1291.7</ele>
        <time>2020-11-16T16:32:13Z</time>
      </trkpt>
      <trkpt lat="28.7890170" lon="-17.8992170">
        <ele>1291.6</ele>
        <time>2020-11-16T16:32:14Z</time>
      </trkpt>
      <trkpt lat="28.7890170" lon="-17.8992170">
        <ele>1291.6</ele>
        <time>2020-11-16T16:32:15Z</time>
      </trkpt>
      <trkpt lat="28.7890580" lon="-17.8992800">
        <ele>1291.5</ele>
        <time>2020-11-16T16:32:16Z</time>
      </trkpt>
      <trkpt lat="28.7890580" lon="-17.8992800">
        <ele>1291.5</ele>
        <time>2020-11-16T16:32:17Z</time>
      </trkpt>
      <trkpt lat="28.7891050" lon="-17.8993350">
        <ele>1291.3</ele>
        <time>2020-11-16T16:32:18Z</time>
      </trkpt>
      <trkpt lat="28.7891050" lon="-17.8993350">
        <ele>1291.3</ele>
        <time>2020-11-16T16:32:19Z</time>
      </trkpt>
      <trkpt lat="28.7891630" lon="-17.8993830">
        <ele>1291.1</ele>
        <time>2020-11-16T16:32:20Z</time>
      </trkpt>
      <trkpt lat="28.7891630" lon="-17.8993830">
        <ele>1291.1</ele>
        <time>2020-11-16T16:32:21Z</time>
      </trkpt>
      <trkpt lat="28.7892170" lon="-17.8994470">
        <ele>1290.9</ele>
        <time>2020-11-16T16:32:22Z</time>
      </trkpt>
      <trkpt lat="28.7892430" lon="-17.8994770">
        <ele>1290.9</ele>
        <time>2020-11-16T16:32:23Z</time>
      </trkpt>
      <trkpt lat="28.7892430" lon="-17.8994770">
        <ele>1290.9</ele>
        <time>2020-11-16T16:32:24Z</time>
      </trkpt>
      <trkpt lat="28.7892930" lon="-17.8995350">
        <ele>1290.8</ele>
        <time>2020-11-16T16:32:25Z</time>
      </trkpt>
      <trkpt lat="28.7893070" lon="-17.8995770">
        <ele>1290.8</ele>
        <time>2020-11-16T16:32:26Z</time>
      </trkpt>
      <trkpt lat="28.7893070" lon="-17.8995770">
        <ele>1290.8</ele>
        <time>2020-11-16T16:32:27Z</time>
      </trkpt>
      <trkpt lat="28.7893220" lon="-17.8996530">
        <ele>1290.8</ele>
        <time>2020-11-16T16:32:28Z</time>
      </trkpt>
      <trkpt lat="28.7893220" lon="-17.8996530">
        <ele>1290.8</ele>
        <time>2020-11-16T16:32:29Z</time>
      </trkpt>
      <trkpt lat="28.7893080" lon="-17.8997320">
        <ele>1290.8</ele>
        <time>2020-11-16T16:32:30Z</time>
      </trkpt>
      <trkpt lat="28.7893080" lon="-17.8997320">
        <ele>1290.8</ele>
        <time>2020-11-16T16:32:31Z</time>
      </trkpt>
      <trkpt lat="28.7892670" lon="-17.8997780">
        <ele>1290.9</ele>
        <time>2020-11-16T16:32:32Z</time>
      </trkpt>
      <trkpt lat="28.7892670" lon="-17.8997780">
        <ele>1290.9</ele>
        <time>2020-11-16T16:32:33Z</time>
      </trkpt>
      <trkpt lat="28.7892050" lon="-17.8997930">
        <ele>1290.9</ele>
        <time>2020-11-16T16:32:34Z</time>
      </trkpt>
      <trkpt lat="28.7892050" lon="-17.8997930">
        <ele>1290.9</ele>
        <time>2020-11-16T16:32:35Z</time>
      </trkpt>
      <trkpt lat="28.7891420" lon="-17.8997830">
        <ele>1290.9</ele>
        <time>2020-11-16T16:32:36Z</time>
      </trkpt>
      <trkpt lat="28.7891420" lon="-17.8997830">
        <ele>1290.9</ele>
        <time>2020-11-16T16:32:37Z</time>
      </trkpt>
      <trkpt lat="28.7890700" lon="-17.8997550">
        <ele>1290.8</ele>
        <time>2020-11-16T16:32:38Z</time>
      </trkpt>
      <trkpt lat="28.7890420" lon="-17.8997350">
        <ele>1290.7</ele>
        <time>2020-11-16T16:32:39Z</time>
      </trkpt>
      <trkpt lat="28.7890420" lon="-17.8997350">
        <ele>1290.7</ele>
        <time>2020-11-16T16:32:40Z</time>
      </trkpt>
      <trkpt lat="28.7889830" lon="-17.8997050">
        <ele>1290.5</ele>
        <time>2020-11-16T16:32:41Z</time>
      </trkpt>
      <trkpt lat="28.7889830" lon="-17.8997050">
        <ele>1290.5</ele>
        <time>2020-11-16T16:32:42Z</time>
      </trkpt>
      <trkpt lat="28.7889150" lon="-17.8996880">
        <ele>1290.3</ele>
        <time>2020-11-16T16:32:43Z</time>
      </trkpt>
      <trkpt lat="28.7888880" lon="-17.8996830">
        <ele>1290.2</ele>
        <time>2020-11-16T16:32:44Z</time>
      </trkpt>
      <trkpt lat="28.7888880" lon="-17.8996830">
        <ele>1290.2</ele>
        <time>2020-11-16T16:32:45Z</time>
      </trkpt>
      <trkpt lat="28.7888270" lon="-17.8996720">
        <ele>1289.9</ele>
        <time>2020-11-16T16:32:46Z</time>
      </trkpt>
      <trkpt lat="28.7888000" lon="-17.8996770">
        <ele>1289.8</ele>
        <time>2020-11-16T16:32:47Z</time>
      </trkpt>
      <trkpt lat="28.7887720" lon="-17.8996820">
        <ele>1289.7</ele>
        <time>2020-11-16T16:32:48Z</time>
      </trkpt>
      <trkpt lat="28.7887720" lon="-17.8996820">
        <ele>1289.7</ele>
        <time>2020-11-16T16:32:49Z</time>
      </trkpt>
      <trkpt lat="28.7887070" lon="-17.8997000">
        <ele>1289.5</ele>
        <time>2020-11-16T16:32:50Z</time>
      </trkpt>
      <trkpt lat="28.7887070" lon="-17.8997000">
        <ele>1289.5</ele>
        <time>2020-11-16T16:32:51Z</time>
      </trkpt>
      <trkpt lat="28.7886580" lon="-17.8997400">
        <ele>1289.4</ele>
        <time>2020-11-16T16:32:52Z</time>
      </trkpt>
      <trkpt lat="28.7886370" lon="-17.8997800">
        <ele>1289.3</ele>
        <time>2020-11-16T16:32:53Z</time>
      </trkpt>
      <trkpt lat="28.7886370" lon="-17.8997800">
        <ele>1289.3</ele>
        <time>2020-11-16T16:32:54Z</time>
      </trkpt>
      <trkpt lat="28.7886480" lon="-17.8998770">
        <ele>1289.1</ele>
        <time>2020-11-16T16:32:55Z</time>
      </trkpt>
      <trkpt lat="28.7886480" lon="-17.8998770">
        <ele>1289.1</ele>
        <time>2020-11-16T16:32:56Z</time>
      </trkpt>
      <trkpt lat="28.7887000" lon="-17.8999550">
        <ele>1288.8</ele>
        <time>2020-11-16T16:32:57Z</time>
      </trkpt>
      <trkpt lat="28.7887000" lon="-17.8999550">
        <ele>1288.8</ele>
        <time>2020-11-16T16:32:58Z</time>
      </trkpt>
      <trkpt lat="28.7887580" lon="-17.9000220">
        <ele>1288.4</ele>
        <time>2020-11-16T16:32:59Z</time>
      </trkpt>
      <trkpt lat="28.7887580" lon="-17.9000220">
        <ele>1288.4</ele>
        <time>2020-11-16T16:33:00Z</time>
      </trkpt>
      <trkpt lat="28.7887930" lon="-17.9001130">
        <ele>1287.9</ele>
        <time>2020-11-16T16:33:01Z</time>
      </trkpt>
      <trkpt lat="28.7887920" lon="-17.9001730">
        <ele>1287.6</ele>
        <time>2020-11-16T16:33:02Z</time>
      </trkpt>
      <trkpt lat="28.7887920" lon="-17.9001730">
        <ele>1287.6</ele>
        <time>2020-11-16T16:33:03Z</time>
      </trkpt>
      <trkpt lat="28.7887830" lon="-17.9002980">
        <ele>1287.0</ele>
        <time>2020-11-16T16:33:04Z</time>
      </trkpt>
      <trkpt lat="28.7887830" lon="-17.9002980">
        <ele>1287.0</ele>
        <time>2020-11-16T16:33:05Z</time>
      </trkpt>
      <trkpt lat="28.7887680" lon="-17.9004180">
        <ele>1286.6</ele>
        <time>2020-11-16T16:33:06Z</time>
      </trkpt>
      <trkpt lat="28.7887680" lon="-17.9004180">
        <ele>1286.6</ele>
        <time>2020-11-16T16:33:07Z</time>
      </trkpt>
      <trkpt lat="28.7887750" lon="-17.9005450">
        <ele>1285.9</ele>
        <time>2020-11-16T16:33:08Z</time>
      </trkpt>
      <trkpt lat="28.7887750" lon="-17.9005450">
        <ele>1285.9</ele>
        <time>2020-11-16T16:33:09Z</time>
      </trkpt>
      <trkpt lat="28.7888080" lon="-17.9006530">
        <ele>1285.2</ele>
        <time>2020-11-16T16:33:10Z</time>
      </trkpt>
      <trkpt lat="28.7888320" lon="-17.9007050">
        <ele>1284.9</ele>
        <time>2020-11-16T16:33:11Z</time>
      </trkpt>
      <trkpt lat="28.7888320" lon="-17.9007050">
        <ele>1284.9</ele>
        <time>2020-11-16T16:33:12Z</time>
      </trkpt>
      <trkpt lat="28.7888730" lon="-17.9007970">
        <ele>1284.4</ele>
        <time>2020-11-16T16:33:13Z</time>
      </trkpt>
      <trkpt lat="28.7888850" lon="-17.9008370">
        <ele>1284.2</ele>
        <time>2020-11-16T16:33:14Z</time>
      </trkpt>
      <trkpt lat="28.7888850" lon="-17.9008370">
        <ele>1284.2</ele>
        <time>2020-11-16T16:33:15Z</time>
      </trkpt>
      <trkpt lat="28.7889270" lon="-17.9009380">
        <ele>1283.9</ele>
        <time>2020-11-16T16:33:16Z</time>
      </trkpt>
      <trkpt lat="28.7889270" lon="-17.9009380">
        <ele>1283.9</ele>
        <time>2020-11-16T16:33:17Z</time>
      </trkpt>
      <trkpt lat="28.7889470" lon="-17.9010450">
        <ele>1283.7</ele>
        <time>2020-11-16T16:33:18Z</time>
      </trkpt>
      <trkpt lat="28.7889470" lon="-17.9010450">
        <ele>1283.7</ele>
        <time>2020-11-16T16:33:19Z</time>
      </trkpt>
      <trkpt lat="28.7889150" lon="-17.9011380">
        <ele>1283.5</ele>
        <time>2020-11-16T16:33:20Z</time>
      </trkpt>
      <trkpt lat="28.7889150" lon="-17.9011380">
        <ele>1283.5</ele>
        <time>2020-11-16T16:33:21Z</time>
      </trkpt>
      <trkpt lat="28.7888570" lon="-17.9012180">
        <ele>1283.1</ele>
        <time>2020-11-16T16:33:22Z</time>
      </trkpt>
      <trkpt lat="28.7888570" lon="-17.9012180">
        <ele>1283.1</ele>
        <time>2020-11-16T16:33:23Z</time>
      </trkpt>
      <trkpt lat="28.7887780" lon="-17.9012850">
        <ele>1282.7</ele>
        <time>2020-11-16T16:33:24Z</time>
      </trkpt>
      <trkpt lat="28.7887780" lon="-17.9012850">
        <ele>1282.7</ele>
        <time>2020-11-16T16:33:25Z</time>
      </trkpt>
      <trkpt lat="28.7886870" lon="-17.9013250">
        <ele>1282.2</ele>
        <time>2020-11-16T16:33:26Z</time>
      </trkpt>
      <trkpt lat="28.7886870" lon="-17.9013250">
        <ele>1282.2</ele>
        <time>2020-11-16T16:33:27Z</time>
      </trkpt>
      <trkpt lat="28.7885980" lon="-17.9013520">
        <ele>1281.8</ele>
        <time>2020-11-16T16:33:28Z</time>
      </trkpt>
      <trkpt lat="28.7885580" lon="-17.9013600">
        <ele>1281.6</ele>
        <time>2020-11-16T16:33:29Z</time>
      </trkpt>
      <trkpt lat="28.7885580" lon="-17.9013600">
        <ele>1281.6</ele>
        <time>2020-11-16T16:33:30Z</time>
      </trkpt>
      <trkpt lat="28.7884780" lon="-17.9013580">
        <ele>1281.0</ele>
        <time>2020-11-16T16:33:31Z</time>
      </trkpt>
      <trkpt lat="28.7884430" lon="-17.9013530">
        <ele>1280.7</ele>
        <time>2020-11-16T16:33:32Z</time>
      </trkpt>
      <trkpt lat="28.7884430" lon="-17.9013530">
        <ele>1280.7</ele>
        <time>2020-11-16T16:33:33Z</time>
      </trkpt>
      <trkpt lat="28.7883550" lon="-17.9013530">
        <ele>1279.9</ele>
        <time>2020-11-16T16:33:34Z</time>
      </trkpt>
      <trkpt lat="28.7883550" lon="-17.9013530">
        <ele>1279.9</ele>
        <time>2020-11-16T16:33:35Z</time>
      </trkpt>
      <trkpt lat="28.7882600" lon="-17.9013580">
        <ele>1279.0</ele>
        <time>2020-11-16T16:33:36Z</time>
      </trkpt>
      <trkpt lat="28.7882600" lon="-17.9013580">
        <ele>1279.0</ele>
        <time>2020-11-16T16:33:37Z</time>
      </trkpt>
      <trkpt lat="28.7881700" lon="-17.9013620">
        <ele>1278.2</ele>
        <time>2020-11-16T16:33:38Z</time>
      </trkpt>
      <trkpt lat="28.7881700" lon="-17.9013620">
        <ele>1278.2</ele>
        <time>2020-11-16T16:33:39Z</time>
      </trkpt>
      <trkpt lat="28.7880730" lon="-17.9013600">
        <ele>1277.4</ele>
        <time>2020-11-16T16:33:40Z</time>
      </trkpt>
      <trkpt lat="28.7880730" lon="-17.9013600">
        <ele>1277.4</ele>
        <time>2020-11-16T16:33:41Z</time>
      </trkpt>
      <trkpt lat="28.7879720" lon="-17.9013720">
        <ele>1276.8</ele>
        <time>2020-11-16T16:33:42Z</time>
      </trkpt>
      <trkpt lat="28.7879720" lon="-17.9013720">
        <ele>1276.8</ele>
        <time>2020-11-16T16:33:43Z</time>
      </trkpt>
      <trkpt lat="28.7878880" lon="-17.9013780">
        <ele>1276.4</ele>
        <time>2020-11-16T16:33:44Z</time>
      </trkpt>
      <trkpt lat="28.7878880" lon="-17.9013780">
        <ele>1276.4</ele>
        <time>2020-11-16T16:33:45Z</time>
      </trkpt>
      <trkpt lat="28.7878000" lon="-17.9013880">
        <ele>1276.0</ele>
        <time>2020-11-16T16:33:46Z</time>
      </trkpt>
      <trkpt lat="28.7878000" lon="-17.9013880">
        <ele>1276.0</ele>
        <time>2020-11-16T16:33:47Z</time>
      </trkpt>
      <trkpt lat="28.7877170" lon="-17.9014380">
        <ele>1275.4</ele>
        <time>2020-11-16T16:33:48Z</time>
      </trkpt>
      <trkpt lat="28.7877170" lon="-17.9014380">
        <ele>1275.4</ele>
        <time>2020-11-16T16:33:49Z</time>
      </trkpt>
      <trkpt lat="28.7876280" lon="-17.9014680">
        <ele>1274.6</ele>
        <time>2020-11-16T16:33:50Z</time>
      </trkpt>
      <trkpt lat="28.7876280" lon="-17.9014680">
        <ele>1274.6</ele>
        <time>2020-11-16T16:33:51Z</time>
      </trkpt>
      <trkpt lat="28.7875300" lon="-17.9014980">
        <ele>1273.8</ele>
        <time>2020-11-16T16:33:52Z</time>
      </trkpt>
      <trkpt lat="28.7875300" lon="-17.9014980">
        <ele>1273.8</ele>
        <time>2020-11-16T16:33:53Z</time>
      </trkpt>
      <trkpt lat="28.7874380" lon="-17.9015130">
        <ele>1273.2</ele>
        <time>2020-11-16T16:33:54Z</time>
      </trkpt>
      <trkpt lat="28.7874380" lon="-17.9015130">
        <ele>1273.2</ele>
        <time>2020-11-16T16:33:55Z</time>
      </trkpt>
      <trkpt lat="28.7873450" lon="-17.9015330">
        <ele>1272.7</ele>
        <time>2020-11-16T16:33:56Z</time>
      </trkpt>
      <trkpt lat="28.7873450" lon="-17.9015330">
        <ele>1272.7</ele>
        <time>2020-11-16T16:33:57Z</time>
      </trkpt>
      <trkpt lat="28.7872700" lon="-17.9015570">
        <ele>1272.4</ele>
        <time>2020-11-16T16:33:58Z</time>
      </trkpt>
      <trkpt lat="28.7872350" lon="-17.9015730">
        <ele>1272.2</ele>
        <time>2020-11-16T16:33:59Z</time>
      </trkpt>
      <trkpt lat="28.7872350" lon="-17.9015730">
        <ele>1272.2</ele>
        <time>2020-11-16T16:34:00Z</time>
      </trkpt>
      <trkpt lat="28.7871650" lon="-17.9016120">
        <ele>1271.9</ele>
        <time>2020-11-16T16:34:01Z</time>
      </trkpt>
      <trkpt lat="28.7871650" lon="-17.9016120">
        <ele>1271.9</ele>
        <time>2020-11-16T16:34:02Z</time>
      </trkpt>
      <trkpt lat="28.7871080" lon="-17.9016680">
        <ele>1271.6</ele>
        <time>2020-11-16T16:34:03Z</time>
      </trkpt>
      <trkpt lat="28.7871080" lon="-17.9016680">
        <ele>1271.6</ele>
        <time>2020-11-16T16:34:04Z</time>
      </trkpt>
      <trkpt lat="28.7870730" lon="-17.9017320">
        <ele>1271.4</ele>
        <time>2020-11-16T16:34:05Z</time>
      </trkpt>
      <trkpt lat="28.7870730" lon="-17.9017320">
        <ele>1271.4</ele>
        <time>2020-11-16T16:34:06Z</time>
      </trkpt>
      <trkpt lat="28.7870830" lon="-17.9018170">
        <ele>1271.1</ele>
        <time>2020-11-16T16:34:07Z</time>
      </trkpt>
      <trkpt lat="28.7870830" lon="-17.9018170">
        <ele>1271.1</ele>
        <time>2020-11-16T16:34:08Z</time>
      </trkpt>
      <trkpt lat="28.7870920" lon="-17.9018620">
        <ele>1271.0</ele>
        <time>2020-11-16T16:34:09Z</time>
      </trkpt>
      <trkpt lat="28.7870920" lon="-17.9018620">
        <ele>1271.0</ele>
        <time>2020-11-16T16:34:10Z</time>
      </trkpt>
      <trkpt lat="28.7871150" lon="-17.9018700">
        <ele>1270.9</ele>
        <time>2020-11-16T16:34:11Z</time>
      </trkpt>
      <trkpt lat="28.7871150" lon="-17.9018700">
        <ele>1270.9</ele>
        <time>2020-11-16T16:34:12Z</time>
      </trkpt>
      <trkpt lat="28.7871530" lon="-17.9018650">
        <ele>1270.8</ele>
        <time>2020-11-16T16:34:13Z</time>
      </trkpt>
      <trkpt lat="28.7871750" lon="-17.9018520">
        <ele>1270.8</ele>
        <time>2020-11-16T16:34:14Z</time>
      </trkpt>
      <trkpt lat="28.7871750" lon="-17.9018520">
        <ele>1270.8</ele>
        <time>2020-11-16T16:34:15Z</time>
      </trkpt>
      <trkpt lat="28.7871870" lon="-17.9018170">
        <ele>1270.9</ele>
        <time>2020-11-16T16:34:16Z</time>
      </trkpt>
      <trkpt lat="28.7871870" lon="-17.9018170">
        <ele>1270.9</ele>
        <time>2020-11-16T16:34:17Z</time>
      </trkpt>
      <trkpt lat="28.7872150" lon="-17.9018030">
        <ele>1271.0</ele>
        <time>2020-11-16T16:34:18Z</time>
      </trkpt>
      <trkpt lat="28.7872150" lon="-17.9018030">
        <ele>1271.0</ele>
        <time>2020-11-16T16:34:19Z</time>
      </trkpt>
      <trkpt lat="28.7872530" lon="-17.9018070">
        <ele>1271.2</ele>
        <time>2020-11-16T16:34:20Z</time>
      </trkpt>
      <trkpt lat="28.7872530" lon="-17.9018070">
        <ele>1271.2</ele>
        <time>2020-11-16T16:34:21Z</time>
      </trkpt>
      <trkpt lat="28.7872880" lon="-17.9018470">
        <ele>1271.5</ele>
        <time>2020-11-16T16:34:22Z</time>
      </trkpt>
      <trkpt lat="28.7872880" lon="-17.9018470">
        <ele>1271.5</ele>
        <time>2020-11-16T16:34:23Z</time>
      </trkpt>
      <trkpt lat="28.7873230" lon="-17.9018920">
        <ele>1271.8</ele>
        <time>2020-11-16T16:34:24Z</time>
      </trkpt>
      <trkpt lat="28.7873230" lon="-17.9018920">
        <ele>1271.8</ele>
        <time>2020-11-16T16:34:25Z</time>
      </trkpt>
      <trkpt lat="28.7873630" lon="-17.9019320">
        <ele>1272.2</ele>
        <time>2020-11-16T16:34:26Z</time>
      </trkpt>
      <trkpt lat="28.7873630" lon="-17.9019320">
        <ele>1272.2</ele>
        <time>2020-11-16T16:34:27Z</time>
      </trkpt>
      <trkpt lat="28.7874030" lon="-17.9019550">
        <ele>1272.5</ele>
        <time>2020-11-16T16:34:28Z</time>
      </trkpt>
      <trkpt lat="28.7874030" lon="-17.9019550">
        <ele>1272.5</ele>
        <time>2020-11-16T16:34:29Z</time>
      </trkpt>
      <trkpt lat="28.7874400" lon="-17.9019770">
        <ele>1272.8</ele>
        <time>2020-11-16T16:34:30Z</time>
      </trkpt>
      <trkpt lat="28.7874550" lon="-17.9019850">
        <ele>1272.9</ele>
        <time>2020-11-16T16:34:31Z</time>
      </trkpt>
      <trkpt lat="28.7874620" lon="-17.9019870">
        <ele>1273.0</ele>
        <time>2020-11-16T16:34:32Z</time>
      </trkpt>
      <trkpt lat="28.7874620" lon="-17.9019870">
        <ele>1273.0</ele>
        <time>2020-11-16T16:34:33Z</time>
      </trkpt>
      <trkpt lat="28.7874680" lon="-17.9019770">
        <ele>1273.0</ele>
        <time>2020-11-16T16:34:34Z</time>
      </trkpt>
      <trkpt lat="28.7874680" lon="-17.9019770">
        <ele>1273.0</ele>
        <time>2020-11-16T16:34:35Z</time>
      </trkpt>
      <trkpt lat="28.7874680" lon="-17.9019770">
        <ele>1273.0</ele>
        <time>2020-11-16T16:36:02Z</time>
      </trkpt>
      <trkpt lat="28.7874980" lon="-17.9019880">
        <ele>1273.3</ele>
        <time>2020-11-16T16:36:03Z</time>
      </trkpt>
      <trkpt lat="28.7874980" lon="-17.9019880">
        <ele>1273.3</ele>
        <time>2020-11-16T16:36:04Z</time>
      </trkpt>
      <trkpt lat="28.7875080" lon="-17.9020050">
        <ele>1273.4</ele>
        <time>2020-11-16T16:36:05Z</time>
      </trkpt>
      <trkpt lat="28.7875080" lon="-17.9020050">
        <ele>1273.4</ele>
        <time>2020-11-16T16:36:06Z</time>
      </trkpt>
      <trkpt lat="28.7875230" lon="-17.9020180">
        <ele>1273.6</ele>
        <time>2020-11-16T16:36:07Z</time>
      </trkpt>
      <trkpt lat="28.7875230" lon="-17.9020180">
        <ele>1273.6</ele>
        <time>2020-11-16T16:36:08Z</time>
      </trkpt>
      <trkpt lat="28.7875400" lon="-17.9020270">
        <ele>1273.7</ele>
        <time>2020-11-16T16:36:09Z</time>
      </trkpt>
      <trkpt lat="28.7875400" lon="-17.9020270">
        <ele>1273.7</ele>
        <time>2020-11-16T16:36:10Z</time>
      </trkpt>
      <trkpt lat="28.7875480" lon="-17.9020380">
        <ele>1273.8</ele>
        <time>2020-11-16T16:36:11Z</time>
      </trkpt>
      <trkpt lat="28.7875480" lon="-17.9020380">
        <ele>1273.8</ele>
        <time>2020-11-16T16:36:42Z</time>
      </trkpt>
      <trkpt lat="28.7875480" lon="-17.9020380">
        <ele>1273.8</ele>
        <time>2020-11-16T16:36:43Z</time>
      </trkpt>
      <trkpt lat="28.7876550" lon="-17.9020520">
        <ele>1274.1</ele>
        <time>2020-11-16T16:36:44Z</time>
      </trkpt>
      <trkpt lat="28.7876550" lon="-17.9020520">
        <ele>1274.1</ele>
        <time>2020-11-16T16:36:45Z</time>
      </trkpt>
      <trkpt lat="28.7876880" lon="-17.9020800">
        <ele>1274.2</ele>
        <time>2020-11-16T16:36:46Z</time>
      </trkpt>
      <trkpt lat="28.7876880" lon="-17.9020800">
        <ele>1274.2</ele>
        <time>2020-11-16T16:36:47Z</time>
      </trkpt>
      <trkpt lat="28.7877220" lon="-17.9020970">
        <ele>1274.4</ele>
        <time>2020-11-16T16:36:48Z</time>
      </trkpt>
      <trkpt lat="28.7877220" lon="-17.9020970">
        <ele>1274.4</ele>
        <time>2020-11-16T16:36:49Z</time>
      </trkpt>
      <trkpt lat="28.7877380" lon="-17.9021130">
        <ele>1274.5</ele>
        <time>2020-11-16T16:36:50Z</time>
      </trkpt>
      <trkpt lat="28.7877380" lon="-17.9021130">
        <ele>1274.5</ele>
        <time>2020-11-16T16:36:51Z</time>
      </trkpt>
      <trkpt lat="28.7877580" lon="-17.9021350">
        <ele>1274.7</ele>
        <time>2020-11-16T16:36:52Z</time>
      </trkpt>
      <trkpt lat="28.7877580" lon="-17.9021350">
        <ele>1274.7</ele>
        <time>2020-11-16T16:36:53Z</time>
      </trkpt>
      <trkpt lat="28.7877850" lon="-17.9021470">
        <ele>1274.8</ele>
        <time>2020-11-16T16:36:54Z</time>
      </trkpt>
      <trkpt lat="28.7877850" lon="-17.9021470">
        <ele>1274.8</ele>
        <time>2020-11-16T16:36:55Z</time>
      </trkpt>
      <trkpt lat="28.7878170" lon="-17.9021530">
        <ele>1275.0</ele>
        <time>2020-11-16T16:36:56Z</time>
      </trkpt>
      <trkpt lat="28.7878170" lon="-17.9021530">
        <ele>1275.0</ele>
        <time>2020-11-16T16:36:57Z</time>
      </trkpt>
      <trkpt lat="28.7878470" lon="-17.9021680">
        <ele>1275.2</ele>
        <time>2020-11-16T16:36:58Z</time>
      </trkpt>
      <trkpt lat="28.7878470" lon="-17.9021680">
        <ele>1275.2</ele>
        <time>2020-11-16T16:36:59Z</time>
      </trkpt>
      <trkpt lat="28.7878730" lon="-17.9021920">
        <ele>1275.3</ele>
        <time>2020-11-16T16:37:00Z</time>
      </trkpt>
      <trkpt lat="28.7878730" lon="-17.9021920">
        <ele>1275.3</ele>
        <time>2020-11-16T16:37:01Z</time>
      </trkpt>
      <trkpt lat="28.7879000" lon="-17.9022150">
        <ele>1275.5</ele>
        <time>2020-11-16T16:37:02Z</time>
      </trkpt>
      <trkpt lat="28.7879000" lon="-17.9022150">
        <ele>1275.5</ele>
        <time>2020-11-16T16:37:03Z</time>
      </trkpt>
      <trkpt lat="28.7879270" lon="-17.9022400">
        <ele>1275.7</ele>
        <time>2020-11-16T16:37:04Z</time>
      </trkpt>
      <trkpt lat="28.7879270" lon="-17.9022400">
        <ele>1275.7</ele>
        <time>2020-11-16T16:37:05Z</time>
      </trkpt>
      <trkpt lat="28.7879470" lon="-17.9022670">
        <ele>1275.8</ele>
        <time>2020-11-16T16:37:06Z</time>
      </trkpt>
      <trkpt lat="28.7879470" lon="-17.9022670">
        <ele>1275.8</ele>
        <time>2020-11-16T16:37:07Z</time>
      </trkpt>
      <trkpt lat="28.7879670" lon="-17.9023020">
        <ele>1276.0</ele>
        <time>2020-11-16T16:37:08Z</time>
      </trkpt>
      <trkpt lat="28.7879670" lon="-17.9023020">
        <ele>1276.0</ele>
        <time>2020-11-16T16:37:09Z</time>
      </trkpt>
      <trkpt lat="28.7879870" lon="-17.9023330">
        <ele>1276.1</ele>
        <time>2020-11-16T16:37:10Z</time>
      </trkpt>
      <trkpt lat="28.7879870" lon="-17.9023330">
        <ele>1276.1</ele>
        <time>2020-11-16T16:37:11Z</time>
      </trkpt>
      <trkpt lat="28.7880030" lon="-17.9023720">
        <ele>1276.2</ele>
        <time>2020-11-16T16:37:12Z</time>
      </trkpt>
      <trkpt lat="28.7880120" lon="-17.9023880">
        <ele>1276.3</ele>
        <time>2020-11-16T16:37:13Z</time>
      </trkpt>
      <trkpt lat="28.7880120" lon="-17.9023880">
        <ele>1276.3</ele>
        <time>2020-11-16T16:37:14Z</time>
      </trkpt>
      <trkpt lat="28.7880350" lon="-17.9024250">
        <ele>1276.4</ele>
        <time>2020-11-16T16:37:15Z</time>
      </trkpt>
      <trkpt lat="28.7880350" lon="-17.9024250">
        <ele>1276.4</ele>
        <time>2020-11-16T16:37:16Z</time>
      </trkpt>
      <trkpt lat="28.7880550" lon="-17.9024570">
        <ele>1276.5</ele>
        <time>2020-11-16T16:37:17Z</time>
      </trkpt>
      <trkpt lat="28.7880620" lon="-17.9024700">
        <ele>1276.6</ele>
        <time>2020-11-16T16:37:18Z</time>
      </trkpt>
      <trkpt lat="28.7880620" lon="-17.9024700">
        <ele>1276.6</ele>
        <time>2020-11-16T16:37:19Z</time>
      </trkpt>
      <trkpt lat="28.7880750" lon="-17.9025000">
        <ele>1276.7</ele>
        <time>2020-11-16T16:37:20Z</time>
      </trkpt>
      <trkpt lat="28.7880750" lon="-17.9025000">
        <ele>1276.7</ele>
        <time>2020-11-16T16:37:21Z</time>
      </trkpt>
      <trkpt lat="28.7880880" lon="-17.9025270">
        <ele>1276.8</ele>
        <time>2020-11-16T16:37:22Z</time>
      </trkpt>
      <trkpt lat="28.7880880" lon="-17.9025270">
        <ele>1276.8</ele>
        <time>2020-11-16T16:37:23Z</time>
      </trkpt>
      <trkpt lat="28.7880880" lon="-17.9025550">
        <ele>1277.0</ele>
        <time>2020-11-16T16:37:24Z</time>
      </trkpt>
      <trkpt lat="28.7880880" lon="-17.9025550">
        <ele>1277.0</ele>
        <time>2020-11-16T16:37:25Z</time>
      </trkpt>
      <trkpt lat="28.7880980" lon="-17.9025900">
        <ele>1277.1</ele>
        <time>2020-11-16T16:37:26Z</time>
      </trkpt>
      <trkpt lat="28.7880980" lon="-17.9025900">
        <ele>1277.1</ele>
        <time>2020-11-16T16:37:27Z</time>
      </trkpt>
      <trkpt lat="28.7881070" lon="-17.9026180">
        <ele>1277.3</ele>
        <time>2020-11-16T16:37:28Z</time>
      </trkpt>
      <trkpt lat="28.7881070" lon="-17.9026180">
        <ele>1277.3</ele>
        <time>2020-11-16T16:37:29Z</time>
      </trkpt>
      <trkpt lat="28.7881100" lon="-17.9026570">
        <ele>1277.5</ele>
        <time>2020-11-16T16:37:30Z</time>
      </trkpt>
      <trkpt lat="28.7881100" lon="-17.9026570">
        <ele>1277.5</ele>
        <time>2020-11-16T16:37:31Z</time>
      </trkpt>
      <trkpt lat="28.7881120" lon="-17.9026930">
        <ele>1277.6</ele>
        <time>2020-11-16T16:37:32Z</time>
      </trkpt>
      <trkpt lat="28.7881120" lon="-17.9026930">
        <ele>1277.6</ele>
        <time>2020-11-16T16:37:33Z</time>
      </trkpt>
      <trkpt lat="28.7881320" lon="-17.9027300">
        <ele>1277.9</ele>
        <time>2020-11-16T16:37:34Z</time>
      </trkpt>
      <trkpt lat="28.7881320" lon="-17.9027300">
        <ele>1277.9</ele>
        <time>2020-11-16T16:37:35Z</time>
      </trkpt>
      <trkpt lat="28.7881430" lon="-17.9027570">
        <ele>1278.0</ele>
        <time>2020-11-16T16:37:36Z</time>
      </trkpt>
      <trkpt lat="28.7881470" lon="-17.9027720">
        <ele>1278.1</ele>
        <time>2020-11-16T16:37:37Z</time>
      </trkpt>
      <trkpt lat="28.7881530" lon="-17.9027900">
        <ele>1278.2</ele>
        <time>2020-11-16T16:37:38Z</time>
      </trkpt>
      <trkpt lat="28.7881530" lon="-17.9027900">
        <ele>1278.2</ele>
        <time>2020-11-16T16:37:39Z</time>
      </trkpt>
      <trkpt lat="28.7881680" lon="-17.9028220">
        <ele>1278.4</ele>
        <time>2020-11-16T16:37:40Z</time>
      </trkpt>
      <trkpt lat="28.7881680" lon="-17.9028220">
        <ele>1278.4</ele>
        <time>2020-11-16T16:37:41Z</time>
      </trkpt>
      <trkpt lat="28.7881870" lon="-17.9028570">
        <ele>1278.6</ele>
        <time>2020-11-16T16:37:42Z</time>
      </trkpt>
      <trkpt lat="28.7881870" lon="-17.9028570">
        <ele>1278.6</ele>
        <time>2020-11-16T16:37:43Z</time>
      </trkpt>
      <trkpt lat="28.7882000" lon="-17.9028820">
        <ele>1278.8</ele>
        <time>2020-11-16T16:37:44Z</time>
      </trkpt>
      <trkpt lat="28.7882000" lon="-17.9028820">
        <ele>1278.8</ele>
        <time>2020-11-16T16:37:45Z</time>
      </trkpt>
      <trkpt lat="28.7882200" lon="-17.9029280">
        <ele>1279.1</ele>
        <time>2020-11-16T16:37:46Z</time>
      </trkpt>
      <trkpt lat="28.7882200" lon="-17.9029280">
        <ele>1279.1</ele>
        <time>2020-11-16T16:37:47Z</time>
      </trkpt>
      <trkpt lat="28.7882470" lon="-17.9029620">
        <ele>1279.3</ele>
        <time>2020-11-16T16:37:48Z</time>
      </trkpt>
      <trkpt lat="28.7882470" lon="-17.9029620">
        <ele>1279.3</ele>
        <time>2020-11-16T16:37:49Z</time>
      </trkpt>
      <trkpt lat="28.7882780" lon="-17.9029900">
        <ele>1279.5</ele>
        <time>2020-11-16T16:37:50Z</time>
      </trkpt>
      <trkpt lat="28.7882780" lon="-17.9029900">
        <ele>1279.5</ele>
        <time>2020-11-16T16:37:51Z</time>
      </trkpt>
      <trkpt lat="28.7883070" lon="-17.9030180">
        <ele>1279.7</ele>
        <time>2020-11-16T16:37:52Z</time>
      </trkpt>
      <trkpt lat="28.7883070" lon="-17.9030180">
        <ele>1279.7</ele>
        <time>2020-11-16T16:37:53Z</time>
      </trkpt>
      <trkpt lat="28.7883270" lon="-17.9030480">
        <ele>1279.9</ele>
        <time>2020-11-16T16:37:54Z</time>
      </trkpt>
      <trkpt lat="28.7883270" lon="-17.9030480">
        <ele>1279.9</ele>
        <time>2020-11-16T16:37:55Z</time>
      </trkpt>
      <trkpt lat="28.7883500" lon="-17.9030720">
        <ele>1280.1</ele>
        <time>2020-11-16T16:37:56Z</time>
      </trkpt>
      <trkpt lat="28.7883500" lon="-17.9030720">
        <ele>1280.1</ele>
        <time>2020-11-16T16:37:57Z</time>
      </trkpt>
      <trkpt lat="28.7883750" lon="-17.9031020">
        <ele>1280.3</ele>
        <time>2020-11-16T16:37:58Z</time>
      </trkpt>
      <trkpt lat="28.7883750" lon="-17.9031020">
        <ele>1280.3</ele>
        <time>2020-11-16T16:37:59Z</time>
      </trkpt>
      <trkpt lat="28.7883980" lon="-17.9031330">
        <ele>1280.4</ele>
        <time>2020-11-16T16:38:00Z</time>
      </trkpt>
      <trkpt lat="28.7883980" lon="-17.9031330">
        <ele>1280.4</ele>
        <time>2020-11-16T16:38:01Z</time>
      </trkpt>
      <trkpt lat="28.7884270" lon="-17.9031650">
        <ele>1280.6</ele>
        <time>2020-11-16T16:38:02Z</time>
      </trkpt>
      <trkpt lat="28.7884270" lon="-17.9031650">
        <ele>1280.6</ele>
        <time>2020-11-16T16:38:03Z</time>
      </trkpt>
      <trkpt lat="28.7884530" lon="-17.9031950">
        <ele>1280.8</ele>
        <time>2020-11-16T16:38:04Z</time>
      </trkpt>
      <trkpt lat="28.7884530" lon="-17.9031950">
        <ele>1280.8</ele>
        <time>2020-11-16T16:38:05Z</time>
      </trkpt>
      <trkpt lat="28.7884730" lon="-17.9032250">
        <ele>1280.9</ele>
        <time>2020-11-16T16:38:06Z</time>
      </trkpt>
      <trkpt lat="28.7884730" lon="-17.9032250">
        <ele>1280.9</ele>
        <time>2020-11-16T16:38:07Z</time>
      </trkpt>
      <trkpt lat="28.7885000" lon="-17.9032570">
        <ele>1281.0</ele>
        <time>2020-11-16T16:38:08Z</time>
      </trkpt>
      <trkpt lat="28.7885000" lon="-17.9032570">
        <ele>1281.0</ele>
        <time>2020-11-16T16:38:09Z</time>
      </trkpt>
      <trkpt lat="28.7885230" lon="-17.9032950">
        <ele>1281.2</ele>
        <time>2020-11-16T16:38:10Z</time>
      </trkpt>
      <trkpt lat="28.7885330" lon="-17.9033120">
        <ele>1281.3</ele>
        <time>2020-11-16T16:38:11Z</time>
      </trkpt>
      <trkpt lat="28.7885330" lon="-17.9033120">
        <ele>1281.3</ele>
        <time>2020-11-16T16:38:12Z</time>
      </trkpt>
      <trkpt lat="28.7885550" lon="-17.9033420">
        <ele>1281.5</ele>
        <time>2020-11-16T16:38:13Z</time>
      </trkpt>
      <trkpt lat="28.7885550" lon="-17.9033420">
        <ele>1281.5</ele>
        <time>2020-11-16T16:38:14Z</time>
      </trkpt>
      <trkpt lat="28.7885780" lon="-17.9033700">
        <ele>1281.6</ele>
        <time>2020-11-16T16:38:15Z</time>
      </trkpt>
      <trkpt lat="28.7885780" lon="-17.9033700">
        <ele>1281.6</ele>
        <time>2020-11-16T16:38:16Z</time>
      </trkpt>
      <trkpt lat="28.7886020" lon="-17.9034000">
        <ele>1281.8</ele>
        <time>2020-11-16T16:38:17Z</time>
      </trkpt>
      <trkpt lat="28.7886020" lon="-17.9034000">
        <ele>1281.8</ele>
        <time>2020-11-16T16:38:18Z</time>
      </trkpt>
      <trkpt lat="28.7886280" lon="-17.9034250">
        <ele>1281.9</ele>
        <time>2020-11-16T16:38:19Z</time>
      </trkpt>
      <trkpt lat="28.7886430" lon="-17.9034380">
        <ele>1282.0</ele>
        <time>2020-11-16T16:38:20Z</time>
      </trkpt>
      <trkpt lat="28.7886430" lon="-17.9034380">
        <ele>1282.0</ele>
        <time>2020-11-16T16:38:21Z</time>
      </trkpt>
      <trkpt lat="28.7886680" lon="-17.9034680">
        <ele>1282.2</ele>
        <time>2020-11-16T16:38:22Z</time>
      </trkpt>
      <trkpt lat="28.7886680" lon="-17.9034680">
        <ele>1282.2</ele>
        <time>2020-11-16T16:38:23Z</time>
      </trkpt>
      <trkpt lat="28.7886880" lon="-17.9035050">
        <ele>1282.3</ele>
        <time>2020-11-16T16:38:24Z</time>
      </trkpt>
      <trkpt lat="28.7886880" lon="-17.9035050">
        <ele>1282.4</ele>
        <time>2020-11-16T16:38:25Z</time>
      </trkpt>
      <trkpt lat="28.7887050" lon="-17.9035330">
        <ele>1282.5</ele>
        <time>2020-11-16T16:38:26Z</time>
      </trkpt>
      <trkpt lat="28.7887050" lon="-17.9035330">
        <ele>1282.5</ele>
        <time>2020-11-16T16:38:27Z</time>
      </trkpt>
      <trkpt lat="28.7887380" lon="-17.9035520">
        <ele>1282.6</ele>
        <time>2020-11-16T16:38:28Z</time>
      </trkpt>
      <trkpt lat="28.7887380" lon="-17.9035520">
        <ele>1282.6</ele>
        <time>2020-11-16T16:38:29Z</time>
      </trkpt>
      <trkpt lat="28.7887830" lon="-17.9035770">
        <ele>1282.8</ele>
        <time>2020-11-16T16:38:30Z</time>
      </trkpt>
      <trkpt lat="28.7887830" lon="-17.9035770">
        <ele>1282.8</ele>
        <time>2020-11-16T16:38:31Z</time>
      </trkpt>
      <trkpt lat="28.7888250" lon="-17.9036020">
        <ele>1283.0</ele>
        <time>2020-11-16T16:38:32Z</time>
      </trkpt>
      <trkpt lat="28.7888250" lon="-17.9036020">
        <ele>1283.0</ele>
        <time>2020-11-16T16:38:33Z</time>
      </trkpt>
      <trkpt lat="28.7888480" lon="-17.9036230">
        <ele>1283.2</ele>
        <time>2020-11-16T16:38:34Z</time>
      </trkpt>
      <trkpt lat="28.7888480" lon="-17.9036230">
        <ele>1283.2</ele>
        <time>2020-11-16T16:38:35Z</time>
      </trkpt>
      <trkpt lat="28.7888730" lon="-17.9036480">
        <ele>1283.3</ele>
        <time>2020-11-16T16:38:36Z</time>
      </trkpt>
      <trkpt lat="28.7888730" lon="-17.9036480">
        <ele>1283.3</ele>
        <time>2020-11-16T16:38:37Z</time>
      </trkpt>
      <trkpt lat="28.7889020" lon="-17.9036820">
        <ele>1283.5</ele>
        <time>2020-11-16T16:38:38Z</time>
      </trkpt>
      <trkpt lat="28.7889020" lon="-17.9036820">
        <ele>1283.5</ele>
        <time>2020-11-16T16:38:39Z</time>
      </trkpt>
      <trkpt lat="28.7889180" lon="-17.9037080">
        <ele>1283.6</ele>
        <time>2020-11-16T16:38:40Z</time>
      </trkpt>
      <trkpt lat="28.7889180" lon="-17.9037080">
        <ele>1283.6</ele>
        <time>2020-11-16T16:38:41Z</time>
      </trkpt>
      <trkpt lat="28.7889480" lon="-17.9037320">
        <ele>1283.8</ele>
        <time>2020-11-16T16:38:42Z</time>
      </trkpt>
      <trkpt lat="28.7889480" lon="-17.9037320">
        <ele>1283.8</ele>
        <time>2020-11-16T16:38:43Z</time>
      </trkpt>
      <trkpt lat="28.7889800" lon="-17.9037550">
        <ele>1284.0</ele>
        <time>2020-11-16T16:38:44Z</time>
      </trkpt>
      <trkpt lat="28.7889800" lon="-17.9037550">
        <ele>1284.0</ele>
        <time>2020-11-16T16:38:45Z</time>
      </trkpt>
      <trkpt lat="28.7890120" lon="-17.9037830">
        <ele>1284.2</ele>
        <time>2020-11-16T16:38:46Z</time>
      </trkpt>
      <trkpt lat="28.7890120" lon="-17.9037830">
        <ele>1284.2</ele>
        <time>2020-11-16T16:38:47Z</time>
      </trkpt>
      <trkpt lat="28.7890350" lon="-17.9038150">
        <ele>1284.4</ele>
        <time>2020-11-16T16:38:48Z</time>
      </trkpt>
      <trkpt lat="28.7890350" lon="-17.9038150">
        <ele>1284.4</ele>
        <time>2020-11-16T16:38:49Z</time>
      </trkpt>
      <trkpt lat="28.7890550" lon="-17.9038480">
        <ele>1284.6</ele>
        <time>2020-11-16T16:38:50Z</time>
      </trkpt>
      <trkpt lat="28.7890550" lon="-17.9038480">
        <ele>1284.6</ele>
        <time>2020-11-16T16:38:51Z</time>
      </trkpt>
      <trkpt lat="28.7890850" lon="-17.9038800">
        <ele>1284.8</ele>
        <time>2020-11-16T16:38:52Z</time>
      </trkpt>
      <trkpt lat="28.7890850" lon="-17.9038800">
        <ele>1284.8</ele>
        <time>2020-11-16T16:38:53Z</time>
      </trkpt>
      <trkpt lat="28.7891070" lon="-17.9039100">
        <ele>1284.9</ele>
        <time>2020-11-16T16:38:54Z</time>
      </trkpt>
      <trkpt lat="28.7891070" lon="-17.9039100">
        <ele>1284.9</ele>
        <time>2020-11-16T16:38:55Z</time>
      </trkpt>
      <trkpt lat="28.7891270" lon="-17.9039420">
        <ele>1285.2</ele>
        <time>2020-11-16T16:38:56Z</time>
      </trkpt>
      <trkpt lat="28.7891270" lon="-17.9039420">
        <ele>1285.2</ele>
        <time>2020-11-16T16:38:57Z</time>
      </trkpt>
      <trkpt lat="28.7891430" lon="-17.9039780">
        <ele>1285.4</ele>
        <time>2020-11-16T16:38:58Z</time>
      </trkpt>
      <trkpt lat="28.7891430" lon="-17.9039780">
        <ele>1285.4</ele>
        <time>2020-11-16T16:38:59Z</time>
      </trkpt>
      <trkpt lat="28.7891600" lon="-17.9040170">
        <ele>1285.7</ele>
        <time>2020-11-16T16:39:00Z</time>
      </trkpt>
      <trkpt lat="28.7891650" lon="-17.9040330">
        <ele>1285.8</ele>
        <time>2020-11-16T16:39:01Z</time>
      </trkpt>
      <trkpt lat="28.7891650" lon="-17.9040330">
        <ele>1285.8</ele>
        <time>2020-11-16T16:39:02Z</time>
      </trkpt>
      <trkpt lat="28.7891680" lon="-17.9040630">
        <ele>1286.0</ele>
        <time>2020-11-16T16:39:03Z</time>
      </trkpt>
      <trkpt lat="28.7891680" lon="-17.9040630">
        <ele>1286.0</ele>
        <time>2020-11-16T16:39:04Z</time>
      </trkpt>
      <trkpt lat="28.7891720" lon="-17.9040900">
        <ele>1286.2</ele>
        <time>2020-11-16T16:39:05Z</time>
      </trkpt>
      <trkpt lat="28.7891720" lon="-17.9040900">
        <ele>1286.2</ele>
        <time>2020-11-16T16:39:06Z</time>
      </trkpt>
      <trkpt lat="28.7891750" lon="-17.9041170">
        <ele>1286.4</ele>
        <time>2020-11-16T16:39:07Z</time>
      </trkpt>
      <trkpt lat="28.7891750" lon="-17.9041170">
        <ele>1286.4</ele>
        <time>2020-11-16T16:39:08Z</time>
      </trkpt>
      <trkpt lat="28.7891700" lon="-17.9041550">
        <ele>1286.6</ele>
        <time>2020-11-16T16:39:09Z</time>
      </trkpt>
      <trkpt lat="28.7891670" lon="-17.9041720">
        <ele>1286.7</ele>
        <time>2020-11-16T16:39:10Z</time>
      </trkpt>
      <trkpt lat="28.7891670" lon="-17.9041720">
        <ele>1286.7</ele>
        <time>2020-11-16T16:39:11Z</time>
      </trkpt>
      <trkpt lat="28.7891500" lon="-17.9042170">
        <ele>1287.0</ele>
        <time>2020-11-16T16:39:12Z</time>
      </trkpt>
      <trkpt lat="28.7891500" lon="-17.9042170">
        <ele>1287.0</ele>
        <time>2020-11-16T16:39:13Z</time>
      </trkpt>
      <trkpt lat="28.7891300" lon="-17.9042600">
        <ele>1287.3</ele>
        <time>2020-11-16T16:39:14Z</time>
      </trkpt>
      <trkpt lat="28.7891300" lon="-17.9042600">
        <ele>1287.3</ele>
        <time>2020-11-16T16:39:15Z</time>
      </trkpt>
      <trkpt lat="28.7891170" lon="-17.9043050">
        <ele>1287.6</ele>
        <time>2020-11-16T16:39:16Z</time>
      </trkpt>
      <trkpt lat="28.7891170" lon="-17.9043050">
        <ele>1287.6</ele>
        <time>2020-11-16T16:39:17Z</time>
      </trkpt>
      <trkpt lat="28.7890980" lon="-17.9043620">
        <ele>1287.9</ele>
        <time>2020-11-16T16:39:18Z</time>
      </trkpt>
      <trkpt lat="28.7890880" lon="-17.9043770">
        <ele>1288.0</ele>
        <time>2020-11-16T16:39:19Z</time>
      </trkpt>
      <trkpt lat="28.7890880" lon="-17.9043770">
        <ele>1288.0</ele>
        <time>2020-11-16T16:39:20Z</time>
      </trkpt>
      <trkpt lat="28.7890630" lon="-17.9044030">
        <ele>1288.2</ele>
        <time>2020-11-16T16:39:21Z</time>
      </trkpt>
      <trkpt lat="28.7890630" lon="-17.9044030">
        <ele>1288.2</ele>
        <time>2020-11-16T16:39:22Z</time>
      </trkpt>
      <trkpt lat="28.7890350" lon="-17.9044430">
        <ele>1288.4</ele>
        <time>2020-11-16T16:39:23Z</time>
      </trkpt>
      <trkpt lat="28.7890350" lon="-17.9044430">
        <ele>1288.4</ele>
        <time>2020-11-16T16:39:24Z</time>
      </trkpt>
      <trkpt lat="28.7890000" lon="-17.9044900">
        <ele>1288.7</ele>
        <time>2020-11-16T16:39:25Z</time>
      </trkpt>
      <trkpt lat="28.7890000" lon="-17.9044900">
        <ele>1288.7</ele>
        <time>2020-11-16T16:39:26Z</time>
      </trkpt>
      <trkpt lat="28.7889780" lon="-17.9045350">
        <ele>1289.0</ele>
        <time>2020-11-16T16:39:27Z</time>
      </trkpt>
      <trkpt lat="28.7889780" lon="-17.9045350">
        <ele>1289.0</ele>
        <time>2020-11-16T16:39:28Z</time>
      </trkpt>
      <trkpt lat="28.7889580" lon="-17.9045770">
        <ele>1289.2</ele>
        <time>2020-11-16T16:39:29Z</time>
      </trkpt>
      <trkpt lat="28.7889480" lon="-17.9045930">
        <ele>1289.3</ele>
        <time>2020-11-16T16:39:30Z</time>
      </trkpt>
      <trkpt lat="28.7889480" lon="-17.9045930">
        <ele>1289.3</ele>
        <time>2020-11-16T16:39:31Z</time>
      </trkpt>
      <trkpt lat="28.7889230" lon="-17.9046270">
        <ele>1289.6</ele>
        <time>2020-11-16T16:39:32Z</time>
      </trkpt>
      <trkpt lat="28.7889230" lon="-17.9046270">
        <ele>1289.6</ele>
        <time>2020-11-16T16:39:33Z</time>
      </trkpt>
      <trkpt lat="28.7888950" lon="-17.9046650">
        <ele>1289.8</ele>
        <time>2020-11-16T16:39:34Z</time>
      </trkpt>
      <trkpt lat="28.7888950" lon="-17.9046650">
        <ele>1289.8</ele>
        <time>2020-11-16T16:39:35Z</time>
      </trkpt>
      <trkpt lat="28.7888720" lon="-17.9047020">
        <ele>1290.1</ele>
        <time>2020-11-16T16:39:36Z</time>
      </trkpt>
      <trkpt lat="28.7888720" lon="-17.9047020">
        <ele>1290.1</ele>
        <time>2020-11-16T16:39:37Z</time>
      </trkpt>
      <trkpt lat="28.7888480" lon="-17.9047220">
        <ele>1290.3</ele>
        <time>2020-11-16T16:39:38Z</time>
      </trkpt>
      <trkpt lat="28.7888480" lon="-17.9047220">
        <ele>1290.3</ele>
        <time>2020-11-16T16:39:39Z</time>
      </trkpt>
      <trkpt lat="28.7888130" lon="-17.9047250">
        <ele>1290.6</ele>
        <time>2020-11-16T16:39:40Z</time>
      </trkpt>
      <trkpt lat="28.7888130" lon="-17.9047250">
        <ele>1290.6</ele>
        <time>2020-11-16T16:39:41Z</time>
      </trkpt>
      <trkpt lat="28.7887850" lon="-17.9047380">
        <ele>1290.9</ele>
        <time>2020-11-16T16:39:42Z</time>
      </trkpt>
      <trkpt lat="28.7887850" lon="-17.9047380">
        <ele>1290.9</ele>
        <time>2020-11-16T16:39:43Z</time>
      </trkpt>
      <trkpt lat="28.7887580" lon="-17.9047600">
        <ele>1291.1</ele>
        <time>2020-11-16T16:39:44Z</time>
      </trkpt>
      <trkpt lat="28.7887580" lon="-17.9047600">
        <ele>1291.1</ele>
        <time>2020-11-16T16:39:45Z</time>
      </trkpt>
      <trkpt lat="28.7887280" lon="-17.9047770">
        <ele>1291.4</ele>
        <time>2020-11-16T16:39:46Z</time>
      </trkpt>
      <trkpt lat="28.7887280" lon="-17.9047770">
        <ele>1291.4</ele>
        <time>2020-11-16T16:39:47Z</time>
      </trkpt>
      <trkpt lat="28.7886930" lon="-17.9047880">
        <ele>1291.6</ele>
        <time>2020-11-16T16:39:48Z</time>
      </trkpt>
      <trkpt lat="28.7886730" lon="-17.9047870">
        <ele>1291.7</ele>
        <time>2020-11-16T16:39:49Z</time>
      </trkpt>
      <trkpt lat="28.7886730" lon="-17.9047870">
        <ele>1291.7</ele>
        <time>2020-11-16T16:39:50Z</time>
      </trkpt>
      <trkpt lat="28.7886420" lon="-17.9047970">
        <ele>1291.9</ele>
        <time>2020-11-16T16:39:51Z</time>
      </trkpt>
      <trkpt lat="28.7886420" lon="-17.9047970">
        <ele>1291.9</ele>
        <time>2020-11-16T16:39:52Z</time>
      </trkpt>
      <trkpt lat="28.7886020" lon="-17.9048070">
        <ele>1292.1</ele>
        <time>2020-11-16T16:39:53Z</time>
      </trkpt>
      <trkpt lat="28.7886020" lon="-17.9048070">
        <ele>1292.1</ele>
        <time>2020-11-16T16:39:54Z</time>
      </trkpt>
      <trkpt lat="28.7885670" lon="-17.9048170">
        <ele>1292.2</ele>
        <time>2020-11-16T16:39:55Z</time>
      </trkpt>
      <trkpt lat="28.7885670" lon="-17.9048170">
        <ele>1292.2</ele>
        <time>2020-11-16T16:39:56Z</time>
      </trkpt>
      <trkpt lat="28.7885330" lon="-17.9048280">
        <ele>1292.3</ele>
        <time>2020-11-16T16:39:57Z</time>
      </trkpt>
      <trkpt lat="28.7885330" lon="-17.9048280">
        <ele>1292.3</ele>
        <time>2020-11-16T16:39:58Z</time>
      </trkpt>
      <trkpt lat="28.7884980" lon="-17.9048530">
        <ele>1292.5</ele>
        <time>2020-11-16T16:39:59Z</time>
      </trkpt>
      <trkpt lat="28.7884980" lon="-17.9048530">
        <ele>1292.5</ele>
        <time>2020-11-16T16:40:00Z</time>
      </trkpt>
      <trkpt lat="28.7884620" lon="-17.9048850">
        <ele>1292.6</ele>
        <time>2020-11-16T16:40:01Z</time>
      </trkpt>
      <trkpt lat="28.7884470" lon="-17.9048970">
        <ele>1292.7</ele>
        <time>2020-11-16T16:40:02Z</time>
      </trkpt>
      <trkpt lat="28.7884470" lon="-17.9048970">
        <ele>1292.7</ele>
        <time>2020-11-16T16:40:03Z</time>
      </trkpt>
      <trkpt lat="28.7884180" lon="-17.9049230">
        <ele>1292.9</ele>
        <time>2020-11-16T16:40:04Z</time>
      </trkpt>
      <trkpt lat="28.7884180" lon="-17.9049230">
        <ele>1292.9</ele>
        <time>2020-11-16T16:40:05Z</time>
      </trkpt>
      <trkpt lat="28.7883970" lon="-17.9049430">
        <ele>1293.0</ele>
        <time>2020-11-16T16:40:06Z</time>
      </trkpt>
      <trkpt lat="28.7883900" lon="-17.9049570">
        <ele>1293.0</ele>
        <time>2020-11-16T16:40:07Z</time>
      </trkpt>
      <trkpt lat="28.7883900" lon="-17.9049570">
        <ele>1293.0</ele>
        <time>2020-11-16T16:40:08Z</time>
      </trkpt>
      <trkpt lat="28.7883800" lon="-17.9049850">
        <ele>1293.1</ele>
        <time>2020-11-16T16:40:09Z</time>
      </trkpt>
      <trkpt lat="28.7883750" lon="-17.9050020">
        <ele>1293.2</ele>
        <time>2020-11-16T16:40:10Z</time>
      </trkpt>
      <trkpt lat="28.7883730" lon="-17.9050220">
        <ele>1293.2</ele>
        <time>2020-11-16T16:40:11Z</time>
      </trkpt>
      <trkpt lat="28.7883730" lon="-17.9050220">
        <ele>1293.2</ele>
        <time>2020-11-16T16:40:12Z</time>
      </trkpt>
      <trkpt lat="28.7883750" lon="-17.9050550">
        <ele>1293.3</ele>
        <time>2020-11-16T16:40:13Z</time>
      </trkpt>
      <trkpt lat="28.7883780" lon="-17.9050780">
        <ele>1293.4</ele>
        <time>2020-11-16T16:40:14Z</time>
      </trkpt>
      <trkpt lat="28.7883780" lon="-17.9050780">
        <ele>1293.4</ele>
        <time>2020-11-16T16:40:15Z</time>
      </trkpt>
      <trkpt lat="28.7883930" lon="-17.9051170">
        <ele>1293.5</ele>
        <time>2020-11-16T16:40:16Z</time>
      </trkpt>
      <trkpt lat="28.7883930" lon="-17.9051170">
        <ele>1293.5</ele>
        <time>2020-11-16T16:40:17Z</time>
      </trkpt>
      <trkpt lat="28.7883970" lon="-17.9051470">
        <ele>1293.6</ele>
        <time>2020-11-16T16:40:18Z</time>
      </trkpt>
      <trkpt lat="28.7884070" lon="-17.9051630">
        <ele>1293.6</ele>
        <time>2020-11-16T16:40:19Z</time>
      </trkpt>
      <trkpt lat="28.7884070" lon="-17.9051630">
        <ele>1293.6</ele>
        <time>2020-11-16T16:40:20Z</time>
      </trkpt>
      <trkpt lat="28.7884250" lon="-17.9051980">
        <ele>1293.8</ele>
        <time>2020-11-16T16:40:21Z</time>
      </trkpt>
      <trkpt lat="28.7884250" lon="-17.9051980">
        <ele>1293.8</ele>
        <time>2020-11-16T16:40:22Z</time>
      </trkpt>
      <trkpt lat="28.7884480" lon="-17.9052270">
        <ele>1293.9</ele>
        <time>2020-11-16T16:40:23Z</time>
      </trkpt>
      <trkpt lat="28.7884480" lon="-17.9052270">
        <ele>1293.9</ele>
        <time>2020-11-16T16:40:24Z</time>
      </trkpt>
      <trkpt lat="28.7884750" lon="-17.9052550">
        <ele>1294.1</ele>
        <time>2020-11-16T16:40:25Z</time>
      </trkpt>
      <trkpt lat="28.7884750" lon="-17.9052550">
        <ele>1294.1</ele>
        <time>2020-11-16T16:40:26Z</time>
      </trkpt>
      <trkpt lat="28.7885100" lon="-17.9052770">
        <ele>1294.3</ele>
        <time>2020-11-16T16:40:27Z</time>
      </trkpt>
      <trkpt lat="28.7885100" lon="-17.9052770">
        <ele>1294.3</ele>
        <time>2020-11-16T16:40:28Z</time>
      </trkpt>
      <trkpt lat="28.7885370" lon="-17.9053120">
        <ele>1294.6</ele>
        <time>2020-11-16T16:40:29Z</time>
      </trkpt>
      <trkpt lat="28.7885500" lon="-17.9053250">
        <ele>1294.7</ele>
        <time>2020-11-16T16:40:30Z</time>
      </trkpt>
      <trkpt lat="28.7885500" lon="-17.9053250">
        <ele>1294.7</ele>
        <time>2020-11-16T16:40:31Z</time>
      </trkpt>
      <trkpt lat="28.7885750" lon="-17.9053550">
        <ele>1294.9</ele>
        <time>2020-11-16T16:40:32Z</time>
      </trkpt>
      <trkpt lat="28.7885750" lon="-17.9053550">
        <ele>1294.9</ele>
        <time>2020-11-16T16:40:33Z</time>
      </trkpt>
      <trkpt lat="28.7885920" lon="-17.9053800">
        <ele>1295.1</ele>
        <time>2020-11-16T16:40:34Z</time>
      </trkpt>
      <trkpt lat="28.7885920" lon="-17.9053800">
        <ele>1295.1</ele>
        <time>2020-11-16T16:40:35Z</time>
      </trkpt>
      <trkpt lat="28.7886050" lon="-17.9054050">
        <ele>1295.2</ele>
        <time>2020-11-16T16:40:36Z</time>
      </trkpt>
      <trkpt lat="28.7886050" lon="-17.9054050">
        <ele>1295.2</ele>
        <time>2020-11-16T16:40:37Z</time>
      </trkpt>
      <trkpt lat="28.7886150" lon="-17.9054380">
        <ele>1295.4</ele>
        <time>2020-11-16T16:40:38Z</time>
      </trkpt>
      <trkpt lat="28.7886150" lon="-17.9054380">
        <ele>1295.4</ele>
        <time>2020-11-16T16:40:39Z</time>
      </trkpt>
      <trkpt lat="28.7886200" lon="-17.9054850">
        <ele>1295.7</ele>
        <time>2020-11-16T16:40:40Z</time>
      </trkpt>
      <trkpt lat="28.7886200" lon="-17.9054850">
        <ele>1295.7</ele>
        <time>2020-11-16T16:40:41Z</time>
      </trkpt>
      <trkpt lat="28.7886080" lon="-17.9055300">
        <ele>1296.0</ele>
        <time>2020-11-16T16:40:42Z</time>
      </trkpt>
      <trkpt lat="28.7886020" lon="-17.9055480">
        <ele>1296.1</ele>
        <time>2020-11-16T16:40:43Z</time>
      </trkpt>
      <trkpt lat="28.7886020" lon="-17.9055480">
        <ele>1296.1</ele>
        <time>2020-11-16T16:40:44Z</time>
      </trkpt>
      <trkpt lat="28.7885730" lon="-17.9055730">
        <ele>1296.4</ele>
        <time>2020-11-16T16:40:45Z</time>
      </trkpt>
      <trkpt lat="28.7885730" lon="-17.9055730">
        <ele>1296.4</ele>
        <time>2020-11-16T16:40:46Z</time>
      </trkpt>
      <trkpt lat="28.7885500" lon="-17.9056020">
        <ele>1296.7</ele>
        <time>2020-11-16T16:40:47Z</time>
      </trkpt>
      <trkpt lat="28.7885500" lon="-17.9056020">
        <ele>1296.7</ele>
        <time>2020-11-16T16:40:48Z</time>
      </trkpt>
      <trkpt lat="28.7885250" lon="-17.9056230">
        <ele>1297.0</ele>
        <time>2020-11-16T16:40:49Z</time>
      </trkpt>
      <trkpt lat="28.7885130" lon="-17.9056330">
        <ele>1297.1</ele>
        <time>2020-11-16T16:40:50Z</time>
      </trkpt>
      <trkpt lat="28.7885130" lon="-17.9056330">
        <ele>1297.1</ele>
        <time>2020-11-16T16:40:51Z</time>
      </trkpt>
      <trkpt lat="28.7884970" lon="-17.9056580">
        <ele>1297.3</ele>
        <time>2020-11-16T16:40:52Z</time>
      </trkpt>
      <trkpt lat="28.7884880" lon="-17.9056620">
        <ele>1297.4</ele>
        <time>2020-11-16T16:40:53Z</time>
      </trkpt>
      <trkpt lat="28.7884880" lon="-17.9056620">
        <ele>1297.4</ele>
        <time>2020-11-16T16:40:54Z</time>
      </trkpt>
      <trkpt lat="28.7884700" lon="-17.9056670">
        <ele>1297.5</ele>
        <time>2020-11-16T16:40:55Z</time>
      </trkpt>
      <trkpt lat="28.7884700" lon="-17.9056670">
        <ele>1297.5</ele>
        <time>2020-11-16T16:40:56Z</time>
      </trkpt>
      <trkpt lat="28.7884500" lon="-17.9056750">
        <ele>1297.7</ele>
        <time>2020-11-16T16:40:57Z</time>
      </trkpt>
      <trkpt lat="28.7884500" lon="-17.9056750">
        <ele>1297.7</ele>
        <time>2020-11-16T16:40:58Z</time>
      </trkpt>
      <trkpt lat="28.7884350" lon="-17.9056920">
        <ele>1297.9</ele>
        <time>2020-11-16T16:40:59Z</time>
      </trkpt>
      <trkpt lat="28.7884350" lon="-17.9056920">
        <ele>1297.9</ele>
        <time>2020-11-16T16:41:00Z</time>
      </trkpt>
      <trkpt lat="28.7884180" lon="-17.9057100">
        <ele>1298.1</ele>
        <time>2020-11-16T16:41:01Z</time>
      </trkpt>
      <trkpt lat="28.7884180" lon="-17.9057100">
        <ele>1298.1</ele>
        <time>2020-11-16T16:41:02Z</time>
      </trkpt>
      <trkpt lat="28.7884080" lon="-17.9057230">
        <ele>1298.2</ele>
        <time>2020-11-16T16:41:03Z</time>
      </trkpt>
      <trkpt lat="28.7884080" lon="-17.9057230">
        <ele>1298.2</ele>
        <time>2020-11-16T16:41:04Z</time>
      </trkpt>
      <trkpt lat="28.7883900" lon="-17.9057300">
        <ele>1298.3</ele>
        <time>2020-11-16T16:41:05Z</time>
      </trkpt>
      <trkpt lat="28.7883900" lon="-17.9057300">
        <ele>1298.3</ele>
        <time>2020-11-16T16:41:06Z</time>
      </trkpt>
      <trkpt lat="28.7883630" lon="-17.9057430">
        <ele>1298.5</ele>
        <time>2020-11-16T16:41:07Z</time>
      </trkpt>
      <trkpt lat="28.7883450" lon="-17.9057470">
        <ele>1298.6</ele>
        <time>2020-11-16T16:41:08Z</time>
      </trkpt>
      <trkpt lat="28.7883450" lon="-17.9057470">
        <ele>1298.6</ele>
        <time>2020-11-16T16:41:09Z</time>
      </trkpt>
      <trkpt lat="28.7883200" lon="-17.9057570">
        <ele>1298.8</ele>
        <time>2020-11-16T16:41:10Z</time>
      </trkpt>
      <trkpt lat="28.7883050" lon="-17.9057680">
        <ele>1298.9</ele>
        <time>2020-11-16T16:41:11Z</time>
      </trkpt>
      <trkpt lat="28.7883050" lon="-17.9057680">
        <ele>1298.9</ele>
        <time>2020-11-16T16:41:12Z</time>
      </trkpt>
      <trkpt lat="28.7882770" lon="-17.9057850">
        <ele>1299.1</ele>
        <time>2020-11-16T16:41:13Z</time>
      </trkpt>
      <trkpt lat="28.7882770" lon="-17.9057850">
        <ele>1299.1</ele>
        <time>2020-11-16T16:41:14Z</time>
      </trkpt>
      <trkpt lat="28.7882420" lon="-17.9058080">
        <ele>1299.4</ele>
        <time>2020-11-16T16:41:15Z</time>
      </trkpt>
      <trkpt lat="28.7882250" lon="-17.9058180">
        <ele>1299.5</ele>
        <time>2020-11-16T16:41:16Z</time>
      </trkpt>
      <trkpt lat="28.7882250" lon="-17.9058180">
        <ele>1299.5</ele>
        <time>2020-11-16T16:41:17Z</time>
      </trkpt>
      <trkpt lat="28.7881570" lon="-17.9058370">
        <ele>1299.9</ele>
        <time>2020-11-16T16:41:18Z</time>
      </trkpt>
      <trkpt lat="28.7881570" lon="-17.9058370">
        <ele>1299.9</ele>
        <time>2020-11-16T16:41:19Z</time>
      </trkpt>
      <trkpt lat="28.7881080" lon="-17.9058580">
        <ele>1300.2</ele>
        <time>2020-11-16T16:41:20Z</time>
      </trkpt>
      <trkpt lat="28.7881080" lon="-17.9058580">
        <ele>1300.2</ele>
        <time>2020-11-16T16:41:21Z</time>
      </trkpt>
      <trkpt lat="28.7880600" lon="-17.9058830">
        <ele>1300.4</ele>
        <time>2020-11-16T16:41:22Z</time>
      </trkpt>
      <trkpt lat="28.7880600" lon="-17.9058830">
        <ele>1300.4</ele>
        <time>2020-11-16T16:41:23Z</time>
      </trkpt>
      <trkpt lat="28.7880220" lon="-17.9059120">
        <ele>1300.6</ele>
        <time>2020-11-16T16:41:24Z</time>
      </trkpt>
      <trkpt lat="28.7880220" lon="-17.9059120">
        <ele>1300.6</ele>
        <time>2020-11-16T16:41:25Z</time>
      </trkpt>
      <trkpt lat="28.7879880" lon="-17.9059480">
        <ele>1300.8</ele>
        <time>2020-11-16T16:41:26Z</time>
      </trkpt>
      <trkpt lat="28.7879880" lon="-17.9059480">
        <ele>1300.8</ele>
        <time>2020-11-16T16:41:27Z</time>
      </trkpt>
      <trkpt lat="28.7879580" lon="-17.9059850">
        <ele>1301.0</ele>
        <time>2020-11-16T16:41:28Z</time>
      </trkpt>
      <trkpt lat="28.7879470" lon="-17.9060020">
        <ele>1301.0</ele>
        <time>2020-11-16T16:41:29Z</time>
      </trkpt>
      <trkpt lat="28.7879470" lon="-17.9060020">
        <ele>1301.0</ele>
        <time>2020-11-16T16:41:30Z</time>
      </trkpt>
      <trkpt lat="28.7879220" lon="-17.9060420">
        <ele>1301.2</ele>
        <time>2020-11-16T16:41:31Z</time>
      </trkpt>
      <trkpt lat="28.7879220" lon="-17.9060420">
        <ele>1301.2</ele>
        <time>2020-11-16T16:41:32Z</time>
      </trkpt>
      <trkpt lat="28.7879120" lon="-17.9060870">
        <ele>1301.4</ele>
        <time>2020-11-16T16:41:33Z</time>
      </trkpt>
      <trkpt lat="28.7879120" lon="-17.9060870">
        <ele>1301.4</ele>
        <time>2020-11-16T16:41:34Z</time>
      </trkpt>
      <trkpt lat="28.7879000" lon="-17.9061280">
        <ele>1301.5</ele>
        <time>2020-11-16T16:41:35Z</time>
      </trkpt>
      <trkpt lat="28.7878920" lon="-17.9061500">
        <ele>1301.6</ele>
        <time>2020-11-16T16:41:36Z</time>
      </trkpt>
      <trkpt lat="28.7878920" lon="-17.9061500">
        <ele>1301.6</ele>
        <time>2020-11-16T16:41:37Z</time>
      </trkpt>
      <trkpt lat="28.7878800" lon="-17.9061920">
        <ele>1301.7</ele>
        <time>2020-11-16T16:41:38Z</time>
      </trkpt>
      <trkpt lat="28.7878800" lon="-17.9061920">
        <ele>1301.7</ele>
        <time>2020-11-16T16:41:39Z</time>
      </trkpt>
      <trkpt lat="28.7878750" lon="-17.9062330">
        <ele>1301.9</ele>
        <time>2020-11-16T16:41:40Z</time>
      </trkpt>
      <trkpt lat="28.7878750" lon="-17.9062330">
        <ele>1301.9</ele>
        <time>2020-11-16T16:41:41Z</time>
      </trkpt>
      <trkpt lat="28.7878650" lon="-17.9062750">
        <ele>1302.1</ele>
        <time>2020-11-16T16:41:42Z</time>
      </trkpt>
      <trkpt lat="28.7878650" lon="-17.9062750">
        <ele>1302.1</ele>
        <time>2020-11-16T16:41:43Z</time>
      </trkpt>
      <trkpt lat="28.7878500" lon="-17.9063130">
        <ele>1302.2</ele>
        <time>2020-11-16T16:41:44Z</time>
      </trkpt>
      <trkpt lat="28.7878500" lon="-17.9063130">
        <ele>1302.2</ele>
        <time>2020-11-16T16:41:45Z</time>
      </trkpt>
      <trkpt lat="28.7878200" lon="-17.9063420">
        <ele>1302.4</ele>
        <time>2020-11-16T16:41:46Z</time>
      </trkpt>
      <trkpt lat="28.7878200" lon="-17.9063420">
        <ele>1302.4</ele>
        <time>2020-11-16T16:41:47Z</time>
      </trkpt>
      <trkpt lat="28.7877850" lon="-17.9063550">
        <ele>1302.6</ele>
        <time>2020-11-16T16:41:48Z</time>
      </trkpt>
      <trkpt lat="28.7877620" lon="-17.9063530">
        <ele>1302.8</ele>
        <time>2020-11-16T16:41:49Z</time>
      </trkpt>
      <trkpt lat="28.7877620" lon="-17.9063530">
        <ele>1302.8</ele>
        <time>2020-11-16T16:41:50Z</time>
      </trkpt>
      <trkpt lat="28.7877220" lon="-17.9063550">
        <ele>1303.0</ele>
        <time>2020-11-16T16:41:51Z</time>
      </trkpt>
      <trkpt lat="28.7877220" lon="-17.9063550">
        <ele>1303.0</ele>
        <time>2020-11-16T16:41:52Z</time>
      </trkpt>
      <trkpt lat="28.7876920" lon="-17.9063600">
        <ele>1303.2</ele>
        <time>2020-11-16T16:41:53Z</time>
      </trkpt>
      <trkpt lat="28.7876800" lon="-17.9063570">
        <ele>1303.3</ele>
        <time>2020-11-16T16:41:54Z</time>
      </trkpt>
      <trkpt lat="28.7876800" lon="-17.9063570">
        <ele>1303.3</ele>
        <time>2020-11-16T16:41:55Z</time>
      </trkpt>
      <trkpt lat="28.7876450" lon="-17.9063480">
        <ele>1303.6</ele>
        <time>2020-11-16T16:41:56Z</time>
      </trkpt>
      <trkpt lat="28.7876450" lon="-17.9063480">
        <ele>1303.6</ele>
        <time>2020-11-16T16:41:57Z</time>
      </trkpt>
      <trkpt lat="28.7876080" lon="-17.9063380">
        <ele>1303.8</ele>
        <time>2020-11-16T16:41:58Z</time>
      </trkpt>
      <trkpt lat="28.7876080" lon="-17.9063380">
        <ele>1303.8</ele>
        <time>2020-11-16T16:41:59Z</time>
      </trkpt>
      <trkpt lat="28.7875720" lon="-17.9063330">
        <ele>1304.0</ele>
        <time>2020-11-16T16:42:00Z</time>
      </trkpt>
      <trkpt lat="28.7875720" lon="-17.9063330">
        <ele>1304.0</ele>
        <time>2020-11-16T16:42:01Z</time>
      </trkpt>
      <trkpt lat="28.7875350" lon="-17.9063250">
        <ele>1304.2</ele>
        <time>2020-11-16T16:42:02Z</time>
      </trkpt>
      <trkpt lat="28.7875350" lon="-17.9063250">
        <ele>1304.2</ele>
        <time>2020-11-16T16:42:03Z</time>
      </trkpt>
      <trkpt lat="28.7875020" lon="-17.9063170">
        <ele>1304.4</ele>
        <time>2020-11-16T16:42:04Z</time>
      </trkpt>
      <trkpt lat="28.7875020" lon="-17.9063170">
        <ele>1304.4</ele>
        <time>2020-11-16T16:42:05Z</time>
      </trkpt>
      <trkpt lat="28.7874650" lon="-17.9063120">
        <ele>1304.6</ele>
        <time>2020-11-16T16:42:06Z</time>
      </trkpt>
      <trkpt lat="28.7874650" lon="-17.9063120">
        <ele>1304.6</ele>
        <time>2020-11-16T16:42:07Z</time>
      </trkpt>
      <trkpt lat="28.7874420" lon="-17.9063030">
        <ele>1304.7</ele>
        <time>2020-11-16T16:42:08Z</time>
      </trkpt>
      <trkpt lat="28.7874420" lon="-17.9063030">
        <ele>1304.7</ele>
        <time>2020-11-16T16:42:09Z</time>
      </trkpt>
      <trkpt lat="28.7874180" lon="-17.9062900">
        <ele>1304.9</ele>
        <time>2020-11-16T16:42:10Z</time>
      </trkpt>
      <trkpt lat="28.7874180" lon="-17.9062900">
        <ele>1304.9</ele>
        <time>2020-11-16T16:42:11Z</time>
      </trkpt>
      <trkpt lat="28.7873900" lon="-17.9062780">
        <ele>1305.0</ele>
        <time>2020-11-16T16:42:12Z</time>
      </trkpt>
      <trkpt lat="28.7873900" lon="-17.9062780">
        <ele>1305.0</ele>
        <time>2020-11-16T16:42:13Z</time>
      </trkpt>
      <trkpt lat="28.7873650" lon="-17.9062680">
        <ele>1305.1</ele>
        <time>2020-11-16T16:42:14Z</time>
      </trkpt>
      <trkpt lat="28.7873650" lon="-17.9062680">
        <ele>1305.1</ele>
        <time>2020-11-16T16:42:15Z</time>
      </trkpt>
      <trkpt lat="28.7873380" lon="-17.9062550">
        <ele>1305.2</ele>
        <time>2020-11-16T16:42:16Z</time>
      </trkpt>
      <trkpt lat="28.7873380" lon="-17.9062550">
        <ele>1305.2</ele>
        <time>2020-11-16T16:42:17Z</time>
      </trkpt>
      <trkpt lat="28.7873170" lon="-17.9062370">
        <ele>1305.3</ele>
        <time>2020-11-16T16:42:18Z</time>
      </trkpt>
      <trkpt lat="28.7873170" lon="-17.9062370">
        <ele>1305.3</ele>
        <time>2020-11-16T16:42:19Z</time>
      </trkpt>
      <trkpt lat="28.7872900" lon="-17.9062200">
        <ele>1305.4</ele>
        <time>2020-11-16T16:42:20Z</time>
      </trkpt>
      <trkpt lat="28.7872900" lon="-17.9062200">
        <ele>1305.4</ele>
        <time>2020-11-16T16:42:21Z</time>
      </trkpt>
      <trkpt lat="28.7872570" lon="-17.9062020">
        <ele>1305.6</ele>
        <time>2020-11-16T16:42:22Z</time>
      </trkpt>
      <trkpt lat="28.7872570" lon="-17.9062020">
        <ele>1305.6</ele>
        <time>2020-11-16T16:42:23Z</time>
      </trkpt>
      <trkpt lat="28.7872080" lon="-17.9061850">
        <ele>1305.9</ele>
        <time>2020-11-16T16:42:24Z</time>
      </trkpt>
      <trkpt lat="28.7872080" lon="-17.9061850">
        <ele>1305.9</ele>
        <time>2020-11-16T16:42:25Z</time>
      </trkpt>
      <trkpt lat="28.7871580" lon="-17.9061700">
        <ele>1306.2</ele>
        <time>2020-11-16T16:42:26Z</time>
      </trkpt>
      <trkpt lat="28.7871580" lon="-17.9061700">
        <ele>1306.2</ele>
        <time>2020-11-16T16:42:27Z</time>
      </trkpt>
      <trkpt lat="28.7871280" lon="-17.9061680">
        <ele>1306.3</ele>
        <time>2020-11-16T16:42:28Z</time>
      </trkpt>
      <trkpt lat="28.7871280" lon="-17.9061680">
        <ele>1306.3</ele>
        <time>2020-11-16T16:42:29Z</time>
      </trkpt>
      <trkpt lat="28.7870970" lon="-17.9061700">
        <ele>1306.5</ele>
        <time>2020-11-16T16:42:30Z</time>
      </trkpt>
      <trkpt lat="28.7870970" lon="-17.9061700">
        <ele>1306.5</ele>
        <time>2020-11-16T16:42:31Z</time>
      </trkpt>
      <trkpt lat="28.7870700" lon="-17.9061880">
        <ele>1306.7</ele>
        <time>2020-11-16T16:42:32Z</time>
      </trkpt>
      <trkpt lat="28.7870700" lon="-17.9061880">
        <ele>1306.7</ele>
        <time>2020-11-16T16:42:33Z</time>
      </trkpt>
      <trkpt lat="28.7870400" lon="-17.9062150">
        <ele>1307.0</ele>
        <time>2020-11-16T16:42:34Z</time>
      </trkpt>
      <trkpt lat="28.7870400" lon="-17.9062150">
        <ele>1307.0</ele>
        <time>2020-11-16T16:42:35Z</time>
      </trkpt>
      <trkpt lat="28.7870170" lon="-17.9062500">
        <ele>1307.2</ele>
        <time>2020-11-16T16:42:36Z</time>
      </trkpt>
      <trkpt lat="28.7870170" lon="-17.9062500">
        <ele>1307.2</ele>
        <time>2020-11-16T16:42:37Z</time>
      </trkpt>
      <trkpt lat="28.7869980" lon="-17.9062850">
        <ele>1307.5</ele>
        <time>2020-11-16T16:42:38Z</time>
      </trkpt>
      <trkpt lat="28.7869980" lon="-17.9062850">
        <ele>1307.5</ele>
        <time>2020-11-16T16:42:39Z</time>
      </trkpt>
      <trkpt lat="28.7869770" lon="-17.9063250">
        <ele>1307.8</ele>
        <time>2020-11-16T16:42:40Z</time>
      </trkpt>
      <trkpt lat="28.7869630" lon="-17.9063380">
        <ele>1307.9</ele>
        <time>2020-11-16T16:42:41Z</time>
      </trkpt>
      <trkpt lat="28.7869630" lon="-17.9063380">
        <ele>1307.9</ele>
        <time>2020-11-16T16:42:42Z</time>
      </trkpt>
      <trkpt lat="28.7869370" lon="-17.9063670">
        <ele>1308.1</ele>
        <time>2020-11-16T16:42:43Z</time>
      </trkpt>
      <trkpt lat="28.7869250" lon="-17.9063770">
        <ele>1308.2</ele>
        <time>2020-11-16T16:42:44Z</time>
      </trkpt>
      <trkpt lat="28.7869250" lon="-17.9063770">
        <ele>1308.2</ele>
        <time>2020-11-16T16:42:45Z</time>
      </trkpt>
      <trkpt lat="28.7869030" lon="-17.9063900">
        <ele>1308.7</ele>
        <time>2020-11-16T16:42:46Z</time>
      </trkpt>
      <trkpt lat="28.7869030" lon="-17.9063900">
        <ele>1308.7</ele>
        <time>2020-11-16T16:42:47Z</time>
      </trkpt>
      <trkpt lat="28.7868680" lon="-17.9064030">
        <ele>1309.1</ele>
        <time>2020-11-16T16:42:48Z</time>
      </trkpt>
      <trkpt lat="28.7868450" lon="-17.9064120">
        <ele>1309.3</ele>
        <time>2020-11-16T16:42:49Z</time>
      </trkpt>
      <trkpt lat="28.7868450" lon="-17.9064120">
        <ele>1309.3</ele>
        <time>2020-11-16T16:42:50Z</time>
      </trkpt>
      <trkpt lat="28.7868020" lon="-17.9064300">
        <ele>1309.8</ele>
        <time>2020-11-16T16:42:51Z</time>
      </trkpt>
      <trkpt lat="28.7868020" lon="-17.9064300">
        <ele>1309.8</ele>
        <time>2020-11-16T16:42:52Z</time>
      </trkpt>
      <trkpt lat="28.7867520" lon="-17.9064480">
        <ele>1310.3</ele>
        <time>2020-11-16T16:42:53Z</time>
      </trkpt>
      <trkpt lat="28.7867520" lon="-17.9064480">
        <ele>1310.3</ele>
        <time>2020-11-16T16:42:54Z</time>
      </trkpt>
      <trkpt lat="28.7867070" lon="-17.9064570">
        <ele>1310.8</ele>
        <time>2020-11-16T16:42:55Z</time>
      </trkpt>
      <trkpt lat="28.7866970" lon="-17.9064600">
        <ele>1310.9</ele>
        <time>2020-11-16T16:42:56Z</time>
      </trkpt>
      <trkpt lat="28.7866970" lon="-17.9064600">
        <ele>1310.9</ele>
        <time>2020-11-16T16:42:57Z</time>
      </trkpt>
      <trkpt lat="28.7866700" lon="-17.9064680">
        <ele>1311.2</ele>
        <time>2020-11-16T16:42:58Z</time>
      </trkpt>
      <trkpt lat="28.7866700" lon="-17.9064680">
        <ele>1311.2</ele>
        <time>2020-11-16T16:42:59Z</time>
      </trkpt>
      <trkpt lat="28.7866500" lon="-17.9064800">
        <ele>1311.4</ele>
        <time>2020-11-16T16:43:00Z</time>
      </trkpt>
      <trkpt lat="28.7866500" lon="-17.9064800">
        <ele>1311.4</ele>
        <time>2020-11-16T16:43:01Z</time>
      </trkpt>
      <trkpt lat="28.7866320" lon="-17.9064970">
        <ele>1311.6</ele>
        <time>2020-11-16T16:43:02Z</time>
      </trkpt>
      <trkpt lat="28.7866280" lon="-17.9065050">
        <ele>1311.7</ele>
        <time>2020-11-16T16:43:03Z</time>
      </trkpt>
      <trkpt lat="28.7866280" lon="-17.9065050">
        <ele>1311.7</ele>
        <time>2020-11-16T16:43:04Z</time>
      </trkpt>
      <trkpt lat="28.7865930" lon="-17.9065220">
        <ele>1312.0</ele>
        <time>2020-11-16T16:43:05Z</time>
      </trkpt>
      <trkpt lat="28.7865720" lon="-17.9065330">
        <ele>1312.2</ele>
        <time>2020-11-16T16:43:06Z</time>
      </trkpt>
      <trkpt lat="28.7865720" lon="-17.9065330">
        <ele>1312.2</ele>
        <time>2020-11-16T16:43:07Z</time>
      </trkpt>
      <trkpt lat="28.7865480" lon="-17.9065550">
        <ele>1312.4</ele>
        <time>2020-11-16T16:43:08Z</time>
      </trkpt>
      <trkpt lat="28.7865480" lon="-17.9065550">
        <ele>1312.4</ele>
        <time>2020-11-16T16:43:09Z</time>
      </trkpt>
      <trkpt lat="28.7865220" lon="-17.9065770">
        <ele>1312.7</ele>
        <time>2020-11-16T16:43:10Z</time>
      </trkpt>
      <trkpt lat="28.7865220" lon="-17.9065770">
        <ele>1312.7</ele>
        <time>2020-11-16T16:43:11Z</time>
      </trkpt>
      <trkpt lat="28.7864870" lon="-17.9065980">
        <ele>1313.0</ele>
        <time>2020-11-16T16:43:12Z</time>
      </trkpt>
      <trkpt lat="28.7864870" lon="-17.9065980">
        <ele>1313.0</ele>
        <time>2020-11-16T16:43:13Z</time>
      </trkpt>
      <trkpt lat="28.7864550" lon="-17.9066250">
        <ele>1313.3</ele>
        <time>2020-11-16T16:43:14Z</time>
      </trkpt>
      <trkpt lat="28.7864550" lon="-17.9066250">
        <ele>1313.3</ele>
        <time>2020-11-16T16:43:15Z</time>
      </trkpt>
      <trkpt lat="28.7864030" lon="-17.9066530">
        <ele>1313.7</ele>
        <time>2020-11-16T16:43:16Z</time>
      </trkpt>
      <trkpt lat="28.7864030" lon="-17.9066530">
        <ele>1313.7</ele>
        <time>2020-11-16T16:43:17Z</time>
      </trkpt>
      <trkpt lat="28.7863600" lon="-17.9066780">
        <ele>1314.1</ele>
        <time>2020-11-16T16:43:18Z</time>
      </trkpt>
      <trkpt lat="28.7863600" lon="-17.9066780">
        <ele>1314.1</ele>
        <time>2020-11-16T16:43:19Z</time>
      </trkpt>
      <trkpt lat="28.7863250" lon="-17.9067080">
        <ele>1314.5</ele>
        <time>2020-11-16T16:43:20Z</time>
      </trkpt>
      <trkpt lat="28.7863250" lon="-17.9067080">
        <ele>1314.5</ele>
        <time>2020-11-16T16:43:21Z</time>
      </trkpt>
      <trkpt lat="28.7862920" lon="-17.9067350">
        <ele>1314.8</ele>
        <time>2020-11-16T16:43:22Z</time>
      </trkpt>
      <trkpt lat="28.7862770" lon="-17.9067480">
        <ele>1314.9</ele>
        <time>2020-11-16T16:43:23Z</time>
      </trkpt>
      <trkpt lat="28.7862770" lon="-17.9067480">
        <ele>1314.9</ele>
        <time>2020-11-16T16:43:24Z</time>
      </trkpt>
      <trkpt lat="28.7862520" lon="-17.9067620">
        <ele>1315.2</ele>
        <time>2020-11-16T16:43:25Z</time>
      </trkpt>
      <trkpt lat="28.7862320" lon="-17.9067770">
        <ele>1315.3</ele>
        <time>2020-11-16T16:43:26Z</time>
      </trkpt>
      <trkpt lat="28.7862320" lon="-17.9067770">
        <ele>1315.3</ele>
        <time>2020-11-16T16:43:27Z</time>
      </trkpt>
      <trkpt lat="28.7861920" lon="-17.9068100">
        <ele>1315.7</ele>
        <time>2020-11-16T16:43:28Z</time>
      </trkpt>
      <trkpt lat="28.7861920" lon="-17.9068100">
        <ele>1315.7</ele>
        <time>2020-11-16T16:43:29Z</time>
      </trkpt>
      <trkpt lat="28.7861780" lon="-17.9068230">
        <ele>1315.8</ele>
        <time>2020-11-16T16:43:30Z</time>
      </trkpt>
      <trkpt lat="28.7861780" lon="-17.9068230">
        <ele>1315.8</ele>
        <time>2020-11-16T16:43:31Z</time>
      </trkpt>
      <trkpt lat="28.7861670" lon="-17.9068220">
        <ele>1315.9</ele>
        <time>2020-11-16T16:43:32Z</time>
      </trkpt>
      <trkpt lat="28.7861670" lon="-17.9068220">
        <ele>1315.9</ele>
        <time>2020-11-16T16:43:33Z</time>
      </trkpt>
      <trkpt lat="28.7861570" lon="-17.9068180">
        <ele>1316.0</ele>
        <time>2020-11-16T16:43:34Z</time>
      </trkpt>
      <trkpt lat="28.7861570" lon="-17.9068180">
        <ele>1316.0</ele>
        <time>2020-11-16T16:45:35Z</time>
      </trkpt>
      <trkpt lat="28.7861370" lon="-17.9068950">
        <ele>1316.4</ele>
        <time>2020-11-16T16:45:36Z</time>
      </trkpt>
      <trkpt lat="28.7861380" lon="-17.9069020">
        <ele>1316.4</ele>
        <time>2020-11-16T16:45:37Z</time>
      </trkpt>
      <trkpt lat="28.7861380" lon="-17.9069020">
        <ele>1316.4</ele>
        <time>2020-11-16T16:45:38Z</time>
      </trkpt>
      <trkpt lat="28.7861380" lon="-17.9069120">
        <ele>1316.5</ele>
        <time>2020-11-16T16:45:39Z</time>
      </trkpt>
      <trkpt lat="28.7861380" lon="-17.9069120">
        <ele>1316.5</ele>
        <time>2020-11-16T16:45:40Z</time>
      </trkpt>
      <trkpt lat="28.7861380" lon="-17.9069320">
        <ele>1316.6</ele>
        <time>2020-11-16T16:45:41Z</time>
      </trkpt>
      <trkpt lat="28.7861380" lon="-17.9069320">
        <ele>1316.6</ele>
        <time>2020-11-16T16:45:42Z</time>
      </trkpt>
      <trkpt lat="28.7861420" lon="-17.9069530">
        <ele>1316.7</ele>
        <time>2020-11-16T16:45:43Z</time>
      </trkpt>
      <trkpt lat="28.7861420" lon="-17.9069530">
        <ele>1316.7</ele>
        <time>2020-11-16T16:45:44Z</time>
      </trkpt>
      <trkpt lat="28.7861700" lon="-17.9069680">
        <ele>1316.9</ele>
        <time>2020-11-16T16:45:45Z</time>
      </trkpt>
      <trkpt lat="28.7861700" lon="-17.9069680">
        <ele>1316.9</ele>
        <time>2020-11-16T16:45:46Z</time>
      </trkpt>
      <trkpt lat="28.7861900" lon="-17.9069970">
        <ele>1317.1</ele>
        <time>2020-11-16T16:45:47Z</time>
      </trkpt>
      <trkpt lat="28.7862020" lon="-17.9070120">
        <ele>1317.2</ele>
        <time>2020-11-16T16:45:48Z</time>
      </trkpt>
      <trkpt lat="28.7862020" lon="-17.9070120">
        <ele>1317.2</ele>
        <time>2020-11-16T16:45:49Z</time>
      </trkpt>
      <trkpt lat="28.7862270" lon="-17.9070270">
        <ele>1317.4</ele>
        <time>2020-11-16T16:45:50Z</time>
      </trkpt>
      <trkpt lat="28.7862270" lon="-17.9070270">
        <ele>1317.4</ele>
        <time>2020-11-16T16:45:51Z</time>
      </trkpt>
      <trkpt lat="28.7862480" lon="-17.9070400">
        <ele>1317.5</ele>
        <time>2020-11-16T16:45:52Z</time>
      </trkpt>
      <trkpt lat="28.7862480" lon="-17.9070400">
        <ele>1317.5</ele>
        <time>2020-11-16T16:45:53Z</time>
      </trkpt>
      <trkpt lat="28.7862780" lon="-17.9070550">
        <ele>1317.7</ele>
        <time>2020-11-16T16:45:54Z</time>
      </trkpt>
      <trkpt lat="28.7862780" lon="-17.9070550">
        <ele>1317.7</ele>
        <time>2020-11-16T16:45:55Z</time>
      </trkpt>
      <trkpt lat="28.7863120" lon="-17.9070780">
        <ele>1317.9</ele>
        <time>2020-11-16T16:45:56Z</time>
      </trkpt>
      <trkpt lat="28.7863120" lon="-17.9070780">
        <ele>1317.9</ele>
        <time>2020-11-16T16:45:57Z</time>
      </trkpt>
      <trkpt lat="28.7863430" lon="-17.9071050">
        <ele>1318.1</ele>
        <time>2020-11-16T16:45:58Z</time>
      </trkpt>
      <trkpt lat="28.7863550" lon="-17.9071180">
        <ele>1318.2</ele>
        <time>2020-11-16T16:45:59Z</time>
      </trkpt>
      <trkpt lat="28.7863550" lon="-17.9071180">
        <ele>1318.2</ele>
        <time>2020-11-16T16:46:00Z</time>
      </trkpt>
      <trkpt lat="28.7863870" lon="-17.9071380">
        <ele>1318.4</ele>
        <time>2020-11-16T16:46:01Z</time>
      </trkpt>
      <trkpt lat="28.7863870" lon="-17.9071380">
        <ele>1318.4</ele>
        <time>2020-11-16T16:46:02Z</time>
      </trkpt>
      <trkpt lat="28.7864220" lon="-17.9071620">
        <ele>1318.7</ele>
        <time>2020-11-16T16:46:03Z</time>
      </trkpt>
      <trkpt lat="28.7864350" lon="-17.9071730">
        <ele>1318.8</ele>
        <time>2020-11-16T16:46:04Z</time>
      </trkpt>
      <trkpt lat="28.7864350" lon="-17.9071730">
        <ele>1318.8</ele>
        <time>2020-11-16T16:46:05Z</time>
      </trkpt>
      <trkpt lat="28.7864620" lon="-17.9072050">
        <ele>1319.1</ele>
        <time>2020-11-16T16:46:06Z</time>
      </trkpt>
      <trkpt lat="28.7864620" lon="-17.9072050">
        <ele>1319.1</ele>
        <time>2020-11-16T16:46:07Z</time>
      </trkpt>
      <trkpt lat="28.7864830" lon="-17.9072300">
        <ele>1319.3</ele>
        <time>2020-11-16T16:46:08Z</time>
      </trkpt>
      <trkpt lat="28.7864830" lon="-17.9072300">
        <ele>1319.3</ele>
        <time>2020-11-16T16:46:09Z</time>
      </trkpt>
      <trkpt lat="28.7865000" lon="-17.9072500">
        <ele>1319.5</ele>
        <time>2020-11-16T16:46:10Z</time>
      </trkpt>
      <trkpt lat="28.7865000" lon="-17.9072500">
        <ele>1319.5</ele>
        <time>2020-11-16T16:46:11Z</time>
      </trkpt>
      <trkpt lat="28.7865220" lon="-17.9072780">
        <ele>1319.8</ele>
        <time>2020-11-16T16:46:12Z</time>
      </trkpt>
      <trkpt lat="28.7865220" lon="-17.9072780">
        <ele>1319.8</ele>
        <time>2020-11-16T16:46:13Z</time>
      </trkpt>
      <trkpt lat="28.7865420" lon="-17.9073080">
        <ele>1320.0</ele>
        <time>2020-11-16T16:46:14Z</time>
      </trkpt>
      <trkpt lat="28.7865420" lon="-17.9073080">
        <ele>1320.0</ele>
        <time>2020-11-16T16:46:15Z</time>
      </trkpt>
      <trkpt lat="28.7865750" lon="-17.9073400">
        <ele>1320.4</ele>
        <time>2020-11-16T16:46:16Z</time>
      </trkpt>
      <trkpt lat="28.7865750" lon="-17.9073400">
        <ele>1320.4</ele>
        <time>2020-11-16T16:46:17Z</time>
      </trkpt>
      <trkpt lat="28.7865770" lon="-17.9073770">
        <ele>1320.7</ele>
        <time>2020-11-16T16:46:18Z</time>
      </trkpt>
      <trkpt lat="28.7865770" lon="-17.9073770">
        <ele>1320.7</ele>
        <time>2020-11-16T16:46:19Z</time>
      </trkpt>
      <trkpt lat="28.7865630" lon="-17.9074230">
        <ele>1321.0</ele>
        <time>2020-11-16T16:46:20Z</time>
      </trkpt>
      <trkpt lat="28.7865630" lon="-17.9074230">
        <ele>1321.0</ele>
        <time>2020-11-16T16:46:21Z</time>
      </trkpt>
      <trkpt lat="28.7865430" lon="-17.9074530">
        <ele>1321.3</ele>
        <time>2020-11-16T16:46:22Z</time>
      </trkpt>
      <trkpt lat="28.7865430" lon="-17.9074530">
        <ele>1321.3</ele>
        <time>2020-11-16T16:46:23Z</time>
      </trkpt>
      <trkpt lat="28.7865120" lon="-17.9074800">
        <ele>1321.6</ele>
        <time>2020-11-16T16:46:24Z</time>
      </trkpt>
      <trkpt lat="28.7865120" lon="-17.9074800">
        <ele>1321.6</ele>
        <time>2020-11-16T16:46:25Z</time>
      </trkpt>
      <trkpt lat="28.7864730" lon="-17.9074880">
        <ele>1321.9</ele>
        <time>2020-11-16T16:46:26Z</time>
      </trkpt>
      <trkpt lat="28.7864730" lon="-17.9074880">
        <ele>1321.9</ele>
        <time>2020-11-16T16:46:27Z</time>
      </trkpt>
      <trkpt lat="28.7864370" lon="-17.9074900">
        <ele>1322.2</ele>
        <time>2020-11-16T16:46:28Z</time>
      </trkpt>
      <trkpt lat="28.7864370" lon="-17.9074900">
        <ele>1322.2</ele>
        <time>2020-11-16T16:46:29Z</time>
      </trkpt>
      <trkpt lat="28.7864020" lon="-17.9074870">
        <ele>1322.5</ele>
        <time>2020-11-16T16:46:30Z</time>
      </trkpt>
      <trkpt lat="28.7864020" lon="-17.9074870">
        <ele>1322.5</ele>
        <time>2020-11-16T16:46:31Z</time>
      </trkpt>
      <trkpt lat="28.7863700" lon="-17.9074770">
        <ele>1322.8</ele>
        <time>2020-11-16T16:46:32Z</time>
      </trkpt>
      <trkpt lat="28.7863700" lon="-17.9074770">
        <ele>1322.8</ele>
        <time>2020-11-16T16:46:33Z</time>
      </trkpt>
      <trkpt lat="28.7863450" lon="-17.9074770">
        <ele>1323.0</ele>
        <time>2020-11-16T16:46:34Z</time>
      </trkpt>
      <trkpt lat="28.7863450" lon="-17.9074770">
        <ele>1323.0</ele>
        <time>2020-11-16T16:46:35Z</time>
      </trkpt>
      <trkpt lat="28.7863180" lon="-17.9074630">
        <ele>1323.2</ele>
        <time>2020-11-16T16:46:36Z</time>
      </trkpt>
      <trkpt lat="28.7863180" lon="-17.9074630">
        <ele>1323.2</ele>
        <time>2020-11-16T16:46:37Z</time>
      </trkpt>
      <trkpt lat="28.7862900" lon="-17.9074480">
        <ele>1323.5</ele>
        <time>2020-11-16T16:46:38Z</time>
      </trkpt>
      <trkpt lat="28.7862900" lon="-17.9074480">
        <ele>1323.5</ele>
        <time>2020-11-16T16:46:39Z</time>
      </trkpt>
      <trkpt lat="28.7862730" lon="-17.9074280">
        <ele>1323.6</ele>
        <time>2020-11-16T16:46:40Z</time>
      </trkpt>
      <trkpt lat="28.7862730" lon="-17.9074280">
        <ele>1323.6</ele>
        <time>2020-11-16T16:46:41Z</time>
      </trkpt>
      <trkpt lat="28.7862480" lon="-17.9074170">
        <ele>1323.8</ele>
        <time>2020-11-16T16:46:42Z</time>
      </trkpt>
      <trkpt lat="28.7862480" lon="-17.9074170">
        <ele>1323.8</ele>
        <time>2020-11-16T16:46:43Z</time>
      </trkpt>
      <trkpt lat="28.7862180" lon="-17.9074130">
        <ele>1324.0</ele>
        <time>2020-11-16T16:46:44Z</time>
      </trkpt>
      <trkpt lat="28.7862180" lon="-17.9074130">
        <ele>1324.0</ele>
        <time>2020-11-16T16:46:45Z</time>
      </trkpt>
      <trkpt lat="28.7861970" lon="-17.9074130">
        <ele>1324.2</ele>
        <time>2020-11-16T16:46:46Z</time>
      </trkpt>
      <trkpt lat="28.7861700" lon="-17.9074200">
        <ele>1324.4</ele>
        <time>2020-11-16T16:46:47Z</time>
      </trkpt>
      <trkpt lat="28.7861700" lon="-17.9074200">
        <ele>1324.4</ele>
        <time>2020-11-16T16:46:48Z</time>
      </trkpt>
      <trkpt lat="28.7861280" lon="-17.9074270">
        <ele>1324.6</ele>
        <time>2020-11-16T16:46:49Z</time>
      </trkpt>
      <trkpt lat="28.7861280" lon="-17.9074270">
        <ele>1324.6</ele>
        <time>2020-11-16T16:46:50Z</time>
      </trkpt>
      <trkpt lat="28.7861080" lon="-17.9074330">
        <ele>1324.8</ele>
        <time>2020-11-16T16:46:51Z</time>
      </trkpt>
      <trkpt lat="28.7861080" lon="-17.9074330">
        <ele>1324.8</ele>
        <time>2020-11-16T16:46:52Z</time>
      </trkpt>
      <trkpt lat="28.7860780" lon="-17.9074470">
        <ele>1325.0</ele>
        <time>2020-11-16T16:46:53Z</time>
      </trkpt>
      <trkpt lat="28.7860780" lon="-17.9074470">
        <ele>1325.0</ele>
        <time>2020-11-16T16:46:54Z</time>
      </trkpt>
      <trkpt lat="28.7860480" lon="-17.9074620">
        <ele>1325.2</ele>
        <time>2020-11-16T16:46:55Z</time>
      </trkpt>
      <trkpt lat="28.7860480" lon="-17.9074620">
        <ele>1325.2</ele>
        <time>2020-11-16T16:46:56Z</time>
      </trkpt>
      <trkpt lat="28.7860220" lon="-17.9074850">
        <ele>1325.4</ele>
        <time>2020-11-16T16:46:57Z</time>
      </trkpt>
      <trkpt lat="28.7860070" lon="-17.9074900">
        <ele>1325.6</ele>
        <time>2020-11-16T16:46:58Z</time>
      </trkpt>
      <trkpt lat="28.7860070" lon="-17.9074900">
        <ele>1325.6</ele>
        <time>2020-11-16T16:46:59Z</time>
      </trkpt>
      <trkpt lat="28.7859820" lon="-17.9075080">
        <ele>1325.8</ele>
        <time>2020-11-16T16:47:00Z</time>
      </trkpt>
      <trkpt lat="28.7859650" lon="-17.9075170">
        <ele>1325.9</ele>
        <time>2020-11-16T16:47:01Z</time>
      </trkpt>
      <trkpt lat="28.7859650" lon="-17.9075170">
        <ele>1325.9</ele>
        <time>2020-11-16T16:47:02Z</time>
      </trkpt>
      <trkpt lat="28.7859450" lon="-17.9075280">
        <ele>1326.1</ele>
        <time>2020-11-16T16:47:03Z</time>
      </trkpt>
      <trkpt lat="28.7859450" lon="-17.9075280">
        <ele>1326.1</ele>
        <time>2020-11-16T16:47:04Z</time>
      </trkpt>
      <trkpt lat="28.7859320" lon="-17.9075320">
        <ele>1326.2</ele>
        <time>2020-11-16T16:47:05Z</time>
      </trkpt>
      <trkpt lat="28.7859320" lon="-17.9075320">
        <ele>1326.2</ele>
        <time>2020-11-16T16:47:06Z</time>
      </trkpt>
      <trkpt lat="28.7859050" lon="-17.9075480">
        <ele>1326.4</ele>
        <time>2020-11-16T16:47:07Z</time>
      </trkpt>
      <trkpt lat="28.7858950" lon="-17.9075580">
        <ele>1326.5</ele>
        <time>2020-11-16T16:47:08Z</time>
      </trkpt>
      <trkpt lat="28.7858950" lon="-17.9075580">
        <ele>1326.5</ele>
        <time>2020-11-16T16:47:09Z</time>
      </trkpt>
      <trkpt lat="28.7858770" lon="-17.9075750">
        <ele>1326.7</ele>
        <time>2020-11-16T16:47:10Z</time>
      </trkpt>
      <trkpt lat="28.7858770" lon="-17.9075750">
        <ele>1326.7</ele>
        <time>2020-11-16T16:47:11Z</time>
      </trkpt>
      <trkpt lat="28.7858430" lon="-17.9075920">
        <ele>1326.9</ele>
        <time>2020-11-16T16:47:12Z</time>
      </trkpt>
      <trkpt lat="28.7858280" lon="-17.9075980">
        <ele>1327.1</ele>
        <time>2020-11-16T16:47:13Z</time>
      </trkpt>
      <trkpt lat="28.7858280" lon="-17.9075980">
        <ele>1327.1</ele>
        <time>2020-11-16T16:47:14Z</time>
      </trkpt>
      <trkpt lat="28.7858030" lon="-17.9076130">
        <ele>1327.2</ele>
        <time>2020-11-16T16:47:15Z</time>
      </trkpt>
      <trkpt lat="28.7858030" lon="-17.9076130">
        <ele>1327.2</ele>
        <time>2020-11-16T16:47:16Z</time>
      </trkpt>
      <trkpt lat="28.7857820" lon="-17.9076320">
        <ele>1327.4</ele>
        <time>2020-11-16T16:47:17Z</time>
      </trkpt>
      <trkpt lat="28.7857820" lon="-17.9076320">
        <ele>1327.4</ele>
        <time>2020-11-16T16:47:18Z</time>
      </trkpt>
      <trkpt lat="28.7857170" lon="-17.9076700">
        <ele>1327.9</ele>
        <time>2020-11-16T16:47:19Z</time>
      </trkpt>
      <trkpt lat="28.7857070" lon="-17.9076880">
        <ele>1328.1</ele>
        <time>2020-11-16T16:47:20Z</time>
      </trkpt>
      <trkpt lat="28.7857070" lon="-17.9076880">
        <ele>1328.1</ele>
        <time>2020-11-16T16:47:21Z</time>
      </trkpt>
      <trkpt lat="28.7856650" lon="-17.9077280">
        <ele>1328.4</ele>
        <time>2020-11-16T16:47:22Z</time>
      </trkpt>
      <trkpt lat="28.7856650" lon="-17.9077280">
        <ele>1328.4</ele>
        <time>2020-11-16T16:47:23Z</time>
      </trkpt>
      <trkpt lat="28.7856370" lon="-17.9077680">
        <ele>1328.7</ele>
        <time>2020-11-16T16:47:24Z</time>
      </trkpt>
      <trkpt lat="28.7856370" lon="-17.9077680">
        <ele>1328.7</ele>
        <time>2020-11-16T16:47:25Z</time>
      </trkpt>
      <trkpt lat="28.7856470" lon="-17.9078020">
        <ele>1328.9</ele>
        <time>2020-11-16T16:47:26Z</time>
      </trkpt>
      <trkpt lat="28.7856470" lon="-17.9078020">
        <ele>1328.9</ele>
        <time>2020-11-16T16:47:27Z</time>
      </trkpt>
      <trkpt lat="28.7856480" lon="-17.9078280">
        <ele>1329.1</ele>
        <time>2020-11-16T16:47:28Z</time>
      </trkpt>
      <trkpt lat="28.7856480" lon="-17.9078280">
        <ele>1329.1</ele>
        <time>2020-11-16T16:47:29Z</time>
      </trkpt>
      <trkpt lat="28.7856580" lon="-17.9078530">
        <ele>1329.3</ele>
        <time>2020-11-16T16:47:30Z</time>
      </trkpt>
      <trkpt lat="28.7856580" lon="-17.9078530">
        <ele>1329.3</ele>
        <time>2020-11-16T16:47:31Z</time>
      </trkpt>
      <trkpt lat="28.7856730" lon="-17.9078700">
        <ele>1329.4</ele>
        <time>2020-11-16T16:47:32Z</time>
      </trkpt>
      <trkpt lat="28.7856730" lon="-17.9078700">
        <ele>1329.4</ele>
        <time>2020-11-16T16:47:33Z</time>
      </trkpt>
      <trkpt lat="28.7856730" lon="-17.9078700">
        <ele>1329.4</ele>
        <time>2020-11-16T16:47:34Z</time>
      </trkpt>
      <trkpt lat="28.7856850" lon="-17.9078780">
        <ele>1329.5</ele>
        <time>2020-11-16T16:47:35Z</time>
      </trkpt>
      <trkpt lat="28.7857020" lon="-17.9078800">
        <ele>1329.6</ele>
        <time>2020-11-16T16:47:36Z</time>
      </trkpt>
      <trkpt lat="28.7857020" lon="-17.9078800">
        <ele>1329.6</ele>
        <time>2020-11-16T16:47:37Z</time>
      </trkpt>
      <trkpt lat="28.7857220" lon="-17.9079030">
        <ele>1329.8</ele>
        <time>2020-11-16T16:47:38Z</time>
      </trkpt>
      <trkpt lat="28.7857220" lon="-17.9079030">
        <ele>1329.8</ele>
        <time>2020-11-16T16:47:39Z</time>
      </trkpt>
      <trkpt lat="28.7857480" lon="-17.9079250">
        <ele>1330.1</ele>
        <time>2020-11-16T16:47:40Z</time>
      </trkpt>
      <trkpt lat="28.7857480" lon="-17.9079250">
        <ele>1330.1</ele>
        <time>2020-11-16T16:47:41Z</time>
      </trkpt>
      <trkpt lat="28.7857850" lon="-17.9079450">
        <ele>1330.4</ele>
        <time>2020-11-16T16:47:42Z</time>
      </trkpt>
      <trkpt lat="28.7857850" lon="-17.9079450">
        <ele>1330.4</ele>
        <time>2020-11-16T16:47:43Z</time>
      </trkpt>
      <trkpt lat="28.7858150" lon="-17.9079770">
        <ele>1330.7</ele>
        <time>2020-11-16T16:47:44Z</time>
      </trkpt>
      <trkpt lat="28.7858150" lon="-17.9079770">
        <ele>1330.7</ele>
        <time>2020-11-16T16:47:45Z</time>
      </trkpt>
      <trkpt lat="28.7858430" lon="-17.9080020">
        <ele>1330.9</ele>
        <time>2020-11-16T16:47:46Z</time>
      </trkpt>
      <trkpt lat="28.7858430" lon="-17.9080020">
        <ele>1330.9</ele>
        <time>2020-11-16T16:47:47Z</time>
      </trkpt>
      <trkpt lat="28.7858650" lon="-17.9080250">
        <ele>1331.2</ele>
        <time>2020-11-16T16:47:48Z</time>
      </trkpt>
      <trkpt lat="28.7858650" lon="-17.9080250">
        <ele>1331.2</ele>
        <time>2020-11-16T16:47:49Z</time>
      </trkpt>
      <trkpt lat="28.7858770" lon="-17.9080630">
        <ele>1331.4</ele>
        <time>2020-11-16T16:47:50Z</time>
      </trkpt>
      <trkpt lat="28.7858770" lon="-17.9080630">
        <ele>1331.4</ele>
        <time>2020-11-16T16:47:51Z</time>
      </trkpt>
      <trkpt lat="28.7859050" lon="-17.9080880">
        <ele>1331.7</ele>
        <time>2020-11-16T16:47:52Z</time>
      </trkpt>
      <trkpt lat="28.7859050" lon="-17.9080880">
        <ele>1331.7</ele>
        <time>2020-11-16T16:47:53Z</time>
      </trkpt>
      <trkpt lat="28.7859300" lon="-17.9081180">
        <ele>1331.9</ele>
        <time>2020-11-16T16:47:54Z</time>
      </trkpt>
      <trkpt lat="28.7859300" lon="-17.9081180">
        <ele>1331.9</ele>
        <time>2020-11-16T16:47:55Z</time>
      </trkpt>
      <trkpt lat="28.7859530" lon="-17.9081620">
        <ele>1332.2</ele>
        <time>2020-11-16T16:47:56Z</time>
      </trkpt>
      <trkpt lat="28.7859530" lon="-17.9081620">
        <ele>1332.2</ele>
        <time>2020-11-16T16:47:57Z</time>
      </trkpt>
      <trkpt lat="28.7859700" lon="-17.9082030">
        <ele>1332.4</ele>
        <time>2020-11-16T16:47:58Z</time>
      </trkpt>
      <trkpt lat="28.7859700" lon="-17.9082030">
        <ele>1332.4</ele>
        <time>2020-11-16T16:47:59Z</time>
      </trkpt>
      <trkpt lat="28.7859920" lon="-17.9082380">
        <ele>1332.6</ele>
        <time>2020-11-16T16:48:00Z</time>
      </trkpt>
      <trkpt lat="28.7859920" lon="-17.9082380">
        <ele>1332.6</ele>
        <time>2020-11-16T16:48:01Z</time>
      </trkpt>
      <trkpt lat="28.7860080" lon="-17.9082750">
        <ele>1332.7</ele>
        <time>2020-11-16T16:48:02Z</time>
      </trkpt>
      <trkpt lat="28.7860080" lon="-17.9082750">
        <ele>1332.7</ele>
        <time>2020-11-16T16:48:03Z</time>
      </trkpt>
      <trkpt lat="28.7860300" lon="-17.9083130">
        <ele>1332.9</ele>
        <time>2020-11-16T16:48:04Z</time>
      </trkpt>
      <trkpt lat="28.7860300" lon="-17.9083130">
        <ele>1332.9</ele>
        <time>2020-11-16T16:48:05Z</time>
      </trkpt>
      <trkpt lat="28.7860550" lon="-17.9083470">
        <ele>1333.1</ele>
        <time>2020-11-16T16:48:06Z</time>
      </trkpt>
      <trkpt lat="28.7860750" lon="-17.9083620">
        <ele>1333.3</ele>
        <time>2020-11-16T16:48:07Z</time>
      </trkpt>
      <trkpt lat="28.7860900" lon="-17.9083730">
        <ele>1333.4</ele>
        <time>2020-11-16T16:48:08Z</time>
      </trkpt>
      <trkpt lat="28.7860900" lon="-17.9083730">
        <ele>1333.4</ele>
        <time>2020-11-16T16:48:09Z</time>
      </trkpt>
      <trkpt lat="28.7861080" lon="-17.9084000">
        <ele>1333.6</ele>
        <time>2020-11-16T16:48:10Z</time>
      </trkpt>
      <trkpt lat="28.7861080" lon="-17.9084000">
        <ele>1333.6</ele>
        <time>2020-11-16T16:48:11Z</time>
      </trkpt>
      <trkpt lat="28.7861280" lon="-17.9084350">
        <ele>1333.8</ele>
        <time>2020-11-16T16:48:12Z</time>
      </trkpt>
      <trkpt lat="28.7861280" lon="-17.9084350">
        <ele>1333.8</ele>
        <time>2020-11-16T16:48:13Z</time>
      </trkpt>
      <trkpt lat="28.7861400" lon="-17.9084670">
        <ele>1334.1</ele>
        <time>2020-11-16T16:48:14Z</time>
      </trkpt>
      <trkpt lat="28.7861400" lon="-17.9084670">
        <ele>1334.1</ele>
        <time>2020-11-16T16:48:15Z</time>
      </trkpt>
      <trkpt lat="28.7861620" lon="-17.9085100">
        <ele>1334.4</ele>
        <time>2020-11-16T16:48:16Z</time>
      </trkpt>
      <trkpt lat="28.7861620" lon="-17.9085100">
        <ele>1334.4</ele>
        <time>2020-11-16T16:48:17Z</time>
      </trkpt>
      <trkpt lat="28.7861820" lon="-17.9085420">
        <ele>1334.7</ele>
        <time>2020-11-16T16:48:18Z</time>
      </trkpt>
      <trkpt lat="28.7861820" lon="-17.9085420">
        <ele>1334.7</ele>
        <time>2020-11-16T16:48:19Z</time>
      </trkpt>
      <trkpt lat="28.7862050" lon="-17.9085720">
        <ele>1335.0</ele>
        <time>2020-11-16T16:48:20Z</time>
      </trkpt>
      <trkpt lat="28.7862050" lon="-17.9085720">
        <ele>1335.0</ele>
        <time>2020-11-16T16:48:21Z</time>
      </trkpt>
      <trkpt lat="28.7862200" lon="-17.9086120">
        <ele>1335.4</ele>
        <time>2020-11-16T16:48:22Z</time>
      </trkpt>
      <trkpt lat="28.7862200" lon="-17.9086120">
        <ele>1335.4</ele>
        <time>2020-11-16T16:48:23Z</time>
      </trkpt>
      <trkpt lat="28.7862420" lon="-17.9086580">
        <ele>1335.8</ele>
        <time>2020-11-16T16:48:24Z</time>
      </trkpt>
      <trkpt lat="28.7862580" lon="-17.9086750">
        <ele>1336.0</ele>
        <time>2020-11-16T16:48:25Z</time>
      </trkpt>
      <trkpt lat="28.7862580" lon="-17.9086750">
        <ele>1336.0</ele>
        <time>2020-11-16T16:48:26Z</time>
      </trkpt>
      <trkpt lat="28.7862830" lon="-17.9086980">
        <ele>1336.2</ele>
        <time>2020-11-16T16:48:27Z</time>
      </trkpt>
      <trkpt lat="28.7862830" lon="-17.9086980">
        <ele>1336.2</ele>
        <time>2020-11-16T16:48:28Z</time>
      </trkpt>
      <trkpt lat="28.7863030" lon="-17.9087300">
        <ele>1336.5</ele>
        <time>2020-11-16T16:48:29Z</time>
      </trkpt>
      <trkpt lat="28.7863030" lon="-17.9087300">
        <ele>1336.5</ele>
        <time>2020-11-16T16:48:30Z</time>
      </trkpt>
      <trkpt lat="28.7863180" lon="-17.9087620">
        <ele>1336.7</ele>
        <time>2020-11-16T16:48:31Z</time>
      </trkpt>
      <trkpt lat="28.7863270" lon="-17.9087750">
        <ele>1336.8</ele>
        <time>2020-11-16T16:48:32Z</time>
      </trkpt>
      <trkpt lat="28.7863270" lon="-17.9087750">
        <ele>1336.8</ele>
        <time>2020-11-16T16:48:33Z</time>
      </trkpt>
      <trkpt lat="28.7863270" lon="-17.9088120">
        <ele>1337.1</ele>
        <time>2020-11-16T16:48:34Z</time>
      </trkpt>
      <trkpt lat="28.7863270" lon="-17.9088120">
        <ele>1337.1</ele>
        <time>2020-11-16T16:48:35Z</time>
      </trkpt>
      <trkpt lat="28.7863180" lon="-17.9088450">
        <ele>1337.3</ele>
        <time>2020-11-16T16:48:36Z</time>
      </trkpt>
      <trkpt lat="28.7863180" lon="-17.9088450">
        <ele>1337.3</ele>
        <time>2020-11-16T16:48:37Z</time>
      </trkpt>
      <trkpt lat="28.7863150" lon="-17.9088830">
        <ele>1337.6</ele>
        <time>2020-11-16T16:48:38Z</time>
      </trkpt>
      <trkpt lat="28.7863150" lon="-17.9088830">
        <ele>1337.6</ele>
        <time>2020-11-16T16:48:39Z</time>
      </trkpt>
      <trkpt lat="28.7863130" lon="-17.9089130">
        <ele>1337.8</ele>
        <time>2020-11-16T16:48:40Z</time>
      </trkpt>
      <trkpt lat="28.7863130" lon="-17.9089130">
        <ele>1337.8</ele>
        <time>2020-11-16T16:48:41Z</time>
      </trkpt>
      <trkpt lat="28.7863130" lon="-17.9089330">
        <ele>1338.0</ele>
        <time>2020-11-16T16:48:42Z</time>
      </trkpt>
      <trkpt lat="28.7863130" lon="-17.9089330">
        <ele>1338.0</ele>
        <time>2020-11-16T16:48:43Z</time>
      </trkpt>
      <trkpt lat="28.7863180" lon="-17.9089600">
        <ele>1338.2</ele>
        <time>2020-11-16T16:48:44Z</time>
      </trkpt>
      <trkpt lat="28.7863180" lon="-17.9089600">
        <ele>1338.2</ele>
        <time>2020-11-16T16:48:45Z</time>
      </trkpt>
      <trkpt lat="28.7863270" lon="-17.9089950">
        <ele>1338.5</ele>
        <time>2020-11-16T16:48:46Z</time>
      </trkpt>
      <trkpt lat="28.7863270" lon="-17.9089950">
        <ele>1338.5</ele>
        <time>2020-11-16T16:48:47Z</time>
      </trkpt>
      <trkpt lat="28.7863350" lon="-17.9090320">
        <ele>1338.7</ele>
        <time>2020-11-16T16:48:48Z</time>
      </trkpt>
      <trkpt lat="28.7863350" lon="-17.9090320">
        <ele>1338.7</ele>
        <time>2020-11-16T16:48:49Z</time>
      </trkpt>
      <trkpt lat="28.7863520" lon="-17.9090750">
        <ele>1339.1</ele>
        <time>2020-11-16T16:48:50Z</time>
      </trkpt>
      <trkpt lat="28.7863520" lon="-17.9090750">
        <ele>1339.1</ele>
        <time>2020-11-16T16:48:51Z</time>
      </trkpt>
      <trkpt lat="28.7863670" lon="-17.9091400">
        <ele>1339.6</ele>
        <time>2020-11-16T16:48:52Z</time>
      </trkpt>
      <trkpt lat="28.7863670" lon="-17.9091400">
        <ele>1339.6</ele>
        <time>2020-11-16T16:48:53Z</time>
      </trkpt>
      <trkpt lat="28.7863830" lon="-17.9091880">
        <ele>1339.9</ele>
        <time>2020-11-16T16:48:54Z</time>
      </trkpt>
      <trkpt lat="28.7863830" lon="-17.9091880">
        <ele>1339.9</ele>
        <time>2020-11-16T16:48:55Z</time>
      </trkpt>
      <trkpt lat="28.7863950" lon="-17.9092380">
        <ele>1340.3</ele>
        <time>2020-11-16T16:48:56Z</time>
      </trkpt>
      <trkpt lat="28.7863950" lon="-17.9092380">
        <ele>1340.3</ele>
        <time>2020-11-16T16:48:57Z</time>
      </trkpt>
      <trkpt lat="28.7863970" lon="-17.9092670">
        <ele>1340.6</ele>
        <time>2020-11-16T16:48:58Z</time>
      </trkpt>
      <trkpt lat="28.7863970" lon="-17.9092670">
        <ele>1340.6</ele>
        <time>2020-11-16T16:48:59Z</time>
      </trkpt>
      <trkpt lat="28.7863980" lon="-17.9093170">
        <ele>1341.0</ele>
        <time>2020-11-16T16:49:00Z</time>
      </trkpt>
      <trkpt lat="28.7863980" lon="-17.9093170">
        <ele>1341.0</ele>
        <time>2020-11-16T16:49:01Z</time>
      </trkpt>
      <trkpt lat="28.7863880" lon="-17.9093700">
        <ele>1341.4</ele>
        <time>2020-11-16T16:49:02Z</time>
      </trkpt>
      <trkpt lat="28.7863880" lon="-17.9093700">
        <ele>1341.4</ele>
        <time>2020-11-16T16:49:03Z</time>
      </trkpt>
      <trkpt lat="28.7863780" lon="-17.9094180">
        <ele>1341.8</ele>
        <time>2020-11-16T16:49:04Z</time>
      </trkpt>
      <trkpt lat="28.7863780" lon="-17.9094180">
        <ele>1341.8</ele>
        <time>2020-11-16T16:49:05Z</time>
      </trkpt>
      <trkpt lat="28.7863700" lon="-17.9094630">
        <ele>1342.1</ele>
        <time>2020-11-16T16:49:06Z</time>
      </trkpt>
      <trkpt lat="28.7863700" lon="-17.9094630">
        <ele>1342.1</ele>
        <time>2020-11-16T16:49:07Z</time>
      </trkpt>
      <trkpt lat="28.7863550" lon="-17.9094970">
        <ele>1342.4</ele>
        <time>2020-11-16T16:49:08Z</time>
      </trkpt>
      <trkpt lat="28.7863550" lon="-17.9094970">
        <ele>1342.4</ele>
        <time>2020-11-16T16:49:09Z</time>
      </trkpt>
      <trkpt lat="28.7863270" lon="-17.9095280">
        <ele>1342.6</ele>
        <time>2020-11-16T16:49:10Z</time>
      </trkpt>
      <trkpt lat="28.7863270" lon="-17.9095280">
        <ele>1342.6</ele>
        <time>2020-11-16T16:49:11Z</time>
      </trkpt>
      <trkpt lat="28.7863000" lon="-17.9095600">
        <ele>1342.9</ele>
        <time>2020-11-16T16:49:12Z</time>
      </trkpt>
      <trkpt lat="28.7863000" lon="-17.9095600">
        <ele>1342.9</ele>
        <time>2020-11-16T16:49:13Z</time>
      </trkpt>
      <trkpt lat="28.7862750" lon="-17.9095870">
        <ele>1343.1</ele>
        <time>2020-11-16T16:49:14Z</time>
      </trkpt>
      <trkpt lat="28.7862750" lon="-17.9095870">
        <ele>1343.1</ele>
        <time>2020-11-16T16:49:15Z</time>
      </trkpt>
      <trkpt lat="28.7862470" lon="-17.9096050">
        <ele>1343.3</ele>
        <time>2020-11-16T16:49:16Z</time>
      </trkpt>
      <trkpt lat="28.7862470" lon="-17.9096050">
        <ele>1343.3</ele>
        <time>2020-11-16T16:49:17Z</time>
      </trkpt>
      <trkpt lat="28.7862230" lon="-17.9096180">
        <ele>1343.5</ele>
        <time>2020-11-16T16:49:18Z</time>
      </trkpt>
      <trkpt lat="28.7862230" lon="-17.9096180">
        <ele>1343.5</ele>
        <time>2020-11-16T16:49:19Z</time>
      </trkpt>
      <trkpt lat="28.7861970" lon="-17.9096320">
        <ele>1343.7</ele>
        <time>2020-11-16T16:49:20Z</time>
      </trkpt>
      <trkpt lat="28.7861970" lon="-17.9096320">
        <ele>1343.7</ele>
        <time>2020-11-16T16:49:21Z</time>
      </trkpt>
      <trkpt lat="28.7861700" lon="-17.9096470">
        <ele>1344.0</ele>
        <time>2020-11-16T16:49:22Z</time>
      </trkpt>
      <trkpt lat="28.7861700" lon="-17.9096470">
        <ele>1344.0</ele>
        <time>2020-11-16T16:49:23Z</time>
      </trkpt>
      <trkpt lat="28.7861320" lon="-17.9096500">
        <ele>1344.3</ele>
        <time>2020-11-16T16:49:24Z</time>
      </trkpt>
      <trkpt lat="28.7861230" lon="-17.9096480">
        <ele>1344.3</ele>
        <time>2020-11-16T16:49:25Z</time>
      </trkpt>
      <trkpt lat="28.7861230" lon="-17.9096480">
        <ele>1344.3</ele>
        <time>2020-11-16T16:49:26Z</time>
      </trkpt>
      <trkpt lat="28.7860980" lon="-17.9096420">
        <ele>1344.5</ele>
        <time>2020-11-16T16:49:27Z</time>
      </trkpt>
      <trkpt lat="28.7860980" lon="-17.9096420">
        <ele>1344.5</ele>
        <time>2020-11-16T16:49:28Z</time>
      </trkpt>
      <trkpt lat="28.7860730" lon="-17.9096370">
        <ele>1344.7</ele>
        <time>2020-11-16T16:49:29Z</time>
      </trkpt>
      <trkpt lat="28.7860630" lon="-17.9096350">
        <ele>1344.8</ele>
        <time>2020-11-16T16:49:30Z</time>
      </trkpt>
      <trkpt lat="28.7860630" lon="-17.9096350">
        <ele>1344.8</ele>
        <time>2020-11-16T16:49:31Z</time>
      </trkpt>
      <trkpt lat="28.7860380" lon="-17.9096280">
        <ele>1345.0</ele>
        <time>2020-11-16T16:49:32Z</time>
      </trkpt>
      <trkpt lat="28.7860380" lon="-17.9096280">
        <ele>1345.0</ele>
        <time>2020-11-16T16:49:33Z</time>
      </trkpt>
      <trkpt lat="28.7860080" lon="-17.9096220">
        <ele>1345.2</ele>
        <time>2020-11-16T16:49:34Z</time>
      </trkpt>
      <trkpt lat="28.7860080" lon="-17.9096220">
        <ele>1345.2</ele>
        <time>2020-11-16T16:49:35Z</time>
      </trkpt>
      <trkpt lat="28.7859720" lon="-17.9096320">
        <ele>1345.5</ele>
        <time>2020-11-16T16:49:36Z</time>
      </trkpt>
      <trkpt lat="28.7859720" lon="-17.9096320">
        <ele>1345.5</ele>
        <time>2020-11-16T16:49:37Z</time>
      </trkpt>
      <trkpt lat="28.7859220" lon="-17.9096600">
        <ele>1345.9</ele>
        <time>2020-11-16T16:49:38Z</time>
      </trkpt>
      <trkpt lat="28.7859220" lon="-17.9096600">
        <ele>1345.9</ele>
        <time>2020-11-16T16:49:39Z</time>
      </trkpt>
      <trkpt lat="28.7858950" lon="-17.9096920">
        <ele>1346.1</ele>
        <time>2020-11-16T16:49:40Z</time>
      </trkpt>
      <trkpt lat="28.7858950" lon="-17.9096920">
        <ele>1346.1</ele>
        <time>2020-11-16T16:49:41Z</time>
      </trkpt>
      <trkpt lat="28.7858830" lon="-17.9097230">
        <ele>1346.3</ele>
        <time>2020-11-16T16:49:42Z</time>
      </trkpt>
      <trkpt lat="28.7858830" lon="-17.9097230">
        <ele>1346.3</ele>
        <time>2020-11-16T16:49:43Z</time>
      </trkpt>
      <trkpt lat="28.7858880" lon="-17.9097530">
        <ele>1346.5</ele>
        <time>2020-11-16T16:49:44Z</time>
      </trkpt>
      <trkpt lat="28.7858880" lon="-17.9097530">
        <ele>1346.5</ele>
        <time>2020-11-16T16:49:45Z</time>
      </trkpt>
      <trkpt lat="28.7858920" lon="-17.9097830">
        <ele>1346.6</ele>
        <time>2020-11-16T16:49:46Z</time>
      </trkpt>
      <trkpt lat="28.7858920" lon="-17.9097830">
        <ele>1346.6</ele>
        <time>2020-11-16T16:49:47Z</time>
      </trkpt>
      <trkpt lat="28.7858920" lon="-17.9098130">
        <ele>1346.8</ele>
        <time>2020-11-16T16:49:48Z</time>
      </trkpt>
      <trkpt lat="28.7858920" lon="-17.9098130">
        <ele>1346.8</ele>
        <time>2020-11-16T16:49:49Z</time>
      </trkpt>
      <trkpt lat="28.7858830" lon="-17.9098480">
        <ele>1347.0</ele>
        <time>2020-11-16T16:49:50Z</time>
      </trkpt>
      <trkpt lat="28.7858830" lon="-17.9098480">
        <ele>1347.0</ele>
        <time>2020-11-16T16:49:51Z</time>
      </trkpt>
      <trkpt lat="28.7858680" lon="-17.9098850">
        <ele>1347.1</ele>
        <time>2020-11-16T16:49:52Z</time>
      </trkpt>
      <trkpt lat="28.7858680" lon="-17.9098850">
        <ele>1347.1</ele>
        <time>2020-11-16T16:49:53Z</time>
      </trkpt>
      <trkpt lat="28.7858220" lon="-17.9099750">
        <ele>1347.6</ele>
        <time>2020-11-16T16:49:54Z</time>
      </trkpt>
      <trkpt lat="28.7858220" lon="-17.9099750">
        <ele>1347.6</ele>
        <time>2020-11-16T16:49:55Z</time>
      </trkpt>
      <trkpt lat="28.7858000" lon="-17.9100280">
        <ele>1347.8</ele>
        <time>2020-11-16T16:49:56Z</time>
      </trkpt>
      <trkpt lat="28.7858000" lon="-17.9100280">
        <ele>1347.8</ele>
        <time>2020-11-16T16:49:57Z</time>
      </trkpt>
      <trkpt lat="28.7857730" lon="-17.9100670">
        <ele>1348.0</ele>
        <time>2020-11-16T16:49:58Z</time>
      </trkpt>
      <trkpt lat="28.7857580" lon="-17.9100870">
        <ele>1348.1</ele>
        <time>2020-11-16T16:49:59Z</time>
      </trkpt>
      <trkpt lat="28.7857580" lon="-17.9100870">
        <ele>1348.1</ele>
        <time>2020-11-16T16:50:00Z</time>
      </trkpt>
      <trkpt lat="28.7857280" lon="-17.9101200">
        <ele>1348.3</ele>
        <time>2020-11-16T16:50:01Z</time>
      </trkpt>
      <trkpt lat="28.7857150" lon="-17.9101320">
        <ele>1348.4</ele>
        <time>2020-11-16T16:50:02Z</time>
      </trkpt>
      <trkpt lat="28.7857150" lon="-17.9101320">
        <ele>1348.4</ele>
        <time>2020-11-16T16:50:03Z</time>
      </trkpt>
      <trkpt lat="28.7856820" lon="-17.9101670">
        <ele>1348.6</ele>
        <time>2020-11-16T16:50:04Z</time>
      </trkpt>
      <trkpt lat="28.7856820" lon="-17.9101670">
        <ele>1348.6</ele>
        <time>2020-11-16T16:50:05Z</time>
      </trkpt>
      <trkpt lat="28.7856480" lon="-17.9102170">
        <ele>1348.8</ele>
        <time>2020-11-16T16:50:06Z</time>
      </trkpt>
      <trkpt lat="28.7856350" lon="-17.9102400">
        <ele>1348.9</ele>
        <time>2020-11-16T16:50:07Z</time>
      </trkpt>
      <trkpt lat="28.7856350" lon="-17.9102400">
        <ele>1348.9</ele>
        <time>2020-11-16T16:50:08Z</time>
      </trkpt>
      <trkpt lat="28.7856100" lon="-17.9102870">
        <ele>1349.1</ele>
        <time>2020-11-16T16:50:09Z</time>
      </trkpt>
      <trkpt lat="28.7856030" lon="-17.9103070">
        <ele>1349.2</ele>
        <time>2020-11-16T16:50:10Z</time>
      </trkpt>
      <trkpt lat="28.7856030" lon="-17.9103070">
        <ele>1349.2</ele>
        <time>2020-11-16T16:50:11Z</time>
      </trkpt>
      <trkpt lat="28.7856050" lon="-17.9103520">
        <ele>1349.3</ele>
        <time>2020-11-16T16:50:12Z</time>
      </trkpt>
      <trkpt lat="28.7856070" lon="-17.9103800">
        <ele>1349.3</ele>
        <time>2020-11-16T16:50:13Z</time>
      </trkpt>
      <trkpt lat="28.7856070" lon="-17.9103800">
        <ele>1349.3</ele>
        <time>2020-11-16T16:50:14Z</time>
      </trkpt>
      <trkpt lat="28.7856120" lon="-17.9104370">
        <ele>1349.4</ele>
        <time>2020-11-16T16:50:15Z</time>
      </trkpt>
      <trkpt lat="28.7856120" lon="-17.9104370">
        <ele>1349.4</ele>
        <time>2020-11-16T16:50:16Z</time>
      </trkpt>
      <trkpt lat="28.7856120" lon="-17.9105070">
        <ele>1349.5</ele>
        <time>2020-11-16T16:50:17Z</time>
      </trkpt>
      <trkpt lat="28.7856120" lon="-17.9105070">
        <ele>1349.5</ele>
        <time>2020-11-16T16:50:18Z</time>
      </trkpt>
      <trkpt lat="28.7855950" lon="-17.9105670">
        <ele>1349.6</ele>
        <time>2020-11-16T16:50:19Z</time>
      </trkpt>
      <trkpt lat="28.7855850" lon="-17.9105930">
        <ele>1349.6</ele>
        <time>2020-11-16T16:50:20Z</time>
      </trkpt>
      <trkpt lat="28.7855850" lon="-17.9105930">
        <ele>1349.6</ele>
        <time>2020-11-16T16:50:21Z</time>
      </trkpt>
      <trkpt lat="28.7855580" lon="-17.9106480">
        <ele>1349.7</ele>
        <time>2020-11-16T16:50:22Z</time>
      </trkpt>
      <trkpt lat="28.7855580" lon="-17.9106480">
        <ele>1349.7</ele>
        <time>2020-11-16T16:50:23Z</time>
      </trkpt>
      <trkpt lat="28.7855100" lon="-17.9106880">
        <ele>1349.8</ele>
        <time>2020-11-16T16:50:24Z</time>
      </trkpt>
      <trkpt lat="28.7854800" lon="-17.9107050">
        <ele>1349.9</ele>
        <time>2020-11-16T16:50:25Z</time>
      </trkpt>
      <trkpt lat="28.7854520" lon="-17.9107220">
        <ele>1350.0</ele>
        <time>2020-11-16T16:50:26Z</time>
      </trkpt>
      <trkpt lat="28.7854520" lon="-17.9107220">
        <ele>1350.0</ele>
        <time>2020-11-16T16:50:27Z</time>
      </trkpt>
      <trkpt lat="28.7854050" lon="-17.9107450">
        <ele>1350.1</ele>
        <time>2020-11-16T16:50:28Z</time>
      </trkpt>
      <trkpt lat="28.7853850" lon="-17.9107570">
        <ele>1350.1</ele>
        <time>2020-11-16T16:50:29Z</time>
      </trkpt>
      <trkpt lat="28.7853850" lon="-17.9107570">
        <ele>1350.1</ele>
        <time>2020-11-16T16:50:30Z</time>
      </trkpt>
      <trkpt lat="28.7853400" lon="-17.9107770">
        <ele>1350.2</ele>
        <time>2020-11-16T16:50:31Z</time>
      </trkpt>
      <trkpt lat="28.7853400" lon="-17.9107770">
        <ele>1350.2</ele>
        <time>2020-11-16T16:50:32Z</time>
      </trkpt>
      <trkpt lat="28.7852880" lon="-17.9107930">
        <ele>1350.3</ele>
        <time>2020-11-16T16:50:33Z</time>
      </trkpt>
      <trkpt lat="28.7852880" lon="-17.9107930">
        <ele>1350.3</ele>
        <time>2020-11-16T16:50:34Z</time>
      </trkpt>
      <trkpt lat="28.7852320" lon="-17.9108070">
        <ele>1350.3</ele>
        <time>2020-11-16T16:50:35Z</time>
      </trkpt>
      <trkpt lat="28.7852320" lon="-17.9108070">
        <ele>1350.3</ele>
        <time>2020-11-16T16:50:36Z</time>
      </trkpt>
      <trkpt lat="28.7851680" lon="-17.9108220">
        <ele>1350.3</ele>
        <time>2020-11-16T16:50:37Z</time>
      </trkpt>
      <trkpt lat="28.7851370" lon="-17.9108300">
        <ele>1350.3</ele>
        <time>2020-11-16T16:50:38Z</time>
      </trkpt>
      <trkpt lat="28.7851370" lon="-17.9108300">
        <ele>1350.3</ele>
        <time>2020-11-16T16:50:39Z</time>
      </trkpt>
      <trkpt lat="28.7850700" lon="-17.9108280">
        <ele>1350.3</ele>
        <time>2020-11-16T16:50:40Z</time>
      </trkpt>
      <trkpt lat="28.7850700" lon="-17.9108280">
        <ele>1350.3</ele>
        <time>2020-11-16T16:50:41Z</time>
      </trkpt>
      <trkpt lat="28.7850050" lon="-17.9108280">
        <ele>1350.3</ele>
        <time>2020-11-16T16:50:42Z</time>
      </trkpt>
      <trkpt lat="28.7850050" lon="-17.9108280">
        <ele>1350.3</ele>
        <time>2020-11-16T16:50:43Z</time>
      </trkpt>
      <trkpt lat="28.7849330" lon="-17.9108270">
        <ele>1350.2</ele>
        <time>2020-11-16T16:50:44Z</time>
      </trkpt>
      <trkpt lat="28.7849330" lon="-17.9108270">
        <ele>1350.2</ele>
        <time>2020-11-16T16:50:45Z</time>
      </trkpt>
      <trkpt lat="28.7848580" lon="-17.9108250">
        <ele>1350.0</ele>
        <time>2020-11-16T16:50:46Z</time>
      </trkpt>
      <trkpt lat="28.7848580" lon="-17.9108250">
        <ele>1350.0</ele>
        <time>2020-11-16T16:50:47Z</time>
      </trkpt>
      <trkpt lat="28.7847720" lon="-17.9108330">
        <ele>1349.9</ele>
        <time>2020-11-16T16:50:48Z</time>
      </trkpt>
      <trkpt lat="28.7847720" lon="-17.9108330">
        <ele>1349.9</ele>
        <time>2020-11-16T16:50:49Z</time>
      </trkpt>
      <trkpt lat="28.7846920" lon="-17.9108550">
        <ele>1349.7</ele>
        <time>2020-11-16T16:50:50Z</time>
      </trkpt>
      <trkpt lat="28.7846920" lon="-17.9108550">
        <ele>1349.7</ele>
        <time>2020-11-16T16:50:51Z</time>
      </trkpt>
      <trkpt lat="28.7846150" lon="-17.9108850">
        <ele>1349.6</ele>
        <time>2020-11-16T16:50:52Z</time>
      </trkpt>
      <trkpt lat="28.7845780" lon="-17.9109080">
        <ele>1349.5</ele>
        <time>2020-11-16T16:50:53Z</time>
      </trkpt>
      <trkpt lat="28.7845780" lon="-17.9109080">
        <ele>1349.5</ele>
        <time>2020-11-16T16:50:54Z</time>
      </trkpt>
      <trkpt lat="28.7845200" lon="-17.9109470">
        <ele>1349.4</ele>
        <time>2020-11-16T16:50:55Z</time>
      </trkpt>
      <trkpt lat="28.7845200" lon="-17.9109470">
        <ele>1349.4</ele>
        <time>2020-11-16T16:50:56Z</time>
      </trkpt>
      <trkpt lat="28.7844530" lon="-17.9109820">
        <ele>1349.3</ele>
        <time>2020-11-16T16:50:57Z</time>
      </trkpt>
      <trkpt lat="28.7844230" lon="-17.9109950">
        <ele>1349.2</ele>
        <time>2020-11-16T16:50:58Z</time>
      </trkpt>
      <trkpt lat="28.7844230" lon="-17.9109950">
        <ele>1349.2</ele>
        <time>2020-11-16T16:50:59Z</time>
      </trkpt>
      <trkpt lat="28.7843570" lon="-17.9110230">
        <ele>1349.1</ele>
        <time>2020-11-16T16:51:00Z</time>
      </trkpt>
      <trkpt lat="28.7843220" lon="-17.9110450">
        <ele>1349.0</ele>
        <time>2020-11-16T16:51:01Z</time>
      </trkpt>
      <trkpt lat="28.7843220" lon="-17.9110450">
        <ele>1349.0</ele>
        <time>2020-11-16T16:51:02Z</time>
      </trkpt>
      <trkpt lat="28.7842500" lon="-17.9110750">
        <ele>1348.8</ele>
        <time>2020-11-16T16:51:03Z</time>
      </trkpt>
      <trkpt lat="28.7842500" lon="-17.9110750">
        <ele>1348.8</ele>
        <time>2020-11-16T16:51:04Z</time>
      </trkpt>
      <trkpt lat="28.7841570" lon="-17.9111030">
        <ele>1348.5</ele>
        <time>2020-11-16T16:51:05Z</time>
      </trkpt>
      <trkpt lat="28.7841570" lon="-17.9111030">
        <ele>1348.5</ele>
        <time>2020-11-16T16:51:06Z</time>
      </trkpt>
      <trkpt lat="28.7840720" lon="-17.9111670">
        <ele>1348.0</ele>
        <time>2020-11-16T16:51:07Z</time>
      </trkpt>
      <trkpt lat="28.7840570" lon="-17.9111980">
        <ele>1347.8</ele>
        <time>2020-11-16T16:51:08Z</time>
      </trkpt>
      <trkpt lat="28.7840570" lon="-17.9111980">
        <ele>1347.8</ele>
        <time>2020-11-16T16:51:09Z</time>
      </trkpt>
      <trkpt lat="28.7840580" lon="-17.9112420">
        <ele>1347.6</ele>
        <time>2020-11-16T16:51:10Z</time>
      </trkpt>
      <trkpt lat="28.7840630" lon="-17.9112630">
        <ele>1347.4</ele>
        <time>2020-11-16T16:51:11Z</time>
      </trkpt>
      <trkpt lat="28.7840700" lon="-17.9112880">
        <ele>1347.2</ele>
        <time>2020-11-16T16:51:12Z</time>
      </trkpt>
      <trkpt lat="28.7840700" lon="-17.9112880">
        <ele>1347.2</ele>
        <time>2020-11-16T16:51:13Z</time>
      </trkpt>
      <trkpt lat="28.7840880" lon="-17.9113450">
        <ele>1346.8</ele>
        <time>2020-11-16T16:51:14Z</time>
      </trkpt>
      <trkpt lat="28.7840880" lon="-17.9113450">
        <ele>1346.8</ele>
        <time>2020-11-16T16:51:15Z</time>
      </trkpt>
      <trkpt lat="28.7841180" lon="-17.9114030">
        <ele>1346.4</ele>
        <time>2020-11-16T16:51:16Z</time>
      </trkpt>
      <trkpt lat="28.7841180" lon="-17.9114030">
        <ele>1346.4</ele>
        <time>2020-11-16T16:51:17Z</time>
      </trkpt>
      <trkpt lat="28.7841500" lon="-17.9114680">
        <ele>1346.2</ele>
        <time>2020-11-16T16:51:18Z</time>
      </trkpt>
      <trkpt lat="28.7841650" lon="-17.9115020">
        <ele>1346.0</ele>
        <time>2020-11-16T16:51:19Z</time>
      </trkpt>
      <trkpt lat="28.7841650" lon="-17.9115020">
        <ele>1346.0</ele>
        <time>2020-11-16T16:51:20Z</time>
      </trkpt>
      <trkpt lat="28.7841870" lon="-17.9115620">
        <ele>1345.8</ele>
        <time>2020-11-16T16:51:21Z</time>
      </trkpt>
      <trkpt lat="28.7841870" lon="-17.9115620">
        <ele>1345.8</ele>
        <time>2020-11-16T16:51:22Z</time>
      </trkpt>
      <trkpt lat="28.7842400" lon="-17.9115980">
        <ele>1345.5</ele>
        <time>2020-11-16T16:51:23Z</time>
      </trkpt>
      <trkpt lat="28.7842630" lon="-17.9116180">
        <ele>1345.4</ele>
        <time>2020-11-16T16:51:24Z</time>
      </trkpt>
      <trkpt lat="28.7842630" lon="-17.9116180">
        <ele>1345.4</ele>
        <time>2020-11-16T16:51:25Z</time>
      </trkpt>
      <trkpt lat="28.7843170" lon="-17.9116430">
        <ele>1345.1</ele>
        <time>2020-11-16T16:51:26Z</time>
      </trkpt>
      <trkpt lat="28.7843170" lon="-17.9116430">
        <ele>1345.1</ele>
        <time>2020-11-16T16:51:27Z</time>
      </trkpt>
      <trkpt lat="28.7844850" lon="-17.9116750">
        <ele>1344.3</ele>
        <time>2020-11-16T16:51:28Z</time>
      </trkpt>
      <trkpt lat="28.7844850" lon="-17.9116750">
        <ele>1344.3</ele>
        <time>2020-11-16T16:51:29Z</time>
      </trkpt>
      <trkpt lat="28.7846030" lon="-17.9117030">
        <ele>1344.0</ele>
        <time>2020-11-16T16:51:30Z</time>
      </trkpt>
      <trkpt lat="28.7846030" lon="-17.9117030">
        <ele>1344.0</ele>
        <time>2020-11-16T16:51:31Z</time>
      </trkpt>
      <trkpt lat="28.7846630" lon="-17.9117450">
        <ele>1343.8</ele>
        <time>2020-11-16T16:51:32Z</time>
      </trkpt>
      <trkpt lat="28.7846630" lon="-17.9117450">
        <ele>1343.8</ele>
        <time>2020-11-16T16:51:33Z</time>
      </trkpt>
      <trkpt lat="28.7847300" lon="-17.9117900">
        <ele>1343.5</ele>
        <time>2020-11-16T16:51:34Z</time>
      </trkpt>
      <trkpt lat="28.7847300" lon="-17.9117900">
        <ele>1343.5</ele>
        <time>2020-11-16T16:51:35Z</time>
      </trkpt>
      <trkpt lat="28.7848070" lon="-17.9118430">
        <ele>1343.3</ele>
        <time>2020-11-16T16:51:36Z</time>
      </trkpt>
      <trkpt lat="28.7848070" lon="-17.9118430">
        <ele>1343.3</ele>
        <time>2020-11-16T16:51:37Z</time>
      </trkpt>
      <trkpt lat="28.7848680" lon="-17.9118980">
        <ele>1343.2</ele>
        <time>2020-11-16T16:51:38Z</time>
      </trkpt>
      <trkpt lat="28.7848680" lon="-17.9118980">
        <ele>1343.2</ele>
        <time>2020-11-16T16:51:39Z</time>
      </trkpt>
      <trkpt lat="28.7849300" lon="-17.9119530">
        <ele>1342.9</ele>
        <time>2020-11-16T16:51:40Z</time>
      </trkpt>
      <trkpt lat="28.7849300" lon="-17.9119530">
        <ele>1342.9</ele>
        <time>2020-11-16T16:51:41Z</time>
      </trkpt>
      <trkpt lat="28.7849900" lon="-17.9120050">
        <ele>1342.7</ele>
        <time>2020-11-16T16:51:42Z</time>
      </trkpt>
      <trkpt lat="28.7849900" lon="-17.9120050">
        <ele>1342.7</ele>
        <time>2020-11-16T16:51:43Z</time>
      </trkpt>
      <trkpt lat="28.7850680" lon="-17.9120550">
        <ele>1342.5</ele>
        <time>2020-11-16T16:51:44Z</time>
      </trkpt>
      <trkpt lat="28.7850680" lon="-17.9120550">
        <ele>1342.5</ele>
        <time>2020-11-16T16:51:45Z</time>
      </trkpt>
      <trkpt lat="28.7851350" lon="-17.9120930">
        <ele>1342.5</ele>
        <time>2020-11-16T16:51:46Z</time>
      </trkpt>
      <trkpt lat="28.7851350" lon="-17.9120930">
        <ele>1342.5</ele>
        <time>2020-11-16T16:51:47Z</time>
      </trkpt>
      <trkpt lat="28.7851950" lon="-17.9121330">
        <ele>1342.5</ele>
        <time>2020-11-16T16:51:48Z</time>
      </trkpt>
      <trkpt lat="28.7851950" lon="-17.9121330">
        <ele>1342.5</ele>
        <time>2020-11-16T16:51:49Z</time>
      </trkpt>
      <trkpt lat="28.7852380" lon="-17.9121820">
        <ele>1342.5</ele>
        <time>2020-11-16T16:51:50Z</time>
      </trkpt>
      <trkpt lat="28.7852380" lon="-17.9121820">
        <ele>1342.5</ele>
        <time>2020-11-16T16:51:51Z</time>
      </trkpt>
      <trkpt lat="28.7852650" lon="-17.9122470">
        <ele>1342.4</ele>
        <time>2020-11-16T16:51:52Z</time>
      </trkpt>
      <trkpt lat="28.7852720" lon="-17.9122850">
        <ele>1342.4</ele>
        <time>2020-11-16T16:51:53Z</time>
      </trkpt>
      <trkpt lat="28.7852720" lon="-17.9122850">
        <ele>1342.4</ele>
        <time>2020-11-16T16:51:54Z</time>
      </trkpt>
      <trkpt lat="28.7852750" lon="-17.9123680">
        <ele>1342.2</ele>
        <time>2020-11-16T16:51:55Z</time>
      </trkpt>
      <trkpt lat="28.7852720" lon="-17.9124120">
        <ele>1342.1</ele>
        <time>2020-11-16T16:51:56Z</time>
      </trkpt>
      <trkpt lat="28.7852720" lon="-17.9124120">
        <ele>1342.1</ele>
        <time>2020-11-16T16:51:57Z</time>
      </trkpt>
      <trkpt lat="28.7853000" lon="-17.9124920">
        <ele>1341.9</ele>
        <time>2020-11-16T16:51:58Z</time>
      </trkpt>
      <trkpt lat="28.7853000" lon="-17.9124920">
        <ele>1341.9</ele>
        <time>2020-11-16T16:51:59Z</time>
      </trkpt>
      <trkpt lat="28.7853370" lon="-17.9125630">
        <ele>1341.9</ele>
        <time>2020-11-16T16:52:00Z</time>
      </trkpt>
      <trkpt lat="28.7853580" lon="-17.9125970">
        <ele>1341.9</ele>
        <time>2020-11-16T16:52:01Z</time>
      </trkpt>
      <trkpt lat="28.7853800" lon="-17.9126230">
        <ele>1341.9</ele>
        <time>2020-11-16T16:52:02Z</time>
      </trkpt>
      <trkpt lat="28.7853800" lon="-17.9126230">
        <ele>1341.9</ele>
        <time>2020-11-16T16:52:03Z</time>
      </trkpt>
      <trkpt lat="28.7854270" lon="-17.9126850">
        <ele>1341.9</ele>
        <time>2020-11-16T16:52:04Z</time>
      </trkpt>
      <trkpt lat="28.7854470" lon="-17.9127170">
        <ele>1341.9</ele>
        <time>2020-11-16T16:52:05Z</time>
      </trkpt>
      <trkpt lat="28.7854470" lon="-17.9127170">
        <ele>1341.9</ele>
        <time>2020-11-16T16:52:06Z</time>
      </trkpt>
      <trkpt lat="28.7854920" lon="-17.9127850">
        <ele>1341.9</ele>
        <time>2020-11-16T16:52:07Z</time>
      </trkpt>
      <trkpt lat="28.7855120" lon="-17.9128280">
        <ele>1342.0</ele>
        <time>2020-11-16T16:52:08Z</time>
      </trkpt>
      <trkpt lat="28.7855120" lon="-17.9128280">
        <ele>1342.0</ele>
        <time>2020-11-16T16:52:09Z</time>
      </trkpt>
      <trkpt lat="28.7855480" lon="-17.9129200">
        <ele>1342.1</ele>
        <time>2020-11-16T16:52:10Z</time>
      </trkpt>
      <trkpt lat="28.7855480" lon="-17.9129200">
        <ele>1342.1</ele>
        <time>2020-11-16T16:52:11Z</time>
      </trkpt>
      <trkpt lat="28.7855650" lon="-17.9130070">
        <ele>1342.1</ele>
        <time>2020-11-16T16:52:12Z</time>
      </trkpt>
      <trkpt lat="28.7855650" lon="-17.9130070">
        <ele>1342.1</ele>
        <time>2020-11-16T16:52:13Z</time>
      </trkpt>
      <trkpt lat="28.7855670" lon="-17.9130750">
        <ele>1342.1</ele>
        <time>2020-11-16T16:52:14Z</time>
      </trkpt>
      <trkpt lat="28.7855670" lon="-17.9130750">
        <ele>1342.1</ele>
        <time>2020-11-16T16:52:15Z</time>
      </trkpt>
      <trkpt lat="28.7855600" lon="-17.9131550">
        <ele>1342.0</ele>
        <time>2020-11-16T16:52:16Z</time>
      </trkpt>
      <trkpt lat="28.7855600" lon="-17.9131550">
        <ele>1342.0</ele>
        <time>2020-11-16T16:52:17Z</time>
      </trkpt>
      <trkpt lat="28.7855670" lon="-17.9132430">
        <ele>1341.7</ele>
        <time>2020-11-16T16:52:18Z</time>
      </trkpt>
      <trkpt lat="28.7855670" lon="-17.9132430">
        <ele>1341.7</ele>
        <time>2020-11-16T16:52:19Z</time>
      </trkpt>
      <trkpt lat="28.7856030" lon="-17.9133270">
        <ele>1341.5</ele>
        <time>2020-11-16T16:52:20Z</time>
      </trkpt>
      <trkpt lat="28.7856030" lon="-17.9133270">
        <ele>1341.5</ele>
        <time>2020-11-16T16:52:21Z</time>
      </trkpt>
      <trkpt lat="28.7856600" lon="-17.9134220">
        <ele>1341.6</ele>
        <time>2020-11-16T16:52:22Z</time>
      </trkpt>
      <trkpt lat="28.7856850" lon="-17.9134720">
        <ele>1341.7</ele>
        <time>2020-11-16T16:52:23Z</time>
      </trkpt>
      <trkpt lat="28.7856850" lon="-17.9134720">
        <ele>1341.7</ele>
        <time>2020-11-16T16:52:24Z</time>
      </trkpt>
      <trkpt lat="28.7856970" lon="-17.9135770">
        <ele>1341.7</ele>
        <time>2020-11-16T16:52:25Z</time>
      </trkpt>
      <trkpt lat="28.7856970" lon="-17.9135770">
        <ele>1341.7</ele>
        <time>2020-11-16T16:52:26Z</time>
      </trkpt>
      <trkpt lat="28.7856670" lon="-17.9136470">
        <ele>1341.6</ele>
        <time>2020-11-16T16:52:27Z</time>
      </trkpt>
      <trkpt lat="28.7856670" lon="-17.9136470">
        <ele>1341.6</ele>
        <time>2020-11-16T16:52:28Z</time>
      </trkpt>
      <trkpt lat="28.7856200" lon="-17.9137280">
        <ele>1341.4</ele>
        <time>2020-11-16T16:52:29Z</time>
      </trkpt>
      <trkpt lat="28.7856200" lon="-17.9137280">
        <ele>1341.4</ele>
        <time>2020-11-16T16:52:30Z</time>
      </trkpt>
      <trkpt lat="28.7855700" lon="-17.9137900">
        <ele>1341.2</ele>
        <time>2020-11-16T16:52:31Z</time>
      </trkpt>
      <trkpt lat="28.7855700" lon="-17.9137900">
        <ele>1341.2</ele>
        <time>2020-11-16T16:52:32Z</time>
      </trkpt>
      <trkpt lat="28.7855130" lon="-17.9138470">
        <ele>1340.9</ele>
        <time>2020-11-16T16:52:33Z</time>
      </trkpt>
      <trkpt lat="28.7854830" lon="-17.9138770">
        <ele>1340.8</ele>
        <time>2020-11-16T16:52:34Z</time>
      </trkpt>
      <trkpt lat="28.7854830" lon="-17.9138770">
        <ele>1340.8</ele>
        <time>2020-11-16T16:52:35Z</time>
      </trkpt>
      <trkpt lat="28.7854180" lon="-17.9139270">
        <ele>1340.6</ele>
        <time>2020-11-16T16:52:36Z</time>
      </trkpt>
      <trkpt lat="28.7853800" lon="-17.9139500">
        <ele>1340.5</ele>
        <time>2020-11-16T16:52:37Z</time>
      </trkpt>
      <trkpt lat="28.7853800" lon="-17.9139500">
        <ele>1340.5</ele>
        <time>2020-11-16T16:52:38Z</time>
      </trkpt>
      <trkpt lat="28.7852880" lon="-17.9140080">
        <ele>1340.2</ele>
        <time>2020-11-16T16:52:39Z</time>
      </trkpt>
      <trkpt lat="28.7852880" lon="-17.9140080">
        <ele>1340.2</ele>
        <time>2020-11-16T16:52:40Z</time>
      </trkpt>
      <trkpt lat="28.7852030" lon="-17.9140780">
        <ele>1340.0</ele>
        <time>2020-11-16T16:52:41Z</time>
      </trkpt>
      <trkpt lat="28.7852030" lon="-17.9140780">
        <ele>1340.0</ele>
        <time>2020-11-16T16:52:42Z</time>
      </trkpt>
      <trkpt lat="28.7851280" lon="-17.9141620">
        <ele>1339.9</ele>
        <time>2020-11-16T16:52:43Z</time>
      </trkpt>
      <trkpt lat="28.7851000" lon="-17.9142120">
        <ele>1339.9</ele>
        <time>2020-11-16T16:52:44Z</time>
      </trkpt>
      <trkpt lat="28.7851000" lon="-17.9142120">
        <ele>1339.9</ele>
        <time>2020-11-16T16:52:45Z</time>
      </trkpt>
      <trkpt lat="28.7850570" lon="-17.9143170">
        <ele>1339.9</ele>
        <time>2020-11-16T16:52:46Z</time>
      </trkpt>
      <trkpt lat="28.7850570" lon="-17.9143170">
        <ele>1339.9</ele>
        <time>2020-11-16T16:52:47Z</time>
      </trkpt>
      <trkpt lat="28.7850050" lon="-17.9144100">
        <ele>1339.8</ele>
        <time>2020-11-16T16:52:48Z</time>
      </trkpt>
      <trkpt lat="28.7850050" lon="-17.9144100">
        <ele>1339.8</ele>
        <time>2020-11-16T16:52:49Z</time>
      </trkpt>
      <trkpt lat="28.7849400" lon="-17.9144550">
        <ele>1339.7</ele>
        <time>2020-11-16T16:52:50Z</time>
      </trkpt>
      <trkpt lat="28.7849400" lon="-17.9144550">
        <ele>1339.7</ele>
        <time>2020-11-16T16:52:51Z</time>
      </trkpt>
      <trkpt lat="28.7848750" lon="-17.9144880">
        <ele>1339.5</ele>
        <time>2020-11-16T16:52:52Z</time>
      </trkpt>
      <trkpt lat="28.7848280" lon="-17.9145080">
        <ele>1339.5</ele>
        <time>2020-11-16T16:52:53Z</time>
      </trkpt>
      <trkpt lat="28.7848280" lon="-17.9145080">
        <ele>1339.5</ele>
        <time>2020-11-16T16:52:54Z</time>
      </trkpt>
      <trkpt lat="28.7847400" lon="-17.9145530">
        <ele>1339.5</ele>
        <time>2020-11-16T16:52:55Z</time>
      </trkpt>
      <trkpt lat="28.7847400" lon="-17.9145530">
        <ele>1339.5</ele>
        <time>2020-11-16T16:52:56Z</time>
      </trkpt>
      <trkpt lat="28.7846530" lon="-17.9146150">
        <ele>1339.5</ele>
        <time>2020-11-16T16:52:57Z</time>
      </trkpt>
      <trkpt lat="28.7846530" lon="-17.9146150">
        <ele>1339.5</ele>
        <time>2020-11-16T16:52:58Z</time>
      </trkpt>
      <trkpt lat="28.7845520" lon="-17.9147120">
        <ele>1339.7</ele>
        <time>2020-11-16T16:52:59Z</time>
      </trkpt>
      <trkpt lat="28.7845520" lon="-17.9147120">
        <ele>1339.7</ele>
        <time>2020-11-16T16:53:00Z</time>
      </trkpt>
      <trkpt lat="28.7845020" lon="-17.9147950">
        <ele>1339.9</ele>
        <time>2020-11-16T16:53:01Z</time>
      </trkpt>
      <trkpt lat="28.7845000" lon="-17.9148280">
        <ele>1340.0</ele>
        <time>2020-11-16T16:53:02Z</time>
      </trkpt>
      <trkpt lat="28.7845000" lon="-17.9148280">
        <ele>1340.0</ele>
        <time>2020-11-16T16:53:03Z</time>
      </trkpt>
      <trkpt lat="28.7845400" lon="-17.9148930">
        <ele>1340.1</ele>
        <time>2020-11-16T16:53:04Z</time>
      </trkpt>
      <trkpt lat="28.7845400" lon="-17.9148930">
        <ele>1340.1</ele>
        <time>2020-11-16T16:53:05Z</time>
      </trkpt>
      <trkpt lat="28.7845800" lon="-17.9149350">
        <ele>1340.1</ele>
        <time>2020-11-16T16:53:06Z</time>
      </trkpt>
      <trkpt lat="28.7845800" lon="-17.9149350">
        <ele>1340.1</ele>
        <time>2020-11-16T16:53:07Z</time>
      </trkpt>
      <trkpt lat="28.7846230" lon="-17.9149620">
        <ele>1340.2</ele>
        <time>2020-11-16T16:53:08Z</time>
      </trkpt>
      <trkpt lat="28.7846230" lon="-17.9149620">
        <ele>1340.2</ele>
        <time>2020-11-16T16:53:09Z</time>
      </trkpt>
      <trkpt lat="28.7846850" lon="-17.9149730">
        <ele>1340.4</ele>
        <time>2020-11-16T16:53:10Z</time>
      </trkpt>
      <trkpt lat="28.7847200" lon="-17.9149770">
        <ele>1340.5</ele>
        <time>2020-11-16T16:53:11Z</time>
      </trkpt>
      <trkpt lat="28.7847200" lon="-17.9149770">
        <ele>1340.5</ele>
        <time>2020-11-16T16:53:12Z</time>
      </trkpt>
      <trkpt lat="28.7847830" lon="-17.9149920">
        <ele>1340.8</ele>
        <time>2020-11-16T16:53:13Z</time>
      </trkpt>
      <trkpt lat="28.7848050" lon="-17.9149950">
        <ele>1340.9</ele>
        <time>2020-11-16T16:53:14Z</time>
      </trkpt>
      <trkpt lat="28.7848050" lon="-17.9149950">
        <ele>1340.9</ele>
        <time>2020-11-16T16:53:15Z</time>
      </trkpt>
      <trkpt lat="28.7848470" lon="-17.9150080">
        <ele>1341.1</ele>
        <time>2020-11-16T16:53:16Z</time>
      </trkpt>
      <trkpt lat="28.7848470" lon="-17.9150080">
        <ele>1341.1</ele>
        <time>2020-11-16T16:53:17Z</time>
      </trkpt>
      <trkpt lat="28.7848950" lon="-17.9150300">
        <ele>1341.2</ele>
        <time>2020-11-16T16:53:18Z</time>
      </trkpt>
      <trkpt lat="28.7848950" lon="-17.9150300">
        <ele>1341.2</ele>
        <time>2020-11-16T16:53:19Z</time>
      </trkpt>
      <trkpt lat="28.7849720" lon="-17.9150730">
        <ele>1341.5</ele>
        <time>2020-11-16T16:53:20Z</time>
      </trkpt>
      <trkpt lat="28.7849720" lon="-17.9150730">
        <ele>1341.5</ele>
        <time>2020-11-16T16:53:21Z</time>
      </trkpt>
      <trkpt lat="28.7850730" lon="-17.9151080">
        <ele>1341.7</ele>
        <time>2020-11-16T16:53:22Z</time>
      </trkpt>
      <trkpt lat="28.7850730" lon="-17.9151080">
        <ele>1341.7</ele>
        <time>2020-11-16T16:53:23Z</time>
      </trkpt>
      <trkpt lat="28.7851630" lon="-17.9151500">
        <ele>1342.2</ele>
        <time>2020-11-16T16:53:24Z</time>
      </trkpt>
      <trkpt lat="28.7852120" lon="-17.9151630">
        <ele>1342.4</ele>
        <time>2020-11-16T16:53:25Z</time>
      </trkpt>
      <trkpt lat="28.7852120" lon="-17.9151630">
        <ele>1342.4</ele>
        <time>2020-11-16T16:53:26Z</time>
      </trkpt>
      <trkpt lat="28.7852700" lon="-17.9151920">
        <ele>1342.8</ele>
        <time>2020-11-16T16:53:27Z</time>
      </trkpt>
      <trkpt lat="28.7852700" lon="-17.9151920">
        <ele>1342.8</ele>
        <time>2020-11-16T16:53:28Z</time>
      </trkpt>
      <trkpt lat="28.7853200" lon="-17.9152220">
        <ele>1343.2</ele>
        <time>2020-11-16T16:53:29Z</time>
      </trkpt>
      <trkpt lat="28.7853200" lon="-17.9152220">
        <ele>1343.2</ele>
        <time>2020-11-16T16:53:30Z</time>
      </trkpt>
      <trkpt lat="28.7854150" lon="-17.9152550">
        <ele>1343.8</ele>
        <time>2020-11-16T16:53:31Z</time>
      </trkpt>
      <trkpt lat="28.7854400" lon="-17.9152680">
        <ele>1344.0</ele>
        <time>2020-11-16T16:53:32Z</time>
      </trkpt>
      <trkpt lat="28.7854400" lon="-17.9152680">
        <ele>1344.0</ele>
        <time>2020-11-16T16:53:33Z</time>
      </trkpt>
      <trkpt lat="28.7854880" lon="-17.9152770">
        <ele>1344.2</ele>
        <time>2020-11-16T16:53:34Z</time>
      </trkpt>
      <trkpt lat="28.7854880" lon="-17.9152770">
        <ele>1344.2</ele>
        <time>2020-11-16T16:53:35Z</time>
      </trkpt>
      <trkpt lat="28.7855270" lon="-17.9152870">
        <ele>1344.4</ele>
        <time>2020-11-16T16:53:36Z</time>
      </trkpt>
      <trkpt lat="28.7855420" lon="-17.9152920">
        <ele>1344.5</ele>
        <time>2020-11-16T16:53:37Z</time>
      </trkpt>
      <trkpt lat="28.7855700" lon="-17.9152920">
        <ele>1344.7</ele>
        <time>2020-11-16T16:53:38Z</time>
      </trkpt>
      <trkpt lat="28.7855700" lon="-17.9152920">
        <ele>1344.7</ele>
        <time>2020-11-16T16:53:39Z</time>
      </trkpt>
      <trkpt lat="28.7856230" lon="-17.9152920">
        <ele>1345.0</ele>
        <time>2020-11-16T16:53:40Z</time>
      </trkpt>
      <trkpt lat="28.7856480" lon="-17.9152880">
        <ele>1345.1</ele>
        <time>2020-11-16T16:53:41Z</time>
      </trkpt>
      <trkpt lat="28.7856480" lon="-17.9152880">
        <ele>1345.1</ele>
        <time>2020-11-16T16:53:42Z</time>
      </trkpt>
      <trkpt lat="28.7856930" lon="-17.9152920">
        <ele>1345.4</ele>
        <time>2020-11-16T16:53:43Z</time>
      </trkpt>
      <trkpt lat="28.7856930" lon="-17.9152920">
        <ele>1345.4</ele>
        <time>2020-11-16T16:53:44Z</time>
      </trkpt>
      <trkpt lat="28.7857420" lon="-17.9153100">
        <ele>1345.7</ele>
        <time>2020-11-16T16:53:45Z</time>
      </trkpt>
      <trkpt lat="28.7857420" lon="-17.9153100">
        <ele>1345.7</ele>
        <time>2020-11-16T16:53:46Z</time>
      </trkpt>
      <trkpt lat="28.7857930" lon="-17.9153420">
        <ele>1346.1</ele>
        <time>2020-11-16T16:53:47Z</time>
      </trkpt>
      <trkpt lat="28.7857930" lon="-17.9153420">
        <ele>1346.1</ele>
        <time>2020-11-16T16:53:48Z</time>
      </trkpt>
      <trkpt lat="28.7858370" lon="-17.9153720">
        <ele>1346.5</ele>
        <time>2020-11-16T16:53:49Z</time>
      </trkpt>
      <trkpt lat="28.7858520" lon="-17.9154000">
        <ele>1346.7</ele>
        <time>2020-11-16T16:53:50Z</time>
      </trkpt>
      <trkpt lat="28.7858520" lon="-17.9154000">
        <ele>1346.7</ele>
        <time>2020-11-16T16:53:51Z</time>
      </trkpt>
      <trkpt lat="28.7858770" lon="-17.9154470">
        <ele>1347.0</ele>
        <time>2020-11-16T16:53:52Z</time>
      </trkpt>
      <trkpt lat="28.7858770" lon="-17.9154470">
        <ele>1347.0</ele>
        <time>2020-11-16T16:53:53Z</time>
      </trkpt>
      <trkpt lat="28.7859020" lon="-17.9154880">
        <ele>1347.3</ele>
        <time>2020-11-16T16:53:54Z</time>
      </trkpt>
      <trkpt lat="28.7859020" lon="-17.9154880">
        <ele>1347.3</ele>
        <time>2020-11-16T16:53:55Z</time>
      </trkpt>
      <trkpt lat="28.7859150" lon="-17.9155350">
        <ele>1347.5</ele>
        <time>2020-11-16T16:53:56Z</time>
      </trkpt>
      <trkpt lat="28.7859150" lon="-17.9155350">
        <ele>1347.5</ele>
        <time>2020-11-16T16:53:57Z</time>
      </trkpt>
      <trkpt lat="28.7859120" lon="-17.9155870">
        <ele>1347.7</ele>
        <time>2020-11-16T16:53:58Z</time>
      </trkpt>
      <trkpt lat="28.7859080" lon="-17.9156070">
        <ele>1347.8</ele>
        <time>2020-11-16T16:53:59Z</time>
      </trkpt>
      <trkpt lat="28.7859080" lon="-17.9156070">
        <ele>1347.8</ele>
        <time>2020-11-16T16:54:00Z</time>
      </trkpt>
      <trkpt lat="28.7858970" lon="-17.9156480">
        <ele>1348.0</ele>
        <time>2020-11-16T16:54:01Z</time>
      </trkpt>
      <trkpt lat="28.7858870" lon="-17.9156670">
        <ele>1348.0</ele>
        <time>2020-11-16T16:54:02Z</time>
      </trkpt>
      <trkpt lat="28.7858870" lon="-17.9156670">
        <ele>1348.0</ele>
        <time>2020-11-16T16:54:03Z</time>
      </trkpt>
      <trkpt lat="28.7858550" lon="-17.9156950">
        <ele>1348.2</ele>
        <time>2020-11-16T16:54:04Z</time>
      </trkpt>
      <trkpt lat="28.7858550" lon="-17.9156950">
        <ele>1348.2</ele>
        <time>2020-11-16T16:54:05Z</time>
      </trkpt>
      <trkpt lat="28.7858130" lon="-17.9157200">
        <ele>1348.4</ele>
        <time>2020-11-16T16:54:06Z</time>
      </trkpt>
      <trkpt lat="28.7858130" lon="-17.9157200">
        <ele>1348.4</ele>
        <time>2020-11-16T16:54:07Z</time>
      </trkpt>
      <trkpt lat="28.7857720" lon="-17.9157430">
        <ele>1348.5</ele>
        <time>2020-11-16T16:54:08Z</time>
      </trkpt>
      <trkpt lat="28.7857720" lon="-17.9157430">
        <ele>1348.5</ele>
        <time>2020-11-16T16:54:09Z</time>
      </trkpt>
      <trkpt lat="28.7857250" lon="-17.9157680">
        <ele>1348.7</ele>
        <time>2020-11-16T16:54:10Z</time>
      </trkpt>
      <trkpt lat="28.7857250" lon="-17.9157680">
        <ele>1348.7</ele>
        <time>2020-11-16T16:54:11Z</time>
      </trkpt>
      <trkpt lat="28.7856730" lon="-17.9157880">
        <ele>1348.8</ele>
        <time>2020-11-16T16:54:12Z</time>
      </trkpt>
      <trkpt lat="28.7856730" lon="-17.9157880">
        <ele>1348.8</ele>
        <time>2020-11-16T16:54:13Z</time>
      </trkpt>
      <trkpt lat="28.7856270" lon="-17.9158050">
        <ele>1349.0</ele>
        <time>2020-11-16T16:54:14Z</time>
      </trkpt>
      <trkpt lat="28.7856270" lon="-17.9158050">
        <ele>1349.0</ele>
        <time>2020-11-16T16:54:15Z</time>
      </trkpt>
      <trkpt lat="28.7855800" lon="-17.9158250">
        <ele>1349.2</ele>
        <time>2020-11-16T16:54:16Z</time>
      </trkpt>
      <trkpt lat="28.7855580" lon="-17.9158380">
        <ele>1349.3</ele>
        <time>2020-11-16T16:54:17Z</time>
      </trkpt>
      <trkpt lat="28.7855580" lon="-17.9158380">
        <ele>1349.3</ele>
        <time>2020-11-16T16:54:18Z</time>
      </trkpt>
      <trkpt lat="28.7855130" lon="-17.9158620">
        <ele>1349.5</ele>
        <time>2020-11-16T16:54:19Z</time>
      </trkpt>
      <trkpt lat="28.7854880" lon="-17.9158730">
        <ele>1349.6</ele>
        <time>2020-11-16T16:54:20Z</time>
      </trkpt>
      <trkpt lat="28.7854880" lon="-17.9158730">
        <ele>1349.6</ele>
        <time>2020-11-16T16:54:21Z</time>
      </trkpt>
      <trkpt lat="28.7854380" lon="-17.9158970">
        <ele>1349.7</ele>
        <time>2020-11-16T16:54:22Z</time>
      </trkpt>
      <trkpt lat="28.7854380" lon="-17.9158970">
        <ele>1349.7</ele>
        <time>2020-11-16T16:54:23Z</time>
      </trkpt>
      <trkpt lat="28.7853920" lon="-17.9159170">
        <ele>1349.9</ele>
        <time>2020-11-16T16:54:24Z</time>
      </trkpt>
      <trkpt lat="28.7853680" lon="-17.9159280">
        <ele>1349.9</ele>
        <time>2020-11-16T16:54:25Z</time>
      </trkpt>
      <trkpt lat="28.7853450" lon="-17.9159420">
        <ele>1350.0</ele>
        <time>2020-11-16T16:54:26Z</time>
      </trkpt>
      <trkpt lat="28.7853450" lon="-17.9159420">
        <ele>1350.0</ele>
        <time>2020-11-16T16:54:27Z</time>
      </trkpt>
      <trkpt lat="28.7852970" lon="-17.9159820">
        <ele>1350.3</ele>
        <time>2020-11-16T16:54:28Z</time>
      </trkpt>
      <trkpt lat="28.7852730" lon="-17.9160000">
        <ele>1350.4</ele>
        <time>2020-11-16T16:54:29Z</time>
      </trkpt>
      <trkpt lat="28.7852730" lon="-17.9160000">
        <ele>1350.4</ele>
        <time>2020-11-16T16:54:30Z</time>
      </trkpt>
      <trkpt lat="28.7852300" lon="-17.9160400">
        <ele>1350.7</ele>
        <time>2020-11-16T16:54:31Z</time>
      </trkpt>
      <trkpt lat="28.7852050" lon="-17.9160630">
        <ele>1350.9</ele>
        <time>2020-11-16T16:54:32Z</time>
      </trkpt>
      <trkpt lat="28.7852050" lon="-17.9160630">
        <ele>1350.9</ele>
        <time>2020-11-16T16:54:33Z</time>
      </trkpt>
      <trkpt lat="28.7851580" lon="-17.9160970">
        <ele>1351.1</ele>
        <time>2020-11-16T16:54:34Z</time>
      </trkpt>
      <trkpt lat="28.7851580" lon="-17.9160970">
        <ele>1351.1</ele>
        <time>2020-11-16T16:54:35Z</time>
      </trkpt>
      <trkpt lat="28.7851130" lon="-17.9161350">
        <ele>1351.4</ele>
        <time>2020-11-16T16:54:36Z</time>
      </trkpt>
      <trkpt lat="28.7851130" lon="-17.9161350">
        <ele>1351.4</ele>
        <time>2020-11-16T16:54:37Z</time>
      </trkpt>
      <trkpt lat="28.7850700" lon="-17.9161750">
        <ele>1351.7</ele>
        <time>2020-11-16T16:54:38Z</time>
      </trkpt>
      <trkpt lat="28.7850480" lon="-17.9161950">
        <ele>1351.8</ele>
        <time>2020-11-16T16:54:39Z</time>
      </trkpt>
      <trkpt lat="28.7850480" lon="-17.9161950">
        <ele>1351.8</ele>
        <time>2020-11-16T16:54:40Z</time>
      </trkpt>
      <trkpt lat="28.7850050" lon="-17.9162270">
        <ele>1352.0</ele>
        <time>2020-11-16T16:54:41Z</time>
      </trkpt>
      <trkpt lat="28.7850050" lon="-17.9162270">
        <ele>1352.0</ele>
        <time>2020-11-16T16:54:42Z</time>
      </trkpt>
      <trkpt lat="28.7849630" lon="-17.9162600">
        <ele>1352.2</ele>
        <time>2020-11-16T16:54:43Z</time>
      </trkpt>
      <trkpt lat="28.7849430" lon="-17.9162770">
        <ele>1352.2</ele>
        <time>2020-11-16T16:54:44Z</time>
      </trkpt>
      <trkpt lat="28.7849430" lon="-17.9162770">
        <ele>1352.2</ele>
        <time>2020-11-16T16:54:45Z</time>
      </trkpt>
      <trkpt lat="28.7848980" lon="-17.9163020">
        <ele>1352.3</ele>
        <time>2020-11-16T16:54:46Z</time>
      </trkpt>
      <trkpt lat="28.7848980" lon="-17.9163020">
        <ele>1352.3</ele>
        <time>2020-11-16T16:54:47Z</time>
      </trkpt>
      <trkpt lat="28.7848480" lon="-17.9163220">
        <ele>1352.5</ele>
        <time>2020-11-16T16:54:48Z</time>
      </trkpt>
      <trkpt lat="28.7848480" lon="-17.9163220">
        <ele>1352.5</ele>
        <time>2020-11-16T16:54:49Z</time>
      </trkpt>
      <trkpt lat="28.7847980" lon="-17.9163330">
        <ele>1352.7</ele>
        <time>2020-11-16T16:54:50Z</time>
      </trkpt>
      <trkpt lat="28.7847980" lon="-17.9163330">
        <ele>1352.7</ele>
        <time>2020-11-16T16:54:51Z</time>
      </trkpt>
      <trkpt lat="28.7847480" lon="-17.9163400">
        <ele>1352.9</ele>
        <time>2020-11-16T16:54:52Z</time>
      </trkpt>
      <trkpt lat="28.7847480" lon="-17.9163400">
        <ele>1352.9</ele>
        <time>2020-11-16T16:54:53Z</time>
      </trkpt>
      <trkpt lat="28.7846970" lon="-17.9163450">
        <ele>1353.2</ele>
        <time>2020-11-16T16:54:54Z</time>
      </trkpt>
      <trkpt lat="28.7846970" lon="-17.9163450">
        <ele>1353.2</ele>
        <time>2020-11-16T16:54:55Z</time>
      </trkpt>
      <trkpt lat="28.7846470" lon="-17.9163520">
        <ele>1353.4</ele>
        <time>2020-11-16T16:54:56Z</time>
      </trkpt>
      <trkpt lat="28.7846470" lon="-17.9163520">
        <ele>1353.4</ele>
        <time>2020-11-16T16:54:57Z</time>
      </trkpt>
      <trkpt lat="28.7845920" lon="-17.9163550">
        <ele>1353.6</ele>
        <time>2020-11-16T16:54:58Z</time>
      </trkpt>
      <trkpt lat="28.7845920" lon="-17.9163550">
        <ele>1353.6</ele>
        <time>2020-11-16T16:54:59Z</time>
      </trkpt>
      <trkpt lat="28.7845330" lon="-17.9163530">
        <ele>1353.7</ele>
        <time>2020-11-16T16:55:00Z</time>
      </trkpt>
      <trkpt lat="28.7845330" lon="-17.9163530">
        <ele>1353.7</ele>
        <time>2020-11-16T16:55:01Z</time>
      </trkpt>
      <trkpt lat="28.7844780" lon="-17.9163580">
        <ele>1353.9</ele>
        <time>2020-11-16T16:55:02Z</time>
      </trkpt>
      <trkpt lat="28.7844780" lon="-17.9163580">
        <ele>1353.9</ele>
        <time>2020-11-16T16:55:03Z</time>
      </trkpt>
      <trkpt lat="28.7844280" lon="-17.9163580">
        <ele>1354.0</ele>
        <time>2020-11-16T16:55:04Z</time>
      </trkpt>
      <trkpt lat="28.7844070" lon="-17.9163630">
        <ele>1354.0</ele>
        <time>2020-11-16T16:55:05Z</time>
      </trkpt>
      <trkpt lat="28.7844070" lon="-17.9163630">
        <ele>1354.0</ele>
        <time>2020-11-16T16:55:06Z</time>
      </trkpt>
      <trkpt lat="28.7843580" lon="-17.9163580">
        <ele>1354.1</ele>
        <time>2020-11-16T16:55:07Z</time>
      </trkpt>
      <trkpt lat="28.7843330" lon="-17.9163520">
        <ele>1354.2</ele>
        <time>2020-11-16T16:55:08Z</time>
      </trkpt>
      <trkpt lat="28.7843330" lon="-17.9163520">
        <ele>1354.2</ele>
        <time>2020-11-16T16:55:09Z</time>
      </trkpt>
      <trkpt lat="28.7842950" lon="-17.9163480">
        <ele>1354.3</ele>
        <time>2020-11-16T16:55:10Z</time>
      </trkpt>
      <trkpt lat="28.7842730" lon="-17.9163480">
        <ele>1354.4</ele>
        <time>2020-11-16T16:55:11Z</time>
      </trkpt>
      <trkpt lat="28.7842730" lon="-17.9163480">
        <ele>1354.4</ele>
        <time>2020-11-16T16:55:12Z</time>
      </trkpt>
      <trkpt lat="28.7842230" lon="-17.9163450">
        <ele>1354.6</ele>
        <time>2020-11-16T16:55:13Z</time>
      </trkpt>
      <trkpt lat="28.7842030" lon="-17.9163520">
        <ele>1354.7</ele>
        <time>2020-11-16T16:55:14Z</time>
      </trkpt>
      <trkpt lat="28.7842030" lon="-17.9163520">
        <ele>1354.7</ele>
        <time>2020-11-16T16:55:15Z</time>
      </trkpt>
      <trkpt lat="28.7841600" lon="-17.9163750">
        <ele>1354.9</ele>
        <time>2020-11-16T16:55:16Z</time>
      </trkpt>
      <trkpt lat="28.7841600" lon="-17.9163750">
        <ele>1354.9</ele>
        <time>2020-11-16T16:55:17Z</time>
      </trkpt>
      <trkpt lat="28.7841280" lon="-17.9163850">
        <ele>1355.0</ele>
        <time>2020-11-16T16:55:18Z</time>
      </trkpt>
      <trkpt lat="28.7841280" lon="-17.9163850">
        <ele>1355.0</ele>
        <time>2020-11-16T16:55:19Z</time>
      </trkpt>
      <trkpt lat="28.7840800" lon="-17.9164050">
        <ele>1355.1</ele>
        <time>2020-11-16T16:55:20Z</time>
      </trkpt>
      <trkpt lat="28.7840800" lon="-17.9164050">
        <ele>1355.1</ele>
        <time>2020-11-16T16:55:21Z</time>
      </trkpt>
      <trkpt lat="28.7840420" lon="-17.9164250">
        <ele>1355.3</ele>
        <time>2020-11-16T16:55:22Z</time>
      </trkpt>
      <trkpt lat="28.7840420" lon="-17.9164250">
        <ele>1355.3</ele>
        <time>2020-11-16T16:55:23Z</time>
      </trkpt>
      <trkpt lat="28.7840120" lon="-17.9164470">
        <ele>1355.4</ele>
        <time>2020-11-16T16:55:24Z</time>
      </trkpt>
      <trkpt lat="28.7840120" lon="-17.9164470">
        <ele>1355.4</ele>
        <time>2020-11-16T16:55:25Z</time>
      </trkpt>
      <trkpt lat="28.7839820" lon="-17.9164600">
        <ele>1355.5</ele>
        <time>2020-11-16T16:55:26Z</time>
      </trkpt>
      <trkpt lat="28.7839820" lon="-17.9164600">
        <ele>1355.5</ele>
        <time>2020-11-16T16:55:27Z</time>
      </trkpt>
      <trkpt lat="28.7839250" lon="-17.9164880">
        <ele>1355.8</ele>
        <time>2020-11-16T16:55:28Z</time>
      </trkpt>
      <trkpt lat="28.7839250" lon="-17.9164880">
        <ele>1355.8</ele>
        <time>2020-11-16T16:55:29Z</time>
      </trkpt>
      <trkpt lat="28.7838820" lon="-17.9165180">
        <ele>1355.9</ele>
        <time>2020-11-16T16:55:30Z</time>
      </trkpt>
      <trkpt lat="28.7838820" lon="-17.9165180">
        <ele>1355.9</ele>
        <time>2020-11-16T16:55:31Z</time>
      </trkpt>
      <trkpt lat="28.7838230" lon="-17.9165700">
        <ele>1356.1</ele>
        <time>2020-11-16T16:55:32Z</time>
      </trkpt>
      <trkpt lat="28.7838230" lon="-17.9165700">
        <ele>1356.1</ele>
        <time>2020-11-16T16:55:33Z</time>
      </trkpt>
      <trkpt lat="28.7837850" lon="-17.9166100">
        <ele>1356.2</ele>
        <time>2020-11-16T16:55:34Z</time>
      </trkpt>
      <trkpt lat="28.7837850" lon="-17.9166100">
        <ele>1356.2</ele>
        <time>2020-11-16T16:55:35Z</time>
      </trkpt>
      <trkpt lat="28.7837670" lon="-17.9166570">
        <ele>1356.3</ele>
        <time>2020-11-16T16:55:36Z</time>
      </trkpt>
      <trkpt lat="28.7837730" lon="-17.9166920">
        <ele>1356.3</ele>
        <time>2020-11-16T16:55:37Z</time>
      </trkpt>
      <trkpt lat="28.7837730" lon="-17.9166920">
        <ele>1356.3</ele>
        <time>2020-11-16T16:55:38Z</time>
      </trkpt>
      <trkpt lat="28.7837950" lon="-17.9167320">
        <ele>1356.5</ele>
        <time>2020-11-16T16:55:39Z</time>
      </trkpt>
      <trkpt lat="28.7838120" lon="-17.9167370">
        <ele>1356.6</ele>
        <time>2020-11-16T16:55:40Z</time>
      </trkpt>
      <trkpt lat="28.7838120" lon="-17.9167370">
        <ele>1356.6</ele>
        <time>2020-11-16T16:55:41Z</time>
      </trkpt>
      <trkpt lat="28.7838500" lon="-17.9167520">
        <ele>1356.7</ele>
        <time>2020-11-16T16:55:42Z</time>
      </trkpt>
      <trkpt lat="28.7838500" lon="-17.9167520">
        <ele>1356.7</ele>
        <time>2020-11-16T16:55:43Z</time>
      </trkpt>
      <trkpt lat="28.7838930" lon="-17.9167850">
        <ele>1357.0</ele>
        <time>2020-11-16T16:55:44Z</time>
      </trkpt>
      <trkpt lat="28.7838930" lon="-17.9167850">
        <ele>1357.0</ele>
        <time>2020-11-16T16:55:45Z</time>
      </trkpt>
      <trkpt lat="28.7839250" lon="-17.9167850">
        <ele>1357.1</ele>
        <time>2020-11-16T16:55:46Z</time>
      </trkpt>
      <trkpt lat="28.7839250" lon="-17.9167850">
        <ele>1357.1</ele>
        <time>2020-11-16T16:55:47Z</time>
      </trkpt>
      <trkpt lat="28.7839670" lon="-17.9168020">
        <ele>1357.3</ele>
        <time>2020-11-16T16:55:48Z</time>
      </trkpt>
      <trkpt lat="28.7839670" lon="-17.9168020">
        <ele>1357.3</ele>
        <time>2020-11-16T16:55:49Z</time>
      </trkpt>
      <trkpt lat="28.7840250" lon="-17.9168330">
        <ele>1357.6</ele>
        <time>2020-11-16T16:55:50Z</time>
      </trkpt>
      <trkpt lat="28.7840250" lon="-17.9168330">
        <ele>1357.6</ele>
        <time>2020-11-16T16:55:51Z</time>
      </trkpt>
      <trkpt lat="28.7840750" lon="-17.9168650">
        <ele>1357.9</ele>
        <time>2020-11-16T16:55:52Z</time>
      </trkpt>
      <trkpt lat="28.7840920" lon="-17.9168850">
        <ele>1358.0</ele>
        <time>2020-11-16T16:55:53Z</time>
      </trkpt>
      <trkpt lat="28.7840920" lon="-17.9168850">
        <ele>1358.0</ele>
        <time>2020-11-16T16:55:54Z</time>
      </trkpt>
      <trkpt lat="28.7841080" lon="-17.9169330">
        <ele>1358.2</ele>
        <time>2020-11-16T16:55:55Z</time>
      </trkpt>
      <trkpt lat="28.7841130" lon="-17.9169570">
        <ele>1358.3</ele>
        <time>2020-11-16T16:55:56Z</time>
      </trkpt>
      <trkpt lat="28.7841130" lon="-17.9169570">
        <ele>1358.3</ele>
        <time>2020-11-16T16:55:57Z</time>
      </trkpt>
      <trkpt lat="28.7841100" lon="-17.9170080">
        <ele>1358.5</ele>
        <time>2020-11-16T16:55:58Z</time>
      </trkpt>
      <trkpt lat="28.7841100" lon="-17.9170080">
        <ele>1358.5</ele>
        <time>2020-11-16T16:55:59Z</time>
      </trkpt>
      <trkpt lat="28.7840970" lon="-17.9170580">
        <ele>1358.7</ele>
        <time>2020-11-16T16:56:00Z</time>
      </trkpt>
      <trkpt lat="28.7840970" lon="-17.9170580">
        <ele>1358.7</ele>
        <time>2020-11-16T16:56:01Z</time>
      </trkpt>
      <trkpt lat="28.7840750" lon="-17.9171020">
        <ele>1358.9</ele>
        <time>2020-11-16T16:56:02Z</time>
      </trkpt>
      <trkpt lat="28.7840750" lon="-17.9171020">
        <ele>1358.9</ele>
        <time>2020-11-16T16:56:03Z</time>
      </trkpt>
      <trkpt lat="28.7840470" lon="-17.9171280">
        <ele>1359.0</ele>
        <time>2020-11-16T16:56:04Z</time>
      </trkpt>
      <trkpt lat="28.7840300" lon="-17.9171570">
        <ele>1359.0</ele>
        <time>2020-11-16T16:56:05Z</time>
      </trkpt>
      <trkpt lat="28.7840300" lon="-17.9171570">
        <ele>1359.0</ele>
        <time>2020-11-16T16:56:06Z</time>
      </trkpt>
      <trkpt lat="28.7839870" lon="-17.9171970">
        <ele>1359.0</ele>
        <time>2020-11-16T16:56:07Z</time>
      </trkpt>
      <trkpt lat="28.7839670" lon="-17.9172050">
        <ele>1359.0</ele>
        <time>2020-11-16T16:56:08Z</time>
      </trkpt>
      <trkpt lat="28.7839670" lon="-17.9172050">
        <ele>1359.0</ele>
        <time>2020-11-16T16:56:09Z</time>
      </trkpt>
      <trkpt lat="28.7839270" lon="-17.9172280">
        <ele>1358.9</ele>
        <time>2020-11-16T16:56:10Z</time>
      </trkpt>
      <trkpt lat="28.7839270" lon="-17.9172280">
        <ele>1358.9</ele>
        <time>2020-11-16T16:56:11Z</time>
      </trkpt>
      <trkpt lat="28.7838750" lon="-17.9172550">
        <ele>1358.8</ele>
        <time>2020-11-16T16:56:12Z</time>
      </trkpt>
      <trkpt lat="28.7838750" lon="-17.9172550">
        <ele>1358.8</ele>
        <time>2020-11-16T16:56:13Z</time>
      </trkpt>
      <trkpt lat="28.7838100" lon="-17.9172950">
        <ele>1358.5</ele>
        <time>2020-11-16T16:56:14Z</time>
      </trkpt>
      <trkpt lat="28.7838100" lon="-17.9172950">
        <ele>1358.5</ele>
        <time>2020-11-16T16:56:15Z</time>
      </trkpt>
      <trkpt lat="28.7837400" lon="-17.9173430">
        <ele>1358.4</ele>
        <time>2020-11-16T16:56:16Z</time>
      </trkpt>
      <trkpt lat="28.7837050" lon="-17.9173680">
        <ele>1358.4</ele>
        <time>2020-11-16T16:56:17Z</time>
      </trkpt>
      <trkpt lat="28.7836680" lon="-17.9173870">
        <ele>1358.4</ele>
        <time>2020-11-16T16:56:18Z</time>
      </trkpt>
      <trkpt lat="28.7836680" lon="-17.9173870">
        <ele>1358.4</ele>
        <time>2020-11-16T16:56:19Z</time>
      </trkpt>
      <trkpt lat="28.7836030" lon="-17.9174280">
        <ele>1358.5</ele>
        <time>2020-11-16T16:56:20Z</time>
      </trkpt>
      <trkpt lat="28.7836030" lon="-17.9174280">
        <ele>1358.5</ele>
        <time>2020-11-16T16:56:21Z</time>
      </trkpt>
      <trkpt lat="28.7835680" lon="-17.9174720">
        <ele>1358.5</ele>
        <time>2020-11-16T16:56:22Z</time>
      </trkpt>
      <trkpt lat="28.7835600" lon="-17.9174970">
        <ele>1358.5</ele>
        <time>2020-11-16T16:56:23Z</time>
      </trkpt>
      <trkpt lat="28.7835600" lon="-17.9174970">
        <ele>1358.5</ele>
        <time>2020-11-16T16:56:24Z</time>
      </trkpt>
      <trkpt lat="28.7835870" lon="-17.9175520">
        <ele>1358.5</ele>
        <time>2020-11-16T16:56:25Z</time>
      </trkpt>
      <trkpt lat="28.7836070" lon="-17.9175750">
        <ele>1358.5</ele>
        <time>2020-11-16T16:56:26Z</time>
      </trkpt>
      <trkpt lat="28.7836070" lon="-17.9175750">
        <ele>1358.5</ele>
        <time>2020-11-16T16:56:27Z</time>
      </trkpt>
      <trkpt lat="28.7836580" lon="-17.9176170">
        <ele>1358.4</ele>
        <time>2020-11-16T16:56:28Z</time>
      </trkpt>
      <trkpt lat="28.7836580" lon="-17.9176170">
        <ele>1358.4</ele>
        <time>2020-11-16T16:56:29Z</time>
      </trkpt>
      <trkpt lat="28.7837130" lon="-17.9176430">
        <ele>1358.2</ele>
        <time>2020-11-16T16:56:30Z</time>
      </trkpt>
      <trkpt lat="28.7837130" lon="-17.9176430">
        <ele>1358.2</ele>
        <time>2020-11-16T16:56:31Z</time>
      </trkpt>
      <trkpt lat="28.7837680" lon="-17.9176630">
        <ele>1358.0</ele>
        <time>2020-11-16T16:56:32Z</time>
      </trkpt>
      <trkpt lat="28.7837680" lon="-17.9176630">
        <ele>1358.0</ele>
        <time>2020-11-16T16:56:33Z</time>
      </trkpt>
      <trkpt lat="28.7838370" lon="-17.9176880">
        <ele>1357.7</ele>
        <time>2020-11-16T16:56:34Z</time>
      </trkpt>
      <trkpt lat="28.7838370" lon="-17.9176880">
        <ele>1357.7</ele>
        <time>2020-11-16T16:56:35Z</time>
      </trkpt>
      <trkpt lat="28.7839050" lon="-17.9177120">
        <ele>1357.5</ele>
        <time>2020-11-16T16:56:36Z</time>
      </trkpt>
      <trkpt lat="28.7839050" lon="-17.9177120">
        <ele>1357.5</ele>
        <time>2020-11-16T16:56:37Z</time>
      </trkpt>
      <trkpt lat="28.7839730" lon="-17.9177430">
        <ele>1357.5</ele>
        <time>2020-11-16T16:56:38Z</time>
      </trkpt>
      <trkpt lat="28.7839730" lon="-17.9177430">
        <ele>1357.5</ele>
        <time>2020-11-16T16:56:39Z</time>
      </trkpt>
      <trkpt lat="28.7840170" lon="-17.9177780">
        <ele>1357.5</ele>
        <time>2020-11-16T16:56:40Z</time>
      </trkpt>
      <trkpt lat="28.7840170" lon="-17.9177780">
        <ele>1357.5</ele>
        <time>2020-11-16T16:56:41Z</time>
      </trkpt>
      <trkpt lat="28.7840470" lon="-17.9178150">
        <ele>1357.5</ele>
        <time>2020-11-16T16:56:42Z</time>
      </trkpt>
      <trkpt lat="28.7840470" lon="-17.9178150">
        <ele>1357.5</ele>
        <time>2020-11-16T16:56:43Z</time>
      </trkpt>
      <trkpt lat="28.7840650" lon="-17.9178530">
        <ele>1357.5</ele>
        <time>2020-11-16T16:56:44Z</time>
      </trkpt>
      <trkpt lat="28.7840650" lon="-17.9178530">
        <ele>1357.5</ele>
        <time>2020-11-16T16:56:45Z</time>
      </trkpt>
      <trkpt lat="28.7840900" lon="-17.9178820">
        <ele>1357.5</ele>
        <time>2020-11-16T16:56:46Z</time>
      </trkpt>
      <trkpt lat="28.7840900" lon="-17.9178820">
        <ele>1357.5</ele>
        <time>2020-11-16T16:56:47Z</time>
      </trkpt>
      <trkpt lat="28.7841130" lon="-17.9179220">
        <ele>1357.5</ele>
        <time>2020-11-16T16:56:48Z</time>
      </trkpt>
      <trkpt lat="28.7841130" lon="-17.9179220">
        <ele>1357.5</ele>
        <time>2020-11-16T16:56:49Z</time>
      </trkpt>
      <trkpt lat="28.7841330" lon="-17.9179600">
        <ele>1357.6</ele>
        <time>2020-11-16T16:56:50Z</time>
      </trkpt>
      <trkpt lat="28.7841330" lon="-17.9179600">
        <ele>1357.6</ele>
        <time>2020-11-16T16:56:51Z</time>
      </trkpt>
      <trkpt lat="28.7841480" lon="-17.9179970">
        <ele>1357.6</ele>
        <time>2020-11-16T16:56:52Z</time>
      </trkpt>
      <trkpt lat="28.7841600" lon="-17.9180170">
        <ele>1357.7</ele>
        <time>2020-11-16T16:56:53Z</time>
      </trkpt>
      <trkpt lat="28.7841600" lon="-17.9180170">
        <ele>1357.7</ele>
        <time>2020-11-16T16:56:54Z</time>
      </trkpt>
      <trkpt lat="28.7841930" lon="-17.9180500">
        <ele>1357.7</ele>
        <time>2020-11-16T16:56:55Z</time>
      </trkpt>
      <trkpt lat="28.7842100" lon="-17.9180650">
        <ele>1357.8</ele>
        <time>2020-11-16T16:56:56Z</time>
      </trkpt>
      <trkpt lat="28.7842100" lon="-17.9180650">
        <ele>1357.8</ele>
        <time>2020-11-16T16:56:57Z</time>
      </trkpt>
      <trkpt lat="28.7842530" lon="-17.9180930">
        <ele>1357.9</ele>
        <time>2020-11-16T16:56:58Z</time>
      </trkpt>
      <trkpt lat="28.7842620" lon="-17.9181120">
        <ele>1357.9</ele>
        <time>2020-11-16T16:56:59Z</time>
      </trkpt>
      <trkpt lat="28.7842620" lon="-17.9181120">
        <ele>1357.9</ele>
        <time>2020-11-16T16:57:00Z</time>
      </trkpt>
      <trkpt lat="28.7842770" lon="-17.9181420">
        <ele>1358.0</ele>
        <time>2020-11-16T16:57:01Z</time>
      </trkpt>
      <trkpt lat="28.7842850" lon="-17.9181620">
        <ele>1358.0</ele>
        <time>2020-11-16T16:57:02Z</time>
      </trkpt>
      <trkpt lat="28.7842850" lon="-17.9181620">
        <ele>1358.0</ele>
        <time>2020-11-16T16:57:03Z</time>
      </trkpt>
      <trkpt lat="28.7843030" lon="-17.9181970">
        <ele>1358.1</ele>
        <time>2020-11-16T16:57:04Z</time>
      </trkpt>
      <trkpt lat="28.7843030" lon="-17.9181970">
        <ele>1358.1</ele>
        <time>2020-11-16T16:57:05Z</time>
      </trkpt>
      <trkpt lat="28.7843230" lon="-17.9182270">
        <ele>1358.1</ele>
        <time>2020-11-16T16:57:06Z</time>
      </trkpt>
      <trkpt lat="28.7843230" lon="-17.9182270">
        <ele>1358.1</ele>
        <time>2020-11-16T16:57:07Z</time>
      </trkpt>
      <trkpt lat="28.7843430" lon="-17.9182780">
        <ele>1358.2</ele>
        <time>2020-11-16T16:57:08Z</time>
      </trkpt>
      <trkpt lat="28.7843430" lon="-17.9182780">
        <ele>1358.2</ele>
        <time>2020-11-16T16:57:09Z</time>
      </trkpt>
      <trkpt lat="28.7843650" lon="-17.9183200">
        <ele>1358.2</ele>
        <time>2020-11-16T16:57:10Z</time>
      </trkpt>
      <trkpt lat="28.7843800" lon="-17.9183530">
        <ele>1358.2</ele>
        <time>2020-11-16T16:57:11Z</time>
      </trkpt>
      <trkpt lat="28.7843800" lon="-17.9183530">
        <ele>1358.2</ele>
        <time>2020-11-16T16:57:12Z</time>
      </trkpt>
      <trkpt lat="28.7844050" lon="-17.9183880">
        <ele>1358.2</ele>
        <time>2020-11-16T16:57:13Z</time>
      </trkpt>
      <trkpt lat="28.7844180" lon="-17.9184030">
        <ele>1358.3</ele>
        <time>2020-11-16T16:57:14Z</time>
      </trkpt>
      <trkpt lat="28.7844180" lon="-17.9184030">
        <ele>1358.3</ele>
        <time>2020-11-16T16:57:15Z</time>
      </trkpt>
      <trkpt lat="28.7844480" lon="-17.9184370">
        <ele>1358.3</ele>
        <time>2020-11-16T16:57:16Z</time>
      </trkpt>
      <trkpt lat="28.7844480" lon="-17.9184370">
        <ele>1358.3</ele>
        <time>2020-11-16T16:57:17Z</time>
      </trkpt>
      <trkpt lat="28.7844720" lon="-17.9184680">
        <ele>1358.3</ele>
        <time>2020-11-16T16:57:18Z</time>
      </trkpt>
      <trkpt lat="28.7844720" lon="-17.9184680">
        <ele>1358.3</ele>
        <time>2020-11-16T16:57:19Z</time>
      </trkpt>
      <trkpt lat="28.7844950" lon="-17.9184900">
        <ele>1358.3</ele>
        <time>2020-11-16T16:57:20Z</time>
      </trkpt>
      <trkpt lat="28.7844950" lon="-17.9184900">
        <ele>1358.3</ele>
        <time>2020-11-16T16:57:21Z</time>
      </trkpt>
      <trkpt lat="28.7845130" lon="-17.9185230">
        <ele>1358.3</ele>
        <time>2020-11-16T16:57:22Z</time>
      </trkpt>
      <trkpt lat="28.7845130" lon="-17.9185230">
        <ele>1358.3</ele>
        <time>2020-11-16T16:57:23Z</time>
      </trkpt>
      <trkpt lat="28.7845270" lon="-17.9185570">
        <ele>1358.3</ele>
        <time>2020-11-16T16:57:24Z</time>
      </trkpt>
      <trkpt lat="28.7845330" lon="-17.9185720">
        <ele>1358.3</ele>
        <time>2020-11-16T16:57:25Z</time>
      </trkpt>
      <trkpt lat="28.7845400" lon="-17.9185850">
        <ele>1358.3</ele>
        <time>2020-11-16T16:57:26Z</time>
      </trkpt>
      <trkpt lat="28.7845400" lon="-17.9185850">
        <ele>1358.3</ele>
        <time>2020-11-16T16:57:27Z</time>
      </trkpt>
      <trkpt lat="28.7845480" lon="-17.9186180">
        <ele>1358.3</ele>
        <time>2020-11-16T16:57:28Z</time>
      </trkpt>
      <trkpt lat="28.7845520" lon="-17.9186350">
        <ele>1358.3</ele>
        <time>2020-11-16T16:57:29Z</time>
      </trkpt>
      <trkpt lat="28.7845520" lon="-17.9186350">
        <ele>1358.3</ele>
        <time>2020-11-16T16:57:30Z</time>
      </trkpt>
      <trkpt lat="28.7845530" lon="-17.9186630">
        <ele>1358.3</ele>
        <time>2020-11-16T16:57:31Z</time>
      </trkpt>
      <trkpt lat="28.7845550" lon="-17.9186720">
        <ele>1358.3</ele>
        <time>2020-11-16T16:57:32Z</time>
      </trkpt>
      <trkpt lat="28.7845550" lon="-17.9186720">
        <ele>1358.3</ele>
        <time>2020-11-16T16:57:33Z</time>
      </trkpt>
      <trkpt lat="28.7845580" lon="-17.9187050">
        <ele>1358.3</ele>
        <time>2020-11-16T16:57:34Z</time>
      </trkpt>
      <trkpt lat="28.7845580" lon="-17.9187050">
        <ele>1358.3</ele>
        <time>2020-11-16T16:57:35Z</time>
      </trkpt>
      <trkpt lat="28.7845570" lon="-17.9187570">
        <ele>1358.3</ele>
        <time>2020-11-16T16:57:36Z</time>
      </trkpt>
      <trkpt lat="28.7845550" lon="-17.9187800">
        <ele>1358.2</ele>
        <time>2020-11-16T16:57:37Z</time>
      </trkpt>
      <trkpt lat="28.7845500" lon="-17.9188250">
        <ele>1358.2</ele>
        <time>2020-11-16T16:57:38Z</time>
      </trkpt>
      <trkpt lat="28.7845500" lon="-17.9188250">
        <ele>1358.2</ele>
        <time>2020-11-16T16:57:39Z</time>
      </trkpt>
      <trkpt lat="28.7845420" lon="-17.9188730">
        <ele>1358.1</ele>
        <time>2020-11-16T16:57:40Z</time>
      </trkpt>
      <trkpt lat="28.7845420" lon="-17.9188730">
        <ele>1358.1</ele>
        <time>2020-11-16T16:57:41Z</time>
      </trkpt>
      <trkpt lat="28.7845230" lon="-17.9189200">
        <ele>1358.0</ele>
        <time>2020-11-16T16:57:42Z</time>
      </trkpt>
      <trkpt lat="28.7845130" lon="-17.9189450">
        <ele>1357.9</ele>
        <time>2020-11-16T16:57:43Z</time>
      </trkpt>
      <trkpt lat="28.7845020" lon="-17.9189700">
        <ele>1357.9</ele>
        <time>2020-11-16T16:57:44Z</time>
      </trkpt>
      <trkpt lat="28.7845020" lon="-17.9189700">
        <ele>1357.9</ele>
        <time>2020-11-16T16:57:45Z</time>
      </trkpt>
      <trkpt lat="28.7844680" lon="-17.9190030">
        <ele>1357.7</ele>
        <time>2020-11-16T16:57:46Z</time>
      </trkpt>
      <trkpt lat="28.7844530" lon="-17.9190200">
        <ele>1357.7</ele>
        <time>2020-11-16T16:57:47Z</time>
      </trkpt>
      <trkpt lat="28.7844530" lon="-17.9190200">
        <ele>1357.7</ele>
        <time>2020-11-16T16:57:48Z</time>
      </trkpt>
      <trkpt lat="28.7844220" lon="-17.9190500">
        <ele>1357.5</ele>
        <time>2020-11-16T16:57:49Z</time>
      </trkpt>
      <trkpt lat="28.7844220" lon="-17.9190500">
        <ele>1357.5</ele>
        <time>2020-11-16T16:57:50Z</time>
      </trkpt>
      <trkpt lat="28.7843900" lon="-17.9190750">
        <ele>1357.4</ele>
        <time>2020-11-16T16:57:51Z</time>
      </trkpt>
      <trkpt lat="28.7843900" lon="-17.9190750">
        <ele>1357.4</ele>
        <time>2020-11-16T16:57:52Z</time>
      </trkpt>
      <trkpt lat="28.7843570" lon="-17.9190950">
        <ele>1357.3</ele>
        <time>2020-11-16T16:57:53Z</time>
      </trkpt>
      <trkpt lat="28.7843570" lon="-17.9190950">
        <ele>1357.3</ele>
        <time>2020-11-16T16:57:54Z</time>
      </trkpt>
      <trkpt lat="28.7843230" lon="-17.9191120">
        <ele>1357.2</ele>
        <time>2020-11-16T16:57:55Z</time>
      </trkpt>
      <trkpt lat="28.7843050" lon="-17.9191230">
        <ele>1357.2</ele>
        <time>2020-11-16T16:57:56Z</time>
      </trkpt>
      <trkpt lat="28.7843050" lon="-17.9191230">
        <ele>1357.2</ele>
        <time>2020-11-16T16:57:57Z</time>
      </trkpt>
      <trkpt lat="28.7842700" lon="-17.9191470">
        <ele>1357.1</ele>
        <time>2020-11-16T16:57:58Z</time>
      </trkpt>
      <trkpt lat="28.7842550" lon="-17.9191620">
        <ele>1357.1</ele>
        <time>2020-11-16T16:57:59Z</time>
      </trkpt>
      <trkpt lat="28.7842550" lon="-17.9191620">
        <ele>1357.1</ele>
        <time>2020-11-16T16:58:00Z</time>
      </trkpt>
      <trkpt lat="28.7842230" lon="-17.9191930">
        <ele>1357.1</ele>
        <time>2020-11-16T16:58:01Z</time>
      </trkpt>
      <trkpt lat="28.7842230" lon="-17.9191930">
        <ele>1357.1</ele>
        <time>2020-11-16T16:58:02Z</time>
      </trkpt>
      <trkpt lat="28.7842030" lon="-17.9192330">
        <ele>1357.1</ele>
        <time>2020-11-16T16:58:03Z</time>
      </trkpt>
      <trkpt lat="28.7842030" lon="-17.9192330">
        <ele>1357.1</ele>
        <time>2020-11-16T16:58:04Z</time>
      </trkpt>
      <trkpt lat="28.7841830" lon="-17.9192730">
        <ele>1357.1</ele>
        <time>2020-11-16T16:58:05Z</time>
      </trkpt>
      <trkpt lat="28.7841830" lon="-17.9192730">
        <ele>1357.1</ele>
        <time>2020-11-16T16:58:06Z</time>
      </trkpt>
      <trkpt lat="28.7841650" lon="-17.9193150">
        <ele>1357.2</ele>
        <time>2020-11-16T16:58:07Z</time>
      </trkpt>
      <trkpt lat="28.7841580" lon="-17.9193350">
        <ele>1357.2</ele>
        <time>2020-11-16T16:58:08Z</time>
      </trkpt>
      <trkpt lat="28.7841580" lon="-17.9193350">
        <ele>1357.2</ele>
        <time>2020-11-16T16:58:09Z</time>
      </trkpt>
      <trkpt lat="28.7841470" lon="-17.9193800">
        <ele>1357.6</ele>
        <time>2020-11-16T16:58:10Z</time>
      </trkpt>
      <trkpt lat="28.7841470" lon="-17.9193800">
        <ele>1357.6</ele>
        <time>2020-11-16T16:58:11Z</time>
      </trkpt>
      <trkpt lat="28.7841300" lon="-17.9194080">
        <ele>1357.8</ele>
        <time>2020-11-16T16:58:12Z</time>
      </trkpt>
      <trkpt lat="28.7841300" lon="-17.9194080">
        <ele>1357.8</ele>
        <time>2020-11-16T16:58:13Z</time>
      </trkpt>
      <trkpt lat="28.7841050" lon="-17.9194150">
        <ele>1358.0</ele>
        <time>2020-11-16T16:58:14Z</time>
      </trkpt>
      <trkpt lat="28.7841050" lon="-17.9194150">
        <ele>1358.0</ele>
        <time>2020-11-16T16:58:15Z</time>
      </trkpt>
      <trkpt lat="28.7840930" lon="-17.9194130">
        <ele>1358.1</ele>
        <time>2020-11-16T16:58:16Z</time>
      </trkpt>
      <trkpt lat="28.7840880" lon="-17.9194130">
        <ele>1358.2</ele>
        <time>2020-11-16T16:58:17Z</time>
      </trkpt>
      <trkpt lat="28.7840880" lon="-17.9194130">
        <ele>1358.2</ele>
        <time>2020-11-16T16:58:18Z</time>
      </trkpt>
      <trkpt lat="28.7840820" lon="-17.9194100">
        <ele>1358.2</ele>
        <time>2020-11-16T16:58:19Z</time>
      </trkpt>
      <trkpt lat="28.7840820" lon="-17.9194100">
        <ele>1358.2</ele>
        <time>2020-11-16T16:59:39Z</time>
      </trkpt>
      <trkpt lat="28.7841120" lon="-17.9194780">
        <ele>1358.6</ele>
        <time>2020-11-16T16:59:40Z</time>
      </trkpt>
      <trkpt lat="28.7841120" lon="-17.9194780">
        <ele>1358.6</ele>
        <time>2020-11-16T16:59:41Z</time>
      </trkpt>
      <trkpt lat="28.7841120" lon="-17.9195200">
        <ele>1358.9</ele>
        <time>2020-11-16T16:59:42Z</time>
      </trkpt>
      <trkpt lat="28.7841120" lon="-17.9195200">
        <ele>1358.9</ele>
        <time>2020-11-16T16:59:43Z</time>
      </trkpt>
      <trkpt lat="28.7841080" lon="-17.9195630">
        <ele>1359.1</ele>
        <time>2020-11-16T16:59:44Z</time>
      </trkpt>
      <trkpt lat="28.7841080" lon="-17.9195630">
        <ele>1359.1</ele>
        <time>2020-11-16T16:59:45Z</time>
      </trkpt>
      <trkpt lat="28.7840970" lon="-17.9196120">
        <ele>1359.5</ele>
        <time>2020-11-16T16:59:46Z</time>
      </trkpt>
      <trkpt lat="28.7840970" lon="-17.9196120">
        <ele>1359.5</ele>
        <time>2020-11-16T16:59:47Z</time>
      </trkpt>
      <trkpt lat="28.7840700" lon="-17.9196470">
        <ele>1359.8</ele>
        <time>2020-11-16T16:59:48Z</time>
      </trkpt>
      <trkpt lat="28.7840530" lon="-17.9196620">
        <ele>1359.9</ele>
        <time>2020-11-16T16:59:49Z</time>
      </trkpt>
      <trkpt lat="28.7840370" lon="-17.9196750">
        <ele>1360.1</ele>
        <time>2020-11-16T16:59:50Z</time>
      </trkpt>
      <trkpt lat="28.7840370" lon="-17.9196750">
        <ele>1360.1</ele>
        <time>2020-11-16T16:59:51Z</time>
      </trkpt>
      <trkpt lat="28.7840000" lon="-17.9196970">
        <ele>1360.4</ele>
        <time>2020-11-16T16:59:52Z</time>
      </trkpt>
      <trkpt lat="28.7840000" lon="-17.9196970">
        <ele>1360.4</ele>
        <time>2020-11-16T16:59:53Z</time>
      </trkpt>
      <trkpt lat="28.7839580" lon="-17.9197120">
        <ele>1360.7</ele>
        <time>2020-11-16T16:59:54Z</time>
      </trkpt>
      <trkpt lat="28.7839400" lon="-17.9197170">
        <ele>1360.8</ele>
        <time>2020-11-16T16:59:55Z</time>
      </trkpt>
      <trkpt lat="28.7839400" lon="-17.9197170">
        <ele>1360.8</ele>
        <time>2020-11-16T16:59:56Z</time>
      </trkpt>
      <trkpt lat="28.7839030" lon="-17.9197200">
        <ele>1361.0</ele>
        <time>2020-11-16T16:59:57Z</time>
      </trkpt>
      <trkpt lat="28.7838850" lon="-17.9197130">
        <ele>1361.1</ele>
        <time>2020-11-16T16:59:58Z</time>
      </trkpt>
      <trkpt lat="28.7838850" lon="-17.9197130">
        <ele>1361.1</ele>
        <time>2020-11-16T16:59:59Z</time>
      </trkpt>
      <trkpt lat="28.7838450" lon="-17.9196970">
        <ele>1361.4</ele>
        <time>2020-11-16T17:00:00Z</time>
      </trkpt>
      <trkpt lat="28.7838450" lon="-17.9196970">
        <ele>1361.4</ele>
        <time>2020-11-16T17:00:01Z</time>
      </trkpt>
      <trkpt lat="28.7838080" lon="-17.9196780">
        <ele>1361.6</ele>
        <time>2020-11-16T17:00:02Z</time>
      </trkpt>
      <trkpt lat="28.7838080" lon="-17.9196780">
        <ele>1361.6</ele>
        <time>2020-11-16T17:00:03Z</time>
      </trkpt>
      <trkpt lat="28.7837750" lon="-17.9196620">
        <ele>1361.9</ele>
        <time>2020-11-16T17:00:04Z</time>
      </trkpt>
      <trkpt lat="28.7837750" lon="-17.9196620">
        <ele>1361.9</ele>
        <time>2020-11-16T17:00:05Z</time>
      </trkpt>
      <trkpt lat="28.7837450" lon="-17.9196470">
        <ele>1362.1</ele>
        <time>2020-11-16T17:00:06Z</time>
      </trkpt>
      <trkpt lat="28.7837450" lon="-17.9196470">
        <ele>1362.1</ele>
        <time>2020-11-16T17:00:07Z</time>
      </trkpt>
      <trkpt lat="28.7837330" lon="-17.9196470">
        <ele>1362.2</ele>
        <time>2020-11-16T17:00:08Z</time>
      </trkpt>
      <trkpt lat="28.7837330" lon="-17.9196470">
        <ele>1362.2</ele>
        <time>2020-11-16T17:01:45Z</time>
      </trkpt>
      <trkpt lat="28.7836830" lon="-17.9195980">
        <ele>1362.8</ele>
        <time>2020-11-16T17:01:46Z</time>
      </trkpt>
      <trkpt lat="28.7836830" lon="-17.9195980">
        <ele>1362.8</ele>
        <time>2020-11-16T17:01:47Z</time>
      </trkpt>
      <trkpt lat="28.7836520" lon="-17.9195830">
        <ele>1363.1</ele>
        <time>2020-11-16T17:01:48Z</time>
      </trkpt>
      <trkpt lat="28.7836520" lon="-17.9195830">
        <ele>1363.1</ele>
        <time>2020-11-16T17:01:49Z</time>
      </trkpt>
      <trkpt lat="28.7836130" lon="-17.9195680">
        <ele>1363.5</ele>
        <time>2020-11-16T17:01:50Z</time>
      </trkpt>
      <trkpt lat="28.7836130" lon="-17.9195680">
        <ele>1363.5</ele>
        <time>2020-11-16T17:01:51Z</time>
      </trkpt>
      <trkpt lat="28.7835830" lon="-17.9195570">
        <ele>1363.8</ele>
        <time>2020-11-16T17:01:52Z</time>
      </trkpt>
      <trkpt lat="28.7835830" lon="-17.9195570">
        <ele>1363.8</ele>
        <time>2020-11-16T17:01:53Z</time>
      </trkpt>
      <trkpt lat="28.7835480" lon="-17.9195430">
        <ele>1364.1</ele>
        <time>2020-11-16T17:01:54Z</time>
      </trkpt>
      <trkpt lat="28.7835480" lon="-17.9195430">
        <ele>1364.1</ele>
        <time>2020-11-16T17:01:55Z</time>
      </trkpt>
      <trkpt lat="28.7835130" lon="-17.9195370">
        <ele>1364.5</ele>
        <time>2020-11-16T17:01:56Z</time>
      </trkpt>
      <trkpt lat="28.7834930" lon="-17.9195320">
        <ele>1364.7</ele>
        <time>2020-11-16T17:01:57Z</time>
      </trkpt>
      <trkpt lat="28.7834930" lon="-17.9195320">
        <ele>1364.7</ele>
        <time>2020-11-16T17:01:58Z</time>
      </trkpt>
      <trkpt lat="28.7834580" lon="-17.9195170">
        <ele>1365.0</ele>
        <time>2020-11-16T17:01:59Z</time>
      </trkpt>
      <trkpt lat="28.7834580" lon="-17.9195170">
        <ele>1365.0</ele>
        <time>2020-11-16T17:02:00Z</time>
      </trkpt>
      <trkpt lat="28.7834250" lon="-17.9195070">
        <ele>1365.3</ele>
        <time>2020-11-16T17:02:01Z</time>
      </trkpt>
      <trkpt lat="28.7834070" lon="-17.9194980">
        <ele>1365.5</ele>
        <time>2020-11-16T17:02:02Z</time>
      </trkpt>
      <trkpt lat="28.7834070" lon="-17.9194980">
        <ele>1365.5</ele>
        <time>2020-11-16T17:02:03Z</time>
      </trkpt>
      <trkpt lat="28.7833680" lon="-17.9194870">
        <ele>1365.8</ele>
        <time>2020-11-16T17:02:04Z</time>
      </trkpt>
      <trkpt lat="28.7833680" lon="-17.9194870">
        <ele>1365.8</ele>
        <time>2020-11-16T17:02:05Z</time>
      </trkpt>
      <trkpt lat="28.7833330" lon="-17.9194720">
        <ele>1366.1</ele>
        <time>2020-11-16T17:02:06Z</time>
      </trkpt>
      <trkpt lat="28.7833330" lon="-17.9194720">
        <ele>1366.1</ele>
        <time>2020-11-16T17:02:07Z</time>
      </trkpt>
      <trkpt lat="28.7833000" lon="-17.9194620">
        <ele>1366.4</ele>
        <time>2020-11-16T17:02:08Z</time>
      </trkpt>
      <trkpt lat="28.7833000" lon="-17.9194620">
        <ele>1366.4</ele>
        <time>2020-11-16T17:02:09Z</time>
      </trkpt>
      <trkpt lat="28.7832580" lon="-17.9194600">
        <ele>1366.7</ele>
        <time>2020-11-16T17:02:10Z</time>
      </trkpt>
      <trkpt lat="28.7832580" lon="-17.9194600">
        <ele>1366.7</ele>
        <time>2020-11-16T17:02:11Z</time>
      </trkpt>
      <trkpt lat="28.7832150" lon="-17.9194630">
        <ele>1367.0</ele>
        <time>2020-11-16T17:02:12Z</time>
      </trkpt>
      <trkpt lat="28.7831970" lon="-17.9194670">
        <ele>1367.1</ele>
        <time>2020-11-16T17:02:13Z</time>
      </trkpt>
      <trkpt lat="28.7831800" lon="-17.9194680">
        <ele>1367.2</ele>
        <time>2020-11-16T17:02:14Z</time>
      </trkpt>
      <trkpt lat="28.7831800" lon="-17.9194680">
        <ele>1367.2</ele>
        <time>2020-11-16T17:02:15Z</time>
      </trkpt>
      <trkpt lat="28.7831420" lon="-17.9194680">
        <ele>1367.5</ele>
        <time>2020-11-16T17:02:16Z</time>
      </trkpt>
      <trkpt lat="28.7831150" lon="-17.9194570">
        <ele>1367.7</ele>
        <time>2020-11-16T17:02:17Z</time>
      </trkpt>
      <trkpt lat="28.7831150" lon="-17.9194570">
        <ele>1367.7</ele>
        <time>2020-11-16T17:02:18Z</time>
      </trkpt>
      <trkpt lat="28.7830870" lon="-17.9194500">
        <ele>1367.9</ele>
        <time>2020-11-16T17:02:19Z</time>
      </trkpt>
      <trkpt lat="28.7830870" lon="-17.9194500">
        <ele>1367.9</ele>
        <time>2020-11-16T17:02:20Z</time>
      </trkpt>
      <trkpt lat="28.7830520" lon="-17.9194500">
        <ele>1368.2</ele>
        <time>2020-11-16T17:02:21Z</time>
      </trkpt>
      <trkpt lat="28.7830350" lon="-17.9194500">
        <ele>1368.3</ele>
        <time>2020-11-16T17:02:22Z</time>
      </trkpt>
      <trkpt lat="28.7830350" lon="-17.9194500">
        <ele>1368.3</ele>
        <time>2020-11-16T17:02:23Z</time>
      </trkpt>
      <trkpt lat="28.7830000" lon="-17.9194430">
        <ele>1368.5</ele>
        <time>2020-11-16T17:02:24Z</time>
      </trkpt>
      <trkpt lat="28.7830000" lon="-17.9194430">
        <ele>1368.5</ele>
        <time>2020-11-16T17:02:25Z</time>
      </trkpt>
      <trkpt lat="28.7829570" lon="-17.9194280">
        <ele>1368.8</ele>
        <time>2020-11-16T17:02:26Z</time>
      </trkpt>
      <trkpt lat="28.7829570" lon="-17.9194280">
        <ele>1368.8</ele>
        <time>2020-11-16T17:02:27Z</time>
      </trkpt>
      <trkpt lat="28.7829250" lon="-17.9194050">
        <ele>1369.1</ele>
        <time>2020-11-16T17:02:28Z</time>
      </trkpt>
      <trkpt lat="28.7829250" lon="-17.9194050">
        <ele>1369.1</ele>
        <time>2020-11-16T17:02:29Z</time>
      </trkpt>
      <trkpt lat="28.7828800" lon="-17.9193920">
        <ele>1369.4</ele>
        <time>2020-11-16T17:02:30Z</time>
      </trkpt>
      <trkpt lat="28.7828800" lon="-17.9193920">
        <ele>1369.4</ele>
        <time>2020-11-16T17:02:31Z</time>
      </trkpt>
      <trkpt lat="28.7828280" lon="-17.9193850">
        <ele>1369.8</ele>
        <time>2020-11-16T17:02:32Z</time>
      </trkpt>
      <trkpt lat="28.7828280" lon="-17.9193850">
        <ele>1369.8</ele>
        <time>2020-11-16T17:02:33Z</time>
      </trkpt>
      <trkpt lat="28.7827830" lon="-17.9193730">
        <ele>1370.1</ele>
        <time>2020-11-16T17:02:34Z</time>
      </trkpt>
      <trkpt lat="28.7827600" lon="-17.9193720">
        <ele>1370.2</ele>
        <time>2020-11-16T17:02:35Z</time>
      </trkpt>
      <trkpt lat="28.7827600" lon="-17.9193720">
        <ele>1370.2</ele>
        <time>2020-11-16T17:02:36Z</time>
      </trkpt>
      <trkpt lat="28.7827100" lon="-17.9193850">
        <ele>1370.5</ele>
        <time>2020-11-16T17:02:37Z</time>
      </trkpt>
      <trkpt lat="28.7826880" lon="-17.9193930">
        <ele>1370.6</ele>
        <time>2020-11-16T17:02:38Z</time>
      </trkpt>
      <trkpt lat="28.7826880" lon="-17.9193930">
        <ele>1370.6</ele>
        <time>2020-11-16T17:02:39Z</time>
      </trkpt>
      <trkpt lat="28.7826500" lon="-17.9194130">
        <ele>1370.8</ele>
        <time>2020-11-16T17:02:40Z</time>
      </trkpt>
      <trkpt lat="28.7826500" lon="-17.9194130">
        <ele>1370.8</ele>
        <time>2020-11-16T17:02:41Z</time>
      </trkpt>
      <trkpt lat="28.7826200" lon="-17.9194480">
        <ele>1371.0</ele>
        <time>2020-11-16T17:02:42Z</time>
      </trkpt>
      <trkpt lat="28.7826200" lon="-17.9194480">
        <ele>1371.0</ele>
        <time>2020-11-16T17:02:43Z</time>
      </trkpt>
      <trkpt lat="28.7826130" lon="-17.9194820">
        <ele>1371.2</ele>
        <time>2020-11-16T17:02:44Z</time>
      </trkpt>
      <trkpt lat="28.7826130" lon="-17.9194820">
        <ele>1371.2</ele>
        <time>2020-11-16T17:02:45Z</time>
      </trkpt>
      <trkpt lat="28.7826220" lon="-17.9195130">
        <ele>1371.4</ele>
        <time>2020-11-16T17:02:46Z</time>
      </trkpt>
      <trkpt lat="28.7826220" lon="-17.9195130">
        <ele>1371.4</ele>
        <time>2020-11-16T17:02:47Z</time>
      </trkpt>
      <trkpt lat="28.7826220" lon="-17.9195720">
        <ele>1371.7</ele>
        <time>2020-11-16T17:02:48Z</time>
      </trkpt>
      <trkpt lat="28.7826220" lon="-17.9195720">
        <ele>1371.7</ele>
        <time>2020-11-16T17:02:49Z</time>
      </trkpt>
      <trkpt lat="28.7826130" lon="-17.9196370">
        <ele>1372.2</ele>
        <time>2020-11-16T17:02:50Z</time>
      </trkpt>
      <trkpt lat="28.7826130" lon="-17.9196370">
        <ele>1372.2</ele>
        <time>2020-11-16T17:02:51Z</time>
      </trkpt>
      <trkpt lat="28.7826070" lon="-17.9197250">
        <ele>1372.8</ele>
        <time>2020-11-16T17:02:52Z</time>
      </trkpt>
      <trkpt lat="28.7826030" lon="-17.9197570">
        <ele>1373.0</ele>
        <time>2020-11-16T17:02:53Z</time>
      </trkpt>
      <trkpt lat="28.7826030" lon="-17.9197570">
        <ele>1373.0</ele>
        <time>2020-11-16T17:02:54Z</time>
      </trkpt>
      <trkpt lat="28.7826250" lon="-17.9198150">
        <ele>1373.4</ele>
        <time>2020-11-16T17:02:55Z</time>
      </trkpt>
      <trkpt lat="28.7826250" lon="-17.9198150">
        <ele>1373.4</ele>
        <time>2020-11-16T17:02:56Z</time>
      </trkpt>
      <trkpt lat="28.7826600" lon="-17.9198600">
        <ele>1373.9</ele>
        <time>2020-11-16T17:02:57Z</time>
      </trkpt>
      <trkpt lat="28.7826700" lon="-17.9198870">
        <ele>1374.1</ele>
        <time>2020-11-16T17:02:58Z</time>
      </trkpt>
      <trkpt lat="28.7826700" lon="-17.9198870">
        <ele>1374.1</ele>
        <time>2020-11-16T17:02:59Z</time>
      </trkpt>
      <trkpt lat="28.7827000" lon="-17.9199350">
        <ele>1374.5</ele>
        <time>2020-11-16T17:03:00Z</time>
      </trkpt>
      <trkpt lat="28.7827170" lon="-17.9199570">
        <ele>1374.7</ele>
        <time>2020-11-16T17:03:01Z</time>
      </trkpt>
      <trkpt lat="28.7827170" lon="-17.9199570">
        <ele>1374.7</ele>
        <time>2020-11-16T17:03:02Z</time>
      </trkpt>
      <trkpt lat="28.7827520" lon="-17.9199930">
        <ele>1375.1</ele>
        <time>2020-11-16T17:03:03Z</time>
      </trkpt>
      <trkpt lat="28.7827520" lon="-17.9199930">
        <ele>1375.1</ele>
        <time>2020-11-16T17:03:04Z</time>
      </trkpt>
      <trkpt lat="28.7827880" lon="-17.9200380">
        <ele>1375.5</ele>
        <time>2020-11-16T17:03:05Z</time>
      </trkpt>
      <trkpt lat="28.7828030" lon="-17.9200650">
        <ele>1375.7</ele>
        <time>2020-11-16T17:03:06Z</time>
      </trkpt>
      <trkpt lat="28.7828300" lon="-17.9200880">
        <ele>1375.9</ele>
        <time>2020-11-16T17:03:07Z</time>
      </trkpt>
      <trkpt lat="28.7828300" lon="-17.9200880">
        <ele>1375.9</ele>
        <time>2020-11-16T17:03:08Z</time>
      </trkpt>
      <trkpt lat="28.7828700" lon="-17.9201330">
        <ele>1376.4</ele>
        <time>2020-11-16T17:03:09Z</time>
      </trkpt>
      <trkpt lat="28.7828820" lon="-17.9201600">
        <ele>1376.6</ele>
        <time>2020-11-16T17:03:10Z</time>
      </trkpt>
      <trkpt lat="28.7828820" lon="-17.9201600">
        <ele>1376.6</ele>
        <time>2020-11-16T17:03:11Z</time>
      </trkpt>
      <trkpt lat="28.7829030" lon="-17.9202130">
        <ele>1377.0</ele>
        <time>2020-11-16T17:03:12Z</time>
      </trkpt>
      <trkpt lat="28.7829030" lon="-17.9202130">
        <ele>1377.0</ele>
        <time>2020-11-16T17:03:13Z</time>
      </trkpt>
      <trkpt lat="28.7829220" lon="-17.9202630">
        <ele>1377.4</ele>
        <time>2020-11-16T17:03:14Z</time>
      </trkpt>
      <trkpt lat="28.7829220" lon="-17.9202630">
        <ele>1377.4</ele>
        <time>2020-11-16T17:03:15Z</time>
      </trkpt>
      <trkpt lat="28.7829320" lon="-17.9203150">
        <ele>1377.9</ele>
        <time>2020-11-16T17:03:16Z</time>
      </trkpt>
      <trkpt lat="28.7829380" lon="-17.9203380">
        <ele>1378.0</ele>
        <time>2020-11-16T17:03:17Z</time>
      </trkpt>
      <trkpt lat="28.7829380" lon="-17.9203380">
        <ele>1378.0</ele>
        <time>2020-11-16T17:03:18Z</time>
      </trkpt>
      <trkpt lat="28.7829450" lon="-17.9203780">
        <ele>1378.3</ele>
        <time>2020-11-16T17:03:19Z</time>
      </trkpt>
      <trkpt lat="28.7829450" lon="-17.9203780">
        <ele>1378.3</ele>
        <time>2020-11-16T17:03:20Z</time>
      </trkpt>
      <trkpt lat="28.7829350" lon="-17.9204320">
        <ele>1378.6</ele>
        <time>2020-11-16T17:03:21Z</time>
      </trkpt>
      <trkpt lat="28.7829350" lon="-17.9204320">
        <ele>1378.6</ele>
        <time>2020-11-16T17:03:22Z</time>
      </trkpt>
      <trkpt lat="28.7829100" lon="-17.9204780">
        <ele>1378.9</ele>
        <time>2020-11-16T17:03:23Z</time>
      </trkpt>
      <trkpt lat="28.7829100" lon="-17.9204780">
        <ele>1378.9</ele>
        <time>2020-11-16T17:03:24Z</time>
      </trkpt>
      <trkpt lat="28.7828770" lon="-17.9205220">
        <ele>1379.2</ele>
        <time>2020-11-16T17:03:25Z</time>
      </trkpt>
      <trkpt lat="28.7828580" lon="-17.9205380">
        <ele>1379.3</ele>
        <time>2020-11-16T17:03:26Z</time>
      </trkpt>
      <trkpt lat="28.7828580" lon="-17.9205380">
        <ele>1379.3</ele>
        <time>2020-11-16T17:03:27Z</time>
      </trkpt>
      <trkpt lat="28.7828170" lon="-17.9205630">
        <ele>1379.4</ele>
        <time>2020-11-16T17:03:28Z</time>
      </trkpt>
      <trkpt lat="28.7828170" lon="-17.9205630">
        <ele>1379.4</ele>
        <time>2020-11-16T17:03:29Z</time>
      </trkpt>
      <trkpt lat="28.7827720" lon="-17.9205850">
        <ele>1379.6</ele>
        <time>2020-11-16T17:03:30Z</time>
      </trkpt>
      <trkpt lat="28.7827720" lon="-17.9205850">
        <ele>1379.6</ele>
        <time>2020-11-16T17:03:31Z</time>
      </trkpt>
      <trkpt lat="28.7827320" lon="-17.9206150">
        <ele>1379.7</ele>
        <time>2020-11-16T17:03:32Z</time>
      </trkpt>
      <trkpt lat="28.7827320" lon="-17.9206150">
        <ele>1379.7</ele>
        <time>2020-11-16T17:03:33Z</time>
      </trkpt>
      <trkpt lat="28.7826900" lon="-17.9206470">
        <ele>1379.9</ele>
        <time>2020-11-16T17:03:34Z</time>
      </trkpt>
      <trkpt lat="28.7826900" lon="-17.9206470">
        <ele>1379.9</ele>
        <time>2020-11-16T17:03:35Z</time>
      </trkpt>
      <trkpt lat="28.7826550" lon="-17.9206800">
        <ele>1380.1</ele>
        <time>2020-11-16T17:03:36Z</time>
      </trkpt>
      <trkpt lat="28.7826550" lon="-17.9206800">
        <ele>1380.1</ele>
        <time>2020-11-16T17:03:37Z</time>
      </trkpt>
      <trkpt lat="28.7826220" lon="-17.9207180">
        <ele>1380.4</ele>
        <time>2020-11-16T17:03:38Z</time>
      </trkpt>
      <trkpt lat="28.7826220" lon="-17.9207180">
        <ele>1380.4</ele>
        <time>2020-11-16T17:03:39Z</time>
      </trkpt>
      <trkpt lat="28.7825980" lon="-17.9207580">
        <ele>1380.7</ele>
        <time>2020-11-16T17:03:40Z</time>
      </trkpt>
      <trkpt lat="28.7825980" lon="-17.9207580">
        <ele>1380.7</ele>
        <time>2020-11-16T17:03:41Z</time>
      </trkpt>
      <trkpt lat="28.7825770" lon="-17.9208050">
        <ele>1381.1</ele>
        <time>2020-11-16T17:03:42Z</time>
      </trkpt>
      <trkpt lat="28.7825770" lon="-17.9208050">
        <ele>1381.0</ele>
        <time>2020-11-16T17:03:43Z</time>
      </trkpt>
      <trkpt lat="28.7825570" lon="-17.9208530">
        <ele>1381.4</ele>
        <time>2020-11-16T17:03:44Z</time>
      </trkpt>
      <trkpt lat="28.7825570" lon="-17.9208530">
        <ele>1381.4</ele>
        <time>2020-11-16T17:03:45Z</time>
      </trkpt>
      <trkpt lat="28.7825420" lon="-17.9209000">
        <ele>1381.7</ele>
        <time>2020-11-16T17:03:46Z</time>
      </trkpt>
      <trkpt lat="28.7825420" lon="-17.9209000">
        <ele>1381.7</ele>
        <time>2020-11-16T17:03:47Z</time>
      </trkpt>
      <trkpt lat="28.7825300" lon="-17.9209450">
        <ele>1382.1</ele>
        <time>2020-11-16T17:03:48Z</time>
      </trkpt>
      <trkpt lat="28.7825230" lon="-17.9209680">
        <ele>1382.2</ele>
        <time>2020-11-16T17:03:49Z</time>
      </trkpt>
      <trkpt lat="28.7825230" lon="-17.9209680">
        <ele>1382.2</ele>
        <time>2020-11-16T17:03:50Z</time>
      </trkpt>
      <trkpt lat="28.7825000" lon="-17.9210150">
        <ele>1382.6</ele>
        <time>2020-11-16T17:03:51Z</time>
      </trkpt>
      <trkpt lat="28.7825000" lon="-17.9210150">
        <ele>1382.6</ele>
        <time>2020-11-16T17:03:52Z</time>
      </trkpt>
      <trkpt lat="28.7824700" lon="-17.9210570">
        <ele>1382.9</ele>
        <time>2020-11-16T17:03:53Z</time>
      </trkpt>
      <trkpt lat="28.7824700" lon="-17.9210570">
        <ele>1382.9</ele>
        <time>2020-11-16T17:03:54Z</time>
      </trkpt>
      <trkpt lat="28.7824300" lon="-17.9210830">
        <ele>1383.1</ele>
        <time>2020-11-16T17:03:55Z</time>
      </trkpt>
      <trkpt lat="28.7824300" lon="-17.9210830">
        <ele>1383.1</ele>
        <time>2020-11-16T17:03:56Z</time>
      </trkpt>
      <trkpt lat="28.7823850" lon="-17.9210930">
        <ele>1383.3</ele>
        <time>2020-11-16T17:03:57Z</time>
      </trkpt>
      <trkpt lat="28.7823850" lon="-17.9210930">
        <ele>1383.3</ele>
        <time>2020-11-16T17:03:58Z</time>
      </trkpt>
      <trkpt lat="28.7823370" lon="-17.9210870">
        <ele>1383.5</ele>
        <time>2020-11-16T17:03:59Z</time>
      </trkpt>
      <trkpt lat="28.7823370" lon="-17.9210870">
        <ele>1383.5</ele>
        <time>2020-11-16T17:04:00Z</time>
      </trkpt>
      <trkpt lat="28.7822900" lon="-17.9210800">
        <ele>1383.7</ele>
        <time>2020-11-16T17:04:01Z</time>
      </trkpt>
      <trkpt lat="28.7822650" lon="-17.9210770">
        <ele>1383.8</ele>
        <time>2020-11-16T17:04:02Z</time>
      </trkpt>
      <trkpt lat="28.7822650" lon="-17.9210770">
        <ele>1383.8</ele>
        <time>2020-11-16T17:04:03Z</time>
      </trkpt>
      <trkpt lat="28.7822130" lon="-17.9210670">
        <ele>1384.0</ele>
        <time>2020-11-16T17:04:04Z</time>
      </trkpt>
      <trkpt lat="28.7821870" lon="-17.9210620">
        <ele>1384.1</ele>
        <time>2020-11-16T17:04:05Z</time>
      </trkpt>
      <trkpt lat="28.7821580" lon="-17.9210580">
        <ele>1384.2</ele>
        <time>2020-11-16T17:04:06Z</time>
      </trkpt>
      <trkpt lat="28.7821580" lon="-17.9210580">
        <ele>1384.1</ele>
        <time>2020-11-16T17:04:07Z</time>
      </trkpt>
      <trkpt lat="28.7821030" lon="-17.9210550">
        <ele>1384.3</ele>
        <time>2020-11-16T17:04:08Z</time>
      </trkpt>
      <trkpt lat="28.7821030" lon="-17.9210550">
        <ele>1384.3</ele>
        <time>2020-11-16T17:04:09Z</time>
      </trkpt>
      <trkpt lat="28.7820470" lon="-17.9210520">
        <ele>1384.6</ele>
        <time>2020-11-16T17:04:10Z</time>
      </trkpt>
      <trkpt lat="28.7820470" lon="-17.9210520">
        <ele>1384.6</ele>
        <time>2020-11-16T17:04:11Z</time>
      </trkpt>
      <trkpt lat="28.7820000" lon="-17.9210470">
        <ele>1384.8</ele>
        <time>2020-11-16T17:04:12Z</time>
      </trkpt>
      <trkpt lat="28.7820000" lon="-17.9210470">
        <ele>1384.8</ele>
        <time>2020-11-16T17:04:13Z</time>
      </trkpt>
      <trkpt lat="28.7819570" lon="-17.9210450">
        <ele>1385.0</ele>
        <time>2020-11-16T17:04:14Z</time>
      </trkpt>
      <trkpt lat="28.7819570" lon="-17.9210450">
        <ele>1385.0</ele>
        <time>2020-11-16T17:04:15Z</time>
      </trkpt>
      <trkpt lat="28.7819120" lon="-17.9210400">
        <ele>1385.2</ele>
        <time>2020-11-16T17:04:16Z</time>
      </trkpt>
      <trkpt lat="28.7819120" lon="-17.9210400">
        <ele>1385.2</ele>
        <time>2020-11-16T17:04:17Z</time>
      </trkpt>
      <trkpt lat="28.7818650" lon="-17.9210320">
        <ele>1385.5</ele>
        <time>2020-11-16T17:04:18Z</time>
      </trkpt>
      <trkpt lat="28.7818650" lon="-17.9210320">
        <ele>1385.5</ele>
        <time>2020-11-16T17:04:19Z</time>
      </trkpt>
      <trkpt lat="28.7818180" lon="-17.9210300">
        <ele>1385.8</ele>
        <time>2020-11-16T17:04:20Z</time>
      </trkpt>
      <trkpt lat="28.7818180" lon="-17.9210300">
        <ele>1385.8</ele>
        <time>2020-11-16T17:04:21Z</time>
      </trkpt>
      <trkpt lat="28.7817750" lon="-17.9210250">
        <ele>1386.0</ele>
        <time>2020-11-16T17:04:22Z</time>
      </trkpt>
      <trkpt lat="28.7817750" lon="-17.9210250">
        <ele>1386.0</ele>
        <time>2020-11-16T17:04:23Z</time>
      </trkpt>
      <trkpt lat="28.7817270" lon="-17.9210180">
        <ele>1386.3</ele>
        <time>2020-11-16T17:04:24Z</time>
      </trkpt>
      <trkpt lat="28.7817270" lon="-17.9210180">
        <ele>1386.3</ele>
        <time>2020-11-16T17:04:25Z</time>
      </trkpt>
      <trkpt lat="28.7816770" lon="-17.9210120">
        <ele>1386.6</ele>
        <time>2020-11-16T17:04:26Z</time>
      </trkpt>
      <trkpt lat="28.7816770" lon="-17.9210120">
        <ele>1386.6</ele>
        <time>2020-11-16T17:04:27Z</time>
      </trkpt>
      <trkpt lat="28.7816300" lon="-17.9209970">
        <ele>1386.9</ele>
        <time>2020-11-16T17:04:28Z</time>
      </trkpt>
      <trkpt lat="28.7816300" lon="-17.9209970">
        <ele>1386.9</ele>
        <time>2020-11-16T17:04:29Z</time>
      </trkpt>
      <trkpt lat="28.7815850" lon="-17.9209920">
        <ele>1387.0</ele>
        <time>2020-11-16T17:04:30Z</time>
      </trkpt>
      <trkpt lat="28.7815850" lon="-17.9209920">
        <ele>1387.0</ele>
        <time>2020-11-16T17:04:31Z</time>
      </trkpt>
      <trkpt lat="28.7815430" lon="-17.9209830">
        <ele>1387.2</ele>
        <time>2020-11-16T17:04:32Z</time>
      </trkpt>
      <trkpt lat="28.7815430" lon="-17.9209830">
        <ele>1387.2</ele>
        <time>2020-11-16T17:04:33Z</time>
      </trkpt>
      <trkpt lat="28.7815020" lon="-17.9209750">
        <ele>1387.3</ele>
        <time>2020-11-16T17:04:34Z</time>
      </trkpt>
      <trkpt lat="28.7815020" lon="-17.9209750">
        <ele>1387.3</ele>
        <time>2020-11-16T17:04:35Z</time>
      </trkpt>
      <trkpt lat="28.7814600" lon="-17.9209720">
        <ele>1387.5</ele>
        <time>2020-11-16T17:04:36Z</time>
      </trkpt>
      <trkpt lat="28.7814370" lon="-17.9209680">
        <ele>1387.6</ele>
        <time>2020-11-16T17:04:37Z</time>
      </trkpt>
      <trkpt lat="28.7814370" lon="-17.9209680">
        <ele>1387.6</ele>
        <time>2020-11-16T17:04:38Z</time>
      </trkpt>
      <trkpt lat="28.7813920" lon="-17.9209650">
        <ele>1387.8</ele>
        <time>2020-11-16T17:04:39Z</time>
      </trkpt>
      <trkpt lat="28.7813680" lon="-17.9209670">
        <ele>1388.0</ele>
        <time>2020-11-16T17:04:40Z</time>
      </trkpt>
      <trkpt lat="28.7813680" lon="-17.9209670">
        <ele>1388.0</ele>
        <time>2020-11-16T17:04:41Z</time>
      </trkpt>
      <trkpt lat="28.7813280" lon="-17.9209800">
        <ele>1388.3</ele>
        <time>2020-11-16T17:04:42Z</time>
      </trkpt>
      <trkpt lat="28.7813080" lon="-17.9209880">
        <ele>1388.4</ele>
        <time>2020-11-16T17:04:43Z</time>
      </trkpt>
      <trkpt lat="28.7813080" lon="-17.9209880">
        <ele>1388.4</ele>
        <time>2020-11-16T17:04:44Z</time>
      </trkpt>
      <trkpt lat="28.7812620" lon="-17.9210150">
        <ele>1388.8</ele>
        <time>2020-11-16T17:04:45Z</time>
      </trkpt>
      <trkpt lat="28.7812420" lon="-17.9210300">
        <ele>1388.9</ele>
        <time>2020-11-16T17:04:46Z</time>
      </trkpt>
      <trkpt lat="28.7812420" lon="-17.9210300">
        <ele>1388.9</ele>
        <time>2020-11-16T17:04:47Z</time>
      </trkpt>
      <trkpt lat="28.7812100" lon="-17.9210620">
        <ele>1389.2</ele>
        <time>2020-11-16T17:04:48Z</time>
      </trkpt>
      <trkpt lat="28.7812100" lon="-17.9210620">
        <ele>1389.2</ele>
        <time>2020-11-16T17:04:49Z</time>
      </trkpt>
      <trkpt lat="28.7811920" lon="-17.9210950">
        <ele>1389.4</ele>
        <time>2020-11-16T17:04:50Z</time>
      </trkpt>
      <trkpt lat="28.7811920" lon="-17.9210950">
        <ele>1389.4</ele>
        <time>2020-11-16T17:04:51Z</time>
      </trkpt>
      <trkpt lat="28.7811830" lon="-17.9211350">
        <ele>1389.6</ele>
        <time>2020-11-16T17:04:52Z</time>
      </trkpt>
      <trkpt lat="28.7811970" lon="-17.9211550">
        <ele>1389.7</ele>
        <time>2020-11-16T17:04:53Z</time>
      </trkpt>
      <trkpt lat="28.7811970" lon="-17.9211550">
        <ele>1389.7</ele>
        <time>2020-11-16T17:04:54Z</time>
      </trkpt>
      <trkpt lat="28.7812170" lon="-17.9212020">
        <ele>1390.0</ele>
        <time>2020-11-16T17:04:55Z</time>
      </trkpt>
      <trkpt lat="28.7812280" lon="-17.9212250">
        <ele>1390.1</ele>
        <time>2020-11-16T17:04:56Z</time>
      </trkpt>
      <trkpt lat="28.7812280" lon="-17.9212250">
        <ele>1390.1</ele>
        <time>2020-11-16T17:04:57Z</time>
      </trkpt>
      <trkpt lat="28.7812480" lon="-17.9212730">
        <ele>1390.4</ele>
        <time>2020-11-16T17:04:58Z</time>
      </trkpt>
      <trkpt lat="28.7812520" lon="-17.9212970">
        <ele>1390.6</ele>
        <time>2020-11-16T17:04:59Z</time>
      </trkpt>
      <trkpt lat="28.7812520" lon="-17.9212970">
        <ele>1390.6</ele>
        <time>2020-11-16T17:05:00Z</time>
      </trkpt>
      <trkpt lat="28.7812480" lon="-17.9213420">
        <ele>1390.9</ele>
        <time>2020-11-16T17:05:01Z</time>
      </trkpt>
      <trkpt lat="28.7812500" lon="-17.9213630">
        <ele>1391.1</ele>
        <time>2020-11-16T17:05:02Z</time>
      </trkpt>
      <trkpt lat="28.7812500" lon="-17.9213630">
        <ele>1391.1</ele>
        <time>2020-11-16T17:05:03Z</time>
      </trkpt>
      <trkpt lat="28.7812730" lon="-17.9214000">
        <ele>1391.4</ele>
        <time>2020-11-16T17:05:04Z</time>
      </trkpt>
      <trkpt lat="28.7812730" lon="-17.9214000">
        <ele>1391.4</ele>
        <time>2020-11-16T17:05:05Z</time>
      </trkpt>
      <trkpt lat="28.7813080" lon="-17.9214330">
        <ele>1391.8</ele>
        <time>2020-11-16T17:05:06Z</time>
      </trkpt>
      <trkpt lat="28.7813080" lon="-17.9214330">
        <ele>1391.8</ele>
        <time>2020-11-16T17:05:07Z</time>
      </trkpt>
      <trkpt lat="28.7813320" lon="-17.9214600">
        <ele>1392.0</ele>
        <time>2020-11-16T17:05:08Z</time>
      </trkpt>
      <trkpt lat="28.7813320" lon="-17.9214600">
        <ele>1392.0</ele>
        <time>2020-11-16T17:05:09Z</time>
      </trkpt>
      <trkpt lat="28.7813450" lon="-17.9214850">
        <ele>1392.2</ele>
        <time>2020-11-16T17:05:10Z</time>
      </trkpt>
      <trkpt lat="28.7813550" lon="-17.9215000">
        <ele>1392.2</ele>
        <time>2020-11-16T17:05:11Z</time>
      </trkpt>
      <trkpt lat="28.7813550" lon="-17.9215000">
        <ele>1392.2</ele>
        <time>2020-11-16T17:05:12Z</time>
      </trkpt>
      <trkpt lat="28.7813820" lon="-17.9215330">
        <ele>1392.4</ele>
        <time>2020-11-16T17:05:13Z</time>
      </trkpt>
      <trkpt lat="28.7813820" lon="-17.9215330">
        <ele>1392.4</ele>
        <time>2020-11-16T17:05:14Z</time>
      </trkpt>
      <trkpt lat="28.7813830" lon="-17.9215700">
        <ele>1392.5</ele>
        <time>2020-11-16T17:05:15Z</time>
      </trkpt>
      <trkpt lat="28.7813830" lon="-17.9215700">
        <ele>1392.5</ele>
        <time>2020-11-16T17:05:16Z</time>
      </trkpt>
      <trkpt lat="28.7813670" lon="-17.9215920">
        <ele>1392.6</ele>
        <time>2020-11-16T17:05:17Z</time>
      </trkpt>
      <trkpt lat="28.7813720" lon="-17.9216150">
        <ele>1392.7</ele>
        <time>2020-11-16T17:05:18Z</time>
      </trkpt>
      <trkpt lat="28.7813720" lon="-17.9216150">
        <ele>1392.7</ele>
        <time>2020-11-16T17:05:19Z</time>
      </trkpt>
      <trkpt lat="28.7813620" lon="-17.9216620">
        <ele>1392.9</ele>
        <time>2020-11-16T17:05:20Z</time>
      </trkpt>
      <trkpt lat="28.7813620" lon="-17.9216620">
        <ele>1392.9</ele>
        <time>2020-11-16T17:05:21Z</time>
      </trkpt>
      <trkpt lat="28.7813570" lon="-17.9217170">
        <ele>1393.1</ele>
        <time>2020-11-16T17:05:22Z</time>
      </trkpt>
      <trkpt lat="28.7813400" lon="-17.9217400">
        <ele>1393.2</ele>
        <time>2020-11-16T17:05:23Z</time>
      </trkpt>
      <trkpt lat="28.7813400" lon="-17.9217400">
        <ele>1393.2</ele>
        <time>2020-11-16T17:05:24Z</time>
      </trkpt>
      <trkpt lat="28.7813150" lon="-17.9217950">
        <ele>1393.6</ele>
        <time>2020-11-16T17:05:25Z</time>
      </trkpt>
      <trkpt lat="28.7813020" lon="-17.9218200">
        <ele>1393.7</ele>
        <time>2020-11-16T17:05:26Z</time>
      </trkpt>
      <trkpt lat="28.7813020" lon="-17.9218200">
        <ele>1393.7</ele>
        <time>2020-11-16T17:05:27Z</time>
      </trkpt>
      <trkpt lat="28.7812650" lon="-17.9218480">
        <ele>1394.0</ele>
        <time>2020-11-16T17:05:28Z</time>
      </trkpt>
      <trkpt lat="28.7812650" lon="-17.9218480">
        <ele>1394.0</ele>
        <time>2020-11-16T17:05:29Z</time>
      </trkpt>
      <trkpt lat="28.7812300" lon="-17.9218780">
        <ele>1394.2</ele>
        <time>2020-11-16T17:05:30Z</time>
      </trkpt>
      <trkpt lat="28.7812300" lon="-17.9218780">
        <ele>1394.2</ele>
        <time>2020-11-16T17:05:31Z</time>
      </trkpt>
      <trkpt lat="28.7812100" lon="-17.9219180">
        <ele>1394.3</ele>
        <time>2020-11-16T17:05:32Z</time>
      </trkpt>
      <trkpt lat="28.7812100" lon="-17.9219180">
        <ele>1394.3</ele>
        <time>2020-11-16T17:05:33Z</time>
      </trkpt>
      <trkpt lat="28.7811850" lon="-17.9219600">
        <ele>1394.5</ele>
        <time>2020-11-16T17:05:34Z</time>
      </trkpt>
      <trkpt lat="28.7811850" lon="-17.9219600">
        <ele>1394.5</ele>
        <time>2020-11-16T17:05:35Z</time>
      </trkpt>
      <trkpt lat="28.7811620" lon="-17.9220070">
        <ele>1394.7</ele>
        <time>2020-11-16T17:05:36Z</time>
      </trkpt>
      <trkpt lat="28.7811620" lon="-17.9220070">
        <ele>1394.7</ele>
        <time>2020-11-16T17:05:37Z</time>
      </trkpt>
      <trkpt lat="28.7811400" lon="-17.9220570">
        <ele>1394.9</ele>
        <time>2020-11-16T17:05:38Z</time>
      </trkpt>
      <trkpt lat="28.7811400" lon="-17.9220570">
        <ele>1394.9</ele>
        <time>2020-11-16T17:05:39Z</time>
      </trkpt>
      <trkpt lat="28.7811280" lon="-17.9221020">
        <ele>1395.0</ele>
        <time>2020-11-16T17:05:40Z</time>
      </trkpt>
      <trkpt lat="28.7811280" lon="-17.9221220">
        <ele>1395.1</ele>
        <time>2020-11-16T17:05:41Z</time>
      </trkpt>
      <trkpt lat="28.7811280" lon="-17.9221220">
        <ele>1395.1</ele>
        <time>2020-11-16T17:05:42Z</time>
      </trkpt>
      <trkpt lat="28.7811370" lon="-17.9221720">
        <ele>1395.3</ele>
        <time>2020-11-16T17:05:43Z</time>
      </trkpt>
      <trkpt lat="28.7811370" lon="-17.9221720">
        <ele>1395.3</ele>
        <time>2020-11-16T17:05:44Z</time>
      </trkpt>
      <trkpt lat="28.7811330" lon="-17.9222270">
        <ele>1395.5</ele>
        <time>2020-11-16T17:05:45Z</time>
      </trkpt>
      <trkpt lat="28.7811330" lon="-17.9222270">
        <ele>1395.5</ele>
        <time>2020-11-16T17:05:46Z</time>
      </trkpt>
      <trkpt lat="28.7811220" lon="-17.9222880">
        <ele>1395.8</ele>
        <time>2020-11-16T17:05:47Z</time>
      </trkpt>
      <trkpt lat="28.7811220" lon="-17.9222880">
        <ele>1395.8</ele>
        <time>2020-11-16T17:05:48Z</time>
      </trkpt>
      <trkpt lat="28.7811220" lon="-17.9223370">
        <ele>1396.0</ele>
        <time>2020-11-16T17:05:49Z</time>
      </trkpt>
      <trkpt lat="28.7811200" lon="-17.9223580">
        <ele>1396.1</ele>
        <time>2020-11-16T17:05:50Z</time>
      </trkpt>
      <trkpt lat="28.7811200" lon="-17.9223580">
        <ele>1396.1</ele>
        <time>2020-11-16T17:05:51Z</time>
      </trkpt>
      <trkpt lat="28.7811000" lon="-17.9224070">
        <ele>1396.5</ele>
        <time>2020-11-16T17:05:52Z</time>
      </trkpt>
      <trkpt lat="28.7811000" lon="-17.9224070">
        <ele>1396.5</ele>
        <time>2020-11-16T17:05:53Z</time>
      </trkpt>
      <trkpt lat="28.7810630" lon="-17.9224620">
        <ele>1397.0</ele>
        <time>2020-11-16T17:05:54Z</time>
      </trkpt>
      <trkpt lat="28.7810630" lon="-17.9224620">
        <ele>1397.0</ele>
        <time>2020-11-16T17:05:55Z</time>
      </trkpt>
      <trkpt lat="28.7810320" lon="-17.9225070">
        <ele>1397.4</ele>
        <time>2020-11-16T17:05:56Z</time>
      </trkpt>
      <trkpt lat="28.7810320" lon="-17.9225070">
        <ele>1397.4</ele>
        <time>2020-11-16T17:05:57Z</time>
      </trkpt>
      <trkpt lat="28.7809920" lon="-17.9225370">
        <ele>1397.8</ele>
        <time>2020-11-16T17:05:58Z</time>
      </trkpt>
      <trkpt lat="28.7809920" lon="-17.9225370">
        <ele>1397.8</ele>
        <time>2020-11-16T17:05:59Z</time>
      </trkpt>
      <trkpt lat="28.7809480" lon="-17.9225580">
        <ele>1398.2</ele>
        <time>2020-11-16T17:06:00Z</time>
      </trkpt>
      <trkpt lat="28.7809480" lon="-17.9225580">
        <ele>1398.2</ele>
        <time>2020-11-16T17:06:01Z</time>
      </trkpt>
      <trkpt lat="28.7809070" lon="-17.9225680">
        <ele>1398.5</ele>
        <time>2020-11-16T17:06:02Z</time>
      </trkpt>
      <trkpt lat="28.7809070" lon="-17.9225680">
        <ele>1398.5</ele>
        <time>2020-11-16T17:06:03Z</time>
      </trkpt>
      <trkpt lat="28.7808450" lon="-17.9225380">
        <ele>1398.9</ele>
        <time>2020-11-16T17:06:04Z</time>
      </trkpt>
      <trkpt lat="28.7808450" lon="-17.9225380">
        <ele>1398.9</ele>
        <time>2020-11-16T17:06:05Z</time>
      </trkpt>
      <trkpt lat="28.7808250" lon="-17.9225250">
        <ele>1399.0</ele>
        <time>2020-11-16T17:06:06Z</time>
      </trkpt>
      <trkpt lat="28.7808250" lon="-17.9225250">
        <ele>1399.0</ele>
        <time>2020-11-16T17:06:07Z</time>
      </trkpt>
      <trkpt lat="28.7807900" lon="-17.9224870">
        <ele>1399.3</ele>
        <time>2020-11-16T17:06:08Z</time>
      </trkpt>
      <trkpt lat="28.7807900" lon="-17.9224870">
        <ele>1399.3</ele>
        <time>2020-11-16T17:06:09Z</time>
      </trkpt>
      <trkpt lat="28.7807530" lon="-17.9224450">
        <ele>1399.7</ele>
        <time>2020-11-16T17:06:10Z</time>
      </trkpt>
      <trkpt lat="28.7807530" lon="-17.9224450">
        <ele>1399.7</ele>
        <time>2020-11-16T17:06:11Z</time>
      </trkpt>
      <trkpt lat="28.7807180" lon="-17.9224080">
        <ele>1400.0</ele>
        <time>2020-11-16T17:06:12Z</time>
      </trkpt>
      <trkpt lat="28.7807180" lon="-17.9224080">
        <ele>1400.0</ele>
        <time>2020-11-16T17:06:13Z</time>
      </trkpt>
      <trkpt lat="28.7806870" lon="-17.9223700">
        <ele>1400.3</ele>
        <time>2020-11-16T17:06:14Z</time>
      </trkpt>
      <trkpt lat="28.7806870" lon="-17.9223700">
        <ele>1400.3</ele>
        <time>2020-11-16T17:06:15Z</time>
      </trkpt>
      <trkpt lat="28.7806580" lon="-17.9223380">
        <ele>1400.5</ele>
        <time>2020-11-16T17:06:16Z</time>
      </trkpt>
      <trkpt lat="28.7806580" lon="-17.9223380">
        <ele>1400.5</ele>
        <time>2020-11-16T17:06:17Z</time>
      </trkpt>
      <trkpt lat="28.7806070" lon="-17.9223070">
        <ele>1400.9</ele>
        <time>2020-11-16T17:06:18Z</time>
      </trkpt>
      <trkpt lat="28.7805920" lon="-17.9222950">
        <ele>1401.0</ele>
        <time>2020-11-16T17:06:19Z</time>
      </trkpt>
      <trkpt lat="28.7805920" lon="-17.9222950">
        <ele>1401.0</ele>
        <time>2020-11-16T17:06:20Z</time>
      </trkpt>
      <trkpt lat="28.7805680" lon="-17.9222530">
        <ele>1401.1</ele>
        <time>2020-11-16T17:06:21Z</time>
      </trkpt>
      <trkpt lat="28.7805680" lon="-17.9222530">
        <ele>1401.1</ele>
        <time>2020-11-16T17:06:22Z</time>
      </trkpt>
      <trkpt lat="28.7805480" lon="-17.9222150">
        <ele>1401.3</ele>
        <time>2020-11-16T17:06:23Z</time>
      </trkpt>
      <trkpt lat="28.7805480" lon="-17.9222150">
        <ele>1401.3</ele>
        <time>2020-11-16T17:06:24Z</time>
      </trkpt>
      <trkpt lat="28.7805220" lon="-17.9221870">
        <ele>1401.4</ele>
        <time>2020-11-16T17:06:25Z</time>
      </trkpt>
      <trkpt lat="28.7805220" lon="-17.9221870">
        <ele>1401.4</ele>
        <time>2020-11-16T17:06:26Z</time>
      </trkpt>
      <trkpt lat="28.7805130" lon="-17.9221520">
        <ele>1401.5</ele>
        <time>2020-11-16T17:06:27Z</time>
      </trkpt>
      <trkpt lat="28.7805130" lon="-17.9221520">
        <ele>1401.5</ele>
        <time>2020-11-16T17:06:28Z</time>
      </trkpt>
      <trkpt lat="28.7804820" lon="-17.9221250">
        <ele>1401.7</ele>
        <time>2020-11-16T17:06:29Z</time>
      </trkpt>
      <trkpt lat="28.7804820" lon="-17.9221250">
        <ele>1401.7</ele>
        <time>2020-11-16T17:06:30Z</time>
      </trkpt>
      <trkpt lat="28.7804400" lon="-17.9220870">
        <ele>1402.1</ele>
        <time>2020-11-16T17:06:31Z</time>
      </trkpt>
      <trkpt lat="28.7804400" lon="-17.9220870">
        <ele>1402.1</ele>
        <time>2020-11-16T17:06:32Z</time>
      </trkpt>
      <trkpt lat="28.7804120" lon="-17.9220450">
        <ele>1402.4</ele>
        <time>2020-11-16T17:06:33Z</time>
      </trkpt>
      <trkpt lat="28.7804120" lon="-17.9220450">
        <ele>1402.4</ele>
        <time>2020-11-16T17:06:34Z</time>
      </trkpt>
      <trkpt lat="28.7803730" lon="-17.9220030">
        <ele>1402.8</ele>
        <time>2020-11-16T17:06:35Z</time>
      </trkpt>
      <trkpt lat="28.7803730" lon="-17.9220030">
        <ele>1402.8</ele>
        <time>2020-11-16T17:06:36Z</time>
      </trkpt>
      <trkpt lat="28.7803320" lon="-17.9219720">
        <ele>1403.2</ele>
        <time>2020-11-16T17:06:37Z</time>
      </trkpt>
      <trkpt lat="28.7803130" lon="-17.9219550">
        <ele>1403.3</ele>
        <time>2020-11-16T17:06:38Z</time>
      </trkpt>
      <trkpt lat="28.7803130" lon="-17.9219550">
        <ele>1403.3</ele>
        <time>2020-11-16T17:06:39Z</time>
      </trkpt>
      <trkpt lat="28.7802800" lon="-17.9219100">
        <ele>1403.6</ele>
        <time>2020-11-16T17:06:40Z</time>
      </trkpt>
      <trkpt lat="28.7802800" lon="-17.9219100">
        <ele>1403.6</ele>
        <time>2020-11-16T17:06:41Z</time>
      </trkpt>
      <trkpt lat="28.7802520" lon="-17.9218730">
        <ele>1403.8</ele>
        <time>2020-11-16T17:06:42Z</time>
      </trkpt>
      <trkpt lat="28.7802520" lon="-17.9218730">
        <ele>1403.8</ele>
        <time>2020-11-16T17:06:43Z</time>
      </trkpt>
      <trkpt lat="28.7802250" lon="-17.9218370">
        <ele>1404.0</ele>
        <time>2020-11-16T17:06:44Z</time>
      </trkpt>
      <trkpt lat="28.7802250" lon="-17.9218370">
        <ele>1404.0</ele>
        <time>2020-11-16T17:06:45Z</time>
      </trkpt>
      <trkpt lat="28.7801980" lon="-17.9217970">
        <ele>1404.2</ele>
        <time>2020-11-16T17:06:46Z</time>
      </trkpt>
      <trkpt lat="28.7801980" lon="-17.9217970">
        <ele>1404.2</ele>
        <time>2020-11-16T17:06:47Z</time>
      </trkpt>
      <trkpt lat="28.7801720" lon="-17.9217450">
        <ele>1404.4</ele>
        <time>2020-11-16T17:06:48Z</time>
      </trkpt>
      <trkpt lat="28.7801600" lon="-17.9217270">
        <ele>1404.5</ele>
        <time>2020-11-16T17:06:49Z</time>
      </trkpt>
      <trkpt lat="28.7801600" lon="-17.9217270">
        <ele>1404.5</ele>
        <time>2020-11-16T17:06:50Z</time>
      </trkpt>
      <trkpt lat="28.7801450" lon="-17.9216830">
        <ele>1404.7</ele>
        <time>2020-11-16T17:06:51Z</time>
      </trkpt>
      <trkpt lat="28.7801450" lon="-17.9216830">
        <ele>1404.7</ele>
        <time>2020-11-16T17:06:52Z</time>
      </trkpt>
      <trkpt lat="28.7801330" lon="-17.9216380">
        <ele>1404.9</ele>
        <time>2020-11-16T17:06:53Z</time>
      </trkpt>
      <trkpt lat="28.7801280" lon="-17.9216150">
        <ele>1405.0</ele>
        <time>2020-11-16T17:06:54Z</time>
      </trkpt>
      <trkpt lat="28.7801280" lon="-17.9216150">
        <ele>1405.0</ele>
        <time>2020-11-16T17:06:55Z</time>
      </trkpt>
      <trkpt lat="28.7801080" lon="-17.9215830">
        <ele>1405.2</ele>
        <time>2020-11-16T17:06:56Z</time>
      </trkpt>
      <trkpt lat="28.7801080" lon="-17.9215830">
        <ele>1405.2</ele>
        <time>2020-11-16T17:06:57Z</time>
      </trkpt>
      <trkpt lat="28.7800880" lon="-17.9215570">
        <ele>1405.3</ele>
        <time>2020-11-16T17:06:58Z</time>
      </trkpt>
      <trkpt lat="28.7800880" lon="-17.9215570">
        <ele>1405.3</ele>
        <time>2020-11-16T17:06:59Z</time>
      </trkpt>
      <trkpt lat="28.7800730" lon="-17.9215220">
        <ele>1405.5</ele>
        <time>2020-11-16T17:07:00Z</time>
      </trkpt>
      <trkpt lat="28.7800730" lon="-17.9215220">
        <ele>1405.5</ele>
        <time>2020-11-16T17:07:01Z</time>
      </trkpt>
      <trkpt lat="28.7800470" lon="-17.9214870">
        <ele>1405.9</ele>
        <time>2020-11-16T17:07:02Z</time>
      </trkpt>
      <trkpt lat="28.7800320" lon="-17.9214630">
        <ele>1406.1</ele>
        <time>2020-11-16T17:07:03Z</time>
      </trkpt>
      <trkpt lat="28.7800320" lon="-17.9214630">
        <ele>1406.1</ele>
        <time>2020-11-16T17:07:04Z</time>
      </trkpt>
      <trkpt lat="28.7800000" lon="-17.9214270">
        <ele>1406.5</ele>
        <time>2020-11-16T17:07:05Z</time>
      </trkpt>
      <trkpt lat="28.7800000" lon="-17.9214270">
        <ele>1406.5</ele>
        <time>2020-11-16T17:07:06Z</time>
      </trkpt>
      <trkpt lat="28.7799700" lon="-17.9213900">
        <ele>1406.9</ele>
        <time>2020-11-16T17:07:07Z</time>
      </trkpt>
      <trkpt lat="28.7799700" lon="-17.9213900">
        <ele>1406.9</ele>
        <time>2020-11-16T17:07:08Z</time>
      </trkpt>
      <trkpt lat="28.7799400" lon="-17.9213450">
        <ele>1407.4</ele>
        <time>2020-11-16T17:07:09Z</time>
      </trkpt>
      <trkpt lat="28.7799300" lon="-17.9213200">
        <ele>1407.6</ele>
        <time>2020-11-16T17:07:10Z</time>
      </trkpt>
      <trkpt lat="28.7799300" lon="-17.9213200">
        <ele>1407.6</ele>
        <time>2020-11-16T17:07:11Z</time>
      </trkpt>
      <trkpt lat="28.7799000" lon="-17.9212850">
        <ele>1408.0</ele>
        <time>2020-11-16T17:07:12Z</time>
      </trkpt>
      <trkpt lat="28.7799000" lon="-17.9212850">
        <ele>1408.0</ele>
        <time>2020-11-16T17:07:13Z</time>
      </trkpt>
      <trkpt lat="28.7798850" lon="-17.9212430">
        <ele>1408.3</ele>
        <time>2020-11-16T17:07:14Z</time>
      </trkpt>
      <trkpt lat="28.7798850" lon="-17.9212430">
        <ele>1408.3</ele>
        <time>2020-11-16T17:07:15Z</time>
      </trkpt>
      <trkpt lat="28.7798530" lon="-17.9212020">
        <ele>1408.7</ele>
        <time>2020-11-16T17:07:16Z</time>
      </trkpt>
      <trkpt lat="28.7798530" lon="-17.9212020">
        <ele>1408.7</ele>
        <time>2020-11-16T17:07:17Z</time>
      </trkpt>
      <trkpt lat="28.7798130" lon="-17.9211670">
        <ele>1409.1</ele>
        <time>2020-11-16T17:07:18Z</time>
      </trkpt>
      <trkpt lat="28.7798130" lon="-17.9211670">
        <ele>1409.1</ele>
        <time>2020-11-16T17:07:19Z</time>
      </trkpt>
      <trkpt lat="28.7797600" lon="-17.9211400">
        <ele>1409.5</ele>
        <time>2020-11-16T17:07:20Z</time>
      </trkpt>
      <trkpt lat="28.7797600" lon="-17.9211400">
        <ele>1409.5</ele>
        <time>2020-11-16T17:07:21Z</time>
      </trkpt>
      <trkpt lat="28.7797370" lon="-17.9210920">
        <ele>1409.8</ele>
        <time>2020-11-16T17:07:22Z</time>
      </trkpt>
      <trkpt lat="28.7797370" lon="-17.9210920">
        <ele>1409.8</ele>
        <time>2020-11-16T17:07:23Z</time>
      </trkpt>
      <trkpt lat="28.7797200" lon="-17.9210550">
        <ele>1410.0</ele>
        <time>2020-11-16T17:07:24Z</time>
      </trkpt>
      <trkpt lat="28.7797200" lon="-17.9210550">
        <ele>1410.0</ele>
        <time>2020-11-16T17:07:25Z</time>
      </trkpt>
      <trkpt lat="28.7797220" lon="-17.9210020">
        <ele>1410.3</ele>
        <time>2020-11-16T17:07:26Z</time>
      </trkpt>
      <trkpt lat="28.7797220" lon="-17.9210020">
        <ele>1410.3</ele>
        <time>2020-11-16T17:07:27Z</time>
      </trkpt>
      <trkpt lat="28.7796970" lon="-17.9209630">
        <ele>1410.5</ele>
        <time>2020-11-16T17:07:28Z</time>
      </trkpt>
      <trkpt lat="28.7796830" lon="-17.9209420">
        <ele>1410.6</ele>
        <time>2020-11-16T17:07:29Z</time>
      </trkpt>
      <trkpt lat="28.7796830" lon="-17.9209420">
        <ele>1410.6</ele>
        <time>2020-11-16T17:07:30Z</time>
      </trkpt>
      <trkpt lat="28.7796520" lon="-17.9209070">
        <ele>1410.8</ele>
        <time>2020-11-16T17:07:31Z</time>
      </trkpt>
      <trkpt lat="28.7796400" lon="-17.9208930">
        <ele>1410.9</ele>
        <time>2020-11-16T17:07:32Z</time>
      </trkpt>
      <trkpt lat="28.7796400" lon="-17.9208930">
        <ele>1410.9</ele>
        <time>2020-11-16T17:07:33Z</time>
      </trkpt>
      <trkpt lat="28.7796020" lon="-17.9208630">
        <ele>1411.2</ele>
        <time>2020-11-16T17:07:34Z</time>
      </trkpt>
      <trkpt lat="28.7795750" lon="-17.9208530">
        <ele>1411.4</ele>
        <time>2020-11-16T17:07:35Z</time>
      </trkpt>
      <trkpt lat="28.7795750" lon="-17.9208530">
        <ele>1411.4</ele>
        <time>2020-11-16T17:07:36Z</time>
      </trkpt>
      <trkpt lat="28.7795330" lon="-17.9208350">
        <ele>1411.6</ele>
        <time>2020-11-16T17:07:37Z</time>
      </trkpt>
      <trkpt lat="28.7795330" lon="-17.9208350">
        <ele>1411.6</ele>
        <time>2020-11-16T17:07:38Z</time>
      </trkpt>
      <trkpt lat="28.7795020" lon="-17.9208220">
        <ele>1411.8</ele>
        <time>2020-11-16T17:07:39Z</time>
      </trkpt>
      <trkpt lat="28.7795020" lon="-17.9208220">
        <ele>1411.8</ele>
        <time>2020-11-16T17:07:40Z</time>
      </trkpt>
      <trkpt lat="28.7794600" lon="-17.9208350">
        <ele>1412.2</ele>
        <time>2020-11-16T17:07:41Z</time>
      </trkpt>
      <trkpt lat="28.7794600" lon="-17.9208350">
        <ele>1412.2</ele>
        <time>2020-11-16T17:07:42Z</time>
      </trkpt>
      <trkpt lat="28.7794370" lon="-17.9208400">
        <ele>1412.3</ele>
        <time>2020-11-16T17:07:43Z</time>
      </trkpt>
      <trkpt lat="28.7794370" lon="-17.9208400">
        <ele>1412.3</ele>
        <time>2020-11-16T17:07:44Z</time>
      </trkpt>
      <trkpt lat="28.7794120" lon="-17.9208620">
        <ele>1412.6</ele>
        <time>2020-11-16T17:07:45Z</time>
      </trkpt>
      <trkpt lat="28.7794070" lon="-17.9208720">
        <ele>1412.6</ele>
        <time>2020-11-16T17:07:46Z</time>
      </trkpt>
      <trkpt lat="28.7794070" lon="-17.9208720">
        <ele>1412.6</ele>
        <time>2020-11-16T17:07:47Z</time>
      </trkpt>
      <trkpt lat="28.7793900" lon="-17.9209080">
        <ele>1412.9</ele>
        <time>2020-11-16T17:07:48Z</time>
      </trkpt>
      <trkpt lat="28.7793820" lon="-17.9209230">
        <ele>1413.0</ele>
        <time>2020-11-16T17:07:49Z</time>
      </trkpt>
      <trkpt lat="28.7793820" lon="-17.9209230">
        <ele>1413.0</ele>
        <time>2020-11-16T17:07:50Z</time>
      </trkpt>
      <trkpt lat="28.7793500" lon="-17.9209370">
        <ele>1413.2</ele>
        <time>2020-11-16T17:07:51Z</time>
      </trkpt>
      <trkpt lat="28.7793500" lon="-17.9209370">
        <ele>1413.2</ele>
        <time>2020-11-16T17:07:52Z</time>
      </trkpt>
      <trkpt lat="28.7792900" lon="-17.9209820">
        <ele>1413.7</ele>
        <time>2020-11-16T17:07:53Z</time>
      </trkpt>
      <trkpt lat="28.7792900" lon="-17.9209820">
        <ele>1413.7</ele>
        <time>2020-11-16T17:07:54Z</time>
      </trkpt>
      <trkpt lat="28.7792750" lon="-17.9210530">
        <ele>1414.1</ele>
        <time>2020-11-16T17:07:55Z</time>
      </trkpt>
      <trkpt lat="28.7792750" lon="-17.9210530">
        <ele>1414.1</ele>
        <time>2020-11-16T17:07:56Z</time>
      </trkpt>
      <trkpt lat="28.7792680" lon="-17.9211650">
        <ele>1414.7</ele>
        <time>2020-11-16T17:07:57Z</time>
      </trkpt>
      <trkpt lat="28.7792680" lon="-17.9211650">
        <ele>1414.7</ele>
        <time>2020-11-16T17:07:58Z</time>
      </trkpt>
      <trkpt lat="28.7792770" lon="-17.9212350">
        <ele>1415.1</ele>
        <time>2020-11-16T17:07:59Z</time>
      </trkpt>
      <trkpt lat="28.7792770" lon="-17.9212350">
        <ele>1415.1</ele>
        <time>2020-11-16T17:08:00Z</time>
      </trkpt>
      <trkpt lat="28.7792930" lon="-17.9212830">
        <ele>1415.4</ele>
        <time>2020-11-16T17:08:01Z</time>
      </trkpt>
      <trkpt lat="28.7792930" lon="-17.9212830">
        <ele>1415.4</ele>
        <time>2020-11-16T17:08:02Z</time>
      </trkpt>
      <trkpt lat="28.7793130" lon="-17.9213120">
        <ele>1415.6</ele>
        <time>2020-11-16T17:08:03Z</time>
      </trkpt>
      <trkpt lat="28.7793130" lon="-17.9213120">
        <ele>1415.6</ele>
        <time>2020-11-16T17:08:04Z</time>
      </trkpt>
      <trkpt lat="28.7793280" lon="-17.9213550">
        <ele>1415.9</ele>
        <time>2020-11-16T17:08:05Z</time>
      </trkpt>
      <trkpt lat="28.7793280" lon="-17.9213550">
        <ele>1415.9</ele>
        <time>2020-11-16T17:08:06Z</time>
      </trkpt>
      <trkpt lat="28.7793370" lon="-17.9214150">
        <ele>1416.3</ele>
        <time>2020-11-16T17:08:07Z</time>
      </trkpt>
      <trkpt lat="28.7793370" lon="-17.9214150">
        <ele>1416.3</ele>
        <time>2020-11-16T17:08:08Z</time>
      </trkpt>
      <trkpt lat="28.7793400" lon="-17.9214630">
        <ele>1416.6</ele>
        <time>2020-11-16T17:08:09Z</time>
      </trkpt>
      <trkpt lat="28.7793370" lon="-17.9214850">
        <ele>1416.7</ele>
        <time>2020-11-16T17:08:10Z</time>
      </trkpt>
      <trkpt lat="28.7793350" lon="-17.9215030">
        <ele>1416.8</ele>
        <time>2020-11-16T17:08:11Z</time>
      </trkpt>
      <trkpt lat="28.7793350" lon="-17.9215030">
        <ele>1416.8</ele>
        <time>2020-11-16T17:08:12Z</time>
      </trkpt>
      <trkpt lat="28.7793470" lon="-17.9215630">
        <ele>1417.3</ele>
        <time>2020-11-16T17:08:13Z</time>
      </trkpt>
      <trkpt lat="28.7793470" lon="-17.9215630">
        <ele>1417.3</ele>
        <time>2020-11-16T17:08:14Z</time>
      </trkpt>
      <trkpt lat="28.7793400" lon="-17.9216220">
        <ele>1417.7</ele>
        <time>2020-11-16T17:08:15Z</time>
      </trkpt>
      <trkpt lat="28.7793430" lon="-17.9216430">
        <ele>1417.8</ele>
        <time>2020-11-16T17:08:16Z</time>
      </trkpt>
      <trkpt lat="28.7793430" lon="-17.9216430">
        <ele>1417.8</ele>
        <time>2020-11-16T17:08:17Z</time>
      </trkpt>
      <trkpt lat="28.7793550" lon="-17.9216820">
        <ele>1418.0</ele>
        <time>2020-11-16T17:08:18Z</time>
      </trkpt>
      <trkpt lat="28.7793550" lon="-17.9216820">
        <ele>1418.0</ele>
        <time>2020-11-16T17:08:19Z</time>
      </trkpt>
      <trkpt lat="28.7793570" lon="-17.9217380">
        <ele>1417.1</ele>
        <time>2020-11-16T17:08:20Z</time>
      </trkpt>
      <trkpt lat="28.7793570" lon="-17.9217380">
        <ele>1417.1</ele>
        <time>2020-11-16T17:08:21Z</time>
      </trkpt>
      <trkpt lat="28.7793530" lon="-17.9218020">
        <ele>1416.1</ele>
        <time>2020-11-16T17:08:22Z</time>
      </trkpt>
      <trkpt lat="28.7793530" lon="-17.9218020">
        <ele>1416.1</ele>
        <time>2020-11-16T17:08:23Z</time>
      </trkpt>
      <trkpt lat="28.7793530" lon="-17.9218370">
        <ele>1415.5</ele>
        <time>2020-11-16T17:08:24Z</time>
      </trkpt>
      <trkpt lat="28.7793530" lon="-17.9218370">
        <ele>1415.5</ele>
        <time>2020-11-16T17:08:25Z</time>
      </trkpt>
      <trkpt lat="28.7793500" lon="-17.9218870">
        <ele>1414.7</ele>
        <time>2020-11-16T17:08:26Z</time>
      </trkpt>
      <trkpt lat="28.7793500" lon="-17.9218870">
        <ele>1414.7</ele>
        <time>2020-11-16T17:08:27Z</time>
      </trkpt>
      <trkpt lat="28.7793400" lon="-17.9219500">
        <ele>1413.7</ele>
        <time>2020-11-16T17:08:28Z</time>
      </trkpt>
      <trkpt lat="28.7793400" lon="-17.9219500">
        <ele>1413.7</ele>
        <time>2020-11-16T17:08:29Z</time>
      </trkpt>
      <trkpt lat="28.7793300" lon="-17.9220080">
        <ele>1412.8</ele>
        <time>2020-11-16T17:08:30Z</time>
      </trkpt>
      <trkpt lat="28.7793300" lon="-17.9220080">
        <ele>1412.8</ele>
        <time>2020-11-16T17:08:31Z</time>
      </trkpt>
      <trkpt lat="28.7793250" lon="-17.9220600">
        <ele>1412.0</ele>
        <time>2020-11-16T17:08:32Z</time>
      </trkpt>
      <trkpt lat="28.7793250" lon="-17.9220600">
        <ele>1412.0</ele>
        <time>2020-11-16T17:08:33Z</time>
      </trkpt>
      <trkpt lat="28.7793180" lon="-17.9221150">
        <ele>1411.2</ele>
        <time>2020-11-16T17:08:34Z</time>
      </trkpt>
      <trkpt lat="28.7793200" lon="-17.9221370">
        <ele>1410.9</ele>
        <time>2020-11-16T17:08:35Z</time>
      </trkpt>
      <trkpt lat="28.7793200" lon="-17.9221370">
        <ele>1410.9</ele>
        <time>2020-11-16T17:08:36Z</time>
      </trkpt>
      <trkpt lat="28.7793050" lon="-17.9222150">
        <ele>1409.6</ele>
        <time>2020-11-16T17:08:37Z</time>
      </trkpt>
      <trkpt lat="28.7793050" lon="-17.9222150">
        <ele>1409.6</ele>
        <time>2020-11-16T17:08:38Z</time>
      </trkpt>
      <trkpt lat="28.7793030" lon="-17.9222720">
        <ele>1408.7</ele>
        <time>2020-11-16T17:08:39Z</time>
      </trkpt>
      <trkpt lat="28.7793030" lon="-17.9222720">
        <ele>1408.7</ele>
        <time>2020-11-16T17:08:40Z</time>
      </trkpt>
      <trkpt lat="28.7793130" lon="-17.9223270">
        <ele>1407.8</ele>
        <time>2020-11-16T17:08:41Z</time>
      </trkpt>
      <trkpt lat="28.7793130" lon="-17.9223270">
        <ele>1407.8</ele>
        <time>2020-11-16T17:08:42Z</time>
      </trkpt>
      <trkpt lat="28.7793120" lon="-17.9223530">
        <ele>1407.4</ele>
        <time>2020-11-16T17:08:43Z</time>
      </trkpt>
      <trkpt lat="28.7793120" lon="-17.9223530">
        <ele>1407.4</ele>
        <time>2020-11-16T17:08:44Z</time>
      </trkpt>
      <trkpt lat="28.7792980" lon="-17.9224200">
        <ele>1406.3</ele>
        <time>2020-11-16T17:08:45Z</time>
      </trkpt>
      <trkpt lat="28.7792980" lon="-17.9224200">
        <ele>1406.3</ele>
        <time>2020-11-16T17:08:46Z</time>
      </trkpt>
      <trkpt lat="28.7793050" lon="-17.9224480">
        <ele>1405.8</ele>
        <time>2020-11-16T17:08:47Z</time>
      </trkpt>
      <trkpt lat="28.7793050" lon="-17.9224480">
        <ele>1405.8</ele>
        <time>2020-11-16T17:08:48Z</time>
      </trkpt>
      <trkpt lat="28.7793220" lon="-17.9224830">
        <ele>1405.1</ele>
        <time>2020-11-16T17:08:49Z</time>
      </trkpt>
      <trkpt lat="28.7793220" lon="-17.9225000">
        <ele>1404.8</ele>
        <time>2020-11-16T17:08:50Z</time>
      </trkpt>
      <trkpt lat="28.7793220" lon="-17.9225000">
        <ele>1404.8</ele>
        <time>2020-11-16T17:08:51Z</time>
      </trkpt>
      <trkpt lat="28.7793270" lon="-17.9225170">
        <ele>1404.5</ele>
        <time>2020-11-16T17:08:52Z</time>
      </trkpt>
      <trkpt lat="28.7793280" lon="-17.9225280">
        <ele>1404.4</ele>
        <time>2020-11-16T17:08:53Z</time>
      </trkpt>
      <trkpt lat="28.7793280" lon="-17.9225280">
        <ele>1404.4</ele>
        <time>2020-11-16T17:08:54Z</time>
      </trkpt>
      <trkpt lat="28.7793220" lon="-17.9225930">
        <ele>1403.3</ele>
        <time>2020-11-16T17:08:55Z</time>
      </trkpt>
      <trkpt lat="28.7793220" lon="-17.9225930">
        <ele>1403.3</ele>
        <time>2020-11-16T17:08:56Z</time>
      </trkpt>
      <trkpt lat="28.7793120" lon="-17.9226500">
        <ele>1402.4</ele>
        <time>2020-11-16T17:08:57Z</time>
      </trkpt>
      <trkpt lat="28.7793120" lon="-17.9226500">
        <ele>1402.4</ele>
        <time>2020-11-16T17:08:58Z</time>
      </trkpt>
      <trkpt lat="28.7793070" lon="-17.9227120">
        <ele>1401.5</ele>
        <time>2020-11-16T17:08:59Z</time>
      </trkpt>
      <trkpt lat="28.7793070" lon="-17.9227120">
        <ele>1401.5</ele>
        <time>2020-11-16T17:09:00Z</time>
      </trkpt>
      <trkpt lat="28.7793200" lon="-17.9227470">
        <ele>1400.9</ele>
        <time>2020-11-16T17:09:01Z</time>
      </trkpt>
      <trkpt lat="28.7793250" lon="-17.9227670">
        <ele>1400.6</ele>
        <time>2020-11-16T17:09:02Z</time>
      </trkpt>
      <trkpt lat="28.7793250" lon="-17.9227670">
        <ele>1400.6</ele>
        <time>2020-11-16T17:09:03Z</time>
      </trkpt>
      <trkpt lat="28.7793320" lon="-17.9228120">
        <ele>1399.9</ele>
        <time>2020-11-16T17:09:04Z</time>
      </trkpt>
      <trkpt lat="28.7793330" lon="-17.9228250">
        <ele>1399.7</ele>
        <time>2020-11-16T17:09:05Z</time>
      </trkpt>
      <trkpt lat="28.7793330" lon="-17.9228250">
        <ele>1399.7</ele>
        <time>2020-11-16T17:09:06Z</time>
      </trkpt>
      <trkpt lat="28.7793320" lon="-17.9228780">
        <ele>1398.9</ele>
        <time>2020-11-16T17:09:07Z</time>
      </trkpt>
      <trkpt lat="28.7793270" lon="-17.9229180">
        <ele>1398.3</ele>
        <time>2020-11-16T17:09:08Z</time>
      </trkpt>
      <trkpt lat="28.7793250" lon="-17.9229580">
        <ele>1397.7</ele>
        <time>2020-11-16T17:09:09Z</time>
      </trkpt>
      <trkpt lat="28.7793250" lon="-17.9229580">
        <ele>1397.7</ele>
        <time>2020-11-16T17:09:10Z</time>
      </trkpt>
      <trkpt lat="28.7793350" lon="-17.9230500">
        <ele>1396.3</ele>
        <time>2020-11-16T17:09:11Z</time>
      </trkpt>
      <trkpt lat="28.7793350" lon="-17.9230500">
        <ele>1396.3</ele>
        <time>2020-11-16T17:09:12Z</time>
      </trkpt>
      <trkpt lat="28.7793400" lon="-17.9231380">
        <ele>1395.1</ele>
        <time>2020-11-16T17:09:13Z</time>
      </trkpt>
      <trkpt lat="28.7793420" lon="-17.9231620">
        <ele>1394.8</ele>
        <time>2020-11-16T17:09:14Z</time>
      </trkpt>
      <trkpt lat="28.7793420" lon="-17.9231620">
        <ele>1394.8</ele>
        <time>2020-11-16T17:09:15Z</time>
      </trkpt>
      <trkpt lat="28.7793420" lon="-17.9232080">
        <ele>1394.1</ele>
        <time>2020-11-16T17:09:16Z</time>
      </trkpt>
      <trkpt lat="28.7793370" lon="-17.9232330">
        <ele>1393.8</ele>
        <time>2020-11-16T17:09:17Z</time>
      </trkpt>
      <trkpt lat="28.7793370" lon="-17.9232330">
        <ele>1393.8</ele>
        <time>2020-11-16T17:09:18Z</time>
      </trkpt>
      <trkpt lat="28.7793430" lon="-17.9232850">
        <ele>1393.1</ele>
        <time>2020-11-16T17:09:19Z</time>
      </trkpt>
      <trkpt lat="28.7793420" lon="-17.9233330">
        <ele>1392.4</ele>
        <time>2020-11-16T17:09:20Z</time>
      </trkpt>
      <trkpt lat="28.7793420" lon="-17.9233330">
        <ele>1392.4</ele>
        <time>2020-11-16T17:09:21Z</time>
      </trkpt>
      <trkpt lat="28.7793250" lon="-17.9233900">
        <ele>1391.5</ele>
        <time>2020-11-16T17:09:22Z</time>
      </trkpt>
      <trkpt lat="28.7793250" lon="-17.9233900">
        <ele>1391.5</ele>
        <time>2020-11-16T17:09:23Z</time>
      </trkpt>
      <trkpt lat="28.7793020" lon="-17.9234300">
        <ele>1390.7</ele>
        <time>2020-11-16T17:09:24Z</time>
      </trkpt>
      <trkpt lat="28.7793020" lon="-17.9234300">
        <ele>1390.7</ele>
        <time>2020-11-16T17:09:25Z</time>
      </trkpt>
      <trkpt lat="28.7792770" lon="-17.9234650">
        <ele>1390.0</ele>
        <time>2020-11-16T17:09:26Z</time>
      </trkpt>
      <trkpt lat="28.7792770" lon="-17.9234650">
        <ele>1390.0</ele>
        <time>2020-11-16T17:09:27Z</time>
      </trkpt>
      <trkpt lat="28.7792370" lon="-17.9234800">
        <ele>1389.2</ele>
        <time>2020-11-16T17:09:28Z</time>
      </trkpt>
      <trkpt lat="28.7792370" lon="-17.9234800">
        <ele>1389.1</ele>
        <time>2020-11-16T17:09:29Z</time>
      </trkpt>
      <trkpt lat="28.7791900" lon="-17.9234680">
        <ele>1389.1</ele>
        <time>2020-11-16T17:09:30Z</time>
      </trkpt>
      <trkpt lat="28.7791900" lon="-17.9234680">
        <ele>1389.1</ele>
        <time>2020-11-16T17:09:31Z</time>
      </trkpt>
      <trkpt lat="28.7791430" lon="-17.9234430">
        <ele>1388.9</ele>
        <time>2020-11-16T17:09:32Z</time>
      </trkpt>
      <trkpt lat="28.7791430" lon="-17.9234430">
        <ele>1388.9</ele>
        <time>2020-11-16T17:09:33Z</time>
      </trkpt>
      <trkpt lat="28.7791150" lon="-17.9234100">
        <ele>1388.8</ele>
        <time>2020-11-16T17:09:34Z</time>
      </trkpt>
      <trkpt lat="28.7791150" lon="-17.9234100">
        <ele>1388.8</ele>
        <time>2020-11-16T17:09:35Z</time>
      </trkpt>
      <trkpt lat="28.7790780" lon="-17.9233580">
        <ele>1388.7</ele>
        <time>2020-11-16T17:09:36Z</time>
      </trkpt>
      <trkpt lat="28.7790780" lon="-17.9233580">
        <ele>1388.7</ele>
        <time>2020-11-16T17:09:37Z</time>
      </trkpt>
      <trkpt lat="28.7790300" lon="-17.9233000">
        <ele>1388.6</ele>
        <time>2020-11-16T17:09:38Z</time>
      </trkpt>
      <trkpt lat="28.7790300" lon="-17.9233000">
        <ele>1388.6</ele>
        <time>2020-11-16T17:09:39Z</time>
      </trkpt>
      <trkpt lat="28.7789720" lon="-17.9232380">
        <ele>1388.4</ele>
        <time>2020-11-16T17:09:40Z</time>
      </trkpt>
      <trkpt lat="28.7789430" lon="-17.9232080">
        <ele>1388.4</ele>
        <time>2020-11-16T17:09:41Z</time>
      </trkpt>
      <trkpt lat="28.7789430" lon="-17.9232080">
        <ele>1388.4</ele>
        <time>2020-11-16T17:09:42Z</time>
      </trkpt>
      <trkpt lat="28.7788630" lon="-17.9231920">
        <ele>1388.2</ele>
        <time>2020-11-16T17:09:43Z</time>
      </trkpt>
      <trkpt lat="28.7788630" lon="-17.9231920">
        <ele>1388.2</ele>
        <time>2020-11-16T17:09:44Z</time>
      </trkpt>
      <trkpt lat="28.7787980" lon="-17.9231280">
        <ele>1388.0</ele>
        <time>2020-11-16T17:09:45Z</time>
      </trkpt>
      <trkpt lat="28.7787980" lon="-17.9231280">
        <ele>1388.0</ele>
        <time>2020-11-16T17:09:46Z</time>
      </trkpt>
      <trkpt lat="28.7787330" lon="-17.9230770">
        <ele>1387.9</ele>
        <time>2020-11-16T17:09:47Z</time>
      </trkpt>
      <trkpt lat="28.7787330" lon="-17.9230770">
        <ele>1387.9</ele>
        <time>2020-11-16T17:09:48Z</time>
      </trkpt>
      <trkpt lat="28.7786650" lon="-17.9230650">
        <ele>1387.8</ele>
        <time>2020-11-16T17:09:49Z</time>
      </trkpt>
      <trkpt lat="28.7786650" lon="-17.9230650">
        <ele>1387.8</ele>
        <time>2020-11-16T17:09:50Z</time>
      </trkpt>
      <trkpt lat="28.7785950" lon="-17.9230900">
        <ele>1387.7</ele>
        <time>2020-11-16T17:09:51Z</time>
      </trkpt>
      <trkpt lat="28.7785670" lon="-17.9231130">
        <ele>1387.7</ele>
        <time>2020-11-16T17:09:52Z</time>
      </trkpt>
      <trkpt lat="28.7785670" lon="-17.9231130">
        <ele>1387.7</ele>
        <time>2020-11-16T17:09:53Z</time>
      </trkpt>
      <trkpt lat="28.7785350" lon="-17.9231820">
        <ele>1387.6</ele>
        <time>2020-11-16T17:09:54Z</time>
      </trkpt>
      <trkpt lat="28.7785350" lon="-17.9231820">
        <ele>1387.6</ele>
        <time>2020-11-16T17:09:55Z</time>
      </trkpt>
      <trkpt lat="28.7785200" lon="-17.9232620">
        <ele>1387.6</ele>
        <time>2020-11-16T17:09:56Z</time>
      </trkpt>
      <trkpt lat="28.7785200" lon="-17.9232620">
        <ele>1387.6</ele>
        <time>2020-11-16T17:09:57Z</time>
      </trkpt>
      <trkpt lat="28.7785120" lon="-17.9233430">
        <ele>1387.5</ele>
        <time>2020-11-16T17:09:58Z</time>
      </trkpt>
      <trkpt lat="28.7785080" lon="-17.9233880">
        <ele>1387.5</ele>
        <time>2020-11-16T17:09:59Z</time>
      </trkpt>
      <trkpt lat="28.7785080" lon="-17.9233880">
        <ele>1387.5</ele>
        <time>2020-11-16T17:10:00Z</time>
      </trkpt>
      <trkpt lat="28.7785070" lon="-17.9234780">
        <ele>1387.4</ele>
        <time>2020-11-16T17:10:01Z</time>
      </trkpt>
      <trkpt lat="28.7785070" lon="-17.9234780">
        <ele>1387.4</ele>
        <time>2020-11-16T17:10:02Z</time>
      </trkpt>
      <trkpt lat="28.7785050" lon="-17.9235650">
        <ele>1387.3</ele>
        <time>2020-11-16T17:10:03Z</time>
      </trkpt>
      <trkpt lat="28.7785050" lon="-17.9235650">
        <ele>1387.3</ele>
        <time>2020-11-16T17:10:04Z</time>
      </trkpt>
      <trkpt lat="28.7785030" lon="-17.9236520">
        <ele>1387.1</ele>
        <time>2020-11-16T17:10:05Z</time>
      </trkpt>
      <trkpt lat="28.7785030" lon="-17.9236520">
        <ele>1387.1</ele>
        <time>2020-11-16T17:10:06Z</time>
      </trkpt>
      <trkpt lat="28.7785000" lon="-17.9237230">
        <ele>1387.0</ele>
        <time>2020-11-16T17:10:07Z</time>
      </trkpt>
      <trkpt lat="28.7785000" lon="-17.9237230">
        <ele>1387.0</ele>
        <time>2020-11-16T17:10:08Z</time>
      </trkpt>
      <trkpt lat="28.7784780" lon="-17.9237850">
        <ele>1387.0</ele>
        <time>2020-11-16T17:10:09Z</time>
      </trkpt>
      <trkpt lat="28.7784780" lon="-17.9237850">
        <ele>1387.0</ele>
        <time>2020-11-16T17:10:10Z</time>
      </trkpt>
      <trkpt lat="28.7784350" lon="-17.9238480">
        <ele>1386.9</ele>
        <time>2020-11-16T17:10:11Z</time>
      </trkpt>
      <trkpt lat="28.7784350" lon="-17.9238480">
        <ele>1386.9</ele>
        <time>2020-11-16T17:10:12Z</time>
      </trkpt>
      <trkpt lat="28.7783850" lon="-17.9238900">
        <ele>1386.7</ele>
        <time>2020-11-16T17:10:13Z</time>
      </trkpt>
      <trkpt lat="28.7783850" lon="-17.9238900">
        <ele>1386.7</ele>
        <time>2020-11-16T17:10:14Z</time>
      </trkpt>
      <trkpt lat="28.7783350" lon="-17.9238880">
        <ele>1386.6</ele>
        <time>2020-11-16T17:10:15Z</time>
      </trkpt>
      <trkpt lat="28.7783350" lon="-17.9238880">
        <ele>1386.6</ele>
        <time>2020-11-16T17:10:16Z</time>
      </trkpt>
      <trkpt lat="28.7782670" lon="-17.9238600">
        <ele>1386.3</ele>
        <time>2020-11-16T17:10:17Z</time>
      </trkpt>
      <trkpt lat="28.7782670" lon="-17.9238600">
        <ele>1386.3</ele>
        <time>2020-11-16T17:10:18Z</time>
      </trkpt>
      <trkpt lat="28.7782020" lon="-17.9238270">
        <ele>1386.0</ele>
        <time>2020-11-16T17:10:19Z</time>
      </trkpt>
      <trkpt lat="28.7781720" lon="-17.9238150">
        <ele>1385.9</ele>
        <time>2020-11-16T17:10:20Z</time>
      </trkpt>
      <trkpt lat="28.7781720" lon="-17.9238150">
        <ele>1385.9</ele>
        <time>2020-11-16T17:10:21Z</time>
      </trkpt>
      <trkpt lat="28.7781020" lon="-17.9237930">
        <ele>1385.5</ele>
        <time>2020-11-16T17:10:22Z</time>
      </trkpt>
      <trkpt lat="28.7781020" lon="-17.9237930">
        <ele>1385.5</ele>
        <time>2020-11-16T17:10:23Z</time>
      </trkpt>
      <trkpt lat="28.7780300" lon="-17.9237730">
        <ele>1385.2</ele>
        <time>2020-11-16T17:10:24Z</time>
      </trkpt>
      <trkpt lat="28.7780300" lon="-17.9237730">
        <ele>1385.2</ele>
        <time>2020-11-16T17:10:25Z</time>
      </trkpt>
      <trkpt lat="28.7779430" lon="-17.9237480">
        <ele>1385.0</ele>
        <time>2020-11-16T17:10:26Z</time>
      </trkpt>
      <trkpt lat="28.7779430" lon="-17.9237480">
        <ele>1385.0</ele>
        <time>2020-11-16T17:10:27Z</time>
      </trkpt>
      <trkpt lat="28.7778650" lon="-17.9237220">
        <ele>1384.8</ele>
        <time>2020-11-16T17:10:28Z</time>
      </trkpt>
      <trkpt lat="28.7778270" lon="-17.9237050">
        <ele>1384.6</ele>
        <time>2020-11-16T17:10:29Z</time>
      </trkpt>
      <trkpt lat="28.7778270" lon="-17.9237050">
        <ele>1384.6</ele>
        <time>2020-11-16T17:10:30Z</time>
      </trkpt>
      <trkpt lat="28.7777530" lon="-17.9236720">
        <ele>1384.2</ele>
        <time>2020-11-16T17:10:31Z</time>
      </trkpt>
      <trkpt lat="28.7777530" lon="-17.9236720">
        <ele>1384.2</ele>
        <time>2020-11-16T17:10:32Z</time>
      </trkpt>
      <trkpt lat="28.7776680" lon="-17.9236500">
        <ele>1383.8</ele>
        <time>2020-11-16T17:10:33Z</time>
      </trkpt>
      <trkpt lat="28.7776680" lon="-17.9236500">
        <ele>1383.8</ele>
        <time>2020-11-16T17:10:34Z</time>
      </trkpt>
      <trkpt lat="28.7775780" lon="-17.9236330">
        <ele>1383.6</ele>
        <time>2020-11-16T17:10:35Z</time>
      </trkpt>
      <trkpt lat="28.7775780" lon="-17.9236330">
        <ele>1383.6</ele>
        <time>2020-11-16T17:10:36Z</time>
      </trkpt>
      <trkpt lat="28.7774880" lon="-17.9236400">
        <ele>1383.3</ele>
        <time>2020-11-16T17:10:37Z</time>
      </trkpt>
      <trkpt lat="28.7774400" lon="-17.9236370">
        <ele>1383.1</ele>
        <time>2020-11-16T17:10:38Z</time>
      </trkpt>
      <trkpt lat="28.7774400" lon="-17.9236370">
        <ele>1383.1</ele>
        <time>2020-11-16T17:10:39Z</time>
      </trkpt>
      <trkpt lat="28.7773570" lon="-17.9236150">
        <ele>1382.8</ele>
        <time>2020-11-16T17:10:40Z</time>
      </trkpt>
      <trkpt lat="28.7773250" lon="-17.9235970">
        <ele>1382.6</ele>
        <time>2020-11-16T17:10:41Z</time>
      </trkpt>
      <trkpt lat="28.7773250" lon="-17.9235970">
        <ele>1382.6</ele>
        <time>2020-11-16T17:10:42Z</time>
      </trkpt>
      <trkpt lat="28.7772630" lon="-17.9235480">
        <ele>1382.3</ele>
        <time>2020-11-16T17:10:43Z</time>
      </trkpt>
      <trkpt lat="28.7772230" lon="-17.9235170">
        <ele>1382.1</ele>
        <time>2020-11-16T17:10:44Z</time>
      </trkpt>
      <trkpt lat="28.7772230" lon="-17.9235170">
        <ele>1382.1</ele>
        <time>2020-11-16T17:10:45Z</time>
      </trkpt>
      <trkpt lat="28.7771270" lon="-17.9234680">
        <ele>1381.6</ele>
        <time>2020-11-16T17:10:46Z</time>
      </trkpt>
      <trkpt lat="28.7770770" lon="-17.9234450">
        <ele>1381.3</ele>
        <time>2020-11-16T17:10:47Z</time>
      </trkpt>
      <trkpt lat="28.7770770" lon="-17.9234450">
        <ele>1381.3</ele>
        <time>2020-11-16T17:10:48Z</time>
      </trkpt>
      <trkpt lat="28.7769800" lon="-17.9233830">
        <ele>1380.7</ele>
        <time>2020-11-16T17:10:49Z</time>
      </trkpt>
      <trkpt lat="28.7769800" lon="-17.9233830">
        <ele>1380.7</ele>
        <time>2020-11-16T17:10:50Z</time>
      </trkpt>
      <trkpt lat="28.7768870" lon="-17.9233350">
        <ele>1380.2</ele>
        <time>2020-11-16T17:10:51Z</time>
      </trkpt>
      <trkpt lat="28.7768870" lon="-17.9233350">
        <ele>1380.2</ele>
        <time>2020-11-16T17:10:52Z</time>
      </trkpt>
      <trkpt lat="28.7767970" lon="-17.9232930">
        <ele>1379.9</ele>
        <time>2020-11-16T17:10:53Z</time>
      </trkpt>
      <trkpt lat="28.7767970" lon="-17.9232930">
        <ele>1379.9</ele>
        <time>2020-11-16T17:10:54Z</time>
      </trkpt>
      <trkpt lat="28.7767020" lon="-17.9232480">
        <ele>1379.7</ele>
        <time>2020-11-16T17:10:55Z</time>
      </trkpt>
      <trkpt lat="28.7766550" lon="-17.9232300">
        <ele>1379.6</ele>
        <time>2020-11-16T17:10:56Z</time>
      </trkpt>
      <trkpt lat="28.7766550" lon="-17.9232300">
        <ele>1379.6</ele>
        <time>2020-11-16T17:10:57Z</time>
      </trkpt>
      <trkpt lat="28.7765670" lon="-17.9231980">
        <ele>1379.3</ele>
        <time>2020-11-16T17:10:58Z</time>
      </trkpt>
      <trkpt lat="28.7765670" lon="-17.9231980">
        <ele>1379.3</ele>
        <time>2020-11-16T17:10:59Z</time>
      </trkpt>
      <trkpt lat="28.7764950" lon="-17.9231580">
        <ele>1379.1</ele>
        <time>2020-11-16T17:11:00Z</time>
      </trkpt>
      <trkpt lat="28.7764670" lon="-17.9231320">
        <ele>1378.9</ele>
        <time>2020-11-16T17:11:01Z</time>
      </trkpt>
      <trkpt lat="28.7764400" lon="-17.9231030">
        <ele>1378.8</ele>
        <time>2020-11-16T17:11:02Z</time>
      </trkpt>
      <trkpt lat="28.7764400" lon="-17.9231030">
        <ele>1378.8</ele>
        <time>2020-11-16T17:11:03Z</time>
      </trkpt>
      <trkpt lat="28.7763800" lon="-17.9230500">
        <ele>1378.4</ele>
        <time>2020-11-16T17:11:04Z</time>
      </trkpt>
      <trkpt lat="28.7763800" lon="-17.9230500">
        <ele>1378.4</ele>
        <time>2020-11-16T17:11:05Z</time>
      </trkpt>
      <trkpt lat="28.7763250" lon="-17.9229870">
        <ele>1377.9</ele>
        <time>2020-11-16T17:11:06Z</time>
      </trkpt>
      <trkpt lat="28.7763250" lon="-17.9229870">
        <ele>1377.9</ele>
        <time>2020-11-16T17:11:07Z</time>
      </trkpt>
      <trkpt lat="28.7762750" lon="-17.9229130">
        <ele>1377.3</ele>
        <time>2020-11-16T17:11:08Z</time>
      </trkpt>
      <trkpt lat="28.7762750" lon="-17.9229130">
        <ele>1377.3</ele>
        <time>2020-11-16T17:11:09Z</time>
      </trkpt>
      <trkpt lat="28.7762230" lon="-17.9228450">
        <ele>1376.9</ele>
        <time>2020-11-16T17:11:10Z</time>
      </trkpt>
      <trkpt lat="28.7762230" lon="-17.9228450">
        <ele>1376.9</ele>
        <time>2020-11-16T17:11:11Z</time>
      </trkpt>
      <trkpt lat="28.7761580" lon="-17.9227750">
        <ele>1376.5</ele>
        <time>2020-11-16T17:11:12Z</time>
      </trkpt>
      <trkpt lat="28.7761270" lon="-17.9227450">
        <ele>1376.3</ele>
        <time>2020-11-16T17:11:13Z</time>
      </trkpt>
      <trkpt lat="28.7760950" lon="-17.9227050">
        <ele>1376.1</ele>
        <time>2020-11-16T17:11:14Z</time>
      </trkpt>
      <trkpt lat="28.7760950" lon="-17.9227050">
        <ele>1376.1</ele>
        <time>2020-11-16T17:11:15Z</time>
      </trkpt>
      <trkpt lat="28.7760220" lon="-17.9225700">
        <ele>1375.6</ele>
        <time>2020-11-16T17:11:16Z</time>
      </trkpt>
      <trkpt lat="28.7759980" lon="-17.9225250">
        <ele>1375.5</ele>
        <time>2020-11-16T17:11:17Z</time>
      </trkpt>
      <trkpt lat="28.7759980" lon="-17.9225250">
        <ele>1375.5</ele>
        <time>2020-11-16T17:11:18Z</time>
      </trkpt>
      <trkpt lat="28.7759480" lon="-17.9224430">
        <ele>1375.2</ele>
        <time>2020-11-16T17:11:19Z</time>
      </trkpt>
      <trkpt lat="28.7759480" lon="-17.9224430">
        <ele>1375.2</ele>
        <time>2020-11-16T17:11:20Z</time>
      </trkpt>
      <trkpt lat="28.7759020" lon="-17.9223620">
        <ele>1374.9</ele>
        <time>2020-11-16T17:11:21Z</time>
      </trkpt>
      <trkpt lat="28.7759020" lon="-17.9223620">
        <ele>1374.9</ele>
        <time>2020-11-16T17:11:22Z</time>
      </trkpt>
      <trkpt lat="28.7758750" lon="-17.9222770">
        <ele>1374.6</ele>
        <time>2020-11-16T17:11:23Z</time>
      </trkpt>
      <trkpt lat="28.7758750" lon="-17.9222770">
        <ele>1374.6</ele>
        <time>2020-11-16T17:11:24Z</time>
      </trkpt>
      <trkpt lat="28.7758470" lon="-17.9222120">
        <ele>1374.5</ele>
        <time>2020-11-16T17:11:25Z</time>
      </trkpt>
      <trkpt lat="28.7758270" lon="-17.9221880">
        <ele>1374.5</ele>
        <time>2020-11-16T17:11:26Z</time>
      </trkpt>
      <trkpt lat="28.7758270" lon="-17.9221880">
        <ele>1374.5</ele>
        <time>2020-11-16T17:11:27Z</time>
      </trkpt>
      <trkpt lat="28.7757880" lon="-17.9221800">
        <ele>1374.6</ele>
        <time>2020-11-16T17:11:28Z</time>
      </trkpt>
      <trkpt lat="28.7757880" lon="-17.9221800">
        <ele>1374.6</ele>
        <time>2020-11-16T17:11:29Z</time>
      </trkpt>
      <trkpt lat="28.7757380" lon="-17.9222270">
        <ele>1374.8</ele>
        <time>2020-11-16T17:11:30Z</time>
      </trkpt>
      <trkpt lat="28.7757380" lon="-17.9222270">
        <ele>1374.8</ele>
        <time>2020-11-16T17:11:31Z</time>
      </trkpt>
      <trkpt lat="28.7756980" lon="-17.9222780">
        <ele>1375.0</ele>
        <time>2020-11-16T17:11:32Z</time>
      </trkpt>
      <trkpt lat="28.7756850" lon="-17.9223070">
        <ele>1375.1</ele>
        <time>2020-11-16T17:11:33Z</time>
      </trkpt>
      <trkpt lat="28.7756850" lon="-17.9223070">
        <ele>1375.1</ele>
        <time>2020-11-16T17:11:34Z</time>
      </trkpt>
      <trkpt lat="28.7756680" lon="-17.9223530">
        <ele>1375.3</ele>
        <time>2020-11-16T17:11:35Z</time>
      </trkpt>
      <trkpt lat="28.7756680" lon="-17.9223530">
        <ele>1375.3</ele>
        <time>2020-11-16T17:11:36Z</time>
      </trkpt>
      <trkpt lat="28.7756530" lon="-17.9224080">
        <ele>1375.5</ele>
        <time>2020-11-16T17:11:37Z</time>
      </trkpt>
      <trkpt lat="28.7756430" lon="-17.9224320">
        <ele>1375.5</ele>
        <time>2020-11-16T17:11:38Z</time>
      </trkpt>
      <trkpt lat="28.7756430" lon="-17.9224320">
        <ele>1375.5</ele>
        <time>2020-11-16T17:11:39Z</time>
      </trkpt>
      <trkpt lat="28.7756200" lon="-17.9224800">
        <ele>1375.7</ele>
        <time>2020-11-16T17:11:40Z</time>
      </trkpt>
      <trkpt lat="28.7756150" lon="-17.9225030">
        <ele>1375.8</ele>
        <time>2020-11-16T17:11:41Z</time>
      </trkpt>
      <trkpt lat="28.7756150" lon="-17.9225030">
        <ele>1375.8</ele>
        <time>2020-11-16T17:11:42Z</time>
      </trkpt>
      <trkpt lat="28.7756080" lon="-17.9225420">
        <ele>1375.9</ele>
        <time>2020-11-16T17:11:43Z</time>
      </trkpt>
      <trkpt lat="28.7756080" lon="-17.9225420">
        <ele>1375.9</ele>
        <time>2020-11-16T17:11:44Z</time>
      </trkpt>
      <trkpt lat="28.7755970" lon="-17.9226020">
        <ele>1376.1</ele>
        <time>2020-11-16T17:11:45Z</time>
      </trkpt>
      <trkpt lat="28.7755970" lon="-17.9226020">
        <ele>1376.1</ele>
        <time>2020-11-16T17:11:46Z</time>
      </trkpt>
      <trkpt lat="28.7755450" lon="-17.9226830">
        <ele>1376.4</ele>
        <time>2020-11-16T17:11:47Z</time>
      </trkpt>
      <trkpt lat="28.7755380" lon="-17.9227200">
        <ele>1376.5</ele>
        <time>2020-11-16T17:11:48Z</time>
      </trkpt>
      <trkpt lat="28.7755380" lon="-17.9227200">
        <ele>1376.5</ele>
        <time>2020-11-16T17:11:49Z</time>
      </trkpt>
      <trkpt lat="28.7755130" lon="-17.9227920">
        <ele>1376.8</ele>
        <time>2020-11-16T17:11:50Z</time>
      </trkpt>
      <trkpt lat="28.7755120" lon="-17.9228180">
        <ele>1376.9</ele>
        <time>2020-11-16T17:11:51Z</time>
      </trkpt>
      <trkpt lat="28.7755120" lon="-17.9228180">
        <ele>1376.9</ele>
        <time>2020-11-16T17:11:52Z</time>
      </trkpt>
      <trkpt lat="28.7755180" lon="-17.9228600">
        <ele>1377.1</ele>
        <time>2020-11-16T17:11:53Z</time>
      </trkpt>
      <trkpt lat="28.7755100" lon="-17.9228930">
        <ele>1377.3</ele>
        <time>2020-11-16T17:11:54Z</time>
      </trkpt>
      <trkpt lat="28.7755100" lon="-17.9228930">
        <ele>1377.3</ele>
        <time>2020-11-16T17:11:55Z</time>
      </trkpt>
      <trkpt lat="28.7754920" lon="-17.9229680">
        <ele>1377.7</ele>
        <time>2020-11-16T17:11:56Z</time>
      </trkpt>
      <trkpt lat="28.7754920" lon="-17.9229680">
        <ele>1377.7</ele>
        <time>2020-11-16T17:11:57Z</time>
      </trkpt>
      <trkpt lat="28.7755150" lon="-17.9230220">
        <ele>1378.0</ele>
        <time>2020-11-16T17:11:58Z</time>
      </trkpt>
      <trkpt lat="28.7755150" lon="-17.9230220">
        <ele>1378.0</ele>
        <time>2020-11-16T17:11:59Z</time>
      </trkpt>
      <trkpt lat="28.7755050" lon="-17.9230780">
        <ele>1378.3</ele>
        <time>2020-11-16T17:12:00Z</time>
      </trkpt>
      <trkpt lat="28.7755050" lon="-17.9230780">
        <ele>1378.3</ele>
        <time>2020-11-16T17:12:01Z</time>
      </trkpt>
      <trkpt lat="28.7755170" lon="-17.9231270">
        <ele>1378.5</ele>
        <time>2020-11-16T17:12:02Z</time>
      </trkpt>
      <trkpt lat="28.7755170" lon="-17.9231270">
        <ele>1378.5</ele>
        <time>2020-11-16T17:12:03Z</time>
      </trkpt>
      <trkpt lat="28.7755100" lon="-17.9231880">
        <ele>1378.8</ele>
        <time>2020-11-16T17:12:04Z</time>
      </trkpt>
      <trkpt lat="28.7755100" lon="-17.9231880">
        <ele>1378.8</ele>
        <time>2020-11-16T17:12:05Z</time>
      </trkpt>
      <trkpt lat="28.7755020" lon="-17.9232480">
        <ele>1379.1</ele>
        <time>2020-11-16T17:12:06Z</time>
      </trkpt>
      <trkpt lat="28.7754970" lon="-17.9232880">
        <ele>1379.4</ele>
        <time>2020-11-16T17:12:07Z</time>
      </trkpt>
      <trkpt lat="28.7754970" lon="-17.9232880">
        <ele>1379.4</ele>
        <time>2020-11-16T17:12:08Z</time>
      </trkpt>
      <trkpt lat="28.7754900" lon="-17.9233550">
        <ele>1379.7</ele>
        <time>2020-11-16T17:12:09Z</time>
      </trkpt>
      <trkpt lat="28.7754900" lon="-17.9233550">
        <ele>1379.7</ele>
        <time>2020-11-16T17:12:10Z</time>
      </trkpt>
      <trkpt lat="28.7754920" lon="-17.9234030">
        <ele>1380.0</ele>
        <time>2020-11-16T17:12:11Z</time>
      </trkpt>
      <trkpt lat="28.7754920" lon="-17.9234030">
        <ele>1380.0</ele>
        <time>2020-11-16T17:12:12Z</time>
      </trkpt>
      <trkpt lat="28.7755100" lon="-17.9234600">
        <ele>1380.2</ele>
        <time>2020-11-16T17:12:13Z</time>
      </trkpt>
      <trkpt lat="28.7755100" lon="-17.9234600">
        <ele>1380.2</ele>
        <time>2020-11-16T17:12:14Z</time>
      </trkpt>
      <trkpt lat="28.7755150" lon="-17.9235280">
        <ele>1380.5</ele>
        <time>2020-11-16T17:12:15Z</time>
      </trkpt>
      <trkpt lat="28.7755150" lon="-17.9235280">
        <ele>1380.5</ele>
        <time>2020-11-16T17:12:16Z</time>
      </trkpt>
      <trkpt lat="28.7755300" lon="-17.9235880">
        <ele>1380.7</ele>
        <time>2020-11-16T17:12:17Z</time>
      </trkpt>
      <trkpt lat="28.7755330" lon="-17.9236150">
        <ele>1380.8</ele>
        <time>2020-11-16T17:12:18Z</time>
      </trkpt>
      <trkpt lat="28.7755330" lon="-17.9236150">
        <ele>1380.8</ele>
        <time>2020-11-16T17:12:19Z</time>
      </trkpt>
      <trkpt lat="28.7755400" lon="-17.9236730">
        <ele>1381.0</ele>
        <time>2020-11-16T17:12:20Z</time>
      </trkpt>
      <trkpt lat="28.7755400" lon="-17.9236730">
        <ele>1381.0</ele>
        <time>2020-11-16T17:12:21Z</time>
      </trkpt>
      <trkpt lat="28.7755230" lon="-17.9237430">
        <ele>1381.2</ele>
        <time>2020-11-16T17:12:22Z</time>
      </trkpt>
      <trkpt lat="28.7755230" lon="-17.9237430">
        <ele>1381.2</ele>
        <time>2020-11-16T17:12:23Z</time>
      </trkpt>
      <trkpt lat="28.7755280" lon="-17.9237970">
        <ele>1381.4</ele>
        <time>2020-11-16T17:12:24Z</time>
      </trkpt>
      <trkpt lat="28.7755330" lon="-17.9238200">
        <ele>1381.5</ele>
        <time>2020-11-16T17:12:25Z</time>
      </trkpt>
      <trkpt lat="28.7755320" lon="-17.9238470">
        <ele>1381.6</ele>
        <time>2020-11-16T17:12:26Z</time>
      </trkpt>
      <trkpt lat="28.7755320" lon="-17.9238470">
        <ele>1381.6</ele>
        <time>2020-11-16T17:12:27Z</time>
      </trkpt>
      <trkpt lat="28.7755330" lon="-17.9238950">
        <ele>1381.7</ele>
        <time>2020-11-16T17:12:28Z</time>
      </trkpt>
      <trkpt lat="28.7755330" lon="-17.9238950">
        <ele>1381.7</ele>
        <time>2020-11-16T17:12:29Z</time>
      </trkpt>
      <trkpt lat="28.7755270" lon="-17.9239530">
        <ele>1381.9</ele>
        <time>2020-11-16T17:12:30Z</time>
      </trkpt>
      <trkpt lat="28.7755270" lon="-17.9239530">
        <ele>1381.9</ele>
        <time>2020-11-16T17:12:31Z</time>
      </trkpt>
      <trkpt lat="28.7755420" lon="-17.9240030">
        <ele>1382.0</ele>
        <time>2020-11-16T17:12:32Z</time>
      </trkpt>
      <trkpt lat="28.7755420" lon="-17.9240030">
        <ele>1382.0</ele>
        <time>2020-11-16T17:12:33Z</time>
      </trkpt>
      <trkpt lat="28.7755820" lon="-17.9240470">
        <ele>1382.2</ele>
        <time>2020-11-16T17:12:34Z</time>
      </trkpt>
      <trkpt lat="28.7755820" lon="-17.9240470">
        <ele>1382.2</ele>
        <time>2020-11-16T17:12:35Z</time>
      </trkpt>
      <trkpt lat="28.7755880" lon="-17.9241020">
        <ele>1382.3</ele>
        <time>2020-11-16T17:12:36Z</time>
      </trkpt>
      <trkpt lat="28.7755880" lon="-17.9241020">
        <ele>1382.3</ele>
        <time>2020-11-16T17:12:37Z</time>
      </trkpt>
      <trkpt lat="28.7756120" lon="-17.9241700">
        <ele>1382.5</ele>
        <time>2020-11-16T17:12:38Z</time>
      </trkpt>
      <trkpt lat="28.7756120" lon="-17.9241700">
        <ele>1382.5</ele>
        <time>2020-11-16T17:12:39Z</time>
      </trkpt>
      <trkpt lat="28.7756180" lon="-17.9242350">
        <ele>1382.6</ele>
        <time>2020-11-16T17:12:40Z</time>
      </trkpt>
      <trkpt lat="28.7756180" lon="-17.9242350">
        <ele>1382.6</ele>
        <time>2020-11-16T17:12:41Z</time>
      </trkpt>
      <trkpt lat="28.7756270" lon="-17.9243000">
        <ele>1382.8</ele>
        <time>2020-11-16T17:12:42Z</time>
      </trkpt>
      <trkpt lat="28.7756270" lon="-17.9243000">
        <ele>1382.8</ele>
        <time>2020-11-16T17:12:43Z</time>
      </trkpt>
      <trkpt lat="28.7756470" lon="-17.9243700">
        <ele>1383.0</ele>
        <time>2020-11-16T17:12:44Z</time>
      </trkpt>
      <trkpt lat="28.7756470" lon="-17.9243700">
        <ele>1383.0</ele>
        <time>2020-11-16T17:12:45Z</time>
      </trkpt>
      <trkpt lat="28.7757680" lon="-17.9244100">
        <ele>1383.4</ele>
        <time>2020-11-16T17:12:46Z</time>
      </trkpt>
      <trkpt lat="28.7757680" lon="-17.9244100">
        <ele>1383.4</ele>
        <time>2020-11-16T17:12:47Z</time>
      </trkpt>
      <trkpt lat="28.7758470" lon="-17.9244780">
        <ele>1383.8</ele>
        <time>2020-11-16T17:12:48Z</time>
      </trkpt>
      <trkpt lat="28.7758470" lon="-17.9244780">
        <ele>1383.8</ele>
        <time>2020-11-16T17:12:49Z</time>
      </trkpt>
      <trkpt lat="28.7758900" lon="-17.9245470">
        <ele>1384.1</ele>
        <time>2020-11-16T17:12:50Z</time>
      </trkpt>
      <trkpt lat="28.7758900" lon="-17.9245470">
        <ele>1384.1</ele>
        <time>2020-11-16T17:12:51Z</time>
      </trkpt>
      <trkpt lat="28.7759220" lon="-17.9245980">
        <ele>1384.3</ele>
        <time>2020-11-16T17:12:52Z</time>
      </trkpt>
      <trkpt lat="28.7759220" lon="-17.9245980">
        <ele>1384.3</ele>
        <time>2020-11-16T17:12:53Z</time>
      </trkpt>
      <trkpt lat="28.7759450" lon="-17.9246520">
        <ele>1384.6</ele>
        <time>2020-11-16T17:12:54Z</time>
      </trkpt>
      <trkpt lat="28.7759450" lon="-17.9246520">
        <ele>1384.6</ele>
        <time>2020-11-16T17:12:55Z</time>
      </trkpt>
      <trkpt lat="28.7759630" lon="-17.9246920">
        <ele>1384.8</ele>
        <time>2020-11-16T17:12:56Z</time>
      </trkpt>
      <trkpt lat="28.7759630" lon="-17.9246920">
        <ele>1384.8</ele>
        <time>2020-11-16T17:12:57Z</time>
      </trkpt>
      <trkpt lat="28.7759830" lon="-17.9247170">
        <ele>1384.9</ele>
        <time>2020-11-16T17:12:58Z</time>
      </trkpt>
      <trkpt lat="28.7759830" lon="-17.9247170">
        <ele>1384.9</ele>
        <time>2020-11-16T17:12:59Z</time>
      </trkpt>
      <trkpt lat="28.7760250" lon="-17.9247380">
        <ele>1385.1</ele>
        <time>2020-11-16T17:13:00Z</time>
      </trkpt>
      <trkpt lat="28.7760250" lon="-17.9247380">
        <ele>1385.1</ele>
        <time>2020-11-16T17:13:01Z</time>
      </trkpt>
      <trkpt lat="28.7760570" lon="-17.9247730">
        <ele>1385.3</ele>
        <time>2020-11-16T17:13:02Z</time>
      </trkpt>
      <trkpt lat="28.7760570" lon="-17.9247730">
        <ele>1385.3</ele>
        <time>2020-11-16T17:13:03Z</time>
      </trkpt>
      <trkpt lat="28.7760820" lon="-17.9248080">
        <ele>1385.6</ele>
        <time>2020-11-16T17:13:04Z</time>
      </trkpt>
      <trkpt lat="28.7760820" lon="-17.9248080">
        <ele>1385.6</ele>
        <time>2020-11-16T17:13:05Z</time>
      </trkpt>
      <trkpt lat="28.7761050" lon="-17.9248470">
        <ele>1385.9</ele>
        <time>2020-11-16T17:13:06Z</time>
      </trkpt>
      <trkpt lat="28.7761050" lon="-17.9248470">
        <ele>1385.9</ele>
        <time>2020-11-16T17:13:07Z</time>
      </trkpt>
      <trkpt lat="28.7761320" lon="-17.9248820">
        <ele>1386.2</ele>
        <time>2020-11-16T17:13:08Z</time>
      </trkpt>
      <trkpt lat="28.7761320" lon="-17.9248820">
        <ele>1386.2</ele>
        <time>2020-11-16T17:13:09Z</time>
      </trkpt>
      <trkpt lat="28.7761570" lon="-17.9249170">
        <ele>1386.5</ele>
        <time>2020-11-16T17:13:10Z</time>
      </trkpt>
      <trkpt lat="28.7761730" lon="-17.9249320">
        <ele>1386.6</ele>
        <time>2020-11-16T17:13:11Z</time>
      </trkpt>
      <trkpt lat="28.7761730" lon="-17.9249320">
        <ele>1386.6</ele>
        <time>2020-11-16T17:13:12Z</time>
      </trkpt>
      <trkpt lat="28.7762070" lon="-17.9249700">
        <ele>1387.0</ele>
        <time>2020-11-16T17:13:13Z</time>
      </trkpt>
      <trkpt lat="28.7762070" lon="-17.9249700">
        <ele>1387.0</ele>
        <time>2020-11-16T17:13:14Z</time>
      </trkpt>
      <trkpt lat="28.7762270" lon="-17.9250100">
        <ele>1387.4</ele>
        <time>2020-11-16T17:13:15Z</time>
      </trkpt>
      <trkpt lat="28.7762270" lon="-17.9250100">
        <ele>1387.4</ele>
        <time>2020-11-16T17:13:16Z</time>
      </trkpt>
      <trkpt lat="28.7762400" lon="-17.9250420">
        <ele>1387.7</ele>
        <time>2020-11-16T17:13:17Z</time>
      </trkpt>
      <trkpt lat="28.7762400" lon="-17.9250420">
        <ele>1387.7</ele>
        <time>2020-11-16T17:13:18Z</time>
      </trkpt>
      <trkpt lat="28.7762700" lon="-17.9250750">
        <ele>1388.1</ele>
        <time>2020-11-16T17:13:19Z</time>
      </trkpt>
      <trkpt lat="28.7762670" lon="-17.9250750">
        <ele>1388.1</ele>
        <time>2020-11-16T17:13:20Z</time>
      </trkpt>
      <trkpt lat="28.7762670" lon="-17.9250750">
        <ele>1388.1</ele>
        <time>2020-11-16T17:13:21Z</time>
      </trkpt>
      <trkpt lat="28.7762450" lon="-17.9251150">
        <ele>1388.5</ele>
        <time>2020-11-16T17:13:22Z</time>
      </trkpt>
      <trkpt lat="28.7762450" lon="-17.9251150">
        <ele>1388.5</ele>
        <time>2020-11-16T17:13:23Z</time>
      </trkpt>
      <trkpt lat="28.7762230" lon="-17.9251570">
        <ele>1388.8</ele>
        <time>2020-11-16T17:13:24Z</time>
      </trkpt>
      <trkpt lat="28.7762230" lon="-17.9251570">
        <ele>1388.8</ele>
        <time>2020-11-16T17:13:25Z</time>
      </trkpt>
      <trkpt lat="28.7761920" lon="-17.9251970">
        <ele>1389.1</ele>
        <time>2020-11-16T17:13:26Z</time>
      </trkpt>
      <trkpt lat="28.7761920" lon="-17.9251970">
        <ele>1389.1</ele>
        <time>2020-11-16T17:13:27Z</time>
      </trkpt>
      <trkpt lat="28.7761550" lon="-17.9252230">
        <ele>1389.4</ele>
        <time>2020-11-16T17:13:28Z</time>
      </trkpt>
      <trkpt lat="28.7761380" lon="-17.9252300">
        <ele>1389.5</ele>
        <time>2020-11-16T17:13:29Z</time>
      </trkpt>
      <trkpt lat="28.7761380" lon="-17.9252300">
        <ele>1389.5</ele>
        <time>2020-11-16T17:13:30Z</time>
      </trkpt>
      <trkpt lat="28.7761000" lon="-17.9252350">
        <ele>1389.7</ele>
        <time>2020-11-16T17:13:31Z</time>
      </trkpt>
      <trkpt lat="28.7760830" lon="-17.9252350">
        <ele>1389.7</ele>
        <time>2020-11-16T17:13:32Z</time>
      </trkpt>
      <trkpt lat="28.7760830" lon="-17.9252350">
        <ele>1389.7</ele>
        <time>2020-11-16T17:13:33Z</time>
      </trkpt>
      <trkpt lat="28.7760520" lon="-17.9252250">
        <ele>1389.9</ele>
        <time>2020-11-16T17:13:34Z</time>
      </trkpt>
      <trkpt lat="28.7760520" lon="-17.9252250">
        <ele>1389.9</ele>
        <time>2020-11-16T17:13:35Z</time>
      </trkpt>
      <trkpt lat="28.7760270" lon="-17.9252080">
        <ele>1390.0</ele>
        <time>2020-11-16T17:13:36Z</time>
      </trkpt>
      <trkpt lat="28.7760270" lon="-17.9252080">
        <ele>1390.0</ele>
        <time>2020-11-16T17:13:37Z</time>
      </trkpt>
      <trkpt lat="28.7760070" lon="-17.9251770">
        <ele>1390.1</ele>
        <time>2020-11-16T17:13:38Z</time>
      </trkpt>
      <trkpt lat="28.7760070" lon="-17.9251770">
        <ele>1390.1</ele>
        <time>2020-11-16T17:13:39Z</time>
      </trkpt>
      <trkpt lat="28.7759730" lon="-17.9251580">
        <ele>1390.2</ele>
        <time>2020-11-16T17:13:40Z</time>
      </trkpt>
      <trkpt lat="28.7759600" lon="-17.9251470">
        <ele>1390.3</ele>
        <time>2020-11-16T17:13:41Z</time>
      </trkpt>
      <trkpt lat="28.7759600" lon="-17.9251470">
        <ele>1390.3</ele>
        <time>2020-11-16T17:13:42Z</time>
      </trkpt>
      <trkpt lat="28.7759300" lon="-17.9251350">
        <ele>1390.4</ele>
        <time>2020-11-16T17:13:43Z</time>
      </trkpt>
      <trkpt lat="28.7759180" lon="-17.9251320">
        <ele>1390.5</ele>
        <time>2020-11-16T17:13:44Z</time>
      </trkpt>
      <trkpt lat="28.7759180" lon="-17.9251320">
        <ele>1390.5</ele>
        <time>2020-11-16T17:13:45Z</time>
      </trkpt>
      <trkpt lat="28.7758920" lon="-17.9251200">
        <ele>1390.6</ele>
        <time>2020-11-16T17:13:46Z</time>
      </trkpt>
      <trkpt lat="28.7758800" lon="-17.9251150">
        <ele>1390.7</ele>
        <time>2020-11-16T17:13:47Z</time>
      </trkpt>
      <trkpt lat="28.7758800" lon="-17.9251150">
        <ele>1390.7</ele>
        <time>2020-11-16T17:13:48Z</time>
      </trkpt>
      <trkpt lat="28.7758480" lon="-17.9251080">
        <ele>1390.8</ele>
        <time>2020-11-16T17:13:49Z</time>
      </trkpt>
      <trkpt lat="28.7758330" lon="-17.9251000">
        <ele>1390.9</ele>
        <time>2020-11-16T17:13:50Z</time>
      </trkpt>
      <trkpt lat="28.7758330" lon="-17.9251000">
        <ele>1390.9</ele>
        <time>2020-11-16T17:13:51Z</time>
      </trkpt>
      <trkpt lat="28.7758000" lon="-17.9250830">
        <ele>1391.1</ele>
        <time>2020-11-16T17:13:52Z</time>
      </trkpt>
      <trkpt lat="28.7758000" lon="-17.9250830">
        <ele>1391.1</ele>
        <time>2020-11-16T17:13:53Z</time>
      </trkpt>
      <trkpt lat="28.7757430" lon="-17.9250700">
        <ele>1391.5</ele>
        <time>2020-11-16T17:13:54Z</time>
      </trkpt>
      <trkpt lat="28.7757430" lon="-17.9250700">
        <ele>1391.5</ele>
        <time>2020-11-16T17:13:55Z</time>
      </trkpt>
      <trkpt lat="28.7756970" lon="-17.9250700">
        <ele>1391.7</ele>
        <time>2020-11-16T17:13:56Z</time>
      </trkpt>
      <trkpt lat="28.7756970" lon="-17.9250700">
        <ele>1391.7</ele>
        <time>2020-11-16T17:13:57Z</time>
      </trkpt>
      <trkpt lat="28.7756530" lon="-17.9250950">
        <ele>1392.1</ele>
        <time>2020-11-16T17:13:58Z</time>
      </trkpt>
      <trkpt lat="28.7756320" lon="-17.9251080">
        <ele>1392.3</ele>
        <time>2020-11-16T17:13:59Z</time>
      </trkpt>
      <trkpt lat="28.7756320" lon="-17.9251080">
        <ele>1392.3</ele>
        <time>2020-11-16T17:14:00Z</time>
      </trkpt>
      <trkpt lat="28.7755920" lon="-17.9251400">
        <ele>1392.7</ele>
        <time>2020-11-16T17:14:01Z</time>
      </trkpt>
      <trkpt lat="28.7755920" lon="-17.9251400">
        <ele>1392.7</ele>
        <time>2020-11-16T17:14:02Z</time>
      </trkpt>
      <trkpt lat="28.7755630" lon="-17.9251700">
        <ele>1393.1</ele>
        <time>2020-11-16T17:14:03Z</time>
      </trkpt>
      <trkpt lat="28.7755520" lon="-17.9251830">
        <ele>1393.2</ele>
        <time>2020-11-16T17:14:04Z</time>
      </trkpt>
      <trkpt lat="28.7755520" lon="-17.9251830">
        <ele>1393.2</ele>
        <time>2020-11-16T17:14:05Z</time>
      </trkpt>
      <trkpt lat="28.7755520" lon="-17.9252000">
        <ele>1393.4</ele>
        <time>2020-11-16T17:14:06Z</time>
      </trkpt>
      <trkpt lat="28.7755520" lon="-17.9252000">
        <ele>1393.4</ele>
        <time>2020-11-16T17:14:07Z</time>
      </trkpt>
      <trkpt lat="28.7755430" lon="-17.9252280">
        <ele>1393.6</ele>
        <time>2020-11-16T17:14:08Z</time>
      </trkpt>
      <trkpt lat="28.7755430" lon="-17.9252280">
        <ele>1393.6</ele>
        <time>2020-11-16T17:14:09Z</time>
      </trkpt>
      <trkpt lat="28.7755400" lon="-17.9252530">
        <ele>1393.8</ele>
        <time>2020-11-16T17:14:10Z</time>
      </trkpt>
      <trkpt lat="28.7755400" lon="-17.9252530">
        <ele>1393.8</ele>
        <time>2020-11-16T17:14:11Z</time>
      </trkpt>
      <trkpt lat="28.7755450" lon="-17.9252770">
        <ele>1394.0</ele>
        <time>2020-11-16T17:14:12Z</time>
      </trkpt>
      <trkpt lat="28.7755450" lon="-17.9252770">
        <ele>1394.0</ele>
        <time>2020-11-16T17:14:13Z</time>
      </trkpt>
      <trkpt lat="28.7755450" lon="-17.9253070">
        <ele>1394.3</ele>
        <time>2020-11-16T17:14:14Z</time>
      </trkpt>
      <trkpt lat="28.7755450" lon="-17.9253070">
        <ele>1394.3</ele>
        <time>2020-11-16T17:14:15Z</time>
      </trkpt>
      <trkpt lat="28.7755430" lon="-17.9253430">
        <ele>1394.6</ele>
        <time>2020-11-16T17:14:16Z</time>
      </trkpt>
      <trkpt lat="28.7755400" lon="-17.9253670">
        <ele>1394.8</ele>
        <time>2020-11-16T17:14:17Z</time>
      </trkpt>
      <trkpt lat="28.7755400" lon="-17.9253670">
        <ele>1394.8</ele>
        <time>2020-11-16T17:14:18Z</time>
      </trkpt>
      <trkpt lat="28.7755480" lon="-17.9254120">
        <ele>1395.1</ele>
        <time>2020-11-16T17:14:19Z</time>
      </trkpt>
      <trkpt lat="28.7755550" lon="-17.9254350">
        <ele>1395.3</ele>
        <time>2020-11-16T17:14:20Z</time>
      </trkpt>
      <trkpt lat="28.7755550" lon="-17.9254350">
        <ele>1395.3</ele>
        <time>2020-11-16T17:14:21Z</time>
      </trkpt>
      <trkpt lat="28.7755670" lon="-17.9254880">
        <ele>1395.7</ele>
        <time>2020-11-16T17:14:22Z</time>
      </trkpt>
      <trkpt lat="28.7755750" lon="-17.9255080">
        <ele>1395.9</ele>
        <time>2020-11-16T17:14:23Z</time>
      </trkpt>
      <trkpt lat="28.7755750" lon="-17.9255080">
        <ele>1395.9</ele>
        <time>2020-11-16T17:14:24Z</time>
      </trkpt>
      <trkpt lat="28.7755850" lon="-17.9255450">
        <ele>1396.2</ele>
        <time>2020-11-16T17:14:25Z</time>
      </trkpt>
      <trkpt lat="28.7755920" lon="-17.9255600">
        <ele>1396.4</ele>
        <time>2020-11-16T17:14:26Z</time>
      </trkpt>
      <trkpt lat="28.7755920" lon="-17.9255600">
        <ele>1396.4</ele>
        <time>2020-11-16T17:14:27Z</time>
      </trkpt>
      <trkpt lat="28.7756000" lon="-17.9255950">
        <ele>1396.7</ele>
        <time>2020-11-16T17:14:28Z</time>
      </trkpt>
      <trkpt lat="28.7756020" lon="-17.9256100">
        <ele>1396.8</ele>
        <time>2020-11-16T17:14:29Z</time>
      </trkpt>
      <trkpt lat="28.7756020" lon="-17.9256100">
        <ele>1396.8</ele>
        <time>2020-11-16T17:14:30Z</time>
      </trkpt>
      <trkpt lat="28.7756050" lon="-17.9256420">
        <ele>1397.1</ele>
        <time>2020-11-16T17:14:31Z</time>
      </trkpt>
      <trkpt lat="28.7756080" lon="-17.9256570">
        <ele>1397.3</ele>
        <time>2020-11-16T17:14:32Z</time>
      </trkpt>
      <trkpt lat="28.7756070" lon="-17.9256730">
        <ele>1397.5</ele>
        <time>2020-11-16T17:14:33Z</time>
      </trkpt>
      <trkpt lat="28.7756070" lon="-17.9256730">
        <ele>1397.5</ele>
        <time>2020-11-16T17:14:34Z</time>
      </trkpt>
      <trkpt lat="28.7756030" lon="-17.9257230">
        <ele>1398.0</ele>
        <time>2020-11-16T17:14:35Z</time>
      </trkpt>
      <trkpt lat="28.7756030" lon="-17.9257230">
        <ele>1398.4</ele>
        <time>2020-11-16T17:14:36Z</time>
      </trkpt>
      <trkpt lat="28.7755950" lon="-17.9257670">
        <ele>1398.5</ele>
        <time>2020-11-16T17:14:37Z</time>
      </trkpt>
      <trkpt lat="28.7755950" lon="-17.9257670">
        <ele>1398.5</ele>
        <time>2020-11-16T17:14:38Z</time>
      </trkpt>
      <trkpt lat="28.7755820" lon="-17.9258130">
        <ele>1398.6</ele>
        <time>2020-11-16T17:14:39Z</time>
      </trkpt>
      <trkpt lat="28.7755820" lon="-17.9258130">
        <ele>1398.6</ele>
        <time>2020-11-16T17:14:40Z</time>
      </trkpt>
      <trkpt lat="28.7755630" lon="-17.9258550">
        <ele>1398.7</ele>
        <time>2020-11-16T17:14:41Z</time>
      </trkpt>
      <trkpt lat="28.7755630" lon="-17.9258550">
        <ele>1398.7</ele>
        <time>2020-11-16T17:14:42Z</time>
      </trkpt>
      <trkpt lat="28.7755250" lon="-17.9258820">
        <ele>1398.8</ele>
        <time>2020-11-16T17:14:43Z</time>
      </trkpt>
      <trkpt lat="28.7755250" lon="-17.9258820">
        <ele>1398.8</ele>
        <time>2020-11-16T17:14:44Z</time>
      </trkpt>
      <trkpt lat="28.7754870" lon="-17.9258920">
        <ele>1398.8</ele>
        <time>2020-11-16T17:14:45Z</time>
      </trkpt>
      <trkpt lat="28.7754870" lon="-17.9258920">
        <ele>1398.8</ele>
        <time>2020-11-16T17:14:46Z</time>
      </trkpt>
      <trkpt lat="28.7754600" lon="-17.9258880">
        <ele>1398.8</ele>
        <time>2020-11-16T17:14:47Z</time>
      </trkpt>
      <trkpt lat="28.7754600" lon="-17.9258880">
        <ele>1398.8</ele>
        <time>2020-11-16T17:14:48Z</time>
      </trkpt>
      <trkpt lat="28.7754320" lon="-17.9258780">
        <ele>1398.8</ele>
        <time>2020-11-16T17:14:49Z</time>
      </trkpt>
      <trkpt lat="28.7754170" lon="-17.9258680">
        <ele>1398.8</ele>
        <time>2020-11-16T17:14:50Z</time>
      </trkpt>
      <trkpt lat="28.7754170" lon="-17.9258680">
        <ele>1398.8</ele>
        <time>2020-11-16T17:14:51Z</time>
      </trkpt>
      <trkpt lat="28.7753970" lon="-17.9258550">
        <ele>1398.8</ele>
        <time>2020-11-16T17:14:52Z</time>
      </trkpt>
      <trkpt lat="28.7753970" lon="-17.9258550">
        <ele>1398.8</ele>
        <time>2020-11-16T17:14:53Z</time>
      </trkpt>
      <trkpt lat="28.7753730" lon="-17.9258420">
        <ele>1398.9</ele>
        <time>2020-11-16T17:14:54Z</time>
      </trkpt>
      <trkpt lat="28.7753730" lon="-17.9258420">
        <ele>1398.9</ele>
        <time>2020-11-16T17:14:55Z</time>
      </trkpt>
      <trkpt lat="28.7753430" lon="-17.9258250">
        <ele>1398.9</ele>
        <time>2020-11-16T17:14:56Z</time>
      </trkpt>
      <trkpt lat="28.7753430" lon="-17.9258250">
        <ele>1398.9</ele>
        <time>2020-11-16T17:14:57Z</time>
      </trkpt>
      <trkpt lat="28.7753080" lon="-17.9258120">
        <ele>1398.9</ele>
        <time>2020-11-16T17:14:58Z</time>
      </trkpt>
      <trkpt lat="28.7753080" lon="-17.9258120">
        <ele>1398.9</ele>
        <time>2020-11-16T17:14:59Z</time>
      </trkpt>
      <trkpt lat="28.7752800" lon="-17.9257980">
        <ele>1398.9</ele>
        <time>2020-11-16T17:15:00Z</time>
      </trkpt>
      <trkpt lat="28.7752800" lon="-17.9257980">
        <ele>1398.9</ele>
        <time>2020-11-16T17:15:01Z</time>
      </trkpt>
      <trkpt lat="28.7752450" lon="-17.9257870">
        <ele>1399.0</ele>
        <time>2020-11-16T17:15:02Z</time>
      </trkpt>
      <trkpt lat="28.7752450" lon="-17.9257870">
        <ele>1399.0</ele>
        <time>2020-11-16T17:15:03Z</time>
      </trkpt>
      <trkpt lat="28.7752120" lon="-17.9257770">
        <ele>1399.0</ele>
        <time>2020-11-16T17:15:04Z</time>
      </trkpt>
      <trkpt lat="28.7751950" lon="-17.9257750">
        <ele>1399.0</ele>
        <time>2020-11-16T17:15:05Z</time>
      </trkpt>
      <trkpt lat="28.7751800" lon="-17.9257750">
        <ele>1399.0</ele>
        <time>2020-11-16T17:15:06Z</time>
      </trkpt>
      <trkpt lat="28.7751800" lon="-17.9257750">
        <ele>1399.0</ele>
        <time>2020-11-16T17:15:07Z</time>
      </trkpt>
      <trkpt lat="28.7751680" lon="-17.9257770">
        <ele>1399.1</ele>
        <time>2020-11-16T17:15:08Z</time>
      </trkpt>
      <trkpt lat="28.7751680" lon="-17.9257770">
        <ele>1399.1</ele>
        <time>2020-11-16T17:15:41Z</time>
      </trkpt>
      <trkpt lat="28.7751680" lon="-17.9257770">
        <ele>1399.1</ele>
        <time>2020-11-16T17:15:42Z</time>
      </trkpt>
      <trkpt lat="28.7750900" lon="-17.9257330">
        <ele>1399.1</ele>
        <time>2020-11-16T17:15:43Z</time>
      </trkpt>
      <trkpt lat="28.7750770" lon="-17.9257150">
        <ele>1399.1</ele>
        <time>2020-11-16T17:15:44Z</time>
      </trkpt>
      <trkpt lat="28.7750770" lon="-17.9257150">
        <ele>1399.1</ele>
        <time>2020-11-16T17:15:45Z</time>
      </trkpt>
      <trkpt lat="28.7750430" lon="-17.9257000">
        <ele>1399.1</ele>
        <time>2020-11-16T17:15:46Z</time>
      </trkpt>
      <trkpt lat="28.7750430" lon="-17.9257000">
        <ele>1399.1</ele>
        <time>2020-11-16T17:15:47Z</time>
      </trkpt>
      <trkpt lat="28.7750130" lon="-17.9256980">
        <ele>1399.1</ele>
        <time>2020-11-16T17:15:48Z</time>
      </trkpt>
      <trkpt lat="28.7749980" lon="-17.9256980">
        <ele>1399.1</ele>
        <time>2020-11-16T17:15:49Z</time>
      </trkpt>
      <trkpt lat="28.7749850" lon="-17.9256980">
        <ele>1399.1</ele>
        <time>2020-11-16T17:15:50Z</time>
      </trkpt>
      <trkpt lat="28.7749850" lon="-17.9256980">
        <ele>1399.1</ele>
        <time>2020-11-16T17:15:51Z</time>
      </trkpt>
      <trkpt lat="28.7749430" lon="-17.9257170">
        <ele>1399.0</ele>
        <time>2020-11-16T17:15:52Z</time>
      </trkpt>
      <trkpt lat="28.7749430" lon="-17.9257170">
        <ele>1399.0</ele>
        <time>2020-11-16T17:15:53Z</time>
      </trkpt>
      <trkpt lat="28.7749100" lon="-17.9257380">
        <ele>1399.0</ele>
        <time>2020-11-16T17:15:54Z</time>
      </trkpt>
      <trkpt lat="28.7749100" lon="-17.9257380">
        <ele>1399.0</ele>
        <time>2020-11-16T17:15:55Z</time>
      </trkpt>
      <trkpt lat="28.7748750" lon="-17.9257570">
        <ele>1398.9</ele>
        <time>2020-11-16T17:15:56Z</time>
      </trkpt>
      <trkpt lat="28.7748750" lon="-17.9257570">
        <ele>1398.9</ele>
        <time>2020-11-16T17:15:57Z</time>
      </trkpt>
      <trkpt lat="28.7748350" lon="-17.9257680">
        <ele>1398.9</ele>
        <time>2020-11-16T17:15:58Z</time>
      </trkpt>
      <trkpt lat="28.7748350" lon="-17.9257680">
        <ele>1398.9</ele>
        <time>2020-11-16T17:15:59Z</time>
      </trkpt>
      <trkpt lat="28.7747980" lon="-17.9257780">
        <ele>1398.9</ele>
        <time>2020-11-16T17:16:00Z</time>
      </trkpt>
      <trkpt lat="28.7747980" lon="-17.9257780">
        <ele>1398.9</ele>
        <time>2020-11-16T17:16:01Z</time>
      </trkpt>
      <trkpt lat="28.7747530" lon="-17.9257880">
        <ele>1398.9</ele>
        <time>2020-11-16T17:16:02Z</time>
      </trkpt>
      <trkpt lat="28.7747530" lon="-17.9257880">
        <ele>1398.9</ele>
        <time>2020-11-16T17:16:03Z</time>
      </trkpt>
      <trkpt lat="28.7747200" lon="-17.9257980">
        <ele>1398.9</ele>
        <time>2020-11-16T17:16:04Z</time>
      </trkpt>
      <trkpt lat="28.7747020" lon="-17.9257970">
        <ele>1399.0</ele>
        <time>2020-11-16T17:16:05Z</time>
      </trkpt>
      <trkpt lat="28.7747020" lon="-17.9257970">
        <ele>1399.0</ele>
        <time>2020-11-16T17:16:06Z</time>
      </trkpt>
      <trkpt lat="28.7746570" lon="-17.9258000">
        <ele>1399.0</ele>
        <time>2020-11-16T17:16:07Z</time>
      </trkpt>
      <trkpt lat="28.7746570" lon="-17.9258000">
        <ele>1399.0</ele>
        <time>2020-11-16T17:16:08Z</time>
      </trkpt>
      <trkpt lat="28.7746150" lon="-17.9258070">
        <ele>1399.0</ele>
        <time>2020-11-16T17:16:09Z</time>
      </trkpt>
      <trkpt lat="28.7746150" lon="-17.9258070">
        <ele>1399.0</ele>
        <time>2020-11-16T17:16:10Z</time>
      </trkpt>
      <trkpt lat="28.7745800" lon="-17.9258080">
        <ele>1399.0</ele>
        <time>2020-11-16T17:16:11Z</time>
      </trkpt>
      <trkpt lat="28.7745800" lon="-17.9258080">
        <ele>1399.0</ele>
        <time>2020-11-16T17:16:12Z</time>
      </trkpt>
      <trkpt lat="28.7745480" lon="-17.9258180">
        <ele>1399.0</ele>
        <time>2020-11-16T17:16:13Z</time>
      </trkpt>
      <trkpt lat="28.7745480" lon="-17.9258180">
        <ele>1399.0</ele>
        <time>2020-11-16T17:16:14Z</time>
      </trkpt>
      <trkpt lat="28.7745070" lon="-17.9258380">
        <ele>1399.0</ele>
        <time>2020-11-16T17:16:15Z</time>
      </trkpt>
      <trkpt lat="28.7745070" lon="-17.9258380">
        <ele>1399.0</ele>
        <time>2020-11-16T17:16:16Z</time>
      </trkpt>
      <trkpt lat="28.7744530" lon="-17.9258550">
        <ele>1399.0</ele>
        <time>2020-11-16T17:16:17Z</time>
      </trkpt>
      <trkpt lat="28.7744180" lon="-17.9258650">
        <ele>1399.0</ele>
        <time>2020-11-16T17:16:18Z</time>
      </trkpt>
      <trkpt lat="28.7744000" lon="-17.9258750">
        <ele>1399.0</ele>
        <time>2020-11-16T17:16:19Z</time>
      </trkpt>
      <trkpt lat="28.7744000" lon="-17.9258750">
        <ele>1399.0</ele>
        <time>2020-11-16T17:16:20Z</time>
      </trkpt>
      <trkpt lat="28.7743650" lon="-17.9259020">
        <ele>1399.1</ele>
        <time>2020-11-16T17:16:21Z</time>
      </trkpt>
      <trkpt lat="28.7743650" lon="-17.9259020">
        <ele>1399.1</ele>
        <time>2020-11-16T17:16:22Z</time>
      </trkpt>
      <trkpt lat="28.7743220" lon="-17.9259270">
        <ele>1399.1</ele>
        <time>2020-11-16T17:16:23Z</time>
      </trkpt>
      <trkpt lat="28.7743050" lon="-17.9259300">
        <ele>1399.2</ele>
        <time>2020-11-16T17:16:24Z</time>
      </trkpt>
      <trkpt lat="28.7743050" lon="-17.9259300">
        <ele>1399.2</ele>
        <time>2020-11-16T17:16:25Z</time>
      </trkpt>
      <trkpt lat="28.7742650" lon="-17.9259300">
        <ele>1399.2</ele>
        <time>2020-11-16T17:16:26Z</time>
      </trkpt>
      <trkpt lat="28.7742650" lon="-17.9259300">
        <ele>1399.2</ele>
        <time>2020-11-16T17:16:27Z</time>
      </trkpt>
      <trkpt lat="28.7742370" lon="-17.9259300">
        <ele>1399.3</ele>
        <time>2020-11-16T17:16:28Z</time>
      </trkpt>
      <trkpt lat="28.7742370" lon="-17.9259300">
        <ele>1399.3</ele>
        <time>2020-11-16T17:16:29Z</time>
      </trkpt>
      <trkpt lat="28.7742130" lon="-17.9259200">
        <ele>1399.3</ele>
        <time>2020-11-16T17:16:30Z</time>
      </trkpt>
      <trkpt lat="28.7742020" lon="-17.9259150">
        <ele>1399.3</ele>
        <time>2020-11-16T17:16:31Z</time>
      </trkpt>
      <trkpt lat="28.7742020" lon="-17.9259150">
        <ele>1399.3</ele>
        <time>2020-11-16T17:16:32Z</time>
      </trkpt>
      <trkpt lat="28.7741750" lon="-17.9259100">
        <ele>1399.3</ele>
        <time>2020-11-16T17:16:33Z</time>
      </trkpt>
      <trkpt lat="28.7741580" lon="-17.9259100">
        <ele>1399.4</ele>
        <time>2020-11-16T17:16:34Z</time>
      </trkpt>
      <trkpt lat="28.7741580" lon="-17.9259100">
        <ele>1399.4</ele>
        <time>2020-11-16T17:16:35Z</time>
      </trkpt>
      <trkpt lat="28.7741220" lon="-17.9259120">
        <ele>1399.4</ele>
        <time>2020-11-16T17:16:36Z</time>
      </trkpt>
      <trkpt lat="28.7741070" lon="-17.9259130">
        <ele>1399.4</ele>
        <time>2020-11-16T17:16:37Z</time>
      </trkpt>
      <trkpt lat="28.7740900" lon="-17.9259220">
        <ele>1399.4</ele>
        <time>2020-11-16T17:16:38Z</time>
      </trkpt>
      <trkpt lat="28.7740900" lon="-17.9259220">
        <ele>1399.4</ele>
        <time>2020-11-16T17:16:39Z</time>
      </trkpt>
      <trkpt lat="28.7740650" lon="-17.9259570">
        <ele>1399.4</ele>
        <time>2020-11-16T17:16:40Z</time>
      </trkpt>
      <trkpt lat="28.7740530" lon="-17.9259700">
        <ele>1399.4</ele>
        <time>2020-11-16T17:16:41Z</time>
      </trkpt>
      <trkpt lat="28.7740530" lon="-17.9259700">
        <ele>1399.4</ele>
        <time>2020-11-16T17:16:42Z</time>
      </trkpt>
      <trkpt lat="28.7740250" lon="-17.9260030">
        <ele>1399.4</ele>
        <time>2020-11-16T17:16:43Z</time>
      </trkpt>
      <trkpt lat="28.7740130" lon="-17.9260230">
        <ele>1399.4</ele>
        <time>2020-11-16T17:16:44Z</time>
      </trkpt>
      <trkpt lat="28.7740130" lon="-17.9260230">
        <ele>1399.4</ele>
        <time>2020-11-16T17:16:45Z</time>
      </trkpt>
      <trkpt lat="28.7739730" lon="-17.9260570">
        <ele>1399.4</ele>
        <time>2020-11-16T17:16:46Z</time>
      </trkpt>
      <trkpt lat="28.7739730" lon="-17.9260570">
        <ele>1399.4</ele>
        <time>2020-11-16T17:16:47Z</time>
      </trkpt>
      <trkpt lat="28.7739400" lon="-17.9261030">
        <ele>1399.4</ele>
        <time>2020-11-16T17:16:48Z</time>
      </trkpt>
      <trkpt lat="28.7739400" lon="-17.9261030">
        <ele>1399.4</ele>
        <time>2020-11-16T17:16:49Z</time>
      </trkpt>
      <trkpt lat="28.7739120" lon="-17.9261430">
        <ele>1399.4</ele>
        <time>2020-11-16T17:16:50Z</time>
      </trkpt>
      <trkpt lat="28.7739120" lon="-17.9261430">
        <ele>1399.4</ele>
        <time>2020-11-16T17:16:51Z</time>
      </trkpt>
      <trkpt lat="28.7738900" lon="-17.9261800">
        <ele>1399.4</ele>
        <time>2020-11-16T17:16:52Z</time>
      </trkpt>
      <trkpt lat="28.7738900" lon="-17.9261800">
        <ele>1399.4</ele>
        <time>2020-11-16T17:16:53Z</time>
      </trkpt>
      <trkpt lat="28.7738650" lon="-17.9262150">
        <ele>1399.4</ele>
        <time>2020-11-16T17:16:54Z</time>
      </trkpt>
      <trkpt lat="28.7738550" lon="-17.9262370">
        <ele>1399.4</ele>
        <time>2020-11-16T17:16:55Z</time>
      </trkpt>
      <trkpt lat="28.7738550" lon="-17.9262370">
        <ele>1399.4</ele>
        <time>2020-11-16T17:16:56Z</time>
      </trkpt>
      <trkpt lat="28.7738300" lon="-17.9262880">
        <ele>1399.4</ele>
        <time>2020-11-16T17:16:57Z</time>
      </trkpt>
      <trkpt lat="28.7738300" lon="-17.9262880">
        <ele>1399.4</ele>
        <time>2020-11-16T17:16:58Z</time>
      </trkpt>
      <trkpt lat="28.7738120" lon="-17.9263300">
        <ele>1399.4</ele>
        <time>2020-11-16T17:16:59Z</time>
      </trkpt>
      <trkpt lat="28.7737980" lon="-17.9263520">
        <ele>1399.4</ele>
        <time>2020-11-16T17:17:00Z</time>
      </trkpt>
      <trkpt lat="28.7737980" lon="-17.9263520">
        <ele>1399.4</ele>
        <time>2020-11-16T17:17:01Z</time>
      </trkpt>
      <trkpt lat="28.7737700" lon="-17.9263980">
        <ele>1399.3</ele>
        <time>2020-11-16T17:17:02Z</time>
      </trkpt>
      <trkpt lat="28.7737700" lon="-17.9263980">
        <ele>1399.3</ele>
        <time>2020-11-16T17:17:03Z</time>
      </trkpt>
      <trkpt lat="28.7737280" lon="-17.9264350">
        <ele>1399.2</ele>
        <time>2020-11-16T17:17:04Z</time>
      </trkpt>
      <trkpt lat="28.7737030" lon="-17.9264520">
        <ele>1399.0</ele>
        <time>2020-11-16T17:17:05Z</time>
      </trkpt>
      <trkpt lat="28.7736730" lon="-17.9264670">
        <ele>1398.9</ele>
        <time>2020-11-16T17:17:06Z</time>
      </trkpt>
      <trkpt lat="28.7736730" lon="-17.9264670">
        <ele>1398.9</ele>
        <time>2020-11-16T17:17:07Z</time>
      </trkpt>
      <trkpt lat="28.7736130" lon="-17.9264830">
        <ele>1398.7</ele>
        <time>2020-11-16T17:17:08Z</time>
      </trkpt>
      <trkpt lat="28.7735780" lon="-17.9264880">
        <ele>1398.5</ele>
        <time>2020-11-16T17:17:09Z</time>
      </trkpt>
      <trkpt lat="28.7735780" lon="-17.9264880">
        <ele>1398.5</ele>
        <time>2020-11-16T17:17:10Z</time>
      </trkpt>
      <trkpt lat="28.7735170" lon="-17.9264980">
        <ele>1398.2</ele>
        <time>2020-11-16T17:17:11Z</time>
      </trkpt>
      <trkpt lat="28.7735170" lon="-17.9264980">
        <ele>1398.2</ele>
        <time>2020-11-16T17:17:12Z</time>
      </trkpt>
      <trkpt lat="28.7734600" lon="-17.9265120">
        <ele>1397.9</ele>
        <time>2020-11-16T17:17:13Z</time>
      </trkpt>
      <trkpt lat="28.7734600" lon="-17.9265120">
        <ele>1397.9</ele>
        <time>2020-11-16T17:17:14Z</time>
      </trkpt>
      <trkpt lat="28.7734070" lon="-17.9265170">
        <ele>1397.5</ele>
        <time>2020-11-16T17:17:15Z</time>
      </trkpt>
      <trkpt lat="28.7733780" lon="-17.9265270">
        <ele>1397.3</ele>
        <time>2020-11-16T17:17:16Z</time>
      </trkpt>
      <trkpt lat="28.7733780" lon="-17.9265270">
        <ele>1397.3</ele>
        <time>2020-11-16T17:17:17Z</time>
      </trkpt>
      <trkpt lat="28.7733180" lon="-17.9265430">
        <ele>1396.9</ele>
        <time>2020-11-16T17:17:18Z</time>
      </trkpt>
      <trkpt lat="28.7732770" lon="-17.9265470">
        <ele>1396.6</ele>
        <time>2020-11-16T17:17:19Z</time>
      </trkpt>
      <trkpt lat="28.7732470" lon="-17.9265420">
        <ele>1396.3</ele>
        <time>2020-11-16T17:17:20Z</time>
      </trkpt>
      <trkpt lat="28.7732470" lon="-17.9265420">
        <ele>1396.3</ele>
        <time>2020-11-16T17:17:21Z</time>
      </trkpt>
      <trkpt lat="28.7731850" lon="-17.9265320">
        <ele>1395.8</ele>
        <time>2020-11-16T17:17:22Z</time>
      </trkpt>
      <trkpt lat="28.7731850" lon="-17.9265320">
        <ele>1395.8</ele>
        <time>2020-11-16T17:17:23Z</time>
      </trkpt>
      <trkpt lat="28.7731270" lon="-17.9264930">
        <ele>1395.1</ele>
        <time>2020-11-16T17:17:24Z</time>
      </trkpt>
      <trkpt lat="28.7731270" lon="-17.9264930">
        <ele>1395.1</ele>
        <time>2020-11-16T17:17:25Z</time>
      </trkpt>
      <trkpt lat="28.7730600" lon="-17.9264650">
        <ele>1394.4</ele>
        <time>2020-11-16T17:17:26Z</time>
      </trkpt>
      <trkpt lat="28.7730600" lon="-17.9264650">
        <ele>1394.4</ele>
        <time>2020-11-16T17:17:27Z</time>
      </trkpt>
      <trkpt lat="28.7729850" lon="-17.9264430">
        <ele>1393.7</ele>
        <time>2020-11-16T17:17:28Z</time>
      </trkpt>
      <trkpt lat="28.7729850" lon="-17.9264430">
        <ele>1393.7</ele>
        <time>2020-11-16T17:17:29Z</time>
      </trkpt>
      <trkpt lat="28.7728980" lon="-17.9264420">
        <ele>1393.1</ele>
        <time>2020-11-16T17:17:30Z</time>
      </trkpt>
      <trkpt lat="28.7728980" lon="-17.9264420">
        <ele>1393.1</ele>
        <time>2020-11-16T17:17:31Z</time>
      </trkpt>
      <trkpt lat="28.7728280" lon="-17.9264770">
        <ele>1392.7</ele>
        <time>2020-11-16T17:17:32Z</time>
      </trkpt>
      <trkpt lat="28.7728280" lon="-17.9264770">
        <ele>1392.7</ele>
        <time>2020-11-16T17:17:33Z</time>
      </trkpt>
      <trkpt lat="28.7727900" lon="-17.9265180">
        <ele>1392.5</ele>
        <time>2020-11-16T17:17:34Z</time>
      </trkpt>
      <trkpt lat="28.7727900" lon="-17.9265180">
        <ele>1392.5</ele>
        <time>2020-11-16T17:17:35Z</time>
      </trkpt>
      <trkpt lat="28.7727680" lon="-17.9265800">
        <ele>1392.2</ele>
        <time>2020-11-16T17:17:36Z</time>
      </trkpt>
      <trkpt lat="28.7727680" lon="-17.9265800">
        <ele>1392.2</ele>
        <time>2020-11-16T17:17:37Z</time>
      </trkpt>
      <trkpt lat="28.7727670" lon="-17.9266420">
        <ele>1392.0</ele>
        <time>2020-11-16T17:17:38Z</time>
      </trkpt>
      <trkpt lat="28.7727670" lon="-17.9266420">
        <ele>1392.0</ele>
        <time>2020-11-16T17:17:39Z</time>
      </trkpt>
      <trkpt lat="28.7727720" lon="-17.9266920">
        <ele>1391.9</ele>
        <time>2020-11-16T17:17:40Z</time>
      </trkpt>
      <trkpt lat="28.7727720" lon="-17.9266920">
        <ele>1391.9</ele>
        <time>2020-11-16T17:17:41Z</time>
      </trkpt>
      <trkpt lat="28.7727700" lon="-17.9267300">
        <ele>1391.8</ele>
        <time>2020-11-16T17:17:42Z</time>
      </trkpt>
      <trkpt lat="28.7727700" lon="-17.9267300">
        <ele>1391.8</ele>
        <time>2020-11-16T17:17:43Z</time>
      </trkpt>
      <trkpt lat="28.7727570" lon="-17.9267500">
        <ele>1391.8</ele>
        <time>2020-11-16T17:17:44Z</time>
      </trkpt>
      <trkpt lat="28.7727530" lon="-17.9267550">
        <ele>1391.8</ele>
        <time>2020-11-16T17:17:45Z</time>
      </trkpt>
      <trkpt lat="28.7727530" lon="-17.9267550">
        <ele>1391.8</ele>
        <time>2020-11-16T17:17:46Z</time>
      </trkpt>
      <trkpt lat="28.7727620" lon="-17.9267680">
        <ele>1391.7</ele>
        <time>2020-11-16T17:17:47Z</time>
      </trkpt>
      <trkpt lat="28.7727600" lon="-17.9268870">
        <ele>1391.6</ele>
        <time>2020-11-16T17:18:49Z</time>
      </trkpt>
      <trkpt lat="28.7727600" lon="-17.9268870">
        <ele>1391.6</ele>
        <time>2020-11-16T17:18:50Z</time>
      </trkpt>
      <trkpt lat="28.7727830" lon="-17.9269050">
        <ele>1391.6</ele>
        <time>2020-11-16T17:18:51Z</time>
      </trkpt>
      <trkpt lat="28.7727830" lon="-17.9269050">
        <ele>1391.6</ele>
        <time>2020-11-16T17:18:52Z</time>
      </trkpt>
      <trkpt lat="28.7727870" lon="-17.9269180">
        <ele>1391.6</ele>
        <time>2020-11-16T17:18:53Z</time>
      </trkpt>
      <trkpt lat="28.7727870" lon="-17.9269180">
        <ele>1391.6</ele>
        <time>2020-11-16T17:18:54Z</time>
      </trkpt>
      <trkpt lat="28.7728000" lon="-17.9269280">
        <ele>1391.6</ele>
        <time>2020-11-16T17:18:55Z</time>
      </trkpt>
      <trkpt lat="28.7728080" lon="-17.9269300">
        <ele>1391.6</ele>
        <time>2020-11-16T17:18:56Z</time>
      </trkpt>
      <trkpt lat="28.7728080" lon="-17.9269300">
        <ele>1391.6</ele>
        <time>2020-11-16T17:18:57Z</time>
      </trkpt>
      <trkpt lat="28.7728170" lon="-17.9269520">
        <ele>1391.6</ele>
        <time>2020-11-16T17:18:58Z</time>
      </trkpt>
      <trkpt lat="28.7728170" lon="-17.9269520">
        <ele>1391.6</ele>
        <time>2020-11-16T17:18:59Z</time>
      </trkpt>
      <trkpt lat="28.7728270" lon="-17.9269680">
        <ele>1391.6</ele>
        <time>2020-11-16T17:19:00Z</time>
      </trkpt>
      <trkpt lat="28.7728270" lon="-17.9269680">
        <ele>1391.6</ele>
        <time>2020-11-16T17:19:01Z</time>
      </trkpt>
      <trkpt lat="28.7728320" lon="-17.9269720">
        <ele>1391.6</ele>
        <time>2020-11-16T17:19:02Z</time>
      </trkpt>
      <trkpt lat="28.7728320" lon="-17.9269720">
        <ele>1391.6</ele>
        <time>2020-11-16T17:19:03Z</time>
      </trkpt>
      <trkpt lat="28.7728180" lon="-17.9269770">
        <ele>1391.6</ele>
        <time>2020-11-16T17:19:45Z</time>
      </trkpt>
      <trkpt lat="28.7728180" lon="-17.9269770">
        <ele>1391.6</ele>
        <time>2020-11-16T17:19:46Z</time>
      </trkpt>
      <trkpt lat="28.7728050" lon="-17.9269830">
        <ele>1391.6</ele>
        <time>2020-11-16T17:19:47Z</time>
      </trkpt>
      <trkpt lat="28.7728050" lon="-17.9269830">
        <ele>1391.6</ele>
        <time>2020-11-16T17:19:48Z</time>
      </trkpt>
      <trkpt lat="28.7728320" lon="-17.9270020">
        <ele>1391.7</ele>
        <time>2020-11-16T17:19:49Z</time>
      </trkpt>
      <trkpt lat="28.7728320" lon="-17.9270020">
        <ele>1391.7</ele>
        <time>2020-11-16T17:19:50Z</time>
      </trkpt>
      <trkpt lat="28.7728450" lon="-17.9270200">
        <ele>1391.7</ele>
        <time>2020-11-16T17:19:51Z</time>
      </trkpt>
      <trkpt lat="28.7728450" lon="-17.9270200">
        <ele>1391.7</ele>
        <time>2020-11-16T17:19:52Z</time>
      </trkpt>
      <trkpt lat="28.7728580" lon="-17.9270430">
        <ele>1391.7</ele>
        <time>2020-11-16T17:19:53Z</time>
      </trkpt>
      <trkpt lat="28.7728580" lon="-17.9270430">
        <ele>1391.7</ele>
        <time>2020-11-16T17:19:54Z</time>
      </trkpt>
      <trkpt lat="28.7728620" lon="-17.9270700">
        <ele>1391.8</ele>
        <time>2020-11-16T17:19:55Z</time>
      </trkpt>
      <trkpt lat="28.7728350" lon="-17.9270830">
        <ele>1391.9</ele>
        <time>2020-11-16T17:19:56Z</time>
      </trkpt>
      <trkpt lat="28.7728350" lon="-17.9270830">
        <ele>1391.9</ele>
        <time>2020-11-16T17:19:57Z</time>
      </trkpt>
      <trkpt lat="28.7728270" lon="-17.9271080">
        <ele>1391.9</ele>
        <time>2020-11-16T17:19:58Z</time>
      </trkpt>
      <trkpt lat="28.7728270" lon="-17.9271080">
        <ele>1391.9</ele>
        <time>2020-11-16T17:19:59Z</time>
      </trkpt>
      <trkpt lat="28.7728580" lon="-17.9271270">
        <ele>1392.1</ele>
        <time>2020-11-16T17:20:00Z</time>
      </trkpt>
      <trkpt lat="28.7728580" lon="-17.9271270">
        <ele>1392.1</ele>
        <time>2020-11-16T17:20:01Z</time>
      </trkpt>
      <trkpt lat="28.7728800" lon="-17.9271480">
        <ele>1392.2</ele>
        <time>2020-11-16T17:20:02Z</time>
      </trkpt>
      <trkpt lat="28.7728800" lon="-17.9271480">
        <ele>1392.2</ele>
        <time>2020-11-16T17:20:03Z</time>
      </trkpt>
      <trkpt lat="28.7729070" lon="-17.9271670">
        <ele>1392.4</ele>
        <time>2020-11-16T17:20:04Z</time>
      </trkpt>
      <trkpt lat="28.7729070" lon="-17.9271670">
        <ele>1392.4</ele>
        <time>2020-11-16T17:20:05Z</time>
      </trkpt>
      <trkpt lat="28.7729270" lon="-17.9271870">
        <ele>1392.5</ele>
        <time>2020-11-16T17:20:06Z</time>
      </trkpt>
      <trkpt lat="28.7729270" lon="-17.9271870">
        <ele>1392.5</ele>
        <time>2020-11-16T17:20:07Z</time>
      </trkpt>
      <trkpt lat="28.7729470" lon="-17.9272070">
        <ele>1392.7</ele>
        <time>2020-11-16T17:20:08Z</time>
      </trkpt>
      <trkpt lat="28.7729470" lon="-17.9272070">
        <ele>1392.7</ele>
        <time>2020-11-16T17:20:09Z</time>
      </trkpt>
      <trkpt lat="28.7729700" lon="-17.9272250">
        <ele>1392.8</ele>
        <time>2020-11-16T17:20:10Z</time>
      </trkpt>
      <trkpt lat="28.7729700" lon="-17.9272250">
        <ele>1392.8</ele>
        <time>2020-11-16T17:20:11Z</time>
      </trkpt>
      <trkpt lat="28.7729850" lon="-17.9272420">
        <ele>1392.9</ele>
        <time>2020-11-16T17:20:12Z</time>
      </trkpt>
      <trkpt lat="28.7729850" lon="-17.9272420">
        <ele>1392.9</ele>
        <time>2020-11-16T17:20:13Z</time>
      </trkpt>
      <trkpt lat="28.7730030" lon="-17.9272570">
        <ele>1393.0</ele>
        <time>2020-11-16T17:20:14Z</time>
      </trkpt>
      <trkpt lat="28.7730030" lon="-17.9272570">
        <ele>1393.0</ele>
        <time>2020-11-16T17:20:15Z</time>
      </trkpt>
      <trkpt lat="28.7730220" lon="-17.9272750">
        <ele>1393.2</ele>
        <time>2020-11-16T17:20:16Z</time>
      </trkpt>
      <trkpt lat="28.7730220" lon="-17.9272750">
        <ele>1393.2</ele>
        <time>2020-11-16T17:20:17Z</time>
      </trkpt>
      <trkpt lat="28.7730480" lon="-17.9272820">
        <ele>1393.3</ele>
        <time>2020-11-16T17:20:18Z</time>
      </trkpt>
      <trkpt lat="28.7730600" lon="-17.9272870">
        <ele>1393.4</ele>
        <time>2020-11-16T17:20:19Z</time>
      </trkpt>
      <trkpt lat="28.7730600" lon="-17.9272870">
        <ele>1393.4</ele>
        <time>2020-11-16T17:20:20Z</time>
      </trkpt>
      <trkpt lat="28.7730800" lon="-17.9273080">
        <ele>1393.6</ele>
        <time>2020-11-16T17:20:21Z</time>
      </trkpt>
      <trkpt lat="28.7730800" lon="-17.9273080">
        <ele>1393.6</ele>
        <time>2020-11-16T17:20:22Z</time>
      </trkpt>
      <trkpt lat="28.7730920" lon="-17.9273480">
        <ele>1393.8</ele>
        <time>2020-11-16T17:20:23Z</time>
      </trkpt>
      <trkpt lat="28.7730920" lon="-17.9273480">
        <ele>1393.8</ele>
        <time>2020-11-16T17:20:24Z</time>
      </trkpt>
      <trkpt lat="28.7731070" lon="-17.9273770">
        <ele>1394.0</ele>
        <time>2020-11-16T17:20:25Z</time>
      </trkpt>
      <trkpt lat="28.7731070" lon="-17.9273770">
        <ele>1394.0</ele>
        <time>2020-11-16T17:20:26Z</time>
      </trkpt>
      <trkpt lat="28.7731220" lon="-17.9273980">
        <ele>1394.1</ele>
        <time>2020-11-16T17:20:27Z</time>
      </trkpt>
      <trkpt lat="28.7731220" lon="-17.9273980">
        <ele>1394.1</ele>
        <time>2020-11-16T17:20:28Z</time>
      </trkpt>
      <trkpt lat="28.7731330" lon="-17.9274200">
        <ele>1394.3</ele>
        <time>2020-11-16T17:20:29Z</time>
      </trkpt>
      <trkpt lat="28.7731330" lon="-17.9274200">
        <ele>1394.3</ele>
        <time>2020-11-16T17:20:30Z</time>
      </trkpt>
      <trkpt lat="28.7731480" lon="-17.9274330">
        <ele>1394.4</ele>
        <time>2020-11-16T17:20:31Z</time>
      </trkpt>
      <trkpt lat="28.7731500" lon="-17.9274400">
        <ele>1394.4</ele>
        <time>2020-11-16T17:20:32Z</time>
      </trkpt>
      <trkpt lat="28.7731500" lon="-17.9274400">
        <ele>1394.4</ele>
        <time>2020-11-16T17:20:33Z</time>
      </trkpt>
      <trkpt lat="28.7731500" lon="-17.9274420">
        <ele>1394.4</ele>
        <time>2020-11-16T17:20:34Z</time>
      </trkpt>
      <trkpt lat="28.7731500" lon="-17.9274420">
        <ele>1394.4</ele>
        <time>2020-11-16T17:20:35Z</time>
      </trkpt>
      <trkpt lat="28.7731500" lon="-17.9274420">
        <ele>1394.4</ele>
        <time>2020-11-16T17:20:54Z</time>
      </trkpt>
      <trkpt lat="28.7732850" lon="-17.9275700">
        <ele>1395.4</ele>
        <time>2020-11-16T17:20:55Z</time>
      </trkpt>
      <trkpt lat="28.7732900" lon="-17.9275730">
        <ele>1395.5</ele>
        <time>2020-11-16T17:20:56Z</time>
      </trkpt>
      <trkpt lat="28.7732900" lon="-17.9275730">
        <ele>1395.5</ele>
        <time>2020-11-16T17:20:57Z</time>
      </trkpt>
      <trkpt lat="28.7733070" lon="-17.9275850">
        <ele>1395.6</ele>
        <time>2020-11-16T17:20:58Z</time>
      </trkpt>
      <trkpt lat="28.7733070" lon="-17.9275850">
        <ele>1395.6</ele>
        <time>2020-11-16T17:20:59Z</time>
      </trkpt>
      <trkpt lat="28.7733100" lon="-17.9276030">
        <ele>1395.7</ele>
        <time>2020-11-16T17:21:00Z</time>
      </trkpt>
      <trkpt lat="28.7733100" lon="-17.9276030">
        <ele>1395.7</ele>
        <time>2020-11-16T17:21:01Z</time>
      </trkpt>
      <trkpt lat="28.7733250" lon="-17.9276180">
        <ele>1395.8</ele>
        <time>2020-11-16T17:21:02Z</time>
      </trkpt>
      <trkpt lat="28.7733250" lon="-17.9276180">
        <ele>1395.8</ele>
        <time>2020-11-16T17:21:03Z</time>
      </trkpt>
      <trkpt lat="28.7733420" lon="-17.9276300">
        <ele>1395.9</ele>
        <time>2020-11-16T17:21:04Z</time>
      </trkpt>
      <trkpt lat="28.7733420" lon="-17.9276300">
        <ele>1395.9</ele>
        <time>2020-11-16T17:21:05Z</time>
      </trkpt>
      <trkpt lat="28.7733530" lon="-17.9276470">
        <ele>1396.0</ele>
        <time>2020-11-16T17:21:06Z</time>
      </trkpt>
      <trkpt lat="28.7733530" lon="-17.9276470">
        <ele>1396.0</ele>
        <time>2020-11-16T17:21:07Z</time>
      </trkpt>
      <trkpt lat="28.7733730" lon="-17.9276580">
        <ele>1396.2</ele>
        <time>2020-11-16T17:21:08Z</time>
      </trkpt>
      <trkpt lat="28.7733730" lon="-17.9276580">
        <ele>1396.2</ele>
        <time>2020-11-16T17:21:09Z</time>
      </trkpt>
      <trkpt lat="28.7733950" lon="-17.9276720">
        <ele>1396.3</ele>
        <time>2020-11-16T17:21:10Z</time>
      </trkpt>
      <trkpt lat="28.7734030" lon="-17.9276800">
        <ele>1396.4</ele>
        <time>2020-11-16T17:21:11Z</time>
      </trkpt>
      <trkpt lat="28.7734030" lon="-17.9276800">
        <ele>1396.4</ele>
        <time>2020-11-16T17:21:12Z</time>
      </trkpt>
      <trkpt lat="28.7734270" lon="-17.9276980">
        <ele>1396.5</ele>
        <time>2020-11-16T17:21:13Z</time>
      </trkpt>
      <trkpt lat="28.7734270" lon="-17.9276980">
        <ele>1396.5</ele>
        <time>2020-11-16T17:21:14Z</time>
      </trkpt>
      <trkpt lat="28.7734480" lon="-17.9277080">
        <ele>1396.7</ele>
        <time>2020-11-16T17:21:15Z</time>
      </trkpt>
      <trkpt lat="28.7734620" lon="-17.9277130">
        <ele>1396.8</ele>
        <time>2020-11-16T17:21:16Z</time>
      </trkpt>
      <trkpt lat="28.7734620" lon="-17.9277130">
        <ele>1396.8</ele>
        <time>2020-11-16T17:21:17Z</time>
      </trkpt>
      <trkpt lat="28.7734820" lon="-17.9277220">
        <ele>1396.9</ele>
        <time>2020-11-16T17:21:18Z</time>
      </trkpt>
      <trkpt lat="28.7734820" lon="-17.9277220">
        <ele>1396.9</ele>
        <time>2020-11-16T17:21:19Z</time>
      </trkpt>
      <trkpt lat="28.7735080" lon="-17.9277280">
        <ele>1397.0</ele>
        <time>2020-11-16T17:21:20Z</time>
      </trkpt>
      <trkpt lat="28.7735080" lon="-17.9277280">
        <ele>1397.0</ele>
        <time>2020-11-16T17:21:21Z</time>
      </trkpt>
      <trkpt lat="28.7735280" lon="-17.9277420">
        <ele>1397.2</ele>
        <time>2020-11-16T17:21:22Z</time>
      </trkpt>
      <trkpt lat="28.7735280" lon="-17.9277420">
        <ele>1397.2</ele>
        <time>2020-11-16T17:21:23Z</time>
      </trkpt>
      <trkpt lat="28.7735500" lon="-17.9277570">
        <ele>1397.3</ele>
        <time>2020-11-16T17:21:24Z</time>
      </trkpt>
      <trkpt lat="28.7735580" lon="-17.9277630">
        <ele>1397.4</ele>
        <time>2020-11-16T17:21:25Z</time>
      </trkpt>
      <trkpt lat="28.7735580" lon="-17.9277630">
        <ele>1397.4</ele>
        <time>2020-11-16T17:21:26Z</time>
      </trkpt>
      <trkpt lat="28.7735830" lon="-17.9277870">
        <ele>1397.6</ele>
        <time>2020-11-16T17:21:27Z</time>
      </trkpt>
      <trkpt lat="28.7735830" lon="-17.9277870">
        <ele>1397.6</ele>
        <time>2020-11-16T17:21:28Z</time>
      </trkpt>
      <trkpt lat="28.7736080" lon="-17.9277900">
        <ele>1397.8</ele>
        <time>2020-11-16T17:21:29Z</time>
      </trkpt>
      <trkpt lat="28.7736080" lon="-17.9277900">
        <ele>1397.8</ele>
        <time>2020-11-16T17:21:30Z</time>
      </trkpt>
      <trkpt lat="28.7736370" lon="-17.9277970">
        <ele>1398.0</ele>
        <time>2020-11-16T17:21:31Z</time>
      </trkpt>
      <trkpt lat="28.7736370" lon="-17.9277970">
        <ele>1398.0</ele>
        <time>2020-11-16T17:21:32Z</time>
      </trkpt>
      <trkpt lat="28.7736520" lon="-17.9278080">
        <ele>1398.2</ele>
        <time>2020-11-16T17:21:33Z</time>
      </trkpt>
      <trkpt lat="28.7736600" lon="-17.9278130">
        <ele>1398.2</ele>
        <time>2020-11-16T17:21:34Z</time>
      </trkpt>
      <trkpt lat="28.7736600" lon="-17.9278130">
        <ele>1398.2</ele>
        <time>2020-11-16T17:21:35Z</time>
      </trkpt>
      <trkpt lat="28.7736730" lon="-17.9278300">
        <ele>1398.4</ele>
        <time>2020-11-16T17:21:36Z</time>
      </trkpt>
      <trkpt lat="28.7736830" lon="-17.9278380">
        <ele>1398.4</ele>
        <time>2020-11-16T17:21:37Z</time>
      </trkpt>
      <trkpt lat="28.7736930" lon="-17.9278450">
        <ele>1398.5</ele>
        <time>2020-11-16T17:21:38Z</time>
      </trkpt>
      <trkpt lat="28.7736930" lon="-17.9278450">
        <ele>1398.5</ele>
        <time>2020-11-16T17:21:39Z</time>
      </trkpt>
      <trkpt lat="28.7737250" lon="-17.9278530">
        <ele>1398.6</ele>
        <time>2020-11-16T17:21:40Z</time>
      </trkpt>
      <trkpt lat="28.7737250" lon="-17.9278530">
        <ele>1398.6</ele>
        <time>2020-11-16T17:21:41Z</time>
      </trkpt>
      <trkpt lat="28.7737470" lon="-17.9278620">
        <ele>1398.8</ele>
        <time>2020-11-16T17:21:42Z</time>
      </trkpt>
      <trkpt lat="28.7737470" lon="-17.9278620">
        <ele>1398.8</ele>
        <time>2020-11-16T17:21:43Z</time>
      </trkpt>
      <trkpt lat="28.7737720" lon="-17.9278680">
        <ele>1398.9</ele>
        <time>2020-11-16T17:21:44Z</time>
      </trkpt>
      <trkpt lat="28.7737720" lon="-17.9278680">
        <ele>1398.9</ele>
        <time>2020-11-16T17:21:45Z</time>
      </trkpt>
      <trkpt lat="28.7737880" lon="-17.9278750">
        <ele>1399.0</ele>
        <time>2020-11-16T17:21:46Z</time>
      </trkpt>
      <trkpt lat="28.7737880" lon="-17.9278750">
        <ele>1399.0</ele>
        <time>2020-11-16T17:21:47Z</time>
      </trkpt>
      <trkpt lat="28.7738050" lon="-17.9278870">
        <ele>1399.1</ele>
        <time>2020-11-16T17:21:48Z</time>
      </trkpt>
      <trkpt lat="28.7738050" lon="-17.9278870">
        <ele>1399.1</ele>
        <time>2020-11-16T17:21:49Z</time>
      </trkpt>
      <trkpt lat="28.7738250" lon="-17.9278970">
        <ele>1399.2</ele>
        <time>2020-11-16T17:21:50Z</time>
      </trkpt>
      <trkpt lat="28.7738250" lon="-17.9278970">
        <ele>1399.2</ele>
        <time>2020-11-16T17:21:51Z</time>
      </trkpt>
      <trkpt lat="28.7738520" lon="-17.9279070">
        <ele>1399.3</ele>
        <time>2020-11-16T17:21:52Z</time>
      </trkpt>
      <trkpt lat="28.7738520" lon="-17.9279070">
        <ele>1399.3</ele>
        <time>2020-11-16T17:21:53Z</time>
      </trkpt>
      <trkpt lat="28.7738730" lon="-17.9279150">
        <ele>1399.5</ele>
        <time>2020-11-16T17:21:54Z</time>
      </trkpt>
      <trkpt lat="28.7738830" lon="-17.9279180">
        <ele>1399.6</ele>
        <time>2020-11-16T17:21:55Z</time>
      </trkpt>
      <trkpt lat="28.7738830" lon="-17.9279180">
        <ele>1399.6</ele>
        <time>2020-11-16T17:21:56Z</time>
      </trkpt>
      <trkpt lat="28.7739080" lon="-17.9279200">
        <ele>1399.7</ele>
        <time>2020-11-16T17:21:57Z</time>
      </trkpt>
      <trkpt lat="28.7739080" lon="-17.9279200">
        <ele>1399.7</ele>
        <time>2020-11-16T17:21:58Z</time>
      </trkpt>
      <trkpt lat="28.7739300" lon="-17.9279270">
        <ele>1399.9</ele>
        <time>2020-11-16T17:21:59Z</time>
      </trkpt>
      <trkpt lat="28.7739300" lon="-17.9279270">
        <ele>1399.9</ele>
        <time>2020-11-16T17:22:00Z</time>
      </trkpt>
      <trkpt lat="28.7739430" lon="-17.9279320">
        <ele>1400.0</ele>
        <time>2020-11-16T17:22:01Z</time>
      </trkpt>
      <trkpt lat="28.7739430" lon="-17.9279320">
        <ele>1400.0</ele>
        <time>2020-11-16T17:22:02Z</time>
      </trkpt>
      <trkpt lat="28.7739500" lon="-17.9279300">
        <ele>1400.1</ele>
        <time>2020-11-16T17:22:03Z</time>
      </trkpt>
      <trkpt lat="28.7739520" lon="-17.9279300">
        <ele>1400.1</ele>
        <time>2020-11-16T17:22:04Z</time>
      </trkpt>
      <trkpt lat="28.7739520" lon="-17.9279300">
        <ele>1400.1</ele>
        <time>2020-11-16T17:22:05Z</time>
      </trkpt>
      <trkpt lat="28.7739520" lon="-17.9279300">
        <ele>1400.1</ele>
        <time>2020-11-16T17:22:06Z</time>
      </trkpt>
      <trkpt lat="28.7739520" lon="-17.9279300">
        <ele>1400.1</ele>
        <time>2020-11-16T17:22:38Z</time>
      </trkpt>
      <trkpt lat="28.7739520" lon="-17.9279300">
        <ele>1400.1</ele>
        <time>2020-11-16T17:22:39Z</time>
      </trkpt>
      <trkpt lat="28.7739820" lon="-17.9279180">
        <ele>1400.2</ele>
        <time>2020-11-16T17:22:40Z</time>
      </trkpt>
      <trkpt lat="28.7739820" lon="-17.9279180">
        <ele>1400.2</ele>
        <time>2020-11-16T17:22:41Z</time>
      </trkpt>
      <trkpt lat="28.7740030" lon="-17.9279050">
        <ele>1400.5</ele>
        <time>2020-11-16T17:22:42Z</time>
      </trkpt>
      <trkpt lat="28.7740030" lon="-17.9279050">
        <ele>1400.5</ele>
        <time>2020-11-16T17:22:43Z</time>
      </trkpt>
      <trkpt lat="28.7740250" lon="-17.9278920">
        <ele>1400.9</ele>
        <time>2020-11-16T17:22:44Z</time>
      </trkpt>
      <trkpt lat="28.7740250" lon="-17.9278920">
        <ele>1400.9</ele>
        <time>2020-11-16T17:22:45Z</time>
      </trkpt>
      <trkpt lat="28.7740420" lon="-17.9278800">
        <ele>1401.2</ele>
        <time>2020-11-16T17:22:46Z</time>
      </trkpt>
      <trkpt lat="28.7740420" lon="-17.9278800">
        <ele>1401.2</ele>
        <time>2020-11-16T17:22:47Z</time>
      </trkpt>
      <trkpt lat="28.7740580" lon="-17.9278730">
        <ele>1401.4</ele>
        <time>2020-11-16T17:22:48Z</time>
      </trkpt>
      <trkpt lat="28.7740720" lon="-17.9278700">
        <ele>1401.6</ele>
        <time>2020-11-16T17:22:49Z</time>
      </trkpt>
      <trkpt lat="28.7740720" lon="-17.9278700">
        <ele>1401.6</ele>
        <time>2020-11-16T17:22:50Z</time>
      </trkpt>
      <trkpt lat="28.7740970" lon="-17.9278670">
        <ele>1402.0</ele>
        <time>2020-11-16T17:22:51Z</time>
      </trkpt>
      <trkpt lat="28.7741120" lon="-17.9278670">
        <ele>1402.2</ele>
        <time>2020-11-16T17:22:52Z</time>
      </trkpt>
      <trkpt lat="28.7741120" lon="-17.9278670">
        <ele>1402.2</ele>
        <time>2020-11-16T17:22:53Z</time>
      </trkpt>
      <trkpt lat="28.7741370" lon="-17.9278770">
        <ele>1402.6</ele>
        <time>2020-11-16T17:22:54Z</time>
      </trkpt>
      <trkpt lat="28.7741370" lon="-17.9278770">
        <ele>1402.6</ele>
        <time>2020-11-16T17:22:55Z</time>
      </trkpt>
      <trkpt lat="28.7741670" lon="-17.9278800">
        <ele>1403.0</ele>
        <time>2020-11-16T17:22:56Z</time>
      </trkpt>
      <trkpt lat="28.7741670" lon="-17.9278800">
        <ele>1403.0</ele>
        <time>2020-11-16T17:22:57Z</time>
      </trkpt>
      <trkpt lat="28.7741900" lon="-17.9278880">
        <ele>1403.3</ele>
        <time>2020-11-16T17:22:58Z</time>
      </trkpt>
      <trkpt lat="28.7741900" lon="-17.9278880">
        <ele>1403.3</ele>
        <time>2020-11-16T17:22:59Z</time>
      </trkpt>
      <trkpt lat="28.7742130" lon="-17.9279020">
        <ele>1403.7</ele>
        <time>2020-11-16T17:23:00Z</time>
      </trkpt>
      <trkpt lat="28.7742130" lon="-17.9279020">
        <ele>1403.7</ele>
        <time>2020-11-16T17:23:01Z</time>
      </trkpt>
      <trkpt lat="28.7742350" lon="-17.9279130">
        <ele>1404.0</ele>
        <time>2020-11-16T17:23:02Z</time>
      </trkpt>
      <trkpt lat="28.7742430" lon="-17.9279220">
        <ele>1404.2</ele>
        <time>2020-11-16T17:23:03Z</time>
      </trkpt>
      <trkpt lat="28.7742430" lon="-17.9279220">
        <ele>1404.2</ele>
        <time>2020-11-16T17:23:04Z</time>
      </trkpt>
      <trkpt lat="28.7742580" lon="-17.9279420">
        <ele>1404.5</ele>
        <time>2020-11-16T17:23:05Z</time>
      </trkpt>
      <trkpt lat="28.7742580" lon="-17.9279420">
        <ele>1404.5</ele>
        <time>2020-11-16T17:23:06Z</time>
      </trkpt>
      <trkpt lat="28.7742720" lon="-17.9279650">
        <ele>1404.9</ele>
        <time>2020-11-16T17:23:07Z</time>
      </trkpt>
      <trkpt lat="28.7742780" lon="-17.9279720">
        <ele>1405.0</ele>
        <time>2020-11-16T17:23:08Z</time>
      </trkpt>
      <trkpt lat="28.7742780" lon="-17.9279720">
        <ele>1405.0</ele>
        <time>2020-11-16T17:23:09Z</time>
      </trkpt>
      <trkpt lat="28.7742780" lon="-17.9279650">
        <ele>1405.1</ele>
        <time>2020-11-16T17:23:10Z</time>
      </trkpt>
      <trkpt lat="28.7742780" lon="-17.9279650">
        <ele>1405.1</ele>
        <time>2020-11-16T17:23:11Z</time>
      </trkpt>
      <trkpt lat="28.7742800" lon="-17.9279650">
        <ele>1405.1</ele>
        <time>2020-11-16T17:23:12Z</time>
      </trkpt>
      <trkpt lat="28.7742800" lon="-17.9279650">
        <ele>1405.1</ele>
        <time>2020-11-16T17:23:13Z</time>
      </trkpt>
      <trkpt lat="28.7742800" lon="-17.9279650">
        <ele>1405.1</ele>
        <time>2020-11-16T17:23:41Z</time>
      </trkpt>
      <trkpt lat="28.7742880" lon="-17.9280500">
        <ele>1406.1</ele>
        <time>2020-11-16T17:23:42Z</time>
      </trkpt>
      <trkpt lat="28.7742880" lon="-17.9280500">
        <ele>1406.1</ele>
        <time>2020-11-16T17:23:43Z</time>
      </trkpt>
      <trkpt lat="28.7742980" lon="-17.9280950">
        <ele>1406.7</ele>
        <time>2020-11-16T17:23:44Z</time>
      </trkpt>
      <trkpt lat="28.7742980" lon="-17.9280950">
        <ele>1406.7</ele>
        <time>2020-11-16T17:23:45Z</time>
      </trkpt>
      <trkpt lat="28.7742920" lon="-17.9281520">
        <ele>1407.4</ele>
        <time>2020-11-16T17:23:46Z</time>
      </trkpt>
      <trkpt lat="28.7742920" lon="-17.9281520">
        <ele>1407.4</ele>
        <time>2020-11-16T17:23:47Z</time>
      </trkpt>
      <trkpt lat="28.7742750" lon="-17.9281970">
        <ele>1408.0</ele>
        <time>2020-11-16T17:23:48Z</time>
      </trkpt>
      <trkpt lat="28.7742750" lon="-17.9281970">
        <ele>1408.0</ele>
        <time>2020-11-16T17:23:49Z</time>
      </trkpt>
      <trkpt lat="28.7742470" lon="-17.9282380">
        <ele>1408.6</ele>
        <time>2020-11-16T17:23:50Z</time>
      </trkpt>
      <trkpt lat="28.7742470" lon="-17.9282380">
        <ele>1408.6</ele>
        <time>2020-11-16T17:23:51Z</time>
      </trkpt>
      <trkpt lat="28.7742100" lon="-17.9282800">
        <ele>1408.6</ele>
        <time>2020-11-16T17:23:52Z</time>
      </trkpt>
      <trkpt lat="28.7741900" lon="-17.9282980">
        <ele>1408.5</ele>
        <time>2020-11-16T17:23:53Z</time>
      </trkpt>
      <trkpt lat="28.7741900" lon="-17.9282980">
        <ele>1408.5</ele>
        <time>2020-11-16T17:23:54Z</time>
      </trkpt>
      <trkpt lat="28.7741420" lon="-17.9283180">
        <ele>1408.4</ele>
        <time>2020-11-16T17:23:55Z</time>
      </trkpt>
      <trkpt lat="28.7741420" lon="-17.9283180">
        <ele>1408.4</ele>
        <time>2020-11-16T17:23:56Z</time>
      </trkpt>
      <trkpt lat="28.7740970" lon="-17.9283270">
        <ele>1408.2</ele>
        <time>2020-11-16T17:23:57Z</time>
      </trkpt>
      <trkpt lat="28.7740970" lon="-17.9283270">
        <ele>1408.2</ele>
        <time>2020-11-16T17:23:58Z</time>
      </trkpt>
      <trkpt lat="28.7740600" lon="-17.9283320">
        <ele>1408.1</ele>
        <time>2020-11-16T17:23:59Z</time>
      </trkpt>
      <trkpt lat="28.7740600" lon="-17.9283320">
        <ele>1408.1</ele>
        <time>2020-11-16T17:24:00Z</time>
      </trkpt>
      <trkpt lat="28.7740220" lon="-17.9283450">
        <ele>1408.0</ele>
        <time>2020-11-16T17:24:01Z</time>
      </trkpt>
      <trkpt lat="28.7740030" lon="-17.9283520">
        <ele>1407.9</ele>
        <time>2020-11-16T17:24:02Z</time>
      </trkpt>
      <trkpt lat="28.7740030" lon="-17.9283520">
        <ele>1407.9</ele>
        <time>2020-11-16T17:24:03Z</time>
      </trkpt>
      <trkpt lat="28.7739680" lon="-17.9283850">
        <ele>1407.8</ele>
        <time>2020-11-16T17:24:04Z</time>
      </trkpt>
      <trkpt lat="28.7739680" lon="-17.9283850">
        <ele>1407.8</ele>
        <time>2020-11-16T17:24:05Z</time>
      </trkpt>
      <trkpt lat="28.7739270" lon="-17.9284300">
        <ele>1407.6</ele>
        <time>2020-11-16T17:24:06Z</time>
      </trkpt>
      <trkpt lat="28.7739120" lon="-17.9284530">
        <ele>1407.6</ele>
        <time>2020-11-16T17:24:07Z</time>
      </trkpt>
      <trkpt lat="28.7738970" lon="-17.9284770">
        <ele>1407.5</ele>
        <time>2020-11-16T17:24:08Z</time>
      </trkpt>
      <trkpt lat="28.7738970" lon="-17.9284770">
        <ele>1407.5</ele>
        <time>2020-11-16T17:24:09Z</time>
      </trkpt>
      <trkpt lat="28.7738900" lon="-17.9285170">
        <ele>1407.3</ele>
        <time>2020-11-16T17:24:10Z</time>
      </trkpt>
      <trkpt lat="28.7738900" lon="-17.9285170">
        <ele>1407.3</ele>
        <time>2020-11-16T17:24:11Z</time>
      </trkpt>
      <trkpt lat="28.7738780" lon="-17.9285700">
        <ele>1407.1</ele>
        <time>2020-11-16T17:24:12Z</time>
      </trkpt>
      <trkpt lat="28.7738780" lon="-17.9285700">
        <ele>1407.1</ele>
        <time>2020-11-16T17:24:13Z</time>
      </trkpt>
      <trkpt lat="28.7738500" lon="-17.9286300">
        <ele>1406.9</ele>
        <time>2020-11-16T17:24:14Z</time>
      </trkpt>
      <trkpt lat="28.7738500" lon="-17.9286300">
        <ele>1406.9</ele>
        <time>2020-11-16T17:24:15Z</time>
      </trkpt>
      <trkpt lat="28.7738380" lon="-17.9287000">
        <ele>1406.8</ele>
        <time>2020-11-16T17:24:16Z</time>
      </trkpt>
      <trkpt lat="28.7738380" lon="-17.9287000">
        <ele>1406.8</ele>
        <time>2020-11-16T17:24:17Z</time>
      </trkpt>
      <trkpt lat="28.7738150" lon="-17.9287500">
        <ele>1406.7</ele>
        <time>2020-11-16T17:24:18Z</time>
      </trkpt>
      <trkpt lat="28.7738150" lon="-17.9287500">
        <ele>1406.7</ele>
        <time>2020-11-16T17:24:19Z</time>
      </trkpt>
      <trkpt lat="28.7737830" lon="-17.9288020">
        <ele>1406.7</ele>
        <time>2020-11-16T17:24:20Z</time>
      </trkpt>
      <trkpt lat="28.7737830" lon="-17.9288020">
        <ele>1406.7</ele>
        <time>2020-11-16T17:24:21Z</time>
      </trkpt>
      <trkpt lat="28.7737400" lon="-17.9288620">
        <ele>1406.7</ele>
        <time>2020-11-16T17:24:22Z</time>
      </trkpt>
      <trkpt lat="28.7737180" lon="-17.9288920">
        <ele>1406.6</ele>
        <time>2020-11-16T17:24:23Z</time>
      </trkpt>
      <trkpt lat="28.7737180" lon="-17.9288920">
        <ele>1406.6</ele>
        <time>2020-11-16T17:24:24Z</time>
      </trkpt>
      <trkpt lat="28.7736770" lon="-17.9289500">
        <ele>1406.6</ele>
        <time>2020-11-16T17:24:25Z</time>
      </trkpt>
      <trkpt lat="28.7736770" lon="-17.9289500">
        <ele>1406.6</ele>
        <time>2020-11-16T17:24:26Z</time>
      </trkpt>
      <trkpt lat="28.7736280" lon="-17.9289980">
        <ele>1406.7</ele>
        <time>2020-11-16T17:24:27Z</time>
      </trkpt>
      <trkpt lat="28.7736280" lon="-17.9289980">
        <ele>1406.7</ele>
        <time>2020-11-16T17:24:28Z</time>
      </trkpt>
      <trkpt lat="28.7735800" lon="-17.9290280">
        <ele>1406.7</ele>
        <time>2020-11-16T17:24:29Z</time>
      </trkpt>
      <trkpt lat="28.7735570" lon="-17.9290380">
        <ele>1406.8</ele>
        <time>2020-11-16T17:24:30Z</time>
      </trkpt>
      <trkpt lat="28.7735570" lon="-17.9290380">
        <ele>1406.8</ele>
        <time>2020-11-16T17:24:31Z</time>
      </trkpt>
      <trkpt lat="28.7735000" lon="-17.9290520">
        <ele>1406.8</ele>
        <time>2020-11-16T17:24:32Z</time>
      </trkpt>
      <trkpt lat="28.7735000" lon="-17.9290520">
        <ele>1406.8</ele>
        <time>2020-11-16T17:24:33Z</time>
      </trkpt>
      <trkpt lat="28.7734520" lon="-17.9290450">
        <ele>1406.7</ele>
        <time>2020-11-16T17:24:34Z</time>
      </trkpt>
      <trkpt lat="28.7734520" lon="-17.9290450">
        <ele>1406.7</ele>
        <time>2020-11-16T17:24:35Z</time>
      </trkpt>
      <trkpt lat="28.7734080" lon="-17.9290370">
        <ele>1406.7</ele>
        <time>2020-11-16T17:24:36Z</time>
      </trkpt>
      <trkpt lat="28.7734080" lon="-17.9290370">
        <ele>1406.7</ele>
        <time>2020-11-16T17:24:37Z</time>
      </trkpt>
      <trkpt lat="28.7733630" lon="-17.9290330">
        <ele>1406.6</ele>
        <time>2020-11-16T17:24:38Z</time>
      </trkpt>
      <trkpt lat="28.7733630" lon="-17.9290330">
        <ele>1406.6</ele>
        <time>2020-11-16T17:24:39Z</time>
      </trkpt>
      <trkpt lat="28.7733180" lon="-17.9290430">
        <ele>1406.5</ele>
        <time>2020-11-16T17:24:40Z</time>
      </trkpt>
      <trkpt lat="28.7732900" lon="-17.9290520">
        <ele>1406.5</ele>
        <time>2020-11-16T17:24:41Z</time>
      </trkpt>
      <trkpt lat="28.7732900" lon="-17.9290520">
        <ele>1406.5</ele>
        <time>2020-11-16T17:24:42Z</time>
      </trkpt>
      <trkpt lat="28.7732250" lon="-17.9290750">
        <ele>1406.3</ele>
        <time>2020-11-16T17:24:43Z</time>
      </trkpt>
      <trkpt lat="28.7731850" lon="-17.9290920">
        <ele>1406.1</ele>
        <time>2020-11-16T17:24:44Z</time>
      </trkpt>
      <trkpt lat="28.7731850" lon="-17.9290920">
        <ele>1406.1</ele>
        <time>2020-11-16T17:24:45Z</time>
      </trkpt>
      <trkpt lat="28.7731270" lon="-17.9291370">
        <ele>1405.8</ele>
        <time>2020-11-16T17:24:46Z</time>
      </trkpt>
      <trkpt lat="28.7730980" lon="-17.9291750">
        <ele>1405.7</ele>
        <time>2020-11-16T17:24:47Z</time>
      </trkpt>
      <trkpt lat="28.7730980" lon="-17.9291750">
        <ele>1405.7</ele>
        <time>2020-11-16T17:24:48Z</time>
      </trkpt>
      <trkpt lat="28.7730580" lon="-17.9292920">
        <ele>1405.5</ele>
        <time>2020-11-16T17:24:49Z</time>
      </trkpt>
      <trkpt lat="28.7730520" lon="-17.9293500">
        <ele>1405.4</ele>
        <time>2020-11-16T17:24:50Z</time>
      </trkpt>
      <trkpt lat="28.7730520" lon="-17.9293500">
        <ele>1405.4</ele>
        <time>2020-11-16T17:24:51Z</time>
      </trkpt>
      <trkpt lat="28.7730550" lon="-17.9294320">
        <ele>1405.3</ele>
        <time>2020-11-16T17:24:52Z</time>
      </trkpt>
      <trkpt lat="28.7730550" lon="-17.9294320">
        <ele>1405.3</ele>
        <time>2020-11-16T17:24:53Z</time>
      </trkpt>
      <trkpt lat="28.7730680" lon="-17.9294950">
        <ele>1405.3</ele>
        <time>2020-11-16T17:24:54Z</time>
      </trkpt>
      <trkpt lat="28.7730680" lon="-17.9294950">
        <ele>1405.3</ele>
        <time>2020-11-16T17:24:55Z</time>
      </trkpt>
      <trkpt lat="28.7730820" lon="-17.9295600">
        <ele>1405.3</ele>
        <time>2020-11-16T17:24:56Z</time>
      </trkpt>
      <trkpt lat="28.7730820" lon="-17.9295600">
        <ele>1405.3</ele>
        <time>2020-11-16T17:24:57Z</time>
      </trkpt>
      <trkpt lat="28.7730870" lon="-17.9296320">
        <ele>1405.3</ele>
        <time>2020-11-16T17:24:58Z</time>
      </trkpt>
      <trkpt lat="28.7730870" lon="-17.9296320">
        <ele>1405.3</ele>
        <time>2020-11-16T17:24:59Z</time>
      </trkpt>
      <trkpt lat="28.7730880" lon="-17.9296880">
        <ele>1405.3</ele>
        <time>2020-11-16T17:25:00Z</time>
      </trkpt>
      <trkpt lat="28.7730880" lon="-17.9296880">
        <ele>1405.3</ele>
        <time>2020-11-16T17:25:01Z</time>
      </trkpt>
      <trkpt lat="28.7730900" lon="-17.9297230">
        <ele>1405.3</ele>
        <time>2020-11-16T17:25:02Z</time>
      </trkpt>
      <trkpt lat="28.7730900" lon="-17.9297230">
        <ele>1405.3</ele>
        <time>2020-11-16T17:25:03Z</time>
      </trkpt>
      <trkpt lat="28.7730600" lon="-17.9297820">
        <ele>1405.2</ele>
        <time>2020-11-16T17:25:04Z</time>
      </trkpt>
      <trkpt lat="28.7730600" lon="-17.9297820">
        <ele>1405.2</ele>
        <time>2020-11-16T17:25:05Z</time>
      </trkpt>
      <trkpt lat="28.7730180" lon="-17.9298530">
        <ele>1405.0</ele>
        <time>2020-11-16T17:25:06Z</time>
      </trkpt>
      <trkpt lat="28.7730180" lon="-17.9298530">
        <ele>1405.0</ele>
        <time>2020-11-16T17:25:07Z</time>
      </trkpt>
      <trkpt lat="28.7729550" lon="-17.9298920">
        <ele>1404.6</ele>
        <time>2020-11-16T17:25:08Z</time>
      </trkpt>
      <trkpt lat="28.7729550" lon="-17.9298920">
        <ele>1404.6</ele>
        <time>2020-11-16T17:25:09Z</time>
      </trkpt>
      <trkpt lat="28.7728900" lon="-17.9298920">
        <ele>1404.1</ele>
        <time>2020-11-16T17:25:10Z</time>
      </trkpt>
      <trkpt lat="28.7728900" lon="-17.9298920">
        <ele>1404.1</ele>
        <time>2020-11-16T17:25:11Z</time>
      </trkpt>
      <trkpt lat="28.7728280" lon="-17.9298820">
        <ele>1403.6</ele>
        <time>2020-11-16T17:25:12Z</time>
      </trkpt>
      <trkpt lat="28.7728280" lon="-17.9298820">
        <ele>1403.6</ele>
        <time>2020-11-16T17:25:13Z</time>
      </trkpt>
      <trkpt lat="28.7727700" lon="-17.9298550">
        <ele>1403.1</ele>
        <time>2020-11-16T17:25:14Z</time>
      </trkpt>
      <trkpt lat="28.7727700" lon="-17.9298550">
        <ele>1403.1</ele>
        <time>2020-11-16T17:25:15Z</time>
      </trkpt>
      <trkpt lat="28.7727230" lon="-17.9298600">
        <ele>1402.7</ele>
        <time>2020-11-16T17:25:16Z</time>
      </trkpt>
      <trkpt lat="28.7727230" lon="-17.9298600">
        <ele>1402.7</ele>
        <time>2020-11-16T17:25:17Z</time>
      </trkpt>
      <trkpt lat="28.7726520" lon="-17.9298370">
        <ele>1402.2</ele>
        <time>2020-11-16T17:25:18Z</time>
      </trkpt>
      <trkpt lat="28.7726520" lon="-17.9298370">
        <ele>1402.2</ele>
        <time>2020-11-16T17:25:19Z</time>
      </trkpt>
      <trkpt lat="28.7725830" lon="-17.9298030">
        <ele>1401.6</ele>
        <time>2020-11-16T17:25:20Z</time>
      </trkpt>
      <trkpt lat="28.7725830" lon="-17.9298030">
        <ele>1401.6</ele>
        <time>2020-11-16T17:25:21Z</time>
      </trkpt>
      <trkpt lat="28.7725230" lon="-17.9297580">
        <ele>1401.0</ele>
        <time>2020-11-16T17:25:22Z</time>
      </trkpt>
      <trkpt lat="28.7725230" lon="-17.9297580">
        <ele>1401.0</ele>
        <time>2020-11-16T17:25:23Z</time>
      </trkpt>
      <trkpt lat="28.7724630" lon="-17.9297180">
        <ele>1400.4</ele>
        <time>2020-11-16T17:25:24Z</time>
      </trkpt>
      <trkpt lat="28.7724350" lon="-17.9297020">
        <ele>1400.2</ele>
        <time>2020-11-16T17:25:25Z</time>
      </trkpt>
      <trkpt lat="28.7724030" lon="-17.9296900">
        <ele>1399.9</ele>
        <time>2020-11-16T17:25:26Z</time>
      </trkpt>
      <trkpt lat="28.7724030" lon="-17.9296900">
        <ele>1399.9</ele>
        <time>2020-11-16T17:25:27Z</time>
      </trkpt>
      <trkpt lat="28.7723320" lon="-17.9296650">
        <ele>1399.3</ele>
        <time>2020-11-16T17:25:28Z</time>
      </trkpt>
      <trkpt lat="28.7723320" lon="-17.9296650">
        <ele>1399.3</ele>
        <time>2020-11-16T17:25:29Z</time>
      </trkpt>
      <trkpt lat="28.7722580" lon="-17.9296930">
        <ele>1398.7</ele>
        <time>2020-11-16T17:25:30Z</time>
      </trkpt>
      <trkpt lat="28.7722580" lon="-17.9296930">
        <ele>1398.7</ele>
        <time>2020-11-16T17:25:31Z</time>
      </trkpt>
      <trkpt lat="28.7722030" lon="-17.9297620">
        <ele>1398.1</ele>
        <time>2020-11-16T17:25:32Z</time>
      </trkpt>
      <trkpt lat="28.7722030" lon="-17.9297620">
        <ele>1398.1</ele>
        <time>2020-11-16T17:25:33Z</time>
      </trkpt>
      <trkpt lat="28.7721530" lon="-17.9298600">
        <ele>1397.3</ele>
        <time>2020-11-16T17:25:34Z</time>
      </trkpt>
      <trkpt lat="28.7721270" lon="-17.9299070">
        <ele>1396.9</ele>
        <time>2020-11-16T17:25:35Z</time>
      </trkpt>
      <trkpt lat="28.7720970" lon="-17.9299530">
        <ele>1396.5</ele>
        <time>2020-11-16T17:25:36Z</time>
      </trkpt>
      <trkpt lat="28.7720970" lon="-17.9299530">
        <ele>1396.5</ele>
        <time>2020-11-16T17:25:37Z</time>
      </trkpt>
      <trkpt lat="28.7720570" lon="-17.9300270">
        <ele>1395.9</ele>
        <time>2020-11-16T17:25:38Z</time>
      </trkpt>
      <trkpt lat="28.7720570" lon="-17.9300270">
        <ele>1395.9</ele>
        <time>2020-11-16T17:25:39Z</time>
      </trkpt>
      <trkpt lat="28.7720200" lon="-17.9300900">
        <ele>1395.4</ele>
        <time>2020-11-16T17:25:40Z</time>
      </trkpt>
      <trkpt lat="28.7720200" lon="-17.9300900">
        <ele>1395.4</ele>
        <time>2020-11-16T17:25:41Z</time>
      </trkpt>
      <trkpt lat="28.7719750" lon="-17.9301350">
        <ele>1394.9</ele>
        <time>2020-11-16T17:25:42Z</time>
      </trkpt>
      <trkpt lat="28.7719470" lon="-17.9301420">
        <ele>1394.7</ele>
        <time>2020-11-16T17:25:43Z</time>
      </trkpt>
      <trkpt lat="28.7719470" lon="-17.9301420">
        <ele>1394.7</ele>
        <time>2020-11-16T17:25:44Z</time>
      </trkpt>
      <trkpt lat="28.7718970" lon="-17.9301500">
        <ele>1394.3</ele>
        <time>2020-11-16T17:25:45Z</time>
      </trkpt>
      <trkpt lat="28.7718970" lon="-17.9301500">
        <ele>1394.3</ele>
        <time>2020-11-16T17:25:46Z</time>
      </trkpt>
      <trkpt lat="28.7718550" lon="-17.9301550">
        <ele>1394.0</ele>
        <time>2020-11-16T17:25:47Z</time>
      </trkpt>
      <trkpt lat="28.7718550" lon="-17.9301550">
        <ele>1394.0</ele>
        <time>2020-11-16T17:25:48Z</time>
      </trkpt>
      <trkpt lat="28.7718070" lon="-17.9301070">
        <ele>1393.5</ele>
        <time>2020-11-16T17:25:49Z</time>
      </trkpt>
      <trkpt lat="28.7717830" lon="-17.9300750">
        <ele>1393.2</ele>
        <time>2020-11-16T17:25:50Z</time>
      </trkpt>
      <trkpt lat="28.7717830" lon="-17.9300750">
        <ele>1393.2</ele>
        <time>2020-11-16T17:25:51Z</time>
      </trkpt>
      <trkpt lat="28.7717250" lon="-17.9300170">
        <ele>1392.6</ele>
        <time>2020-11-16T17:25:52Z</time>
      </trkpt>
      <trkpt lat="28.7717250" lon="-17.9300170">
        <ele>1392.6</ele>
        <time>2020-11-16T17:25:53Z</time>
      </trkpt>
      <trkpt lat="28.7716720" lon="-17.9299530">
        <ele>1392.0</ele>
        <time>2020-11-16T17:25:54Z</time>
      </trkpt>
      <trkpt lat="28.7716720" lon="-17.9299530">
        <ele>1392.0</ele>
        <time>2020-11-16T17:25:55Z</time>
      </trkpt>
      <trkpt lat="28.7716170" lon="-17.9298770">
        <ele>1391.3</ele>
        <time>2020-11-16T17:25:56Z</time>
      </trkpt>
      <trkpt lat="28.7716170" lon="-17.9298770">
        <ele>1391.3</ele>
        <time>2020-11-16T17:25:57Z</time>
      </trkpt>
      <trkpt lat="28.7715370" lon="-17.9297980">
        <ele>1390.4</ele>
        <time>2020-11-16T17:25:58Z</time>
      </trkpt>
      <trkpt lat="28.7715370" lon="-17.9297980">
        <ele>1390.4</ele>
        <time>2020-11-16T17:25:59Z</time>
      </trkpt>
      <trkpt lat="28.7714520" lon="-17.9297280">
        <ele>1389.6</ele>
        <time>2020-11-16T17:26:00Z</time>
      </trkpt>
      <trkpt lat="28.7714520" lon="-17.9297280">
        <ele>1389.6</ele>
        <time>2020-11-16T17:26:01Z</time>
      </trkpt>
      <trkpt lat="28.7713520" lon="-17.9297020">
        <ele>1388.8</ele>
        <time>2020-11-16T17:26:02Z</time>
      </trkpt>
      <trkpt lat="28.7713520" lon="-17.9297020">
        <ele>1388.8</ele>
        <time>2020-11-16T17:26:03Z</time>
      </trkpt>
      <trkpt lat="28.7712780" lon="-17.9297130">
        <ele>1388.2</ele>
        <time>2020-11-16T17:26:04Z</time>
      </trkpt>
      <trkpt lat="28.7712780" lon="-17.9297130">
        <ele>1388.2</ele>
        <time>2020-11-16T17:26:05Z</time>
      </trkpt>
      <trkpt lat="28.7712100" lon="-17.9297680">
        <ele>1387.6</ele>
        <time>2020-11-16T17:26:06Z</time>
      </trkpt>
      <trkpt lat="28.7712100" lon="-17.9297680">
        <ele>1387.6</ele>
        <time>2020-11-16T17:26:07Z</time>
      </trkpt>
      <trkpt lat="28.7711480" lon="-17.9298620">
        <ele>1386.8</ele>
        <time>2020-11-16T17:26:08Z</time>
      </trkpt>
      <trkpt lat="28.7711480" lon="-17.9298620">
        <ele>1386.8</ele>
        <time>2020-11-16T17:26:09Z</time>
      </trkpt>
      <trkpt lat="28.7711050" lon="-17.9299520">
        <ele>1386.0</ele>
        <time>2020-11-16T17:26:10Z</time>
      </trkpt>
      <trkpt lat="28.7711050" lon="-17.9299520">
        <ele>1386.0</ele>
        <time>2020-11-16T17:26:11Z</time>
      </trkpt>
      <trkpt lat="28.7710550" lon="-17.9300770">
        <ele>1385.1</ele>
        <time>2020-11-16T17:26:12Z</time>
      </trkpt>
      <trkpt lat="28.7710550" lon="-17.9300770">
        <ele>1385.1</ele>
        <time>2020-11-16T17:26:13Z</time>
      </trkpt>
      <trkpt lat="28.7710000" lon="-17.9301980">
        <ele>1384.2</ele>
        <time>2020-11-16T17:26:14Z</time>
      </trkpt>
      <trkpt lat="28.7710000" lon="-17.9301980">
        <ele>1384.2</ele>
        <time>2020-11-16T17:26:15Z</time>
      </trkpt>
      <trkpt lat="28.7709470" lon="-17.9302970">
        <ele>1383.3</ele>
        <time>2020-11-16T17:26:16Z</time>
      </trkpt>
      <trkpt lat="28.7709470" lon="-17.9302970">
        <ele>1383.3</ele>
        <time>2020-11-16T17:26:17Z</time>
      </trkpt>
      <trkpt lat="28.7708920" lon="-17.9303950">
        <ele>1382.5</ele>
        <time>2020-11-16T17:26:18Z</time>
      </trkpt>
      <trkpt lat="28.7708920" lon="-17.9303950">
        <ele>1382.5</ele>
        <time>2020-11-16T17:26:19Z</time>
      </trkpt>
      <trkpt lat="28.7708450" lon="-17.9304750">
        <ele>1381.9</ele>
        <time>2020-11-16T17:26:20Z</time>
      </trkpt>
      <trkpt lat="28.7708450" lon="-17.9304750">
        <ele>1381.9</ele>
        <time>2020-11-16T17:26:21Z</time>
      </trkpt>
      <trkpt lat="28.7707780" lon="-17.9305270">
        <ele>1381.2</ele>
        <time>2020-11-16T17:26:22Z</time>
      </trkpt>
      <trkpt lat="28.7707780" lon="-17.9305270">
        <ele>1381.2</ele>
        <time>2020-11-16T17:26:23Z</time>
      </trkpt>
      <trkpt lat="28.7707080" lon="-17.9305630">
        <ele>1380.6</ele>
        <time>2020-11-16T17:26:24Z</time>
      </trkpt>
      <trkpt lat="28.7707080" lon="-17.9305630">
        <ele>1380.6</ele>
        <time>2020-11-16T17:26:25Z</time>
      </trkpt>
      <trkpt lat="28.7706280" lon="-17.9305530">
        <ele>1380.0</ele>
        <time>2020-11-16T17:26:26Z</time>
      </trkpt>
      <trkpt lat="28.7706280" lon="-17.9305530">
        <ele>1380.0</ele>
        <time>2020-11-16T17:26:27Z</time>
      </trkpt>
      <trkpt lat="28.7705730" lon="-17.9305220">
        <ele>1379.5</ele>
        <time>2020-11-16T17:26:28Z</time>
      </trkpt>
      <trkpt lat="28.7705730" lon="-17.9305220">
        <ele>1379.5</ele>
        <time>2020-11-16T17:26:29Z</time>
      </trkpt>
      <trkpt lat="28.7705200" lon="-17.9305130">
        <ele>1379.1</ele>
        <time>2020-11-16T17:26:30Z</time>
      </trkpt>
      <trkpt lat="28.7705200" lon="-17.9305130">
        <ele>1379.1</ele>
        <time>2020-11-16T17:26:31Z</time>
      </trkpt>
      <trkpt lat="28.7704570" lon="-17.9305380">
        <ele>1378.6</ele>
        <time>2020-11-16T17:26:32Z</time>
      </trkpt>
      <trkpt lat="28.7704570" lon="-17.9305380">
        <ele>1378.6</ele>
        <time>2020-11-16T17:26:33Z</time>
      </trkpt>
      <trkpt lat="28.7704030" lon="-17.9306000">
        <ele>1378.0</ele>
        <time>2020-11-16T17:26:34Z</time>
      </trkpt>
      <trkpt lat="28.7704030" lon="-17.9306000">
        <ele>1378.0</ele>
        <time>2020-11-16T17:26:35Z</time>
      </trkpt>
      <trkpt lat="28.7703580" lon="-17.9306770">
        <ele>1377.3</ele>
        <time>2020-11-16T17:26:36Z</time>
      </trkpt>
      <trkpt lat="28.7703580" lon="-17.9306770">
        <ele>1377.3</ele>
        <time>2020-11-16T17:26:37Z</time>
      </trkpt>
      <trkpt lat="28.7703130" lon="-17.9307720">
        <ele>1376.6</ele>
        <time>2020-11-16T17:26:38Z</time>
      </trkpt>
      <trkpt lat="28.7703130" lon="-17.9307720">
        <ele>1376.6</ele>
        <time>2020-11-16T17:26:39Z</time>
      </trkpt>
      <trkpt lat="28.7702630" lon="-17.9308630">
        <ele>1375.8</ele>
        <time>2020-11-16T17:26:40Z</time>
      </trkpt>
      <trkpt lat="28.7702320" lon="-17.9309030">
        <ele>1375.5</ele>
        <time>2020-11-16T17:26:41Z</time>
      </trkpt>
      <trkpt lat="28.7702320" lon="-17.9309030">
        <ele>1375.5</ele>
        <time>2020-11-16T17:26:42Z</time>
      </trkpt>
      <trkpt lat="28.7701720" lon="-17.9309800">
        <ele>1374.8</ele>
        <time>2020-11-16T17:26:43Z</time>
      </trkpt>
      <trkpt lat="28.7701420" lon="-17.9310150">
        <ele>1374.4</ele>
        <time>2020-11-16T17:26:44Z</time>
      </trkpt>
      <trkpt lat="28.7701420" lon="-17.9310150">
        <ele>1374.4</ele>
        <time>2020-11-16T17:26:45Z</time>
      </trkpt>
      <trkpt lat="28.7701130" lon="-17.9310800">
        <ele>1373.9</ele>
        <time>2020-11-16T17:26:46Z</time>
      </trkpt>
      <trkpt lat="28.7701130" lon="-17.9310800">
        <ele>1373.9</ele>
        <time>2020-11-16T17:26:47Z</time>
      </trkpt>
      <trkpt lat="28.7701400" lon="-17.9311450">
        <ele>1373.4</ele>
        <time>2020-11-16T17:26:48Z</time>
      </trkpt>
      <trkpt lat="28.7701400" lon="-17.9311450">
        <ele>1373.4</ele>
        <time>2020-11-16T17:26:49Z</time>
      </trkpt>
      <trkpt lat="28.7702050" lon="-17.9311650">
        <ele>1372.9</ele>
        <time>2020-11-16T17:26:50Z</time>
      </trkpt>
      <trkpt lat="28.7702050" lon="-17.9311650">
        <ele>1372.9</ele>
        <time>2020-11-16T17:26:51Z</time>
      </trkpt>
      <trkpt lat="28.7702670" lon="-17.9311270">
        <ele>1372.3</ele>
        <time>2020-11-16T17:26:52Z</time>
      </trkpt>
      <trkpt lat="28.7702670" lon="-17.9311270">
        <ele>1372.3</ele>
        <time>2020-11-16T17:26:53Z</time>
      </trkpt>
      <trkpt lat="28.7703070" lon="-17.9310600">
        <ele>1371.8</ele>
        <time>2020-11-16T17:26:54Z</time>
      </trkpt>
      <trkpt lat="28.7703070" lon="-17.9310600">
        <ele>1371.8</ele>
        <time>2020-11-16T17:26:55Z</time>
      </trkpt>
      <trkpt lat="28.7703400" lon="-17.9309930">
        <ele>1371.2</ele>
        <time>2020-11-16T17:26:56Z</time>
      </trkpt>
      <trkpt lat="28.7703400" lon="-17.9309930">
        <ele>1371.2</ele>
        <time>2020-11-16T17:26:57Z</time>
      </trkpt>
      <trkpt lat="28.7703730" lon="-17.9309200">
        <ele>1370.7</ele>
        <time>2020-11-16T17:26:58Z</time>
      </trkpt>
      <trkpt lat="28.7703730" lon="-17.9309200">
        <ele>1370.7</ele>
        <time>2020-11-16T17:26:59Z</time>
      </trkpt>
      <trkpt lat="28.7704100" lon="-17.9308530">
        <ele>1370.1</ele>
        <time>2020-11-16T17:27:00Z</time>
      </trkpt>
      <trkpt lat="28.7704100" lon="-17.9308530">
        <ele>1370.1</ele>
        <time>2020-11-16T17:27:01Z</time>
      </trkpt>
      <trkpt lat="28.7704580" lon="-17.9307980">
        <ele>1369.6</ele>
        <time>2020-11-16T17:27:02Z</time>
      </trkpt>
      <trkpt lat="28.7704580" lon="-17.9307980">
        <ele>1369.6</ele>
        <time>2020-11-16T17:27:03Z</time>
      </trkpt>
      <trkpt lat="28.7705330" lon="-17.9307750">
        <ele>1369.0</ele>
        <time>2020-11-16T17:27:04Z</time>
      </trkpt>
      <trkpt lat="28.7705330" lon="-17.9307750">
        <ele>1369.0</ele>
        <time>2020-11-16T17:27:05Z</time>
      </trkpt>
      <trkpt lat="28.7706100" lon="-17.9308000">
        <ele>1368.3</ele>
        <time>2020-11-16T17:27:06Z</time>
      </trkpt>
      <trkpt lat="28.7706100" lon="-17.9308000">
        <ele>1368.3</ele>
        <time>2020-11-16T17:27:07Z</time>
      </trkpt>
      <trkpt lat="28.7706670" lon="-17.9308430">
        <ele>1367.8</ele>
        <time>2020-11-16T17:27:08Z</time>
      </trkpt>
      <trkpt lat="28.7706670" lon="-17.9308430">
        <ele>1367.8</ele>
        <time>2020-11-16T17:27:09Z</time>
      </trkpt>
      <trkpt lat="28.7707030" lon="-17.9309020">
        <ele>1367.3</ele>
        <time>2020-11-16T17:27:10Z</time>
      </trkpt>
      <trkpt lat="28.7707030" lon="-17.9309020">
        <ele>1367.3</ele>
        <time>2020-11-16T17:27:11Z</time>
      </trkpt>
      <trkpt lat="28.7707620" lon="-17.9309170">
        <ele>1366.8</ele>
        <time>2020-11-16T17:27:12Z</time>
      </trkpt>
      <trkpt lat="28.7707620" lon="-17.9309170">
        <ele>1366.8</ele>
        <time>2020-11-16T17:27:13Z</time>
      </trkpt>
      <trkpt lat="28.7708400" lon="-17.9308950">
        <ele>1366.2</ele>
        <time>2020-11-16T17:27:14Z</time>
      </trkpt>
      <trkpt lat="28.7708400" lon="-17.9308950">
        <ele>1366.2</ele>
        <time>2020-11-16T17:27:15Z</time>
      </trkpt>
      <trkpt lat="28.7709000" lon="-17.9308450">
        <ele>1365.6</ele>
        <time>2020-11-16T17:27:16Z</time>
      </trkpt>
      <trkpt lat="28.7709000" lon="-17.9308450">
        <ele>1365.6</ele>
        <time>2020-11-16T17:27:17Z</time>
      </trkpt>
      <trkpt lat="28.7709520" lon="-17.9307920">
        <ele>1365.1</ele>
        <time>2020-11-16T17:27:18Z</time>
      </trkpt>
      <trkpt lat="28.7709520" lon="-17.9307920">
        <ele>1365.1</ele>
        <time>2020-11-16T17:27:19Z</time>
      </trkpt>
      <trkpt lat="28.7709980" lon="-17.9307330">
        <ele>1364.5</ele>
        <time>2020-11-16T17:27:20Z</time>
      </trkpt>
      <trkpt lat="28.7709980" lon="-17.9307330">
        <ele>1364.5</ele>
        <time>2020-11-16T17:27:21Z</time>
      </trkpt>
      <trkpt lat="28.7710600" lon="-17.9306830">
        <ele>1363.9</ele>
        <time>2020-11-16T17:27:22Z</time>
      </trkpt>
      <trkpt lat="28.7710600" lon="-17.9306830">
        <ele>1363.9</ele>
        <time>2020-11-16T17:27:23Z</time>
      </trkpt>
      <trkpt lat="28.7711200" lon="-17.9306350">
        <ele>1363.3</ele>
        <time>2020-11-16T17:27:24Z</time>
      </trkpt>
      <trkpt lat="28.7711200" lon="-17.9306350">
        <ele>1363.3</ele>
        <time>2020-11-16T17:27:25Z</time>
      </trkpt>
      <trkpt lat="28.7711800" lon="-17.9305850">
        <ele>1362.8</ele>
        <time>2020-11-16T17:27:26Z</time>
      </trkpt>
      <trkpt lat="28.7711800" lon="-17.9305850">
        <ele>1362.8</ele>
        <time>2020-11-16T17:27:27Z</time>
      </trkpt>
      <trkpt lat="28.7712500" lon="-17.9305250">
        <ele>1362.1</ele>
        <time>2020-11-16T17:27:28Z</time>
      </trkpt>
      <trkpt lat="28.7712500" lon="-17.9305250">
        <ele>1362.1</ele>
        <time>2020-11-16T17:27:29Z</time>
      </trkpt>
      <trkpt lat="28.7713200" lon="-17.9305120">
        <ele>1361.5</ele>
        <time>2020-11-16T17:27:30Z</time>
      </trkpt>
      <trkpt lat="28.7713200" lon="-17.9305120">
        <ele>1361.5</ele>
        <time>2020-11-16T17:27:31Z</time>
      </trkpt>
      <trkpt lat="28.7713850" lon="-17.9305450">
        <ele>1360.9</ele>
        <time>2020-11-16T17:27:32Z</time>
      </trkpt>
      <trkpt lat="28.7713850" lon="-17.9305450">
        <ele>1360.9</ele>
        <time>2020-11-16T17:27:33Z</time>
      </trkpt>
      <trkpt lat="28.7714450" lon="-17.9306070">
        <ele>1360.3</ele>
        <time>2020-11-16T17:27:34Z</time>
      </trkpt>
      <trkpt lat="28.7714700" lon="-17.9306430">
        <ele>1360.0</ele>
        <time>2020-11-16T17:27:35Z</time>
      </trkpt>
      <trkpt lat="28.7714700" lon="-17.9306430">
        <ele>1360.0</ele>
        <time>2020-11-16T17:27:36Z</time>
      </trkpt>
      <trkpt lat="28.7715080" lon="-17.9307600">
        <ele>1359.1</ele>
        <time>2020-11-16T17:27:37Z</time>
      </trkpt>
      <trkpt lat="28.7715080" lon="-17.9307600">
        <ele>1359.1</ele>
        <time>2020-11-16T17:27:38Z</time>
      </trkpt>
      <trkpt lat="28.7715570" lon="-17.9308670">
        <ele>1358.3</ele>
        <time>2020-11-16T17:27:39Z</time>
      </trkpt>
      <trkpt lat="28.7715570" lon="-17.9308670">
        <ele>1358.3</ele>
        <time>2020-11-16T17:27:40Z</time>
      </trkpt>
      <trkpt lat="28.7716030" lon="-17.9309530">
        <ele>1357.6</ele>
        <time>2020-11-16T17:27:41Z</time>
      </trkpt>
      <trkpt lat="28.7716030" lon="-17.9309530">
        <ele>1357.6</ele>
        <time>2020-11-16T17:27:42Z</time>
      </trkpt>
      <trkpt lat="28.7716430" lon="-17.9310400">
        <ele>1356.9</ele>
        <time>2020-11-16T17:27:43Z</time>
      </trkpt>
      <trkpt lat="28.7716430" lon="-17.9310400">
        <ele>1356.9</ele>
        <time>2020-11-16T17:27:44Z</time>
      </trkpt>
      <trkpt lat="28.7716820" lon="-17.9311370">
        <ele>1356.2</ele>
        <time>2020-11-16T17:27:45Z</time>
      </trkpt>
      <trkpt lat="28.7716820" lon="-17.9311370">
        <ele>1356.2</ele>
        <time>2020-11-16T17:27:46Z</time>
      </trkpt>
      <trkpt lat="28.7717300" lon="-17.9312350">
        <ele>1355.4</ele>
        <time>2020-11-16T17:27:47Z</time>
      </trkpt>
      <trkpt lat="28.7717300" lon="-17.9312350">
        <ele>1355.4</ele>
        <time>2020-11-16T17:27:48Z</time>
      </trkpt>
      <trkpt lat="28.7718200" lon="-17.9313130">
        <ele>1354.5</ele>
        <time>2020-11-16T17:27:49Z</time>
      </trkpt>
      <trkpt lat="28.7718200" lon="-17.9313130">
        <ele>1354.5</ele>
        <time>2020-11-16T17:27:50Z</time>
      </trkpt>
      <trkpt lat="28.7719370" lon="-17.9313720">
        <ele>1353.5</ele>
        <time>2020-11-16T17:27:51Z</time>
      </trkpt>
      <trkpt lat="28.7719370" lon="-17.9313720">
        <ele>1353.5</ele>
        <time>2020-11-16T17:27:52Z</time>
      </trkpt>
      <trkpt lat="28.7720320" lon="-17.9313730">
        <ele>1352.7</ele>
        <time>2020-11-16T17:27:53Z</time>
      </trkpt>
      <trkpt lat="28.7720320" lon="-17.9313730">
        <ele>1352.7</ele>
        <time>2020-11-16T17:27:54Z</time>
      </trkpt>
      <trkpt lat="28.7721000" lon="-17.9313300">
        <ele>1352.1</ele>
        <time>2020-11-16T17:27:55Z</time>
      </trkpt>
      <trkpt lat="28.7721280" lon="-17.9312950">
        <ele>1351.8</ele>
        <time>2020-11-16T17:27:56Z</time>
      </trkpt>
      <trkpt lat="28.7721280" lon="-17.9312950">
        <ele>1351.8</ele>
        <time>2020-11-16T17:27:57Z</time>
      </trkpt>
      <trkpt lat="28.7721680" lon="-17.9312120">
        <ele>1351.2</ele>
        <time>2020-11-16T17:27:58Z</time>
      </trkpt>
      <trkpt lat="28.7721680" lon="-17.9312120">
        <ele>1351.2</ele>
        <time>2020-11-16T17:27:59Z</time>
      </trkpt>
      <trkpt lat="28.7721980" lon="-17.9311300">
        <ele>1350.5</ele>
        <time>2020-11-16T17:28:00Z</time>
      </trkpt>
      <trkpt lat="28.7721980" lon="-17.9311300">
        <ele>1350.5</ele>
        <time>2020-11-16T17:28:01Z</time>
      </trkpt>
      <trkpt lat="28.7722270" lon="-17.9310580">
        <ele>1350.0</ele>
        <time>2020-11-16T17:28:02Z</time>
      </trkpt>
      <trkpt lat="28.7722420" lon="-17.9310230">
        <ele>1349.7</ele>
        <time>2020-11-16T17:28:03Z</time>
      </trkpt>
      <trkpt lat="28.7722420" lon="-17.9310230">
        <ele>1349.7</ele>
        <time>2020-11-16T17:28:04Z</time>
      </trkpt>
      <trkpt lat="28.7722720" lon="-17.9309580">
        <ele>1349.2</ele>
        <time>2020-11-16T17:28:05Z</time>
      </trkpt>
      <trkpt lat="28.7722720" lon="-17.9309580">
        <ele>1349.2</ele>
        <time>2020-11-16T17:28:06Z</time>
      </trkpt>
      <trkpt lat="28.7723050" lon="-17.9308950">
        <ele>1348.7</ele>
        <time>2020-11-16T17:28:07Z</time>
      </trkpt>
      <trkpt lat="28.7723050" lon="-17.9308950">
        <ele>1348.7</ele>
        <time>2020-11-16T17:28:08Z</time>
      </trkpt>
      <trkpt lat="28.7723630" lon="-17.9308580">
        <ele>1348.2</ele>
        <time>2020-11-16T17:28:09Z</time>
      </trkpt>
      <trkpt lat="28.7723630" lon="-17.9308580">
        <ele>1348.2</ele>
        <time>2020-11-16T17:28:10Z</time>
      </trkpt>
      <trkpt lat="28.7724320" lon="-17.9308780">
        <ele>1347.6</ele>
        <time>2020-11-16T17:28:11Z</time>
      </trkpt>
      <trkpt lat="28.7724650" lon="-17.9309000">
        <ele>1347.3</ele>
        <time>2020-11-16T17:28:12Z</time>
      </trkpt>
      <trkpt lat="28.7724650" lon="-17.9309000">
        <ele>1347.3</ele>
        <time>2020-11-16T17:28:13Z</time>
      </trkpt>
      <trkpt lat="28.7725150" lon="-17.9309520">
        <ele>1346.8</ele>
        <time>2020-11-16T17:28:14Z</time>
      </trkpt>
      <trkpt lat="28.7725150" lon="-17.9309520">
        <ele>1346.8</ele>
        <time>2020-11-16T17:28:15Z</time>
      </trkpt>
      <trkpt lat="28.7725630" lon="-17.9310180">
        <ele>1346.2</ele>
        <time>2020-11-16T17:28:16Z</time>
      </trkpt>
      <trkpt lat="28.7725630" lon="-17.9310180">
        <ele>1346.2</ele>
        <time>2020-11-16T17:28:17Z</time>
      </trkpt>
      <trkpt lat="28.7726170" lon="-17.9310900">
        <ele>1345.5</ele>
        <time>2020-11-16T17:28:18Z</time>
      </trkpt>
      <trkpt lat="28.7726170" lon="-17.9310900">
        <ele>1345.5</ele>
        <time>2020-11-16T17:28:19Z</time>
      </trkpt>
      <trkpt lat="28.7726770" lon="-17.9311700">
        <ele>1344.8</ele>
        <time>2020-11-16T17:28:20Z</time>
      </trkpt>
      <trkpt lat="28.7726770" lon="-17.9311700">
        <ele>1344.8</ele>
        <time>2020-11-16T17:28:21Z</time>
      </trkpt>
      <trkpt lat="28.7727380" lon="-17.9312370">
        <ele>1344.1</ele>
        <time>2020-11-16T17:28:22Z</time>
      </trkpt>
      <trkpt lat="28.7727380" lon="-17.9312370">
        <ele>1344.1</ele>
        <time>2020-11-16T17:28:23Z</time>
      </trkpt>
      <trkpt lat="28.7727920" lon="-17.9313250">
        <ele>1343.4</ele>
        <time>2020-11-16T17:28:24Z</time>
      </trkpt>
      <trkpt lat="28.7728170" lon="-17.9313650">
        <ele>1343.1</ele>
        <time>2020-11-16T17:28:25Z</time>
      </trkpt>
      <trkpt lat="28.7728430" lon="-17.9314080">
        <ele>1342.7</ele>
        <time>2020-11-16T17:28:26Z</time>
      </trkpt>
      <trkpt lat="28.7728430" lon="-17.9314080">
        <ele>1342.7</ele>
        <time>2020-11-16T17:28:27Z</time>
      </trkpt>
      <trkpt lat="28.7729180" lon="-17.9314330">
        <ele>1342.1</ele>
        <time>2020-11-16T17:28:28Z</time>
      </trkpt>
      <trkpt lat="28.7729180" lon="-17.9314330">
        <ele>1342.1</ele>
        <time>2020-11-16T17:28:29Z</time>
      </trkpt>
      <trkpt lat="28.7729950" lon="-17.9314200">
        <ele>1341.5</ele>
        <time>2020-11-16T17:28:30Z</time>
      </trkpt>
      <trkpt lat="28.7730250" lon="-17.9314100">
        <ele>1341.2</ele>
        <time>2020-11-16T17:28:31Z</time>
      </trkpt>
      <trkpt lat="28.7730250" lon="-17.9314100">
        <ele>1341.2</ele>
        <time>2020-11-16T17:28:32Z</time>
      </trkpt>
      <trkpt lat="28.7730880" lon="-17.9313830">
        <ele>1340.7</ele>
        <time>2020-11-16T17:28:33Z</time>
      </trkpt>
      <trkpt lat="28.7730880" lon="-17.9313830">
        <ele>1340.7</ele>
        <time>2020-11-16T17:28:34Z</time>
      </trkpt>
      <trkpt lat="28.7731480" lon="-17.9313780">
        <ele>1340.2</ele>
        <time>2020-11-16T17:28:35Z</time>
      </trkpt>
      <trkpt lat="28.7731480" lon="-17.9313780">
        <ele>1340.2</ele>
        <time>2020-11-16T17:28:36Z</time>
      </trkpt>
      <trkpt lat="28.7731850" lon="-17.9313780">
        <ele>1339.9</ele>
        <time>2020-11-16T17:28:37Z</time>
      </trkpt>
      <trkpt lat="28.7731850" lon="-17.9313780">
        <ele>1339.9</ele>
        <time>2020-11-16T17:28:38Z</time>
      </trkpt>
      <trkpt lat="28.7731900" lon="-17.9313780">
        <ele>1339.9</ele>
        <time>2020-11-16T17:28:39Z</time>
      </trkpt>
      <trkpt lat="28.7731900" lon="-17.9313780">
        <ele>1339.9</ele>
        <time>2020-11-16T17:28:43Z</time>
      </trkpt>
      <trkpt lat="28.7731900" lon="-17.9313780">
        <ele>1339.9</ele>
        <time>2020-11-16T17:28:44Z</time>
      </trkpt>
      <trkpt lat="28.7733100" lon="-17.9314080">
        <ele>1338.9</ele>
        <time>2020-11-16T17:28:45Z</time>
      </trkpt>
      <trkpt lat="28.7733100" lon="-17.9314080">
        <ele>1338.9</ele>
        <time>2020-11-16T17:28:46Z</time>
      </trkpt>
      <trkpt lat="28.7733650" lon="-17.9314420">
        <ele>1338.4</ele>
        <time>2020-11-16T17:28:47Z</time>
      </trkpt>
      <trkpt lat="28.7733920" lon="-17.9314650">
        <ele>1338.2</ele>
        <time>2020-11-16T17:28:48Z</time>
      </trkpt>
      <trkpt lat="28.7733920" lon="-17.9314650">
        <ele>1338.2</ele>
        <time>2020-11-16T17:28:49Z</time>
      </trkpt>
      <trkpt lat="28.7734300" lon="-17.9315230">
        <ele>1337.7</ele>
        <time>2020-11-16T17:28:50Z</time>
      </trkpt>
      <trkpt lat="28.7734300" lon="-17.9315230">
        <ele>1337.7</ele>
        <time>2020-11-16T17:28:51Z</time>
      </trkpt>
      <trkpt lat="28.7734520" lon="-17.9315770">
        <ele>1337.2</ele>
        <time>2020-11-16T17:28:52Z</time>
      </trkpt>
      <trkpt lat="28.7734520" lon="-17.9315770">
        <ele>1336.9</ele>
        <time>2020-11-16T17:28:53Z</time>
      </trkpt>
      <trkpt lat="28.7734480" lon="-17.9316170">
        <ele>1336.7</ele>
        <time>2020-11-16T17:28:54Z</time>
      </trkpt>
      <trkpt lat="28.7734480" lon="-17.9316170">
        <ele>1336.7</ele>
        <time>2020-11-16T17:28:55Z</time>
      </trkpt>
      <trkpt lat="28.7734130" lon="-17.9316550">
        <ele>1336.4</ele>
        <time>2020-11-16T17:28:56Z</time>
      </trkpt>
      <trkpt lat="28.7734130" lon="-17.9316550">
        <ele>1336.4</ele>
        <time>2020-11-16T17:28:57Z</time>
      </trkpt>
      <trkpt lat="28.7733650" lon="-17.9316600">
        <ele>1336.2</ele>
        <time>2020-11-16T17:28:58Z</time>
      </trkpt>
      <trkpt lat="28.7733650" lon="-17.9316600">
        <ele>1336.2</ele>
        <time>2020-11-16T17:28:59Z</time>
      </trkpt>
      <trkpt lat="28.7733250" lon="-17.9316220">
        <ele>1335.9</ele>
        <time>2020-11-16T17:29:00Z</time>
      </trkpt>
      <trkpt lat="28.7733250" lon="-17.9316220">
        <ele>1335.9</ele>
        <time>2020-11-16T17:29:01Z</time>
      </trkpt>
      <trkpt lat="28.7732850" lon="-17.9315830">
        <ele>1335.6</ele>
        <time>2020-11-16T17:29:02Z</time>
      </trkpt>
      <trkpt lat="28.7732850" lon="-17.9315830">
        <ele>1335.6</ele>
        <time>2020-11-16T17:29:03Z</time>
      </trkpt>
      <trkpt lat="28.7732300" lon="-17.9315570">
        <ele>1335.4</ele>
        <time>2020-11-16T17:29:04Z</time>
      </trkpt>
      <trkpt lat="28.7731980" lon="-17.9315520">
        <ele>1335.3</ele>
        <time>2020-11-16T17:29:05Z</time>
      </trkpt>
      <trkpt lat="28.7731980" lon="-17.9315520">
        <ele>1335.3</ele>
        <time>2020-11-16T17:29:06Z</time>
      </trkpt>
      <trkpt lat="28.7731520" lon="-17.9315580">
        <ele>1335.1</ele>
        <time>2020-11-16T17:29:07Z</time>
      </trkpt>
      <trkpt lat="28.7731330" lon="-17.9315620">
        <ele>1335.0</ele>
        <time>2020-11-16T17:29:08Z</time>
      </trkpt>
      <trkpt lat="28.7731330" lon="-17.9315620">
        <ele>1335.0</ele>
        <time>2020-11-16T17:29:09Z</time>
      </trkpt>
      <trkpt lat="28.7730980" lon="-17.9315880">
        <ele>1334.9</ele>
        <time>2020-11-16T17:29:10Z</time>
      </trkpt>
      <trkpt lat="28.7730780" lon="-17.9316080">
        <ele>1334.8</ele>
        <time>2020-11-16T17:29:11Z</time>
      </trkpt>
      <trkpt lat="28.7730780" lon="-17.9316080">
        <ele>1334.8</ele>
        <time>2020-11-16T17:29:12Z</time>
      </trkpt>
      <trkpt lat="28.7730370" lon="-17.9316620">
        <ele>1334.6</ele>
        <time>2020-11-16T17:29:13Z</time>
      </trkpt>
      <trkpt lat="28.7730370" lon="-17.9316620">
        <ele>1334.6</ele>
        <time>2020-11-16T17:29:14Z</time>
      </trkpt>
      <trkpt lat="28.7729820" lon="-17.9317250">
        <ele>1334.6</ele>
        <time>2020-11-16T17:29:15Z</time>
      </trkpt>
      <trkpt lat="28.7729580" lon="-17.9317500">
        <ele>1334.5</ele>
        <time>2020-11-16T17:29:16Z</time>
      </trkpt>
      <trkpt lat="28.7729580" lon="-17.9317500">
        <ele>1334.5</ele>
        <time>2020-11-16T17:29:17Z</time>
      </trkpt>
      <trkpt lat="28.7729120" lon="-17.9317970">
        <ele>1334.5</ele>
        <time>2020-11-16T17:29:18Z</time>
      </trkpt>
      <trkpt lat="28.7729120" lon="-17.9317970">
        <ele>1334.5</ele>
        <time>2020-11-16T17:29:19Z</time>
      </trkpt>
      <trkpt lat="28.7728470" lon="-17.9318330">
        <ele>1334.4</ele>
        <time>2020-11-16T17:29:20Z</time>
      </trkpt>
      <trkpt lat="28.7728470" lon="-17.9318330">
        <ele>1334.4</ele>
        <time>2020-11-16T17:29:21Z</time>
      </trkpt>
      <trkpt lat="28.7727930" lon="-17.9318420">
        <ele>1334.3</ele>
        <time>2020-11-16T17:29:22Z</time>
      </trkpt>
      <trkpt lat="28.7727670" lon="-17.9318350">
        <ele>1334.2</ele>
        <time>2020-11-16T17:29:23Z</time>
      </trkpt>
      <trkpt lat="28.7727670" lon="-17.9318350">
        <ele>1334.2</ele>
        <time>2020-11-16T17:29:24Z</time>
      </trkpt>
      <trkpt lat="28.7727230" lon="-17.9317950">
        <ele>1334.1</ele>
        <time>2020-11-16T17:29:25Z</time>
      </trkpt>
      <trkpt lat="28.7727230" lon="-17.9317950">
        <ele>1334.1</ele>
        <time>2020-11-16T17:29:26Z</time>
      </trkpt>
      <trkpt lat="28.7727020" lon="-17.9317380">
        <ele>1334.0</ele>
        <time>2020-11-16T17:29:27Z</time>
      </trkpt>
      <trkpt lat="28.7726930" lon="-17.9317080">
        <ele>1334.0</ele>
        <time>2020-11-16T17:29:28Z</time>
      </trkpt>
      <trkpt lat="28.7726870" lon="-17.9316780">
        <ele>1333.9</ele>
        <time>2020-11-16T17:29:29Z</time>
      </trkpt>
      <trkpt lat="28.7726870" lon="-17.9316780">
        <ele>1333.9</ele>
        <time>2020-11-16T17:29:30Z</time>
      </trkpt>
      <trkpt lat="28.7726720" lon="-17.9316230">
        <ele>1333.8</ele>
        <time>2020-11-16T17:29:31Z</time>
      </trkpt>
      <trkpt lat="28.7726720" lon="-17.9316230">
        <ele>1333.8</ele>
        <time>2020-11-16T17:29:32Z</time>
      </trkpt>
      <trkpt lat="28.7726550" lon="-17.9315670">
        <ele>1333.6</ele>
        <time>2020-11-16T17:29:33Z</time>
      </trkpt>
      <trkpt lat="28.7726550" lon="-17.9315670">
        <ele>1333.6</ele>
        <time>2020-11-16T17:29:34Z</time>
      </trkpt>
      <trkpt lat="28.7726120" lon="-17.9315080">
        <ele>1333.4</ele>
        <time>2020-11-16T17:29:35Z</time>
      </trkpt>
      <trkpt lat="28.7726120" lon="-17.9315080">
        <ele>1333.4</ele>
        <time>2020-11-16T17:29:36Z</time>
      </trkpt>
      <trkpt lat="28.7725570" lon="-17.9314750">
        <ele>1333.2</ele>
        <time>2020-11-16T17:29:37Z</time>
      </trkpt>
      <trkpt lat="28.7725280" lon="-17.9314780">
        <ele>1333.1</ele>
        <time>2020-11-16T17:29:38Z</time>
      </trkpt>
      <trkpt lat="28.7725280" lon="-17.9314780">
        <ele>1333.1</ele>
        <time>2020-11-16T17:29:39Z</time>
      </trkpt>
      <trkpt lat="28.7724750" lon="-17.9315120">
        <ele>1333.0</ele>
        <time>2020-11-16T17:29:40Z</time>
      </trkpt>
      <trkpt lat="28.7724750" lon="-17.9315120">
        <ele>1333.0</ele>
        <time>2020-11-16T17:29:41Z</time>
      </trkpt>
      <trkpt lat="28.7724350" lon="-17.9315580">
        <ele>1332.8</ele>
        <time>2020-11-16T17:29:42Z</time>
      </trkpt>
      <trkpt lat="28.7724350" lon="-17.9315580">
        <ele>1332.8</ele>
        <time>2020-11-16T17:29:43Z</time>
      </trkpt>
      <trkpt lat="28.7723850" lon="-17.9315880">
        <ele>1332.6</ele>
        <time>2020-11-16T17:29:44Z</time>
      </trkpt>
      <trkpt lat="28.7723500" lon="-17.9316400">
        <ele>1332.3</ele>
        <time>2020-11-16T17:29:45Z</time>
      </trkpt>
      <trkpt lat="28.7723500" lon="-17.9316400">
        <ele>1332.3</ele>
        <time>2020-11-16T17:29:46Z</time>
      </trkpt>
      <trkpt lat="28.7722800" lon="-17.9317120">
        <ele>1332.1</ele>
        <time>2020-11-16T17:29:47Z</time>
      </trkpt>
      <trkpt lat="28.7722800" lon="-17.9317120">
        <ele>1332.1</ele>
        <time>2020-11-16T17:29:48Z</time>
      </trkpt>
      <trkpt lat="28.7722350" lon="-17.9317680">
        <ele>1332.0</ele>
        <time>2020-11-16T17:29:49Z</time>
      </trkpt>
      <trkpt lat="28.7722150" lon="-17.9317950">
        <ele>1332.1</ele>
        <time>2020-11-16T17:29:50Z</time>
      </trkpt>
      <trkpt lat="28.7722150" lon="-17.9317950">
        <ele>1332.1</ele>
        <time>2020-11-16T17:29:51Z</time>
      </trkpt>
      <trkpt lat="28.7721520" lon="-17.9318470">
        <ele>1332.3</ele>
        <time>2020-11-16T17:29:52Z</time>
      </trkpt>
      <trkpt lat="28.7721520" lon="-17.9318470">
        <ele>1332.3</ele>
        <time>2020-11-16T17:29:53Z</time>
      </trkpt>
      <trkpt lat="28.7720850" lon="-17.9318600">
        <ele>1332.3</ele>
        <time>2020-11-16T17:29:54Z</time>
      </trkpt>
      <trkpt lat="28.7720400" lon="-17.9318780">
        <ele>1332.3</ele>
        <time>2020-11-16T17:29:55Z</time>
      </trkpt>
      <trkpt lat="28.7719980" lon="-17.9318850">
        <ele>1332.3</ele>
        <time>2020-11-16T17:29:56Z</time>
      </trkpt>
      <trkpt lat="28.7719980" lon="-17.9318850">
        <ele>1332.3</ele>
        <time>2020-11-16T17:29:57Z</time>
      </trkpt>
      <trkpt lat="28.7719050" lon="-17.9319070">
        <ele>1332.3</ele>
        <time>2020-11-16T17:29:58Z</time>
      </trkpt>
      <trkpt lat="28.7718580" lon="-17.9319180">
        <ele>1332.3</ele>
        <time>2020-11-16T17:29:59Z</time>
      </trkpt>
      <trkpt lat="28.7718580" lon="-17.9319180">
        <ele>1332.3</ele>
        <time>2020-11-16T17:30:00Z</time>
      </trkpt>
      <trkpt lat="28.7717620" lon="-17.9319520">
        <ele>1332.5</ele>
        <time>2020-11-16T17:30:01Z</time>
      </trkpt>
      <trkpt lat="28.7717620" lon="-17.9319520">
        <ele>1332.5</ele>
        <time>2020-11-16T17:30:02Z</time>
      </trkpt>
      <trkpt lat="28.7716670" lon="-17.9319720">
        <ele>1332.8</ele>
        <time>2020-11-16T17:30:03Z</time>
      </trkpt>
      <trkpt lat="28.7716670" lon="-17.9319720">
        <ele>1332.8</ele>
        <time>2020-11-16T17:30:04Z</time>
      </trkpt>
      <trkpt lat="28.7715820" lon="-17.9319600">
        <ele>1333.1</ele>
        <time>2020-11-16T17:30:05Z</time>
      </trkpt>
      <trkpt lat="28.7715520" lon="-17.9319520">
        <ele>1333.2</ele>
        <time>2020-11-16T17:30:06Z</time>
      </trkpt>
      <trkpt lat="28.7715520" lon="-17.9319520">
        <ele>1333.2</ele>
        <time>2020-11-16T17:30:07Z</time>
      </trkpt>
      <trkpt lat="28.7715070" lon="-17.9319320">
        <ele>1333.3</ele>
        <time>2020-11-16T17:30:08Z</time>
      </trkpt>
      <trkpt lat="28.7715070" lon="-17.9319320">
        <ele>1333.3</ele>
        <time>2020-11-16T17:30:09Z</time>
      </trkpt>
      <trkpt lat="28.7714580" lon="-17.9319270">
        <ele>1333.5</ele>
        <time>2020-11-16T17:30:10Z</time>
      </trkpt>
      <trkpt lat="28.7714250" lon="-17.9319350">
        <ele>1333.5</ele>
        <time>2020-11-16T17:30:11Z</time>
      </trkpt>
      <trkpt lat="28.7714250" lon="-17.9319350">
        <ele>1333.5</ele>
        <time>2020-11-16T17:30:12Z</time>
      </trkpt>
      <trkpt lat="28.7713730" lon="-17.9319520">
        <ele>1333.3</ele>
        <time>2020-11-16T17:30:13Z</time>
      </trkpt>
      <trkpt lat="28.7713730" lon="-17.9319520">
        <ele>1333.3</ele>
        <time>2020-11-16T17:30:14Z</time>
      </trkpt>
      <trkpt lat="28.7713280" lon="-17.9319720">
        <ele>1333.2</ele>
        <time>2020-11-16T17:30:15Z</time>
      </trkpt>
      <trkpt lat="28.7713280" lon="-17.9319720">
        <ele>1333.2</ele>
        <time>2020-11-16T17:30:16Z</time>
      </trkpt>
      <trkpt lat="28.7713170" lon="-17.9319850">
        <ele>1333.1</ele>
        <time>2020-11-16T17:30:17Z</time>
      </trkpt>
      <trkpt lat="28.7713170" lon="-17.9319850">
        <ele>1333.1</ele>
        <time>2020-11-16T17:30:18Z</time>
      </trkpt>
      <trkpt lat="28.7713100" lon="-17.9319920">
        <ele>1332.9</ele>
        <time>2020-11-16T17:30:19Z</time>
      </trkpt>
      <trkpt lat="28.7713100" lon="-17.9319920">
        <ele>1332.9</ele>
        <time>2020-11-16T17:30:20Z</time>
      </trkpt>
      <trkpt lat="28.7713100" lon="-17.9319920">
        <ele>1332.9</ele>
        <time>2020-11-16T17:31:33Z</time>
      </trkpt>
      <trkpt lat="28.7713050" lon="-17.9320400">
        <ele>1332.1</ele>
        <time>2020-11-16T17:31:34Z</time>
      </trkpt>
      <trkpt lat="28.7713050" lon="-17.9320400">
        <ele>1332.1</ele>
        <time>2020-11-16T17:31:35Z</time>
      </trkpt>
      <trkpt lat="28.7713230" lon="-17.9320830">
        <ele>1331.3</ele>
        <time>2020-11-16T17:31:36Z</time>
      </trkpt>
      <trkpt lat="28.7713350" lon="-17.9321100">
        <ele>1330.7</ele>
        <time>2020-11-16T17:31:37Z</time>
      </trkpt>
      <trkpt lat="28.7713470" lon="-17.9321420">
        <ele>1330.0</ele>
        <time>2020-11-16T17:31:38Z</time>
      </trkpt>
      <trkpt lat="28.7713470" lon="-17.9321420">
        <ele>1330.0</ele>
        <time>2020-11-16T17:31:39Z</time>
      </trkpt>
      <trkpt lat="28.7713680" lon="-17.9321950">
        <ele>1328.7</ele>
        <time>2020-11-16T17:31:40Z</time>
      </trkpt>
      <trkpt lat="28.7713680" lon="-17.9321950">
        <ele>1328.7</ele>
        <time>2020-11-16T17:31:41Z</time>
      </trkpt>
      <trkpt lat="28.7713850" lon="-17.9322350">
        <ele>1327.6</ele>
        <time>2020-11-16T17:31:42Z</time>
      </trkpt>
      <trkpt lat="28.7713850" lon="-17.9322350">
        <ele>1327.6</ele>
        <time>2020-11-16T17:31:43Z</time>
      </trkpt>
      <trkpt lat="28.7713820" lon="-17.9322480">
        <ele>1327.3</ele>
        <time>2020-11-16T17:31:44Z</time>
      </trkpt>
      <trkpt lat="28.7713820" lon="-17.9322480">
        <ele>1327.3</ele>
        <time>2020-11-16T17:31:45Z</time>
      </trkpt>
      <trkpt lat="28.7713900" lon="-17.9322450">
        <ele>1327.0</ele>
        <time>2020-11-16T17:32:43Z</time>
      </trkpt>
      <trkpt lat="28.7714380" lon="-17.9323350">
        <ele>1324.5</ele>
        <time>2020-11-16T17:32:44Z</time>
      </trkpt>
      <trkpt lat="28.7714380" lon="-17.9323350">
        <ele>1324.5</ele>
        <time>2020-11-16T17:32:45Z</time>
      </trkpt>
      <trkpt lat="28.7714780" lon="-17.9323870">
        <ele>1322.9</ele>
        <time>2020-11-16T17:32:46Z</time>
      </trkpt>
      <trkpt lat="28.7714780" lon="-17.9323870">
        <ele>1322.9</ele>
        <time>2020-11-16T17:32:47Z</time>
      </trkpt>
      <trkpt lat="28.7715270" lon="-17.9324220">
        <ele>1321.3</ele>
        <time>2020-11-16T17:32:48Z</time>
      </trkpt>
      <trkpt lat="28.7715270" lon="-17.9324220">
        <ele>1321.3</ele>
        <time>2020-11-16T17:32:49Z</time>
      </trkpt>
      <trkpt lat="28.7715970" lon="-17.9324850">
        <ele>1318.7</ele>
        <time>2020-11-16T17:32:50Z</time>
      </trkpt>
      <trkpt lat="28.7715970" lon="-17.9324850">
        <ele>1318.7</ele>
        <time>2020-11-16T17:32:51Z</time>
      </trkpt>
      <trkpt lat="28.7716700" lon="-17.9325420">
        <ele>1316.0</ele>
        <time>2020-11-16T17:32:52Z</time>
      </trkpt>
      <trkpt lat="28.7716700" lon="-17.9325420">
        <ele>1316.0</ele>
        <time>2020-11-16T17:32:53Z</time>
      </trkpt>
      <trkpt lat="28.7717470" lon="-17.9325930">
        <ele>1313.4</ele>
        <time>2020-11-16T17:32:54Z</time>
      </trkpt>
      <trkpt lat="28.7717830" lon="-17.9326220">
        <ele>1312.2</ele>
        <time>2020-11-16T17:32:55Z</time>
      </trkpt>
      <trkpt lat="28.7717830" lon="-17.9326220">
        <ele>1312.2</ele>
        <time>2020-11-16T17:32:56Z</time>
      </trkpt>
      <trkpt lat="28.7718550" lon="-17.9326820">
        <ele>1310.0</ele>
        <time>2020-11-16T17:32:57Z</time>
      </trkpt>
      <trkpt lat="28.7718550" lon="-17.9326820">
        <ele>1310.0</ele>
        <time>2020-11-16T17:32:58Z</time>
      </trkpt>
      <trkpt lat="28.7719170" lon="-17.9327270">
        <ele>1308.2</ele>
        <time>2020-11-16T17:32:59Z</time>
      </trkpt>
      <trkpt lat="28.7719170" lon="-17.9327270">
        <ele>1308.2</ele>
        <time>2020-11-16T17:33:00Z</time>
      </trkpt>
      <trkpt lat="28.7719830" lon="-17.9327570">
        <ele>1306.5</ele>
        <time>2020-11-16T17:33:01Z</time>
      </trkpt>
      <trkpt lat="28.7720150" lon="-17.9327620">
        <ele>1305.7</ele>
        <time>2020-11-16T17:33:02Z</time>
      </trkpt>
      <trkpt lat="28.7720150" lon="-17.9327620">
        <ele>1305.7</ele>
        <time>2020-11-16T17:33:03Z</time>
      </trkpt>
      <trkpt lat="28.7720980" lon="-17.9327470">
        <ele>1304.0</ele>
        <time>2020-11-16T17:33:04Z</time>
      </trkpt>
      <trkpt lat="28.7721300" lon="-17.9327450">
        <ele>1303.5</ele>
        <time>2020-11-16T17:33:05Z</time>
      </trkpt>
      <trkpt lat="28.7721300" lon="-17.9327450">
        <ele>1303.5</ele>
        <time>2020-11-16T17:33:06Z</time>
      </trkpt>
      <trkpt lat="28.7721970" lon="-17.9327730">
        <ele>1302.3</ele>
        <time>2020-11-16T17:33:07Z</time>
      </trkpt>
      <trkpt lat="28.7722330" lon="-17.9328020">
        <ele>1301.7</ele>
        <time>2020-11-16T17:33:08Z</time>
      </trkpt>
      <trkpt lat="28.7722330" lon="-17.9328020">
        <ele>1301.7</ele>
        <time>2020-11-16T17:33:09Z</time>
      </trkpt>
      <trkpt lat="28.7722830" lon="-17.9328750">
        <ele>1300.5</ele>
        <time>2020-11-16T17:33:10Z</time>
      </trkpt>
      <trkpt lat="28.7722830" lon="-17.9328750">
        <ele>1300.5</ele>
        <time>2020-11-16T17:33:11Z</time>
      </trkpt>
      <trkpt lat="28.7723370" lon="-17.9329300">
        <ele>1299.3</ele>
        <time>2020-11-16T17:33:12Z</time>
      </trkpt>
      <trkpt lat="28.7723370" lon="-17.9329300">
        <ele>1299.3</ele>
        <time>2020-11-16T17:33:13Z</time>
      </trkpt>
      <trkpt lat="28.7723730" lon="-17.9329870">
        <ele>1298.2</ele>
        <time>2020-11-16T17:33:14Z</time>
      </trkpt>
      <trkpt lat="28.7723730" lon="-17.9329870">
        <ele>1298.2</ele>
        <time>2020-11-16T17:33:15Z</time>
      </trkpt>
      <trkpt lat="28.7724280" lon="-17.9330800">
        <ele>1296.4</ele>
        <time>2020-11-16T17:33:16Z</time>
      </trkpt>
      <trkpt lat="28.7724550" lon="-17.9331370">
        <ele>1295.4</ele>
        <time>2020-11-16T17:33:17Z</time>
      </trkpt>
      <trkpt lat="28.7724880" lon="-17.9331900">
        <ele>1294.4</ele>
        <time>2020-11-16T17:33:18Z</time>
      </trkpt>
      <trkpt lat="28.7724880" lon="-17.9331900">
        <ele>1294.4</ele>
        <time>2020-11-16T17:33:19Z</time>
      </trkpt>
      <trkpt lat="28.7725580" lon="-17.9333180">
        <ele>1291.9</ele>
        <time>2020-11-16T17:33:20Z</time>
      </trkpt>
      <trkpt lat="28.7725580" lon="-17.9333180">
        <ele>1291.9</ele>
        <time>2020-11-16T17:33:21Z</time>
      </trkpt>
      <trkpt lat="28.7726070" lon="-17.9334600">
        <ele>1289.2</ele>
        <time>2020-11-16T17:33:22Z</time>
      </trkpt>
      <trkpt lat="28.7726070" lon="-17.9334600">
        <ele>1289.2</ele>
        <time>2020-11-16T17:33:23Z</time>
      </trkpt>
      <trkpt lat="28.7726330" lon="-17.9336270">
        <ele>1286.6</ele>
        <time>2020-11-16T17:33:24Z</time>
      </trkpt>
      <trkpt lat="28.7726330" lon="-17.9336270">
        <ele>1286.6</ele>
        <time>2020-11-16T17:33:25Z</time>
      </trkpt>
      <trkpt lat="28.7726770" lon="-17.9337800">
        <ele>1284.1</ele>
        <time>2020-11-16T17:33:26Z</time>
      </trkpt>
      <trkpt lat="28.7726770" lon="-17.9337800">
        <ele>1284.1</ele>
        <time>2020-11-16T17:33:27Z</time>
      </trkpt>
      <trkpt lat="28.7727570" lon="-17.9338880">
        <ele>1282.1</ele>
        <time>2020-11-16T17:33:28Z</time>
      </trkpt>
      <trkpt lat="28.7728170" lon="-17.9339080">
        <ele>1281.2</ele>
        <time>2020-11-16T17:33:29Z</time>
      </trkpt>
      <trkpt lat="28.7728170" lon="-17.9339080">
        <ele>1281.2</ele>
        <time>2020-11-16T17:33:30Z</time>
      </trkpt>
      <trkpt lat="28.7729220" lon="-17.9339380">
        <ele>1279.8</ele>
        <time>2020-11-16T17:33:31Z</time>
      </trkpt>
      <trkpt lat="28.7729530" lon="-17.9339630">
        <ele>1279.3</ele>
        <time>2020-11-16T17:33:32Z</time>
      </trkpt>
      <trkpt lat="28.7729530" lon="-17.9339630">
        <ele>1279.3</ele>
        <time>2020-11-16T17:33:33Z</time>
      </trkpt>
      <trkpt lat="28.7729850" lon="-17.9340270">
        <ele>1278.5</ele>
        <time>2020-11-16T17:33:34Z</time>
      </trkpt>
      <trkpt lat="28.7729850" lon="-17.9340270">
        <ele>1278.5</ele>
        <time>2020-11-16T17:33:35Z</time>
      </trkpt>
      <trkpt lat="28.7729770" lon="-17.9340980">
        <ele>1277.9</ele>
        <time>2020-11-16T17:33:36Z</time>
      </trkpt>
      <trkpt lat="28.7729770" lon="-17.9340980">
        <ele>1277.9</ele>
        <time>2020-11-16T17:33:37Z</time>
      </trkpt>
      <trkpt lat="28.7729470" lon="-17.9341780">
        <ele>1277.2</ele>
        <time>2020-11-16T17:33:38Z</time>
      </trkpt>
      <trkpt lat="28.7729470" lon="-17.9341780">
        <ele>1277.2</ele>
        <time>2020-11-16T17:33:39Z</time>
      </trkpt>
      <trkpt lat="28.7728730" lon="-17.9342350">
        <ele>1276.6</ele>
        <time>2020-11-16T17:33:40Z</time>
      </trkpt>
      <trkpt lat="28.7728730" lon="-17.9342350">
        <ele>1276.6</ele>
        <time>2020-11-16T17:33:41Z</time>
      </trkpt>
      <trkpt lat="28.7727830" lon="-17.9342070">
        <ele>1275.9</ele>
        <time>2020-11-16T17:33:42Z</time>
      </trkpt>
      <trkpt lat="28.7727830" lon="-17.9342070">
        <ele>1275.9</ele>
        <time>2020-11-16T17:33:43Z</time>
      </trkpt>
      <trkpt lat="28.7727030" lon="-17.9341280">
        <ele>1275.1</ele>
        <time>2020-11-16T17:33:44Z</time>
      </trkpt>
      <trkpt lat="28.7727030" lon="-17.9341280">
        <ele>1275.1</ele>
        <time>2020-11-16T17:33:45Z</time>
      </trkpt>
      <trkpt lat="28.7725900" lon="-17.9339820">
        <ele>1273.7</ele>
        <time>2020-11-16T17:33:46Z</time>
      </trkpt>
      <trkpt lat="28.7725900" lon="-17.9339820">
        <ele>1273.7</ele>
        <time>2020-11-16T17:33:47Z</time>
      </trkpt>
      <trkpt lat="28.7725900" lon="-17.9339820">
        <ele>1273.7</ele>
        <time>2020-11-16T17:33:48Z</time>
      </trkpt>
      <trkpt lat="28.7725150" lon="-17.9338900">
        <ele>1272.7</ele>
        <time>2020-11-16T17:33:49Z</time>
      </trkpt>
      <trkpt lat="28.7724830" lon="-17.9338600">
        <ele>1272.3</ele>
        <time>2020-11-16T17:33:50Z</time>
      </trkpt>
      <trkpt lat="28.7724830" lon="-17.9338600">
        <ele>1272.3</ele>
        <time>2020-11-16T17:33:51Z</time>
      </trkpt>
      <trkpt lat="28.7724150" lon="-17.9338720">
        <ele>1271.4</ele>
        <time>2020-11-16T17:33:52Z</time>
      </trkpt>
      <trkpt lat="28.7724150" lon="-17.9338720">
        <ele>1271.4</ele>
        <time>2020-11-16T17:33:53Z</time>
      </trkpt>
      <trkpt lat="28.7723670" lon="-17.9339470">
        <ele>1270.3</ele>
        <time>2020-11-16T17:33:54Z</time>
      </trkpt>
      <trkpt lat="28.7723670" lon="-17.9339470">
        <ele>1270.3</ele>
        <time>2020-11-16T17:33:55Z</time>
      </trkpt>
      <trkpt lat="28.7723580" lon="-17.9340570">
        <ele>1269.0</ele>
        <time>2020-11-16T17:33:56Z</time>
      </trkpt>
      <trkpt lat="28.7723580" lon="-17.9340570">
        <ele>1269.0</ele>
        <time>2020-11-16T17:33:57Z</time>
      </trkpt>
      <trkpt lat="28.7723830" lon="-17.9341800">
        <ele>1267.5</ele>
        <time>2020-11-16T17:33:58Z</time>
      </trkpt>
      <trkpt lat="28.7723830" lon="-17.9341800">
        <ele>1267.5</ele>
        <time>2020-11-16T17:33:59Z</time>
      </trkpt>
      <trkpt lat="28.7724070" lon="-17.9342970">
        <ele>1265.9</ele>
        <time>2020-11-16T17:34:00Z</time>
      </trkpt>
      <trkpt lat="28.7724150" lon="-17.9343480">
        <ele>1265.2</ele>
        <time>2020-11-16T17:34:01Z</time>
      </trkpt>
      <trkpt lat="28.7724170" lon="-17.9343980">
        <ele>1264.5</ele>
        <time>2020-11-16T17:34:02Z</time>
      </trkpt>
      <trkpt lat="28.7724170" lon="-17.9343980">
        <ele>1264.5</ele>
        <time>2020-11-16T17:34:03Z</time>
      </trkpt>
      <trkpt lat="28.7724080" lon="-17.9344880">
        <ele>1263.3</ele>
        <time>2020-11-16T17:34:04Z</time>
      </trkpt>
      <trkpt lat="28.7724080" lon="-17.9344880">
        <ele>1263.3</ele>
        <time>2020-11-16T17:34:05Z</time>
      </trkpt>
      <trkpt lat="28.7723980" lon="-17.9345820">
        <ele>1262.2</ele>
        <time>2020-11-16T17:34:06Z</time>
      </trkpt>
      <trkpt lat="28.7723980" lon="-17.9345820">
        <ele>1262.2</ele>
        <time>2020-11-16T17:34:07Z</time>
      </trkpt>
      <trkpt lat="28.7724130" lon="-17.9346730">
        <ele>1261.1</ele>
        <time>2020-11-16T17:34:08Z</time>
      </trkpt>
      <trkpt lat="28.7724130" lon="-17.9346730">
        <ele>1261.1</ele>
        <time>2020-11-16T17:34:09Z</time>
      </trkpt>
      <trkpt lat="28.7724850" lon="-17.9347500">
        <ele>1259.6</ele>
        <time>2020-11-16T17:34:10Z</time>
      </trkpt>
      <trkpt lat="28.7724850" lon="-17.9347500">
        <ele>1259.6</ele>
        <time>2020-11-16T17:34:11Z</time>
      </trkpt>
      <trkpt lat="28.7725720" lon="-17.9348320">
        <ele>1258.1</ele>
        <time>2020-11-16T17:34:12Z</time>
      </trkpt>
      <trkpt lat="28.7725720" lon="-17.9348320">
        <ele>1258.1</ele>
        <time>2020-11-16T17:34:13Z</time>
      </trkpt>
      <trkpt lat="28.7726400" lon="-17.9349430">
        <ele>1256.8</ele>
        <time>2020-11-16T17:34:14Z</time>
      </trkpt>
      <trkpt lat="28.7726400" lon="-17.9349430">
        <ele>1256.8</ele>
        <time>2020-11-16T17:34:15Z</time>
      </trkpt>
      <trkpt lat="28.7727050" lon="-17.9350750">
        <ele>1255.3</ele>
        <time>2020-11-16T17:34:16Z</time>
      </trkpt>
      <trkpt lat="28.7727050" lon="-17.9350750">
        <ele>1255.3</ele>
        <time>2020-11-16T17:34:17Z</time>
      </trkpt>
      <trkpt lat="28.7727620" lon="-17.9352270">
        <ele>1253.7</ele>
        <time>2020-11-16T17:34:18Z</time>
      </trkpt>
      <trkpt lat="28.7727620" lon="-17.9352270">
        <ele>1253.7</ele>
        <time>2020-11-16T17:34:19Z</time>
      </trkpt>
      <trkpt lat="28.7728180" lon="-17.9353650">
        <ele>1252.5</ele>
        <time>2020-11-16T17:34:20Z</time>
      </trkpt>
      <trkpt lat="28.7728180" lon="-17.9353650">
        <ele>1252.5</ele>
        <time>2020-11-16T17:34:21Z</time>
      </trkpt>
      <trkpt lat="28.7728980" lon="-17.9354980">
        <ele>1251.3</ele>
        <time>2020-11-16T17:34:22Z</time>
      </trkpt>
      <trkpt lat="28.7728980" lon="-17.9354980">
        <ele>1251.3</ele>
        <time>2020-11-16T17:34:23Z</time>
      </trkpt>
      <trkpt lat="28.7729530" lon="-17.9356180">
        <ele>1250.9</ele>
        <time>2020-11-16T17:34:24Z</time>
      </trkpt>
      <trkpt lat="28.7729530" lon="-17.9356180">
        <ele>1250.9</ele>
        <time>2020-11-16T17:34:25Z</time>
      </trkpt>
      <trkpt lat="28.7729950" lon="-17.9357300">
        <ele>1250.9</ele>
        <time>2020-11-16T17:34:26Z</time>
      </trkpt>
      <trkpt lat="28.7729950" lon="-17.9357300">
        <ele>1250.6</ele>
        <time>2020-11-16T17:34:27Z</time>
      </trkpt>
      <trkpt lat="28.7730020" lon="-17.9358370">
        <ele>1249.5</ele>
        <time>2020-11-16T17:34:28Z</time>
      </trkpt>
      <trkpt lat="28.7730020" lon="-17.9358370">
        <ele>1249.5</ele>
        <time>2020-11-16T17:34:29Z</time>
      </trkpt>
      <trkpt lat="28.7729680" lon="-17.9359270">
        <ele>1248.4</ele>
        <time>2020-11-16T17:34:30Z</time>
      </trkpt>
      <trkpt lat="28.7729480" lon="-17.9359680">
        <ele>1247.9</ele>
        <time>2020-11-16T17:34:31Z</time>
      </trkpt>
      <trkpt lat="28.7729480" lon="-17.9359680">
        <ele>1247.9</ele>
        <time>2020-11-16T17:34:32Z</time>
      </trkpt>
      <trkpt lat="28.7729070" lon="-17.9360400">
        <ele>1246.8</ele>
        <time>2020-11-16T17:34:33Z</time>
      </trkpt>
      <trkpt lat="28.7729070" lon="-17.9360400">
        <ele>1246.8</ele>
        <time>2020-11-16T17:34:34Z</time>
      </trkpt>
      <trkpt lat="28.7728480" lon="-17.9361150">
        <ele>1245.4</ele>
        <time>2020-11-16T17:34:35Z</time>
      </trkpt>
      <trkpt lat="28.7728480" lon="-17.9361150">
        <ele>1245.4</ele>
        <time>2020-11-16T17:34:36Z</time>
      </trkpt>
      <trkpt lat="28.7727770" lon="-17.9362030">
        <ele>1243.9</ele>
        <time>2020-11-16T17:34:37Z</time>
      </trkpt>
      <trkpt lat="28.7727400" lon="-17.9362520">
        <ele>1243.6</ele>
        <time>2020-11-16T17:34:38Z</time>
      </trkpt>
      <trkpt lat="28.7727400" lon="-17.9362520">
        <ele>1243.6</ele>
        <time>2020-11-16T17:34:39Z</time>
      </trkpt>
      <trkpt lat="28.7726820" lon="-17.9363600">
        <ele>1243.2</ele>
        <time>2020-11-16T17:34:40Z</time>
      </trkpt>
      <trkpt lat="28.7726820" lon="-17.9363600">
        <ele>1243.2</ele>
        <time>2020-11-16T17:34:41Z</time>
      </trkpt>
      <trkpt lat="28.7726670" lon="-17.9364820">
        <ele>1242.6</ele>
        <time>2020-11-16T17:34:42Z</time>
      </trkpt>
      <trkpt lat="28.7726900" lon="-17.9365420">
        <ele>1242.3</ele>
        <time>2020-11-16T17:34:43Z</time>
      </trkpt>
      <trkpt lat="28.7727180" lon="-17.9365970">
        <ele>1242.0</ele>
        <time>2020-11-16T17:34:44Z</time>
      </trkpt>
      <trkpt lat="28.7727180" lon="-17.9365970">
        <ele>1242.0</ele>
        <time>2020-11-16T17:34:45Z</time>
      </trkpt>
      <trkpt lat="28.7728250" lon="-17.9367550">
        <ele>1241.0</ele>
        <time>2020-11-16T17:34:46Z</time>
      </trkpt>
      <trkpt lat="28.7728250" lon="-17.9367550">
        <ele>1241.0</ele>
        <time>2020-11-16T17:34:47Z</time>
      </trkpt>
      <trkpt lat="28.7728250" lon="-17.9367550">
        <ele>1241.0</ele>
        <time>2020-11-16T17:34:48Z</time>
      </trkpt>
      <trkpt lat="28.7729100" lon="-17.9368570">
        <ele>1240.2</ele>
        <time>2020-11-16T17:34:49Z</time>
      </trkpt>
      <trkpt lat="28.7729100" lon="-17.9368570">
        <ele>1240.2</ele>
        <time>2020-11-16T17:34:50Z</time>
      </trkpt>
      <trkpt lat="28.7729900" lon="-17.9369700">
        <ele>1239.4</ele>
        <time>2020-11-16T17:34:51Z</time>
      </trkpt>
      <trkpt lat="28.7729900" lon="-17.9369700">
        <ele>1239.4</ele>
        <time>2020-11-16T17:34:52Z</time>
      </trkpt>
      <trkpt lat="28.7730750" lon="-17.9370750">
        <ele>1238.5</ele>
        <time>2020-11-16T17:34:53Z</time>
      </trkpt>
      <trkpt lat="28.7730750" lon="-17.9370750">
        <ele>1238.5</ele>
        <time>2020-11-16T17:34:54Z</time>
      </trkpt>
      <trkpt lat="28.7731670" lon="-17.9372000">
        <ele>1237.4</ele>
        <time>2020-11-16T17:34:55Z</time>
      </trkpt>
      <trkpt lat="28.7731670" lon="-17.9372000">
        <ele>1237.4</ele>
        <time>2020-11-16T17:34:56Z</time>
      </trkpt>
      <trkpt lat="28.7732320" lon="-17.9373470">
        <ele>1236.2</ele>
        <time>2020-11-16T17:34:57Z</time>
      </trkpt>
      <trkpt lat="28.7732320" lon="-17.9373470">
        <ele>1236.2</ele>
        <time>2020-11-16T17:34:58Z</time>
      </trkpt>
      <trkpt lat="28.7732820" lon="-17.9375080">
        <ele>1234.8</ele>
        <time>2020-11-16T17:34:59Z</time>
      </trkpt>
      <trkpt lat="28.7732820" lon="-17.9375080">
        <ele>1234.8</ele>
        <time>2020-11-16T17:35:00Z</time>
      </trkpt>
      <trkpt lat="28.7733200" lon="-17.9376700">
        <ele>1233.5</ele>
        <time>2020-11-16T17:35:01Z</time>
      </trkpt>
      <trkpt lat="28.7733250" lon="-17.9377470">
        <ele>1232.8</ele>
        <time>2020-11-16T17:35:02Z</time>
      </trkpt>
      <trkpt lat="28.7733250" lon="-17.9377470">
        <ele>1232.8</ele>
        <time>2020-11-16T17:35:03Z</time>
      </trkpt>
      <trkpt lat="28.7732800" lon="-17.9378630">
        <ele>1232.8</ele>
        <time>2020-11-16T17:35:04Z</time>
      </trkpt>
      <trkpt lat="28.7732800" lon="-17.9378630">
        <ele>1232.8</ele>
        <time>2020-11-16T17:35:05Z</time>
      </trkpt>
      <trkpt lat="28.7731670" lon="-17.9379230">
        <ele>1232.9</ele>
        <time>2020-11-16T17:35:06Z</time>
      </trkpt>
      <trkpt lat="28.7731670" lon="-17.9379230">
        <ele>1232.9</ele>
        <time>2020-11-16T17:35:07Z</time>
      </trkpt>
      <trkpt lat="28.7730170" lon="-17.9379600">
        <ele>1233.0</ele>
        <time>2020-11-16T17:35:08Z</time>
      </trkpt>
      <trkpt lat="28.7730170" lon="-17.9379600">
        <ele>1233.0</ele>
        <time>2020-11-16T17:35:09Z</time>
      </trkpt>
      <trkpt lat="28.7728530" lon="-17.9379980">
        <ele>1233.3</ele>
        <time>2020-11-16T17:35:10Z</time>
      </trkpt>
      <trkpt lat="28.7728530" lon="-17.9379980">
        <ele>1233.3</ele>
        <time>2020-11-16T17:35:11Z</time>
      </trkpt>
      <trkpt lat="28.7726770" lon="-17.9380220">
        <ele>1233.9</ele>
        <time>2020-11-16T17:35:12Z</time>
      </trkpt>
      <trkpt lat="28.7726770" lon="-17.9380220">
        <ele>1233.9</ele>
        <time>2020-11-16T17:35:13Z</time>
      </trkpt>
      <trkpt lat="28.7725020" lon="-17.9380480">
        <ele>1234.7</ele>
        <time>2020-11-16T17:35:14Z</time>
      </trkpt>
      <trkpt lat="28.7725020" lon="-17.9380480">
        <ele>1234.7</ele>
        <time>2020-11-16T17:35:15Z</time>
      </trkpt>
      <trkpt lat="28.7723670" lon="-17.9380330">
        <ele>1235.4</ele>
        <time>2020-11-16T17:35:16Z</time>
      </trkpt>
      <trkpt lat="28.7723670" lon="-17.9380330">
        <ele>1235.4</ele>
        <time>2020-11-16T17:35:17Z</time>
      </trkpt>
      <trkpt lat="28.7722770" lon="-17.9379320">
        <ele>1236.1</ele>
        <time>2020-11-16T17:35:18Z</time>
      </trkpt>
      <trkpt lat="28.7722770" lon="-17.9379320">
        <ele>1236.1</ele>
        <time>2020-11-16T17:35:19Z</time>
      </trkpt>
      <trkpt lat="28.7721880" lon="-17.9378200">
        <ele>1236.8</ele>
        <time>2020-11-16T17:35:20Z</time>
      </trkpt>
      <trkpt lat="28.7721380" lon="-17.9377670">
        <ele>1237.2</ele>
        <time>2020-11-16T17:35:21Z</time>
      </trkpt>
      <trkpt lat="28.7721380" lon="-17.9377670">
        <ele>1237.2</ele>
        <time>2020-11-16T17:35:22Z</time>
      </trkpt>
      <trkpt lat="28.7720200" lon="-17.9376820">
        <ele>1238.0</ele>
        <time>2020-11-16T17:35:23Z</time>
      </trkpt>
      <trkpt lat="28.7720200" lon="-17.9376820">
        <ele>1238.0</ele>
        <time>2020-11-16T17:35:24Z</time>
      </trkpt>
      <trkpt lat="28.7718900" lon="-17.9376180">
        <ele>1238.9</ele>
        <time>2020-11-16T17:35:25Z</time>
      </trkpt>
      <trkpt lat="28.7718170" lon="-17.9375930">
        <ele>1239.4</ele>
        <time>2020-11-16T17:35:26Z</time>
      </trkpt>
      <trkpt lat="28.7718170" lon="-17.9375930">
        <ele>1239.4</ele>
        <time>2020-11-16T17:35:27Z</time>
      </trkpt>
      <trkpt lat="28.7716580" lon="-17.9375770">
        <ele>1240.2</ele>
        <time>2020-11-16T17:35:28Z</time>
      </trkpt>
      <trkpt lat="28.7716580" lon="-17.9375770">
        <ele>1240.2</ele>
        <time>2020-11-16T17:35:29Z</time>
      </trkpt>
      <trkpt lat="28.7714930" lon="-17.9376030">
        <ele>1239.5</ele>
        <time>2020-11-16T17:35:30Z</time>
      </trkpt>
      <trkpt lat="28.7714930" lon="-17.9376030">
        <ele>1239.5</ele>
        <time>2020-11-16T17:35:31Z</time>
      </trkpt>
      <trkpt lat="28.7713270" lon="-17.9376320">
        <ele>1238.8</ele>
        <time>2020-11-16T17:35:32Z</time>
      </trkpt>
      <trkpt lat="28.7713270" lon="-17.9376320">
        <ele>1238.8</ele>
        <time>2020-11-16T17:35:33Z</time>
      </trkpt>
      <trkpt lat="28.7711620" lon="-17.9376470">
        <ele>1238.1</ele>
        <time>2020-11-16T17:35:34Z</time>
      </trkpt>
      <trkpt lat="28.7711620" lon="-17.9376470">
        <ele>1238.1</ele>
        <time>2020-11-16T17:35:35Z</time>
      </trkpt>
      <trkpt lat="28.7709970" lon="-17.9376450">
        <ele>1237.4</ele>
        <time>2020-11-16T17:35:36Z</time>
      </trkpt>
      <trkpt lat="28.7709970" lon="-17.9376450">
        <ele>1237.4</ele>
        <time>2020-11-16T17:35:37Z</time>
      </trkpt>
      <trkpt lat="28.7708450" lon="-17.9376050">
        <ele>1237.0</ele>
        <time>2020-11-16T17:35:38Z</time>
      </trkpt>
      <trkpt lat="28.7708450" lon="-17.9376050">
        <ele>1237.0</ele>
        <time>2020-11-16T17:35:39Z</time>
      </trkpt>
      <trkpt lat="28.7707180" lon="-17.9375780">
        <ele>1236.7</ele>
        <time>2020-11-16T17:35:40Z</time>
      </trkpt>
      <trkpt lat="28.7707180" lon="-17.9375780">
        <ele>1236.7</ele>
        <time>2020-11-16T17:35:41Z</time>
      </trkpt>
      <trkpt lat="28.7706300" lon="-17.9376120">
        <ele>1236.5</ele>
        <time>2020-11-16T17:35:42Z</time>
      </trkpt>
      <trkpt lat="28.7706300" lon="-17.9376120">
        <ele>1236.5</ele>
        <time>2020-11-16T17:35:43Z</time>
      </trkpt>
      <trkpt lat="28.7705520" lon="-17.9376920">
        <ele>1236.2</ele>
        <time>2020-11-16T17:35:44Z</time>
      </trkpt>
      <trkpt lat="28.7705520" lon="-17.9376920">
        <ele>1236.2</ele>
        <time>2020-11-16T17:35:45Z</time>
      </trkpt>
      <trkpt lat="28.7704970" lon="-17.9377980">
        <ele>1235.8</ele>
        <time>2020-11-16T17:35:46Z</time>
      </trkpt>
      <trkpt lat="28.7704970" lon="-17.9377980">
        <ele>1235.8</ele>
        <time>2020-11-16T17:35:47Z</time>
      </trkpt>
      <trkpt lat="28.7705250" lon="-17.9379080">
        <ele>1235.5</ele>
        <time>2020-11-16T17:35:48Z</time>
      </trkpt>
      <trkpt lat="28.7705250" lon="-17.9379080">
        <ele>1235.5</ele>
        <time>2020-11-16T17:35:49Z</time>
      </trkpt>
      <trkpt lat="28.7706130" lon="-17.9379900">
        <ele>1235.2</ele>
        <time>2020-11-16T17:35:50Z</time>
      </trkpt>
      <trkpt lat="28.7706130" lon="-17.9379900">
        <ele>1235.2</ele>
        <time>2020-11-16T17:35:51Z</time>
      </trkpt>
      <trkpt lat="28.7707120" lon="-17.9380730">
        <ele>1234.9</ele>
        <time>2020-11-16T17:35:52Z</time>
      </trkpt>
      <trkpt lat="28.7707120" lon="-17.9380730">
        <ele>1234.9</ele>
        <time>2020-11-16T17:35:53Z</time>
      </trkpt>
      <trkpt lat="28.7708180" lon="-17.9381370">
        <ele>1234.5</ele>
        <time>2020-11-16T17:35:54Z</time>
      </trkpt>
      <trkpt lat="28.7708180" lon="-17.9381370">
        <ele>1234.5</ele>
        <time>2020-11-16T17:35:55Z</time>
      </trkpt>
      <trkpt lat="28.7709350" lon="-17.9381900">
        <ele>1234.0</ele>
        <time>2020-11-16T17:35:56Z</time>
      </trkpt>
      <trkpt lat="28.7709350" lon="-17.9381900">
        <ele>1234.0</ele>
        <time>2020-11-16T17:35:57Z</time>
      </trkpt>
      <trkpt lat="28.7710480" lon="-17.9382520">
        <ele>1233.5</ele>
        <time>2020-11-16T17:35:58Z</time>
      </trkpt>
      <trkpt lat="28.7710950" lon="-17.9382820">
        <ele>1233.3</ele>
        <time>2020-11-16T17:35:59Z</time>
      </trkpt>
      <trkpt lat="28.7710950" lon="-17.9382820">
        <ele>1233.3</ele>
        <time>2020-11-16T17:36:00Z</time>
      </trkpt>
      <trkpt lat="28.7711780" lon="-17.9383400">
        <ele>1232.9</ele>
        <time>2020-11-16T17:36:01Z</time>
      </trkpt>
      <trkpt lat="28.7711780" lon="-17.9383400">
        <ele>1232.9</ele>
        <time>2020-11-16T17:36:02Z</time>
      </trkpt>
      <trkpt lat="28.7712400" lon="-17.9384250">
        <ele>1232.4</ele>
        <time>2020-11-16T17:36:03Z</time>
      </trkpt>
      <trkpt lat="28.7712400" lon="-17.9384250">
        <ele>1232.4</ele>
        <time>2020-11-16T17:36:04Z</time>
      </trkpt>
      <trkpt lat="28.7713230" lon="-17.9385450">
        <ele>1231.6</ele>
        <time>2020-11-16T17:36:05Z</time>
      </trkpt>
      <trkpt lat="28.7713230" lon="-17.9385450">
        <ele>1231.6</ele>
        <time>2020-11-16T17:36:06Z</time>
      </trkpt>
      <trkpt lat="28.7713530" lon="-17.9386820">
        <ele>1230.8</ele>
        <time>2020-11-16T17:36:07Z</time>
      </trkpt>
      <trkpt lat="28.7713530" lon="-17.9386820">
        <ele>1230.8</ele>
        <time>2020-11-16T17:36:08Z</time>
      </trkpt>
      <trkpt lat="28.7713470" lon="-17.9388450">
        <ele>1229.9</ele>
        <time>2020-11-16T17:36:09Z</time>
      </trkpt>
      <trkpt lat="28.7713470" lon="-17.9388450">
        <ele>1229.9</ele>
        <time>2020-11-16T17:36:10Z</time>
      </trkpt>
      <trkpt lat="28.7713900" lon="-17.9390070">
        <ele>1229.1</ele>
        <time>2020-11-16T17:36:11Z</time>
      </trkpt>
      <trkpt lat="28.7714300" lon="-17.9390800">
        <ele>1228.7</ele>
        <time>2020-11-16T17:36:12Z</time>
      </trkpt>
      <trkpt lat="28.7714300" lon="-17.9390800">
        <ele>1228.7</ele>
        <time>2020-11-16T17:36:13Z</time>
      </trkpt>
      <trkpt lat="28.7715050" lon="-17.9392420">
        <ele>1227.7</ele>
        <time>2020-11-16T17:36:14Z</time>
      </trkpt>
      <trkpt lat="28.7715050" lon="-17.9392420">
        <ele>1227.7</ele>
        <time>2020-11-16T17:36:15Z</time>
      </trkpt>
      <trkpt lat="28.7715680" lon="-17.9394180">
        <ele>1226.7</ele>
        <time>2020-11-16T17:36:16Z</time>
      </trkpt>
      <trkpt lat="28.7715680" lon="-17.9394180">
        <ele>1226.7</ele>
        <time>2020-11-16T17:36:17Z</time>
      </trkpt>
      <trkpt lat="28.7716330" lon="-17.9395920">
        <ele>1225.9</ele>
        <time>2020-11-16T17:36:18Z</time>
      </trkpt>
      <trkpt lat="28.7716330" lon="-17.9395920">
        <ele>1225.9</ele>
        <time>2020-11-16T17:36:19Z</time>
      </trkpt>
      <trkpt lat="28.7717220" lon="-17.9397580">
        <ele>1225.3</ele>
        <time>2020-11-16T17:36:20Z</time>
      </trkpt>
      <trkpt lat="28.7717220" lon="-17.9397580">
        <ele>1225.3</ele>
        <time>2020-11-16T17:36:21Z</time>
      </trkpt>
      <trkpt lat="28.7718220" lon="-17.9399180">
        <ele>1224.8</ele>
        <time>2020-11-16T17:36:22Z</time>
      </trkpt>
      <trkpt lat="28.7718670" lon="-17.9400020">
        <ele>1224.5</ele>
        <time>2020-11-16T17:36:23Z</time>
      </trkpt>
      <trkpt lat="28.7718670" lon="-17.9400020">
        <ele>1224.5</ele>
        <time>2020-11-16T17:36:24Z</time>
      </trkpt>
      <trkpt lat="28.7719000" lon="-17.9401830">
        <ele>1223.3</ele>
        <time>2020-11-16T17:36:25Z</time>
      </trkpt>
      <trkpt lat="28.7719000" lon="-17.9401830">
        <ele>1223.3</ele>
        <time>2020-11-16T17:36:26Z</time>
      </trkpt>
      <trkpt lat="28.7718820" lon="-17.9403130">
        <ele>1222.2</ele>
        <time>2020-11-16T17:36:27Z</time>
      </trkpt>
      <trkpt lat="28.7718820" lon="-17.9403130">
        <ele>1222.2</ele>
        <time>2020-11-16T17:36:28Z</time>
      </trkpt>
      <trkpt lat="28.7718150" lon="-17.9404370">
        <ele>1221.0</ele>
        <time>2020-11-16T17:36:29Z</time>
      </trkpt>
      <trkpt lat="28.7718150" lon="-17.9404370">
        <ele>1221.0</ele>
        <time>2020-11-16T17:36:30Z</time>
      </trkpt>
      <trkpt lat="28.7717270" lon="-17.9405300">
        <ele>1219.9</ele>
        <time>2020-11-16T17:36:31Z</time>
      </trkpt>
      <trkpt lat="28.7716800" lon="-17.9405720">
        <ele>1219.4</ele>
        <time>2020-11-16T17:36:32Z</time>
      </trkpt>
      <trkpt lat="28.7716800" lon="-17.9405720">
        <ele>1219.4</ele>
        <time>2020-11-16T17:36:33Z</time>
      </trkpt>
      <trkpt lat="28.7715830" lon="-17.9406500">
        <ele>1218.4</ele>
        <time>2020-11-16T17:36:34Z</time>
      </trkpt>
      <trkpt lat="28.7715830" lon="-17.9406500">
        <ele>1218.4</ele>
        <time>2020-11-16T17:36:35Z</time>
      </trkpt>
      <trkpt lat="28.7714880" lon="-17.9407230">
        <ele>1217.4</ele>
        <time>2020-11-16T17:36:36Z</time>
      </trkpt>
      <trkpt lat="28.7714880" lon="-17.9407230">
        <ele>1217.4</ele>
        <time>2020-11-16T17:36:37Z</time>
      </trkpt>
      <trkpt lat="28.7713870" lon="-17.9407900">
        <ele>1216.4</ele>
        <time>2020-11-16T17:36:38Z</time>
      </trkpt>
      <trkpt lat="28.7713870" lon="-17.9407900">
        <ele>1216.4</ele>
        <time>2020-11-16T17:36:39Z</time>
      </trkpt>
      <trkpt lat="28.7712830" lon="-17.9408250">
        <ele>1215.5</ele>
        <time>2020-11-16T17:36:40Z</time>
      </trkpt>
      <trkpt lat="28.7712320" lon="-17.9408270">
        <ele>1215.0</ele>
        <time>2020-11-16T17:36:41Z</time>
      </trkpt>
      <trkpt lat="28.7712320" lon="-17.9408270">
        <ele>1215.0</ele>
        <time>2020-11-16T17:36:42Z</time>
      </trkpt>
      <trkpt lat="28.7711220" lon="-17.9408200">
        <ele>1214.2</ele>
        <time>2020-11-16T17:36:43Z</time>
      </trkpt>
      <trkpt lat="28.7710670" lon="-17.9408080">
        <ele>1213.7</ele>
        <time>2020-11-16T17:36:44Z</time>
      </trkpt>
      <trkpt lat="28.7710670" lon="-17.9408080">
        <ele>1213.7</ele>
        <time>2020-11-16T17:36:45Z</time>
      </trkpt>
      <trkpt lat="28.7709870" lon="-17.9407720">
        <ele>1213.1</ele>
        <time>2020-11-16T17:36:46Z</time>
      </trkpt>
      <trkpt lat="28.7709870" lon="-17.9407720">
        <ele>1213.1</ele>
        <time>2020-11-16T17:36:47Z</time>
      </trkpt>
      <trkpt lat="28.7708950" lon="-17.9407480">
        <ele>1212.6</ele>
        <time>2020-11-16T17:36:48Z</time>
      </trkpt>
      <trkpt lat="28.7708950" lon="-17.9407480">
        <ele>1212.6</ele>
        <time>2020-11-16T17:36:49Z</time>
      </trkpt>
      <trkpt lat="28.7707930" lon="-17.9407200">
        <ele>1212.0</ele>
        <time>2020-11-16T17:36:50Z</time>
      </trkpt>
      <trkpt lat="28.7707930" lon="-17.9407200">
        <ele>1212.0</ele>
        <time>2020-11-16T17:36:51Z</time>
      </trkpt>
      <trkpt lat="28.7707120" lon="-17.9406820">
        <ele>1211.6</ele>
        <time>2020-11-16T17:36:52Z</time>
      </trkpt>
      <trkpt lat="28.7707120" lon="-17.9406820">
        <ele>1211.6</ele>
        <time>2020-11-16T17:36:53Z</time>
      </trkpt>
      <trkpt lat="28.7706120" lon="-17.9406380">
        <ele>1210.9</ele>
        <time>2020-11-16T17:36:54Z</time>
      </trkpt>
      <trkpt lat="28.7706120" lon="-17.9406380">
        <ele>1210.9</ele>
        <time>2020-11-16T17:36:55Z</time>
      </trkpt>
      <trkpt lat="28.7705730" lon="-17.9406180">
        <ele>1210.7</ele>
        <time>2020-11-16T17:36:56Z</time>
      </trkpt>
      <trkpt lat="28.7705730" lon="-17.9406180">
        <ele>1210.7</ele>
        <time>2020-11-16T17:36:57Z</time>
      </trkpt>
      <trkpt lat="28.7705370" lon="-17.9406450">
        <ele>1210.4</ele>
        <time>2020-11-16T17:36:58Z</time>
      </trkpt>
      <trkpt lat="28.7705030" lon="-17.9406880">
        <ele>1210.1</ele>
        <time>2020-11-16T17:36:59Z</time>
      </trkpt>
      <trkpt lat="28.7705030" lon="-17.9406880">
        <ele>1210.1</ele>
        <time>2020-11-16T17:37:00Z</time>
      </trkpt>
      <trkpt lat="28.7704720" lon="-17.9408050">
        <ele>1209.3</ele>
        <time>2020-11-16T17:37:01Z</time>
      </trkpt>
      <trkpt lat="28.7704580" lon="-17.9408750">
        <ele>1208.8</ele>
        <time>2020-11-16T17:37:02Z</time>
      </trkpt>
      <trkpt lat="28.7704580" lon="-17.9408750">
        <ele>1208.8</ele>
        <time>2020-11-16T17:37:03Z</time>
      </trkpt>
      <trkpt lat="28.7704080" lon="-17.9410180">
        <ele>1207.9</ele>
        <time>2020-11-16T17:37:04Z</time>
      </trkpt>
      <trkpt lat="28.7704080" lon="-17.9410180">
        <ele>1207.9</ele>
        <time>2020-11-16T17:37:05Z</time>
      </trkpt>
      <trkpt lat="28.7703370" lon="-17.9411270">
        <ele>1207.1</ele>
        <time>2020-11-16T17:37:06Z</time>
      </trkpt>
      <trkpt lat="28.7702970" lon="-17.9411720">
        <ele>1206.8</ele>
        <time>2020-11-16T17:37:07Z</time>
      </trkpt>
      <trkpt lat="28.7702550" lon="-17.9412050">
        <ele>1206.4</ele>
        <time>2020-11-16T17:37:08Z</time>
      </trkpt>
      <trkpt lat="28.7702550" lon="-17.9412050">
        <ele>1206.4</ele>
        <time>2020-11-16T17:37:09Z</time>
      </trkpt>
      <trkpt lat="28.7701670" lon="-17.9412450">
        <ele>1205.9</ele>
        <time>2020-11-16T17:37:10Z</time>
      </trkpt>
      <trkpt lat="28.7701170" lon="-17.9412520">
        <ele>1205.9</ele>
        <time>2020-11-16T17:37:11Z</time>
      </trkpt>
      <trkpt lat="28.7700670" lon="-17.9412520">
        <ele>1205.9</ele>
        <time>2020-11-16T17:37:12Z</time>
      </trkpt>
      <trkpt lat="28.7700670" lon="-17.9412520">
        <ele>1205.9</ele>
        <time>2020-11-16T17:37:13Z</time>
      </trkpt>
      <trkpt lat="28.7699700" lon="-17.9412220">
        <ele>1205.8</ele>
        <time>2020-11-16T17:37:14Z</time>
      </trkpt>
      <trkpt lat="28.7699700" lon="-17.9412220">
        <ele>1205.8</ele>
        <time>2020-11-16T17:37:15Z</time>
      </trkpt>
      <trkpt lat="28.7698800" lon="-17.9411670">
        <ele>1205.7</ele>
        <time>2020-11-16T17:37:16Z</time>
      </trkpt>
      <trkpt lat="28.7698800" lon="-17.9411670">
        <ele>1205.7</ele>
        <time>2020-11-16T17:37:17Z</time>
      </trkpt>
      <trkpt lat="28.7697950" lon="-17.9410970">
        <ele>1205.7</ele>
        <time>2020-11-16T17:37:18Z</time>
      </trkpt>
      <trkpt lat="28.7697950" lon="-17.9410970">
        <ele>1205.7</ele>
        <time>2020-11-16T17:37:19Z</time>
      </trkpt>
      <trkpt lat="28.7697070" lon="-17.9410280">
        <ele>1205.7</ele>
        <time>2020-11-16T17:37:20Z</time>
      </trkpt>
      <trkpt lat="28.7697070" lon="-17.9410280">
        <ele>1205.7</ele>
        <time>2020-11-16T17:37:21Z</time>
      </trkpt>
      <trkpt lat="28.7696180" lon="-17.9409600">
        <ele>1205.7</ele>
        <time>2020-11-16T17:37:22Z</time>
      </trkpt>
      <trkpt lat="28.7695800" lon="-17.9409220">
        <ele>1205.7</ele>
        <time>2020-11-16T17:37:23Z</time>
      </trkpt>
      <trkpt lat="28.7695800" lon="-17.9409220">
        <ele>1205.7</ele>
        <time>2020-11-16T17:37:24Z</time>
      </trkpt>
      <trkpt lat="28.7695030" lon="-17.9408400">
        <ele>1205.8</ele>
        <time>2020-11-16T17:37:25Z</time>
      </trkpt>
      <trkpt lat="28.7694580" lon="-17.9408150">
        <ele>1205.9</ele>
        <time>2020-11-16T17:37:26Z</time>
      </trkpt>
      <trkpt lat="28.7694580" lon="-17.9408150">
        <ele>1205.9</ele>
        <time>2020-11-16T17:37:27Z</time>
      </trkpt>
      <trkpt lat="28.7693620" lon="-17.9408150">
        <ele>1206.1</ele>
        <time>2020-11-16T17:37:28Z</time>
      </trkpt>
      <trkpt lat="28.7693620" lon="-17.9408150">
        <ele>1206.1</ele>
        <time>2020-11-16T17:37:29Z</time>
      </trkpt>
      <trkpt lat="28.7692880" lon="-17.9408620">
        <ele>1206.4</ele>
        <time>2020-11-16T17:37:30Z</time>
      </trkpt>
      <trkpt lat="28.7692880" lon="-17.9408620">
        <ele>1206.4</ele>
        <time>2020-11-16T17:37:31Z</time>
      </trkpt>
      <trkpt lat="28.7692230" lon="-17.9408930">
        <ele>1206.7</ele>
        <time>2020-11-16T17:37:32Z</time>
      </trkpt>
      <trkpt lat="28.7692230" lon="-17.9408930">
        <ele>1206.7</ele>
        <time>2020-11-16T17:37:33Z</time>
      </trkpt>
      <trkpt lat="28.7691350" lon="-17.9408930">
        <ele>1207.8</ele>
        <time>2020-11-16T17:37:34Z</time>
      </trkpt>
      <trkpt lat="28.7691350" lon="-17.9408930">
        <ele>1207.8</ele>
        <time>2020-11-16T17:37:35Z</time>
      </trkpt>
      <trkpt lat="28.7690680" lon="-17.9408620">
        <ele>1208.7</ele>
        <time>2020-11-16T17:37:36Z</time>
      </trkpt>
      <trkpt lat="28.7690680" lon="-17.9408620">
        <ele>1208.7</ele>
        <time>2020-11-16T17:37:37Z</time>
      </trkpt>
      <trkpt lat="28.7690180" lon="-17.9408030">
        <ele>1209.7</ele>
        <time>2020-11-16T17:37:38Z</time>
      </trkpt>
      <trkpt lat="28.7690180" lon="-17.9408030">
        <ele>1209.7</ele>
        <time>2020-11-16T17:37:39Z</time>
      </trkpt>
      <trkpt lat="28.7689820" lon="-17.9407350">
        <ele>1210.5</ele>
        <time>2020-11-16T17:37:40Z</time>
      </trkpt>
      <trkpt lat="28.7689820" lon="-17.9407350">
        <ele>1210.5</ele>
        <time>2020-11-16T17:37:41Z</time>
      </trkpt>
      <trkpt lat="28.7689500" lon="-17.9406620">
        <ele>1211.5</ele>
        <time>2020-11-16T17:37:42Z</time>
      </trkpt>
      <trkpt lat="28.7689500" lon="-17.9406620">
        <ele>1211.5</ele>
        <time>2020-11-16T17:37:43Z</time>
      </trkpt>
      <trkpt lat="28.7689230" lon="-17.9405830">
        <ele>1212.5</ele>
        <time>2020-11-16T17:37:44Z</time>
      </trkpt>
      <trkpt lat="28.7689230" lon="-17.9405830">
        <ele>1212.5</ele>
        <time>2020-11-16T17:37:45Z</time>
      </trkpt>
      <trkpt lat="28.7689050" lon="-17.9405020">
        <ele>1213.5</ele>
        <time>2020-11-16T17:37:46Z</time>
      </trkpt>
      <trkpt lat="28.7689050" lon="-17.9405020">
        <ele>1213.5</ele>
        <time>2020-11-16T17:37:47Z</time>
      </trkpt>
      <trkpt lat="28.7688800" lon="-17.9404280">
        <ele>1214.4</ele>
        <time>2020-11-16T17:37:48Z</time>
      </trkpt>
      <trkpt lat="28.7688800" lon="-17.9404280">
        <ele>1214.4</ele>
        <time>2020-11-16T17:37:49Z</time>
      </trkpt>
      <trkpt lat="28.7688530" lon="-17.9403550">
        <ele>1215.4</ele>
        <time>2020-11-16T17:37:50Z</time>
      </trkpt>
      <trkpt lat="28.7688530" lon="-17.9403550">
        <ele>1215.4</ele>
        <time>2020-11-16T17:37:51Z</time>
      </trkpt>
      <trkpt lat="28.7688380" lon="-17.9402870">
        <ele>1216.3</ele>
        <time>2020-11-16T17:37:52Z</time>
      </trkpt>
      <trkpt lat="28.7688380" lon="-17.9402870">
        <ele>1216.3</ele>
        <time>2020-11-16T17:37:53Z</time>
      </trkpt>
      <trkpt lat="28.7688200" lon="-17.9402200">
        <ele>1216.8</ele>
        <time>2020-11-16T17:37:54Z</time>
      </trkpt>
      <trkpt lat="28.7688200" lon="-17.9402200">
        <ele>1216.8</ele>
        <time>2020-11-16T17:37:55Z</time>
      </trkpt>
      <trkpt lat="28.7688250" lon="-17.9401400">
        <ele>1217.0</ele>
        <time>2020-11-16T17:37:56Z</time>
      </trkpt>
      <trkpt lat="28.7688250" lon="-17.9401400">
        <ele>1217.0</ele>
        <time>2020-11-16T17:37:57Z</time>
      </trkpt>
      <trkpt lat="28.7688270" lon="-17.9400670">
        <ele>1217.1</ele>
        <time>2020-11-16T17:37:58Z</time>
      </trkpt>
      <trkpt lat="28.7688270" lon="-17.9400670">
        <ele>1217.1</ele>
        <time>2020-11-16T17:37:59Z</time>
      </trkpt>
      <trkpt lat="28.7688280" lon="-17.9400070">
        <ele>1217.2</ele>
        <time>2020-11-16T17:38:00Z</time>
      </trkpt>
      <trkpt lat="28.7688330" lon="-17.9399730">
        <ele>1217.2</ele>
        <time>2020-11-16T17:38:01Z</time>
      </trkpt>
      <trkpt lat="28.7688330" lon="-17.9399730">
        <ele>1217.2</ele>
        <time>2020-11-16T17:38:02Z</time>
      </trkpt>
      <trkpt lat="28.7688620" lon="-17.9399080">
        <ele>1217.3</ele>
        <time>2020-11-16T17:38:03Z</time>
      </trkpt>
      <trkpt lat="28.7688620" lon="-17.9399080">
        <ele>1217.3</ele>
        <time>2020-11-16T17:38:04Z</time>
      </trkpt>
      <trkpt lat="28.7689030" lon="-17.9398570">
        <ele>1217.3</ele>
        <time>2020-11-16T17:38:05Z</time>
      </trkpt>
      <trkpt lat="28.7689030" lon="-17.9398570">
        <ele>1217.3</ele>
        <time>2020-11-16T17:38:06Z</time>
      </trkpt>
      <trkpt lat="28.7689500" lon="-17.9397930">
        <ele>1217.4</ele>
        <time>2020-11-16T17:38:07Z</time>
      </trkpt>
      <trkpt lat="28.7689730" lon="-17.9397600">
        <ele>1217.4</ele>
        <time>2020-11-16T17:38:08Z</time>
      </trkpt>
      <trkpt lat="28.7689730" lon="-17.9397600">
        <ele>1217.4</ele>
        <time>2020-11-16T17:38:09Z</time>
      </trkpt>
      <trkpt lat="28.7690130" lon="-17.9396880">
        <ele>1217.5</ele>
        <time>2020-11-16T17:38:10Z</time>
      </trkpt>
      <trkpt lat="28.7690130" lon="-17.9396880">
        <ele>1217.5</ele>
        <time>2020-11-16T17:38:11Z</time>
      </trkpt>
      <trkpt lat="28.7690470" lon="-17.9396130">
        <ele>1217.5</ele>
        <time>2020-11-16T17:38:12Z</time>
      </trkpt>
      <trkpt lat="28.7690470" lon="-17.9396130">
        <ele>1217.5</ele>
        <time>2020-11-16T17:38:13Z</time>
      </trkpt>
      <trkpt lat="28.7690400" lon="-17.9395200">
        <ele>1217.5</ele>
        <time>2020-11-16T17:38:14Z</time>
      </trkpt>
      <trkpt lat="28.7690400" lon="-17.9395200">
        <ele>1217.5</ele>
        <time>2020-11-16T17:38:15Z</time>
      </trkpt>
      <trkpt lat="28.7689980" lon="-17.9394450">
        <ele>1217.4</ele>
        <time>2020-11-16T17:38:16Z</time>
      </trkpt>
      <trkpt lat="28.7689650" lon="-17.9394250">
        <ele>1217.4</ele>
        <time>2020-11-16T17:38:17Z</time>
      </trkpt>
      <trkpt lat="28.7689650" lon="-17.9394250">
        <ele>1217.4</ele>
        <time>2020-11-16T17:38:18Z</time>
      </trkpt>
      <trkpt lat="28.7688970" lon="-17.9394100">
        <ele>1217.4</ele>
        <time>2020-11-16T17:38:19Z</time>
      </trkpt>
      <trkpt lat="28.7688600" lon="-17.9394030">
        <ele>1217.4</ele>
        <time>2020-11-16T17:38:20Z</time>
      </trkpt>
      <trkpt lat="28.7688600" lon="-17.9394030">
        <ele>1217.4</ele>
        <time>2020-11-16T17:38:21Z</time>
      </trkpt>
      <trkpt lat="28.7687870" lon="-17.9394020">
        <ele>1217.4</ele>
        <time>2020-11-16T17:38:22Z</time>
      </trkpt>
      <trkpt lat="28.7687870" lon="-17.9394020">
        <ele>1217.4</ele>
        <time>2020-11-16T17:38:23Z</time>
      </trkpt>
      <trkpt lat="28.7687150" lon="-17.9394070">
        <ele>1217.5</ele>
        <time>2020-11-16T17:38:24Z</time>
      </trkpt>
      <trkpt lat="28.7687150" lon="-17.9394070">
        <ele>1217.5</ele>
        <time>2020-11-16T17:38:25Z</time>
      </trkpt>
      <trkpt lat="28.7686430" lon="-17.9394170">
        <ele>1217.5</ele>
        <time>2020-11-16T17:38:26Z</time>
      </trkpt>
      <trkpt lat="28.7686430" lon="-17.9394170">
        <ele>1217.5</ele>
        <time>2020-11-16T17:38:27Z</time>
      </trkpt>
      <trkpt lat="28.7685750" lon="-17.9394200">
        <ele>1217.6</ele>
        <time>2020-11-16T17:38:28Z</time>
      </trkpt>
      <trkpt lat="28.7685750" lon="-17.9394200">
        <ele>1217.6</ele>
        <time>2020-11-16T17:38:29Z</time>
      </trkpt>
      <trkpt lat="28.7685020" lon="-17.9394350">
        <ele>1217.7</ele>
        <time>2020-11-16T17:38:30Z</time>
      </trkpt>
      <trkpt lat="28.7684650" lon="-17.9394370">
        <ele>1217.8</ele>
        <time>2020-11-16T17:38:31Z</time>
      </trkpt>
      <trkpt lat="28.7684650" lon="-17.9394370">
        <ele>1217.8</ele>
        <time>2020-11-16T17:38:32Z</time>
      </trkpt>
      <trkpt lat="28.7683950" lon="-17.9394170">
        <ele>1217.8</ele>
        <time>2020-11-16T17:38:33Z</time>
      </trkpt>
      <trkpt lat="28.7683950" lon="-17.9394170">
        <ele>1217.8</ele>
        <time>2020-11-16T17:38:34Z</time>
      </trkpt>
      <trkpt lat="28.7683520" lon="-17.9393570">
        <ele>1217.9</ele>
        <time>2020-11-16T17:38:35Z</time>
      </trkpt>
      <trkpt lat="28.7683520" lon="-17.9393570">
        <ele>1217.9</ele>
        <time>2020-11-16T17:38:36Z</time>
      </trkpt>
      <trkpt lat="28.7683080" lon="-17.9392850">
        <ele>1217.9</ele>
        <time>2020-11-16T17:38:37Z</time>
      </trkpt>
      <trkpt lat="28.7683080" lon="-17.9392850">
        <ele>1217.9</ele>
        <time>2020-11-16T17:38:38Z</time>
      </trkpt>
      <trkpt lat="28.7682650" lon="-17.9392180">
        <ele>1217.9</ele>
        <time>2020-11-16T17:38:39Z</time>
      </trkpt>
      <trkpt lat="28.7682650" lon="-17.9392180">
        <ele>1217.9</ele>
        <time>2020-11-16T17:38:40Z</time>
      </trkpt>
      <trkpt lat="28.7682020" lon="-17.9391680">
        <ele>1218.0</ele>
        <time>2020-11-16T17:38:41Z</time>
      </trkpt>
      <trkpt lat="28.7681700" lon="-17.9391520">
        <ele>1218.0</ele>
        <time>2020-11-16T17:38:42Z</time>
      </trkpt>
      <trkpt lat="28.7681700" lon="-17.9391520">
        <ele>1218.0</ele>
        <time>2020-11-16T17:38:43Z</time>
      </trkpt>
      <trkpt lat="28.7681050" lon="-17.9391480">
        <ele>1218.1</ele>
        <time>2020-11-16T17:38:44Z</time>
      </trkpt>
      <trkpt lat="28.7681050" lon="-17.9391480">
        <ele>1218.1</ele>
        <time>2020-11-16T17:38:45Z</time>
      </trkpt>
      <trkpt lat="28.7680430" lon="-17.9391520">
        <ele>1218.3</ele>
        <time>2020-11-16T17:38:46Z</time>
      </trkpt>
      <trkpt lat="28.7680100" lon="-17.9391550">
        <ele>1218.4</ele>
        <time>2020-11-16T17:38:47Z</time>
      </trkpt>
      <trkpt lat="28.7680100" lon="-17.9391550">
        <ele>1218.4</ele>
        <time>2020-11-16T17:38:48Z</time>
      </trkpt>
      <trkpt lat="28.7679430" lon="-17.9391670">
        <ele>1218.6</ele>
        <time>2020-11-16T17:38:49Z</time>
      </trkpt>
      <trkpt lat="28.7679430" lon="-17.9391670">
        <ele>1218.6</ele>
        <time>2020-11-16T17:38:50Z</time>
      </trkpt>
      <trkpt lat="28.7678920" lon="-17.9391720">
        <ele>1218.7</ele>
        <time>2020-11-16T17:38:51Z</time>
      </trkpt>
      <trkpt lat="28.7678920" lon="-17.9391720">
        <ele>1218.7</ele>
        <time>2020-11-16T17:38:52Z</time>
      </trkpt>
      <trkpt lat="28.7678330" lon="-17.9391800">
        <ele>1218.9</ele>
        <time>2020-11-16T17:38:53Z</time>
      </trkpt>
      <trkpt lat="28.7678330" lon="-17.9391800">
        <ele>1218.9</ele>
        <time>2020-11-16T17:38:54Z</time>
      </trkpt>
      <trkpt lat="28.7677770" lon="-17.9391820">
        <ele>1219.1</ele>
        <time>2020-11-16T17:38:55Z</time>
      </trkpt>
      <trkpt lat="28.7677770" lon="-17.9391820">
        <ele>1219.1</ele>
        <time>2020-11-16T17:38:56Z</time>
      </trkpt>
      <trkpt lat="28.7677120" lon="-17.9391720">
        <ele>1219.2</ele>
        <time>2020-11-16T17:38:57Z</time>
      </trkpt>
      <trkpt lat="28.7677120" lon="-17.9391720">
        <ele>1219.2</ele>
        <time>2020-11-16T17:38:58Z</time>
      </trkpt>
      <trkpt lat="28.7676520" lon="-17.9391370">
        <ele>1219.2</ele>
        <time>2020-11-16T17:38:59Z</time>
      </trkpt>
      <trkpt lat="28.7676520" lon="-17.9391370">
        <ele>1219.2</ele>
        <time>2020-11-16T17:39:00Z</time>
      </trkpt>
      <trkpt lat="28.7675950" lon="-17.9390920">
        <ele>1219.2</ele>
        <time>2020-11-16T17:39:01Z</time>
      </trkpt>
      <trkpt lat="28.7675950" lon="-17.9390920">
        <ele>1219.2</ele>
        <time>2020-11-16T17:39:02Z</time>
      </trkpt>
      <trkpt lat="28.7675280" lon="-17.9390620">
        <ele>1219.1</ele>
        <time>2020-11-16T17:39:03Z</time>
      </trkpt>
      <trkpt lat="28.7675280" lon="-17.9390620">
        <ele>1219.1</ele>
        <time>2020-11-16T17:39:04Z</time>
      </trkpt>
      <trkpt lat="28.7674620" lon="-17.9390350">
        <ele>1219.1</ele>
        <time>2020-11-16T17:39:05Z</time>
      </trkpt>
      <trkpt lat="28.7674620" lon="-17.9390350">
        <ele>1219.1</ele>
        <time>2020-11-16T17:39:06Z</time>
      </trkpt>
      <trkpt lat="28.7674020" lon="-17.9390030">
        <ele>1219.0</ele>
        <time>2020-11-16T17:39:07Z</time>
      </trkpt>
      <trkpt lat="28.7673750" lon="-17.9389880">
        <ele>1219.0</ele>
        <time>2020-11-16T17:39:08Z</time>
      </trkpt>
      <trkpt lat="28.7673480" lon="-17.9389730">
        <ele>1219.0</ele>
        <time>2020-11-16T17:39:09Z</time>
      </trkpt>
      <trkpt lat="28.7673480" lon="-17.9389730">
        <ele>1219.0</ele>
        <time>2020-11-16T17:39:10Z</time>
      </trkpt>
      <trkpt lat="28.7672920" lon="-17.9389400">
        <ele>1219.0</ele>
        <time>2020-11-16T17:39:11Z</time>
      </trkpt>
      <trkpt lat="28.7672920" lon="-17.9389400">
        <ele>1219.0</ele>
        <time>2020-11-16T17:39:12Z</time>
      </trkpt>
      <trkpt lat="28.7672350" lon="-17.9389050">
        <ele>1219.0</ele>
        <time>2020-11-16T17:39:13Z</time>
      </trkpt>
      <trkpt lat="28.7672350" lon="-17.9389050">
        <ele>1219.0</ele>
        <time>2020-11-16T17:39:14Z</time>
      </trkpt>
      <trkpt lat="28.7671800" lon="-17.9388630">
        <ele>1219.0</ele>
        <time>2020-11-16T17:39:15Z</time>
      </trkpt>
      <trkpt lat="28.7671800" lon="-17.9388630">
        <ele>1219.0</ele>
        <time>2020-11-16T17:39:16Z</time>
      </trkpt>
      <trkpt lat="28.7671250" lon="-17.9388150">
        <ele>1219.1</ele>
        <time>2020-11-16T17:39:17Z</time>
      </trkpt>
      <trkpt lat="28.7671250" lon="-17.9388150">
        <ele>1219.1</ele>
        <time>2020-11-16T17:39:18Z</time>
      </trkpt>
      <trkpt lat="28.7670630" lon="-17.9387630">
        <ele>1219.2</ele>
        <time>2020-11-16T17:39:19Z</time>
      </trkpt>
      <trkpt lat="28.7670630" lon="-17.9387630">
        <ele>1219.2</ele>
        <time>2020-11-16T17:39:20Z</time>
      </trkpt>
      <trkpt lat="28.7670020" lon="-17.9387070">
        <ele>1219.3</ele>
        <time>2020-11-16T17:39:21Z</time>
      </trkpt>
      <trkpt lat="28.7670020" lon="-17.9387070">
        <ele>1219.3</ele>
        <time>2020-11-16T17:39:22Z</time>
      </trkpt>
      <trkpt lat="28.7669320" lon="-17.9386520">
        <ele>1219.3</ele>
        <time>2020-11-16T17:39:23Z</time>
      </trkpt>
      <trkpt lat="28.7669320" lon="-17.9386520">
        <ele>1219.3</ele>
        <time>2020-11-16T17:39:24Z</time>
      </trkpt>
      <trkpt lat="28.7668520" lon="-17.9386120">
        <ele>1219.3</ele>
        <time>2020-11-16T17:39:25Z</time>
      </trkpt>
      <trkpt lat="28.7668080" lon="-17.9386000">
        <ele>1219.3</ele>
        <time>2020-11-16T17:39:26Z</time>
      </trkpt>
      <trkpt lat="28.7668080" lon="-17.9386000">
        <ele>1219.3</ele>
        <time>2020-11-16T17:39:27Z</time>
      </trkpt>
      <trkpt lat="28.7667180" lon="-17.9385850">
        <ele>1219.3</ele>
        <time>2020-11-16T17:39:28Z</time>
      </trkpt>
      <trkpt lat="28.7667180" lon="-17.9385850">
        <ele>1219.3</ele>
        <time>2020-11-16T17:39:29Z</time>
      </trkpt>
      <trkpt lat="28.7666250" lon="-17.9385630">
        <ele>1219.2</ele>
        <time>2020-11-16T17:39:30Z</time>
      </trkpt>
      <trkpt lat="28.7665800" lon="-17.9385500">
        <ele>1219.2</ele>
        <time>2020-11-16T17:39:31Z</time>
      </trkpt>
      <trkpt lat="28.7665800" lon="-17.9385500">
        <ele>1219.2</ele>
        <time>2020-11-16T17:39:32Z</time>
      </trkpt>
      <trkpt lat="28.7664850" lon="-17.9385300">
        <ele>1219.1</ele>
        <time>2020-11-16T17:39:33Z</time>
      </trkpt>
      <trkpt lat="28.7664850" lon="-17.9385300">
        <ele>1219.1</ele>
        <time>2020-11-16T17:39:34Z</time>
      </trkpt>
      <trkpt lat="28.7663820" lon="-17.9385280">
        <ele>1219.0</ele>
        <time>2020-11-16T17:39:35Z</time>
      </trkpt>
      <trkpt lat="28.7663820" lon="-17.9385280">
        <ele>1219.0</ele>
        <time>2020-11-16T17:39:36Z</time>
      </trkpt>
      <trkpt lat="28.7662770" lon="-17.9385320">
        <ele>1218.9</ele>
        <time>2020-11-16T17:39:37Z</time>
      </trkpt>
      <trkpt lat="28.7662770" lon="-17.9385320">
        <ele>1218.9</ele>
        <time>2020-11-16T17:39:38Z</time>
      </trkpt>
      <trkpt lat="28.7661730" lon="-17.9385170">
        <ele>1218.8</ele>
        <time>2020-11-16T17:39:39Z</time>
      </trkpt>
      <trkpt lat="28.7661730" lon="-17.9385170">
        <ele>1218.8</ele>
        <time>2020-11-16T17:39:40Z</time>
      </trkpt>
      <trkpt lat="28.7660620" lon="-17.9384980">
        <ele>1218.6</ele>
        <time>2020-11-16T17:39:41Z</time>
      </trkpt>
      <trkpt lat="28.7660620" lon="-17.9384980">
        <ele>1218.6</ele>
        <time>2020-11-16T17:39:42Z</time>
      </trkpt>
      <trkpt lat="28.7659670" lon="-17.9384530">
        <ele>1218.4</ele>
        <time>2020-11-16T17:39:43Z</time>
      </trkpt>
      <trkpt lat="28.7659670" lon="-17.9384530">
        <ele>1218.4</ele>
        <time>2020-11-16T17:39:44Z</time>
      </trkpt>
      <trkpt lat="28.7658820" lon="-17.9383580">
        <ele>1218.1</ele>
        <time>2020-11-16T17:39:45Z</time>
      </trkpt>
      <trkpt lat="28.7658820" lon="-17.9383580">
        <ele>1218.1</ele>
        <time>2020-11-16T17:39:46Z</time>
      </trkpt>
      <trkpt lat="28.7658220" lon="-17.9382320">
        <ele>1217.8</ele>
        <time>2020-11-16T17:39:47Z</time>
      </trkpt>
      <trkpt lat="28.7658220" lon="-17.9382320">
        <ele>1217.8</ele>
        <time>2020-11-16T17:39:48Z</time>
      </trkpt>
      <trkpt lat="28.7657780" lon="-17.9380880">
        <ele>1217.6</ele>
        <time>2020-11-16T17:39:49Z</time>
      </trkpt>
      <trkpt lat="28.7657650" lon="-17.9380120">
        <ele>1217.5</ele>
        <time>2020-11-16T17:39:50Z</time>
      </trkpt>
      <trkpt lat="28.7657650" lon="-17.9380120">
        <ele>1217.5</ele>
        <time>2020-11-16T17:39:51Z</time>
      </trkpt>
      <trkpt lat="28.7657630" lon="-17.9378530">
        <ele>1217.3</ele>
        <time>2020-11-16T17:39:52Z</time>
      </trkpt>
      <trkpt lat="28.7657630" lon="-17.9378530">
        <ele>1217.3</ele>
        <time>2020-11-16T17:39:53Z</time>
      </trkpt>
      <trkpt lat="28.7658180" lon="-17.9377000">
        <ele>1217.2</ele>
        <time>2020-11-16T17:39:54Z</time>
      </trkpt>
      <trkpt lat="28.7658180" lon="-17.9377000">
        <ele>1217.2</ele>
        <time>2020-11-16T17:39:55Z</time>
      </trkpt>
      <trkpt lat="28.7659130" lon="-17.9375850">
        <ele>1217.1</ele>
        <time>2020-11-16T17:39:56Z</time>
      </trkpt>
      <trkpt lat="28.7659130" lon="-17.9375850">
        <ele>1217.1</ele>
        <time>2020-11-16T17:39:57Z</time>
      </trkpt>
      <trkpt lat="28.7660350" lon="-17.9374970">
        <ele>1217.2</ele>
        <time>2020-11-16T17:39:58Z</time>
      </trkpt>
      <trkpt lat="28.7660350" lon="-17.9374970">
        <ele>1217.2</ele>
        <time>2020-11-16T17:39:59Z</time>
      </trkpt>
      <trkpt lat="28.7661630" lon="-17.9374080">
        <ele>1217.7</ele>
        <time>2020-11-16T17:40:00Z</time>
      </trkpt>
      <trkpt lat="28.7662270" lon="-17.9373670">
        <ele>1218.1</ele>
        <time>2020-11-16T17:40:01Z</time>
      </trkpt>
      <trkpt lat="28.7662850" lon="-17.9373370">
        <ele>1218.6</ele>
        <time>2020-11-16T17:40:02Z</time>
      </trkpt>
      <trkpt lat="28.7662850" lon="-17.9373370">
        <ele>1218.6</ele>
        <time>2020-11-16T17:40:03Z</time>
      </trkpt>
      <trkpt lat="28.7663780" lon="-17.9372770">
        <ele>1219.5</ele>
        <time>2020-11-16T17:40:04Z</time>
      </trkpt>
      <trkpt lat="28.7663780" lon="-17.9372770">
        <ele>1219.5</ele>
        <time>2020-11-16T17:40:05Z</time>
      </trkpt>
      <trkpt lat="28.7664470" lon="-17.9372100">
        <ele>1220.5</ele>
        <time>2020-11-16T17:40:06Z</time>
      </trkpt>
      <trkpt lat="28.7664470" lon="-17.9372100">
        <ele>1220.5</ele>
        <time>2020-11-16T17:40:07Z</time>
      </trkpt>
      <trkpt lat="28.7664970" lon="-17.9371550">
        <ele>1221.3</ele>
        <time>2020-11-16T17:40:08Z</time>
      </trkpt>
      <trkpt lat="28.7665130" lon="-17.9371370">
        <ele>1221.6</ele>
        <time>2020-11-16T17:40:09Z</time>
      </trkpt>
      <trkpt lat="28.7665130" lon="-17.9371370">
        <ele>1221.6</ele>
        <time>2020-11-16T17:40:10Z</time>
      </trkpt>
      <trkpt lat="28.7665330" lon="-17.9371100">
        <ele>1222.0</ele>
        <time>2020-11-16T17:40:11Z</time>
      </trkpt>
      <trkpt lat="28.7665430" lon="-17.9371020">
        <ele>1222.2</ele>
        <time>2020-11-16T17:40:12Z</time>
      </trkpt>
      <trkpt lat="28.7665430" lon="-17.9371020">
        <ele>1222.2</ele>
        <time>2020-11-16T17:40:13Z</time>
      </trkpt>
      <trkpt lat="28.7665530" lon="-17.9370780">
        <ele>1222.5</ele>
        <time>2020-11-16T17:40:14Z</time>
      </trkpt>
      <trkpt lat="28.7665530" lon="-17.9370780">
        <ele>1222.5</ele>
        <time>2020-11-16T17:40:15Z</time>
      </trkpt>
      <trkpt lat="28.7665900" lon="-17.9370320">
        <ele>1223.2</ele>
        <time>2020-11-16T17:40:16Z</time>
      </trkpt>
      <trkpt lat="28.7665900" lon="-17.9370320">
        <ele>1223.2</ele>
        <time>2020-11-16T17:40:17Z</time>
      </trkpt>
      <trkpt lat="28.7666230" lon="-17.9369850">
        <ele>1223.9</ele>
        <time>2020-11-16T17:40:18Z</time>
      </trkpt>
      <trkpt lat="28.7666230" lon="-17.9369850">
        <ele>1223.9</ele>
        <time>2020-11-16T17:40:19Z</time>
      </trkpt>
      <trkpt lat="28.7666580" lon="-17.9369450">
        <ele>1224.5</ele>
        <time>2020-11-16T17:40:20Z</time>
      </trkpt>
      <trkpt lat="28.7666580" lon="-17.9369450">
        <ele>1224.5</ele>
        <time>2020-11-16T17:40:21Z</time>
      </trkpt>
      <trkpt lat="28.7666830" lon="-17.9369050">
        <ele>1225.1</ele>
        <time>2020-11-16T17:40:22Z</time>
      </trkpt>
      <trkpt lat="28.7667000" lon="-17.9368820">
        <ele>1225.4</ele>
        <time>2020-11-16T17:40:23Z</time>
      </trkpt>
      <trkpt lat="28.7667000" lon="-17.9368820">
        <ele>1225.4</ele>
        <time>2020-11-16T17:40:24Z</time>
      </trkpt>
      <trkpt lat="28.7667180" lon="-17.9368420">
        <ele>1225.9</ele>
        <time>2020-11-16T17:40:25Z</time>
      </trkpt>
      <trkpt lat="28.7667280" lon="-17.9368230">
        <ele>1226.2</ele>
        <time>2020-11-16T17:40:26Z</time>
      </trkpt>
      <trkpt lat="28.7667280" lon="-17.9368230">
        <ele>1226.2</ele>
        <time>2020-11-16T17:40:27Z</time>
      </trkpt>
      <trkpt lat="28.7667470" lon="-17.9367870">
        <ele>1226.7</ele>
        <time>2020-11-16T17:40:28Z</time>
      </trkpt>
      <trkpt lat="28.7667470" lon="-17.9367870">
        <ele>1226.7</ele>
        <time>2020-11-16T17:40:29Z</time>
      </trkpt>
      <trkpt lat="28.7667600" lon="-17.9367320">
        <ele>1227.3</ele>
        <time>2020-11-16T17:40:30Z</time>
      </trkpt>
      <trkpt lat="28.7667620" lon="-17.9366970">
        <ele>1227.6</ele>
        <time>2020-11-16T17:40:31Z</time>
      </trkpt>
      <trkpt lat="28.7667730" lon="-17.9366630">
        <ele>1228.0</ele>
        <time>2020-11-16T17:40:32Z</time>
      </trkpt>
      <trkpt lat="28.7667730" lon="-17.9366630">
        <ele>1228.0</ele>
        <time>2020-11-16T17:40:33Z</time>
      </trkpt>
      <trkpt lat="28.7667830" lon="-17.9366180">
        <ele>1228.4</ele>
        <time>2020-11-16T17:40:34Z</time>
      </trkpt>
      <trkpt lat="28.7667830" lon="-17.9366180">
        <ele>1228.4</ele>
        <time>2020-11-16T17:40:35Z</time>
      </trkpt>
      <trkpt lat="28.7667970" lon="-17.9365680">
        <ele>1228.9</ele>
        <time>2020-11-16T17:40:36Z</time>
      </trkpt>
      <trkpt lat="28.7667970" lon="-17.9365680">
        <ele>1228.9</ele>
        <time>2020-11-16T17:40:37Z</time>
      </trkpt>
      <trkpt lat="28.7667980" lon="-17.9365300">
        <ele>1229.2</ele>
        <time>2020-11-16T17:40:38Z</time>
      </trkpt>
      <trkpt lat="28.7667980" lon="-17.9365300">
        <ele>1229.2</ele>
        <time>2020-11-16T17:40:39Z</time>
      </trkpt>
      <trkpt lat="28.7667930" lon="-17.9364770">
        <ele>1229.6</ele>
        <time>2020-11-16T17:40:40Z</time>
      </trkpt>
      <trkpt lat="28.7667930" lon="-17.9364770">
        <ele>1229.6</ele>
        <time>2020-11-16T17:40:41Z</time>
      </trkpt>
      <trkpt lat="28.7668030" lon="-17.9364330">
        <ele>1230.0</ele>
        <time>2020-11-16T17:40:42Z</time>
      </trkpt>
      <trkpt lat="28.7668030" lon="-17.9364330">
        <ele>1230.0</ele>
        <time>2020-11-16T17:40:43Z</time>
      </trkpt>
      <trkpt lat="28.7668050" lon="-17.9363880">
        <ele>1230.3</ele>
        <time>2020-11-16T17:40:44Z</time>
      </trkpt>
      <trkpt lat="28.7668050" lon="-17.9363880">
        <ele>1230.3</ele>
        <time>2020-11-16T17:40:45Z</time>
      </trkpt>
      <trkpt lat="28.7668070" lon="-17.9363400">
        <ele>1230.7</ele>
        <time>2020-11-16T17:40:46Z</time>
      </trkpt>
      <trkpt lat="28.7668070" lon="-17.9363400">
        <ele>1230.7</ele>
        <time>2020-11-16T17:40:47Z</time>
      </trkpt>
      <trkpt lat="28.7668050" lon="-17.9362750">
        <ele>1231.1</ele>
        <time>2020-11-16T17:40:48Z</time>
      </trkpt>
      <trkpt lat="28.7668050" lon="-17.9362750">
        <ele>1231.1</ele>
        <time>2020-11-16T17:40:49Z</time>
      </trkpt>
      <trkpt lat="28.7667900" lon="-17.9362180">
        <ele>1231.4</ele>
        <time>2020-11-16T17:40:50Z</time>
      </trkpt>
      <trkpt lat="28.7667900" lon="-17.9362180">
        <ele>1231.4</ele>
        <time>2020-11-16T17:40:51Z</time>
      </trkpt>
      <trkpt lat="28.7667880" lon="-17.9361670">
        <ele>1231.6</ele>
        <time>2020-11-16T17:40:52Z</time>
      </trkpt>
      <trkpt lat="28.7667880" lon="-17.9361670">
        <ele>1231.6</ele>
        <time>2020-11-16T17:40:53Z</time>
      </trkpt>
      <trkpt lat="28.7667770" lon="-17.9361030">
        <ele>1231.9</ele>
        <time>2020-11-16T17:40:54Z</time>
      </trkpt>
      <trkpt lat="28.7667680" lon="-17.9360680">
        <ele>1232.0</ele>
        <time>2020-11-16T17:40:55Z</time>
      </trkpt>
      <trkpt lat="28.7667680" lon="-17.9360680">
        <ele>1232.0</ele>
        <time>2020-11-16T17:40:56Z</time>
      </trkpt>
      <trkpt lat="28.7667450" lon="-17.9360120">
        <ele>1232.1</ele>
        <time>2020-11-16T17:40:57Z</time>
      </trkpt>
      <trkpt lat="28.7667330" lon="-17.9359800">
        <ele>1232.2</ele>
        <time>2020-11-16T17:40:58Z</time>
      </trkpt>
      <trkpt lat="28.7667330" lon="-17.9359800">
        <ele>1232.2</ele>
        <time>2020-11-16T17:40:59Z</time>
      </trkpt>
      <trkpt lat="28.7666980" lon="-17.9359180">
        <ele>1232.2</ele>
        <time>2020-11-16T17:41:00Z</time>
      </trkpt>
      <trkpt lat="28.7666980" lon="-17.9359180">
        <ele>1232.2</ele>
        <time>2020-11-16T17:41:01Z</time>
      </trkpt>
      <trkpt lat="28.7666570" lon="-17.9358420">
        <ele>1232.2</ele>
        <time>2020-11-16T17:41:02Z</time>
      </trkpt>
      <trkpt lat="28.7666570" lon="-17.9358420">
        <ele>1232.2</ele>
        <time>2020-11-16T17:41:03Z</time>
      </trkpt>
      <trkpt lat="28.7666080" lon="-17.9357820">
        <ele>1232.0</ele>
        <time>2020-11-16T17:41:04Z</time>
      </trkpt>
      <trkpt lat="28.7666080" lon="-17.9357820">
        <ele>1232.0</ele>
        <time>2020-11-16T17:41:05Z</time>
      </trkpt>
      <trkpt lat="28.7665500" lon="-17.9357050">
        <ele>1231.6</ele>
        <time>2020-11-16T17:41:06Z</time>
      </trkpt>
      <trkpt lat="28.7665500" lon="-17.9357050">
        <ele>1231.6</ele>
        <time>2020-11-16T17:41:07Z</time>
      </trkpt>
      <trkpt lat="28.7664830" lon="-17.9356150">
        <ele>1230.9</ele>
        <time>2020-11-16T17:41:08Z</time>
      </trkpt>
      <trkpt lat="28.7664830" lon="-17.9356150">
        <ele>1230.9</ele>
        <time>2020-11-16T17:41:09Z</time>
      </trkpt>
      <trkpt lat="28.7663980" lon="-17.9355380">
        <ele>1229.9</ele>
        <time>2020-11-16T17:41:10Z</time>
      </trkpt>
      <trkpt lat="28.7663980" lon="-17.9355380">
        <ele>1229.9</ele>
        <time>2020-11-16T17:41:11Z</time>
      </trkpt>
      <trkpt lat="28.7662820" lon="-17.9354780">
        <ele>1228.7</ele>
        <time>2020-11-16T17:41:12Z</time>
      </trkpt>
      <trkpt lat="28.7662820" lon="-17.9354780">
        <ele>1228.7</ele>
        <time>2020-11-16T17:41:13Z</time>
      </trkpt>
      <trkpt lat="28.7661120" lon="-17.9353870">
        <ele>1227.3</ele>
        <time>2020-11-16T17:41:14Z</time>
      </trkpt>
      <trkpt lat="28.7661120" lon="-17.9353870">
        <ele>1227.3</ele>
        <time>2020-11-16T17:41:15Z</time>
      </trkpt>
      <trkpt lat="28.7659370" lon="-17.9353130">
        <ele>1226.5</ele>
        <time>2020-11-16T17:41:16Z</time>
      </trkpt>
      <trkpt lat="28.7659370" lon="-17.9353130">
        <ele>1226.5</ele>
        <time>2020-11-16T17:41:17Z</time>
      </trkpt>
      <trkpt lat="28.7657620" lon="-17.9352920">
        <ele>1226.1</ele>
        <time>2020-11-16T17:41:18Z</time>
      </trkpt>
      <trkpt lat="28.7657620" lon="-17.9352920">
        <ele>1226.1</ele>
        <time>2020-11-16T17:41:19Z</time>
      </trkpt>
      <trkpt lat="28.7656180" lon="-17.9353750">
        <ele>1225.8</ele>
        <time>2020-11-16T17:41:20Z</time>
      </trkpt>
      <trkpt lat="28.7656180" lon="-17.9353750">
        <ele>1225.8</ele>
        <time>2020-11-16T17:41:21Z</time>
      </trkpt>
      <trkpt lat="28.7655570" lon="-17.9355330">
        <ele>1225.7</ele>
        <time>2020-11-16T17:41:22Z</time>
      </trkpt>
      <trkpt lat="28.7655570" lon="-17.9355330">
        <ele>1225.7</ele>
        <time>2020-11-16T17:41:23Z</time>
      </trkpt>
      <trkpt lat="28.7655800" lon="-17.9356930">
        <ele>1226.0</ele>
        <time>2020-11-16T17:41:24Z</time>
      </trkpt>
      <trkpt lat="28.7656120" lon="-17.9357630">
        <ele>1226.2</ele>
        <time>2020-11-16T17:41:25Z</time>
      </trkpt>
      <trkpt lat="28.7656120" lon="-17.9357630">
        <ele>1226.2</ele>
        <time>2020-11-16T17:41:26Z</time>
      </trkpt>
      <trkpt lat="28.7656920" lon="-17.9358700">
        <ele>1226.6</ele>
        <time>2020-11-16T17:41:27Z</time>
      </trkpt>
      <trkpt lat="28.7656920" lon="-17.9358700">
        <ele>1226.6</ele>
        <time>2020-11-16T17:41:28Z</time>
      </trkpt>
      <trkpt lat="28.7657970" lon="-17.9359450">
        <ele>1227.2</ele>
        <time>2020-11-16T17:41:29Z</time>
      </trkpt>
      <trkpt lat="28.7657970" lon="-17.9359450">
        <ele>1227.2</ele>
        <time>2020-11-16T17:41:30Z</time>
      </trkpt>
      <trkpt lat="28.7658770" lon="-17.9360050">
        <ele>1227.7</ele>
        <time>2020-11-16T17:41:31Z</time>
      </trkpt>
      <trkpt lat="28.7659100" lon="-17.9360470">
        <ele>1228.0</ele>
        <time>2020-11-16T17:41:32Z</time>
      </trkpt>
      <trkpt lat="28.7659100" lon="-17.9360470">
        <ele>1228.0</ele>
        <time>2020-11-16T17:41:33Z</time>
      </trkpt>
      <trkpt lat="28.7659980" lon="-17.9361550">
        <ele>1228.8</ele>
        <time>2020-11-16T17:41:34Z</time>
      </trkpt>
      <trkpt lat="28.7659980" lon="-17.9361550">
        <ele>1228.8</ele>
        <time>2020-11-16T17:41:35Z</time>
      </trkpt>
      <trkpt lat="28.7660130" lon="-17.9362600">
        <ele>1229.5</ele>
        <time>2020-11-16T17:41:36Z</time>
      </trkpt>
      <trkpt lat="28.7660130" lon="-17.9362600">
        <ele>1229.5</ele>
        <time>2020-11-16T17:41:37Z</time>
      </trkpt>
      <trkpt lat="28.7659950" lon="-17.9363430">
        <ele>1230.0</ele>
        <time>2020-11-16T17:41:38Z</time>
      </trkpt>
      <trkpt lat="28.7659950" lon="-17.9363430">
        <ele>1230.0</ele>
        <time>2020-11-16T17:41:39Z</time>
      </trkpt>
      <trkpt lat="28.7659420" lon="-17.9364080">
        <ele>1230.5</ele>
        <time>2020-11-16T17:41:40Z</time>
      </trkpt>
      <trkpt lat="28.7659420" lon="-17.9364080">
        <ele>1230.5</ele>
        <time>2020-11-16T17:41:41Z</time>
      </trkpt>
      <trkpt lat="28.7658820" lon="-17.9364450">
        <ele>1231.0</ele>
        <time>2020-11-16T17:41:42Z</time>
      </trkpt>
      <trkpt lat="28.7658480" lon="-17.9364580">
        <ele>1231.2</ele>
        <time>2020-11-16T17:41:43Z</time>
      </trkpt>
      <trkpt lat="28.7658480" lon="-17.9364580">
        <ele>1231.2</ele>
        <time>2020-11-16T17:41:44Z</time>
      </trkpt>
      <trkpt lat="28.7657850" lon="-17.9364870">
        <ele>1231.7</ele>
        <time>2020-11-16T17:41:45Z</time>
      </trkpt>
      <trkpt lat="28.7657850" lon="-17.9364870">
        <ele>1231.7</ele>
        <time>2020-11-16T17:41:46Z</time>
      </trkpt>
      <trkpt lat="28.7657250" lon="-17.9365050">
        <ele>1232.1</ele>
        <time>2020-11-16T17:41:47Z</time>
      </trkpt>
      <trkpt lat="28.7657250" lon="-17.9365050">
        <ele>1232.1</ele>
        <time>2020-11-16T17:41:48Z</time>
      </trkpt>
      <trkpt lat="28.7656650" lon="-17.9365220">
        <ele>1232.5</ele>
        <time>2020-11-16T17:41:49Z</time>
      </trkpt>
      <trkpt lat="28.7656650" lon="-17.9365220">
        <ele>1232.5</ele>
        <time>2020-11-16T17:41:50Z</time>
      </trkpt>
      <trkpt lat="28.7655970" lon="-17.9365320">
        <ele>1232.9</ele>
        <time>2020-11-16T17:41:51Z</time>
      </trkpt>
      <trkpt lat="28.7655970" lon="-17.9365320">
        <ele>1232.9</ele>
        <time>2020-11-16T17:41:52Z</time>
      </trkpt>
      <trkpt lat="28.7655300" lon="-17.9365380">
        <ele>1233.3</ele>
        <time>2020-11-16T17:41:53Z</time>
      </trkpt>
      <trkpt lat="28.7654970" lon="-17.9365400">
        <ele>1233.5</ele>
        <time>2020-11-16T17:41:54Z</time>
      </trkpt>
      <trkpt lat="28.7654970" lon="-17.9365400">
        <ele>1233.5</ele>
        <time>2020-11-16T17:41:55Z</time>
      </trkpt>
      <trkpt lat="28.7654320" lon="-17.9365420">
        <ele>1233.9</ele>
        <time>2020-11-16T17:41:56Z</time>
      </trkpt>
      <trkpt lat="28.7654320" lon="-17.9365420">
        <ele>1233.9</ele>
        <time>2020-11-16T17:41:57Z</time>
      </trkpt>
      <trkpt lat="28.7653670" lon="-17.9365470">
        <ele>1234.2</ele>
        <time>2020-11-16T17:41:58Z</time>
      </trkpt>
      <trkpt lat="28.7653300" lon="-17.9365570">
        <ele>1234.4</ele>
        <time>2020-11-16T17:41:59Z</time>
      </trkpt>
      <trkpt lat="28.7653300" lon="-17.9365570">
        <ele>1234.4</ele>
        <time>2020-11-16T17:42:00Z</time>
      </trkpt>
      <trkpt lat="28.7652680" lon="-17.9365930">
        <ele>1234.7</ele>
        <time>2020-11-16T17:42:01Z</time>
      </trkpt>
      <trkpt lat="28.7652680" lon="-17.9365930">
        <ele>1234.7</ele>
        <time>2020-11-16T17:42:02Z</time>
      </trkpt>
      <trkpt lat="28.7652100" lon="-17.9366430">
        <ele>1235.0</ele>
        <time>2020-11-16T17:42:03Z</time>
      </trkpt>
      <trkpt lat="28.7652100" lon="-17.9366430">
        <ele>1235.0</ele>
        <time>2020-11-16T17:42:04Z</time>
      </trkpt>
      <trkpt lat="28.7651500" lon="-17.9366970">
        <ele>1235.4</ele>
        <time>2020-11-16T17:42:05Z</time>
      </trkpt>
      <trkpt lat="28.7651500" lon="-17.9366970">
        <ele>1235.4</ele>
        <time>2020-11-16T17:42:06Z</time>
      </trkpt>
      <trkpt lat="28.7650970" lon="-17.9367480">
        <ele>1235.8</ele>
        <time>2020-11-16T17:42:07Z</time>
      </trkpt>
      <trkpt lat="28.7650970" lon="-17.9367480">
        <ele>1235.8</ele>
        <time>2020-11-16T17:42:08Z</time>
      </trkpt>
      <trkpt lat="28.7650470" lon="-17.9368070">
        <ele>1236.1</ele>
        <time>2020-11-16T17:42:09Z</time>
      </trkpt>
      <trkpt lat="28.7650470" lon="-17.9368070">
        <ele>1236.1</ele>
        <time>2020-11-16T17:42:10Z</time>
      </trkpt>
      <trkpt lat="28.7649950" lon="-17.9368620">
        <ele>1236.5</ele>
        <time>2020-11-16T17:42:11Z</time>
      </trkpt>
      <trkpt lat="28.7649950" lon="-17.9368620">
        <ele>1236.5</ele>
        <time>2020-11-16T17:42:12Z</time>
      </trkpt>
      <trkpt lat="28.7649420" lon="-17.9369170">
        <ele>1236.9</ele>
        <time>2020-11-16T17:42:13Z</time>
      </trkpt>
      <trkpt lat="28.7649130" lon="-17.9369450">
        <ele>1237.1</ele>
        <time>2020-11-16T17:42:14Z</time>
      </trkpt>
      <trkpt lat="28.7649130" lon="-17.9369450">
        <ele>1237.1</ele>
        <time>2020-11-16T17:42:15Z</time>
      </trkpt>
      <trkpt lat="28.7648550" lon="-17.9369900">
        <ele>1237.5</ele>
        <time>2020-11-16T17:42:16Z</time>
      </trkpt>
      <trkpt lat="28.7648550" lon="-17.9369900">
        <ele>1237.5</ele>
        <time>2020-11-16T17:42:17Z</time>
      </trkpt>
      <trkpt lat="28.7647970" lon="-17.9370380">
        <ele>1237.9</ele>
        <time>2020-11-16T17:42:18Z</time>
      </trkpt>
      <trkpt lat="28.7647670" lon="-17.9370650">
        <ele>1238.1</ele>
        <time>2020-11-16T17:42:19Z</time>
      </trkpt>
      <trkpt lat="28.7647670" lon="-17.9370650">
        <ele>1238.1</ele>
        <time>2020-11-16T17:42:20Z</time>
      </trkpt>
      <trkpt lat="28.7647170" lon="-17.9371220">
        <ele>1238.6</ele>
        <time>2020-11-16T17:42:21Z</time>
      </trkpt>
      <trkpt lat="28.7646930" lon="-17.9371470">
        <ele>1238.8</ele>
        <time>2020-11-16T17:42:22Z</time>
      </trkpt>
      <trkpt lat="28.7646680" lon="-17.9371730">
        <ele>1239.0</ele>
        <time>2020-11-16T17:42:23Z</time>
      </trkpt>
      <trkpt lat="28.7646680" lon="-17.9371730">
        <ele>1239.0</ele>
        <time>2020-11-16T17:42:24Z</time>
      </trkpt>
      <trkpt lat="28.7646220" lon="-17.9372320">
        <ele>1239.4</ele>
        <time>2020-11-16T17:42:25Z</time>
      </trkpt>
      <trkpt lat="28.7645970" lon="-17.9372620">
        <ele>1239.6</ele>
        <time>2020-11-16T17:42:26Z</time>
      </trkpt>
      <trkpt lat="28.7645970" lon="-17.9372620">
        <ele>1239.6</ele>
        <time>2020-11-16T17:42:27Z</time>
      </trkpt>
      <trkpt lat="28.7645550" lon="-17.9373180">
        <ele>1240.0</ele>
        <time>2020-11-16T17:42:28Z</time>
      </trkpt>
      <trkpt lat="28.7645550" lon="-17.9373180">
        <ele>1240.0</ele>
        <time>2020-11-16T17:42:29Z</time>
      </trkpt>
      <trkpt lat="28.7645170" lon="-17.9373770">
        <ele>1240.4</ele>
        <time>2020-11-16T17:42:30Z</time>
      </trkpt>
      <trkpt lat="28.7645170" lon="-17.9373770">
        <ele>1240.4</ele>
        <time>2020-11-16T17:42:31Z</time>
      </trkpt>
      <trkpt lat="28.7644770" lon="-17.9374370">
        <ele>1240.9</ele>
        <time>2020-11-16T17:42:32Z</time>
      </trkpt>
      <trkpt lat="28.7644770" lon="-17.9374370">
        <ele>1240.9</ele>
        <time>2020-11-16T17:42:33Z</time>
      </trkpt>
      <trkpt lat="28.7644530" lon="-17.9374980">
        <ele>1241.3</ele>
        <time>2020-11-16T17:42:34Z</time>
      </trkpt>
      <trkpt lat="28.7644380" lon="-17.9375280">
        <ele>1241.6</ele>
        <time>2020-11-16T17:42:35Z</time>
      </trkpt>
      <trkpt lat="28.7644380" lon="-17.9375280">
        <ele>1241.6</ele>
        <time>2020-11-16T17:42:36Z</time>
      </trkpt>
      <trkpt lat="28.7644120" lon="-17.9375850">
        <ele>1242.0</ele>
        <time>2020-11-16T17:42:37Z</time>
      </trkpt>
      <trkpt lat="28.7643980" lon="-17.9376130">
        <ele>1242.2</ele>
        <time>2020-11-16T17:42:38Z</time>
      </trkpt>
      <trkpt lat="28.7643980" lon="-17.9376130">
        <ele>1242.2</ele>
        <time>2020-11-16T17:42:39Z</time>
      </trkpt>
      <trkpt lat="28.7643770" lon="-17.9376650">
        <ele>1242.6</ele>
        <time>2020-11-16T17:42:40Z</time>
      </trkpt>
      <trkpt lat="28.7643770" lon="-17.9376650">
        <ele>1242.6</ele>
        <time>2020-11-16T17:42:41Z</time>
      </trkpt>
      <trkpt lat="28.7643530" lon="-17.9377180">
        <ele>1243.0</ele>
        <time>2020-11-16T17:42:42Z</time>
      </trkpt>
      <trkpt lat="28.7643530" lon="-17.9377180">
        <ele>1243.0</ele>
        <time>2020-11-16T17:42:43Z</time>
      </trkpt>
      <trkpt lat="28.7643300" lon="-17.9377750">
        <ele>1243.4</ele>
        <time>2020-11-16T17:42:44Z</time>
      </trkpt>
      <trkpt lat="28.7643230" lon="-17.9378020">
        <ele>1243.6</ele>
        <time>2020-11-16T17:42:45Z</time>
      </trkpt>
      <trkpt lat="28.7643230" lon="-17.9378020">
        <ele>1243.6</ele>
        <time>2020-11-16T17:42:46Z</time>
      </trkpt>
      <trkpt lat="28.7643120" lon="-17.9378530">
        <ele>1243.9</ele>
        <time>2020-11-16T17:42:47Z</time>
      </trkpt>
      <trkpt lat="28.7643030" lon="-17.9378780">
        <ele>1244.1</ele>
        <time>2020-11-16T17:42:48Z</time>
      </trkpt>
      <trkpt lat="28.7642950" lon="-17.9379050">
        <ele>1244.3</ele>
        <time>2020-11-16T17:42:49Z</time>
      </trkpt>
      <trkpt lat="28.7642950" lon="-17.9379050">
        <ele>1244.3</ele>
        <time>2020-11-16T17:42:50Z</time>
      </trkpt>
      <trkpt lat="28.7642830" lon="-17.9379580">
        <ele>1244.6</ele>
        <time>2020-11-16T17:42:51Z</time>
      </trkpt>
      <trkpt lat="28.7642830" lon="-17.9379580">
        <ele>1244.6</ele>
        <time>2020-11-16T17:42:52Z</time>
      </trkpt>
      <trkpt lat="28.7642720" lon="-17.9380230">
        <ele>1245.1</ele>
        <time>2020-11-16T17:42:53Z</time>
      </trkpt>
      <trkpt lat="28.7642720" lon="-17.9380570">
        <ele>1245.3</ele>
        <time>2020-11-16T17:42:54Z</time>
      </trkpt>
      <trkpt lat="28.7642720" lon="-17.9380570">
        <ele>1245.3</ele>
        <time>2020-11-16T17:42:55Z</time>
      </trkpt>
      <trkpt lat="28.7642770" lon="-17.9381220">
        <ele>1245.7</ele>
        <time>2020-11-16T17:42:56Z</time>
      </trkpt>
      <trkpt lat="28.7642770" lon="-17.9381220">
        <ele>1245.7</ele>
        <time>2020-11-16T17:42:57Z</time>
      </trkpt>
      <trkpt lat="28.7642730" lon="-17.9381830">
        <ele>1246.2</ele>
        <time>2020-11-16T17:42:58Z</time>
      </trkpt>
      <trkpt lat="28.7642730" lon="-17.9381830">
        <ele>1246.2</ele>
        <time>2020-11-16T17:42:59Z</time>
      </trkpt>
      <trkpt lat="28.7642680" lon="-17.9382470">
        <ele>1246.6</ele>
        <time>2020-11-16T17:43:00Z</time>
      </trkpt>
      <trkpt lat="28.7642680" lon="-17.9382820">
        <ele>1246.8</ele>
        <time>2020-11-16T17:43:01Z</time>
      </trkpt>
      <trkpt lat="28.7642680" lon="-17.9382820">
        <ele>1246.8</ele>
        <time>2020-11-16T17:43:02Z</time>
      </trkpt>
      <trkpt lat="28.7642680" lon="-17.9383420">
        <ele>1247.3</ele>
        <time>2020-11-16T17:43:03Z</time>
      </trkpt>
      <trkpt lat="28.7642680" lon="-17.9383420">
        <ele>1247.3</ele>
        <time>2020-11-16T17:43:04Z</time>
      </trkpt>
      <trkpt lat="28.7642750" lon="-17.9384050">
        <ele>1247.4</ele>
        <time>2020-11-16T17:43:05Z</time>
      </trkpt>
      <trkpt lat="28.7642750" lon="-17.9384050">
        <ele>1247.4</ele>
        <time>2020-11-16T17:43:06Z</time>
      </trkpt>
      <trkpt lat="28.7642720" lon="-17.9384620">
        <ele>1247.6</ele>
        <time>2020-11-16T17:43:07Z</time>
      </trkpt>
      <trkpt lat="28.7642720" lon="-17.9384620">
        <ele>1247.6</ele>
        <time>2020-11-16T17:43:08Z</time>
      </trkpt>
      <trkpt lat="28.7642930" lon="-17.9385220">
        <ele>1247.8</ele>
        <time>2020-11-16T17:43:09Z</time>
      </trkpt>
      <trkpt lat="28.7642980" lon="-17.9385550">
        <ele>1248.0</ele>
        <time>2020-11-16T17:43:10Z</time>
      </trkpt>
      <trkpt lat="28.7642980" lon="-17.9385550">
        <ele>1248.0</ele>
        <time>2020-11-16T17:43:11Z</time>
      </trkpt>
      <trkpt lat="28.7643170" lon="-17.9386150">
        <ele>1248.2</ele>
        <time>2020-11-16T17:43:12Z</time>
      </trkpt>
      <trkpt lat="28.7643170" lon="-17.9386150">
        <ele>1248.2</ele>
        <time>2020-11-16T17:43:13Z</time>
      </trkpt>
      <trkpt lat="28.7643280" lon="-17.9386730">
        <ele>1248.4</ele>
        <time>2020-11-16T17:43:14Z</time>
      </trkpt>
      <trkpt lat="28.7643280" lon="-17.9386730">
        <ele>1248.4</ele>
        <time>2020-11-16T17:43:15Z</time>
      </trkpt>
      <trkpt lat="28.7643350" lon="-17.9387330">
        <ele>1248.5</ele>
        <time>2020-11-16T17:43:16Z</time>
      </trkpt>
      <trkpt lat="28.7643350" lon="-17.9387330">
        <ele>1248.5</ele>
        <time>2020-11-16T17:43:17Z</time>
      </trkpt>
      <trkpt lat="28.7643400" lon="-17.9387880">
        <ele>1248.7</ele>
        <time>2020-11-16T17:43:18Z</time>
      </trkpt>
      <trkpt lat="28.7643380" lon="-17.9388130">
        <ele>1248.8</ele>
        <time>2020-11-16T17:43:19Z</time>
      </trkpt>
      <trkpt lat="28.7643420" lon="-17.9388420">
        <ele>1248.8</ele>
        <time>2020-11-16T17:43:20Z</time>
      </trkpt>
      <trkpt lat="28.7643420" lon="-17.9388420">
        <ele>1248.8</ele>
        <time>2020-11-16T17:43:21Z</time>
      </trkpt>
      <trkpt lat="28.7643530" lon="-17.9388970">
        <ele>1249.0</ele>
        <time>2020-11-16T17:43:22Z</time>
      </trkpt>
      <trkpt lat="28.7643530" lon="-17.9388970">
        <ele>1249.0</ele>
        <time>2020-11-16T17:43:23Z</time>
      </trkpt>
      <trkpt lat="28.7643670" lon="-17.9389500">
        <ele>1249.2</ele>
        <time>2020-11-16T17:43:24Z</time>
      </trkpt>
      <trkpt lat="28.7643670" lon="-17.9389500">
        <ele>1249.2</ele>
        <time>2020-11-16T17:43:25Z</time>
      </trkpt>
      <trkpt lat="28.7643770" lon="-17.9390000">
        <ele>1249.3</ele>
        <time>2020-11-16T17:43:26Z</time>
      </trkpt>
      <trkpt lat="28.7643770" lon="-17.9390000">
        <ele>1249.3</ele>
        <time>2020-11-16T17:43:27Z</time>
      </trkpt>
      <trkpt lat="28.7643770" lon="-17.9390580">
        <ele>1249.5</ele>
        <time>2020-11-16T17:43:28Z</time>
      </trkpt>
      <trkpt lat="28.7643770" lon="-17.9390580">
        <ele>1249.5</ele>
        <time>2020-11-16T17:43:29Z</time>
      </trkpt>
      <trkpt lat="28.7643750" lon="-17.9391180">
        <ele>1249.6</ele>
        <time>2020-11-16T17:43:30Z</time>
      </trkpt>
      <trkpt lat="28.7643750" lon="-17.9391180">
        <ele>1249.6</ele>
        <time>2020-11-16T17:43:31Z</time>
      </trkpt>
      <trkpt lat="28.7643750" lon="-17.9391750">
        <ele>1249.7</ele>
        <time>2020-11-16T17:43:32Z</time>
      </trkpt>
      <trkpt lat="28.7643750" lon="-17.9391750">
        <ele>1249.7</ele>
        <time>2020-11-16T17:43:33Z</time>
      </trkpt>
      <trkpt lat="28.7643750" lon="-17.9392330">
        <ele>1249.9</ele>
        <time>2020-11-16T17:43:34Z</time>
      </trkpt>
      <trkpt lat="28.7643750" lon="-17.9392330">
        <ele>1249.9</ele>
        <time>2020-11-16T17:43:35Z</time>
      </trkpt>
      <trkpt lat="28.7643820" lon="-17.9392880">
        <ele>1250.0</ele>
        <time>2020-11-16T17:43:36Z</time>
      </trkpt>
      <trkpt lat="28.7643820" lon="-17.9392880">
        <ele>1250.0</ele>
        <time>2020-11-16T17:43:37Z</time>
      </trkpt>
      <trkpt lat="28.7643820" lon="-17.9393450">
        <ele>1250.1</ele>
        <time>2020-11-16T17:43:38Z</time>
      </trkpt>
      <trkpt lat="28.7643820" lon="-17.9393450">
        <ele>1250.1</ele>
        <time>2020-11-16T17:43:39Z</time>
      </trkpt>
      <trkpt lat="28.7643770" lon="-17.9394020">
        <ele>1250.2</ele>
        <time>2020-11-16T17:43:40Z</time>
      </trkpt>
      <trkpt lat="28.7643770" lon="-17.9394020">
        <ele>1250.2</ele>
        <time>2020-11-16T17:43:41Z</time>
      </trkpt>
      <trkpt lat="28.7643730" lon="-17.9394580">
        <ele>1250.3</ele>
        <time>2020-11-16T17:43:42Z</time>
      </trkpt>
      <trkpt lat="28.7643730" lon="-17.9394580">
        <ele>1250.3</ele>
        <time>2020-11-16T17:43:43Z</time>
      </trkpt>
      <trkpt lat="28.7643780" lon="-17.9395170">
        <ele>1250.3</ele>
        <time>2020-11-16T17:43:44Z</time>
      </trkpt>
      <trkpt lat="28.7643780" lon="-17.9395170">
        <ele>1250.3</ele>
        <time>2020-11-16T17:43:45Z</time>
      </trkpt>
      <trkpt lat="28.7643750" lon="-17.9395750">
        <ele>1250.4</ele>
        <time>2020-11-16T17:43:46Z</time>
      </trkpt>
      <trkpt lat="28.7643750" lon="-17.9395750">
        <ele>1250.4</ele>
        <time>2020-11-16T17:43:47Z</time>
      </trkpt>
      <trkpt lat="28.7643550" lon="-17.9396300">
        <ele>1250.4</ele>
        <time>2020-11-16T17:43:48Z</time>
      </trkpt>
      <trkpt lat="28.7643380" lon="-17.9396580">
        <ele>1250.4</ele>
        <time>2020-11-16T17:43:49Z</time>
      </trkpt>
      <trkpt lat="28.7643380" lon="-17.9396580">
        <ele>1250.4</ele>
        <time>2020-11-16T17:43:50Z</time>
      </trkpt>
      <trkpt lat="28.7642980" lon="-17.9397030">
        <ele>1250.4</ele>
        <time>2020-11-16T17:43:51Z</time>
      </trkpt>
      <trkpt lat="28.7642980" lon="-17.9397030">
        <ele>1250.4</ele>
        <time>2020-11-16T17:43:52Z</time>
      </trkpt>
      <trkpt lat="28.7642320" lon="-17.9397270">
        <ele>1250.3</ele>
        <time>2020-11-16T17:43:53Z</time>
      </trkpt>
      <trkpt lat="28.7642320" lon="-17.9397270">
        <ele>1250.3</ele>
        <time>2020-11-16T17:43:54Z</time>
      </trkpt>
      <trkpt lat="28.7641600" lon="-17.9397270">
        <ele>1250.2</ele>
        <time>2020-11-16T17:43:55Z</time>
      </trkpt>
      <trkpt lat="28.7641600" lon="-17.9397270">
        <ele>1250.2</ele>
        <time>2020-11-16T17:43:56Z</time>
      </trkpt>
      <trkpt lat="28.7640850" lon="-17.9397100">
        <ele>1250.1</ele>
        <time>2020-11-16T17:43:57Z</time>
      </trkpt>
      <trkpt lat="28.7640470" lon="-17.9397050">
        <ele>1250.1</ele>
        <time>2020-11-16T17:43:58Z</time>
      </trkpt>
      <trkpt lat="28.7640470" lon="-17.9397050">
        <ele>1250.1</ele>
        <time>2020-11-16T17:43:59Z</time>
      </trkpt>
      <trkpt lat="28.7639800" lon="-17.9397100">
        <ele>1250.0</ele>
        <time>2020-11-16T17:44:00Z</time>
      </trkpt>
      <trkpt lat="28.7639800" lon="-17.9397100">
        <ele>1250.0</ele>
        <time>2020-11-16T17:44:01Z</time>
      </trkpt>
      <trkpt lat="28.7639270" lon="-17.9397320">
        <ele>1250.0</ele>
        <time>2020-11-16T17:44:02Z</time>
      </trkpt>
      <trkpt lat="28.7639270" lon="-17.9397320">
        <ele>1250.0</ele>
        <time>2020-11-16T17:44:03Z</time>
      </trkpt>
      <trkpt lat="28.7638920" lon="-17.9397500">
        <ele>1249.9</ele>
        <time>2020-11-16T17:44:04Z</time>
      </trkpt>
      <trkpt lat="28.7638920" lon="-17.9397500">
        <ele>1249.9</ele>
        <time>2020-11-16T17:44:05Z</time>
      </trkpt>
      <trkpt lat="28.7638800" lon="-17.9397520">
        <ele>1249.9</ele>
        <time>2020-11-16T17:44:06Z</time>
      </trkpt>
      <trkpt lat="28.7638800" lon="-17.9397520">
        <ele>1249.9</ele>
        <time>2020-11-16T17:44:07Z</time>
      </trkpt>
      <trkpt lat="28.7638800" lon="-17.9397470">
        <ele>1249.9</ele>
        <time>2020-11-16T17:45:19Z</time>
      </trkpt>
      <trkpt lat="28.7638270" lon="-17.9397050">
        <ele>1249.9</ele>
        <time>2020-11-16T17:45:20Z</time>
      </trkpt>
      <trkpt lat="28.7638270" lon="-17.9397050">
        <ele>1249.9</ele>
        <time>2020-11-16T17:45:21Z</time>
      </trkpt>
      <trkpt lat="28.7638100" lon="-17.9396730">
        <ele>1249.8</ele>
        <time>2020-11-16T17:45:22Z</time>
      </trkpt>
      <trkpt lat="28.7638100" lon="-17.9396730">
        <ele>1249.8</ele>
        <time>2020-11-16T17:45:23Z</time>
      </trkpt>
      <trkpt lat="28.7637930" lon="-17.9396400">
        <ele>1249.8</ele>
        <time>2020-11-16T17:45:24Z</time>
      </trkpt>
      <trkpt lat="28.7637930" lon="-17.9396400">
        <ele>1249.8</ele>
        <time>2020-11-16T17:45:25Z</time>
      </trkpt>
      <trkpt lat="28.7637800" lon="-17.9396050">
        <ele>1249.7</ele>
        <time>2020-11-16T17:45:26Z</time>
      </trkpt>
      <trkpt lat="28.7637800" lon="-17.9396050">
        <ele>1249.7</ele>
        <time>2020-11-16T17:45:27Z</time>
      </trkpt>
      <trkpt lat="28.7637600" lon="-17.9395750">
        <ele>1249.7</ele>
        <time>2020-11-16T17:45:28Z</time>
      </trkpt>
      <trkpt lat="28.7637520" lon="-17.9395650">
        <ele>1249.7</ele>
        <time>2020-11-16T17:45:29Z</time>
      </trkpt>
      <trkpt lat="28.7637520" lon="-17.9395650">
        <ele>1249.7</ele>
        <time>2020-11-16T17:45:30Z</time>
      </trkpt>
      <trkpt lat="28.7637420" lon="-17.9395320">
        <ele>1249.6</ele>
        <time>2020-11-16T17:45:31Z</time>
      </trkpt>
      <trkpt lat="28.7637420" lon="-17.9395320">
        <ele>1249.6</ele>
        <time>2020-11-16T17:45:32Z</time>
      </trkpt>
      <trkpt lat="28.7637320" lon="-17.9395030">
        <ele>1249.6</ele>
        <time>2020-11-16T17:45:33Z</time>
      </trkpt>
      <trkpt lat="28.7637320" lon="-17.9395030">
        <ele>1249.6</ele>
        <time>2020-11-16T17:45:34Z</time>
      </trkpt>
      <trkpt lat="28.7637550" lon="-17.9394720">
        <ele>1249.5</ele>
        <time>2020-11-16T17:45:35Z</time>
      </trkpt>
      <trkpt lat="28.7637550" lon="-17.9394720">
        <ele>1249.5</ele>
        <time>2020-11-16T17:45:36Z</time>
      </trkpt>
      <trkpt lat="28.7637870" lon="-17.9394500">
        <ele>1249.4</ele>
        <time>2020-11-16T17:45:37Z</time>
      </trkpt>
      <trkpt lat="28.7638020" lon="-17.9394450">
        <ele>1249.4</ele>
        <time>2020-11-16T17:45:38Z</time>
      </trkpt>
      <trkpt lat="28.7638020" lon="-17.9394450">
        <ele>1249.4</ele>
        <time>2020-11-16T17:45:39Z</time>
      </trkpt>
      <trkpt lat="28.7638450" lon="-17.9394450">
        <ele>1249.3</ele>
        <time>2020-11-16T17:45:40Z</time>
      </trkpt>
      <trkpt lat="28.7638450" lon="-17.9394450">
        <ele>1249.3</ele>
        <time>2020-11-16T17:45:41Z</time>
      </trkpt>
      <trkpt lat="28.7638920" lon="-17.9394530">
        <ele>1249.7</ele>
        <time>2020-11-16T17:45:42Z</time>
      </trkpt>
      <trkpt lat="28.7638920" lon="-17.9394530">
        <ele>1249.7</ele>
        <time>2020-11-16T17:45:43Z</time>
      </trkpt>
      <trkpt lat="28.7639280" lon="-17.9394680">
        <ele>1250.1</ele>
        <time>2020-11-16T17:45:44Z</time>
      </trkpt>
      <trkpt lat="28.7639280" lon="-17.9394680">
        <ele>1250.1</ele>
        <time>2020-11-16T17:45:45Z</time>
      </trkpt>
      <trkpt lat="28.7639500" lon="-17.9394920">
        <ele>1250.4</ele>
        <time>2020-11-16T17:45:46Z</time>
      </trkpt>
      <trkpt lat="28.7639680" lon="-17.9395000">
        <ele>1250.5</ele>
        <time>2020-11-16T17:45:47Z</time>
      </trkpt>
      <trkpt lat="28.7639680" lon="-17.9395000">
        <ele>1250.5</ele>
        <time>2020-11-16T17:45:48Z</time>
      </trkpt>
      <trkpt lat="28.7640030" lon="-17.9395230">
        <ele>1250.9</ele>
        <time>2020-11-16T17:45:49Z</time>
      </trkpt>
      <trkpt lat="28.7640170" lon="-17.9395380">
        <ele>1251.1</ele>
        <time>2020-11-16T17:45:50Z</time>
      </trkpt>
      <trkpt lat="28.7640170" lon="-17.9395380">
        <ele>1251.1</ele>
        <time>2020-11-16T17:45:51Z</time>
      </trkpt>
      <trkpt lat="28.7640480" lon="-17.9395680">
        <ele>1251.4</ele>
        <time>2020-11-16T17:45:52Z</time>
      </trkpt>
      <trkpt lat="28.7640480" lon="-17.9395680">
        <ele>1251.4</ele>
        <time>2020-11-16T17:45:53Z</time>
      </trkpt>
      <trkpt lat="28.7641020" lon="-17.9395870">
        <ele>1251.9</ele>
        <time>2020-11-16T17:45:54Z</time>
      </trkpt>
      <trkpt lat="28.7641020" lon="-17.9395870">
        <ele>1251.9</ele>
        <time>2020-11-16T17:45:55Z</time>
      </trkpt>
      <trkpt lat="28.7641750" lon="-17.9395870">
        <ele>1252.4</ele>
        <time>2020-11-16T17:45:56Z</time>
      </trkpt>
      <trkpt lat="28.7641750" lon="-17.9395870">
        <ele>1252.4</ele>
        <time>2020-11-16T17:45:57Z</time>
      </trkpt>
      <trkpt lat="28.7642170" lon="-17.9395820">
        <ele>1252.7</ele>
        <time>2020-11-16T17:45:58Z</time>
      </trkpt>
      <trkpt lat="28.7642320" lon="-17.9395720">
        <ele>1252.8</ele>
        <time>2020-11-16T17:45:59Z</time>
      </trkpt>
      <trkpt lat="28.7642320" lon="-17.9395720">
        <ele>1252.8</ele>
        <time>2020-11-16T17:46:00Z</time>
      </trkpt>
      <trkpt lat="28.7642430" lon="-17.9395480">
        <ele>1253.0</ele>
        <time>2020-11-16T17:46:01Z</time>
      </trkpt>
      <trkpt lat="28.7642430" lon="-17.9395480">
        <ele>1253.0</ele>
        <time>2020-11-16T17:46:02Z</time>
      </trkpt>
      <trkpt lat="28.7642400" lon="-17.9395170">
        <ele>1253.2</ele>
        <time>2020-11-16T17:46:03Z</time>
      </trkpt>
      <trkpt lat="28.7642400" lon="-17.9395170">
        <ele>1253.2</ele>
        <time>2020-11-16T17:46:04Z</time>
      </trkpt>
      <trkpt lat="28.7642380" lon="-17.9394770">
        <ele>1253.5</ele>
        <time>2020-11-16T17:46:05Z</time>
      </trkpt>
      <trkpt lat="28.7642380" lon="-17.9394770">
        <ele>1253.5</ele>
        <time>2020-11-16T17:46:06Z</time>
      </trkpt>
      <trkpt lat="28.7642200" lon="-17.9394430">
        <ele>1253.8</ele>
        <time>2020-11-16T17:46:07Z</time>
      </trkpt>
      <trkpt lat="28.7642050" lon="-17.9394350">
        <ele>1253.9</ele>
        <time>2020-11-16T17:46:08Z</time>
      </trkpt>
      <trkpt lat="28.7642050" lon="-17.9394350">
        <ele>1253.9</ele>
        <time>2020-11-16T17:46:09Z</time>
      </trkpt>
      <trkpt lat="28.7641720" lon="-17.9394250">
        <ele>1254.2</ele>
        <time>2020-11-16T17:46:10Z</time>
      </trkpt>
      <trkpt lat="28.7641720" lon="-17.9394250">
        <ele>1254.2</ele>
        <time>2020-11-16T17:46:11Z</time>
      </trkpt>
      <trkpt lat="28.7641350" lon="-17.9394250">
        <ele>1254.5</ele>
        <time>2020-11-16T17:46:12Z</time>
      </trkpt>
      <trkpt lat="28.7641350" lon="-17.9394250">
        <ele>1254.5</ele>
        <time>2020-11-16T17:46:13Z</time>
      </trkpt>
      <trkpt lat="28.7641030" lon="-17.9394150">
        <ele>1254.8</ele>
        <time>2020-11-16T17:46:14Z</time>
      </trkpt>
      <trkpt lat="28.7641030" lon="-17.9394150">
        <ele>1254.8</ele>
        <time>2020-11-16T17:46:15Z</time>
      </trkpt>
      <trkpt lat="28.7640670" lon="-17.9394000">
        <ele>1255.2</ele>
        <time>2020-11-16T17:46:16Z</time>
      </trkpt>
      <trkpt lat="28.7640670" lon="-17.9394000">
        <ele>1255.2</ele>
        <time>2020-11-16T17:46:17Z</time>
      </trkpt>
      <trkpt lat="28.7640350" lon="-17.9393820">
        <ele>1255.5</ele>
        <time>2020-11-16T17:46:18Z</time>
      </trkpt>
      <trkpt lat="28.7640230" lon="-17.9393720">
        <ele>1255.6</ele>
        <time>2020-11-16T17:46:19Z</time>
      </trkpt>
      <trkpt lat="28.7640230" lon="-17.9393720">
        <ele>1255.6</ele>
        <time>2020-11-16T17:46:20Z</time>
      </trkpt>
      <trkpt lat="28.7639930" lon="-17.9393480">
        <ele>1256.0</ele>
        <time>2020-11-16T17:46:21Z</time>
      </trkpt>
      <trkpt lat="28.7639930" lon="-17.9393480">
        <ele>1256.0</ele>
        <time>2020-11-16T17:46:22Z</time>
      </trkpt>
      <trkpt lat="28.7639650" lon="-17.9393200">
        <ele>1256.3</ele>
        <time>2020-11-16T17:46:23Z</time>
      </trkpt>
      <trkpt lat="28.7639650" lon="-17.9393200">
        <ele>1256.3</ele>
        <time>2020-11-16T17:46:24Z</time>
      </trkpt>
      <trkpt lat="28.7639380" lon="-17.9392880">
        <ele>1256.6</ele>
        <time>2020-11-16T17:46:25Z</time>
      </trkpt>
      <trkpt lat="28.7639380" lon="-17.9392880">
        <ele>1256.6</ele>
        <time>2020-11-16T17:46:26Z</time>
      </trkpt>
      <trkpt lat="28.7639080" lon="-17.9392680">
        <ele>1256.9</ele>
        <time>2020-11-16T17:46:27Z</time>
      </trkpt>
      <trkpt lat="28.7639080" lon="-17.9392680">
        <ele>1256.9</ele>
        <time>2020-11-16T17:46:28Z</time>
      </trkpt>
      <trkpt lat="28.7638700" lon="-17.9392550">
        <ele>1257.2</ele>
        <time>2020-11-16T17:46:29Z</time>
      </trkpt>
      <trkpt lat="28.7638700" lon="-17.9392550">
        <ele>1257.2</ele>
        <time>2020-11-16T17:46:30Z</time>
      </trkpt>
      <trkpt lat="28.7638370" lon="-17.9392370">
        <ele>1257.4</ele>
        <time>2020-11-16T17:46:31Z</time>
      </trkpt>
      <trkpt lat="28.7638370" lon="-17.9392370">
        <ele>1257.4</ele>
        <time>2020-11-16T17:46:32Z</time>
      </trkpt>
      <trkpt lat="28.7638080" lon="-17.9392200">
        <ele>1257.7</ele>
        <time>2020-11-16T17:46:33Z</time>
      </trkpt>
      <trkpt lat="28.7638080" lon="-17.9392200">
        <ele>1257.7</ele>
        <time>2020-11-16T17:46:34Z</time>
      </trkpt>
      <trkpt lat="28.7637800" lon="-17.9391980">
        <ele>1257.9</ele>
        <time>2020-11-16T17:46:35Z</time>
      </trkpt>
      <trkpt lat="28.7637800" lon="-17.9391980">
        <ele>1257.9</ele>
        <time>2020-11-16T17:46:36Z</time>
      </trkpt>
      <trkpt lat="28.7637430" lon="-17.9391850">
        <ele>1258.2</ele>
        <time>2020-11-16T17:46:37Z</time>
      </trkpt>
      <trkpt lat="28.7637230" lon="-17.9391780">
        <ele>1258.4</ele>
        <time>2020-11-16T17:46:38Z</time>
      </trkpt>
      <trkpt lat="28.7637230" lon="-17.9391780">
        <ele>1258.4</ele>
        <time>2020-11-16T17:46:39Z</time>
      </trkpt>
      <trkpt lat="28.7636920" lon="-17.9391650">
        <ele>1258.7</ele>
        <time>2020-11-16T17:46:40Z</time>
      </trkpt>
      <trkpt lat="28.7636750" lon="-17.9391570">
        <ele>1258.8</ele>
        <time>2020-11-16T17:46:41Z</time>
      </trkpt>
      <trkpt lat="28.7636580" lon="-17.9391470">
        <ele>1259.0</ele>
        <time>2020-11-16T17:46:42Z</time>
      </trkpt>
      <trkpt lat="28.7636580" lon="-17.9391470">
        <ele>1259.0</ele>
        <time>2020-11-16T17:46:43Z</time>
      </trkpt>
      <trkpt lat="28.7636180" lon="-17.9391330">
        <ele>1259.3</ele>
        <time>2020-11-16T17:46:44Z</time>
      </trkpt>
      <trkpt lat="28.7636180" lon="-17.9391330">
        <ele>1259.3</ele>
        <time>2020-11-16T17:46:45Z</time>
      </trkpt>
      <trkpt lat="28.7635950" lon="-17.9391130">
        <ele>1259.6</ele>
        <time>2020-11-16T17:46:46Z</time>
      </trkpt>
      <trkpt lat="28.7635950" lon="-17.9391130">
        <ele>1259.6</ele>
        <time>2020-11-16T17:46:47Z</time>
      </trkpt>
      <trkpt lat="28.7635630" lon="-17.9390970">
        <ele>1259.9</ele>
        <time>2020-11-16T17:46:48Z</time>
      </trkpt>
      <trkpt lat="28.7635480" lon="-17.9390880">
        <ele>1260.0</ele>
        <time>2020-11-16T17:46:49Z</time>
      </trkpt>
      <trkpt lat="28.7635480" lon="-17.9390880">
        <ele>1260.0</ele>
        <time>2020-11-16T17:46:50Z</time>
      </trkpt>
      <trkpt lat="28.7635100" lon="-17.9390700">
        <ele>1260.3</ele>
        <time>2020-11-16T17:46:51Z</time>
      </trkpt>
      <trkpt lat="28.7635100" lon="-17.9390700">
        <ele>1260.3</ele>
        <time>2020-11-16T17:46:52Z</time>
      </trkpt>
      <trkpt lat="28.7634770" lon="-17.9390520">
        <ele>1260.6</ele>
        <time>2020-11-16T17:46:53Z</time>
      </trkpt>
      <trkpt lat="28.7634600" lon="-17.9390420">
        <ele>1260.8</ele>
        <time>2020-11-16T17:46:54Z</time>
      </trkpt>
      <trkpt lat="28.7634600" lon="-17.9390420">
        <ele>1260.8</ele>
        <time>2020-11-16T17:46:55Z</time>
      </trkpt>
      <trkpt lat="28.7634200" lon="-17.9390130">
        <ele>1261.1</ele>
        <time>2020-11-16T17:46:56Z</time>
      </trkpt>
      <trkpt lat="28.7634200" lon="-17.9390130">
        <ele>1261.1</ele>
        <time>2020-11-16T17:46:57Z</time>
      </trkpt>
      <trkpt lat="28.7634030" lon="-17.9389900">
        <ele>1261.2</ele>
        <time>2020-11-16T17:46:58Z</time>
      </trkpt>
      <trkpt lat="28.7633950" lon="-17.9389850">
        <ele>1261.3</ele>
        <time>2020-11-16T17:46:59Z</time>
      </trkpt>
      <trkpt lat="28.7633950" lon="-17.9389850">
        <ele>1261.3</ele>
        <time>2020-11-16T17:47:00Z</time>
      </trkpt>
      <trkpt lat="28.7633650" lon="-17.9389750">
        <ele>1261.5</ele>
        <time>2020-11-16T17:47:01Z</time>
      </trkpt>
      <trkpt lat="28.7633650" lon="-17.9389750">
        <ele>1261.5</ele>
        <time>2020-11-16T17:47:02Z</time>
      </trkpt>
      <trkpt lat="28.7633320" lon="-17.9389670">
        <ele>1261.7</ele>
        <time>2020-11-16T17:47:03Z</time>
      </trkpt>
      <trkpt lat="28.7633320" lon="-17.9389670">
        <ele>1261.7</ele>
        <time>2020-11-16T17:47:04Z</time>
      </trkpt>
      <trkpt lat="28.7632830" lon="-17.9389850">
        <ele>1262.0</ele>
        <time>2020-11-16T17:47:05Z</time>
      </trkpt>
      <trkpt lat="28.7632830" lon="-17.9389850">
        <ele>1262.0</ele>
        <time>2020-11-16T17:47:06Z</time>
      </trkpt>
      <trkpt lat="28.7632520" lon="-17.9390130">
        <ele>1262.2</ele>
        <time>2020-11-16T17:47:07Z</time>
      </trkpt>
      <trkpt lat="28.7632520" lon="-17.9390130">
        <ele>1262.2</ele>
        <time>2020-11-16T17:47:08Z</time>
      </trkpt>
      <trkpt lat="28.7632280" lon="-17.9390430">
        <ele>1262.5</ele>
        <time>2020-11-16T17:47:09Z</time>
      </trkpt>
      <trkpt lat="28.7632130" lon="-17.9390670">
        <ele>1262.6</ele>
        <time>2020-11-16T17:47:10Z</time>
      </trkpt>
      <trkpt lat="28.7632130" lon="-17.9390870">
        <ele>1262.7</ele>
        <time>2020-11-16T17:47:11Z</time>
      </trkpt>
      <trkpt lat="28.7632130" lon="-17.9390870">
        <ele>1262.7</ele>
        <time>2020-11-16T17:47:12Z</time>
      </trkpt>
      <trkpt lat="28.7632200" lon="-17.9391120">
        <ele>1262.9</ele>
        <time>2020-11-16T17:47:13Z</time>
      </trkpt>
      <trkpt lat="28.7632250" lon="-17.9391230">
        <ele>1263.0</ele>
        <time>2020-11-16T17:47:14Z</time>
      </trkpt>
      <trkpt lat="28.7632250" lon="-17.9391230">
        <ele>1263.0</ele>
        <time>2020-11-16T17:47:15Z</time>
      </trkpt>
      <trkpt lat="28.7632350" lon="-17.9391570">
        <ele>1263.1</ele>
        <time>2020-11-16T17:47:16Z</time>
      </trkpt>
      <trkpt lat="28.7632400" lon="-17.9391770">
        <ele>1263.2</ele>
        <time>2020-11-16T17:47:17Z</time>
      </trkpt>
      <trkpt lat="28.7632400" lon="-17.9391770">
        <ele>1263.2</ele>
        <time>2020-11-16T17:47:18Z</time>
      </trkpt>
      <trkpt lat="28.7632530" lon="-17.9391980">
        <ele>1263.4</ele>
        <time>2020-11-16T17:47:19Z</time>
      </trkpt>
      <trkpt lat="28.7632530" lon="-17.9391980">
        <ele>1263.4</ele>
        <time>2020-11-16T17:47:20Z</time>
      </trkpt>
      <trkpt lat="28.7632630" lon="-17.9392280">
        <ele>1263.5</ele>
        <time>2020-11-16T17:47:21Z</time>
      </trkpt>
      <trkpt lat="28.7632630" lon="-17.9392280">
        <ele>1263.5</ele>
        <time>2020-11-16T17:47:22Z</time>
      </trkpt>
      <trkpt lat="28.7632780" lon="-17.9392680">
        <ele>1263.8</ele>
        <time>2020-11-16T17:47:23Z</time>
      </trkpt>
      <trkpt lat="28.7632780" lon="-17.9392680">
        <ele>1263.8</ele>
        <time>2020-11-16T17:47:24Z</time>
      </trkpt>
      <trkpt lat="28.7632900" lon="-17.9393080">
        <ele>1264.0</ele>
        <time>2020-11-16T17:47:25Z</time>
      </trkpt>
      <trkpt lat="28.7633020" lon="-17.9393320">
        <ele>1264.1</ele>
        <time>2020-11-16T17:47:26Z</time>
      </trkpt>
      <trkpt lat="28.7633020" lon="-17.9393320">
        <ele>1264.1</ele>
        <time>2020-11-16T17:47:27Z</time>
      </trkpt>
      <trkpt lat="28.7633080" lon="-17.9393870">
        <ele>1264.3</ele>
        <time>2020-11-16T17:47:28Z</time>
      </trkpt>
      <trkpt lat="28.7633180" lon="-17.9394030">
        <ele>1264.4</ele>
        <time>2020-11-16T17:47:29Z</time>
      </trkpt>
      <trkpt lat="28.7633180" lon="-17.9394030">
        <ele>1264.4</ele>
        <time>2020-11-16T17:47:30Z</time>
      </trkpt>
      <trkpt lat="28.7633480" lon="-17.9394400">
        <ele>1264.6</ele>
        <time>2020-11-16T17:47:31Z</time>
      </trkpt>
      <trkpt lat="28.7633630" lon="-17.9394620">
        <ele>1264.7</ele>
        <time>2020-11-16T17:47:32Z</time>
      </trkpt>
      <trkpt lat="28.7633630" lon="-17.9394620">
        <ele>1264.7</ele>
        <time>2020-11-16T17:47:33Z</time>
      </trkpt>
      <trkpt lat="28.7633920" lon="-17.9395030">
        <ele>1264.9</ele>
        <time>2020-11-16T17:47:34Z</time>
      </trkpt>
      <trkpt lat="28.7633980" lon="-17.9395300">
        <ele>1265.0</ele>
        <time>2020-11-16T17:47:35Z</time>
      </trkpt>
      <trkpt lat="28.7633980" lon="-17.9395300">
        <ele>1265.0</ele>
        <time>2020-11-16T17:47:36Z</time>
      </trkpt>
      <trkpt lat="28.7634250" lon="-17.9395720">
        <ele>1265.1</ele>
        <time>2020-11-16T17:47:37Z</time>
      </trkpt>
      <trkpt lat="28.7634270" lon="-17.9395970">
        <ele>1265.2</ele>
        <time>2020-11-16T17:47:38Z</time>
      </trkpt>
      <trkpt lat="28.7634270" lon="-17.9395970">
        <ele>1265.2</ele>
        <time>2020-11-16T17:47:39Z</time>
      </trkpt>
      <trkpt lat="28.7634330" lon="-17.9396400">
        <ele>1265.4</ele>
        <time>2020-11-16T17:47:40Z</time>
      </trkpt>
      <trkpt lat="28.7634330" lon="-17.9396400">
        <ele>1265.4</ele>
        <time>2020-11-16T17:47:41Z</time>
      </trkpt>
      <trkpt lat="28.7634330" lon="-17.9396780">
        <ele>1265.5</ele>
        <time>2020-11-16T17:47:42Z</time>
      </trkpt>
      <trkpt lat="28.7634330" lon="-17.9396780">
        <ele>1265.5</ele>
        <time>2020-11-16T17:47:43Z</time>
      </trkpt>
      <trkpt lat="28.7634380" lon="-17.9397100">
        <ele>1265.7</ele>
        <time>2020-11-16T17:47:44Z</time>
      </trkpt>
      <trkpt lat="28.7634380" lon="-17.9397100">
        <ele>1265.7</ele>
        <time>2020-11-16T17:47:45Z</time>
      </trkpt>
      <trkpt lat="28.7634330" lon="-17.9397400">
        <ele>1265.8</ele>
        <time>2020-11-16T17:47:46Z</time>
      </trkpt>
      <trkpt lat="28.7634330" lon="-17.9397400">
        <ele>1265.8</ele>
        <time>2020-11-16T17:47:47Z</time>
      </trkpt>
      <trkpt lat="28.7634200" lon="-17.9397650">
        <ele>1265.9</ele>
        <time>2020-11-16T17:47:48Z</time>
      </trkpt>
      <trkpt lat="28.7634200" lon="-17.9397650">
        <ele>1265.9</ele>
        <time>2020-11-16T17:47:49Z</time>
      </trkpt>
      <trkpt lat="28.7634120" lon="-17.9398030">
        <ele>1266.1</ele>
        <time>2020-11-16T17:47:50Z</time>
      </trkpt>
      <trkpt lat="28.7634120" lon="-17.9398030">
        <ele>1266.1</ele>
        <time>2020-11-16T17:47:51Z</time>
      </trkpt>
      <trkpt lat="28.7634020" lon="-17.9398430">
        <ele>1266.3</ele>
        <time>2020-11-16T17:47:52Z</time>
      </trkpt>
      <trkpt lat="28.7634020" lon="-17.9398430">
        <ele>1266.3</ele>
        <time>2020-11-16T17:47:53Z</time>
      </trkpt>
      <trkpt lat="28.7634030" lon="-17.9398830">
        <ele>1266.5</ele>
        <time>2020-11-16T17:47:54Z</time>
      </trkpt>
      <trkpt lat="28.7634030" lon="-17.9398830">
        <ele>1266.5</ele>
        <time>2020-11-16T17:47:55Z</time>
      </trkpt>
      <trkpt lat="28.7634120" lon="-17.9399280">
        <ele>1266.7</ele>
        <time>2020-11-16T17:47:56Z</time>
      </trkpt>
      <trkpt lat="28.7634120" lon="-17.9399280">
        <ele>1266.7</ele>
        <time>2020-11-16T17:47:57Z</time>
      </trkpt>
      <trkpt lat="28.7634000" lon="-17.9399630">
        <ele>1266.9</ele>
        <time>2020-11-16T17:47:58Z</time>
      </trkpt>
      <trkpt lat="28.7634000" lon="-17.9399630">
        <ele>1266.9</ele>
        <time>2020-11-16T17:47:59Z</time>
      </trkpt>
      <trkpt lat="28.7633870" lon="-17.9399980">
        <ele>1267.1</ele>
        <time>2020-11-16T17:48:00Z</time>
      </trkpt>
      <trkpt lat="28.7633870" lon="-17.9399980">
        <ele>1267.1</ele>
        <time>2020-11-16T17:48:01Z</time>
      </trkpt>
      <trkpt lat="28.7633650" lon="-17.9400320">
        <ele>1267.3</ele>
        <time>2020-11-16T17:48:02Z</time>
      </trkpt>
      <trkpt lat="28.7633650" lon="-17.9400320">
        <ele>1267.3</ele>
        <time>2020-11-16T17:48:03Z</time>
      </trkpt>
      <trkpt lat="28.7633370" lon="-17.9400580">
        <ele>1267.6</ele>
        <time>2020-11-16T17:48:04Z</time>
      </trkpt>
      <trkpt lat="28.7633370" lon="-17.9400580">
        <ele>1267.6</ele>
        <time>2020-11-16T17:48:05Z</time>
      </trkpt>
      <trkpt lat="28.7633050" lon="-17.9400850">
        <ele>1267.9</ele>
        <time>2020-11-16T17:48:06Z</time>
      </trkpt>
      <trkpt lat="28.7633050" lon="-17.9400850">
        <ele>1267.9</ele>
        <time>2020-11-16T17:48:07Z</time>
      </trkpt>
      <trkpt lat="28.7632670" lon="-17.9400850">
        <ele>1268.2</ele>
        <time>2020-11-16T17:48:08Z</time>
      </trkpt>
      <trkpt lat="28.7632670" lon="-17.9400850">
        <ele>1268.2</ele>
        <time>2020-11-16T17:48:09Z</time>
      </trkpt>
      <trkpt lat="28.7632300" lon="-17.9400900">
        <ele>1268.5</ele>
        <time>2020-11-16T17:48:10Z</time>
      </trkpt>
      <trkpt lat="28.7632300" lon="-17.9400900">
        <ele>1268.5</ele>
        <time>2020-11-16T17:48:11Z</time>
      </trkpt>
      <trkpt lat="28.7632050" lon="-17.9400970">
        <ele>1268.7</ele>
        <time>2020-11-16T17:48:12Z</time>
      </trkpt>
      <trkpt lat="28.7632050" lon="-17.9400970">
        <ele>1268.7</ele>
        <time>2020-11-16T17:48:13Z</time>
      </trkpt>
      <trkpt lat="28.7631750" lon="-17.9401000">
        <ele>1268.9</ele>
        <time>2020-11-16T17:48:14Z</time>
      </trkpt>
      <trkpt lat="28.7631750" lon="-17.9401000">
        <ele>1268.9</ele>
        <time>2020-11-16T17:48:15Z</time>
      </trkpt>
      <trkpt lat="28.7631420" lon="-17.9400980">
        <ele>1269.2</ele>
        <time>2020-11-16T17:48:16Z</time>
      </trkpt>
      <trkpt lat="28.7631420" lon="-17.9400980">
        <ele>1269.2</ele>
        <time>2020-11-16T17:48:17Z</time>
      </trkpt>
      <trkpt lat="28.7631080" lon="-17.9401070">
        <ele>1269.5</ele>
        <time>2020-11-16T17:48:18Z</time>
      </trkpt>
      <trkpt lat="28.7631080" lon="-17.9401070">
        <ele>1269.5</ele>
        <time>2020-11-16T17:48:19Z</time>
      </trkpt>
      <trkpt lat="28.7630770" lon="-17.9401230">
        <ele>1269.8</ele>
        <time>2020-11-16T17:48:20Z</time>
      </trkpt>
      <trkpt lat="28.7630770" lon="-17.9401230">
        <ele>1269.8</ele>
        <time>2020-11-16T17:48:21Z</time>
      </trkpt>
      <trkpt lat="28.7630480" lon="-17.9401280">
        <ele>1270.0</ele>
        <time>2020-11-16T17:48:22Z</time>
      </trkpt>
      <trkpt lat="28.7630480" lon="-17.9401280">
        <ele>1270.0</ele>
        <time>2020-11-16T17:48:23Z</time>
      </trkpt>
      <trkpt lat="28.7630170" lon="-17.9401270">
        <ele>1270.3</ele>
        <time>2020-11-16T17:48:24Z</time>
      </trkpt>
      <trkpt lat="28.7630170" lon="-17.9401270">
        <ele>1270.3</ele>
        <time>2020-11-16T17:48:25Z</time>
      </trkpt>
      <trkpt lat="28.7629820" lon="-17.9401270">
        <ele>1270.6</ele>
        <time>2020-11-16T17:48:26Z</time>
      </trkpt>
      <trkpt lat="28.7629820" lon="-17.9401270">
        <ele>1270.6</ele>
        <time>2020-11-16T17:48:27Z</time>
      </trkpt>
      <trkpt lat="28.7629430" lon="-17.9401480">
        <ele>1271.0</ele>
        <time>2020-11-16T17:48:28Z</time>
      </trkpt>
      <trkpt lat="28.7629430" lon="-17.9401480">
        <ele>1271.0</ele>
        <time>2020-11-16T17:48:29Z</time>
      </trkpt>
      <trkpt lat="28.7628970" lon="-17.9401600">
        <ele>1271.4</ele>
        <time>2020-11-16T17:48:30Z</time>
      </trkpt>
      <trkpt lat="28.7628970" lon="-17.9401600">
        <ele>1271.4</ele>
        <time>2020-11-16T17:48:31Z</time>
      </trkpt>
      <trkpt lat="28.7628680" lon="-17.9401550">
        <ele>1271.6</ele>
        <time>2020-11-16T17:48:32Z</time>
      </trkpt>
      <trkpt lat="28.7628680" lon="-17.9401550">
        <ele>1271.6</ele>
        <time>2020-11-16T17:48:33Z</time>
      </trkpt>
      <trkpt lat="28.7628400" lon="-17.9401530">
        <ele>1271.8</ele>
        <time>2020-11-16T17:48:34Z</time>
      </trkpt>
      <trkpt lat="28.7628400" lon="-17.9401530">
        <ele>1271.8</ele>
        <time>2020-11-16T17:48:35Z</time>
      </trkpt>
      <trkpt lat="28.7628100" lon="-17.9401530">
        <ele>1272.0</ele>
        <time>2020-11-16T17:48:36Z</time>
      </trkpt>
      <trkpt lat="28.7628100" lon="-17.9401530">
        <ele>1272.0</ele>
        <time>2020-11-16T17:48:37Z</time>
      </trkpt>
      <trkpt lat="28.7627770" lon="-17.9401450">
        <ele>1272.2</ele>
        <time>2020-11-16T17:48:38Z</time>
      </trkpt>
      <trkpt lat="28.7627770" lon="-17.9401450">
        <ele>1272.2</ele>
        <time>2020-11-16T17:48:39Z</time>
      </trkpt>
      <trkpt lat="28.7627400" lon="-17.9401400">
        <ele>1272.4</ele>
        <time>2020-11-16T17:48:40Z</time>
      </trkpt>
      <trkpt lat="28.7627400" lon="-17.9401400">
        <ele>1272.4</ele>
        <time>2020-11-16T17:48:41Z</time>
      </trkpt>
      <trkpt lat="28.7627020" lon="-17.9401330">
        <ele>1272.6</ele>
        <time>2020-11-16T17:48:42Z</time>
      </trkpt>
      <trkpt lat="28.7627020" lon="-17.9401330">
        <ele>1272.6</ele>
        <time>2020-11-16T17:48:43Z</time>
      </trkpt>
      <trkpt lat="28.7626730" lon="-17.9401250">
        <ele>1272.8</ele>
        <time>2020-11-16T17:48:44Z</time>
      </trkpt>
      <trkpt lat="28.7626730" lon="-17.9401250">
        <ele>1272.8</ele>
        <time>2020-11-16T17:48:45Z</time>
      </trkpt>
      <trkpt lat="28.7626530" lon="-17.9401220">
        <ele>1272.9</ele>
        <time>2020-11-16T17:48:46Z</time>
      </trkpt>
      <trkpt lat="28.7626530" lon="-17.9401220">
        <ele>1272.9</ele>
        <time>2020-11-16T17:48:47Z</time>
      </trkpt>
      <trkpt lat="28.7626100" lon="-17.9401130">
        <ele>1273.2</ele>
        <time>2020-11-16T17:48:48Z</time>
      </trkpt>
      <trkpt lat="28.7626100" lon="-17.9401130">
        <ele>1273.2</ele>
        <time>2020-11-16T17:48:49Z</time>
      </trkpt>
      <trkpt lat="28.7625720" lon="-17.9401000">
        <ele>1273.5</ele>
        <time>2020-11-16T17:48:50Z</time>
      </trkpt>
      <trkpt lat="28.7625720" lon="-17.9401000">
        <ele>1273.5</ele>
        <time>2020-11-16T17:48:51Z</time>
      </trkpt>
      <trkpt lat="28.7625480" lon="-17.9400780">
        <ele>1273.7</ele>
        <time>2020-11-16T17:48:52Z</time>
      </trkpt>
      <trkpt lat="28.7625330" lon="-17.9400730">
        <ele>1273.8</ele>
        <time>2020-11-16T17:48:53Z</time>
      </trkpt>
      <trkpt lat="28.7625330" lon="-17.9400730">
        <ele>1273.8</ele>
        <time>2020-11-16T17:48:54Z</time>
      </trkpt>
      <trkpt lat="28.7624970" lon="-17.9400620">
        <ele>1274.1</ele>
        <time>2020-11-16T17:48:55Z</time>
      </trkpt>
      <trkpt lat="28.7624970" lon="-17.9400620">
        <ele>1274.1</ele>
        <time>2020-11-16T17:48:56Z</time>
      </trkpt>
      <trkpt lat="28.7624650" lon="-17.9400530">
        <ele>1274.3</ele>
        <time>2020-11-16T17:48:57Z</time>
      </trkpt>
      <trkpt lat="28.7624650" lon="-17.9400530">
        <ele>1274.3</ele>
        <time>2020-11-16T17:48:58Z</time>
      </trkpt>
      <trkpt lat="28.7624220" lon="-17.9400470">
        <ele>1274.6</ele>
        <time>2020-11-16T17:48:59Z</time>
      </trkpt>
      <trkpt lat="28.7624220" lon="-17.9400470">
        <ele>1274.6</ele>
        <time>2020-11-16T17:49:00Z</time>
      </trkpt>
      <trkpt lat="28.7623820" lon="-17.9400400">
        <ele>1274.9</ele>
        <time>2020-11-16T17:49:01Z</time>
      </trkpt>
      <trkpt lat="28.7623670" lon="-17.9400330">
        <ele>1275.0</ele>
        <time>2020-11-16T17:49:02Z</time>
      </trkpt>
      <trkpt lat="28.7623670" lon="-17.9400330">
        <ele>1275.0</ele>
        <time>2020-11-16T17:49:03Z</time>
      </trkpt>
      <trkpt lat="28.7623420" lon="-17.9400220">
        <ele>1275.2</ele>
        <time>2020-11-16T17:49:04Z</time>
      </trkpt>
      <trkpt lat="28.7623420" lon="-17.9400220">
        <ele>1275.2</ele>
        <time>2020-11-16T17:49:05Z</time>
      </trkpt>
      <trkpt lat="28.7623120" lon="-17.9400120">
        <ele>1275.4</ele>
        <time>2020-11-16T17:49:06Z</time>
      </trkpt>
      <trkpt lat="28.7623120" lon="-17.9400120">
        <ele>1275.4</ele>
        <time>2020-11-16T17:49:07Z</time>
      </trkpt>
      <trkpt lat="28.7622830" lon="-17.9400080">
        <ele>1275.6</ele>
        <time>2020-11-16T17:49:08Z</time>
      </trkpt>
      <trkpt lat="28.7622830" lon="-17.9400080">
        <ele>1275.6</ele>
        <time>2020-11-16T17:49:09Z</time>
      </trkpt>
      <trkpt lat="28.7622420" lon="-17.9400220">
        <ele>1275.9</ele>
        <time>2020-11-16T17:49:10Z</time>
      </trkpt>
      <trkpt lat="28.7622420" lon="-17.9400220">
        <ele>1275.9</ele>
        <time>2020-11-16T17:49:11Z</time>
      </trkpt>
      <trkpt lat="28.7622200" lon="-17.9400330">
        <ele>1276.1</ele>
        <time>2020-11-16T17:49:12Z</time>
      </trkpt>
      <trkpt lat="28.7622200" lon="-17.9400330">
        <ele>1276.1</ele>
        <time>2020-11-16T17:49:13Z</time>
      </trkpt>
      <trkpt lat="28.7622080" lon="-17.9400600">
        <ele>1276.4</ele>
        <time>2020-11-16T17:49:14Z</time>
      </trkpt>
      <trkpt lat="28.7622080" lon="-17.9400600">
        <ele>1276.4</ele>
        <time>2020-11-16T17:49:15Z</time>
      </trkpt>
      <trkpt lat="28.7622020" lon="-17.9401050">
        <ele>1276.7</ele>
        <time>2020-11-16T17:49:16Z</time>
      </trkpt>
      <trkpt lat="28.7622020" lon="-17.9401050">
        <ele>1276.7</ele>
        <time>2020-11-16T17:49:17Z</time>
      </trkpt>
      <trkpt lat="28.7621920" lon="-17.9401520">
        <ele>1277.1</ele>
        <time>2020-11-16T17:49:18Z</time>
      </trkpt>
      <trkpt lat="28.7621930" lon="-17.9401720">
        <ele>1277.3</ele>
        <time>2020-11-16T17:49:19Z</time>
      </trkpt>
      <trkpt lat="28.7621930" lon="-17.9401720">
        <ele>1277.3</ele>
        <time>2020-11-16T17:49:20Z</time>
      </trkpt>
      <trkpt lat="28.7621970" lon="-17.9402170">
        <ele>1277.6</ele>
        <time>2020-11-16T17:49:21Z</time>
      </trkpt>
      <trkpt lat="28.7622020" lon="-17.9402370">
        <ele>1277.7</ele>
        <time>2020-11-16T17:49:22Z</time>
      </trkpt>
      <trkpt lat="28.7622020" lon="-17.9402370">
        <ele>1277.7</ele>
        <time>2020-11-16T17:49:23Z</time>
      </trkpt>
      <trkpt lat="28.7622030" lon="-17.9402780">
        <ele>1278.0</ele>
        <time>2020-11-16T17:49:24Z</time>
      </trkpt>
      <trkpt lat="28.7622030" lon="-17.9402780">
        <ele>1278.0</ele>
        <time>2020-11-16T17:49:25Z</time>
      </trkpt>
      <trkpt lat="28.7622050" lon="-17.9403200">
        <ele>1278.3</ele>
        <time>2020-11-16T17:49:26Z</time>
      </trkpt>
      <trkpt lat="28.7622050" lon="-17.9403200">
        <ele>1278.3</ele>
        <time>2020-11-16T17:49:27Z</time>
      </trkpt>
      <trkpt lat="28.7622070" lon="-17.9403520">
        <ele>1278.5</ele>
        <time>2020-11-16T17:49:28Z</time>
      </trkpt>
      <trkpt lat="28.7622070" lon="-17.9403520">
        <ele>1278.5</ele>
        <time>2020-11-16T17:49:29Z</time>
      </trkpt>
      <trkpt lat="28.7622230" lon="-17.9404020">
        <ele>1278.8</ele>
        <time>2020-11-16T17:49:30Z</time>
      </trkpt>
      <trkpt lat="28.7622230" lon="-17.9404020">
        <ele>1278.8</ele>
        <time>2020-11-16T17:49:31Z</time>
      </trkpt>
      <trkpt lat="28.7622380" lon="-17.9404420">
        <ele>1279.1</ele>
        <time>2020-11-16T17:49:32Z</time>
      </trkpt>
      <trkpt lat="28.7622380" lon="-17.9404420">
        <ele>1279.1</ele>
        <time>2020-11-16T17:49:33Z</time>
      </trkpt>
      <trkpt lat="28.7622700" lon="-17.9404800">
        <ele>1279.5</ele>
        <time>2020-11-16T17:49:34Z</time>
      </trkpt>
      <trkpt lat="28.7622700" lon="-17.9404800">
        <ele>1279.5</ele>
        <time>2020-11-16T17:49:35Z</time>
      </trkpt>
      <trkpt lat="28.7622900" lon="-17.9405150">
        <ele>1279.8</ele>
        <time>2020-11-16T17:49:36Z</time>
      </trkpt>
      <trkpt lat="28.7623000" lon="-17.9405300">
        <ele>1279.9</ele>
        <time>2020-11-16T17:49:37Z</time>
      </trkpt>
      <trkpt lat="28.7623000" lon="-17.9405300">
        <ele>1279.9</ele>
        <time>2020-11-16T17:49:38Z</time>
      </trkpt>
      <trkpt lat="28.7623330" lon="-17.9405680">
        <ele>1280.3</ele>
        <time>2020-11-16T17:49:39Z</time>
      </trkpt>
      <trkpt lat="28.7623330" lon="-17.9405680">
        <ele>1280.3</ele>
        <time>2020-11-16T17:49:40Z</time>
      </trkpt>
      <trkpt lat="28.7623620" lon="-17.9405970">
        <ele>1280.6</ele>
        <time>2020-11-16T17:49:41Z</time>
      </trkpt>
      <trkpt lat="28.7623620" lon="-17.9405970">
        <ele>1280.6</ele>
        <time>2020-11-16T17:49:42Z</time>
      </trkpt>
      <trkpt lat="28.7623900" lon="-17.9406220">
        <ele>1280.9</ele>
        <time>2020-11-16T17:49:43Z</time>
      </trkpt>
      <trkpt lat="28.7623900" lon="-17.9406220">
        <ele>1280.9</ele>
        <time>2020-11-16T17:49:44Z</time>
      </trkpt>
      <trkpt lat="28.7624220" lon="-17.9406380">
        <ele>1281.2</ele>
        <time>2020-11-16T17:49:45Z</time>
      </trkpt>
      <trkpt lat="28.7624220" lon="-17.9406380">
        <ele>1281.2</ele>
        <time>2020-11-16T17:49:46Z</time>
      </trkpt>
      <trkpt lat="28.7624530" lon="-17.9406620">
        <ele>1281.4</ele>
        <time>2020-11-16T17:49:47Z</time>
      </trkpt>
      <trkpt lat="28.7624530" lon="-17.9406620">
        <ele>1281.4</ele>
        <time>2020-11-16T17:49:48Z</time>
      </trkpt>
      <trkpt lat="28.7624780" lon="-17.9406900">
        <ele>1281.6</ele>
        <time>2020-11-16T17:49:49Z</time>
      </trkpt>
      <trkpt lat="28.7624780" lon="-17.9406900">
        <ele>1281.6</ele>
        <time>2020-11-16T17:49:50Z</time>
      </trkpt>
      <trkpt lat="28.7624870" lon="-17.9407330">
        <ele>1281.8</ele>
        <time>2020-11-16T17:49:51Z</time>
      </trkpt>
      <trkpt lat="28.7624870" lon="-17.9407330">
        <ele>1281.8</ele>
        <time>2020-11-16T17:49:52Z</time>
      </trkpt>
      <trkpt lat="28.7625000" lon="-17.9407700">
        <ele>1282.0</ele>
        <time>2020-11-16T17:49:53Z</time>
      </trkpt>
      <trkpt lat="28.7625070" lon="-17.9407900">
        <ele>1282.1</ele>
        <time>2020-11-16T17:49:54Z</time>
      </trkpt>
      <trkpt lat="28.7625070" lon="-17.9407900">
        <ele>1282.1</ele>
        <time>2020-11-16T17:49:55Z</time>
      </trkpt>
      <trkpt lat="28.7625250" lon="-17.9408230">
        <ele>1282.2</ele>
        <time>2020-11-16T17:49:56Z</time>
      </trkpt>
      <trkpt lat="28.7625250" lon="-17.9408230">
        <ele>1282.2</ele>
        <time>2020-11-16T17:49:57Z</time>
      </trkpt>
      <trkpt lat="28.7625420" lon="-17.9408600">
        <ele>1282.4</ele>
        <time>2020-11-16T17:49:58Z</time>
      </trkpt>
      <trkpt lat="28.7625530" lon="-17.9408800">
        <ele>1282.4</ele>
        <time>2020-11-16T17:49:59Z</time>
      </trkpt>
      <trkpt lat="28.7625530" lon="-17.9408800">
        <ele>1282.4</ele>
        <time>2020-11-16T17:50:00Z</time>
      </trkpt>
      <trkpt lat="28.7626070" lon="-17.9409180">
        <ele>1282.6</ele>
        <time>2020-11-16T17:50:01Z</time>
      </trkpt>
      <trkpt lat="28.7626070" lon="-17.9409180">
        <ele>1282.6</ele>
        <time>2020-11-16T17:50:02Z</time>
      </trkpt>
      <trkpt lat="28.7626330" lon="-17.9409550">
        <ele>1282.8</ele>
        <time>2020-11-16T17:50:03Z</time>
      </trkpt>
      <trkpt lat="28.7626330" lon="-17.9409550">
        <ele>1282.8</ele>
        <time>2020-11-16T17:50:04Z</time>
      </trkpt>
      <trkpt lat="28.7626320" lon="-17.9409950">
        <ele>1282.9</ele>
        <time>2020-11-16T17:50:05Z</time>
      </trkpt>
      <trkpt lat="28.7626320" lon="-17.9409950">
        <ele>1282.9</ele>
        <time>2020-11-16T17:50:06Z</time>
      </trkpt>
      <trkpt lat="28.7626200" lon="-17.9410320">
        <ele>1283.1</ele>
        <time>2020-11-16T17:50:07Z</time>
      </trkpt>
      <trkpt lat="28.7626200" lon="-17.9410320">
        <ele>1283.1</ele>
        <time>2020-11-16T17:50:08Z</time>
      </trkpt>
      <trkpt lat="28.7626050" lon="-17.9410730">
        <ele>1283.2</ele>
        <time>2020-11-16T17:50:09Z</time>
      </trkpt>
      <trkpt lat="28.7625970" lon="-17.9410920">
        <ele>1283.3</ele>
        <time>2020-11-16T17:50:10Z</time>
      </trkpt>
      <trkpt lat="28.7625970" lon="-17.9410920">
        <ele>1283.3</ele>
        <time>2020-11-16T17:50:11Z</time>
      </trkpt>
      <trkpt lat="28.7625820" lon="-17.9411270">
        <ele>1283.4</ele>
        <time>2020-11-16T17:50:12Z</time>
      </trkpt>
      <trkpt lat="28.7625820" lon="-17.9411270">
        <ele>1283.4</ele>
        <time>2020-11-16T17:50:13Z</time>
      </trkpt>
      <trkpt lat="28.7625630" lon="-17.9411550">
        <ele>1283.6</ele>
        <time>2020-11-16T17:50:14Z</time>
      </trkpt>
      <trkpt lat="28.7625630" lon="-17.9411550">
        <ele>1283.6</ele>
        <time>2020-11-16T17:50:15Z</time>
      </trkpt>
      <trkpt lat="28.7625400" lon="-17.9411870">
        <ele>1283.7</ele>
        <time>2020-11-16T17:50:16Z</time>
      </trkpt>
      <trkpt lat="28.7625400" lon="-17.9411870">
        <ele>1283.7</ele>
        <time>2020-11-16T17:50:17Z</time>
      </trkpt>
      <trkpt lat="28.7625180" lon="-17.9412150">
        <ele>1283.9</ele>
        <time>2020-11-16T17:50:18Z</time>
      </trkpt>
      <trkpt lat="28.7625070" lon="-17.9412280">
        <ele>1284.0</ele>
        <time>2020-11-16T17:50:19Z</time>
      </trkpt>
      <trkpt lat="28.7625070" lon="-17.9412280">
        <ele>1284.0</ele>
        <time>2020-11-16T17:50:20Z</time>
      </trkpt>
      <trkpt lat="28.7624830" lon="-17.9412500">
        <ele>1284.1</ele>
        <time>2020-11-16T17:50:21Z</time>
      </trkpt>
      <trkpt lat="28.7624830" lon="-17.9412500">
        <ele>1284.1</ele>
        <time>2020-11-16T17:50:22Z</time>
      </trkpt>
      <trkpt lat="28.7624550" lon="-17.9412680">
        <ele>1284.3</ele>
        <time>2020-11-16T17:50:23Z</time>
      </trkpt>
      <trkpt lat="28.7624420" lon="-17.9412780">
        <ele>1284.4</ele>
        <time>2020-11-16T17:50:24Z</time>
      </trkpt>
      <trkpt lat="28.7624420" lon="-17.9412780">
        <ele>1284.4</ele>
        <time>2020-11-16T17:50:25Z</time>
      </trkpt>
      <trkpt lat="28.7624150" lon="-17.9413000">
        <ele>1284.6</ele>
        <time>2020-11-16T17:50:26Z</time>
      </trkpt>
      <trkpt lat="28.7624150" lon="-17.9413000">
        <ele>1284.6</ele>
        <time>2020-11-16T17:50:27Z</time>
      </trkpt>
      <trkpt lat="28.7623770" lon="-17.9413250">
        <ele>1284.9</ele>
        <time>2020-11-16T17:50:28Z</time>
      </trkpt>
      <trkpt lat="28.7623620" lon="-17.9413350">
        <ele>1285.0</ele>
        <time>2020-11-16T17:50:29Z</time>
      </trkpt>
      <trkpt lat="28.7623620" lon="-17.9413350">
        <ele>1285.0</ele>
        <time>2020-11-16T17:50:30Z</time>
      </trkpt>
      <trkpt lat="28.7623370" lon="-17.9413530">
        <ele>1285.2</ele>
        <time>2020-11-16T17:50:31Z</time>
      </trkpt>
      <trkpt lat="28.7623220" lon="-17.9413670">
        <ele>1285.3</ele>
        <time>2020-11-16T17:50:32Z</time>
      </trkpt>
      <trkpt lat="28.7623220" lon="-17.9413670">
        <ele>1285.3</ele>
        <time>2020-11-16T17:50:33Z</time>
      </trkpt>
      <trkpt lat="28.7623030" lon="-17.9413900">
        <ele>1285.5</ele>
        <time>2020-11-16T17:50:34Z</time>
      </trkpt>
      <trkpt lat="28.7623030" lon="-17.9413900">
        <ele>1285.5</ele>
        <time>2020-11-16T17:50:35Z</time>
      </trkpt>
      <trkpt lat="28.7622750" lon="-17.9414080">
        <ele>1285.7</ele>
        <time>2020-11-16T17:50:36Z</time>
      </trkpt>
      <trkpt lat="28.7622750" lon="-17.9414080">
        <ele>1285.7</ele>
        <time>2020-11-16T17:50:37Z</time>
      </trkpt>
      <trkpt lat="28.7622470" lon="-17.9414400">
        <ele>1286.0</ele>
        <time>2020-11-16T17:50:38Z</time>
      </trkpt>
      <trkpt lat="28.7622470" lon="-17.9414400">
        <ele>1286.0</ele>
        <time>2020-11-16T17:50:39Z</time>
      </trkpt>
      <trkpt lat="28.7622070" lon="-17.9414600">
        <ele>1286.3</ele>
        <time>2020-11-16T17:50:40Z</time>
      </trkpt>
      <trkpt lat="28.7622070" lon="-17.9414600">
        <ele>1286.3</ele>
        <time>2020-11-16T17:50:41Z</time>
      </trkpt>
      <trkpt lat="28.7621750" lon="-17.9414780">
        <ele>1286.5</ele>
        <time>2020-11-16T17:50:42Z</time>
      </trkpt>
      <trkpt lat="28.7621750" lon="-17.9414780">
        <ele>1286.5</ele>
        <time>2020-11-16T17:50:43Z</time>
      </trkpt>
      <trkpt lat="28.7621350" lon="-17.9414850">
        <ele>1286.8</ele>
        <time>2020-11-16T17:50:44Z</time>
      </trkpt>
      <trkpt lat="28.7621350" lon="-17.9414850">
        <ele>1286.8</ele>
        <time>2020-11-16T17:50:45Z</time>
      </trkpt>
      <trkpt lat="28.7621050" lon="-17.9414880">
        <ele>1287.0</ele>
        <time>2020-11-16T17:50:46Z</time>
      </trkpt>
      <trkpt lat="28.7621050" lon="-17.9414880">
        <ele>1287.0</ele>
        <time>2020-11-16T17:50:47Z</time>
      </trkpt>
      <trkpt lat="28.7620720" lon="-17.9414950">
        <ele>1287.2</ele>
        <time>2020-11-16T17:50:48Z</time>
      </trkpt>
      <trkpt lat="28.7620720" lon="-17.9414950">
        <ele>1287.2</ele>
        <time>2020-11-16T17:50:49Z</time>
      </trkpt>
      <trkpt lat="28.7620350" lon="-17.9414980">
        <ele>1287.5</ele>
        <time>2020-11-16T17:50:50Z</time>
      </trkpt>
      <trkpt lat="28.7620350" lon="-17.9414980">
        <ele>1287.5</ele>
        <time>2020-11-16T17:50:51Z</time>
      </trkpt>
      <trkpt lat="28.7619950" lon="-17.9415030">
        <ele>1287.8</ele>
        <time>2020-11-16T17:50:52Z</time>
      </trkpt>
      <trkpt lat="28.7619950" lon="-17.9415030">
        <ele>1287.8</ele>
        <time>2020-11-16T17:50:53Z</time>
      </trkpt>
      <trkpt lat="28.7619550" lon="-17.9415150">
        <ele>1288.0</ele>
        <time>2020-11-16T17:50:54Z</time>
      </trkpt>
      <trkpt lat="28.7619550" lon="-17.9415150">
        <ele>1288.0</ele>
        <time>2020-11-16T17:50:55Z</time>
      </trkpt>
      <trkpt lat="28.7619170" lon="-17.9415270">
        <ele>1288.3</ele>
        <time>2020-11-16T17:50:56Z</time>
      </trkpt>
      <trkpt lat="28.7619170" lon="-17.9415270">
        <ele>1288.3</ele>
        <time>2020-11-16T17:50:57Z</time>
      </trkpt>
      <trkpt lat="28.7618770" lon="-17.9415380">
        <ele>1288.6</ele>
        <time>2020-11-16T17:50:58Z</time>
      </trkpt>
      <trkpt lat="28.7618770" lon="-17.9415380">
        <ele>1288.6</ele>
        <time>2020-11-16T17:50:59Z</time>
      </trkpt>
      <trkpt lat="28.7618380" lon="-17.9415380">
        <ele>1288.9</ele>
        <time>2020-11-16T17:51:00Z</time>
      </trkpt>
      <trkpt lat="28.7618150" lon="-17.9415420">
        <ele>1289.0</ele>
        <time>2020-11-16T17:51:01Z</time>
      </trkpt>
      <trkpt lat="28.7617930" lon="-17.9415430">
        <ele>1289.2</ele>
        <time>2020-11-16T17:51:02Z</time>
      </trkpt>
      <trkpt lat="28.7617930" lon="-17.9415430">
        <ele>1289.2</ele>
        <time>2020-11-16T17:51:03Z</time>
      </trkpt>
      <trkpt lat="28.7617480" lon="-17.9415320">
        <ele>1289.4</ele>
        <time>2020-11-16T17:51:04Z</time>
      </trkpt>
      <trkpt lat="28.7617480" lon="-17.9415320">
        <ele>1289.4</ele>
        <time>2020-11-16T17:51:05Z</time>
      </trkpt>
      <trkpt lat="28.7617120" lon="-17.9415370">
        <ele>1289.5</ele>
        <time>2020-11-16T17:51:06Z</time>
      </trkpt>
      <trkpt lat="28.7617120" lon="-17.9415370">
        <ele>1289.5</ele>
        <time>2020-11-16T17:51:07Z</time>
      </trkpt>
      <trkpt lat="28.7616800" lon="-17.9415280">
        <ele>1289.6</ele>
        <time>2020-11-16T17:51:08Z</time>
      </trkpt>
      <trkpt lat="28.7616800" lon="-17.9415280">
        <ele>1289.6</ele>
        <time>2020-11-16T17:51:09Z</time>
      </trkpt>
      <trkpt lat="28.7616570" lon="-17.9415170">
        <ele>1289.7</ele>
        <time>2020-11-16T17:51:10Z</time>
      </trkpt>
      <trkpt lat="28.7616570" lon="-17.9415170">
        <ele>1289.7</ele>
        <time>2020-11-16T17:51:11Z</time>
      </trkpt>
      <trkpt lat="28.7616300" lon="-17.9415030">
        <ele>1289.7</ele>
        <time>2020-11-16T17:51:12Z</time>
      </trkpt>
      <trkpt lat="28.7616300" lon="-17.9415030">
        <ele>1289.7</ele>
        <time>2020-11-16T17:51:13Z</time>
      </trkpt>
      <trkpt lat="28.7615850" lon="-17.9414980">
        <ele>1289.8</ele>
        <time>2020-11-16T17:51:14Z</time>
      </trkpt>
      <trkpt lat="28.7615850" lon="-17.9414980">
        <ele>1289.8</ele>
        <time>2020-11-16T17:51:15Z</time>
      </trkpt>
      <trkpt lat="28.7615430" lon="-17.9414920">
        <ele>1289.9</ele>
        <time>2020-11-16T17:51:16Z</time>
      </trkpt>
      <trkpt lat="28.7615430" lon="-17.9414920">
        <ele>1289.9</ele>
        <time>2020-11-16T17:51:17Z</time>
      </trkpt>
      <trkpt lat="28.7615080" lon="-17.9414850">
        <ele>1289.9</ele>
        <time>2020-11-16T17:51:18Z</time>
      </trkpt>
      <trkpt lat="28.7614920" lon="-17.9414800">
        <ele>1290.0</ele>
        <time>2020-11-16T17:51:19Z</time>
      </trkpt>
      <trkpt lat="28.7614770" lon="-17.9414770">
        <ele>1290.0</ele>
        <time>2020-11-16T17:51:20Z</time>
      </trkpt>
      <trkpt lat="28.7614770" lon="-17.9414770">
        <ele>1290.0</ele>
        <time>2020-11-16T17:51:21Z</time>
      </trkpt>
      <trkpt lat="28.7614500" lon="-17.9414630">
        <ele>1290.0</ele>
        <time>2020-11-16T17:51:22Z</time>
      </trkpt>
      <trkpt lat="28.7614500" lon="-17.9414630">
        <ele>1290.0</ele>
        <time>2020-11-16T17:51:23Z</time>
      </trkpt>
      <trkpt lat="28.7614270" lon="-17.9414600">
        <ele>1290.0</ele>
        <time>2020-11-16T17:51:24Z</time>
      </trkpt>
      <trkpt lat="28.7614270" lon="-17.9414600">
        <ele>1290.0</ele>
        <time>2020-11-16T17:51:25Z</time>
      </trkpt>
      <trkpt lat="28.7614200" lon="-17.9414620">
        <ele>1290.0</ele>
        <time>2020-11-16T17:51:26Z</time>
      </trkpt>
      <trkpt lat="28.7614200" lon="-17.9414620">
        <ele>1290.0</ele>
        <time>2020-11-16T17:52:40Z</time>
      </trkpt>
      <trkpt lat="28.7614200" lon="-17.9414620">
        <ele>1290.0</ele>
        <time>2020-11-16T17:52:41Z</time>
      </trkpt>
      <trkpt lat="28.7613380" lon="-17.9414320">
        <ele>1290.1</ele>
        <time>2020-11-16T17:52:42Z</time>
      </trkpt>
      <trkpt lat="28.7613300" lon="-17.9414230">
        <ele>1290.1</ele>
        <time>2020-11-16T17:52:43Z</time>
      </trkpt>
      <trkpt lat="28.7613300" lon="-17.9414230">
        <ele>1290.1</ele>
        <time>2020-11-16T17:52:44Z</time>
      </trkpt>
      <trkpt lat="28.7613070" lon="-17.9414050">
        <ele>1290.1</ele>
        <time>2020-11-16T17:52:45Z</time>
      </trkpt>
      <trkpt lat="28.7612950" lon="-17.9413930">
        <ele>1290.1</ele>
        <time>2020-11-16T17:52:46Z</time>
      </trkpt>
      <trkpt lat="28.7612950" lon="-17.9413930">
        <ele>1290.1</ele>
        <time>2020-11-16T17:52:47Z</time>
      </trkpt>
      <trkpt lat="28.7612600" lon="-17.9413780">
        <ele>1290.1</ele>
        <time>2020-11-16T17:52:48Z</time>
      </trkpt>
      <trkpt lat="28.7612600" lon="-17.9413780">
        <ele>1290.1</ele>
        <time>2020-11-16T17:52:49Z</time>
      </trkpt>
      <trkpt lat="28.7612150" lon="-17.9413770">
        <ele>1290.2</ele>
        <time>2020-11-16T17:52:50Z</time>
      </trkpt>
      <trkpt lat="28.7612150" lon="-17.9413770">
        <ele>1290.2</ele>
        <time>2020-11-16T17:52:51Z</time>
      </trkpt>
      <trkpt lat="28.7611850" lon="-17.9413730">
        <ele>1290.2</ele>
        <time>2020-11-16T17:52:52Z</time>
      </trkpt>
      <trkpt lat="28.7611850" lon="-17.9413730">
        <ele>1290.2</ele>
        <time>2020-11-16T17:52:53Z</time>
      </trkpt>
      <trkpt lat="28.7611580" lon="-17.9413670">
        <ele>1290.2</ele>
        <time>2020-11-16T17:52:54Z</time>
      </trkpt>
      <trkpt lat="28.7611580" lon="-17.9413670">
        <ele>1290.2</ele>
        <time>2020-11-16T17:52:55Z</time>
      </trkpt>
      <trkpt lat="28.7611330" lon="-17.9413600">
        <ele>1290.2</ele>
        <time>2020-11-16T17:52:56Z</time>
      </trkpt>
      <trkpt lat="28.7611330" lon="-17.9413600">
        <ele>1290.2</ele>
        <time>2020-11-16T17:52:57Z</time>
      </trkpt>
      <trkpt lat="28.7610930" lon="-17.9413520">
        <ele>1290.3</ele>
        <time>2020-11-16T17:52:58Z</time>
      </trkpt>
      <trkpt lat="28.7610930" lon="-17.9413520">
        <ele>1290.3</ele>
        <time>2020-11-16T17:52:59Z</time>
      </trkpt>
      <trkpt lat="28.7610500" lon="-17.9413550">
        <ele>1290.4</ele>
        <time>2020-11-16T17:53:00Z</time>
      </trkpt>
      <trkpt lat="28.7610500" lon="-17.9413550">
        <ele>1290.4</ele>
        <time>2020-11-16T17:53:01Z</time>
      </trkpt>
      <trkpt lat="28.7610130" lon="-17.9413580">
        <ele>1290.4</ele>
        <time>2020-11-16T17:53:02Z</time>
      </trkpt>
      <trkpt lat="28.7610130" lon="-17.9413580">
        <ele>1290.4</ele>
        <time>2020-11-16T17:53:03Z</time>
      </trkpt>
      <trkpt lat="28.7609750" lon="-17.9413580">
        <ele>1290.5</ele>
        <time>2020-11-16T17:53:04Z</time>
      </trkpt>
      <trkpt lat="28.7609750" lon="-17.9413580">
        <ele>1290.5</ele>
        <time>2020-11-16T17:53:05Z</time>
      </trkpt>
      <trkpt lat="28.7609220" lon="-17.9413630">
        <ele>1290.6</ele>
        <time>2020-11-16T17:53:06Z</time>
      </trkpt>
      <trkpt lat="28.7609220" lon="-17.9413630">
        <ele>1290.6</ele>
        <time>2020-11-16T17:53:07Z</time>
      </trkpt>
      <trkpt lat="28.7608770" lon="-17.9413680">
        <ele>1290.7</ele>
        <time>2020-11-16T17:53:08Z</time>
      </trkpt>
      <trkpt lat="28.7608770" lon="-17.9413680">
        <ele>1290.7</ele>
        <time>2020-11-16T17:53:09Z</time>
      </trkpt>
      <trkpt lat="28.7608220" lon="-17.9413770">
        <ele>1290.8</ele>
        <time>2020-11-16T17:53:10Z</time>
      </trkpt>
      <trkpt lat="28.7608220" lon="-17.9413770">
        <ele>1290.8</ele>
        <time>2020-11-16T17:53:11Z</time>
      </trkpt>
      <trkpt lat="28.7608220" lon="-17.9413770">
        <ele>1290.8</ele>
        <time>2020-11-16T17:53:12Z</time>
      </trkpt>
      <trkpt lat="28.7607820" lon="-17.9413880">
        <ele>1290.8</ele>
        <time>2020-11-16T17:53:13Z</time>
      </trkpt>
      <trkpt lat="28.7607820" lon="-17.9413880">
        <ele>1290.8</ele>
        <time>2020-11-16T17:53:14Z</time>
      </trkpt>
      <trkpt lat="28.7607570" lon="-17.9413880">
        <ele>1290.9</ele>
        <time>2020-11-16T17:53:15Z</time>
      </trkpt>
      <trkpt lat="28.7607200" lon="-17.9414020">
        <ele>1291.0</ele>
        <time>2020-11-16T17:53:16Z</time>
      </trkpt>
      <trkpt lat="28.7607200" lon="-17.9414020">
        <ele>1291.0</ele>
        <time>2020-11-16T17:53:17Z</time>
      </trkpt>
      <trkpt lat="28.7606900" lon="-17.9414180">
        <ele>1291.0</ele>
        <time>2020-11-16T17:53:18Z</time>
      </trkpt>
      <trkpt lat="28.7606900" lon="-17.9414180">
        <ele>1291.0</ele>
        <time>2020-11-16T17:53:19Z</time>
      </trkpt>
      <trkpt lat="28.7606570" lon="-17.9414080">
        <ele>1291.1</ele>
        <time>2020-11-16T17:53:20Z</time>
      </trkpt>
      <trkpt lat="28.7606570" lon="-17.9414080">
        <ele>1291.1</ele>
        <time>2020-11-16T17:53:21Z</time>
      </trkpt>
      <trkpt lat="28.7606420" lon="-17.9413800">
        <ele>1291.1</ele>
        <time>2020-11-16T17:53:22Z</time>
      </trkpt>
      <trkpt lat="28.7606420" lon="-17.9413800">
        <ele>1291.1</ele>
        <time>2020-11-16T17:53:23Z</time>
      </trkpt>
      <trkpt lat="28.7606300" lon="-17.9413550">
        <ele>1291.2</ele>
        <time>2020-11-16T17:53:24Z</time>
      </trkpt>
      <trkpt lat="28.7606300" lon="-17.9413550">
        <ele>1291.2</ele>
        <time>2020-11-16T17:53:25Z</time>
      </trkpt>
      <trkpt lat="28.7606320" lon="-17.9413220">
        <ele>1291.3</ele>
        <time>2020-11-16T17:53:26Z</time>
      </trkpt>
      <trkpt lat="28.7606320" lon="-17.9413220">
        <ele>1291.3</ele>
        <time>2020-11-16T17:53:27Z</time>
      </trkpt>
      <trkpt lat="28.7606600" lon="-17.9412850">
        <ele>1291.4</ele>
        <time>2020-11-16T17:53:28Z</time>
      </trkpt>
      <trkpt lat="28.7606730" lon="-17.9412720">
        <ele>1291.4</ele>
        <time>2020-11-16T17:53:29Z</time>
      </trkpt>
      <trkpt lat="28.7606730" lon="-17.9412720">
        <ele>1291.4</ele>
        <time>2020-11-16T17:53:30Z</time>
      </trkpt>
      <trkpt lat="28.7606970" lon="-17.9412680">
        <ele>1291.5</ele>
        <time>2020-11-16T17:53:31Z</time>
      </trkpt>
      <trkpt lat="28.7607020" lon="-17.9412720">
        <ele>1291.5</ele>
        <time>2020-11-16T17:53:32Z</time>
      </trkpt>
      <trkpt lat="28.7607020" lon="-17.9412720">
        <ele>1291.5</ele>
        <time>2020-11-16T17:53:33Z</time>
      </trkpt>
      <trkpt lat="28.7607080" lon="-17.9412800">
        <ele>1291.5</ele>
        <time>2020-11-16T17:53:34Z</time>
      </trkpt>
      <trkpt lat="28.7607080" lon="-17.9412800">
        <ele>1291.5</ele>
        <time>2020-11-16T17:53:35Z</time>
      </trkpt>
      <trkpt lat="28.7607080" lon="-17.9412800">
        <ele>1291.5</ele>
        <time>2020-11-16T17:54:36Z</time>
      </trkpt>
      <trkpt lat="28.7607380" lon="-17.9413200">
        <ele>1291.7</ele>
        <time>2020-11-16T17:54:37Z</time>
      </trkpt>
      <trkpt lat="28.7607380" lon="-17.9413200">
        <ele>1291.7</ele>
        <time>2020-11-16T17:54:38Z</time>
      </trkpt>
      <trkpt lat="28.7607500" lon="-17.9413100">
        <ele>1291.7</ele>
        <time>2020-11-16T17:54:39Z</time>
      </trkpt>
      <trkpt lat="28.7607580" lon="-17.9413030">
        <ele>1291.8</ele>
        <time>2020-11-16T17:54:40Z</time>
      </trkpt>
      <trkpt lat="28.7607580" lon="-17.9413030">
        <ele>1291.8</ele>
        <time>2020-11-16T17:54:41Z</time>
      </trkpt>
      <trkpt lat="28.7607720" lon="-17.9412900">
        <ele>1291.8</ele>
        <time>2020-11-16T17:54:42Z</time>
      </trkpt>
      <trkpt lat="28.7607720" lon="-17.9412900">
        <ele>1291.8</ele>
        <time>2020-11-16T17:54:43Z</time>
      </trkpt>
      <trkpt lat="28.7607830" lon="-17.9412880">
        <ele>1291.9</ele>
        <time>2020-11-16T17:54:44Z</time>
      </trkpt>
      <trkpt lat="28.7607830" lon="-17.9412880">
        <ele>1291.9</ele>
        <time>2020-11-16T17:54:45Z</time>
      </trkpt>
      <trkpt lat="28.7608020" lon="-17.9412780">
        <ele>1291.9</ele>
        <time>2020-11-16T17:54:46Z</time>
      </trkpt>
      <trkpt lat="28.7608020" lon="-17.9412780">
        <ele>1291.9</ele>
        <time>2020-11-16T17:54:47Z</time>
      </trkpt>
      <trkpt lat="28.7608130" lon="-17.9412630">
        <ele>1292.0</ele>
        <time>2020-11-16T17:54:48Z</time>
      </trkpt>
      <trkpt lat="28.7608130" lon="-17.9412630">
        <ele>1292.0</ele>
        <time>2020-11-16T17:54:49Z</time>
      </trkpt>
      <trkpt lat="28.7608170" lon="-17.9412580">
        <ele>1292.0</ele>
        <time>2020-11-16T17:54:50Z</time>
      </trkpt>
      <trkpt lat="28.7608170" lon="-17.9412580">
        <ele>1292.0</ele>
        <time>2020-11-16T17:54:51Z</time>
      </trkpt>
      <trkpt lat="28.7608180" lon="-17.9412600">
        <ele>1292.0</ele>
        <time>2020-11-16T17:54:52Z</time>
      </trkpt>
      <trkpt lat="28.7608180" lon="-17.9412600">
        <ele>1292.0</ele>
        <time>2020-11-16T17:54:53Z</time>
      </trkpt>
      <trkpt lat="28.7608180" lon="-17.9412600">
        <ele>1292.0</ele>
        <time>2020-11-16T17:55:24Z</time>
      </trkpt>
      <trkpt lat="28.7608180" lon="-17.9412600">
        <ele>1292.0</ele>
        <time>2020-11-16T17:55:25Z</time>
      </trkpt>
      <trkpt lat="28.7608320" lon="-17.9412720">
        <ele>1292.1</ele>
        <time>2020-11-16T17:55:26Z</time>
      </trkpt>
      <trkpt lat="28.7608320" lon="-17.9412720">
        <ele>1292.1</ele>
        <time>2020-11-16T17:55:27Z</time>
      </trkpt>
      <trkpt lat="28.7608320" lon="-17.9412650">
        <ele>1292.1</ele>
        <time>2020-11-16T17:55:28Z</time>
      </trkpt>
      <trkpt lat="28.7608320" lon="-17.9412650">
        <ele>1292.1</ele>
        <time>2020-11-16T17:55:29Z</time>
      </trkpt>
      <trkpt lat="28.7608320" lon="-17.9412650">
        <ele>1292.1</ele>
        <time>2020-11-16T17:55:42Z</time>
      </trkpt>
      <trkpt lat="28.7608320" lon="-17.9412650">
        <ele>1292.1</ele>
        <time>2020-11-16T17:55:43Z</time>
      </trkpt>
      <trkpt lat="28.7607480" lon="-17.9412830">
        <ele>1292.4</ele>
        <time>2020-11-16T17:55:44Z</time>
      </trkpt>
      <trkpt lat="28.7607480" lon="-17.9412830">
        <ele>1292.4</ele>
        <time>2020-11-16T17:55:45Z</time>
      </trkpt>
      <trkpt lat="28.7607280" lon="-17.9412930">
        <ele>1292.5</ele>
        <time>2020-11-16T17:55:46Z</time>
      </trkpt>
      <trkpt lat="28.7607280" lon="-17.9412930">
        <ele>1292.5</ele>
        <time>2020-11-16T17:55:47Z</time>
      </trkpt>
      <trkpt lat="28.7607130" lon="-17.9412950">
        <ele>1292.5</ele>
        <time>2020-11-16T17:55:48Z</time>
      </trkpt>
      <trkpt lat="28.7607130" lon="-17.9412950">
        <ele>1292.5</ele>
        <time>2020-11-16T17:55:49Z</time>
      </trkpt>
      <trkpt lat="28.7606920" lon="-17.9413100">
        <ele>1292.6</ele>
        <time>2020-11-16T17:55:50Z</time>
      </trkpt>
      <trkpt lat="28.7606920" lon="-17.9413100">
        <ele>1292.6</ele>
        <time>2020-11-16T17:55:51Z</time>
      </trkpt>
      <trkpt lat="28.7606620" lon="-17.9413280">
        <ele>1292.7</ele>
        <time>2020-11-16T17:55:52Z</time>
      </trkpt>
      <trkpt lat="28.7606620" lon="-17.9413280">
        <ele>1292.7</ele>
        <time>2020-11-16T17:55:53Z</time>
      </trkpt>
      <trkpt lat="28.7606620" lon="-17.9413280">
        <ele>1292.7</ele>
        <time>2020-11-16T17:55:54Z</time>
      </trkpt>
      <trkpt lat="28.7606620" lon="-17.9413320">
        <ele>1292.7</ele>
        <time>2020-11-16T17:55:55Z</time>
      </trkpt>
      <trkpt lat="28.7606600" lon="-17.9413320">
        <ele>1292.7</ele>
        <time>2020-11-16T17:55:56Z</time>
      </trkpt>
      <trkpt lat="28.7606600" lon="-17.9413320">
        <ele>1292.7</ele>
        <time>2020-11-16T17:55:57Z</time>
      </trkpt>
      <trkpt lat="28.7606600" lon="-17.9413370">
        <ele>1292.8</ele>
        <time>2020-11-16T17:55:58Z</time>
      </trkpt>
      <trkpt lat="28.7606600" lon="-17.9413370">
        <ele>1292.8</ele>
        <time>2020-11-16T17:55:59Z</time>
      </trkpt>
      <trkpt lat="28.7606620" lon="-17.9413370">
        <ele>1292.8</ele>
        <time>2020-11-16T17:56:00Z</time>
      </trkpt>
      <trkpt lat="28.7606620" lon="-17.9413370">
        <ele>1292.8</ele>
        <time>2020-11-16T17:56:01Z</time>
      </trkpt>
      <trkpt lat="28.7606620" lon="-17.9413370">
        <ele>1292.8</ele>
        <time>2020-11-16T17:56:08Z</time>
      </trkpt>
      <trkpt lat="28.7606650" lon="-17.9413850">
        <ele>1292.9</ele>
        <time>2020-11-16T17:56:09Z</time>
      </trkpt>
      <trkpt lat="28.7606580" lon="-17.9413950">
        <ele>1292.9</ele>
        <time>2020-11-16T17:56:10Z</time>
      </trkpt>
      <trkpt lat="28.7606580" lon="-17.9413950">
        <ele>1292.9</ele>
        <time>2020-11-16T17:56:11Z</time>
      </trkpt>
      <trkpt lat="28.7606270" lon="-17.9414080">
        <ele>1293.0</ele>
        <time>2020-11-16T17:56:12Z</time>
      </trkpt>
      <trkpt lat="28.7606270" lon="-17.9414080">
        <ele>1293.0</ele>
        <time>2020-11-16T17:56:13Z</time>
      </trkpt>
      <trkpt lat="28.7606100" lon="-17.9414150">
        <ele>1293.1</ele>
        <time>2020-11-16T17:56:14Z</time>
      </trkpt>
      <trkpt lat="28.7606100" lon="-17.9414150">
        <ele>1293.1</ele>
        <time>2020-11-16T17:56:15Z</time>
      </trkpt>
      <trkpt lat="28.7605830" lon="-17.9414220">
        <ele>1293.2</ele>
        <time>2020-11-16T17:56:16Z</time>
      </trkpt>
      <trkpt lat="28.7605830" lon="-17.9414220">
        <ele>1293.2</ele>
        <time>2020-11-16T17:56:17Z</time>
      </trkpt>
      <trkpt lat="28.7605600" lon="-17.9414070">
        <ele>1293.3</ele>
        <time>2020-11-16T17:56:18Z</time>
      </trkpt>
      <trkpt lat="28.7605600" lon="-17.9414070">
        <ele>1293.3</ele>
        <time>2020-11-16T17:56:19Z</time>
      </trkpt>
      <trkpt lat="28.7605280" lon="-17.9413980">
        <ele>1293.4</ele>
        <time>2020-11-16T17:56:20Z</time>
      </trkpt>
      <trkpt lat="28.7605280" lon="-17.9413980">
        <ele>1293.4</ele>
        <time>2020-11-16T17:56:21Z</time>
      </trkpt>
      <trkpt lat="28.7605000" lon="-17.9413920">
        <ele>1293.6</ele>
        <time>2020-11-16T17:56:22Z</time>
      </trkpt>
      <trkpt lat="28.7605000" lon="-17.9413920">
        <ele>1293.6</ele>
        <time>2020-11-16T17:56:23Z</time>
      </trkpt>
      <trkpt lat="28.7604730" lon="-17.9413880">
        <ele>1293.8</ele>
        <time>2020-11-16T17:56:24Z</time>
      </trkpt>
      <trkpt lat="28.7604730" lon="-17.9413880">
        <ele>1293.8</ele>
        <time>2020-11-16T17:56:25Z</time>
      </trkpt>
      <trkpt lat="28.7604500" lon="-17.9413920">
        <ele>1293.9</ele>
        <time>2020-11-16T17:56:26Z</time>
      </trkpt>
      <trkpt lat="28.7604500" lon="-17.9413920">
        <ele>1293.9</ele>
        <time>2020-11-16T17:56:27Z</time>
      </trkpt>
      <trkpt lat="28.7604330" lon="-17.9413900">
        <ele>1294.0</ele>
        <time>2020-11-16T17:56:28Z</time>
      </trkpt>
      <trkpt lat="28.7604330" lon="-17.9413900">
        <ele>1294.0</ele>
        <time>2020-11-16T17:56:29Z</time>
      </trkpt>
      <trkpt lat="28.7604100" lon="-17.9413920">
        <ele>1294.1</ele>
        <time>2020-11-16T17:56:30Z</time>
      </trkpt>
      <trkpt lat="28.7604100" lon="-17.9413920">
        <ele>1294.1</ele>
        <time>2020-11-16T17:56:31Z</time>
      </trkpt>
      <trkpt lat="28.7603950" lon="-17.9413930">
        <ele>1294.2</ele>
        <time>2020-11-16T17:56:32Z</time>
      </trkpt>
      <trkpt lat="28.7603950" lon="-17.9413930">
        <ele>1294.2</ele>
        <time>2020-11-16T17:56:33Z</time>
      </trkpt>
      <trkpt lat="28.7603770" lon="-17.9413950">
        <ele>1294.3</ele>
        <time>2020-11-16T17:56:34Z</time>
      </trkpt>
      <trkpt lat="28.7603770" lon="-17.9413950">
        <ele>1294.3</ele>
        <time>2020-11-16T17:56:35Z</time>
      </trkpt>
      <trkpt lat="28.7603600" lon="-17.9413900">
        <ele>1294.4</ele>
        <time>2020-11-16T17:56:36Z</time>
      </trkpt>
      <trkpt lat="28.7603600" lon="-17.9413900">
        <ele>1294.4</ele>
        <time>2020-11-16T17:56:37Z</time>
      </trkpt>
      <trkpt lat="28.7603400" lon="-17.9413780">
        <ele>1294.5</ele>
        <time>2020-11-16T17:56:38Z</time>
      </trkpt>
      <trkpt lat="28.7603400" lon="-17.9413780">
        <ele>1294.5</ele>
        <time>2020-11-16T17:56:39Z</time>
      </trkpt>
      <trkpt lat="28.7603180" lon="-17.9413680">
        <ele>1294.6</ele>
        <time>2020-11-16T17:56:40Z</time>
      </trkpt>
      <trkpt lat="28.7603180" lon="-17.9413680">
        <ele>1294.6</ele>
        <time>2020-11-16T17:56:41Z</time>
      </trkpt>
      <trkpt lat="28.7602980" lon="-17.9413600">
        <ele>1294.7</ele>
        <time>2020-11-16T17:56:42Z</time>
      </trkpt>
      <trkpt lat="28.7602980" lon="-17.9413600">
        <ele>1294.7</ele>
        <time>2020-11-16T17:56:43Z</time>
      </trkpt>
      <trkpt lat="28.7602730" lon="-17.9413550">
        <ele>1294.8</ele>
        <time>2020-11-16T17:56:44Z</time>
      </trkpt>
      <trkpt lat="28.7602730" lon="-17.9413550">
        <ele>1294.8</ele>
        <time>2020-11-16T17:56:45Z</time>
      </trkpt>
      <trkpt lat="28.7602550" lon="-17.9413580">
        <ele>1294.9</ele>
        <time>2020-11-16T17:56:46Z</time>
      </trkpt>
      <trkpt lat="28.7602550" lon="-17.9413580">
        <ele>1294.9</ele>
        <time>2020-11-16T17:56:47Z</time>
      </trkpt>
      <trkpt lat="28.7602470" lon="-17.9413580">
        <ele>1294.9</ele>
        <time>2020-11-16T17:56:48Z</time>
      </trkpt>
      <trkpt lat="28.7602470" lon="-17.9413580">
        <ele>1294.9</ele>
        <time>2020-11-16T17:56:49Z</time>
      </trkpt>
      <trkpt lat="28.7602370" lon="-17.9413570">
        <ele>1295.0</ele>
        <time>2020-11-16T17:56:50Z</time>
      </trkpt>
      <trkpt lat="28.7602370" lon="-17.9413570">
        <ele>1295.0</ele>
        <time>2020-11-16T17:56:51Z</time>
      </trkpt>
      <trkpt lat="28.7602330" lon="-17.9413570">
        <ele>1295.0</ele>
        <time>2020-11-16T17:56:52Z</time>
      </trkpt>
      <trkpt lat="28.7602330" lon="-17.9413570">
        <ele>1295.0</ele>
        <time>2020-11-16T17:56:53Z</time>
      </trkpt>
      <trkpt lat="28.7602320" lon="-17.9413570">
        <ele>1295.0</ele>
        <time>2020-11-16T17:56:54Z</time>
      </trkpt>
      <trkpt lat="28.7602320" lon="-17.9413570">
        <ele>1295.0</ele>
        <time>2020-11-16T17:56:55Z</time>
      </trkpt>
      <trkpt lat="28.7602320" lon="-17.9413570">
        <ele>1295.0</ele>
        <time>2020-11-16T17:57:11Z</time>
      </trkpt>
      <trkpt lat="28.7601880" lon="-17.9412980">
        <ele>1295.3</ele>
        <time>2020-11-16T17:57:12Z</time>
      </trkpt>
      <trkpt lat="28.7601620" lon="-17.9412750">
        <ele>1295.5</ele>
        <time>2020-11-16T17:57:13Z</time>
      </trkpt>
      <trkpt lat="28.7601620" lon="-17.9412750">
        <ele>1295.5</ele>
        <time>2020-11-16T17:57:14Z</time>
      </trkpt>
      <trkpt lat="28.7601620" lon="-17.9412750">
        <ele>1295.5</ele>
        <time>2020-11-16T17:57:15Z</time>
      </trkpt>
      <trkpt lat="28.7601230" lon="-17.9412530">
        <ele>1295.7</ele>
        <time>2020-11-16T17:57:16Z</time>
      </trkpt>
      <trkpt lat="28.7601230" lon="-17.9412530">
        <ele>1295.7</ele>
        <time>2020-11-16T17:57:17Z</time>
      </trkpt>
      <trkpt lat="28.7600980" lon="-17.9412300">
        <ele>1295.9</ele>
        <time>2020-11-16T17:57:18Z</time>
      </trkpt>
      <trkpt lat="28.7600980" lon="-17.9412300">
        <ele>1295.9</ele>
        <time>2020-11-16T17:57:19Z</time>
      </trkpt>
      <trkpt lat="28.7600570" lon="-17.9412050">
        <ele>1296.1</ele>
        <time>2020-11-16T17:57:20Z</time>
      </trkpt>
      <trkpt lat="28.7600570" lon="-17.9412050">
        <ele>1296.1</ele>
        <time>2020-11-16T17:57:21Z</time>
      </trkpt>
      <trkpt lat="28.7600230" lon="-17.9411830">
        <ele>1296.3</ele>
        <time>2020-11-16T17:57:22Z</time>
      </trkpt>
      <trkpt lat="28.7600230" lon="-17.9411830">
        <ele>1296.3</ele>
        <time>2020-11-16T17:57:23Z</time>
      </trkpt>
      <trkpt lat="28.7599880" lon="-17.9411600">
        <ele>1296.5</ele>
        <time>2020-11-16T17:57:24Z</time>
      </trkpt>
      <trkpt lat="28.7599880" lon="-17.9411600">
        <ele>1296.5</ele>
        <time>2020-11-16T17:57:25Z</time>
      </trkpt>
      <trkpt lat="28.7599530" lon="-17.9411330">
        <ele>1296.7</ele>
        <time>2020-11-16T17:57:26Z</time>
      </trkpt>
      <trkpt lat="28.7599530" lon="-17.9411330">
        <ele>1296.7</ele>
        <time>2020-11-16T17:57:27Z</time>
      </trkpt>
      <trkpt lat="28.7599250" lon="-17.9410970">
        <ele>1296.9</ele>
        <time>2020-11-16T17:57:28Z</time>
      </trkpt>
      <trkpt lat="28.7599250" lon="-17.9410970">
        <ele>1296.9</ele>
        <time>2020-11-16T17:57:29Z</time>
      </trkpt>
      <trkpt lat="28.7599030" lon="-17.9410570">
        <ele>1297.1</ele>
        <time>2020-11-16T17:57:30Z</time>
      </trkpt>
      <trkpt lat="28.7599030" lon="-17.9410570">
        <ele>1297.1</ele>
        <time>2020-11-16T17:57:31Z</time>
      </trkpt>
      <trkpt lat="28.7598920" lon="-17.9410120">
        <ele>1297.2</ele>
        <time>2020-11-16T17:57:32Z</time>
      </trkpt>
      <trkpt lat="28.7598920" lon="-17.9410120">
        <ele>1297.2</ele>
        <time>2020-11-16T17:57:33Z</time>
      </trkpt>
      <trkpt lat="28.7598850" lon="-17.9409630">
        <ele>1297.3</ele>
        <time>2020-11-16T17:57:34Z</time>
      </trkpt>
      <trkpt lat="28.7598850" lon="-17.9409630">
        <ele>1297.3</ele>
        <time>2020-11-16T17:57:35Z</time>
      </trkpt>
      <trkpt lat="28.7598770" lon="-17.9409120">
        <ele>1297.3</ele>
        <time>2020-11-16T17:57:36Z</time>
      </trkpt>
      <trkpt lat="28.7598770" lon="-17.9409120">
        <ele>1297.3</ele>
        <time>2020-11-16T17:57:37Z</time>
      </trkpt>
      <trkpt lat="28.7598650" lon="-17.9408620">
        <ele>1297.4</ele>
        <time>2020-11-16T17:57:38Z</time>
      </trkpt>
      <trkpt lat="28.7598650" lon="-17.9408620">
        <ele>1297.4</ele>
        <time>2020-11-16T17:57:39Z</time>
      </trkpt>
      <trkpt lat="28.7598630" lon="-17.9407930">
        <ele>1297.4</ele>
        <time>2020-11-16T17:57:40Z</time>
      </trkpt>
      <trkpt lat="28.7598630" lon="-17.9407930">
        <ele>1297.4</ele>
        <time>2020-11-16T17:57:41Z</time>
      </trkpt>
      <trkpt lat="28.7598530" lon="-17.9407320">
        <ele>1297.3</ele>
        <time>2020-11-16T17:57:42Z</time>
      </trkpt>
      <trkpt lat="28.7598530" lon="-17.9407320">
        <ele>1297.3</ele>
        <time>2020-11-16T17:57:43Z</time>
      </trkpt>
      <trkpt lat="28.7598480" lon="-17.9406680">
        <ele>1297.2</ele>
        <time>2020-11-16T17:57:44Z</time>
      </trkpt>
      <trkpt lat="28.7598480" lon="-17.9406680">
        <ele>1297.2</ele>
        <time>2020-11-16T17:57:45Z</time>
      </trkpt>
      <trkpt lat="28.7598370" lon="-17.9406050">
        <ele>1297.0</ele>
        <time>2020-11-16T17:57:46Z</time>
      </trkpt>
      <trkpt lat="28.7598370" lon="-17.9406050">
        <ele>1297.0</ele>
        <time>2020-11-16T17:57:47Z</time>
      </trkpt>
      <trkpt lat="28.7598120" lon="-17.9405470">
        <ele>1296.8</ele>
        <time>2020-11-16T17:57:48Z</time>
      </trkpt>
      <trkpt lat="28.7598120" lon="-17.9405470">
        <ele>1296.8</ele>
        <time>2020-11-16T17:57:49Z</time>
      </trkpt>
      <trkpt lat="28.7597900" lon="-17.9404820">
        <ele>1296.5</ele>
        <time>2020-11-16T17:57:50Z</time>
      </trkpt>
      <trkpt lat="28.7597900" lon="-17.9404820">
        <ele>1296.5</ele>
        <time>2020-11-16T17:57:51Z</time>
      </trkpt>
      <trkpt lat="28.7597570" lon="-17.9404030">
        <ele>1296.1</ele>
        <time>2020-11-16T17:57:52Z</time>
      </trkpt>
      <trkpt lat="28.7597570" lon="-17.9404030">
        <ele>1296.1</ele>
        <time>2020-11-16T17:57:53Z</time>
      </trkpt>
      <trkpt lat="28.7597180" lon="-17.9403150">
        <ele>1295.6</ele>
        <time>2020-11-16T17:57:54Z</time>
      </trkpt>
      <trkpt lat="28.7597180" lon="-17.9403150">
        <ele>1295.6</ele>
        <time>2020-11-16T17:57:55Z</time>
      </trkpt>
      <trkpt lat="28.7596680" lon="-17.9402080">
        <ele>1295.0</ele>
        <time>2020-11-16T17:57:56Z</time>
      </trkpt>
      <trkpt lat="28.7596680" lon="-17.9402080">
        <ele>1295.0</ele>
        <time>2020-11-16T17:57:57Z</time>
      </trkpt>
      <trkpt lat="28.7596200" lon="-17.9401050">
        <ele>1294.4</ele>
        <time>2020-11-16T17:57:58Z</time>
      </trkpt>
      <trkpt lat="28.7596200" lon="-17.9401050">
        <ele>1294.4</ele>
        <time>2020-11-16T17:57:59Z</time>
      </trkpt>
      <trkpt lat="28.7595570" lon="-17.9400150">
        <ele>1293.8</ele>
        <time>2020-11-16T17:58:00Z</time>
      </trkpt>
      <trkpt lat="28.7595570" lon="-17.9400150">
        <ele>1293.8</ele>
        <time>2020-11-16T17:58:01Z</time>
      </trkpt>
      <trkpt lat="28.7594970" lon="-17.9399470">
        <ele>1293.4</ele>
        <time>2020-11-16T17:58:02Z</time>
      </trkpt>
      <trkpt lat="28.7594970" lon="-17.9399470">
        <ele>1293.4</ele>
        <time>2020-11-16T17:58:03Z</time>
      </trkpt>
      <trkpt lat="28.7594270" lon="-17.9399100">
        <ele>1293.0</ele>
        <time>2020-11-16T17:58:04Z</time>
      </trkpt>
      <trkpt lat="28.7594270" lon="-17.9399100">
        <ele>1293.0</ele>
        <time>2020-11-16T17:58:05Z</time>
      </trkpt>
      <trkpt lat="28.7593580" lon="-17.9399200">
        <ele>1292.9</ele>
        <time>2020-11-16T17:58:06Z</time>
      </trkpt>
      <trkpt lat="28.7593580" lon="-17.9399200">
        <ele>1292.9</ele>
        <time>2020-11-16T17:58:07Z</time>
      </trkpt>
      <trkpt lat="28.7593170" lon="-17.9399600">
        <ele>1292.8</ele>
        <time>2020-11-16T17:58:08Z</time>
      </trkpt>
      <trkpt lat="28.7593170" lon="-17.9399600">
        <ele>1292.8</ele>
        <time>2020-11-16T17:58:09Z</time>
      </trkpt>
      <trkpt lat="28.7592970" lon="-17.9400250">
        <ele>1292.8</ele>
        <time>2020-11-16T17:58:10Z</time>
      </trkpt>
      <trkpt lat="28.7592970" lon="-17.9400250">
        <ele>1292.8</ele>
        <time>2020-11-16T17:58:11Z</time>
      </trkpt>
      <trkpt lat="28.7592850" lon="-17.9400880">
        <ele>1292.8</ele>
        <time>2020-11-16T17:58:12Z</time>
      </trkpt>
      <trkpt lat="28.7592850" lon="-17.9400880">
        <ele>1292.8</ele>
        <time>2020-11-16T17:58:13Z</time>
      </trkpt>
      <trkpt lat="28.7592650" lon="-17.9401470">
        <ele>1292.9</ele>
        <time>2020-11-16T17:58:14Z</time>
      </trkpt>
      <trkpt lat="28.7592650" lon="-17.9401470">
        <ele>1292.9</ele>
        <time>2020-11-16T17:58:15Z</time>
      </trkpt>
      <trkpt lat="28.7592350" lon="-17.9402200">
        <ele>1292.8</ele>
        <time>2020-11-16T17:58:16Z</time>
      </trkpt>
      <trkpt lat="28.7592350" lon="-17.9402200">
        <ele>1292.8</ele>
        <time>2020-11-16T17:58:17Z</time>
      </trkpt>
      <trkpt lat="28.7592270" lon="-17.9403050">
        <ele>1292.8</ele>
        <time>2020-11-16T17:58:18Z</time>
      </trkpt>
      <trkpt lat="28.7592270" lon="-17.9403050">
        <ele>1292.8</ele>
        <time>2020-11-16T17:58:19Z</time>
      </trkpt>
      <trkpt lat="28.7592200" lon="-17.9403750">
        <ele>1292.7</ele>
        <time>2020-11-16T17:58:20Z</time>
      </trkpt>
      <trkpt lat="28.7592200" lon="-17.9403750">
        <ele>1292.7</ele>
        <time>2020-11-16T17:58:21Z</time>
      </trkpt>
      <trkpt lat="28.7591700" lon="-17.9404350">
        <ele>1292.7</ele>
        <time>2020-11-16T17:58:22Z</time>
      </trkpt>
      <trkpt lat="28.7591700" lon="-17.9404350">
        <ele>1292.7</ele>
        <time>2020-11-16T17:58:23Z</time>
      </trkpt>
      <trkpt lat="28.7591120" lon="-17.9405070">
        <ele>1292.8</ele>
        <time>2020-11-16T17:58:24Z</time>
      </trkpt>
      <trkpt lat="28.7591120" lon="-17.9405070">
        <ele>1292.8</ele>
        <time>2020-11-16T17:58:25Z</time>
      </trkpt>
      <trkpt lat="28.7590600" lon="-17.9405920">
        <ele>1293.1</ele>
        <time>2020-11-16T17:58:26Z</time>
      </trkpt>
      <trkpt lat="28.7590600" lon="-17.9405920">
        <ele>1293.1</ele>
        <time>2020-11-16T17:58:27Z</time>
      </trkpt>
      <trkpt lat="28.7590520" lon="-17.9406830">
        <ele>1293.6</ele>
        <time>2020-11-16T17:58:28Z</time>
      </trkpt>
      <trkpt lat="28.7590520" lon="-17.9406830">
        <ele>1293.6</ele>
        <time>2020-11-16T17:58:29Z</time>
      </trkpt>
      <trkpt lat="28.7590630" lon="-17.9407620">
        <ele>1294.1</ele>
        <time>2020-11-16T17:58:30Z</time>
      </trkpt>
      <trkpt lat="28.7590630" lon="-17.9407620">
        <ele>1294.1</ele>
        <time>2020-11-16T17:58:31Z</time>
      </trkpt>
      <trkpt lat="28.7590680" lon="-17.9408100">
        <ele>1294.4</ele>
        <time>2020-11-16T17:58:32Z</time>
      </trkpt>
      <trkpt lat="28.7590680" lon="-17.9408100">
        <ele>1294.4</ele>
        <time>2020-11-16T17:58:33Z</time>
      </trkpt>
      <trkpt lat="28.7590530" lon="-17.9408500">
        <ele>1294.8</ele>
        <time>2020-11-16T17:58:34Z</time>
      </trkpt>
      <trkpt lat="28.7590530" lon="-17.9408500">
        <ele>1294.8</ele>
        <time>2020-11-16T17:58:35Z</time>
      </trkpt>
      <trkpt lat="28.7590300" lon="-17.9408850">
        <ele>1295.2</ele>
        <time>2020-11-16T17:58:36Z</time>
      </trkpt>
      <trkpt lat="28.7590300" lon="-17.9408850">
        <ele>1295.2</ele>
        <time>2020-11-16T17:58:37Z</time>
      </trkpt>
      <trkpt lat="28.7590070" lon="-17.9409250">
        <ele>1295.6</ele>
        <time>2020-11-16T17:58:38Z</time>
      </trkpt>
      <trkpt lat="28.7590070" lon="-17.9409250">
        <ele>1295.6</ele>
        <time>2020-11-16T17:58:39Z</time>
      </trkpt>
      <trkpt lat="28.7589880" lon="-17.9409730">
        <ele>1296.0</ele>
        <time>2020-11-16T17:58:40Z</time>
      </trkpt>
      <trkpt lat="28.7589780" lon="-17.9409970">
        <ele>1296.3</ele>
        <time>2020-11-16T17:58:41Z</time>
      </trkpt>
      <trkpt lat="28.7589780" lon="-17.9409970">
        <ele>1296.3</ele>
        <time>2020-11-16T17:58:42Z</time>
      </trkpt>
      <trkpt lat="28.7589670" lon="-17.9410380">
        <ele>1296.7</ele>
        <time>2020-11-16T17:58:43Z</time>
      </trkpt>
      <trkpt lat="28.7589570" lon="-17.9410580">
        <ele>1296.9</ele>
        <time>2020-11-16T17:58:44Z</time>
      </trkpt>
      <trkpt lat="28.7589570" lon="-17.9410580">
        <ele>1296.9</ele>
        <time>2020-11-16T17:58:45Z</time>
      </trkpt>
      <trkpt lat="28.7589570" lon="-17.9411080">
        <ele>1297.3</ele>
        <time>2020-11-16T17:58:46Z</time>
      </trkpt>
      <trkpt lat="28.7589570" lon="-17.9411080">
        <ele>1297.3</ele>
        <time>2020-11-16T17:58:47Z</time>
      </trkpt>
      <trkpt lat="28.7589420" lon="-17.9411550">
        <ele>1297.8</ele>
        <time>2020-11-16T17:58:48Z</time>
      </trkpt>
      <trkpt lat="28.7589420" lon="-17.9411550">
        <ele>1297.8</ele>
        <time>2020-11-16T17:58:49Z</time>
      </trkpt>
      <trkpt lat="28.7589200" lon="-17.9412070">
        <ele>1298.5</ele>
        <time>2020-11-16T17:58:50Z</time>
      </trkpt>
      <trkpt lat="28.7589200" lon="-17.9412070">
        <ele>1298.5</ele>
        <time>2020-11-16T17:58:51Z</time>
      </trkpt>
      <trkpt lat="28.7589100" lon="-17.9412630">
        <ele>1299.3</ele>
        <time>2020-11-16T17:58:52Z</time>
      </trkpt>
      <trkpt lat="28.7589100" lon="-17.9412630">
        <ele>1299.3</ele>
        <time>2020-11-16T17:58:53Z</time>
      </trkpt>
      <trkpt lat="28.7589150" lon="-17.9413120">
        <ele>1300.2</ele>
        <time>2020-11-16T17:58:54Z</time>
      </trkpt>
      <trkpt lat="28.7589150" lon="-17.9413120">
        <ele>1300.2</ele>
        <time>2020-11-16T17:58:55Z</time>
      </trkpt>
      <trkpt lat="28.7589230" lon="-17.9413580">
        <ele>1301.0</ele>
        <time>2020-11-16T17:58:56Z</time>
      </trkpt>
      <trkpt lat="28.7589230" lon="-17.9413580">
        <ele>1301.0</ele>
        <time>2020-11-16T17:58:57Z</time>
      </trkpt>
      <trkpt lat="28.7589280" lon="-17.9414020">
        <ele>1302.0</ele>
        <time>2020-11-16T17:58:58Z</time>
      </trkpt>
      <trkpt lat="28.7589280" lon="-17.9414020">
        <ele>1302.0</ele>
        <time>2020-11-16T17:58:59Z</time>
      </trkpt>
      <trkpt lat="28.7589430" lon="-17.9414380">
        <ele>1302.9</ele>
        <time>2020-11-16T17:59:00Z</time>
      </trkpt>
      <trkpt lat="28.7589430" lon="-17.9414380">
        <ele>1302.9</ele>
        <time>2020-11-16T17:59:01Z</time>
      </trkpt>
      <trkpt lat="28.7589550" lon="-17.9414750">
        <ele>1303.8</ele>
        <time>2020-11-16T17:59:02Z</time>
      </trkpt>
      <trkpt lat="28.7589550" lon="-17.9414750">
        <ele>1303.8</ele>
        <time>2020-11-16T17:59:03Z</time>
      </trkpt>
      <trkpt lat="28.7589500" lon="-17.9415070">
        <ele>1303.7</ele>
        <time>2020-11-16T17:59:04Z</time>
      </trkpt>
      <trkpt lat="28.7589500" lon="-17.9415070">
        <ele>1303.7</ele>
        <time>2020-11-16T17:59:05Z</time>
      </trkpt>
      <trkpt lat="28.7589470" lon="-17.9415450">
        <ele>1303.6</ele>
        <time>2020-11-16T17:59:06Z</time>
      </trkpt>
      <trkpt lat="28.7589470" lon="-17.9415450">
        <ele>1303.6</ele>
        <time>2020-11-16T17:59:07Z</time>
      </trkpt>
      <trkpt lat="28.7589450" lon="-17.9415830">
        <ele>1303.5</ele>
        <time>2020-11-16T17:59:08Z</time>
      </trkpt>
      <trkpt lat="28.7589450" lon="-17.9415830">
        <ele>1303.5</ele>
        <time>2020-11-16T17:59:09Z</time>
      </trkpt>
      <trkpt lat="28.7589530" lon="-17.9416200">
        <ele>1303.3</ele>
        <time>2020-11-16T17:59:10Z</time>
      </trkpt>
      <trkpt lat="28.7589530" lon="-17.9416200">
        <ele>1303.3</ele>
        <time>2020-11-16T17:59:11Z</time>
      </trkpt>
      <trkpt lat="28.7589630" lon="-17.9416630">
        <ele>1303.2</ele>
        <time>2020-11-16T17:59:12Z</time>
      </trkpt>
      <trkpt lat="28.7589650" lon="-17.9416830">
        <ele>1303.1</ele>
        <time>2020-11-16T17:59:13Z</time>
      </trkpt>
      <trkpt lat="28.7589650" lon="-17.9416830">
        <ele>1303.1</ele>
        <time>2020-11-16T17:59:14Z</time>
      </trkpt>
      <trkpt lat="28.7589700" lon="-17.9417180">
        <ele>1302.9</ele>
        <time>2020-11-16T17:59:15Z</time>
      </trkpt>
      <trkpt lat="28.7589630" lon="-17.9417420">
        <ele>1302.8</ele>
        <time>2020-11-16T17:59:16Z</time>
      </trkpt>
      <trkpt lat="28.7589630" lon="-17.9417420">
        <ele>1302.8</ele>
        <time>2020-11-16T17:59:17Z</time>
      </trkpt>
      <trkpt lat="28.7589670" lon="-17.9417770">
        <ele>1302.6</ele>
        <time>2020-11-16T17:59:18Z</time>
      </trkpt>
      <trkpt lat="28.7589670" lon="-17.9417950">
        <ele>1302.4</ele>
        <time>2020-11-16T17:59:19Z</time>
      </trkpt>
      <trkpt lat="28.7589670" lon="-17.9417950">
        <ele>1302.4</ele>
        <time>2020-11-16T17:59:20Z</time>
      </trkpt>
      <trkpt lat="28.7589700" lon="-17.9418270">
        <ele>1302.2</ele>
        <time>2020-11-16T17:59:21Z</time>
      </trkpt>
      <trkpt lat="28.7589700" lon="-17.9418270">
        <ele>1302.2</ele>
        <time>2020-11-16T17:59:22Z</time>
      </trkpt>
      <trkpt lat="28.7589780" lon="-17.9418600">
        <ele>1302.0</ele>
        <time>2020-11-16T17:59:23Z</time>
      </trkpt>
      <trkpt lat="28.7589780" lon="-17.9418600">
        <ele>1302.0</ele>
        <time>2020-11-16T17:59:24Z</time>
      </trkpt>
      <trkpt lat="28.7589800" lon="-17.9418980">
        <ele>1301.7</ele>
        <time>2020-11-16T17:59:25Z</time>
      </trkpt>
      <trkpt lat="28.7589820" lon="-17.9419180">
        <ele>1301.5</ele>
        <time>2020-11-16T17:59:26Z</time>
      </trkpt>
      <trkpt lat="28.7589820" lon="-17.9419180">
        <ele>1301.5</ele>
        <time>2020-11-16T17:59:27Z</time>
      </trkpt>
      <trkpt lat="28.7589850" lon="-17.9419630">
        <ele>1301.2</ele>
        <time>2020-11-16T17:59:28Z</time>
      </trkpt>
      <trkpt lat="28.7589850" lon="-17.9419630">
        <ele>1301.2</ele>
        <time>2020-11-16T17:59:29Z</time>
      </trkpt>
      <trkpt lat="28.7589920" lon="-17.9420030">
        <ele>1300.8</ele>
        <time>2020-11-16T17:59:30Z</time>
      </trkpt>
      <trkpt lat="28.7589920" lon="-17.9420030">
        <ele>1300.8</ele>
        <time>2020-11-16T17:59:31Z</time>
      </trkpt>
      <trkpt lat="28.7589920" lon="-17.9420470">
        <ele>1300.5</ele>
        <time>2020-11-16T17:59:32Z</time>
      </trkpt>
      <trkpt lat="28.7589920" lon="-17.9420470">
        <ele>1300.5</ele>
        <time>2020-11-16T17:59:33Z</time>
      </trkpt>
      <trkpt lat="28.7589950" lon="-17.9420880">
        <ele>1300.2</ele>
        <time>2020-11-16T17:59:34Z</time>
      </trkpt>
      <trkpt lat="28.7589950" lon="-17.9420880">
        <ele>1300.2</ele>
        <time>2020-11-16T17:59:35Z</time>
      </trkpt>
      <trkpt lat="28.7589980" lon="-17.9421280">
        <ele>1299.9</ele>
        <time>2020-11-16T17:59:36Z</time>
      </trkpt>
      <trkpt lat="28.7590000" lon="-17.9421480">
        <ele>1299.7</ele>
        <time>2020-11-16T17:59:37Z</time>
      </trkpt>
      <trkpt lat="28.7590000" lon="-17.9421680">
        <ele>1299.6</ele>
        <time>2020-11-16T17:59:38Z</time>
      </trkpt>
      <trkpt lat="28.7590000" lon="-17.9421680">
        <ele>1299.6</ele>
        <time>2020-11-16T17:59:39Z</time>
      </trkpt>
      <trkpt lat="28.7589980" lon="-17.9422100">
        <ele>1299.2</ele>
        <time>2020-11-16T17:59:40Z</time>
      </trkpt>
      <trkpt lat="28.7589980" lon="-17.9422100">
        <ele>1299.2</ele>
        <time>2020-11-16T17:59:41Z</time>
      </trkpt>
      <trkpt lat="28.7589870" lon="-17.9422500">
        <ele>1299.4</ele>
        <time>2020-11-16T17:59:42Z</time>
      </trkpt>
      <trkpt lat="28.7589870" lon="-17.9422500">
        <ele>1299.4</ele>
        <time>2020-11-16T17:59:43Z</time>
      </trkpt>
      <trkpt lat="28.7589730" lon="-17.9422930">
        <ele>1299.7</ele>
        <time>2020-11-16T17:59:44Z</time>
      </trkpt>
      <trkpt lat="28.7589730" lon="-17.9422930">
        <ele>1299.7</ele>
        <time>2020-11-16T17:59:45Z</time>
      </trkpt>
      <trkpt lat="28.7589550" lon="-17.9423320">
        <ele>1300.0</ele>
        <time>2020-11-16T17:59:46Z</time>
      </trkpt>
      <trkpt lat="28.7589550" lon="-17.9423320">
        <ele>1300.0</ele>
        <time>2020-11-16T17:59:47Z</time>
      </trkpt>
      <trkpt lat="28.7589370" lon="-17.9423730">
        <ele>1300.3</ele>
        <time>2020-11-16T17:59:48Z</time>
      </trkpt>
      <trkpt lat="28.7589370" lon="-17.9423730">
        <ele>1300.3</ele>
        <time>2020-11-16T17:59:49Z</time>
      </trkpt>
      <trkpt lat="28.7589150" lon="-17.9424150">
        <ele>1300.7</ele>
        <time>2020-11-16T17:59:50Z</time>
      </trkpt>
      <trkpt lat="28.7589150" lon="-17.9424150">
        <ele>1300.7</ele>
        <time>2020-11-16T17:59:51Z</time>
      </trkpt>
      <trkpt lat="28.7588920" lon="-17.9424570">
        <ele>1301.0</ele>
        <time>2020-11-16T17:59:52Z</time>
      </trkpt>
      <trkpt lat="28.7588920" lon="-17.9424570">
        <ele>1301.0</ele>
        <time>2020-11-16T17:59:53Z</time>
      </trkpt>
      <trkpt lat="28.7588700" lon="-17.9425030">
        <ele>1301.4</ele>
        <time>2020-11-16T17:59:54Z</time>
      </trkpt>
      <trkpt lat="28.7588700" lon="-17.9425030">
        <ele>1301.4</ele>
        <time>2020-11-16T17:59:55Z</time>
      </trkpt>
      <trkpt lat="28.7588430" lon="-17.9425470">
        <ele>1301.8</ele>
        <time>2020-11-16T17:59:56Z</time>
      </trkpt>
      <trkpt lat="28.7588430" lon="-17.9425470">
        <ele>1301.8</ele>
        <time>2020-11-16T17:59:57Z</time>
      </trkpt>
      <trkpt lat="28.7588200" lon="-17.9425900">
        <ele>1302.1</ele>
        <time>2020-11-16T17:59:58Z</time>
      </trkpt>
      <trkpt lat="28.7588200" lon="-17.9425900">
        <ele>1302.1</ele>
        <time>2020-11-16T17:59:59Z</time>
      </trkpt>
      <trkpt lat="28.7587870" lon="-17.9426320">
        <ele>1302.5</ele>
        <time>2020-11-16T18:00:00Z</time>
      </trkpt>
      <trkpt lat="28.7587870" lon="-17.9426320">
        <ele>1302.5</ele>
        <time>2020-11-16T18:00:01Z</time>
      </trkpt>
      <trkpt lat="28.7587480" lon="-17.9426720">
        <ele>1302.9</ele>
        <time>2020-11-16T18:00:02Z</time>
      </trkpt>
      <trkpt lat="28.7587480" lon="-17.9426720">
        <ele>1302.9</ele>
        <time>2020-11-16T18:00:03Z</time>
      </trkpt>
      <trkpt lat="28.7587080" lon="-17.9427150">
        <ele>1303.2</ele>
        <time>2020-11-16T18:00:04Z</time>
      </trkpt>
      <trkpt lat="28.7587080" lon="-17.9427150">
        <ele>1303.2</ele>
        <time>2020-11-16T18:00:05Z</time>
      </trkpt>
      <trkpt lat="28.7586650" lon="-17.9427500">
        <ele>1303.3</ele>
        <time>2020-11-16T18:00:06Z</time>
      </trkpt>
      <trkpt lat="28.7586650" lon="-17.9427500">
        <ele>1303.3</ele>
        <time>2020-11-16T18:00:07Z</time>
      </trkpt>
      <trkpt lat="28.7586120" lon="-17.9427750">
        <ele>1303.4</ele>
        <time>2020-11-16T18:00:08Z</time>
      </trkpt>
      <trkpt lat="28.7586120" lon="-17.9427750">
        <ele>1303.4</ele>
        <time>2020-11-16T18:00:09Z</time>
      </trkpt>
      <trkpt lat="28.7585600" lon="-17.9427900">
        <ele>1303.5</ele>
        <time>2020-11-16T18:00:10Z</time>
      </trkpt>
      <trkpt lat="28.7585600" lon="-17.9427900">
        <ele>1303.5</ele>
        <time>2020-11-16T18:00:11Z</time>
      </trkpt>
      <trkpt lat="28.7585120" lon="-17.9428030">
        <ele>1303.6</ele>
        <time>2020-11-16T18:00:12Z</time>
      </trkpt>
      <trkpt lat="28.7585120" lon="-17.9428030">
        <ele>1303.6</ele>
        <time>2020-11-16T18:00:13Z</time>
      </trkpt>
      <trkpt lat="28.7584650" lon="-17.9428150">
        <ele>1303.7</ele>
        <time>2020-11-16T18:00:14Z</time>
      </trkpt>
      <trkpt lat="28.7584650" lon="-17.9428150">
        <ele>1303.7</ele>
        <time>2020-11-16T18:00:15Z</time>
      </trkpt>
      <trkpt lat="28.7584380" lon="-17.9428230">
        <ele>1303.7</ele>
        <time>2020-11-16T18:00:16Z</time>
      </trkpt>
      <trkpt lat="28.7584380" lon="-17.9428230">
        <ele>1303.7</ele>
        <time>2020-11-16T18:00:17Z</time>
      </trkpt>
      <trkpt lat="28.7584120" lon="-17.9428300">
        <ele>1303.7</ele>
        <time>2020-11-16T18:00:18Z</time>
      </trkpt>
      <trkpt lat="28.7584120" lon="-17.9428300">
        <ele>1303.7</ele>
        <time>2020-11-16T18:00:19Z</time>
      </trkpt>
      <trkpt lat="28.7584070" lon="-17.9428320">
        <ele>1303.7</ele>
        <time>2020-11-16T18:00:20Z</time>
      </trkpt>
      <trkpt lat="28.7584070" lon="-17.9428320">
        <ele>1303.7</ele>
        <time>2020-11-16T18:00:21Z</time>
      </trkpt>
      <trkpt lat="28.7584030" lon="-17.9428420">
        <ele>1303.7</ele>
        <time>2020-11-16T18:01:00Z</time>
      </trkpt>
      <trkpt lat="28.7584030" lon="-17.9428420">
        <ele>1303.7</ele>
        <time>2020-11-16T18:01:01Z</time>
      </trkpt>
      <trkpt lat="28.7584000" lon="-17.9428500">
        <ele>1303.7</ele>
        <time>2020-11-16T18:01:02Z</time>
      </trkpt>
      <trkpt lat="28.7584000" lon="-17.9428500">
        <ele>1303.7</ele>
        <time>2020-11-16T18:01:03Z</time>
      </trkpt>
      <trkpt lat="28.7584000" lon="-17.9428500">
        <ele>1303.7</ele>
        <time>2020-11-16T18:01:23Z</time>
      </trkpt>
      <trkpt lat="28.7583920" lon="-17.9429130">
        <ele>1303.3</ele>
        <time>2020-11-16T18:01:24Z</time>
      </trkpt>
      <trkpt lat="28.7583920" lon="-17.9429130">
        <ele>1303.3</ele>
        <time>2020-11-16T18:01:25Z</time>
      </trkpt>
      <trkpt lat="28.7583880" lon="-17.9429900">
        <ele>1302.9</ele>
        <time>2020-11-16T18:01:26Z</time>
      </trkpt>
      <trkpt lat="28.7583900" lon="-17.9430370">
        <ele>1302.7</ele>
        <time>2020-11-16T18:01:27Z</time>
      </trkpt>
      <trkpt lat="28.7583900" lon="-17.9430370">
        <ele>1302.7</ele>
        <time>2020-11-16T18:01:28Z</time>
      </trkpt>
      <trkpt lat="28.7583900" lon="-17.9431280">
        <ele>1302.0</ele>
        <time>2020-11-16T18:01:29Z</time>
      </trkpt>
      <trkpt lat="28.7583900" lon="-17.9431280">
        <ele>1302.0</ele>
        <time>2020-11-16T18:01:30Z</time>
      </trkpt>
      <trkpt lat="28.7583830" lon="-17.9432180">
        <ele>1301.3</ele>
        <time>2020-11-16T18:01:31Z</time>
      </trkpt>
      <trkpt lat="28.7583830" lon="-17.9432180">
        <ele>1301.3</ele>
        <time>2020-11-16T18:01:32Z</time>
      </trkpt>
      <trkpt lat="28.7583670" lon="-17.9432870">
        <ele>1300.7</ele>
        <time>2020-11-16T18:01:33Z</time>
      </trkpt>
      <trkpt lat="28.7583670" lon="-17.9432870">
        <ele>1300.7</ele>
        <time>2020-11-16T18:01:34Z</time>
      </trkpt>
      <trkpt lat="28.7583250" lon="-17.9433320">
        <ele>1300.4</ele>
        <time>2020-11-16T18:01:35Z</time>
      </trkpt>
      <trkpt lat="28.7583250" lon="-17.9433320">
        <ele>1300.4</ele>
        <time>2020-11-16T18:01:36Z</time>
      </trkpt>
      <trkpt lat="28.7582570" lon="-17.9433420">
        <ele>1300.7</ele>
        <time>2020-11-16T18:01:37Z</time>
      </trkpt>
      <trkpt lat="28.7582130" lon="-17.9433350">
        <ele>1300.9</ele>
        <time>2020-11-16T18:01:38Z</time>
      </trkpt>
      <trkpt lat="28.7582130" lon="-17.9433350">
        <ele>1300.9</ele>
        <time>2020-11-16T18:01:39Z</time>
      </trkpt>
      <trkpt lat="28.7581350" lon="-17.9433120">
        <ele>1301.2</ele>
        <time>2020-11-16T18:01:40Z</time>
      </trkpt>
      <trkpt lat="28.7581350" lon="-17.9433120">
        <ele>1301.2</ele>
        <time>2020-11-16T18:01:41Z</time>
      </trkpt>
      <trkpt lat="28.7580520" lon="-17.9432900">
        <ele>1301.6</ele>
        <time>2020-11-16T18:01:42Z</time>
      </trkpt>
      <trkpt lat="28.7580080" lon="-17.9432800">
        <ele>1301.9</ele>
        <time>2020-11-16T18:01:43Z</time>
      </trkpt>
      <trkpt lat="28.7580080" lon="-17.9432800">
        <ele>1301.9</ele>
        <time>2020-11-16T18:01:44Z</time>
      </trkpt>
      <trkpt lat="28.7579270" lon="-17.9432430">
        <ele>1302.4</ele>
        <time>2020-11-16T18:01:45Z</time>
      </trkpt>
      <trkpt lat="28.7579270" lon="-17.9432430">
        <ele>1302.4</ele>
        <time>2020-11-16T18:01:46Z</time>
      </trkpt>
      <trkpt lat="28.7578570" lon="-17.9431830">
        <ele>1302.8</ele>
        <time>2020-11-16T18:01:47Z</time>
      </trkpt>
      <trkpt lat="28.7578570" lon="-17.9431830">
        <ele>1302.8</ele>
        <time>2020-11-16T18:01:48Z</time>
      </trkpt>
      <trkpt lat="28.7577900" lon="-17.9430980">
        <ele>1303.2</ele>
        <time>2020-11-16T18:01:49Z</time>
      </trkpt>
      <trkpt lat="28.7577900" lon="-17.9430980">
        <ele>1303.2</ele>
        <time>2020-11-16T18:01:50Z</time>
      </trkpt>
      <trkpt lat="28.7577230" lon="-17.9429950">
        <ele>1304.0</ele>
        <time>2020-11-16T18:01:51Z</time>
      </trkpt>
      <trkpt lat="28.7576870" lon="-17.9429380">
        <ele>1304.4</ele>
        <time>2020-11-16T18:01:52Z</time>
      </trkpt>
      <trkpt lat="28.7576870" lon="-17.9429380">
        <ele>1304.4</ele>
        <time>2020-11-16T18:01:53Z</time>
      </trkpt>
      <trkpt lat="28.7576120" lon="-17.9428200">
        <ele>1304.9</ele>
        <time>2020-11-16T18:01:54Z</time>
      </trkpt>
      <trkpt lat="28.7576120" lon="-17.9428200">
        <ele>1304.9</ele>
        <time>2020-11-16T18:01:55Z</time>
      </trkpt>
      <trkpt lat="28.7575270" lon="-17.9427120">
        <ele>1305.5</ele>
        <time>2020-11-16T18:01:56Z</time>
      </trkpt>
      <trkpt lat="28.7575270" lon="-17.9427120">
        <ele>1305.5</ele>
        <time>2020-11-16T18:01:57Z</time>
      </trkpt>
      <trkpt lat="28.7574320" lon="-17.9426080">
        <ele>1306.4</ele>
        <time>2020-11-16T18:01:58Z</time>
      </trkpt>
      <trkpt lat="28.7574320" lon="-17.9426080">
        <ele>1306.4</ele>
        <time>2020-11-16T18:01:59Z</time>
      </trkpt>
      <trkpt lat="28.7573480" lon="-17.9424900">
        <ele>1307.5</ele>
        <time>2020-11-16T18:02:00Z</time>
      </trkpt>
      <trkpt lat="28.7573480" lon="-17.9424900">
        <ele>1307.5</ele>
        <time>2020-11-16T18:02:01Z</time>
      </trkpt>
      <trkpt lat="28.7572530" lon="-17.9423930">
        <ele>1308.7</ele>
        <time>2020-11-16T18:02:02Z</time>
      </trkpt>
      <trkpt lat="28.7572530" lon="-17.9423930">
        <ele>1308.7</ele>
        <time>2020-11-16T18:02:03Z</time>
      </trkpt>
      <trkpt lat="28.7571700" lon="-17.9423520">
        <ele>1310.6</ele>
        <time>2020-11-16T18:02:04Z</time>
      </trkpt>
      <trkpt lat="28.7571700" lon="-17.9423520">
        <ele>1310.6</ele>
        <time>2020-11-16T18:02:05Z</time>
      </trkpt>
      <trkpt lat="28.7570880" lon="-17.9423780">
        <ele>1313.1</ele>
        <time>2020-11-16T18:02:06Z</time>
      </trkpt>
      <trkpt lat="28.7570880" lon="-17.9423780">
        <ele>1313.1</ele>
        <time>2020-11-16T18:02:07Z</time>
      </trkpt>
      <trkpt lat="28.7570470" lon="-17.9424270">
        <ele>1312.6</ele>
        <time>2020-11-16T18:02:08Z</time>
      </trkpt>
      <trkpt lat="28.7570470" lon="-17.9424270">
        <ele>1312.6</ele>
        <time>2020-11-16T18:02:09Z</time>
      </trkpt>
      <trkpt lat="28.7570430" lon="-17.9424550">
        <ele>1312.3</ele>
        <time>2020-11-16T18:02:10Z</time>
      </trkpt>
      <trkpt lat="28.7570430" lon="-17.9424550">
        <ele>1312.3</ele>
        <time>2020-11-16T18:02:11Z</time>
      </trkpt>
      <trkpt lat="28.7570300" lon="-17.9424900">
        <ele>1312.0</ele>
        <time>2020-11-16T18:02:12Z</time>
      </trkpt>
      <trkpt lat="28.7570280" lon="-17.9425050">
        <ele>1311.8</ele>
        <time>2020-11-16T18:02:13Z</time>
      </trkpt>
      <trkpt lat="28.7570220" lon="-17.9425180">
        <ele>1311.7</ele>
        <time>2020-11-16T18:02:14Z</time>
      </trkpt>
      <trkpt lat="28.7570220" lon="-17.9425180">
        <ele>1311.7</ele>
        <time>2020-11-16T18:02:15Z</time>
      </trkpt>
      <trkpt lat="28.7570100" lon="-17.9425450">
        <ele>1311.4</ele>
        <time>2020-11-16T18:02:16Z</time>
      </trkpt>
      <trkpt lat="28.7570100" lon="-17.9425450">
        <ele>1311.4</ele>
        <time>2020-11-16T18:02:17Z</time>
      </trkpt>
      <trkpt lat="28.7570030" lon="-17.9425870">
        <ele>1310.9</ele>
        <time>2020-11-16T18:02:18Z</time>
      </trkpt>
      <trkpt lat="28.7570030" lon="-17.9425870">
        <ele>1310.9</ele>
        <time>2020-11-16T18:02:19Z</time>
      </trkpt>
      <trkpt lat="28.7570080" lon="-17.9426230">
        <ele>1310.5</ele>
        <time>2020-11-16T18:02:20Z</time>
      </trkpt>
      <trkpt lat="28.7570080" lon="-17.9426230">
        <ele>1310.5</ele>
        <time>2020-11-16T18:02:21Z</time>
      </trkpt>
      <trkpt lat="28.7570100" lon="-17.9426600">
        <ele>1310.1</ele>
        <time>2020-11-16T18:02:22Z</time>
      </trkpt>
      <trkpt lat="28.7570100" lon="-17.9426600">
        <ele>1310.1</ele>
        <time>2020-11-16T18:02:23Z</time>
      </trkpt>
      <trkpt lat="28.7569970" lon="-17.9426980">
        <ele>1309.5</ele>
        <time>2020-11-16T18:02:24Z</time>
      </trkpt>
      <trkpt lat="28.7569970" lon="-17.9426980">
        <ele>1309.5</ele>
        <time>2020-11-16T18:02:25Z</time>
      </trkpt>
      <trkpt lat="28.7569780" lon="-17.9427350">
        <ele>1309.0</ele>
        <time>2020-11-16T18:02:26Z</time>
      </trkpt>
      <trkpt lat="28.7569780" lon="-17.9427350">
        <ele>1309.0</ele>
        <time>2020-11-16T18:02:27Z</time>
      </trkpt>
      <trkpt lat="28.7569650" lon="-17.9427720">
        <ele>1308.5</ele>
        <time>2020-11-16T18:02:28Z</time>
      </trkpt>
      <trkpt lat="28.7569580" lon="-17.9427900">
        <ele>1308.2</ele>
        <time>2020-11-16T18:02:29Z</time>
      </trkpt>
      <trkpt lat="28.7569580" lon="-17.9427900">
        <ele>1308.2</ele>
        <time>2020-11-16T18:02:30Z</time>
      </trkpt>
      <trkpt lat="28.7569480" lon="-17.9428200">
        <ele>1307.7</ele>
        <time>2020-11-16T18:02:31Z</time>
      </trkpt>
      <trkpt lat="28.7569430" lon="-17.9428320">
        <ele>1307.5</ele>
        <time>2020-11-16T18:02:32Z</time>
      </trkpt>
      <trkpt lat="28.7569430" lon="-17.9428320">
        <ele>1307.5</ele>
        <time>2020-11-16T18:02:33Z</time>
      </trkpt>
      <trkpt lat="28.7569420" lon="-17.9428530">
        <ele>1307.3</ele>
        <time>2020-11-16T18:02:34Z</time>
      </trkpt>
      <trkpt lat="28.7569420" lon="-17.9428530">
        <ele>1307.3</ele>
        <time>2020-11-16T18:02:35Z</time>
      </trkpt>
      <trkpt lat="28.7569250" lon="-17.9428730">
        <ele>1307.4</ele>
        <time>2020-11-16T18:02:36Z</time>
      </trkpt>
      <trkpt lat="28.7569250" lon="-17.9428730">
        <ele>1307.4</ele>
        <time>2020-11-16T18:02:37Z</time>
      </trkpt>
      <trkpt lat="28.7568880" lon="-17.9429020">
        <ele>1307.5</ele>
        <time>2020-11-16T18:02:38Z</time>
      </trkpt>
      <trkpt lat="28.7568880" lon="-17.9429020">
        <ele>1307.5</ele>
        <time>2020-11-16T18:02:39Z</time>
      </trkpt>
      <trkpt lat="28.7568500" lon="-17.9429300">
        <ele>1307.6</ele>
        <time>2020-11-16T18:02:40Z</time>
      </trkpt>
      <trkpt lat="28.7568350" lon="-17.9429450">
        <ele>1307.7</ele>
        <time>2020-11-16T18:02:41Z</time>
      </trkpt>
      <trkpt lat="28.7568350" lon="-17.9429450">
        <ele>1307.7</ele>
        <time>2020-11-16T18:02:42Z</time>
      </trkpt>
      <trkpt lat="28.7568350" lon="-17.9429570">
        <ele>1307.7</ele>
        <time>2020-11-16T18:02:43Z</time>
      </trkpt>
      <trkpt lat="28.7568350" lon="-17.9429570">
        <ele>1307.7</ele>
        <time>2020-11-16T18:02:44Z</time>
      </trkpt>
      <trkpt lat="28.7568380" lon="-17.9429620">
        <ele>1307.7</ele>
        <time>2020-11-16T18:02:45Z</time>
      </trkpt>
      <trkpt lat="28.7567900" lon="-17.9429980">
        <ele>1307.7</ele>
        <time>2020-11-16T18:03:15Z</time>
      </trkpt>
      <trkpt lat="28.7567900" lon="-17.9429980">
        <ele>1307.7</ele>
        <time>2020-11-16T18:03:16Z</time>
      </trkpt>
      <trkpt lat="28.7567300" lon="-17.9430370">
        <ele>1307.5</ele>
        <time>2020-11-16T18:03:17Z</time>
      </trkpt>
      <trkpt lat="28.7567300" lon="-17.9430370">
        <ele>1307.5</ele>
        <time>2020-11-16T18:03:18Z</time>
      </trkpt>
      <trkpt lat="28.7566620" lon="-17.9430920">
        <ele>1306.9</ele>
        <time>2020-11-16T18:03:19Z</time>
      </trkpt>
      <trkpt lat="28.7566620" lon="-17.9430920">
        <ele>1306.9</ele>
        <time>2020-11-16T18:03:20Z</time>
      </trkpt>
      <trkpt lat="28.7566230" lon="-17.9431920">
        <ele>1305.9</ele>
        <time>2020-11-16T18:03:21Z</time>
      </trkpt>
      <trkpt lat="28.7566230" lon="-17.9431920">
        <ele>1305.9</ele>
        <time>2020-11-16T18:03:22Z</time>
      </trkpt>
      <trkpt lat="28.7566120" lon="-17.9433100">
        <ele>1304.9</ele>
        <time>2020-11-16T18:03:23Z</time>
      </trkpt>
      <trkpt lat="28.7566120" lon="-17.9433100">
        <ele>1304.9</ele>
        <time>2020-11-16T18:03:24Z</time>
      </trkpt>
      <trkpt lat="28.7566170" lon="-17.9434280">
        <ele>1303.7</ele>
        <time>2020-11-16T18:03:25Z</time>
      </trkpt>
      <trkpt lat="28.7566170" lon="-17.9434280">
        <ele>1303.7</ele>
        <time>2020-11-16T18:03:26Z</time>
      </trkpt>
      <trkpt lat="28.7566220" lon="-17.9435380">
        <ele>1302.4</ele>
        <time>2020-11-16T18:03:27Z</time>
      </trkpt>
      <trkpt lat="28.7566220" lon="-17.9435380">
        <ele>1302.4</ele>
        <time>2020-11-16T18:03:28Z</time>
      </trkpt>
      <trkpt lat="28.7566100" lon="-17.9436350">
        <ele>1301.2</ele>
        <time>2020-11-16T18:03:29Z</time>
      </trkpt>
      <trkpt lat="28.7566020" lon="-17.9436780">
        <ele>1300.7</ele>
        <time>2020-11-16T18:03:30Z</time>
      </trkpt>
      <trkpt lat="28.7566020" lon="-17.9436780">
        <ele>1300.7</ele>
        <time>2020-11-16T18:03:31Z</time>
      </trkpt>
      <trkpt lat="28.7565820" lon="-17.9437580">
        <ele>1299.8</ele>
        <time>2020-11-16T18:03:32Z</time>
      </trkpt>
      <trkpt lat="28.7565820" lon="-17.9437580">
        <ele>1299.8</ele>
        <time>2020-11-16T18:03:33Z</time>
      </trkpt>
      <trkpt lat="28.7565550" lon="-17.9438250">
        <ele>1299.2</ele>
        <time>2020-11-16T18:03:34Z</time>
      </trkpt>
      <trkpt lat="28.7565550" lon="-17.9438250">
        <ele>1299.2</ele>
        <time>2020-11-16T18:03:35Z</time>
      </trkpt>
      <trkpt lat="28.7565180" lon="-17.9438880">
        <ele>1298.6</ele>
        <time>2020-11-16T18:03:36Z</time>
      </trkpt>
      <trkpt lat="28.7565180" lon="-17.9438880">
        <ele>1298.6</ele>
        <time>2020-11-16T18:03:37Z</time>
      </trkpt>
      <trkpt lat="28.7564820" lon="-17.9439430">
        <ele>1298.2</ele>
        <time>2020-11-16T18:03:38Z</time>
      </trkpt>
      <trkpt lat="28.7564820" lon="-17.9439430">
        <ele>1298.2</ele>
        <time>2020-11-16T18:03:39Z</time>
      </trkpt>
      <trkpt lat="28.7564470" lon="-17.9439920">
        <ele>1297.9</ele>
        <time>2020-11-16T18:03:40Z</time>
      </trkpt>
      <trkpt lat="28.7564270" lon="-17.9440150">
        <ele>1297.7</ele>
        <time>2020-11-16T18:03:41Z</time>
      </trkpt>
      <trkpt lat="28.7564120" lon="-17.9440400">
        <ele>1297.6</ele>
        <time>2020-11-16T18:03:42Z</time>
      </trkpt>
      <trkpt lat="28.7564120" lon="-17.9440400">
        <ele>1297.6</ele>
        <time>2020-11-16T18:03:43Z</time>
      </trkpt>
      <trkpt lat="28.7563750" lon="-17.9440800">
        <ele>1297.4</ele>
        <time>2020-11-16T18:03:44Z</time>
      </trkpt>
      <trkpt lat="28.7563750" lon="-17.9440800">
        <ele>1297.4</ele>
        <time>2020-11-16T18:03:45Z</time>
      </trkpt>
      <trkpt lat="28.7563330" lon="-17.9441100">
        <ele>1297.3</ele>
        <time>2020-11-16T18:03:46Z</time>
      </trkpt>
      <trkpt lat="28.7563330" lon="-17.9441100">
        <ele>1297.3</ele>
        <time>2020-11-16T18:03:47Z</time>
      </trkpt>
      <trkpt lat="28.7562870" lon="-17.9441180">
        <ele>1297.3</ele>
        <time>2020-11-16T18:03:48Z</time>
      </trkpt>
      <trkpt lat="28.7562870" lon="-17.9441180">
        <ele>1297.3</ele>
        <time>2020-11-16T18:03:49Z</time>
      </trkpt>
      <trkpt lat="28.7562480" lon="-17.9441050">
        <ele>1298.4</ele>
        <time>2020-11-16T18:03:50Z</time>
      </trkpt>
      <trkpt lat="28.7562480" lon="-17.9441050">
        <ele>1298.4</ele>
        <time>2020-11-16T18:03:51Z</time>
      </trkpt>
      <trkpt lat="28.7562120" lon="-17.9440820">
        <ele>1299.3</ele>
        <time>2020-11-16T18:03:52Z</time>
      </trkpt>
      <trkpt lat="28.7562020" lon="-17.9440630">
        <ele>1299.8</ele>
        <time>2020-11-16T18:03:53Z</time>
      </trkpt>
      <trkpt lat="28.7562020" lon="-17.9440630">
        <ele>1299.8</ele>
        <time>2020-11-16T18:03:54Z</time>
      </trkpt>
      <trkpt lat="28.7561880" lon="-17.9440280">
        <ele>1300.5</ele>
        <time>2020-11-16T18:03:55Z</time>
      </trkpt>
      <trkpt lat="28.7561880" lon="-17.9440280">
        <ele>1300.5</ele>
        <time>2020-11-16T18:03:56Z</time>
      </trkpt>
      <trkpt lat="28.7561800" lon="-17.9439950">
        <ele>1301.1</ele>
        <time>2020-11-16T18:03:57Z</time>
      </trkpt>
      <trkpt lat="28.7561750" lon="-17.9439780">
        <ele>1301.4</ele>
        <time>2020-11-16T18:03:58Z</time>
      </trkpt>
      <trkpt lat="28.7561750" lon="-17.9439780">
        <ele>1301.4</ele>
        <time>2020-11-16T18:03:59Z</time>
      </trkpt>
      <trkpt lat="28.7561680" lon="-17.9439480">
        <ele>1301.9</ele>
        <time>2020-11-16T18:04:00Z</time>
      </trkpt>
      <trkpt lat="28.7561680" lon="-17.9439480">
        <ele>1301.9</ele>
        <time>2020-11-16T18:04:01Z</time>
      </trkpt>
      <trkpt lat="28.7561580" lon="-17.9439180">
        <ele>1302.5</ele>
        <time>2020-11-16T18:04:02Z</time>
      </trkpt>
      <trkpt lat="28.7561580" lon="-17.9439180">
        <ele>1302.5</ele>
        <time>2020-11-16T18:04:03Z</time>
      </trkpt>
      <trkpt lat="28.7561400" lon="-17.9438980">
        <ele>1303.0</ele>
        <time>2020-11-16T18:04:04Z</time>
      </trkpt>
      <trkpt lat="28.7561350" lon="-17.9438820">
        <ele>1303.2</ele>
        <time>2020-11-16T18:04:05Z</time>
      </trkpt>
      <trkpt lat="28.7561320" lon="-17.9438630">
        <ele>1303.6</ele>
        <time>2020-11-16T18:04:06Z</time>
      </trkpt>
      <trkpt lat="28.7561320" lon="-17.9438630">
        <ele>1303.6</ele>
        <time>2020-11-16T18:04:07Z</time>
      </trkpt>
      <trkpt lat="28.7561230" lon="-17.9438300">
        <ele>1304.1</ele>
        <time>2020-11-16T18:04:08Z</time>
      </trkpt>
      <trkpt lat="28.7561230" lon="-17.9438300">
        <ele>1304.1</ele>
        <time>2020-11-16T18:04:09Z</time>
      </trkpt>
      <trkpt lat="28.7561150" lon="-17.9438000">
        <ele>1304.6</ele>
        <time>2020-11-16T18:04:10Z</time>
      </trkpt>
      <trkpt lat="28.7561150" lon="-17.9438000">
        <ele>1304.6</ele>
        <time>2020-11-16T18:04:11Z</time>
      </trkpt>
      <trkpt lat="28.7561070" lon="-17.9437680">
        <ele>1305.1</ele>
        <time>2020-11-16T18:04:12Z</time>
      </trkpt>
      <trkpt lat="28.7561070" lon="-17.9437680">
        <ele>1305.1</ele>
        <time>2020-11-16T18:04:13Z</time>
      </trkpt>
      <trkpt lat="28.7561000" lon="-17.9437350">
        <ele>1305.6</ele>
        <time>2020-11-16T18:04:14Z</time>
      </trkpt>
      <trkpt lat="28.7561000" lon="-17.9437350">
        <ele>1305.6</ele>
        <time>2020-11-16T18:04:15Z</time>
      </trkpt>
      <trkpt lat="28.7560950" lon="-17.9437020">
        <ele>1306.1</ele>
        <time>2020-11-16T18:04:16Z</time>
      </trkpt>
      <trkpt lat="28.7560950" lon="-17.9437020">
        <ele>1306.1</ele>
        <time>2020-11-16T18:04:17Z</time>
      </trkpt>
      <trkpt lat="28.7560880" lon="-17.9436720">
        <ele>1306.5</ele>
        <time>2020-11-16T18:04:18Z</time>
      </trkpt>
      <trkpt lat="28.7560880" lon="-17.9436720">
        <ele>1306.5</ele>
        <time>2020-11-16T18:04:19Z</time>
      </trkpt>
      <trkpt lat="28.7560820" lon="-17.9436400">
        <ele>1306.9</ele>
        <time>2020-11-16T18:04:20Z</time>
      </trkpt>
      <trkpt lat="28.7560820" lon="-17.9436400">
        <ele>1306.9</ele>
        <time>2020-11-16T18:04:21Z</time>
      </trkpt>
      <trkpt lat="28.7560670" lon="-17.9436120">
        <ele>1307.4</ele>
        <time>2020-11-16T18:04:22Z</time>
      </trkpt>
      <trkpt lat="28.7560600" lon="-17.9435970">
        <ele>1307.6</ele>
        <time>2020-11-16T18:04:23Z</time>
      </trkpt>
      <trkpt lat="28.7560600" lon="-17.9435970">
        <ele>1307.6</ele>
        <time>2020-11-16T18:04:24Z</time>
      </trkpt>
      <trkpt lat="28.7560430" lon="-17.9435720">
        <ele>1308.0</ele>
        <time>2020-11-16T18:04:25Z</time>
      </trkpt>
      <trkpt lat="28.7560430" lon="-17.9435720">
        <ele>1308.0</ele>
        <time>2020-11-16T18:04:26Z</time>
      </trkpt>
      <trkpt lat="28.7560400" lon="-17.9435420">
        <ele>1308.4</ele>
        <time>2020-11-16T18:04:27Z</time>
      </trkpt>
      <trkpt lat="28.7560400" lon="-17.9435420">
        <ele>1308.4</ele>
        <time>2020-11-16T18:04:28Z</time>
      </trkpt>
      <trkpt lat="28.7560350" lon="-17.9435100">
        <ele>1308.8</ele>
        <time>2020-11-16T18:04:29Z</time>
      </trkpt>
      <trkpt lat="28.7560350" lon="-17.9435100">
        <ele>1308.8</ele>
        <time>2020-11-16T18:04:30Z</time>
      </trkpt>
      <trkpt lat="28.7560230" lon="-17.9434800">
        <ele>1309.2</ele>
        <time>2020-11-16T18:04:31Z</time>
      </trkpt>
      <trkpt lat="28.7560200" lon="-17.9434630">
        <ele>1309.4</ele>
        <time>2020-11-16T18:04:32Z</time>
      </trkpt>
      <trkpt lat="28.7560200" lon="-17.9434630">
        <ele>1309.4</ele>
        <time>2020-11-16T18:04:33Z</time>
      </trkpt>
      <trkpt lat="28.7560200" lon="-17.9434250">
        <ele>1309.9</ele>
        <time>2020-11-16T18:04:34Z</time>
      </trkpt>
      <trkpt lat="28.7560170" lon="-17.9434080">
        <ele>1310.2</ele>
        <time>2020-11-16T18:04:35Z</time>
      </trkpt>
      <trkpt lat="28.7560170" lon="-17.9434080">
        <ele>1310.2</ele>
        <time>2020-11-16T18:04:36Z</time>
      </trkpt>
      <trkpt lat="28.7560030" lon="-17.9433750">
        <ele>1310.7</ele>
        <time>2020-11-16T18:04:37Z</time>
      </trkpt>
      <trkpt lat="28.7560000" lon="-17.9433600">
        <ele>1310.9</ele>
        <time>2020-11-16T18:04:38Z</time>
      </trkpt>
      <trkpt lat="28.7560000" lon="-17.9433600">
        <ele>1310.9</ele>
        <time>2020-11-16T18:04:39Z</time>
      </trkpt>
      <trkpt lat="28.7559900" lon="-17.9433320">
        <ele>1311.3</ele>
        <time>2020-11-16T18:04:40Z</time>
      </trkpt>
      <trkpt lat="28.7559820" lon="-17.9433180">
        <ele>1311.5</ele>
        <time>2020-11-16T18:04:41Z</time>
      </trkpt>
      <trkpt lat="28.7559820" lon="-17.9433180">
        <ele>1311.5</ele>
        <time>2020-11-16T18:04:42Z</time>
      </trkpt>
      <trkpt lat="28.7559650" lon="-17.9432880">
        <ele>1311.9</ele>
        <time>2020-11-16T18:04:43Z</time>
      </trkpt>
      <trkpt lat="28.7559600" lon="-17.9432720">
        <ele>1312.2</ele>
        <time>2020-11-16T18:04:44Z</time>
      </trkpt>
      <trkpt lat="28.7559600" lon="-17.9432720">
        <ele>1312.2</ele>
        <time>2020-11-16T18:04:45Z</time>
      </trkpt>
      <trkpt lat="28.7559520" lon="-17.9432370">
        <ele>1312.6</ele>
        <time>2020-11-16T18:04:46Z</time>
      </trkpt>
      <trkpt lat="28.7559520" lon="-17.9432370">
        <ele>1312.6</ele>
        <time>2020-11-16T18:04:47Z</time>
      </trkpt>
      <trkpt lat="28.7559420" lon="-17.9432020">
        <ele>1313.1</ele>
        <time>2020-11-16T18:04:48Z</time>
      </trkpt>
      <trkpt lat="28.7559420" lon="-17.9432020">
        <ele>1313.1</ele>
        <time>2020-11-16T18:04:49Z</time>
      </trkpt>
      <trkpt lat="28.7559330" lon="-17.9431720">
        <ele>1313.5</ele>
        <time>2020-11-16T18:04:50Z</time>
      </trkpt>
      <trkpt lat="28.7559330" lon="-17.9431720">
        <ele>1313.5</ele>
        <time>2020-11-16T18:04:51Z</time>
      </trkpt>
      <trkpt lat="28.7559270" lon="-17.9431400">
        <ele>1314.0</ele>
        <time>2020-11-16T18:04:52Z</time>
      </trkpt>
      <trkpt lat="28.7559270" lon="-17.9431400">
        <ele>1314.0</ele>
        <time>2020-11-16T18:04:53Z</time>
      </trkpt>
      <trkpt lat="28.7559100" lon="-17.9431150">
        <ele>1314.4</ele>
        <time>2020-11-16T18:04:54Z</time>
      </trkpt>
      <trkpt lat="28.7559100" lon="-17.9431150">
        <ele>1314.4</ele>
        <time>2020-11-16T18:04:55Z</time>
      </trkpt>
      <trkpt lat="28.7558900" lon="-17.9430900">
        <ele>1314.8</ele>
        <time>2020-11-16T18:04:56Z</time>
      </trkpt>
      <trkpt lat="28.7558900" lon="-17.9430900">
        <ele>1314.8</ele>
        <time>2020-11-16T18:04:57Z</time>
      </trkpt>
      <trkpt lat="28.7558750" lon="-17.9430600">
        <ele>1315.2</ele>
        <time>2020-11-16T18:04:58Z</time>
      </trkpt>
      <trkpt lat="28.7558750" lon="-17.9430600">
        <ele>1315.2</ele>
        <time>2020-11-16T18:04:59Z</time>
      </trkpt>
      <trkpt lat="28.7558650" lon="-17.9430280">
        <ele>1315.7</ele>
        <time>2020-11-16T18:05:00Z</time>
      </trkpt>
      <trkpt lat="28.7558650" lon="-17.9430280">
        <ele>1315.7</ele>
        <time>2020-11-16T18:05:01Z</time>
      </trkpt>
      <trkpt lat="28.7558530" lon="-17.9430000">
        <ele>1316.1</ele>
        <time>2020-11-16T18:05:02Z</time>
      </trkpt>
      <trkpt lat="28.7558530" lon="-17.9430000">
        <ele>1316.1</ele>
        <time>2020-11-16T18:05:03Z</time>
      </trkpt>
      <trkpt lat="28.7558350" lon="-17.9429770">
        <ele>1316.5</ele>
        <time>2020-11-16T18:05:04Z</time>
      </trkpt>
      <trkpt lat="28.7558350" lon="-17.9429770">
        <ele>1316.5</ele>
        <time>2020-11-16T18:05:05Z</time>
      </trkpt>
      <trkpt lat="28.7558120" lon="-17.9429450">
        <ele>1317.0</ele>
        <time>2020-11-16T18:05:06Z</time>
      </trkpt>
      <trkpt lat="28.7558120" lon="-17.9429450">
        <ele>1317.0</ele>
        <time>2020-11-16T18:05:07Z</time>
      </trkpt>
      <trkpt lat="28.7557970" lon="-17.9429070">
        <ele>1317.5</ele>
        <time>2020-11-16T18:05:08Z</time>
      </trkpt>
      <trkpt lat="28.7557970" lon="-17.9429070">
        <ele>1317.5</ele>
        <time>2020-11-16T18:05:09Z</time>
      </trkpt>
      <trkpt lat="28.7557870" lon="-17.9428730">
        <ele>1317.9</ele>
        <time>2020-11-16T18:05:10Z</time>
      </trkpt>
      <trkpt lat="28.7557870" lon="-17.9428730">
        <ele>1317.9</ele>
        <time>2020-11-16T18:05:11Z</time>
      </trkpt>
      <trkpt lat="28.7557750" lon="-17.9428370">
        <ele>1318.3</ele>
        <time>2020-11-16T18:05:12Z</time>
      </trkpt>
      <trkpt lat="28.7557750" lon="-17.9428370">
        <ele>1318.3</ele>
        <time>2020-11-16T18:05:13Z</time>
      </trkpt>
      <trkpt lat="28.7557580" lon="-17.9428070">
        <ele>1318.6</ele>
        <time>2020-11-16T18:05:14Z</time>
      </trkpt>
      <trkpt lat="28.7557580" lon="-17.9428070">
        <ele>1318.6</ele>
        <time>2020-11-16T18:05:15Z</time>
      </trkpt>
      <trkpt lat="28.7557380" lon="-17.9427750">
        <ele>1318.9</ele>
        <time>2020-11-16T18:05:16Z</time>
      </trkpt>
      <trkpt lat="28.7557380" lon="-17.9427750">
        <ele>1318.9</ele>
        <time>2020-11-16T18:05:17Z</time>
      </trkpt>
      <trkpt lat="28.7557180" lon="-17.9427370">
        <ele>1319.3</ele>
        <time>2020-11-16T18:05:18Z</time>
      </trkpt>
      <trkpt lat="28.7557180" lon="-17.9427370">
        <ele>1319.3</ele>
        <time>2020-11-16T18:05:19Z</time>
      </trkpt>
      <trkpt lat="28.7557020" lon="-17.9426950">
        <ele>1319.6</ele>
        <time>2020-11-16T18:05:20Z</time>
      </trkpt>
      <trkpt lat="28.7557020" lon="-17.9426950">
        <ele>1319.6</ele>
        <time>2020-11-16T18:05:21Z</time>
      </trkpt>
      <trkpt lat="28.7556770" lon="-17.9426600">
        <ele>1319.9</ele>
        <time>2020-11-16T18:05:22Z</time>
      </trkpt>
      <trkpt lat="28.7556770" lon="-17.9426600">
        <ele>1320.1</ele>
        <time>2020-11-16T18:05:23Z</time>
      </trkpt>
      <trkpt lat="28.7556430" lon="-17.9426250">
        <ele>1320.2</ele>
        <time>2020-11-16T18:05:24Z</time>
      </trkpt>
      <trkpt lat="28.7556430" lon="-17.9426250">
        <ele>1320.2</ele>
        <time>2020-11-16T18:05:25Z</time>
      </trkpt>
      <trkpt lat="28.7555930" lon="-17.9425920">
        <ele>1320.5</ele>
        <time>2020-11-16T18:05:26Z</time>
      </trkpt>
      <trkpt lat="28.7555930" lon="-17.9425920">
        <ele>1320.5</ele>
        <time>2020-11-16T18:05:27Z</time>
      </trkpt>
      <trkpt lat="28.7555270" lon="-17.9425630">
        <ele>1321.1</ele>
        <time>2020-11-16T18:05:28Z</time>
      </trkpt>
      <trkpt lat="28.7554920" lon="-17.9425500">
        <ele>1321.4</ele>
        <time>2020-11-16T18:05:29Z</time>
      </trkpt>
      <trkpt lat="28.7554920" lon="-17.9425500">
        <ele>1321.4</ele>
        <time>2020-11-16T18:05:30Z</time>
      </trkpt>
      <trkpt lat="28.7554120" lon="-17.9425220">
        <ele>1322.3</ele>
        <time>2020-11-16T18:05:31Z</time>
      </trkpt>
      <trkpt lat="28.7553730" lon="-17.9425070">
        <ele>1322.8</ele>
        <time>2020-11-16T18:05:32Z</time>
      </trkpt>
      <trkpt lat="28.7553730" lon="-17.9425070">
        <ele>1322.8</ele>
        <time>2020-11-16T18:05:33Z</time>
      </trkpt>
      <trkpt lat="28.7552950" lon="-17.9424820">
        <ele>1323.8</ele>
        <time>2020-11-16T18:05:34Z</time>
      </trkpt>
      <trkpt lat="28.7552950" lon="-17.9424820">
        <ele>1323.8</ele>
        <time>2020-11-16T18:05:35Z</time>
      </trkpt>
      <trkpt lat="28.7552280" lon="-17.9424550">
        <ele>1324.8</ele>
        <time>2020-11-16T18:05:36Z</time>
      </trkpt>
      <trkpt lat="28.7552280" lon="-17.9424550">
        <ele>1324.8</ele>
        <time>2020-11-16T18:05:37Z</time>
      </trkpt>
      <trkpt lat="28.7551700" lon="-17.9424300">
        <ele>1325.8</ele>
        <time>2020-11-16T18:05:38Z</time>
      </trkpt>
      <trkpt lat="28.7551700" lon="-17.9424300">
        <ele>1325.8</ele>
        <time>2020-11-16T18:05:39Z</time>
      </trkpt>
      <trkpt lat="28.7551200" lon="-17.9424000">
        <ele>1326.7</ele>
        <time>2020-11-16T18:05:40Z</time>
      </trkpt>
      <trkpt lat="28.7551200" lon="-17.9424000">
        <ele>1326.7</ele>
        <time>2020-11-16T18:05:41Z</time>
      </trkpt>
      <trkpt lat="28.7550870" lon="-17.9423650">
        <ele>1327.5</ele>
        <time>2020-11-16T18:05:42Z</time>
      </trkpt>
      <trkpt lat="28.7550870" lon="-17.9423650">
        <ele>1327.5</ele>
        <time>2020-11-16T18:05:43Z</time>
      </trkpt>
      <trkpt lat="28.7550430" lon="-17.9423220">
        <ele>1328.4</ele>
        <time>2020-11-16T18:05:44Z</time>
      </trkpt>
      <trkpt lat="28.7550430" lon="-17.9423220">
        <ele>1328.4</ele>
        <time>2020-11-16T18:05:45Z</time>
      </trkpt>
      <trkpt lat="28.7550080" lon="-17.9422720">
        <ele>1329.4</ele>
        <time>2020-11-16T18:05:46Z</time>
      </trkpt>
      <trkpt lat="28.7550080" lon="-17.9422720">
        <ele>1329.4</ele>
        <time>2020-11-16T18:05:47Z</time>
      </trkpt>
      <trkpt lat="28.7549730" lon="-17.9422180">
        <ele>1330.3</ele>
        <time>2020-11-16T18:05:48Z</time>
      </trkpt>
      <trkpt lat="28.7549730" lon="-17.9422180">
        <ele>1330.3</ele>
        <time>2020-11-16T18:05:49Z</time>
      </trkpt>
      <trkpt lat="28.7549380" lon="-17.9421680">
        <ele>1331.2</ele>
        <time>2020-11-16T18:05:50Z</time>
      </trkpt>
      <trkpt lat="28.7549380" lon="-17.9421680">
        <ele>1331.2</ele>
        <time>2020-11-16T18:05:51Z</time>
      </trkpt>
      <trkpt lat="28.7549170" lon="-17.9421100">
        <ele>1332.1</ele>
        <time>2020-11-16T18:05:52Z</time>
      </trkpt>
      <trkpt lat="28.7549170" lon="-17.9421100">
        <ele>1332.1</ele>
        <time>2020-11-16T18:05:53Z</time>
      </trkpt>
      <trkpt lat="28.7548980" lon="-17.9420570">
        <ele>1333.0</ele>
        <time>2020-11-16T18:05:54Z</time>
      </trkpt>
      <trkpt lat="28.7548980" lon="-17.9420570">
        <ele>1333.0</ele>
        <time>2020-11-16T18:05:55Z</time>
      </trkpt>
      <trkpt lat="28.7548750" lon="-17.9420100">
        <ele>1333.8</ele>
        <time>2020-11-16T18:05:56Z</time>
      </trkpt>
      <trkpt lat="28.7548750" lon="-17.9420100">
        <ele>1333.8</ele>
        <time>2020-11-16T18:05:57Z</time>
      </trkpt>
      <trkpt lat="28.7548420" lon="-17.9419770">
        <ele>1334.5</ele>
        <time>2020-11-16T18:05:58Z</time>
      </trkpt>
      <trkpt lat="28.7548420" lon="-17.9419770">
        <ele>1334.5</ele>
        <time>2020-11-16T18:05:59Z</time>
      </trkpt>
      <trkpt lat="28.7548020" lon="-17.9419720">
        <ele>1334.9</ele>
        <time>2020-11-16T18:06:00Z</time>
      </trkpt>
      <trkpt lat="28.7548020" lon="-17.9419720">
        <ele>1334.9</ele>
        <time>2020-11-16T18:06:01Z</time>
      </trkpt>
      <trkpt lat="28.7547620" lon="-17.9419900">
        <ele>1333.8</ele>
        <time>2020-11-16T18:06:02Z</time>
      </trkpt>
      <trkpt lat="28.7547620" lon="-17.9419900">
        <ele>1333.8</ele>
        <time>2020-11-16T18:06:03Z</time>
      </trkpt>
      <trkpt lat="28.7547370" lon="-17.9420180">
        <ele>1333.0</ele>
        <time>2020-11-16T18:06:04Z</time>
      </trkpt>
      <trkpt lat="28.7547370" lon="-17.9420180">
        <ele>1333.0</ele>
        <time>2020-11-16T18:06:05Z</time>
      </trkpt>
      <trkpt lat="28.7547130" lon="-17.9420480">
        <ele>1332.1</ele>
        <time>2020-11-16T18:06:06Z</time>
      </trkpt>
      <trkpt lat="28.7547070" lon="-17.9420630">
        <ele>1331.7</ele>
        <time>2020-11-16T18:06:07Z</time>
      </trkpt>
      <trkpt lat="28.7547000" lon="-17.9420820">
        <ele>1331.3</ele>
        <time>2020-11-16T18:06:08Z</time>
      </trkpt>
      <trkpt lat="28.7547000" lon="-17.9420820">
        <ele>1331.3</ele>
        <time>2020-11-16T18:06:09Z</time>
      </trkpt>
      <trkpt lat="28.7546900" lon="-17.9421220">
        <ele>1330.4</ele>
        <time>2020-11-16T18:06:10Z</time>
      </trkpt>
      <trkpt lat="28.7546900" lon="-17.9421220">
        <ele>1330.4</ele>
        <time>2020-11-16T18:06:11Z</time>
      </trkpt>
      <trkpt lat="28.7546780" lon="-17.9421580">
        <ele>1329.5</ele>
        <time>2020-11-16T18:06:12Z</time>
      </trkpt>
      <trkpt lat="28.7546780" lon="-17.9421580">
        <ele>1329.5</ele>
        <time>2020-11-16T18:06:13Z</time>
      </trkpt>
      <trkpt lat="28.7546730" lon="-17.9421980">
        <ele>1328.6</ele>
        <time>2020-11-16T18:06:14Z</time>
      </trkpt>
      <trkpt lat="28.7546730" lon="-17.9421980">
        <ele>1328.6</ele>
        <time>2020-11-16T18:06:15Z</time>
      </trkpt>
      <trkpt lat="28.7546650" lon="-17.9422420">
        <ele>1327.6</ele>
        <time>2020-11-16T18:06:16Z</time>
      </trkpt>
      <trkpt lat="28.7546650" lon="-17.9422420">
        <ele>1327.6</ele>
        <time>2020-11-16T18:06:17Z</time>
      </trkpt>
      <trkpt lat="28.7546500" lon="-17.9422830">
        <ele>1326.7</ele>
        <time>2020-11-16T18:06:18Z</time>
      </trkpt>
      <trkpt lat="28.7546430" lon="-17.9423020">
        <ele>1326.2</ele>
        <time>2020-11-16T18:06:19Z</time>
      </trkpt>
      <trkpt lat="28.7546330" lon="-17.9423170">
        <ele>1325.8</ele>
        <time>2020-11-16T18:06:20Z</time>
      </trkpt>
      <trkpt lat="28.7546330" lon="-17.9423170">
        <ele>1325.8</ele>
        <time>2020-11-16T18:06:21Z</time>
      </trkpt>
      <trkpt lat="28.7546170" lon="-17.9423520">
        <ele>1325.0</ele>
        <time>2020-11-16T18:06:22Z</time>
      </trkpt>
      <trkpt lat="28.7546170" lon="-17.9423520">
        <ele>1325.0</ele>
        <time>2020-11-16T18:06:23Z</time>
      </trkpt>
      <trkpt lat="28.7545970" lon="-17.9423830">
        <ele>1324.1</ele>
        <time>2020-11-16T18:06:24Z</time>
      </trkpt>
      <trkpt lat="28.7545870" lon="-17.9424000">
        <ele>1323.6</ele>
        <time>2020-11-16T18:06:25Z</time>
      </trkpt>
      <trkpt lat="28.7545870" lon="-17.9424000">
        <ele>1323.6</ele>
        <time>2020-11-16T18:06:26Z</time>
      </trkpt>
      <trkpt lat="28.7545680" lon="-17.9424280">
        <ele>1322.8</ele>
        <time>2020-11-16T18:06:27Z</time>
      </trkpt>
      <trkpt lat="28.7545680" lon="-17.9424280">
        <ele>1322.8</ele>
        <time>2020-11-16T18:06:28Z</time>
      </trkpt>
      <trkpt lat="28.7545430" lon="-17.9424480">
        <ele>1322.0</ele>
        <time>2020-11-16T18:06:29Z</time>
      </trkpt>
      <trkpt lat="28.7545270" lon="-17.9424580">
        <ele>1321.5</ele>
        <time>2020-11-16T18:06:30Z</time>
      </trkpt>
      <trkpt lat="28.7545270" lon="-17.9424580">
        <ele>1321.5</ele>
        <time>2020-11-16T18:06:31Z</time>
      </trkpt>
      <trkpt lat="28.7544920" lon="-17.9424720">
        <ele>1320.4</ele>
        <time>2020-11-16T18:06:32Z</time>
      </trkpt>
      <trkpt lat="28.7544920" lon="-17.9424720">
        <ele>1320.4</ele>
        <time>2020-11-16T18:06:33Z</time>
      </trkpt>
      <trkpt lat="28.7544580" lon="-17.9424830">
        <ele>1320.3</ele>
        <time>2020-11-16T18:06:34Z</time>
      </trkpt>
      <trkpt lat="28.7544580" lon="-17.9424830">
        <ele>1320.3</ele>
        <time>2020-11-16T18:06:35Z</time>
      </trkpt>
      <trkpt lat="28.7544400" lon="-17.9424950">
        <ele>1320.3</ele>
        <time>2020-11-16T18:06:36Z</time>
      </trkpt>
      <trkpt lat="28.7544400" lon="-17.9424950">
        <ele>1320.3</ele>
        <time>2020-11-16T18:06:37Z</time>
      </trkpt>
      <trkpt lat="28.7544370" lon="-17.9425020">
        <ele>1320.3</ele>
        <time>2020-11-16T18:06:38Z</time>
      </trkpt>
      <trkpt lat="28.7544030" lon="-17.9425600">
        <ele>1320.0</ele>
        <time>2020-11-16T18:07:04Z</time>
      </trkpt>
      <trkpt lat="28.7544030" lon="-17.9425600">
        <ele>1320.0</ele>
        <time>2020-11-16T18:07:05Z</time>
      </trkpt>
      <trkpt lat="28.7543900" lon="-17.9425680">
        <ele>1319.9</ele>
        <time>2020-11-16T18:07:06Z</time>
      </trkpt>
      <trkpt lat="28.7543900" lon="-17.9425680">
        <ele>1319.9</ele>
        <time>2020-11-16T18:07:07Z</time>
      </trkpt>
      <trkpt lat="28.7543750" lon="-17.9425650">
        <ele>1319.8</ele>
        <time>2020-11-16T18:07:08Z</time>
      </trkpt>
      <trkpt lat="28.7543750" lon="-17.9425650">
        <ele>1319.8</ele>
        <time>2020-11-16T18:07:09Z</time>
      </trkpt>
      <trkpt lat="28.7543730" lon="-17.9425630">
        <ele>1319.7</ele>
        <time>2020-11-16T18:07:37Z</time>
      </trkpt>
      <trkpt lat="28.7543080" lon="-17.9425170">
        <ele>1319.0</ele>
        <time>2020-11-16T18:07:38Z</time>
      </trkpt>
      <trkpt lat="28.7543080" lon="-17.9425170">
        <ele>1319.0</ele>
        <time>2020-11-16T18:07:39Z</time>
      </trkpt>
      <trkpt lat="28.7542320" lon="-17.9424220">
        <ele>1317.9</ele>
        <time>2020-11-16T18:07:40Z</time>
      </trkpt>
      <trkpt lat="28.7541800" lon="-17.9423620">
        <ele>1317.2</ele>
        <time>2020-11-16T18:07:41Z</time>
      </trkpt>
      <trkpt lat="28.7541800" lon="-17.9423620">
        <ele>1317.2</ele>
        <time>2020-11-16T18:07:42Z</time>
      </trkpt>
      <trkpt lat="28.7540750" lon="-17.9422330">
        <ele>1316.1</ele>
        <time>2020-11-16T18:07:43Z</time>
      </trkpt>
      <trkpt lat="28.7540200" lon="-17.9421730">
        <ele>1315.8</ele>
        <time>2020-11-16T18:07:44Z</time>
      </trkpt>
      <trkpt lat="28.7540200" lon="-17.9421730">
        <ele>1315.8</ele>
        <time>2020-11-16T18:07:45Z</time>
      </trkpt>
      <trkpt lat="28.7539130" lon="-17.9420570">
        <ele>1315.2</ele>
        <time>2020-11-16T18:07:46Z</time>
      </trkpt>
      <trkpt lat="28.7539130" lon="-17.9420570">
        <ele>1315.2</ele>
        <time>2020-11-16T18:07:47Z</time>
      </trkpt>
      <trkpt lat="28.7538080" lon="-17.9419620">
        <ele>1314.6</ele>
        <time>2020-11-16T18:07:48Z</time>
      </trkpt>
      <trkpt lat="28.7538080" lon="-17.9419620">
        <ele>1314.6</ele>
        <time>2020-11-16T18:07:49Z</time>
      </trkpt>
      <trkpt lat="28.7536900" lon="-17.9418980">
        <ele>1314.0</ele>
        <time>2020-11-16T18:07:50Z</time>
      </trkpt>
      <trkpt lat="28.7536900" lon="-17.9418980">
        <ele>1314.0</ele>
        <time>2020-11-16T18:07:51Z</time>
      </trkpt>
      <trkpt lat="28.7535650" lon="-17.9418770">
        <ele>1313.4</ele>
        <time>2020-11-16T18:07:52Z</time>
      </trkpt>
      <trkpt lat="28.7535650" lon="-17.9418770">
        <ele>1313.4</ele>
        <time>2020-11-16T18:07:53Z</time>
      </trkpt>
      <trkpt lat="28.7534750" lon="-17.9419320">
        <ele>1313.1</ele>
        <time>2020-11-16T18:07:54Z</time>
      </trkpt>
      <trkpt lat="28.7534750" lon="-17.9419320">
        <ele>1313.1</ele>
        <time>2020-11-16T18:07:55Z</time>
      </trkpt>
      <trkpt lat="28.7534500" lon="-17.9420500">
        <ele>1312.8</ele>
        <time>2020-11-16T18:07:56Z</time>
      </trkpt>
      <trkpt lat="28.7534500" lon="-17.9420500">
        <ele>1312.8</ele>
        <time>2020-11-16T18:07:57Z</time>
      </trkpt>
      <trkpt lat="28.7534600" lon="-17.9421570">
        <ele>1312.7</ele>
        <time>2020-11-16T18:07:58Z</time>
      </trkpt>
      <trkpt lat="28.7534600" lon="-17.9421570">
        <ele>1312.7</ele>
        <time>2020-11-16T18:07:59Z</time>
      </trkpt>
      <trkpt lat="28.7534500" lon="-17.9422630">
        <ele>1312.7</ele>
        <time>2020-11-16T18:08:00Z</time>
      </trkpt>
      <trkpt lat="28.7534500" lon="-17.9422630">
        <ele>1312.7</ele>
        <time>2020-11-16T18:08:01Z</time>
      </trkpt>
      <trkpt lat="28.7534080" lon="-17.9423550">
        <ele>1312.8</ele>
        <time>2020-11-16T18:08:02Z</time>
      </trkpt>
      <trkpt lat="28.7533800" lon="-17.9423900">
        <ele>1312.8</ele>
        <time>2020-11-16T18:08:03Z</time>
      </trkpt>
      <trkpt lat="28.7533800" lon="-17.9423900">
        <ele>1312.8</ele>
        <time>2020-11-16T18:08:04Z</time>
      </trkpt>
      <trkpt lat="28.7533150" lon="-17.9424530">
        <ele>1312.9</ele>
        <time>2020-11-16T18:08:05Z</time>
      </trkpt>
      <trkpt lat="28.7533150" lon="-17.9424530">
        <ele>1312.9</ele>
        <time>2020-11-16T18:08:06Z</time>
      </trkpt>
      <trkpt lat="28.7532350" lon="-17.9425150">
        <ele>1312.8</ele>
        <time>2020-11-16T18:08:07Z</time>
      </trkpt>
      <trkpt lat="28.7532350" lon="-17.9425150">
        <ele>1312.8</ele>
        <time>2020-11-16T18:08:08Z</time>
      </trkpt>
      <trkpt lat="28.7531530" lon="-17.9425770">
        <ele>1312.5</ele>
        <time>2020-11-16T18:08:09Z</time>
      </trkpt>
      <trkpt lat="28.7531530" lon="-17.9425770">
        <ele>1312.5</ele>
        <time>2020-11-16T18:08:10Z</time>
      </trkpt>
      <trkpt lat="28.7530730" lon="-17.9426130">
        <ele>1312.3</ele>
        <time>2020-11-16T18:08:11Z</time>
      </trkpt>
      <trkpt lat="28.7530730" lon="-17.9426130">
        <ele>1312.3</ele>
        <time>2020-11-16T18:08:12Z</time>
      </trkpt>
      <trkpt lat="28.7529970" lon="-17.9425820">
        <ele>1312.6</ele>
        <time>2020-11-16T18:08:13Z</time>
      </trkpt>
      <trkpt lat="28.7529970" lon="-17.9425820">
        <ele>1312.6</ele>
        <time>2020-11-16T18:08:14Z</time>
      </trkpt>
      <trkpt lat="28.7529070" lon="-17.9424830">
        <ele>1313.1</ele>
        <time>2020-11-16T18:08:15Z</time>
      </trkpt>
      <trkpt lat="28.7529070" lon="-17.9424830">
        <ele>1313.1</ele>
        <time>2020-11-16T18:08:16Z</time>
      </trkpt>
      <trkpt lat="28.7527780" lon="-17.9423950">
        <ele>1313.9</ele>
        <time>2020-11-16T18:08:17Z</time>
      </trkpt>
      <trkpt lat="28.7527100" lon="-17.9423800">
        <ele>1314.5</ele>
        <time>2020-11-16T18:08:18Z</time>
      </trkpt>
      <trkpt lat="28.7527100" lon="-17.9423800">
        <ele>1314.5</ele>
        <time>2020-11-16T18:08:19Z</time>
      </trkpt>
      <trkpt lat="28.7525670" lon="-17.9423600">
        <ele>1316.1</ele>
        <time>2020-11-16T18:08:20Z</time>
      </trkpt>
      <trkpt lat="28.7525670" lon="-17.9423600">
        <ele>1316.1</ele>
        <time>2020-11-16T18:08:21Z</time>
      </trkpt>
      <trkpt lat="28.7524650" lon="-17.9422900">
        <ele>1317.2</ele>
        <time>2020-11-16T18:08:22Z</time>
      </trkpt>
      <trkpt lat="28.7524300" lon="-17.9422380">
        <ele>1317.9</ele>
        <time>2020-11-16T18:08:23Z</time>
      </trkpt>
      <trkpt lat="28.7524300" lon="-17.9422380">
        <ele>1317.9</ele>
        <time>2020-11-16T18:08:24Z</time>
      </trkpt>
      <trkpt lat="28.7523350" lon="-17.9421600">
        <ele>1318.9</ele>
        <time>2020-11-16T18:08:25Z</time>
      </trkpt>
      <trkpt lat="28.7523350" lon="-17.9421600">
        <ele>1318.9</ele>
        <time>2020-11-16T18:08:26Z</time>
      </trkpt>
      <trkpt lat="28.7522420" lon="-17.9421730">
        <ele>1319.0</ele>
        <time>2020-11-16T18:08:27Z</time>
      </trkpt>
      <trkpt lat="28.7522420" lon="-17.9421730">
        <ele>1319.0</ele>
        <time>2020-11-16T18:08:28Z</time>
      </trkpt>
      <trkpt lat="28.7521850" lon="-17.9422170">
        <ele>1318.8</ele>
        <time>2020-11-16T18:08:29Z</time>
      </trkpt>
      <trkpt lat="28.7521850" lon="-17.9422170">
        <ele>1318.8</ele>
        <time>2020-11-16T18:08:30Z</time>
      </trkpt>
      <trkpt lat="28.7521430" lon="-17.9422500">
        <ele>1318.4</ele>
        <time>2020-11-16T18:08:31Z</time>
      </trkpt>
      <trkpt lat="28.7521430" lon="-17.9422500">
        <ele>1318.4</ele>
        <time>2020-11-16T18:08:32Z</time>
      </trkpt>
      <trkpt lat="28.7520950" lon="-17.9422680">
        <ele>1317.8</ele>
        <time>2020-11-16T18:08:33Z</time>
      </trkpt>
      <trkpt lat="28.7520730" lon="-17.9422680">
        <ele>1317.5</ele>
        <time>2020-11-16T18:08:34Z</time>
      </trkpt>
      <trkpt lat="28.7520730" lon="-17.9422680">
        <ele>1317.5</ele>
        <time>2020-11-16T18:08:35Z</time>
      </trkpt>
      <trkpt lat="28.7520220" lon="-17.9422550">
        <ele>1316.8</ele>
        <time>2020-11-16T18:08:36Z</time>
      </trkpt>
      <trkpt lat="28.7520220" lon="-17.9422550">
        <ele>1316.8</ele>
        <time>2020-11-16T18:08:37Z</time>
      </trkpt>
      <trkpt lat="28.7519650" lon="-17.9422250">
        <ele>1315.9</ele>
        <time>2020-11-16T18:08:38Z</time>
      </trkpt>
      <trkpt lat="28.7519650" lon="-17.9422250">
        <ele>1315.9</ele>
        <time>2020-11-16T18:08:39Z</time>
      </trkpt>
      <trkpt lat="28.7518930" lon="-17.9421680">
        <ele>1315.0</ele>
        <time>2020-11-16T18:08:40Z</time>
      </trkpt>
      <trkpt lat="28.7518570" lon="-17.9421320">
        <ele>1314.7</ele>
        <time>2020-11-16T18:08:41Z</time>
      </trkpt>
      <trkpt lat="28.7518570" lon="-17.9421320">
        <ele>1314.7</ele>
        <time>2020-11-16T18:08:42Z</time>
      </trkpt>
      <trkpt lat="28.7517850" lon="-17.9420380">
        <ele>1314.4</ele>
        <time>2020-11-16T18:08:43Z</time>
      </trkpt>
      <trkpt lat="28.7517850" lon="-17.9420380">
        <ele>1314.4</ele>
        <time>2020-11-16T18:08:44Z</time>
      </trkpt>
      <trkpt lat="28.7516930" lon="-17.9419530">
        <ele>1314.7</ele>
        <time>2020-11-16T18:08:45Z</time>
      </trkpt>
      <trkpt lat="28.7516930" lon="-17.9419530">
        <ele>1314.7</ele>
        <time>2020-11-16T18:08:46Z</time>
      </trkpt>
      <trkpt lat="28.7515950" lon="-17.9419400">
        <ele>1315.5</ele>
        <time>2020-11-16T18:08:47Z</time>
      </trkpt>
      <trkpt lat="28.7515950" lon="-17.9419400">
        <ele>1315.5</ele>
        <time>2020-11-16T18:08:48Z</time>
      </trkpt>
      <trkpt lat="28.7515420" lon="-17.9419820">
        <ele>1315.9</ele>
        <time>2020-11-16T18:08:49Z</time>
      </trkpt>
      <trkpt lat="28.7515220" lon="-17.9420070">
        <ele>1316.1</ele>
        <time>2020-11-16T18:08:50Z</time>
      </trkpt>
      <trkpt lat="28.7515220" lon="-17.9420070">
        <ele>1316.1</ele>
        <time>2020-11-16T18:08:51Z</time>
      </trkpt>
      <trkpt lat="28.7515070" lon="-17.9420520">
        <ele>1316.3</ele>
        <time>2020-11-16T18:08:52Z</time>
      </trkpt>
      <trkpt lat="28.7515070" lon="-17.9420520">
        <ele>1316.3</ele>
        <time>2020-11-16T18:08:53Z</time>
      </trkpt>
      <trkpt lat="28.7514900" lon="-17.9420870">
        <ele>1316.5</ele>
        <time>2020-11-16T18:08:54Z</time>
      </trkpt>
      <trkpt lat="28.7514880" lon="-17.9421070">
        <ele>1316.6</ele>
        <time>2020-11-16T18:08:55Z</time>
      </trkpt>
      <trkpt lat="28.7514880" lon="-17.9421070">
        <ele>1316.6</ele>
        <time>2020-11-16T18:08:56Z</time>
      </trkpt>
      <trkpt lat="28.7514970" lon="-17.9421400">
        <ele>1316.8</ele>
        <time>2020-11-16T18:08:57Z</time>
      </trkpt>
      <trkpt lat="28.7514970" lon="-17.9421400">
        <ele>1316.8</ele>
        <time>2020-11-16T18:08:58Z</time>
      </trkpt>
      <trkpt lat="28.7514930" lon="-17.9421780">
        <ele>1316.9</ele>
        <time>2020-11-16T18:08:59Z</time>
      </trkpt>
      <trkpt lat="28.7514930" lon="-17.9421780">
        <ele>1316.9</ele>
        <time>2020-11-16T18:09:00Z</time>
      </trkpt>
      <trkpt lat="28.7514920" lon="-17.9422200">
        <ele>1317.0</ele>
        <time>2020-11-16T18:09:01Z</time>
      </trkpt>
      <trkpt lat="28.7514880" lon="-17.9422370">
        <ele>1317.1</ele>
        <time>2020-11-16T18:09:02Z</time>
      </trkpt>
      <trkpt lat="28.7514880" lon="-17.9422370">
        <ele>1317.1</ele>
        <time>2020-11-16T18:09:03Z</time>
      </trkpt>
      <trkpt lat="28.7514850" lon="-17.9422800">
        <ele>1317.2</ele>
        <time>2020-11-16T18:09:04Z</time>
      </trkpt>
      <trkpt lat="28.7514850" lon="-17.9422800">
        <ele>1317.2</ele>
        <time>2020-11-16T18:09:05Z</time>
      </trkpt>
      <trkpt lat="28.7514920" lon="-17.9423220">
        <ele>1317.3</ele>
        <time>2020-11-16T18:09:06Z</time>
      </trkpt>
      <trkpt lat="28.7514920" lon="-17.9423220">
        <ele>1317.3</ele>
        <time>2020-11-16T18:09:07Z</time>
      </trkpt>
      <trkpt lat="28.7514900" lon="-17.9423670">
        <ele>1317.4</ele>
        <time>2020-11-16T18:09:08Z</time>
      </trkpt>
      <trkpt lat="28.7514900" lon="-17.9423670">
        <ele>1317.4</ele>
        <time>2020-11-16T18:09:09Z</time>
      </trkpt>
      <trkpt lat="28.7514870" lon="-17.9424080">
        <ele>1317.5</ele>
        <time>2020-11-16T18:09:10Z</time>
      </trkpt>
      <trkpt lat="28.7514830" lon="-17.9424270">
        <ele>1317.5</ele>
        <time>2020-11-16T18:09:11Z</time>
      </trkpt>
      <trkpt lat="28.7514730" lon="-17.9424450">
        <ele>1317.4</ele>
        <time>2020-11-16T18:09:12Z</time>
      </trkpt>
      <trkpt lat="28.7514730" lon="-17.9424450">
        <ele>1317.4</ele>
        <time>2020-11-16T18:09:13Z</time>
      </trkpt>
      <trkpt lat="28.7514730" lon="-17.9424820">
        <ele>1317.4</ele>
        <time>2020-11-16T18:09:14Z</time>
      </trkpt>
      <trkpt lat="28.7514730" lon="-17.9424820">
        <ele>1317.4</ele>
        <time>2020-11-16T18:09:15Z</time>
      </trkpt>
      <trkpt lat="28.7514670" lon="-17.9425170">
        <ele>1317.4</ele>
        <time>2020-11-16T18:09:16Z</time>
      </trkpt>
      <trkpt lat="28.7514670" lon="-17.9425170">
        <ele>1317.4</ele>
        <time>2020-11-16T18:09:17Z</time>
      </trkpt>
      <trkpt lat="28.7514180" lon="-17.9425550">
        <ele>1317.2</ele>
        <time>2020-11-16T18:09:18Z</time>
      </trkpt>
      <trkpt lat="28.7514180" lon="-17.9425550">
        <ele>1317.2</ele>
        <time>2020-11-16T18:09:19Z</time>
      </trkpt>
      <trkpt lat="28.7513900" lon="-17.9425920">
        <ele>1317.1</ele>
        <time>2020-11-16T18:09:20Z</time>
      </trkpt>
      <trkpt lat="28.7513900" lon="-17.9425920">
        <ele>1317.1</ele>
        <time>2020-11-16T18:09:21Z</time>
      </trkpt>
      <trkpt lat="28.7513570" lon="-17.9426200">
        <ele>1316.9</ele>
        <time>2020-11-16T18:09:22Z</time>
      </trkpt>
      <trkpt lat="28.7513570" lon="-17.9426200">
        <ele>1316.9</ele>
        <time>2020-11-16T18:09:23Z</time>
      </trkpt>
      <trkpt lat="28.7513150" lon="-17.9426380">
        <ele>1316.7</ele>
        <time>2020-11-16T18:09:24Z</time>
      </trkpt>
      <trkpt lat="28.7513150" lon="-17.9426380">
        <ele>1316.7</ele>
        <time>2020-11-16T18:09:25Z</time>
      </trkpt>
      <trkpt lat="28.7512820" lon="-17.9426420">
        <ele>1316.5</ele>
        <time>2020-11-16T18:09:26Z</time>
      </trkpt>
      <trkpt lat="28.7512820" lon="-17.9426420">
        <ele>1316.8</ele>
        <time>2020-11-16T18:09:27Z</time>
      </trkpt>
      <trkpt lat="28.7512350" lon="-17.9426430">
        <ele>1317.4</ele>
        <time>2020-11-16T18:09:28Z</time>
      </trkpt>
      <trkpt lat="28.7512350" lon="-17.9426430">
        <ele>1317.4</ele>
        <time>2020-11-16T18:09:29Z</time>
      </trkpt>
      <trkpt lat="28.7511720" lon="-17.9426320">
        <ele>1318.2</ele>
        <time>2020-11-16T18:09:30Z</time>
      </trkpt>
      <trkpt lat="28.7510880" lon="-17.9426020">
        <ele>1319.4</ele>
        <time>2020-11-16T18:09:31Z</time>
      </trkpt>
      <trkpt lat="28.7510880" lon="-17.9426020">
        <ele>1319.4</ele>
        <time>2020-11-16T18:09:32Z</time>
      </trkpt>
      <trkpt lat="28.7510880" lon="-17.9426020">
        <ele>1319.4</ele>
        <time>2020-11-16T18:09:33Z</time>
      </trkpt>
      <trkpt lat="28.7509930" lon="-17.9425730">
        <ele>1320.7</ele>
        <time>2020-11-16T18:09:34Z</time>
      </trkpt>
      <trkpt lat="28.7509400" lon="-17.9425570">
        <ele>1321.3</ele>
        <time>2020-11-16T18:09:35Z</time>
      </trkpt>
      <trkpt lat="28.7509400" lon="-17.9425570">
        <ele>1321.3</ele>
        <time>2020-11-16T18:09:36Z</time>
      </trkpt>
      <trkpt lat="28.7508430" lon="-17.9425020">
        <ele>1322.3</ele>
        <time>2020-11-16T18:09:37Z</time>
      </trkpt>
      <trkpt lat="28.7508050" lon="-17.9424600">
        <ele>1322.9</ele>
        <time>2020-11-16T18:09:38Z</time>
      </trkpt>
      <trkpt lat="28.7508050" lon="-17.9424600">
        <ele>1322.9</ele>
        <time>2020-11-16T18:09:39Z</time>
      </trkpt>
      <trkpt lat="28.7507520" lon="-17.9423550">
        <ele>1324.3</ele>
        <time>2020-11-16T18:09:40Z</time>
      </trkpt>
      <trkpt lat="28.7507520" lon="-17.9423550">
        <ele>1324.3</ele>
        <time>2020-11-16T18:09:41Z</time>
      </trkpt>
      <trkpt lat="28.7507330" lon="-17.9422380">
        <ele>1325.9</ele>
        <time>2020-11-16T18:09:42Z</time>
      </trkpt>
      <trkpt lat="28.7507330" lon="-17.9422380">
        <ele>1325.9</ele>
        <time>2020-11-16T18:09:43Z</time>
      </trkpt>
      <trkpt lat="28.7507300" lon="-17.9421330">
        <ele>1327.6</ele>
        <time>2020-11-16T18:09:44Z</time>
      </trkpt>
      <trkpt lat="28.7507300" lon="-17.9421330">
        <ele>1327.6</ele>
        <time>2020-11-16T18:09:45Z</time>
      </trkpt>
      <trkpt lat="28.7507150" lon="-17.9420520">
        <ele>1329.0</ele>
        <time>2020-11-16T18:09:46Z</time>
      </trkpt>
      <trkpt lat="28.7506900" lon="-17.9420220">
        <ele>1329.7</ele>
        <time>2020-11-16T18:09:47Z</time>
      </trkpt>
      <trkpt lat="28.7506900" lon="-17.9420220">
        <ele>1329.5</ele>
        <time>2020-11-16T18:09:48Z</time>
      </trkpt>
      <trkpt lat="28.7506130" lon="-17.9420180">
        <ele>1328.8</ele>
        <time>2020-11-16T18:09:49Z</time>
      </trkpt>
      <trkpt lat="28.7505970" lon="-17.9420400">
        <ele>1328.6</ele>
        <time>2020-11-16T18:09:50Z</time>
      </trkpt>
      <trkpt lat="28.7505970" lon="-17.9420400">
        <ele>1328.6</ele>
        <time>2020-11-16T18:09:51Z</time>
      </trkpt>
      <trkpt lat="28.7505680" lon="-17.9420830">
        <ele>1328.2</ele>
        <time>2020-11-16T18:09:52Z</time>
      </trkpt>
      <trkpt lat="28.7505550" lon="-17.9421130">
        <ele>1328.0</ele>
        <time>2020-11-16T18:09:53Z</time>
      </trkpt>
      <trkpt lat="28.7505550" lon="-17.9421130">
        <ele>1328.0</ele>
        <time>2020-11-16T18:09:54Z</time>
      </trkpt>
      <trkpt lat="28.7505130" lon="-17.9421780">
        <ele>1327.5</ele>
        <time>2020-11-16T18:09:55Z</time>
      </trkpt>
      <trkpt lat="28.7505130" lon="-17.9421780">
        <ele>1327.5</ele>
        <time>2020-11-16T18:09:56Z</time>
      </trkpt>
      <trkpt lat="28.7504720" lon="-17.9422420">
        <ele>1327.1</ele>
        <time>2020-11-16T18:09:57Z</time>
      </trkpt>
      <trkpt lat="28.7504720" lon="-17.9422420">
        <ele>1327.1</ele>
        <time>2020-11-16T18:09:58Z</time>
      </trkpt>
      <trkpt lat="28.7504430" lon="-17.9423070">
        <ele>1326.9</ele>
        <time>2020-11-16T18:09:59Z</time>
      </trkpt>
      <trkpt lat="28.7504430" lon="-17.9423070">
        <ele>1326.9</ele>
        <time>2020-11-16T18:10:00Z</time>
      </trkpt>
      <trkpt lat="28.7504250" lon="-17.9423650">
        <ele>1326.9</ele>
        <time>2020-11-16T18:10:01Z</time>
      </trkpt>
      <trkpt lat="28.7504250" lon="-17.9423650">
        <ele>1326.9</ele>
        <time>2020-11-16T18:10:02Z</time>
      </trkpt>
      <trkpt lat="28.7504050" lon="-17.9424150">
        <ele>1326.9</ele>
        <time>2020-11-16T18:10:03Z</time>
      </trkpt>
      <trkpt lat="28.7504000" lon="-17.9424380">
        <ele>1326.9</ele>
        <time>2020-11-16T18:10:04Z</time>
      </trkpt>
      <trkpt lat="28.7504000" lon="-17.9424380">
        <ele>1326.9</ele>
        <time>2020-11-16T18:10:05Z</time>
      </trkpt>
      <trkpt lat="28.7503800" lon="-17.9424780">
        <ele>1327.0</ele>
        <time>2020-11-16T18:10:06Z</time>
      </trkpt>
      <trkpt lat="28.7503800" lon="-17.9424780">
        <ele>1327.0</ele>
        <time>2020-11-16T18:10:07Z</time>
      </trkpt>
      <trkpt lat="28.7503550" lon="-17.9425120">
        <ele>1327.2</ele>
        <time>2020-11-16T18:10:08Z</time>
      </trkpt>
      <trkpt lat="28.7503550" lon="-17.9425120">
        <ele>1327.2</ele>
        <time>2020-11-16T18:10:09Z</time>
      </trkpt>
      <trkpt lat="28.7503270" lon="-17.9425420">
        <ele>1327.3</ele>
        <time>2020-11-16T18:10:10Z</time>
      </trkpt>
      <trkpt lat="28.7503270" lon="-17.9425420">
        <ele>1327.3</ele>
        <time>2020-11-16T18:10:11Z</time>
      </trkpt>
      <trkpt lat="28.7502880" lon="-17.9425680">
        <ele>1327.4</ele>
        <time>2020-11-16T18:10:12Z</time>
      </trkpt>
      <trkpt lat="28.7502880" lon="-17.9425680">
        <ele>1327.4</ele>
        <time>2020-11-16T18:10:13Z</time>
      </trkpt>
      <trkpt lat="28.7502480" lon="-17.9425820">
        <ele>1327.5</ele>
        <time>2020-11-16T18:10:14Z</time>
      </trkpt>
      <trkpt lat="28.7502480" lon="-17.9425820">
        <ele>1327.5</ele>
        <time>2020-11-16T18:10:15Z</time>
      </trkpt>
      <trkpt lat="28.7502020" lon="-17.9425880">
        <ele>1327.5</ele>
        <time>2020-11-16T18:10:16Z</time>
      </trkpt>
      <trkpt lat="28.7501720" lon="-17.9425880">
        <ele>1327.4</ele>
        <time>2020-11-16T18:10:17Z</time>
      </trkpt>
      <trkpt lat="28.7501720" lon="-17.9425880">
        <ele>1327.4</ele>
        <time>2020-11-16T18:10:18Z</time>
      </trkpt>
      <trkpt lat="28.7500830" lon="-17.9425850">
        <ele>1326.9</ele>
        <time>2020-11-16T18:10:19Z</time>
      </trkpt>
      <trkpt lat="28.7500250" lon="-17.9425830">
        <ele>1326.6</ele>
        <time>2020-11-16T18:10:20Z</time>
      </trkpt>
      <trkpt lat="28.7500250" lon="-17.9425830">
        <ele>1326.6</ele>
        <time>2020-11-16T18:10:21Z</time>
      </trkpt>
      <trkpt lat="28.7499200" lon="-17.9426030">
        <ele>1326.2</ele>
        <time>2020-11-16T18:10:22Z</time>
      </trkpt>
      <trkpt lat="28.7499200" lon="-17.9426030">
        <ele>1326.2</ele>
        <time>2020-11-16T18:10:23Z</time>
      </trkpt>
      <trkpt lat="28.7498470" lon="-17.9426550">
        <ele>1326.2</ele>
        <time>2020-11-16T18:10:24Z</time>
      </trkpt>
      <trkpt lat="28.7498470" lon="-17.9426550">
        <ele>1326.2</ele>
        <time>2020-11-16T18:10:25Z</time>
      </trkpt>
      <trkpt lat="28.7498120" lon="-17.9426950">
        <ele>1326.3</ele>
        <time>2020-11-16T18:10:26Z</time>
      </trkpt>
      <trkpt lat="28.7498120" lon="-17.9426950">
        <ele>1326.3</ele>
        <time>2020-11-16T18:10:27Z</time>
      </trkpt>
      <trkpt lat="28.7497800" lon="-17.9427280">
        <ele>1326.4</ele>
        <time>2020-11-16T18:10:28Z</time>
      </trkpt>
      <trkpt lat="28.7497800" lon="-17.9427280">
        <ele>1326.4</ele>
        <time>2020-11-16T18:10:29Z</time>
      </trkpt>
      <trkpt lat="28.7497480" lon="-17.9427570">
        <ele>1326.5</ele>
        <time>2020-11-16T18:10:30Z</time>
      </trkpt>
      <trkpt lat="28.7497480" lon="-17.9427570">
        <ele>1326.5</ele>
        <time>2020-11-16T18:10:31Z</time>
      </trkpt>
      <trkpt lat="28.7497180" lon="-17.9427830">
        <ele>1326.6</ele>
        <time>2020-11-16T18:10:32Z</time>
      </trkpt>
      <trkpt lat="28.7497020" lon="-17.9427980">
        <ele>1326.6</ele>
        <time>2020-11-16T18:10:33Z</time>
      </trkpt>
      <trkpt lat="28.7497020" lon="-17.9427980">
        <ele>1326.6</ele>
        <time>2020-11-16T18:10:34Z</time>
      </trkpt>
      <trkpt lat="28.7496700" lon="-17.9428300">
        <ele>1326.6</ele>
        <time>2020-11-16T18:10:35Z</time>
      </trkpt>
      <trkpt lat="28.7496700" lon="-17.9428300">
        <ele>1326.6</ele>
        <time>2020-11-16T18:10:36Z</time>
      </trkpt>
      <trkpt lat="28.7496300" lon="-17.9428450">
        <ele>1326.5</ele>
        <time>2020-11-16T18:10:37Z</time>
      </trkpt>
      <trkpt lat="28.7496070" lon="-17.9428400">
        <ele>1328.1</ele>
        <time>2020-11-16T18:10:38Z</time>
      </trkpt>
      <trkpt lat="28.7496070" lon="-17.9428400">
        <ele>1328.1</ele>
        <time>2020-11-16T18:10:39Z</time>
      </trkpt>
      <trkpt lat="28.7495700" lon="-17.9428130">
        <ele>1328.8</ele>
        <time>2020-11-16T18:10:40Z</time>
      </trkpt>
      <trkpt lat="28.7495700" lon="-17.9428130">
        <ele>1328.8</ele>
        <time>2020-11-16T18:10:41Z</time>
      </trkpt>
      <trkpt lat="28.7495370" lon="-17.9427800">
        <ele>1329.5</ele>
        <time>2020-11-16T18:10:42Z</time>
      </trkpt>
      <trkpt lat="28.7495370" lon="-17.9427800">
        <ele>1329.5</ele>
        <time>2020-11-16T18:10:43Z</time>
      </trkpt>
      <trkpt lat="28.7495170" lon="-17.9427430">
        <ele>1330.0</ele>
        <time>2020-11-16T18:10:44Z</time>
      </trkpt>
      <trkpt lat="28.7495170" lon="-17.9427430">
        <ele>1330.0</ele>
        <time>2020-11-16T18:10:45Z</time>
      </trkpt>
      <trkpt lat="28.7495080" lon="-17.9427020">
        <ele>1330.5</ele>
        <time>2020-11-16T18:10:46Z</time>
      </trkpt>
      <trkpt lat="28.7495080" lon="-17.9427020">
        <ele>1330.5</ele>
        <time>2020-11-16T18:10:47Z</time>
      </trkpt>
      <trkpt lat="28.7495000" lon="-17.9426630">
        <ele>1331.0</ele>
        <time>2020-11-16T18:10:48Z</time>
      </trkpt>
      <trkpt lat="28.7495000" lon="-17.9426630">
        <ele>1331.0</ele>
        <time>2020-11-16T18:10:49Z</time>
      </trkpt>
      <trkpt lat="28.7494730" lon="-17.9426320">
        <ele>1331.6</ele>
        <time>2020-11-16T18:10:50Z</time>
      </trkpt>
      <trkpt lat="28.7494730" lon="-17.9426320">
        <ele>1331.6</ele>
        <time>2020-11-16T18:10:51Z</time>
      </trkpt>
      <trkpt lat="28.7494670" lon="-17.9426000">
        <ele>1332.0</ele>
        <time>2020-11-16T18:10:52Z</time>
      </trkpt>
      <trkpt lat="28.7494670" lon="-17.9426000">
        <ele>1332.0</ele>
        <time>2020-11-16T18:10:53Z</time>
      </trkpt>
      <trkpt lat="28.7494630" lon="-17.9425700">
        <ele>1332.4</ele>
        <time>2020-11-16T18:10:54Z</time>
      </trkpt>
      <trkpt lat="28.7494630" lon="-17.9425700">
        <ele>1332.4</ele>
        <time>2020-11-16T18:10:55Z</time>
      </trkpt>
      <trkpt lat="28.7494630" lon="-17.9425280">
        <ele>1332.9</ele>
        <time>2020-11-16T18:10:56Z</time>
      </trkpt>
      <trkpt lat="28.7494630" lon="-17.9425280">
        <ele>1332.9</ele>
        <time>2020-11-16T18:10:57Z</time>
      </trkpt>
      <trkpt lat="28.7494630" lon="-17.9424820">
        <ele>1333.4</ele>
        <time>2020-11-16T18:10:58Z</time>
      </trkpt>
      <trkpt lat="28.7494630" lon="-17.9424820">
        <ele>1333.4</ele>
        <time>2020-11-16T18:10:59Z</time>
      </trkpt>
      <trkpt lat="28.7494650" lon="-17.9424350">
        <ele>1334.0</ele>
        <time>2020-11-16T18:11:00Z</time>
      </trkpt>
      <trkpt lat="28.7494650" lon="-17.9424350">
        <ele>1334.0</ele>
        <time>2020-11-16T18:11:01Z</time>
      </trkpt>
      <trkpt lat="28.7494770" lon="-17.9423950">
        <ele>1334.5</ele>
        <time>2020-11-16T18:11:02Z</time>
      </trkpt>
      <trkpt lat="28.7494770" lon="-17.9423950">
        <ele>1334.5</ele>
        <time>2020-11-16T18:11:03Z</time>
      </trkpt>
      <trkpt lat="28.7494880" lon="-17.9423650">
        <ele>1334.8</ele>
        <time>2020-11-16T18:11:04Z</time>
      </trkpt>
      <trkpt lat="28.7494880" lon="-17.9423650">
        <ele>1334.8</ele>
        <time>2020-11-16T18:11:05Z</time>
      </trkpt>
      <trkpt lat="28.7495130" lon="-17.9423380">
        <ele>1335.3</ele>
        <time>2020-11-16T18:11:06Z</time>
      </trkpt>
      <trkpt lat="28.7495130" lon="-17.9423380">
        <ele>1335.3</ele>
        <time>2020-11-16T18:11:07Z</time>
      </trkpt>
      <trkpt lat="28.7495280" lon="-17.9423130">
        <ele>1335.6</ele>
        <time>2020-11-16T18:11:08Z</time>
      </trkpt>
      <trkpt lat="28.7495280" lon="-17.9423130">
        <ele>1335.6</ele>
        <time>2020-11-16T18:11:09Z</time>
      </trkpt>
      <trkpt lat="28.7495480" lon="-17.9422800">
        <ele>1336.0</ele>
        <time>2020-11-16T18:11:10Z</time>
      </trkpt>
      <trkpt lat="28.7495480" lon="-17.9422800">
        <ele>1336.0</ele>
        <time>2020-11-16T18:11:11Z</time>
      </trkpt>
      <trkpt lat="28.7495630" lon="-17.9422520">
        <ele>1336.4</ele>
        <time>2020-11-16T18:11:12Z</time>
      </trkpt>
      <trkpt lat="28.7495630" lon="-17.9422520">
        <ele>1336.4</ele>
        <time>2020-11-16T18:11:13Z</time>
      </trkpt>
      <trkpt lat="28.7495800" lon="-17.9422200">
        <ele>1336.8</ele>
        <time>2020-11-16T18:11:14Z</time>
      </trkpt>
      <trkpt lat="28.7495800" lon="-17.9422200">
        <ele>1336.8</ele>
        <time>2020-11-16T18:11:15Z</time>
      </trkpt>
      <trkpt lat="28.7495970" lon="-17.9421900">
        <ele>1337.1</ele>
        <time>2020-11-16T18:11:16Z</time>
      </trkpt>
      <trkpt lat="28.7495970" lon="-17.9421900">
        <ele>1337.1</ele>
        <time>2020-11-16T18:11:17Z</time>
      </trkpt>
      <trkpt lat="28.7496130" lon="-17.9421520">
        <ele>1337.5</ele>
        <time>2020-11-16T18:11:18Z</time>
      </trkpt>
      <trkpt lat="28.7496130" lon="-17.9421520">
        <ele>1337.5</ele>
        <time>2020-11-16T18:11:19Z</time>
      </trkpt>
      <trkpt lat="28.7496200" lon="-17.9421030">
        <ele>1338.0</ele>
        <time>2020-11-16T18:11:20Z</time>
      </trkpt>
      <trkpt lat="28.7496200" lon="-17.9421030">
        <ele>1338.0</ele>
        <time>2020-11-16T18:11:21Z</time>
      </trkpt>
      <trkpt lat="28.7496350" lon="-17.9420630">
        <ele>1338.4</ele>
        <time>2020-11-16T18:11:22Z</time>
      </trkpt>
      <trkpt lat="28.7496350" lon="-17.9420630">
        <ele>1338.4</ele>
        <time>2020-11-16T18:11:23Z</time>
      </trkpt>
      <trkpt lat="28.7496400" lon="-17.9420320">
        <ele>1338.6</ele>
        <time>2020-11-16T18:11:24Z</time>
      </trkpt>
      <trkpt lat="28.7496400" lon="-17.9420320">
        <ele>1338.6</ele>
        <time>2020-11-16T18:11:25Z</time>
      </trkpt>
      <trkpt lat="28.7496480" lon="-17.9419970">
        <ele>1339.0</ele>
        <time>2020-11-16T18:11:26Z</time>
      </trkpt>
      <trkpt lat="28.7496480" lon="-17.9419970">
        <ele>1339.0</ele>
        <time>2020-11-16T18:11:27Z</time>
      </trkpt>
      <trkpt lat="28.7496530" lon="-17.9419550">
        <ele>1339.3</ele>
        <time>2020-11-16T18:11:28Z</time>
      </trkpt>
      <trkpt lat="28.7496580" lon="-17.9419350">
        <ele>1339.5</ele>
        <time>2020-11-16T18:11:29Z</time>
      </trkpt>
      <trkpt lat="28.7496620" lon="-17.9419150">
        <ele>1339.6</ele>
        <time>2020-11-16T18:11:30Z</time>
      </trkpt>
      <trkpt lat="28.7496670" lon="-17.9418750">
        <ele>1340.0</ele>
        <time>2020-11-16T18:11:31Z</time>
      </trkpt>
      <trkpt lat="28.7496670" lon="-17.9418750">
        <ele>1340.0</ele>
        <time>2020-11-16T18:11:32Z</time>
      </trkpt>
      <trkpt lat="28.7496670" lon="-17.9418750">
        <ele>1340.0</ele>
        <time>2020-11-16T18:11:33Z</time>
      </trkpt>
      <trkpt lat="28.7496700" lon="-17.9418350">
        <ele>1339.8</ele>
        <time>2020-11-16T18:11:34Z</time>
      </trkpt>
      <trkpt lat="28.7496700" lon="-17.9418350">
        <ele>1339.8</ele>
        <time>2020-11-16T18:11:35Z</time>
      </trkpt>
      <trkpt lat="28.7496720" lon="-17.9417870">
        <ele>1339.4</ele>
        <time>2020-11-16T18:11:36Z</time>
      </trkpt>
      <trkpt lat="28.7496700" lon="-17.9417650">
        <ele>1339.2</ele>
        <time>2020-11-16T18:11:37Z</time>
      </trkpt>
      <trkpt lat="28.7496700" lon="-17.9417650">
        <ele>1339.2</ele>
        <time>2020-11-16T18:11:38Z</time>
      </trkpt>
      <trkpt lat="28.7496570" lon="-17.9417020">
        <ele>1338.5</ele>
        <time>2020-11-16T18:11:39Z</time>
      </trkpt>
      <trkpt lat="28.7496570" lon="-17.9417020">
        <ele>1338.5</ele>
        <time>2020-11-16T18:11:40Z</time>
      </trkpt>
      <trkpt lat="28.7496530" lon="-17.9416200">
        <ele>1337.3</ele>
        <time>2020-11-16T18:11:41Z</time>
      </trkpt>
      <trkpt lat="28.7496530" lon="-17.9416200">
        <ele>1337.3</ele>
        <time>2020-11-16T18:11:42Z</time>
      </trkpt>
      <trkpt lat="28.7496330" lon="-17.9415380">
        <ele>1335.8</ele>
        <time>2020-11-16T18:11:43Z</time>
      </trkpt>
      <trkpt lat="28.7496220" lon="-17.9414920">
        <ele>1335.0</ele>
        <time>2020-11-16T18:11:44Z</time>
      </trkpt>
      <trkpt lat="28.7496220" lon="-17.9414920">
        <ele>1335.0</ele>
        <time>2020-11-16T18:11:45Z</time>
      </trkpt>
      <trkpt lat="28.7495750" lon="-17.9413800">
        <ele>1333.0</ele>
        <time>2020-11-16T18:11:46Z</time>
      </trkpt>
      <trkpt lat="28.7495750" lon="-17.9413800">
        <ele>1333.0</ele>
        <time>2020-11-16T18:11:47Z</time>
      </trkpt>
      <trkpt lat="28.7495330" lon="-17.9412770">
        <ele>1331.2</ele>
        <time>2020-11-16T18:11:48Z</time>
      </trkpt>
      <trkpt lat="28.7495330" lon="-17.9412770">
        <ele>1331.2</ele>
        <time>2020-11-16T18:11:49Z</time>
      </trkpt>
      <trkpt lat="28.7494800" lon="-17.9411700">
        <ele>1329.4</ele>
        <time>2020-11-16T18:11:50Z</time>
      </trkpt>
      <trkpt lat="28.7494480" lon="-17.9411200">
        <ele>1328.8</ele>
        <time>2020-11-16T18:11:51Z</time>
      </trkpt>
      <trkpt lat="28.7494480" lon="-17.9411200">
        <ele>1328.8</ele>
        <time>2020-11-16T18:11:52Z</time>
      </trkpt>
      <trkpt lat="28.7494030" lon="-17.9410420">
        <ele>1328.2</ele>
        <time>2020-11-16T18:11:53Z</time>
      </trkpt>
      <trkpt lat="28.7494030" lon="-17.9410420">
        <ele>1328.2</ele>
        <time>2020-11-16T18:11:54Z</time>
      </trkpt>
      <trkpt lat="28.7493620" lon="-17.9409770">
        <ele>1328.0</ele>
        <time>2020-11-16T18:11:55Z</time>
      </trkpt>
      <trkpt lat="28.7493380" lon="-17.9409470">
        <ele>1328.0</ele>
        <time>2020-11-16T18:11:56Z</time>
      </trkpt>
      <trkpt lat="28.7493380" lon="-17.9409470">
        <ele>1328.0</ele>
        <time>2020-11-16T18:11:57Z</time>
      </trkpt>
      <trkpt lat="28.7492700" lon="-17.9409150">
        <ele>1328.1</ele>
        <time>2020-11-16T18:11:58Z</time>
      </trkpt>
      <trkpt lat="28.7492700" lon="-17.9409150">
        <ele>1328.1</ele>
        <time>2020-11-16T18:11:59Z</time>
      </trkpt>
      <trkpt lat="28.7492270" lon="-17.9409400">
        <ele>1328.3</ele>
        <time>2020-11-16T18:12:00Z</time>
      </trkpt>
      <trkpt lat="28.7492150" lon="-17.9409580">
        <ele>1328.3</ele>
        <time>2020-11-16T18:12:01Z</time>
      </trkpt>
      <trkpt lat="28.7492080" lon="-17.9409730">
        <ele>1328.4</ele>
        <time>2020-11-16T18:12:02Z</time>
      </trkpt>
      <trkpt lat="28.7492080" lon="-17.9409730">
        <ele>1328.4</ele>
        <time>2020-11-16T18:12:03Z</time>
      </trkpt>
      <trkpt lat="28.7492000" lon="-17.9410030">
        <ele>1328.4</ele>
        <time>2020-11-16T18:12:04Z</time>
      </trkpt>
      <trkpt lat="28.7492000" lon="-17.9410030">
        <ele>1328.4</ele>
        <time>2020-11-16T18:12:05Z</time>
      </trkpt>
      <trkpt lat="28.7491980" lon="-17.9410300">
        <ele>1328.5</ele>
        <time>2020-11-16T18:12:06Z</time>
      </trkpt>
      <trkpt lat="28.7491980" lon="-17.9410300">
        <ele>1328.5</ele>
        <time>2020-11-16T18:12:07Z</time>
      </trkpt>
      <trkpt lat="28.7491900" lon="-17.9410730">
        <ele>1328.6</ele>
        <time>2020-11-16T18:12:08Z</time>
      </trkpt>
      <trkpt lat="28.7491900" lon="-17.9410730">
        <ele>1328.6</ele>
        <time>2020-11-16T18:12:09Z</time>
      </trkpt>
      <trkpt lat="28.7491820" lon="-17.9411170">
        <ele>1328.7</ele>
        <time>2020-11-16T18:12:10Z</time>
      </trkpt>
      <trkpt lat="28.7491820" lon="-17.9411170">
        <ele>1328.7</ele>
        <time>2020-11-16T18:12:11Z</time>
      </trkpt>
      <trkpt lat="28.7491750" lon="-17.9411580">
        <ele>1328.7</ele>
        <time>2020-11-16T18:12:12Z</time>
      </trkpt>
      <trkpt lat="28.7491750" lon="-17.9411580">
        <ele>1328.7</ele>
        <time>2020-11-16T18:12:13Z</time>
      </trkpt>
      <trkpt lat="28.7491580" lon="-17.9411980">
        <ele>1328.7</ele>
        <time>2020-11-16T18:12:14Z</time>
      </trkpt>
      <trkpt lat="28.7491580" lon="-17.9411980">
        <ele>1328.7</ele>
        <time>2020-11-16T18:12:15Z</time>
      </trkpt>
      <trkpt lat="28.7491500" lon="-17.9412420">
        <ele>1328.7</ele>
        <time>2020-11-16T18:12:16Z</time>
      </trkpt>
      <trkpt lat="28.7491500" lon="-17.9412420">
        <ele>1328.7</ele>
        <time>2020-11-16T18:12:17Z</time>
      </trkpt>
      <trkpt lat="28.7491320" lon="-17.9412780">
        <ele>1328.8</ele>
        <time>2020-11-16T18:12:18Z</time>
      </trkpt>
      <trkpt lat="28.7491320" lon="-17.9412780">
        <ele>1328.8</ele>
        <time>2020-11-16T18:12:19Z</time>
      </trkpt>
      <trkpt lat="28.7491070" lon="-17.9413050">
        <ele>1328.8</ele>
        <time>2020-11-16T18:12:20Z</time>
      </trkpt>
      <trkpt lat="28.7491070" lon="-17.9413050">
        <ele>1328.8</ele>
        <time>2020-11-16T18:12:21Z</time>
      </trkpt>
      <trkpt lat="28.7490980" lon="-17.9413320">
        <ele>1328.8</ele>
        <time>2020-11-16T18:12:22Z</time>
      </trkpt>
      <trkpt lat="28.7490980" lon="-17.9413320">
        <ele>1328.8</ele>
        <time>2020-11-16T18:12:23Z</time>
      </trkpt>
      <trkpt lat="28.7490730" lon="-17.9413600">
        <ele>1328.8</ele>
        <time>2020-11-16T18:12:24Z</time>
      </trkpt>
      <trkpt lat="28.7490730" lon="-17.9413600">
        <ele>1328.8</ele>
        <time>2020-11-16T18:12:25Z</time>
      </trkpt>
      <trkpt lat="28.7490570" lon="-17.9414000">
        <ele>1328.9</ele>
        <time>2020-11-16T18:12:26Z</time>
      </trkpt>
      <trkpt lat="28.7490570" lon="-17.9414000">
        <ele>1328.9</ele>
        <time>2020-11-16T18:12:27Z</time>
      </trkpt>
      <trkpt lat="28.7490470" lon="-17.9414380">
        <ele>1328.9</ele>
        <time>2020-11-16T18:12:28Z</time>
      </trkpt>
      <trkpt lat="28.7490470" lon="-17.9414380">
        <ele>1328.9</ele>
        <time>2020-11-16T18:12:29Z</time>
      </trkpt>
      <trkpt lat="28.7490270" lon="-17.9414730">
        <ele>1328.9</ele>
        <time>2020-11-16T18:12:30Z</time>
      </trkpt>
      <trkpt lat="28.7490270" lon="-17.9414730">
        <ele>1328.9</ele>
        <time>2020-11-16T18:12:31Z</time>
      </trkpt>
      <trkpt lat="28.7490080" lon="-17.9415000">
        <ele>1329.0</ele>
        <time>2020-11-16T18:12:32Z</time>
      </trkpt>
      <trkpt lat="28.7490080" lon="-17.9415000">
        <ele>1329.0</ele>
        <time>2020-11-16T18:12:33Z</time>
      </trkpt>
      <trkpt lat="28.7489900" lon="-17.9415180">
        <ele>1329.0</ele>
        <time>2020-11-16T18:12:34Z</time>
      </trkpt>
      <trkpt lat="28.7489850" lon="-17.9415250">
        <ele>1329.0</ele>
        <time>2020-11-16T18:12:35Z</time>
      </trkpt>
      <trkpt lat="28.7489780" lon="-17.9415370">
        <ele>1329.0</ele>
        <time>2020-11-16T18:12:36Z</time>
      </trkpt>
      <trkpt lat="28.7489780" lon="-17.9415370">
        <ele>1329.0</ele>
        <time>2020-11-16T18:12:37Z</time>
      </trkpt>
      <trkpt lat="28.7489580" lon="-17.9415570">
        <ele>1329.0</ele>
        <time>2020-11-16T18:12:38Z</time>
      </trkpt>
      <trkpt lat="28.7489580" lon="-17.9415570">
        <ele>1329.0</ele>
        <time>2020-11-16T18:12:39Z</time>
      </trkpt>
      <trkpt lat="28.7489280" lon="-17.9415720">
        <ele>1328.9</ele>
        <time>2020-11-16T18:12:40Z</time>
      </trkpt>
      <trkpt lat="28.7489170" lon="-17.9415800">
        <ele>1328.9</ele>
        <time>2020-11-16T18:12:41Z</time>
      </trkpt>
      <trkpt lat="28.7489170" lon="-17.9415800">
        <ele>1328.9</ele>
        <time>2020-11-16T18:12:42Z</time>
      </trkpt>
      <trkpt lat="28.7488880" lon="-17.9416130">
        <ele>1328.8</ele>
        <time>2020-11-16T18:12:43Z</time>
      </trkpt>
      <trkpt lat="28.7488700" lon="-17.9416320">
        <ele>1328.8</ele>
        <time>2020-11-16T18:12:44Z</time>
      </trkpt>
      <trkpt lat="28.7488700" lon="-17.9416320">
        <ele>1328.8</ele>
        <time>2020-11-16T18:12:45Z</time>
      </trkpt>
      <trkpt lat="28.7488170" lon="-17.9416650">
        <ele>1328.5</ele>
        <time>2020-11-16T18:12:46Z</time>
      </trkpt>
      <trkpt lat="28.7488170" lon="-17.9416650">
        <ele>1328.5</ele>
        <time>2020-11-16T18:12:47Z</time>
      </trkpt>
      <trkpt lat="28.7487650" lon="-17.9417030">
        <ele>1328.1</ele>
        <time>2020-11-16T18:12:48Z</time>
      </trkpt>
      <trkpt lat="28.7487400" lon="-17.9417250">
        <ele>1327.9</ele>
        <time>2020-11-16T18:12:49Z</time>
      </trkpt>
      <trkpt lat="28.7487130" lon="-17.9417500">
        <ele>1327.6</ele>
        <time>2020-11-16T18:12:50Z</time>
      </trkpt>
      <trkpt lat="28.7487130" lon="-17.9417500">
        <ele>1327.6</ele>
        <time>2020-11-16T18:12:51Z</time>
      </trkpt>
      <trkpt lat="28.7486570" lon="-17.9418030">
        <ele>1327.0</ele>
        <time>2020-11-16T18:12:52Z</time>
      </trkpt>
      <trkpt lat="28.7486570" lon="-17.9418030">
        <ele>1327.0</ele>
        <time>2020-11-16T18:12:53Z</time>
      </trkpt>
      <trkpt lat="28.7486080" lon="-17.9418750">
        <ele>1326.5</ele>
        <time>2020-11-16T18:12:54Z</time>
      </trkpt>
      <trkpt lat="28.7486080" lon="-17.9418750">
        <ele>1326.5</ele>
        <time>2020-11-16T18:12:55Z</time>
      </trkpt>
      <trkpt lat="28.7485580" lon="-17.9419380">
        <ele>1325.9</ele>
        <time>2020-11-16T18:12:56Z</time>
      </trkpt>
      <trkpt lat="28.7485580" lon="-17.9419380">
        <ele>1325.9</ele>
        <time>2020-11-16T18:12:57Z</time>
      </trkpt>
      <trkpt lat="28.7485070" lon="-17.9420130">
        <ele>1325.4</ele>
        <time>2020-11-16T18:12:58Z</time>
      </trkpt>
      <trkpt lat="28.7484850" lon="-17.9420500">
        <ele>1325.1</ele>
        <time>2020-11-16T18:12:59Z</time>
      </trkpt>
      <trkpt lat="28.7484600" lon="-17.9420820">
        <ele>1324.8</ele>
        <time>2020-11-16T18:13:00Z</time>
      </trkpt>
      <trkpt lat="28.7484600" lon="-17.9420820">
        <ele>1324.8</ele>
        <time>2020-11-16T18:13:01Z</time>
      </trkpt>
      <trkpt lat="28.7484220" lon="-17.9421300">
        <ele>1324.4</ele>
        <time>2020-11-16T18:13:02Z</time>
      </trkpt>
      <trkpt lat="28.7484220" lon="-17.9421300">
        <ele>1324.4</ele>
        <time>2020-11-16T18:13:03Z</time>
      </trkpt>
      <trkpt lat="28.7484070" lon="-17.9421480">
        <ele>1324.2</ele>
        <time>2020-11-16T18:13:04Z</time>
      </trkpt>
      <trkpt lat="28.7484070" lon="-17.9421480">
        <ele>1324.2</ele>
        <time>2020-11-16T18:13:05Z</time>
      </trkpt>
      <trkpt lat="28.7484050" lon="-17.9421470">
        <ele>1324.1</ele>
        <time>2020-11-16T18:13:06Z</time>
      </trkpt>
      <trkpt lat="28.7484050" lon="-17.9421470">
        <ele>1324.1</ele>
        <time>2020-11-16T18:13:42Z</time>
      </trkpt>
      <trkpt lat="28.7483930" lon="-17.9422170">
        <ele>1323.4</ele>
        <time>2020-11-16T18:13:43Z</time>
      </trkpt>
      <trkpt lat="28.7483930" lon="-17.9422170">
        <ele>1323.4</ele>
        <time>2020-11-16T18:13:44Z</time>
      </trkpt>
      <trkpt lat="28.7483820" lon="-17.9422930">
        <ele>1322.8</ele>
        <time>2020-11-16T18:13:45Z</time>
      </trkpt>
      <trkpt lat="28.7483820" lon="-17.9422930">
        <ele>1322.8</ele>
        <time>2020-11-16T18:13:46Z</time>
      </trkpt>
      <trkpt lat="28.7483770" lon="-17.9423780">
        <ele>1322.3</ele>
        <time>2020-11-16T18:13:47Z</time>
      </trkpt>
      <trkpt lat="28.7483770" lon="-17.9423780">
        <ele>1322.3</ele>
        <time>2020-11-16T18:13:48Z</time>
      </trkpt>
      <trkpt lat="28.7483750" lon="-17.9424650">
        <ele>1321.8</ele>
        <time>2020-11-16T18:13:49Z</time>
      </trkpt>
      <trkpt lat="28.7483720" lon="-17.9425070">
        <ele>1321.5</ele>
        <time>2020-11-16T18:13:50Z</time>
      </trkpt>
      <trkpt lat="28.7483720" lon="-17.9425070">
        <ele>1321.5</ele>
        <time>2020-11-16T18:13:51Z</time>
      </trkpt>
      <trkpt lat="28.7483530" lon="-17.9425750">
        <ele>1320.6</ele>
        <time>2020-11-16T18:13:52Z</time>
      </trkpt>
      <trkpt lat="28.7483530" lon="-17.9425750">
        <ele>1320.6</ele>
        <time>2020-11-16T18:13:53Z</time>
      </trkpt>
      <trkpt lat="28.7483170" lon="-17.9426080">
        <ele>1319.6</ele>
        <time>2020-11-16T18:13:54Z</time>
      </trkpt>
      <trkpt lat="28.7483170" lon="-17.9426080">
        <ele>1319.6</ele>
        <time>2020-11-16T18:13:55Z</time>
      </trkpt>
      <trkpt lat="28.7482630" lon="-17.9426030">
        <ele>1318.4</ele>
        <time>2020-11-16T18:13:56Z</time>
      </trkpt>
      <trkpt lat="28.7482630" lon="-17.9426030">
        <ele>1318.4</ele>
        <time>2020-11-16T18:13:57Z</time>
      </trkpt>
      <trkpt lat="28.7482030" lon="-17.9425830">
        <ele>1316.9</ele>
        <time>2020-11-16T18:13:58Z</time>
      </trkpt>
      <trkpt lat="28.7482030" lon="-17.9425830">
        <ele>1316.9</ele>
        <time>2020-11-16T18:13:59Z</time>
      </trkpt>
      <trkpt lat="28.7481430" lon="-17.9425580">
        <ele>1315.3</ele>
        <time>2020-11-16T18:14:00Z</time>
      </trkpt>
      <trkpt lat="28.7481430" lon="-17.9425580">
        <ele>1315.3</ele>
        <time>2020-11-16T18:14:01Z</time>
      </trkpt>
      <trkpt lat="28.7480780" lon="-17.9425380">
        <ele>1313.6</ele>
        <time>2020-11-16T18:14:02Z</time>
      </trkpt>
      <trkpt lat="28.7480780" lon="-17.9425380">
        <ele>1313.6</ele>
        <time>2020-11-16T18:14:03Z</time>
      </trkpt>
      <trkpt lat="28.7480120" lon="-17.9425230">
        <ele>1311.8</ele>
        <time>2020-11-16T18:14:04Z</time>
      </trkpt>
      <trkpt lat="28.7480120" lon="-17.9425230">
        <ele>1311.8</ele>
        <time>2020-11-16T18:14:05Z</time>
      </trkpt>
      <trkpt lat="28.7479500" lon="-17.9424920">
        <ele>1310.1</ele>
        <time>2020-11-16T18:14:06Z</time>
      </trkpt>
      <trkpt lat="28.7479500" lon="-17.9424920">
        <ele>1310.1</ele>
        <time>2020-11-16T18:14:07Z</time>
      </trkpt>
      <trkpt lat="28.7479000" lon="-17.9424430">
        <ele>1308.5</ele>
        <time>2020-11-16T18:14:08Z</time>
      </trkpt>
      <trkpt lat="28.7479000" lon="-17.9424430">
        <ele>1308.5</ele>
        <time>2020-11-16T18:14:09Z</time>
      </trkpt>
      <trkpt lat="28.7478700" lon="-17.9423850">
        <ele>1307.1</ele>
        <time>2020-11-16T18:14:10Z</time>
      </trkpt>
      <trkpt lat="28.7478700" lon="-17.9423850">
        <ele>1307.1</ele>
        <time>2020-11-16T18:14:11Z</time>
      </trkpt>
      <trkpt lat="28.7478380" lon="-17.9423280">
        <ele>1305.7</ele>
        <time>2020-11-16T18:14:12Z</time>
      </trkpt>
      <trkpt lat="28.7478380" lon="-17.9423280">
        <ele>1305.7</ele>
        <time>2020-11-16T18:14:13Z</time>
      </trkpt>
      <trkpt lat="28.7478050" lon="-17.9422700">
        <ele>1304.2</ele>
        <time>2020-11-16T18:14:14Z</time>
      </trkpt>
      <trkpt lat="28.7478050" lon="-17.9422700">
        <ele>1304.2</ele>
        <time>2020-11-16T18:14:15Z</time>
      </trkpt>
      <trkpt lat="28.7477720" lon="-17.9422100">
        <ele>1302.8</ele>
        <time>2020-11-16T18:14:16Z</time>
      </trkpt>
      <trkpt lat="28.7477570" lon="-17.9421800">
        <ele>1302.1</ele>
        <time>2020-11-16T18:14:17Z</time>
      </trkpt>
      <trkpt lat="28.7477400" lon="-17.9421480">
        <ele>1301.5</ele>
        <time>2020-11-16T18:14:18Z</time>
      </trkpt>
      <trkpt lat="28.7477400" lon="-17.9421480">
        <ele>1301.5</ele>
        <time>2020-11-16T18:14:19Z</time>
      </trkpt>
      <trkpt lat="28.7477150" lon="-17.9420870">
        <ele>1300.3</ele>
        <time>2020-11-16T18:14:20Z</time>
      </trkpt>
      <trkpt lat="28.7477150" lon="-17.9420870">
        <ele>1300.3</ele>
        <time>2020-11-16T18:14:21Z</time>
      </trkpt>
      <trkpt lat="28.7476870" lon="-17.9420230">
        <ele>1299.2</ele>
        <time>2020-11-16T18:14:22Z</time>
      </trkpt>
      <trkpt lat="28.7476870" lon="-17.9420230">
        <ele>1299.2</ele>
        <time>2020-11-16T18:14:23Z</time>
      </trkpt>
      <trkpt lat="28.7476520" lon="-17.9419600">
        <ele>1298.2</ele>
        <time>2020-11-16T18:14:24Z</time>
      </trkpt>
      <trkpt lat="28.7476520" lon="-17.9419600">
        <ele>1298.2</ele>
        <time>2020-11-16T18:14:25Z</time>
      </trkpt>
      <trkpt lat="28.7475950" lon="-17.9419330">
        <ele>1297.5</ele>
        <time>2020-11-16T18:14:26Z</time>
      </trkpt>
      <trkpt lat="28.7475950" lon="-17.9419330">
        <ele>1297.5</ele>
        <time>2020-11-16T18:14:27Z</time>
      </trkpt>
      <trkpt lat="28.7475320" lon="-17.9419530">
        <ele>1296.9</ele>
        <time>2020-11-16T18:14:28Z</time>
      </trkpt>
      <trkpt lat="28.7475320" lon="-17.9419530">
        <ele>1296.9</ele>
        <time>2020-11-16T18:14:29Z</time>
      </trkpt>
      <trkpt lat="28.7474850" lon="-17.9420020">
        <ele>1296.5</ele>
        <time>2020-11-16T18:14:30Z</time>
      </trkpt>
      <trkpt lat="28.7474850" lon="-17.9420020">
        <ele>1296.5</ele>
        <time>2020-11-16T18:14:31Z</time>
      </trkpt>
      <trkpt lat="28.7474650" lon="-17.9420520">
        <ele>1296.2</ele>
        <time>2020-11-16T18:14:32Z</time>
      </trkpt>
      <trkpt lat="28.7474650" lon="-17.9420520">
        <ele>1296.2</ele>
        <time>2020-11-16T18:14:33Z</time>
      </trkpt>
      <trkpt lat="28.7474450" lon="-17.9420950">
        <ele>1296.1</ele>
        <time>2020-11-16T18:14:34Z</time>
      </trkpt>
      <trkpt lat="28.7474450" lon="-17.9420950">
        <ele>1296.1</ele>
        <time>2020-11-16T18:14:35Z</time>
      </trkpt>
      <trkpt lat="28.7474270" lon="-17.9421370">
        <ele>1296.0</ele>
        <time>2020-11-16T18:14:36Z</time>
      </trkpt>
      <trkpt lat="28.7474270" lon="-17.9421370">
        <ele>1296.0</ele>
        <time>2020-11-16T18:14:37Z</time>
      </trkpt>
      <trkpt lat="28.7473920" lon="-17.9421630">
        <ele>1295.9</ele>
        <time>2020-11-16T18:14:38Z</time>
      </trkpt>
      <trkpt lat="28.7473920" lon="-17.9421630">
        <ele>1295.9</ele>
        <time>2020-11-16T18:14:39Z</time>
      </trkpt>
      <trkpt lat="28.7473520" lon="-17.9421970">
        <ele>1295.9</ele>
        <time>2020-11-16T18:14:40Z</time>
      </trkpt>
      <trkpt lat="28.7473520" lon="-17.9421970">
        <ele>1295.9</ele>
        <time>2020-11-16T18:14:41Z</time>
      </trkpt>
      <trkpt lat="28.7473100" lon="-17.9422270">
        <ele>1296.0</ele>
        <time>2020-11-16T18:14:42Z</time>
      </trkpt>
      <trkpt lat="28.7473100" lon="-17.9422270">
        <ele>1296.0</ele>
        <time>2020-11-16T18:14:43Z</time>
      </trkpt>
      <trkpt lat="28.7472770" lon="-17.9422520">
        <ele>1296.1</ele>
        <time>2020-11-16T18:14:44Z</time>
      </trkpt>
      <trkpt lat="28.7472770" lon="-17.9422520">
        <ele>1296.1</ele>
        <time>2020-11-16T18:14:45Z</time>
      </trkpt>
      <trkpt lat="28.7472480" lon="-17.9422770">
        <ele>1296.2</ele>
        <time>2020-11-16T18:14:46Z</time>
      </trkpt>
      <trkpt lat="28.7472480" lon="-17.9422770">
        <ele>1296.2</ele>
        <time>2020-11-16T18:14:47Z</time>
      </trkpt>
      <trkpt lat="28.7472080" lon="-17.9423070">
        <ele>1296.4</ele>
        <time>2020-11-16T18:14:48Z</time>
      </trkpt>
      <trkpt lat="28.7471920" lon="-17.9423200">
        <ele>1296.5</ele>
        <time>2020-11-16T18:14:49Z</time>
      </trkpt>
      <trkpt lat="28.7471920" lon="-17.9423200">
        <ele>1296.5</ele>
        <time>2020-11-16T18:14:50Z</time>
      </trkpt>
      <trkpt lat="28.7471620" lon="-17.9423450">
        <ele>1296.6</ele>
        <time>2020-11-16T18:14:51Z</time>
      </trkpt>
      <trkpt lat="28.7471620" lon="-17.9423450">
        <ele>1296.6</ele>
        <time>2020-11-16T18:14:52Z</time>
      </trkpt>
      <trkpt lat="28.7471350" lon="-17.9423600">
        <ele>1296.7</ele>
        <time>2020-11-16T18:14:53Z</time>
      </trkpt>
      <trkpt lat="28.7471350" lon="-17.9423600">
        <ele>1296.7</ele>
        <time>2020-11-16T18:14:54Z</time>
      </trkpt>
      <trkpt lat="28.7470970" lon="-17.9423820">
        <ele>1296.8</ele>
        <time>2020-11-16T18:14:55Z</time>
      </trkpt>
      <trkpt lat="28.7470970" lon="-17.9423820">
        <ele>1296.8</ele>
        <time>2020-11-16T18:14:56Z</time>
      </trkpt>
      <trkpt lat="28.7470570" lon="-17.9424000">
        <ele>1296.7</ele>
        <time>2020-11-16T18:14:57Z</time>
      </trkpt>
      <trkpt lat="28.7470570" lon="-17.9424000">
        <ele>1296.7</ele>
        <time>2020-11-16T18:14:58Z</time>
      </trkpt>
      <trkpt lat="28.7470150" lon="-17.9424230">
        <ele>1296.6</ele>
        <time>2020-11-16T18:14:59Z</time>
      </trkpt>
      <trkpt lat="28.7470150" lon="-17.9424230">
        <ele>1296.6</ele>
        <time>2020-11-16T18:15:00Z</time>
      </trkpt>
      <trkpt lat="28.7469650" lon="-17.9424420">
        <ele>1296.3</ele>
        <time>2020-11-16T18:15:01Z</time>
      </trkpt>
      <trkpt lat="28.7469370" lon="-17.9424500">
        <ele>1296.1</ele>
        <time>2020-11-16T18:15:02Z</time>
      </trkpt>
      <trkpt lat="28.7469370" lon="-17.9424500">
        <ele>1296.1</ele>
        <time>2020-11-16T18:15:03Z</time>
      </trkpt>
      <trkpt lat="28.7468770" lon="-17.9424520">
        <ele>1295.6</ele>
        <time>2020-11-16T18:15:04Z</time>
      </trkpt>
      <trkpt lat="28.7468770" lon="-17.9424520">
        <ele>1295.6</ele>
        <time>2020-11-16T18:15:05Z</time>
      </trkpt>
      <trkpt lat="28.7468220" lon="-17.9424370">
        <ele>1295.1</ele>
        <time>2020-11-16T18:15:06Z</time>
      </trkpt>
      <trkpt lat="28.7468220" lon="-17.9424370">
        <ele>1295.1</ele>
        <time>2020-11-16T18:15:07Z</time>
      </trkpt>
      <trkpt lat="28.7467700" lon="-17.9424170">
        <ele>1294.4</ele>
        <time>2020-11-16T18:15:08Z</time>
      </trkpt>
      <trkpt lat="28.7467700" lon="-17.9424170">
        <ele>1294.4</ele>
        <time>2020-11-16T18:15:09Z</time>
      </trkpt>
      <trkpt lat="28.7467170" lon="-17.9423820">
        <ele>1293.5</ele>
        <time>2020-11-16T18:15:10Z</time>
      </trkpt>
      <trkpt lat="28.7467170" lon="-17.9423820">
        <ele>1293.5</ele>
        <time>2020-11-16T18:15:11Z</time>
      </trkpt>
      <trkpt lat="28.7466650" lon="-17.9423180">
        <ele>1292.1</ele>
        <time>2020-11-16T18:15:12Z</time>
      </trkpt>
      <trkpt lat="28.7466650" lon="-17.9423180">
        <ele>1292.1</ele>
        <time>2020-11-16T18:15:13Z</time>
      </trkpt>
      <trkpt lat="28.7466170" lon="-17.9422200">
        <ele>1290.1</ele>
        <time>2020-11-16T18:15:14Z</time>
      </trkpt>
      <trkpt lat="28.7466170" lon="-17.9422200">
        <ele>1290.1</ele>
        <time>2020-11-16T18:15:15Z</time>
      </trkpt>
      <trkpt lat="28.7465480" lon="-17.9420920">
        <ele>1288.2</ele>
        <time>2020-11-16T18:15:16Z</time>
      </trkpt>
      <trkpt lat="28.7465480" lon="-17.9420920">
        <ele>1288.2</ele>
        <time>2020-11-16T18:15:17Z</time>
      </trkpt>
      <trkpt lat="28.7464730" lon="-17.9419580">
        <ele>1286.8</ele>
        <time>2020-11-16T18:15:18Z</time>
      </trkpt>
      <trkpt lat="28.7464730" lon="-17.9419580">
        <ele>1286.8</ele>
        <time>2020-11-16T18:15:19Z</time>
      </trkpt>
      <trkpt lat="28.7463820" lon="-17.9418370">
        <ele>1285.9</ele>
        <time>2020-11-16T18:15:20Z</time>
      </trkpt>
      <trkpt lat="28.7463820" lon="-17.9418370">
        <ele>1285.9</ele>
        <time>2020-11-16T18:15:21Z</time>
      </trkpt>
      <trkpt lat="28.7462880" lon="-17.9417250">
        <ele>1285.7</ele>
        <time>2020-11-16T18:15:22Z</time>
      </trkpt>
      <trkpt lat="28.7462880" lon="-17.9417250">
        <ele>1285.7</ele>
        <time>2020-11-16T18:15:23Z</time>
      </trkpt>
      <trkpt lat="28.7462250" lon="-17.9416520">
        <ele>1285.9</ele>
        <time>2020-11-16T18:15:24Z</time>
      </trkpt>
      <trkpt lat="28.7462250" lon="-17.9416520">
        <ele>1285.9</ele>
        <time>2020-11-16T18:15:25Z</time>
      </trkpt>
      <trkpt lat="28.7462020" lon="-17.9416230">
        <ele>1286.1</ele>
        <time>2020-11-16T18:15:26Z</time>
      </trkpt>
      <trkpt lat="28.7462020" lon="-17.9416230">
        <ele>1286.1</ele>
        <time>2020-11-16T18:15:27Z</time>
      </trkpt>
      <trkpt lat="28.7461850" lon="-17.9416000">
        <ele>1286.2</ele>
        <time>2020-11-16T18:15:28Z</time>
      </trkpt>
      <trkpt lat="28.7461850" lon="-17.9416000">
        <ele>1286.2</ele>
        <time>2020-11-16T18:15:29Z</time>
      </trkpt>
      <trkpt lat="28.7461600" lon="-17.9415800">
        <ele>1286.4</ele>
        <time>2020-11-16T18:15:30Z</time>
      </trkpt>
      <trkpt lat="28.7461600" lon="-17.9415800">
        <ele>1286.4</ele>
        <time>2020-11-16T18:15:31Z</time>
      </trkpt>
      <trkpt lat="28.7461370" lon="-17.9415570">
        <ele>1286.6</ele>
        <time>2020-11-16T18:15:32Z</time>
      </trkpt>
      <trkpt lat="28.7461250" lon="-17.9415420">
        <ele>1286.7</ele>
        <time>2020-11-16T18:15:33Z</time>
      </trkpt>
      <trkpt lat="28.7461130" lon="-17.9415270">
        <ele>1286.9</ele>
        <time>2020-11-16T18:15:34Z</time>
      </trkpt>
      <trkpt lat="28.7461020" lon="-17.9415100">
        <ele>1287.0</ele>
        <time>2020-11-16T18:15:35Z</time>
      </trkpt>
      <trkpt lat="28.7461020" lon="-17.9415100">
        <ele>1287.0</ele>
        <time>2020-11-16T18:15:36Z</time>
      </trkpt>
      <trkpt lat="28.7460830" lon="-17.9414770">
        <ele>1287.4</ele>
        <time>2020-11-16T18:15:37Z</time>
      </trkpt>
      <trkpt lat="28.7460830" lon="-17.9414770">
        <ele>1287.4</ele>
        <time>2020-11-16T18:15:38Z</time>
      </trkpt>
      <trkpt lat="28.7460550" lon="-17.9414520">
        <ele>1287.8</ele>
        <time>2020-11-16T18:15:39Z</time>
      </trkpt>
      <trkpt lat="28.7460430" lon="-17.9414370">
        <ele>1288.0</ele>
        <time>2020-11-16T18:15:40Z</time>
      </trkpt>
      <trkpt lat="28.7460430" lon="-17.9414370">
        <ele>1288.0</ele>
        <time>2020-11-16T18:15:41Z</time>
      </trkpt>
      <trkpt lat="28.7460300" lon="-17.9414020">
        <ele>1288.4</ele>
        <time>2020-11-16T18:15:42Z</time>
      </trkpt>
      <trkpt lat="28.7460300" lon="-17.9414020">
        <ele>1288.4</ele>
        <time>2020-11-16T18:15:43Z</time>
      </trkpt>
      <trkpt lat="28.7460120" lon="-17.9413770">
        <ele>1288.8</ele>
        <time>2020-11-16T18:15:44Z</time>
      </trkpt>
      <trkpt lat="28.7460120" lon="-17.9413770">
        <ele>1288.8</ele>
        <time>2020-11-16T18:15:45Z</time>
      </trkpt>
      <trkpt lat="28.7459900" lon="-17.9413550">
        <ele>1289.2</ele>
        <time>2020-11-16T18:15:46Z</time>
      </trkpt>
      <trkpt lat="28.7459820" lon="-17.9413420">
        <ele>1289.3</ele>
        <time>2020-11-16T18:15:47Z</time>
      </trkpt>
      <trkpt lat="28.7459820" lon="-17.9413420">
        <ele>1289.3</ele>
        <time>2020-11-16T18:15:48Z</time>
      </trkpt>
      <trkpt lat="28.7459620" lon="-17.9413170">
        <ele>1289.7</ele>
        <time>2020-11-16T18:15:49Z</time>
      </trkpt>
      <trkpt lat="28.7459620" lon="-17.9413170">
        <ele>1289.7</ele>
        <time>2020-11-16T18:15:50Z</time>
      </trkpt>
      <trkpt lat="28.7459320" lon="-17.9413020">
        <ele>1290.1</ele>
        <time>2020-11-16T18:15:51Z</time>
      </trkpt>
      <trkpt lat="28.7459320" lon="-17.9413020">
        <ele>1290.1</ele>
        <time>2020-11-16T18:15:52Z</time>
      </trkpt>
      <trkpt lat="28.7458820" lon="-17.9413230">
        <ele>1290.7</ele>
        <time>2020-11-16T18:15:53Z</time>
      </trkpt>
      <trkpt lat="28.7458820" lon="-17.9413230">
        <ele>1290.7</ele>
        <time>2020-11-16T18:15:54Z</time>
      </trkpt>
      <trkpt lat="28.7458350" lon="-17.9413630">
        <ele>1291.3</ele>
        <time>2020-11-16T18:15:55Z</time>
      </trkpt>
      <trkpt lat="28.7458250" lon="-17.9413830">
        <ele>1291.5</ele>
        <time>2020-11-16T18:15:56Z</time>
      </trkpt>
      <trkpt lat="28.7458250" lon="-17.9413830">
        <ele>1291.5</ele>
        <time>2020-11-16T18:15:57Z</time>
      </trkpt>
      <trkpt lat="28.7458180" lon="-17.9414180">
        <ele>1291.9</ele>
        <time>2020-11-16T18:15:58Z</time>
      </trkpt>
      <trkpt lat="28.7458180" lon="-17.9414180">
        <ele>1291.9</ele>
        <time>2020-11-16T18:15:59Z</time>
      </trkpt>
      <trkpt lat="28.7458230" lon="-17.9414520">
        <ele>1292.2</ele>
        <time>2020-11-16T18:16:00Z</time>
      </trkpt>
      <trkpt lat="28.7458230" lon="-17.9414520">
        <ele>1292.2</ele>
        <time>2020-11-16T18:16:01Z</time>
      </trkpt>
      <trkpt lat="28.7458380" lon="-17.9414880">
        <ele>1292.7</ele>
        <time>2020-11-16T18:16:02Z</time>
      </trkpt>
      <trkpt lat="28.7458380" lon="-17.9414880">
        <ele>1292.7</ele>
        <time>2020-11-16T18:16:03Z</time>
      </trkpt>
      <trkpt lat="28.7458420" lon="-17.9415230">
        <ele>1293.0</ele>
        <time>2020-11-16T18:16:04Z</time>
      </trkpt>
      <trkpt lat="28.7458420" lon="-17.9415230">
        <ele>1293.0</ele>
        <time>2020-11-16T18:16:05Z</time>
      </trkpt>
      <trkpt lat="28.7458430" lon="-17.9415570">
        <ele>1293.4</ele>
        <time>2020-11-16T18:16:06Z</time>
      </trkpt>
      <trkpt lat="28.7458450" lon="-17.9415730">
        <ele>1293.5</ele>
        <time>2020-11-16T18:16:07Z</time>
      </trkpt>
      <trkpt lat="28.7458470" lon="-17.9415920">
        <ele>1293.7</ele>
        <time>2020-11-16T18:16:08Z</time>
      </trkpt>
      <trkpt lat="28.7458470" lon="-17.9415920">
        <ele>1293.7</ele>
        <time>2020-11-16T18:16:09Z</time>
      </trkpt>
      <trkpt lat="28.7458570" lon="-17.9416300">
        <ele>1294.1</ele>
        <time>2020-11-16T18:16:10Z</time>
      </trkpt>
      <trkpt lat="28.7458580" lon="-17.9416480">
        <ele>1294.3</ele>
        <time>2020-11-16T18:16:11Z</time>
      </trkpt>
      <trkpt lat="28.7458620" lon="-17.9416680">
        <ele>1294.5</ele>
        <time>2020-11-16T18:16:12Z</time>
      </trkpt>
      <trkpt lat="28.7458620" lon="-17.9416680">
        <ele>1294.5</ele>
        <time>2020-11-16T18:16:13Z</time>
      </trkpt>
      <trkpt lat="28.7458650" lon="-17.9417050">
        <ele>1294.8</ele>
        <time>2020-11-16T18:16:14Z</time>
      </trkpt>
      <trkpt lat="28.7458650" lon="-17.9417050">
        <ele>1294.8</ele>
        <time>2020-11-16T18:16:15Z</time>
      </trkpt>
      <trkpt lat="28.7458800" lon="-17.9417370">
        <ele>1295.2</ele>
        <time>2020-11-16T18:16:16Z</time>
      </trkpt>
      <trkpt lat="28.7458800" lon="-17.9417370">
        <ele>1295.2</ele>
        <time>2020-11-16T18:16:17Z</time>
      </trkpt>
      <trkpt lat="28.7458950" lon="-17.9417750">
        <ele>1295.6</ele>
        <time>2020-11-16T18:16:18Z</time>
      </trkpt>
      <trkpt lat="28.7459030" lon="-17.9417950">
        <ele>1295.8</ele>
        <time>2020-11-16T18:16:19Z</time>
      </trkpt>
      <trkpt lat="28.7459030" lon="-17.9417950">
        <ele>1295.8</ele>
        <time>2020-11-16T18:16:20Z</time>
      </trkpt>
      <trkpt lat="28.7459180" lon="-17.9418320">
        <ele>1296.2</ele>
        <time>2020-11-16T18:16:21Z</time>
      </trkpt>
      <trkpt lat="28.7459180" lon="-17.9418320">
        <ele>1296.2</ele>
        <time>2020-11-16T18:16:22Z</time>
      </trkpt>
      <trkpt lat="28.7459330" lon="-17.9418680">
        <ele>1296.6</ele>
        <time>2020-11-16T18:16:23Z</time>
      </trkpt>
      <trkpt lat="28.7459330" lon="-17.9418680">
        <ele>1296.6</ele>
        <time>2020-11-16T18:16:24Z</time>
      </trkpt>
      <trkpt lat="28.7459380" lon="-17.9419080">
        <ele>1297.0</ele>
        <time>2020-11-16T18:16:25Z</time>
      </trkpt>
      <trkpt lat="28.7459380" lon="-17.9419080">
        <ele>1297.0</ele>
        <time>2020-11-16T18:16:26Z</time>
      </trkpt>
      <trkpt lat="28.7459530" lon="-17.9419400">
        <ele>1297.3</ele>
        <time>2020-11-16T18:16:27Z</time>
      </trkpt>
      <trkpt lat="28.7459530" lon="-17.9419400">
        <ele>1297.3</ele>
        <time>2020-11-16T18:16:28Z</time>
      </trkpt>
      <trkpt lat="28.7459500" lon="-17.9419820">
        <ele>1297.8</ele>
        <time>2020-11-16T18:16:29Z</time>
      </trkpt>
      <trkpt lat="28.7459470" lon="-17.9419980">
        <ele>1298.0</ele>
        <time>2020-11-16T18:16:30Z</time>
      </trkpt>
      <trkpt lat="28.7459350" lon="-17.9420150">
        <ele>1298.2</ele>
        <time>2020-11-16T18:16:31Z</time>
      </trkpt>
      <trkpt lat="28.7459350" lon="-17.9420150">
        <ele>1298.2</ele>
        <time>2020-11-16T18:16:32Z</time>
      </trkpt>
      <trkpt lat="28.7459100" lon="-17.9420450">
        <ele>1298.7</ele>
        <time>2020-11-16T18:16:33Z</time>
      </trkpt>
      <trkpt lat="28.7458980" lon="-17.9420550">
        <ele>1298.9</ele>
        <time>2020-11-16T18:16:34Z</time>
      </trkpt>
      <trkpt lat="28.7458980" lon="-17.9420550">
        <ele>1298.9</ele>
        <time>2020-11-16T18:16:35Z</time>
      </trkpt>
      <trkpt lat="28.7458720" lon="-17.9420730">
        <ele>1299.3</ele>
        <time>2020-11-16T18:16:36Z</time>
      </trkpt>
      <trkpt lat="28.7458720" lon="-17.9420730">
        <ele>1299.3</ele>
        <time>2020-11-16T18:16:37Z</time>
      </trkpt>
      <trkpt lat="28.7458550" lon="-17.9420880">
        <ele>1299.5</ele>
        <time>2020-11-16T18:16:38Z</time>
      </trkpt>
      <trkpt lat="28.7458550" lon="-17.9420880">
        <ele>1299.5</ele>
        <time>2020-11-16T18:16:39Z</time>
      </trkpt>
      <trkpt lat="28.7458600" lon="-17.9420870">
        <ele>1299.6</ele>
        <time>2020-11-16T18:16:40Z</time>
      </trkpt>
      <trkpt lat="28.7458600" lon="-17.9420870">
        <ele>1299.6</ele>
        <time>2020-11-16T18:16:41Z</time>
      </trkpt>
      <trkpt lat="28.7458600" lon="-17.9420870">
        <ele>1299.6</ele>
        <time>2020-11-16T18:16:49Z</time>
      </trkpt>
      <trkpt lat="28.7458350" lon="-17.9421070">
        <ele>1300.0</ele>
        <time>2020-11-16T18:16:50Z</time>
      </trkpt>
      <trkpt lat="28.7458350" lon="-17.9421070">
        <ele>1300.0</ele>
        <time>2020-11-16T18:16:51Z</time>
      </trkpt>
      <trkpt lat="28.7458220" lon="-17.9421180">
        <ele>1300.2</ele>
        <time>2020-11-16T18:16:52Z</time>
      </trkpt>
      <trkpt lat="28.7458150" lon="-17.9421250">
        <ele>1300.4</ele>
        <time>2020-11-16T18:16:53Z</time>
      </trkpt>
      <trkpt lat="28.7458150" lon="-17.9421250">
        <ele>1300.4</ele>
        <time>2020-11-16T18:16:54Z</time>
      </trkpt>
      <trkpt lat="28.7458020" lon="-17.9421380">
        <ele>1300.6</ele>
        <time>2020-11-16T18:16:55Z</time>
      </trkpt>
      <trkpt lat="28.7458020" lon="-17.9421380">
        <ele>1300.6</ele>
        <time>2020-11-16T18:16:56Z</time>
      </trkpt>
      <trkpt lat="28.7458000" lon="-17.9421550">
        <ele>1300.8</ele>
        <time>2020-11-16T18:16:57Z</time>
      </trkpt>
      <trkpt lat="28.7458000" lon="-17.9421550">
        <ele>1300.8</ele>
        <time>2020-11-16T18:16:58Z</time>
      </trkpt>
      <trkpt lat="28.7457880" lon="-17.9421700">
        <ele>1301.0</ele>
        <time>2020-11-16T18:16:59Z</time>
      </trkpt>
      <trkpt lat="28.7457880" lon="-17.9421700">
        <ele>1301.0</ele>
        <time>2020-11-16T18:17:00Z</time>
      </trkpt>
      <trkpt lat="28.7457700" lon="-17.9421830">
        <ele>1301.3</ele>
        <time>2020-11-16T18:17:01Z</time>
      </trkpt>
      <trkpt lat="28.7457650" lon="-17.9421880">
        <ele>1301.4</ele>
        <time>2020-11-16T18:17:02Z</time>
      </trkpt>
      <trkpt lat="28.7457650" lon="-17.9421880">
        <ele>1301.4</ele>
        <time>2020-11-16T18:17:03Z</time>
      </trkpt>
      <trkpt lat="28.7457450" lon="-17.9422000">
        <ele>1301.7</ele>
        <time>2020-11-16T18:17:04Z</time>
      </trkpt>
      <trkpt lat="28.7457450" lon="-17.9422000">
        <ele>1301.7</ele>
        <time>2020-11-16T18:17:05Z</time>
      </trkpt>
      <trkpt lat="28.7457330" lon="-17.9422130">
        <ele>1301.9</ele>
        <time>2020-11-16T18:17:06Z</time>
      </trkpt>
      <trkpt lat="28.7457330" lon="-17.9422130">
        <ele>1301.9</ele>
        <time>2020-11-16T18:17:07Z</time>
      </trkpt>
      <trkpt lat="28.7457170" lon="-17.9422300">
        <ele>1302.2</ele>
        <time>2020-11-16T18:17:08Z</time>
      </trkpt>
      <trkpt lat="28.7457170" lon="-17.9422300">
        <ele>1302.2</ele>
        <time>2020-11-16T18:17:09Z</time>
      </trkpt>
      <trkpt lat="28.7457000" lon="-17.9422430">
        <ele>1302.4</ele>
        <time>2020-11-16T18:17:10Z</time>
      </trkpt>
      <trkpt lat="28.7456970" lon="-17.9422520">
        <ele>1302.5</ele>
        <time>2020-11-16T18:17:11Z</time>
      </trkpt>
      <trkpt lat="28.7456920" lon="-17.9422600">
        <ele>1302.7</ele>
        <time>2020-11-16T18:17:12Z</time>
      </trkpt>
      <trkpt lat="28.7456920" lon="-17.9422600">
        <ele>1302.7</ele>
        <time>2020-11-16T18:17:13Z</time>
      </trkpt>
      <trkpt lat="28.7456800" lon="-17.9422730">
        <ele>1302.9</ele>
        <time>2020-11-16T18:17:14Z</time>
      </trkpt>
      <trkpt lat="28.7456800" lon="-17.9422730">
        <ele>1302.9</ele>
        <time>2020-11-16T18:17:15Z</time>
      </trkpt>
      <trkpt lat="28.7456720" lon="-17.9422920">
        <ele>1303.1</ele>
        <time>2020-11-16T18:17:16Z</time>
      </trkpt>
      <trkpt lat="28.7456720" lon="-17.9422920">
        <ele>1303.1</ele>
        <time>2020-11-16T18:17:17Z</time>
      </trkpt>
      <trkpt lat="28.7456630" lon="-17.9423070">
        <ele>1303.4</ele>
        <time>2020-11-16T18:17:18Z</time>
      </trkpt>
      <trkpt lat="28.7456580" lon="-17.9423130">
        <ele>1303.5</ele>
        <time>2020-11-16T18:17:19Z</time>
      </trkpt>
      <trkpt lat="28.7456580" lon="-17.9423130">
        <ele>1303.5</ele>
        <time>2020-11-16T18:17:20Z</time>
      </trkpt>
      <trkpt lat="28.7456430" lon="-17.9423280">
        <ele>1303.8</ele>
        <time>2020-11-16T18:17:21Z</time>
      </trkpt>
      <trkpt lat="28.7456380" lon="-17.9423350">
        <ele>1303.9</ele>
        <time>2020-11-16T18:17:22Z</time>
      </trkpt>
      <trkpt lat="28.7456380" lon="-17.9423350">
        <ele>1303.9</ele>
        <time>2020-11-16T18:17:23Z</time>
      </trkpt>
      <trkpt lat="28.7456300" lon="-17.9423430">
        <ele>1304.0</ele>
        <time>2020-11-16T18:17:24Z</time>
      </trkpt>
      <trkpt lat="28.7456300" lon="-17.9423430">
        <ele>1304.0</ele>
        <time>2020-11-16T18:17:25Z</time>
      </trkpt>
      <trkpt lat="28.7456230" lon="-17.9423570">
        <ele>1304.3</ele>
        <time>2020-11-16T18:17:26Z</time>
      </trkpt>
      <trkpt lat="28.7456230" lon="-17.9423570">
        <ele>1304.3</ele>
        <time>2020-11-16T18:17:27Z</time>
      </trkpt>
      <trkpt lat="28.7456180" lon="-17.9423700">
        <ele>1304.5</ele>
        <time>2020-11-16T18:17:28Z</time>
      </trkpt>
      <trkpt lat="28.7456130" lon="-17.9423770">
        <ele>1304.6</ele>
        <time>2020-11-16T18:17:29Z</time>
      </trkpt>
      <trkpt lat="28.7456080" lon="-17.9423830">
        <ele>1304.7</ele>
        <time>2020-11-16T18:17:30Z</time>
      </trkpt>
      <trkpt lat="28.7456080" lon="-17.9423830">
        <ele>1304.7</ele>
        <time>2020-11-16T18:17:31Z</time>
      </trkpt>
      <trkpt lat="28.7456030" lon="-17.9423970">
        <ele>1304.9</ele>
        <time>2020-11-16T18:17:32Z</time>
      </trkpt>
      <trkpt lat="28.7456030" lon="-17.9423970">
        <ele>1304.9</ele>
        <time>2020-11-16T18:17:33Z</time>
      </trkpt>
      <trkpt lat="28.7455900" lon="-17.9424100">
        <ele>1305.2</ele>
        <time>2020-11-16T18:17:34Z</time>
      </trkpt>
      <trkpt lat="28.7455900" lon="-17.9424100">
        <ele>1305.2</ele>
        <time>2020-11-16T18:17:35Z</time>
      </trkpt>
      <trkpt lat="28.7455780" lon="-17.9424270">
        <ele>1305.6</ele>
        <time>2020-11-16T18:17:36Z</time>
      </trkpt>
      <trkpt lat="28.7455780" lon="-17.9424270">
        <ele>1305.6</ele>
        <time>2020-11-16T18:17:37Z</time>
      </trkpt>
      <trkpt lat="28.7455700" lon="-17.9424420">
        <ele>1305.9</ele>
        <time>2020-11-16T18:17:38Z</time>
      </trkpt>
      <trkpt lat="28.7455700" lon="-17.9424420">
        <ele>1305.9</ele>
        <time>2020-11-16T18:17:39Z</time>
      </trkpt>
      <trkpt lat="28.7455580" lon="-17.9424570">
        <ele>1306.2</ele>
        <time>2020-11-16T18:17:40Z</time>
      </trkpt>
      <trkpt lat="28.7455580" lon="-17.9424570">
        <ele>1306.2</ele>
        <time>2020-11-16T18:17:41Z</time>
      </trkpt>
      <trkpt lat="28.7455500" lon="-17.9424730">
        <ele>1306.5</ele>
        <time>2020-11-16T18:17:42Z</time>
      </trkpt>
      <trkpt lat="28.7455480" lon="-17.9424800">
        <ele>1306.6</ele>
        <time>2020-11-16T18:17:43Z</time>
      </trkpt>
      <trkpt lat="28.7455450" lon="-17.9424870">
        <ele>1306.8</ele>
        <time>2020-11-16T18:17:44Z</time>
      </trkpt>
      <trkpt lat="28.7455450" lon="-17.9424870">
        <ele>1306.8</ele>
        <time>2020-11-16T18:17:45Z</time>
      </trkpt>
      <trkpt lat="28.7455430" lon="-17.9425070">
        <ele>1307.1</ele>
        <time>2020-11-16T18:17:46Z</time>
      </trkpt>
      <trkpt lat="28.7455430" lon="-17.9425070">
        <ele>1307.1</ele>
        <time>2020-11-16T18:17:47Z</time>
      </trkpt>
      <trkpt lat="28.7455380" lon="-17.9425230">
        <ele>1307.4</ele>
        <time>2020-11-16T18:17:48Z</time>
      </trkpt>
      <trkpt lat="28.7455380" lon="-17.9425230">
        <ele>1307.4</ele>
        <time>2020-11-16T18:17:49Z</time>
      </trkpt>
      <trkpt lat="28.7455380" lon="-17.9425420">
        <ele>1307.7</ele>
        <time>2020-11-16T18:17:50Z</time>
      </trkpt>
      <trkpt lat="28.7455380" lon="-17.9425420">
        <ele>1307.7</ele>
        <time>2020-11-16T18:17:51Z</time>
      </trkpt>
      <trkpt lat="28.7455400" lon="-17.9425650">
        <ele>1308.2</ele>
        <time>2020-11-16T18:17:52Z</time>
      </trkpt>
      <trkpt lat="28.7455400" lon="-17.9425650">
        <ele>1308.2</ele>
        <time>2020-11-16T18:17:53Z</time>
      </trkpt>
      <trkpt lat="28.7455350" lon="-17.9425820">
        <ele>1308.5</ele>
        <time>2020-11-16T18:17:54Z</time>
      </trkpt>
      <trkpt lat="28.7455350" lon="-17.9425820">
        <ele>1308.5</ele>
        <time>2020-11-16T18:17:55Z</time>
      </trkpt>
      <trkpt lat="28.7455250" lon="-17.9426000">
        <ele>1308.9</ele>
        <time>2020-11-16T18:17:56Z</time>
      </trkpt>
      <trkpt lat="28.7455250" lon="-17.9426000">
        <ele>1308.9</ele>
        <time>2020-11-16T18:17:57Z</time>
      </trkpt>
      <trkpt lat="28.7455120" lon="-17.9426120">
        <ele>1309.2</ele>
        <time>2020-11-16T18:17:58Z</time>
      </trkpt>
      <trkpt lat="28.7455120" lon="-17.9426120">
        <ele>1309.2</ele>
        <time>2020-11-16T18:17:59Z</time>
      </trkpt>
      <trkpt lat="28.7454930" lon="-17.9426080">
        <ele>1310.7</ele>
        <time>2020-11-16T18:18:00Z</time>
      </trkpt>
      <trkpt lat="28.7454930" lon="-17.9426080">
        <ele>1310.7</ele>
        <time>2020-11-16T18:18:01Z</time>
      </trkpt>
      <trkpt lat="28.7454850" lon="-17.9425930">
        <ele>1310.7</ele>
        <time>2020-11-16T18:18:02Z</time>
      </trkpt>
      <trkpt lat="28.7454850" lon="-17.9425930">
        <ele>1310.7</ele>
        <time>2020-11-16T18:18:03Z</time>
      </trkpt>
      <trkpt lat="28.7454680" lon="-17.9425850">
        <ele>1310.7</ele>
        <time>2020-11-16T18:18:04Z</time>
      </trkpt>
      <trkpt lat="28.7454680" lon="-17.9425850">
        <ele>1310.7</ele>
        <time>2020-11-16T18:18:05Z</time>
      </trkpt>
      <trkpt lat="28.7454500" lon="-17.9425830">
        <ele>1311.0</ele>
        <time>2020-11-16T18:18:06Z</time>
      </trkpt>
      <trkpt lat="28.7454500" lon="-17.9425830">
        <ele>1311.0</ele>
        <time>2020-11-16T18:18:07Z</time>
      </trkpt>
      <trkpt lat="28.7454350" lon="-17.9425870">
        <ele>1311.2</ele>
        <time>2020-11-16T18:18:08Z</time>
      </trkpt>
      <trkpt lat="28.7454350" lon="-17.9425870">
        <ele>1311.2</ele>
        <time>2020-11-16T18:18:09Z</time>
      </trkpt>
      <trkpt lat="28.7454180" lon="-17.9425980">
        <ele>1311.4</ele>
        <time>2020-11-16T18:18:10Z</time>
      </trkpt>
      <trkpt lat="28.7454180" lon="-17.9425980">
        <ele>1311.4</ele>
        <time>2020-11-16T18:18:11Z</time>
      </trkpt>
      <trkpt lat="28.7454080" lon="-17.9426180">
        <ele>1311.7</ele>
        <time>2020-11-16T18:18:12Z</time>
      </trkpt>
      <trkpt lat="28.7454080" lon="-17.9426280">
        <ele>1311.8</ele>
        <time>2020-11-16T18:18:13Z</time>
      </trkpt>
      <trkpt lat="28.7454080" lon="-17.9426280">
        <ele>1311.8</ele>
        <time>2020-11-16T18:18:14Z</time>
      </trkpt>
      <trkpt lat="28.7454130" lon="-17.9426520">
        <ele>1312.1</ele>
        <time>2020-11-16T18:18:15Z</time>
      </trkpt>
      <trkpt lat="28.7454130" lon="-17.9426520">
        <ele>1312.1</ele>
        <time>2020-11-16T18:18:16Z</time>
      </trkpt>
      <trkpt lat="28.7454170" lon="-17.9426750">
        <ele>1312.3</ele>
        <time>2020-11-16T18:18:17Z</time>
      </trkpt>
      <trkpt lat="28.7454170" lon="-17.9426750">
        <ele>1312.3</ele>
        <time>2020-11-16T18:18:18Z</time>
      </trkpt>
      <trkpt lat="28.7454220" lon="-17.9427000">
        <ele>1312.6</ele>
        <time>2020-11-16T18:18:19Z</time>
      </trkpt>
      <trkpt lat="28.7454220" lon="-17.9427000">
        <ele>1312.6</ele>
        <time>2020-11-16T18:18:20Z</time>
      </trkpt>
      <trkpt lat="28.7454250" lon="-17.9427200">
        <ele>1312.8</ele>
        <time>2020-11-16T18:18:21Z</time>
      </trkpt>
      <trkpt lat="28.7454270" lon="-17.9427280">
        <ele>1312.9</ele>
        <time>2020-11-16T18:18:22Z</time>
      </trkpt>
      <trkpt lat="28.7454270" lon="-17.9427280">
        <ele>1312.9</ele>
        <time>2020-11-16T18:18:23Z</time>
      </trkpt>
      <trkpt lat="28.7454230" lon="-17.9427320">
        <ele>1312.9</ele>
        <time>2020-11-16T18:18:38Z</time>
      </trkpt>
      <trkpt lat="28.7454230" lon="-17.9427320">
        <ele>1312.9</ele>
        <time>2020-11-16T18:18:39Z</time>
      </trkpt>
      <trkpt lat="28.7453970" lon="-17.9427730">
        <ele>1313.4</ele>
        <time>2020-11-16T18:18:40Z</time>
      </trkpt>
      <trkpt lat="28.7453970" lon="-17.9427730">
        <ele>1313.4</ele>
        <time>2020-11-16T18:18:41Z</time>
      </trkpt>
      <trkpt lat="28.7453880" lon="-17.9427880">
        <ele>1313.5</ele>
        <time>2020-11-16T18:18:42Z</time>
      </trkpt>
      <trkpt lat="28.7453880" lon="-17.9427880">
        <ele>1313.5</ele>
        <time>2020-11-16T18:18:43Z</time>
      </trkpt>
      <trkpt lat="28.7453750" lon="-17.9428070">
        <ele>1313.7</ele>
        <time>2020-11-16T18:18:44Z</time>
      </trkpt>
      <trkpt lat="28.7453750" lon="-17.9428070">
        <ele>1313.7</ele>
        <time>2020-11-16T18:18:45Z</time>
      </trkpt>
      <trkpt lat="28.7453520" lon="-17.9428200">
        <ele>1313.9</ele>
        <time>2020-11-16T18:18:46Z</time>
      </trkpt>
      <trkpt lat="28.7453400" lon="-17.9428250">
        <ele>1314.0</ele>
        <time>2020-11-16T18:18:47Z</time>
      </trkpt>
      <trkpt lat="28.7453400" lon="-17.9428250">
        <ele>1314.0</ele>
        <time>2020-11-16T18:18:48Z</time>
      </trkpt>
      <trkpt lat="28.7453200" lon="-17.9428330">
        <ele>1314.1</ele>
        <time>2020-11-16T18:18:49Z</time>
      </trkpt>
      <trkpt lat="28.7453080" lon="-17.9428370">
        <ele>1314.2</ele>
        <time>2020-11-16T18:18:50Z</time>
      </trkpt>
      <trkpt lat="28.7453080" lon="-17.9428370">
        <ele>1314.2</ele>
        <time>2020-11-16T18:18:51Z</time>
      </trkpt>
      <trkpt lat="28.7452930" lon="-17.9428380">
        <ele>1314.3</ele>
        <time>2020-11-16T18:18:52Z</time>
      </trkpt>
      <trkpt lat="28.7452930" lon="-17.9428380">
        <ele>1314.3</ele>
        <time>2020-11-16T18:18:53Z</time>
      </trkpt>
      <trkpt lat="28.7452680" lon="-17.9428430">
        <ele>1314.4</ele>
        <time>2020-11-16T18:18:54Z</time>
      </trkpt>
      <trkpt lat="28.7452680" lon="-17.9428430">
        <ele>1314.4</ele>
        <time>2020-11-16T18:18:55Z</time>
      </trkpt>
      <trkpt lat="28.7452520" lon="-17.9428470">
        <ele>1314.5</ele>
        <time>2020-11-16T18:18:56Z</time>
      </trkpt>
      <trkpt lat="28.7452520" lon="-17.9428470">
        <ele>1314.5</ele>
        <time>2020-11-16T18:18:57Z</time>
      </trkpt>
      <trkpt lat="28.7452320" lon="-17.9428470">
        <ele>1314.6</ele>
        <time>2020-11-16T18:18:58Z</time>
      </trkpt>
      <trkpt lat="28.7452320" lon="-17.9428470">
        <ele>1314.6</ele>
        <time>2020-11-16T18:18:59Z</time>
      </trkpt>
      <trkpt lat="28.7452070" lon="-17.9428480">
        <ele>1314.8</ele>
        <time>2020-11-16T18:19:00Z</time>
      </trkpt>
      <trkpt lat="28.7452070" lon="-17.9428480">
        <ele>1314.8</ele>
        <time>2020-11-16T18:19:01Z</time>
      </trkpt>
      <trkpt lat="28.7451850" lon="-17.9428480">
        <ele>1314.9</ele>
        <time>2020-11-16T18:19:02Z</time>
      </trkpt>
      <trkpt lat="28.7451850" lon="-17.9428480">
        <ele>1314.9</ele>
        <time>2020-11-16T18:19:03Z</time>
      </trkpt>
      <trkpt lat="28.7451670" lon="-17.9428500">
        <ele>1315.0</ele>
        <time>2020-11-16T18:19:04Z</time>
      </trkpt>
      <trkpt lat="28.7451670" lon="-17.9428500">
        <ele>1315.0</ele>
        <time>2020-11-16T18:19:14Z</time>
      </trkpt>
      <trkpt lat="28.7451670" lon="-17.9428500">
        <ele>1315.0</ele>
        <time>2020-11-16T18:19:15Z</time>
      </trkpt>
      <trkpt lat="28.7450350" lon="-17.9428250">
        <ele>1315.4</ele>
        <time>2020-11-16T18:19:16Z</time>
      </trkpt>
      <trkpt lat="28.7450350" lon="-17.9428250">
        <ele>1315.4</ele>
        <time>2020-11-16T18:19:17Z</time>
      </trkpt>
      <trkpt lat="28.7449900" lon="-17.9428050">
        <ele>1315.4</ele>
        <time>2020-11-16T18:19:18Z</time>
      </trkpt>
      <trkpt lat="28.7449650" lon="-17.9427920">
        <ele>1315.4</ele>
        <time>2020-11-16T18:19:19Z</time>
      </trkpt>
      <trkpt lat="28.7449650" lon="-17.9427920">
        <ele>1315.4</ele>
        <time>2020-11-16T18:19:20Z</time>
      </trkpt>
      <trkpt lat="28.7449030" lon="-17.9427530">
        <ele>1315.5</ele>
        <time>2020-11-16T18:19:21Z</time>
      </trkpt>
      <trkpt lat="28.7449030" lon="-17.9427530">
        <ele>1315.5</ele>
        <time>2020-11-16T18:19:22Z</time>
      </trkpt>
      <trkpt lat="28.7448350" lon="-17.9427000">
        <ele>1315.7</ele>
        <time>2020-11-16T18:19:23Z</time>
      </trkpt>
      <trkpt lat="28.7448350" lon="-17.9427000">
        <ele>1315.7</ele>
        <time>2020-11-16T18:19:24Z</time>
      </trkpt>
      <trkpt lat="28.7447620" lon="-17.9426530">
        <ele>1316.1</ele>
        <time>2020-11-16T18:19:25Z</time>
      </trkpt>
      <trkpt lat="28.7447620" lon="-17.9426530">
        <ele>1316.1</ele>
        <time>2020-11-16T18:19:26Z</time>
      </trkpt>
      <trkpt lat="28.7446950" lon="-17.9426250">
        <ele>1316.6</ele>
        <time>2020-11-16T18:19:27Z</time>
      </trkpt>
      <trkpt lat="28.7446950" lon="-17.9426250">
        <ele>1316.6</ele>
        <time>2020-11-16T18:19:28Z</time>
      </trkpt>
      <trkpt lat="28.7446380" lon="-17.9426230">
        <ele>1317.1</ele>
        <time>2020-11-16T18:19:29Z</time>
      </trkpt>
      <trkpt lat="28.7446380" lon="-17.9426230">
        <ele>1317.1</ele>
        <time>2020-11-16T18:19:30Z</time>
      </trkpt>
      <trkpt lat="28.7445930" lon="-17.9426300">
        <ele>1317.5</ele>
        <time>2020-11-16T18:19:31Z</time>
      </trkpt>
      <trkpt lat="28.7445730" lon="-17.9426300">
        <ele>1317.7</ele>
        <time>2020-11-16T18:19:32Z</time>
      </trkpt>
      <trkpt lat="28.7445730" lon="-17.9426300">
        <ele>1317.7</ele>
        <time>2020-11-16T18:19:33Z</time>
      </trkpt>
      <trkpt lat="28.7445350" lon="-17.9426280">
        <ele>1318.1</ele>
        <time>2020-11-16T18:19:34Z</time>
      </trkpt>
      <trkpt lat="28.7445350" lon="-17.9426280">
        <ele>1318.1</ele>
        <time>2020-11-16T18:19:35Z</time>
      </trkpt>
      <trkpt lat="28.7445000" lon="-17.9426270">
        <ele>1318.4</ele>
        <time>2020-11-16T18:19:36Z</time>
      </trkpt>
      <trkpt lat="28.7444780" lon="-17.9426250">
        <ele>1318.6</ele>
        <time>2020-11-16T18:19:37Z</time>
      </trkpt>
      <trkpt lat="28.7444780" lon="-17.9426250">
        <ele>1318.6</ele>
        <time>2020-11-16T18:19:38Z</time>
      </trkpt>
      <trkpt lat="28.7444450" lon="-17.9426120">
        <ele>1318.9</ele>
        <time>2020-11-16T18:19:39Z</time>
      </trkpt>
      <trkpt lat="28.7444250" lon="-17.9426070">
        <ele>1319.0</ele>
        <time>2020-11-16T18:19:40Z</time>
      </trkpt>
      <trkpt lat="28.7444250" lon="-17.9426070">
        <ele>1319.0</ele>
        <time>2020-11-16T18:19:41Z</time>
      </trkpt>
      <trkpt lat="28.7443850" lon="-17.9425920">
        <ele>1319.3</ele>
        <time>2020-11-16T18:19:42Z</time>
      </trkpt>
      <trkpt lat="28.7443850" lon="-17.9425920">
        <ele>1319.3</ele>
        <time>2020-11-16T18:19:43Z</time>
      </trkpt>
      <trkpt lat="28.7443370" lon="-17.9425800">
        <ele>1319.7</ele>
        <time>2020-11-16T18:19:44Z</time>
      </trkpt>
      <trkpt lat="28.7443370" lon="-17.9425800">
        <ele>1319.7</ele>
        <time>2020-11-16T18:19:45Z</time>
      </trkpt>
      <trkpt lat="28.7442930" lon="-17.9425700">
        <ele>1320.0</ele>
        <time>2020-11-16T18:19:46Z</time>
      </trkpt>
      <trkpt lat="28.7442930" lon="-17.9425700">
        <ele>1320.0</ele>
        <time>2020-11-16T18:19:47Z</time>
      </trkpt>
      <trkpt lat="28.7442580" lon="-17.9425730">
        <ele>1320.3</ele>
        <time>2020-11-16T18:19:48Z</time>
      </trkpt>
      <trkpt lat="28.7442580" lon="-17.9425730">
        <ele>1320.3</ele>
        <time>2020-11-16T18:19:49Z</time>
      </trkpt>
      <trkpt lat="28.7442280" lon="-17.9425950">
        <ele>1320.5</ele>
        <time>2020-11-16T18:19:50Z</time>
      </trkpt>
      <trkpt lat="28.7442280" lon="-17.9425950">
        <ele>1320.5</ele>
        <time>2020-11-16T18:19:51Z</time>
      </trkpt>
      <trkpt lat="28.7442070" lon="-17.9426230">
        <ele>1320.7</ele>
        <time>2020-11-16T18:19:52Z</time>
      </trkpt>
      <trkpt lat="28.7442070" lon="-17.9426230">
        <ele>1320.7</ele>
        <time>2020-11-16T18:19:53Z</time>
      </trkpt>
      <trkpt lat="28.7442000" lon="-17.9426780">
        <ele>1321.1</ele>
        <time>2020-11-16T18:19:54Z</time>
      </trkpt>
      <trkpt lat="28.7442000" lon="-17.9426780">
        <ele>1321.1</ele>
        <time>2020-11-16T18:19:55Z</time>
      </trkpt>
      <trkpt lat="28.7441880" lon="-17.9427280">
        <ele>1321.4</ele>
        <time>2020-11-16T18:19:56Z</time>
      </trkpt>
      <trkpt lat="28.7441880" lon="-17.9427280">
        <ele>1321.4</ele>
        <time>2020-11-16T18:19:57Z</time>
      </trkpt>
      <trkpt lat="28.7442100" lon="-17.9427650">
        <ele>1321.7</ele>
        <time>2020-11-16T18:19:58Z</time>
      </trkpt>
      <trkpt lat="28.7442100" lon="-17.9427650">
        <ele>1321.7</ele>
        <time>2020-11-16T18:19:59Z</time>
      </trkpt>
      <trkpt lat="28.7442250" lon="-17.9428020">
        <ele>1322.0</ele>
        <time>2020-11-16T18:20:00Z</time>
      </trkpt>
      <trkpt lat="28.7442250" lon="-17.9428020">
        <ele>1322.0</ele>
        <time>2020-11-16T18:20:01Z</time>
      </trkpt>
      <trkpt lat="28.7442420" lon="-17.9428370">
        <ele>1322.3</ele>
        <time>2020-11-16T18:20:02Z</time>
      </trkpt>
      <trkpt lat="28.7442420" lon="-17.9428370">
        <ele>1322.3</ele>
        <time>2020-11-16T18:20:03Z</time>
      </trkpt>
      <trkpt lat="28.7442670" lon="-17.9428770">
        <ele>1322.8</ele>
        <time>2020-11-16T18:20:04Z</time>
      </trkpt>
      <trkpt lat="28.7442750" lon="-17.9428970">
        <ele>1323.0</ele>
        <time>2020-11-16T18:20:05Z</time>
      </trkpt>
      <trkpt lat="28.7442750" lon="-17.9428970">
        <ele>1323.0</ele>
        <time>2020-11-16T18:20:06Z</time>
      </trkpt>
      <trkpt lat="28.7442920" lon="-17.9429370">
        <ele>1323.5</ele>
        <time>2020-11-16T18:20:07Z</time>
      </trkpt>
      <trkpt lat="28.7442920" lon="-17.9429370">
        <ele>1323.5</ele>
        <time>2020-11-16T18:20:08Z</time>
      </trkpt>
      <trkpt lat="28.7443070" lon="-17.9429750">
        <ele>1324.0</ele>
        <time>2020-11-16T18:20:09Z</time>
      </trkpt>
      <trkpt lat="28.7443070" lon="-17.9429750">
        <ele>1324.0</ele>
        <time>2020-11-16T18:20:10Z</time>
      </trkpt>
      <trkpt lat="28.7443220" lon="-17.9430100">
        <ele>1324.4</ele>
        <time>2020-11-16T18:20:11Z</time>
      </trkpt>
      <trkpt lat="28.7443220" lon="-17.9430100">
        <ele>1324.4</ele>
        <time>2020-11-16T18:20:12Z</time>
      </trkpt>
      <trkpt lat="28.7443280" lon="-17.9430500">
        <ele>1325.0</ele>
        <time>2020-11-16T18:20:13Z</time>
      </trkpt>
      <trkpt lat="28.7443280" lon="-17.9430500">
        <ele>1325.0</ele>
        <time>2020-11-16T18:20:14Z</time>
      </trkpt>
      <trkpt lat="28.7443400" lon="-17.9430880">
        <ele>1325.5</ele>
        <time>2020-11-16T18:20:15Z</time>
      </trkpt>
      <trkpt lat="28.7443400" lon="-17.9430880">
        <ele>1325.5</ele>
        <time>2020-11-16T18:20:16Z</time>
      </trkpt>
      <trkpt lat="28.7443450" lon="-17.9431320">
        <ele>1326.0</ele>
        <time>2020-11-16T18:20:17Z</time>
      </trkpt>
      <trkpt lat="28.7443450" lon="-17.9431320">
        <ele>1326.0</ele>
        <time>2020-11-16T18:20:18Z</time>
      </trkpt>
      <trkpt lat="28.7443400" lon="-17.9431680">
        <ele>1326.4</ele>
        <time>2020-11-16T18:20:19Z</time>
      </trkpt>
      <trkpt lat="28.7443400" lon="-17.9431680">
        <ele>1326.4</ele>
        <time>2020-11-16T18:20:20Z</time>
      </trkpt>
      <trkpt lat="28.7443250" lon="-17.9432020">
        <ele>1326.8</ele>
        <time>2020-11-16T18:20:21Z</time>
      </trkpt>
      <trkpt lat="28.7443250" lon="-17.9432020">
        <ele>1326.8</ele>
        <time>2020-11-16T18:20:22Z</time>
      </trkpt>
      <trkpt lat="28.7443030" lon="-17.9432320">
        <ele>1327.2</ele>
        <time>2020-11-16T18:20:23Z</time>
      </trkpt>
      <trkpt lat="28.7443030" lon="-17.9432320">
        <ele>1327.2</ele>
        <time>2020-11-16T18:20:24Z</time>
      </trkpt>
      <trkpt lat="28.7442820" lon="-17.9432520">
        <ele>1327.5</ele>
        <time>2020-11-16T18:20:25Z</time>
      </trkpt>
      <trkpt lat="28.7442820" lon="-17.9432520">
        <ele>1327.5</ele>
        <time>2020-11-16T18:20:26Z</time>
      </trkpt>
      <trkpt lat="28.7442730" lon="-17.9432680">
        <ele>1327.6</ele>
        <time>2020-11-16T18:20:27Z</time>
      </trkpt>
      <trkpt lat="28.7442730" lon="-17.9432680">
        <ele>1327.6</ele>
        <time>2020-11-16T18:20:28Z</time>
      </trkpt>
      <trkpt lat="28.7442630" lon="-17.9432900">
        <ele>1327.5</ele>
        <time>2020-11-16T18:20:29Z</time>
      </trkpt>
      <trkpt lat="28.7442630" lon="-17.9432900">
        <ele>1327.5</ele>
        <time>2020-11-16T18:20:30Z</time>
      </trkpt>
      <trkpt lat="28.7442480" lon="-17.9432980">
        <ele>1327.3</ele>
        <time>2020-11-16T18:20:31Z</time>
      </trkpt>
      <trkpt lat="28.7442330" lon="-17.9433030">
        <ele>1327.1</ele>
        <time>2020-11-16T18:20:32Z</time>
      </trkpt>
      <trkpt lat="28.7442330" lon="-17.9433030">
        <ele>1327.1</ele>
        <time>2020-11-16T18:20:33Z</time>
      </trkpt>
      <trkpt lat="28.7441920" lon="-17.9433230">
        <ele>1326.5</ele>
        <time>2020-11-16T18:20:34Z</time>
      </trkpt>
      <trkpt lat="28.7441920" lon="-17.9433230">
        <ele>1326.5</ele>
        <time>2020-11-16T18:20:35Z</time>
      </trkpt>
      <trkpt lat="28.7441600" lon="-17.9433450">
        <ele>1326.0</ele>
        <time>2020-11-16T18:20:36Z</time>
      </trkpt>
      <trkpt lat="28.7441520" lon="-17.9433550">
        <ele>1325.9</ele>
        <time>2020-11-16T18:20:37Z</time>
      </trkpt>
      <trkpt lat="28.7441520" lon="-17.9433550">
        <ele>1325.9</ele>
        <time>2020-11-16T18:20:38Z</time>
      </trkpt>
      <trkpt lat="28.7441350" lon="-17.9433700">
        <ele>1325.6</ele>
        <time>2020-11-16T18:20:39Z</time>
      </trkpt>
      <trkpt lat="28.7441350" lon="-17.9433700">
        <ele>1325.6</ele>
        <time>2020-11-16T18:20:40Z</time>
      </trkpt>
      <trkpt lat="28.7441020" lon="-17.9433830">
        <ele>1325.2</ele>
        <time>2020-11-16T18:20:41Z</time>
      </trkpt>
      <trkpt lat="28.7441020" lon="-17.9433830">
        <ele>1325.2</ele>
        <time>2020-11-16T18:20:42Z</time>
      </trkpt>
      <trkpt lat="28.7440700" lon="-17.9434020">
        <ele>1324.8</ele>
        <time>2020-11-16T18:20:43Z</time>
      </trkpt>
      <trkpt lat="28.7440500" lon="-17.9434170">
        <ele>1324.5</ele>
        <time>2020-11-16T18:20:44Z</time>
      </trkpt>
      <trkpt lat="28.7440500" lon="-17.9434170">
        <ele>1324.5</ele>
        <time>2020-11-16T18:20:45Z</time>
      </trkpt>
      <trkpt lat="28.7440180" lon="-17.9434420">
        <ele>1324.1</ele>
        <time>2020-11-16T18:20:46Z</time>
      </trkpt>
      <trkpt lat="28.7440070" lon="-17.9434500">
        <ele>1323.9</ele>
        <time>2020-11-16T18:20:47Z</time>
      </trkpt>
      <trkpt lat="28.7440070" lon="-17.9434500">
        <ele>1323.9</ele>
        <time>2020-11-16T18:20:48Z</time>
      </trkpt>
      <trkpt lat="28.7439650" lon="-17.9434630">
        <ele>1323.4</ele>
        <time>2020-11-16T18:20:49Z</time>
      </trkpt>
      <trkpt lat="28.7439450" lon="-17.9434730">
        <ele>1323.2</ele>
        <time>2020-11-16T18:20:50Z</time>
      </trkpt>
      <trkpt lat="28.7439450" lon="-17.9434730">
        <ele>1323.2</ele>
        <time>2020-11-16T18:20:51Z</time>
      </trkpt>
      <trkpt lat="28.7439030" lon="-17.9434880">
        <ele>1323.4</ele>
        <time>2020-11-16T18:20:52Z</time>
      </trkpt>
      <trkpt lat="28.7438800" lon="-17.9434920">
        <ele>1323.5</ele>
        <time>2020-11-16T18:20:53Z</time>
      </trkpt>
      <trkpt lat="28.7438800" lon="-17.9434920">
        <ele>1323.5</ele>
        <time>2020-11-16T18:20:54Z</time>
      </trkpt>
      <trkpt lat="28.7438400" lon="-17.9434920">
        <ele>1323.6</ele>
        <time>2020-11-16T18:20:55Z</time>
      </trkpt>
      <trkpt lat="28.7438400" lon="-17.9434920">
        <ele>1323.6</ele>
        <time>2020-11-16T18:20:56Z</time>
      </trkpt>
      <trkpt lat="28.7437830" lon="-17.9434850">
        <ele>1323.7</ele>
        <time>2020-11-16T18:20:57Z</time>
      </trkpt>
      <trkpt lat="28.7437830" lon="-17.9434850">
        <ele>1323.7</ele>
        <time>2020-11-16T18:20:58Z</time>
      </trkpt>
      <trkpt lat="28.7437120" lon="-17.9434770">
        <ele>1323.8</ele>
        <time>2020-11-16T18:20:59Z</time>
      </trkpt>
      <trkpt lat="28.7437120" lon="-17.9434770">
        <ele>1323.8</ele>
        <time>2020-11-16T18:21:00Z</time>
      </trkpt>
      <trkpt lat="28.7436800" lon="-17.9434530">
        <ele>1323.8</ele>
        <time>2020-11-16T18:21:01Z</time>
      </trkpt>
      <trkpt lat="28.7436570" lon="-17.9434400">
        <ele>1323.8</ele>
        <time>2020-11-16T18:21:02Z</time>
      </trkpt>
      <trkpt lat="28.7436570" lon="-17.9434400">
        <ele>1323.8</ele>
        <time>2020-11-16T18:21:03Z</time>
      </trkpt>
      <trkpt lat="28.7436120" lon="-17.9434200">
        <ele>1323.7</ele>
        <time>2020-11-16T18:21:04Z</time>
      </trkpt>
      <trkpt lat="28.7436120" lon="-17.9434200">
        <ele>1323.7</ele>
        <time>2020-11-16T18:21:05Z</time>
      </trkpt>
      <trkpt lat="28.7435830" lon="-17.9434020">
        <ele>1323.7</ele>
        <time>2020-11-16T18:21:06Z</time>
      </trkpt>
      <trkpt lat="28.7435830" lon="-17.9434020">
        <ele>1323.7</ele>
        <time>2020-11-16T18:21:07Z</time>
      </trkpt>
      <trkpt lat="28.7435450" lon="-17.9433850">
        <ele>1323.6</ele>
        <time>2020-11-16T18:21:08Z</time>
      </trkpt>
      <trkpt lat="28.7435450" lon="-17.9433850">
        <ele>1323.6</ele>
        <time>2020-11-16T18:21:09Z</time>
      </trkpt>
      <trkpt lat="28.7435120" lon="-17.9433780">
        <ele>1323.6</ele>
        <time>2020-11-16T18:21:10Z</time>
      </trkpt>
      <trkpt lat="28.7435000" lon="-17.9433680">
        <ele>1323.6</ele>
        <time>2020-11-16T18:21:11Z</time>
      </trkpt>
      <trkpt lat="28.7435000" lon="-17.9433680">
        <ele>1323.6</ele>
        <time>2020-11-16T18:21:12Z</time>
      </trkpt>
      <trkpt lat="28.7434620" lon="-17.9433550">
        <ele>1323.6</ele>
        <time>2020-11-16T18:21:13Z</time>
      </trkpt>
      <trkpt lat="28.7434620" lon="-17.9433550">
        <ele>1323.6</ele>
        <time>2020-11-16T18:21:14Z</time>
      </trkpt>
      <trkpt lat="28.7434250" lon="-17.9433430">
        <ele>1323.6</ele>
        <time>2020-11-16T18:21:15Z</time>
      </trkpt>
      <trkpt lat="28.7434050" lon="-17.9433430">
        <ele>1323.6</ele>
        <time>2020-11-16T18:21:16Z</time>
      </trkpt>
      <trkpt lat="28.7433920" lon="-17.9433430">
        <ele>1323.6</ele>
        <time>2020-11-16T18:21:17Z</time>
      </trkpt>
      <trkpt lat="28.7433920" lon="-17.9433430">
        <ele>1323.6</ele>
        <time>2020-11-16T18:21:18Z</time>
      </trkpt>
      <trkpt lat="28.7433500" lon="-17.9433400">
        <ele>1323.6</ele>
        <time>2020-11-16T18:21:19Z</time>
      </trkpt>
      <trkpt lat="28.7433300" lon="-17.9433380">
        <ele>1323.7</ele>
        <time>2020-11-16T18:21:20Z</time>
      </trkpt>
      <trkpt lat="28.7433300" lon="-17.9433380">
        <ele>1323.7</ele>
        <time>2020-11-16T18:21:21Z</time>
      </trkpt>
      <trkpt lat="28.7432830" lon="-17.9433330">
        <ele>1323.7</ele>
        <time>2020-11-16T18:21:22Z</time>
      </trkpt>
      <trkpt lat="28.7432830" lon="-17.9433330">
        <ele>1323.7</ele>
        <time>2020-11-16T18:21:23Z</time>
      </trkpt>
      <trkpt lat="28.7432320" lon="-17.9433320">
        <ele>1323.8</ele>
        <time>2020-11-16T18:21:24Z</time>
      </trkpt>
      <trkpt lat="28.7432080" lon="-17.9433250">
        <ele>1323.8</ele>
        <time>2020-11-16T18:21:25Z</time>
      </trkpt>
      <trkpt lat="28.7431830" lon="-17.9433130">
        <ele>1323.9</ele>
        <time>2020-11-16T18:21:26Z</time>
      </trkpt>
      <trkpt lat="28.7431830" lon="-17.9433130">
        <ele>1323.9</ele>
        <time>2020-11-16T18:21:27Z</time>
      </trkpt>
      <trkpt lat="28.7431480" lon="-17.9432870">
        <ele>1324.0</ele>
        <time>2020-11-16T18:21:28Z</time>
      </trkpt>
      <trkpt lat="28.7431480" lon="-17.9432870">
        <ele>1324.0</ele>
        <time>2020-11-16T18:21:29Z</time>
      </trkpt>
      <trkpt lat="28.7430700" lon="-17.9432680">
        <ele>1324.1</ele>
        <time>2020-11-16T18:21:30Z</time>
      </trkpt>
      <trkpt lat="28.7430700" lon="-17.9432680">
        <ele>1324.1</ele>
        <time>2020-11-16T18:21:31Z</time>
      </trkpt>
      <trkpt lat="28.7430300" lon="-17.9432350">
        <ele>1324.2</ele>
        <time>2020-11-16T18:21:32Z</time>
      </trkpt>
      <trkpt lat="28.7430300" lon="-17.9432350">
        <ele>1324.2</ele>
        <time>2020-11-16T18:21:33Z</time>
      </trkpt>
      <trkpt lat="28.7430230" lon="-17.9431830">
        <ele>1324.3</ele>
        <time>2020-11-16T18:21:34Z</time>
      </trkpt>
      <trkpt lat="28.7430180" lon="-17.9431620">
        <ele>1324.4</ele>
        <time>2020-11-16T18:21:35Z</time>
      </trkpt>
      <trkpt lat="28.7430180" lon="-17.9431620">
        <ele>1324.4</ele>
        <time>2020-11-16T18:21:36Z</time>
      </trkpt>
      <trkpt lat="28.7430120" lon="-17.9431130">
        <ele>1324.5</ele>
        <time>2020-11-16T18:21:37Z</time>
      </trkpt>
      <trkpt lat="28.7430120" lon="-17.9431130">
        <ele>1324.5</ele>
        <time>2020-11-16T18:21:38Z</time>
      </trkpt>
      <trkpt lat="28.7430020" lon="-17.9430630">
        <ele>1324.7</ele>
        <time>2020-11-16T18:21:39Z</time>
      </trkpt>
      <trkpt lat="28.7430020" lon="-17.9430630">
        <ele>1324.7</ele>
        <time>2020-11-16T18:21:40Z</time>
      </trkpt>
      <trkpt lat="28.7429820" lon="-17.9430170">
        <ele>1324.8</ele>
        <time>2020-11-16T18:21:41Z</time>
      </trkpt>
      <trkpt lat="28.7429820" lon="-17.9430170">
        <ele>1324.8</ele>
        <time>2020-11-16T18:21:42Z</time>
      </trkpt>
      <trkpt lat="28.7429670" lon="-17.9429600">
        <ele>1324.9</ele>
        <time>2020-11-16T18:21:43Z</time>
      </trkpt>
      <trkpt lat="28.7429670" lon="-17.9429600">
        <ele>1324.9</ele>
        <time>2020-11-16T18:21:44Z</time>
      </trkpt>
      <trkpt lat="28.7429480" lon="-17.9429020">
        <ele>1325.1</ele>
        <time>2020-11-16T18:21:45Z</time>
      </trkpt>
      <trkpt lat="28.7429480" lon="-17.9429020">
        <ele>1325.1</ele>
        <time>2020-11-16T18:21:46Z</time>
      </trkpt>
      <trkpt lat="28.7429270" lon="-17.9428480">
        <ele>1325.2</ele>
        <time>2020-11-16T18:21:47Z</time>
      </trkpt>
      <trkpt lat="28.7429270" lon="-17.9428480">
        <ele>1325.2</ele>
        <time>2020-11-16T18:21:48Z</time>
      </trkpt>
      <trkpt lat="28.7429000" lon="-17.9427880">
        <ele>1325.3</ele>
        <time>2020-11-16T18:21:49Z</time>
      </trkpt>
      <trkpt lat="28.7429000" lon="-17.9427880">
        <ele>1325.3</ele>
        <time>2020-11-16T18:21:50Z</time>
      </trkpt>
      <trkpt lat="28.7428780" lon="-17.9427270">
        <ele>1325.5</ele>
        <time>2020-11-16T18:21:51Z</time>
      </trkpt>
      <trkpt lat="28.7428780" lon="-17.9427270">
        <ele>1325.5</ele>
        <time>2020-11-16T18:21:52Z</time>
      </trkpt>
      <trkpt lat="28.7428550" lon="-17.9426630">
        <ele>1325.7</ele>
        <time>2020-11-16T18:21:53Z</time>
      </trkpt>
      <trkpt lat="28.7428430" lon="-17.9426320">
        <ele>1325.8</ele>
        <time>2020-11-16T18:21:54Z</time>
      </trkpt>
      <trkpt lat="28.7428430" lon="-17.9426320">
        <ele>1325.8</ele>
        <time>2020-11-16T18:21:55Z</time>
      </trkpt>
      <trkpt lat="28.7428200" lon="-17.9425830">
        <ele>1326.0</ele>
        <time>2020-11-16T18:21:56Z</time>
      </trkpt>
      <trkpt lat="28.7428200" lon="-17.9425830">
        <ele>1326.0</ele>
        <time>2020-11-16T18:21:57Z</time>
      </trkpt>
      <trkpt lat="28.7427930" lon="-17.9425300">
        <ele>1326.2</ele>
        <time>2020-11-16T18:21:58Z</time>
      </trkpt>
      <trkpt lat="28.7427930" lon="-17.9425300">
        <ele>1326.2</ele>
        <time>2020-11-16T18:21:59Z</time>
      </trkpt>
      <trkpt lat="28.7427580" lon="-17.9424720">
        <ele>1326.3</ele>
        <time>2020-11-16T18:22:00Z</time>
      </trkpt>
      <trkpt lat="28.7427580" lon="-17.9424720">
        <ele>1326.3</ele>
        <time>2020-11-16T18:22:01Z</time>
      </trkpt>
      <trkpt lat="28.7427270" lon="-17.9424030">
        <ele>1326.5</ele>
        <time>2020-11-16T18:22:02Z</time>
      </trkpt>
      <trkpt lat="28.7427270" lon="-17.9424030">
        <ele>1326.5</ele>
        <time>2020-11-16T18:22:03Z</time>
      </trkpt>
      <trkpt lat="28.7426920" lon="-17.9423400">
        <ele>1326.6</ele>
        <time>2020-11-16T18:22:04Z</time>
      </trkpt>
      <trkpt lat="28.7426920" lon="-17.9423400">
        <ele>1326.6</ele>
        <time>2020-11-16T18:22:05Z</time>
      </trkpt>
      <trkpt lat="28.7426630" lon="-17.9422650">
        <ele>1326.8</ele>
        <time>2020-11-16T18:22:06Z</time>
      </trkpt>
      <trkpt lat="28.7426520" lon="-17.9422270">
        <ele>1326.9</ele>
        <time>2020-11-16T18:22:07Z</time>
      </trkpt>
      <trkpt lat="28.7426400" lon="-17.9421880">
        <ele>1326.9</ele>
        <time>2020-11-16T18:22:08Z</time>
      </trkpt>
      <trkpt lat="28.7426400" lon="-17.9421880">
        <ele>1326.9</ele>
        <time>2020-11-16T18:22:09Z</time>
      </trkpt>
      <trkpt lat="28.7426220" lon="-17.9421100">
        <ele>1327.0</ele>
        <time>2020-11-16T18:22:10Z</time>
      </trkpt>
      <trkpt lat="28.7426220" lon="-17.9421100">
        <ele>1327.0</ele>
        <time>2020-11-16T18:22:11Z</time>
      </trkpt>
      <trkpt lat="28.7426000" lon="-17.9420220">
        <ele>1327.1</ele>
        <time>2020-11-16T18:22:12Z</time>
      </trkpt>
      <trkpt lat="28.7426000" lon="-17.9420220">
        <ele>1327.1</ele>
        <time>2020-11-16T18:22:13Z</time>
      </trkpt>
      <trkpt lat="28.7425780" lon="-17.9419400">
        <ele>1327.1</ele>
        <time>2020-11-16T18:22:14Z</time>
      </trkpt>
      <trkpt lat="28.7425780" lon="-17.9419400">
        <ele>1327.1</ele>
        <time>2020-11-16T18:22:15Z</time>
      </trkpt>
      <trkpt lat="28.7425520" lon="-17.9418580">
        <ele>1327.1</ele>
        <time>2020-11-16T18:22:16Z</time>
      </trkpt>
      <trkpt lat="28.7425520" lon="-17.9418580">
        <ele>1327.1</ele>
        <time>2020-11-16T18:22:17Z</time>
      </trkpt>
      <trkpt lat="28.7425230" lon="-17.9417730">
        <ele>1327.1</ele>
        <time>2020-11-16T18:22:18Z</time>
      </trkpt>
      <trkpt lat="28.7425230" lon="-17.9417730">
        <ele>1327.1</ele>
        <time>2020-11-16T18:22:19Z</time>
      </trkpt>
      <trkpt lat="28.7424850" lon="-17.9416880">
        <ele>1327.0</ele>
        <time>2020-11-16T18:22:20Z</time>
      </trkpt>
      <trkpt lat="28.7424850" lon="-17.9416880">
        <ele>1327.0</ele>
        <time>2020-11-16T18:22:21Z</time>
      </trkpt>
      <trkpt lat="28.7424400" lon="-17.9416130">
        <ele>1326.8</ele>
        <time>2020-11-16T18:22:22Z</time>
      </trkpt>
      <trkpt lat="28.7424400" lon="-17.9416130">
        <ele>1326.8</ele>
        <time>2020-11-16T18:22:23Z</time>
      </trkpt>
      <trkpt lat="28.7423670" lon="-17.9415720">
        <ele>1326.7</ele>
        <time>2020-11-16T18:22:24Z</time>
      </trkpt>
      <trkpt lat="28.7423670" lon="-17.9415720">
        <ele>1326.7</ele>
        <time>2020-11-16T18:22:25Z</time>
      </trkpt>
      <trkpt lat="28.7422950" lon="-17.9415820">
        <ele>1326.6</ele>
        <time>2020-11-16T18:22:26Z</time>
      </trkpt>
      <trkpt lat="28.7422950" lon="-17.9415820">
        <ele>1326.6</ele>
        <time>2020-11-16T18:22:27Z</time>
      </trkpt>
      <trkpt lat="28.7422470" lon="-17.9416250">
        <ele>1326.5</ele>
        <time>2020-11-16T18:22:28Z</time>
      </trkpt>
      <trkpt lat="28.7422220" lon="-17.9416550">
        <ele>1326.4</ele>
        <time>2020-11-16T18:22:29Z</time>
      </trkpt>
      <trkpt lat="28.7422220" lon="-17.9416550">
        <ele>1326.4</ele>
        <time>2020-11-16T18:22:30Z</time>
      </trkpt>
      <trkpt lat="28.7421820" lon="-17.9417200">
        <ele>1326.1</ele>
        <time>2020-11-16T18:22:31Z</time>
      </trkpt>
      <trkpt lat="28.7421750" lon="-17.9417570">
        <ele>1326.0</ele>
        <time>2020-11-16T18:22:32Z</time>
      </trkpt>
      <trkpt lat="28.7421750" lon="-17.9417570">
        <ele>1326.0</ele>
        <time>2020-11-16T18:22:33Z</time>
      </trkpt>
      <trkpt lat="28.7421520" lon="-17.9418480">
        <ele>1325.5</ele>
        <time>2020-11-16T18:22:34Z</time>
      </trkpt>
      <trkpt lat="28.7421520" lon="-17.9418480">
        <ele>1325.5</ele>
        <time>2020-11-16T18:22:35Z</time>
      </trkpt>
      <trkpt lat="28.7421400" lon="-17.9419530">
        <ele>1325.3</ele>
        <time>2020-11-16T18:22:36Z</time>
      </trkpt>
      <trkpt lat="28.7421400" lon="-17.9419530">
        <ele>1325.3</ele>
        <time>2020-11-16T18:22:37Z</time>
      </trkpt>
      <trkpt lat="28.7421300" lon="-17.9420480">
        <ele>1325.3</ele>
        <time>2020-11-16T18:22:38Z</time>
      </trkpt>
      <trkpt lat="28.7421300" lon="-17.9420480">
        <ele>1325.3</ele>
        <time>2020-11-16T18:22:39Z</time>
      </trkpt>
      <trkpt lat="28.7421080" lon="-17.9421350">
        <ele>1325.5</ele>
        <time>2020-11-16T18:22:40Z</time>
      </trkpt>
      <trkpt lat="28.7421080" lon="-17.9421350">
        <ele>1325.5</ele>
        <time>2020-11-16T18:22:41Z</time>
      </trkpt>
      <trkpt lat="28.7420850" lon="-17.9422320">
        <ele>1325.7</ele>
        <time>2020-11-16T18:22:42Z</time>
      </trkpt>
      <trkpt lat="28.7420850" lon="-17.9422320">
        <ele>1325.7</ele>
        <time>2020-11-16T18:22:43Z</time>
      </trkpt>
      <trkpt lat="28.7420580" lon="-17.9423200">
        <ele>1325.8</ele>
        <time>2020-11-16T18:22:44Z</time>
      </trkpt>
      <trkpt lat="28.7420580" lon="-17.9423200">
        <ele>1325.8</ele>
        <time>2020-11-16T18:22:45Z</time>
      </trkpt>
      <trkpt lat="28.7420320" lon="-17.9424150">
        <ele>1325.7</ele>
        <time>2020-11-16T18:22:46Z</time>
      </trkpt>
      <trkpt lat="28.7420320" lon="-17.9424150">
        <ele>1325.7</ele>
        <time>2020-11-16T18:22:47Z</time>
      </trkpt>
      <trkpt lat="28.7420180" lon="-17.9425220">
        <ele>1325.7</ele>
        <time>2020-11-16T18:22:48Z</time>
      </trkpt>
      <trkpt lat="28.7420180" lon="-17.9425220">
        <ele>1325.7</ele>
        <time>2020-11-16T18:22:49Z</time>
      </trkpt>
      <trkpt lat="28.7420070" lon="-17.9426220">
        <ele>1325.7</ele>
        <time>2020-11-16T18:22:50Z</time>
      </trkpt>
      <trkpt lat="28.7420070" lon="-17.9426220">
        <ele>1325.7</ele>
        <time>2020-11-16T18:22:51Z</time>
      </trkpt>
      <trkpt lat="28.7420020" lon="-17.9427300">
        <ele>1325.7</ele>
        <time>2020-11-16T18:22:52Z</time>
      </trkpt>
      <trkpt lat="28.7420020" lon="-17.9427300">
        <ele>1325.7</ele>
        <time>2020-11-16T18:22:53Z</time>
      </trkpt>
      <trkpt lat="28.7420000" lon="-17.9428320">
        <ele>1325.5</ele>
        <time>2020-11-16T18:22:54Z</time>
      </trkpt>
      <trkpt lat="28.7419970" lon="-17.9428800">
        <ele>1325.4</ele>
        <time>2020-11-16T18:22:55Z</time>
      </trkpt>
      <trkpt lat="28.7419900" lon="-17.9429170">
        <ele>1325.4</ele>
        <time>2020-11-16T18:22:56Z</time>
      </trkpt>
      <trkpt lat="28.7419900" lon="-17.9429170">
        <ele>1325.4</ele>
        <time>2020-11-16T18:22:57Z</time>
      </trkpt>
      <trkpt lat="28.7419780" lon="-17.9430030">
        <ele>1325.3</ele>
        <time>2020-11-16T18:22:58Z</time>
      </trkpt>
      <trkpt lat="28.7419780" lon="-17.9430030">
        <ele>1325.3</ele>
        <time>2020-11-16T18:22:59Z</time>
      </trkpt>
      <trkpt lat="28.7419650" lon="-17.9430950">
        <ele>1325.4</ele>
        <time>2020-11-16T18:23:00Z</time>
      </trkpt>
      <trkpt lat="28.7419650" lon="-17.9430950">
        <ele>1325.4</ele>
        <time>2020-11-16T18:23:01Z</time>
      </trkpt>
      <trkpt lat="28.7419720" lon="-17.9432250">
        <ele>1325.4</ele>
        <time>2020-11-16T18:23:02Z</time>
      </trkpt>
      <trkpt lat="28.7419770" lon="-17.9432830">
        <ele>1325.4</ele>
        <time>2020-11-16T18:23:03Z</time>
      </trkpt>
      <trkpt lat="28.7419770" lon="-17.9432830">
        <ele>1325.4</ele>
        <time>2020-11-16T18:23:04Z</time>
      </trkpt>
      <trkpt lat="28.7420050" lon="-17.9433850">
        <ele>1325.2</ele>
        <time>2020-11-16T18:23:05Z</time>
      </trkpt>
      <trkpt lat="28.7420050" lon="-17.9433850">
        <ele>1325.2</ele>
        <time>2020-11-16T18:23:06Z</time>
      </trkpt>
      <trkpt lat="28.7420220" lon="-17.9435030">
        <ele>1325.2</ele>
        <time>2020-11-16T18:23:07Z</time>
      </trkpt>
      <trkpt lat="28.7420220" lon="-17.9435030">
        <ele>1325.2</ele>
        <time>2020-11-16T18:23:08Z</time>
      </trkpt>
      <trkpt lat="28.7420100" lon="-17.9436130">
        <ele>1325.3</ele>
        <time>2020-11-16T18:23:09Z</time>
      </trkpt>
      <trkpt lat="28.7420100" lon="-17.9436130">
        <ele>1325.3</ele>
        <time>2020-11-16T18:23:10Z</time>
      </trkpt>
      <trkpt lat="28.7419950" lon="-17.9437400">
        <ele>1325.4</ele>
        <time>2020-11-16T18:23:11Z</time>
      </trkpt>
      <trkpt lat="28.7419950" lon="-17.9437400">
        <ele>1325.4</ele>
        <time>2020-11-16T18:23:12Z</time>
      </trkpt>
      <trkpt lat="28.7419700" lon="-17.9438600">
        <ele>1325.5</ele>
        <time>2020-11-16T18:23:13Z</time>
      </trkpt>
      <trkpt lat="28.7419700" lon="-17.9438600">
        <ele>1325.5</ele>
        <time>2020-11-16T18:23:14Z</time>
      </trkpt>
      <trkpt lat="28.7419230" lon="-17.9439230">
        <ele>1325.6</ele>
        <time>2020-11-16T18:23:15Z</time>
      </trkpt>
      <trkpt lat="28.7419230" lon="-17.9439230">
        <ele>1325.6</ele>
        <time>2020-11-16T18:23:16Z</time>
      </trkpt>
      <trkpt lat="28.7418570" lon="-17.9439480">
        <ele>1325.8</ele>
        <time>2020-11-16T18:23:17Z</time>
      </trkpt>
      <trkpt lat="28.7418570" lon="-17.9439480">
        <ele>1325.8</ele>
        <time>2020-11-16T18:23:18Z</time>
      </trkpt>
      <trkpt lat="28.7417820" lon="-17.9439330">
        <ele>1326.1</ele>
        <time>2020-11-16T18:23:19Z</time>
      </trkpt>
      <trkpt lat="28.7417820" lon="-17.9439330">
        <ele>1326.1</ele>
        <time>2020-11-16T18:23:20Z</time>
      </trkpt>
      <trkpt lat="28.7416950" lon="-17.9439120">
        <ele>1326.5</ele>
        <time>2020-11-16T18:23:21Z</time>
      </trkpt>
      <trkpt lat="28.7416950" lon="-17.9439120">
        <ele>1326.5</ele>
        <time>2020-11-16T18:23:22Z</time>
      </trkpt>
      <trkpt lat="28.7416020" lon="-17.9438950">
        <ele>1326.8</ele>
        <time>2020-11-16T18:23:23Z</time>
      </trkpt>
      <trkpt lat="28.7416020" lon="-17.9438950">
        <ele>1326.8</ele>
        <time>2020-11-16T18:23:24Z</time>
      </trkpt>
      <trkpt lat="28.7415170" lon="-17.9439000">
        <ele>1327.1</ele>
        <time>2020-11-16T18:23:25Z</time>
      </trkpt>
      <trkpt lat="28.7415170" lon="-17.9439000">
        <ele>1327.1</ele>
        <time>2020-11-16T18:23:26Z</time>
      </trkpt>
      <trkpt lat="28.7414380" lon="-17.9439430">
        <ele>1327.2</ele>
        <time>2020-11-16T18:23:27Z</time>
      </trkpt>
      <trkpt lat="28.7414380" lon="-17.9439430">
        <ele>1327.2</ele>
        <time>2020-11-16T18:23:28Z</time>
      </trkpt>
      <trkpt lat="28.7413970" lon="-17.9440280">
        <ele>1327.4</ele>
        <time>2020-11-16T18:23:29Z</time>
      </trkpt>
      <trkpt lat="28.7413970" lon="-17.9440280">
        <ele>1327.4</ele>
        <time>2020-11-16T18:23:30Z</time>
      </trkpt>
      <trkpt lat="28.7413620" lon="-17.9441220">
        <ele>1327.5</ele>
        <time>2020-11-16T18:23:31Z</time>
      </trkpt>
      <trkpt lat="28.7413620" lon="-17.9441220">
        <ele>1327.5</ele>
        <time>2020-11-16T18:23:32Z</time>
      </trkpt>
      <trkpt lat="28.7413270" lon="-17.9442130">
        <ele>1327.7</ele>
        <time>2020-11-16T18:23:33Z</time>
      </trkpt>
      <trkpt lat="28.7413270" lon="-17.9442130">
        <ele>1327.7</ele>
        <time>2020-11-16T18:23:34Z</time>
      </trkpt>
      <trkpt lat="28.7412870" lon="-17.9443050">
        <ele>1327.9</ele>
        <time>2020-11-16T18:23:35Z</time>
      </trkpt>
      <trkpt lat="28.7412870" lon="-17.9443050">
        <ele>1327.9</ele>
        <time>2020-11-16T18:23:36Z</time>
      </trkpt>
      <trkpt lat="28.7412280" lon="-17.9443520">
        <ele>1328.1</ele>
        <time>2020-11-16T18:23:37Z</time>
      </trkpt>
      <trkpt lat="28.7411950" lon="-17.9443720">
        <ele>1328.2</ele>
        <time>2020-11-16T18:23:38Z</time>
      </trkpt>
      <trkpt lat="28.7411950" lon="-17.9443720">
        <ele>1328.2</ele>
        <time>2020-11-16T18:23:39Z</time>
      </trkpt>
      <trkpt lat="28.7411330" lon="-17.9443950">
        <ele>1328.4</ele>
        <time>2020-11-16T18:23:40Z</time>
      </trkpt>
      <trkpt lat="28.7410900" lon="-17.9444150">
        <ele>1328.5</ele>
        <time>2020-11-16T18:23:41Z</time>
      </trkpt>
      <trkpt lat="28.7410900" lon="-17.9444150">
        <ele>1328.5</ele>
        <time>2020-11-16T18:23:42Z</time>
      </trkpt>
      <trkpt lat="28.7410180" lon="-17.9444630">
        <ele>1328.7</ele>
        <time>2020-11-16T18:23:43Z</time>
      </trkpt>
      <trkpt lat="28.7410180" lon="-17.9444630">
        <ele>1328.7</ele>
        <time>2020-11-16T18:23:44Z</time>
      </trkpt>
      <trkpt lat="28.7409630" lon="-17.9445430">
        <ele>1329.0</ele>
        <time>2020-11-16T18:23:45Z</time>
      </trkpt>
      <trkpt lat="28.7409630" lon="-17.9445430">
        <ele>1329.0</ele>
        <time>2020-11-16T18:23:46Z</time>
      </trkpt>
      <trkpt lat="28.7409270" lon="-17.9446130">
        <ele>1329.2</ele>
        <time>2020-11-16T18:23:47Z</time>
      </trkpt>
      <trkpt lat="28.7409270" lon="-17.9446130">
        <ele>1329.2</ele>
        <time>2020-11-16T18:23:48Z</time>
      </trkpt>
      <trkpt lat="28.7408970" lon="-17.9446470">
        <ele>1329.3</ele>
        <time>2020-11-16T18:23:49Z</time>
      </trkpt>
      <trkpt lat="28.7408970" lon="-17.9446470">
        <ele>1329.3</ele>
        <time>2020-11-16T18:23:50Z</time>
      </trkpt>
      <trkpt lat="28.7408650" lon="-17.9446530">
        <ele>1329.4</ele>
        <time>2020-11-16T18:23:51Z</time>
      </trkpt>
      <trkpt lat="28.7408650" lon="-17.9446530">
        <ele>1329.4</ele>
        <time>2020-11-16T18:23:52Z</time>
      </trkpt>
      <trkpt lat="28.7408270" lon="-17.9446570">
        <ele>1329.4</ele>
        <time>2020-11-16T18:23:53Z</time>
      </trkpt>
      <trkpt lat="28.7408270" lon="-17.9446570">
        <ele>1329.4</ele>
        <time>2020-11-16T18:23:54Z</time>
      </trkpt>
      <trkpt lat="28.7407880" lon="-17.9446680">
        <ele>1329.5</ele>
        <time>2020-11-16T18:23:55Z</time>
      </trkpt>
      <trkpt lat="28.7407880" lon="-17.9446680">
        <ele>1329.5</ele>
        <time>2020-11-16T18:23:56Z</time>
      </trkpt>
      <trkpt lat="28.7407600" lon="-17.9446800">
        <ele>1329.6</ele>
        <time>2020-11-16T18:23:57Z</time>
      </trkpt>
      <trkpt lat="28.7407600" lon="-17.9446800">
        <ele>1329.6</ele>
        <time>2020-11-16T18:23:58Z</time>
      </trkpt>
      <trkpt lat="28.7407250" lon="-17.9446820">
        <ele>1329.7</ele>
        <time>2020-11-16T18:23:59Z</time>
      </trkpt>
      <trkpt lat="28.7407250" lon="-17.9446820">
        <ele>1329.7</ele>
        <time>2020-11-16T18:24:00Z</time>
      </trkpt>
      <trkpt lat="28.7406820" lon="-17.9446700">
        <ele>1329.8</ele>
        <time>2020-11-16T18:24:01Z</time>
      </trkpt>
      <trkpt lat="28.7406570" lon="-17.9446630">
        <ele>1329.9</ele>
        <time>2020-11-16T18:24:02Z</time>
      </trkpt>
      <trkpt lat="28.7406570" lon="-17.9446630">
        <ele>1329.9</ele>
        <time>2020-11-16T18:24:03Z</time>
      </trkpt>
      <trkpt lat="28.7406350" lon="-17.9446630">
        <ele>1330.0</ele>
        <time>2020-11-16T18:24:04Z</time>
      </trkpt>
      <trkpt lat="28.7406350" lon="-17.9446630">
        <ele>1330.0</ele>
        <time>2020-11-16T18:24:05Z</time>
      </trkpt>
      <trkpt lat="28.7406170" lon="-17.9446820">
        <ele>1330.1</ele>
        <time>2020-11-16T18:24:06Z</time>
      </trkpt>
      <trkpt lat="28.7406170" lon="-17.9446820">
        <ele>1330.1</ele>
        <time>2020-11-16T18:24:07Z</time>
      </trkpt>
      <trkpt lat="28.7406080" lon="-17.9446900">
        <ele>1330.1</ele>
        <time>2020-11-16T18:24:08Z</time>
      </trkpt>
      <trkpt lat="28.7406080" lon="-17.9446900">
        <ele>1330.1</ele>
        <time>2020-11-16T18:24:09Z</time>
      </trkpt>
      <trkpt lat="28.7406080" lon="-17.9446900">
        <ele>1330.1</ele>
        <time>2020-11-16T18:24:10Z</time>
      </trkpt>
      <trkpt lat="28.7406080" lon="-17.9446900">
        <ele>1330.1</ele>
        <time>2020-11-16T18:24:48Z</time>
      </trkpt>
      <trkpt lat="28.7406080" lon="-17.9446900">
        <ele>1330.1</ele>
        <time>2020-11-16T18:24:49Z</time>
      </trkpt>
      <trkpt lat="28.7406600" lon="-17.9447480">
        <ele>1330.5</ele>
        <time>2020-11-16T18:24:50Z</time>
      </trkpt>
      <trkpt lat="28.7406600" lon="-17.9447480">
        <ele>1330.5</ele>
        <time>2020-11-16T18:24:51Z</time>
      </trkpt>
      <trkpt lat="28.7406950" lon="-17.9447580">
        <ele>1330.7</ele>
        <time>2020-11-16T18:24:52Z</time>
      </trkpt>
      <trkpt lat="28.7406950" lon="-17.9447580">
        <ele>1330.7</ele>
        <time>2020-11-16T18:24:53Z</time>
      </trkpt>
      <trkpt lat="28.7407500" lon="-17.9447580">
        <ele>1331.1</ele>
        <time>2020-11-16T18:24:54Z</time>
      </trkpt>
      <trkpt lat="28.7407500" lon="-17.9447580">
        <ele>1331.1</ele>
        <time>2020-11-16T18:24:55Z</time>
      </trkpt>
      <trkpt lat="28.7407920" lon="-17.9447500">
        <ele>1331.3</ele>
        <time>2020-11-16T18:24:56Z</time>
      </trkpt>
      <trkpt lat="28.7407920" lon="-17.9447500">
        <ele>1331.3</ele>
        <time>2020-11-16T18:24:57Z</time>
      </trkpt>
      <trkpt lat="28.7408270" lon="-17.9447450">
        <ele>1331.5</ele>
        <time>2020-11-16T18:24:58Z</time>
      </trkpt>
      <trkpt lat="28.7408270" lon="-17.9447450">
        <ele>1331.5</ele>
        <time>2020-11-16T18:24:59Z</time>
      </trkpt>
      <trkpt lat="28.7408600" lon="-17.9447420">
        <ele>1331.7</ele>
        <time>2020-11-16T18:25:00Z</time>
      </trkpt>
      <trkpt lat="28.7408600" lon="-17.9447420">
        <ele>1331.7</ele>
        <time>2020-11-16T18:25:01Z</time>
      </trkpt>
      <trkpt lat="28.7408880" lon="-17.9447500">
        <ele>1331.1</ele>
        <time>2020-11-16T18:25:02Z</time>
      </trkpt>
      <trkpt lat="28.7408880" lon="-17.9447500">
        <ele>1331.1</ele>
        <time>2020-11-16T18:25:03Z</time>
      </trkpt>
      <trkpt lat="28.7409120" lon="-17.9447550">
        <ele>1330.6</ele>
        <time>2020-11-16T18:25:04Z</time>
      </trkpt>
      <trkpt lat="28.7409120" lon="-17.9447550">
        <ele>1330.6</ele>
        <time>2020-11-16T18:25:05Z</time>
      </trkpt>
      <trkpt lat="28.7409230" lon="-17.9447580">
        <ele>1330.4</ele>
        <time>2020-11-16T18:25:06Z</time>
      </trkpt>
      <trkpt lat="28.7409230" lon="-17.9447580">
        <ele>1330.4</ele>
        <time>2020-11-16T18:25:07Z</time>
      </trkpt>
      <trkpt lat="28.7409230" lon="-17.9447600">
        <ele>1330.4</ele>
        <time>2020-11-16T18:25:08Z</time>
      </trkpt>
      <trkpt lat="28.7409230" lon="-17.9447600">
        <ele>1330.4</ele>
        <time>2020-11-16T18:25:35Z</time>
      </trkpt>
      <trkpt lat="28.7409330" lon="-17.9447830">
        <ele>1330.0</ele>
        <time>2020-11-16T18:25:48Z</time>
      </trkpt>
      <trkpt lat="28.7409330" lon="-17.9447830">
        <ele>1330.0</ele>
        <time>2020-11-16T18:25:49Z</time>
      </trkpt>
      <trkpt lat="28.7409150" lon="-17.9448480">
        <ele>1328.8</ele>
        <time>2020-11-16T18:25:50Z</time>
      </trkpt>
      <trkpt lat="28.7409020" lon="-17.9448650">
        <ele>1328.4</ele>
        <time>2020-11-16T18:25:51Z</time>
      </trkpt>
      <trkpt lat="28.7409020" lon="-17.9448650">
        <ele>1328.4</ele>
        <time>2020-11-16T18:25:52Z</time>
      </trkpt>
      <trkpt lat="28.7408630" lon="-17.9448970">
        <ele>1327.5</ele>
        <time>2020-11-16T18:25:53Z</time>
      </trkpt>
      <trkpt lat="28.7408450" lon="-17.9449100">
        <ele>1327.1</ele>
        <time>2020-11-16T18:25:54Z</time>
      </trkpt>
      <trkpt lat="28.7408450" lon="-17.9449100">
        <ele>1327.1</ele>
        <time>2020-11-16T18:25:55Z</time>
      </trkpt>
      <trkpt lat="28.7408000" lon="-17.9449330">
        <ele>1322.9</ele>
        <time>2020-11-16T18:25:56Z</time>
      </trkpt>
      <trkpt lat="28.7408000" lon="-17.9449330">
        <ele>1322.9</ele>
        <time>2020-11-16T18:25:57Z</time>
      </trkpt>
      <trkpt lat="28.7407480" lon="-17.9449420">
        <ele>1322.5</ele>
        <time>2020-11-16T18:25:58Z</time>
      </trkpt>
      <trkpt lat="28.7407480" lon="-17.9449420">
        <ele>1322.5</ele>
        <time>2020-11-16T18:25:59Z</time>
      </trkpt>
      <trkpt lat="28.7407020" lon="-17.9449400">
        <ele>1322.2</ele>
        <time>2020-11-16T18:26:00Z</time>
      </trkpt>
      <trkpt lat="28.7407020" lon="-17.9449400">
        <ele>1322.2</ele>
        <time>2020-11-16T18:26:01Z</time>
      </trkpt>
      <trkpt lat="28.7406620" lon="-17.9449200">
        <ele>1321.9</ele>
        <time>2020-11-16T18:26:02Z</time>
      </trkpt>
      <trkpt lat="28.7406620" lon="-17.9449200">
        <ele>1321.9</ele>
        <time>2020-11-16T18:26:03Z</time>
      </trkpt>
      <trkpt lat="28.7406270" lon="-17.9449020">
        <ele>1321.6</ele>
        <time>2020-11-16T18:26:04Z</time>
      </trkpt>
      <trkpt lat="28.7406270" lon="-17.9449020">
        <ele>1321.6</ele>
        <time>2020-11-16T18:26:05Z</time>
      </trkpt>
      <trkpt lat="28.7405930" lon="-17.9448720">
        <ele>1321.3</ele>
        <time>2020-11-16T18:26:06Z</time>
      </trkpt>
      <trkpt lat="28.7405930" lon="-17.9448720">
        <ele>1321.3</ele>
        <time>2020-11-16T18:26:07Z</time>
      </trkpt>
      <trkpt lat="28.7405630" lon="-17.9448430">
        <ele>1321.0</ele>
        <time>2020-11-16T18:26:08Z</time>
      </trkpt>
      <trkpt lat="28.7405630" lon="-17.9448430">
        <ele>1321.0</ele>
        <time>2020-11-16T18:26:09Z</time>
      </trkpt>
      <trkpt lat="28.7405420" lon="-17.9448230">
        <ele>1320.8</ele>
        <time>2020-11-16T18:26:10Z</time>
      </trkpt>
      <trkpt lat="28.7405420" lon="-17.9448230">
        <ele>1320.8</ele>
        <time>2020-11-16T18:26:11Z</time>
      </trkpt>
      <trkpt lat="28.7405150" lon="-17.9448030">
        <ele>1320.6</ele>
        <time>2020-11-16T18:26:12Z</time>
      </trkpt>
      <trkpt lat="28.7405150" lon="-17.9448030">
        <ele>1320.6</ele>
        <time>2020-11-16T18:26:13Z</time>
      </trkpt>
      <trkpt lat="28.7405000" lon="-17.9447850">
        <ele>1320.4</ele>
        <time>2020-11-16T18:26:14Z</time>
      </trkpt>
      <trkpt lat="28.7405000" lon="-17.9447850">
        <ele>1320.4</ele>
        <time>2020-11-16T18:26:15Z</time>
      </trkpt>
      <trkpt lat="28.7404950" lon="-17.9447800">
        <ele>1320.4</ele>
        <time>2020-11-16T18:26:16Z</time>
      </trkpt>
      <trkpt lat="28.7404950" lon="-17.9447800">
        <ele>1320.4</ele>
        <time>2020-11-16T18:26:24Z</time>
      </trkpt>
      <trkpt lat="28.7404950" lon="-17.9447800">
        <ele>1320.4</ele>
        <time>2020-11-16T18:26:25Z</time>
      </trkpt>
      <trkpt lat="28.7404100" lon="-17.9446770">
        <ele>1319.5</ele>
        <time>2020-11-16T18:26:26Z</time>
      </trkpt>
      <trkpt lat="28.7404100" lon="-17.9446770">
        <ele>1319.5</ele>
        <time>2020-11-16T18:26:27Z</time>
      </trkpt>
      <trkpt lat="28.7403780" lon="-17.9446280">
        <ele>1319.1</ele>
        <time>2020-11-16T18:26:28Z</time>
      </trkpt>
      <trkpt lat="28.7403780" lon="-17.9446280">
        <ele>1319.1</ele>
        <time>2020-11-16T18:26:29Z</time>
      </trkpt>
      <trkpt lat="28.7403330" lon="-17.9445680">
        <ele>1318.7</ele>
        <time>2020-11-16T18:26:30Z</time>
      </trkpt>
      <trkpt lat="28.7403330" lon="-17.9445680">
        <ele>1318.7</ele>
        <time>2020-11-16T18:26:31Z</time>
      </trkpt>
      <trkpt lat="28.7402770" lon="-17.9444970">
        <ele>1318.1</ele>
        <time>2020-11-16T18:26:32Z</time>
      </trkpt>
      <trkpt lat="28.7402770" lon="-17.9444970">
        <ele>1318.1</ele>
        <time>2020-11-16T18:26:33Z</time>
      </trkpt>
      <trkpt lat="28.7401880" lon="-17.9443980">
        <ele>1317.2</ele>
        <time>2020-11-16T18:26:34Z</time>
      </trkpt>
      <trkpt lat="28.7401880" lon="-17.9443980">
        <ele>1317.2</ele>
        <time>2020-11-16T18:26:35Z</time>
      </trkpt>
      <trkpt lat="28.7401220" lon="-17.9443130">
        <ele>1316.5</ele>
        <time>2020-11-16T18:26:36Z</time>
      </trkpt>
      <trkpt lat="28.7401220" lon="-17.9443130">
        <ele>1316.5</ele>
        <time>2020-11-16T18:26:37Z</time>
      </trkpt>
      <trkpt lat="28.7400530" lon="-17.9442230">
        <ele>1315.7</ele>
        <time>2020-11-16T18:26:38Z</time>
      </trkpt>
      <trkpt lat="28.7400530" lon="-17.9442230">
        <ele>1315.7</ele>
        <time>2020-11-16T18:26:39Z</time>
      </trkpt>
      <trkpt lat="28.7399970" lon="-17.9441250">
        <ele>1315.0</ele>
        <time>2020-11-16T18:26:40Z</time>
      </trkpt>
      <trkpt lat="28.7399970" lon="-17.9441250">
        <ele>1315.0</ele>
        <time>2020-11-16T18:26:41Z</time>
      </trkpt>
      <trkpt lat="28.7399280" lon="-17.9440420">
        <ele>1314.3</ele>
        <time>2020-11-16T18:26:42Z</time>
      </trkpt>
      <trkpt lat="28.7398780" lon="-17.9440170">
        <ele>1313.9</ele>
        <time>2020-11-16T18:26:43Z</time>
      </trkpt>
      <trkpt lat="28.7398780" lon="-17.9440170">
        <ele>1313.9</ele>
        <time>2020-11-16T18:26:44Z</time>
      </trkpt>
      <trkpt lat="28.7397800" lon="-17.9440050">
        <ele>1313.2</ele>
        <time>2020-11-16T18:26:45Z</time>
      </trkpt>
      <trkpt lat="28.7397800" lon="-17.9440050">
        <ele>1313.2</ele>
        <time>2020-11-16T18:26:46Z</time>
      </trkpt>
      <trkpt lat="28.7396800" lon="-17.9440400">
        <ele>1312.5</ele>
        <time>2020-11-16T18:26:47Z</time>
      </trkpt>
      <trkpt lat="28.7396800" lon="-17.9440400">
        <ele>1312.5</ele>
        <time>2020-11-16T18:26:48Z</time>
      </trkpt>
      <trkpt lat="28.7395870" lon="-17.9441000">
        <ele>1311.7</ele>
        <time>2020-11-16T18:26:49Z</time>
      </trkpt>
      <trkpt lat="28.7395870" lon="-17.9441000">
        <ele>1311.7</ele>
        <time>2020-11-16T18:26:50Z</time>
      </trkpt>
      <trkpt lat="28.7395070" lon="-17.9441780">
        <ele>1311.0</ele>
        <time>2020-11-16T18:26:51Z</time>
      </trkpt>
      <trkpt lat="28.7395070" lon="-17.9441780">
        <ele>1311.0</ele>
        <time>2020-11-16T18:26:52Z</time>
      </trkpt>
      <trkpt lat="28.7394200" lon="-17.9442420">
        <ele>1310.3</ele>
        <time>2020-11-16T18:26:53Z</time>
      </trkpt>
      <trkpt lat="28.7393820" lon="-17.9442750">
        <ele>1309.9</ele>
        <time>2020-11-16T18:26:54Z</time>
      </trkpt>
      <trkpt lat="28.7393820" lon="-17.9442750">
        <ele>1309.9</ele>
        <time>2020-11-16T18:26:55Z</time>
      </trkpt>
      <trkpt lat="28.7393170" lon="-17.9443670">
        <ele>1309.2</ele>
        <time>2020-11-16T18:26:56Z</time>
      </trkpt>
      <trkpt lat="28.7393170" lon="-17.9443670">
        <ele>1309.2</ele>
        <time>2020-11-16T18:26:57Z</time>
      </trkpt>
      <trkpt lat="28.7392600" lon="-17.9444800">
        <ele>1308.4</ele>
        <time>2020-11-16T18:26:58Z</time>
      </trkpt>
      <trkpt lat="28.7392600" lon="-17.9444800">
        <ele>1308.4</ele>
        <time>2020-11-16T18:26:59Z</time>
      </trkpt>
      <trkpt lat="28.7392170" lon="-17.9446030">
        <ele>1307.6</ele>
        <time>2020-11-16T18:27:00Z</time>
      </trkpt>
      <trkpt lat="28.7392170" lon="-17.9446030">
        <ele>1307.6</ele>
        <time>2020-11-16T18:27:01Z</time>
      </trkpt>
      <trkpt lat="28.7391750" lon="-17.9447280">
        <ele>1306.7</ele>
        <time>2020-11-16T18:27:02Z</time>
      </trkpt>
      <trkpt lat="28.7391750" lon="-17.9447280">
        <ele>1306.7</ele>
        <time>2020-11-16T18:27:03Z</time>
      </trkpt>
      <trkpt lat="28.7391580" lon="-17.9448570">
        <ele>1305.9</ele>
        <time>2020-11-16T18:27:04Z</time>
      </trkpt>
      <trkpt lat="28.7391580" lon="-17.9448570">
        <ele>1305.9</ele>
        <time>2020-11-16T18:27:05Z</time>
      </trkpt>
      <trkpt lat="28.7391630" lon="-17.9449830">
        <ele>1305.2</ele>
        <time>2020-11-16T18:27:06Z</time>
      </trkpt>
      <trkpt lat="28.7391630" lon="-17.9449830">
        <ele>1305.2</ele>
        <time>2020-11-16T18:27:07Z</time>
      </trkpt>
      <trkpt lat="28.7391700" lon="-17.9450950">
        <ele>1304.5</ele>
        <time>2020-11-16T18:27:08Z</time>
      </trkpt>
      <trkpt lat="28.7391730" lon="-17.9451570">
        <ele>1304.1</ele>
        <time>2020-11-16T18:27:09Z</time>
      </trkpt>
      <trkpt lat="28.7391730" lon="-17.9451570">
        <ele>1304.1</ele>
        <time>2020-11-16T18:27:10Z</time>
      </trkpt>
      <trkpt lat="28.7391920" lon="-17.9452880">
        <ele>1303.3</ele>
        <time>2020-11-16T18:27:11Z</time>
      </trkpt>
      <trkpt lat="28.7391980" lon="-17.9453570">
        <ele>1302.8</ele>
        <time>2020-11-16T18:27:12Z</time>
      </trkpt>
      <trkpt lat="28.7391980" lon="-17.9453570">
        <ele>1302.8</ele>
        <time>2020-11-16T18:27:13Z</time>
      </trkpt>
      <trkpt lat="28.7392080" lon="-17.9454920">
        <ele>1302.0</ele>
        <time>2020-11-16T18:27:14Z</time>
      </trkpt>
      <trkpt lat="28.7392080" lon="-17.9454920">
        <ele>1302.0</ele>
        <time>2020-11-16T18:27:15Z</time>
      </trkpt>
      <trkpt lat="28.7392150" lon="-17.9456120">
        <ele>1301.2</ele>
        <time>2020-11-16T18:27:16Z</time>
      </trkpt>
      <trkpt lat="28.7392150" lon="-17.9456120">
        <ele>1301.2</ele>
        <time>2020-11-16T18:27:17Z</time>
      </trkpt>
      <trkpt lat="28.7392430" lon="-17.9457470">
        <ele>1300.4</ele>
        <time>2020-11-16T18:27:18Z</time>
      </trkpt>
      <trkpt lat="28.7392430" lon="-17.9457470">
        <ele>1300.4</ele>
        <time>2020-11-16T18:27:19Z</time>
      </trkpt>
      <trkpt lat="28.7392320" lon="-17.9458830">
        <ele>1299.5</ele>
        <time>2020-11-16T18:27:20Z</time>
      </trkpt>
      <trkpt lat="28.7392320" lon="-17.9458830">
        <ele>1299.5</ele>
        <time>2020-11-16T18:27:21Z</time>
      </trkpt>
      <trkpt lat="28.7392020" lon="-17.9460080">
        <ele>1298.7</ele>
        <time>2020-11-16T18:27:22Z</time>
      </trkpt>
      <trkpt lat="28.7392020" lon="-17.9460080">
        <ele>1298.7</ele>
        <time>2020-11-16T18:27:23Z</time>
      </trkpt>
      <trkpt lat="28.7391630" lon="-17.9461250">
        <ele>1298.0</ele>
        <time>2020-11-16T18:27:24Z</time>
      </trkpt>
      <trkpt lat="28.7391630" lon="-17.9461250">
        <ele>1298.0</ele>
        <time>2020-11-16T18:27:25Z</time>
      </trkpt>
      <trkpt lat="28.7390930" lon="-17.9462350">
        <ele>1297.1</ele>
        <time>2020-11-16T18:27:26Z</time>
      </trkpt>
      <trkpt lat="28.7390930" lon="-17.9462350">
        <ele>1297.1</ele>
        <time>2020-11-16T18:27:27Z</time>
      </trkpt>
      <trkpt lat="28.7390250" lon="-17.9463220">
        <ele>1296.4</ele>
        <time>2020-11-16T18:27:28Z</time>
      </trkpt>
      <trkpt lat="28.7390250" lon="-17.9463220">
        <ele>1296.4</ele>
        <time>2020-11-16T18:27:29Z</time>
      </trkpt>
      <trkpt lat="28.7389720" lon="-17.9463930">
        <ele>1295.8</ele>
        <time>2020-11-16T18:27:30Z</time>
      </trkpt>
      <trkpt lat="28.7389720" lon="-17.9463930">
        <ele>1295.8</ele>
        <time>2020-11-16T18:27:31Z</time>
      </trkpt>
      <trkpt lat="28.7389070" lon="-17.9464570">
        <ele>1295.2</ele>
        <time>2020-11-16T18:27:32Z</time>
      </trkpt>
      <trkpt lat="28.7389070" lon="-17.9464570">
        <ele>1295.2</ele>
        <time>2020-11-16T18:27:33Z</time>
      </trkpt>
      <trkpt lat="28.7388180" lon="-17.9464900">
        <ele>1294.6</ele>
        <time>2020-11-16T18:27:34Z</time>
      </trkpt>
      <trkpt lat="28.7387870" lon="-17.9465000">
        <ele>1294.3</ele>
        <time>2020-11-16T18:27:35Z</time>
      </trkpt>
      <trkpt lat="28.7387870" lon="-17.9465000">
        <ele>1294.3</ele>
        <time>2020-11-16T18:27:36Z</time>
      </trkpt>
      <trkpt lat="28.7387070" lon="-17.9465270">
        <ele>1293.7</ele>
        <time>2020-11-16T18:27:37Z</time>
      </trkpt>
      <trkpt lat="28.7387070" lon="-17.9465270">
        <ele>1293.7</ele>
        <time>2020-11-16T18:27:38Z</time>
      </trkpt>
      <trkpt lat="28.7386320" lon="-17.9465680">
        <ele>1293.2</ele>
        <time>2020-11-16T18:27:39Z</time>
      </trkpt>
      <trkpt lat="28.7386320" lon="-17.9465680">
        <ele>1293.2</ele>
        <time>2020-11-16T18:27:40Z</time>
      </trkpt>
      <trkpt lat="28.7385680" lon="-17.9466320">
        <ele>1292.6</ele>
        <time>2020-11-16T18:27:41Z</time>
      </trkpt>
      <trkpt lat="28.7385680" lon="-17.9466320">
        <ele>1292.6</ele>
        <time>2020-11-16T18:27:42Z</time>
      </trkpt>
      <trkpt lat="28.7384980" lon="-17.9467020">
        <ele>1291.9</ele>
        <time>2020-11-16T18:27:43Z</time>
      </trkpt>
      <trkpt lat="28.7384980" lon="-17.9467020">
        <ele>1291.9</ele>
        <time>2020-11-16T18:27:44Z</time>
      </trkpt>
      <trkpt lat="28.7384270" lon="-17.9467570">
        <ele>1291.3</ele>
        <time>2020-11-16T18:27:45Z</time>
      </trkpt>
      <trkpt lat="28.7384270" lon="-17.9467570">
        <ele>1291.3</ele>
        <time>2020-11-16T18:27:46Z</time>
      </trkpt>
      <trkpt lat="28.7383400" lon="-17.9467820">
        <ele>1290.7</ele>
        <time>2020-11-16T18:27:47Z</time>
      </trkpt>
      <trkpt lat="28.7383400" lon="-17.9467820">
        <ele>1290.7</ele>
        <time>2020-11-16T18:27:48Z</time>
      </trkpt>
      <trkpt lat="28.7382550" lon="-17.9467850">
        <ele>1290.1</ele>
        <time>2020-11-16T18:27:49Z</time>
      </trkpt>
      <trkpt lat="28.7382550" lon="-17.9467850">
        <ele>1290.1</ele>
        <time>2020-11-16T18:27:50Z</time>
      </trkpt>
      <trkpt lat="28.7381680" lon="-17.9467630">
        <ele>1289.4</ele>
        <time>2020-11-16T18:27:51Z</time>
      </trkpt>
      <trkpt lat="28.7381680" lon="-17.9467630">
        <ele>1289.4</ele>
        <time>2020-11-16T18:27:52Z</time>
      </trkpt>
      <trkpt lat="28.7380800" lon="-17.9467480">
        <ele>1288.8</ele>
        <time>2020-11-16T18:27:53Z</time>
      </trkpt>
      <trkpt lat="28.7380800" lon="-17.9467480">
        <ele>1288.8</ele>
        <time>2020-11-16T18:27:54Z</time>
      </trkpt>
      <trkpt lat="28.7379900" lon="-17.9467330">
        <ele>1288.2</ele>
        <time>2020-11-16T18:27:55Z</time>
      </trkpt>
      <trkpt lat="28.7379900" lon="-17.9467330">
        <ele>1288.2</ele>
        <time>2020-11-16T18:27:56Z</time>
      </trkpt>
      <trkpt lat="28.7379130" lon="-17.9466930">
        <ele>1287.6</ele>
        <time>2020-11-16T18:27:57Z</time>
      </trkpt>
      <trkpt lat="28.7378580" lon="-17.9466380">
        <ele>1287.1</ele>
        <time>2020-11-16T18:27:58Z</time>
      </trkpt>
      <trkpt lat="28.7378580" lon="-17.9466380">
        <ele>1287.1</ele>
        <time>2020-11-16T18:27:59Z</time>
      </trkpt>
      <trkpt lat="28.7378400" lon="-17.9466000">
        <ele>1286.8</ele>
        <time>2020-11-16T18:28:00Z</time>
      </trkpt>
      <trkpt lat="28.7378400" lon="-17.9466000">
        <ele>1286.8</ele>
        <time>2020-11-16T18:28:01Z</time>
      </trkpt>
      <trkpt lat="28.7378100" lon="-17.9465180">
        <ele>1286.2</ele>
        <time>2020-11-16T18:28:02Z</time>
      </trkpt>
      <trkpt lat="28.7378100" lon="-17.9465180">
        <ele>1286.2</ele>
        <time>2020-11-16T18:28:03Z</time>
      </trkpt>
      <trkpt lat="28.7378130" lon="-17.9464370">
        <ele>1285.7</ele>
        <time>2020-11-16T18:28:04Z</time>
      </trkpt>
      <trkpt lat="28.7378130" lon="-17.9464370">
        <ele>1285.7</ele>
        <time>2020-11-16T18:28:05Z</time>
      </trkpt>
      <trkpt lat="28.7378380" lon="-17.9463500">
        <ele>1285.2</ele>
        <time>2020-11-16T18:28:06Z</time>
      </trkpt>
      <trkpt lat="28.7378380" lon="-17.9463500">
        <ele>1285.2</ele>
        <time>2020-11-16T18:28:07Z</time>
      </trkpt>
      <trkpt lat="28.7378380" lon="-17.9462620">
        <ele>1284.6</ele>
        <time>2020-11-16T18:28:08Z</time>
      </trkpt>
      <trkpt lat="28.7378380" lon="-17.9462620">
        <ele>1284.6</ele>
        <time>2020-11-16T18:28:09Z</time>
      </trkpt>
      <trkpt lat="28.7378900" lon="-17.9461700">
        <ele>1283.9</ele>
        <time>2020-11-16T18:28:10Z</time>
      </trkpt>
      <trkpt lat="28.7378900" lon="-17.9461700">
        <ele>1283.9</ele>
        <time>2020-11-16T18:28:11Z</time>
      </trkpt>
      <trkpt lat="28.7379120" lon="-17.9460700">
        <ele>1283.3</ele>
        <time>2020-11-16T18:28:12Z</time>
      </trkpt>
      <trkpt lat="28.7379120" lon="-17.9460700">
        <ele>1283.3</ele>
        <time>2020-11-16T18:28:13Z</time>
      </trkpt>
      <trkpt lat="28.7379250" lon="-17.9459650">
        <ele>1282.7</ele>
        <time>2020-11-16T18:28:14Z</time>
      </trkpt>
      <trkpt lat="28.7379250" lon="-17.9459650">
        <ele>1282.7</ele>
        <time>2020-11-16T18:28:15Z</time>
      </trkpt>
      <trkpt lat="28.7378970" lon="-17.9458700">
        <ele>1282.0</ele>
        <time>2020-11-16T18:28:16Z</time>
      </trkpt>
      <trkpt lat="28.7378970" lon="-17.9458700">
        <ele>1282.0</ele>
        <time>2020-11-16T18:28:17Z</time>
      </trkpt>
      <trkpt lat="28.7378280" lon="-17.9458230">
        <ele>1281.5</ele>
        <time>2020-11-16T18:28:18Z</time>
      </trkpt>
      <trkpt lat="28.7378280" lon="-17.9458230">
        <ele>1281.5</ele>
        <time>2020-11-16T18:28:19Z</time>
      </trkpt>
      <trkpt lat="28.7377600" lon="-17.9458220">
        <ele>1281.0</ele>
        <time>2020-11-16T18:28:20Z</time>
      </trkpt>
      <trkpt lat="28.7377600" lon="-17.9458220">
        <ele>1281.0</ele>
        <time>2020-11-16T18:28:21Z</time>
      </trkpt>
      <trkpt lat="28.7376870" lon="-17.9458330">
        <ele>1280.5</ele>
        <time>2020-11-16T18:28:22Z</time>
      </trkpt>
      <trkpt lat="28.7376870" lon="-17.9458330">
        <ele>1280.5</ele>
        <time>2020-11-16T18:28:23Z</time>
      </trkpt>
      <trkpt lat="28.7376000" lon="-17.9458550">
        <ele>1279.8</ele>
        <time>2020-11-16T18:28:24Z</time>
      </trkpt>
      <trkpt lat="28.7376000" lon="-17.9458550">
        <ele>1279.8</ele>
        <time>2020-11-16T18:28:25Z</time>
      </trkpt>
      <trkpt lat="28.7375170" lon="-17.9458830">
        <ele>1279.2</ele>
        <time>2020-11-16T18:28:26Z</time>
      </trkpt>
      <trkpt lat="28.7375170" lon="-17.9458830">
        <ele>1279.2</ele>
        <time>2020-11-16T18:28:27Z</time>
      </trkpt>
      <trkpt lat="28.7374320" lon="-17.9459220">
        <ele>1278.6</ele>
        <time>2020-11-16T18:28:28Z</time>
      </trkpt>
      <trkpt lat="28.7374320" lon="-17.9459220">
        <ele>1278.6</ele>
        <time>2020-11-16T18:28:29Z</time>
      </trkpt>
      <trkpt lat="28.7373380" lon="-17.9459470">
        <ele>1277.9</ele>
        <time>2020-11-16T18:28:30Z</time>
      </trkpt>
      <trkpt lat="28.7373380" lon="-17.9459470">
        <ele>1277.9</ele>
        <time>2020-11-16T18:28:31Z</time>
      </trkpt>
      <trkpt lat="28.7372480" lon="-17.9459580">
        <ele>1277.3</ele>
        <time>2020-11-16T18:28:32Z</time>
      </trkpt>
      <trkpt lat="28.7372480" lon="-17.9459580">
        <ele>1277.3</ele>
        <time>2020-11-16T18:28:33Z</time>
      </trkpt>
      <trkpt lat="28.7371550" lon="-17.9459470">
        <ele>1276.6</ele>
        <time>2020-11-16T18:28:34Z</time>
      </trkpt>
      <trkpt lat="28.7371550" lon="-17.9459470">
        <ele>1276.6</ele>
        <time>2020-11-16T18:28:35Z</time>
      </trkpt>
      <trkpt lat="28.7370520" lon="-17.9459280">
        <ele>1275.9</ele>
        <time>2020-11-16T18:28:36Z</time>
      </trkpt>
      <trkpt lat="28.7370520" lon="-17.9459280">
        <ele>1275.9</ele>
        <time>2020-11-16T18:28:37Z</time>
      </trkpt>
      <trkpt lat="28.7369370" lon="-17.9459070">
        <ele>1275.0</ele>
        <time>2020-11-16T18:28:38Z</time>
      </trkpt>
      <trkpt lat="28.7368980" lon="-17.9458900">
        <ele>1274.8</ele>
        <time>2020-11-16T18:28:39Z</time>
      </trkpt>
      <trkpt lat="28.7368980" lon="-17.9458900">
        <ele>1274.8</ele>
        <time>2020-11-16T18:28:40Z</time>
      </trkpt>
      <trkpt lat="28.7368520" lon="-17.9458300">
        <ele>1274.3</ele>
        <time>2020-11-16T18:28:41Z</time>
      </trkpt>
      <trkpt lat="28.7368520" lon="-17.9458300">
        <ele>1274.3</ele>
        <time>2020-11-16T18:28:42Z</time>
      </trkpt>
      <trkpt lat="28.7368180" lon="-17.9457600">
        <ele>1273.8</ele>
        <time>2020-11-16T18:28:43Z</time>
      </trkpt>
      <trkpt lat="28.7368180" lon="-17.9457600">
        <ele>1273.8</ele>
        <time>2020-11-16T18:28:44Z</time>
      </trkpt>
      <trkpt lat="28.7367900" lon="-17.9456850">
        <ele>1273.3</ele>
        <time>2020-11-16T18:28:45Z</time>
      </trkpt>
      <trkpt lat="28.7367900" lon="-17.9456850">
        <ele>1273.3</ele>
        <time>2020-11-16T18:28:46Z</time>
      </trkpt>
      <trkpt lat="28.7367520" lon="-17.9456000">
        <ele>1272.7</ele>
        <time>2020-11-16T18:28:47Z</time>
      </trkpt>
      <trkpt lat="28.7367520" lon="-17.9456000">
        <ele>1272.7</ele>
        <time>2020-11-16T18:28:48Z</time>
      </trkpt>
      <trkpt lat="28.7367150" lon="-17.9455080">
        <ele>1272.0</ele>
        <time>2020-11-16T18:28:49Z</time>
      </trkpt>
      <trkpt lat="28.7367150" lon="-17.9455080">
        <ele>1272.0</ele>
        <time>2020-11-16T18:28:50Z</time>
      </trkpt>
      <trkpt lat="28.7366750" lon="-17.9454170">
        <ele>1271.4</ele>
        <time>2020-11-16T18:28:51Z</time>
      </trkpt>
      <trkpt lat="28.7366750" lon="-17.9454170">
        <ele>1271.4</ele>
        <time>2020-11-16T18:28:52Z</time>
      </trkpt>
      <trkpt lat="28.7366480" lon="-17.9453400">
        <ele>1270.9</ele>
        <time>2020-11-16T18:28:53Z</time>
      </trkpt>
      <trkpt lat="28.7366480" lon="-17.9453400">
        <ele>1270.9</ele>
        <time>2020-11-16T18:28:54Z</time>
      </trkpt>
      <trkpt lat="28.7366180" lon="-17.9452700">
        <ele>1270.4</ele>
        <time>2020-11-16T18:28:55Z</time>
      </trkpt>
      <trkpt lat="28.7366180" lon="-17.9452700">
        <ele>1270.4</ele>
        <time>2020-11-16T18:28:56Z</time>
      </trkpt>
      <trkpt lat="28.7365820" lon="-17.9452020">
        <ele>1269.9</ele>
        <time>2020-11-16T18:28:57Z</time>
      </trkpt>
      <trkpt lat="28.7365820" lon="-17.9452020">
        <ele>1269.9</ele>
        <time>2020-11-16T18:28:58Z</time>
      </trkpt>
      <trkpt lat="28.7365520" lon="-17.9451300">
        <ele>1269.4</ele>
        <time>2020-11-16T18:28:59Z</time>
      </trkpt>
      <trkpt lat="28.7365520" lon="-17.9451300">
        <ele>1269.4</ele>
        <time>2020-11-16T18:29:00Z</time>
      </trkpt>
      <trkpt lat="28.7365350" lon="-17.9450470">
        <ele>1268.9</ele>
        <time>2020-11-16T18:29:01Z</time>
      </trkpt>
      <trkpt lat="28.7365300" lon="-17.9450020">
        <ele>1268.6</ele>
        <time>2020-11-16T18:29:02Z</time>
      </trkpt>
      <trkpt lat="28.7365300" lon="-17.9450020">
        <ele>1268.6</ele>
        <time>2020-11-16T18:29:03Z</time>
      </trkpt>
      <trkpt lat="28.7365180" lon="-17.9449150">
        <ele>1268.1</ele>
        <time>2020-11-16T18:29:04Z</time>
      </trkpt>
      <trkpt lat="28.7365180" lon="-17.9449150">
        <ele>1268.1</ele>
        <time>2020-11-16T18:29:05Z</time>
      </trkpt>
      <trkpt lat="28.7364830" lon="-17.9448430">
        <ele>1267.6</ele>
        <time>2020-11-16T18:29:06Z</time>
      </trkpt>
      <trkpt lat="28.7364830" lon="-17.9448430">
        <ele>1267.6</ele>
        <time>2020-11-16T18:29:07Z</time>
      </trkpt>
      <trkpt lat="28.7364020" lon="-17.9448170">
        <ele>1267.0</ele>
        <time>2020-11-16T18:29:08Z</time>
      </trkpt>
      <trkpt lat="28.7364020" lon="-17.9448170">
        <ele>1267.0</ele>
        <time>2020-11-16T18:29:09Z</time>
      </trkpt>
      <trkpt lat="28.7363400" lon="-17.9448400">
        <ele>1266.5</ele>
        <time>2020-11-16T18:29:10Z</time>
      </trkpt>
      <trkpt lat="28.7363400" lon="-17.9448400">
        <ele>1266.5</ele>
        <time>2020-11-16T18:29:11Z</time>
      </trkpt>
      <trkpt lat="28.7362770" lon="-17.9448670">
        <ele>1266.0</ele>
        <time>2020-11-16T18:29:12Z</time>
      </trkpt>
      <trkpt lat="28.7362770" lon="-17.9448670">
        <ele>1266.0</ele>
        <time>2020-11-16T18:29:13Z</time>
      </trkpt>
      <trkpt lat="28.7362130" lon="-17.9449100">
        <ele>1265.5</ele>
        <time>2020-11-16T18:29:14Z</time>
      </trkpt>
      <trkpt lat="28.7362130" lon="-17.9449100">
        <ele>1265.5</ele>
        <time>2020-11-16T18:29:15Z</time>
      </trkpt>
      <trkpt lat="28.7361720" lon="-17.9449780">
        <ele>1265.0</ele>
        <time>2020-11-16T18:29:16Z</time>
      </trkpt>
      <trkpt lat="28.7361720" lon="-17.9449780">
        <ele>1265.0</ele>
        <time>2020-11-16T18:29:17Z</time>
      </trkpt>
      <trkpt lat="28.7361270" lon="-17.9450720">
        <ele>1264.3</ele>
        <time>2020-11-16T18:29:18Z</time>
      </trkpt>
      <trkpt lat="28.7361270" lon="-17.9450720">
        <ele>1264.3</ele>
        <time>2020-11-16T18:29:19Z</time>
      </trkpt>
      <trkpt lat="28.7360970" lon="-17.9451680">
        <ele>1263.7</ele>
        <time>2020-11-16T18:29:20Z</time>
      </trkpt>
      <trkpt lat="28.7360970" lon="-17.9451680">
        <ele>1263.7</ele>
        <time>2020-11-16T18:29:21Z</time>
      </trkpt>
      <trkpt lat="28.7360630" lon="-17.9452630">
        <ele>1263.1</ele>
        <time>2020-11-16T18:29:22Z</time>
      </trkpt>
      <trkpt lat="28.7360630" lon="-17.9452630">
        <ele>1263.1</ele>
        <time>2020-11-16T18:29:23Z</time>
      </trkpt>
      <trkpt lat="28.7360430" lon="-17.9453670">
        <ele>1262.4</ele>
        <time>2020-11-16T18:29:24Z</time>
      </trkpt>
      <trkpt lat="28.7360430" lon="-17.9453670">
        <ele>1262.4</ele>
        <time>2020-11-16T18:29:25Z</time>
      </trkpt>
      <trkpt lat="28.7360420" lon="-17.9454700">
        <ele>1261.4</ele>
        <time>2020-11-16T18:29:26Z</time>
      </trkpt>
      <trkpt lat="28.7360420" lon="-17.9454700">
        <ele>1261.4</ele>
        <time>2020-11-16T18:29:27Z</time>
      </trkpt>
      <trkpt lat="28.7360380" lon="-17.9455700">
        <ele>1260.4</ele>
        <time>2020-11-16T18:29:28Z</time>
      </trkpt>
      <trkpt lat="28.7360380" lon="-17.9455700">
        <ele>1260.4</ele>
        <time>2020-11-16T18:29:29Z</time>
      </trkpt>
      <trkpt lat="28.7360220" lon="-17.9456570">
        <ele>1259.4</ele>
        <time>2020-11-16T18:29:30Z</time>
      </trkpt>
      <trkpt lat="28.7360220" lon="-17.9456570">
        <ele>1259.4</ele>
        <time>2020-11-16T18:29:31Z</time>
      </trkpt>
      <trkpt lat="28.7360200" lon="-17.9457670">
        <ele>1258.2</ele>
        <time>2020-11-16T18:29:32Z</time>
      </trkpt>
      <trkpt lat="28.7360200" lon="-17.9457670">
        <ele>1258.2</ele>
        <time>2020-11-16T18:29:33Z</time>
      </trkpt>
      <trkpt lat="28.7360350" lon="-17.9458680">
        <ele>1257.0</ele>
        <time>2020-11-16T18:29:34Z</time>
      </trkpt>
      <trkpt lat="28.7360350" lon="-17.9458680">
        <ele>1257.0</ele>
        <time>2020-11-16T18:29:35Z</time>
      </trkpt>
      <trkpt lat="28.7360680" lon="-17.9459620">
        <ele>1255.6</ele>
        <time>2020-11-16T18:29:36Z</time>
      </trkpt>
      <trkpt lat="28.7360680" lon="-17.9459620">
        <ele>1255.6</ele>
        <time>2020-11-16T18:29:37Z</time>
      </trkpt>
      <trkpt lat="28.7360680" lon="-17.9460430">
        <ele>1254.3</ele>
        <time>2020-11-16T18:29:38Z</time>
      </trkpt>
      <trkpt lat="28.7360680" lon="-17.9460430">
        <ele>1254.3</ele>
        <time>2020-11-16T18:29:39Z</time>
      </trkpt>
      <trkpt lat="28.7360400" lon="-17.9460980">
        <ele>1253.2</ele>
        <time>2020-11-16T18:29:40Z</time>
      </trkpt>
      <trkpt lat="28.7360400" lon="-17.9460980">
        <ele>1253.2</ele>
        <time>2020-11-16T18:29:41Z</time>
      </trkpt>
      <trkpt lat="28.7360020" lon="-17.9461120">
        <ele>1252.3</ele>
        <time>2020-11-16T18:29:42Z</time>
      </trkpt>
      <trkpt lat="28.7360020" lon="-17.9461120">
        <ele>1252.3</ele>
        <time>2020-11-16T18:29:43Z</time>
      </trkpt>
      <trkpt lat="28.7359450" lon="-17.9460900">
        <ele>1251.0</ele>
        <time>2020-11-16T18:29:44Z</time>
      </trkpt>
      <trkpt lat="28.7359450" lon="-17.9460900">
        <ele>1251.0</ele>
        <time>2020-11-16T18:29:45Z</time>
      </trkpt>
      <trkpt lat="28.7358880" lon="-17.9460770">
        <ele>1249.7</ele>
        <time>2020-11-16T18:29:46Z</time>
      </trkpt>
      <trkpt lat="28.7358880" lon="-17.9460770">
        <ele>1249.7</ele>
        <time>2020-11-16T18:29:47Z</time>
      </trkpt>
      <trkpt lat="28.7358380" lon="-17.9461050">
        <ele>1248.6</ele>
        <time>2020-11-16T18:29:48Z</time>
      </trkpt>
      <trkpt lat="28.7358380" lon="-17.9461050">
        <ele>1248.6</ele>
        <time>2020-11-16T18:29:49Z</time>
      </trkpt>
      <trkpt lat="28.7358130" lon="-17.9461770">
        <ele>1247.4</ele>
        <time>2020-11-16T18:29:50Z</time>
      </trkpt>
      <trkpt lat="28.7358130" lon="-17.9461770">
        <ele>1247.4</ele>
        <time>2020-11-16T18:29:51Z</time>
      </trkpt>
      <trkpt lat="28.7358070" lon="-17.9462650">
        <ele>1246.2</ele>
        <time>2020-11-16T18:29:52Z</time>
      </trkpt>
      <trkpt lat="28.7358070" lon="-17.9462650">
        <ele>1246.2</ele>
        <time>2020-11-16T18:29:53Z</time>
      </trkpt>
      <trkpt lat="28.7357850" lon="-17.9463570">
        <ele>1244.8</ele>
        <time>2020-11-16T18:29:54Z</time>
      </trkpt>
      <trkpt lat="28.7357850" lon="-17.9463570">
        <ele>1244.8</ele>
        <time>2020-11-16T18:29:55Z</time>
      </trkpt>
      <trkpt lat="28.7357570" lon="-17.9464600">
        <ele>1243.2</ele>
        <time>2020-11-16T18:29:56Z</time>
      </trkpt>
      <trkpt lat="28.7357570" lon="-17.9464600">
        <ele>1243.2</ele>
        <time>2020-11-16T18:29:57Z</time>
      </trkpt>
      <trkpt lat="28.7357320" lon="-17.9465680">
        <ele>1241.6</ele>
        <time>2020-11-16T18:29:58Z</time>
      </trkpt>
      <trkpt lat="28.7357320" lon="-17.9465680">
        <ele>1241.6</ele>
        <time>2020-11-16T18:29:59Z</time>
      </trkpt>
      <trkpt lat="28.7357200" lon="-17.9466870">
        <ele>1240.0</ele>
        <time>2020-11-16T18:30:00Z</time>
      </trkpt>
      <trkpt lat="28.7357150" lon="-17.9467480">
        <ele>1239.2</ele>
        <time>2020-11-16T18:30:01Z</time>
      </trkpt>
      <trkpt lat="28.7357150" lon="-17.9467480">
        <ele>1239.2</ele>
        <time>2020-11-16T18:30:02Z</time>
      </trkpt>
      <trkpt lat="28.7357220" lon="-17.9468700">
        <ele>1237.5</ele>
        <time>2020-11-16T18:30:03Z</time>
      </trkpt>
      <trkpt lat="28.7357220" lon="-17.9468700">
        <ele>1237.5</ele>
        <time>2020-11-16T18:30:04Z</time>
      </trkpt>
      <trkpt lat="28.7357270" lon="-17.9469770">
        <ele>1236.2</ele>
        <time>2020-11-16T18:30:05Z</time>
      </trkpt>
      <trkpt lat="28.7357270" lon="-17.9469770">
        <ele>1236.2</ele>
        <time>2020-11-16T18:30:06Z</time>
      </trkpt>
      <trkpt lat="28.7357350" lon="-17.9470750">
        <ele>1234.9</ele>
        <time>2020-11-16T18:30:07Z</time>
      </trkpt>
      <trkpt lat="28.7357350" lon="-17.9470750">
        <ele>1234.9</ele>
        <time>2020-11-16T18:30:08Z</time>
      </trkpt>
      <trkpt lat="28.7357170" lon="-17.9471680">
        <ele>1233.5</ele>
        <time>2020-11-16T18:30:09Z</time>
      </trkpt>
      <trkpt lat="28.7357170" lon="-17.9471680">
        <ele>1233.5</ele>
        <time>2020-11-16T18:30:10Z</time>
      </trkpt>
      <trkpt lat="28.7356750" lon="-17.9472270">
        <ele>1232.7</ele>
        <time>2020-11-16T18:30:11Z</time>
      </trkpt>
      <trkpt lat="28.7356420" lon="-17.9472300">
        <ele>1232.5</ele>
        <time>2020-11-16T18:30:12Z</time>
      </trkpt>
      <trkpt lat="28.7356420" lon="-17.9472300">
        <ele>1232.5</ele>
        <time>2020-11-16T18:30:13Z</time>
      </trkpt>
      <trkpt lat="28.7355680" lon="-17.9472070">
        <ele>1232.0</ele>
        <time>2020-11-16T18:30:14Z</time>
      </trkpt>
      <trkpt lat="28.7355680" lon="-17.9472070">
        <ele>1232.0</ele>
        <time>2020-11-16T18:30:15Z</time>
      </trkpt>
      <trkpt lat="28.7355270" lon="-17.9471430">
        <ele>1231.5</ele>
        <time>2020-11-16T18:30:16Z</time>
      </trkpt>
      <trkpt lat="28.7355270" lon="-17.9471430">
        <ele>1231.5</ele>
        <time>2020-11-16T18:30:17Z</time>
      </trkpt>
      <trkpt lat="28.7355050" lon="-17.9470550">
        <ele>1231.0</ele>
        <time>2020-11-16T18:30:18Z</time>
      </trkpt>
      <trkpt lat="28.7355050" lon="-17.9470550">
        <ele>1231.0</ele>
        <time>2020-11-16T18:30:19Z</time>
      </trkpt>
      <trkpt lat="28.7354900" lon="-17.9469580">
        <ele>1230.4</ele>
        <time>2020-11-16T18:30:20Z</time>
      </trkpt>
      <trkpt lat="28.7354900" lon="-17.9469580">
        <ele>1230.4</ele>
        <time>2020-11-16T18:30:21Z</time>
      </trkpt>
      <trkpt lat="28.7354870" lon="-17.9468750">
        <ele>1229.9</ele>
        <time>2020-11-16T18:30:22Z</time>
      </trkpt>
      <trkpt lat="28.7354870" lon="-17.9468750">
        <ele>1229.9</ele>
        <time>2020-11-16T18:30:23Z</time>
      </trkpt>
      <trkpt lat="28.7354820" lon="-17.9467920">
        <ele>1229.4</ele>
        <time>2020-11-16T18:30:24Z</time>
      </trkpt>
      <trkpt lat="28.7354820" lon="-17.9467920">
        <ele>1229.4</ele>
        <time>2020-11-16T18:30:25Z</time>
      </trkpt>
      <trkpt lat="28.7354720" lon="-17.9467100">
        <ele>1228.9</ele>
        <time>2020-11-16T18:30:26Z</time>
      </trkpt>
      <trkpt lat="28.7354720" lon="-17.9467100">
        <ele>1228.9</ele>
        <time>2020-11-16T18:30:27Z</time>
      </trkpt>
      <trkpt lat="28.7354520" lon="-17.9466220">
        <ele>1228.3</ele>
        <time>2020-11-16T18:30:28Z</time>
      </trkpt>
      <trkpt lat="28.7354320" lon="-17.9465770">
        <ele>1228.0</ele>
        <time>2020-11-16T18:30:29Z</time>
      </trkpt>
      <trkpt lat="28.7354320" lon="-17.9465770">
        <ele>1228.0</ele>
        <time>2020-11-16T18:30:30Z</time>
      </trkpt>
      <trkpt lat="28.7353730" lon="-17.9464800">
        <ele>1227.3</ele>
        <time>2020-11-16T18:30:31Z</time>
      </trkpt>
      <trkpt lat="28.7353730" lon="-17.9464800">
        <ele>1227.3</ele>
        <time>2020-11-16T18:30:32Z</time>
      </trkpt>
      <trkpt lat="28.7353000" lon="-17.9463900">
        <ele>1226.6</ele>
        <time>2020-11-16T18:30:33Z</time>
      </trkpt>
      <trkpt lat="28.7353000" lon="-17.9463900">
        <ele>1226.6</ele>
        <time>2020-11-16T18:30:34Z</time>
      </trkpt>
      <trkpt lat="28.7352230" lon="-17.9463280">
        <ele>1225.9</ele>
        <time>2020-11-16T18:30:35Z</time>
      </trkpt>
      <trkpt lat="28.7352230" lon="-17.9463280">
        <ele>1225.9</ele>
        <time>2020-11-16T18:30:36Z</time>
      </trkpt>
      <trkpt lat="28.7351520" lon="-17.9462920">
        <ele>1225.4</ele>
        <time>2020-11-16T18:30:37Z</time>
      </trkpt>
      <trkpt lat="28.7351520" lon="-17.9462920">
        <ele>1225.4</ele>
        <time>2020-11-16T18:30:38Z</time>
      </trkpt>
      <trkpt lat="28.7351030" lon="-17.9463000">
        <ele>1225.1</ele>
        <time>2020-11-16T18:30:39Z</time>
      </trkpt>
      <trkpt lat="28.7350730" lon="-17.9463170">
        <ele>1224.8</ele>
        <time>2020-11-16T18:30:40Z</time>
      </trkpt>
      <trkpt lat="28.7350730" lon="-17.9463170">
        <ele>1224.8</ele>
        <time>2020-11-16T18:30:41Z</time>
      </trkpt>
      <trkpt lat="28.7350500" lon="-17.9463680">
        <ele>1224.5</ele>
        <time>2020-11-16T18:30:42Z</time>
      </trkpt>
      <trkpt lat="28.7350500" lon="-17.9463680">
        <ele>1224.5</ele>
        <time>2020-11-16T18:30:43Z</time>
      </trkpt>
      <trkpt lat="28.7350920" lon="-17.9464420">
        <ele>1223.9</ele>
        <time>2020-11-16T18:30:44Z</time>
      </trkpt>
      <trkpt lat="28.7350920" lon="-17.9464420">
        <ele>1223.9</ele>
        <time>2020-11-16T18:30:45Z</time>
      </trkpt>
      <trkpt lat="28.7351070" lon="-17.9465300">
        <ele>1223.4</ele>
        <time>2020-11-16T18:30:46Z</time>
      </trkpt>
      <trkpt lat="28.7351070" lon="-17.9465300">
        <ele>1223.4</ele>
        <time>2020-11-16T18:30:47Z</time>
      </trkpt>
      <trkpt lat="28.7350700" lon="-17.9466220">
        <ele>1222.8</ele>
        <time>2020-11-16T18:30:48Z</time>
      </trkpt>
      <trkpt lat="28.7350430" lon="-17.9466670">
        <ele>1222.5</ele>
        <time>2020-11-16T18:30:49Z</time>
      </trkpt>
      <trkpt lat="28.7350180" lon="-17.9467080">
        <ele>1222.2</ele>
        <time>2020-11-16T18:30:50Z</time>
      </trkpt>
      <trkpt lat="28.7350180" lon="-17.9467080">
        <ele>1222.2</ele>
        <time>2020-11-16T18:30:51Z</time>
      </trkpt>
      <trkpt lat="28.7349630" lon="-17.9467930">
        <ele>1221.5</ele>
        <time>2020-11-16T18:30:52Z</time>
      </trkpt>
      <trkpt lat="28.7349630" lon="-17.9467930">
        <ele>1221.5</ele>
        <time>2020-11-16T18:30:53Z</time>
      </trkpt>
      <trkpt lat="28.7349120" lon="-17.9468820">
        <ele>1220.9</ele>
        <time>2020-11-16T18:30:54Z</time>
      </trkpt>
      <trkpt lat="28.7349120" lon="-17.9468820">
        <ele>1220.9</ele>
        <time>2020-11-16T18:30:55Z</time>
      </trkpt>
      <trkpt lat="28.7348700" lon="-17.9469730">
        <ele>1220.3</ele>
        <time>2020-11-16T18:30:56Z</time>
      </trkpt>
      <trkpt lat="28.7348700" lon="-17.9469730">
        <ele>1220.3</ele>
        <time>2020-11-16T18:30:57Z</time>
      </trkpt>
      <trkpt lat="28.7348220" lon="-17.9470700">
        <ele>1219.6</ele>
        <time>2020-11-16T18:30:58Z</time>
      </trkpt>
      <trkpt lat="28.7348220" lon="-17.9470700">
        <ele>1219.6</ele>
        <time>2020-11-16T18:30:59Z</time>
      </trkpt>
      <trkpt lat="28.7347730" lon="-17.9471700">
        <ele>1218.9</ele>
        <time>2020-11-16T18:31:00Z</time>
      </trkpt>
      <trkpt lat="28.7347730" lon="-17.9471700">
        <ele>1218.9</ele>
        <time>2020-11-16T18:31:01Z</time>
      </trkpt>
      <trkpt lat="28.7347300" lon="-17.9472850">
        <ele>1218.2</ele>
        <time>2020-11-16T18:31:02Z</time>
      </trkpt>
      <trkpt lat="28.7347300" lon="-17.9472850">
        <ele>1218.2</ele>
        <time>2020-11-16T18:31:03Z</time>
      </trkpt>
      <trkpt lat="28.7347070" lon="-17.9474150">
        <ele>1217.4</ele>
        <time>2020-11-16T18:31:04Z</time>
      </trkpt>
      <trkpt lat="28.7346930" lon="-17.9474800">
        <ele>1217.0</ele>
        <time>2020-11-16T18:31:05Z</time>
      </trkpt>
      <trkpt lat="28.7346930" lon="-17.9474800">
        <ele>1217.0</ele>
        <time>2020-11-16T18:31:06Z</time>
      </trkpt>
      <trkpt lat="28.7346680" lon="-17.9476120">
        <ele>1216.2</ele>
        <time>2020-11-16T18:31:07Z</time>
      </trkpt>
      <trkpt lat="28.7346570" lon="-17.9476720">
        <ele>1215.8</ele>
        <time>2020-11-16T18:31:08Z</time>
      </trkpt>
      <trkpt lat="28.7346570" lon="-17.9476720">
        <ele>1215.8</ele>
        <time>2020-11-16T18:31:09Z</time>
      </trkpt>
      <trkpt lat="28.7346520" lon="-17.9477770">
        <ele>1215.2</ele>
        <time>2020-11-16T18:31:10Z</time>
      </trkpt>
      <trkpt lat="28.7346520" lon="-17.9477770">
        <ele>1215.2</ele>
        <time>2020-11-16T18:31:11Z</time>
      </trkpt>
      <trkpt lat="28.7346480" lon="-17.9478670">
        <ele>1214.6</ele>
        <time>2020-11-16T18:31:12Z</time>
      </trkpt>
      <trkpt lat="28.7346480" lon="-17.9478670">
        <ele>1214.6</ele>
        <time>2020-11-16T18:31:13Z</time>
      </trkpt>
      <trkpt lat="28.7346080" lon="-17.9479350">
        <ele>1214.1</ele>
        <time>2020-11-16T18:31:14Z</time>
      </trkpt>
      <trkpt lat="28.7346080" lon="-17.9479350">
        <ele>1214.1</ele>
        <time>2020-11-16T18:31:15Z</time>
      </trkpt>
      <trkpt lat="28.7345380" lon="-17.9479650">
        <ele>1213.6</ele>
        <time>2020-11-16T18:31:16Z</time>
      </trkpt>
      <trkpt lat="28.7345380" lon="-17.9479650">
        <ele>1213.6</ele>
        <time>2020-11-16T18:31:17Z</time>
      </trkpt>
      <trkpt lat="28.7344530" lon="-17.9479600">
        <ele>1213.0</ele>
        <time>2020-11-16T18:31:18Z</time>
      </trkpt>
      <trkpt lat="28.7344120" lon="-17.9479530">
        <ele>1212.7</ele>
        <time>2020-11-16T18:31:19Z</time>
      </trkpt>
      <trkpt lat="28.7344120" lon="-17.9479530">
        <ele>1212.7</ele>
        <time>2020-11-16T18:31:20Z</time>
      </trkpt>
      <trkpt lat="28.7343230" lon="-17.9479350">
        <ele>1212.1</ele>
        <time>2020-11-16T18:31:21Z</time>
      </trkpt>
      <trkpt lat="28.7343230" lon="-17.9479350">
        <ele>1212.1</ele>
        <time>2020-11-16T18:31:22Z</time>
      </trkpt>
      <trkpt lat="28.7342470" lon="-17.9479080">
        <ele>1211.6</ele>
        <time>2020-11-16T18:31:23Z</time>
      </trkpt>
      <trkpt lat="28.7342150" lon="-17.9478930">
        <ele>1211.3</ele>
        <time>2020-11-16T18:31:24Z</time>
      </trkpt>
      <trkpt lat="28.7342150" lon="-17.9478930">
        <ele>1211.3</ele>
        <time>2020-11-16T18:31:25Z</time>
      </trkpt>
      <trkpt lat="28.7341500" lon="-17.9478800">
        <ele>1210.9</ele>
        <time>2020-11-16T18:31:26Z</time>
      </trkpt>
      <trkpt lat="28.7341500" lon="-17.9478800">
        <ele>1210.9</ele>
        <time>2020-11-16T18:31:27Z</time>
      </trkpt>
      <trkpt lat="28.7340770" lon="-17.9478500">
        <ele>1210.3</ele>
        <time>2020-11-16T18:31:28Z</time>
      </trkpt>
      <trkpt lat="28.7340770" lon="-17.9478500">
        <ele>1210.3</ele>
        <time>2020-11-16T18:31:29Z</time>
      </trkpt>
      <trkpt lat="28.7340170" lon="-17.9477950">
        <ele>1209.8</ele>
        <time>2020-11-16T18:31:30Z</time>
      </trkpt>
      <trkpt lat="28.7340170" lon="-17.9477950">
        <ele>1209.8</ele>
        <time>2020-11-16T18:31:31Z</time>
      </trkpt>
      <trkpt lat="28.7339680" lon="-17.9477130">
        <ele>1209.2</ele>
        <time>2020-11-16T18:31:32Z</time>
      </trkpt>
      <trkpt lat="28.7339680" lon="-17.9477130">
        <ele>1209.2</ele>
        <time>2020-11-16T18:31:33Z</time>
      </trkpt>
      <trkpt lat="28.7339370" lon="-17.9476220">
        <ele>1208.6</ele>
        <time>2020-11-16T18:31:34Z</time>
      </trkpt>
      <trkpt lat="28.7339250" lon="-17.9475770">
        <ele>1208.3</ele>
        <time>2020-11-16T18:31:35Z</time>
      </trkpt>
      <trkpt lat="28.7339250" lon="-17.9475770">
        <ele>1208.3</ele>
        <time>2020-11-16T18:31:36Z</time>
      </trkpt>
      <trkpt lat="28.7338930" lon="-17.9475070">
        <ele>1207.9</ele>
        <time>2020-11-16T18:31:37Z</time>
      </trkpt>
      <trkpt lat="28.7338930" lon="-17.9475070">
        <ele>1207.9</ele>
        <time>2020-11-16T18:31:38Z</time>
      </trkpt>
      <trkpt lat="28.7338270" lon="-17.9474570">
        <ele>1207.3</ele>
        <time>2020-11-16T18:31:39Z</time>
      </trkpt>
      <trkpt lat="28.7338270" lon="-17.9474570">
        <ele>1207.3</ele>
        <time>2020-11-16T18:31:40Z</time>
      </trkpt>
      <trkpt lat="28.7337320" lon="-17.9474330">
        <ele>1206.7</ele>
        <time>2020-11-16T18:31:41Z</time>
      </trkpt>
      <trkpt lat="28.7336850" lon="-17.9474280">
        <ele>1206.3</ele>
        <time>2020-11-16T18:31:42Z</time>
      </trkpt>
      <trkpt lat="28.7336850" lon="-17.9474280">
        <ele>1206.3</ele>
        <time>2020-11-16T18:31:43Z</time>
      </trkpt>
      <trkpt lat="28.7335930" lon="-17.9473980">
        <ele>1205.7</ele>
        <time>2020-11-16T18:31:44Z</time>
      </trkpt>
      <trkpt lat="28.7335930" lon="-17.9473980">
        <ele>1205.7</ele>
        <time>2020-11-16T18:31:45Z</time>
      </trkpt>
      <trkpt lat="28.7335100" lon="-17.9473750">
        <ele>1205.1</ele>
        <time>2020-11-16T18:31:46Z</time>
      </trkpt>
      <trkpt lat="28.7335100" lon="-17.9473750">
        <ele>1205.1</ele>
        <time>2020-11-16T18:31:47Z</time>
      </trkpt>
      <trkpt lat="28.7334420" lon="-17.9473550">
        <ele>1204.6</ele>
        <time>2020-11-16T18:31:48Z</time>
      </trkpt>
      <trkpt lat="28.7334100" lon="-17.9473400">
        <ele>1204.4</ele>
        <time>2020-11-16T18:31:49Z</time>
      </trkpt>
      <trkpt lat="28.7334100" lon="-17.9473400">
        <ele>1204.4</ele>
        <time>2020-11-16T18:31:50Z</time>
      </trkpt>
      <trkpt lat="28.7333600" lon="-17.9472900">
        <ele>1203.9</ele>
        <time>2020-11-16T18:31:51Z</time>
      </trkpt>
      <trkpt lat="28.7333600" lon="-17.9472900">
        <ele>1203.9</ele>
        <time>2020-11-16T18:31:52Z</time>
      </trkpt>
      <trkpt lat="28.7333230" lon="-17.9472300">
        <ele>1203.5</ele>
        <time>2020-11-16T18:31:53Z</time>
      </trkpt>
      <trkpt lat="28.7333230" lon="-17.9472300">
        <ele>1203.5</ele>
        <time>2020-11-16T18:31:54Z</time>
      </trkpt>
      <trkpt lat="28.7332920" lon="-17.9471570">
        <ele>1203.0</ele>
        <time>2020-11-16T18:31:55Z</time>
      </trkpt>
      <trkpt lat="28.7332800" lon="-17.9471150">
        <ele>1202.7</ele>
        <time>2020-11-16T18:31:56Z</time>
      </trkpt>
      <trkpt lat="28.7332800" lon="-17.9471150">
        <ele>1202.7</ele>
        <time>2020-11-16T18:31:57Z</time>
      </trkpt>
      <trkpt lat="28.7332680" lon="-17.9470270">
        <ele>1202.2</ele>
        <time>2020-11-16T18:31:58Z</time>
      </trkpt>
      <trkpt lat="28.7332680" lon="-17.9470270">
        <ele>1202.2</ele>
        <time>2020-11-16T18:31:59Z</time>
      </trkpt>
      <trkpt lat="28.7332430" lon="-17.9469230">
        <ele>1201.5</ele>
        <time>2020-11-16T18:32:00Z</time>
      </trkpt>
      <trkpt lat="28.7332430" lon="-17.9469230">
        <ele>1201.5</ele>
        <time>2020-11-16T18:32:01Z</time>
      </trkpt>
      <trkpt lat="28.7331850" lon="-17.9468370">
        <ele>1200.9</ele>
        <time>2020-11-16T18:32:02Z</time>
      </trkpt>
      <trkpt lat="28.7331850" lon="-17.9468370">
        <ele>1200.9</ele>
        <time>2020-11-16T18:32:03Z</time>
      </trkpt>
      <trkpt lat="28.7331050" lon="-17.9467630">
        <ele>1200.2</ele>
        <time>2020-11-16T18:32:04Z</time>
      </trkpt>
      <trkpt lat="28.7331050" lon="-17.9467630">
        <ele>1200.2</ele>
        <time>2020-11-16T18:32:05Z</time>
      </trkpt>
      <trkpt lat="28.7330170" lon="-17.9467180">
        <ele>1199.5</ele>
        <time>2020-11-16T18:32:06Z</time>
      </trkpt>
      <trkpt lat="28.7330170" lon="-17.9467180">
        <ele>1199.5</ele>
        <time>2020-11-16T18:32:07Z</time>
      </trkpt>
      <trkpt lat="28.7329300" lon="-17.9466870">
        <ele>1198.9</ele>
        <time>2020-11-16T18:32:08Z</time>
      </trkpt>
      <trkpt lat="28.7329300" lon="-17.9466870">
        <ele>1198.9</ele>
        <time>2020-11-16T18:32:09Z</time>
      </trkpt>
      <trkpt lat="28.7328480" lon="-17.9466580">
        <ele>1198.3</ele>
        <time>2020-11-16T18:32:10Z</time>
      </trkpt>
      <trkpt lat="28.7328050" lon="-17.9466430">
        <ele>1198.0</ele>
        <time>2020-11-16T18:32:11Z</time>
      </trkpt>
      <trkpt lat="28.7328050" lon="-17.9466430">
        <ele>1198.0</ele>
        <time>2020-11-16T18:32:12Z</time>
      </trkpt>
      <trkpt lat="28.7327250" lon="-17.9466100">
        <ele>1197.4</ele>
        <time>2020-11-16T18:32:13Z</time>
      </trkpt>
      <trkpt lat="28.7326900" lon="-17.9465970">
        <ele>1197.2</ele>
        <time>2020-11-16T18:32:14Z</time>
      </trkpt>
      <trkpt lat="28.7326900" lon="-17.9465970">
        <ele>1197.2</ele>
        <time>2020-11-16T18:32:15Z</time>
      </trkpt>
      <trkpt lat="28.7326170" lon="-17.9465970">
        <ele>1196.7</ele>
        <time>2020-11-16T18:32:16Z</time>
      </trkpt>
      <trkpt lat="28.7325930" lon="-17.9466180">
        <ele>1196.4</ele>
        <time>2020-11-16T18:32:17Z</time>
      </trkpt>
      <trkpt lat="28.7325930" lon="-17.9466180">
        <ele>1196.4</ele>
        <time>2020-11-16T18:32:18Z</time>
      </trkpt>
      <trkpt lat="28.7325520" lon="-17.9466720">
        <ele>1196.0</ele>
        <time>2020-11-16T18:32:19Z</time>
      </trkpt>
      <trkpt lat="28.7325320" lon="-17.9467050">
        <ele>1195.8</ele>
        <time>2020-11-16T18:32:20Z</time>
      </trkpt>
      <trkpt lat="28.7325320" lon="-17.9467050">
        <ele>1195.8</ele>
        <time>2020-11-16T18:32:21Z</time>
      </trkpt>
      <trkpt lat="28.7325180" lon="-17.9467750">
        <ele>1195.3</ele>
        <time>2020-11-16T18:32:22Z</time>
      </trkpt>
      <trkpt lat="28.7325270" lon="-17.9468100">
        <ele>1195.1</ele>
        <time>2020-11-16T18:32:23Z</time>
      </trkpt>
      <trkpt lat="28.7325270" lon="-17.9468100">
        <ele>1195.1</ele>
        <time>2020-11-16T18:32:24Z</time>
      </trkpt>
      <trkpt lat="28.7325680" lon="-17.9468680">
        <ele>1194.7</ele>
        <time>2020-11-16T18:32:25Z</time>
      </trkpt>
      <trkpt lat="28.7325680" lon="-17.9468680">
        <ele>1194.7</ele>
        <time>2020-11-16T18:32:26Z</time>
      </trkpt>
      <trkpt lat="28.7326300" lon="-17.9469150">
        <ele>1194.2</ele>
        <time>2020-11-16T18:32:27Z</time>
      </trkpt>
      <trkpt lat="28.7326300" lon="-17.9469150">
        <ele>1194.2</ele>
        <time>2020-11-16T18:32:28Z</time>
      </trkpt>
      <trkpt lat="28.7327000" lon="-17.9469550">
        <ele>1193.6</ele>
        <time>2020-11-16T18:32:29Z</time>
      </trkpt>
      <trkpt lat="28.7327330" lon="-17.9469730">
        <ele>1193.4</ele>
        <time>2020-11-16T18:32:30Z</time>
      </trkpt>
      <trkpt lat="28.7327330" lon="-17.9469730">
        <ele>1193.4</ele>
        <time>2020-11-16T18:32:31Z</time>
      </trkpt>
      <trkpt lat="28.7327970" lon="-17.9470000">
        <ele>1192.9</ele>
        <time>2020-11-16T18:32:32Z</time>
      </trkpt>
      <trkpt lat="28.7327970" lon="-17.9470000">
        <ele>1192.9</ele>
        <time>2020-11-16T18:32:33Z</time>
      </trkpt>
      <trkpt lat="28.7328720" lon="-17.9470150">
        <ele>1192.4</ele>
        <time>2020-11-16T18:32:34Z</time>
      </trkpt>
      <trkpt lat="28.7329100" lon="-17.9470170">
        <ele>1192.1</ele>
        <time>2020-11-16T18:32:35Z</time>
      </trkpt>
      <trkpt lat="28.7329100" lon="-17.9470170">
        <ele>1192.1</ele>
        <time>2020-11-16T18:32:36Z</time>
      </trkpt>
      <trkpt lat="28.7329820" lon="-17.9470350">
        <ele>1191.6</ele>
        <time>2020-11-16T18:32:37Z</time>
      </trkpt>
      <trkpt lat="28.7330100" lon="-17.9470580">
        <ele>1191.4</ele>
        <time>2020-11-16T18:32:38Z</time>
      </trkpt>
      <trkpt lat="28.7330100" lon="-17.9470580">
        <ele>1191.4</ele>
        <time>2020-11-16T18:32:39Z</time>
      </trkpt>
      <trkpt lat="28.7330470" lon="-17.9471270">
        <ele>1190.9</ele>
        <time>2020-11-16T18:32:40Z</time>
      </trkpt>
      <trkpt lat="28.7330470" lon="-17.9471270">
        <ele>1190.9</ele>
        <time>2020-11-16T18:32:41Z</time>
      </trkpt>
      <trkpt lat="28.7330550" lon="-17.9472070">
        <ele>1190.4</ele>
        <time>2020-11-16T18:32:42Z</time>
      </trkpt>
      <trkpt lat="28.7330600" lon="-17.9472470">
        <ele>1190.2</ele>
        <time>2020-11-16T18:32:43Z</time>
      </trkpt>
      <trkpt lat="28.7330600" lon="-17.9472470">
        <ele>1190.2</ele>
        <time>2020-11-16T18:32:44Z</time>
      </trkpt>
      <trkpt lat="28.7330850" lon="-17.9473280">
        <ele>1189.7</ele>
        <time>2020-11-16T18:32:45Z</time>
      </trkpt>
      <trkpt lat="28.7331030" lon="-17.9473730">
        <ele>1189.4</ele>
        <time>2020-11-16T18:32:46Z</time>
      </trkpt>
      <trkpt lat="28.7331030" lon="-17.9473730">
        <ele>1189.4</ele>
        <time>2020-11-16T18:32:47Z</time>
      </trkpt>
      <trkpt lat="28.7331420" lon="-17.9474730">
        <ele>1188.7</ele>
        <time>2020-11-16T18:32:48Z</time>
      </trkpt>
      <trkpt lat="28.7331420" lon="-17.9474730">
        <ele>1188.7</ele>
        <time>2020-11-16T18:32:49Z</time>
      </trkpt>
      <trkpt lat="28.7331850" lon="-17.9475850">
        <ele>1188.0</ele>
        <time>2020-11-16T18:32:50Z</time>
      </trkpt>
      <trkpt lat="28.7331850" lon="-17.9475850">
        <ele>1188.0</ele>
        <time>2020-11-16T18:32:51Z</time>
      </trkpt>
      <trkpt lat="28.7332180" lon="-17.9476920">
        <ele>1187.3</ele>
        <time>2020-11-16T18:32:52Z</time>
      </trkpt>
      <trkpt lat="28.7332180" lon="-17.9476920">
        <ele>1187.3</ele>
        <time>2020-11-16T18:32:53Z</time>
      </trkpt>
      <trkpt lat="28.7332500" lon="-17.9477780">
        <ele>1186.7</ele>
        <time>2020-11-16T18:32:54Z</time>
      </trkpt>
      <trkpt lat="28.7332500" lon="-17.9477780">
        <ele>1186.7</ele>
        <time>2020-11-16T18:32:55Z</time>
      </trkpt>
      <trkpt lat="28.7332950" lon="-17.9478250">
        <ele>1186.3</ele>
        <time>2020-11-16T18:32:56Z</time>
      </trkpt>
      <trkpt lat="28.7332950" lon="-17.9478250">
        <ele>1186.3</ele>
        <time>2020-11-16T18:32:57Z</time>
      </trkpt>
      <trkpt lat="28.7333450" lon="-17.9478520">
        <ele>1185.9</ele>
        <time>2020-11-16T18:32:58Z</time>
      </trkpt>
      <trkpt lat="28.7333450" lon="-17.9478520">
        <ele>1185.9</ele>
        <time>2020-11-16T18:32:59Z</time>
      </trkpt>
      <trkpt lat="28.7334100" lon="-17.9478470">
        <ele>1185.5</ele>
        <time>2020-11-16T18:33:00Z</time>
      </trkpt>
      <trkpt lat="28.7334430" lon="-17.9478380">
        <ele>1185.2</ele>
        <time>2020-11-16T18:33:01Z</time>
      </trkpt>
      <trkpt lat="28.7334430" lon="-17.9478380">
        <ele>1185.2</ele>
        <time>2020-11-16T18:33:02Z</time>
      </trkpt>
      <trkpt lat="28.7335030" lon="-17.9478370">
        <ele>1184.8</ele>
        <time>2020-11-16T18:33:03Z</time>
      </trkpt>
      <trkpt lat="28.7335030" lon="-17.9478370">
        <ele>1184.8</ele>
        <time>2020-11-16T18:33:04Z</time>
      </trkpt>
      <trkpt lat="28.7335650" lon="-17.9478600">
        <ele>1184.4</ele>
        <time>2020-11-16T18:33:05Z</time>
      </trkpt>
      <trkpt lat="28.7335650" lon="-17.9478600">
        <ele>1184.4</ele>
        <time>2020-11-16T18:33:06Z</time>
      </trkpt>
      <trkpt lat="28.7335970" lon="-17.9479280">
        <ele>1183.9</ele>
        <time>2020-11-16T18:33:07Z</time>
      </trkpt>
      <trkpt lat="28.7335980" lon="-17.9479630">
        <ele>1183.7</ele>
        <time>2020-11-16T18:33:08Z</time>
      </trkpt>
      <trkpt lat="28.7335980" lon="-17.9479630">
        <ele>1183.7</ele>
        <time>2020-11-16T18:33:09Z</time>
      </trkpt>
      <trkpt lat="28.7336020" lon="-17.9480520">
        <ele>1183.2</ele>
        <time>2020-11-16T18:33:10Z</time>
      </trkpt>
      <trkpt lat="28.7336020" lon="-17.9481030">
        <ele>1182.9</ele>
        <time>2020-11-16T18:33:11Z</time>
      </trkpt>
      <trkpt lat="28.7336020" lon="-17.9481030">
        <ele>1182.9</ele>
        <time>2020-11-16T18:33:12Z</time>
      </trkpt>
      <trkpt lat="28.7336000" lon="-17.9482100">
        <ele>1182.2</ele>
        <time>2020-11-16T18:33:13Z</time>
      </trkpt>
      <trkpt lat="28.7336000" lon="-17.9482100">
        <ele>1182.2</ele>
        <time>2020-11-16T18:33:14Z</time>
      </trkpt>
      <trkpt lat="28.7336000" lon="-17.9483220">
        <ele>1181.5</ele>
        <time>2020-11-16T18:33:15Z</time>
      </trkpt>
      <trkpt lat="28.7336000" lon="-17.9483220">
        <ele>1181.5</ele>
        <time>2020-11-16T18:33:16Z</time>
      </trkpt>
      <trkpt lat="28.7336000" lon="-17.9484420">
        <ele>1180.8</ele>
        <time>2020-11-16T18:33:17Z</time>
      </trkpt>
      <trkpt lat="28.7336000" lon="-17.9484420">
        <ele>1180.8</ele>
        <time>2020-11-16T18:33:18Z</time>
      </trkpt>
      <trkpt lat="28.7336650" lon="-17.9485420">
        <ele>1180.1</ele>
        <time>2020-11-16T18:33:19Z</time>
      </trkpt>
      <trkpt lat="28.7336650" lon="-17.9485420">
        <ele>1180.1</ele>
        <time>2020-11-16T18:33:20Z</time>
      </trkpt>
      <trkpt lat="28.7337480" lon="-17.9485950">
        <ele>1179.4</ele>
        <time>2020-11-16T18:33:21Z</time>
      </trkpt>
      <trkpt lat="28.7337930" lon="-17.9486100">
        <ele>1179.1</ele>
        <time>2020-11-16T18:33:22Z</time>
      </trkpt>
      <trkpt lat="28.7337930" lon="-17.9486100">
        <ele>1179.1</ele>
        <time>2020-11-16T18:33:23Z</time>
      </trkpt>
      <trkpt lat="28.7338880" lon="-17.9486180">
        <ele>1178.4</ele>
        <time>2020-11-16T18:33:24Z</time>
      </trkpt>
      <trkpt lat="28.7338880" lon="-17.9486180">
        <ele>1178.4</ele>
        <time>2020-11-16T18:33:25Z</time>
      </trkpt>
      <trkpt lat="28.7339750" lon="-17.9486020">
        <ele>1177.8</ele>
        <time>2020-11-16T18:33:26Z</time>
      </trkpt>
      <trkpt lat="28.7340130" lon="-17.9485980">
        <ele>1177.6</ele>
        <time>2020-11-16T18:33:27Z</time>
      </trkpt>
      <trkpt lat="28.7340130" lon="-17.9485980">
        <ele>1177.6</ele>
        <time>2020-11-16T18:33:28Z</time>
      </trkpt>
      <trkpt lat="28.7340850" lon="-17.9486150">
        <ele>1177.1</ele>
        <time>2020-11-16T18:33:29Z</time>
      </trkpt>
      <trkpt lat="28.7340850" lon="-17.9486150">
        <ele>1177.1</ele>
        <time>2020-11-16T18:33:30Z</time>
      </trkpt>
      <trkpt lat="28.7341470" lon="-17.9486670">
        <ele>1176.5</ele>
        <time>2020-11-16T18:33:31Z</time>
      </trkpt>
      <trkpt lat="28.7341800" lon="-17.9487000">
        <ele>1176.2</ele>
        <time>2020-11-16T18:33:32Z</time>
      </trkpt>
      <trkpt lat="28.7341800" lon="-17.9487000">
        <ele>1176.2</ele>
        <time>2020-11-16T18:33:33Z</time>
      </trkpt>
      <trkpt lat="28.7342430" lon="-17.9487750">
        <ele>1175.6</ele>
        <time>2020-11-16T18:33:34Z</time>
      </trkpt>
      <trkpt lat="28.7342650" lon="-17.9488180">
        <ele>1175.3</ele>
        <time>2020-11-16T18:33:35Z</time>
      </trkpt>
      <trkpt lat="28.7342650" lon="-17.9488180">
        <ele>1175.3</ele>
        <time>2020-11-16T18:33:36Z</time>
      </trkpt>
      <trkpt lat="28.7342800" lon="-17.9489100">
        <ele>1174.8</ele>
        <time>2020-11-16T18:33:37Z</time>
      </trkpt>
      <trkpt lat="28.7342800" lon="-17.9489100">
        <ele>1174.8</ele>
        <time>2020-11-16T18:33:38Z</time>
      </trkpt>
      <trkpt lat="28.7342770" lon="-17.9490080">
        <ele>1174.2</ele>
        <time>2020-11-16T18:33:39Z</time>
      </trkpt>
      <trkpt lat="28.7342720" lon="-17.9490600">
        <ele>1173.8</ele>
        <time>2020-11-16T18:33:40Z</time>
      </trkpt>
      <trkpt lat="28.7342700" lon="-17.9491130">
        <ele>1173.5</ele>
        <time>2020-11-16T18:33:41Z</time>
      </trkpt>
      <trkpt lat="28.7342700" lon="-17.9491130">
        <ele>1173.5</ele>
        <time>2020-11-16T18:33:42Z</time>
      </trkpt>
      <trkpt lat="28.7342680" lon="-17.9492130">
        <ele>1172.9</ele>
        <time>2020-11-16T18:33:43Z</time>
      </trkpt>
      <trkpt lat="28.7342680" lon="-17.9492130">
        <ele>1172.9</ele>
        <time>2020-11-16T18:33:44Z</time>
      </trkpt>
      <trkpt lat="28.7343070" lon="-17.9492820">
        <ele>1172.4</ele>
        <time>2020-11-16T18:33:45Z</time>
      </trkpt>
      <trkpt lat="28.7343070" lon="-17.9492820">
        <ele>1172.4</ele>
        <time>2020-11-16T18:33:46Z</time>
      </trkpt>
      <trkpt lat="28.7343820" lon="-17.9492870">
        <ele>1172.7</ele>
        <time>2020-11-16T18:33:47Z</time>
      </trkpt>
      <trkpt lat="28.7343820" lon="-17.9492870">
        <ele>1172.7</ele>
        <time>2020-11-16T18:33:48Z</time>
      </trkpt>
      <trkpt lat="28.7344530" lon="-17.9492720">
        <ele>1173.2</ele>
        <time>2020-11-16T18:33:49Z</time>
      </trkpt>
      <trkpt lat="28.7344930" lon="-17.9492630">
        <ele>1173.5</ele>
        <time>2020-11-16T18:33:50Z</time>
      </trkpt>
      <trkpt lat="28.7344930" lon="-17.9492630">
        <ele>1173.5</ele>
        <time>2020-11-16T18:33:51Z</time>
      </trkpt>
      <trkpt lat="28.7345700" lon="-17.9492550">
        <ele>1174.0</ele>
        <time>2020-11-16T18:33:52Z</time>
      </trkpt>
      <trkpt lat="28.7345700" lon="-17.9492550">
        <ele>1174.0</ele>
        <time>2020-11-16T18:33:53Z</time>
      </trkpt>
      <trkpt lat="28.7346500" lon="-17.9492550">
        <ele>1174.6</ele>
        <time>2020-11-16T18:33:54Z</time>
      </trkpt>
      <trkpt lat="28.7346500" lon="-17.9492550">
        <ele>1174.6</ele>
        <time>2020-11-16T18:33:55Z</time>
      </trkpt>
      <trkpt lat="28.7347200" lon="-17.9492520">
        <ele>1175.1</ele>
        <time>2020-11-16T18:33:56Z</time>
      </trkpt>
      <trkpt lat="28.7347200" lon="-17.9492520">
        <ele>1175.1</ele>
        <time>2020-11-16T18:33:57Z</time>
      </trkpt>
      <trkpt lat="28.7347820" lon="-17.9492300">
        <ele>1175.5</ele>
        <time>2020-11-16T18:33:58Z</time>
      </trkpt>
      <trkpt lat="28.7348080" lon="-17.9492080">
        <ele>1175.7</ele>
        <time>2020-11-16T18:33:59Z</time>
      </trkpt>
      <trkpt lat="28.7348080" lon="-17.9492080">
        <ele>1175.7</ele>
        <time>2020-11-16T18:34:00Z</time>
      </trkpt>
      <trkpt lat="28.7348620" lon="-17.9491550">
        <ele>1176.0</ele>
        <time>2020-11-16T18:34:01Z</time>
      </trkpt>
      <trkpt lat="28.7348620" lon="-17.9491550">
        <ele>1176.0</ele>
        <time>2020-11-16T18:34:02Z</time>
      </trkpt>
      <trkpt lat="28.7349020" lon="-17.9491100">
        <ele>1176.3</ele>
        <time>2020-11-16T18:34:03Z</time>
      </trkpt>
      <trkpt lat="28.7349020" lon="-17.9491100">
        <ele>1176.3</ele>
        <time>2020-11-16T18:34:04Z</time>
      </trkpt>
      <trkpt lat="28.7349420" lon="-17.9490630">
        <ele>1176.6</ele>
        <time>2020-11-16T18:34:05Z</time>
      </trkpt>
      <trkpt lat="28.7349620" lon="-17.9490480">
        <ele>1176.8</ele>
        <time>2020-11-16T18:34:06Z</time>
      </trkpt>
      <trkpt lat="28.7349620" lon="-17.9490480">
        <ele>1176.8</ele>
        <time>2020-11-16T18:34:07Z</time>
      </trkpt>
      <trkpt lat="28.7350070" lon="-17.9490380">
        <ele>1177.2</ele>
        <time>2020-11-16T18:34:08Z</time>
      </trkpt>
      <trkpt lat="28.7350070" lon="-17.9490380">
        <ele>1177.2</ele>
        <time>2020-11-16T18:34:09Z</time>
      </trkpt>
      <trkpt lat="28.7350550" lon="-17.9490580">
        <ele>1177.7</ele>
        <time>2020-11-16T18:34:10Z</time>
      </trkpt>
      <trkpt lat="28.7350550" lon="-17.9490580">
        <ele>1177.7</ele>
        <time>2020-11-16T18:34:11Z</time>
      </trkpt>
      <trkpt lat="28.7350720" lon="-17.9491050">
        <ele>1178.1</ele>
        <time>2020-11-16T18:34:12Z</time>
      </trkpt>
      <trkpt lat="28.7350720" lon="-17.9491050">
        <ele>1178.1</ele>
        <time>2020-11-16T18:34:13Z</time>
      </trkpt>
      <trkpt lat="28.7350630" lon="-17.9491630">
        <ele>1178.6</ele>
        <time>2020-11-16T18:34:14Z</time>
      </trkpt>
      <trkpt lat="28.7350630" lon="-17.9491630">
        <ele>1178.6</ele>
        <time>2020-11-16T18:34:15Z</time>
      </trkpt>
      <trkpt lat="28.7350530" lon="-17.9492330">
        <ele>1179.1</ele>
        <time>2020-11-16T18:34:16Z</time>
      </trkpt>
      <trkpt lat="28.7350470" lon="-17.9492730">
        <ele>1179.4</ele>
        <time>2020-11-16T18:34:17Z</time>
      </trkpt>
      <trkpt lat="28.7350470" lon="-17.9492730">
        <ele>1179.4</ele>
        <time>2020-11-16T18:34:18Z</time>
      </trkpt>
      <trkpt lat="28.7350280" lon="-17.9493280">
        <ele>1179.9</ele>
        <time>2020-11-16T18:34:19Z</time>
      </trkpt>
      <trkpt lat="28.7350280" lon="-17.9493280">
        <ele>1179.9</ele>
        <time>2020-11-16T18:34:20Z</time>
      </trkpt>
      <trkpt lat="28.7350230" lon="-17.9494120">
        <ele>1180.5</ele>
        <time>2020-11-16T18:34:21Z</time>
      </trkpt>
      <trkpt lat="28.7350230" lon="-17.9494480">
        <ele>1180.7</ele>
        <time>2020-11-16T18:34:22Z</time>
      </trkpt>
      <trkpt lat="28.7350230" lon="-17.9494480">
        <ele>1180.7</ele>
        <time>2020-11-16T18:34:23Z</time>
      </trkpt>
      <trkpt lat="28.7350330" lon="-17.9495020">
        <ele>1180.9</ele>
        <time>2020-11-16T18:34:24Z</time>
      </trkpt>
      <trkpt lat="28.7350330" lon="-17.9495020">
        <ele>1180.9</ele>
        <time>2020-11-16T18:34:25Z</time>
      </trkpt>
      <trkpt lat="28.7350400" lon="-17.9495530">
        <ele>1180.7</ele>
        <time>2020-11-16T18:34:26Z</time>
      </trkpt>
      <trkpt lat="28.7350400" lon="-17.9495530">
        <ele>1180.7</ele>
        <time>2020-11-16T18:34:27Z</time>
      </trkpt>
      <trkpt lat="28.7350180" lon="-17.9496030">
        <ele>1180.4</ele>
        <time>2020-11-16T18:34:28Z</time>
      </trkpt>
      <trkpt lat="28.7350180" lon="-17.9496030">
        <ele>1180.4</ele>
        <time>2020-11-16T18:34:29Z</time>
      </trkpt>
      <trkpt lat="28.7349930" lon="-17.9496600">
        <ele>1180.1</ele>
        <time>2020-11-16T18:34:30Z</time>
      </trkpt>
      <trkpt lat="28.7349770" lon="-17.9496930">
        <ele>1179.9</ele>
        <time>2020-11-16T18:34:31Z</time>
      </trkpt>
      <trkpt lat="28.7349770" lon="-17.9496930">
        <ele>1179.9</ele>
        <time>2020-11-16T18:34:32Z</time>
      </trkpt>
      <trkpt lat="28.7349400" lon="-17.9497630">
        <ele>1179.5</ele>
        <time>2020-11-16T18:34:33Z</time>
      </trkpt>
      <trkpt lat="28.7349400" lon="-17.9497630">
        <ele>1179.5</ele>
        <time>2020-11-16T18:34:34Z</time>
      </trkpt>
      <trkpt lat="28.7349080" lon="-17.9498450">
        <ele>1178.9</ele>
        <time>2020-11-16T18:34:35Z</time>
      </trkpt>
      <trkpt lat="28.7349080" lon="-17.9498450">
        <ele>1178.9</ele>
        <time>2020-11-16T18:34:36Z</time>
      </trkpt>
      <trkpt lat="28.7348850" lon="-17.9499430">
        <ele>1178.1</ele>
        <time>2020-11-16T18:34:37Z</time>
      </trkpt>
      <trkpt lat="28.7348770" lon="-17.9499920">
        <ele>1177.7</ele>
        <time>2020-11-16T18:34:38Z</time>
      </trkpt>
      <trkpt lat="28.7348770" lon="-17.9499920">
        <ele>1177.7</ele>
        <time>2020-11-16T18:34:39Z</time>
      </trkpt>
      <trkpt lat="28.7348650" lon="-17.9500880">
        <ele>1177.1</ele>
        <time>2020-11-16T18:34:40Z</time>
      </trkpt>
      <trkpt lat="28.7348650" lon="-17.9500880">
        <ele>1177.1</ele>
        <time>2020-11-16T18:34:41Z</time>
      </trkpt>
      <trkpt lat="28.7348400" lon="-17.9501880">
        <ele>1176.3</ele>
        <time>2020-11-16T18:34:42Z</time>
      </trkpt>
      <trkpt lat="28.7348230" lon="-17.9502380">
        <ele>1175.9</ele>
        <time>2020-11-16T18:34:43Z</time>
      </trkpt>
      <trkpt lat="28.7348070" lon="-17.9502920">
        <ele>1175.5</ele>
        <time>2020-11-16T18:34:44Z</time>
      </trkpt>
      <trkpt lat="28.7348070" lon="-17.9502920">
        <ele>1175.5</ele>
        <time>2020-11-16T18:34:45Z</time>
      </trkpt>
      <trkpt lat="28.7347550" lon="-17.9503850">
        <ele>1174.6</ele>
        <time>2020-11-16T18:34:46Z</time>
      </trkpt>
      <trkpt lat="28.7347550" lon="-17.9503850">
        <ele>1174.6</ele>
        <time>2020-11-16T18:34:47Z</time>
      </trkpt>
      <trkpt lat="28.7347050" lon="-17.9504600">
        <ele>1174.0</ele>
        <time>2020-11-16T18:34:48Z</time>
      </trkpt>
      <trkpt lat="28.7346980" lon="-17.9504830">
        <ele>1173.8</ele>
        <time>2020-11-16T18:34:49Z</time>
      </trkpt>
      <trkpt lat="28.7346980" lon="-17.9504830">
        <ele>1173.8</ele>
        <time>2020-11-16T18:34:50Z</time>
      </trkpt>
      <trkpt lat="28.7346550" lon="-17.9505470">
        <ele>1173.2</ele>
        <time>2020-11-16T18:34:51Z</time>
      </trkpt>
      <trkpt lat="28.7346550" lon="-17.9505470">
        <ele>1173.2</ele>
        <time>2020-11-16T18:34:52Z</time>
      </trkpt>
      <trkpt lat="28.7346130" lon="-17.9506070">
        <ele>1172.6</ele>
        <time>2020-11-16T18:34:53Z</time>
      </trkpt>
      <trkpt lat="28.7345830" lon="-17.9506380">
        <ele>1172.2</ele>
        <time>2020-11-16T18:34:54Z</time>
      </trkpt>
      <trkpt lat="28.7345830" lon="-17.9506380">
        <ele>1172.2</ele>
        <time>2020-11-16T18:34:55Z</time>
      </trkpt>
      <trkpt lat="28.7345380" lon="-17.9506680">
        <ele>1171.7</ele>
        <time>2020-11-16T18:34:56Z</time>
      </trkpt>
      <trkpt lat="28.7345380" lon="-17.9506680">
        <ele>1171.7</ele>
        <time>2020-11-16T18:34:57Z</time>
      </trkpt>
      <trkpt lat="28.7344800" lon="-17.9506970">
        <ele>1171.1</ele>
        <time>2020-11-16T18:34:58Z</time>
      </trkpt>
      <trkpt lat="28.7344800" lon="-17.9506970">
        <ele>1171.1</ele>
        <time>2020-11-16T18:34:59Z</time>
      </trkpt>
      <trkpt lat="28.7344070" lon="-17.9507120">
        <ele>1170.6</ele>
        <time>2020-11-16T18:35:00Z</time>
      </trkpt>
      <trkpt lat="28.7344070" lon="-17.9507120">
        <ele>1170.6</ele>
        <time>2020-11-16T18:35:01Z</time>
      </trkpt>
      <trkpt lat="28.7343300" lon="-17.9506950">
        <ele>1170.0</ele>
        <time>2020-11-16T18:35:02Z</time>
      </trkpt>
      <trkpt lat="28.7343300" lon="-17.9506950">
        <ele>1170.0</ele>
        <time>2020-11-16T18:35:03Z</time>
      </trkpt>
      <trkpt lat="28.7342650" lon="-17.9506650">
        <ele>1169.5</ele>
        <time>2020-11-16T18:35:04Z</time>
      </trkpt>
      <trkpt lat="28.7342450" lon="-17.9506450">
        <ele>1169.2</ele>
        <time>2020-11-16T18:35:05Z</time>
      </trkpt>
      <trkpt lat="28.7342450" lon="-17.9506450">
        <ele>1169.2</ele>
        <time>2020-11-16T18:35:06Z</time>
      </trkpt>
      <trkpt lat="28.7342130" lon="-17.9505930">
        <ele>1168.6</ele>
        <time>2020-11-16T18:35:07Z</time>
      </trkpt>
      <trkpt lat="28.7342030" lon="-17.9505680">
        <ele>1168.4</ele>
        <time>2020-11-16T18:35:08Z</time>
      </trkpt>
      <trkpt lat="28.7342030" lon="-17.9505680">
        <ele>1168.4</ele>
        <time>2020-11-16T18:35:09Z</time>
      </trkpt>
      <trkpt lat="28.7342050" lon="-17.9505170">
        <ele>1167.9</ele>
        <time>2020-11-16T18:35:10Z</time>
      </trkpt>
      <trkpt lat="28.7342050" lon="-17.9505170">
        <ele>1167.9</ele>
        <time>2020-11-16T18:35:11Z</time>
      </trkpt>
      <trkpt lat="28.7342170" lon="-17.9504650">
        <ele>1167.4</ele>
        <time>2020-11-16T18:35:12Z</time>
      </trkpt>
      <trkpt lat="28.7342170" lon="-17.9504650">
        <ele>1167.4</ele>
        <time>2020-11-16T18:35:13Z</time>
      </trkpt>
      <trkpt lat="28.7342430" lon="-17.9504030">
        <ele>1166.8</ele>
        <time>2020-11-16T18:35:14Z</time>
      </trkpt>
      <trkpt lat="28.7342430" lon="-17.9504030">
        <ele>1166.8</ele>
        <time>2020-11-16T18:35:15Z</time>
      </trkpt>
      <trkpt lat="28.7342930" lon="-17.9503330">
        <ele>1166.1</ele>
        <time>2020-11-16T18:35:16Z</time>
      </trkpt>
      <trkpt lat="28.7342930" lon="-17.9503330">
        <ele>1166.1</ele>
        <time>2020-11-16T18:35:17Z</time>
      </trkpt>
      <trkpt lat="28.7343470" lon="-17.9502580">
        <ele>1165.3</ele>
        <time>2020-11-16T18:35:18Z</time>
      </trkpt>
      <trkpt lat="28.7343470" lon="-17.9502580">
        <ele>1165.3</ele>
        <time>2020-11-16T18:35:19Z</time>
      </trkpt>
      <trkpt lat="28.7343920" lon="-17.9501920">
        <ele>1164.6</ele>
        <time>2020-11-16T18:35:20Z</time>
      </trkpt>
      <trkpt lat="28.7343920" lon="-17.9501920">
        <ele>1164.6</ele>
        <time>2020-11-16T18:35:21Z</time>
      </trkpt>
      <trkpt lat="28.7344270" lon="-17.9501250">
        <ele>1163.9</ele>
        <time>2020-11-16T18:35:22Z</time>
      </trkpt>
      <trkpt lat="28.7344270" lon="-17.9501250">
        <ele>1163.9</ele>
        <time>2020-11-16T18:35:23Z</time>
      </trkpt>
      <trkpt lat="28.7344380" lon="-17.9500570">
        <ele>1163.2</ele>
        <time>2020-11-16T18:35:24Z</time>
      </trkpt>
      <trkpt lat="28.7344380" lon="-17.9500570">
        <ele>1163.2</ele>
        <time>2020-11-16T18:35:25Z</time>
      </trkpt>
      <trkpt lat="28.7344430" lon="-17.9499770">
        <ele>1162.6</ele>
        <time>2020-11-16T18:35:26Z</time>
      </trkpt>
      <trkpt lat="28.7344430" lon="-17.9499770">
        <ele>1162.6</ele>
        <time>2020-11-16T18:35:27Z</time>
      </trkpt>
      <trkpt lat="28.7344580" lon="-17.9498970">
        <ele>1161.8</ele>
        <time>2020-11-16T18:35:28Z</time>
      </trkpt>
      <trkpt lat="28.7344620" lon="-17.9498580">
        <ele>1161.4</ele>
        <time>2020-11-16T18:35:29Z</time>
      </trkpt>
      <trkpt lat="28.7344620" lon="-17.9498580">
        <ele>1161.4</ele>
        <time>2020-11-16T18:35:30Z</time>
      </trkpt>
      <trkpt lat="28.7344350" lon="-17.9497880">
        <ele>1160.6</ele>
        <time>2020-11-16T18:35:31Z</time>
      </trkpt>
      <trkpt lat="28.7344080" lon="-17.9497650">
        <ele>1160.3</ele>
        <time>2020-11-16T18:35:32Z</time>
      </trkpt>
      <trkpt lat="28.7344080" lon="-17.9497650">
        <ele>1160.3</ele>
        <time>2020-11-16T18:35:33Z</time>
      </trkpt>
      <trkpt lat="28.7343480" lon="-17.9497530">
        <ele>1159.8</ele>
        <time>2020-11-16T18:35:34Z</time>
      </trkpt>
      <trkpt lat="28.7343230" lon="-17.9497550">
        <ele>1159.6</ele>
        <time>2020-11-16T18:35:35Z</time>
      </trkpt>
      <trkpt lat="28.7343230" lon="-17.9497550">
        <ele>1159.6</ele>
        <time>2020-11-16T18:35:36Z</time>
      </trkpt>
      <trkpt lat="28.7342780" lon="-17.9497720">
        <ele>1159.3</ele>
        <time>2020-11-16T18:35:37Z</time>
      </trkpt>
      <trkpt lat="28.7342780" lon="-17.9497720">
        <ele>1159.3</ele>
        <time>2020-11-16T18:35:38Z</time>
      </trkpt>
      <trkpt lat="28.7342430" lon="-17.9498000">
        <ele>1159.1</ele>
        <time>2020-11-16T18:35:39Z</time>
      </trkpt>
      <trkpt lat="28.7342430" lon="-17.9498000">
        <ele>1159.1</ele>
        <time>2020-11-16T18:35:40Z</time>
      </trkpt>
      <trkpt lat="28.7342100" lon="-17.9498430">
        <ele>1158.8</ele>
        <time>2020-11-16T18:35:41Z</time>
      </trkpt>
      <trkpt lat="28.7342100" lon="-17.9498430">
        <ele>1158.8</ele>
        <time>2020-11-16T18:35:42Z</time>
      </trkpt>
      <trkpt lat="28.7341680" lon="-17.9498830">
        <ele>1158.5</ele>
        <time>2020-11-16T18:35:43Z</time>
      </trkpt>
      <trkpt lat="28.7341480" lon="-17.9498980">
        <ele>1158.3</ele>
        <time>2020-11-16T18:35:44Z</time>
      </trkpt>
      <trkpt lat="28.7341480" lon="-17.9498980">
        <ele>1158.3</ele>
        <time>2020-11-16T18:35:45Z</time>
      </trkpt>
      <trkpt lat="28.7341120" lon="-17.9499170">
        <ele>1158.1</ele>
        <time>2020-11-16T18:35:46Z</time>
      </trkpt>
      <trkpt lat="28.7341020" lon="-17.9499200">
        <ele>1158.0</ele>
        <time>2020-11-16T18:35:47Z</time>
      </trkpt>
      <trkpt lat="28.7341020" lon="-17.9499200">
        <ele>1158.0</ele>
        <time>2020-11-16T18:35:48Z</time>
      </trkpt>
      <trkpt lat="28.7341020" lon="-17.9499200">
        <ele>1158.0</ele>
        <time>2020-11-16T18:35:49Z</time>
      </trkpt>
      <trkpt lat="28.7340820" lon="-17.9499270">
        <ele>1157.8</ele>
        <time>2020-11-16T18:35:50Z</time>
      </trkpt>
      <trkpt lat="28.7340820" lon="-17.9499270">
        <ele>1157.8</ele>
        <time>2020-11-16T18:35:51Z</time>
      </trkpt>
      <trkpt lat="28.7340820" lon="-17.9499270">
        <ele>1157.8</ele>
        <time>2020-11-16T18:35:52Z</time>
      </trkpt>
      <trkpt lat="28.7340820" lon="-17.9499270">
        <ele>1157.8</ele>
        <time>2020-11-16T18:36:11Z</time>
      </trkpt>
      <trkpt lat="28.7339980" lon="-17.9499370">
        <ele>1157.2</ele>
        <time>2020-11-16T18:36:12Z</time>
      </trkpt>
      <trkpt lat="28.7339750" lon="-17.9499430">
        <ele>1157.0</ele>
        <time>2020-11-16T18:36:13Z</time>
      </trkpt>
      <trkpt lat="28.7339270" lon="-17.9499470">
        <ele>1156.6</ele>
        <time>2020-11-16T18:36:14Z</time>
      </trkpt>
      <trkpt lat="28.7339270" lon="-17.9499470">
        <ele>1156.6</ele>
        <time>2020-11-16T18:36:15Z</time>
      </trkpt>
      <trkpt lat="28.7338380" lon="-17.9499680">
        <ele>1155.6</ele>
        <time>2020-11-16T18:36:16Z</time>
      </trkpt>
      <trkpt lat="28.7338380" lon="-17.9499680">
        <ele>1155.6</ele>
        <time>2020-11-16T18:36:17Z</time>
      </trkpt>
      <trkpt lat="28.7337630" lon="-17.9500000">
        <ele>1154.7</ele>
        <time>2020-11-16T18:36:18Z</time>
      </trkpt>
      <trkpt lat="28.7337630" lon="-17.9500000">
        <ele>1154.7</ele>
        <time>2020-11-16T18:36:19Z</time>
      </trkpt>
      <trkpt lat="28.7336870" lon="-17.9500450">
        <ele>1154.0</ele>
        <time>2020-11-16T18:36:20Z</time>
      </trkpt>
      <trkpt lat="28.7336870" lon="-17.9500450">
        <ele>1154.0</ele>
        <time>2020-11-16T18:36:21Z</time>
      </trkpt>
      <trkpt lat="28.7336220" lon="-17.9501100">
        <ele>1153.4</ele>
        <time>2020-11-16T18:36:22Z</time>
      </trkpt>
      <trkpt lat="28.7336220" lon="-17.9501100">
        <ele>1153.4</ele>
        <time>2020-11-16T18:36:23Z</time>
      </trkpt>
      <trkpt lat="28.7335570" lon="-17.9501680">
        <ele>1152.8</ele>
        <time>2020-11-16T18:36:24Z</time>
      </trkpt>
      <trkpt lat="28.7335570" lon="-17.9501680">
        <ele>1152.8</ele>
        <time>2020-11-16T18:36:25Z</time>
      </trkpt>
      <trkpt lat="28.7335050" lon="-17.9501980">
        <ele>1152.1</ele>
        <time>2020-11-16T18:36:26Z</time>
      </trkpt>
      <trkpt lat="28.7335050" lon="-17.9501980">
        <ele>1152.1</ele>
        <time>2020-11-16T18:36:27Z</time>
      </trkpt>
      <trkpt lat="28.7334230" lon="-17.9501980">
        <ele>1151.1</ele>
        <time>2020-11-16T18:36:28Z</time>
      </trkpt>
      <trkpt lat="28.7334230" lon="-17.9501980">
        <ele>1151.1</ele>
        <time>2020-11-16T18:36:29Z</time>
      </trkpt>
      <trkpt lat="28.7333680" lon="-17.9501500">
        <ele>1150.1</ele>
        <time>2020-11-16T18:36:30Z</time>
      </trkpt>
      <trkpt lat="28.7333680" lon="-17.9501500">
        <ele>1150.1</ele>
        <time>2020-11-16T18:36:31Z</time>
      </trkpt>
      <trkpt lat="28.7333500" lon="-17.9500750">
        <ele>1149.2</ele>
        <time>2020-11-16T18:36:32Z</time>
      </trkpt>
      <trkpt lat="28.7333500" lon="-17.9500750">
        <ele>1149.2</ele>
        <time>2020-11-16T18:36:33Z</time>
      </trkpt>
      <trkpt lat="28.7333520" lon="-17.9499930">
        <ele>1148.3</ele>
        <time>2020-11-16T18:36:34Z</time>
      </trkpt>
      <trkpt lat="28.7333520" lon="-17.9499930">
        <ele>1148.3</ele>
        <time>2020-11-16T18:36:35Z</time>
      </trkpt>
      <trkpt lat="28.7333570" lon="-17.9499130">
        <ele>1147.4</ele>
        <time>2020-11-16T18:36:36Z</time>
      </trkpt>
      <trkpt lat="28.7333570" lon="-17.9499130">
        <ele>1147.4</ele>
        <time>2020-11-16T18:36:37Z</time>
      </trkpt>
      <trkpt lat="28.7333520" lon="-17.9498550">
        <ele>1146.8</ele>
        <time>2020-11-16T18:36:38Z</time>
      </trkpt>
      <trkpt lat="28.7333370" lon="-17.9498370">
        <ele>1146.5</ele>
        <time>2020-11-16T18:36:39Z</time>
      </trkpt>
      <trkpt lat="28.7333370" lon="-17.9498370">
        <ele>1146.5</ele>
        <time>2020-11-16T18:36:40Z</time>
      </trkpt>
      <trkpt lat="28.7332900" lon="-17.9498080">
        <ele>1145.8</ele>
        <time>2020-11-16T18:36:41Z</time>
      </trkpt>
      <trkpt lat="28.7332900" lon="-17.9498080">
        <ele>1145.8</ele>
        <time>2020-11-16T18:36:42Z</time>
      </trkpt>
      <trkpt lat="28.7332520" lon="-17.9498200">
        <ele>1145.2</ele>
        <time>2020-11-16T18:36:43Z</time>
      </trkpt>
      <trkpt lat="28.7332520" lon="-17.9498200">
        <ele>1145.2</ele>
        <time>2020-11-16T18:36:44Z</time>
      </trkpt>
      <trkpt lat="28.7332270" lon="-17.9498350">
        <ele>1144.8</ele>
        <time>2020-11-16T18:36:45Z</time>
      </trkpt>
      <trkpt lat="28.7332270" lon="-17.9498350">
        <ele>1144.8</ele>
        <time>2020-11-16T18:36:46Z</time>
      </trkpt>
      <trkpt lat="28.7331830" lon="-17.9498630">
        <ele>1144.1</ele>
        <time>2020-11-16T18:36:47Z</time>
      </trkpt>
      <trkpt lat="28.7331830" lon="-17.9498630">
        <ele>1144.1</ele>
        <time>2020-11-16T18:36:48Z</time>
      </trkpt>
      <trkpt lat="28.7331270" lon="-17.9499230">
        <ele>1143.0</ele>
        <time>2020-11-16T18:36:49Z</time>
      </trkpt>
      <trkpt lat="28.7330930" lon="-17.9499620">
        <ele>1142.3</ele>
        <time>2020-11-16T18:36:50Z</time>
      </trkpt>
      <trkpt lat="28.7330930" lon="-17.9499620">
        <ele>1142.3</ele>
        <time>2020-11-16T18:36:51Z</time>
      </trkpt>
      <trkpt lat="28.7330200" lon="-17.9500230">
        <ele>1141.1</ele>
        <time>2020-11-16T18:36:52Z</time>
      </trkpt>
      <trkpt lat="28.7330200" lon="-17.9500230">
        <ele>1141.1</ele>
        <time>2020-11-16T18:36:53Z</time>
      </trkpt>
      <trkpt lat="28.7329450" lon="-17.9500820">
        <ele>1139.8</ele>
        <time>2020-11-16T18:36:54Z</time>
      </trkpt>
      <trkpt lat="28.7329450" lon="-17.9500820">
        <ele>1139.8</ele>
        <time>2020-11-16T18:36:55Z</time>
      </trkpt>
      <trkpt lat="28.7328630" lon="-17.9501150">
        <ele>1138.6</ele>
        <time>2020-11-16T18:36:56Z</time>
      </trkpt>
      <trkpt lat="28.7328630" lon="-17.9501150">
        <ele>1138.6</ele>
        <time>2020-11-16T18:36:57Z</time>
      </trkpt>
      <trkpt lat="28.7327970" lon="-17.9501370">
        <ele>1137.8</ele>
        <time>2020-11-16T18:36:58Z</time>
      </trkpt>
      <trkpt lat="28.7327970" lon="-17.9501370">
        <ele>1137.8</ele>
        <time>2020-11-16T18:36:59Z</time>
      </trkpt>
      <trkpt lat="28.7327100" lon="-17.9501430">
        <ele>1136.7</ele>
        <time>2020-11-16T18:37:00Z</time>
      </trkpt>
      <trkpt lat="28.7327100" lon="-17.9501430">
        <ele>1136.7</ele>
        <time>2020-11-16T18:37:01Z</time>
      </trkpt>
      <trkpt lat="28.7325970" lon="-17.9501350">
        <ele>1135.3</ele>
        <time>2020-11-16T18:37:02Z</time>
      </trkpt>
      <trkpt lat="28.7325970" lon="-17.9501350">
        <ele>1135.3</ele>
        <time>2020-11-16T18:37:03Z</time>
      </trkpt>
      <trkpt lat="28.7324750" lon="-17.9501230">
        <ele>1133.5</ele>
        <time>2020-11-16T18:37:04Z</time>
      </trkpt>
      <trkpt lat="28.7324750" lon="-17.9501230">
        <ele>1133.5</ele>
        <time>2020-11-16T18:37:05Z</time>
      </trkpt>
      <trkpt lat="28.7323730" lon="-17.9501100">
        <ele>1132.0</ele>
        <time>2020-11-16T18:37:06Z</time>
      </trkpt>
      <trkpt lat="28.7323300" lon="-17.9501050">
        <ele>1131.4</ele>
        <time>2020-11-16T18:37:07Z</time>
      </trkpt>
      <trkpt lat="28.7323300" lon="-17.9501050">
        <ele>1131.4</ele>
        <time>2020-11-16T18:37:08Z</time>
      </trkpt>
      <trkpt lat="28.7322630" lon="-17.9500820">
        <ele>1130.6</ele>
        <time>2020-11-16T18:37:09Z</time>
      </trkpt>
      <trkpt lat="28.7322350" lon="-17.9500630">
        <ele>1130.3</ele>
        <time>2020-11-16T18:37:10Z</time>
      </trkpt>
      <trkpt lat="28.7322350" lon="-17.9500630">
        <ele>1130.3</ele>
        <time>2020-11-16T18:37:11Z</time>
      </trkpt>
      <trkpt lat="28.7322230" lon="-17.9500200">
        <ele>1130.2</ele>
        <time>2020-11-16T18:37:12Z</time>
      </trkpt>
      <trkpt lat="28.7322230" lon="-17.9500200">
        <ele>1130.2</ele>
        <time>2020-11-16T18:37:13Z</time>
      </trkpt>
      <trkpt lat="28.7322470" lon="-17.9499900">
        <ele>1130.1</ele>
        <time>2020-11-16T18:37:14Z</time>
      </trkpt>
      <trkpt lat="28.7322430" lon="-17.9499620">
        <ele>1130.0</ele>
        <time>2020-11-16T18:37:15Z</time>
      </trkpt>
      <trkpt lat="28.7322430" lon="-17.9498830">
        <ele>1129.9</ele>
        <time>2020-11-16T18:37:16Z</time>
      </trkpt>
      <trkpt lat="28.7322430" lon="-17.9498830">
        <ele>1129.9</ele>
        <time>2020-11-16T18:37:17Z</time>
      </trkpt>
      <trkpt lat="28.7322430" lon="-17.9498430">
        <ele>1129.8</ele>
        <time>2020-11-16T18:37:18Z</time>
      </trkpt>
      <trkpt lat="28.7322430" lon="-17.9498430">
        <ele>1129.8</ele>
        <time>2020-11-16T18:37:19Z</time>
      </trkpt>
      <trkpt lat="28.7322420" lon="-17.9497600">
        <ele>1129.7</ele>
        <time>2020-11-16T18:37:20Z</time>
      </trkpt>
      <trkpt lat="28.7322420" lon="-17.9497600">
        <ele>1129.7</ele>
        <time>2020-11-16T18:37:21Z</time>
      </trkpt>
      <trkpt lat="28.7322450" lon="-17.9496900">
        <ele>1129.5</ele>
        <time>2020-11-16T18:37:22Z</time>
      </trkpt>
      <trkpt lat="28.7322450" lon="-17.9496900">
        <ele>1129.5</ele>
        <time>2020-11-16T18:37:23Z</time>
      </trkpt>
      <trkpt lat="28.7322230" lon="-17.9496280">
        <ele>1129.3</ele>
        <time>2020-11-16T18:37:24Z</time>
      </trkpt>
      <trkpt lat="28.7322230" lon="-17.9496280">
        <ele>1129.3</ele>
        <time>2020-11-16T18:37:25Z</time>
      </trkpt>
      <trkpt lat="28.7321630" lon="-17.9495930">
        <ele>1129.1</ele>
        <time>2020-11-16T18:37:26Z</time>
      </trkpt>
      <trkpt lat="28.7321630" lon="-17.9495930">
        <ele>1129.1</ele>
        <time>2020-11-16T18:37:27Z</time>
      </trkpt>
      <trkpt lat="28.7321050" lon="-17.9495920">
        <ele>1129.0</ele>
        <time>2020-11-16T18:37:28Z</time>
      </trkpt>
      <trkpt lat="28.7321050" lon="-17.9495920">
        <ele>1129.0</ele>
        <time>2020-11-16T18:37:29Z</time>
      </trkpt>
      <trkpt lat="28.7320550" lon="-17.9496200">
        <ele>1128.9</ele>
        <time>2020-11-16T18:37:30Z</time>
      </trkpt>
      <trkpt lat="28.7320550" lon="-17.9496200">
        <ele>1128.9</ele>
        <time>2020-11-16T18:37:31Z</time>
      </trkpt>
      <trkpt lat="28.7319970" lon="-17.9496480">
        <ele>1128.8</ele>
        <time>2020-11-16T18:37:32Z</time>
      </trkpt>
      <trkpt lat="28.7319970" lon="-17.9496480">
        <ele>1128.8</ele>
        <time>2020-11-16T18:37:33Z</time>
      </trkpt>
      <trkpt lat="28.7319250" lon="-17.9496630">
        <ele>1128.8</ele>
        <time>2020-11-16T18:37:34Z</time>
      </trkpt>
      <trkpt lat="28.7319050" lon="-17.9496650">
        <ele>1128.8</ele>
        <time>2020-11-16T18:37:35Z</time>
      </trkpt>
      <trkpt lat="28.7319050" lon="-17.9496650">
        <ele>1128.8</ele>
        <time>2020-11-16T18:37:36Z</time>
      </trkpt>
      <trkpt lat="28.7318430" lon="-17.9496420">
        <ele>1128.7</ele>
        <time>2020-11-16T18:37:37Z</time>
      </trkpt>
      <trkpt lat="28.7318430" lon="-17.9496420">
        <ele>1128.7</ele>
        <time>2020-11-16T18:37:38Z</time>
      </trkpt>
      <trkpt lat="28.7318030" lon="-17.9495950">
        <ele>1128.6</ele>
        <time>2020-11-16T18:37:39Z</time>
      </trkpt>
      <trkpt lat="28.7318030" lon="-17.9495950">
        <ele>1128.6</ele>
        <time>2020-11-16T18:37:40Z</time>
      </trkpt>
      <trkpt lat="28.7318130" lon="-17.9495370">
        <ele>1128.5</ele>
        <time>2020-11-16T18:37:41Z</time>
      </trkpt>
      <trkpt lat="28.7318130" lon="-17.9495370">
        <ele>1128.5</ele>
        <time>2020-11-16T18:37:42Z</time>
      </trkpt>
      <trkpt lat="28.7318420" lon="-17.9494720">
        <ele>1128.4</ele>
        <time>2020-11-16T18:37:43Z</time>
      </trkpt>
      <trkpt lat="28.7318420" lon="-17.9494720">
        <ele>1128.4</ele>
        <time>2020-11-16T18:37:44Z</time>
      </trkpt>
      <trkpt lat="28.7318580" lon="-17.9493870">
        <ele>1128.2</ele>
        <time>2020-11-16T18:37:45Z</time>
      </trkpt>
      <trkpt lat="28.7318580" lon="-17.9493870">
        <ele>1128.2</ele>
        <time>2020-11-16T18:37:46Z</time>
      </trkpt>
      <trkpt lat="28.7318670" lon="-17.9493050">
        <ele>1128.0</ele>
        <time>2020-11-16T18:37:47Z</time>
      </trkpt>
      <trkpt lat="28.7318670" lon="-17.9493050">
        <ele>1128.0</ele>
        <time>2020-11-16T18:37:48Z</time>
      </trkpt>
      <trkpt lat="28.7318800" lon="-17.9492250">
        <ele>1128.0</ele>
        <time>2020-11-16T18:37:49Z</time>
      </trkpt>
      <trkpt lat="28.7318750" lon="-17.9491900">
        <ele>1128.0</ele>
        <time>2020-11-16T18:37:50Z</time>
      </trkpt>
      <trkpt lat="28.7318750" lon="-17.9491900">
        <ele>1128.0</ele>
        <time>2020-11-16T18:37:51Z</time>
      </trkpt>
      <trkpt lat="28.7318100" lon="-17.9491580">
        <ele>1127.8</ele>
        <time>2020-11-16T18:37:52Z</time>
      </trkpt>
      <trkpt lat="28.7318100" lon="-17.9491580">
        <ele>1127.8</ele>
        <time>2020-11-16T18:37:53Z</time>
      </trkpt>
      <trkpt lat="28.7317430" lon="-17.9491480">
        <ele>1127.4</ele>
        <time>2020-11-16T18:37:54Z</time>
      </trkpt>
      <trkpt lat="28.7317430" lon="-17.9491480">
        <ele>1127.4</ele>
        <time>2020-11-16T18:37:55Z</time>
      </trkpt>
      <trkpt lat="28.7316850" lon="-17.9491570">
        <ele>1127.0</ele>
        <time>2020-11-16T18:37:56Z</time>
      </trkpt>
      <trkpt lat="28.7316850" lon="-17.9491570">
        <ele>1127.0</ele>
        <time>2020-11-16T18:37:57Z</time>
      </trkpt>
      <trkpt lat="28.7316220" lon="-17.9491650">
        <ele>1126.6</ele>
        <time>2020-11-16T18:37:58Z</time>
      </trkpt>
      <trkpt lat="28.7315920" lon="-17.9491630">
        <ele>1126.5</ele>
        <time>2020-11-16T18:37:59Z</time>
      </trkpt>
      <trkpt lat="28.7315920" lon="-17.9491630">
        <ele>1126.5</ele>
        <time>2020-11-16T18:38:00Z</time>
      </trkpt>
      <trkpt lat="28.7315300" lon="-17.9491520">
        <ele>1126.1</ele>
        <time>2020-11-16T18:38:01Z</time>
      </trkpt>
      <trkpt lat="28.7315300" lon="-17.9491520">
        <ele>1126.1</ele>
        <time>2020-11-16T18:38:02Z</time>
      </trkpt>
      <trkpt lat="28.7314530" lon="-17.9491150">
        <ele>1125.8</ele>
        <time>2020-11-16T18:38:03Z</time>
      </trkpt>
      <trkpt lat="28.7314530" lon="-17.9491150">
        <ele>1125.8</ele>
        <time>2020-11-16T18:38:04Z</time>
      </trkpt>
      <trkpt lat="28.7313930" lon="-17.9490700">
        <ele>1125.5</ele>
        <time>2020-11-16T18:38:05Z</time>
      </trkpt>
      <trkpt lat="28.7313930" lon="-17.9490700">
        <ele>1125.5</ele>
        <time>2020-11-16T18:38:06Z</time>
      </trkpt>
      <trkpt lat="28.7313500" lon="-17.9490070">
        <ele>1125.3</ele>
        <time>2020-11-16T18:38:07Z</time>
      </trkpt>
      <trkpt lat="28.7313300" lon="-17.9489750">
        <ele>1125.2</ele>
        <time>2020-11-16T18:38:08Z</time>
      </trkpt>
      <trkpt lat="28.7313300" lon="-17.9489750">
        <ele>1125.2</ele>
        <time>2020-11-16T18:38:09Z</time>
      </trkpt>
      <trkpt lat="28.7312850" lon="-17.9489150">
        <ele>1125.0</ele>
        <time>2020-11-16T18:38:10Z</time>
      </trkpt>
      <trkpt lat="28.7312850" lon="-17.9489150">
        <ele>1125.0</ele>
        <time>2020-11-16T18:38:11Z</time>
      </trkpt>
      <trkpt lat="28.7312520" lon="-17.9488470">
        <ele>1124.8</ele>
        <time>2020-11-16T18:38:12Z</time>
      </trkpt>
      <trkpt lat="28.7312420" lon="-17.9488130">
        <ele>1124.7</ele>
        <time>2020-11-16T18:38:13Z</time>
      </trkpt>
      <trkpt lat="28.7312420" lon="-17.9488130">
        <ele>1124.7</ele>
        <time>2020-11-16T18:38:14Z</time>
      </trkpt>
      <trkpt lat="28.7312320" lon="-17.9487470">
        <ele>1124.5</ele>
        <time>2020-11-16T18:38:15Z</time>
      </trkpt>
      <trkpt lat="28.7312320" lon="-17.9487470">
        <ele>1124.5</ele>
        <time>2020-11-16T18:38:16Z</time>
      </trkpt>
      <trkpt lat="28.7312050" lon="-17.9486750">
        <ele>1124.3</ele>
        <time>2020-11-16T18:38:17Z</time>
      </trkpt>
      <trkpt lat="28.7312050" lon="-17.9486750">
        <ele>1124.3</ele>
        <time>2020-11-16T18:38:18Z</time>
      </trkpt>
      <trkpt lat="28.7311950" lon="-17.9485980">
        <ele>1124.1</ele>
        <time>2020-11-16T18:38:19Z</time>
      </trkpt>
      <trkpt lat="28.7311920" lon="-17.9485650">
        <ele>1124.0</ele>
        <time>2020-11-16T18:38:20Z</time>
      </trkpt>
      <trkpt lat="28.7311920" lon="-17.9485650">
        <ele>1124.0</ele>
        <time>2020-11-16T18:38:21Z</time>
      </trkpt>
      <trkpt lat="28.7311630" lon="-17.9485080">
        <ele>1123.8</ele>
        <time>2020-11-16T18:38:22Z</time>
      </trkpt>
      <trkpt lat="28.7311630" lon="-17.9485080">
        <ele>1123.8</ele>
        <time>2020-11-16T18:38:23Z</time>
      </trkpt>
      <trkpt lat="28.7311170" lon="-17.9484700">
        <ele>1123.7</ele>
        <time>2020-11-16T18:38:24Z</time>
      </trkpt>
      <trkpt lat="28.7311170" lon="-17.9484700">
        <ele>1123.7</ele>
        <time>2020-11-16T18:38:25Z</time>
      </trkpt>
      <trkpt lat="28.7310580" lon="-17.9484470">
        <ele>1123.5</ele>
        <time>2020-11-16T18:38:26Z</time>
      </trkpt>
      <trkpt lat="28.7310580" lon="-17.9484470">
        <ele>1123.5</ele>
        <time>2020-11-16T18:38:27Z</time>
      </trkpt>
      <trkpt lat="28.7310000" lon="-17.9484320">
        <ele>1123.4</ele>
        <time>2020-11-16T18:38:28Z</time>
      </trkpt>
      <trkpt lat="28.7310000" lon="-17.9484320">
        <ele>1123.4</ele>
        <time>2020-11-16T18:38:29Z</time>
      </trkpt>
      <trkpt lat="28.7309470" lon="-17.9484150">
        <ele>1123.3</ele>
        <time>2020-11-16T18:38:30Z</time>
      </trkpt>
      <trkpt lat="28.7309470" lon="-17.9484150">
        <ele>1123.3</ele>
        <time>2020-11-16T18:38:31Z</time>
      </trkpt>
      <trkpt lat="28.7308880" lon="-17.9483930">
        <ele>1123.2</ele>
        <time>2020-11-16T18:38:32Z</time>
      </trkpt>
      <trkpt lat="28.7308880" lon="-17.9483930">
        <ele>1123.2</ele>
        <time>2020-11-16T18:38:33Z</time>
      </trkpt>
      <trkpt lat="28.7308420" lon="-17.9483580">
        <ele>1123.2</ele>
        <time>2020-11-16T18:38:34Z</time>
      </trkpt>
      <trkpt lat="28.7308220" lon="-17.9483420">
        <ele>1123.2</ele>
        <time>2020-11-16T18:38:35Z</time>
      </trkpt>
      <trkpt lat="28.7308220" lon="-17.9483420">
        <ele>1123.2</ele>
        <time>2020-11-16T18:38:36Z</time>
      </trkpt>
      <trkpt lat="28.7307880" lon="-17.9483020">
        <ele>1123.2</ele>
        <time>2020-11-16T18:38:37Z</time>
      </trkpt>
      <trkpt lat="28.7307750" lon="-17.9482780">
        <ele>1123.2</ele>
        <time>2020-11-16T18:38:38Z</time>
      </trkpt>
      <trkpt lat="28.7307750" lon="-17.9482780">
        <ele>1123.2</ele>
        <time>2020-11-16T18:38:39Z</time>
      </trkpt>
      <trkpt lat="28.7307450" lon="-17.9482330">
        <ele>1123.2</ele>
        <time>2020-11-16T18:38:40Z</time>
      </trkpt>
      <trkpt lat="28.7307450" lon="-17.9482330">
        <ele>1123.2</ele>
        <time>2020-11-16T18:38:41Z</time>
      </trkpt>
      <trkpt lat="28.7307130" lon="-17.9481880">
        <ele>1123.2</ele>
        <time>2020-11-16T18:38:42Z</time>
      </trkpt>
      <trkpt lat="28.7307130" lon="-17.9481880">
        <ele>1123.2</ele>
        <time>2020-11-16T18:38:43Z</time>
      </trkpt>
      <trkpt lat="28.7306880" lon="-17.9481400">
        <ele>1123.2</ele>
        <time>2020-11-16T18:38:44Z</time>
      </trkpt>
      <trkpt lat="28.7306770" lon="-17.9481130">
        <ele>1123.2</ele>
        <time>2020-11-16T18:38:45Z</time>
      </trkpt>
      <trkpt lat="28.7306650" lon="-17.9480850">
        <ele>1123.2</ele>
        <time>2020-11-16T18:38:46Z</time>
      </trkpt>
      <trkpt lat="28.7306650" lon="-17.9480850">
        <ele>1123.2</ele>
        <time>2020-11-16T18:38:47Z</time>
      </trkpt>
      <trkpt lat="28.7306380" lon="-17.9480270">
        <ele>1123.2</ele>
        <time>2020-11-16T18:38:48Z</time>
      </trkpt>
      <trkpt lat="28.7306380" lon="-17.9480270">
        <ele>1123.2</ele>
        <time>2020-11-16T18:38:49Z</time>
      </trkpt>
      <trkpt lat="28.7306550" lon="-17.9479750">
        <ele>1123.2</ele>
        <time>2020-11-16T18:38:50Z</time>
      </trkpt>
      <trkpt lat="28.7306550" lon="-17.9479750">
        <ele>1123.2</ele>
        <time>2020-11-16T18:38:51Z</time>
      </trkpt>
      <trkpt lat="28.7306880" lon="-17.9479300">
        <ele>1123.2</ele>
        <time>2020-11-16T18:38:52Z</time>
      </trkpt>
      <trkpt lat="28.7306880" lon="-17.9479300">
        <ele>1123.2</ele>
        <time>2020-11-16T18:38:53Z</time>
      </trkpt>
      <trkpt lat="28.7307270" lon="-17.9478880">
        <ele>1123.1</ele>
        <time>2020-11-16T18:38:54Z</time>
      </trkpt>
      <trkpt lat="28.7307270" lon="-17.9478880">
        <ele>1123.1</ele>
        <time>2020-11-16T18:38:55Z</time>
      </trkpt>
      <trkpt lat="28.7307600" lon="-17.9478500">
        <ele>1123.1</ele>
        <time>2020-11-16T18:38:56Z</time>
      </trkpt>
      <trkpt lat="28.7307600" lon="-17.9478500">
        <ele>1123.1</ele>
        <time>2020-11-16T18:38:57Z</time>
      </trkpt>
      <trkpt lat="28.7307930" lon="-17.9478080">
        <ele>1123.1</ele>
        <time>2020-11-16T18:38:58Z</time>
      </trkpt>
      <trkpt lat="28.7307930" lon="-17.9478080">
        <ele>1123.1</ele>
        <time>2020-11-16T18:38:59Z</time>
      </trkpt>
      <trkpt lat="28.7308300" lon="-17.9477680">
        <ele>1123.0</ele>
        <time>2020-11-16T18:39:00Z</time>
      </trkpt>
      <trkpt lat="28.7308530" lon="-17.9477480">
        <ele>1123.0</ele>
        <time>2020-11-16T18:39:01Z</time>
      </trkpt>
      <trkpt lat="28.7308530" lon="-17.9477480">
        <ele>1123.0</ele>
        <time>2020-11-16T18:39:02Z</time>
      </trkpt>
      <trkpt lat="28.7308850" lon="-17.9477120">
        <ele>1123.0</ele>
        <time>2020-11-16T18:39:03Z</time>
      </trkpt>
      <trkpt lat="28.7308850" lon="-17.9477120">
        <ele>1123.0</ele>
        <time>2020-11-16T18:39:04Z</time>
      </trkpt>
      <trkpt lat="28.7309230" lon="-17.9476770">
        <ele>1122.9</ele>
        <time>2020-11-16T18:39:05Z</time>
      </trkpt>
      <trkpt lat="28.7309380" lon="-17.9476570">
        <ele>1122.9</ele>
        <time>2020-11-16T18:39:06Z</time>
      </trkpt>
      <trkpt lat="28.7309380" lon="-17.9476570">
        <ele>1122.9</ele>
        <time>2020-11-16T18:39:07Z</time>
      </trkpt>
      <trkpt lat="28.7309750" lon="-17.9476200">
        <ele>1122.9</ele>
        <time>2020-11-16T18:39:08Z</time>
      </trkpt>
      <trkpt lat="28.7309950" lon="-17.9476030">
        <ele>1122.9</ele>
        <time>2020-11-16T18:39:09Z</time>
      </trkpt>
      <trkpt lat="28.7309950" lon="-17.9476030">
        <ele>1122.9</ele>
        <time>2020-11-16T18:39:10Z</time>
      </trkpt>
      <trkpt lat="28.7310350" lon="-17.9475680">
        <ele>1122.9</ele>
        <time>2020-11-16T18:39:11Z</time>
      </trkpt>
      <trkpt lat="28.7310350" lon="-17.9475680">
        <ele>1122.9</ele>
        <time>2020-11-16T18:39:12Z</time>
      </trkpt>
      <trkpt lat="28.7310680" lon="-17.9475270">
        <ele>1122.9</ele>
        <time>2020-11-16T18:39:13Z</time>
      </trkpt>
      <trkpt lat="28.7310680" lon="-17.9475270">
        <ele>1122.9</ele>
        <time>2020-11-16T18:39:14Z</time>
      </trkpt>
      <trkpt lat="28.7311030" lon="-17.9474830">
        <ele>1122.9</ele>
        <time>2020-11-16T18:39:15Z</time>
      </trkpt>
      <trkpt lat="28.7311220" lon="-17.9474600">
        <ele>1122.9</ele>
        <time>2020-11-16T18:39:16Z</time>
      </trkpt>
      <trkpt lat="28.7311220" lon="-17.9474600">
        <ele>1122.9</ele>
        <time>2020-11-16T18:39:17Z</time>
      </trkpt>
      <trkpt lat="28.7311530" lon="-17.9473950">
        <ele>1122.9</ele>
        <time>2020-11-16T18:39:18Z</time>
      </trkpt>
      <trkpt lat="28.7311680" lon="-17.9473700">
        <ele>1122.9</ele>
        <time>2020-11-16T18:39:19Z</time>
      </trkpt>
      <trkpt lat="28.7311580" lon="-17.9473380">
        <ele>1122.9</ele>
        <time>2020-11-16T18:39:20Z</time>
      </trkpt>
      <trkpt lat="28.7311580" lon="-17.9473380">
        <ele>1122.9</ele>
        <time>2020-11-16T18:39:21Z</time>
      </trkpt>
      <trkpt lat="28.7311680" lon="-17.9472770">
        <ele>1122.9</ele>
        <time>2020-11-16T18:39:22Z</time>
      </trkpt>
      <trkpt lat="28.7311680" lon="-17.9472770">
        <ele>1122.9</ele>
        <time>2020-11-16T18:39:23Z</time>
      </trkpt>
      <trkpt lat="28.7312030" lon="-17.9472250">
        <ele>1122.9</ele>
        <time>2020-11-16T18:39:24Z</time>
      </trkpt>
      <trkpt lat="28.7312030" lon="-17.9472250">
        <ele>1122.9</ele>
        <time>2020-11-16T18:39:25Z</time>
      </trkpt>
      <trkpt lat="28.7312480" lon="-17.9471800">
        <ele>1123.0</ele>
        <time>2020-11-16T18:39:26Z</time>
      </trkpt>
      <trkpt lat="28.7312480" lon="-17.9471800">
        <ele>1123.0</ele>
        <time>2020-11-16T18:39:27Z</time>
      </trkpt>
      <trkpt lat="28.7312900" lon="-17.9471380">
        <ele>1123.0</ele>
        <time>2020-11-16T18:39:28Z</time>
      </trkpt>
      <trkpt lat="28.7312900" lon="-17.9471380">
        <ele>1123.0</ele>
        <time>2020-11-16T18:39:29Z</time>
      </trkpt>
      <trkpt lat="28.7313200" lon="-17.9470930">
        <ele>1122.9</ele>
        <time>2020-11-16T18:39:30Z</time>
      </trkpt>
      <trkpt lat="28.7313200" lon="-17.9470930">
        <ele>1122.9</ele>
        <time>2020-11-16T18:39:31Z</time>
      </trkpt>
      <trkpt lat="28.7313570" lon="-17.9470570">
        <ele>1122.9</ele>
        <time>2020-11-16T18:39:32Z</time>
      </trkpt>
      <trkpt lat="28.7313570" lon="-17.9470570">
        <ele>1122.9</ele>
        <time>2020-11-16T18:39:33Z</time>
      </trkpt>
      <trkpt lat="28.7313880" lon="-17.9470220">
        <ele>1122.9</ele>
        <time>2020-11-16T18:39:34Z</time>
      </trkpt>
      <trkpt lat="28.7313880" lon="-17.9470220">
        <ele>1122.9</ele>
        <time>2020-11-16T18:39:35Z</time>
      </trkpt>
      <trkpt lat="28.7314220" lon="-17.9469870">
        <ele>1123.0</ele>
        <time>2020-11-16T18:39:36Z</time>
      </trkpt>
      <trkpt lat="28.7314220" lon="-17.9469870">
        <ele>1123.0</ele>
        <time>2020-11-16T18:39:37Z</time>
      </trkpt>
      <trkpt lat="28.7314550" lon="-17.9469430">
        <ele>1123.0</ele>
        <time>2020-11-16T18:39:38Z</time>
      </trkpt>
      <trkpt lat="28.7314550" lon="-17.9469430">
        <ele>1123.0</ele>
        <time>2020-11-16T18:39:39Z</time>
      </trkpt>
      <trkpt lat="28.7314930" lon="-17.9469030">
        <ele>1123.0</ele>
        <time>2020-11-16T18:39:40Z</time>
      </trkpt>
      <trkpt lat="28.7315170" lon="-17.9468850">
        <ele>1123.0</ele>
        <time>2020-11-16T18:39:41Z</time>
      </trkpt>
      <trkpt lat="28.7315170" lon="-17.9468850">
        <ele>1123.0</ele>
        <time>2020-11-16T18:39:42Z</time>
      </trkpt>
      <trkpt lat="28.7315470" lon="-17.9468530">
        <ele>1123.0</ele>
        <time>2020-11-16T18:39:43Z</time>
      </trkpt>
      <trkpt lat="28.7315720" lon="-17.9468400">
        <ele>1123.0</ele>
        <time>2020-11-16T18:39:44Z</time>
      </trkpt>
      <trkpt lat="28.7315720" lon="-17.9468400">
        <ele>1123.0</ele>
        <time>2020-11-16T18:39:45Z</time>
      </trkpt>
      <trkpt lat="28.7316000" lon="-17.9467970">
        <ele>1122.9</ele>
        <time>2020-11-16T18:39:46Z</time>
      </trkpt>
      <trkpt lat="28.7316020" lon="-17.9467680">
        <ele>1122.9</ele>
        <time>2020-11-16T18:39:47Z</time>
      </trkpt>
      <trkpt lat="28.7316020" lon="-17.9467680">
        <ele>1122.9</ele>
        <time>2020-11-16T18:39:48Z</time>
      </trkpt>
      <trkpt lat="28.7315950" lon="-17.9467000">
        <ele>1122.9</ele>
        <time>2020-11-16T18:39:49Z</time>
      </trkpt>
      <trkpt lat="28.7315950" lon="-17.9467000">
        <ele>1122.9</ele>
        <time>2020-11-16T18:39:50Z</time>
      </trkpt>
      <trkpt lat="28.7316170" lon="-17.9466330">
        <ele>1122.9</ele>
        <time>2020-11-16T18:39:51Z</time>
      </trkpt>
      <trkpt lat="28.7316170" lon="-17.9466330">
        <ele>1122.9</ele>
        <time>2020-11-16T18:39:52Z</time>
      </trkpt>
      <trkpt lat="28.7316420" lon="-17.9465670">
        <ele>1122.8</ele>
        <time>2020-11-16T18:39:53Z</time>
      </trkpt>
      <trkpt lat="28.7316420" lon="-17.9465670">
        <ele>1122.8</ele>
        <time>2020-11-16T18:39:54Z</time>
      </trkpt>
      <trkpt lat="28.7316550" lon="-17.9464970">
        <ele>1122.7</ele>
        <time>2020-11-16T18:39:55Z</time>
      </trkpt>
      <trkpt lat="28.7316650" lon="-17.9464600">
        <ele>1122.6</ele>
        <time>2020-11-16T18:39:56Z</time>
      </trkpt>
      <trkpt lat="28.7316800" lon="-17.9464300">
        <ele>1122.6</ele>
        <time>2020-11-16T18:39:57Z</time>
      </trkpt>
      <trkpt lat="28.7316800" lon="-17.9464300">
        <ele>1122.6</ele>
        <time>2020-11-16T18:39:58Z</time>
      </trkpt>
      <trkpt lat="28.7317050" lon="-17.9463880">
        <ele>1122.5</ele>
        <time>2020-11-16T18:39:59Z</time>
      </trkpt>
      <trkpt lat="28.7317050" lon="-17.9463880">
        <ele>1122.5</ele>
        <time>2020-11-16T18:40:00Z</time>
      </trkpt>
      <trkpt lat="28.7316870" lon="-17.9463420">
        <ele>1122.5</ele>
        <time>2020-11-16T18:40:01Z</time>
      </trkpt>
      <trkpt lat="28.7316730" lon="-17.9463220">
        <ele>1122.5</ele>
        <time>2020-11-16T18:40:02Z</time>
      </trkpt>
      <trkpt lat="28.7316730" lon="-17.9463220">
        <ele>1122.5</ele>
        <time>2020-11-16T18:40:03Z</time>
      </trkpt>
      <trkpt lat="28.7316350" lon="-17.9462900">
        <ele>1122.5</ele>
        <time>2020-11-16T18:40:04Z</time>
      </trkpt>
      <trkpt lat="28.7316350" lon="-17.9462900">
        <ele>1122.5</ele>
        <time>2020-11-16T18:40:05Z</time>
      </trkpt>
      <trkpt lat="28.7315820" lon="-17.9462670">
        <ele>1122.5</ele>
        <time>2020-11-16T18:40:06Z</time>
      </trkpt>
      <trkpt lat="28.7315820" lon="-17.9462670">
        <ele>1122.5</ele>
        <time>2020-11-16T18:40:07Z</time>
      </trkpt>
      <trkpt lat="28.7315300" lon="-17.9462600">
        <ele>1122.5</ele>
        <time>2020-11-16T18:40:08Z</time>
      </trkpt>
      <trkpt lat="28.7315300" lon="-17.9462600">
        <ele>1122.5</ele>
        <time>2020-11-16T18:40:09Z</time>
      </trkpt>
      <trkpt lat="28.7314900" lon="-17.9462670">
        <ele>1122.5</ele>
        <time>2020-11-16T18:40:10Z</time>
      </trkpt>
      <trkpt lat="28.7314620" lon="-17.9462730">
        <ele>1122.6</ele>
        <time>2020-11-16T18:40:11Z</time>
      </trkpt>
      <trkpt lat="28.7314620" lon="-17.9462730">
        <ele>1122.6</ele>
        <time>2020-11-16T18:40:12Z</time>
      </trkpt>
      <trkpt lat="28.7314100" lon="-17.9462830">
        <ele>1122.6</ele>
        <time>2020-11-16T18:40:13Z</time>
      </trkpt>
      <trkpt lat="28.7314100" lon="-17.9462830">
        <ele>1122.6</ele>
        <time>2020-11-16T18:40:14Z</time>
      </trkpt>
      <trkpt lat="28.7313620" lon="-17.9463050">
        <ele>1122.6</ele>
        <time>2020-11-16T18:40:15Z</time>
      </trkpt>
      <trkpt lat="28.7313620" lon="-17.9463050">
        <ele>1122.6</ele>
        <time>2020-11-16T18:40:16Z</time>
      </trkpt>
      <trkpt lat="28.7313350" lon="-17.9463030">
        <ele>1122.6</ele>
        <time>2020-11-16T18:40:17Z</time>
      </trkpt>
      <trkpt lat="28.7313350" lon="-17.9463030">
        <ele>1122.6</ele>
        <time>2020-11-16T18:40:18Z</time>
      </trkpt>
      <trkpt lat="28.7312950" lon="-17.9463050">
        <ele>1122.7</ele>
        <time>2020-11-16T18:40:19Z</time>
      </trkpt>
      <trkpt lat="28.7312950" lon="-17.9463050">
        <ele>1122.7</ele>
        <time>2020-11-16T18:40:20Z</time>
      </trkpt>
      <trkpt lat="28.7312700" lon="-17.9463080">
        <ele>1122.7</ele>
        <time>2020-11-16T18:40:21Z</time>
      </trkpt>
      <trkpt lat="28.7312700" lon="-17.9463080">
        <ele>1122.7</ele>
        <time>2020-11-16T18:40:22Z</time>
      </trkpt>
      <trkpt lat="28.7312100" lon="-17.9463370">
        <ele>1122.7</ele>
        <time>2020-11-16T18:40:23Z</time>
      </trkpt>
      <trkpt lat="28.7312100" lon="-17.9463370">
        <ele>1122.7</ele>
        <time>2020-11-16T18:40:24Z</time>
      </trkpt>
      <trkpt lat="28.7311680" lon="-17.9463500">
        <ele>1122.8</ele>
        <time>2020-11-16T18:40:25Z</time>
      </trkpt>
      <trkpt lat="28.7311680" lon="-17.9463500">
        <ele>1122.8</ele>
        <time>2020-11-16T18:40:26Z</time>
      </trkpt>
      <trkpt lat="28.7311120" lon="-17.9463450">
        <ele>1122.9</ele>
        <time>2020-11-16T18:40:27Z</time>
      </trkpt>
      <trkpt lat="28.7311120" lon="-17.9463450">
        <ele>1122.9</ele>
        <time>2020-11-16T18:40:28Z</time>
      </trkpt>
      <trkpt lat="28.7310680" lon="-17.9463330">
        <ele>1123.0</ele>
        <time>2020-11-16T18:40:29Z</time>
      </trkpt>
      <trkpt lat="28.7310680" lon="-17.9463330">
        <ele>1123.0</ele>
        <time>2020-11-16T18:40:30Z</time>
      </trkpt>
      <trkpt lat="28.7310320" lon="-17.9463220">
        <ele>1123.1</ele>
        <time>2020-11-16T18:40:31Z</time>
      </trkpt>
      <trkpt lat="28.7310170" lon="-17.9463200">
        <ele>1123.1</ele>
        <time>2020-11-16T18:40:32Z</time>
      </trkpt>
      <trkpt lat="28.7310170" lon="-17.9463200">
        <ele>1123.1</ele>
        <time>2020-11-16T18:40:33Z</time>
      </trkpt>
      <trkpt lat="28.7309880" lon="-17.9463220">
        <ele>1123.1</ele>
        <time>2020-11-16T18:40:34Z</time>
      </trkpt>
      <trkpt lat="28.7309880" lon="-17.9463220">
        <ele>1123.1</ele>
        <time>2020-11-16T18:40:35Z</time>
      </trkpt>
      <trkpt lat="28.7309420" lon="-17.9463200">
        <ele>1123.2</ele>
        <time>2020-11-16T18:40:36Z</time>
      </trkpt>
      <trkpt lat="28.7309420" lon="-17.9463200">
        <ele>1123.2</ele>
        <time>2020-11-16T18:40:37Z</time>
      </trkpt>
      <trkpt lat="28.7309080" lon="-17.9463180">
        <ele>1123.3</ele>
        <time>2020-11-16T18:40:38Z</time>
      </trkpt>
      <trkpt lat="28.7309080" lon="-17.9463180">
        <ele>1123.3</ele>
        <time>2020-11-16T18:40:39Z</time>
      </trkpt>
      <trkpt lat="28.7308680" lon="-17.9463130">
        <ele>1123.3</ele>
        <time>2020-11-16T18:40:40Z</time>
      </trkpt>
      <trkpt lat="28.7308680" lon="-17.9463130">
        <ele>1123.3</ele>
        <time>2020-11-16T18:40:41Z</time>
      </trkpt>
      <trkpt lat="28.7308250" lon="-17.9463100">
        <ele>1123.4</ele>
        <time>2020-11-16T18:40:42Z</time>
      </trkpt>
      <trkpt lat="28.7308250" lon="-17.9463100">
        <ele>1123.4</ele>
        <time>2020-11-16T18:40:43Z</time>
      </trkpt>
      <trkpt lat="28.7307800" lon="-17.9463050">
        <ele>1123.4</ele>
        <time>2020-11-16T18:40:44Z</time>
      </trkpt>
      <trkpt lat="28.7307800" lon="-17.9463050">
        <ele>1123.4</ele>
        <time>2020-11-16T18:40:45Z</time>
      </trkpt>
      <trkpt lat="28.7307320" lon="-17.9463100">
        <ele>1123.5</ele>
        <time>2020-11-16T18:40:46Z</time>
      </trkpt>
      <trkpt lat="28.7307320" lon="-17.9463100">
        <ele>1123.5</ele>
        <time>2020-11-16T18:40:47Z</time>
      </trkpt>
      <trkpt lat="28.7306750" lon="-17.9463230">
        <ele>1123.5</ele>
        <time>2020-11-16T18:40:48Z</time>
      </trkpt>
      <trkpt lat="28.7306750" lon="-17.9463230">
        <ele>1123.5</ele>
        <time>2020-11-16T18:40:49Z</time>
      </trkpt>
      <trkpt lat="28.7306200" lon="-17.9463470">
        <ele>1123.6</ele>
        <time>2020-11-16T18:40:50Z</time>
      </trkpt>
      <trkpt lat="28.7306200" lon="-17.9463470">
        <ele>1123.6</ele>
        <time>2020-11-16T18:40:51Z</time>
      </trkpt>
      <trkpt lat="28.7305620" lon="-17.9463720">
        <ele>1123.8</ele>
        <time>2020-11-16T18:40:52Z</time>
      </trkpt>
      <trkpt lat="28.7305620" lon="-17.9463720">
        <ele>1123.8</ele>
        <time>2020-11-16T18:40:53Z</time>
      </trkpt>
      <trkpt lat="28.7304920" lon="-17.9464070">
        <ele>1123.9</ele>
        <time>2020-11-16T18:40:54Z</time>
      </trkpt>
      <trkpt lat="28.7304920" lon="-17.9464070">
        <ele>1123.9</ele>
        <time>2020-11-16T18:40:55Z</time>
      </trkpt>
      <trkpt lat="28.7304720" lon="-17.9464250">
        <ele>1124.0</ele>
        <time>2020-11-16T18:40:56Z</time>
      </trkpt>
      <trkpt lat="28.7304720" lon="-17.9464250">
        <ele>1124.0</ele>
        <time>2020-11-16T18:40:57Z</time>
      </trkpt>
      <trkpt lat="28.7304480" lon="-17.9464400">
        <ele>1124.1</ele>
        <time>2020-11-16T18:40:58Z</time>
      </trkpt>
      <trkpt lat="28.7304350" lon="-17.9464400">
        <ele>1124.1</ele>
        <time>2020-11-16T18:40:59Z</time>
      </trkpt>
      <trkpt lat="28.7304350" lon="-17.9464400">
        <ele>1124.1</ele>
        <time>2020-11-16T18:41:00Z</time>
      </trkpt>
      <trkpt lat="28.7303920" lon="-17.9464400">
        <ele>1124.2</ele>
        <time>2020-11-16T18:41:01Z</time>
      </trkpt>
      <trkpt lat="28.7303920" lon="-17.9464400">
        <ele>1124.2</ele>
        <time>2020-11-16T18:41:02Z</time>
      </trkpt>
      <trkpt lat="28.7303550" lon="-17.9464370">
        <ele>1124.3</ele>
        <time>2020-11-16T18:41:03Z</time>
      </trkpt>
      <trkpt lat="28.7303550" lon="-17.9464370">
        <ele>1124.3</ele>
        <time>2020-11-16T18:41:04Z</time>
      </trkpt>
      <trkpt lat="28.7302930" lon="-17.9464280">
        <ele>1124.5</ele>
        <time>2020-11-16T18:41:05Z</time>
      </trkpt>
      <trkpt lat="28.7302930" lon="-17.9464280">
        <ele>1124.5</ele>
        <time>2020-11-16T18:41:06Z</time>
      </trkpt>
      <trkpt lat="28.7302600" lon="-17.9463950">
        <ele>1124.6</ele>
        <time>2020-11-16T18:41:07Z</time>
      </trkpt>
      <trkpt lat="28.7302600" lon="-17.9463950">
        <ele>1124.6</ele>
        <time>2020-11-16T18:41:08Z</time>
      </trkpt>
      <trkpt lat="28.7302450" lon="-17.9463630">
        <ele>1124.7</ele>
        <time>2020-11-16T18:41:09Z</time>
      </trkpt>
      <trkpt lat="28.7302450" lon="-17.9463630">
        <ele>1124.7</ele>
        <time>2020-11-16T18:41:10Z</time>
      </trkpt>
      <trkpt lat="28.7302320" lon="-17.9463170">
        <ele>1124.7</ele>
        <time>2020-11-16T18:41:11Z</time>
      </trkpt>
      <trkpt lat="28.7302320" lon="-17.9463170">
        <ele>1124.7</ele>
        <time>2020-11-16T18:41:12Z</time>
      </trkpt>
      <trkpt lat="28.7302200" lon="-17.9462770">
        <ele>1124.8</ele>
        <time>2020-11-16T18:41:13Z</time>
      </trkpt>
      <trkpt lat="28.7302200" lon="-17.9462770">
        <ele>1124.8</ele>
        <time>2020-11-16T18:41:14Z</time>
      </trkpt>
      <trkpt lat="28.7302120" lon="-17.9462330">
        <ele>1124.8</ele>
        <time>2020-11-16T18:41:15Z</time>
      </trkpt>
      <trkpt lat="28.7302120" lon="-17.9462330">
        <ele>1124.8</ele>
        <time>2020-11-16T18:41:16Z</time>
      </trkpt>
      <trkpt lat="28.7301980" lon="-17.9461850">
        <ele>1124.9</ele>
        <time>2020-11-16T18:41:17Z</time>
      </trkpt>
      <trkpt lat="28.7301970" lon="-17.9461600">
        <ele>1124.9</ele>
        <time>2020-11-16T18:41:18Z</time>
      </trkpt>
      <trkpt lat="28.7301970" lon="-17.9461600">
        <ele>1124.9</ele>
        <time>2020-11-16T18:41:19Z</time>
      </trkpt>
      <trkpt lat="28.7301750" lon="-17.9461050">
        <ele>1124.9</ele>
        <time>2020-11-16T18:41:20Z</time>
      </trkpt>
      <trkpt lat="28.7301750" lon="-17.9461050">
        <ele>1124.9</ele>
        <time>2020-11-16T18:41:21Z</time>
      </trkpt>
      <trkpt lat="28.7301520" lon="-17.9460420">
        <ele>1125.0</ele>
        <time>2020-11-16T18:41:22Z</time>
      </trkpt>
      <trkpt lat="28.7301520" lon="-17.9460420">
        <ele>1125.0</ele>
        <time>2020-11-16T18:41:23Z</time>
      </trkpt>
      <trkpt lat="28.7301280" lon="-17.9459830">
        <ele>1125.0</ele>
        <time>2020-11-16T18:41:24Z</time>
      </trkpt>
      <trkpt lat="28.7301280" lon="-17.9459830">
        <ele>1125.0</ele>
        <time>2020-11-16T18:41:25Z</time>
      </trkpt>
      <trkpt lat="28.7300950" lon="-17.9459280">
        <ele>1125.0</ele>
        <time>2020-11-16T18:41:26Z</time>
      </trkpt>
      <trkpt lat="28.7300730" lon="-17.9459050">
        <ele>1125.0</ele>
        <time>2020-11-16T18:41:27Z</time>
      </trkpt>
      <trkpt lat="28.7300730" lon="-17.9459050">
        <ele>1125.0</ele>
        <time>2020-11-16T18:41:28Z</time>
      </trkpt>
      <trkpt lat="28.7300470" lon="-17.9458550">
        <ele>1125.0</ele>
        <time>2020-11-16T18:41:29Z</time>
      </trkpt>
      <trkpt lat="28.7300470" lon="-17.9458550">
        <ele>1125.0</ele>
        <time>2020-11-16T18:41:30Z</time>
      </trkpt>
      <trkpt lat="28.7300250" lon="-17.9458080">
        <ele>1125.0</ele>
        <time>2020-11-16T18:41:31Z</time>
      </trkpt>
      <trkpt lat="28.7300250" lon="-17.9458080">
        <ele>1125.0</ele>
        <time>2020-11-16T18:41:32Z</time>
      </trkpt>
      <trkpt lat="28.7300020" lon="-17.9457670">
        <ele>1125.0</ele>
        <time>2020-11-16T18:41:33Z</time>
      </trkpt>
      <trkpt lat="28.7300020" lon="-17.9457670">
        <ele>1125.0</ele>
        <time>2020-11-16T18:41:34Z</time>
      </trkpt>
      <trkpt lat="28.7299850" lon="-17.9457300">
        <ele>1125.0</ele>
        <time>2020-11-16T18:41:35Z</time>
      </trkpt>
      <trkpt lat="28.7299770" lon="-17.9457100">
        <ele>1125.0</ele>
        <time>2020-11-16T18:41:36Z</time>
      </trkpt>
      <trkpt lat="28.7299770" lon="-17.9457100">
        <ele>1125.0</ele>
        <time>2020-11-16T18:41:37Z</time>
      </trkpt>
      <trkpt lat="28.7299680" lon="-17.9456630">
        <ele>1125.0</ele>
        <time>2020-11-16T18:41:38Z</time>
      </trkpt>
      <trkpt lat="28.7299670" lon="-17.9456350">
        <ele>1125.0</ele>
        <time>2020-11-16T18:41:39Z</time>
      </trkpt>
      <trkpt lat="28.7299670" lon="-17.9456350">
        <ele>1125.0</ele>
        <time>2020-11-16T18:41:40Z</time>
      </trkpt>
      <trkpt lat="28.7299750" lon="-17.9455900">
        <ele>1125.0</ele>
        <time>2020-11-16T18:41:41Z</time>
      </trkpt>
      <trkpt lat="28.7299750" lon="-17.9455900">
        <ele>1125.0</ele>
        <time>2020-11-16T18:41:42Z</time>
      </trkpt>
      <trkpt lat="28.7299930" lon="-17.9455450">
        <ele>1125.1</ele>
        <time>2020-11-16T18:41:43Z</time>
      </trkpt>
      <trkpt lat="28.7299930" lon="-17.9455450">
        <ele>1125.1</ele>
        <time>2020-11-16T18:41:44Z</time>
      </trkpt>
      <trkpt lat="28.7300280" lon="-17.9455070">
        <ele>1125.4</ele>
        <time>2020-11-16T18:41:45Z</time>
      </trkpt>
      <trkpt lat="28.7300280" lon="-17.9455070">
        <ele>1125.4</ele>
        <time>2020-11-16T18:41:46Z</time>
      </trkpt>
      <trkpt lat="28.7300580" lon="-17.9454720">
        <ele>1125.6</ele>
        <time>2020-11-16T18:41:47Z</time>
      </trkpt>
      <trkpt lat="28.7300580" lon="-17.9454720">
        <ele>1125.6</ele>
        <time>2020-11-16T18:41:48Z</time>
      </trkpt>
      <trkpt lat="28.7300950" lon="-17.9454380">
        <ele>1125.8</ele>
        <time>2020-11-16T18:41:49Z</time>
      </trkpt>
      <trkpt lat="28.7301100" lon="-17.9454220">
        <ele>1125.9</ele>
        <time>2020-11-16T18:41:50Z</time>
      </trkpt>
      <trkpt lat="28.7301100" lon="-17.9454220">
        <ele>1125.9</ele>
        <time>2020-11-16T18:41:51Z</time>
      </trkpt>
      <trkpt lat="28.7301370" lon="-17.9453850">
        <ele>1126.2</ele>
        <time>2020-11-16T18:41:52Z</time>
      </trkpt>
      <trkpt lat="28.7301370" lon="-17.9453850">
        <ele>1126.2</ele>
        <time>2020-11-16T18:41:53Z</time>
      </trkpt>
      <trkpt lat="28.7301630" lon="-17.9453420">
        <ele>1126.4</ele>
        <time>2020-11-16T18:41:54Z</time>
      </trkpt>
      <trkpt lat="28.7301630" lon="-17.9453420">
        <ele>1126.4</ele>
        <time>2020-11-16T18:41:55Z</time>
      </trkpt>
      <trkpt lat="28.7302100" lon="-17.9452820">
        <ele>1126.8</ele>
        <time>2020-11-16T18:41:56Z</time>
      </trkpt>
      <trkpt lat="28.7302100" lon="-17.9452820">
        <ele>1126.8</ele>
        <time>2020-11-16T18:41:57Z</time>
      </trkpt>
      <trkpt lat="28.7302320" lon="-17.9452370">
        <ele>1127.0</ele>
        <time>2020-11-16T18:41:58Z</time>
      </trkpt>
      <trkpt lat="28.7302320" lon="-17.9452370">
        <ele>1127.0</ele>
        <time>2020-11-16T18:41:59Z</time>
      </trkpt>
      <trkpt lat="28.7302320" lon="-17.9451770">
        <ele>1127.3</ele>
        <time>2020-11-16T18:42:00Z</time>
      </trkpt>
      <trkpt lat="28.7302320" lon="-17.9451770">
        <ele>1127.3</ele>
        <time>2020-11-16T18:42:01Z</time>
      </trkpt>
      <trkpt lat="28.7302400" lon="-17.9451170">
        <ele>1127.7</ele>
        <time>2020-11-16T18:42:02Z</time>
      </trkpt>
      <trkpt lat="28.7302400" lon="-17.9451170">
        <ele>1127.7</ele>
        <time>2020-11-16T18:42:03Z</time>
      </trkpt>
      <trkpt lat="28.7302400" lon="-17.9450730">
        <ele>1127.9</ele>
        <time>2020-11-16T18:42:04Z</time>
      </trkpt>
      <trkpt lat="28.7302400" lon="-17.9450730">
        <ele>1127.9</ele>
        <time>2020-11-16T18:42:05Z</time>
      </trkpt>
      <trkpt lat="28.7302370" lon="-17.9450230">
        <ele>1128.3</ele>
        <time>2020-11-16T18:42:06Z</time>
      </trkpt>
      <trkpt lat="28.7302370" lon="-17.9450230">
        <ele>1128.3</ele>
        <time>2020-11-16T18:42:07Z</time>
      </trkpt>
      <trkpt lat="28.7302330" lon="-17.9449800">
        <ele>1128.6</ele>
        <time>2020-11-16T18:42:08Z</time>
      </trkpt>
      <trkpt lat="28.7302330" lon="-17.9449800">
        <ele>1128.6</ele>
        <time>2020-11-16T18:42:09Z</time>
      </trkpt>
      <trkpt lat="28.7302330" lon="-17.9449370">
        <ele>1128.9</ele>
        <time>2020-11-16T18:42:10Z</time>
      </trkpt>
      <trkpt lat="28.7302380" lon="-17.9449180">
        <ele>1129.0</ele>
        <time>2020-11-16T18:42:11Z</time>
      </trkpt>
      <trkpt lat="28.7302380" lon="-17.9449180">
        <ele>1129.0</ele>
        <time>2020-11-16T18:42:12Z</time>
      </trkpt>
      <trkpt lat="28.7302430" lon="-17.9448750">
        <ele>1129.3</ele>
        <time>2020-11-16T18:42:13Z</time>
      </trkpt>
      <trkpt lat="28.7302430" lon="-17.9448750">
        <ele>1129.3</ele>
        <time>2020-11-16T18:42:14Z</time>
      </trkpt>
      <trkpt lat="28.7302520" lon="-17.9448350">
        <ele>1129.6</ele>
        <time>2020-11-16T18:42:15Z</time>
      </trkpt>
      <trkpt lat="28.7302430" lon="-17.9448150">
        <ele>1129.8</ele>
        <time>2020-11-16T18:42:16Z</time>
      </trkpt>
      <trkpt lat="28.7302430" lon="-17.9448150">
        <ele>1129.8</ele>
        <time>2020-11-16T18:42:17Z</time>
      </trkpt>
      <trkpt lat="28.7302380" lon="-17.9447750">
        <ele>1130.1</ele>
        <time>2020-11-16T18:42:18Z</time>
      </trkpt>
      <trkpt lat="28.7302400" lon="-17.9447530">
        <ele>1130.2</ele>
        <time>2020-11-16T18:42:19Z</time>
      </trkpt>
      <trkpt lat="28.7302430" lon="-17.9447270">
        <ele>1130.4</ele>
        <time>2020-11-16T18:42:20Z</time>
      </trkpt>
      <trkpt lat="28.7302430" lon="-17.9447270">
        <ele>1130.4</ele>
        <time>2020-11-16T18:42:21Z</time>
      </trkpt>
      <trkpt lat="28.7302630" lon="-17.9446780">
        <ele>1130.8</ele>
        <time>2020-11-16T18:42:22Z</time>
      </trkpt>
      <trkpt lat="28.7302630" lon="-17.9446780">
        <ele>1130.8</ele>
        <time>2020-11-16T18:42:23Z</time>
      </trkpt>
      <trkpt lat="28.7302900" lon="-17.9446350">
        <ele>1131.2</ele>
        <time>2020-11-16T18:42:24Z</time>
      </trkpt>
      <trkpt lat="28.7302900" lon="-17.9446350">
        <ele>1131.2</ele>
        <time>2020-11-16T18:42:25Z</time>
      </trkpt>
      <trkpt lat="28.7303270" lon="-17.9445730">
        <ele>1131.8</ele>
        <time>2020-11-16T18:42:26Z</time>
      </trkpt>
      <trkpt lat="28.7303270" lon="-17.9445730">
        <ele>1131.8</ele>
        <time>2020-11-16T18:42:27Z</time>
      </trkpt>
      <trkpt lat="28.7303280" lon="-17.9445270">
        <ele>1132.2</ele>
        <time>2020-11-16T18:42:28Z</time>
      </trkpt>
      <trkpt lat="28.7303280" lon="-17.9445270">
        <ele>1132.2</ele>
        <time>2020-11-16T18:42:29Z</time>
      </trkpt>
      <trkpt lat="28.7303370" lon="-17.9444870">
        <ele>1132.5</ele>
        <time>2020-11-16T18:42:30Z</time>
      </trkpt>
      <trkpt lat="28.7303370" lon="-17.9444870">
        <ele>1132.5</ele>
        <time>2020-11-16T18:42:31Z</time>
      </trkpt>
      <trkpt lat="28.7303480" lon="-17.9444420">
        <ele>1132.8</ele>
        <time>2020-11-16T18:42:32Z</time>
      </trkpt>
      <trkpt lat="28.7303480" lon="-17.9444420">
        <ele>1132.8</ele>
        <time>2020-11-16T18:42:33Z</time>
      </trkpt>
      <trkpt lat="28.7303600" lon="-17.9444000">
        <ele>1133.1</ele>
        <time>2020-11-16T18:42:34Z</time>
      </trkpt>
      <trkpt lat="28.7303620" lon="-17.9443770">
        <ele>1133.3</ele>
        <time>2020-11-16T18:42:35Z</time>
      </trkpt>
      <trkpt lat="28.7303620" lon="-17.9443770">
        <ele>1133.3</ele>
        <time>2020-11-16T18:42:36Z</time>
      </trkpt>
      <trkpt lat="28.7303630" lon="-17.9443270">
        <ele>1133.6</ele>
        <time>2020-11-16T18:42:37Z</time>
      </trkpt>
      <trkpt lat="28.7303630" lon="-17.9442980">
        <ele>1133.8</ele>
        <time>2020-11-16T18:42:38Z</time>
      </trkpt>
      <trkpt lat="28.7303630" lon="-17.9442980">
        <ele>1133.8</ele>
        <time>2020-11-16T18:42:39Z</time>
      </trkpt>
      <trkpt lat="28.7303700" lon="-17.9442480">
        <ele>1134.1</ele>
        <time>2020-11-16T18:42:40Z</time>
      </trkpt>
      <trkpt lat="28.7303700" lon="-17.9442480">
        <ele>1134.1</ele>
        <time>2020-11-16T18:42:41Z</time>
      </trkpt>
      <trkpt lat="28.7303750" lon="-17.9441950">
        <ele>1134.5</ele>
        <time>2020-11-16T18:42:42Z</time>
      </trkpt>
      <trkpt lat="28.7303750" lon="-17.9441950">
        <ele>1134.5</ele>
        <time>2020-11-16T18:42:43Z</time>
      </trkpt>
      <trkpt lat="28.7303870" lon="-17.9441550">
        <ele>1134.7</ele>
        <time>2020-11-16T18:42:44Z</time>
      </trkpt>
      <trkpt lat="28.7303950" lon="-17.9441370">
        <ele>1134.8</ele>
        <time>2020-11-16T18:42:45Z</time>
      </trkpt>
      <trkpt lat="28.7303950" lon="-17.9441370">
        <ele>1134.8</ele>
        <time>2020-11-16T18:42:46Z</time>
      </trkpt>
      <trkpt lat="28.7304070" lon="-17.9440980">
        <ele>1135.0</ele>
        <time>2020-11-16T18:42:47Z</time>
      </trkpt>
      <trkpt lat="28.7304070" lon="-17.9440980">
        <ele>1135.0</ele>
        <time>2020-11-16T18:42:48Z</time>
      </trkpt>
      <trkpt lat="28.7304200" lon="-17.9440550">
        <ele>1135.2</ele>
        <time>2020-11-16T18:42:49Z</time>
      </trkpt>
      <trkpt lat="28.7304200" lon="-17.9440550">
        <ele>1135.2</ele>
        <time>2020-11-16T18:42:50Z</time>
      </trkpt>
      <trkpt lat="28.7304220" lon="-17.9440030">
        <ele>1135.4</ele>
        <time>2020-11-16T18:42:51Z</time>
      </trkpt>
      <trkpt lat="28.7304220" lon="-17.9440030">
        <ele>1135.4</ele>
        <time>2020-11-16T18:42:52Z</time>
      </trkpt>
      <trkpt lat="28.7304300" lon="-17.9439630">
        <ele>1135.4</ele>
        <time>2020-11-16T18:42:53Z</time>
      </trkpt>
      <trkpt lat="28.7304300" lon="-17.9439630">
        <ele>1135.4</ele>
        <time>2020-11-16T18:42:54Z</time>
      </trkpt>
      <trkpt lat="28.7304350" lon="-17.9439270">
        <ele>1135.5</ele>
        <time>2020-11-16T18:42:55Z</time>
      </trkpt>
      <trkpt lat="28.7304370" lon="-17.9439200">
        <ele>1135.5</ele>
        <time>2020-11-16T18:42:56Z</time>
      </trkpt>
      <trkpt lat="28.7304440" lon="-17.9439010">
        <ele>1135.5</ele>
        <time>2020-11-16T18:42:57Z</time>
      </trkpt>
      <trkpt lat="28.7304510" lon="-17.9438810">
        <ele>1135.5</ele>
        <time>2020-11-16T18:42:58Z</time>
      </trkpt>
      <trkpt lat="28.7304580" lon="-17.9438620">
        <ele>1135.6</ele>
        <time>2020-11-16T18:42:59Z</time>
      </trkpt>
      <trkpt lat="28.7304650" lon="-17.9438430">
        <ele>1135.6</ele>
        <time>2020-11-16T18:43:00Z</time>
      </trkpt>
      <trkpt lat="28.7304720" lon="-17.9438230">
        <ele>1135.6</ele>
        <time>2020-11-16T18:43:46Z</time>
      </trkpt>
      <trkpt lat="28.7304790" lon="-17.9438040">
        <ele>1135.6</ele>
        <time>2020-11-16T18:43:47Z</time>
      </trkpt>
      <trkpt lat="28.7304860" lon="-17.9437840">
        <ele>1135.6</ele>
        <time>2020-11-16T18:43:48Z</time>
      </trkpt>
      <trkpt lat="28.7304930" lon="-17.9437650">
        <ele>1135.6</ele>
        <time>2020-11-16T18:43:49Z</time>
      </trkpt>
      <trkpt lat="28.7305050" lon="-17.9437350">
        <ele>1135.6</ele>
        <time>2020-11-16T18:43:50Z</time>
      </trkpt>
      <trkpt lat="28.7305050" lon="-17.9437350">
        <ele>1135.6</ele>
        <time>2020-11-16T18:43:51Z</time>
      </trkpt>
      <trkpt lat="28.7305220" lon="-17.9436720">
        <ele>1135.5</ele>
        <time>2020-11-16T18:43:52Z</time>
      </trkpt>
      <trkpt lat="28.7305220" lon="-17.9436720">
        <ele>1135.5</ele>
        <time>2020-11-16T18:43:53Z</time>
      </trkpt>
      <trkpt lat="28.7305300" lon="-17.9436080">
        <ele>1135.5</ele>
        <time>2020-11-16T18:43:54Z</time>
      </trkpt>
      <trkpt lat="28.7305300" lon="-17.9436080">
        <ele>1135.5</ele>
        <time>2020-11-16T18:43:55Z</time>
      </trkpt>
      <trkpt lat="28.7305430" lon="-17.9435480">
        <ele>1135.5</ele>
        <time>2020-11-16T18:43:56Z</time>
      </trkpt>
      <trkpt lat="28.7305430" lon="-17.9435480">
        <ele>1135.5</ele>
        <time>2020-11-16T18:43:57Z</time>
      </trkpt>
      <trkpt lat="28.7305420" lon="-17.9434770">
        <ele>1135.6</ele>
        <time>2020-11-16T18:43:58Z</time>
      </trkpt>
      <trkpt lat="28.7305420" lon="-17.9434770">
        <ele>1135.6</ele>
        <time>2020-11-16T18:43:59Z</time>
      </trkpt>
      <trkpt lat="28.7305600" lon="-17.9434170">
        <ele>1135.6</ele>
        <time>2020-11-16T18:44:00Z</time>
      </trkpt>
      <trkpt lat="28.7305600" lon="-17.9434170">
        <ele>1135.6</ele>
        <time>2020-11-16T18:44:01Z</time>
      </trkpt>
      <trkpt lat="28.7305630" lon="-17.9433630">
        <ele>1135.7</ele>
        <time>2020-11-16T18:44:02Z</time>
      </trkpt>
      <trkpt lat="28.7305630" lon="-17.9433630">
        <ele>1135.7</ele>
        <time>2020-11-16T18:44:03Z</time>
      </trkpt>
      <trkpt lat="28.7305720" lon="-17.9433120">
        <ele>1135.7</ele>
        <time>2020-11-16T18:44:04Z</time>
      </trkpt>
      <trkpt lat="28.7305650" lon="-17.9432770">
        <ele>1135.7</ele>
        <time>2020-11-16T18:44:05Z</time>
      </trkpt>
      <trkpt lat="28.7305650" lon="-17.9432770">
        <ele>1135.7</ele>
        <time>2020-11-16T18:44:06Z</time>
      </trkpt>
      <trkpt lat="28.7305450" lon="-17.9432030">
        <ele>1135.8</ele>
        <time>2020-11-16T18:44:07Z</time>
      </trkpt>
      <trkpt lat="28.7305450" lon="-17.9432030">
        <ele>1135.8</ele>
        <time>2020-11-16T18:44:08Z</time>
      </trkpt>
      <trkpt lat="28.7305350" lon="-17.9431320">
        <ele>1135.9</ele>
        <time>2020-11-16T18:44:09Z</time>
      </trkpt>
      <trkpt lat="28.7305230" lon="-17.9430980">
        <ele>1135.9</ele>
        <time>2020-11-16T18:44:10Z</time>
      </trkpt>
      <trkpt lat="28.7305230" lon="-17.9430980">
        <ele>1135.9</ele>
        <time>2020-11-16T18:44:11Z</time>
      </trkpt>
      <trkpt lat="28.7305080" lon="-17.9430250">
        <ele>1136.0</ele>
        <time>2020-11-16T18:44:12Z</time>
      </trkpt>
      <trkpt lat="28.7305080" lon="-17.9430250">
        <ele>1136.0</ele>
        <time>2020-11-16T18:44:13Z</time>
      </trkpt>
      <trkpt lat="28.7304830" lon="-17.9429550">
        <ele>1136.0</ele>
        <time>2020-11-16T18:44:14Z</time>
      </trkpt>
      <trkpt lat="28.7304690" lon="-17.9429230">
        <ele>1136.0</ele>
        <time>2020-11-16T18:44:15Z</time>
      </trkpt>
      <trkpt lat="28.7304550" lon="-17.9428920">
        <ele>1136.0</ele>
        <time>2020-11-16T18:44:16Z</time>
      </trkpt>
      <trkpt lat="28.7304550" lon="-17.9428920">
        <ele>1136.0</ele>
        <time>2020-11-16T18:44:17Z</time>
      </trkpt>
      <trkpt lat="28.7304070" lon="-17.9428250">
        <ele>1135.8</ele>
        <time>2020-11-16T18:44:18Z</time>
      </trkpt>
      <trkpt lat="28.7304070" lon="-17.9428250">
        <ele>1135.8</ele>
        <time>2020-11-16T18:44:19Z</time>
      </trkpt>
      <trkpt lat="28.7303530" lon="-17.9427750">
        <ele>1135.4</ele>
        <time>2020-11-16T18:44:20Z</time>
      </trkpt>
      <trkpt lat="28.7303530" lon="-17.9427750">
        <ele>1135.4</ele>
        <time>2020-11-16T18:44:21Z</time>
      </trkpt>
      <trkpt lat="28.7302970" lon="-17.9427980">
        <ele>1135.1</ele>
        <time>2020-11-16T18:44:22Z</time>
      </trkpt>
      <trkpt lat="28.7302970" lon="-17.9427980">
        <ele>1135.1</ele>
        <time>2020-11-16T18:44:23Z</time>
      </trkpt>
      <trkpt lat="28.7302450" lon="-17.9428830">
        <ele>1134.6</ele>
        <time>2020-11-16T18:44:24Z</time>
      </trkpt>
      <trkpt lat="28.7302450" lon="-17.9428830">
        <ele>1134.6</ele>
        <time>2020-11-16T18:44:25Z</time>
      </trkpt>
      <trkpt lat="28.7302170" lon="-17.9429630">
        <ele>1134.3</ele>
        <time>2020-11-16T18:44:26Z</time>
      </trkpt>
      <trkpt lat="28.7302080" lon="-17.9429970">
        <ele>1134.3</ele>
        <time>2020-11-16T18:44:27Z</time>
      </trkpt>
      <trkpt lat="28.7302080" lon="-17.9429970">
        <ele>1134.3</ele>
        <time>2020-11-16T18:44:28Z</time>
      </trkpt>
      <trkpt lat="28.7301970" lon="-17.9430580">
        <ele>1134.2</ele>
        <time>2020-11-16T18:44:29Z</time>
      </trkpt>
      <trkpt lat="28.7301970" lon="-17.9430580">
        <ele>1134.2</ele>
        <time>2020-11-16T18:44:30Z</time>
      </trkpt>
      <trkpt lat="28.7302000" lon="-17.9431220">
        <ele>1134.2</ele>
        <time>2020-11-16T18:44:31Z</time>
      </trkpt>
      <trkpt lat="28.7301930" lon="-17.9431600">
        <ele>1134.3</ele>
        <time>2020-11-16T18:44:32Z</time>
      </trkpt>
      <trkpt lat="28.7301930" lon="-17.9431600">
        <ele>1134.3</ele>
        <time>2020-11-16T18:44:33Z</time>
      </trkpt>
      <trkpt lat="28.7301580" lon="-17.9432200">
        <ele>1134.5</ele>
        <time>2020-11-16T18:44:34Z</time>
      </trkpt>
      <trkpt lat="28.7301580" lon="-17.9432200">
        <ele>1134.5</ele>
        <time>2020-11-16T18:44:35Z</time>
      </trkpt>
      <trkpt lat="28.7301180" lon="-17.9432620">
        <ele>1134.7</ele>
        <time>2020-11-16T18:44:36Z</time>
      </trkpt>
      <trkpt lat="28.7301180" lon="-17.9432620">
        <ele>1134.7</ele>
        <time>2020-11-16T18:44:37Z</time>
      </trkpt>
      <trkpt lat="28.7300630" lon="-17.9432970">
        <ele>1134.9</ele>
        <time>2020-11-16T18:44:38Z</time>
      </trkpt>
      <trkpt lat="28.7300630" lon="-17.9432970">
        <ele>1134.9</ele>
        <time>2020-11-16T18:44:39Z</time>
      </trkpt>
      <trkpt lat="28.7300030" lon="-17.9433220">
        <ele>1135.1</ele>
        <time>2020-11-16T18:44:40Z</time>
      </trkpt>
      <trkpt lat="28.7299730" lon="-17.9433370">
        <ele>1135.3</ele>
        <time>2020-11-16T18:44:41Z</time>
      </trkpt>
      <trkpt lat="28.7299730" lon="-17.9433370">
        <ele>1135.3</ele>
        <time>2020-11-16T18:44:42Z</time>
      </trkpt>
      <trkpt lat="28.7299050" lon="-17.9433720">
        <ele>1135.5</ele>
        <time>2020-11-16T18:44:43Z</time>
      </trkpt>
      <trkpt lat="28.7299050" lon="-17.9433720">
        <ele>1135.5</ele>
        <time>2020-11-16T18:44:44Z</time>
      </trkpt>
      <trkpt lat="28.7298630" lon="-17.9434200">
        <ele>1135.7</ele>
        <time>2020-11-16T18:44:45Z</time>
      </trkpt>
      <trkpt lat="28.7298350" lon="-17.9434400">
        <ele>1135.8</ele>
        <time>2020-11-16T18:44:46Z</time>
      </trkpt>
      <trkpt lat="28.7298350" lon="-17.9434400">
        <ele>1135.8</ele>
        <time>2020-11-16T18:44:47Z</time>
      </trkpt>
      <trkpt lat="28.7297870" lon="-17.9434880">
        <ele>1135.9</ele>
        <time>2020-11-16T18:44:48Z</time>
      </trkpt>
      <trkpt lat="28.7297870" lon="-17.9434880">
        <ele>1135.9</ele>
        <time>2020-11-16T18:44:49Z</time>
      </trkpt>
      <trkpt lat="28.7297250" lon="-17.9435200">
        <ele>1136.0</ele>
        <time>2020-11-16T18:44:50Z</time>
      </trkpt>
      <trkpt lat="28.7297250" lon="-17.9435200">
        <ele>1136.0</ele>
        <time>2020-11-16T18:44:51Z</time>
      </trkpt>
      <trkpt lat="28.7296650" lon="-17.9435450">
        <ele>1136.0</ele>
        <time>2020-11-16T18:44:52Z</time>
      </trkpt>
      <trkpt lat="28.7296400" lon="-17.9435630">
        <ele>1136.0</ele>
        <time>2020-11-16T18:44:53Z</time>
      </trkpt>
      <trkpt lat="28.7296400" lon="-17.9435630">
        <ele>1136.0</ele>
        <time>2020-11-16T18:44:54Z</time>
      </trkpt>
      <trkpt lat="28.7295820" lon="-17.9435970">
        <ele>1136.0</ele>
        <time>2020-11-16T18:44:55Z</time>
      </trkpt>
      <trkpt lat="28.7295820" lon="-17.9435970">
        <ele>1136.0</ele>
        <time>2020-11-16T18:44:56Z</time>
      </trkpt>
      <trkpt lat="28.7295250" lon="-17.9436320">
        <ele>1136.0</ele>
        <time>2020-11-16T18:44:57Z</time>
      </trkpt>
      <trkpt lat="28.7295250" lon="-17.9436320">
        <ele>1136.0</ele>
        <time>2020-11-16T18:44:58Z</time>
      </trkpt>
      <trkpt lat="28.7294620" lon="-17.9436670">
        <ele>1136.0</ele>
        <time>2020-11-16T18:44:59Z</time>
      </trkpt>
      <trkpt lat="28.7294620" lon="-17.9436670">
        <ele>1136.0</ele>
        <time>2020-11-16T18:45:00Z</time>
      </trkpt>
      <trkpt lat="28.7293780" lon="-17.9437020">
        <ele>1135.9</ele>
        <time>2020-11-16T18:45:01Z</time>
      </trkpt>
      <trkpt lat="28.7293780" lon="-17.9437020">
        <ele>1135.9</ele>
        <time>2020-11-16T18:45:02Z</time>
      </trkpt>
      <trkpt lat="28.7293780" lon="-17.9437020">
        <ele>1135.9</ele>
        <time>2020-11-16T18:45:03Z</time>
      </trkpt>
      <trkpt lat="28.7293180" lon="-17.9437500">
        <ele>1135.8</ele>
        <time>2020-11-16T18:45:04Z</time>
      </trkpt>
      <trkpt lat="28.7293180" lon="-17.9437500">
        <ele>1135.8</ele>
        <time>2020-11-16T18:45:05Z</time>
      </trkpt>
      <trkpt lat="28.7292500" lon="-17.9438300">
        <ele>1135.7</ele>
        <time>2020-11-16T18:45:06Z</time>
      </trkpt>
      <trkpt lat="28.7292500" lon="-17.9438300">
        <ele>1135.7</ele>
        <time>2020-11-16T18:45:07Z</time>
      </trkpt>
      <trkpt lat="28.7292020" lon="-17.9439050">
        <ele>1135.6</ele>
        <time>2020-11-16T18:45:08Z</time>
      </trkpt>
      <trkpt lat="28.7292020" lon="-17.9439050">
        <ele>1135.6</ele>
        <time>2020-11-16T18:45:09Z</time>
      </trkpt>
      <trkpt lat="28.7291450" lon="-17.9439580">
        <ele>1135.6</ele>
        <time>2020-11-16T18:45:10Z</time>
      </trkpt>
      <trkpt lat="28.7291450" lon="-17.9439580">
        <ele>1135.6</ele>
        <time>2020-11-16T18:45:11Z</time>
      </trkpt>
      <trkpt lat="28.7290800" lon="-17.9440070">
        <ele>1135.5</ele>
        <time>2020-11-16T18:45:12Z</time>
      </trkpt>
      <trkpt lat="28.7290380" lon="-17.9440400">
        <ele>1135.4</ele>
        <time>2020-11-16T18:45:13Z</time>
      </trkpt>
      <trkpt lat="28.7290380" lon="-17.9440400">
        <ele>1135.4</ele>
        <time>2020-11-16T18:45:14Z</time>
      </trkpt>
      <trkpt lat="28.7289770" lon="-17.9441150">
        <ele>1135.2</ele>
        <time>2020-11-16T18:45:15Z</time>
      </trkpt>
      <trkpt lat="28.7289770" lon="-17.9441150">
        <ele>1135.2</ele>
        <time>2020-11-16T18:45:16Z</time>
      </trkpt>
      <trkpt lat="28.7289330" lon="-17.9441880">
        <ele>1135.1</ele>
        <time>2020-11-16T18:45:17Z</time>
      </trkpt>
      <trkpt lat="28.7289170" lon="-17.9442350">
        <ele>1135.0</ele>
        <time>2020-11-16T18:45:18Z</time>
      </trkpt>
      <trkpt lat="28.7289170" lon="-17.9442350">
        <ele>1135.0</ele>
        <time>2020-11-16T18:45:19Z</time>
      </trkpt>
      <trkpt lat="28.7288920" lon="-17.9443270">
        <ele>1134.8</ele>
        <time>2020-11-16T18:45:20Z</time>
      </trkpt>
      <trkpt lat="28.7288920" lon="-17.9443270">
        <ele>1134.8</ele>
        <time>2020-11-16T18:45:21Z</time>
      </trkpt>
      <trkpt lat="28.7288720" lon="-17.9444220">
        <ele>1134.6</ele>
        <time>2020-11-16T18:45:22Z</time>
      </trkpt>
      <trkpt lat="28.7288720" lon="-17.9444220">
        <ele>1134.6</ele>
        <time>2020-11-16T18:45:23Z</time>
      </trkpt>
      <trkpt lat="28.7288450" lon="-17.9445120">
        <ele>1134.2</ele>
        <time>2020-11-16T18:45:24Z</time>
      </trkpt>
      <trkpt lat="28.7288450" lon="-17.9445120">
        <ele>1134.2</ele>
        <time>2020-11-16T18:45:25Z</time>
      </trkpt>
      <trkpt lat="28.7288070" lon="-17.9445930">
        <ele>1133.7</ele>
        <time>2020-11-16T18:45:26Z</time>
      </trkpt>
      <trkpt lat="28.7288070" lon="-17.9445930">
        <ele>1133.7</ele>
        <time>2020-11-16T18:45:27Z</time>
      </trkpt>
      <trkpt lat="28.7287470" lon="-17.9446480">
        <ele>1133.2</ele>
        <time>2020-11-16T18:45:28Z</time>
      </trkpt>
      <trkpt lat="28.7287470" lon="-17.9446480">
        <ele>1133.2</ele>
        <time>2020-11-16T18:45:29Z</time>
      </trkpt>
      <trkpt lat="28.7286730" lon="-17.9446770">
        <ele>1132.6</ele>
        <time>2020-11-16T18:45:30Z</time>
      </trkpt>
      <trkpt lat="28.7286350" lon="-17.9446920">
        <ele>1132.2</ele>
        <time>2020-11-16T18:45:31Z</time>
      </trkpt>
      <trkpt lat="28.7286350" lon="-17.9446920">
        <ele>1132.2</ele>
        <time>2020-11-16T18:45:32Z</time>
      </trkpt>
      <trkpt lat="28.7285920" lon="-17.9447370">
        <ele>1131.7</ele>
        <time>2020-11-16T18:45:33Z</time>
      </trkpt>
      <trkpt lat="28.7285920" lon="-17.9447370">
        <ele>1131.7</ele>
        <time>2020-11-16T18:45:34Z</time>
      </trkpt>
      <trkpt lat="28.7285530" lon="-17.9448050">
        <ele>1131.1</ele>
        <time>2020-11-16T18:45:35Z</time>
      </trkpt>
      <trkpt lat="28.7285230" lon="-17.9448320">
        <ele>1130.7</ele>
        <time>2020-11-16T18:45:36Z</time>
      </trkpt>
      <trkpt lat="28.7285230" lon="-17.9448320">
        <ele>1130.7</ele>
        <time>2020-11-16T18:45:37Z</time>
      </trkpt>
      <trkpt lat="28.7284530" lon="-17.9448820">
        <ele>1130.0</ele>
        <time>2020-11-16T18:45:38Z</time>
      </trkpt>
      <trkpt lat="28.7284530" lon="-17.9448820">
        <ele>1130.0</ele>
        <time>2020-11-16T18:45:39Z</time>
      </trkpt>
      <trkpt lat="28.7283980" lon="-17.9449370">
        <ele>1129.4</ele>
        <time>2020-11-16T18:45:40Z</time>
      </trkpt>
      <trkpt lat="28.7283980" lon="-17.9449370">
        <ele>1129.4</ele>
        <time>2020-11-16T18:45:41Z</time>
      </trkpt>
      <trkpt lat="28.7283470" lon="-17.9450150">
        <ele>1128.7</ele>
        <time>2020-11-16T18:45:42Z</time>
      </trkpt>
      <trkpt lat="28.7283150" lon="-17.9450530">
        <ele>1128.3</ele>
        <time>2020-11-16T18:45:43Z</time>
      </trkpt>
      <trkpt lat="28.7283150" lon="-17.9450530">
        <ele>1128.3</ele>
        <time>2020-11-16T18:45:44Z</time>
      </trkpt>
      <trkpt lat="28.7282680" lon="-17.9451300">
        <ele>1127.6</ele>
        <time>2020-11-16T18:45:45Z</time>
      </trkpt>
      <trkpt lat="28.7282680" lon="-17.9451300">
        <ele>1127.6</ele>
        <time>2020-11-16T18:45:46Z</time>
      </trkpt>
      <trkpt lat="28.7282270" lon="-17.9452080">
        <ele>1127.0</ele>
        <time>2020-11-16T18:45:47Z</time>
      </trkpt>
      <trkpt lat="28.7282270" lon="-17.9452080">
        <ele>1127.0</ele>
        <time>2020-11-16T18:45:48Z</time>
      </trkpt>
      <trkpt lat="28.7281480" lon="-17.9453110">
        <ele>1126.0</ele>
        <time>2020-11-16T18:45:49Z</time>
      </trkpt>
      <trkpt lat="28.7281280" lon="-17.9453300">
        <ele>1125.8</ele>
        <time>2020-11-16T18:45:50Z</time>
      </trkpt>
      <trkpt lat="28.7281280" lon="-17.9453300">
        <ele>1125.8</ele>
        <time>2020-11-16T18:45:51Z</time>
      </trkpt>
      <trkpt lat="28.7280530" lon="-17.9453970">
        <ele>1125.0</ele>
        <time>2020-11-16T18:45:52Z</time>
      </trkpt>
      <trkpt lat="28.7280530" lon="-17.9453970">
        <ele>1125.0</ele>
        <time>2020-11-16T18:45:53Z</time>
      </trkpt>
      <trkpt lat="28.7279870" lon="-17.9454680">
        <ele>1124.4</ele>
        <time>2020-11-16T18:45:54Z</time>
      </trkpt>
      <trkpt lat="28.7279870" lon="-17.9454680">
        <ele>1124.4</ele>
        <time>2020-11-16T18:45:55Z</time>
      </trkpt>
      <trkpt lat="28.7279250" lon="-17.9455380">
        <ele>1123.8</ele>
        <time>2020-11-16T18:45:56Z</time>
      </trkpt>
      <trkpt lat="28.7279250" lon="-17.9455380">
        <ele>1123.8</ele>
        <time>2020-11-16T18:45:57Z</time>
      </trkpt>
      <trkpt lat="28.7278750" lon="-17.9456030">
        <ele>1123.4</ele>
        <time>2020-11-16T18:45:58Z</time>
      </trkpt>
      <trkpt lat="28.7278750" lon="-17.9456030">
        <ele>1123.4</ele>
        <time>2020-11-16T18:45:59Z</time>
      </trkpt>
      <trkpt lat="28.7278300" lon="-17.9456770">
        <ele>1123.0</ele>
        <time>2020-11-16T18:46:00Z</time>
      </trkpt>
      <trkpt lat="28.7278130" lon="-17.9457170">
        <ele>1122.8</ele>
        <time>2020-11-16T18:46:01Z</time>
      </trkpt>
      <trkpt lat="28.7278130" lon="-17.9457170">
        <ele>1122.8</ele>
        <time>2020-11-16T18:46:02Z</time>
      </trkpt>
      <trkpt lat="28.7277900" lon="-17.9458080">
        <ele>1122.5</ele>
        <time>2020-11-16T18:46:03Z</time>
      </trkpt>
      <trkpt lat="28.7277900" lon="-17.9458080">
        <ele>1122.5</ele>
        <time>2020-11-16T18:46:04Z</time>
      </trkpt>
      <trkpt lat="28.7277430" lon="-17.9458480">
        <ele>1122.3</ele>
        <time>2020-11-16T18:46:05Z</time>
      </trkpt>
      <trkpt lat="28.7276980" lon="-17.9458480">
        <ele>1122.2</ele>
        <time>2020-11-16T18:46:06Z</time>
      </trkpt>
      <trkpt lat="28.7276980" lon="-17.9458480">
        <ele>1122.2</ele>
        <time>2020-11-16T18:46:07Z</time>
      </trkpt>
      <trkpt lat="28.7276570" lon="-17.9458830">
        <ele>1121.9</ele>
        <time>2020-11-16T18:46:08Z</time>
      </trkpt>
      <trkpt lat="28.7276570" lon="-17.9458830">
        <ele>1121.9</ele>
        <time>2020-11-16T18:46:09Z</time>
      </trkpt>
      <trkpt lat="28.7275900" lon="-17.9459130">
        <ele>1121.5</ele>
        <time>2020-11-16T18:46:10Z</time>
      </trkpt>
      <trkpt lat="28.7275480" lon="-17.9459220">
        <ele>1121.3</ele>
        <time>2020-11-16T18:46:11Z</time>
      </trkpt>
      <trkpt lat="28.7275480" lon="-17.9459220">
        <ele>1121.3</ele>
        <time>2020-11-16T18:46:12Z</time>
      </trkpt>
      <trkpt lat="28.7274870" lon="-17.9458970">
        <ele>1120.9</ele>
        <time>2020-11-16T18:46:13Z</time>
      </trkpt>
      <trkpt lat="28.7274530" lon="-17.9458720">
        <ele>1120.7</ele>
        <time>2020-11-16T18:46:14Z</time>
      </trkpt>
      <trkpt lat="28.7274230" lon="-17.9458480">
        <ele>1120.6</ele>
        <time>2020-11-16T18:46:15Z</time>
      </trkpt>
      <trkpt lat="28.7274230" lon="-17.9458480">
        <ele>1120.6</ele>
        <time>2020-11-16T18:46:16Z</time>
      </trkpt>
      <trkpt lat="28.7273950" lon="-17.9457800">
        <ele>1120.3</ele>
        <time>2020-11-16T18:46:17Z</time>
      </trkpt>
      <trkpt lat="28.7273950" lon="-17.9457800">
        <ele>1120.3</ele>
        <time>2020-11-16T18:46:18Z</time>
      </trkpt>
      <trkpt lat="28.7273920" lon="-17.9456930">
        <ele>1120.1</ele>
        <time>2020-11-16T18:46:19Z</time>
      </trkpt>
      <trkpt lat="28.7273920" lon="-17.9456930">
        <ele>1120.1</ele>
        <time>2020-11-16T18:46:20Z</time>
      </trkpt>
      <trkpt lat="28.7274000" lon="-17.9456120">
        <ele>1120.1</ele>
        <time>2020-11-16T18:46:21Z</time>
      </trkpt>
      <trkpt lat="28.7274000" lon="-17.9456120">
        <ele>1120.1</ele>
        <time>2020-11-16T18:46:22Z</time>
      </trkpt>
      <trkpt lat="28.7274150" lon="-17.9455320">
        <ele>1120.1</ele>
        <time>2020-11-16T18:46:23Z</time>
      </trkpt>
      <trkpt lat="28.7274150" lon="-17.9455320">
        <ele>1120.1</ele>
        <time>2020-11-16T18:46:24Z</time>
      </trkpt>
      <trkpt lat="28.7274270" lon="-17.9454450">
        <ele>1120.2</ele>
        <time>2020-11-16T18:46:25Z</time>
      </trkpt>
      <trkpt lat="28.7274270" lon="-17.9454450">
        <ele>1120.2</ele>
        <time>2020-11-16T18:46:26Z</time>
      </trkpt>
      <trkpt lat="28.7274450" lon="-17.9453670">
        <ele>1120.3</ele>
        <time>2020-11-16T18:46:27Z</time>
      </trkpt>
      <trkpt lat="28.7274450" lon="-17.9453670">
        <ele>1120.3</ele>
        <time>2020-11-16T18:46:28Z</time>
      </trkpt>
      <trkpt lat="28.7274480" lon="-17.9452680">
        <ele>1120.5</ele>
        <time>2020-11-16T18:46:29Z</time>
      </trkpt>
      <trkpt lat="28.7274480" lon="-17.9452680">
        <ele>1120.5</ele>
        <time>2020-11-16T18:46:30Z</time>
      </trkpt>
      <trkpt lat="28.7274550" lon="-17.9451830">
        <ele>1120.6</ele>
        <time>2020-11-16T18:46:31Z</time>
      </trkpt>
      <trkpt lat="28.7274530" lon="-17.9451320">
        <ele>1120.7</ele>
        <time>2020-11-16T18:46:32Z</time>
      </trkpt>
      <trkpt lat="28.7274530" lon="-17.9451320">
        <ele>1120.7</ele>
        <time>2020-11-16T18:46:33Z</time>
      </trkpt>
      <trkpt lat="28.7274050" lon="-17.9450470">
        <ele>1120.8</ele>
        <time>2020-11-16T18:46:34Z</time>
      </trkpt>
      <trkpt lat="28.7274050" lon="-17.9450470">
        <ele>1120.8</ele>
        <time>2020-11-16T18:46:35Z</time>
      </trkpt>
      <trkpt lat="28.7273320" lon="-17.9450120">
        <ele>1120.9</ele>
        <time>2020-11-16T18:46:36Z</time>
      </trkpt>
      <trkpt lat="28.7273320" lon="-17.9450120">
        <ele>1120.9</ele>
        <time>2020-11-16T18:46:37Z</time>
      </trkpt>
      <trkpt lat="28.7272530" lon="-17.9450150">
        <ele>1121.1</ele>
        <time>2020-11-16T18:46:38Z</time>
      </trkpt>
      <trkpt lat="28.7272530" lon="-17.9450150">
        <ele>1121.1</ele>
        <time>2020-11-16T18:46:39Z</time>
      </trkpt>
      <trkpt lat="28.7271850" lon="-17.9450070">
        <ele>1121.3</ele>
        <time>2020-11-16T18:46:40Z</time>
      </trkpt>
      <trkpt lat="28.7271850" lon="-17.9450070">
        <ele>1121.3</ele>
        <time>2020-11-16T18:46:41Z</time>
      </trkpt>
      <trkpt lat="28.7271220" lon="-17.9450020">
        <ele>1121.6</ele>
        <time>2020-11-16T18:46:42Z</time>
      </trkpt>
      <trkpt lat="28.7271220" lon="-17.9450020">
        <ele>1121.6</ele>
        <time>2020-11-16T18:46:43Z</time>
      </trkpt>
      <trkpt lat="28.7270680" lon="-17.9449980">
        <ele>1121.9</ele>
        <time>2020-11-16T18:46:44Z</time>
      </trkpt>
      <trkpt lat="28.7270680" lon="-17.9449980">
        <ele>1121.9</ele>
        <time>2020-11-16T18:46:45Z</time>
      </trkpt>
      <trkpt lat="28.7270200" lon="-17.9450030">
        <ele>1122.1</ele>
        <time>2020-11-16T18:46:46Z</time>
      </trkpt>
      <trkpt lat="28.7269930" lon="-17.9450100">
        <ele>1122.3</ele>
        <time>2020-11-16T18:46:47Z</time>
      </trkpt>
      <trkpt lat="28.7269930" lon="-17.9450100">
        <ele>1122.3</ele>
        <time>2020-11-16T18:46:48Z</time>
      </trkpt>
      <trkpt lat="28.7269400" lon="-17.9450180">
        <ele>1122.7</ele>
        <time>2020-11-16T18:46:49Z</time>
      </trkpt>
      <trkpt lat="28.7269120" lon="-17.9450150">
        <ele>1122.9</ele>
        <time>2020-11-16T18:46:50Z</time>
      </trkpt>
      <trkpt lat="28.7269120" lon="-17.9450150">
        <ele>1122.9</ele>
        <time>2020-11-16T18:46:51Z</time>
      </trkpt>
      <trkpt lat="28.7268730" lon="-17.9449750">
        <ele>1123.3</ele>
        <time>2020-11-16T18:46:52Z</time>
      </trkpt>
      <trkpt lat="28.7268730" lon="-17.9449750">
        <ele>1123.3</ele>
        <time>2020-11-16T18:46:53Z</time>
      </trkpt>
      <trkpt lat="28.7268550" lon="-17.9449270">
        <ele>1123.7</ele>
        <time>2020-11-16T18:46:54Z</time>
      </trkpt>
      <trkpt lat="28.7268550" lon="-17.9449270">
        <ele>1123.7</ele>
        <time>2020-11-16T18:46:55Z</time>
      </trkpt>
      <trkpt lat="28.7268450" lon="-17.9448850">
        <ele>1124.1</ele>
        <time>2020-11-16T18:46:56Z</time>
      </trkpt>
      <trkpt lat="28.7268450" lon="-17.9448850">
        <ele>1124.1</ele>
        <time>2020-11-16T18:46:57Z</time>
      </trkpt>
      <trkpt lat="28.7268550" lon="-17.9448480">
        <ele>1124.4</ele>
        <time>2020-11-16T18:46:58Z</time>
      </trkpt>
      <trkpt lat="28.7268550" lon="-17.9448480">
        <ele>1124.4</ele>
        <time>2020-11-16T18:46:59Z</time>
      </trkpt>
      <trkpt lat="28.7268730" lon="-17.9448150">
        <ele>1124.7</ele>
        <time>2020-11-16T18:47:00Z</time>
      </trkpt>
      <trkpt lat="28.7268880" lon="-17.9447800">
        <ele>1125.1</ele>
        <time>2020-11-16T18:47:01Z</time>
      </trkpt>
      <trkpt lat="28.7268880" lon="-17.9447800">
        <ele>1125.1</ele>
        <time>2020-11-16T18:47:02Z</time>
      </trkpt>
      <trkpt lat="28.7268880" lon="-17.9447800">
        <ele>1125.1</ele>
        <time>2020-11-16T18:47:03Z</time>
      </trkpt>
      <trkpt lat="28.7268950" lon="-17.9447280">
        <ele>1125.5</ele>
        <time>2020-11-16T18:47:04Z</time>
      </trkpt>
      <trkpt lat="28.7268900" lon="-17.9447030">
        <ele>1125.7</ele>
        <time>2020-11-16T18:47:05Z</time>
      </trkpt>
      <trkpt lat="28.7268900" lon="-17.9447030">
        <ele>1125.7</ele>
        <time>2020-11-16T18:47:06Z</time>
      </trkpt>
      <trkpt lat="28.7268730" lon="-17.9446470">
        <ele>1126.2</ele>
        <time>2020-11-16T18:47:07Z</time>
      </trkpt>
      <trkpt lat="28.7268680" lon="-17.9446280">
        <ele>1126.3</ele>
        <time>2020-11-16T18:47:08Z</time>
      </trkpt>
      <trkpt lat="28.7268680" lon="-17.9446280">
        <ele>1126.3</ele>
        <time>2020-11-16T18:47:09Z</time>
      </trkpt>
      <trkpt lat="28.7268200" lon="-17.9445900">
        <ele>1126.8</ele>
        <time>2020-11-16T18:47:10Z</time>
      </trkpt>
      <trkpt lat="28.7268200" lon="-17.9445900">
        <ele>1126.8</ele>
        <time>2020-11-16T18:47:11Z</time>
      </trkpt>
      <trkpt lat="28.7267520" lon="-17.9445830">
        <ele>1127.4</ele>
        <time>2020-11-16T18:47:12Z</time>
      </trkpt>
      <trkpt lat="28.7267520" lon="-17.9445830">
        <ele>1127.4</ele>
        <time>2020-11-16T18:47:13Z</time>
      </trkpt>
      <trkpt lat="28.7267030" lon="-17.9445780">
        <ele>1127.8</ele>
        <time>2020-11-16T18:47:14Z</time>
      </trkpt>
      <trkpt lat="28.7267030" lon="-17.9445780">
        <ele>1127.8</ele>
        <time>2020-11-16T18:47:15Z</time>
      </trkpt>
      <trkpt lat="28.7266650" lon="-17.9445730">
        <ele>1128.1</ele>
        <time>2020-11-16T18:47:16Z</time>
      </trkpt>
      <trkpt lat="28.7266650" lon="-17.9445730">
        <ele>1128.1</ele>
        <time>2020-11-16T18:47:17Z</time>
      </trkpt>
      <trkpt lat="28.7266320" lon="-17.9445720">
        <ele>1128.4</ele>
        <time>2020-11-16T18:47:18Z</time>
      </trkpt>
      <trkpt lat="28.7266320" lon="-17.9445720">
        <ele>1128.4</ele>
        <time>2020-11-16T18:47:19Z</time>
      </trkpt>
      <trkpt lat="28.7265920" lon="-17.9445750">
        <ele>1128.7</ele>
        <time>2020-11-16T18:47:20Z</time>
      </trkpt>
      <trkpt lat="28.7265700" lon="-17.9445720">
        <ele>1128.8</ele>
        <time>2020-11-16T18:47:21Z</time>
      </trkpt>
      <trkpt lat="28.7265700" lon="-17.9445720">
        <ele>1128.8</ele>
        <time>2020-11-16T18:47:22Z</time>
      </trkpt>
      <trkpt lat="28.7265250" lon="-17.9445550">
        <ele>1129.2</ele>
        <time>2020-11-16T18:47:23Z</time>
      </trkpt>
      <trkpt lat="28.7265250" lon="-17.9445550">
        <ele>1129.2</ele>
        <time>2020-11-16T18:47:24Z</time>
      </trkpt>
      <trkpt lat="28.7264930" lon="-17.9445300">
        <ele>1129.4</ele>
        <time>2020-11-16T18:47:25Z</time>
      </trkpt>
      <trkpt lat="28.7264930" lon="-17.9445300">
        <ele>1129.4</ele>
        <time>2020-11-16T18:47:26Z</time>
      </trkpt>
      <trkpt lat="28.7264750" lon="-17.9444880">
        <ele>1129.7</ele>
        <time>2020-11-16T18:47:27Z</time>
      </trkpt>
      <trkpt lat="28.7264730" lon="-17.9444670">
        <ele>1129.8</ele>
        <time>2020-11-16T18:47:28Z</time>
      </trkpt>
      <trkpt lat="28.7264730" lon="-17.9444670">
        <ele>1129.8</ele>
        <time>2020-11-16T18:47:29Z</time>
      </trkpt>
      <trkpt lat="28.7264770" lon="-17.9444180">
        <ele>1130.1</ele>
        <time>2020-11-16T18:47:30Z</time>
      </trkpt>
      <trkpt lat="28.7264770" lon="-17.9444180">
        <ele>1130.1</ele>
        <time>2020-11-16T18:47:31Z</time>
      </trkpt>
      <trkpt lat="28.7264880" lon="-17.9443650">
        <ele>1130.4</ele>
        <time>2020-11-16T18:47:32Z</time>
      </trkpt>
      <trkpt lat="28.7264880" lon="-17.9443650">
        <ele>1130.4</ele>
        <time>2020-11-16T18:47:33Z</time>
      </trkpt>
      <trkpt lat="28.7264970" lon="-17.9443080">
        <ele>1130.7</ele>
        <time>2020-11-16T18:47:34Z</time>
      </trkpt>
      <trkpt lat="28.7265030" lon="-17.9442830">
        <ele>1130.8</ele>
        <time>2020-11-16T18:47:35Z</time>
      </trkpt>
      <trkpt lat="28.7265030" lon="-17.9442830">
        <ele>1130.8</ele>
        <time>2020-11-16T18:47:36Z</time>
      </trkpt>
      <trkpt lat="28.7265250" lon="-17.9442270">
        <ele>1131.0</ele>
        <time>2020-11-16T18:47:37Z</time>
      </trkpt>
      <trkpt lat="28.7265250" lon="-17.9442270">
        <ele>1131.0</ele>
        <time>2020-11-16T18:47:38Z</time>
      </trkpt>
      <trkpt lat="28.7265470" lon="-17.9441630">
        <ele>1131.2</ele>
        <time>2020-11-16T18:47:39Z</time>
      </trkpt>
      <trkpt lat="28.7265470" lon="-17.9441630">
        <ele>1131.2</ele>
        <time>2020-11-16T18:47:40Z</time>
      </trkpt>
      <trkpt lat="28.7265680" lon="-17.9441100">
        <ele>1131.2</ele>
        <time>2020-11-16T18:47:41Z</time>
      </trkpt>
      <trkpt lat="28.7265770" lon="-17.9440870">
        <ele>1131.2</ele>
        <time>2020-11-16T18:47:42Z</time>
      </trkpt>
      <trkpt lat="28.7265770" lon="-17.9440870">
        <ele>1131.2</ele>
        <time>2020-11-16T18:47:43Z</time>
      </trkpt>
      <trkpt lat="28.7265770" lon="-17.9440170">
        <ele>1131.2</ele>
        <time>2020-11-16T18:47:44Z</time>
      </trkpt>
      <trkpt lat="28.7265770" lon="-17.9440170">
        <ele>1131.2</ele>
        <time>2020-11-16T18:47:45Z</time>
      </trkpt>
      <trkpt lat="28.7265350" lon="-17.9439170">
        <ele>1131.1</ele>
        <time>2020-11-16T18:47:46Z</time>
      </trkpt>
      <trkpt lat="28.7265350" lon="-17.9439170">
        <ele>1131.1</ele>
        <time>2020-11-16T18:47:47Z</time>
      </trkpt>
      <trkpt lat="28.7264900" lon="-17.9438150">
        <ele>1130.8</ele>
        <time>2020-11-16T18:47:48Z</time>
      </trkpt>
      <trkpt lat="28.7264900" lon="-17.9438150">
        <ele>1130.8</ele>
        <time>2020-11-16T18:47:49Z</time>
      </trkpt>
      <trkpt lat="28.7264480" lon="-17.9437180">
        <ele>1130.5</ele>
        <time>2020-11-16T18:47:50Z</time>
      </trkpt>
      <trkpt lat="28.7264480" lon="-17.9437180">
        <ele>1130.5</ele>
        <time>2020-11-16T18:47:51Z</time>
      </trkpt>
      <trkpt lat="28.7264050" lon="-17.9436320">
        <ele>1130.0</ele>
        <time>2020-11-16T18:47:52Z</time>
      </trkpt>
      <trkpt lat="28.7263730" lon="-17.9435980">
        <ele>1129.7</ele>
        <time>2020-11-16T18:47:53Z</time>
      </trkpt>
      <trkpt lat="28.7263730" lon="-17.9435980">
        <ele>1129.7</ele>
        <time>2020-11-16T18:47:54Z</time>
      </trkpt>
      <trkpt lat="28.7263020" lon="-17.9435680">
        <ele>1129.3</ele>
        <time>2020-11-16T18:47:55Z</time>
      </trkpt>
      <trkpt lat="28.7263020" lon="-17.9435680">
        <ele>1129.3</ele>
        <time>2020-11-16T18:47:56Z</time>
      </trkpt>
      <trkpt lat="28.7262250" lon="-17.9435780">
        <ele>1128.9</ele>
        <time>2020-11-16T18:47:57Z</time>
      </trkpt>
      <trkpt lat="28.7262250" lon="-17.9435780">
        <ele>1128.9</ele>
        <time>2020-11-16T18:47:58Z</time>
      </trkpt>
      <trkpt lat="28.7261420" lon="-17.9435930">
        <ele>1128.5</ele>
        <time>2020-11-16T18:47:59Z</time>
      </trkpt>
      <trkpt lat="28.7261030" lon="-17.9436050">
        <ele>1128.4</ele>
        <time>2020-11-16T18:48:00Z</time>
      </trkpt>
      <trkpt lat="28.7261030" lon="-17.9436050">
        <ele>1128.4</ele>
        <time>2020-11-16T18:48:01Z</time>
      </trkpt>
      <trkpt lat="28.7260100" lon="-17.9436330">
        <ele>1128.2</ele>
        <time>2020-11-16T18:48:02Z</time>
      </trkpt>
      <trkpt lat="28.7259650" lon="-17.9436480">
        <ele>1128.1</ele>
        <time>2020-11-16T18:48:03Z</time>
      </trkpt>
      <trkpt lat="28.7259200" lon="-17.9436630">
        <ele>1128.0</ele>
        <time>2020-11-16T18:48:04Z</time>
      </trkpt>
      <trkpt lat="28.7259200" lon="-17.9436630">
        <ele>1128.0</ele>
        <time>2020-11-16T18:48:05Z</time>
      </trkpt>
      <trkpt lat="28.7258370" lon="-17.9436950">
        <ele>1127.8</ele>
        <time>2020-11-16T18:48:06Z</time>
      </trkpt>
      <trkpt lat="28.7257980" lon="-17.9437080">
        <ele>1127.8</ele>
        <time>2020-11-16T18:48:07Z</time>
      </trkpt>
      <trkpt lat="28.7257980" lon="-17.9437080">
        <ele>1127.8</ele>
        <time>2020-11-16T18:48:08Z</time>
      </trkpt>
      <trkpt lat="28.7257300" lon="-17.9437470">
        <ele>1127.8</ele>
        <time>2020-11-16T18:48:09Z</time>
      </trkpt>
      <trkpt lat="28.7257300" lon="-17.9437470">
        <ele>1127.8</ele>
        <time>2020-11-16T18:48:10Z</time>
      </trkpt>
      <trkpt lat="28.7256580" lon="-17.9437880">
        <ele>1127.8</ele>
        <time>2020-11-16T18:48:11Z</time>
      </trkpt>
      <trkpt lat="28.7256580" lon="-17.9437880">
        <ele>1127.8</ele>
        <time>2020-11-16T18:48:12Z</time>
      </trkpt>
      <trkpt lat="28.7255850" lon="-17.9438170">
        <ele>1128.0</ele>
        <time>2020-11-16T18:48:13Z</time>
      </trkpt>
      <trkpt lat="28.7255570" lon="-17.9438230">
        <ele>1128.1</ele>
        <time>2020-11-16T18:48:14Z</time>
      </trkpt>
      <trkpt lat="28.7255570" lon="-17.9438230">
        <ele>1128.1</ele>
        <time>2020-11-16T18:48:15Z</time>
      </trkpt>
      <trkpt lat="28.7255080" lon="-17.9438400">
        <ele>1128.2</ele>
        <time>2020-11-16T18:48:16Z</time>
      </trkpt>
      <trkpt lat="28.7255080" lon="-17.9438400">
        <ele>1128.2</ele>
        <time>2020-11-16T18:48:17Z</time>
      </trkpt>
      <trkpt lat="28.7254450" lon="-17.9438470">
        <ele>1128.4</ele>
        <time>2020-11-16T18:48:18Z</time>
      </trkpt>
      <trkpt lat="28.7254450" lon="-17.9438470">
        <ele>1128.4</ele>
        <time>2020-11-16T18:48:19Z</time>
      </trkpt>
      <trkpt lat="28.7253870" lon="-17.9438370">
        <ele>1128.6</ele>
        <time>2020-11-16T18:48:20Z</time>
      </trkpt>
      <trkpt lat="28.7253870" lon="-17.9438370">
        <ele>1128.6</ele>
        <time>2020-11-16T18:48:21Z</time>
      </trkpt>
      <trkpt lat="28.7253830" lon="-17.9437730">
        <ele>1128.8</ele>
        <time>2020-11-16T18:48:22Z</time>
      </trkpt>
      <trkpt lat="28.7253830" lon="-17.9437730">
        <ele>1128.8</ele>
        <time>2020-11-16T18:48:23Z</time>
      </trkpt>
      <trkpt lat="28.7253930" lon="-17.9436980">
        <ele>1129.1</ele>
        <time>2020-11-16T18:48:24Z</time>
      </trkpt>
      <trkpt lat="28.7253980" lon="-17.9436650">
        <ele>1129.2</ele>
        <time>2020-11-16T18:48:25Z</time>
      </trkpt>
      <trkpt lat="28.7254000" lon="-17.9436320">
        <ele>1129.3</ele>
        <time>2020-11-16T18:48:26Z</time>
      </trkpt>
      <trkpt lat="28.7254000" lon="-17.9436320">
        <ele>1129.3</ele>
        <time>2020-11-16T18:48:27Z</time>
      </trkpt>
      <trkpt lat="28.7254020" lon="-17.9435680">
        <ele>1129.6</ele>
        <time>2020-11-16T18:48:28Z</time>
      </trkpt>
      <trkpt lat="28.7254020" lon="-17.9435680">
        <ele>1129.6</ele>
        <time>2020-11-16T18:48:29Z</time>
      </trkpt>
      <trkpt lat="28.7254130" lon="-17.9435050">
        <ele>1129.9</ele>
        <time>2020-11-16T18:48:30Z</time>
      </trkpt>
      <trkpt lat="28.7254130" lon="-17.9435050">
        <ele>1129.9</ele>
        <time>2020-11-16T18:48:31Z</time>
      </trkpt>
      <trkpt lat="28.7254280" lon="-17.9434400">
        <ele>1130.2</ele>
        <time>2020-11-16T18:48:32Z</time>
      </trkpt>
      <trkpt lat="28.7254280" lon="-17.9434400">
        <ele>1130.2</ele>
        <time>2020-11-16T18:48:33Z</time>
      </trkpt>
      <trkpt lat="28.7254550" lon="-17.9433720">
        <ele>1130.5</ele>
        <time>2020-11-16T18:48:34Z</time>
      </trkpt>
      <trkpt lat="28.7254550" lon="-17.9433720">
        <ele>1130.5</ele>
        <time>2020-11-16T18:48:35Z</time>
      </trkpt>
      <trkpt lat="28.7254780" lon="-17.9433100">
        <ele>1130.9</ele>
        <time>2020-11-16T18:48:36Z</time>
      </trkpt>
      <trkpt lat="28.7254780" lon="-17.9433100">
        <ele>1130.9</ele>
        <time>2020-11-16T18:48:37Z</time>
      </trkpt>
      <trkpt lat="28.7255120" lon="-17.9432580">
        <ele>1131.2</ele>
        <time>2020-11-16T18:48:38Z</time>
      </trkpt>
      <trkpt lat="28.7255120" lon="-17.9432580">
        <ele>1131.2</ele>
        <time>2020-11-16T18:48:39Z</time>
      </trkpt>
      <trkpt lat="28.7255470" lon="-17.9431870">
        <ele>1131.6</ele>
        <time>2020-11-16T18:48:40Z</time>
      </trkpt>
      <trkpt lat="28.7255720" lon="-17.9431550">
        <ele>1131.8</ele>
        <time>2020-11-16T18:48:41Z</time>
      </trkpt>
      <trkpt lat="28.7255720" lon="-17.9431550">
        <ele>1131.8</ele>
        <time>2020-11-16T18:48:42Z</time>
      </trkpt>
      <trkpt lat="28.7255980" lon="-17.9430950">
        <ele>1132.1</ele>
        <time>2020-11-16T18:48:43Z</time>
      </trkpt>
      <trkpt lat="28.7255980" lon="-17.9430950">
        <ele>1132.1</ele>
        <time>2020-11-16T18:48:44Z</time>
      </trkpt>
      <trkpt lat="28.7256220" lon="-17.9430380">
        <ele>1132.5</ele>
        <time>2020-11-16T18:48:45Z</time>
      </trkpt>
      <trkpt lat="28.7256220" lon="-17.9430380">
        <ele>1132.5</ele>
        <time>2020-11-16T18:48:46Z</time>
      </trkpt>
      <trkpt lat="28.7256520" lon="-17.9429870">
        <ele>1132.8</ele>
        <time>2020-11-16T18:48:47Z</time>
      </trkpt>
      <trkpt lat="28.7256520" lon="-17.9429870">
        <ele>1132.8</ele>
        <time>2020-11-16T18:48:48Z</time>
      </trkpt>
      <trkpt lat="28.7256900" lon="-17.9429280">
        <ele>1133.2</ele>
        <time>2020-11-16T18:48:49Z</time>
      </trkpt>
      <trkpt lat="28.7257100" lon="-17.9429020">
        <ele>1133.4</ele>
        <time>2020-11-16T18:48:50Z</time>
      </trkpt>
      <trkpt lat="28.7257100" lon="-17.9429020">
        <ele>1133.4</ele>
        <time>2020-11-16T18:48:51Z</time>
      </trkpt>
      <trkpt lat="28.7257550" lon="-17.9428570">
        <ele>1133.8</ele>
        <time>2020-11-16T18:48:52Z</time>
      </trkpt>
      <trkpt lat="28.7257750" lon="-17.9428350">
        <ele>1133.9</ele>
        <time>2020-11-16T18:48:53Z</time>
      </trkpt>
      <trkpt lat="28.7257750" lon="-17.9428350">
        <ele>1133.9</ele>
        <time>2020-11-16T18:48:54Z</time>
      </trkpt>
      <trkpt lat="28.7258130" lon="-17.9427850">
        <ele>1134.2</ele>
        <time>2020-11-16T18:48:55Z</time>
      </trkpt>
      <trkpt lat="28.7258130" lon="-17.9427850">
        <ele>1134.2</ele>
        <time>2020-11-16T18:48:56Z</time>
      </trkpt>
      <trkpt lat="28.7258630" lon="-17.9427280">
        <ele>1134.5</ele>
        <time>2020-11-16T18:48:57Z</time>
      </trkpt>
      <trkpt lat="28.7258830" lon="-17.9427050">
        <ele>1134.5</ele>
        <time>2020-11-16T18:48:58Z</time>
      </trkpt>
      <trkpt lat="28.7258830" lon="-17.9427050">
        <ele>1134.5</ele>
        <time>2020-11-16T18:48:59Z</time>
      </trkpt>
      <trkpt lat="28.7259050" lon="-17.9426630">
        <ele>1134.6</ele>
        <time>2020-11-16T18:49:00Z</time>
      </trkpt>
      <trkpt lat="28.7258570" lon="-17.9426250">
        <ele>1134.6</ele>
        <time>2020-11-16T18:49:01Z</time>
      </trkpt>
      <trkpt lat="28.7258570" lon="-17.9426250">
        <ele>1134.6</ele>
        <time>2020-11-16T18:49:02Z</time>
      </trkpt>
      <trkpt lat="28.7258570" lon="-17.9426250">
        <ele>1134.6</ele>
        <time>2020-11-16T18:49:03Z</time>
      </trkpt>
      <trkpt lat="28.7257930" lon="-17.9426180">
        <ele>1134.5</ele>
        <time>2020-11-16T18:49:04Z</time>
      </trkpt>
      <trkpt lat="28.7257930" lon="-17.9426180">
        <ele>1134.5</ele>
        <time>2020-11-16T18:49:05Z</time>
      </trkpt>
      <trkpt lat="28.7257170" lon="-17.9426230">
        <ele>1134.3</ele>
        <time>2020-11-16T18:49:06Z</time>
      </trkpt>
      <trkpt lat="28.7257170" lon="-17.9426230">
        <ele>1134.3</ele>
        <time>2020-11-16T18:49:07Z</time>
      </trkpt>
      <trkpt lat="28.7256220" lon="-17.9426420">
        <ele>1134.0</ele>
        <time>2020-11-16T18:49:08Z</time>
      </trkpt>
      <trkpt lat="28.7256220" lon="-17.9426420">
        <ele>1134.0</ele>
        <time>2020-11-16T18:49:09Z</time>
      </trkpt>
      <trkpt lat="28.7255270" lon="-17.9426730">
        <ele>1133.9</ele>
        <time>2020-11-16T18:49:10Z</time>
      </trkpt>
      <trkpt lat="28.7255270" lon="-17.9426730">
        <ele>1133.9</ele>
        <time>2020-11-16T18:49:11Z</time>
      </trkpt>
      <trkpt lat="28.7254280" lon="-17.9426880">
        <ele>1133.7</ele>
        <time>2020-11-16T18:49:12Z</time>
      </trkpt>
      <trkpt lat="28.7254280" lon="-17.9426880">
        <ele>1133.7</ele>
        <time>2020-11-16T18:49:13Z</time>
      </trkpt>
      <trkpt lat="28.7253420" lon="-17.9427150">
        <ele>1133.6</ele>
        <time>2020-11-16T18:49:14Z</time>
      </trkpt>
      <trkpt lat="28.7253420" lon="-17.9427150">
        <ele>1133.6</ele>
        <time>2020-11-16T18:49:15Z</time>
      </trkpt>
      <trkpt lat="28.7252470" lon="-17.9427470">
        <ele>1133.4</ele>
        <time>2020-11-16T18:49:16Z</time>
      </trkpt>
      <trkpt lat="28.7252100" lon="-17.9427640">
        <ele>1133.3</ele>
        <time>2020-11-16T18:49:17Z</time>
      </trkpt>
      <trkpt lat="28.7251720" lon="-17.9427800">
        <ele>1133.2</ele>
        <time>2020-11-16T18:49:18Z</time>
      </trkpt>
      <trkpt lat="28.7251720" lon="-17.9427800">
        <ele>1133.2</ele>
        <time>2020-11-16T18:49:19Z</time>
      </trkpt>
      <trkpt lat="28.7250900" lon="-17.9427730">
        <ele>1132.9</ele>
        <time>2020-11-16T18:49:20Z</time>
      </trkpt>
      <trkpt lat="28.7250900" lon="-17.9427730">
        <ele>1132.9</ele>
        <time>2020-11-16T18:49:21Z</time>
      </trkpt>
      <trkpt lat="28.7250200" lon="-17.9427450">
        <ele>1132.6</ele>
        <time>2020-11-16T18:49:22Z</time>
      </trkpt>
      <trkpt lat="28.7250200" lon="-17.9427450">
        <ele>1132.6</ele>
        <time>2020-11-16T18:49:23Z</time>
      </trkpt>
      <trkpt lat="28.7249520" lon="-17.9427170">
        <ele>1132.3</ele>
        <time>2020-11-16T18:49:24Z</time>
      </trkpt>
      <trkpt lat="28.7249520" lon="-17.9427170">
        <ele>1132.3</ele>
        <time>2020-11-16T18:49:25Z</time>
      </trkpt>
      <trkpt lat="28.7248600" lon="-17.9426930">
        <ele>1131.9</ele>
        <time>2020-11-16T18:49:26Z</time>
      </trkpt>
      <trkpt lat="28.7248600" lon="-17.9426930">
        <ele>1131.9</ele>
        <time>2020-11-16T18:49:27Z</time>
      </trkpt>
      <trkpt lat="28.7247880" lon="-17.9426970">
        <ele>1131.6</ele>
        <time>2020-11-16T18:49:28Z</time>
      </trkpt>
      <trkpt lat="28.7247530" lon="-17.9427050">
        <ele>1131.5</ele>
        <time>2020-11-16T18:49:29Z</time>
      </trkpt>
      <trkpt lat="28.7247530" lon="-17.9427050">
        <ele>1131.5</ele>
        <time>2020-11-16T18:49:30Z</time>
      </trkpt>
      <trkpt lat="28.7246730" lon="-17.9427350">
        <ele>1131.2</ele>
        <time>2020-11-16T18:49:31Z</time>
      </trkpt>
      <trkpt lat="28.7246730" lon="-17.9427350">
        <ele>1131.2</ele>
        <time>2020-11-16T18:49:32Z</time>
      </trkpt>
      <trkpt lat="28.7245920" lon="-17.9427570">
        <ele>1131.1</ele>
        <time>2020-11-16T18:49:33Z</time>
      </trkpt>
      <trkpt lat="28.7245920" lon="-17.9427570">
        <ele>1131.1</ele>
        <time>2020-11-16T18:49:34Z</time>
      </trkpt>
      <trkpt lat="28.7245080" lon="-17.9427750">
        <ele>1131.0</ele>
        <time>2020-11-16T18:49:35Z</time>
      </trkpt>
      <trkpt lat="28.7245080" lon="-17.9427750">
        <ele>1131.0</ele>
        <time>2020-11-16T18:49:36Z</time>
      </trkpt>
      <trkpt lat="28.7244120" lon="-17.9427870">
        <ele>1130.9</ele>
        <time>2020-11-16T18:49:37Z</time>
      </trkpt>
      <trkpt lat="28.7244120" lon="-17.9427870">
        <ele>1130.9</ele>
        <time>2020-11-16T18:49:38Z</time>
      </trkpt>
      <trkpt lat="28.7243280" lon="-17.9427870">
        <ele>1130.9</ele>
        <time>2020-11-16T18:49:39Z</time>
      </trkpt>
      <trkpt lat="28.7242870" lon="-17.9427770">
        <ele>1130.9</ele>
        <time>2020-11-16T18:49:40Z</time>
      </trkpt>
      <trkpt lat="28.7242870" lon="-17.9427770">
        <ele>1130.9</ele>
        <time>2020-11-16T18:49:41Z</time>
      </trkpt>
      <trkpt lat="28.7241930" lon="-17.9427570">
        <ele>1131.2</ele>
        <time>2020-11-16T18:49:42Z</time>
      </trkpt>
      <trkpt lat="28.7241930" lon="-17.9427570">
        <ele>1131.2</ele>
        <time>2020-11-16T18:49:43Z</time>
      </trkpt>
      <trkpt lat="28.7241180" lon="-17.9427180">
        <ele>1131.6</ele>
        <time>2020-11-16T18:49:44Z</time>
      </trkpt>
      <trkpt lat="28.7241180" lon="-17.9427180">
        <ele>1131.6</ele>
        <time>2020-11-16T18:49:45Z</time>
      </trkpt>
      <trkpt lat="28.7240370" lon="-17.9426930">
        <ele>1132.0</ele>
        <time>2020-11-16T18:49:46Z</time>
      </trkpt>
      <trkpt lat="28.7240020" lon="-17.9426780">
        <ele>1132.3</ele>
        <time>2020-11-16T18:49:47Z</time>
      </trkpt>
      <trkpt lat="28.7240020" lon="-17.9426780">
        <ele>1132.3</ele>
        <time>2020-11-16T18:49:48Z</time>
      </trkpt>
      <trkpt lat="28.7239380" lon="-17.9426470">
        <ele>1132.7</ele>
        <time>2020-11-16T18:49:49Z</time>
      </trkpt>
      <trkpt lat="28.7239150" lon="-17.9426250">
        <ele>1132.9</ele>
        <time>2020-11-16T18:49:50Z</time>
      </trkpt>
      <trkpt lat="28.7239150" lon="-17.9426250">
        <ele>1132.9</ele>
        <time>2020-11-16T18:49:51Z</time>
      </trkpt>
      <trkpt lat="28.7238880" lon="-17.9425720">
        <ele>1133.4</ele>
        <time>2020-11-16T18:49:52Z</time>
      </trkpt>
      <trkpt lat="28.7238880" lon="-17.9425720">
        <ele>1133.4</ele>
        <time>2020-11-16T18:49:53Z</time>
      </trkpt>
      <trkpt lat="28.7238930" lon="-17.9425150">
        <ele>1133.8</ele>
        <time>2020-11-16T18:49:54Z</time>
      </trkpt>
      <trkpt lat="28.7238930" lon="-17.9425150">
        <ele>1133.8</ele>
        <time>2020-11-16T18:49:55Z</time>
      </trkpt>
      <trkpt lat="28.7239070" lon="-17.9424620">
        <ele>1134.2</ele>
        <time>2020-11-16T18:49:56Z</time>
      </trkpt>
      <trkpt lat="28.7239070" lon="-17.9424620">
        <ele>1134.2</ele>
        <time>2020-11-16T18:49:57Z</time>
      </trkpt>
      <trkpt lat="28.7239200" lon="-17.9424000">
        <ele>1134.7</ele>
        <time>2020-11-16T18:49:58Z</time>
      </trkpt>
      <trkpt lat="28.7239200" lon="-17.9424000">
        <ele>1134.7</ele>
        <time>2020-11-16T18:49:59Z</time>
      </trkpt>
      <trkpt lat="28.7239400" lon="-17.9423370">
        <ele>1135.1</ele>
        <time>2020-11-16T18:50:00Z</time>
      </trkpt>
      <trkpt lat="28.7239400" lon="-17.9423370">
        <ele>1135.1</ele>
        <time>2020-11-16T18:50:01Z</time>
      </trkpt>
      <trkpt lat="28.7239620" lon="-17.9422850">
        <ele>1135.5</ele>
        <time>2020-11-16T18:50:02Z</time>
      </trkpt>
      <trkpt lat="28.7239700" lon="-17.9422580">
        <ele>1135.7</ele>
        <time>2020-11-16T18:50:03Z</time>
      </trkpt>
      <trkpt lat="28.7239700" lon="-17.9422580">
        <ele>1135.7</ele>
        <time>2020-11-16T18:50:04Z</time>
      </trkpt>
      <trkpt lat="28.7239970" lon="-17.9422030">
        <ele>1136.0</ele>
        <time>2020-11-16T18:50:05Z</time>
      </trkpt>
      <trkpt lat="28.7239970" lon="-17.9422030">
        <ele>1136.0</ele>
        <time>2020-11-16T18:50:06Z</time>
      </trkpt>
      <trkpt lat="28.7240180" lon="-17.9421480">
        <ele>1136.4</ele>
        <time>2020-11-16T18:50:07Z</time>
      </trkpt>
      <trkpt lat="28.7240200" lon="-17.9421180">
        <ele>1136.5</ele>
        <time>2020-11-16T18:50:08Z</time>
      </trkpt>
      <trkpt lat="28.7240200" lon="-17.9421180">
        <ele>1136.5</ele>
        <time>2020-11-16T18:50:09Z</time>
      </trkpt>
      <trkpt lat="28.7240220" lon="-17.9420570">
        <ele>1136.8</ele>
        <time>2020-11-16T18:50:10Z</time>
      </trkpt>
      <trkpt lat="28.7240220" lon="-17.9420570">
        <ele>1136.8</ele>
        <time>2020-11-16T18:50:11Z</time>
      </trkpt>
      <trkpt lat="28.7240130" lon="-17.9419920">
        <ele>1137.2</ele>
        <time>2020-11-16T18:50:12Z</time>
      </trkpt>
      <trkpt lat="28.7240030" lon="-17.9419530">
        <ele>1137.4</ele>
        <time>2020-11-16T18:50:13Z</time>
      </trkpt>
      <trkpt lat="28.7240030" lon="-17.9419530">
        <ele>1137.4</ele>
        <time>2020-11-16T18:50:14Z</time>
      </trkpt>
      <trkpt lat="28.7240020" lon="-17.9418950">
        <ele>1137.7</ele>
        <time>2020-11-16T18:50:15Z</time>
      </trkpt>
      <trkpt lat="28.7240020" lon="-17.9418950">
        <ele>1137.7</ele>
        <time>2020-11-16T18:50:16Z</time>
      </trkpt>
      <trkpt lat="28.7240030" lon="-17.9418250">
        <ele>1138.1</ele>
        <time>2020-11-16T18:50:17Z</time>
      </trkpt>
      <trkpt lat="28.7240100" lon="-17.9417920">
        <ele>1138.3</ele>
        <time>2020-11-16T18:50:18Z</time>
      </trkpt>
      <trkpt lat="28.7240100" lon="-17.9417920">
        <ele>1138.3</ele>
        <time>2020-11-16T18:50:19Z</time>
      </trkpt>
      <trkpt lat="28.7240470" lon="-17.9417470">
        <ele>1138.7</ele>
        <time>2020-11-16T18:50:20Z</time>
      </trkpt>
      <trkpt lat="28.7240470" lon="-17.9417470">
        <ele>1138.7</ele>
        <time>2020-11-16T18:50:21Z</time>
      </trkpt>
      <trkpt lat="28.7240880" lon="-17.9417050">
        <ele>1139.1</ele>
        <time>2020-11-16T18:50:22Z</time>
      </trkpt>
      <trkpt lat="28.7240880" lon="-17.9417050">
        <ele>1139.1</ele>
        <time>2020-11-16T18:50:23Z</time>
      </trkpt>
      <trkpt lat="28.7241280" lon="-17.9416630">
        <ele>1139.5</ele>
        <time>2020-11-16T18:50:24Z</time>
      </trkpt>
      <trkpt lat="28.7241280" lon="-17.9416630">
        <ele>1139.5</ele>
        <time>2020-11-16T18:50:25Z</time>
      </trkpt>
      <trkpt lat="28.7241680" lon="-17.9416230">
        <ele>1139.9</ele>
        <time>2020-11-16T18:50:26Z</time>
      </trkpt>
      <trkpt lat="28.7241680" lon="-17.9416230">
        <ele>1139.9</ele>
        <time>2020-11-16T18:50:27Z</time>
      </trkpt>
      <trkpt lat="28.7242030" lon="-17.9415900">
        <ele>1140.3</ele>
        <time>2020-11-16T18:50:28Z</time>
      </trkpt>
      <trkpt lat="28.7242230" lon="-17.9415730">
        <ele>1140.5</ele>
        <time>2020-11-16T18:50:29Z</time>
      </trkpt>
      <trkpt lat="28.7242230" lon="-17.9415730">
        <ele>1140.5</ele>
        <time>2020-11-16T18:50:30Z</time>
      </trkpt>
      <trkpt lat="28.7242550" lon="-17.9415450">
        <ele>1140.8</ele>
        <time>2020-11-16T18:50:31Z</time>
      </trkpt>
      <trkpt lat="28.7242550" lon="-17.9415450">
        <ele>1140.8</ele>
        <time>2020-11-16T18:50:32Z</time>
      </trkpt>
      <trkpt lat="28.7242950" lon="-17.9415170">
        <ele>1141.2</ele>
        <time>2020-11-16T18:50:33Z</time>
      </trkpt>
      <trkpt lat="28.7242950" lon="-17.9415170">
        <ele>1141.2</ele>
        <time>2020-11-16T18:50:34Z</time>
      </trkpt>
      <trkpt lat="28.7243270" lon="-17.9414820">
        <ele>1141.6</ele>
        <time>2020-11-16T18:50:35Z</time>
      </trkpt>
      <trkpt lat="28.7243270" lon="-17.9414820">
        <ele>1141.6</ele>
        <time>2020-11-16T18:50:36Z</time>
      </trkpt>
      <trkpt lat="28.7243680" lon="-17.9414450">
        <ele>1142.1</ele>
        <time>2020-11-16T18:50:37Z</time>
      </trkpt>
      <trkpt lat="28.7243830" lon="-17.9414230">
        <ele>1142.3</ele>
        <time>2020-11-16T18:50:38Z</time>
      </trkpt>
      <trkpt lat="28.7243830" lon="-17.9414230">
        <ele>1142.3</ele>
        <time>2020-11-16T18:50:39Z</time>
      </trkpt>
      <trkpt lat="28.7244120" lon="-17.9413800">
        <ele>1142.7</ele>
        <time>2020-11-16T18:50:40Z</time>
      </trkpt>
      <trkpt lat="28.7244120" lon="-17.9413800">
        <ele>1142.7</ele>
        <time>2020-11-16T18:50:41Z</time>
      </trkpt>
      <trkpt lat="28.7244380" lon="-17.9413430">
        <ele>1143.1</ele>
        <time>2020-11-16T18:50:42Z</time>
      </trkpt>
      <trkpt lat="28.7244380" lon="-17.9413430">
        <ele>1143.1</ele>
        <time>2020-11-16T18:50:43Z</time>
      </trkpt>
      <trkpt lat="28.7244880" lon="-17.9412870">
        <ele>1143.8</ele>
        <time>2020-11-16T18:50:44Z</time>
      </trkpt>
      <trkpt lat="28.7244880" lon="-17.9412870">
        <ele>1143.8</ele>
        <time>2020-11-16T18:50:45Z</time>
      </trkpt>
      <trkpt lat="28.7245120" lon="-17.9412270">
        <ele>1144.4</ele>
        <time>2020-11-16T18:50:46Z</time>
      </trkpt>
      <trkpt lat="28.7245120" lon="-17.9412270">
        <ele>1144.4</ele>
        <time>2020-11-16T18:50:47Z</time>
      </trkpt>
      <trkpt lat="28.7245170" lon="-17.9411570">
        <ele>1145.0</ele>
        <time>2020-11-16T18:50:48Z</time>
      </trkpt>
      <trkpt lat="28.7245300" lon="-17.9411320">
        <ele>1145.2</ele>
        <time>2020-11-16T18:50:49Z</time>
      </trkpt>
      <trkpt lat="28.7245300" lon="-17.9411320">
        <ele>1145.2</ele>
        <time>2020-11-16T18:50:50Z</time>
      </trkpt>
      <trkpt lat="28.7245400" lon="-17.9410820">
        <ele>1145.7</ele>
        <time>2020-11-16T18:50:51Z</time>
      </trkpt>
      <trkpt lat="28.7245400" lon="-17.9410820">
        <ele>1145.7</ele>
        <time>2020-11-16T18:50:52Z</time>
      </trkpt>
      <trkpt lat="28.7245570" lon="-17.9410280">
        <ele>1146.1</ele>
        <time>2020-11-16T18:50:53Z</time>
      </trkpt>
      <trkpt lat="28.7245670" lon="-17.9410080">
        <ele>1146.3</ele>
        <time>2020-11-16T18:50:54Z</time>
      </trkpt>
      <trkpt lat="28.7245670" lon="-17.9410080">
        <ele>1146.3</ele>
        <time>2020-11-16T18:50:55Z</time>
      </trkpt>
      <trkpt lat="28.7245850" lon="-17.9409670">
        <ele>1146.7</ele>
        <time>2020-11-16T18:50:56Z</time>
      </trkpt>
      <trkpt lat="28.7245850" lon="-17.9409670">
        <ele>1146.7</ele>
        <time>2020-11-16T18:50:57Z</time>
      </trkpt>
      <trkpt lat="28.7245980" lon="-17.9409150">
        <ele>1147.2</ele>
        <time>2020-11-16T18:50:58Z</time>
      </trkpt>
      <trkpt lat="28.7246100" lon="-17.9408900">
        <ele>1147.4</ele>
        <time>2020-11-16T18:50:59Z</time>
      </trkpt>
      <trkpt lat="28.7246100" lon="-17.9408900">
        <ele>1147.4</ele>
        <time>2020-11-16T18:51:00Z</time>
      </trkpt>
      <trkpt lat="28.7246330" lon="-17.9408520">
        <ele>1147.8</ele>
        <time>2020-11-16T18:51:01Z</time>
      </trkpt>
      <trkpt lat="28.7246330" lon="-17.9408520">
        <ele>1147.8</ele>
        <time>2020-11-16T18:51:02Z</time>
      </trkpt>
      <trkpt lat="28.7246370" lon="-17.9408050">
        <ele>1148.2</ele>
        <time>2020-11-16T18:51:03Z</time>
      </trkpt>
      <trkpt lat="28.7246370" lon="-17.9408050">
        <ele>1148.2</ele>
        <time>2020-11-16T18:51:04Z</time>
      </trkpt>
      <trkpt lat="28.7246180" lon="-17.9407550">
        <ele>1148.5</ele>
        <time>2020-11-16T18:51:05Z</time>
      </trkpt>
      <trkpt lat="28.7246180" lon="-17.9407550">
        <ele>1148.5</ele>
        <time>2020-11-16T18:51:06Z</time>
      </trkpt>
      <trkpt lat="28.7245550" lon="-17.9406950">
        <ele>1149.0</ele>
        <time>2020-11-16T18:51:07Z</time>
      </trkpt>
      <trkpt lat="28.7245550" lon="-17.9406950">
        <ele>1149.0</ele>
        <time>2020-11-16T18:51:08Z</time>
      </trkpt>
      <trkpt lat="28.7244830" lon="-17.9406600">
        <ele>1149.3</ele>
        <time>2020-11-16T18:51:09Z</time>
      </trkpt>
      <trkpt lat="28.7244830" lon="-17.9406600">
        <ele>1149.3</ele>
        <time>2020-11-16T18:51:10Z</time>
      </trkpt>
      <trkpt lat="28.7244270" lon="-17.9406580">
        <ele>1149.5</ele>
        <time>2020-11-16T18:51:11Z</time>
      </trkpt>
      <trkpt lat="28.7244270" lon="-17.9406580">
        <ele>1149.5</ele>
        <time>2020-11-16T18:51:12Z</time>
      </trkpt>
      <trkpt lat="28.7243770" lon="-17.9406720">
        <ele>1149.7</ele>
        <time>2020-11-16T18:51:13Z</time>
      </trkpt>
      <trkpt lat="28.7243500" lon="-17.9406850">
        <ele>1149.8</ele>
        <time>2020-11-16T18:51:14Z</time>
      </trkpt>
      <trkpt lat="28.7243500" lon="-17.9406850">
        <ele>1149.8</ele>
        <time>2020-11-16T18:51:15Z</time>
      </trkpt>
      <trkpt lat="28.7243030" lon="-17.9407030">
        <ele>1150.0</ele>
        <time>2020-11-16T18:51:16Z</time>
      </trkpt>
      <trkpt lat="28.7243030" lon="-17.9407030">
        <ele>1150.0</ele>
        <time>2020-11-16T18:51:17Z</time>
      </trkpt>
      <trkpt lat="28.7242550" lon="-17.9407420">
        <ele>1150.3</ele>
        <time>2020-11-16T18:51:18Z</time>
      </trkpt>
      <trkpt lat="28.7242550" lon="-17.9407420">
        <ele>1150.3</ele>
        <time>2020-11-16T18:51:19Z</time>
      </trkpt>
      <trkpt lat="28.7242070" lon="-17.9407650">
        <ele>1150.6</ele>
        <time>2020-11-16T18:51:20Z</time>
      </trkpt>
      <trkpt lat="28.7242070" lon="-17.9407650">
        <ele>1150.6</ele>
        <time>2020-11-16T18:51:21Z</time>
      </trkpt>
      <trkpt lat="28.7241520" lon="-17.9407780">
        <ele>1150.9</ele>
        <time>2020-11-16T18:51:22Z</time>
      </trkpt>
      <trkpt lat="28.7241220" lon="-17.9407830">
        <ele>1151.1</ele>
        <time>2020-11-16T18:51:23Z</time>
      </trkpt>
      <trkpt lat="28.7240970" lon="-17.9407830">
        <ele>1151.3</ele>
        <time>2020-11-16T18:51:24Z</time>
      </trkpt>
      <trkpt lat="28.7240970" lon="-17.9407830">
        <ele>1151.3</ele>
        <time>2020-11-16T18:51:25Z</time>
      </trkpt>
      <trkpt lat="28.7240580" lon="-17.9407830">
        <ele>1151.5</ele>
        <time>2020-11-16T18:51:26Z</time>
      </trkpt>
      <trkpt lat="28.7240580" lon="-17.9407830">
        <ele>1151.5</ele>
        <time>2020-11-16T18:51:27Z</time>
      </trkpt>
      <trkpt lat="28.7240130" lon="-17.9407950">
        <ele>1151.8</ele>
        <time>2020-11-16T18:51:28Z</time>
      </trkpt>
      <trkpt lat="28.7240130" lon="-17.9407950">
        <ele>1151.8</ele>
        <time>2020-11-16T18:51:29Z</time>
      </trkpt>
      <trkpt lat="28.7239720" lon="-17.9407880">
        <ele>1152.1</ele>
        <time>2020-11-16T18:51:30Z</time>
      </trkpt>
      <trkpt lat="28.7239720" lon="-17.9407880">
        <ele>1152.1</ele>
        <time>2020-11-16T18:51:31Z</time>
      </trkpt>
      <trkpt lat="28.7239250" lon="-17.9407820">
        <ele>1152.4</ele>
        <time>2020-11-16T18:51:32Z</time>
      </trkpt>
      <trkpt lat="28.7239250" lon="-17.9407820">
        <ele>1152.4</ele>
        <time>2020-11-16T18:51:33Z</time>
      </trkpt>
      <trkpt lat="28.7238750" lon="-17.9407820">
        <ele>1152.7</ele>
        <time>2020-11-16T18:51:34Z</time>
      </trkpt>
      <trkpt lat="28.7238480" lon="-17.9407830">
        <ele>1152.9</ele>
        <time>2020-11-16T18:51:35Z</time>
      </trkpt>
      <trkpt lat="28.7238480" lon="-17.9407830">
        <ele>1152.9</ele>
        <time>2020-11-16T18:51:36Z</time>
      </trkpt>
      <trkpt lat="28.7237950" lon="-17.9407800">
        <ele>1153.3</ele>
        <time>2020-11-16T18:51:37Z</time>
      </trkpt>
      <trkpt lat="28.7237950" lon="-17.9407800">
        <ele>1153.3</ele>
        <time>2020-11-16T18:51:38Z</time>
      </trkpt>
      <trkpt lat="28.7237470" lon="-17.9407600">
        <ele>1153.6</ele>
        <time>2020-11-16T18:51:39Z</time>
      </trkpt>
      <trkpt lat="28.7237470" lon="-17.9407600">
        <ele>1153.6</ele>
        <time>2020-11-16T18:51:40Z</time>
      </trkpt>
      <trkpt lat="28.7237180" lon="-17.9407130">
        <ele>1153.9</ele>
        <time>2020-11-16T18:51:41Z</time>
      </trkpt>
      <trkpt lat="28.7237130" lon="-17.9406920">
        <ele>1154.1</ele>
        <time>2020-11-16T18:51:42Z</time>
      </trkpt>
      <trkpt lat="28.7237130" lon="-17.9406920">
        <ele>1154.1</ele>
        <time>2020-11-16T18:51:43Z</time>
      </trkpt>
      <trkpt lat="28.7237320" lon="-17.9406470">
        <ele>1154.3</ele>
        <time>2020-11-16T18:51:44Z</time>
      </trkpt>
      <trkpt lat="28.7237320" lon="-17.9406470">
        <ele>1154.3</ele>
        <time>2020-11-16T18:51:45Z</time>
      </trkpt>
      <trkpt lat="28.7237420" lon="-17.9405950">
        <ele>1154.5</ele>
        <time>2020-11-16T18:51:46Z</time>
      </trkpt>
      <trkpt lat="28.7237450" lon="-17.9405670">
        <ele>1154.7</ele>
        <time>2020-11-16T18:51:47Z</time>
      </trkpt>
      <trkpt lat="28.7237450" lon="-17.9405670">
        <ele>1154.7</ele>
        <time>2020-11-16T18:51:48Z</time>
      </trkpt>
      <trkpt lat="28.7237580" lon="-17.9405020">
        <ele>1154.9</ele>
        <time>2020-11-16T18:51:49Z</time>
      </trkpt>
      <trkpt lat="28.7237580" lon="-17.9405020">
        <ele>1154.9</ele>
        <time>2020-11-16T18:51:50Z</time>
      </trkpt>
      <trkpt lat="28.7237820" lon="-17.9404370">
        <ele>1155.2</ele>
        <time>2020-11-16T18:51:51Z</time>
      </trkpt>
      <trkpt lat="28.7237820" lon="-17.9404370">
        <ele>1155.2</ele>
        <time>2020-11-16T18:51:52Z</time>
      </trkpt>
      <trkpt lat="28.7237980" lon="-17.9403780">
        <ele>1155.5</ele>
        <time>2020-11-16T18:51:53Z</time>
      </trkpt>
      <trkpt lat="28.7237980" lon="-17.9403780">
        <ele>1155.5</ele>
        <time>2020-11-16T18:51:54Z</time>
      </trkpt>
      <trkpt lat="28.7238120" lon="-17.9403230">
        <ele>1155.7</ele>
        <time>2020-11-16T18:51:55Z</time>
      </trkpt>
      <trkpt lat="28.7238130" lon="-17.9402920">
        <ele>1155.8</ele>
        <time>2020-11-16T18:51:56Z</time>
      </trkpt>
      <trkpt lat="28.7238130" lon="-17.9402920">
        <ele>1155.8</ele>
        <time>2020-11-16T18:51:57Z</time>
      </trkpt>
      <trkpt lat="28.7238020" lon="-17.9402320">
        <ele>1156.0</ele>
        <time>2020-11-16T18:51:58Z</time>
      </trkpt>
      <trkpt lat="28.7238020" lon="-17.9402320">
        <ele>1156.0</ele>
        <time>2020-11-16T18:51:59Z</time>
      </trkpt>
      <trkpt lat="28.7238000" lon="-17.9401750">
        <ele>1156.2</ele>
        <time>2020-11-16T18:52:00Z</time>
      </trkpt>
      <trkpt lat="28.7238000" lon="-17.9401750">
        <ele>1156.2</ele>
        <time>2020-11-16T18:52:01Z</time>
      </trkpt>
      <trkpt lat="28.7238200" lon="-17.9401200">
        <ele>1156.5</ele>
        <time>2020-11-16T18:52:02Z</time>
      </trkpt>
      <trkpt lat="28.7238200" lon="-17.9401200">
        <ele>1156.5</ele>
        <time>2020-11-16T18:52:03Z</time>
      </trkpt>
      <trkpt lat="28.7238470" lon="-17.9400580">
        <ele>1156.7</ele>
        <time>2020-11-16T18:52:04Z</time>
      </trkpt>
      <trkpt lat="28.7238600" lon="-17.9400270">
        <ele>1156.9</ele>
        <time>2020-11-16T18:52:05Z</time>
      </trkpt>
      <trkpt lat="28.7238600" lon="-17.9400270">
        <ele>1156.9</ele>
        <time>2020-11-16T18:52:06Z</time>
      </trkpt>
      <trkpt lat="28.7238900" lon="-17.9399650">
        <ele>1157.1</ele>
        <time>2020-11-16T18:52:07Z</time>
      </trkpt>
      <trkpt lat="28.7238900" lon="-17.9399650">
        <ele>1157.1</ele>
        <time>2020-11-16T18:52:08Z</time>
      </trkpt>
      <trkpt lat="28.7239100" lon="-17.9399050">
        <ele>1157.5</ele>
        <time>2020-11-16T18:52:09Z</time>
      </trkpt>
      <trkpt lat="28.7239100" lon="-17.9399050">
        <ele>1157.5</ele>
        <time>2020-11-16T18:52:10Z</time>
      </trkpt>
      <trkpt lat="28.7238750" lon="-17.9398330">
        <ele>1157.5</ele>
        <time>2020-11-16T18:52:11Z</time>
      </trkpt>
      <trkpt lat="28.7238750" lon="-17.9398330">
        <ele>1157.5</ele>
        <time>2020-11-16T18:52:12Z</time>
      </trkpt>
      <trkpt lat="28.7238130" lon="-17.9398000">
        <ele>1157.0</ele>
        <time>2020-11-16T18:52:13Z</time>
      </trkpt>
      <trkpt lat="28.7237700" lon="-17.9397870">
        <ele>1156.5</ele>
        <time>2020-11-16T18:52:14Z</time>
      </trkpt>
      <trkpt lat="28.7237700" lon="-17.9397870">
        <ele>1156.5</ele>
        <time>2020-11-16T18:52:15Z</time>
      </trkpt>
      <trkpt lat="28.7237080" lon="-17.9397700">
        <ele>1155.7</ele>
        <time>2020-11-16T18:52:16Z</time>
      </trkpt>
      <trkpt lat="28.7237080" lon="-17.9397700">
        <ele>1155.7</ele>
        <time>2020-11-16T18:52:17Z</time>
      </trkpt>
      <trkpt lat="28.7236380" lon="-17.9397350">
        <ele>1154.7</ele>
        <time>2020-11-16T18:52:18Z</time>
      </trkpt>
      <trkpt lat="28.7236380" lon="-17.9397350">
        <ele>1154.7</ele>
        <time>2020-11-16T18:52:19Z</time>
      </trkpt>
      <trkpt lat="28.7235700" lon="-17.9397230">
        <ele>1153.8</ele>
        <time>2020-11-16T18:52:20Z</time>
      </trkpt>
      <trkpt lat="28.7235700" lon="-17.9397230">
        <ele>1153.8</ele>
        <time>2020-11-16T18:52:21Z</time>
      </trkpt>
      <trkpt lat="28.7234870" lon="-17.9397030">
        <ele>1152.6</ele>
        <time>2020-11-16T18:52:22Z</time>
      </trkpt>
      <trkpt lat="28.7234870" lon="-17.9397030">
        <ele>1152.6</ele>
        <time>2020-11-16T18:52:23Z</time>
      </trkpt>
      <trkpt lat="28.7234100" lon="-17.9396920">
        <ele>1151.0</ele>
        <time>2020-11-16T18:52:24Z</time>
      </trkpt>
      <trkpt lat="28.7234100" lon="-17.9396920">
        <ele>1151.0</ele>
        <time>2020-11-16T18:52:25Z</time>
      </trkpt>
      <trkpt lat="28.7233380" lon="-17.9396770">
        <ele>1149.0</ele>
        <time>2020-11-16T18:52:26Z</time>
      </trkpt>
      <trkpt lat="28.7233380" lon="-17.9396770">
        <ele>1149.0</ele>
        <time>2020-11-16T18:52:27Z</time>
      </trkpt>
      <trkpt lat="28.7232530" lon="-17.9396630">
        <ele>1146.8</ele>
        <time>2020-11-16T18:52:28Z</time>
      </trkpt>
      <trkpt lat="28.7232530" lon="-17.9396630">
        <ele>1146.8</ele>
        <time>2020-11-16T18:52:29Z</time>
      </trkpt>
      <trkpt lat="28.7231650" lon="-17.9396620">
        <ele>1144.5</ele>
        <time>2020-11-16T18:52:30Z</time>
      </trkpt>
      <trkpt lat="28.7231650" lon="-17.9396620">
        <ele>1144.5</ele>
        <time>2020-11-16T18:52:31Z</time>
      </trkpt>
      <trkpt lat="28.7230750" lon="-17.9396800">
        <ele>1142.1</ele>
        <time>2020-11-16T18:52:32Z</time>
      </trkpt>
      <trkpt lat="28.7230750" lon="-17.9396800">
        <ele>1142.1</ele>
        <time>2020-11-16T18:52:33Z</time>
      </trkpt>
      <trkpt lat="28.7229870" lon="-17.9397000">
        <ele>1139.7</ele>
        <time>2020-11-16T18:52:34Z</time>
      </trkpt>
      <trkpt lat="28.7229870" lon="-17.9397000">
        <ele>1139.7</ele>
        <time>2020-11-16T18:52:35Z</time>
      </trkpt>
      <trkpt lat="28.7228950" lon="-17.9397100">
        <ele>1137.2</ele>
        <time>2020-11-16T18:52:36Z</time>
      </trkpt>
      <trkpt lat="28.7228500" lon="-17.9397050">
        <ele>1136.0</ele>
        <time>2020-11-16T18:52:37Z</time>
      </trkpt>
      <trkpt lat="28.7228500" lon="-17.9397050">
        <ele>1136.0</ele>
        <time>2020-11-16T18:52:38Z</time>
      </trkpt>
      <trkpt lat="28.7227650" lon="-17.9396880">
        <ele>1133.7</ele>
        <time>2020-11-16T18:52:39Z</time>
      </trkpt>
      <trkpt lat="28.7227650" lon="-17.9396880">
        <ele>1133.7</ele>
        <time>2020-11-16T18:52:40Z</time>
      </trkpt>
      <trkpt lat="28.7226820" lon="-17.9396770">
        <ele>1131.5</ele>
        <time>2020-11-16T18:52:41Z</time>
      </trkpt>
      <trkpt lat="28.7226820" lon="-17.9396770">
        <ele>1131.5</ele>
        <time>2020-11-16T18:52:42Z</time>
      </trkpt>
      <trkpt lat="28.7225950" lon="-17.9397050">
        <ele>1129.1</ele>
        <time>2020-11-16T18:52:43Z</time>
      </trkpt>
      <trkpt lat="28.7225530" lon="-17.9397250">
        <ele>1127.9</ele>
        <time>2020-11-16T18:52:44Z</time>
      </trkpt>
      <trkpt lat="28.7225530" lon="-17.9397250">
        <ele>1127.9</ele>
        <time>2020-11-16T18:52:45Z</time>
      </trkpt>
      <trkpt lat="28.7224830" lon="-17.9397750">
        <ele>1125.7</ele>
        <time>2020-11-16T18:52:46Z</time>
      </trkpt>
      <trkpt lat="28.7224830" lon="-17.9397750">
        <ele>1125.7</ele>
        <time>2020-11-16T18:52:47Z</time>
      </trkpt>
      <trkpt lat="28.7224020" lon="-17.9398100">
        <ele>1123.3</ele>
        <time>2020-11-16T18:52:48Z</time>
      </trkpt>
      <trkpt lat="28.7224020" lon="-17.9398100">
        <ele>1123.3</ele>
        <time>2020-11-16T18:52:49Z</time>
      </trkpt>
      <trkpt lat="28.7222950" lon="-17.9398570">
        <ele>1120.2</ele>
        <time>2020-11-16T18:52:50Z</time>
      </trkpt>
      <trkpt lat="28.7222950" lon="-17.9398570">
        <ele>1120.2</ele>
        <time>2020-11-16T18:52:51Z</time>
      </trkpt>
      <trkpt lat="28.7221770" lon="-17.9398830">
        <ele>1116.9</ele>
        <time>2020-11-16T18:52:52Z</time>
      </trkpt>
      <trkpt lat="28.7221200" lon="-17.9398950">
        <ele>1115.2</ele>
        <time>2020-11-16T18:52:53Z</time>
      </trkpt>
      <trkpt lat="28.7221200" lon="-17.9398950">
        <ele>1115.2</ele>
        <time>2020-11-16T18:52:54Z</time>
      </trkpt>
      <trkpt lat="28.7220080" lon="-17.9399070">
        <ele>1112.1</ele>
        <time>2020-11-16T18:52:55Z</time>
      </trkpt>
      <trkpt lat="28.7220080" lon="-17.9399070">
        <ele>1112.1</ele>
        <time>2020-11-16T18:52:56Z</time>
      </trkpt>
      <trkpt lat="28.7219000" lon="-17.9399250">
        <ele>1109.1</ele>
        <time>2020-11-16T18:52:57Z</time>
      </trkpt>
      <trkpt lat="28.7219000" lon="-17.9399250">
        <ele>1109.1</ele>
        <time>2020-11-16T18:52:58Z</time>
      </trkpt>
      <trkpt lat="28.7217800" lon="-17.9399550">
        <ele>1105.6</ele>
        <time>2020-11-16T18:52:59Z</time>
      </trkpt>
      <trkpt lat="28.7217800" lon="-17.9399550">
        <ele>1105.6</ele>
        <time>2020-11-16T18:53:00Z</time>
      </trkpt>
      <trkpt lat="28.7216650" lon="-17.9399820">
        <ele>1102.3</ele>
        <time>2020-11-16T18:53:01Z</time>
      </trkpt>
      <trkpt lat="28.7216650" lon="-17.9399820">
        <ele>1102.3</ele>
        <time>2020-11-16T18:53:02Z</time>
      </trkpt>
      <trkpt lat="28.7215580" lon="-17.9400030">
        <ele>1099.2</ele>
        <time>2020-11-16T18:53:03Z</time>
      </trkpt>
      <trkpt lat="28.7215030" lon="-17.9400100">
        <ele>1097.6</ele>
        <time>2020-11-16T18:53:04Z</time>
      </trkpt>
      <trkpt lat="28.7215030" lon="-17.9400100">
        <ele>1097.6</ele>
        <time>2020-11-16T18:53:05Z</time>
      </trkpt>
      <trkpt lat="28.7214070" lon="-17.9400350">
        <ele>1094.8</ele>
        <time>2020-11-16T18:53:06Z</time>
      </trkpt>
      <trkpt lat="28.7214070" lon="-17.9400350">
        <ele>1094.8</ele>
        <time>2020-11-16T18:53:07Z</time>
      </trkpt>
      <trkpt lat="28.7213320" lon="-17.9400420">
        <ele>1092.6</ele>
        <time>2020-11-16T18:53:08Z</time>
      </trkpt>
      <trkpt lat="28.7213320" lon="-17.9400420">
        <ele>1092.6</ele>
        <time>2020-11-16T18:53:09Z</time>
      </trkpt>
      <trkpt lat="28.7212780" lon="-17.9400270">
        <ele>1091.0</ele>
        <time>2020-11-16T18:53:10Z</time>
      </trkpt>
      <trkpt lat="28.7212780" lon="-17.9400270">
        <ele>1091.0</ele>
        <time>2020-11-16T18:53:11Z</time>
      </trkpt>
      <trkpt lat="28.7212720" lon="-17.9399750">
        <ele>1089.9</ele>
        <time>2020-11-16T18:53:12Z</time>
      </trkpt>
      <trkpt lat="28.7212720" lon="-17.9399750">
        <ele>1089.9</ele>
        <time>2020-11-16T18:53:13Z</time>
      </trkpt>
      <trkpt lat="28.7213050" lon="-17.9399150">
        <ele>1089.6</ele>
        <time>2020-11-16T18:53:14Z</time>
      </trkpt>
      <trkpt lat="28.7213200" lon="-17.9398830">
        <ele>1089.6</ele>
        <time>2020-11-16T18:53:15Z</time>
      </trkpt>
      <trkpt lat="28.7213200" lon="-17.9398830">
        <ele>1089.6</ele>
        <time>2020-11-16T18:53:16Z</time>
      </trkpt>
      <trkpt lat="28.7213480" lon="-17.9398130">
        <ele>1089.4</ele>
        <time>2020-11-16T18:53:17Z</time>
      </trkpt>
      <trkpt lat="28.7213650" lon="-17.9397730">
        <ele>1089.3</ele>
        <time>2020-11-16T18:53:18Z</time>
      </trkpt>
      <trkpt lat="28.7213650" lon="-17.9397730">
        <ele>1089.3</ele>
        <time>2020-11-16T18:53:19Z</time>
      </trkpt>
      <trkpt lat="28.7213930" lon="-17.9396880">
        <ele>1089.1</ele>
        <time>2020-11-16T18:53:20Z</time>
      </trkpt>
      <trkpt lat="28.7213930" lon="-17.9396880">
        <ele>1089.1</ele>
        <time>2020-11-16T18:53:21Z</time>
      </trkpt>
      <trkpt lat="28.7214270" lon="-17.9396130">
        <ele>1089.0</ele>
        <time>2020-11-16T18:53:22Z</time>
      </trkpt>
      <trkpt lat="28.7214270" lon="-17.9396130">
        <ele>1089.0</ele>
        <time>2020-11-16T18:53:23Z</time>
      </trkpt>
      <trkpt lat="28.7214680" lon="-17.9395330">
        <ele>1088.9</ele>
        <time>2020-11-16T18:53:24Z</time>
      </trkpt>
      <trkpt lat="28.7214680" lon="-17.9395330">
        <ele>1088.9</ele>
        <time>2020-11-16T18:53:25Z</time>
      </trkpt>
      <trkpt lat="28.7215020" lon="-17.9394420">
        <ele>1088.8</ele>
        <time>2020-11-16T18:53:26Z</time>
      </trkpt>
      <trkpt lat="28.7215150" lon="-17.9393950">
        <ele>1088.8</ele>
        <time>2020-11-16T18:53:27Z</time>
      </trkpt>
      <trkpt lat="28.7215150" lon="-17.9393950">
        <ele>1088.8</ele>
        <time>2020-11-16T18:53:28Z</time>
      </trkpt>
      <trkpt lat="28.7215380" lon="-17.9393170">
        <ele>1088.8</ele>
        <time>2020-11-16T18:53:29Z</time>
      </trkpt>
      <trkpt lat="28.7215380" lon="-17.9393170">
        <ele>1088.8</ele>
        <time>2020-11-16T18:53:30Z</time>
      </trkpt>
      <trkpt lat="28.7215750" lon="-17.9392370">
        <ele>1088.7</ele>
        <time>2020-11-16T18:53:31Z</time>
      </trkpt>
      <trkpt lat="28.7215750" lon="-17.9392370">
        <ele>1088.7</ele>
        <time>2020-11-16T18:53:32Z</time>
      </trkpt>
      <trkpt lat="28.7216330" lon="-17.9391650">
        <ele>1088.6</ele>
        <time>2020-11-16T18:53:33Z</time>
      </trkpt>
      <trkpt lat="28.7216730" lon="-17.9391320">
        <ele>1088.5</ele>
        <time>2020-11-16T18:53:34Z</time>
      </trkpt>
      <trkpt lat="28.7216730" lon="-17.9391320">
        <ele>1088.5</ele>
        <time>2020-11-16T18:53:35Z</time>
      </trkpt>
      <trkpt lat="28.7217580" lon="-17.9390720">
        <ele>1088.2</ele>
        <time>2020-11-16T18:53:36Z</time>
      </trkpt>
      <trkpt lat="28.7217580" lon="-17.9390720">
        <ele>1088.2</ele>
        <time>2020-11-16T18:53:37Z</time>
      </trkpt>
      <trkpt lat="28.7218370" lon="-17.9390220">
        <ele>1088.0</ele>
        <time>2020-11-16T18:53:38Z</time>
      </trkpt>
      <trkpt lat="28.7218370" lon="-17.9390220">
        <ele>1088.0</ele>
        <time>2020-11-16T18:53:39Z</time>
      </trkpt>
      <trkpt lat="28.7218970" lon="-17.9390020">
        <ele>1087.8</ele>
        <time>2020-11-16T18:53:40Z</time>
      </trkpt>
      <trkpt lat="28.7218970" lon="-17.9390020">
        <ele>1087.8</ele>
        <time>2020-11-16T18:53:41Z</time>
      </trkpt>
      <trkpt lat="28.7219350" lon="-17.9389900">
        <ele>1087.6</ele>
        <time>2020-11-16T18:53:42Z</time>
      </trkpt>
      <trkpt lat="28.7219350" lon="-17.9389900">
        <ele>1087.6</ele>
        <time>2020-11-16T18:53:43Z</time>
      </trkpt>
      <trkpt lat="28.7219370" lon="-17.9389520">
        <ele>1087.5</ele>
        <time>2020-11-16T18:53:44Z</time>
      </trkpt>
      <trkpt lat="28.7219370" lon="-17.9389520">
        <ele>1087.5</ele>
        <time>2020-11-16T18:53:45Z</time>
      </trkpt>
      <trkpt lat="28.7219580" lon="-17.9389080">
        <ele>1087.3</ele>
        <time>2020-11-16T18:53:46Z</time>
      </trkpt>
      <trkpt lat="28.7219580" lon="-17.9389080">
        <ele>1087.3</ele>
        <time>2020-11-16T18:53:47Z</time>
      </trkpt>
      <trkpt lat="28.7219620" lon="-17.9388600">
        <ele>1087.1</ele>
        <time>2020-11-16T18:53:48Z</time>
      </trkpt>
      <trkpt lat="28.7219620" lon="-17.9388600">
        <ele>1087.1</ele>
        <time>2020-11-16T18:53:49Z</time>
      </trkpt>
      <trkpt lat="28.7219330" lon="-17.9388000">
        <ele>1086.8</ele>
        <time>2020-11-16T18:53:50Z</time>
      </trkpt>
      <trkpt lat="28.7219330" lon="-17.9388000">
        <ele>1086.8</ele>
        <time>2020-11-16T18:53:51Z</time>
      </trkpt>
      <trkpt lat="28.7218870" lon="-17.9387570">
        <ele>1086.6</ele>
        <time>2020-11-16T18:53:52Z</time>
      </trkpt>
      <trkpt lat="28.7218870" lon="-17.9387570">
        <ele>1086.6</ele>
        <time>2020-11-16T18:53:53Z</time>
      </trkpt>
      <trkpt lat="28.7218150" lon="-17.9387080">
        <ele>1086.2</ele>
        <time>2020-11-16T18:53:54Z</time>
      </trkpt>
      <trkpt lat="28.7218150" lon="-17.9387080">
        <ele>1086.2</ele>
        <time>2020-11-16T18:53:55Z</time>
      </trkpt>
      <trkpt lat="28.7217300" lon="-17.9386430">
        <ele>1085.8</ele>
        <time>2020-11-16T18:53:56Z</time>
      </trkpt>
      <trkpt lat="28.7216930" lon="-17.9386120">
        <ele>1085.7</ele>
        <time>2020-11-16T18:53:57Z</time>
      </trkpt>
      <trkpt lat="28.7216930" lon="-17.9386120">
        <ele>1085.7</ele>
        <time>2020-11-16T18:53:58Z</time>
      </trkpt>
      <trkpt lat="28.7216230" lon="-17.9385600">
        <ele>1085.3</ele>
        <time>2020-11-16T18:53:59Z</time>
      </trkpt>
      <trkpt lat="28.7216230" lon="-17.9385600">
        <ele>1085.3</ele>
        <time>2020-11-16T18:54:00Z</time>
      </trkpt>
      <trkpt lat="28.7215570" lon="-17.9385270">
        <ele>1085.0</ele>
        <time>2020-11-16T18:54:01Z</time>
      </trkpt>
      <trkpt lat="28.7215570" lon="-17.9385270">
        <ele>1085.0</ele>
        <time>2020-11-16T18:54:02Z</time>
      </trkpt>
      <trkpt lat="28.7214900" lon="-17.9384950">
        <ele>1084.7</ele>
        <time>2020-11-16T18:54:03Z</time>
      </trkpt>
      <trkpt lat="28.7214900" lon="-17.9384950">
        <ele>1084.7</ele>
        <time>2020-11-16T18:54:04Z</time>
      </trkpt>
      <trkpt lat="28.7214230" lon="-17.9384570">
        <ele>1084.5</ele>
        <time>2020-11-16T18:54:05Z</time>
      </trkpt>
      <trkpt lat="28.7213850" lon="-17.9384300">
        <ele>1084.4</ele>
        <time>2020-11-16T18:54:06Z</time>
      </trkpt>
      <trkpt lat="28.7213850" lon="-17.9384300">
        <ele>1084.4</ele>
        <time>2020-11-16T18:54:07Z</time>
      </trkpt>
      <trkpt lat="28.7213000" lon="-17.9384000">
        <ele>1084.2</ele>
        <time>2020-11-16T18:54:08Z</time>
      </trkpt>
      <trkpt lat="28.7213000" lon="-17.9384000">
        <ele>1084.2</ele>
        <time>2020-11-16T18:54:09Z</time>
      </trkpt>
      <trkpt lat="28.7212220" lon="-17.9383870">
        <ele>1084.1</ele>
        <time>2020-11-16T18:54:10Z</time>
      </trkpt>
      <trkpt lat="28.7212220" lon="-17.9383870">
        <ele>1084.1</ele>
        <time>2020-11-16T18:54:11Z</time>
      </trkpt>
      <trkpt lat="28.7211330" lon="-17.9383980">
        <ele>1083.9</ele>
        <time>2020-11-16T18:54:12Z</time>
      </trkpt>
      <trkpt lat="28.7211330" lon="-17.9383980">
        <ele>1083.9</ele>
        <time>2020-11-16T18:54:13Z</time>
      </trkpt>
      <trkpt lat="28.7210580" lon="-17.9384200">
        <ele>1083.8</ele>
        <time>2020-11-16T18:54:14Z</time>
      </trkpt>
      <trkpt lat="28.7210580" lon="-17.9384200">
        <ele>1083.8</ele>
        <time>2020-11-16T18:54:15Z</time>
      </trkpt>
      <trkpt lat="28.7209600" lon="-17.9384620">
        <ele>1083.7</ele>
        <time>2020-11-16T18:54:16Z</time>
      </trkpt>
      <trkpt lat="28.7209070" lon="-17.9384900">
        <ele>1083.6</ele>
        <time>2020-11-16T18:54:17Z</time>
      </trkpt>
      <trkpt lat="28.7209070" lon="-17.9384900">
        <ele>1083.6</ele>
        <time>2020-11-16T18:54:18Z</time>
      </trkpt>
      <trkpt lat="28.7208080" lon="-17.9385220">
        <ele>1083.2</ele>
        <time>2020-11-16T18:54:19Z</time>
      </trkpt>
      <trkpt lat="28.7208080" lon="-17.9385220">
        <ele>1083.2</ele>
        <time>2020-11-16T18:54:20Z</time>
      </trkpt>
      <trkpt lat="28.7207400" lon="-17.9384950">
        <ele>1082.9</ele>
        <time>2020-11-16T18:54:21Z</time>
      </trkpt>
      <trkpt lat="28.7207400" lon="-17.9384950">
        <ele>1082.9</ele>
        <time>2020-11-16T18:54:22Z</time>
      </trkpt>
      <trkpt lat="28.7207050" lon="-17.9384420">
        <ele>1082.6</ele>
        <time>2020-11-16T18:54:23Z</time>
      </trkpt>
      <trkpt lat="28.7207050" lon="-17.9384420">
        <ele>1082.6</ele>
        <time>2020-11-16T18:54:24Z</time>
      </trkpt>
      <trkpt lat="28.7206980" lon="-17.9383720">
        <ele>1082.3</ele>
        <time>2020-11-16T18:54:25Z</time>
      </trkpt>
      <trkpt lat="28.7206980" lon="-17.9383720">
        <ele>1082.3</ele>
        <time>2020-11-16T18:54:26Z</time>
      </trkpt>
      <trkpt lat="28.7207050" lon="-17.9383030">
        <ele>1082.1</ele>
        <time>2020-11-16T18:54:27Z</time>
      </trkpt>
      <trkpt lat="28.7206970" lon="-17.9382680">
        <ele>1082.0</ele>
        <time>2020-11-16T18:54:28Z</time>
      </trkpt>
      <trkpt lat="28.7206970" lon="-17.9382680">
        <ele>1082.0</ele>
        <time>2020-11-16T18:54:29Z</time>
      </trkpt>
      <trkpt lat="28.7206700" lon="-17.9381980">
        <ele>1081.7</ele>
        <time>2020-11-16T18:54:30Z</time>
      </trkpt>
      <trkpt lat="28.7206700" lon="-17.9381980">
        <ele>1081.7</ele>
        <time>2020-11-16T18:54:31Z</time>
      </trkpt>
      <trkpt lat="28.7206530" lon="-17.9381320">
        <ele>1081.5</ele>
        <time>2020-11-16T18:54:32Z</time>
      </trkpt>
      <trkpt lat="28.7206470" lon="-17.9381070">
        <ele>1081.4</ele>
        <time>2020-11-16T18:54:33Z</time>
      </trkpt>
      <trkpt lat="28.7206470" lon="-17.9381070">
        <ele>1081.4</ele>
        <time>2020-11-16T18:54:34Z</time>
      </trkpt>
      <trkpt lat="28.7206400" lon="-17.9380600">
        <ele>1081.2</ele>
        <time>2020-11-16T18:54:35Z</time>
      </trkpt>
      <trkpt lat="28.7206400" lon="-17.9380600">
        <ele>1081.2</ele>
        <time>2020-11-16T18:54:36Z</time>
      </trkpt>
      <trkpt lat="28.7206370" lon="-17.9380050">
        <ele>1081.0</ele>
        <time>2020-11-16T18:54:37Z</time>
      </trkpt>
      <trkpt lat="28.7206370" lon="-17.9379780">
        <ele>1080.8</ele>
        <time>2020-11-16T18:54:38Z</time>
      </trkpt>
      <trkpt lat="28.7206370" lon="-17.9379780">
        <ele>1080.8</ele>
        <time>2020-11-16T18:54:39Z</time>
      </trkpt>
      <trkpt lat="28.7206400" lon="-17.9379230">
        <ele>1080.6</ele>
        <time>2020-11-16T18:54:40Z</time>
      </trkpt>
      <trkpt lat="28.7206400" lon="-17.9379230">
        <ele>1080.6</ele>
        <time>2020-11-16T18:54:41Z</time>
      </trkpt>
      <trkpt lat="28.7206370" lon="-17.9378670">
        <ele>1080.3</ele>
        <time>2020-11-16T18:54:42Z</time>
      </trkpt>
      <trkpt lat="28.7206370" lon="-17.9378670">
        <ele>1080.3</ele>
        <time>2020-11-16T18:54:43Z</time>
      </trkpt>
      <trkpt lat="28.7206230" lon="-17.9378100">
        <ele>1079.9</ele>
        <time>2020-11-16T18:54:44Z</time>
      </trkpt>
      <trkpt lat="28.7206230" lon="-17.9378100">
        <ele>1079.9</ele>
        <time>2020-11-16T18:54:45Z</time>
      </trkpt>
      <trkpt lat="28.7205900" lon="-17.9377630">
        <ele>1079.6</ele>
        <time>2020-11-16T18:54:46Z</time>
      </trkpt>
      <trkpt lat="28.7205900" lon="-17.9377630">
        <ele>1079.6</ele>
        <time>2020-11-16T18:54:47Z</time>
      </trkpt>
      <trkpt lat="28.7205400" lon="-17.9377430">
        <ele>1079.2</ele>
        <time>2020-11-16T18:54:48Z</time>
      </trkpt>
      <trkpt lat="28.7205170" lon="-17.9377380">
        <ele>1079.1</ele>
        <time>2020-11-16T18:54:49Z</time>
      </trkpt>
      <trkpt lat="28.7205170" lon="-17.9377380">
        <ele>1079.1</ele>
        <time>2020-11-16T18:54:50Z</time>
      </trkpt>
      <trkpt lat="28.7204570" lon="-17.9377450">
        <ele>1078.7</ele>
        <time>2020-11-16T18:54:51Z</time>
      </trkpt>
      <trkpt lat="28.7204570" lon="-17.9377450">
        <ele>1078.7</ele>
        <time>2020-11-16T18:54:52Z</time>
      </trkpt>
      <trkpt lat="28.7204120" lon="-17.9377670">
        <ele>1078.4</ele>
        <time>2020-11-16T18:54:53Z</time>
      </trkpt>
      <trkpt lat="28.7203830" lon="-17.9377780">
        <ele>1078.3</ele>
        <time>2020-11-16T18:54:54Z</time>
      </trkpt>
      <trkpt lat="28.7203830" lon="-17.9377780">
        <ele>1078.3</ele>
        <time>2020-11-16T18:54:55Z</time>
      </trkpt>
      <trkpt lat="28.7203320" lon="-17.9377900">
        <ele>1078.0</ele>
        <time>2020-11-16T18:54:56Z</time>
      </trkpt>
      <trkpt lat="28.7203320" lon="-17.9377900">
        <ele>1078.0</ele>
        <time>2020-11-16T18:54:57Z</time>
      </trkpt>
      <trkpt lat="28.7202730" lon="-17.9378130">
        <ele>1077.8</ele>
        <time>2020-11-16T18:54:58Z</time>
      </trkpt>
      <trkpt lat="28.7202730" lon="-17.9378130">
        <ele>1077.8</ele>
        <time>2020-11-16T18:54:59Z</time>
      </trkpt>
      <trkpt lat="28.7202200" lon="-17.9378430">
        <ele>1077.5</ele>
        <time>2020-11-16T18:55:00Z</time>
      </trkpt>
      <trkpt lat="28.7201780" lon="-17.9378600">
        <ele>1077.3</ele>
        <time>2020-11-16T18:55:01Z</time>
      </trkpt>
      <trkpt lat="28.7201780" lon="-17.9378600">
        <ele>1077.3</ele>
        <time>2020-11-16T18:55:02Z</time>
      </trkpt>
      <trkpt lat="28.7201480" lon="-17.9378580">
        <ele>1077.2</ele>
        <time>2020-11-16T18:55:03Z</time>
      </trkpt>
      <trkpt lat="28.7201480" lon="-17.9378580">
        <ele>1077.2</ele>
        <time>2020-11-16T18:55:04Z</time>
      </trkpt>
      <trkpt lat="28.7200880" lon="-17.9378380">
        <ele>1076.9</ele>
        <time>2020-11-16T18:55:05Z</time>
      </trkpt>
      <trkpt lat="28.7200880" lon="-17.9378380">
        <ele>1076.9</ele>
        <time>2020-11-16T18:55:06Z</time>
      </trkpt>
      <trkpt lat="28.7200550" lon="-17.9378170">
        <ele>1076.8</ele>
        <time>2020-11-16T18:55:07Z</time>
      </trkpt>
      <trkpt lat="28.7200550" lon="-17.9378170">
        <ele>1076.8</ele>
        <time>2020-11-16T18:55:08Z</time>
      </trkpt>
      <trkpt lat="28.7200320" lon="-17.9377820">
        <ele>1076.5</ele>
        <time>2020-11-16T18:55:09Z</time>
      </trkpt>
      <trkpt lat="28.7200320" lon="-17.9377820">
        <ele>1076.5</ele>
        <time>2020-11-16T18:55:10Z</time>
      </trkpt>
      <trkpt lat="28.7200130" lon="-17.9377330">
        <ele>1076.3</ele>
        <time>2020-11-16T18:55:11Z</time>
      </trkpt>
      <trkpt lat="28.7200130" lon="-17.9377330">
        <ele>1076.3</ele>
        <time>2020-11-16T18:55:12Z</time>
      </trkpt>
      <trkpt lat="28.7199980" lon="-17.9376650">
        <ele>1077.4</ele>
        <time>2020-11-16T18:55:13Z</time>
      </trkpt>
      <trkpt lat="28.7199980" lon="-17.9376650">
        <ele>1077.4</ele>
        <time>2020-11-16T18:55:14Z</time>
      </trkpt>
      <trkpt lat="28.7200070" lon="-17.9375920">
        <ele>1078.9</ele>
        <time>2020-11-16T18:55:15Z</time>
      </trkpt>
      <trkpt lat="28.7200070" lon="-17.9375920">
        <ele>1078.9</ele>
        <time>2020-11-16T18:55:16Z</time>
      </trkpt>
      <trkpt lat="28.7200400" lon="-17.9375230">
        <ele>1080.5</ele>
        <time>2020-11-16T18:55:17Z</time>
      </trkpt>
      <trkpt lat="28.7200400" lon="-17.9375230">
        <ele>1080.5</ele>
        <time>2020-11-16T18:55:18Z</time>
      </trkpt>
      <trkpt lat="28.7200970" lon="-17.9374600">
        <ele>1082.3</ele>
        <time>2020-11-16T18:55:19Z</time>
      </trkpt>
      <trkpt lat="28.7200970" lon="-17.9374600">
        <ele>1082.3</ele>
        <time>2020-11-16T18:55:20Z</time>
      </trkpt>
      <trkpt lat="28.7201470" lon="-17.9373950">
        <ele>1084.0</ele>
        <time>2020-11-16T18:55:21Z</time>
      </trkpt>
      <trkpt lat="28.7201470" lon="-17.9373950">
        <ele>1084.0</ele>
        <time>2020-11-16T18:55:22Z</time>
      </trkpt>
      <trkpt lat="28.7201900" lon="-17.9373170">
        <ele>1085.8</ele>
        <time>2020-11-16T18:55:23Z</time>
      </trkpt>
      <trkpt lat="28.7201900" lon="-17.9373170">
        <ele>1085.8</ele>
        <time>2020-11-16T18:55:24Z</time>
      </trkpt>
      <trkpt lat="28.7202350" lon="-17.9372270">
        <ele>1086.8</ele>
        <time>2020-11-16T18:55:25Z</time>
      </trkpt>
      <trkpt lat="28.7202350" lon="-17.9372270">
        <ele>1086.8</ele>
        <time>2020-11-16T18:55:26Z</time>
      </trkpt>
      <trkpt lat="28.7202880" lon="-17.9371370">
        <ele>1086.6</ele>
        <time>2020-11-16T18:55:27Z</time>
      </trkpt>
      <trkpt lat="28.7202880" lon="-17.9371370">
        <ele>1086.6</ele>
        <time>2020-11-16T18:55:28Z</time>
      </trkpt>
      <trkpt lat="28.7203430" lon="-17.9370480">
        <ele>1086.1</ele>
        <time>2020-11-16T18:55:29Z</time>
      </trkpt>
      <trkpt lat="28.7203430" lon="-17.9370480">
        <ele>1086.1</ele>
        <time>2020-11-16T18:55:30Z</time>
      </trkpt>
      <trkpt lat="28.7204120" lon="-17.9369650">
        <ele>1085.3</ele>
        <time>2020-11-16T18:55:31Z</time>
      </trkpt>
      <trkpt lat="28.7204120" lon="-17.9369650">
        <ele>1085.3</ele>
        <time>2020-11-16T18:55:32Z</time>
      </trkpt>
      <trkpt lat="28.7204620" lon="-17.9368900">
        <ele>1084.7</ele>
        <time>2020-11-16T18:55:33Z</time>
      </trkpt>
      <trkpt lat="28.7204620" lon="-17.9368900">
        <ele>1084.7</ele>
        <time>2020-11-16T18:55:34Z</time>
      </trkpt>
      <trkpt lat="28.7205050" lon="-17.9368180">
        <ele>1084.2</ele>
        <time>2020-11-16T18:55:35Z</time>
      </trkpt>
      <trkpt lat="28.7205050" lon="-17.9368180">
        <ele>1084.2</ele>
        <time>2020-11-16T18:55:36Z</time>
      </trkpt>
      <trkpt lat="28.7205530" lon="-17.9367400">
        <ele>1083.7</ele>
        <time>2020-11-16T18:55:37Z</time>
      </trkpt>
      <trkpt lat="28.7205530" lon="-17.9367400">
        <ele>1083.7</ele>
        <time>2020-11-16T18:55:38Z</time>
      </trkpt>
      <trkpt lat="28.7206050" lon="-17.9366680">
        <ele>1083.3</ele>
        <time>2020-11-16T18:55:39Z</time>
      </trkpt>
      <trkpt lat="28.7206050" lon="-17.9366680">
        <ele>1083.3</ele>
        <time>2020-11-16T18:55:40Z</time>
      </trkpt>
      <trkpt lat="28.7206550" lon="-17.9365870">
        <ele>1083.0</ele>
        <time>2020-11-16T18:55:41Z</time>
      </trkpt>
      <trkpt lat="28.7206770" lon="-17.9365420">
        <ele>1082.7</ele>
        <time>2020-11-16T18:55:42Z</time>
      </trkpt>
      <trkpt lat="28.7206770" lon="-17.9365420">
        <ele>1082.7</ele>
        <time>2020-11-16T18:55:43Z</time>
      </trkpt>
      <trkpt lat="28.7207300" lon="-17.9364750">
        <ele>1082.1</ele>
        <time>2020-11-16T18:55:44Z</time>
      </trkpt>
      <trkpt lat="28.7207300" lon="-17.9364750">
        <ele>1082.1</ele>
        <time>2020-11-16T18:55:45Z</time>
      </trkpt>
      <trkpt lat="28.7207680" lon="-17.9364100">
        <ele>1081.6</ele>
        <time>2020-11-16T18:55:46Z</time>
      </trkpt>
      <trkpt lat="28.7207680" lon="-17.9364100">
        <ele>1081.6</ele>
        <time>2020-11-16T18:55:47Z</time>
      </trkpt>
      <trkpt lat="28.7207920" lon="-17.9363380">
        <ele>1081.1</ele>
        <time>2020-11-16T18:55:48Z</time>
      </trkpt>
      <trkpt lat="28.7207920" lon="-17.9363380">
        <ele>1081.1</ele>
        <time>2020-11-16T18:55:49Z</time>
      </trkpt>
      <trkpt lat="28.7207620" lon="-17.9362680">
        <ele>1080.7</ele>
        <time>2020-11-16T18:55:50Z</time>
      </trkpt>
      <trkpt lat="28.7207320" lon="-17.9362300">
        <ele>1080.4</ele>
        <time>2020-11-16T18:55:51Z</time>
      </trkpt>
      <trkpt lat="28.7207320" lon="-17.9362300">
        <ele>1080.4</ele>
        <time>2020-11-16T18:55:52Z</time>
      </trkpt>
      <trkpt lat="28.7206780" lon="-17.9361550">
        <ele>1079.9</ele>
        <time>2020-11-16T18:55:53Z</time>
      </trkpt>
      <trkpt lat="28.7206780" lon="-17.9361550">
        <ele>1079.9</ele>
        <time>2020-11-16T18:55:54Z</time>
      </trkpt>
      <trkpt lat="28.7206250" lon="-17.9360800">
        <ele>1079.4</ele>
        <time>2020-11-16T18:55:55Z</time>
      </trkpt>
      <trkpt lat="28.7206250" lon="-17.9360800">
        <ele>1079.4</ele>
        <time>2020-11-16T18:55:56Z</time>
      </trkpt>
      <trkpt lat="28.7205580" lon="-17.9360080">
        <ele>1078.9</ele>
        <time>2020-11-16T18:55:57Z</time>
      </trkpt>
      <trkpt lat="28.7205580" lon="-17.9360080">
        <ele>1078.9</ele>
        <time>2020-11-16T18:55:58Z</time>
      </trkpt>
      <trkpt lat="28.7205000" lon="-17.9359270">
        <ele>1078.6</ele>
        <time>2020-11-16T18:55:59Z</time>
      </trkpt>
      <trkpt lat="28.7204650" lon="-17.9358850">
        <ele>1078.4</ele>
        <time>2020-11-16T18:56:00Z</time>
      </trkpt>
      <trkpt lat="28.7204650" lon="-17.9358850">
        <ele>1078.4</ele>
        <time>2020-11-16T18:56:01Z</time>
      </trkpt>
      <trkpt lat="28.7203970" lon="-17.9357930">
        <ele>1078.0</ele>
        <time>2020-11-16T18:56:02Z</time>
      </trkpt>
      <trkpt lat="28.7203830" lon="-17.9357520">
        <ele>1077.9</ele>
        <time>2020-11-16T18:56:03Z</time>
      </trkpt>
      <trkpt lat="28.7203830" lon="-17.9357520">
        <ele>1077.9</ele>
        <time>2020-11-16T18:56:04Z</time>
      </trkpt>
      <trkpt lat="28.7203950" lon="-17.9356720">
        <ele>1077.6</ele>
        <time>2020-11-16T18:56:05Z</time>
      </trkpt>
      <trkpt lat="28.7203950" lon="-17.9356720">
        <ele>1077.6</ele>
        <time>2020-11-16T18:56:06Z</time>
      </trkpt>
      <trkpt lat="28.7204320" lon="-17.9356170">
        <ele>1077.4</ele>
        <time>2020-11-16T18:56:07Z</time>
      </trkpt>
      <trkpt lat="28.7204320" lon="-17.9356170">
        <ele>1077.4</ele>
        <time>2020-11-16T18:56:08Z</time>
      </trkpt>
      <trkpt lat="28.7204850" lon="-17.9355850">
        <ele>1077.1</ele>
        <time>2020-11-16T18:56:09Z</time>
      </trkpt>
      <trkpt lat="28.7204850" lon="-17.9355850">
        <ele>1077.1</ele>
        <time>2020-11-16T18:56:10Z</time>
      </trkpt>
      <trkpt lat="28.7205370" lon="-17.9355420">
        <ele>1077.0</ele>
        <time>2020-11-16T18:56:11Z</time>
      </trkpt>
      <trkpt lat="28.7205370" lon="-17.9355420">
        <ele>1077.0</ele>
        <time>2020-11-16T18:56:12Z</time>
      </trkpt>
      <trkpt lat="28.7205900" lon="-17.9355080">
        <ele>1076.9</ele>
        <time>2020-11-16T18:56:13Z</time>
      </trkpt>
      <trkpt lat="28.7206130" lon="-17.9354930">
        <ele>1076.9</ele>
        <time>2020-11-16T18:56:14Z</time>
      </trkpt>
      <trkpt lat="28.7206130" lon="-17.9354930">
        <ele>1076.9</ele>
        <time>2020-11-16T18:56:15Z</time>
      </trkpt>
      <trkpt lat="28.7206470" lon="-17.9354570">
        <ele>1076.9</ele>
        <time>2020-11-16T18:56:16Z</time>
      </trkpt>
      <trkpt lat="28.7206470" lon="-17.9354570">
        <ele>1076.9</ele>
        <time>2020-11-16T18:56:17Z</time>
      </trkpt>
      <trkpt lat="28.7206730" lon="-17.9354070">
        <ele>1076.9</ele>
        <time>2020-11-16T18:56:18Z</time>
      </trkpt>
      <trkpt lat="28.7206730" lon="-17.9354070">
        <ele>1076.9</ele>
        <time>2020-11-16T18:56:19Z</time>
      </trkpt>
      <trkpt lat="28.7207150" lon="-17.9353350">
        <ele>1076.8</ele>
        <time>2020-11-16T18:56:20Z</time>
      </trkpt>
      <trkpt lat="28.7207150" lon="-17.9353350">
        <ele>1076.8</ele>
        <time>2020-11-16T18:56:21Z</time>
      </trkpt>
      <trkpt lat="28.7207670" lon="-17.9352920">
        <ele>1076.6</ele>
        <time>2020-11-16T18:56:22Z</time>
      </trkpt>
      <trkpt lat="28.7207670" lon="-17.9352920">
        <ele>1076.6</ele>
        <time>2020-11-16T18:56:23Z</time>
      </trkpt>
      <trkpt lat="28.7207550" lon="-17.9352350">
        <ele>1076.2</ele>
        <time>2020-11-16T18:56:24Z</time>
      </trkpt>
      <trkpt lat="28.7207550" lon="-17.9352350">
        <ele>1076.2</ele>
        <time>2020-11-16T18:56:25Z</time>
      </trkpt>
      <trkpt lat="28.7207320" lon="-17.9352250">
        <ele>1076.0</ele>
        <time>2020-11-16T18:56:26Z</time>
      </trkpt>
      <trkpt lat="28.7207320" lon="-17.9352250">
        <ele>1076.0</ele>
        <time>2020-11-16T18:56:27Z</time>
      </trkpt>
      <trkpt lat="28.7206620" lon="-17.9351970">
        <ele>1075.4</ele>
        <time>2020-11-16T18:56:28Z</time>
      </trkpt>
      <trkpt lat="28.7206620" lon="-17.9351970">
        <ele>1075.4</ele>
        <time>2020-11-16T18:56:29Z</time>
      </trkpt>
      <trkpt lat="28.7205980" lon="-17.9351880">
        <ele>1075.0</ele>
        <time>2020-11-16T18:56:30Z</time>
      </trkpt>
      <trkpt lat="28.7205980" lon="-17.9351880">
        <ele>1075.0</ele>
        <time>2020-11-16T18:56:31Z</time>
      </trkpt>
      <trkpt lat="28.7205550" lon="-17.9352020">
        <ele>1074.9</ele>
        <time>2020-11-16T18:56:32Z</time>
      </trkpt>
      <trkpt lat="28.7205550" lon="-17.9352020">
        <ele>1074.9</ele>
        <time>2020-11-16T18:56:33Z</time>
      </trkpt>
      <trkpt lat="28.7205120" lon="-17.9351970">
        <ele>1074.8</ele>
        <time>2020-11-16T18:56:34Z</time>
      </trkpt>
      <trkpt lat="28.7205120" lon="-17.9351970">
        <ele>1074.8</ele>
        <time>2020-11-16T18:56:35Z</time>
      </trkpt>
      <trkpt lat="28.7204500" lon="-17.9351750">
        <ele>1074.7</ele>
        <time>2020-11-16T18:56:36Z</time>
      </trkpt>
      <trkpt lat="28.7204230" lon="-17.9351750">
        <ele>1074.7</ele>
        <time>2020-11-16T18:56:37Z</time>
      </trkpt>
      <trkpt lat="28.7204230" lon="-17.9351750">
        <ele>1074.7</ele>
        <time>2020-11-16T18:56:38Z</time>
      </trkpt>
      <trkpt lat="28.7203600" lon="-17.9351700">
        <ele>1074.8</ele>
        <time>2020-11-16T18:56:39Z</time>
      </trkpt>
      <trkpt lat="28.7203600" lon="-17.9351700">
        <ele>1074.8</ele>
        <time>2020-11-16T18:56:40Z</time>
      </trkpt>
      <trkpt lat="28.7203130" lon="-17.9351750">
        <ele>1074.9</ele>
        <time>2020-11-16T18:56:41Z</time>
      </trkpt>
      <trkpt lat="28.7203130" lon="-17.9351750">
        <ele>1074.9</ele>
        <time>2020-11-16T18:56:42Z</time>
      </trkpt>
      <trkpt lat="28.7202720" lon="-17.9351770">
        <ele>1075.0</ele>
        <time>2020-11-16T18:56:43Z</time>
      </trkpt>
      <trkpt lat="28.7202720" lon="-17.9351770">
        <ele>1075.0</ele>
        <time>2020-11-16T18:56:44Z</time>
      </trkpt>
      <trkpt lat="28.7202370" lon="-17.9351870">
        <ele>1075.2</ele>
        <time>2020-11-16T18:56:45Z</time>
      </trkpt>
      <trkpt lat="28.7202370" lon="-17.9351870">
        <ele>1075.2</ele>
        <time>2020-11-16T18:56:46Z</time>
      </trkpt>
      <trkpt lat="28.7202000" lon="-17.9352100">
        <ele>1075.4</ele>
        <time>2020-11-16T18:56:47Z</time>
      </trkpt>
      <trkpt lat="28.7201880" lon="-17.9352230">
        <ele>1075.5</ele>
        <time>2020-11-16T18:56:48Z</time>
      </trkpt>
      <trkpt lat="28.7201880" lon="-17.9352230">
        <ele>1075.5</ele>
        <time>2020-11-16T18:56:49Z</time>
      </trkpt>
      <trkpt lat="28.7201480" lon="-17.9352280">
        <ele>1075.7</ele>
        <time>2020-11-16T18:56:50Z</time>
      </trkpt>
      <trkpt lat="28.7201480" lon="-17.9352280">
        <ele>1075.7</ele>
        <time>2020-11-16T18:56:51Z</time>
      </trkpt>
      <trkpt lat="28.7201150" lon="-17.9352280">
        <ele>1075.9</ele>
        <time>2020-11-16T18:56:52Z</time>
      </trkpt>
      <trkpt lat="28.7201150" lon="-17.9352280">
        <ele>1075.9</ele>
        <time>2020-11-16T18:56:53Z</time>
      </trkpt>
      <trkpt lat="28.7200780" lon="-17.9352200">
        <ele>1076.2</ele>
        <time>2020-11-16T18:56:54Z</time>
      </trkpt>
      <trkpt lat="28.7200780" lon="-17.9352200">
        <ele>1076.2</ele>
        <time>2020-11-16T18:56:55Z</time>
      </trkpt>
      <trkpt lat="28.7200550" lon="-17.9352220">
        <ele>1076.3</ele>
        <time>2020-11-16T18:56:56Z</time>
      </trkpt>
      <trkpt lat="28.7200550" lon="-17.9352220">
        <ele>1076.3</ele>
        <time>2020-11-16T18:56:57Z</time>
      </trkpt>
      <trkpt lat="28.7200370" lon="-17.9352330">
        <ele>1076.4</ele>
        <time>2020-11-16T18:56:58Z</time>
      </trkpt>
      <trkpt lat="28.7200300" lon="-17.9352420">
        <ele>1076.5</ele>
        <time>2020-11-16T18:56:59Z</time>
      </trkpt>
      <trkpt lat="28.7200300" lon="-17.9352420">
        <ele>1076.5</ele>
        <time>2020-11-16T18:57:00Z</time>
      </trkpt>
      <trkpt lat="28.7199930" lon="-17.9352450">
        <ele>1076.7</ele>
        <time>2020-11-16T18:57:01Z</time>
      </trkpt>
      <trkpt lat="28.7199930" lon="-17.9352450">
        <ele>1076.7</ele>
        <time>2020-11-16T18:57:02Z</time>
      </trkpt>
      <trkpt lat="28.7199570" lon="-17.9352550">
        <ele>1076.9</ele>
        <time>2020-11-16T18:57:03Z</time>
      </trkpt>
      <trkpt lat="28.7199380" lon="-17.9352650">
        <ele>1077.0</ele>
        <time>2020-11-16T18:57:04Z</time>
      </trkpt>
      <trkpt lat="28.7199380" lon="-17.9352650">
        <ele>1077.0</ele>
        <time>2020-11-16T18:57:05Z</time>
      </trkpt>
      <trkpt lat="28.7198780" lon="-17.9352930">
        <ele>1077.1</ele>
        <time>2020-11-16T18:57:06Z</time>
      </trkpt>
      <trkpt lat="28.7198570" lon="-17.9353180">
        <ele>1077.2</ele>
        <time>2020-11-16T18:57:07Z</time>
      </trkpt>
      <trkpt lat="28.7198570" lon="-17.9353180">
        <ele>1077.2</ele>
        <time>2020-11-16T18:57:08Z</time>
      </trkpt>
      <trkpt lat="28.7198180" lon="-17.9353700">
        <ele>1077.4</ele>
        <time>2020-11-16T18:57:09Z</time>
      </trkpt>
      <trkpt lat="28.7198180" lon="-17.9353700">
        <ele>1077.4</ele>
        <time>2020-11-16T18:57:10Z</time>
      </trkpt>
      <trkpt lat="28.7197980" lon="-17.9354050">
        <ele>1077.5</ele>
        <time>2020-11-16T18:57:11Z</time>
      </trkpt>
      <trkpt lat="28.7197980" lon="-17.9354050">
        <ele>1077.5</ele>
        <time>2020-11-16T18:57:12Z</time>
      </trkpt>
      <trkpt lat="28.7197770" lon="-17.9354200">
        <ele>1077.6</ele>
        <time>2020-11-16T18:57:13Z</time>
      </trkpt>
      <trkpt lat="28.7197770" lon="-17.9354200">
        <ele>1077.6</ele>
        <time>2020-11-16T18:57:14Z</time>
      </trkpt>
      <trkpt lat="28.7197520" lon="-17.9354370">
        <ele>1077.8</ele>
        <time>2020-11-16T18:57:15Z</time>
      </trkpt>
      <trkpt lat="28.7197520" lon="-17.9354370">
        <ele>1077.8</ele>
        <time>2020-11-16T18:57:16Z</time>
      </trkpt>
      <trkpt lat="28.7197070" lon="-17.9354550">
        <ele>1078.1</ele>
        <time>2020-11-16T18:57:17Z</time>
      </trkpt>
      <trkpt lat="28.7197070" lon="-17.9354550">
        <ele>1078.1</ele>
        <time>2020-11-16T18:57:18Z</time>
      </trkpt>
      <trkpt lat="28.7196620" lon="-17.9354870">
        <ele>1078.5</ele>
        <time>2020-11-16T18:57:19Z</time>
      </trkpt>
      <trkpt lat="28.7196620" lon="-17.9354870">
        <ele>1078.5</ele>
        <time>2020-11-16T18:57:20Z</time>
      </trkpt>
      <trkpt lat="28.7195720" lon="-17.9354680">
        <ele>1079.4</ele>
        <time>2020-11-16T18:57:21Z</time>
      </trkpt>
      <trkpt lat="28.7195720" lon="-17.9354680">
        <ele>1079.4</ele>
        <time>2020-11-16T18:57:22Z</time>
      </trkpt>
      <trkpt lat="28.7194920" lon="-17.9354880">
        <ele>1080.3</ele>
        <time>2020-11-16T18:57:23Z</time>
      </trkpt>
      <trkpt lat="28.7194920" lon="-17.9354880">
        <ele>1080.3</ele>
        <time>2020-11-16T18:57:24Z</time>
      </trkpt>
      <trkpt lat="28.7194400" lon="-17.9355100">
        <ele>1080.8</ele>
        <time>2020-11-16T18:57:25Z</time>
      </trkpt>
      <trkpt lat="28.7194400" lon="-17.9355100">
        <ele>1080.8</ele>
        <time>2020-11-16T18:57:26Z</time>
      </trkpt>
      <trkpt lat="28.7193900" lon="-17.9355270">
        <ele>1081.2</ele>
        <time>2020-11-16T18:57:27Z</time>
      </trkpt>
      <trkpt lat="28.7193900" lon="-17.9355270">
        <ele>1081.2</ele>
        <time>2020-11-16T18:57:28Z</time>
      </trkpt>
      <trkpt lat="28.7193600" lon="-17.9355550">
        <ele>1081.4</ele>
        <time>2020-11-16T18:57:29Z</time>
      </trkpt>
      <trkpt lat="28.7193600" lon="-17.9355550">
        <ele>1081.4</ele>
        <time>2020-11-16T18:57:30Z</time>
      </trkpt>
      <trkpt lat="28.7193270" lon="-17.9355750">
        <ele>1081.6</ele>
        <time>2020-11-16T18:57:31Z</time>
      </trkpt>
      <trkpt lat="28.7193270" lon="-17.9355750">
        <ele>1081.6</ele>
        <time>2020-11-16T18:57:32Z</time>
      </trkpt>
      <trkpt lat="28.7192900" lon="-17.9356020">
        <ele>1081.8</ele>
        <time>2020-11-16T18:57:33Z</time>
      </trkpt>
      <trkpt lat="28.7192630" lon="-17.9356170">
        <ele>1081.9</ele>
        <time>2020-11-16T18:57:34Z</time>
      </trkpt>
      <trkpt lat="28.7192430" lon="-17.9356220">
        <ele>1082.1</ele>
        <time>2020-11-16T18:57:35Z</time>
      </trkpt>
      <trkpt lat="28.7192430" lon="-17.9356220">
        <ele>1082.1</ele>
        <time>2020-11-16T18:57:36Z</time>
      </trkpt>
      <trkpt lat="28.7192350" lon="-17.9356520">
        <ele>1082.2</ele>
        <time>2020-11-16T18:57:37Z</time>
      </trkpt>
      <trkpt lat="28.7192350" lon="-17.9356520">
        <ele>1082.2</ele>
        <time>2020-11-16T18:57:38Z</time>
      </trkpt>
      <trkpt lat="28.7192030" lon="-17.9356700">
        <ele>1082.5</ele>
        <time>2020-11-16T18:57:39Z</time>
      </trkpt>
      <trkpt lat="28.7192030" lon="-17.9356700">
        <ele>1082.5</ele>
        <time>2020-11-16T18:57:40Z</time>
      </trkpt>
      <trkpt lat="28.7191680" lon="-17.9356570">
        <ele>1082.8</ele>
        <time>2020-11-16T18:57:41Z</time>
      </trkpt>
      <trkpt lat="28.7191680" lon="-17.9356570">
        <ele>1082.8</ele>
        <time>2020-11-16T18:57:42Z</time>
      </trkpt>
      <trkpt lat="28.7191450" lon="-17.9356370">
        <ele>1083.0</ele>
        <time>2020-11-16T18:57:43Z</time>
      </trkpt>
      <trkpt lat="28.7191450" lon="-17.9356370">
        <ele>1083.0</ele>
        <time>2020-11-16T18:57:44Z</time>
      </trkpt>
      <trkpt lat="28.7191220" lon="-17.9356150">
        <ele>1083.3</ele>
        <time>2020-11-16T18:57:45Z</time>
      </trkpt>
      <trkpt lat="28.7191220" lon="-17.9356150">
        <ele>1083.3</ele>
        <time>2020-11-16T18:57:46Z</time>
      </trkpt>
      <trkpt lat="28.7191080" lon="-17.9355780">
        <ele>1083.6</ele>
        <time>2020-11-16T18:57:47Z</time>
      </trkpt>
      <trkpt lat="28.7191080" lon="-17.9355780">
        <ele>1083.6</ele>
        <time>2020-11-16T18:57:48Z</time>
      </trkpt>
      <trkpt lat="28.7190950" lon="-17.9355600">
        <ele>1083.8</ele>
        <time>2020-11-16T18:57:49Z</time>
      </trkpt>
      <trkpt lat="28.7190920" lon="-17.9355630">
        <ele>1083.9</ele>
        <time>2020-11-16T18:57:50Z</time>
      </trkpt>
      <trkpt lat="28.7190920" lon="-17.9355630">
        <ele>1083.9</ele>
        <time>2020-11-16T18:57:51Z</time>
      </trkpt>
      <trkpt lat="28.7190820" lon="-17.9355730">
        <ele>1084.0</ele>
        <time>2020-11-16T18:59:15Z</time>
      </trkpt>
      <trkpt lat="28.7190820" lon="-17.9355730">
        <ele>1084.0</ele>
        <time>2020-11-16T18:59:16Z</time>
      </trkpt>
      <trkpt lat="28.7190350" lon="-17.9355700">
        <ele>1084.5</ele>
        <time>2020-11-16T18:59:17Z</time>
      </trkpt>
      <trkpt lat="28.7190330" lon="-17.9355550">
        <ele>1084.6</ele>
        <time>2020-11-16T18:59:18Z</time>
      </trkpt>
      <trkpt lat="28.7190350" lon="-17.9355350">
        <ele>1084.8</ele>
        <time>2020-11-16T18:59:19Z</time>
      </trkpt>
      <trkpt lat="28.7190350" lon="-17.9355350">
        <ele>1084.8</ele>
        <time>2020-11-16T18:59:20Z</time>
      </trkpt>
      <trkpt lat="28.7190450" lon="-17.9355000">
        <ele>1085.2</ele>
        <time>2020-11-16T18:59:21Z</time>
      </trkpt>
      <trkpt lat="28.7190450" lon="-17.9355000">
        <ele>1085.2</ele>
        <time>2020-11-16T18:59:22Z</time>
      </trkpt>
      <trkpt lat="28.7190570" lon="-17.9354730">
        <ele>1085.6</ele>
        <time>2020-11-16T18:59:23Z</time>
      </trkpt>
      <trkpt lat="28.7190570" lon="-17.9354730">
        <ele>1085.6</ele>
        <time>2020-11-16T18:59:24Z</time>
      </trkpt>
      <trkpt lat="28.7190630" lon="-17.9354350">
        <ele>1086.0</ele>
        <time>2020-11-16T18:59:25Z</time>
      </trkpt>
      <trkpt lat="28.7190700" lon="-17.9354150">
        <ele>1086.2</ele>
        <time>2020-11-16T18:59:26Z</time>
      </trkpt>
      <trkpt lat="28.7190700" lon="-17.9354150">
        <ele>1086.2</ele>
        <time>2020-11-16T18:59:27Z</time>
      </trkpt>
      <trkpt lat="28.7190770" lon="-17.9353750">
        <ele>1086.6</ele>
        <time>2020-11-16T18:59:28Z</time>
      </trkpt>
      <trkpt lat="28.7190770" lon="-17.9353750">
        <ele>1086.6</ele>
        <time>2020-11-16T18:59:29Z</time>
      </trkpt>
      <trkpt lat="28.7190680" lon="-17.9353350">
        <ele>1087.0</ele>
        <time>2020-11-16T18:59:30Z</time>
      </trkpt>
      <trkpt lat="28.7190680" lon="-17.9353350">
        <ele>1087.0</ele>
        <time>2020-11-16T18:59:31Z</time>
      </trkpt>
      <trkpt lat="28.7190670" lon="-17.9353100">
        <ele>1087.2</ele>
        <time>2020-11-16T18:59:32Z</time>
      </trkpt>
      <trkpt lat="28.7190670" lon="-17.9353100">
        <ele>1087.2</ele>
        <time>2020-11-16T18:59:33Z</time>
      </trkpt>
      <trkpt lat="28.7190530" lon="-17.9352720">
        <ele>1087.6</ele>
        <time>2020-11-16T18:59:34Z</time>
      </trkpt>
      <trkpt lat="28.7190530" lon="-17.9352720">
        <ele>1087.6</ele>
        <time>2020-11-16T18:59:35Z</time>
      </trkpt>
      <trkpt lat="28.7190150" lon="-17.9352470">
        <ele>1088.1</ele>
        <time>2020-11-16T18:59:36Z</time>
      </trkpt>
      <trkpt lat="28.7190150" lon="-17.9352470">
        <ele>1088.1</ele>
        <time>2020-11-16T18:59:37Z</time>
      </trkpt>
      <trkpt lat="28.7189620" lon="-17.9352320">
        <ele>1088.7</ele>
        <time>2020-11-16T18:59:38Z</time>
      </trkpt>
      <trkpt lat="28.7189620" lon="-17.9352320">
        <ele>1088.7</ele>
        <time>2020-11-16T18:59:39Z</time>
      </trkpt>
      <trkpt lat="28.7189230" lon="-17.9352250">
        <ele>1089.1</ele>
        <time>2020-11-16T18:59:40Z</time>
      </trkpt>
      <trkpt lat="28.7189230" lon="-17.9352250">
        <ele>1089.1</ele>
        <time>2020-11-16T18:59:41Z</time>
      </trkpt>
      <trkpt lat="28.7188970" lon="-17.9352320">
        <ele>1089.4</ele>
        <time>2020-11-16T18:59:42Z</time>
      </trkpt>
      <trkpt lat="28.7188970" lon="-17.9352320">
        <ele>1089.4</ele>
        <time>2020-11-16T18:59:43Z</time>
      </trkpt>
      <trkpt lat="28.7188720" lon="-17.9352430">
        <ele>1089.7</ele>
        <time>2020-11-16T18:59:44Z</time>
      </trkpt>
      <trkpt lat="28.7188720" lon="-17.9352430">
        <ele>1089.7</ele>
        <time>2020-11-16T18:59:45Z</time>
      </trkpt>
      <trkpt lat="28.7188520" lon="-17.9352530">
        <ele>1089.9</ele>
        <time>2020-11-16T18:59:46Z</time>
      </trkpt>
      <trkpt lat="28.7188520" lon="-17.9352530">
        <ele>1089.9</ele>
        <time>2020-11-16T18:59:47Z</time>
      </trkpt>
      <trkpt lat="28.7188330" lon="-17.9352720">
        <ele>1090.2</ele>
        <time>2020-11-16T18:59:48Z</time>
      </trkpt>
      <trkpt lat="28.7188330" lon="-17.9352720">
        <ele>1090.2</ele>
        <time>2020-11-16T18:59:49Z</time>
      </trkpt>
      <trkpt lat="28.7188050" lon="-17.9352580">
        <ele>1090.5</ele>
        <time>2020-11-16T18:59:50Z</time>
      </trkpt>
      <trkpt lat="28.7188050" lon="-17.9352580">
        <ele>1090.5</ele>
        <time>2020-11-16T18:59:51Z</time>
      </trkpt>
      <trkpt lat="28.7187730" lon="-17.9352630">
        <ele>1090.9</ele>
        <time>2020-11-16T18:59:52Z</time>
      </trkpt>
      <trkpt lat="28.7187620" lon="-17.9352650">
        <ele>1091.0</ele>
        <time>2020-11-16T18:59:53Z</time>
      </trkpt>
      <trkpt lat="28.7187620" lon="-17.9352650">
        <ele>1091.0</ele>
        <time>2020-11-16T18:59:54Z</time>
      </trkpt>
      <trkpt lat="28.7187430" lon="-17.9352620">
        <ele>1091.2</ele>
        <time>2020-11-16T18:59:55Z</time>
      </trkpt>
      <trkpt lat="28.7187430" lon="-17.9352620">
        <ele>1091.2</ele>
        <time>2020-11-16T18:59:56Z</time>
      </trkpt>
      <trkpt lat="28.7187330" lon="-17.9352780">
        <ele>1091.4</ele>
        <time>2020-11-16T18:59:57Z</time>
      </trkpt>
      <trkpt lat="28.7187330" lon="-17.9352780">
        <ele>1091.4</ele>
        <time>2020-11-16T18:59:58Z</time>
      </trkpt>
      <trkpt lat="28.7187030" lon="-17.9352950">
        <ele>1091.8</ele>
        <time>2020-11-16T18:59:59Z</time>
      </trkpt>
      <trkpt lat="28.7187030" lon="-17.9352950">
        <ele>1091.8</ele>
        <time>2020-11-16T19:00:00Z</time>
      </trkpt>
      <trkpt lat="28.7186700" lon="-17.9353080">
        <ele>1092.2</ele>
        <time>2020-11-16T19:00:01Z</time>
      </trkpt>
      <trkpt lat="28.7186700" lon="-17.9353080">
        <ele>1092.2</ele>
        <time>2020-11-16T19:00:02Z</time>
      </trkpt>
      <trkpt lat="28.7186320" lon="-17.9353120">
        <ele>1092.6</ele>
        <time>2020-11-16T19:00:03Z</time>
      </trkpt>
      <trkpt lat="28.7186320" lon="-17.9353120">
        <ele>1092.6</ele>
        <time>2020-11-16T19:00:04Z</time>
      </trkpt>
      <trkpt lat="28.7186000" lon="-17.9353300">
        <ele>1093.0</ele>
        <time>2020-11-16T19:00:05Z</time>
      </trkpt>
      <trkpt lat="28.7186000" lon="-17.9353300">
        <ele>1093.0</ele>
        <time>2020-11-16T19:00:06Z</time>
      </trkpt>
      <trkpt lat="28.7185630" lon="-17.9353530">
        <ele>1093.5</ele>
        <time>2020-11-16T19:00:07Z</time>
      </trkpt>
      <trkpt lat="28.7185630" lon="-17.9353530">
        <ele>1093.5</ele>
        <time>2020-11-16T19:00:08Z</time>
      </trkpt>
      <trkpt lat="28.7185350" lon="-17.9353670">
        <ele>1093.9</ele>
        <time>2020-11-16T19:00:09Z</time>
      </trkpt>
      <trkpt lat="28.7185350" lon="-17.9353670">
        <ele>1093.9</ele>
        <time>2020-11-16T19:00:10Z</time>
      </trkpt>
      <trkpt lat="28.7184950" lon="-17.9353720">
        <ele>1094.3</ele>
        <time>2020-11-16T19:00:11Z</time>
      </trkpt>
      <trkpt lat="28.7184950" lon="-17.9353720">
        <ele>1094.3</ele>
        <time>2020-11-16T19:00:12Z</time>
      </trkpt>
      <trkpt lat="28.7184500" lon="-17.9353670">
        <ele>1094.7</ele>
        <time>2020-11-16T19:00:13Z</time>
      </trkpt>
      <trkpt lat="28.7184500" lon="-17.9353670">
        <ele>1094.7</ele>
        <time>2020-11-16T19:00:14Z</time>
      </trkpt>
      <trkpt lat="28.7184150" lon="-17.9353620">
        <ele>1095.1</ele>
        <time>2020-11-16T19:00:15Z</time>
      </trkpt>
      <trkpt lat="28.7184150" lon="-17.9353620">
        <ele>1095.1</ele>
        <time>2020-11-16T19:00:16Z</time>
      </trkpt>
      <trkpt lat="28.7183920" lon="-17.9353420">
        <ele>1095.3</ele>
        <time>2020-11-16T19:00:17Z</time>
      </trkpt>
      <trkpt lat="28.7183830" lon="-17.9353280">
        <ele>1095.4</ele>
        <time>2020-11-16T19:00:18Z</time>
      </trkpt>
      <trkpt lat="28.7183830" lon="-17.9353280">
        <ele>1095.4</ele>
        <time>2020-11-16T19:00:19Z</time>
      </trkpt>
      <trkpt lat="28.7183550" lon="-17.9353030">
        <ele>1095.7</ele>
        <time>2020-11-16T19:00:20Z</time>
      </trkpt>
      <trkpt lat="28.7183550" lon="-17.9353030">
        <ele>1095.7</ele>
        <time>2020-11-16T19:00:21Z</time>
      </trkpt>
      <trkpt lat="28.7183350" lon="-17.9352970">
        <ele>1095.8</ele>
        <time>2020-11-16T19:00:22Z</time>
      </trkpt>
      <trkpt lat="28.7183350" lon="-17.9352970">
        <ele>1095.8</ele>
        <time>2020-11-16T19:00:23Z</time>
      </trkpt>
      <trkpt lat="28.7183300" lon="-17.9352680">
        <ele>1096.0</ele>
        <time>2020-11-16T19:00:24Z</time>
      </trkpt>
      <trkpt lat="28.7183320" lon="-17.9352480">
        <ele>1096.2</ele>
        <time>2020-11-16T19:00:25Z</time>
      </trkpt>
      <trkpt lat="28.7183370" lon="-17.9352300">
        <ele>1096.3</ele>
        <time>2020-11-16T19:00:26Z</time>
      </trkpt>
      <trkpt lat="28.7183370" lon="-17.9352300">
        <ele>1096.3</ele>
        <time>2020-11-16T19:00:27Z</time>
      </trkpt>
      <trkpt lat="28.7183430" lon="-17.9351980">
        <ele>1096.5</ele>
        <time>2020-11-16T19:00:28Z</time>
      </trkpt>
      <trkpt lat="28.7183430" lon="-17.9351980">
        <ele>1096.5</ele>
        <time>2020-11-16T19:00:29Z</time>
      </trkpt>
      <trkpt lat="28.7183530" lon="-17.9351620">
        <ele>1096.7</ele>
        <time>2020-11-16T19:00:30Z</time>
      </trkpt>
      <trkpt lat="28.7183530" lon="-17.9351620">
        <ele>1096.7</ele>
        <time>2020-11-16T19:00:31Z</time>
      </trkpt>
      <trkpt lat="28.7183620" lon="-17.9351270">
        <ele>1097.0</ele>
        <time>2020-11-16T19:00:32Z</time>
      </trkpt>
      <trkpt lat="28.7183620" lon="-17.9351270">
        <ele>1097.0</ele>
        <time>2020-11-16T19:00:33Z</time>
      </trkpt>
      <trkpt lat="28.7183680" lon="-17.9350900">
        <ele>1097.3</ele>
        <time>2020-11-16T19:00:34Z</time>
      </trkpt>
      <trkpt lat="28.7183680" lon="-17.9350900">
        <ele>1097.3</ele>
        <time>2020-11-16T19:00:35Z</time>
      </trkpt>
      <trkpt lat="28.7183680" lon="-17.9350470">
        <ele>1097.6</ele>
        <time>2020-11-16T19:00:36Z</time>
      </trkpt>
      <trkpt lat="28.7183680" lon="-17.9350470">
        <ele>1097.6</ele>
        <time>2020-11-16T19:00:37Z</time>
      </trkpt>
      <trkpt lat="28.7183630" lon="-17.9350100">
        <ele>1097.9</ele>
        <time>2020-11-16T19:00:38Z</time>
      </trkpt>
      <trkpt lat="28.7183630" lon="-17.9350100">
        <ele>1097.9</ele>
        <time>2020-11-16T19:00:39Z</time>
      </trkpt>
      <trkpt lat="28.7183580" lon="-17.9349820">
        <ele>1098.1</ele>
        <time>2020-11-16T19:00:40Z</time>
      </trkpt>
      <trkpt lat="28.7183580" lon="-17.9349820">
        <ele>1098.1</ele>
        <time>2020-11-16T19:00:41Z</time>
      </trkpt>
      <trkpt lat="28.7183400" lon="-17.9349500">
        <ele>1098.4</ele>
        <time>2020-11-16T19:00:42Z</time>
      </trkpt>
      <trkpt lat="28.7183400" lon="-17.9349500">
        <ele>1098.4</ele>
        <time>2020-11-16T19:00:43Z</time>
      </trkpt>
      <trkpt lat="28.7183200" lon="-17.9349170">
        <ele>1098.7</ele>
        <time>2020-11-16T19:00:44Z</time>
      </trkpt>
      <trkpt lat="28.7183100" lon="-17.9348980">
        <ele>1098.9</ele>
        <time>2020-11-16T19:00:45Z</time>
      </trkpt>
      <trkpt lat="28.7183100" lon="-17.9348980">
        <ele>1098.9</ele>
        <time>2020-11-16T19:00:46Z</time>
      </trkpt>
      <trkpt lat="28.7182950" lon="-17.9348630">
        <ele>1099.2</ele>
        <time>2020-11-16T19:00:47Z</time>
      </trkpt>
      <trkpt lat="28.7182950" lon="-17.9348630">
        <ele>1099.2</ele>
        <time>2020-11-16T19:00:48Z</time>
      </trkpt>
      <trkpt lat="28.7182800" lon="-17.9348300">
        <ele>1099.5</ele>
        <time>2020-11-16T19:00:49Z</time>
      </trkpt>
      <trkpt lat="28.7182800" lon="-17.9348300">
        <ele>1099.5</ele>
        <time>2020-11-16T19:00:50Z</time>
      </trkpt>
      <trkpt lat="28.7182550" lon="-17.9347980">
        <ele>1099.8</ele>
        <time>2020-11-16T19:00:51Z</time>
      </trkpt>
      <trkpt lat="28.7182550" lon="-17.9347980">
        <ele>1099.8</ele>
        <time>2020-11-16T19:00:52Z</time>
      </trkpt>
      <trkpt lat="28.7182400" lon="-17.9347620">
        <ele>1100.2</ele>
        <time>2020-11-16T19:00:53Z</time>
      </trkpt>
      <trkpt lat="28.7182400" lon="-17.9347620">
        <ele>1100.2</ele>
        <time>2020-11-16T19:00:54Z</time>
      </trkpt>
      <trkpt lat="28.7182320" lon="-17.9347280">
        <ele>1100.5</ele>
        <time>2020-11-16T19:00:55Z</time>
      </trkpt>
      <trkpt lat="28.7182320" lon="-17.9347280">
        <ele>1100.5</ele>
        <time>2020-11-16T19:00:56Z</time>
      </trkpt>
      <trkpt lat="28.7182320" lon="-17.9346950">
        <ele>1100.8</ele>
        <time>2020-11-16T19:00:57Z</time>
      </trkpt>
      <trkpt lat="28.7182320" lon="-17.9346950">
        <ele>1100.8</ele>
        <time>2020-11-16T19:00:58Z</time>
      </trkpt>
      <trkpt lat="28.7182400" lon="-17.9346580">
        <ele>1101.1</ele>
        <time>2020-11-16T19:00:59Z</time>
      </trkpt>
      <trkpt lat="28.7182400" lon="-17.9346580">
        <ele>1101.1</ele>
        <time>2020-11-16T19:01:00Z</time>
      </trkpt>
      <trkpt lat="28.7182430" lon="-17.9346200">
        <ele>1101.5</ele>
        <time>2020-11-16T19:01:01Z</time>
      </trkpt>
      <trkpt lat="28.7182450" lon="-17.9345980">
        <ele>1101.8</ele>
        <time>2020-11-16T19:01:02Z</time>
      </trkpt>
      <trkpt lat="28.7182450" lon="-17.9345980">
        <ele>1101.8</ele>
        <time>2020-11-16T19:01:03Z</time>
      </trkpt>
      <trkpt lat="28.7182600" lon="-17.9345670">
        <ele>1102.2</ele>
        <time>2020-11-16T19:01:04Z</time>
      </trkpt>
      <trkpt lat="28.7182600" lon="-17.9345670">
        <ele>1102.2</ele>
        <time>2020-11-16T19:01:05Z</time>
      </trkpt>
      <trkpt lat="28.7182650" lon="-17.9345330">
        <ele>1102.6</ele>
        <time>2020-11-16T19:01:06Z</time>
      </trkpt>
      <trkpt lat="28.7182650" lon="-17.9345330">
        <ele>1102.6</ele>
        <time>2020-11-16T19:01:07Z</time>
      </trkpt>
      <trkpt lat="28.7182750" lon="-17.9345070">
        <ele>1102.9</ele>
        <time>2020-11-16T19:01:08Z</time>
      </trkpt>
      <trkpt lat="28.7182750" lon="-17.9345070">
        <ele>1102.9</ele>
        <time>2020-11-16T19:01:09Z</time>
      </trkpt>
      <trkpt lat="28.7182820" lon="-17.9344830">
        <ele>1103.2</ele>
        <time>2020-11-16T19:01:10Z</time>
      </trkpt>
      <trkpt lat="28.7182820" lon="-17.9344830">
        <ele>1103.2</ele>
        <time>2020-11-16T19:01:11Z</time>
      </trkpt>
      <trkpt lat="28.7182880" lon="-17.9344480">
        <ele>1103.6</ele>
        <time>2020-11-16T19:01:12Z</time>
      </trkpt>
      <trkpt lat="28.7182880" lon="-17.9344480">
        <ele>1103.6</ele>
        <time>2020-11-16T19:01:13Z</time>
      </trkpt>
      <trkpt lat="28.7182920" lon="-17.9344130">
        <ele>1104.0</ele>
        <time>2020-11-16T19:01:14Z</time>
      </trkpt>
      <trkpt lat="28.7182920" lon="-17.9344130">
        <ele>1104.0</ele>
        <time>2020-11-16T19:01:15Z</time>
      </trkpt>
      <trkpt lat="28.7182830" lon="-17.9343800">
        <ele>1104.4</ele>
        <time>2020-11-16T19:01:16Z</time>
      </trkpt>
      <trkpt lat="28.7182830" lon="-17.9343800">
        <ele>1104.4</ele>
        <time>2020-11-16T19:01:17Z</time>
      </trkpt>
      <trkpt lat="28.7182900" lon="-17.9343470">
        <ele>1104.7</ele>
        <time>2020-11-16T19:01:18Z</time>
      </trkpt>
      <trkpt lat="28.7182900" lon="-17.9343470">
        <ele>1104.7</ele>
        <time>2020-11-16T19:01:19Z</time>
      </trkpt>
      <trkpt lat="28.7182970" lon="-17.9343100">
        <ele>1105.1</ele>
        <time>2020-11-16T19:01:20Z</time>
      </trkpt>
      <trkpt lat="28.7182970" lon="-17.9343100">
        <ele>1105.1</ele>
        <time>2020-11-16T19:01:21Z</time>
      </trkpt>
      <trkpt lat="28.7183200" lon="-17.9342650">
        <ele>1105.7</ele>
        <time>2020-11-16T19:01:22Z</time>
      </trkpt>
      <trkpt lat="28.7183200" lon="-17.9342650">
        <ele>1105.7</ele>
        <time>2020-11-16T19:01:23Z</time>
      </trkpt>
      <trkpt lat="28.7183300" lon="-17.9342330">
        <ele>1106.0</ele>
        <time>2020-11-16T19:01:24Z</time>
      </trkpt>
      <trkpt lat="28.7183300" lon="-17.9342330">
        <ele>1106.0</ele>
        <time>2020-11-16T19:01:25Z</time>
      </trkpt>
      <trkpt lat="28.7183380" lon="-17.9342120">
        <ele>1106.2</ele>
        <time>2020-11-16T19:01:26Z</time>
      </trkpt>
      <trkpt lat="28.7183380" lon="-17.9342120">
        <ele>1106.2</ele>
        <time>2020-11-16T19:01:27Z</time>
      </trkpt>
      <trkpt lat="28.7183450" lon="-17.9341730">
        <ele>1106.6</ele>
        <time>2020-11-16T19:01:28Z</time>
      </trkpt>
      <trkpt lat="28.7183330" lon="-17.9341430">
        <ele>1106.9</ele>
        <time>2020-11-16T19:01:29Z</time>
      </trkpt>
      <trkpt lat="28.7183330" lon="-17.9341430">
        <ele>1106.9</ele>
        <time>2020-11-16T19:01:30Z</time>
      </trkpt>
      <trkpt lat="28.7183470" lon="-17.9341070">
        <ele>1107.3</ele>
        <time>2020-11-16T19:01:31Z</time>
      </trkpt>
      <trkpt lat="28.7183470" lon="-17.9341070">
        <ele>1107.3</ele>
        <time>2020-11-16T19:01:32Z</time>
      </trkpt>
      <trkpt lat="28.7183480" lon="-17.9340730">
        <ele>1107.6</ele>
        <time>2020-11-16T19:01:33Z</time>
      </trkpt>
      <trkpt lat="28.7183480" lon="-17.9340730">
        <ele>1107.6</ele>
        <time>2020-11-16T19:01:34Z</time>
      </trkpt>
      <trkpt lat="28.7183450" lon="-17.9340420">
        <ele>1107.9</ele>
        <time>2020-11-16T19:01:35Z</time>
      </trkpt>
      <trkpt lat="28.7183450" lon="-17.9340420">
        <ele>1107.9</ele>
        <time>2020-11-16T19:01:36Z</time>
      </trkpt>
      <trkpt lat="28.7183370" lon="-17.9340030">
        <ele>1108.3</ele>
        <time>2020-11-16T19:01:37Z</time>
      </trkpt>
      <trkpt lat="28.7183370" lon="-17.9340030">
        <ele>1108.3</ele>
        <time>2020-11-16T19:01:38Z</time>
      </trkpt>
      <trkpt lat="28.7183180" lon="-17.9339650">
        <ele>1108.6</ele>
        <time>2020-11-16T19:01:39Z</time>
      </trkpt>
      <trkpt lat="28.7183000" lon="-17.9339520">
        <ele>1108.8</ele>
        <time>2020-11-16T19:01:40Z</time>
      </trkpt>
      <trkpt lat="28.7183000" lon="-17.9339520">
        <ele>1108.8</ele>
        <time>2020-11-16T19:01:41Z</time>
      </trkpt>
      <trkpt lat="28.7182630" lon="-17.9339400">
        <ele>1109.2</ele>
        <time>2020-11-16T19:01:42Z</time>
      </trkpt>
      <trkpt lat="28.7182630" lon="-17.9339400">
        <ele>1109.2</ele>
        <time>2020-11-16T19:01:43Z</time>
      </trkpt>
      <trkpt lat="28.7182300" lon="-17.9339370">
        <ele>1109.5</ele>
        <time>2020-11-16T19:01:44Z</time>
      </trkpt>
      <trkpt lat="28.7182300" lon="-17.9339370">
        <ele>1109.5</ele>
        <time>2020-11-16T19:01:45Z</time>
      </trkpt>
      <trkpt lat="28.7181920" lon="-17.9339320">
        <ele>1109.9</ele>
        <time>2020-11-16T19:01:46Z</time>
      </trkpt>
      <trkpt lat="28.7181920" lon="-17.9339320">
        <ele>1109.9</ele>
        <time>2020-11-16T19:01:47Z</time>
      </trkpt>
      <trkpt lat="28.7181550" lon="-17.9339250">
        <ele>1110.2</ele>
        <time>2020-11-16T19:01:48Z</time>
      </trkpt>
      <trkpt lat="28.7181550" lon="-17.9339250">
        <ele>1110.2</ele>
        <time>2020-11-16T19:01:49Z</time>
      </trkpt>
      <trkpt lat="28.7181220" lon="-17.9339320">
        <ele>1110.5</ele>
        <time>2020-11-16T19:01:50Z</time>
      </trkpt>
      <trkpt lat="28.7181220" lon="-17.9339320">
        <ele>1110.5</ele>
        <time>2020-11-16T19:01:51Z</time>
      </trkpt>
      <trkpt lat="28.7180900" lon="-17.9339470">
        <ele>1110.8</ele>
        <time>2020-11-16T19:01:52Z</time>
      </trkpt>
      <trkpt lat="28.7180900" lon="-17.9339470">
        <ele>1110.8</ele>
        <time>2020-11-16T19:01:53Z</time>
      </trkpt>
      <trkpt lat="28.7180480" lon="-17.9339620">
        <ele>1111.2</ele>
        <time>2020-11-16T19:01:54Z</time>
      </trkpt>
      <trkpt lat="28.7180370" lon="-17.9339700">
        <ele>1111.3</ele>
        <time>2020-11-16T19:01:55Z</time>
      </trkpt>
      <trkpt lat="28.7180370" lon="-17.9339700">
        <ele>1111.3</ele>
        <time>2020-11-16T19:01:56Z</time>
      </trkpt>
      <trkpt lat="28.7180080" lon="-17.9339970">
        <ele>1111.7</ele>
        <time>2020-11-16T19:01:57Z</time>
      </trkpt>
      <trkpt lat="28.7180080" lon="-17.9339970">
        <ele>1111.7</ele>
        <time>2020-11-16T19:01:58Z</time>
      </trkpt>
      <trkpt lat="28.7179730" lon="-17.9340230">
        <ele>1112.2</ele>
        <time>2020-11-16T19:01:59Z</time>
      </trkpt>
      <trkpt lat="28.7179730" lon="-17.9340230">
        <ele>1112.2</ele>
        <time>2020-11-16T19:02:00Z</time>
      </trkpt>
      <trkpt lat="28.7179420" lon="-17.9340350">
        <ele>1112.6</ele>
        <time>2020-11-16T19:02:01Z</time>
      </trkpt>
      <trkpt lat="28.7179420" lon="-17.9340350">
        <ele>1112.6</ele>
        <time>2020-11-16T19:02:02Z</time>
      </trkpt>
      <trkpt lat="28.7179100" lon="-17.9340420">
        <ele>1112.9</ele>
        <time>2020-11-16T19:02:03Z</time>
      </trkpt>
      <trkpt lat="28.7179100" lon="-17.9340420">
        <ele>1112.9</ele>
        <time>2020-11-16T19:02:04Z</time>
      </trkpt>
      <trkpt lat="28.7178730" lon="-17.9340400">
        <ele>1113.3</ele>
        <time>2020-11-16T19:02:05Z</time>
      </trkpt>
      <trkpt lat="28.7178730" lon="-17.9340400">
        <ele>1113.3</ele>
        <time>2020-11-16T19:02:06Z</time>
      </trkpt>
      <trkpt lat="28.7178380" lon="-17.9340220">
        <ele>1113.6</ele>
        <time>2020-11-16T19:02:07Z</time>
      </trkpt>
      <trkpt lat="28.7178230" lon="-17.9340050">
        <ele>1113.7</ele>
        <time>2020-11-16T19:02:08Z</time>
      </trkpt>
      <trkpt lat="28.7178230" lon="-17.9340050">
        <ele>1113.7</ele>
        <time>2020-11-16T19:02:09Z</time>
      </trkpt>
      <trkpt lat="28.7177970" lon="-17.9339720">
        <ele>1114.1</ele>
        <time>2020-11-16T19:02:10Z</time>
      </trkpt>
      <trkpt lat="28.7177970" lon="-17.9339720">
        <ele>1114.1</ele>
        <time>2020-11-16T19:02:11Z</time>
      </trkpt>
      <trkpt lat="28.7177850" lon="-17.9339350">
        <ele>1114.3</ele>
        <time>2020-11-16T19:02:12Z</time>
      </trkpt>
      <trkpt lat="28.7177850" lon="-17.9339350">
        <ele>1114.3</ele>
        <time>2020-11-16T19:02:13Z</time>
      </trkpt>
      <trkpt lat="28.7177870" lon="-17.9339070">
        <ele>1114.5</ele>
        <time>2020-11-16T19:02:14Z</time>
      </trkpt>
      <trkpt lat="28.7177870" lon="-17.9339070">
        <ele>1114.5</ele>
        <time>2020-11-16T19:02:15Z</time>
      </trkpt>
      <trkpt lat="28.7177870" lon="-17.9338730">
        <ele>1114.8</ele>
        <time>2020-11-16T19:02:16Z</time>
      </trkpt>
      <trkpt lat="28.7177870" lon="-17.9338730">
        <ele>1114.8</ele>
        <time>2020-11-16T19:02:17Z</time>
      </trkpt>
      <trkpt lat="28.7177880" lon="-17.9338350">
        <ele>1115.0</ele>
        <time>2020-11-16T19:02:18Z</time>
      </trkpt>
      <trkpt lat="28.7177880" lon="-17.9338350">
        <ele>1115.0</ele>
        <time>2020-11-16T19:02:19Z</time>
      </trkpt>
      <trkpt lat="28.7177900" lon="-17.9337970">
        <ele>1115.3</ele>
        <time>2020-11-16T19:02:20Z</time>
      </trkpt>
      <trkpt lat="28.7177900" lon="-17.9337970">
        <ele>1115.3</ele>
        <time>2020-11-16T19:02:21Z</time>
      </trkpt>
      <trkpt lat="28.7177920" lon="-17.9337620">
        <ele>1115.5</ele>
        <time>2020-11-16T19:02:22Z</time>
      </trkpt>
      <trkpt lat="28.7177920" lon="-17.9337620">
        <ele>1115.5</ele>
        <time>2020-11-16T19:02:23Z</time>
      </trkpt>
      <trkpt lat="28.7178000" lon="-17.9337150">
        <ele>1115.9</ele>
        <time>2020-11-16T19:02:24Z</time>
      </trkpt>
      <trkpt lat="28.7178030" lon="-17.9336880">
        <ele>1116.1</ele>
        <time>2020-11-16T19:02:25Z</time>
      </trkpt>
      <trkpt lat="28.7178030" lon="-17.9336880">
        <ele>1116.1</ele>
        <time>2020-11-16T19:02:26Z</time>
      </trkpt>
      <trkpt lat="28.7178080" lon="-17.9336620">
        <ele>1116.3</ele>
        <time>2020-11-16T19:02:27Z</time>
      </trkpt>
      <trkpt lat="28.7178080" lon="-17.9336620">
        <ele>1116.3</ele>
        <time>2020-11-16T19:02:28Z</time>
      </trkpt>
      <trkpt lat="28.7178100" lon="-17.9336280">
        <ele>1116.5</ele>
        <time>2020-11-16T19:02:29Z</time>
      </trkpt>
      <trkpt lat="28.7178100" lon="-17.9336280">
        <ele>1116.5</ele>
        <time>2020-11-16T19:02:30Z</time>
      </trkpt>
      <trkpt lat="28.7178250" lon="-17.9336030">
        <ele>1116.8</ele>
        <time>2020-11-16T19:02:31Z</time>
      </trkpt>
      <trkpt lat="28.7178280" lon="-17.9335850">
        <ele>1116.9</ele>
        <time>2020-11-16T19:02:32Z</time>
      </trkpt>
      <trkpt lat="28.7178280" lon="-17.9335850">
        <ele>1116.9</ele>
        <time>2020-11-16T19:02:33Z</time>
      </trkpt>
      <trkpt lat="28.7178420" lon="-17.9335450">
        <ele>1117.3</ele>
        <time>2020-11-16T19:02:34Z</time>
      </trkpt>
      <trkpt lat="28.7178430" lon="-17.9335250">
        <ele>1117.5</ele>
        <time>2020-11-16T19:02:35Z</time>
      </trkpt>
      <trkpt lat="28.7178430" lon="-17.9335250">
        <ele>1117.5</ele>
        <time>2020-11-16T19:02:36Z</time>
      </trkpt>
      <trkpt lat="28.7178420" lon="-17.9334830">
        <ele>1117.8</ele>
        <time>2020-11-16T19:02:37Z</time>
      </trkpt>
      <trkpt lat="28.7178420" lon="-17.9334830">
        <ele>1117.8</ele>
        <time>2020-11-16T19:02:38Z</time>
      </trkpt>
      <trkpt lat="28.7178450" lon="-17.9334470">
        <ele>1118.1</ele>
        <time>2020-11-16T19:02:39Z</time>
      </trkpt>
      <trkpt lat="28.7178450" lon="-17.9334470">
        <ele>1118.1</ele>
        <time>2020-11-16T19:02:40Z</time>
      </trkpt>
      <trkpt lat="28.7178500" lon="-17.9334130">
        <ele>1118.3</ele>
        <time>2020-11-16T19:02:41Z</time>
      </trkpt>
      <trkpt lat="28.7178500" lon="-17.9334130">
        <ele>1118.3</ele>
        <time>2020-11-16T19:02:42Z</time>
      </trkpt>
      <trkpt lat="28.7178570" lon="-17.9333730">
        <ele>1118.7</ele>
        <time>2020-11-16T19:02:43Z</time>
      </trkpt>
      <trkpt lat="28.7178600" lon="-17.9333550">
        <ele>1118.8</ele>
        <time>2020-11-16T19:02:44Z</time>
      </trkpt>
      <trkpt lat="28.7178600" lon="-17.9333550">
        <ele>1118.8</ele>
        <time>2020-11-16T19:02:45Z</time>
      </trkpt>
      <trkpt lat="28.7178680" lon="-17.9333180">
        <ele>1119.2</ele>
        <time>2020-11-16T19:02:46Z</time>
      </trkpt>
      <trkpt lat="28.7178680" lon="-17.9333180">
        <ele>1119.2</ele>
        <time>2020-11-16T19:02:47Z</time>
      </trkpt>
      <trkpt lat="28.7178720" lon="-17.9332820">
        <ele>1119.5</ele>
        <time>2020-11-16T19:02:48Z</time>
      </trkpt>
      <trkpt lat="28.7178720" lon="-17.9332580">
        <ele>1119.8</ele>
        <time>2020-11-16T19:02:49Z</time>
      </trkpt>
      <trkpt lat="28.7178730" lon="-17.9332370">
        <ele>1120.0</ele>
        <time>2020-11-16T19:02:50Z</time>
      </trkpt>
      <trkpt lat="28.7178730" lon="-17.9332370">
        <ele>1120.0</ele>
        <time>2020-11-16T19:02:51Z</time>
      </trkpt>
      <trkpt lat="28.7178820" lon="-17.9332000">
        <ele>1120.4</ele>
        <time>2020-11-16T19:02:52Z</time>
      </trkpt>
      <trkpt lat="28.7178820" lon="-17.9332000">
        <ele>1120.3</ele>
        <time>2020-11-16T19:02:53Z</time>
      </trkpt>
      <trkpt lat="28.7178850" lon="-17.9331650">
        <ele>1120.7</ele>
        <time>2020-11-16T19:02:54Z</time>
      </trkpt>
      <trkpt lat="28.7178850" lon="-17.9331650">
        <ele>1120.7</ele>
        <time>2020-11-16T19:02:55Z</time>
      </trkpt>
      <trkpt lat="28.7178970" lon="-17.9331080">
        <ele>1121.4</ele>
        <time>2020-11-16T19:02:56Z</time>
      </trkpt>
      <trkpt lat="28.7178970" lon="-17.9331080">
        <ele>1121.4</ele>
        <time>2020-11-16T19:02:57Z</time>
      </trkpt>
      <trkpt lat="28.7179070" lon="-17.9330620">
        <ele>1121.9</ele>
        <time>2020-11-16T19:02:58Z</time>
      </trkpt>
      <trkpt lat="28.7179130" lon="-17.9330480">
        <ele>1122.0</ele>
        <time>2020-11-16T19:02:59Z</time>
      </trkpt>
      <trkpt lat="28.7179130" lon="-17.9330480">
        <ele>1122.0</ele>
        <time>2020-11-16T19:03:00Z</time>
      </trkpt>
      <trkpt lat="28.7179200" lon="-17.9330100">
        <ele>1122.5</ele>
        <time>2020-11-16T19:03:01Z</time>
      </trkpt>
      <trkpt lat="28.7179200" lon="-17.9330100">
        <ele>1122.5</ele>
        <time>2020-11-16T19:03:02Z</time>
      </trkpt>
      <trkpt lat="28.7179220" lon="-17.9329700">
        <ele>1122.9</ele>
        <time>2020-11-16T19:03:03Z</time>
      </trkpt>
      <trkpt lat="28.7179220" lon="-17.9329700">
        <ele>1122.9</ele>
        <time>2020-11-16T19:03:04Z</time>
      </trkpt>
      <trkpt lat="28.7179070" lon="-17.9329270">
        <ele>1123.5</ele>
        <time>2020-11-16T19:03:05Z</time>
      </trkpt>
      <trkpt lat="28.7179070" lon="-17.9329270">
        <ele>1123.5</ele>
        <time>2020-11-16T19:03:06Z</time>
      </trkpt>
      <trkpt lat="28.7178900" lon="-17.9328920">
        <ele>1124.0</ele>
        <time>2020-11-16T19:03:07Z</time>
      </trkpt>
      <trkpt lat="28.7178900" lon="-17.9328920">
        <ele>1124.0</ele>
        <time>2020-11-16T19:03:08Z</time>
      </trkpt>
      <trkpt lat="28.7178650" lon="-17.9328650">
        <ele>1124.6</ele>
        <time>2020-11-16T19:03:09Z</time>
      </trkpt>
      <trkpt lat="28.7178500" lon="-17.9328500">
        <ele>1124.9</ele>
        <time>2020-11-16T19:03:10Z</time>
      </trkpt>
      <trkpt lat="28.7178500" lon="-17.9328500">
        <ele>1124.9</ele>
        <time>2020-11-16T19:03:11Z</time>
      </trkpt>
      <trkpt lat="28.7178180" lon="-17.9328350">
        <ele>1125.3</ele>
        <time>2020-11-16T19:03:12Z</time>
      </trkpt>
      <trkpt lat="28.7178180" lon="-17.9328350">
        <ele>1125.3</ele>
        <time>2020-11-16T19:03:13Z</time>
      </trkpt>
      <trkpt lat="28.7177830" lon="-17.9328100">
        <ele>1125.9</ele>
        <time>2020-11-16T19:03:14Z</time>
      </trkpt>
      <trkpt lat="28.7177830" lon="-17.9328100">
        <ele>1125.9</ele>
        <time>2020-11-16T19:03:15Z</time>
      </trkpt>
      <trkpt lat="28.7177450" lon="-17.9327920">
        <ele>1126.3</ele>
        <time>2020-11-16T19:03:16Z</time>
      </trkpt>
      <trkpt lat="28.7177250" lon="-17.9327830">
        <ele>1126.5</ele>
        <time>2020-11-16T19:03:17Z</time>
      </trkpt>
      <trkpt lat="28.7177250" lon="-17.9327830">
        <ele>1126.5</ele>
        <time>2020-11-16T19:03:18Z</time>
      </trkpt>
      <trkpt lat="28.7176820" lon="-17.9327820">
        <ele>1126.9</ele>
        <time>2020-11-16T19:03:19Z</time>
      </trkpt>
      <trkpt lat="28.7176820" lon="-17.9327820">
        <ele>1126.9</ele>
        <time>2020-11-16T19:03:20Z</time>
      </trkpt>
      <trkpt lat="28.7176380" lon="-17.9327770">
        <ele>1127.3</ele>
        <time>2020-11-16T19:03:21Z</time>
      </trkpt>
      <trkpt lat="28.7176220" lon="-17.9327780">
        <ele>1127.5</ele>
        <time>2020-11-16T19:03:22Z</time>
      </trkpt>
      <trkpt lat="28.7176220" lon="-17.9327780">
        <ele>1127.5</ele>
        <time>2020-11-16T19:03:23Z</time>
      </trkpt>
      <trkpt lat="28.7175900" lon="-17.9327800">
        <ele>1127.8</ele>
        <time>2020-11-16T19:03:24Z</time>
      </trkpt>
      <trkpt lat="28.7175900" lon="-17.9327800">
        <ele>1127.8</ele>
        <time>2020-11-16T19:03:25Z</time>
      </trkpt>
      <trkpt lat="28.7175670" lon="-17.9327870">
        <ele>1128.0</ele>
        <time>2020-11-16T19:03:26Z</time>
      </trkpt>
      <trkpt lat="28.7175670" lon="-17.9327870">
        <ele>1128.0</ele>
        <time>2020-11-16T19:03:27Z</time>
      </trkpt>
      <trkpt lat="28.7175420" lon="-17.9327920">
        <ele>1128.2</ele>
        <time>2020-11-16T19:03:28Z</time>
      </trkpt>
      <trkpt lat="28.7175420" lon="-17.9327920">
        <ele>1128.2</ele>
        <time>2020-11-16T19:03:29Z</time>
      </trkpt>
      <trkpt lat="28.7175070" lon="-17.9328030">
        <ele>1128.6</ele>
        <time>2020-11-16T19:03:30Z</time>
      </trkpt>
      <trkpt lat="28.7175070" lon="-17.9328030">
        <ele>1128.6</ele>
        <time>2020-11-16T19:03:31Z</time>
      </trkpt>
      <trkpt lat="28.7174780" lon="-17.9328250">
        <ele>1129.0</ele>
        <time>2020-11-16T19:03:32Z</time>
      </trkpt>
      <trkpt lat="28.7174780" lon="-17.9328250">
        <ele>1129.0</ele>
        <time>2020-11-16T19:03:33Z</time>
      </trkpt>
      <trkpt lat="28.7174420" lon="-17.9328470">
        <ele>1129.5</ele>
        <time>2020-11-16T19:03:34Z</time>
      </trkpt>
      <trkpt lat="28.7174250" lon="-17.9328550">
        <ele>1129.7</ele>
        <time>2020-11-16T19:03:35Z</time>
      </trkpt>
      <trkpt lat="28.7174250" lon="-17.9328550">
        <ele>1129.7</ele>
        <time>2020-11-16T19:03:36Z</time>
      </trkpt>
      <trkpt lat="28.7173850" lon="-17.9328780">
        <ele>1130.3</ele>
        <time>2020-11-16T19:03:37Z</time>
      </trkpt>
      <trkpt lat="28.7173850" lon="-17.9328780">
        <ele>1130.3</ele>
        <time>2020-11-16T19:03:38Z</time>
      </trkpt>
      <trkpt lat="28.7173520" lon="-17.9328850">
        <ele>1130.8</ele>
        <time>2020-11-16T19:03:39Z</time>
      </trkpt>
      <trkpt lat="28.7173520" lon="-17.9328850">
        <ele>1130.8</ele>
        <time>2020-11-16T19:03:40Z</time>
      </trkpt>
      <trkpt lat="28.7173220" lon="-17.9328850">
        <ele>1131.2</ele>
        <time>2020-11-16T19:03:41Z</time>
      </trkpt>
      <trkpt lat="28.7173220" lon="-17.9328850">
        <ele>1131.2</ele>
        <time>2020-11-16T19:03:42Z</time>
      </trkpt>
      <trkpt lat="28.7173080" lon="-17.9328900">
        <ele>1131.3</ele>
        <time>2020-11-16T19:03:43Z</time>
      </trkpt>
      <trkpt lat="28.7173080" lon="-17.9328900">
        <ele>1131.3</ele>
        <time>2020-11-16T19:03:44Z</time>
      </trkpt>
      <trkpt lat="28.7173070" lon="-17.9328880">
        <ele>1131.4</ele>
        <time>2020-11-16T19:03:45Z</time>
      </trkpt>
      <trkpt lat="28.7173070" lon="-17.9328880">
        <ele>1131.4</ele>
        <time>2020-11-16T19:03:46Z</time>
      </trkpt>
      <trkpt lat="28.7173070" lon="-17.9328880">
        <ele>1131.4</ele>
        <time>2020-11-16T19:04:23Z</time>
      </trkpt>
      <trkpt lat="28.7172580" lon="-17.9328880">
        <ele>1132.0</ele>
        <time>2020-11-16T19:04:24Z</time>
      </trkpt>
      <trkpt lat="28.7172500" lon="-17.9328900">
        <ele>1132.0</ele>
        <time>2020-11-16T19:04:25Z</time>
      </trkpt>
      <trkpt lat="28.7172500" lon="-17.9328900">
        <ele>1132.0</ele>
        <time>2020-11-16T19:04:26Z</time>
      </trkpt>
      <trkpt lat="28.7172350" lon="-17.9328880">
        <ele>1132.2</ele>
        <time>2020-11-16T19:04:27Z</time>
      </trkpt>
      <trkpt lat="28.7172350" lon="-17.9328880">
        <ele>1132.2</ele>
        <time>2020-11-16T19:04:28Z</time>
      </trkpt>
      <trkpt lat="28.7172270" lon="-17.9328830">
        <ele>1132.3</ele>
        <time>2020-11-16T19:04:29Z</time>
      </trkpt>
      <trkpt lat="28.7172220" lon="-17.9328830">
        <ele>1132.4</ele>
        <time>2020-11-16T19:04:30Z</time>
      </trkpt>
      <trkpt lat="28.7172220" lon="-17.9328830">
        <ele>1132.4</ele>
        <time>2020-11-16T19:04:31Z</time>
      </trkpt>
      <trkpt lat="28.7172230" lon="-17.9328800">
        <ele>1132.4</ele>
        <time>2020-11-16T19:04:32Z</time>
      </trkpt>
      <trkpt lat="28.7172230" lon="-17.9328800">
        <ele>1132.4</ele>
        <time>2020-11-16T19:04:33Z</time>
      </trkpt>
      <trkpt lat="28.7172220" lon="-17.9328770">
        <ele>1132.4</ele>
        <time>2020-11-16T19:04:34Z</time>
      </trkpt>
      <trkpt lat="28.7172220" lon="-17.9328770">
        <ele>1132.4</ele>
        <time>2020-11-16T19:05:18Z</time>
      </trkpt>
      <trkpt lat="28.7172220" lon="-17.9328770">
        <ele>1132.4</ele>
        <time>2020-11-16T19:05:19Z</time>
      </trkpt>
      <trkpt lat="28.7171430" lon="-17.9328020">
        <ele>1133.4</ele>
        <time>2020-11-16T19:05:20Z</time>
      </trkpt>
      <trkpt lat="28.7171430" lon="-17.9328020">
        <ele>1133.4</ele>
        <time>2020-11-16T19:05:21Z</time>
      </trkpt>
      <trkpt lat="28.7171200" lon="-17.9327820">
        <ele>1133.7</ele>
        <time>2020-11-16T19:05:22Z</time>
      </trkpt>
      <trkpt lat="28.7171200" lon="-17.9327820">
        <ele>1133.7</ele>
        <time>2020-11-16T19:05:23Z</time>
      </trkpt>
      <trkpt lat="28.7170970" lon="-17.9327570">
        <ele>1134.0</ele>
        <time>2020-11-16T19:05:24Z</time>
      </trkpt>
      <trkpt lat="28.7170970" lon="-17.9327570">
        <ele>1134.0</ele>
        <time>2020-11-16T19:05:25Z</time>
      </trkpt>
      <trkpt lat="28.7170720" lon="-17.9327370">
        <ele>1134.3</ele>
        <time>2020-11-16T19:05:26Z</time>
      </trkpt>
      <trkpt lat="28.7170720" lon="-17.9327370">
        <ele>1134.3</ele>
        <time>2020-11-16T19:05:27Z</time>
      </trkpt>
      <trkpt lat="28.7170470" lon="-17.9327300">
        <ele>1134.6</ele>
        <time>2020-11-16T19:05:28Z</time>
      </trkpt>
      <trkpt lat="28.7170470" lon="-17.9327300">
        <ele>1134.6</ele>
        <time>2020-11-16T19:05:29Z</time>
      </trkpt>
      <trkpt lat="28.7170400" lon="-17.9327280">
        <ele>1134.7</ele>
        <time>2020-11-16T19:05:30Z</time>
      </trkpt>
      <trkpt lat="28.7170400" lon="-17.9327280">
        <ele>1134.7</ele>
        <time>2020-11-16T19:05:31Z</time>
      </trkpt>
      <trkpt lat="28.7170420" lon="-17.9327270">
        <ele>1134.7</ele>
        <time>2020-11-16T19:05:32Z</time>
      </trkpt>
      <trkpt lat="28.7170420" lon="-17.9327270">
        <ele>1134.7</ele>
        <time>2020-11-16T19:05:33Z</time>
      </trkpt>
      <trkpt lat="28.7170420" lon="-17.9327270">
        <ele>1134.7</ele>
        <time>2020-11-16T19:06:07Z</time>
      </trkpt>
      <trkpt lat="28.7170080" lon="-17.9327420">
        <ele>1135.1</ele>
        <time>2020-11-16T19:06:08Z</time>
      </trkpt>
      <trkpt lat="28.7170080" lon="-17.9327420">
        <ele>1135.1</ele>
        <time>2020-11-16T19:06:09Z</time>
      </trkpt>
      <trkpt lat="28.7170050" lon="-17.9327400">
        <ele>1135.1</ele>
        <time>2020-11-16T19:06:10Z</time>
      </trkpt>
      <trkpt lat="28.7170050" lon="-17.9327400">
        <ele>1135.1</ele>
        <time>2020-11-16T19:06:11Z</time>
      </trkpt>
      <trkpt lat="28.7170020" lon="-17.9327470">
        <ele>1135.2</ele>
        <time>2020-11-16T19:07:17Z</time>
      </trkpt>
      <trkpt lat="28.7169970" lon="-17.9326920">
        <ele>1135.8</ele>
        <time>2020-11-16T19:07:18Z</time>
      </trkpt>
      <trkpt lat="28.7169970" lon="-17.9326920">
        <ele>1135.8</ele>
        <time>2020-11-16T19:07:19Z</time>
      </trkpt>
      <trkpt lat="28.7169970" lon="-17.9326830">
        <ele>1135.9</ele>
        <time>2020-11-16T19:07:20Z</time>
      </trkpt>
      <trkpt lat="28.7169970" lon="-17.9326830">
        <ele>1135.9</ele>
        <time>2020-11-16T19:07:21Z</time>
      </trkpt>
      <trkpt lat="28.7169950" lon="-17.9326770">
        <ele>1136.0</ele>
        <time>2020-11-16T19:07:22Z</time>
      </trkpt>
      <trkpt lat="28.7169980" lon="-17.9326730">
        <ele>1136.0</ele>
        <time>2020-11-16T19:07:23Z</time>
      </trkpt>
      <trkpt lat="28.7169980" lon="-17.9326730">
        <ele>1136.0</ele>
        <time>2020-11-16T19:07:24Z</time>
      </trkpt>
      <trkpt lat="28.7170120" lon="-17.9326670">
        <ele>1136.2</ele>
        <time>2020-11-16T19:07:25Z</time>
      </trkpt>
      <trkpt lat="28.7170120" lon="-17.9326670">
        <ele>1136.2</ele>
        <time>2020-11-16T19:07:30Z</time>
      </trkpt>
      <trkpt lat="28.7169920" lon="-17.9326450">
        <ele>1137.1</ele>
        <time>2020-11-16T19:07:31Z</time>
      </trkpt>
      <trkpt lat="28.7169920" lon="-17.9326450">
        <ele>1137.1</ele>
        <time>2020-11-16T19:07:32Z</time>
      </trkpt>
      <trkpt lat="28.7169670" lon="-17.9326230">
        <ele>1138.1</ele>
        <time>2020-11-16T19:07:33Z</time>
      </trkpt>
      <trkpt lat="28.7169330" lon="-17.9325820">
        <ele>1139.7</ele>
        <time>2020-11-16T19:07:34Z</time>
      </trkpt>
      <trkpt lat="28.7169270" lon="-17.9325720">
        <ele>1140.1</ele>
        <time>2020-11-16T19:07:35Z</time>
      </trkpt>
      <trkpt lat="28.7169200" lon="-17.9325620">
        <ele>1140.4</ele>
        <time>2020-11-16T19:07:36Z</time>
      </trkpt>
      <trkpt lat="28.7169200" lon="-17.9325620">
        <ele>1140.4</ele>
        <time>2020-11-16T19:07:37Z</time>
      </trkpt>
      <trkpt lat="28.7169040" lon="-17.9325180">
        <ele>1141.8</ele>
        <time>2020-11-16T19:07:38Z</time>
      </trkpt>
      <trkpt lat="28.7168980" lon="-17.9324970">
        <ele>1142.4</ele>
        <time>2020-11-16T19:07:39Z</time>
      </trkpt>
      <trkpt lat="28.7168980" lon="-17.9324970">
        <ele>1142.4</ele>
        <time>2020-11-16T19:07:40Z</time>
      </trkpt>
      <trkpt lat="28.7168980" lon="-17.9324970">
        <ele>1142.4</ele>
        <time>2020-11-16T19:07:41Z</time>
      </trkpt>
      <trkpt lat="28.7168870" lon="-17.9324650">
        <ele>1143.4</ele>
        <time>2020-11-16T19:07:42Z</time>
      </trkpt>
      <trkpt lat="28.7168870" lon="-17.9324650">
        <ele>1143.4</ele>
        <time>2020-11-16T19:07:43Z</time>
      </trkpt>
      <trkpt lat="28.7168880" lon="-17.9324350">
        <ele>1144.2</ele>
        <time>2020-11-16T19:07:44Z</time>
      </trkpt>
      <trkpt lat="28.7168880" lon="-17.9324350">
        <ele>1144.2</ele>
        <time>2020-11-16T19:07:45Z</time>
      </trkpt>
      <trkpt lat="28.7169070" lon="-17.9324000">
        <ele>1145.4</ele>
        <time>2020-11-16T19:07:46Z</time>
      </trkpt>
      <trkpt lat="28.7169220" lon="-17.9323880">
        <ele>1146.0</ele>
        <time>2020-11-16T19:07:47Z</time>
      </trkpt>
      <trkpt lat="28.7169220" lon="-17.9323880">
        <ele>1146.0</ele>
        <time>2020-11-16T19:07:48Z</time>
      </trkpt>
      <trkpt lat="28.7169550" lon="-17.9323750">
        <ele>1147.4</ele>
        <time>2020-11-16T19:07:49Z</time>
      </trkpt>
      <trkpt lat="28.7169550" lon="-17.9323750">
        <ele>1147.4</ele>
        <time>2020-11-16T19:07:50Z</time>
      </trkpt>
      <trkpt lat="28.7169970" lon="-17.9323900">
        <ele>1147.9</ele>
        <time>2020-11-16T19:07:51Z</time>
      </trkpt>
      <trkpt lat="28.7170270" lon="-17.9324080">
        <ele>1148.3</ele>
        <time>2020-11-16T19:07:52Z</time>
      </trkpt>
      <trkpt lat="28.7170270" lon="-17.9324080">
        <ele>1148.3</ele>
        <time>2020-11-16T19:07:53Z</time>
      </trkpt>
      <trkpt lat="28.7170270" lon="-17.9324080">
        <ele>1148.3</ele>
        <time>2020-11-16T19:07:54Z</time>
      </trkpt>
      <trkpt lat="28.7170530" lon="-17.9324350">
        <ele>1148.7</ele>
        <time>2020-11-16T19:07:55Z</time>
      </trkpt>
      <trkpt lat="28.7170530" lon="-17.9324350">
        <ele>1148.7</ele>
        <time>2020-11-16T19:07:56Z</time>
      </trkpt>
      <trkpt lat="28.7170950" lon="-17.9324670">
        <ele>1149.1</ele>
        <time>2020-11-16T19:07:57Z</time>
      </trkpt>
      <trkpt lat="28.7170950" lon="-17.9324670">
        <ele>1149.1</ele>
        <time>2020-11-16T19:07:58Z</time>
      </trkpt>
      <trkpt lat="28.7170950" lon="-17.9324670">
        <ele>1149.1</ele>
        <time>2020-11-16T19:07:59Z</time>
      </trkpt>
      <trkpt lat="28.7171200" lon="-17.9324850">
        <ele>1149.4</ele>
        <time>2020-11-16T19:08:00Z</time>
      </trkpt>
      <trkpt lat="28.7171350" lon="-17.9324970">
        <ele>1149.5</ele>
        <time>2020-11-16T19:08:01Z</time>
      </trkpt>
      <trkpt lat="28.7171350" lon="-17.9324970">
        <ele>1149.5</ele>
        <time>2020-11-16T19:08:02Z</time>
      </trkpt>
      <trkpt lat="28.7171620" lon="-17.9325130">
        <ele>1149.8</ele>
        <time>2020-11-16T19:08:03Z</time>
      </trkpt>
      <trkpt lat="28.7171620" lon="-17.9325130">
        <ele>1149.8</ele>
        <time>2020-11-16T19:08:04Z</time>
      </trkpt>
      <trkpt lat="28.7171870" lon="-17.9325280">
        <ele>1150.0</ele>
        <time>2020-11-16T19:08:05Z</time>
      </trkpt>
      <trkpt lat="28.7171870" lon="-17.9325280">
        <ele>1150.0</ele>
        <time>2020-11-16T19:08:06Z</time>
      </trkpt>
      <trkpt lat="28.7172130" lon="-17.9325550">
        <ele>1150.3</ele>
        <time>2020-11-16T19:08:07Z</time>
      </trkpt>
      <trkpt lat="28.7172370" lon="-17.9325680">
        <ele>1150.6</ele>
        <time>2020-11-16T19:08:08Z</time>
      </trkpt>
      <trkpt lat="28.7172370" lon="-17.9325680">
        <ele>1150.6</ele>
        <time>2020-11-16T19:08:09Z</time>
      </trkpt>
      <trkpt lat="28.7172500" lon="-17.9325750">
        <ele>1150.7</ele>
        <time>2020-11-16T19:08:10Z</time>
      </trkpt>
      <trkpt lat="28.7172770" lon="-17.9325830">
        <ele>1150.9</ele>
        <time>2020-11-16T19:08:11Z</time>
      </trkpt>
      <trkpt lat="28.7172770" lon="-17.9325830">
        <ele>1150.9</ele>
        <time>2020-11-16T19:08:12Z</time>
      </trkpt>
      <trkpt lat="28.7172770" lon="-17.9325830">
        <ele>1150.9</ele>
        <time>2020-11-16T19:08:13Z</time>
      </trkpt>
      <trkpt lat="28.7173120" lon="-17.9325880">
        <ele>1151.2</ele>
        <time>2020-11-16T19:08:14Z</time>
      </trkpt>
      <trkpt lat="28.7173120" lon="-17.9325880">
        <ele>1151.2</ele>
        <time>2020-11-16T19:08:15Z</time>
      </trkpt>
      <trkpt lat="28.7173520" lon="-17.9325850">
        <ele>1151.5</ele>
        <time>2020-11-16T19:08:16Z</time>
      </trkpt>
      <trkpt lat="28.7173790" lon="-17.9325750">
        <ele>1151.7</ele>
        <time>2020-11-16T19:08:17Z</time>
      </trkpt>
      <trkpt lat="28.7174050" lon="-17.9325650">
        <ele>1152.0</ele>
        <time>2020-11-16T19:08:18Z</time>
      </trkpt>
      <trkpt lat="28.7174050" lon="-17.9325650">
        <ele>1152.0</ele>
        <time>2020-11-16T19:08:19Z</time>
      </trkpt>
      <trkpt lat="28.7174200" lon="-17.9325570">
        <ele>1152.1</ele>
        <time>2020-11-16T19:08:20Z</time>
      </trkpt>
      <trkpt lat="28.7174200" lon="-17.9325570">
        <ele>1152.1</ele>
        <time>2020-11-16T19:08:21Z</time>
      </trkpt>
      <trkpt lat="28.7174550" lon="-17.9325380">
        <ele>1152.4</ele>
        <time>2020-11-16T19:08:22Z</time>
      </trkpt>
      <trkpt lat="28.7174920" lon="-17.9325250">
        <ele>1152.8</ele>
        <time>2020-11-16T19:08:23Z</time>
      </trkpt>
      <trkpt lat="28.7174920" lon="-17.9325250">
        <ele>1152.8</ele>
        <time>2020-11-16T19:08:24Z</time>
      </trkpt>
      <trkpt lat="28.7175100" lon="-17.9325170">
        <ele>1153.0</ele>
        <time>2020-11-16T19:08:25Z</time>
      </trkpt>
      <trkpt lat="28.7175420" lon="-17.9324970">
        <ele>1153.3</ele>
        <time>2020-11-16T19:08:26Z</time>
      </trkpt>
      <trkpt lat="28.7175420" lon="-17.9324970">
        <ele>1153.3</ele>
        <time>2020-11-16T19:08:27Z</time>
      </trkpt>
      <trkpt lat="28.7175420" lon="-17.9324970">
        <ele>1153.3</ele>
        <time>2020-11-16T19:08:28Z</time>
      </trkpt>
      <trkpt lat="28.7175720" lon="-17.9324750">
        <ele>1153.6</ele>
        <time>2020-11-16T19:08:29Z</time>
      </trkpt>
      <trkpt lat="28.7175720" lon="-17.9324750">
        <ele>1153.6</ele>
        <time>2020-11-16T19:08:30Z</time>
      </trkpt>
      <trkpt lat="28.7176120" lon="-17.9324580">
        <ele>1154.0</ele>
        <time>2020-11-16T19:08:31Z</time>
      </trkpt>
      <trkpt lat="28.7176120" lon="-17.9324580">
        <ele>1154.0</ele>
        <time>2020-11-16T19:08:32Z</time>
      </trkpt>
      <trkpt lat="28.7176120" lon="-17.9324580">
        <ele>1154.0</ele>
        <time>2020-11-16T19:08:33Z</time>
      </trkpt>
      <trkpt lat="28.7176380" lon="-17.9324470">
        <ele>1154.3</ele>
        <time>2020-11-16T19:08:34Z</time>
      </trkpt>
      <trkpt lat="28.7176380" lon="-17.9324470">
        <ele>1154.3</ele>
        <time>2020-11-16T19:08:35Z</time>
      </trkpt>
      <trkpt lat="28.7176700" lon="-17.9324270">
        <ele>1154.6</ele>
        <time>2020-11-16T19:08:36Z</time>
      </trkpt>
      <trkpt lat="28.7176700" lon="-17.9324270">
        <ele>1154.6</ele>
        <time>2020-11-16T19:08:37Z</time>
      </trkpt>
      <trkpt lat="28.7177050" lon="-17.9324200">
        <ele>1155.0</ele>
        <time>2020-11-16T19:08:38Z</time>
      </trkpt>
      <trkpt lat="28.7177050" lon="-17.9324200">
        <ele>1155.0</ele>
        <time>2020-11-16T19:08:39Z</time>
      </trkpt>
      <trkpt lat="28.7177350" lon="-17.9324070">
        <ele>1155.3</ele>
        <time>2020-11-16T19:08:40Z</time>
      </trkpt>
      <trkpt lat="28.7177350" lon="-17.9324070">
        <ele>1155.3</ele>
        <time>2020-11-16T19:08:41Z</time>
      </trkpt>
      <trkpt lat="28.7177630" lon="-17.9323970">
        <ele>1155.6</ele>
        <time>2020-11-16T19:08:42Z</time>
      </trkpt>
      <trkpt lat="28.7177770" lon="-17.9323980">
        <ele>1155.8</ele>
        <time>2020-11-16T19:08:43Z</time>
      </trkpt>
      <trkpt lat="28.7177770" lon="-17.9323980">
        <ele>1155.8</ele>
        <time>2020-11-16T19:08:44Z</time>
      </trkpt>
      <trkpt lat="28.7178120" lon="-17.9323970">
        <ele>1156.1</ele>
        <time>2020-11-16T19:08:45Z</time>
      </trkpt>
      <trkpt lat="28.7178120" lon="-17.9323970">
        <ele>1156.1</ele>
        <time>2020-11-16T19:08:46Z</time>
      </trkpt>
      <trkpt lat="28.7178480" lon="-17.9323880">
        <ele>1156.5</ele>
        <time>2020-11-16T19:08:47Z</time>
      </trkpt>
      <trkpt lat="28.7178480" lon="-17.9323880">
        <ele>1156.5</ele>
        <time>2020-11-16T19:08:48Z</time>
      </trkpt>
      <trkpt lat="28.7178870" lon="-17.9323800">
        <ele>1156.9</ele>
        <time>2020-11-16T19:08:49Z</time>
      </trkpt>
      <trkpt lat="28.7179250" lon="-17.9323790">
        <ele>1157.3</ele>
        <time>2020-11-16T19:08:50Z</time>
      </trkpt>
      <trkpt lat="28.7179420" lon="-17.9323800">
        <ele>1157.4</ele>
        <time>2020-11-16T19:08:51Z</time>
      </trkpt>
      <trkpt lat="28.7179420" lon="-17.9323800">
        <ele>1157.4</ele>
        <time>2020-11-16T19:08:52Z</time>
      </trkpt>
      <trkpt lat="28.7179700" lon="-17.9323820">
        <ele>1157.7</ele>
        <time>2020-11-16T19:08:53Z</time>
      </trkpt>
      <trkpt lat="28.7179700" lon="-17.9323820">
        <ele>1157.7</ele>
        <time>2020-11-16T19:08:54Z</time>
      </trkpt>
      <trkpt lat="28.7179700" lon="-17.9323820">
        <ele>1157.7</ele>
        <time>2020-11-16T19:08:55Z</time>
      </trkpt>
      <trkpt lat="28.7180030" lon="-17.9323750">
        <ele>1158.1</ele>
        <time>2020-11-16T19:08:56Z</time>
      </trkpt>
      <trkpt lat="28.7180180" lon="-17.9323730">
        <ele>1158.2</ele>
        <time>2020-11-16T19:08:57Z</time>
      </trkpt>
      <trkpt lat="28.7180180" lon="-17.9323730">
        <ele>1158.2</ele>
        <time>2020-11-16T19:08:58Z</time>
      </trkpt>
      <trkpt lat="28.7180420" lon="-17.9323880">
        <ele>1158.5</ele>
        <time>2020-11-16T19:08:59Z</time>
      </trkpt>
      <trkpt lat="28.7180420" lon="-17.9323880">
        <ele>1158.5</ele>
        <time>2020-11-16T19:09:00Z</time>
      </trkpt>
      <trkpt lat="28.7180700" lon="-17.9323980">
        <ele>1158.8</ele>
        <time>2020-11-16T19:09:01Z</time>
      </trkpt>
      <trkpt lat="28.7181000" lon="-17.9323930">
        <ele>1159.1</ele>
        <time>2020-11-16T19:09:02Z</time>
      </trkpt>
      <trkpt lat="28.7181130" lon="-17.9323900">
        <ele>1159.2</ele>
        <time>2020-11-16T19:09:03Z</time>
      </trkpt>
      <trkpt lat="28.7181130" lon="-17.9323900">
        <ele>1159.2</ele>
        <time>2020-11-16T19:09:04Z</time>
      </trkpt>
      <trkpt lat="28.7181680" lon="-17.9323750">
        <ele>1159.8</ele>
        <time>2020-11-16T19:09:05Z</time>
      </trkpt>
      <trkpt lat="28.7181680" lon="-17.9323750">
        <ele>1159.8</ele>
        <time>2020-11-16T19:09:06Z</time>
      </trkpt>
      <trkpt lat="28.7181880" lon="-17.9323700">
        <ele>1160.0</ele>
        <time>2020-11-16T19:09:07Z</time>
      </trkpt>
      <trkpt lat="28.7182070" lon="-17.9323650">
        <ele>1160.2</ele>
        <time>2020-11-16T19:09:08Z</time>
      </trkpt>
      <trkpt lat="28.7182220" lon="-17.9323620">
        <ele>1160.4</ele>
        <time>2020-11-16T19:09:09Z</time>
      </trkpt>
      <trkpt lat="28.7182370" lon="-17.9323580">
        <ele>1160.5</ele>
        <time>2020-11-16T19:09:10Z</time>
      </trkpt>
      <trkpt lat="28.7182680" lon="-17.9323680">
        <ele>1160.8</ele>
        <time>2020-11-16T19:09:11Z</time>
      </trkpt>
      <trkpt lat="28.7182680" lon="-17.9323680">
        <ele>1160.8</ele>
        <time>2020-11-16T19:09:12Z</time>
      </trkpt>
      <trkpt lat="28.7182950" lon="-17.9323870">
        <ele>1161.2</ele>
        <time>2020-11-16T19:09:13Z</time>
      </trkpt>
      <trkpt lat="28.7182950" lon="-17.9323870">
        <ele>1161.2</ele>
        <time>2020-11-16T19:09:14Z</time>
      </trkpt>
      <trkpt lat="28.7182950" lon="-17.9323870">
        <ele>1161.2</ele>
        <time>2020-11-16T19:09:15Z</time>
      </trkpt>
      <trkpt lat="28.7183170" lon="-17.9324070">
        <ele>1161.5</ele>
        <time>2020-11-16T19:09:16Z</time>
      </trkpt>
      <trkpt lat="28.7183170" lon="-17.9324070">
        <ele>1161.5</ele>
        <time>2020-11-16T19:09:17Z</time>
      </trkpt>
      <trkpt lat="28.7183400" lon="-17.9324450">
        <ele>1161.9</ele>
        <time>2020-11-16T19:09:18Z</time>
      </trkpt>
      <trkpt lat="28.7183550" lon="-17.9324920">
        <ele>1162.4</ele>
        <time>2020-11-16T19:09:19Z</time>
      </trkpt>
      <trkpt lat="28.7183550" lon="-17.9324920">
        <ele>1162.4</ele>
        <time>2020-11-16T19:09:20Z</time>
      </trkpt>
      <trkpt lat="28.7183550" lon="-17.9324920">
        <ele>1162.4</ele>
        <time>2020-11-16T19:09:21Z</time>
      </trkpt>
      <trkpt lat="28.7183650" lon="-17.9325320">
        <ele>1162.8</ele>
        <time>2020-11-16T19:09:22Z</time>
      </trkpt>
      <trkpt lat="28.7183780" lon="-17.9325680">
        <ele>1163.1</ele>
        <time>2020-11-16T19:09:23Z</time>
      </trkpt>
      <trkpt lat="28.7183780" lon="-17.9325680">
        <ele>1163.1</ele>
        <time>2020-11-16T19:09:24Z</time>
      </trkpt>
      <trkpt lat="28.7183820" lon="-17.9325850">
        <ele>1163.3</ele>
        <time>2020-11-16T19:09:25Z</time>
      </trkpt>
      <trkpt lat="28.7183820" lon="-17.9325850">
        <ele>1163.3</ele>
        <time>2020-11-16T19:09:26Z</time>
      </trkpt>
      <trkpt lat="28.7183850" lon="-17.9326170">
        <ele>1163.6</ele>
        <time>2020-11-16T19:09:27Z</time>
      </trkpt>
      <trkpt lat="28.7183880" lon="-17.9326530">
        <ele>1164.0</ele>
        <time>2020-11-16T19:09:28Z</time>
      </trkpt>
      <trkpt lat="28.7183880" lon="-17.9326530">
        <ele>1164.0</ele>
        <time>2020-11-16T19:09:29Z</time>
      </trkpt>
      <trkpt lat="28.7183880" lon="-17.9326530">
        <ele>1164.0</ele>
        <time>2020-11-16T19:09:30Z</time>
      </trkpt>
      <trkpt lat="28.7183930" lon="-17.9326880">
        <ele>1164.3</ele>
        <time>2020-11-16T19:09:31Z</time>
      </trkpt>
      <trkpt lat="28.7183980" lon="-17.9327220">
        <ele>1164.6</ele>
        <time>2020-11-16T19:09:32Z</time>
      </trkpt>
      <trkpt lat="28.7183970" lon="-17.9327400">
        <ele>1164.8</ele>
        <time>2020-11-16T19:09:33Z</time>
      </trkpt>
      <trkpt lat="28.7183970" lon="-17.9327400">
        <ele>1164.8</ele>
        <time>2020-11-16T19:09:34Z</time>
      </trkpt>
      <trkpt lat="28.7183970" lon="-17.9327400">
        <ele>1164.8</ele>
        <time>2020-11-16T19:09:35Z</time>
      </trkpt>
      <trkpt lat="28.7183980" lon="-17.9327770">
        <ele>1165.1</ele>
        <time>2020-11-16T19:09:36Z</time>
      </trkpt>
      <trkpt lat="28.7184150" lon="-17.9327850">
        <ele>1165.2</ele>
        <time>2020-11-16T19:09:37Z</time>
      </trkpt>
      <trkpt lat="28.7184150" lon="-17.9327850">
        <ele>1165.2</ele>
        <time>2020-11-16T19:09:38Z</time>
      </trkpt>
      <trkpt lat="28.7184200" lon="-17.9328150">
        <ele>1165.5</ele>
        <time>2020-11-16T19:09:39Z</time>
      </trkpt>
      <trkpt lat="28.7184200" lon="-17.9328150">
        <ele>1165.5</ele>
        <time>2020-11-16T19:09:40Z</time>
      </trkpt>
      <trkpt lat="28.7184200" lon="-17.9328150">
        <ele>1165.5</ele>
        <time>2020-11-16T19:09:41Z</time>
      </trkpt>
      <trkpt lat="28.7184120" lon="-17.9328570">
        <ele>1165.8</ele>
        <time>2020-11-16T19:09:42Z</time>
      </trkpt>
      <trkpt lat="28.7184170" lon="-17.9328770">
        <ele>1166.0</ele>
        <time>2020-11-16T19:09:43Z</time>
      </trkpt>
      <trkpt lat="28.7184180" lon="-17.9329200">
        <ele>1166.4</ele>
        <time>2020-11-16T19:09:44Z</time>
      </trkpt>
      <trkpt lat="28.7184180" lon="-17.9329200">
        <ele>1166.4</ele>
        <time>2020-11-16T19:09:45Z</time>
      </trkpt>
      <trkpt lat="28.7184180" lon="-17.9329200">
        <ele>1166.4</ele>
        <time>2020-11-16T19:09:46Z</time>
      </trkpt>
      <trkpt lat="28.7184400" lon="-17.9329570">
        <ele>1166.8</ele>
        <time>2020-11-16T19:09:47Z</time>
      </trkpt>
      <trkpt lat="28.7184400" lon="-17.9329570">
        <ele>1166.6</ele>
        <time>2020-11-16T19:09:48Z</time>
      </trkpt>
      <trkpt lat="28.7184620" lon="-17.9329900">
        <ele>1166.3</ele>
        <time>2020-11-16T19:09:49Z</time>
      </trkpt>
      <trkpt lat="28.7184700" lon="-17.9330030">
        <ele>1166.2</ele>
        <time>2020-11-16T19:09:50Z</time>
      </trkpt>
      <trkpt lat="28.7184700" lon="-17.9330030">
        <ele>1166.2</ele>
        <time>2020-11-16T19:09:51Z</time>
      </trkpt>
      <trkpt lat="28.7184950" lon="-17.9330180">
        <ele>1165.9</ele>
        <time>2020-11-16T19:09:52Z</time>
      </trkpt>
      <trkpt lat="28.7185250" lon="-17.9330320">
        <ele>1165.6</ele>
        <time>2020-11-16T19:09:53Z</time>
      </trkpt>
      <trkpt lat="28.7185250" lon="-17.9330320">
        <ele>1165.6</ele>
        <time>2020-11-16T19:09:54Z</time>
      </trkpt>
      <trkpt lat="28.7185250" lon="-17.9330320">
        <ele>1165.6</ele>
        <time>2020-11-16T19:09:55Z</time>
      </trkpt>
      <trkpt lat="28.7185600" lon="-17.9330380">
        <ele>1165.3</ele>
        <time>2020-11-16T19:09:56Z</time>
      </trkpt>
      <trkpt lat="28.7185570" lon="-17.9330370">
        <ele>1165.3</ele>
        <time>2020-11-16T19:09:57Z</time>
      </trkpt>
      <trkpt lat="28.7185540" lon="-17.9330360">
        <ele>1165.3</ele>
        <time>2020-11-16T19:09:58Z</time>
      </trkpt>
      <trkpt lat="28.7185500" lon="-17.9330340">
        <ele>1165.3</ele>
        <time>2020-11-16T19:09:59Z</time>
      </trkpt>
      <trkpt lat="28.7185470" lon="-17.9330330">
        <ele>1165.2</ele>
        <time>2020-11-16T19:10:00Z</time>
      </trkpt>
      <trkpt lat="28.7185440" lon="-17.9330320">
        <ele>1165.2</ele>
        <time>2020-11-16T19:10:01Z</time>
      </trkpt>
      <trkpt lat="28.7185410" lon="-17.9330310">
        <ele>1165.2</ele>
        <time>2020-11-16T19:10:32Z</time>
      </trkpt>
      <trkpt lat="28.7185370" lon="-17.9330290">
        <ele>1165.1</ele>
        <time>2020-11-16T19:10:33Z</time>
      </trkpt>
      <trkpt lat="28.7185340" lon="-17.9330280">
        <ele>1165.1</ele>
        <time>2020-11-16T19:10:34Z</time>
      </trkpt>
      <trkpt lat="28.7185310" lon="-17.9330270">
        <ele>1165.1</ele>
        <time>2020-11-16T19:10:35Z</time>
      </trkpt>
      <trkpt lat="28.7185280" lon="-17.9330260">
        <ele>1165.1</ele>
        <time>2020-11-16T19:10:36Z</time>
      </trkpt>
      <trkpt lat="28.7185240" lon="-17.9330240">
        <ele>1165.0</ele>
        <time>2020-11-16T19:10:37Z</time>
      </trkpt>
      <trkpt lat="28.7185210" lon="-17.9330230">
        <ele>1165.0</ele>
        <time>2020-11-16T19:10:38Z</time>
      </trkpt>
      <trkpt lat="28.7185180" lon="-17.9330220">
        <ele>1165.0</ele>
        <time>2020-11-16T19:10:39Z</time>
      </trkpt>
      <trkpt lat="28.7184990" lon="-17.9330020">
        <ele>1164.8</ele>
        <time>2020-11-16T19:10:40Z</time>
      </trkpt>
      <trkpt lat="28.7184800" lon="-17.9329830">
        <ele>1164.6</ele>
        <time>2020-11-16T19:10:41Z</time>
      </trkpt>
      <trkpt lat="28.7184800" lon="-17.9329830">
        <ele>1164.6</ele>
        <time>2020-11-16T19:10:42Z</time>
      </trkpt>
      <trkpt lat="28.7184580" lon="-17.9329370">
        <ele>1164.1</ele>
        <time>2020-11-16T19:10:43Z</time>
      </trkpt>
      <trkpt lat="28.7184430" lon="-17.9328730">
        <ele>1163.6</ele>
        <time>2020-11-16T19:10:44Z</time>
      </trkpt>
      <trkpt lat="28.7184370" lon="-17.9328380">
        <ele>1163.3</ele>
        <time>2020-11-16T19:10:45Z</time>
      </trkpt>
      <trkpt lat="28.7184370" lon="-17.9328380">
        <ele>1163.3</ele>
        <time>2020-11-16T19:10:46Z</time>
      </trkpt>
      <trkpt lat="28.7184370" lon="-17.9328380">
        <ele>1163.3</ele>
        <time>2020-11-16T19:10:47Z</time>
      </trkpt>
      <trkpt lat="28.7184230" lon="-17.9327700">
        <ele>1162.6</ele>
        <time>2020-11-16T19:10:48Z</time>
      </trkpt>
      <trkpt lat="28.7184230" lon="-17.9327700">
        <ele>1162.6</ele>
        <time>2020-11-16T19:10:49Z</time>
      </trkpt>
      <trkpt lat="28.7184070" lon="-17.9327000">
        <ele>1162.0</ele>
        <time>2020-11-16T19:10:50Z</time>
      </trkpt>
      <trkpt lat="28.7184070" lon="-17.9327000">
        <ele>1162.0</ele>
        <time>2020-11-16T19:10:51Z</time>
      </trkpt>
      <trkpt lat="28.7183950" lon="-17.9326300">
        <ele>1161.4</ele>
        <time>2020-11-16T19:10:52Z</time>
      </trkpt>
      <trkpt lat="28.7183950" lon="-17.9326300">
        <ele>1161.4</ele>
        <time>2020-11-16T19:10:53Z</time>
      </trkpt>
      <trkpt lat="28.7183850" lon="-17.9325650">
        <ele>1160.9</ele>
        <time>2020-11-16T19:10:54Z</time>
      </trkpt>
      <trkpt lat="28.7183750" lon="-17.9325020">
        <ele>1160.4</ele>
        <time>2020-11-16T19:10:55Z</time>
      </trkpt>
      <trkpt lat="28.7183680" lon="-17.9324780">
        <ele>1160.2</ele>
        <time>2020-11-16T19:10:56Z</time>
      </trkpt>
      <trkpt lat="28.7183600" lon="-17.9324560">
        <ele>1160.0</ele>
        <time>2020-11-16T19:10:57Z</time>
      </trkpt>
      <trkpt lat="28.7183520" lon="-17.9324350">
        <ele>1159.8</ele>
        <time>2020-11-16T19:10:58Z</time>
      </trkpt>
      <trkpt lat="28.7183520" lon="-17.9324350">
        <ele>1159.8</ele>
        <time>2020-11-16T19:10:59Z</time>
      </trkpt>
      <trkpt lat="28.7183520" lon="-17.9324350">
        <ele>1159.8</ele>
        <time>2020-11-16T19:11:00Z</time>
      </trkpt>
      <trkpt lat="28.7183230" lon="-17.9324130">
        <ele>1159.5</ele>
        <time>2020-11-16T19:11:01Z</time>
      </trkpt>
      <trkpt lat="28.7183230" lon="-17.9324130">
        <ele>1159.5</ele>
        <time>2020-11-16T19:11:02Z</time>
      </trkpt>
      <trkpt lat="28.7182750" lon="-17.9323730">
        <ele>1159.0</ele>
        <time>2020-11-16T19:11:03Z</time>
      </trkpt>
      <trkpt lat="28.7182750" lon="-17.9323730">
        <ele>1159.0</ele>
        <time>2020-11-16T19:11:04Z</time>
      </trkpt>
      <trkpt lat="28.7182030" lon="-17.9323820">
        <ele>1158.3</ele>
        <time>2020-11-16T19:11:05Z</time>
      </trkpt>
      <trkpt lat="28.7181900" lon="-17.9323850">
        <ele>1158.2</ele>
        <time>2020-11-16T19:11:06Z</time>
      </trkpt>
      <trkpt lat="28.7181370" lon="-17.9323970">
        <ele>1157.7</ele>
        <time>2020-11-16T19:11:07Z</time>
      </trkpt>
      <trkpt lat="28.7181370" lon="-17.9323970">
        <ele>1157.7</ele>
        <time>2020-11-16T19:11:08Z</time>
      </trkpt>
      <trkpt lat="28.7181370" lon="-17.9323970">
        <ele>1157.7</ele>
        <time>2020-11-16T19:11:09Z</time>
      </trkpt>
      <trkpt lat="28.7180720" lon="-17.9324050">
        <ele>1157.1</ele>
        <time>2020-11-16T19:11:10Z</time>
      </trkpt>
      <trkpt lat="28.7180170" lon="-17.9324220">
        <ele>1156.6</ele>
        <time>2020-11-16T19:11:11Z</time>
      </trkpt>
      <trkpt lat="28.7180170" lon="-17.9324220">
        <ele>1156.6</ele>
        <time>2020-11-16T19:11:12Z</time>
      </trkpt>
      <trkpt lat="28.7179620" lon="-17.9324280">
        <ele>1156.1</ele>
        <time>2020-11-16T19:11:13Z</time>
      </trkpt>
      <trkpt lat="28.7179490" lon="-17.9324290">
        <ele>1156.0</ele>
        <time>2020-11-16T19:11:14Z</time>
      </trkpt>
      <trkpt lat="28.7179350" lon="-17.9324300">
        <ele>1155.9</ele>
        <time>2020-11-16T19:11:15Z</time>
      </trkpt>
      <trkpt lat="28.7179070" lon="-17.9324300">
        <ele>1155.6</ele>
        <time>2020-11-16T19:11:16Z</time>
      </trkpt>
      <trkpt lat="28.7178800" lon="-17.9324300">
        <ele>1155.4</ele>
        <time>2020-11-16T19:11:17Z</time>
      </trkpt>
      <trkpt lat="28.7178800" lon="-17.9324300">
        <ele>1155.4</ele>
        <time>2020-11-16T19:11:18Z</time>
      </trkpt>
      <trkpt lat="28.7178220" lon="-17.9324330">
        <ele>1154.9</ele>
        <time>2020-11-16T19:11:19Z</time>
      </trkpt>
      <trkpt lat="28.7177620" lon="-17.9324450">
        <ele>1154.3</ele>
        <time>2020-11-16T19:11:20Z</time>
      </trkpt>
      <trkpt lat="28.7177620" lon="-17.9324450">
        <ele>1154.3</ele>
        <time>2020-11-16T19:11:21Z</time>
      </trkpt>
      <trkpt lat="28.7177000" lon="-17.9324650">
        <ele>1153.8</ele>
        <time>2020-11-16T19:11:22Z</time>
      </trkpt>
      <trkpt lat="28.7177000" lon="-17.9324650">
        <ele>1153.8</ele>
        <time>2020-11-16T19:11:23Z</time>
      </trkpt>
      <trkpt lat="28.7176430" lon="-17.9324930">
        <ele>1153.3</ele>
        <time>2020-11-16T19:11:24Z</time>
      </trkpt>
      <trkpt lat="28.7176430" lon="-17.9324930">
        <ele>1153.3</ele>
        <time>2020-11-16T19:11:25Z</time>
      </trkpt>
      <trkpt lat="28.7176130" lon="-17.9325030">
        <ele>1153.0</ele>
        <time>2020-11-16T19:11:26Z</time>
      </trkpt>
      <trkpt lat="28.7175550" lon="-17.9325250">
        <ele>1152.5</ele>
        <time>2020-11-16T19:11:27Z</time>
      </trkpt>
      <trkpt lat="28.7175290" lon="-17.9325360">
        <ele>1152.3</ele>
        <time>2020-11-16T19:11:28Z</time>
      </trkpt>
      <trkpt lat="28.7175030" lon="-17.9325470">
        <ele>1152.1</ele>
        <time>2020-11-16T19:11:29Z</time>
      </trkpt>
      <trkpt lat="28.7175030" lon="-17.9325470">
        <ele>1152.1</ele>
        <time>2020-11-16T19:11:30Z</time>
      </trkpt>
      <trkpt lat="28.7175030" lon="-17.9325470">
        <ele>1152.1</ele>
        <time>2020-11-16T19:11:31Z</time>
      </trkpt>
      <trkpt lat="28.7174500" lon="-17.9325650">
        <ele>1151.7</ele>
        <time>2020-11-16T19:11:32Z</time>
      </trkpt>
      <trkpt lat="28.7174500" lon="-17.9325650">
        <ele>1151.7</ele>
        <time>2020-11-16T19:11:33Z</time>
      </trkpt>
      <trkpt lat="28.7173750" lon="-17.9325780">
        <ele>1151.1</ele>
        <time>2020-11-16T19:11:34Z</time>
      </trkpt>
      <trkpt lat="28.7173750" lon="-17.9325780">
        <ele>1151.1</ele>
        <time>2020-11-16T19:11:35Z</time>
      </trkpt>
      <trkpt lat="28.7173150" lon="-17.9325870">
        <ele>1150.7</ele>
        <time>2020-11-16T19:11:36Z</time>
      </trkpt>
      <trkpt lat="28.7172840" lon="-17.9325830">
        <ele>1150.5</ele>
        <time>2020-11-16T19:11:37Z</time>
      </trkpt>
      <trkpt lat="28.7172530" lon="-17.9325800">
        <ele>1150.2</ele>
        <time>2020-11-16T19:11:38Z</time>
      </trkpt>
      <trkpt lat="28.7172530" lon="-17.9325800">
        <ele>1150.2</ele>
        <time>2020-11-16T19:11:39Z</time>
      </trkpt>
      <trkpt lat="28.7172000" lon="-17.9325530">
        <ele>1149.8</ele>
        <time>2020-11-16T19:11:40Z</time>
      </trkpt>
      <trkpt lat="28.7172000" lon="-17.9325530">
        <ele>1149.8</ele>
        <time>2020-11-16T19:11:41Z</time>
      </trkpt>
      <trkpt lat="28.7171500" lon="-17.9325220">
        <ele>1149.4</ele>
        <time>2020-11-16T19:11:42Z</time>
      </trkpt>
      <trkpt lat="28.7171120" lon="-17.9324880">
        <ele>1149.0</ele>
        <time>2020-11-16T19:11:43Z</time>
      </trkpt>
      <trkpt lat="28.7171120" lon="-17.9324880">
        <ele>1149.0</ele>
        <time>2020-11-16T19:11:44Z</time>
      </trkpt>
      <trkpt lat="28.7170770" lon="-17.9324550">
        <ele>1148.6</ele>
        <time>2020-11-16T19:11:45Z</time>
      </trkpt>
      <trkpt lat="28.7170770" lon="-17.9324550">
        <ele>1148.6</ele>
        <time>2020-11-16T19:11:46Z</time>
      </trkpt>
      <trkpt lat="28.7170770" lon="-17.9324550">
        <ele>1148.6</ele>
        <time>2020-11-16T19:11:47Z</time>
      </trkpt>
      <trkpt lat="28.7170350" lon="-17.9324170">
        <ele>1148.1</ele>
        <time>2020-11-16T19:11:48Z</time>
      </trkpt>
      <trkpt lat="28.7170350" lon="-17.9324170">
        <ele>1148.1</ele>
        <time>2020-11-16T19:11:49Z</time>
      </trkpt>
      <trkpt lat="28.7169760" lon="-17.9323750">
        <ele>1147.4</ele>
        <time>2020-11-16T19:11:50Z</time>
      </trkpt>
      <trkpt lat="28.7169570" lon="-17.9323670">
        <ele>1146.8</ele>
        <time>2020-11-16T19:11:51Z</time>
      </trkpt>
      <trkpt lat="28.7169570" lon="-17.9323670">
        <ele>1146.8</ele>
        <time>2020-11-16T19:11:52Z</time>
      </trkpt>
      <trkpt lat="28.7169130" lon="-17.9323700">
        <ele>1145.7</ele>
        <time>2020-11-16T19:11:53Z</time>
      </trkpt>
      <trkpt lat="28.7169130" lon="-17.9323700">
        <ele>1145.7</ele>
        <time>2020-11-16T19:11:54Z</time>
      </trkpt>
      <trkpt lat="28.7169030" lon="-17.9323620">
        <ele>1145.4</ele>
        <time>2020-11-16T19:11:55Z</time>
      </trkpt>
      <trkpt lat="28.7169030" lon="-17.9323620">
        <ele>1145.4</ele>
        <time>2020-11-16T19:11:56Z</time>
      </trkpt>
      <trkpt lat="28.7169030" lon="-17.9323620">
        <ele>1145.4</ele>
        <time>2020-11-16T19:11:57Z</time>
      </trkpt>
      <trkpt lat="28.7169020" lon="-17.9323580">
        <ele>1145.3</ele>
        <time>2020-11-16T19:11:58Z</time>
      </trkpt>
      <trkpt lat="28.7168650" lon="-17.9323980">
        <ele>1144.1</ele>
        <time>2020-11-16T19:13:16Z</time>
      </trkpt>
      <trkpt lat="28.7168650" lon="-17.9323980">
        <ele>1144.1</ele>
        <time>2020-11-16T19:13:17Z</time>
      </trkpt>
      <trkpt lat="28.7168650" lon="-17.9324150">
        <ele>1143.7</ele>
        <time>2020-11-16T19:13:18Z</time>
      </trkpt>
      <trkpt lat="28.7168650" lon="-17.9324150">
        <ele>1143.7</ele>
        <time>2020-11-16T19:13:19Z</time>
      </trkpt>
      <trkpt lat="28.7168730" lon="-17.9324600">
        <ele>1142.7</ele>
        <time>2020-11-16T19:13:20Z</time>
      </trkpt>
      <trkpt lat="28.7168730" lon="-17.9324600">
        <ele>1142.7</ele>
        <time>2020-11-16T19:13:21Z</time>
      </trkpt>
      <trkpt lat="28.7168880" lon="-17.9325150">
        <ele>1141.4</ele>
        <time>2020-11-16T19:13:22Z</time>
      </trkpt>
      <trkpt lat="28.7169000" lon="-17.9325450">
        <ele>1140.7</ele>
        <time>2020-11-16T19:13:23Z</time>
      </trkpt>
      <trkpt lat="28.7169000" lon="-17.9325450">
        <ele>1140.7</ele>
        <time>2020-11-16T19:13:24Z</time>
      </trkpt>
      <trkpt lat="28.7169280" lon="-17.9325930">
        <ele>1139.4</ele>
        <time>2020-11-16T19:13:25Z</time>
      </trkpt>
      <trkpt lat="28.7169280" lon="-17.9325930">
        <ele>1139.4</ele>
        <time>2020-11-16T19:13:26Z</time>
      </trkpt>
      <trkpt lat="28.7169670" lon="-17.9326330">
        <ele>1136.7</ele>
        <time>2020-11-16T19:13:27Z</time>
      </trkpt>
      <trkpt lat="28.7169830" lon="-17.9326500">
        <ele>1136.7</ele>
        <time>2020-11-16T19:13:28Z</time>
      </trkpt>
      <trkpt lat="28.7169830" lon="-17.9326500">
        <ele>1136.7</ele>
        <time>2020-11-16T19:13:29Z</time>
      </trkpt>
      <trkpt lat="28.7170150" lon="-17.9326820">
        <ele>1136.5</ele>
        <time>2020-11-16T19:13:30Z</time>
      </trkpt>
      <trkpt lat="28.7170200" lon="-17.9327020">
        <ele>1136.5</ele>
        <time>2020-11-16T19:13:31Z</time>
      </trkpt>
      <trkpt lat="28.7170200" lon="-17.9327020">
        <ele>1136.5</ele>
        <time>2020-11-16T19:13:32Z</time>
      </trkpt>
      <trkpt lat="28.7170070" lon="-17.9327220">
        <ele>1136.4</ele>
        <time>2020-11-16T19:13:33Z</time>
      </trkpt>
      <trkpt lat="28.7169920" lon="-17.9327170">
        <ele>1136.4</ele>
        <time>2020-11-16T19:13:34Z</time>
      </trkpt>
      <trkpt lat="28.7169920" lon="-17.9327170">
        <ele>1136.4</ele>
        <time>2020-11-16T19:13:35Z</time>
      </trkpt>
      <trkpt lat="28.7169570" lon="-17.9327070">
        <ele>1136.2</ele>
        <time>2020-11-16T19:13:36Z</time>
      </trkpt>
      <trkpt lat="28.7169570" lon="-17.9327070">
        <ele>1136.2</ele>
        <time>2020-11-16T19:13:37Z</time>
      </trkpt>
      <trkpt lat="28.7169200" lon="-17.9326970">
        <ele>1136.1</ele>
        <time>2020-11-16T19:13:38Z</time>
      </trkpt>
      <trkpt lat="28.7169200" lon="-17.9326970">
        <ele>1136.1</ele>
        <time>2020-11-16T19:13:39Z</time>
      </trkpt>
      <trkpt lat="28.7169100" lon="-17.9326920">
        <ele>1136.0</ele>
        <time>2020-11-16T19:13:40Z</time>
      </trkpt>
      <trkpt lat="28.7169100" lon="-17.9326920">
        <ele>1136.0</ele>
        <time>2020-11-16T19:13:41Z</time>
      </trkpt>
      <trkpt lat="28.7169070" lon="-17.9326880">
        <ele>1136.0</ele>
        <time>2020-11-16T19:13:42Z</time>
      </trkpt>
      <trkpt lat="28.7169070" lon="-17.9326880">
        <ele>1136.0</ele>
        <time>2020-11-16T19:13:46Z</time>
      </trkpt>
      <trkpt lat="28.7168280" lon="-17.9326300">
        <ele>1135.5</ele>
        <time>2020-11-16T19:13:47Z</time>
      </trkpt>
      <trkpt lat="28.7168280" lon="-17.9326300">
        <ele>1135.5</ele>
        <time>2020-11-16T19:13:48Z</time>
      </trkpt>
      <trkpt lat="28.7168030" lon="-17.9325830">
        <ele>1135.4</ele>
        <time>2020-11-16T19:13:49Z</time>
      </trkpt>
      <trkpt lat="28.7168030" lon="-17.9325830">
        <ele>1135.4</ele>
        <time>2020-11-16T19:13:50Z</time>
      </trkpt>
      <trkpt lat="28.7167870" lon="-17.9325270">
        <ele>1135.2</ele>
        <time>2020-11-16T19:13:51Z</time>
      </trkpt>
      <trkpt lat="28.7167780" lon="-17.9324950">
        <ele>1135.1</ele>
        <time>2020-11-16T19:13:52Z</time>
      </trkpt>
      <trkpt lat="28.7167780" lon="-17.9324950">
        <ele>1135.1</ele>
        <time>2020-11-16T19:13:53Z</time>
      </trkpt>
      <trkpt lat="28.7167700" lon="-17.9324230">
        <ele>1134.9</ele>
        <time>2020-11-16T19:13:54Z</time>
      </trkpt>
      <trkpt lat="28.7167730" lon="-17.9323830">
        <ele>1134.9</ele>
        <time>2020-11-16T19:13:55Z</time>
      </trkpt>
      <trkpt lat="28.7167780" lon="-17.9323550">
        <ele>1134.8</ele>
        <time>2020-11-16T19:13:56Z</time>
      </trkpt>
      <trkpt lat="28.7167780" lon="-17.9323550">
        <ele>1134.8</ele>
        <time>2020-11-16T19:13:57Z</time>
      </trkpt>
      <trkpt lat="28.7167880" lon="-17.9323100">
        <ele>1134.7</ele>
        <time>2020-11-16T19:13:58Z</time>
      </trkpt>
      <trkpt lat="28.7167880" lon="-17.9323100">
        <ele>1134.7</ele>
        <time>2020-11-16T19:13:59Z</time>
      </trkpt>
      <trkpt lat="28.7168020" lon="-17.9322580">
        <ele>1134.6</ele>
        <time>2020-11-16T19:14:00Z</time>
      </trkpt>
      <trkpt lat="28.7168020" lon="-17.9322580">
        <ele>1134.6</ele>
        <time>2020-11-16T19:14:01Z</time>
      </trkpt>
      <trkpt lat="28.7168080" lon="-17.9322070">
        <ele>1134.4</ele>
        <time>2020-11-16T19:14:02Z</time>
      </trkpt>
      <trkpt lat="28.7168080" lon="-17.9322070">
        <ele>1134.4</ele>
        <time>2020-11-16T19:14:03Z</time>
      </trkpt>
      <trkpt lat="28.7168030" lon="-17.9321450">
        <ele>1134.1</ele>
        <time>2020-11-16T19:14:04Z</time>
      </trkpt>
      <trkpt lat="28.7167970" lon="-17.9321130">
        <ele>1133.9</ele>
        <time>2020-11-16T19:14:05Z</time>
      </trkpt>
      <trkpt lat="28.7167970" lon="-17.9321130">
        <ele>1133.9</ele>
        <time>2020-11-16T19:14:06Z</time>
      </trkpt>
      <trkpt lat="28.7167820" lon="-17.9320500">
        <ele>1133.5</ele>
        <time>2020-11-16T19:14:07Z</time>
      </trkpt>
      <trkpt lat="28.7167750" lon="-17.9320230">
        <ele>1133.3</ele>
        <time>2020-11-16T19:14:08Z</time>
      </trkpt>
      <trkpt lat="28.7167750" lon="-17.9320230">
        <ele>1133.3</ele>
        <time>2020-11-16T19:14:09Z</time>
      </trkpt>
      <trkpt lat="28.7167530" lon="-17.9319600">
        <ele>1132.8</ele>
        <time>2020-11-16T19:14:10Z</time>
      </trkpt>
      <trkpt lat="28.7167530" lon="-17.9319600">
        <ele>1132.8</ele>
        <time>2020-11-16T19:14:11Z</time>
      </trkpt>
      <trkpt lat="28.7167250" lon="-17.9319000">
        <ele>1132.2</ele>
        <time>2020-11-16T19:14:12Z</time>
      </trkpt>
      <trkpt lat="28.7167070" lon="-17.9318800">
        <ele>1131.9</ele>
        <time>2020-11-16T19:14:13Z</time>
      </trkpt>
      <trkpt lat="28.7167070" lon="-17.9318800">
        <ele>1131.9</ele>
        <time>2020-11-16T19:14:14Z</time>
      </trkpt>
      <trkpt lat="28.7166730" lon="-17.9318450">
        <ele>1131.4</ele>
        <time>2020-11-16T19:14:15Z</time>
      </trkpt>
      <trkpt lat="28.7166730" lon="-17.9318450">
        <ele>1131.4</ele>
        <time>2020-11-16T19:14:16Z</time>
      </trkpt>
      <trkpt lat="28.7166500" lon="-17.9318230">
        <ele>1131.4</ele>
        <time>2020-11-16T19:14:17Z</time>
      </trkpt>
      <trkpt lat="28.7166500" lon="-17.9318230">
        <ele>1131.4</ele>
        <time>2020-11-16T19:14:18Z</time>
      </trkpt>
      <trkpt lat="28.7166380" lon="-17.9318230">
        <ele>1131.5</ele>
        <time>2020-11-16T19:14:19Z</time>
      </trkpt>
      <trkpt lat="28.7166380" lon="-17.9318230">
        <ele>1131.5</ele>
        <time>2020-11-16T19:14:20Z</time>
      </trkpt>
      <trkpt lat="28.7166230" lon="-17.9318230">
        <ele>1131.7</ele>
        <time>2020-11-16T19:14:21Z</time>
      </trkpt>
      <trkpt lat="28.7166230" lon="-17.9318230">
        <ele>1131.7</ele>
        <time>2020-11-16T19:14:22Z</time>
      </trkpt>
      <trkpt lat="28.7166300" lon="-17.9318130">
        <ele>1131.9</ele>
        <time>2020-11-16T19:15:23Z</time>
      </trkpt>
      <trkpt lat="28.7166920" lon="-17.9318280">
        <ele>1132.6</ele>
        <time>2020-11-16T19:15:24Z</time>
      </trkpt>
      <trkpt lat="28.7166920" lon="-17.9318280">
        <ele>1132.6</ele>
        <time>2020-11-16T19:15:25Z</time>
      </trkpt>
      <trkpt lat="28.7167070" lon="-17.9318350">
        <ele>1132.7</ele>
        <time>2020-11-16T19:15:26Z</time>
      </trkpt>
      <trkpt lat="28.7167070" lon="-17.9318350">
        <ele>1132.7</ele>
        <time>2020-11-16T19:15:27Z</time>
      </trkpt>
      <trkpt lat="28.7167020" lon="-17.9318500">
        <ele>1132.9</ele>
        <time>2020-11-16T19:15:28Z</time>
      </trkpt>
      <trkpt lat="28.7167020" lon="-17.9318500">
        <ele>1132.9</ele>
        <time>2020-11-16T19:15:29Z</time>
      </trkpt>
      <trkpt lat="28.7167020" lon="-17.9318670">
        <ele>1133.0</ele>
        <time>2020-11-16T19:15:30Z</time>
      </trkpt>
      <trkpt lat="28.7167020" lon="-17.9318670">
        <ele>1133.0</ele>
        <time>2020-11-16T19:15:31Z</time>
      </trkpt>
      <trkpt lat="28.7167100" lon="-17.9318800">
        <ele>1133.1</ele>
        <time>2020-11-16T19:15:32Z</time>
      </trkpt>
      <trkpt lat="28.7167100" lon="-17.9318800">
        <ele>1133.1</ele>
        <time>2020-11-16T19:15:33Z</time>
      </trkpt>
      <trkpt lat="28.7167180" lon="-17.9318950">
        <ele>1133.2</ele>
        <time>2020-11-16T19:15:34Z</time>
      </trkpt>
      <trkpt lat="28.7167180" lon="-17.9318950">
        <ele>1133.2</ele>
        <time>2020-11-16T19:15:35Z</time>
      </trkpt>
      <trkpt lat="28.7167250" lon="-17.9319120">
        <ele>1133.4</ele>
        <time>2020-11-16T19:15:36Z</time>
      </trkpt>
      <trkpt lat="28.7167250" lon="-17.9319120">
        <ele>1133.4</ele>
        <time>2020-11-16T19:15:37Z</time>
      </trkpt>
      <trkpt lat="28.7167330" lon="-17.9319250">
        <ele>1133.5</ele>
        <time>2020-11-16T19:15:38Z</time>
      </trkpt>
      <trkpt lat="28.7167330" lon="-17.9319250">
        <ele>1133.5</ele>
        <time>2020-11-16T19:15:39Z</time>
      </trkpt>
      <trkpt lat="28.7167380" lon="-17.9319520">
        <ele>1133.7</ele>
        <time>2020-11-16T19:15:40Z</time>
      </trkpt>
      <trkpt lat="28.7167380" lon="-17.9319520">
        <ele>1133.7</ele>
        <time>2020-11-16T19:15:41Z</time>
      </trkpt>
      <trkpt lat="28.7167430" lon="-17.9319750">
        <ele>1133.8</ele>
        <time>2020-11-16T19:15:42Z</time>
      </trkpt>
      <trkpt lat="28.7167430" lon="-17.9319750">
        <ele>1133.8</ele>
        <time>2020-11-16T19:15:43Z</time>
      </trkpt>
      <trkpt lat="28.7167550" lon="-17.9319970">
        <ele>1134.0</ele>
        <time>2020-11-16T19:15:44Z</time>
      </trkpt>
      <trkpt lat="28.7167550" lon="-17.9319970">
        <ele>1134.0</ele>
        <time>2020-11-16T19:15:45Z</time>
      </trkpt>
      <trkpt lat="28.7167680" lon="-17.9320150">
        <ele>1134.1</ele>
        <time>2020-11-16T19:15:46Z</time>
      </trkpt>
      <trkpt lat="28.7167680" lon="-17.9320150">
        <ele>1134.1</ele>
        <time>2020-11-16T19:15:47Z</time>
      </trkpt>
      <trkpt lat="28.7167770" lon="-17.9320320">
        <ele>1134.2</ele>
        <time>2020-11-16T19:15:48Z</time>
      </trkpt>
      <trkpt lat="28.7167820" lon="-17.9320420">
        <ele>1134.3</ele>
        <time>2020-11-16T19:15:49Z</time>
      </trkpt>
      <trkpt lat="28.7167820" lon="-17.9320420">
        <ele>1134.3</ele>
        <time>2020-11-16T19:15:50Z</time>
      </trkpt>
      <trkpt lat="28.7167830" lon="-17.9320650">
        <ele>1134.4</ele>
        <time>2020-11-16T19:15:51Z</time>
      </trkpt>
      <trkpt lat="28.7167830" lon="-17.9320650">
        <ele>1134.4</ele>
        <time>2020-11-16T19:15:52Z</time>
      </trkpt>
      <trkpt lat="28.7167870" lon="-17.9320770">
        <ele>1134.4</ele>
        <time>2020-11-16T19:15:53Z</time>
      </trkpt>
      <trkpt lat="28.7167870" lon="-17.9320770">
        <ele>1134.4</ele>
        <time>2020-11-16T19:15:54Z</time>
      </trkpt>
      <trkpt lat="28.7167830" lon="-17.9321080">
        <ele>1134.6</ele>
        <time>2020-11-16T19:15:55Z</time>
      </trkpt>
      <trkpt lat="28.7167830" lon="-17.9321080">
        <ele>1134.6</ele>
        <time>2020-11-16T19:15:56Z</time>
      </trkpt>
      <trkpt lat="28.7167830" lon="-17.9321350">
        <ele>1134.6</ele>
        <time>2020-11-16T19:15:57Z</time>
      </trkpt>
      <trkpt lat="28.7167830" lon="-17.9321350">
        <ele>1134.6</ele>
        <time>2020-11-16T19:15:58Z</time>
      </trkpt>
      <trkpt lat="28.7167870" lon="-17.9321570">
        <ele>1134.7</ele>
        <time>2020-11-16T19:15:59Z</time>
      </trkpt>
      <trkpt lat="28.7167870" lon="-17.9321570">
        <ele>1134.7</ele>
        <time>2020-11-16T19:16:00Z</time>
      </trkpt>
      <trkpt lat="28.7167870" lon="-17.9321800">
        <ele>1134.7</ele>
        <time>2020-11-16T19:16:01Z</time>
      </trkpt>
      <trkpt lat="28.7167880" lon="-17.9321950">
        <ele>1134.8</ele>
        <time>2020-11-16T19:16:02Z</time>
      </trkpt>
      <trkpt lat="28.7167880" lon="-17.9321950">
        <ele>1134.8</ele>
        <time>2020-11-16T19:16:03Z</time>
      </trkpt>
      <trkpt lat="28.7167830" lon="-17.9322230">
        <ele>1134.8</ele>
        <time>2020-11-16T19:16:04Z</time>
      </trkpt>
      <trkpt lat="28.7167830" lon="-17.9322230">
        <ele>1134.8</ele>
        <time>2020-11-16T19:16:05Z</time>
      </trkpt>
      <trkpt lat="28.7167680" lon="-17.9322570">
        <ele>1134.9</ele>
        <time>2020-11-16T19:16:06Z</time>
      </trkpt>
      <trkpt lat="28.7167600" lon="-17.9322730">
        <ele>1134.9</ele>
        <time>2020-11-16T19:16:07Z</time>
      </trkpt>
      <trkpt lat="28.7167600" lon="-17.9322730">
        <ele>1134.9</ele>
        <time>2020-11-16T19:16:08Z</time>
      </trkpt>
      <trkpt lat="28.7167570" lon="-17.9323020">
        <ele>1135.0</ele>
        <time>2020-11-16T19:16:09Z</time>
      </trkpt>
      <trkpt lat="28.7167570" lon="-17.9323020">
        <ele>1135.0</ele>
        <time>2020-11-16T19:16:10Z</time>
      </trkpt>
      <trkpt lat="28.7167550" lon="-17.9323280">
        <ele>1135.0</ele>
        <time>2020-11-16T19:16:11Z</time>
      </trkpt>
      <trkpt lat="28.7167550" lon="-17.9323280">
        <ele>1135.0</ele>
        <time>2020-11-16T19:16:12Z</time>
      </trkpt>
      <trkpt lat="28.7167570" lon="-17.9323570">
        <ele>1135.1</ele>
        <time>2020-11-16T19:16:13Z</time>
      </trkpt>
      <trkpt lat="28.7167570" lon="-17.9323570">
        <ele>1135.1</ele>
        <time>2020-11-16T19:16:14Z</time>
      </trkpt>
      <trkpt lat="28.7167580" lon="-17.9323850">
        <ele>1135.2</ele>
        <time>2020-11-16T19:16:15Z</time>
      </trkpt>
      <trkpt lat="28.7167580" lon="-17.9323850">
        <ele>1135.2</ele>
        <time>2020-11-16T19:16:16Z</time>
      </trkpt>
      <trkpt lat="28.7167670" lon="-17.9324100">
        <ele>1135.2</ele>
        <time>2020-11-16T19:16:17Z</time>
      </trkpt>
      <trkpt lat="28.7167700" lon="-17.9324220">
        <ele>1135.3</ele>
        <time>2020-11-16T19:16:18Z</time>
      </trkpt>
      <trkpt lat="28.7167700" lon="-17.9324220">
        <ele>1135.3</ele>
        <time>2020-11-16T19:16:19Z</time>
      </trkpt>
      <trkpt lat="28.7167730" lon="-17.9324470">
        <ele>1135.4</ele>
        <time>2020-11-16T19:16:20Z</time>
      </trkpt>
      <trkpt lat="28.7167730" lon="-17.9324470">
        <ele>1135.4</ele>
        <time>2020-11-16T19:16:21Z</time>
      </trkpt>
      <trkpt lat="28.7167820" lon="-17.9324750">
        <ele>1135.5</ele>
        <time>2020-11-16T19:16:22Z</time>
      </trkpt>
      <trkpt lat="28.7167850" lon="-17.9324850">
        <ele>1135.5</ele>
        <time>2020-11-16T19:16:23Z</time>
      </trkpt>
      <trkpt lat="28.7167850" lon="-17.9324850">
        <ele>1135.5</ele>
        <time>2020-11-16T19:16:24Z</time>
      </trkpt>
      <trkpt lat="28.7167900" lon="-17.9325100">
        <ele>1135.6</ele>
        <time>2020-11-16T19:16:25Z</time>
      </trkpt>
      <trkpt lat="28.7167930" lon="-17.9325250">
        <ele>1135.7</ele>
        <time>2020-11-16T19:16:26Z</time>
      </trkpt>
      <trkpt lat="28.7168000" lon="-17.9325380">
        <ele>1135.8</ele>
        <time>2020-11-16T19:16:27Z</time>
      </trkpt>
      <trkpt lat="28.7168000" lon="-17.9325380">
        <ele>1135.8</ele>
        <time>2020-11-16T19:16:28Z</time>
      </trkpt>
      <trkpt lat="28.7168150" lon="-17.9325670">
        <ele>1135.9</ele>
        <time>2020-11-16T19:16:29Z</time>
      </trkpt>
      <trkpt lat="28.7168220" lon="-17.9325820">
        <ele>1136.0</ele>
        <time>2020-11-16T19:16:30Z</time>
      </trkpt>
      <trkpt lat="28.7168220" lon="-17.9325820">
        <ele>1136.0</ele>
        <time>2020-11-16T19:16:31Z</time>
      </trkpt>
      <trkpt lat="28.7168330" lon="-17.9326050">
        <ele>1136.1</ele>
        <time>2020-11-16T19:16:32Z</time>
      </trkpt>
      <trkpt lat="28.7168330" lon="-17.9326050">
        <ele>1136.1</ele>
        <time>2020-11-16T19:16:33Z</time>
      </trkpt>
      <trkpt lat="28.7168500" lon="-17.9326320">
        <ele>1136.2</ele>
        <time>2020-11-16T19:16:34Z</time>
      </trkpt>
      <trkpt lat="28.7168500" lon="-17.9326320">
        <ele>1136.2</ele>
        <time>2020-11-16T19:16:35Z</time>
      </trkpt>
      <trkpt lat="28.7168720" lon="-17.9326450">
        <ele>1136.3</ele>
        <time>2020-11-16T19:16:36Z</time>
      </trkpt>
      <trkpt lat="28.7168830" lon="-17.9326470">
        <ele>1136.3</ele>
        <time>2020-11-16T19:16:37Z</time>
      </trkpt>
      <trkpt lat="28.7168830" lon="-17.9326470">
        <ele>1136.3</ele>
        <time>2020-11-16T19:16:38Z</time>
      </trkpt>
      <trkpt lat="28.7168980" lon="-17.9326620">
        <ele>1136.4</ele>
        <time>2020-11-16T19:16:39Z</time>
      </trkpt>
      <trkpt lat="28.7168980" lon="-17.9326620">
        <ele>1136.4</ele>
        <time>2020-11-16T19:16:40Z</time>
      </trkpt>
      <trkpt lat="28.7169200" lon="-17.9326730">
        <ele>1136.5</ele>
        <time>2020-11-16T19:16:41Z</time>
      </trkpt>
      <trkpt lat="28.7169300" lon="-17.9326800">
        <ele>1136.5</ele>
        <time>2020-11-16T19:16:42Z</time>
      </trkpt>
      <trkpt lat="28.7169300" lon="-17.9326800">
        <ele>1136.5</ele>
        <time>2020-11-16T19:16:43Z</time>
      </trkpt>
      <trkpt lat="28.7169480" lon="-17.9326880">
        <ele>1136.6</ele>
        <time>2020-11-16T19:16:44Z</time>
      </trkpt>
      <trkpt lat="28.7169480" lon="-17.9326880">
        <ele>1136.6</ele>
        <time>2020-11-16T19:16:45Z</time>
      </trkpt>
      <trkpt lat="28.7169650" lon="-17.9326980">
        <ele>1136.6</ele>
        <time>2020-11-16T19:16:46Z</time>
      </trkpt>
      <trkpt lat="28.7169650" lon="-17.9326980">
        <ele>1136.6</ele>
        <time>2020-11-16T19:16:47Z</time>
      </trkpt>
      <trkpt lat="28.7169880" lon="-17.9326980">
        <ele>1136.7</ele>
        <time>2020-11-16T19:16:48Z</time>
      </trkpt>
      <trkpt lat="28.7169880" lon="-17.9326980">
        <ele>1136.7</ele>
        <time>2020-11-16T19:16:49Z</time>
      </trkpt>
      <trkpt lat="28.7169950" lon="-17.9326950">
        <ele>1136.7</ele>
        <time>2020-11-16T19:16:50Z</time>
      </trkpt>
      <trkpt lat="28.7169370" lon="-17.9326250">
        <ele>1138.9</ele>
        <time>2020-11-16T19:17:00Z</time>
      </trkpt>
      <trkpt lat="28.7169370" lon="-17.9326250">
        <ele>1138.9</ele>
        <time>2020-11-16T19:17:01Z</time>
      </trkpt>
      <trkpt lat="28.7169280" lon="-17.9326000">
        <ele>1139.6</ele>
        <time>2020-11-16T19:17:02Z</time>
      </trkpt>
      <trkpt lat="28.7169280" lon="-17.9326000">
        <ele>1139.6</ele>
        <time>2020-11-16T19:17:03Z</time>
      </trkpt>
      <trkpt lat="28.7169170" lon="-17.9325800">
        <ele>1140.2</ele>
        <time>2020-11-16T19:17:04Z</time>
      </trkpt>
      <trkpt lat="28.7169170" lon="-17.9325800">
        <ele>1140.2</ele>
        <time>2020-11-16T19:17:05Z</time>
      </trkpt>
      <trkpt lat="28.7169070" lon="-17.9325550">
        <ele>1140.9</ele>
        <time>2020-11-16T19:17:06Z</time>
      </trkpt>
      <trkpt lat="28.7169070" lon="-17.9325550">
        <ele>1140.9</ele>
        <time>2020-11-16T19:17:07Z</time>
      </trkpt>
      <trkpt lat="28.7169000" lon="-17.9325280">
        <ele>1141.7</ele>
        <time>2020-11-16T19:17:08Z</time>
      </trkpt>
      <trkpt lat="28.7169000" lon="-17.9325280">
        <ele>1141.7</ele>
        <time>2020-11-16T19:17:09Z</time>
      </trkpt>
      <trkpt lat="28.7168980" lon="-17.9324980">
        <ele>1142.5</ele>
        <time>2020-11-16T19:17:10Z</time>
      </trkpt>
      <trkpt lat="28.7168980" lon="-17.9324980">
        <ele>1142.5</ele>
        <time>2020-11-16T19:17:11Z</time>
      </trkpt>
      <trkpt lat="28.7168980" lon="-17.9324770">
        <ele>1143.0</ele>
        <time>2020-11-16T19:17:12Z</time>
      </trkpt>
      <trkpt lat="28.7168980" lon="-17.9324770">
        <ele>1143.0</ele>
        <time>2020-11-16T19:17:13Z</time>
      </trkpt>
      <trkpt lat="28.7168950" lon="-17.9324500">
        <ele>1143.7</ele>
        <time>2020-11-16T19:17:14Z</time>
      </trkpt>
      <trkpt lat="28.7168950" lon="-17.9324500">
        <ele>1143.7</ele>
        <time>2020-11-16T19:17:15Z</time>
      </trkpt>
      <trkpt lat="28.7168950" lon="-17.9324200">
        <ele>1144.5</ele>
        <time>2020-11-16T19:17:16Z</time>
      </trkpt>
      <trkpt lat="28.7168980" lon="-17.9324070">
        <ele>1144.8</ele>
        <time>2020-11-16T19:17:17Z</time>
      </trkpt>
      <trkpt lat="28.7168980" lon="-17.9324070">
        <ele>1144.8</ele>
        <time>2020-11-16T19:17:18Z</time>
      </trkpt>
      <trkpt lat="28.7169130" lon="-17.9323870">
        <ele>1145.5</ele>
        <time>2020-11-16T19:17:19Z</time>
      </trkpt>
      <trkpt lat="28.7169230" lon="-17.9323780">
        <ele>1145.9</ele>
        <time>2020-11-16T19:17:20Z</time>
      </trkpt>
      <trkpt lat="28.7169230" lon="-17.9323780">
        <ele>1145.9</ele>
        <time>2020-11-16T19:17:21Z</time>
      </trkpt>
      <trkpt lat="28.7169420" lon="-17.9323700">
        <ele>1146.5</ele>
        <time>2020-11-16T19:17:22Z</time>
      </trkpt>
      <trkpt lat="28.7169420" lon="-17.9323700">
        <ele>1146.5</ele>
        <time>2020-11-16T19:17:23Z</time>
      </trkpt>
      <trkpt lat="28.7169620" lon="-17.9323620">
        <ele>1147.1</ele>
        <time>2020-11-16T19:17:24Z</time>
      </trkpt>
      <trkpt lat="28.7169730" lon="-17.9323620">
        <ele>1147.4</ele>
        <time>2020-11-16T19:17:25Z</time>
      </trkpt>
      <trkpt lat="28.7169730" lon="-17.9323620">
        <ele>1147.4</ele>
        <time>2020-11-16T19:17:26Z</time>
      </trkpt>
      <trkpt lat="28.7169950" lon="-17.9323750">
        <ele>1147.7</ele>
        <time>2020-11-16T19:17:27Z</time>
      </trkpt>
      <trkpt lat="28.7169950" lon="-17.9323750">
        <ele>1147.7</ele>
        <time>2020-11-16T19:17:28Z</time>
      </trkpt>
      <trkpt lat="28.7170150" lon="-17.9323920">
        <ele>1148.0</ele>
        <time>2020-11-16T19:17:29Z</time>
      </trkpt>
      <trkpt lat="28.7170150" lon="-17.9323920">
        <ele>1148.0</ele>
        <time>2020-11-16T19:17:30Z</time>
      </trkpt>
      <trkpt lat="28.7170370" lon="-17.9324030">
        <ele>1148.3</ele>
        <time>2020-11-16T19:17:31Z</time>
      </trkpt>
      <trkpt lat="28.7170470" lon="-17.9324080">
        <ele>1148.4</ele>
        <time>2020-11-16T19:17:32Z</time>
      </trkpt>
      <trkpt lat="28.7170470" lon="-17.9324080">
        <ele>1148.4</ele>
        <time>2020-11-16T19:17:33Z</time>
      </trkpt>
      <trkpt lat="28.7170500" lon="-17.9324420">
        <ele>1148.7</ele>
        <time>2020-11-16T19:17:53Z</time>
      </trkpt>
      <trkpt lat="28.7170500" lon="-17.9324420">
        <ele>1148.7</ele>
        <time>2020-11-16T19:17:54Z</time>
      </trkpt>
      <trkpt lat="28.7170700" lon="-17.9324550">
        <ele>1148.9</ele>
        <time>2020-11-16T19:17:55Z</time>
      </trkpt>
      <trkpt lat="28.7170700" lon="-17.9324550">
        <ele>1148.9</ele>
        <time>2020-11-16T19:17:56Z</time>
      </trkpt>
      <trkpt lat="28.7170920" lon="-17.9324670">
        <ele>1149.1</ele>
        <time>2020-11-16T19:17:57Z</time>
      </trkpt>
      <trkpt lat="28.7170920" lon="-17.9324670">
        <ele>1149.1</ele>
        <time>2020-11-16T19:17:58Z</time>
      </trkpt>
      <trkpt lat="28.7171120" lon="-17.9324800">
        <ele>1149.3</ele>
        <time>2020-11-16T19:17:59Z</time>
      </trkpt>
      <trkpt lat="28.7171120" lon="-17.9324800">
        <ele>1149.3</ele>
        <time>2020-11-16T19:18:00Z</time>
      </trkpt>
      <trkpt lat="28.7171430" lon="-17.9324880">
        <ele>1149.6</ele>
        <time>2020-11-16T19:18:01Z</time>
      </trkpt>
      <trkpt lat="28.7171430" lon="-17.9324880">
        <ele>1149.6</ele>
        <time>2020-11-16T19:18:02Z</time>
      </trkpt>
      <trkpt lat="28.7171680" lon="-17.9325000">
        <ele>1149.8</ele>
        <time>2020-11-16T19:18:03Z</time>
      </trkpt>
      <trkpt lat="28.7171680" lon="-17.9325000">
        <ele>1149.8</ele>
        <time>2020-11-16T19:18:04Z</time>
      </trkpt>
      <trkpt lat="28.7171730" lon="-17.9325030">
        <ele>1149.9</ele>
        <time>2020-11-16T19:18:05Z</time>
      </trkpt>
      <trkpt lat="28.7171720" lon="-17.9325030">
        <ele>1149.9</ele>
        <time>2020-11-16T19:18:06Z</time>
      </trkpt>
      <trkpt lat="28.7171720" lon="-17.9325030">
        <ele>1149.9</ele>
        <time>2020-11-16T19:18:27Z</time>
      </trkpt>
      <trkpt lat="28.7172050" lon="-17.9325300">
        <ele>1150.2</ele>
        <time>2020-11-16T19:18:28Z</time>
      </trkpt>
      <trkpt lat="28.7172050" lon="-17.9325300">
        <ele>1150.2</ele>
        <time>2020-11-16T19:18:29Z</time>
      </trkpt>
      <trkpt lat="28.7172250" lon="-17.9325430">
        <ele>1150.4</ele>
        <time>2020-11-16T19:18:30Z</time>
      </trkpt>
      <trkpt lat="28.7172250" lon="-17.9325430">
        <ele>1150.4</ele>
        <time>2020-11-16T19:18:31Z</time>
      </trkpt>
      <trkpt lat="28.7172470" lon="-17.9325520">
        <ele>1150.6</ele>
        <time>2020-11-16T19:18:32Z</time>
      </trkpt>
      <trkpt lat="28.7172580" lon="-17.9325580">
        <ele>1150.7</ele>
        <time>2020-11-16T19:18:33Z</time>
      </trkpt>
      <trkpt lat="28.7172580" lon="-17.9325580">
        <ele>1150.7</ele>
        <time>2020-11-16T19:18:34Z</time>
      </trkpt>
      <trkpt lat="28.7172820" lon="-17.9325730">
        <ele>1151.0</ele>
        <time>2020-11-16T19:18:35Z</time>
      </trkpt>
      <trkpt lat="28.7172820" lon="-17.9325730">
        <ele>1151.0</ele>
        <time>2020-11-16T19:18:36Z</time>
      </trkpt>
      <trkpt lat="28.7173080" lon="-17.9325780">
        <ele>1151.2</ele>
        <time>2020-11-16T19:18:37Z</time>
      </trkpt>
      <trkpt lat="28.7173200" lon="-17.9325820">
        <ele>1151.3</ele>
        <time>2020-11-16T19:18:38Z</time>
      </trkpt>
      <trkpt lat="28.7173200" lon="-17.9325820">
        <ele>1151.3</ele>
        <time>2020-11-16T19:18:39Z</time>
      </trkpt>
      <trkpt lat="28.7173480" lon="-17.9325750">
        <ele>1151.5</ele>
        <time>2020-11-16T19:18:40Z</time>
      </trkpt>
      <trkpt lat="28.7173480" lon="-17.9325750">
        <ele>1151.5</ele>
        <time>2020-11-16T19:18:41Z</time>
      </trkpt>
      <trkpt lat="28.7173750" lon="-17.9325750">
        <ele>1151.7</ele>
        <time>2020-11-16T19:18:42Z</time>
      </trkpt>
      <trkpt lat="28.7173750" lon="-17.9325750">
        <ele>1151.7</ele>
        <time>2020-11-16T19:18:43Z</time>
      </trkpt>
      <trkpt lat="28.7174070" lon="-17.9325700">
        <ele>1152.0</ele>
        <time>2020-11-16T19:18:44Z</time>
      </trkpt>
      <trkpt lat="28.7174070" lon="-17.9325700">
        <ele>1152.0</ele>
        <time>2020-11-16T19:18:45Z</time>
      </trkpt>
      <trkpt lat="28.7174330" lon="-17.9325570">
        <ele>1152.2</ele>
        <time>2020-11-16T19:18:46Z</time>
      </trkpt>
      <trkpt lat="28.7174470" lon="-17.9325500">
        <ele>1152.4</ele>
        <time>2020-11-16T19:18:47Z</time>
      </trkpt>
      <trkpt lat="28.7174470" lon="-17.9325500">
        <ele>1152.4</ele>
        <time>2020-11-16T19:18:48Z</time>
      </trkpt>
      <trkpt lat="28.7174730" lon="-17.9325380">
        <ele>1152.6</ele>
        <time>2020-11-16T19:18:49Z</time>
      </trkpt>
      <trkpt lat="28.7174730" lon="-17.9325380">
        <ele>1152.6</ele>
        <time>2020-11-16T19:18:50Z</time>
      </trkpt>
      <trkpt lat="28.7174970" lon="-17.9325250">
        <ele>1152.9</ele>
        <time>2020-11-16T19:18:51Z</time>
      </trkpt>
      <trkpt lat="28.7174970" lon="-17.9325250">
        <ele>1152.9</ele>
        <time>2020-11-16T19:18:52Z</time>
      </trkpt>
      <trkpt lat="28.7175180" lon="-17.9325130">
        <ele>1153.1</ele>
        <time>2020-11-16T19:18:53Z</time>
      </trkpt>
      <trkpt lat="28.7175180" lon="-17.9325130">
        <ele>1153.1</ele>
        <time>2020-11-16T19:18:54Z</time>
      </trkpt>
      <trkpt lat="28.7175400" lon="-17.9325000">
        <ele>1153.3</ele>
        <time>2020-11-16T19:18:55Z</time>
      </trkpt>
      <trkpt lat="28.7175520" lon="-17.9324920">
        <ele>1153.5</ele>
        <time>2020-11-16T19:18:56Z</time>
      </trkpt>
      <trkpt lat="28.7175520" lon="-17.9324920">
        <ele>1153.5</ele>
        <time>2020-11-16T19:18:57Z</time>
      </trkpt>
      <trkpt lat="28.7175750" lon="-17.9324600">
        <ele>1153.8</ele>
        <time>2020-11-16T19:18:58Z</time>
      </trkpt>
      <trkpt lat="28.7175750" lon="-17.9324600">
        <ele>1153.8</ele>
        <time>2020-11-16T19:18:59Z</time>
      </trkpt>
      <trkpt lat="28.7175900" lon="-17.9324450">
        <ele>1154.0</ele>
        <time>2020-11-16T19:19:00Z</time>
      </trkpt>
      <trkpt lat="28.7175900" lon="-17.9324450">
        <ele>1154.0</ele>
        <time>2020-11-16T19:19:01Z</time>
      </trkpt>
      <trkpt lat="28.7176080" lon="-17.9324330">
        <ele>1154.2</ele>
        <time>2020-11-16T19:19:02Z</time>
      </trkpt>
      <trkpt lat="28.7176080" lon="-17.9324330">
        <ele>1154.2</ele>
        <time>2020-11-16T19:19:03Z</time>
      </trkpt>
      <trkpt lat="28.7176250" lon="-17.9324300">
        <ele>1154.4</ele>
        <time>2020-11-16T19:19:04Z</time>
      </trkpt>
      <trkpt lat="28.7176370" lon="-17.9324250">
        <ele>1154.5</ele>
        <time>2020-11-16T19:19:05Z</time>
      </trkpt>
      <trkpt lat="28.7176520" lon="-17.9324270">
        <ele>1154.6</ele>
        <time>2020-11-16T19:19:06Z</time>
      </trkpt>
      <trkpt lat="28.7176520" lon="-17.9324270">
        <ele>1154.6</ele>
        <time>2020-11-16T19:19:07Z</time>
      </trkpt>
      <trkpt lat="28.7176750" lon="-17.9324230">
        <ele>1154.9</ele>
        <time>2020-11-16T19:19:08Z</time>
      </trkpt>
      <trkpt lat="28.7176750" lon="-17.9324230">
        <ele>1154.9</ele>
        <time>2020-11-16T19:19:09Z</time>
      </trkpt>
      <trkpt lat="28.7176950" lon="-17.9324180">
        <ele>1155.1</ele>
        <time>2020-11-16T19:19:10Z</time>
      </trkpt>
      <trkpt lat="28.7176950" lon="-17.9324180">
        <ele>1155.1</ele>
        <time>2020-11-16T19:19:11Z</time>
      </trkpt>
      <trkpt lat="28.7177180" lon="-17.9324150">
        <ele>1155.3</ele>
        <time>2020-11-16T19:19:12Z</time>
      </trkpt>
      <trkpt lat="28.7177250" lon="-17.9324100">
        <ele>1155.4</ele>
        <time>2020-11-16T19:19:13Z</time>
      </trkpt>
      <trkpt lat="28.7177250" lon="-17.9324100">
        <ele>1155.4</ele>
        <time>2020-11-16T19:19:14Z</time>
      </trkpt>
      <trkpt lat="28.7177420" lon="-17.9324020">
        <ele>1155.6</ele>
        <time>2020-11-16T19:19:15Z</time>
      </trkpt>
      <trkpt lat="28.7177420" lon="-17.9324020">
        <ele>1155.6</ele>
        <time>2020-11-16T19:19:16Z</time>
      </trkpt>
      <trkpt lat="28.7177580" lon="-17.9323900">
        <ele>1155.8</ele>
        <time>2020-11-16T19:19:17Z</time>
      </trkpt>
      <trkpt lat="28.7177580" lon="-17.9323900">
        <ele>1155.8</ele>
        <time>2020-11-16T19:19:18Z</time>
      </trkpt>
      <trkpt lat="28.7177830" lon="-17.9323900">
        <ele>1156.0</ele>
        <time>2020-11-16T19:19:19Z</time>
      </trkpt>
      <trkpt lat="28.7177830" lon="-17.9323900">
        <ele>1156.0</ele>
        <time>2020-11-16T19:19:20Z</time>
      </trkpt>
      <trkpt lat="28.7178080" lon="-17.9323880">
        <ele>1156.3</ele>
        <time>2020-11-16T19:19:21Z</time>
      </trkpt>
      <trkpt lat="28.7178200" lon="-17.9323880">
        <ele>1156.4</ele>
        <time>2020-11-16T19:19:22Z</time>
      </trkpt>
      <trkpt lat="28.7178200" lon="-17.9323880">
        <ele>1156.4</ele>
        <time>2020-11-16T19:19:23Z</time>
      </trkpt>
      <trkpt lat="28.7178480" lon="-17.9323900">
        <ele>1156.7</ele>
        <time>2020-11-16T19:19:24Z</time>
      </trkpt>
      <trkpt lat="28.7178480" lon="-17.9323900">
        <ele>1156.7</ele>
        <time>2020-11-16T19:19:25Z</time>
      </trkpt>
      <trkpt lat="28.7178730" lon="-17.9323880">
        <ele>1156.9</ele>
        <time>2020-11-16T19:19:26Z</time>
      </trkpt>
      <trkpt lat="28.7178730" lon="-17.9323880">
        <ele>1156.9</ele>
        <time>2020-11-16T19:19:27Z</time>
      </trkpt>
      <trkpt lat="28.7179000" lon="-17.9323770">
        <ele>1157.2</ele>
        <time>2020-11-16T19:19:28Z</time>
      </trkpt>
      <trkpt lat="28.7179000" lon="-17.9323770">
        <ele>1157.2</ele>
        <time>2020-11-16T19:19:29Z</time>
      </trkpt>
      <trkpt lat="28.7179230" lon="-17.9323780">
        <ele>1157.5</ele>
        <time>2020-11-16T19:19:30Z</time>
      </trkpt>
      <trkpt lat="28.7179230" lon="-17.9323780">
        <ele>1157.5</ele>
        <time>2020-11-16T19:19:31Z</time>
      </trkpt>
      <trkpt lat="28.7179380" lon="-17.9323650">
        <ele>1157.7</ele>
        <time>2020-11-16T19:19:32Z</time>
      </trkpt>
      <trkpt lat="28.7179380" lon="-17.9323650">
        <ele>1157.7</ele>
        <time>2020-11-16T19:19:33Z</time>
      </trkpt>
      <trkpt lat="28.7179680" lon="-17.9323650">
        <ele>1158.0</ele>
        <time>2020-11-16T19:19:34Z</time>
      </trkpt>
      <trkpt lat="28.7179750" lon="-17.9323570">
        <ele>1158.1</ele>
        <time>2020-11-16T19:19:35Z</time>
      </trkpt>
      <trkpt lat="28.7179750" lon="-17.9323570">
        <ele>1158.1</ele>
        <time>2020-11-16T19:19:36Z</time>
      </trkpt>
      <trkpt lat="28.7179930" lon="-17.9323420">
        <ele>1158.3</ele>
        <time>2020-11-16T19:19:37Z</time>
      </trkpt>
      <trkpt lat="28.7180000" lon="-17.9323320">
        <ele>1158.4</ele>
        <time>2020-11-16T19:19:38Z</time>
      </trkpt>
      <trkpt lat="28.7180000" lon="-17.9323320">
        <ele>1158.4</ele>
        <time>2020-11-16T19:19:39Z</time>
      </trkpt>
      <trkpt lat="28.7180280" lon="-17.9323280">
        <ele>1158.7</ele>
        <time>2020-11-16T19:19:40Z</time>
      </trkpt>
      <trkpt lat="28.7180280" lon="-17.9323280">
        <ele>1158.7</ele>
        <time>2020-11-16T19:19:41Z</time>
      </trkpt>
      <trkpt lat="28.7180470" lon="-17.9323180">
        <ele>1158.9</ele>
        <time>2020-11-16T19:19:42Z</time>
      </trkpt>
      <trkpt lat="28.7180550" lon="-17.9323100">
        <ele>1159.0</ele>
        <time>2020-11-16T19:19:43Z</time>
      </trkpt>
      <trkpt lat="28.7180550" lon="-17.9323100">
        <ele>1159.0</ele>
        <time>2020-11-16T19:19:44Z</time>
      </trkpt>
      <trkpt lat="28.7180770" lon="-17.9323270">
        <ele>1159.3</ele>
        <time>2020-11-16T19:19:45Z</time>
      </trkpt>
      <trkpt lat="28.7180850" lon="-17.9323250">
        <ele>1159.4</ele>
        <time>2020-11-16T19:19:46Z</time>
      </trkpt>
      <trkpt lat="28.7180850" lon="-17.9323250">
        <ele>1159.4</ele>
        <time>2020-11-16T19:19:47Z</time>
      </trkpt>
      <trkpt lat="28.7181030" lon="-17.9323220">
        <ele>1159.6</ele>
        <time>2020-11-16T19:19:48Z</time>
      </trkpt>
      <trkpt lat="28.7181030" lon="-17.9323220">
        <ele>1159.6</ele>
        <time>2020-11-16T19:19:49Z</time>
      </trkpt>
      <trkpt lat="28.7181300" lon="-17.9323350">
        <ele>1159.9</ele>
        <time>2020-11-16T19:19:50Z</time>
      </trkpt>
      <trkpt lat="28.7181300" lon="-17.9323350">
        <ele>1159.9</ele>
        <time>2020-11-16T19:19:51Z</time>
      </trkpt>
      <trkpt lat="28.7181480" lon="-17.9323380">
        <ele>1160.1</ele>
        <time>2020-11-16T19:19:52Z</time>
      </trkpt>
      <trkpt lat="28.7181480" lon="-17.9323380">
        <ele>1160.1</ele>
        <time>2020-11-16T19:19:53Z</time>
      </trkpt>
      <trkpt lat="28.7181800" lon="-17.9323400">
        <ele>1160.4</ele>
        <time>2020-11-16T19:19:54Z</time>
      </trkpt>
      <trkpt lat="28.7181800" lon="-17.9323400">
        <ele>1160.4</ele>
        <time>2020-11-16T19:19:55Z</time>
      </trkpt>
      <trkpt lat="28.7182170" lon="-17.9323450">
        <ele>1160.8</ele>
        <time>2020-11-16T19:19:56Z</time>
      </trkpt>
      <trkpt lat="28.7182170" lon="-17.9323450">
        <ele>1160.8</ele>
        <time>2020-11-16T19:19:57Z</time>
      </trkpt>
      <trkpt lat="28.7182500" lon="-17.9323570">
        <ele>1161.1</ele>
        <time>2020-11-16T19:19:58Z</time>
      </trkpt>
      <trkpt lat="28.7182500" lon="-17.9323570">
        <ele>1161.1</ele>
        <time>2020-11-16T19:19:59Z</time>
      </trkpt>
      <trkpt lat="28.7182830" lon="-17.9323580">
        <ele>1161.5</ele>
        <time>2020-11-16T19:20:00Z</time>
      </trkpt>
      <trkpt lat="28.7182830" lon="-17.9323580">
        <ele>1161.5</ele>
        <time>2020-11-16T19:20:01Z</time>
      </trkpt>
      <trkpt lat="28.7183120" lon="-17.9323780">
        <ele>1161.8</ele>
        <time>2020-11-16T19:20:02Z</time>
      </trkpt>
      <trkpt lat="28.7183120" lon="-17.9323780">
        <ele>1161.8</ele>
        <time>2020-11-16T19:20:03Z</time>
      </trkpt>
      <trkpt lat="28.7183270" lon="-17.9324080">
        <ele>1162.2</ele>
        <time>2020-11-16T19:20:04Z</time>
      </trkpt>
      <trkpt lat="28.7183380" lon="-17.9324180">
        <ele>1162.3</ele>
        <time>2020-11-16T19:20:05Z</time>
      </trkpt>
      <trkpt lat="28.7183380" lon="-17.9324180">
        <ele>1162.3</ele>
        <time>2020-11-16T19:20:06Z</time>
      </trkpt>
      <trkpt lat="28.7183550" lon="-17.9324430">
        <ele>1162.6</ele>
        <time>2020-11-16T19:20:07Z</time>
      </trkpt>
      <trkpt lat="28.7183650" lon="-17.9324530">
        <ele>1162.8</ele>
        <time>2020-11-16T19:20:08Z</time>
      </trkpt>
      <trkpt lat="28.7183650" lon="-17.9324530">
        <ele>1162.8</ele>
        <time>2020-11-16T19:20:09Z</time>
      </trkpt>
      <trkpt lat="28.7183720" lon="-17.9324750">
        <ele>1163.0</ele>
        <time>2020-11-16T19:20:10Z</time>
      </trkpt>
      <trkpt lat="28.7183730" lon="-17.9324900">
        <ele>1163.1</ele>
        <time>2020-11-16T19:20:11Z</time>
      </trkpt>
      <trkpt lat="28.7183680" lon="-17.9325200">
        <ele>1163.4</ele>
        <time>2020-11-16T19:20:12Z</time>
      </trkpt>
      <trkpt lat="28.7183680" lon="-17.9325200">
        <ele>1163.4</ele>
        <time>2020-11-16T19:20:13Z</time>
      </trkpt>
      <trkpt lat="28.7183680" lon="-17.9325470">
        <ele>1163.7</ele>
        <time>2020-11-16T19:20:14Z</time>
      </trkpt>
      <trkpt lat="28.7183680" lon="-17.9325470">
        <ele>1163.7</ele>
        <time>2020-11-16T19:20:15Z</time>
      </trkpt>
      <trkpt lat="28.7183700" lon="-17.9325670">
        <ele>1163.9</ele>
        <time>2020-11-16T19:20:16Z</time>
      </trkpt>
      <trkpt lat="28.7183700" lon="-17.9325670">
        <ele>1163.9</ele>
        <time>2020-11-16T19:20:17Z</time>
      </trkpt>
      <trkpt lat="28.7183750" lon="-17.9325920">
        <ele>1164.1</ele>
        <time>2020-11-16T19:20:18Z</time>
      </trkpt>
      <trkpt lat="28.7183750" lon="-17.9325920">
        <ele>1164.1</ele>
        <time>2020-11-16T19:20:19Z</time>
      </trkpt>
      <trkpt lat="28.7183820" lon="-17.9326120">
        <ele>1164.3</ele>
        <time>2020-11-16T19:20:20Z</time>
      </trkpt>
      <trkpt lat="28.7183820" lon="-17.9326120">
        <ele>1164.3</ele>
        <time>2020-11-16T19:20:21Z</time>
      </trkpt>
      <trkpt lat="28.7183820" lon="-17.9326400">
        <ele>1164.6</ele>
        <time>2020-11-16T19:20:22Z</time>
      </trkpt>
      <trkpt lat="28.7183820" lon="-17.9326400">
        <ele>1164.6</ele>
        <time>2020-11-16T19:20:23Z</time>
      </trkpt>
      <trkpt lat="28.7183820" lon="-17.9326620">
        <ele>1164.8</ele>
        <time>2020-11-16T19:20:24Z</time>
      </trkpt>
      <trkpt lat="28.7183820" lon="-17.9326620">
        <ele>1164.8</ele>
        <time>2020-11-16T19:20:25Z</time>
      </trkpt>
      <trkpt lat="28.7183850" lon="-17.9326800">
        <ele>1164.9</ele>
        <time>2020-11-16T19:20:26Z</time>
      </trkpt>
      <trkpt lat="28.7183850" lon="-17.9326800">
        <ele>1164.9</ele>
        <time>2020-11-16T19:20:27Z</time>
      </trkpt>
      <trkpt lat="28.7183900" lon="-17.9327000">
        <ele>1165.1</ele>
        <time>2020-11-16T19:20:28Z</time>
      </trkpt>
      <trkpt lat="28.7183900" lon="-17.9327000">
        <ele>1165.1</ele>
        <time>2020-11-16T19:20:29Z</time>
      </trkpt>
      <trkpt lat="28.7184070" lon="-17.9327080">
        <ele>1165.3</ele>
        <time>2020-11-16T19:20:30Z</time>
      </trkpt>
      <trkpt lat="28.7184070" lon="-17.9327080">
        <ele>1165.3</ele>
        <time>2020-11-16T19:20:31Z</time>
      </trkpt>
      <trkpt lat="28.7184070" lon="-17.9327300">
        <ele>1165.5</ele>
        <time>2020-11-16T19:20:32Z</time>
      </trkpt>
      <trkpt lat="28.7184070" lon="-17.9327300">
        <ele>1165.5</ele>
        <time>2020-11-16T19:20:33Z</time>
      </trkpt>
      <trkpt lat="28.7184150" lon="-17.9327550">
        <ele>1165.7</ele>
        <time>2020-11-16T19:20:34Z</time>
      </trkpt>
      <trkpt lat="28.7184150" lon="-17.9327550">
        <ele>1165.7</ele>
        <time>2020-11-16T19:20:35Z</time>
      </trkpt>
      <trkpt lat="28.7184200" lon="-17.9327750">
        <ele>1165.8</ele>
        <time>2020-11-16T19:20:36Z</time>
      </trkpt>
      <trkpt lat="28.7184200" lon="-17.9327750">
        <ele>1165.8</ele>
        <time>2020-11-16T19:20:37Z</time>
      </trkpt>
      <trkpt lat="28.7184170" lon="-17.9328080">
        <ele>1166.1</ele>
        <time>2020-11-16T19:20:38Z</time>
      </trkpt>
      <trkpt lat="28.7184170" lon="-17.9328080">
        <ele>1166.1</ele>
        <time>2020-11-16T19:20:39Z</time>
      </trkpt>
      <trkpt lat="28.7184100" lon="-17.9328400">
        <ele>1166.4</ele>
        <time>2020-11-16T19:20:40Z</time>
      </trkpt>
      <trkpt lat="28.7184100" lon="-17.9328400">
        <ele>1166.4</ele>
        <time>2020-11-16T19:20:41Z</time>
      </trkpt>
      <trkpt lat="28.7184170" lon="-17.9328670">
        <ele>1166.7</ele>
        <time>2020-11-16T19:20:42Z</time>
      </trkpt>
      <trkpt lat="28.7184170" lon="-17.9328670">
        <ele>1166.7</ele>
        <time>2020-11-16T19:20:43Z</time>
      </trkpt>
      <trkpt lat="28.7184300" lon="-17.9328930">
        <ele>1166.9</ele>
        <time>2020-11-16T19:20:44Z</time>
      </trkpt>
      <trkpt lat="28.7184300" lon="-17.9328930">
        <ele>1166.9</ele>
        <time>2020-11-16T19:20:45Z</time>
      </trkpt>
      <trkpt lat="28.7184430" lon="-17.9329230">
        <ele>1167.2</ele>
        <time>2020-11-16T19:20:46Z</time>
      </trkpt>
      <trkpt lat="28.7184430" lon="-17.9329230">
        <ele>1167.2</ele>
        <time>2020-11-16T19:20:47Z</time>
      </trkpt>
      <trkpt lat="28.7184570" lon="-17.9329600">
        <ele>1167.5</ele>
        <time>2020-11-16T19:20:48Z</time>
      </trkpt>
      <trkpt lat="28.7184570" lon="-17.9329600">
        <ele>1167.5</ele>
        <time>2020-11-16T19:20:49Z</time>
      </trkpt>
      <trkpt lat="28.7184670" lon="-17.9329900">
        <ele>1167.8</ele>
        <time>2020-11-16T19:20:50Z</time>
      </trkpt>
      <trkpt lat="28.7184670" lon="-17.9329900">
        <ele>1167.8</ele>
        <time>2020-11-16T19:20:51Z</time>
      </trkpt>
      <trkpt lat="28.7184770" lon="-17.9330100">
        <ele>1168.0</ele>
        <time>2020-11-16T19:20:52Z</time>
      </trkpt>
      <trkpt lat="28.7184770" lon="-17.9330100">
        <ele>1168.0</ele>
        <time>2020-11-16T19:20:53Z</time>
      </trkpt>
      <trkpt lat="28.7184950" lon="-17.9330300">
        <ele>1168.2</ele>
        <time>2020-11-16T19:20:54Z</time>
      </trkpt>
      <trkpt lat="28.7185080" lon="-17.9330370">
        <ele>1168.3</ele>
        <time>2020-11-16T19:20:55Z</time>
      </trkpt>
      <trkpt lat="28.7185080" lon="-17.9330370">
        <ele>1168.3</ele>
        <time>2020-11-16T19:20:56Z</time>
      </trkpt>
      <trkpt lat="28.7185330" lon="-17.9330470">
        <ele>1168.5</ele>
        <time>2020-11-16T19:20:57Z</time>
      </trkpt>
      <trkpt lat="28.7185450" lon="-17.9330480">
        <ele>1168.6</ele>
        <time>2020-11-16T19:20:58Z</time>
      </trkpt>
      <trkpt lat="28.7185450" lon="-17.9330480">
        <ele>1168.6</ele>
        <time>2020-11-16T19:20:59Z</time>
      </trkpt>
      <trkpt lat="28.7185670" lon="-17.9330470">
        <ele>1168.8</ele>
        <time>2020-11-16T19:21:00Z</time>
      </trkpt>
      <trkpt lat="28.7185670" lon="-17.9330470">
        <ele>1168.8</ele>
        <time>2020-11-16T19:21:01Z</time>
      </trkpt>
      <trkpt lat="28.7186020" lon="-17.9330480">
        <ele>1169.1</ele>
        <time>2020-11-16T19:21:02Z</time>
      </trkpt>
      <trkpt lat="28.7186020" lon="-17.9330480">
        <ele>1169.1</ele>
        <time>2020-11-16T19:21:03Z</time>
      </trkpt>
      <trkpt lat="28.7186350" lon="-17.9330430">
        <ele>1169.4</ele>
        <time>2020-11-16T19:21:04Z</time>
      </trkpt>
      <trkpt lat="28.7186350" lon="-17.9330430">
        <ele>1169.4</ele>
        <time>2020-11-16T19:21:05Z</time>
      </trkpt>
      <trkpt lat="28.7186600" lon="-17.9330400">
        <ele>1169.6</ele>
        <time>2020-11-16T19:21:06Z</time>
      </trkpt>
      <trkpt lat="28.7186600" lon="-17.9330400">
        <ele>1169.6</ele>
        <time>2020-11-16T19:21:07Z</time>
      </trkpt>
      <trkpt lat="28.7186870" lon="-17.9330350">
        <ele>1169.8</ele>
        <time>2020-11-16T19:21:08Z</time>
      </trkpt>
      <trkpt lat="28.7186870" lon="-17.9330350">
        <ele>1169.8</ele>
        <time>2020-11-16T19:21:09Z</time>
      </trkpt>
      <trkpt lat="28.7187100" lon="-17.9330300">
        <ele>1170.0</ele>
        <time>2020-11-16T19:21:10Z</time>
      </trkpt>
      <trkpt lat="28.7187100" lon="-17.9330300">
        <ele>1170.0</ele>
        <time>2020-11-16T19:21:11Z</time>
      </trkpt>
      <trkpt lat="28.7187320" lon="-17.9330280">
        <ele>1170.1</ele>
        <time>2020-11-16T19:21:12Z</time>
      </trkpt>
      <trkpt lat="28.7187320" lon="-17.9330280">
        <ele>1170.1</ele>
        <time>2020-11-16T19:21:13Z</time>
      </trkpt>
      <trkpt lat="28.7187550" lon="-17.9330320">
        <ele>1170.3</ele>
        <time>2020-11-16T19:21:14Z</time>
      </trkpt>
      <trkpt lat="28.7187550" lon="-17.9330320">
        <ele>1170.3</ele>
        <time>2020-11-16T19:21:15Z</time>
      </trkpt>
      <trkpt lat="28.7187770" lon="-17.9330350">
        <ele>1170.4</ele>
        <time>2020-11-16T19:21:16Z</time>
      </trkpt>
      <trkpt lat="28.7187770" lon="-17.9330350">
        <ele>1170.4</ele>
        <time>2020-11-16T19:21:17Z</time>
      </trkpt>
      <trkpt lat="28.7187970" lon="-17.9330420">
        <ele>1170.6</ele>
        <time>2020-11-16T19:21:18Z</time>
      </trkpt>
      <trkpt lat="28.7187970" lon="-17.9330420">
        <ele>1170.6</ele>
        <time>2020-11-16T19:21:19Z</time>
      </trkpt>
      <trkpt lat="28.7188000" lon="-17.9330430">
        <ele>1170.6</ele>
        <time>2020-11-16T19:21:20Z</time>
      </trkpt>
      <trkpt lat="28.7188000" lon="-17.9330430">
        <ele>1170.6</ele>
        <time>2020-11-16T19:21:21Z</time>
      </trkpt>
      <trkpt lat="28.7188050" lon="-17.9330430">
        <ele>1170.7</ele>
        <time>2020-11-16T19:21:22Z</time>
      </trkpt>
      <trkpt lat="28.7188050" lon="-17.9330430">
        <ele>1170.7</ele>
        <time>2020-11-16T19:21:23Z</time>
      </trkpt>
      <trkpt lat="28.7188050" lon="-17.9330430">
        <ele>1170.7</ele>
        <time>2020-11-16T19:21:26Z</time>
      </trkpt>
      <trkpt lat="28.7188780" lon="-17.9330400">
        <ele>1171.2</ele>
        <time>2020-11-16T19:21:27Z</time>
      </trkpt>
      <trkpt lat="28.7188780" lon="-17.9330400">
        <ele>1171.2</ele>
        <time>2020-11-16T19:21:28Z</time>
      </trkpt>
      <trkpt lat="28.7189170" lon="-17.9330350">
        <ele>1171.5</ele>
        <time>2020-11-16T19:21:29Z</time>
      </trkpt>
      <trkpt lat="28.7189370" lon="-17.9330350">
        <ele>1171.6</ele>
        <time>2020-11-16T19:21:30Z</time>
      </trkpt>
      <trkpt lat="28.7189370" lon="-17.9330350">
        <ele>1171.6</ele>
        <time>2020-11-16T19:21:31Z</time>
      </trkpt>
      <trkpt lat="28.7189730" lon="-17.9330330">
        <ele>1171.9</ele>
        <time>2020-11-16T19:21:32Z</time>
      </trkpt>
      <trkpt lat="28.7189730" lon="-17.9330330">
        <ele>1171.9</ele>
        <time>2020-11-16T19:21:33Z</time>
      </trkpt>
      <trkpt lat="28.7190180" lon="-17.9330270">
        <ele>1172.3</ele>
        <time>2020-11-16T19:21:34Z</time>
      </trkpt>
      <trkpt lat="28.7190180" lon="-17.9330270">
        <ele>1172.3</ele>
        <time>2020-11-16T19:21:35Z</time>
      </trkpt>
      <trkpt lat="28.7190620" lon="-17.9330250">
        <ele>1172.7</ele>
        <time>2020-11-16T19:21:36Z</time>
      </trkpt>
      <trkpt lat="28.7190620" lon="-17.9330250">
        <ele>1172.7</ele>
        <time>2020-11-16T19:21:37Z</time>
      </trkpt>
      <trkpt lat="28.7190950" lon="-17.9330330">
        <ele>1173.0</ele>
        <time>2020-11-16T19:21:38Z</time>
      </trkpt>
      <trkpt lat="28.7190950" lon="-17.9330330">
        <ele>1173.0</ele>
        <time>2020-11-16T19:21:39Z</time>
      </trkpt>
      <trkpt lat="28.7191300" lon="-17.9330450">
        <ele>1173.3</ele>
        <time>2020-11-16T19:21:40Z</time>
      </trkpt>
      <trkpt lat="28.7191300" lon="-17.9330450">
        <ele>1173.3</ele>
        <time>2020-11-16T19:21:41Z</time>
      </trkpt>
      <trkpt lat="28.7191650" lon="-17.9330500">
        <ele>1173.7</ele>
        <time>2020-11-16T19:21:42Z</time>
      </trkpt>
      <trkpt lat="28.7191650" lon="-17.9330500">
        <ele>1173.7</ele>
        <time>2020-11-16T19:21:43Z</time>
      </trkpt>
      <trkpt lat="28.7192030" lon="-17.9330550">
        <ele>1174.0</ele>
        <time>2020-11-16T19:21:44Z</time>
      </trkpt>
      <trkpt lat="28.7192030" lon="-17.9330550">
        <ele>1174.0</ele>
        <time>2020-11-16T19:21:45Z</time>
      </trkpt>
      <trkpt lat="28.7192030" lon="-17.9330550">
        <ele>1174.0</ele>
        <time>2020-11-16T19:21:46Z</time>
      </trkpt>
      <trkpt lat="28.7192380" lon="-17.9330670">
        <ele>1174.4</ele>
        <time>2020-11-16T19:21:47Z</time>
      </trkpt>
      <trkpt lat="28.7192720" lon="-17.9330770">
        <ele>1174.7</ele>
        <time>2020-11-16T19:21:48Z</time>
      </trkpt>
      <trkpt lat="28.7192720" lon="-17.9330770">
        <ele>1174.7</ele>
        <time>2020-11-16T19:21:49Z</time>
      </trkpt>
      <trkpt lat="28.7193100" lon="-17.9330830">
        <ele>1175.1</ele>
        <time>2020-11-16T19:21:50Z</time>
      </trkpt>
      <trkpt lat="28.7193100" lon="-17.9330830">
        <ele>1175.1</ele>
        <time>2020-11-16T19:21:51Z</time>
      </trkpt>
      <trkpt lat="28.7193480" lon="-17.9330870">
        <ele>1175.5</ele>
        <time>2020-11-16T19:21:52Z</time>
      </trkpt>
      <trkpt lat="28.7193480" lon="-17.9330870">
        <ele>1175.5</ele>
        <time>2020-11-16T19:21:53Z</time>
      </trkpt>
      <trkpt lat="28.7193800" lon="-17.9330920">
        <ele>1175.8</ele>
        <time>2020-11-16T19:21:54Z</time>
      </trkpt>
      <trkpt lat="28.7193800" lon="-17.9330920">
        <ele>1175.8</ele>
        <time>2020-11-16T19:21:55Z</time>
      </trkpt>
      <trkpt lat="28.7194100" lon="-17.9330870">
        <ele>1176.1</ele>
        <time>2020-11-16T19:21:56Z</time>
      </trkpt>
      <trkpt lat="28.7194100" lon="-17.9330870">
        <ele>1176.1</ele>
        <time>2020-11-16T19:21:57Z</time>
      </trkpt>
      <trkpt lat="28.7194400" lon="-17.9330930">
        <ele>1176.5</ele>
        <time>2020-11-16T19:21:58Z</time>
      </trkpt>
      <trkpt lat="28.7194570" lon="-17.9330930">
        <ele>1176.7</ele>
        <time>2020-11-16T19:21:59Z</time>
      </trkpt>
      <trkpt lat="28.7194570" lon="-17.9330930">
        <ele>1176.7</ele>
        <time>2020-11-16T19:22:00Z</time>
      </trkpt>
      <trkpt lat="28.7194920" lon="-17.9330880">
        <ele>1177.1</ele>
        <time>2020-11-16T19:22:01Z</time>
      </trkpt>
      <trkpt lat="28.7194920" lon="-17.9330880">
        <ele>1177.1</ele>
        <time>2020-11-16T19:22:02Z</time>
      </trkpt>
      <trkpt lat="28.7195250" lon="-17.9330900">
        <ele>1177.5</ele>
        <time>2020-11-16T19:22:03Z</time>
      </trkpt>
      <trkpt lat="28.7195250" lon="-17.9330900">
        <ele>1177.5</ele>
        <time>2020-11-16T19:22:04Z</time>
      </trkpt>
      <trkpt lat="28.7195600" lon="-17.9331070">
        <ele>1177.9</ele>
        <time>2020-11-16T19:22:05Z</time>
      </trkpt>
      <trkpt lat="28.7195600" lon="-17.9331070">
        <ele>1177.9</ele>
        <time>2020-11-16T19:22:06Z</time>
      </trkpt>
      <trkpt lat="28.7195930" lon="-17.9331080">
        <ele>1178.3</ele>
        <time>2020-11-16T19:22:07Z</time>
      </trkpt>
      <trkpt lat="28.7195930" lon="-17.9331080">
        <ele>1178.3</ele>
        <time>2020-11-16T19:22:08Z</time>
      </trkpt>
      <trkpt lat="28.7196250" lon="-17.9331120">
        <ele>1178.7</ele>
        <time>2020-11-16T19:22:09Z</time>
      </trkpt>
      <trkpt lat="28.7196400" lon="-17.9331030">
        <ele>1179.0</ele>
        <time>2020-11-16T19:22:10Z</time>
      </trkpt>
      <trkpt lat="28.7196400" lon="-17.9331030">
        <ele>1179.0</ele>
        <time>2020-11-16T19:22:11Z</time>
      </trkpt>
      <trkpt lat="28.7196750" lon="-17.9330970">
        <ele>1179.4</ele>
        <time>2020-11-16T19:22:12Z</time>
      </trkpt>
      <trkpt lat="28.7196750" lon="-17.9330970">
        <ele>1179.4</ele>
        <time>2020-11-16T19:22:13Z</time>
      </trkpt>
      <trkpt lat="28.7197020" lon="-17.9330730">
        <ele>1179.8</ele>
        <time>2020-11-16T19:22:14Z</time>
      </trkpt>
      <trkpt lat="28.7197020" lon="-17.9330730">
        <ele>1179.8</ele>
        <time>2020-11-16T19:22:15Z</time>
      </trkpt>
      <trkpt lat="28.7197180" lon="-17.9330480">
        <ele>1180.0</ele>
        <time>2020-11-16T19:22:16Z</time>
      </trkpt>
      <trkpt lat="28.7197180" lon="-17.9330480">
        <ele>1180.0</ele>
        <time>2020-11-16T19:22:17Z</time>
      </trkpt>
      <trkpt lat="28.7197280" lon="-17.9330170">
        <ele>1180.3</ele>
        <time>2020-11-16T19:22:18Z</time>
      </trkpt>
      <trkpt lat="28.7197280" lon="-17.9330170">
        <ele>1180.3</ele>
        <time>2020-11-16T19:22:19Z</time>
      </trkpt>
      <trkpt lat="28.7197230" lon="-17.9329820">
        <ele>1180.6</ele>
        <time>2020-11-16T19:22:20Z</time>
      </trkpt>
      <trkpt lat="28.7197150" lon="-17.9329680">
        <ele>1180.7</ele>
        <time>2020-11-16T19:22:21Z</time>
      </trkpt>
      <trkpt lat="28.7197150" lon="-17.9329680">
        <ele>1180.7</ele>
        <time>2020-11-16T19:22:22Z</time>
      </trkpt>
      <trkpt lat="28.7196920" lon="-17.9329570">
        <ele>1180.9</ele>
        <time>2020-11-16T19:22:23Z</time>
      </trkpt>
      <trkpt lat="28.7196770" lon="-17.9329520">
        <ele>1181.0</ele>
        <time>2020-11-16T19:22:24Z</time>
      </trkpt>
      <trkpt lat="28.7196770" lon="-17.9329520">
        <ele>1181.0</ele>
        <time>2020-11-16T19:22:25Z</time>
      </trkpt>
      <trkpt lat="28.7196500" lon="-17.9329350">
        <ele>1181.2</ele>
        <time>2020-11-16T19:22:26Z</time>
      </trkpt>
      <trkpt lat="28.7196500" lon="-17.9329350">
        <ele>1181.2</ele>
        <time>2020-11-16T19:22:27Z</time>
      </trkpt>
      <trkpt lat="28.7196220" lon="-17.9329330">
        <ele>1181.4</ele>
        <time>2020-11-16T19:22:28Z</time>
      </trkpt>
      <trkpt lat="28.7196220" lon="-17.9329330">
        <ele>1181.4</ele>
        <time>2020-11-16T19:22:29Z</time>
      </trkpt>
      <trkpt lat="28.7196030" lon="-17.9329300">
        <ele>1181.6</ele>
        <time>2020-11-16T19:22:30Z</time>
      </trkpt>
      <trkpt lat="28.7195700" lon="-17.9329350">
        <ele>1181.8</ele>
        <time>2020-11-16T19:22:31Z</time>
      </trkpt>
      <trkpt lat="28.7195700" lon="-17.9329350">
        <ele>1181.8</ele>
        <time>2020-11-16T19:22:32Z</time>
      </trkpt>
      <trkpt lat="28.7195380" lon="-17.9329430">
        <ele>1182.1</ele>
        <time>2020-11-16T19:22:33Z</time>
      </trkpt>
      <trkpt lat="28.7195380" lon="-17.9329430">
        <ele>1182.1</ele>
        <time>2020-11-16T19:22:34Z</time>
      </trkpt>
      <trkpt lat="28.7194950" lon="-17.9329520">
        <ele>1182.4</ele>
        <time>2020-11-16T19:22:35Z</time>
      </trkpt>
      <trkpt lat="28.7194950" lon="-17.9329520">
        <ele>1182.4</ele>
        <time>2020-11-16T19:22:36Z</time>
      </trkpt>
      <trkpt lat="28.7194600" lon="-17.9329520">
        <ele>1182.7</ele>
        <time>2020-11-16T19:22:37Z</time>
      </trkpt>
      <trkpt lat="28.7194600" lon="-17.9329520">
        <ele>1182.7</ele>
        <time>2020-11-16T19:22:38Z</time>
      </trkpt>
      <trkpt lat="28.7194180" lon="-17.9329500">
        <ele>1183.0</ele>
        <time>2020-11-16T19:22:39Z</time>
      </trkpt>
      <trkpt lat="28.7194180" lon="-17.9329500">
        <ele>1183.0</ele>
        <time>2020-11-16T19:22:40Z</time>
      </trkpt>
      <trkpt lat="28.7194180" lon="-17.9329500">
        <ele>1183.0</ele>
        <time>2020-11-16T19:22:41Z</time>
      </trkpt>
      <trkpt lat="28.7193900" lon="-17.9329500">
        <ele>1183.3</ele>
        <time>2020-11-16T19:22:42Z</time>
      </trkpt>
      <trkpt lat="28.7193530" lon="-17.9329450">
        <ele>1183.6</ele>
        <time>2020-11-16T19:22:43Z</time>
      </trkpt>
      <trkpt lat="28.7193370" lon="-17.9329370">
        <ele>1183.7</ele>
        <time>2020-11-16T19:22:44Z</time>
      </trkpt>
      <trkpt lat="28.7193370" lon="-17.9329370">
        <ele>1183.7</ele>
        <time>2020-11-16T19:22:45Z</time>
      </trkpt>
      <trkpt lat="28.7193120" lon="-17.9329220">
        <ele>1183.9</ele>
        <time>2020-11-16T19:22:46Z</time>
      </trkpt>
      <trkpt lat="28.7193000" lon="-17.9329150">
        <ele>1184.0</ele>
        <time>2020-11-16T19:22:47Z</time>
      </trkpt>
      <trkpt lat="28.7193000" lon="-17.9329150">
        <ele>1184.0</ele>
        <time>2020-11-16T19:22:48Z</time>
      </trkpt>
      <trkpt lat="28.7192770" lon="-17.9329020">
        <ele>1184.2</ele>
        <time>2020-11-16T19:22:49Z</time>
      </trkpt>
      <trkpt lat="28.7192650" lon="-17.9328970">
        <ele>1184.4</ele>
        <time>2020-11-16T19:22:50Z</time>
      </trkpt>
      <trkpt lat="28.7192650" lon="-17.9328970">
        <ele>1184.4</ele>
        <time>2020-11-16T19:22:51Z</time>
      </trkpt>
      <trkpt lat="28.7192430" lon="-17.9328870">
        <ele>1184.6</ele>
        <time>2020-11-16T19:22:52Z</time>
      </trkpt>
      <trkpt lat="28.7192430" lon="-17.9328870">
        <ele>1184.6</ele>
        <time>2020-11-16T19:22:53Z</time>
      </trkpt>
      <trkpt lat="28.7192200" lon="-17.9328730">
        <ele>1184.8</ele>
        <time>2020-11-16T19:22:54Z</time>
      </trkpt>
      <trkpt lat="28.7192200" lon="-17.9328730">
        <ele>1184.8</ele>
        <time>2020-11-16T19:22:55Z</time>
      </trkpt>
      <trkpt lat="28.7191920" lon="-17.9328500">
        <ele>1185.1</ele>
        <time>2020-11-16T19:22:56Z</time>
      </trkpt>
      <trkpt lat="28.7191920" lon="-17.9328500">
        <ele>1185.1</ele>
        <time>2020-11-16T19:22:57Z</time>
      </trkpt>
      <trkpt lat="28.7191620" lon="-17.9328320">
        <ele>1185.4</ele>
        <time>2020-11-16T19:22:58Z</time>
      </trkpt>
      <trkpt lat="28.7191620" lon="-17.9328320">
        <ele>1185.4</ele>
        <time>2020-11-16T19:22:59Z</time>
      </trkpt>
      <trkpt lat="28.7191270" lon="-17.9328180">
        <ele>1185.7</ele>
        <time>2020-11-16T19:23:00Z</time>
      </trkpt>
      <trkpt lat="28.7191270" lon="-17.9328180">
        <ele>1185.7</ele>
        <time>2020-11-16T19:23:01Z</time>
      </trkpt>
      <trkpt lat="28.7190970" lon="-17.9328050">
        <ele>1186.0</ele>
        <time>2020-11-16T19:23:02Z</time>
      </trkpt>
      <trkpt lat="28.7190970" lon="-17.9328050">
        <ele>1186.0</ele>
        <time>2020-11-16T19:23:03Z</time>
      </trkpt>
      <trkpt lat="28.7190650" lon="-17.9327920">
        <ele>1186.3</ele>
        <time>2020-11-16T19:23:04Z</time>
      </trkpt>
      <trkpt lat="28.7190650" lon="-17.9327920">
        <ele>1186.3</ele>
        <time>2020-11-16T19:23:05Z</time>
      </trkpt>
      <trkpt lat="28.7190220" lon="-17.9327850">
        <ele>1186.7</ele>
        <time>2020-11-16T19:23:06Z</time>
      </trkpt>
      <trkpt lat="28.7190220" lon="-17.9327850">
        <ele>1186.7</ele>
        <time>2020-11-16T19:23:07Z</time>
      </trkpt>
      <trkpt lat="28.7189830" lon="-17.9327800">
        <ele>1187.1</ele>
        <time>2020-11-16T19:23:08Z</time>
      </trkpt>
      <trkpt lat="28.7189830" lon="-17.9327800">
        <ele>1187.1</ele>
        <time>2020-11-16T19:23:09Z</time>
      </trkpt>
      <trkpt lat="28.7189570" lon="-17.9327820">
        <ele>1187.3</ele>
        <time>2020-11-16T19:23:10Z</time>
      </trkpt>
      <trkpt lat="28.7189570" lon="-17.9327820">
        <ele>1187.3</ele>
        <time>2020-11-16T19:23:11Z</time>
      </trkpt>
      <trkpt lat="28.7189300" lon="-17.9327830">
        <ele>1187.5</ele>
        <time>2020-11-16T19:23:12Z</time>
      </trkpt>
      <trkpt lat="28.7189300" lon="-17.9327830">
        <ele>1187.5</ele>
        <time>2020-11-16T19:23:13Z</time>
      </trkpt>
      <trkpt lat="28.7188980" lon="-17.9327680">
        <ele>1187.8</ele>
        <time>2020-11-16T19:23:14Z</time>
      </trkpt>
      <trkpt lat="28.7188980" lon="-17.9327680">
        <ele>1187.8</ele>
        <time>2020-11-16T19:23:15Z</time>
      </trkpt>
      <trkpt lat="28.7188730" lon="-17.9327570">
        <ele>1188.0</ele>
        <time>2020-11-16T19:23:16Z</time>
      </trkpt>
      <trkpt lat="28.7188670" lon="-17.9327470">
        <ele>1188.1</ele>
        <time>2020-11-16T19:23:17Z</time>
      </trkpt>
      <trkpt lat="28.7188670" lon="-17.9327470">
        <ele>1188.1</ele>
        <time>2020-11-16T19:23:18Z</time>
      </trkpt>
      <trkpt lat="28.7188670" lon="-17.9327470">
        <ele>1188.1</ele>
        <time>2020-11-16T19:23:19Z</time>
      </trkpt>
      <trkpt lat="28.7188530" lon="-17.9327080">
        <ele>1188.4</ele>
        <time>2020-11-16T19:23:20Z</time>
      </trkpt>
      <trkpt lat="28.7188530" lon="-17.9327080">
        <ele>1188.4</ele>
        <time>2020-11-16T19:23:21Z</time>
      </trkpt>
      <trkpt lat="28.7188430" lon="-17.9326700">
        <ele>1188.7</ele>
        <time>2020-11-16T19:23:22Z</time>
      </trkpt>
      <trkpt lat="28.7188430" lon="-17.9326700">
        <ele>1188.7</ele>
        <time>2020-11-16T19:23:23Z</time>
      </trkpt>
      <trkpt lat="28.7188420" lon="-17.9326280">
        <ele>1188.9</ele>
        <time>2020-11-16T19:23:24Z</time>
      </trkpt>
      <trkpt lat="28.7188420" lon="-17.9326280">
        <ele>1188.9</ele>
        <time>2020-11-16T19:23:25Z</time>
      </trkpt>
      <trkpt lat="28.7188470" lon="-17.9325920">
        <ele>1189.1</ele>
        <time>2020-11-16T19:23:26Z</time>
      </trkpt>
      <trkpt lat="28.7188470" lon="-17.9325920">
        <ele>1189.1</ele>
        <time>2020-11-16T19:23:27Z</time>
      </trkpt>
      <trkpt lat="28.7188500" lon="-17.9325600">
        <ele>1189.3</ele>
        <time>2020-11-16T19:23:28Z</time>
      </trkpt>
      <trkpt lat="28.7188500" lon="-17.9325600">
        <ele>1189.3</ele>
        <time>2020-11-16T19:23:29Z</time>
      </trkpt>
      <trkpt lat="28.7188500" lon="-17.9325180">
        <ele>1189.5</ele>
        <time>2020-11-16T19:23:30Z</time>
      </trkpt>
      <trkpt lat="28.7188500" lon="-17.9325180">
        <ele>1189.5</ele>
        <time>2020-11-16T19:23:31Z</time>
      </trkpt>
      <trkpt lat="28.7188530" lon="-17.9324820">
        <ele>1189.7</ele>
        <time>2020-11-16T19:23:32Z</time>
      </trkpt>
      <trkpt lat="28.7188530" lon="-17.9324820">
        <ele>1189.7</ele>
        <time>2020-11-16T19:23:33Z</time>
      </trkpt>
      <trkpt lat="28.7188600" lon="-17.9324500">
        <ele>1189.9</ele>
        <time>2020-11-16T19:23:34Z</time>
      </trkpt>
      <trkpt lat="28.7188600" lon="-17.9324500">
        <ele>1189.9</ele>
        <time>2020-11-16T19:23:35Z</time>
      </trkpt>
      <trkpt lat="28.7188580" lon="-17.9324180">
        <ele>1190.0</ele>
        <time>2020-11-16T19:23:36Z</time>
      </trkpt>
      <trkpt lat="28.7188580" lon="-17.9324180">
        <ele>1190.0</ele>
        <time>2020-11-16T19:23:37Z</time>
      </trkpt>
      <trkpt lat="28.7188500" lon="-17.9323730">
        <ele>1190.3</ele>
        <time>2020-11-16T19:23:38Z</time>
      </trkpt>
      <trkpt lat="28.7188500" lon="-17.9323730">
        <ele>1190.3</ele>
        <time>2020-11-16T19:23:39Z</time>
      </trkpt>
      <trkpt lat="28.7188480" lon="-17.9323380">
        <ele>1190.4</ele>
        <time>2020-11-16T19:23:40Z</time>
      </trkpt>
      <trkpt lat="28.7188550" lon="-17.9323220">
        <ele>1190.5</ele>
        <time>2020-11-16T19:23:41Z</time>
      </trkpt>
      <trkpt lat="28.7188600" lon="-17.9323050">
        <ele>1190.6</ele>
        <time>2020-11-16T19:23:42Z</time>
      </trkpt>
      <trkpt lat="28.7188600" lon="-17.9323050">
        <ele>1190.6</ele>
        <time>2020-11-16T19:23:43Z</time>
      </trkpt>
      <trkpt lat="28.7188600" lon="-17.9323050">
        <ele>1190.6</ele>
        <time>2020-11-16T19:23:44Z</time>
      </trkpt>
      <trkpt lat="28.7188570" lon="-17.9322630">
        <ele>1190.8</ele>
        <time>2020-11-16T19:23:45Z</time>
      </trkpt>
      <trkpt lat="28.7188480" lon="-17.9322200">
        <ele>1191.1</ele>
        <time>2020-11-16T19:23:46Z</time>
      </trkpt>
      <trkpt lat="28.7188480" lon="-17.9322200">
        <ele>1191.1</ele>
        <time>2020-11-16T19:23:47Z</time>
      </trkpt>
      <trkpt lat="28.7188430" lon="-17.9321720">
        <ele>1191.3</ele>
        <time>2020-11-16T19:23:48Z</time>
      </trkpt>
      <trkpt lat="28.7188430" lon="-17.9321720">
        <ele>1191.3</ele>
        <time>2020-11-16T19:23:49Z</time>
      </trkpt>
      <trkpt lat="28.7188400" lon="-17.9321250">
        <ele>1191.5</ele>
        <time>2020-11-16T19:23:50Z</time>
      </trkpt>
      <trkpt lat="28.7188400" lon="-17.9321250">
        <ele>1191.5</ele>
        <time>2020-11-16T19:23:51Z</time>
      </trkpt>
      <trkpt lat="28.7188320" lon="-17.9320730">
        <ele>1191.8</ele>
        <time>2020-11-16T19:23:52Z</time>
      </trkpt>
      <trkpt lat="28.7188320" lon="-17.9320730">
        <ele>1191.8</ele>
        <time>2020-11-16T19:23:53Z</time>
      </trkpt>
      <trkpt lat="28.7188230" lon="-17.9320320">
        <ele>1191.9</ele>
        <time>2020-11-16T19:23:54Z</time>
      </trkpt>
      <trkpt lat="28.7188230" lon="-17.9320320">
        <ele>1191.9</ele>
        <time>2020-11-16T19:23:55Z</time>
      </trkpt>
      <trkpt lat="28.7188120" lon="-17.9319920">
        <ele>1192.1</ele>
        <time>2020-11-16T19:23:56Z</time>
      </trkpt>
      <trkpt lat="28.7188120" lon="-17.9319920">
        <ele>1192.1</ele>
        <time>2020-11-16T19:23:57Z</time>
      </trkpt>
      <trkpt lat="28.7187970" lon="-17.9319570">
        <ele>1192.2</ele>
        <time>2020-11-16T19:23:58Z</time>
      </trkpt>
      <trkpt lat="28.7187970" lon="-17.9319570">
        <ele>1192.2</ele>
        <time>2020-11-16T19:23:59Z</time>
      </trkpt>
      <trkpt lat="28.7187730" lon="-17.9319300">
        <ele>1192.4</ele>
        <time>2020-11-16T19:24:00Z</time>
      </trkpt>
      <trkpt lat="28.7187730" lon="-17.9319300">
        <ele>1192.4</ele>
        <time>2020-11-16T19:24:01Z</time>
      </trkpt>
      <trkpt lat="28.7187520" lon="-17.9319080">
        <ele>1192.4</ele>
        <time>2020-11-16T19:24:02Z</time>
      </trkpt>
      <trkpt lat="28.7187520" lon="-17.9319080">
        <ele>1192.4</ele>
        <time>2020-11-16T19:24:03Z</time>
      </trkpt>
      <trkpt lat="28.7187450" lon="-17.9318680">
        <ele>1192.7</ele>
        <time>2020-11-16T19:24:04Z</time>
      </trkpt>
      <trkpt lat="28.7187450" lon="-17.9318680">
        <ele>1192.7</ele>
        <time>2020-11-16T19:24:05Z</time>
      </trkpt>
      <trkpt lat="28.7187550" lon="-17.9318200">
        <ele>1192.9</ele>
        <time>2020-11-16T19:24:06Z</time>
      </trkpt>
      <trkpt lat="28.7187580" lon="-17.9317970">
        <ele>1193.1</ele>
        <time>2020-11-16T19:24:07Z</time>
      </trkpt>
      <trkpt lat="28.7187580" lon="-17.9317970">
        <ele>1193.1</ele>
        <time>2020-11-16T19:24:08Z</time>
      </trkpt>
      <trkpt lat="28.7187720" lon="-17.9317450">
        <ele>1193.3</ele>
        <time>2020-11-16T19:24:09Z</time>
      </trkpt>
      <trkpt lat="28.7187820" lon="-17.9317230">
        <ele>1193.4</ele>
        <time>2020-11-16T19:24:10Z</time>
      </trkpt>
      <trkpt lat="28.7187820" lon="-17.9317230">
        <ele>1193.4</ele>
        <time>2020-11-16T19:24:11Z</time>
      </trkpt>
      <trkpt lat="28.7188130" lon="-17.9316970">
        <ele>1193.6</ele>
        <time>2020-11-16T19:24:12Z</time>
      </trkpt>
      <trkpt lat="28.7188130" lon="-17.9316970">
        <ele>1193.6</ele>
        <time>2020-11-16T19:24:13Z</time>
      </trkpt>
      <trkpt lat="28.7188500" lon="-17.9316850">
        <ele>1193.8</ele>
        <time>2020-11-16T19:24:14Z</time>
      </trkpt>
      <trkpt lat="28.7188500" lon="-17.9316850">
        <ele>1193.8</ele>
        <time>2020-11-16T19:24:15Z</time>
      </trkpt>
      <trkpt lat="28.7188880" lon="-17.9316700">
        <ele>1194.0</ele>
        <time>2020-11-16T19:24:16Z</time>
      </trkpt>
      <trkpt lat="28.7188880" lon="-17.9316700">
        <ele>1194.0</ele>
        <time>2020-11-16T19:24:17Z</time>
      </trkpt>
      <trkpt lat="28.7189250" lon="-17.9316550">
        <ele>1194.2</ele>
        <time>2020-11-16T19:24:18Z</time>
      </trkpt>
      <trkpt lat="28.7189250" lon="-17.9316550">
        <ele>1194.2</ele>
        <time>2020-11-16T19:24:19Z</time>
      </trkpt>
      <trkpt lat="28.7189670" lon="-17.9316420">
        <ele>1194.4</ele>
        <time>2020-11-16T19:24:20Z</time>
      </trkpt>
      <trkpt lat="28.7189670" lon="-17.9316420">
        <ele>1194.4</ele>
        <time>2020-11-16T19:24:21Z</time>
      </trkpt>
      <trkpt lat="28.7190050" lon="-17.9316330">
        <ele>1194.7</ele>
        <time>2020-11-16T19:24:22Z</time>
      </trkpt>
      <trkpt lat="28.7190050" lon="-17.9316330">
        <ele>1194.7</ele>
        <time>2020-11-16T19:24:23Z</time>
      </trkpt>
      <trkpt lat="28.7190400" lon="-17.9316250">
        <ele>1194.9</ele>
        <time>2020-11-16T19:24:24Z</time>
      </trkpt>
      <trkpt lat="28.7190400" lon="-17.9316250">
        <ele>1194.9</ele>
        <time>2020-11-16T19:24:25Z</time>
      </trkpt>
      <trkpt lat="28.7190750" lon="-17.9316080">
        <ele>1195.2</ele>
        <time>2020-11-16T19:24:26Z</time>
      </trkpt>
      <trkpt lat="28.7190750" lon="-17.9316080">
        <ele>1195.2</ele>
        <time>2020-11-16T19:24:27Z</time>
      </trkpt>
      <trkpt lat="28.7191020" lon="-17.9315970">
        <ele>1195.5</ele>
        <time>2020-11-16T19:24:28Z</time>
      </trkpt>
      <trkpt lat="28.7191020" lon="-17.9315970">
        <ele>1195.5</ele>
        <time>2020-11-16T19:24:29Z</time>
      </trkpt>
      <trkpt lat="28.7191380" lon="-17.9315780">
        <ele>1195.8</ele>
        <time>2020-11-16T19:24:30Z</time>
      </trkpt>
      <trkpt lat="28.7191380" lon="-17.9315780">
        <ele>1195.8</ele>
        <time>2020-11-16T19:24:31Z</time>
      </trkpt>
      <trkpt lat="28.7191820" lon="-17.9315550">
        <ele>1196.2</ele>
        <time>2020-11-16T19:24:32Z</time>
      </trkpt>
      <trkpt lat="28.7191820" lon="-17.9315550">
        <ele>1196.2</ele>
        <time>2020-11-16T19:24:33Z</time>
      </trkpt>
      <trkpt lat="28.7192200" lon="-17.9315370">
        <ele>1196.5</ele>
        <time>2020-11-16T19:24:34Z</time>
      </trkpt>
      <trkpt lat="28.7192200" lon="-17.9315370">
        <ele>1196.5</ele>
        <time>2020-11-16T19:24:35Z</time>
      </trkpt>
      <trkpt lat="28.7192620" lon="-17.9315180">
        <ele>1196.9</ele>
        <time>2020-11-16T19:24:36Z</time>
      </trkpt>
      <trkpt lat="28.7192620" lon="-17.9315180">
        <ele>1196.9</ele>
        <time>2020-11-16T19:24:37Z</time>
      </trkpt>
      <trkpt lat="28.7193070" lon="-17.9314930">
        <ele>1197.3</ele>
        <time>2020-11-16T19:24:38Z</time>
      </trkpt>
      <trkpt lat="28.7193070" lon="-17.9314930">
        <ele>1197.3</ele>
        <time>2020-11-16T19:24:39Z</time>
      </trkpt>
      <trkpt lat="28.7193500" lon="-17.9314600">
        <ele>1197.7</ele>
        <time>2020-11-16T19:24:40Z</time>
      </trkpt>
      <trkpt lat="28.7193500" lon="-17.9314600">
        <ele>1197.7</ele>
        <time>2020-11-16T19:24:41Z</time>
      </trkpt>
      <trkpt lat="28.7193930" lon="-17.9314530">
        <ele>1197.9</ele>
        <time>2020-11-16T19:24:42Z</time>
      </trkpt>
      <trkpt lat="28.7193930" lon="-17.9314530">
        <ele>1197.9</ele>
        <time>2020-11-16T19:24:43Z</time>
      </trkpt>
      <trkpt lat="28.7194350" lon="-17.9314450">
        <ele>1198.2</ele>
        <time>2020-11-16T19:24:44Z</time>
      </trkpt>
      <trkpt lat="28.7194350" lon="-17.9314450">
        <ele>1198.2</ele>
        <time>2020-11-16T19:24:45Z</time>
      </trkpt>
      <trkpt lat="28.7194780" lon="-17.9314380">
        <ele>1198.5</ele>
        <time>2020-11-16T19:24:46Z</time>
      </trkpt>
      <trkpt lat="28.7194980" lon="-17.9314430">
        <ele>1198.6</ele>
        <time>2020-11-16T19:24:47Z</time>
      </trkpt>
      <trkpt lat="28.7195200" lon="-17.9314350">
        <ele>1198.8</ele>
        <time>2020-11-16T19:24:48Z</time>
      </trkpt>
      <trkpt lat="28.7195200" lon="-17.9314350">
        <ele>1198.8</ele>
        <time>2020-11-16T19:24:49Z</time>
      </trkpt>
      <trkpt lat="28.7195680" lon="-17.9314150">
        <ele>1199.1</ele>
        <time>2020-11-16T19:24:50Z</time>
      </trkpt>
      <trkpt lat="28.7195680" lon="-17.9314150">
        <ele>1199.1</ele>
        <time>2020-11-16T19:24:51Z</time>
      </trkpt>
      <trkpt lat="28.7196070" lon="-17.9314150">
        <ele>1199.2</ele>
        <time>2020-11-16T19:24:52Z</time>
      </trkpt>
      <trkpt lat="28.7196070" lon="-17.9314150">
        <ele>1199.2</ele>
        <time>2020-11-16T19:24:53Z</time>
      </trkpt>
      <trkpt lat="28.7196470" lon="-17.9314030">
        <ele>1199.4</ele>
        <time>2020-11-16T19:24:54Z</time>
      </trkpt>
      <trkpt lat="28.7196650" lon="-17.9313950">
        <ele>1199.5</ele>
        <time>2020-11-16T19:24:55Z</time>
      </trkpt>
      <trkpt lat="28.7196870" lon="-17.9313800">
        <ele>1199.5</ele>
        <time>2020-11-16T19:24:56Z</time>
      </trkpt>
      <trkpt lat="28.7196870" lon="-17.9313800">
        <ele>1199.5</ele>
        <time>2020-11-16T19:24:57Z</time>
      </trkpt>
      <trkpt lat="28.7197350" lon="-17.9313330">
        <ele>1199.6</ele>
        <time>2020-11-16T19:24:58Z</time>
      </trkpt>
      <trkpt lat="28.7197350" lon="-17.9313330">
        <ele>1199.6</ele>
        <time>2020-11-16T19:24:59Z</time>
      </trkpt>
      <trkpt lat="28.7197780" lon="-17.9312880">
        <ele>1199.7</ele>
        <time>2020-11-16T19:25:00Z</time>
      </trkpt>
      <trkpt lat="28.7197780" lon="-17.9312880">
        <ele>1199.7</ele>
        <time>2020-11-16T19:25:01Z</time>
      </trkpt>
      <trkpt lat="28.7197780" lon="-17.9312880">
        <ele>1199.7</ele>
        <time>2020-11-16T19:25:02Z</time>
      </trkpt>
      <trkpt lat="28.7198200" lon="-17.9312450">
        <ele>1199.8</ele>
        <time>2020-11-16T19:25:03Z</time>
      </trkpt>
      <trkpt lat="28.7198570" lon="-17.9312100">
        <ele>1199.8</ele>
        <time>2020-11-16T19:25:04Z</time>
      </trkpt>
      <trkpt lat="28.7198570" lon="-17.9312100">
        <ele>1199.8</ele>
        <time>2020-11-16T19:25:05Z</time>
      </trkpt>
      <trkpt lat="28.7198900" lon="-17.9311920">
        <ele>1199.8</ele>
        <time>2020-11-16T19:25:06Z</time>
      </trkpt>
      <trkpt lat="28.7198900" lon="-17.9311920">
        <ele>1199.8</ele>
        <time>2020-11-16T19:25:07Z</time>
      </trkpt>
      <trkpt lat="28.7199350" lon="-17.9311420">
        <ele>1199.8</ele>
        <time>2020-11-16T19:25:08Z</time>
      </trkpt>
      <trkpt lat="28.7199600" lon="-17.9311120">
        <ele>1199.8</ele>
        <time>2020-11-16T19:25:09Z</time>
      </trkpt>
      <trkpt lat="28.7199600" lon="-17.9311120">
        <ele>1199.8</ele>
        <time>2020-11-16T19:25:10Z</time>
      </trkpt>
      <trkpt lat="28.7199980" lon="-17.9310500">
        <ele>1199.7</ele>
        <time>2020-11-16T19:25:11Z</time>
      </trkpt>
      <trkpt lat="28.7199980" lon="-17.9310500">
        <ele>1199.7</ele>
        <time>2020-11-16T19:25:12Z</time>
      </trkpt>
      <trkpt lat="28.7200520" lon="-17.9309970">
        <ele>1199.6</ele>
        <time>2020-11-16T19:25:13Z</time>
      </trkpt>
      <trkpt lat="28.7200520" lon="-17.9309970">
        <ele>1199.6</ele>
        <time>2020-11-16T19:25:14Z</time>
      </trkpt>
      <trkpt lat="28.7201050" lon="-17.9309500">
        <ele>1199.5</ele>
        <time>2020-11-16T19:25:15Z</time>
      </trkpt>
      <trkpt lat="28.7201050" lon="-17.9309500">
        <ele>1199.5</ele>
        <time>2020-11-16T19:25:16Z</time>
      </trkpt>
      <trkpt lat="28.7201480" lon="-17.9308850">
        <ele>1199.3</ele>
        <time>2020-11-16T19:25:17Z</time>
      </trkpt>
      <trkpt lat="28.7201480" lon="-17.9308850">
        <ele>1199.3</ele>
        <time>2020-11-16T19:25:18Z</time>
      </trkpt>
      <trkpt lat="28.7201880" lon="-17.9308130">
        <ele>1199.0</ele>
        <time>2020-11-16T19:25:19Z</time>
      </trkpt>
      <trkpt lat="28.7201880" lon="-17.9308130">
        <ele>1199.0</ele>
        <time>2020-11-16T19:25:20Z</time>
      </trkpt>
      <trkpt lat="28.7202100" lon="-17.9307920">
        <ele>1199.0</ele>
        <time>2020-11-16T19:25:21Z</time>
      </trkpt>
      <trkpt lat="28.7202600" lon="-17.9307420">
        <ele>1198.7</ele>
        <time>2020-11-16T19:25:22Z</time>
      </trkpt>
      <trkpt lat="28.7202600" lon="-17.9307420">
        <ele>1198.7</ele>
        <time>2020-11-16T19:25:23Z</time>
      </trkpt>
      <trkpt lat="28.7203120" lon="-17.9306880">
        <ele>1198.5</ele>
        <time>2020-11-16T19:25:24Z</time>
      </trkpt>
      <trkpt lat="28.7203120" lon="-17.9306880">
        <ele>1198.5</ele>
        <time>2020-11-16T19:25:25Z</time>
      </trkpt>
      <trkpt lat="28.7203430" lon="-17.9306320">
        <ele>1198.3</ele>
        <time>2020-11-16T19:25:26Z</time>
      </trkpt>
      <trkpt lat="28.7203430" lon="-17.9306320">
        <ele>1198.3</ele>
        <time>2020-11-16T19:25:27Z</time>
      </trkpt>
      <trkpt lat="28.7203620" lon="-17.9305530">
        <ele>1198.0</ele>
        <time>2020-11-16T19:25:28Z</time>
      </trkpt>
      <trkpt lat="28.7203700" lon="-17.9305120">
        <ele>1197.9</ele>
        <time>2020-11-16T19:25:29Z</time>
      </trkpt>
      <trkpt lat="28.7203700" lon="-17.9305120">
        <ele>1197.9</ele>
        <time>2020-11-16T19:25:30Z</time>
      </trkpt>
      <trkpt lat="28.7203880" lon="-17.9304220">
        <ele>1197.7</ele>
        <time>2020-11-16T19:25:31Z</time>
      </trkpt>
      <trkpt lat="28.7203880" lon="-17.9304220">
        <ele>1197.7</ele>
        <time>2020-11-16T19:25:32Z</time>
      </trkpt>
      <trkpt lat="28.7204120" lon="-17.9303350">
        <ele>1197.4</ele>
        <time>2020-11-16T19:25:33Z</time>
      </trkpt>
      <trkpt lat="28.7204120" lon="-17.9303350">
        <ele>1197.4</ele>
        <time>2020-11-16T19:25:34Z</time>
      </trkpt>
      <trkpt lat="28.7204350" lon="-17.9302480">
        <ele>1197.1</ele>
        <time>2020-11-16T19:25:35Z</time>
      </trkpt>
      <trkpt lat="28.7204500" lon="-17.9302080">
        <ele>1197.0</ele>
        <time>2020-11-16T19:25:36Z</time>
      </trkpt>
      <trkpt lat="28.7204650" lon="-17.9301720">
        <ele>1196.8</ele>
        <time>2020-11-16T19:25:37Z</time>
      </trkpt>
      <trkpt lat="28.7204770" lon="-17.9301400">
        <ele>1196.7</ele>
        <time>2020-11-16T19:25:38Z</time>
      </trkpt>
      <trkpt lat="28.7204770" lon="-17.9301400">
        <ele>1196.7</ele>
        <time>2020-11-16T19:25:39Z</time>
      </trkpt>
      <trkpt lat="28.7204970" lon="-17.9300500">
        <ele>1196.3</ele>
        <time>2020-11-16T19:25:40Z</time>
      </trkpt>
      <trkpt lat="28.7204970" lon="-17.9300500">
        <ele>1196.3</ele>
        <time>2020-11-16T19:25:41Z</time>
      </trkpt>
      <trkpt lat="28.7205300" lon="-17.9299420">
        <ele>1195.9</ele>
        <time>2020-11-16T19:25:42Z</time>
      </trkpt>
      <trkpt lat="28.7205300" lon="-17.9299420">
        <ele>1195.9</ele>
        <time>2020-11-16T19:25:43Z</time>
      </trkpt>
      <trkpt lat="28.7205470" lon="-17.9298520">
        <ele>1195.6</ele>
        <time>2020-11-16T19:25:44Z</time>
      </trkpt>
      <trkpt lat="28.7205470" lon="-17.9298520">
        <ele>1195.6</ele>
        <time>2020-11-16T19:25:45Z</time>
      </trkpt>
      <trkpt lat="28.7205680" lon="-17.9297620">
        <ele>1195.3</ele>
        <time>2020-11-16T19:25:46Z</time>
      </trkpt>
      <trkpt lat="28.7205800" lon="-17.9297170">
        <ele>1195.1</ele>
        <time>2020-11-16T19:25:47Z</time>
      </trkpt>
      <trkpt lat="28.7205980" lon="-17.9296770">
        <ele>1194.9</ele>
        <time>2020-11-16T19:25:48Z</time>
      </trkpt>
      <trkpt lat="28.7205980" lon="-17.9296770">
        <ele>1194.9</ele>
        <time>2020-11-16T19:25:49Z</time>
      </trkpt>
      <trkpt lat="28.7206550" lon="-17.9296030">
        <ele>1194.5</ele>
        <time>2020-11-16T19:25:50Z</time>
      </trkpt>
      <trkpt lat="28.7206550" lon="-17.9296030">
        <ele>1194.5</ele>
        <time>2020-11-16T19:25:51Z</time>
      </trkpt>
      <trkpt lat="28.7207120" lon="-17.9295470">
        <ele>1194.1</ele>
        <time>2020-11-16T19:25:52Z</time>
      </trkpt>
      <trkpt lat="28.7207120" lon="-17.9295470">
        <ele>1194.1</ele>
        <time>2020-11-16T19:25:53Z</time>
      </trkpt>
      <trkpt lat="28.7207680" lon="-17.9295020">
        <ele>1193.9</ele>
        <time>2020-11-16T19:25:54Z</time>
      </trkpt>
      <trkpt lat="28.7207680" lon="-17.9295020">
        <ele>1193.9</ele>
        <time>2020-11-16T19:25:55Z</time>
      </trkpt>
      <trkpt lat="28.7208330" lon="-17.9294600">
        <ele>1193.6</ele>
        <time>2020-11-16T19:25:56Z</time>
      </trkpt>
      <trkpt lat="28.7208330" lon="-17.9294600">
        <ele>1193.6</ele>
        <time>2020-11-16T19:25:57Z</time>
      </trkpt>
      <trkpt lat="28.7209050" lon="-17.9294380">
        <ele>1193.3</ele>
        <time>2020-11-16T19:25:58Z</time>
      </trkpt>
      <trkpt lat="28.7209050" lon="-17.9294380">
        <ele>1193.3</ele>
        <time>2020-11-16T19:25:59Z</time>
      </trkpt>
      <trkpt lat="28.7209730" lon="-17.9294120">
        <ele>1193.0</ele>
        <time>2020-11-16T19:26:00Z</time>
      </trkpt>
      <trkpt lat="28.7209730" lon="-17.9294120">
        <ele>1193.0</ele>
        <time>2020-11-16T19:26:01Z</time>
      </trkpt>
      <trkpt lat="28.7210400" lon="-17.9293780">
        <ele>1192.7</ele>
        <time>2020-11-16T19:26:02Z</time>
      </trkpt>
      <trkpt lat="28.7210400" lon="-17.9293780">
        <ele>1192.7</ele>
        <time>2020-11-16T19:26:03Z</time>
      </trkpt>
      <trkpt lat="28.7210980" lon="-17.9293550">
        <ele>1192.4</ele>
        <time>2020-11-16T19:26:04Z</time>
      </trkpt>
      <trkpt lat="28.7210980" lon="-17.9293550">
        <ele>1192.4</ele>
        <time>2020-11-16T19:26:05Z</time>
      </trkpt>
      <trkpt lat="28.7211620" lon="-17.9293580">
        <ele>1192.2</ele>
        <time>2020-11-16T19:26:06Z</time>
      </trkpt>
      <trkpt lat="28.7211620" lon="-17.9293580">
        <ele>1192.2</ele>
        <time>2020-11-16T19:26:07Z</time>
      </trkpt>
      <trkpt lat="28.7212120" lon="-17.9293480">
        <ele>1192.0</ele>
        <time>2020-11-16T19:26:08Z</time>
      </trkpt>
      <trkpt lat="28.7212120" lon="-17.9293480">
        <ele>1192.0</ele>
        <time>2020-11-16T19:26:09Z</time>
      </trkpt>
      <trkpt lat="28.7212550" lon="-17.9293000">
        <ele>1191.8</ele>
        <time>2020-11-16T19:26:10Z</time>
      </trkpt>
      <trkpt lat="28.7212550" lon="-17.9293000">
        <ele>1191.8</ele>
        <time>2020-11-16T19:26:11Z</time>
      </trkpt>
      <trkpt lat="28.7213050" lon="-17.9292500">
        <ele>1191.6</ele>
        <time>2020-11-16T19:26:12Z</time>
      </trkpt>
      <trkpt lat="28.7213050" lon="-17.9292500">
        <ele>1191.6</ele>
        <time>2020-11-16T19:26:13Z</time>
      </trkpt>
      <trkpt lat="28.7213430" lon="-17.9292250">
        <ele>1191.4</ele>
        <time>2020-11-16T19:26:14Z</time>
      </trkpt>
      <trkpt lat="28.7213430" lon="-17.9292250">
        <ele>1191.4</ele>
        <time>2020-11-16T19:26:15Z</time>
      </trkpt>
      <trkpt lat="28.7213820" lon="-17.9291830">
        <ele>1191.2</ele>
        <time>2020-11-16T19:26:16Z</time>
      </trkpt>
      <trkpt lat="28.7213820" lon="-17.9291830">
        <ele>1191.2</ele>
        <time>2020-11-16T19:26:17Z</time>
      </trkpt>
      <trkpt lat="28.7214280" lon="-17.9291230">
        <ele>1190.9</ele>
        <time>2020-11-16T19:26:18Z</time>
      </trkpt>
      <trkpt lat="28.7214280" lon="-17.9291230">
        <ele>1190.9</ele>
        <time>2020-11-16T19:26:19Z</time>
      </trkpt>
      <trkpt lat="28.7214820" lon="-17.9290330">
        <ele>1190.5</ele>
        <time>2020-11-16T19:26:20Z</time>
      </trkpt>
      <trkpt lat="28.7215100" lon="-17.9289830">
        <ele>1190.3</ele>
        <time>2020-11-16T19:26:21Z</time>
      </trkpt>
      <trkpt lat="28.7215100" lon="-17.9289830">
        <ele>1190.3</ele>
        <time>2020-11-16T19:26:22Z</time>
      </trkpt>
      <trkpt lat="28.7215570" lon="-17.9288930">
        <ele>1189.9</ele>
        <time>2020-11-16T19:26:23Z</time>
      </trkpt>
      <trkpt lat="28.7215570" lon="-17.9288930">
        <ele>1189.9</ele>
        <time>2020-11-16T19:26:24Z</time>
      </trkpt>
      <trkpt lat="28.7215930" lon="-17.9288120">
        <ele>1189.5</ele>
        <time>2020-11-16T19:26:25Z</time>
      </trkpt>
      <trkpt lat="28.7216130" lon="-17.9287650">
        <ele>1189.2</ele>
        <time>2020-11-16T19:26:26Z</time>
      </trkpt>
      <trkpt lat="28.7216130" lon="-17.9287650">
        <ele>1189.2</ele>
        <time>2020-11-16T19:26:27Z</time>
      </trkpt>
      <trkpt lat="28.7216450" lon="-17.9286900">
        <ele>1188.9</ele>
        <time>2020-11-16T19:26:28Z</time>
      </trkpt>
      <trkpt lat="28.7216450" lon="-17.9286900">
        <ele>1188.9</ele>
        <time>2020-11-16T19:26:29Z</time>
      </trkpt>
      <trkpt lat="28.7216730" lon="-17.9286250">
        <ele>1188.6</ele>
        <time>2020-11-16T19:26:30Z</time>
      </trkpt>
      <trkpt lat="28.7216730" lon="-17.9286250">
        <ele>1188.6</ele>
        <time>2020-11-16T19:26:31Z</time>
      </trkpt>
      <trkpt lat="28.7216970" lon="-17.9285620">
        <ele>1188.3</ele>
        <time>2020-11-16T19:26:32Z</time>
      </trkpt>
      <trkpt lat="28.7216970" lon="-17.9285620">
        <ele>1188.3</ele>
        <time>2020-11-16T19:26:33Z</time>
      </trkpt>
      <trkpt lat="28.7217200" lon="-17.9285070">
        <ele>1188.1</ele>
        <time>2020-11-16T19:26:34Z</time>
      </trkpt>
      <trkpt lat="28.7217200" lon="-17.9285070">
        <ele>1188.1</ele>
        <time>2020-11-16T19:26:35Z</time>
      </trkpt>
      <trkpt lat="28.7217370" lon="-17.9284580">
        <ele>1188.0</ele>
        <time>2020-11-16T19:26:36Z</time>
      </trkpt>
      <trkpt lat="28.7217370" lon="-17.9284580">
        <ele>1188.0</ele>
        <time>2020-11-16T19:26:37Z</time>
      </trkpt>
      <trkpt lat="28.7217470" lon="-17.9284020">
        <ele>1187.9</ele>
        <time>2020-11-16T19:26:38Z</time>
      </trkpt>
      <trkpt lat="28.7217470" lon="-17.9284020">
        <ele>1187.9</ele>
        <time>2020-11-16T19:26:39Z</time>
      </trkpt>
      <trkpt lat="28.7217630" lon="-17.9283380">
        <ele>1187.9</ele>
        <time>2020-11-16T19:26:40Z</time>
      </trkpt>
      <trkpt lat="28.7217630" lon="-17.9283380">
        <ele>1187.9</ele>
        <time>2020-11-16T19:26:41Z</time>
      </trkpt>
      <trkpt lat="28.7217680" lon="-17.9282500">
        <ele>1188.1</ele>
        <time>2020-11-16T19:26:42Z</time>
      </trkpt>
      <trkpt lat="28.7217680" lon="-17.9282500">
        <ele>1188.1</ele>
        <time>2020-11-16T19:26:43Z</time>
      </trkpt>
      <trkpt lat="28.7217680" lon="-17.9282500">
        <ele>1188.1</ele>
        <time>2020-11-16T19:26:44Z</time>
      </trkpt>
      <trkpt lat="28.7217900" lon="-17.9281550">
        <ele>1188.3</ele>
        <time>2020-11-16T19:26:45Z</time>
      </trkpt>
      <trkpt lat="28.7218000" lon="-17.9280950">
        <ele>1188.5</ele>
        <time>2020-11-16T19:26:46Z</time>
      </trkpt>
      <trkpt lat="28.7218050" lon="-17.9280630">
        <ele>1188.6</ele>
        <time>2020-11-16T19:26:47Z</time>
      </trkpt>
      <trkpt lat="28.7218050" lon="-17.9280630">
        <ele>1188.6</ele>
        <time>2020-11-16T19:26:48Z</time>
      </trkpt>
      <trkpt lat="28.7218130" lon="-17.9280120">
        <ele>1188.9</ele>
        <time>2020-11-16T19:26:49Z</time>
      </trkpt>
      <trkpt lat="28.7218130" lon="-17.9280120">
        <ele>1188.9</ele>
        <time>2020-11-16T19:26:50Z</time>
      </trkpt>
      <trkpt lat="28.7218220" lon="-17.9279700">
        <ele>1189.1</ele>
        <time>2020-11-16T19:26:51Z</time>
      </trkpt>
      <trkpt lat="28.7218220" lon="-17.9279700">
        <ele>1189.1</ele>
        <time>2020-11-16T19:26:52Z</time>
      </trkpt>
      <trkpt lat="28.7218300" lon="-17.9279300">
        <ele>1189.2</ele>
        <time>2020-11-16T19:26:53Z</time>
      </trkpt>
      <trkpt lat="28.7218300" lon="-17.9279300">
        <ele>1189.2</ele>
        <time>2020-11-16T19:26:54Z</time>
      </trkpt>
      <trkpt lat="28.7218320" lon="-17.9278750">
        <ele>1189.5</ele>
        <time>2020-11-16T19:26:55Z</time>
      </trkpt>
      <trkpt lat="28.7218300" lon="-17.9278470">
        <ele>1189.6</ele>
        <time>2020-11-16T19:26:56Z</time>
      </trkpt>
      <trkpt lat="28.7218300" lon="-17.9278470">
        <ele>1189.6</ele>
        <time>2020-11-16T19:26:57Z</time>
      </trkpt>
      <trkpt lat="28.7218250" lon="-17.9278000">
        <ele>1189.8</ele>
        <time>2020-11-16T19:26:58Z</time>
      </trkpt>
      <trkpt lat="28.7218250" lon="-17.9278000">
        <ele>1189.8</ele>
        <time>2020-11-16T19:26:59Z</time>
      </trkpt>
      <trkpt lat="28.7218280" lon="-17.9277650">
        <ele>1190.0</ele>
        <time>2020-11-16T19:27:00Z</time>
      </trkpt>
      <trkpt lat="28.7218280" lon="-17.9277650">
        <ele>1190.0</ele>
        <time>2020-11-16T19:27:01Z</time>
      </trkpt>
      <trkpt lat="28.7218100" lon="-17.9276950">
        <ele>1190.3</ele>
        <time>2020-11-16T19:27:02Z</time>
      </trkpt>
      <trkpt lat="28.7218100" lon="-17.9276950">
        <ele>1190.3</ele>
        <time>2020-11-16T19:27:03Z</time>
      </trkpt>
      <trkpt lat="28.7217980" lon="-17.9276380">
        <ele>1190.5</ele>
        <time>2020-11-16T19:27:04Z</time>
      </trkpt>
      <trkpt lat="28.7218000" lon="-17.9276180">
        <ele>1190.5</ele>
        <time>2020-11-16T19:27:05Z</time>
      </trkpt>
      <trkpt lat="28.7218000" lon="-17.9276180">
        <ele>1190.5</ele>
        <time>2020-11-16T19:27:06Z</time>
      </trkpt>
      <trkpt lat="28.7217930" lon="-17.9275620">
        <ele>1190.7</ele>
        <time>2020-11-16T19:27:07Z</time>
      </trkpt>
      <trkpt lat="28.7217920" lon="-17.9275380">
        <ele>1190.8</ele>
        <time>2020-11-16T19:27:08Z</time>
      </trkpt>
      <trkpt lat="28.7217950" lon="-17.9275200">
        <ele>1190.9</ele>
        <time>2020-11-16T19:27:09Z</time>
      </trkpt>
      <trkpt lat="28.7217950" lon="-17.9275200">
        <ele>1190.9</ele>
        <time>2020-11-16T19:27:10Z</time>
      </trkpt>
      <trkpt lat="28.7217920" lon="-17.9274820">
        <ele>1191.0</ele>
        <time>2020-11-16T19:27:11Z</time>
      </trkpt>
      <trkpt lat="28.7217920" lon="-17.9274820">
        <ele>1191.0</ele>
        <time>2020-11-16T19:27:12Z</time>
      </trkpt>
      <trkpt lat="28.7217770" lon="-17.9274380">
        <ele>1191.2</ele>
        <time>2020-11-16T19:27:13Z</time>
      </trkpt>
      <trkpt lat="28.7217770" lon="-17.9274380">
        <ele>1191.2</ele>
        <time>2020-11-16T19:27:14Z</time>
      </trkpt>
      <trkpt lat="28.7217880" lon="-17.9274380">
        <ele>1191.2</ele>
        <time>2020-11-16T19:27:15Z</time>
      </trkpt>
      <trkpt lat="28.7217830" lon="-17.9274270">
        <ele>1191.2</ele>
        <time>2020-11-16T19:27:16Z</time>
      </trkpt>
      <trkpt lat="28.7217680" lon="-17.9274050">
        <ele>1191.3</ele>
        <time>2020-11-16T19:27:17Z</time>
      </trkpt>
      <trkpt lat="28.7217680" lon="-17.9274050">
        <ele>1191.3</ele>
        <time>2020-11-16T19:27:18Z</time>
      </trkpt>
      <trkpt lat="28.7217620" lon="-17.9273850">
        <ele>1191.4</ele>
        <time>2020-11-16T19:27:19Z</time>
      </trkpt>
      <trkpt lat="28.7217620" lon="-17.9273850">
        <ele>1191.4</ele>
        <time>2020-11-16T19:27:20Z</time>
      </trkpt>
      <trkpt lat="28.7217500" lon="-17.9273730">
        <ele>1191.5</ele>
        <time>2020-11-16T19:27:21Z</time>
      </trkpt>
      <trkpt lat="28.7217500" lon="-17.9273730">
        <ele>1191.5</ele>
        <time>2020-11-16T19:27:22Z</time>
      </trkpt>
      <trkpt lat="28.7217270" lon="-17.9273500">
        <ele>1191.6</ele>
        <time>2020-11-16T19:27:23Z</time>
      </trkpt>
      <trkpt lat="28.7217120" lon="-17.9273430">
        <ele>1191.7</ele>
        <time>2020-11-16T19:27:24Z</time>
      </trkpt>
      <trkpt lat="28.7217120" lon="-17.9273430">
        <ele>1191.7</ele>
        <time>2020-11-16T19:27:25Z</time>
      </trkpt>
      <trkpt lat="28.7216750" lon="-17.9273430">
        <ele>1191.9</ele>
        <time>2020-11-16T19:27:26Z</time>
      </trkpt>
      <trkpt lat="28.7216750" lon="-17.9273430">
        <ele>1191.9</ele>
        <time>2020-11-16T19:27:27Z</time>
      </trkpt>
      <trkpt lat="28.7216570" lon="-17.9273700">
        <ele>1192.1</ele>
        <time>2020-11-16T19:27:28Z</time>
      </trkpt>
      <trkpt lat="28.7216570" lon="-17.9273700">
        <ele>1192.1</ele>
        <time>2020-11-16T19:27:29Z</time>
      </trkpt>
      <trkpt lat="28.7216520" lon="-17.9274070">
        <ele>1192.3</ele>
        <time>2020-11-16T19:27:30Z</time>
      </trkpt>
      <trkpt lat="28.7216520" lon="-17.9274070">
        <ele>1192.3</ele>
        <time>2020-11-16T19:27:31Z</time>
      </trkpt>
      <trkpt lat="28.7216520" lon="-17.9274070">
        <ele>1192.3</ele>
        <time>2020-11-16T19:27:32Z</time>
      </trkpt>
      <trkpt lat="28.7216580" lon="-17.9274550">
        <ele>1192.5</ele>
        <time>2020-11-16T19:27:33Z</time>
      </trkpt>
      <trkpt lat="28.7216670" lon="-17.9275000">
        <ele>1192.8</ele>
        <time>2020-11-16T19:27:34Z</time>
      </trkpt>
      <trkpt lat="28.7216670" lon="-17.9275000">
        <ele>1192.8</ele>
        <time>2020-11-16T19:27:35Z</time>
      </trkpt>
      <trkpt lat="28.7216620" lon="-17.9275450">
        <ele>1193.1</ele>
        <time>2020-11-16T19:27:36Z</time>
      </trkpt>
      <trkpt lat="28.7216620" lon="-17.9275450">
        <ele>1193.1</ele>
        <time>2020-11-16T19:27:37Z</time>
      </trkpt>
      <trkpt lat="28.7216870" lon="-17.9275980">
        <ele>1193.5</ele>
        <time>2020-11-16T19:27:38Z</time>
      </trkpt>
      <trkpt lat="28.7216870" lon="-17.9275980">
        <ele>1193.5</ele>
        <time>2020-11-16T19:27:39Z</time>
      </trkpt>
      <trkpt lat="28.7217050" lon="-17.9276320">
        <ele>1193.8</ele>
        <time>2020-11-16T19:27:40Z</time>
      </trkpt>
      <trkpt lat="28.7217050" lon="-17.9276320">
        <ele>1193.8</ele>
        <time>2020-11-16T19:27:41Z</time>
      </trkpt>
      <trkpt lat="28.7216950" lon="-17.9276620">
        <ele>1194.0</ele>
        <time>2020-11-16T19:27:42Z</time>
      </trkpt>
      <trkpt lat="28.7216720" lon="-17.9276650">
        <ele>1192.6</ele>
        <time>2020-11-16T19:27:43Z</time>
      </trkpt>
      <trkpt lat="28.7216330" lon="-17.9276670">
        <ele>1191.2</ele>
        <time>2020-11-16T19:27:44Z</time>
      </trkpt>
      <trkpt lat="28.7216330" lon="-17.9276670">
        <ele>1191.9</ele>
        <time>2020-11-16T19:27:45Z</time>
      </trkpt>
      <trkpt lat="28.7216000" lon="-17.9276920">
        <ele>1189.9</ele>
        <time>2020-11-16T19:27:46Z</time>
      </trkpt>
      <trkpt lat="28.7216000" lon="-17.9276920">
        <ele>1190.6</ele>
        <time>2020-11-16T19:27:47Z</time>
      </trkpt>
      <trkpt lat="28.7215880" lon="-17.9277330">
        <ele>1190.6</ele>
        <time>2020-11-16T19:27:48Z</time>
      </trkpt>
      <trkpt lat="28.7215880" lon="-17.9277330">
        <ele>1191.3</ele>
        <time>2020-11-16T19:27:49Z</time>
      </trkpt>
      <trkpt lat="28.7215720" lon="-17.9277820">
        <ele>1191.4</ele>
        <time>2020-11-16T19:27:50Z</time>
      </trkpt>
      <trkpt lat="28.7215630" lon="-17.9278030">
        <ele>1189.1</ele>
        <time>2020-11-16T19:27:51Z</time>
      </trkpt>
      <trkpt lat="28.7215630" lon="-17.9278030">
        <ele>1189.8</ele>
        <time>2020-11-16T19:27:52Z</time>
      </trkpt>
      <trkpt lat="28.7215170" lon="-17.9278330">
        <ele>1188.3</ele>
        <time>2020-11-16T19:27:53Z</time>
      </trkpt>
      <trkpt lat="28.7215170" lon="-17.9278330">
        <ele>1189.0</ele>
        <time>2020-11-16T19:27:54Z</time>
      </trkpt>
      <trkpt lat="28.7214920" lon="-17.9278600">
        <ele>1189.1</ele>
        <time>2020-11-16T19:27:55Z</time>
      </trkpt>
      <trkpt lat="28.7214920" lon="-17.9278600">
        <ele>1189.8</ele>
        <time>2020-11-16T19:27:56Z</time>
      </trkpt>
      <trkpt lat="28.7214920" lon="-17.9278600">
        <ele>1190.5</ele>
        <time>2020-11-16T19:27:57Z</time>
      </trkpt>
      <trkpt lat="28.7214630" lon="-17.9278950">
        <ele>1188.4</ele>
        <time>2020-11-16T19:27:58Z</time>
      </trkpt>
      <trkpt lat="28.7214350" lon="-17.9279280">
        <ele>1186.4</ele>
        <time>2020-11-16T19:27:59Z</time>
      </trkpt>
      <trkpt lat="28.7214100" lon="-17.9279330">
        <ele>1185.2</ele>
        <time>2020-11-16T19:28:00Z</time>
      </trkpt>
      <trkpt lat="28.7214100" lon="-17.9279330">
        <ele>1185.9</ele>
        <time>2020-11-16T19:28:01Z</time>
      </trkpt>
      <trkpt lat="28.7213480" lon="-17.9279450">
        <ele>1184.8</ele>
        <time>2020-11-16T19:28:02Z</time>
      </trkpt>
      <trkpt lat="28.7213480" lon="-17.9279450">
        <ele>1184.8</ele>
        <time>2020-11-16T19:28:03Z</time>
      </trkpt>
      <trkpt lat="28.7212980" lon="-17.9279520">
        <ele>1184.0</ele>
        <time>2020-11-16T19:28:04Z</time>
      </trkpt>
      <trkpt lat="28.7212850" lon="-17.9279550">
        <ele>1183.8</ele>
        <time>2020-11-16T19:28:05Z</time>
      </trkpt>
      <trkpt lat="28.7212850" lon="-17.9279550">
        <ele>1183.8</ele>
        <time>2020-11-16T19:28:06Z</time>
      </trkpt>
      <trkpt lat="28.7212530" lon="-17.9279630">
        <ele>1183.3</ele>
        <time>2020-11-16T19:28:07Z</time>
      </trkpt>
      <trkpt lat="28.7212530" lon="-17.9279630">
        <ele>1183.3</ele>
        <time>2020-11-16T19:28:08Z</time>
      </trkpt>
      <trkpt lat="28.7212230" lon="-17.9279700">
        <ele>1182.8</ele>
        <time>2020-11-16T19:28:09Z</time>
      </trkpt>
      <trkpt lat="28.7212230" lon="-17.9279700">
        <ele>1182.8</ele>
        <time>2020-11-16T19:28:10Z</time>
      </trkpt>
      <trkpt lat="28.7211830" lon="-17.9279580">
        <ele>1182.2</ele>
        <time>2020-11-16T19:28:11Z</time>
      </trkpt>
      <trkpt lat="28.7211830" lon="-17.9279580">
        <ele>1182.2</ele>
        <time>2020-11-16T19:28:12Z</time>
      </trkpt>
      <trkpt lat="28.7211480" lon="-17.9279870">
        <ele>1181.5</ele>
        <time>2020-11-16T19:28:13Z</time>
      </trkpt>
      <trkpt lat="28.7211350" lon="-17.9279950">
        <ele>1181.4</ele>
        <time>2020-11-16T19:28:14Z</time>
      </trkpt>
      <trkpt lat="28.7211350" lon="-17.9279950">
        <ele>1181.4</ele>
        <time>2020-11-16T19:28:15Z</time>
      </trkpt>
      <trkpt lat="28.7211250" lon="-17.9280070">
        <ele>1181.6</ele>
        <time>2020-11-16T19:28:16Z</time>
      </trkpt>
      <trkpt lat="28.7211250" lon="-17.9280070">
        <ele>1181.6</ele>
        <time>2020-11-16T19:28:17Z</time>
      </trkpt>
      <trkpt lat="28.7211020" lon="-17.9280170">
        <ele>1181.8</ele>
        <time>2020-11-16T19:28:18Z</time>
      </trkpt>
      <trkpt lat="28.7211020" lon="-17.9280170">
        <ele>1181.8</ele>
        <time>2020-11-16T19:28:19Z</time>
      </trkpt>
      <trkpt lat="28.7210700" lon="-17.9280200">
        <ele>1182.1</ele>
        <time>2020-11-16T19:28:20Z</time>
      </trkpt>
      <trkpt lat="28.7210700" lon="-17.9280200">
        <ele>1182.1</ele>
        <time>2020-11-16T19:28:21Z</time>
      </trkpt>
      <trkpt lat="28.7210280" lon="-17.9280100">
        <ele>1182.4</ele>
        <time>2020-11-16T19:28:22Z</time>
      </trkpt>
      <trkpt lat="28.7210280" lon="-17.9280100">
        <ele>1182.4</ele>
        <time>2020-11-16T19:28:23Z</time>
      </trkpt>
      <trkpt lat="28.7209850" lon="-17.9280100">
        <ele>1182.7</ele>
        <time>2020-11-16T19:28:24Z</time>
      </trkpt>
      <trkpt lat="28.7209850" lon="-17.9280100">
        <ele>1182.7</ele>
        <time>2020-11-16T19:28:25Z</time>
      </trkpt>
      <trkpt lat="28.7209470" lon="-17.9280280">
        <ele>1183.0</ele>
        <time>2020-11-16T19:28:26Z</time>
      </trkpt>
      <trkpt lat="28.7209470" lon="-17.9280280">
        <ele>1183.0</ele>
        <time>2020-11-16T19:28:27Z</time>
      </trkpt>
      <trkpt lat="28.7209200" lon="-17.9280400">
        <ele>1183.2</ele>
        <time>2020-11-16T19:28:28Z</time>
      </trkpt>
      <trkpt lat="28.7209200" lon="-17.9280400">
        <ele>1183.2</ele>
        <time>2020-11-16T19:28:29Z</time>
      </trkpt>
      <trkpt lat="28.7208850" lon="-17.9280370">
        <ele>1183.5</ele>
        <time>2020-11-16T19:28:30Z</time>
      </trkpt>
      <trkpt lat="28.7208850" lon="-17.9280370">
        <ele>1183.5</ele>
        <time>2020-11-16T19:28:31Z</time>
      </trkpt>
      <trkpt lat="28.7208380" lon="-17.9280470">
        <ele>1183.9</ele>
        <time>2020-11-16T19:28:32Z</time>
      </trkpt>
      <trkpt lat="28.7208380" lon="-17.9280470">
        <ele>1183.9</ele>
        <time>2020-11-16T19:28:33Z</time>
      </trkpt>
      <trkpt lat="28.7207930" lon="-17.9280470">
        <ele>1184.3</ele>
        <time>2020-11-16T19:28:34Z</time>
      </trkpt>
      <trkpt lat="28.7207930" lon="-17.9280470">
        <ele>1184.3</ele>
        <time>2020-11-16T19:28:35Z</time>
      </trkpt>
      <trkpt lat="28.7207020" lon="-17.9280230">
        <ele>1185.1</ele>
        <time>2020-11-16T19:28:36Z</time>
      </trkpt>
      <trkpt lat="28.7207020" lon="-17.9280230">
        <ele>1185.1</ele>
        <time>2020-11-16T19:28:37Z</time>
      </trkpt>
      <trkpt lat="28.7206350" lon="-17.9280130">
        <ele>1185.7</ele>
        <time>2020-11-16T19:28:38Z</time>
      </trkpt>
      <trkpt lat="28.7206350" lon="-17.9280130">
        <ele>1185.7</ele>
        <time>2020-11-16T19:28:39Z</time>
      </trkpt>
      <trkpt lat="28.7205680" lon="-17.9280000">
        <ele>1186.4</ele>
        <time>2020-11-16T19:28:40Z</time>
      </trkpt>
      <trkpt lat="28.7205680" lon="-17.9280000">
        <ele>1186.4</ele>
        <time>2020-11-16T19:28:41Z</time>
      </trkpt>
      <trkpt lat="28.7205270" lon="-17.9280050">
        <ele>1186.8</ele>
        <time>2020-11-16T19:28:42Z</time>
      </trkpt>
      <trkpt lat="28.7205270" lon="-17.9280050">
        <ele>1186.8</ele>
        <time>2020-11-16T19:28:43Z</time>
      </trkpt>
      <trkpt lat="28.7204700" lon="-17.9280250">
        <ele>1187.5</ele>
        <time>2020-11-16T19:28:44Z</time>
      </trkpt>
      <trkpt lat="28.7204700" lon="-17.9280250">
        <ele>1187.5</ele>
        <time>2020-11-16T19:28:45Z</time>
      </trkpt>
      <trkpt lat="28.7203930" lon="-17.9280100">
        <ele>1188.4</ele>
        <time>2020-11-16T19:28:46Z</time>
      </trkpt>
      <trkpt lat="28.7203930" lon="-17.9280100">
        <ele>1188.4</ele>
        <time>2020-11-16T19:28:47Z</time>
      </trkpt>
      <trkpt lat="28.7203530" lon="-17.9280170">
        <ele>1188.8</ele>
        <time>2020-11-16T19:28:48Z</time>
      </trkpt>
      <trkpt lat="28.7203530" lon="-17.9280170">
        <ele>1188.8</ele>
        <time>2020-11-16T19:28:49Z</time>
      </trkpt>
      <trkpt lat="28.7203100" lon="-17.9280150">
        <ele>1189.3</ele>
        <time>2020-11-16T19:28:50Z</time>
      </trkpt>
      <trkpt lat="28.7203100" lon="-17.9280150">
        <ele>1189.3</ele>
        <time>2020-11-16T19:28:51Z</time>
      </trkpt>
      <trkpt lat="28.7202770" lon="-17.9280200">
        <ele>1189.7</ele>
        <time>2020-11-16T19:28:52Z</time>
      </trkpt>
      <trkpt lat="28.7202770" lon="-17.9280200">
        <ele>1189.7</ele>
        <time>2020-11-16T19:28:53Z</time>
      </trkpt>
      <trkpt lat="28.7202350" lon="-17.9280300">
        <ele>1190.2</ele>
        <time>2020-11-16T19:28:54Z</time>
      </trkpt>
      <trkpt lat="28.7202170" lon="-17.9280350">
        <ele>1190.5</ele>
        <time>2020-11-16T19:28:55Z</time>
      </trkpt>
      <trkpt lat="28.7201980" lon="-17.9280370">
        <ele>1190.7</ele>
        <time>2020-11-16T19:28:56Z</time>
      </trkpt>
      <trkpt lat="28.7201980" lon="-17.9280370">
        <ele>1190.7</ele>
        <time>2020-11-16T19:28:57Z</time>
      </trkpt>
      <trkpt lat="28.7201630" lon="-17.9280500">
        <ele>1191.1</ele>
        <time>2020-11-16T19:28:58Z</time>
      </trkpt>
      <trkpt lat="28.7201630" lon="-17.9280500">
        <ele>1191.1</ele>
        <time>2020-11-16T19:28:59Z</time>
      </trkpt>
      <trkpt lat="28.7201320" lon="-17.9280670">
        <ele>1191.5</ele>
        <time>2020-11-16T19:29:00Z</time>
      </trkpt>
      <trkpt lat="28.7201320" lon="-17.9280670">
        <ele>1191.5</ele>
        <time>2020-11-16T19:29:01Z</time>
      </trkpt>
      <trkpt lat="28.7201000" lon="-17.9280800">
        <ele>1191.8</ele>
        <time>2020-11-16T19:29:02Z</time>
      </trkpt>
      <trkpt lat="28.7201000" lon="-17.9280800">
        <ele>1191.8</ele>
        <time>2020-11-16T19:29:03Z</time>
      </trkpt>
      <trkpt lat="28.7200770" lon="-17.9281020">
        <ele>1192.1</ele>
        <time>2020-11-16T19:29:04Z</time>
      </trkpt>
      <trkpt lat="28.7200770" lon="-17.9281020">
        <ele>1192.1</ele>
        <time>2020-11-16T19:29:05Z</time>
      </trkpt>
      <trkpt lat="28.7200600" lon="-17.9281270">
        <ele>1192.4</ele>
        <time>2020-11-16T19:29:06Z</time>
      </trkpt>
      <trkpt lat="28.7200600" lon="-17.9281270">
        <ele>1192.4</ele>
        <time>2020-11-16T19:29:07Z</time>
      </trkpt>
      <trkpt lat="28.7200380" lon="-17.9281600">
        <ele>1192.7</ele>
        <time>2020-11-16T19:29:08Z</time>
      </trkpt>
      <trkpt lat="28.7200380" lon="-17.9281600">
        <ele>1192.7</ele>
        <time>2020-11-16T19:29:09Z</time>
      </trkpt>
      <trkpt lat="28.7200220" lon="-17.9281980">
        <ele>1192.9</ele>
        <time>2020-11-16T19:29:10Z</time>
      </trkpt>
      <trkpt lat="28.7200220" lon="-17.9281980">
        <ele>1192.9</ele>
        <time>2020-11-16T19:29:11Z</time>
      </trkpt>
      <trkpt lat="28.7200020" lon="-17.9282330">
        <ele>1193.2</ele>
        <time>2020-11-16T19:29:12Z</time>
      </trkpt>
      <trkpt lat="28.7199900" lon="-17.9282520">
        <ele>1193.3</ele>
        <time>2020-11-16T19:29:13Z</time>
      </trkpt>
      <trkpt lat="28.7199900" lon="-17.9282520">
        <ele>1193.3</ele>
        <time>2020-11-16T19:29:14Z</time>
      </trkpt>
      <trkpt lat="28.7199550" lon="-17.9282830">
        <ele>1193.5</ele>
        <time>2020-11-16T19:29:15Z</time>
      </trkpt>
      <trkpt lat="28.7199550" lon="-17.9282830">
        <ele>1193.5</ele>
        <time>2020-11-16T19:29:16Z</time>
      </trkpt>
      <trkpt lat="28.7199220" lon="-17.9283100">
        <ele>1193.7</ele>
        <time>2020-11-16T19:29:17Z</time>
      </trkpt>
      <trkpt lat="28.7199080" lon="-17.9283220">
        <ele>1193.8</ele>
        <time>2020-11-16T19:29:18Z</time>
      </trkpt>
      <trkpt lat="28.7199080" lon="-17.9283220">
        <ele>1193.8</ele>
        <time>2020-11-16T19:29:19Z</time>
      </trkpt>
      <trkpt lat="28.7198800" lon="-17.9283380">
        <ele>1194.0</ele>
        <time>2020-11-16T19:29:20Z</time>
      </trkpt>
      <trkpt lat="28.7198800" lon="-17.9283380">
        <ele>1194.0</ele>
        <time>2020-11-16T19:29:21Z</time>
      </trkpt>
      <trkpt lat="28.7198580" lon="-17.9283600">
        <ele>1194.1</ele>
        <time>2020-11-16T19:29:22Z</time>
      </trkpt>
      <trkpt lat="28.7198580" lon="-17.9283600">
        <ele>1194.1</ele>
        <time>2020-11-16T19:29:23Z</time>
      </trkpt>
      <trkpt lat="28.7198350" lon="-17.9283850">
        <ele>1194.2</ele>
        <time>2020-11-16T19:29:24Z</time>
      </trkpt>
      <trkpt lat="28.7198350" lon="-17.9283850">
        <ele>1194.2</ele>
        <time>2020-11-16T19:29:25Z</time>
      </trkpt>
      <trkpt lat="28.7198120" lon="-17.9284080">
        <ele>1194.4</ele>
        <time>2020-11-16T19:29:26Z</time>
      </trkpt>
      <trkpt lat="28.7198120" lon="-17.9284080">
        <ele>1194.4</ele>
        <time>2020-11-16T19:29:27Z</time>
      </trkpt>
      <trkpt lat="28.7197800" lon="-17.9284230">
        <ele>1194.5</ele>
        <time>2020-11-16T19:29:28Z</time>
      </trkpt>
      <trkpt lat="28.7197800" lon="-17.9284230">
        <ele>1194.5</ele>
        <time>2020-11-16T19:29:29Z</time>
      </trkpt>
      <trkpt lat="28.7197380" lon="-17.9284370">
        <ele>1194.6</ele>
        <time>2020-11-16T19:29:30Z</time>
      </trkpt>
      <trkpt lat="28.7197380" lon="-17.9284370">
        <ele>1194.6</ele>
        <time>2020-11-16T19:29:31Z</time>
      </trkpt>
      <trkpt lat="28.7196930" lon="-17.9284480">
        <ele>1194.8</ele>
        <time>2020-11-16T19:29:32Z</time>
      </trkpt>
      <trkpt lat="28.7196930" lon="-17.9284480">
        <ele>1194.8</ele>
        <time>2020-11-16T19:29:33Z</time>
      </trkpt>
      <trkpt lat="28.7196420" lon="-17.9284680">
        <ele>1195.0</ele>
        <time>2020-11-16T19:29:34Z</time>
      </trkpt>
      <trkpt lat="28.7196420" lon="-17.9284680">
        <ele>1195.0</ele>
        <time>2020-11-16T19:29:35Z</time>
      </trkpt>
      <trkpt lat="28.7196000" lon="-17.9284970">
        <ele>1195.1</ele>
        <time>2020-11-16T19:29:36Z</time>
      </trkpt>
      <trkpt lat="28.7196000" lon="-17.9284970">
        <ele>1195.1</ele>
        <time>2020-11-16T19:29:37Z</time>
      </trkpt>
      <trkpt lat="28.7195630" lon="-17.9285220">
        <ele>1195.3</ele>
        <time>2020-11-16T19:29:38Z</time>
      </trkpt>
      <trkpt lat="28.7195630" lon="-17.9285220">
        <ele>1195.3</ele>
        <time>2020-11-16T19:29:39Z</time>
      </trkpt>
      <trkpt lat="28.7195170" lon="-17.9285330">
        <ele>1195.4</ele>
        <time>2020-11-16T19:29:40Z</time>
      </trkpt>
      <trkpt lat="28.7195170" lon="-17.9285330">
        <ele>1195.4</ele>
        <time>2020-11-16T19:29:41Z</time>
      </trkpt>
      <trkpt lat="28.7194750" lon="-17.9285280">
        <ele>1195.6</ele>
        <time>2020-11-16T19:29:42Z</time>
      </trkpt>
      <trkpt lat="28.7194630" lon="-17.9285170">
        <ele>1195.6</ele>
        <time>2020-11-16T19:29:43Z</time>
      </trkpt>
      <trkpt lat="28.7194630" lon="-17.9285170">
        <ele>1195.6</ele>
        <time>2020-11-16T19:29:44Z</time>
      </trkpt>
      <trkpt lat="28.7194630" lon="-17.9285170">
        <ele>1195.6</ele>
        <time>2020-11-16T19:29:45Z</time>
      </trkpt>
      <trkpt lat="28.7194450" lon="-17.9284770">
        <ele>1195.8</ele>
        <time>2020-11-16T19:29:46Z</time>
      </trkpt>
      <trkpt lat="28.7194270" lon="-17.9284420">
        <ele>1195.9</ele>
        <time>2020-11-16T19:29:47Z</time>
      </trkpt>
      <trkpt lat="28.7194270" lon="-17.9284420">
        <ele>1195.9</ele>
        <time>2020-11-16T19:29:48Z</time>
      </trkpt>
      <trkpt lat="28.7194250" lon="-17.9283980">
        <ele>1196.0</ele>
        <time>2020-11-16T19:29:49Z</time>
      </trkpt>
      <trkpt lat="28.7194230" lon="-17.9283770">
        <ele>1196.1</ele>
        <time>2020-11-16T19:29:50Z</time>
      </trkpt>
      <trkpt lat="28.7194230" lon="-17.9283770">
        <ele>1196.1</ele>
        <time>2020-11-16T19:29:51Z</time>
      </trkpt>
      <trkpt lat="28.7194130" lon="-17.9283320">
        <ele>1196.2</ele>
        <time>2020-11-16T19:29:52Z</time>
      </trkpt>
      <trkpt lat="28.7194130" lon="-17.9283320">
        <ele>1196.2</ele>
        <time>2020-11-16T19:29:53Z</time>
      </trkpt>
      <trkpt lat="28.7194070" lon="-17.9282900">
        <ele>1196.3</ele>
        <time>2020-11-16T19:29:54Z</time>
      </trkpt>
      <trkpt lat="28.7194070" lon="-17.9282900">
        <ele>1196.3</ele>
        <time>2020-11-16T19:29:55Z</time>
      </trkpt>
      <trkpt lat="28.7193950" lon="-17.9282400">
        <ele>1196.3</ele>
        <time>2020-11-16T19:29:56Z</time>
      </trkpt>
      <trkpt lat="28.7193950" lon="-17.9282400">
        <ele>1196.3</ele>
        <time>2020-11-16T19:29:57Z</time>
      </trkpt>
      <trkpt lat="28.7193880" lon="-17.9281900">
        <ele>1196.4</ele>
        <time>2020-11-16T19:29:58Z</time>
      </trkpt>
      <trkpt lat="28.7193850" lon="-17.9281670">
        <ele>1196.4</ele>
        <time>2020-11-16T19:29:59Z</time>
      </trkpt>
      <trkpt lat="28.7193850" lon="-17.9281670">
        <ele>1196.4</ele>
        <time>2020-11-16T19:30:00Z</time>
      </trkpt>
      <trkpt lat="28.7193770" lon="-17.9281220">
        <ele>1196.4</ele>
        <time>2020-11-16T19:30:01Z</time>
      </trkpt>
      <trkpt lat="28.7193700" lon="-17.9280980">
        <ele>1196.4</ele>
        <time>2020-11-16T19:30:02Z</time>
      </trkpt>
      <trkpt lat="28.7193700" lon="-17.9280980">
        <ele>1196.4</ele>
        <time>2020-11-16T19:30:03Z</time>
      </trkpt>
      <trkpt lat="28.7193620" lon="-17.9280550">
        <ele>1196.4</ele>
        <time>2020-11-16T19:30:04Z</time>
      </trkpt>
      <trkpt lat="28.7193620" lon="-17.9280550">
        <ele>1196.4</ele>
        <time>2020-11-16T19:30:05Z</time>
      </trkpt>
      <trkpt lat="28.7193600" lon="-17.9280370">
        <ele>1196.4</ele>
        <time>2020-11-16T19:30:06Z</time>
      </trkpt>
      <trkpt lat="28.7193520" lon="-17.9279920">
        <ele>1196.3</ele>
        <time>2020-11-16T19:30:07Z</time>
      </trkpt>
      <trkpt lat="28.7193470" lon="-17.9279700">
        <ele>1196.3</ele>
        <time>2020-11-16T19:30:08Z</time>
      </trkpt>
      <trkpt lat="28.7193470" lon="-17.9279700">
        <ele>1196.3</ele>
        <time>2020-11-16T19:30:09Z</time>
      </trkpt>
      <trkpt lat="28.7193250" lon="-17.9279120">
        <ele>1196.0</ele>
        <time>2020-11-16T19:30:10Z</time>
      </trkpt>
      <trkpt lat="28.7193100" lon="-17.9278780">
        <ele>1195.8</ele>
        <time>2020-11-16T19:30:11Z</time>
      </trkpt>
      <trkpt lat="28.7193100" lon="-17.9278780">
        <ele>1195.8</ele>
        <time>2020-11-16T19:30:12Z</time>
      </trkpt>
      <trkpt lat="28.7192770" lon="-17.9278050">
        <ele>1195.4</ele>
        <time>2020-11-16T19:30:13Z</time>
      </trkpt>
      <trkpt lat="28.7192770" lon="-17.9278050">
        <ele>1195.4</ele>
        <time>2020-11-16T19:30:14Z</time>
      </trkpt>
      <trkpt lat="28.7192300" lon="-17.9277450">
        <ele>1195.0</ele>
        <time>2020-11-16T19:30:15Z</time>
      </trkpt>
      <trkpt lat="28.7192300" lon="-17.9277450">
        <ele>1195.0</ele>
        <time>2020-11-16T19:30:16Z</time>
      </trkpt>
      <trkpt lat="28.7191670" lon="-17.9276820">
        <ele>1194.4</ele>
        <time>2020-11-16T19:30:17Z</time>
      </trkpt>
      <trkpt lat="28.7191670" lon="-17.9276820">
        <ele>1194.4</ele>
        <time>2020-11-16T19:30:18Z</time>
      </trkpt>
      <trkpt lat="28.7191150" lon="-17.9276350">
        <ele>1194.0</ele>
        <time>2020-11-16T19:30:19Z</time>
      </trkpt>
      <trkpt lat="28.7191150" lon="-17.9276350">
        <ele>1194.0</ele>
        <time>2020-11-16T19:30:20Z</time>
      </trkpt>
      <trkpt lat="28.7190580" lon="-17.9275880">
        <ele>1193.5</ele>
        <time>2020-11-16T19:30:21Z</time>
      </trkpt>
      <trkpt lat="28.7190320" lon="-17.9275750">
        <ele>1193.3</ele>
        <time>2020-11-16T19:30:22Z</time>
      </trkpt>
      <trkpt lat="28.7190320" lon="-17.9275750">
        <ele>1193.3</ele>
        <time>2020-11-16T19:30:23Z</time>
      </trkpt>
      <trkpt lat="28.7189930" lon="-17.9275350">
        <ele>1192.8</ele>
        <time>2020-11-16T19:30:24Z</time>
      </trkpt>
      <trkpt lat="28.7189930" lon="-17.9275350">
        <ele>1192.8</ele>
        <time>2020-11-16T19:30:25Z</time>
      </trkpt>
      <trkpt lat="28.7189600" lon="-17.9274730">
        <ele>1192.3</ele>
        <time>2020-11-16T19:30:26Z</time>
      </trkpt>
      <trkpt lat="28.7189600" lon="-17.9274730">
        <ele>1192.3</ele>
        <time>2020-11-16T19:30:27Z</time>
      </trkpt>
      <trkpt lat="28.7189330" lon="-17.9274100">
        <ele>1191.7</ele>
        <time>2020-11-16T19:30:28Z</time>
      </trkpt>
      <trkpt lat="28.7189330" lon="-17.9274100">
        <ele>1191.7</ele>
        <time>2020-11-16T19:30:29Z</time>
      </trkpt>
      <trkpt lat="28.7188980" lon="-17.9273370">
        <ele>1191.0</ele>
        <time>2020-11-16T19:30:30Z</time>
      </trkpt>
      <trkpt lat="28.7188750" lon="-17.9273070">
        <ele>1190.6</ele>
        <time>2020-11-16T19:30:31Z</time>
      </trkpt>
      <trkpt lat="28.7188750" lon="-17.9273070">
        <ele>1190.6</ele>
        <time>2020-11-16T19:30:32Z</time>
      </trkpt>
      <trkpt lat="28.7188300" lon="-17.9272620">
        <ele>1190.1</ele>
        <time>2020-11-16T19:30:33Z</time>
      </trkpt>
      <trkpt lat="28.7188300" lon="-17.9272620">
        <ele>1190.1</ele>
        <time>2020-11-16T19:30:34Z</time>
      </trkpt>
      <trkpt lat="28.7187850" lon="-17.9272280">
        <ele>1189.5</ele>
        <time>2020-11-16T19:30:35Z</time>
      </trkpt>
      <trkpt lat="28.7187850" lon="-17.9272280">
        <ele>1189.6</ele>
        <time>2020-11-16T19:30:36Z</time>
      </trkpt>
      <trkpt lat="28.7187600" lon="-17.9271850">
        <ele>1189.1</ele>
        <time>2020-11-16T19:30:37Z</time>
      </trkpt>
      <trkpt lat="28.7187600" lon="-17.9271850">
        <ele>1189.1</ele>
        <time>2020-11-16T19:30:38Z</time>
      </trkpt>
      <trkpt lat="28.7187420" lon="-17.9271350">
        <ele>1188.7</ele>
        <time>2020-11-16T19:30:39Z</time>
      </trkpt>
      <trkpt lat="28.7187420" lon="-17.9271350">
        <ele>1188.7</ele>
        <time>2020-11-16T19:30:40Z</time>
      </trkpt>
      <trkpt lat="28.7187420" lon="-17.9271350">
        <ele>1188.7</ele>
        <time>2020-11-16T19:30:41Z</time>
      </trkpt>
      <trkpt lat="28.7187220" lon="-17.9271180">
        <ele>1188.4</ele>
        <time>2020-11-16T19:30:42Z</time>
      </trkpt>
      <trkpt lat="28.7186680" lon="-17.9271220">
        <ele>1187.8</ele>
        <time>2020-11-16T19:30:43Z</time>
      </trkpt>
      <trkpt lat="28.7186520" lon="-17.9271480">
        <ele>1187.6</ele>
        <time>2020-11-16T19:30:44Z</time>
      </trkpt>
      <trkpt lat="28.7186520" lon="-17.9271480">
        <ele>1187.6</ele>
        <time>2020-11-16T19:30:45Z</time>
      </trkpt>
      <trkpt lat="28.7186100" lon="-17.9271780">
        <ele>1187.1</ele>
        <time>2020-11-16T19:30:46Z</time>
      </trkpt>
      <trkpt lat="28.7186100" lon="-17.9271780">
        <ele>1187.1</ele>
        <time>2020-11-16T19:30:47Z</time>
      </trkpt>
      <trkpt lat="28.7185320" lon="-17.9272350">
        <ele>1186.4</ele>
        <time>2020-11-16T19:30:48Z</time>
      </trkpt>
      <trkpt lat="28.7185320" lon="-17.9272350">
        <ele>1186.4</ele>
        <time>2020-11-16T19:30:49Z</time>
      </trkpt>
      <trkpt lat="28.7184670" lon="-17.9272970">
        <ele>1185.8</ele>
        <time>2020-11-16T19:30:50Z</time>
      </trkpt>
      <trkpt lat="28.7184670" lon="-17.9272970">
        <ele>1185.8</ele>
        <time>2020-11-16T19:30:51Z</time>
      </trkpt>
      <trkpt lat="28.7183980" lon="-17.9273720">
        <ele>1185.2</ele>
        <time>2020-11-16T19:30:52Z</time>
      </trkpt>
      <trkpt lat="28.7183630" lon="-17.9274080">
        <ele>1184.9</ele>
        <time>2020-11-16T19:30:53Z</time>
      </trkpt>
      <trkpt lat="28.7183630" lon="-17.9274080">
        <ele>1184.9</ele>
        <time>2020-11-16T19:30:54Z</time>
      </trkpt>
      <trkpt lat="28.7182880" lon="-17.9274870">
        <ele>1184.2</ele>
        <time>2020-11-16T19:30:55Z</time>
      </trkpt>
      <trkpt lat="28.7182550" lon="-17.9275370">
        <ele>1183.8</ele>
        <time>2020-11-16T19:30:56Z</time>
      </trkpt>
      <trkpt lat="28.7182550" lon="-17.9275370">
        <ele>1183.8</ele>
        <time>2020-11-16T19:30:57Z</time>
      </trkpt>
      <trkpt lat="28.7181880" lon="-17.9276120">
        <ele>1183.2</ele>
        <time>2020-11-16T19:30:58Z</time>
      </trkpt>
      <trkpt lat="28.7181880" lon="-17.9276120">
        <ele>1183.2</ele>
        <time>2020-11-16T19:30:59Z</time>
      </trkpt>
      <trkpt lat="28.7181130" lon="-17.9276850">
        <ele>1182.4</ele>
        <time>2020-11-16T19:31:00Z</time>
      </trkpt>
      <trkpt lat="28.7181130" lon="-17.9276850">
        <ele>1182.4</ele>
        <time>2020-11-16T19:31:01Z</time>
      </trkpt>
      <trkpt lat="28.7180300" lon="-17.9277280">
        <ele>1181.6</ele>
        <time>2020-11-16T19:31:02Z</time>
      </trkpt>
      <trkpt lat="28.7180300" lon="-17.9277280">
        <ele>1181.6</ele>
        <time>2020-11-16T19:31:03Z</time>
      </trkpt>
      <trkpt lat="28.7179420" lon="-17.9277430">
        <ele>1180.9</ele>
        <time>2020-11-16T19:31:04Z</time>
      </trkpt>
      <trkpt lat="28.7179420" lon="-17.9277430">
        <ele>1180.9</ele>
        <time>2020-11-16T19:31:05Z</time>
      </trkpt>
      <trkpt lat="28.7178700" lon="-17.9277470">
        <ele>1180.2</ele>
        <time>2020-11-16T19:31:06Z</time>
      </trkpt>
      <trkpt lat="28.7178700" lon="-17.9277470">
        <ele>1180.2</ele>
        <time>2020-11-16T19:31:07Z</time>
      </trkpt>
      <trkpt lat="28.7177930" lon="-17.9277400">
        <ele>1179.5</ele>
        <time>2020-11-16T19:31:08Z</time>
      </trkpt>
      <trkpt lat="28.7177930" lon="-17.9277400">
        <ele>1179.5</ele>
        <time>2020-11-16T19:31:09Z</time>
      </trkpt>
      <trkpt lat="28.7177070" lon="-17.9277120">
        <ele>1178.7</ele>
        <time>2020-11-16T19:31:10Z</time>
      </trkpt>
      <trkpt lat="28.7177070" lon="-17.9277120">
        <ele>1178.7</ele>
        <time>2020-11-16T19:31:11Z</time>
      </trkpt>
      <trkpt lat="28.7176230" lon="-17.9276770">
        <ele>1178.0</ele>
        <time>2020-11-16T19:31:12Z</time>
      </trkpt>
      <trkpt lat="28.7176230" lon="-17.9276770">
        <ele>1178.0</ele>
        <time>2020-11-16T19:31:13Z</time>
      </trkpt>
      <trkpt lat="28.7175520" lon="-17.9276520">
        <ele>1177.6</ele>
        <time>2020-11-16T19:31:14Z</time>
      </trkpt>
      <trkpt lat="28.7175520" lon="-17.9276520">
        <ele>1177.6</ele>
        <time>2020-11-16T19:31:15Z</time>
      </trkpt>
      <trkpt lat="28.7174800" lon="-17.9276570">
        <ele>1177.1</ele>
        <time>2020-11-16T19:31:16Z</time>
      </trkpt>
      <trkpt lat="28.7174800" lon="-17.9276570">
        <ele>1177.1</ele>
        <time>2020-11-16T19:31:17Z</time>
      </trkpt>
      <trkpt lat="28.7174200" lon="-17.9276900">
        <ele>1176.8</ele>
        <time>2020-11-16T19:31:18Z</time>
      </trkpt>
      <trkpt lat="28.7174200" lon="-17.9276900">
        <ele>1176.8</ele>
        <time>2020-11-16T19:31:19Z</time>
      </trkpt>
      <trkpt lat="28.7174200" lon="-17.9276900">
        <ele>1176.8</ele>
        <time>2020-11-16T19:31:20Z</time>
      </trkpt>
      <trkpt lat="28.7173450" lon="-17.9277370">
        <ele>1176.2</ele>
        <time>2020-11-16T19:31:21Z</time>
      </trkpt>
      <trkpt lat="28.7172980" lon="-17.9277820">
        <ele>1175.8</ele>
        <time>2020-11-16T19:31:22Z</time>
      </trkpt>
      <trkpt lat="28.7172980" lon="-17.9277820">
        <ele>1175.8</ele>
        <time>2020-11-16T19:31:23Z</time>
      </trkpt>
      <trkpt lat="28.7172980" lon="-17.9277820">
        <ele>1175.8</ele>
        <time>2020-11-16T19:31:24Z</time>
      </trkpt>
      <trkpt lat="28.7172480" lon="-17.9277900">
        <ele>1175.5</ele>
        <time>2020-11-16T19:31:25Z</time>
      </trkpt>
      <trkpt lat="28.7171930" lon="-17.9277880">
        <ele>1175.1</ele>
        <time>2020-11-16T19:31:26Z</time>
      </trkpt>
      <trkpt lat="28.7171930" lon="-17.9277880">
        <ele>1175.1</ele>
        <time>2020-11-16T19:31:27Z</time>
      </trkpt>
      <trkpt lat="28.7171300" lon="-17.9277770">
        <ele>1174.7</ele>
        <time>2020-11-16T19:31:28Z</time>
      </trkpt>
      <trkpt lat="28.7171300" lon="-17.9277770">
        <ele>1174.7</ele>
        <time>2020-11-16T19:31:29Z</time>
      </trkpt>
      <trkpt lat="28.7170720" lon="-17.9277430">
        <ele>1174.2</ele>
        <time>2020-11-16T19:31:30Z</time>
      </trkpt>
      <trkpt lat="28.7170720" lon="-17.9277430">
        <ele>1174.2</ele>
        <time>2020-11-16T19:31:31Z</time>
      </trkpt>
      <trkpt lat="28.7170020" lon="-17.9276970">
        <ele>1173.7</ele>
        <time>2020-11-16T19:31:32Z</time>
      </trkpt>
      <trkpt lat="28.7170020" lon="-17.9276970">
        <ele>1173.7</ele>
        <time>2020-11-16T19:31:33Z</time>
      </trkpt>
      <trkpt lat="28.7169250" lon="-17.9276620">
        <ele>1173.3</ele>
        <time>2020-11-16T19:31:34Z</time>
      </trkpt>
      <trkpt lat="28.7169250" lon="-17.9276620">
        <ele>1173.3</ele>
        <time>2020-11-16T19:31:35Z</time>
      </trkpt>
      <trkpt lat="28.7168350" lon="-17.9276350">
        <ele>1173.0</ele>
        <time>2020-11-16T19:31:36Z</time>
      </trkpt>
      <trkpt lat="28.7168350" lon="-17.9276350">
        <ele>1173.0</ele>
        <time>2020-11-16T19:31:37Z</time>
      </trkpt>
      <trkpt lat="28.7167370" lon="-17.9276280">
        <ele>1172.7</ele>
        <time>2020-11-16T19:31:38Z</time>
      </trkpt>
      <trkpt lat="28.7167370" lon="-17.9276280">
        <ele>1172.7</ele>
        <time>2020-11-16T19:31:39Z</time>
      </trkpt>
      <trkpt lat="28.7166570" lon="-17.9276320">
        <ele>1172.6</ele>
        <time>2020-11-16T19:31:40Z</time>
      </trkpt>
      <trkpt lat="28.7166570" lon="-17.9276320">
        <ele>1172.6</ele>
        <time>2020-11-16T19:31:41Z</time>
      </trkpt>
      <trkpt lat="28.7165780" lon="-17.9276070">
        <ele>1172.7</ele>
        <time>2020-11-16T19:31:42Z</time>
      </trkpt>
      <trkpt lat="28.7165780" lon="-17.9276070">
        <ele>1172.7</ele>
        <time>2020-11-16T19:31:43Z</time>
      </trkpt>
      <trkpt lat="28.7165200" lon="-17.9275700">
        <ele>1172.8</ele>
        <time>2020-11-16T19:31:44Z</time>
      </trkpt>
      <trkpt lat="28.7165200" lon="-17.9275700">
        <ele>1172.8</ele>
        <time>2020-11-16T19:31:45Z</time>
      </trkpt>
      <trkpt lat="28.7165200" lon="-17.9275700">
        <ele>1172.8</ele>
        <time>2020-11-16T19:31:46Z</time>
      </trkpt>
      <trkpt lat="28.7164820" lon="-17.9275120">
        <ele>1173.0</ele>
        <time>2020-11-16T19:31:47Z</time>
      </trkpt>
      <trkpt lat="28.7164500" lon="-17.9274280">
        <ele>1173.2</ele>
        <time>2020-11-16T19:31:48Z</time>
      </trkpt>
      <trkpt lat="28.7164500" lon="-17.9274280">
        <ele>1173.2</ele>
        <time>2020-11-16T19:31:49Z</time>
      </trkpt>
      <trkpt lat="28.7164180" lon="-17.9273530">
        <ele>1173.5</ele>
        <time>2020-11-16T19:31:50Z</time>
      </trkpt>
      <trkpt lat="28.7164080" lon="-17.9273230">
        <ele>1173.6</ele>
        <time>2020-11-16T19:31:51Z</time>
      </trkpt>
      <trkpt lat="28.7164080" lon="-17.9273230">
        <ele>1173.6</ele>
        <time>2020-11-16T19:31:52Z</time>
      </trkpt>
      <trkpt lat="28.7163850" lon="-17.9272400">
        <ele>1173.9</ele>
        <time>2020-11-16T19:31:53Z</time>
      </trkpt>
      <trkpt lat="28.7163850" lon="-17.9272400">
        <ele>1173.9</ele>
        <time>2020-11-16T19:31:54Z</time>
      </trkpt>
      <trkpt lat="28.7163720" lon="-17.9271720">
        <ele>1174.2</ele>
        <time>2020-11-16T19:31:55Z</time>
      </trkpt>
      <trkpt lat="28.7163720" lon="-17.9271720">
        <ele>1174.2</ele>
        <time>2020-11-16T19:31:56Z</time>
      </trkpt>
      <trkpt lat="28.7163530" lon="-17.9271120">
        <ele>1174.5</ele>
        <time>2020-11-16T19:31:57Z</time>
      </trkpt>
      <trkpt lat="28.7163530" lon="-17.9271120">
        <ele>1174.5</ele>
        <time>2020-11-16T19:31:58Z</time>
      </trkpt>
      <trkpt lat="28.7163170" lon="-17.9270800">
        <ele>1174.8</ele>
        <time>2020-11-16T19:31:59Z</time>
      </trkpt>
      <trkpt lat="28.7163170" lon="-17.9270800">
        <ele>1174.8</ele>
        <time>2020-11-16T19:32:00Z</time>
      </trkpt>
      <trkpt lat="28.7162730" lon="-17.9270620">
        <ele>1175.2</ele>
        <time>2020-11-16T19:32:01Z</time>
      </trkpt>
      <trkpt lat="28.7162730" lon="-17.9270620">
        <ele>1175.2</ele>
        <time>2020-11-16T19:32:02Z</time>
      </trkpt>
      <trkpt lat="28.7162380" lon="-17.9270400">
        <ele>1175.5</ele>
        <time>2020-11-16T19:32:03Z</time>
      </trkpt>
      <trkpt lat="28.7162380" lon="-17.9270400">
        <ele>1175.5</ele>
        <time>2020-11-16T19:32:04Z</time>
      </trkpt>
      <trkpt lat="28.7162050" lon="-17.9270400">
        <ele>1175.8</ele>
        <time>2020-11-16T19:32:05Z</time>
      </trkpt>
      <trkpt lat="28.7161900" lon="-17.9270400">
        <ele>1175.9</ele>
        <time>2020-11-16T19:32:06Z</time>
      </trkpt>
      <trkpt lat="28.7161730" lon="-17.9270350">
        <ele>1176.1</ele>
        <time>2020-11-16T19:32:07Z</time>
      </trkpt>
      <trkpt lat="28.7161730" lon="-17.9270350">
        <ele>1176.1</ele>
        <time>2020-11-16T19:32:08Z</time>
      </trkpt>
      <trkpt lat="28.7161480" lon="-17.9270180">
        <ele>1176.4</ele>
        <time>2020-11-16T19:32:09Z</time>
      </trkpt>
      <trkpt lat="28.7161480" lon="-17.9270180">
        <ele>1176.4</ele>
        <time>2020-11-16T19:32:10Z</time>
      </trkpt>
      <trkpt lat="28.7161230" lon="-17.9270080">
        <ele>1176.7</ele>
        <time>2020-11-16T19:32:11Z</time>
      </trkpt>
      <trkpt lat="28.7161230" lon="-17.9270080">
        <ele>1176.7</ele>
        <time>2020-11-16T19:32:12Z</time>
      </trkpt>
      <trkpt lat="28.7160980" lon="-17.9269920">
        <ele>1177.0</ele>
        <time>2020-11-16T19:32:13Z</time>
      </trkpt>
      <trkpt lat="28.7160870" lon="-17.9269870">
        <ele>1177.2</ele>
        <time>2020-11-16T19:32:14Z</time>
      </trkpt>
      <trkpt lat="28.7160870" lon="-17.9269870">
        <ele>1177.2</ele>
        <time>2020-11-16T19:32:15Z</time>
      </trkpt>
      <trkpt lat="28.7160550" lon="-17.9269680">
        <ele>1177.6</ele>
        <time>2020-11-16T19:32:16Z</time>
      </trkpt>
      <trkpt lat="28.7160550" lon="-17.9269680">
        <ele>1177.6</ele>
        <time>2020-11-16T19:32:17Z</time>
      </trkpt>
      <trkpt lat="28.7160320" lon="-17.9269570">
        <ele>1177.9</ele>
        <time>2020-11-16T19:32:18Z</time>
      </trkpt>
      <trkpt lat="28.7160320" lon="-17.9269570">
        <ele>1177.9</ele>
        <time>2020-11-16T19:32:19Z</time>
      </trkpt>
      <trkpt lat="28.7160320" lon="-17.9269570">
        <ele>1177.9</ele>
        <time>2020-11-16T19:32:20Z</time>
      </trkpt>
      <trkpt lat="28.7160070" lon="-17.9269500">
        <ele>1178.1</ele>
        <time>2020-11-16T19:32:21Z</time>
      </trkpt>
      <trkpt lat="28.7159720" lon="-17.9269200">
        <ele>1178.6</ele>
        <time>2020-11-16T19:32:22Z</time>
      </trkpt>
      <trkpt lat="28.7159720" lon="-17.9269200">
        <ele>1178.6</ele>
        <time>2020-11-16T19:32:23Z</time>
      </trkpt>
      <trkpt lat="28.7159330" lon="-17.9268980">
        <ele>1179.0</ele>
        <time>2020-11-16T19:32:24Z</time>
      </trkpt>
      <trkpt lat="28.7159080" lon="-17.9268900">
        <ele>1179.2</ele>
        <time>2020-11-16T19:32:25Z</time>
      </trkpt>
      <trkpt lat="28.7159080" lon="-17.9268900">
        <ele>1179.2</ele>
        <time>2020-11-16T19:32:26Z</time>
      </trkpt>
      <trkpt lat="28.7158630" lon="-17.9268700">
        <ele>1179.7</ele>
        <time>2020-11-16T19:32:27Z</time>
      </trkpt>
      <trkpt lat="28.7158630" lon="-17.9268700">
        <ele>1179.7</ele>
        <time>2020-11-16T19:32:28Z</time>
      </trkpt>
      <trkpt lat="28.7158130" lon="-17.9268420">
        <ele>1180.1</ele>
        <time>2020-11-16T19:32:29Z</time>
      </trkpt>
      <trkpt lat="28.7157930" lon="-17.9268300">
        <ele>1180.2</ele>
        <time>2020-11-16T19:32:30Z</time>
      </trkpt>
      <trkpt lat="28.7157930" lon="-17.9268300">
        <ele>1180.2</ele>
        <time>2020-11-16T19:32:31Z</time>
      </trkpt>
      <trkpt lat="28.7157600" lon="-17.9268230">
        <ele>1180.5</ele>
        <time>2020-11-16T19:32:32Z</time>
      </trkpt>
      <trkpt lat="28.7157600" lon="-17.9268230">
        <ele>1180.5</ele>
        <time>2020-11-16T19:32:33Z</time>
      </trkpt>
      <trkpt lat="28.7157250" lon="-17.9268450">
        <ele>1180.7</ele>
        <time>2020-11-16T19:32:34Z</time>
      </trkpt>
      <trkpt lat="28.7157070" lon="-17.9268530">
        <ele>1180.9</ele>
        <time>2020-11-16T19:32:35Z</time>
      </trkpt>
      <trkpt lat="28.7157070" lon="-17.9268530">
        <ele>1180.9</ele>
        <time>2020-11-16T19:32:36Z</time>
      </trkpt>
      <trkpt lat="28.7156720" lon="-17.9268750">
        <ele>1181.2</ele>
        <time>2020-11-16T19:32:37Z</time>
      </trkpt>
      <trkpt lat="28.7156720" lon="-17.9268750">
        <ele>1181.2</ele>
        <time>2020-11-16T19:32:38Z</time>
      </trkpt>
      <trkpt lat="28.7156320" lon="-17.9269000">
        <ele>1181.5</ele>
        <time>2020-11-16T19:32:39Z</time>
      </trkpt>
      <trkpt lat="28.7156320" lon="-17.9269000">
        <ele>1181.5</ele>
        <time>2020-11-16T19:32:40Z</time>
      </trkpt>
      <trkpt lat="28.7155980" lon="-17.9269170">
        <ele>1181.7</ele>
        <time>2020-11-16T19:32:41Z</time>
      </trkpt>
      <trkpt lat="28.7155980" lon="-17.9269170">
        <ele>1181.7</ele>
        <time>2020-11-16T19:32:42Z</time>
      </trkpt>
      <trkpt lat="28.7155980" lon="-17.9269170">
        <ele>1181.7</ele>
        <time>2020-11-16T19:32:43Z</time>
      </trkpt>
      <trkpt lat="28.7155720" lon="-17.9269430">
        <ele>1181.9</ele>
        <time>2020-11-16T19:32:44Z</time>
      </trkpt>
      <trkpt lat="28.7155380" lon="-17.9269720">
        <ele>1182.2</ele>
        <time>2020-11-16T19:32:45Z</time>
      </trkpt>
      <trkpt lat="28.7155380" lon="-17.9269720">
        <ele>1182.2</ele>
        <time>2020-11-16T19:32:46Z</time>
      </trkpt>
      <trkpt lat="28.7155080" lon="-17.9270000">
        <ele>1182.4</ele>
        <time>2020-11-16T19:32:47Z</time>
      </trkpt>
      <trkpt lat="28.7155080" lon="-17.9270000">
        <ele>1182.4</ele>
        <time>2020-11-16T19:32:48Z</time>
      </trkpt>
      <trkpt lat="28.7154800" lon="-17.9270320">
        <ele>1182.7</ele>
        <time>2020-11-16T19:32:49Z</time>
      </trkpt>
      <trkpt lat="28.7154800" lon="-17.9270320">
        <ele>1182.7</ele>
        <time>2020-11-16T19:32:50Z</time>
      </trkpt>
      <trkpt lat="28.7154520" lon="-17.9270720">
        <ele>1182.9</ele>
        <time>2020-11-16T19:32:51Z</time>
      </trkpt>
      <trkpt lat="28.7154520" lon="-17.9270720">
        <ele>1182.9</ele>
        <time>2020-11-16T19:32:52Z</time>
      </trkpt>
      <trkpt lat="28.7154030" lon="-17.9270800">
        <ele>1183.0</ele>
        <time>2020-11-16T19:32:53Z</time>
      </trkpt>
      <trkpt lat="28.7154030" lon="-17.9270800">
        <ele>1183.0</ele>
        <time>2020-11-16T19:32:54Z</time>
      </trkpt>
      <trkpt lat="28.7153820" lon="-17.9271080">
        <ele>1183.1</ele>
        <time>2020-11-16T19:32:55Z</time>
      </trkpt>
      <trkpt lat="28.7153570" lon="-17.9271100">
        <ele>1183.1</ele>
        <time>2020-11-16T19:32:56Z</time>
      </trkpt>
      <trkpt lat="28.7153570" lon="-17.9271100">
        <ele>1183.1</ele>
        <time>2020-11-16T19:32:57Z</time>
      </trkpt>
      <trkpt lat="28.7153080" lon="-17.9270980">
        <ele>1183.1</ele>
        <time>2020-11-16T19:32:58Z</time>
      </trkpt>
      <trkpt lat="28.7153080" lon="-17.9270980">
        <ele>1183.1</ele>
        <time>2020-11-16T19:32:59Z</time>
      </trkpt>
      <trkpt lat="28.7152530" lon="-17.9270770">
        <ele>1183.0</ele>
        <time>2020-11-16T19:33:00Z</time>
      </trkpt>
      <trkpt lat="28.7152530" lon="-17.9270770">
        <ele>1183.0</ele>
        <time>2020-11-16T19:33:01Z</time>
      </trkpt>
      <trkpt lat="28.7151900" lon="-17.9270730">
        <ele>1182.9</ele>
        <time>2020-11-16T19:33:02Z</time>
      </trkpt>
      <trkpt lat="28.7151900" lon="-17.9270730">
        <ele>1182.9</ele>
        <time>2020-11-16T19:33:03Z</time>
      </trkpt>
      <trkpt lat="28.7151300" lon="-17.9270880">
        <ele>1182.7</ele>
        <time>2020-11-16T19:33:04Z</time>
      </trkpt>
      <trkpt lat="28.7151300" lon="-17.9270880">
        <ele>1182.7</ele>
        <time>2020-11-16T19:33:05Z</time>
      </trkpt>
      <trkpt lat="28.7150680" lon="-17.9271380">
        <ele>1182.4</ele>
        <time>2020-11-16T19:33:06Z</time>
      </trkpt>
      <trkpt lat="28.7150680" lon="-17.9271380">
        <ele>1182.4</ele>
        <time>2020-11-16T19:33:07Z</time>
      </trkpt>
      <trkpt lat="28.7150070" lon="-17.9271950">
        <ele>1182.2</ele>
        <time>2020-11-16T19:33:08Z</time>
      </trkpt>
      <trkpt lat="28.7150070" lon="-17.9271950">
        <ele>1182.2</ele>
        <time>2020-11-16T19:33:09Z</time>
      </trkpt>
      <trkpt lat="28.7149480" lon="-17.9272450">
        <ele>1181.9</ele>
        <time>2020-11-16T19:33:10Z</time>
      </trkpt>
      <trkpt lat="28.7149230" lon="-17.9272670">
        <ele>1181.8</ele>
        <time>2020-11-16T19:33:11Z</time>
      </trkpt>
      <trkpt lat="28.7149230" lon="-17.9272670">
        <ele>1181.8</ele>
        <time>2020-11-16T19:33:12Z</time>
      </trkpt>
      <trkpt lat="28.7149230" lon="-17.9272670">
        <ele>1181.8</ele>
        <time>2020-11-16T19:33:13Z</time>
      </trkpt>
      <trkpt lat="28.7148280" lon="-17.9273200">
        <ele>1181.4</ele>
        <time>2020-11-16T19:33:14Z</time>
      </trkpt>
      <trkpt lat="28.7148280" lon="-17.9273200">
        <ele>1181.4</ele>
        <time>2020-11-16T19:33:15Z</time>
      </trkpt>
      <trkpt lat="28.7147580" lon="-17.9273530">
        <ele>1181.0</ele>
        <time>2020-11-16T19:33:16Z</time>
      </trkpt>
      <trkpt lat="28.7147580" lon="-17.9273530">
        <ele>1181.0</ele>
        <time>2020-11-16T19:33:17Z</time>
      </trkpt>
      <trkpt lat="28.7146870" lon="-17.9273920">
        <ele>1180.6</ele>
        <time>2020-11-16T19:33:18Z</time>
      </trkpt>
      <trkpt lat="28.7146870" lon="-17.9273920">
        <ele>1180.6</ele>
        <time>2020-11-16T19:33:19Z</time>
      </trkpt>
      <trkpt lat="28.7146200" lon="-17.9274350">
        <ele>1180.1</ele>
        <time>2020-11-16T19:33:20Z</time>
      </trkpt>
      <trkpt lat="28.7146200" lon="-17.9274350">
        <ele>1180.1</ele>
        <time>2020-11-16T19:33:21Z</time>
      </trkpt>
      <trkpt lat="28.7145550" lon="-17.9274220">
        <ele>1179.8</ele>
        <time>2020-11-16T19:33:22Z</time>
      </trkpt>
      <trkpt lat="28.7145550" lon="-17.9274220">
        <ele>1179.8</ele>
        <time>2020-11-16T19:33:23Z</time>
      </trkpt>
      <trkpt lat="28.7144950" lon="-17.9273850">
        <ele>1179.5</ele>
        <time>2020-11-16T19:33:24Z</time>
      </trkpt>
      <trkpt lat="28.7144950" lon="-17.9273850">
        <ele>1179.5</ele>
        <time>2020-11-16T19:33:25Z</time>
      </trkpt>
      <trkpt lat="28.7144270" lon="-17.9273430">
        <ele>1179.0</ele>
        <time>2020-11-16T19:33:26Z</time>
      </trkpt>
      <trkpt lat="28.7144270" lon="-17.9273430">
        <ele>1179.0</ele>
        <time>2020-11-16T19:33:27Z</time>
      </trkpt>
      <trkpt lat="28.7143520" lon="-17.9273000">
        <ele>1178.6</ele>
        <time>2020-11-16T19:33:28Z</time>
      </trkpt>
      <trkpt lat="28.7143520" lon="-17.9273000">
        <ele>1178.6</ele>
        <time>2020-11-16T19:33:29Z</time>
      </trkpt>
      <trkpt lat="28.7142880" lon="-17.9272650">
        <ele>1178.3</ele>
        <time>2020-11-16T19:33:30Z</time>
      </trkpt>
      <trkpt lat="28.7142580" lon="-17.9272330">
        <ele>1178.2</ele>
        <time>2020-11-16T19:33:31Z</time>
      </trkpt>
      <trkpt lat="28.7142380" lon="-17.9271980">
        <ele>1178.1</ele>
        <time>2020-11-16T19:33:32Z</time>
      </trkpt>
      <trkpt lat="28.7142380" lon="-17.9271980">
        <ele>1178.1</ele>
        <time>2020-11-16T19:33:33Z</time>
      </trkpt>
      <trkpt lat="28.7141930" lon="-17.9271220">
        <ele>1178.0</ele>
        <time>2020-11-16T19:33:34Z</time>
      </trkpt>
      <trkpt lat="28.7141930" lon="-17.9271220">
        <ele>1178.0</ele>
        <time>2020-11-16T19:33:35Z</time>
      </trkpt>
      <trkpt lat="28.7141650" lon="-17.9270480">
        <ele>1178.1</ele>
        <time>2020-11-16T19:33:36Z</time>
      </trkpt>
      <trkpt lat="28.7141650" lon="-17.9270480">
        <ele>1178.1</ele>
        <time>2020-11-16T19:33:37Z</time>
      </trkpt>
      <trkpt lat="28.7141650" lon="-17.9270480">
        <ele>1178.1</ele>
        <time>2020-11-16T19:33:38Z</time>
      </trkpt>
      <trkpt lat="28.7141300" lon="-17.9270020">
        <ele>1178.3</ele>
        <time>2020-11-16T19:33:39Z</time>
      </trkpt>
      <trkpt lat="28.7140880" lon="-17.9269850">
        <ele>1178.5</ele>
        <time>2020-11-16T19:33:40Z</time>
      </trkpt>
      <trkpt lat="28.7140880" lon="-17.9269850">
        <ele>1178.5</ele>
        <time>2020-11-16T19:33:41Z</time>
      </trkpt>
      <trkpt lat="28.7140480" lon="-17.9269770">
        <ele>1178.8</ele>
        <time>2020-11-16T19:33:42Z</time>
      </trkpt>
      <trkpt lat="28.7140480" lon="-17.9269770">
        <ele>1178.8</ele>
        <time>2020-11-16T19:33:43Z</time>
      </trkpt>
      <trkpt lat="28.7140330" lon="-17.9269720">
        <ele>1178.9</ele>
        <time>2020-11-16T19:33:44Z</time>
      </trkpt>
      <trkpt lat="28.7140330" lon="-17.9269720">
        <ele>1178.9</ele>
        <time>2020-11-16T19:33:45Z</time>
      </trkpt>
      <trkpt lat="28.7140280" lon="-17.9269700">
        <ele>1178.9</ele>
        <time>2020-11-16T19:33:46Z</time>
      </trkpt>
      <trkpt lat="28.7140280" lon="-17.9269700">
        <ele>1178.9</ele>
        <time>2020-11-16T19:33:47Z</time>
      </trkpt>
      <trkpt lat="28.7140280" lon="-17.9269700">
        <ele>1178.9</ele>
        <time>2020-11-16T19:34:42Z</time>
      </trkpt>
      <trkpt lat="28.7139080" lon="-17.9269150">
        <ele>1180.1</ele>
        <time>2020-11-16T19:34:43Z</time>
      </trkpt>
      <trkpt lat="28.7138950" lon="-17.9269150">
        <ele>1180.2</ele>
        <time>2020-11-16T19:34:44Z</time>
      </trkpt>
      <trkpt lat="28.7138950" lon="-17.9269150">
        <ele>1180.2</ele>
        <time>2020-11-16T19:34:45Z</time>
      </trkpt>
      <trkpt lat="28.7138630" lon="-17.9269230">
        <ele>1180.6</ele>
        <time>2020-11-16T19:34:46Z</time>
      </trkpt>
      <trkpt lat="28.7138630" lon="-17.9269230">
        <ele>1180.6</ele>
        <time>2020-11-16T19:34:47Z</time>
      </trkpt>
      <trkpt lat="28.7138450" lon="-17.9269400">
        <ele>1180.8</ele>
        <time>2020-11-16T19:34:48Z</time>
      </trkpt>
      <trkpt lat="28.7138450" lon="-17.9269400">
        <ele>1180.8</ele>
        <time>2020-11-16T19:34:49Z</time>
      </trkpt>
      <trkpt lat="28.7138280" lon="-17.9269470">
        <ele>1181.0</ele>
        <time>2020-11-16T19:34:50Z</time>
      </trkpt>
      <trkpt lat="28.7138280" lon="-17.9269470">
        <ele>1181.0</ele>
        <time>2020-11-16T19:34:51Z</time>
      </trkpt>
      <trkpt lat="28.7138280" lon="-17.9269470">
        <ele>1181.0</ele>
        <time>2020-11-16T19:34:52Z</time>
      </trkpt>
      <trkpt lat="28.7138130" lon="-17.9269620">
        <ele>1181.2</ele>
        <time>2020-11-16T19:34:53Z</time>
      </trkpt>
      <trkpt lat="28.7138120" lon="-17.9269720">
        <ele>1181.3</ele>
        <time>2020-11-16T19:34:54Z</time>
      </trkpt>
      <trkpt lat="28.7138120" lon="-17.9269720">
        <ele>1181.3</ele>
        <time>2020-11-16T19:34:55Z</time>
      </trkpt>
      <trkpt lat="28.7138130" lon="-17.9269770">
        <ele>1181.3</ele>
        <time>2020-11-16T19:34:56Z</time>
      </trkpt>
      <trkpt lat="28.7138130" lon="-17.9269770">
        <ele>1181.3</ele>
        <time>2020-11-16T19:35:15Z</time>
      </trkpt>
      <trkpt lat="28.7137580" lon="-17.9269980">
        <ele>1181.9</ele>
        <time>2020-11-16T19:35:16Z</time>
      </trkpt>
      <trkpt lat="28.7137580" lon="-17.9269980">
        <ele>1181.9</ele>
        <time>2020-11-16T19:35:17Z</time>
      </trkpt>
      <trkpt lat="28.7137450" lon="-17.9270250">
        <ele>1182.2</ele>
        <time>2020-11-16T19:35:18Z</time>
      </trkpt>
      <trkpt lat="28.7137450" lon="-17.9270250">
        <ele>1182.2</ele>
        <time>2020-11-16T19:35:19Z</time>
      </trkpt>
      <trkpt lat="28.7137200" lon="-17.9270230">
        <ele>1182.5</ele>
        <time>2020-11-16T19:35:20Z</time>
      </trkpt>
      <trkpt lat="28.7137200" lon="-17.9270230">
        <ele>1182.5</ele>
        <time>2020-11-16T19:35:21Z</time>
      </trkpt>
      <trkpt lat="28.7137000" lon="-17.9270370">
        <ele>1182.7</ele>
        <time>2020-11-16T19:35:22Z</time>
      </trkpt>
      <trkpt lat="28.7137000" lon="-17.9270370">
        <ele>1182.7</ele>
        <time>2020-11-16T19:35:23Z</time>
      </trkpt>
      <trkpt lat="28.7136780" lon="-17.9270470">
        <ele>1183.0</ele>
        <time>2020-11-16T19:35:24Z</time>
      </trkpt>
      <trkpt lat="28.7136730" lon="-17.9270550">
        <ele>1183.1</ele>
        <time>2020-11-16T19:35:25Z</time>
      </trkpt>
      <trkpt lat="28.7136650" lon="-17.9270600">
        <ele>1183.2</ele>
        <time>2020-11-16T19:35:26Z</time>
      </trkpt>
      <trkpt lat="28.7136650" lon="-17.9270600">
        <ele>1183.2</ele>
        <time>2020-11-16T19:35:27Z</time>
      </trkpt>
      <trkpt lat="28.7136500" lon="-17.9270770">
        <ele>1183.4</ele>
        <time>2020-11-16T19:35:28Z</time>
      </trkpt>
      <trkpt lat="28.7136500" lon="-17.9270770">
        <ele>1183.4</ele>
        <time>2020-11-16T19:35:29Z</time>
      </trkpt>
      <trkpt lat="28.7136500" lon="-17.9270770">
        <ele>1183.4</ele>
        <time>2020-11-16T19:35:30Z</time>
      </trkpt>
      <trkpt lat="28.7136300" lon="-17.9270780">
        <ele>1183.6</ele>
        <time>2020-11-16T19:35:31Z</time>
      </trkpt>
      <trkpt lat="28.7136150" lon="-17.9270930">
        <ele>1183.8</ele>
        <time>2020-11-16T19:35:32Z</time>
      </trkpt>
      <trkpt lat="28.7136150" lon="-17.9270930">
        <ele>1183.8</ele>
        <time>2020-11-16T19:35:33Z</time>
      </trkpt>
      <trkpt lat="28.7136050" lon="-17.9271050">
        <ele>1184.0</ele>
        <time>2020-11-16T19:35:34Z</time>
      </trkpt>
      <trkpt lat="28.7136050" lon="-17.9271050">
        <ele>1184.0</ele>
        <time>2020-11-16T19:35:35Z</time>
      </trkpt>
      <trkpt lat="28.7135830" lon="-17.9271080">
        <ele>1184.2</ele>
        <time>2020-11-16T19:35:36Z</time>
      </trkpt>
      <trkpt lat="28.7135830" lon="-17.9271080">
        <ele>1184.2</ele>
        <time>2020-11-16T19:35:37Z</time>
      </trkpt>
      <trkpt lat="28.7135720" lon="-17.9271200">
        <ele>1184.4</ele>
        <time>2020-11-16T19:35:38Z</time>
      </trkpt>
      <trkpt lat="28.7135720" lon="-17.9271200">
        <ele>1184.4</ele>
        <time>2020-11-16T19:35:39Z</time>
      </trkpt>
      <trkpt lat="28.7135550" lon="-17.9271200">
        <ele>1184.6</ele>
        <time>2020-11-16T19:35:40Z</time>
      </trkpt>
      <trkpt lat="28.7135550" lon="-17.9271200">
        <ele>1184.6</ele>
        <time>2020-11-16T19:35:41Z</time>
      </trkpt>
      <trkpt lat="28.7135370" lon="-17.9271150">
        <ele>1184.8</ele>
        <time>2020-11-16T19:35:42Z</time>
      </trkpt>
      <trkpt lat="28.7135370" lon="-17.9271150">
        <ele>1184.8</ele>
        <time>2020-11-16T19:35:43Z</time>
      </trkpt>
      <trkpt lat="28.7135350" lon="-17.9271150">
        <ele>1184.8</ele>
        <time>2020-11-16T19:35:44Z</time>
      </trkpt>
      <trkpt lat="28.7134680" lon="-17.9270700">
        <ele>1185.6</ele>
        <time>2020-11-16T19:36:27Z</time>
      </trkpt>
      <trkpt lat="28.7134670" lon="-17.9270630">
        <ele>1185.7</ele>
        <time>2020-11-16T19:36:28Z</time>
      </trkpt>
      <trkpt lat="28.7134670" lon="-17.9270630">
        <ele>1185.7</ele>
        <time>2020-11-16T19:36:29Z</time>
      </trkpt>
      <trkpt lat="28.7134580" lon="-17.9270520">
        <ele>1185.8</ele>
        <time>2020-11-16T19:36:30Z</time>
      </trkpt>
      <trkpt lat="28.7134580" lon="-17.9270520">
        <ele>1185.8</ele>
        <time>2020-11-16T19:36:31Z</time>
      </trkpt>
      <trkpt lat="28.7134480" lon="-17.9270400">
        <ele>1186.0</ele>
        <time>2020-11-16T19:36:32Z</time>
      </trkpt>
      <trkpt lat="28.7134480" lon="-17.9270400">
        <ele>1186.0</ele>
        <time>2020-11-16T19:36:33Z</time>
      </trkpt>
      <trkpt lat="28.7134330" lon="-17.9270230">
        <ele>1186.2</ele>
        <time>2020-11-16T19:36:34Z</time>
      </trkpt>
      <trkpt lat="28.7134220" lon="-17.9270170">
        <ele>1186.3</ele>
        <time>2020-11-16T19:36:35Z</time>
      </trkpt>
      <trkpt lat="28.7134220" lon="-17.9270170">
        <ele>1186.3</ele>
        <time>2020-11-16T19:36:36Z</time>
      </trkpt>
      <trkpt lat="28.7134030" lon="-17.9270030">
        <ele>1186.5</ele>
        <time>2020-11-16T19:36:37Z</time>
      </trkpt>
      <trkpt lat="28.7134030" lon="-17.9270030">
        <ele>1186.5</ele>
        <time>2020-11-16T19:36:38Z</time>
      </trkpt>
      <trkpt lat="28.7133830" lon="-17.9269800">
        <ele>1186.9</ele>
        <time>2020-11-16T19:36:39Z</time>
      </trkpt>
      <trkpt lat="28.7133830" lon="-17.9269800">
        <ele>1186.9</ele>
        <time>2020-11-16T19:36:40Z</time>
      </trkpt>
      <trkpt lat="28.7133650" lon="-17.9269570">
        <ele>1187.2</ele>
        <time>2020-11-16T19:36:41Z</time>
      </trkpt>
      <trkpt lat="28.7133650" lon="-17.9269570">
        <ele>1187.2</ele>
        <time>2020-11-16T19:36:42Z</time>
      </trkpt>
      <trkpt lat="28.7133480" lon="-17.9269400">
        <ele>1187.4</ele>
        <time>2020-11-16T19:36:43Z</time>
      </trkpt>
      <trkpt lat="28.7133380" lon="-17.9269330">
        <ele>1187.5</ele>
        <time>2020-11-16T19:36:44Z</time>
      </trkpt>
      <trkpt lat="28.7133380" lon="-17.9269330">
        <ele>1187.5</ele>
        <time>2020-11-16T19:36:45Z</time>
      </trkpt>
      <trkpt lat="28.7133180" lon="-17.9269250">
        <ele>1187.8</ele>
        <time>2020-11-16T19:36:46Z</time>
      </trkpt>
      <trkpt lat="28.7133180" lon="-17.9269250">
        <ele>1187.8</ele>
        <time>2020-11-16T19:36:47Z</time>
      </trkpt>
      <trkpt lat="28.7132930" lon="-17.9269170">
        <ele>1188.1</ele>
        <time>2020-11-16T19:36:48Z</time>
      </trkpt>
      <trkpt lat="28.7132930" lon="-17.9269170">
        <ele>1188.1</ele>
        <time>2020-11-16T19:36:49Z</time>
      </trkpt>
      <trkpt lat="28.7132730" lon="-17.9269070">
        <ele>1188.3</ele>
        <time>2020-11-16T19:36:50Z</time>
      </trkpt>
      <trkpt lat="28.7132730" lon="-17.9269070">
        <ele>1188.3</ele>
        <time>2020-11-16T19:36:51Z</time>
      </trkpt>
      <trkpt lat="28.7132480" lon="-17.9269000">
        <ele>1188.6</ele>
        <time>2020-11-16T19:36:52Z</time>
      </trkpt>
      <trkpt lat="28.7132480" lon="-17.9269000">
        <ele>1188.6</ele>
        <time>2020-11-16T19:36:53Z</time>
      </trkpt>
      <trkpt lat="28.7132250" lon="-17.9268950">
        <ele>1188.9</ele>
        <time>2020-11-16T19:36:54Z</time>
      </trkpt>
      <trkpt lat="28.7132130" lon="-17.9268850">
        <ele>1189.1</ele>
        <time>2020-11-16T19:36:55Z</time>
      </trkpt>
      <trkpt lat="28.7132130" lon="-17.9268850">
        <ele>1189.1</ele>
        <time>2020-11-16T19:36:56Z</time>
      </trkpt>
      <trkpt lat="28.7131900" lon="-17.9268680">
        <ele>1189.4</ele>
        <time>2020-11-16T19:36:57Z</time>
      </trkpt>
      <trkpt lat="28.7131900" lon="-17.9268680">
        <ele>1189.4</ele>
        <time>2020-11-16T19:36:58Z</time>
      </trkpt>
      <trkpt lat="28.7131680" lon="-17.9268480">
        <ele>1189.7</ele>
        <time>2020-11-16T19:36:59Z</time>
      </trkpt>
      <trkpt lat="28.7131600" lon="-17.9268420">
        <ele>1189.7</ele>
        <time>2020-11-16T19:37:00Z</time>
      </trkpt>
      <trkpt lat="28.7131600" lon="-17.9268420">
        <ele>1189.7</ele>
        <time>2020-11-16T19:37:01Z</time>
      </trkpt>
      <trkpt lat="28.7131400" lon="-17.9268170">
        <ele>1190.0</ele>
        <time>2020-11-16T19:37:02Z</time>
      </trkpt>
      <trkpt lat="28.7131400" lon="-17.9268170">
        <ele>1190.0</ele>
        <time>2020-11-16T19:37:03Z</time>
      </trkpt>
      <trkpt lat="28.7131300" lon="-17.9268030">
        <ele>1190.1</ele>
        <time>2020-11-16T19:37:04Z</time>
      </trkpt>
      <trkpt lat="28.7131300" lon="-17.9268030">
        <ele>1190.1</ele>
        <time>2020-11-16T19:37:05Z</time>
      </trkpt>
      <trkpt lat="28.7131120" lon="-17.9267720">
        <ele>1190.4</ele>
        <time>2020-11-16T19:37:18Z</time>
      </trkpt>
      <trkpt lat="28.7131120" lon="-17.9267720">
        <ele>1190.4</ele>
        <time>2020-11-16T19:37:19Z</time>
      </trkpt>
      <trkpt lat="28.7130950" lon="-17.9267420">
        <ele>1190.6</ele>
        <time>2020-11-16T19:37:20Z</time>
      </trkpt>
      <trkpt lat="28.7130950" lon="-17.9267420">
        <ele>1190.6</ele>
        <time>2020-11-16T19:37:21Z</time>
      </trkpt>
      <trkpt lat="28.7130780" lon="-17.9267050">
        <ele>1190.9</ele>
        <time>2020-11-16T19:37:22Z</time>
      </trkpt>
      <trkpt lat="28.7130780" lon="-17.9267050">
        <ele>1190.9</ele>
        <time>2020-11-16T19:37:23Z</time>
      </trkpt>
      <trkpt lat="28.7130780" lon="-17.9267050">
        <ele>1190.9</ele>
        <time>2020-11-16T19:37:24Z</time>
      </trkpt>
      <trkpt lat="28.7130520" lon="-17.9266670">
        <ele>1191.1</ele>
        <time>2020-11-16T19:37:25Z</time>
      </trkpt>
      <trkpt lat="28.7130280" lon="-17.9266250">
        <ele>1191.4</ele>
        <time>2020-11-16T19:37:26Z</time>
      </trkpt>
      <trkpt lat="28.7130280" lon="-17.9266250">
        <ele>1191.4</ele>
        <time>2020-11-16T19:37:27Z</time>
      </trkpt>
      <trkpt lat="28.7130070" lon="-17.9265880">
        <ele>1191.6</ele>
        <time>2020-11-16T19:37:28Z</time>
      </trkpt>
      <trkpt lat="28.7130070" lon="-17.9265880">
        <ele>1191.6</ele>
        <time>2020-11-16T19:37:29Z</time>
      </trkpt>
      <trkpt lat="28.7129750" lon="-17.9265430">
        <ele>1191.8</ele>
        <time>2020-11-16T19:37:30Z</time>
      </trkpt>
      <trkpt lat="28.7129750" lon="-17.9265430">
        <ele>1191.8</ele>
        <time>2020-11-16T19:37:31Z</time>
      </trkpt>
      <trkpt lat="28.7129530" lon="-17.9265070">
        <ele>1191.9</ele>
        <time>2020-11-16T19:37:32Z</time>
      </trkpt>
      <trkpt lat="28.7129530" lon="-17.9265070">
        <ele>1191.9</ele>
        <time>2020-11-16T19:37:33Z</time>
      </trkpt>
      <trkpt lat="28.7129320" lon="-17.9264580">
        <ele>1192.1</ele>
        <time>2020-11-16T19:37:34Z</time>
      </trkpt>
      <trkpt lat="28.7129320" lon="-17.9264580">
        <ele>1192.1</ele>
        <time>2020-11-16T19:37:35Z</time>
      </trkpt>
      <trkpt lat="28.7129130" lon="-17.9264100">
        <ele>1192.2</ele>
        <time>2020-11-16T19:37:36Z</time>
      </trkpt>
      <trkpt lat="28.7129130" lon="-17.9264100">
        <ele>1192.2</ele>
        <time>2020-11-16T19:37:37Z</time>
      </trkpt>
      <trkpt lat="28.7128920" lon="-17.9263680">
        <ele>1192.2</ele>
        <time>2020-11-16T19:37:38Z</time>
      </trkpt>
      <trkpt lat="28.7128920" lon="-17.9263680">
        <ele>1192.2</ele>
        <time>2020-11-16T19:37:39Z</time>
      </trkpt>
      <trkpt lat="28.7128530" lon="-17.9263350">
        <ele>1192.3</ele>
        <time>2020-11-16T19:37:40Z</time>
      </trkpt>
      <trkpt lat="28.7128530" lon="-17.9263350">
        <ele>1192.3</ele>
        <time>2020-11-16T19:37:41Z</time>
      </trkpt>
      <trkpt lat="28.7128030" lon="-17.9262920">
        <ele>1192.2</ele>
        <time>2020-11-16T19:37:42Z</time>
      </trkpt>
      <trkpt lat="28.7128030" lon="-17.9262920">
        <ele>1192.2</ele>
        <time>2020-11-16T19:37:43Z</time>
      </trkpt>
      <trkpt lat="28.7127400" lon="-17.9262500">
        <ele>1192.1</ele>
        <time>2020-11-16T19:37:44Z</time>
      </trkpt>
      <trkpt lat="28.7127400" lon="-17.9262500">
        <ele>1192.1</ele>
        <time>2020-11-16T19:37:45Z</time>
      </trkpt>
      <trkpt lat="28.7126670" lon="-17.9262150">
        <ele>1191.8</ele>
        <time>2020-11-16T19:37:46Z</time>
      </trkpt>
      <trkpt lat="28.7126670" lon="-17.9262150">
        <ele>1191.8</ele>
        <time>2020-11-16T19:37:47Z</time>
      </trkpt>
      <trkpt lat="28.7126670" lon="-17.9262150">
        <ele>1191.8</ele>
        <time>2020-11-16T19:37:48Z</time>
      </trkpt>
      <trkpt lat="28.7125980" lon="-17.9261780">
        <ele>1191.4</ele>
        <time>2020-11-16T19:37:49Z</time>
      </trkpt>
      <trkpt lat="28.7125380" lon="-17.9261400">
        <ele>1191.0</ele>
        <time>2020-11-16T19:37:50Z</time>
      </trkpt>
      <trkpt lat="28.7125380" lon="-17.9261400">
        <ele>1191.0</ele>
        <time>2020-11-16T19:37:51Z</time>
      </trkpt>
      <trkpt lat="28.7124920" lon="-17.9260930">
        <ele>1190.6</ele>
        <time>2020-11-16T19:37:52Z</time>
      </trkpt>
      <trkpt lat="28.7124920" lon="-17.9260930">
        <ele>1190.6</ele>
        <time>2020-11-16T19:37:53Z</time>
      </trkpt>
      <trkpt lat="28.7124580" lon="-17.9260300">
        <ele>1189.8</ele>
        <time>2020-11-16T19:37:54Z</time>
      </trkpt>
      <trkpt lat="28.7124580" lon="-17.9260300">
        <ele>1189.8</ele>
        <time>2020-11-16T19:37:55Z</time>
      </trkpt>
      <trkpt lat="28.7124380" lon="-17.9259500">
        <ele>1189.1</ele>
        <time>2020-11-16T19:37:56Z</time>
      </trkpt>
      <trkpt lat="28.7124380" lon="-17.9259500">
        <ele>1189.1</ele>
        <time>2020-11-16T19:37:57Z</time>
      </trkpt>
      <trkpt lat="28.7124320" lon="-17.9258650">
        <ele>1188.4</ele>
        <time>2020-11-16T19:37:58Z</time>
      </trkpt>
      <trkpt lat="28.7124320" lon="-17.9258650">
        <ele>1188.4</ele>
        <time>2020-11-16T19:37:59Z</time>
      </trkpt>
      <trkpt lat="28.7124280" lon="-17.9257800">
        <ele>1187.7</ele>
        <time>2020-11-16T19:38:00Z</time>
      </trkpt>
      <trkpt lat="28.7124280" lon="-17.9257800">
        <ele>1187.7</ele>
        <time>2020-11-16T19:38:01Z</time>
      </trkpt>
      <trkpt lat="28.7124470" lon="-17.9257080">
        <ele>1187.0</ele>
        <time>2020-11-16T19:38:02Z</time>
      </trkpt>
      <trkpt lat="28.7124470" lon="-17.9257080">
        <ele>1187.0</ele>
        <time>2020-11-16T19:38:03Z</time>
      </trkpt>
      <trkpt lat="28.7124870" lon="-17.9256730">
        <ele>1186.5</ele>
        <time>2020-11-16T19:38:04Z</time>
      </trkpt>
      <trkpt lat="28.7124870" lon="-17.9256730">
        <ele>1186.5</ele>
        <time>2020-11-16T19:38:05Z</time>
      </trkpt>
      <trkpt lat="28.7125370" lon="-17.9256570">
        <ele>1185.9</ele>
        <time>2020-11-16T19:38:06Z</time>
      </trkpt>
      <trkpt lat="28.7125370" lon="-17.9256570">
        <ele>1185.9</ele>
        <time>2020-11-16T19:38:07Z</time>
      </trkpt>
      <trkpt lat="28.7125880" lon="-17.9256630">
        <ele>1185.3</ele>
        <time>2020-11-16T19:38:08Z</time>
      </trkpt>
      <trkpt lat="28.7125880" lon="-17.9256630">
        <ele>1185.3</ele>
        <time>2020-11-16T19:38:09Z</time>
      </trkpt>
      <trkpt lat="28.7125880" lon="-17.9256630">
        <ele>1185.3</ele>
        <time>2020-11-16T19:38:10Z</time>
      </trkpt>
      <trkpt lat="28.7126550" lon="-17.9256700">
        <ele>1184.6</ele>
        <time>2020-11-16T19:38:11Z</time>
      </trkpt>
      <trkpt lat="28.7126550" lon="-17.9256700">
        <ele>1184.6</ele>
        <time>2020-11-16T19:38:12Z</time>
      </trkpt>
      <trkpt lat="28.7127100" lon="-17.9256820">
        <ele>1184.0</ele>
        <time>2020-11-16T19:38:13Z</time>
      </trkpt>
      <trkpt lat="28.7127100" lon="-17.9256820">
        <ele>1184.0</ele>
        <time>2020-11-16T19:38:14Z</time>
      </trkpt>
      <trkpt lat="28.7127350" lon="-17.9256850">
        <ele>1183.7</ele>
        <time>2020-11-16T19:38:15Z</time>
      </trkpt>
      <trkpt lat="28.7127930" lon="-17.9256720">
        <ele>1183.0</ele>
        <time>2020-11-16T19:38:16Z</time>
      </trkpt>
      <trkpt lat="28.7127930" lon="-17.9256720">
        <ele>1183.0</ele>
        <time>2020-11-16T19:38:17Z</time>
      </trkpt>
      <trkpt lat="28.7128570" lon="-17.9256530">
        <ele>1182.3</ele>
        <time>2020-11-16T19:38:18Z</time>
      </trkpt>
      <trkpt lat="28.7128570" lon="-17.9256530">
        <ele>1182.3</ele>
        <time>2020-11-16T19:38:19Z</time>
      </trkpt>
      <trkpt lat="28.7129170" lon="-17.9256480">
        <ele>1181.6</ele>
        <time>2020-11-16T19:38:20Z</time>
      </trkpt>
      <trkpt lat="28.7129480" lon="-17.9256450">
        <ele>1181.2</ele>
        <time>2020-11-16T19:38:21Z</time>
      </trkpt>
      <trkpt lat="28.7129480" lon="-17.9256450">
        <ele>1181.2</ele>
        <time>2020-11-16T19:38:22Z</time>
      </trkpt>
      <trkpt lat="28.7130080" lon="-17.9256420">
        <ele>1180.6</ele>
        <time>2020-11-16T19:38:23Z</time>
      </trkpt>
      <trkpt lat="28.7130080" lon="-17.9256420">
        <ele>1180.6</ele>
        <time>2020-11-16T19:38:24Z</time>
      </trkpt>
      <trkpt lat="28.7130720" lon="-17.9256380">
        <ele>1179.9</ele>
        <time>2020-11-16T19:38:25Z</time>
      </trkpt>
      <trkpt lat="28.7131050" lon="-17.9256180">
        <ele>1179.5</ele>
        <time>2020-11-16T19:38:26Z</time>
      </trkpt>
      <trkpt lat="28.7131050" lon="-17.9256180">
        <ele>1179.5</ele>
        <time>2020-11-16T19:38:27Z</time>
      </trkpt>
      <trkpt lat="28.7131800" lon="-17.9255800">
        <ele>1178.6</ele>
        <time>2020-11-16T19:38:28Z</time>
      </trkpt>
      <trkpt lat="28.7131800" lon="-17.9255800">
        <ele>1178.6</ele>
        <time>2020-11-16T19:38:29Z</time>
      </trkpt>
      <trkpt lat="28.7132500" lon="-17.9255350">
        <ele>1177.9</ele>
        <time>2020-11-16T19:38:30Z</time>
      </trkpt>
      <trkpt lat="28.7132900" lon="-17.9255050">
        <ele>1177.4</ele>
        <time>2020-11-16T19:38:31Z</time>
      </trkpt>
      <trkpt lat="28.7132900" lon="-17.9255050">
        <ele>1177.4</ele>
        <time>2020-11-16T19:38:32Z</time>
      </trkpt>
      <trkpt lat="28.7133750" lon="-17.9254530">
        <ele>1176.7</ele>
        <time>2020-11-16T19:38:33Z</time>
      </trkpt>
      <trkpt lat="28.7133750" lon="-17.9254530">
        <ele>1176.7</ele>
        <time>2020-11-16T19:38:34Z</time>
      </trkpt>
      <trkpt lat="28.7134420" lon="-17.9254100">
        <ele>1176.2</ele>
        <time>2020-11-16T19:38:35Z</time>
      </trkpt>
      <trkpt lat="28.7134420" lon="-17.9254100">
        <ele>1176.2</ele>
        <time>2020-11-16T19:38:36Z</time>
      </trkpt>
      <trkpt lat="28.7134900" lon="-17.9253630">
        <ele>1175.7</ele>
        <time>2020-11-16T19:38:37Z</time>
      </trkpt>
      <trkpt lat="28.7135080" lon="-17.9253450">
        <ele>1175.6</ele>
        <time>2020-11-16T19:38:38Z</time>
      </trkpt>
      <trkpt lat="28.7135200" lon="-17.9253120">
        <ele>1175.4</ele>
        <time>2020-11-16T19:38:39Z</time>
      </trkpt>
      <trkpt lat="28.7135200" lon="-17.9253120">
        <ele>1175.4</ele>
        <time>2020-11-16T19:38:40Z</time>
      </trkpt>
      <trkpt lat="28.7135220" lon="-17.9252650">
        <ele>1175.1</ele>
        <time>2020-11-16T19:38:41Z</time>
      </trkpt>
      <trkpt lat="28.7135220" lon="-17.9252650">
        <ele>1175.1</ele>
        <time>2020-11-16T19:38:42Z</time>
      </trkpt>
      <trkpt lat="28.7135100" lon="-17.9251980">
        <ele>1174.8</ele>
        <time>2020-11-16T19:38:43Z</time>
      </trkpt>
      <trkpt lat="28.7135030" lon="-17.9251780">
        <ele>1174.7</ele>
        <time>2020-11-16T19:38:44Z</time>
      </trkpt>
      <trkpt lat="28.7135030" lon="-17.9251780">
        <ele>1174.7</ele>
        <time>2020-11-16T19:38:45Z</time>
      </trkpt>
      <trkpt lat="28.7134700" lon="-17.9251550">
        <ele>1174.6</ele>
        <time>2020-11-16T19:38:46Z</time>
      </trkpt>
      <trkpt lat="28.7134500" lon="-17.9251450">
        <ele>1174.6</ele>
        <time>2020-11-16T19:38:47Z</time>
      </trkpt>
      <trkpt lat="28.7134500" lon="-17.9251450">
        <ele>1174.6</ele>
        <time>2020-11-16T19:38:48Z</time>
      </trkpt>
      <trkpt lat="28.7134130" lon="-17.9251370">
        <ele>1174.6</ele>
        <time>2020-11-16T19:38:49Z</time>
      </trkpt>
      <trkpt lat="28.7134130" lon="-17.9251370">
        <ele>1174.6</ele>
        <time>2020-11-16T19:38:50Z</time>
      </trkpt>
      <trkpt lat="28.7133850" lon="-17.9251500">
        <ele>1174.6</ele>
        <time>2020-11-16T19:38:51Z</time>
      </trkpt>
      <trkpt lat="28.7133850" lon="-17.9251500">
        <ele>1174.6</ele>
        <time>2020-11-16T19:38:52Z</time>
      </trkpt>
      <trkpt lat="28.7133550" lon="-17.9251500">
        <ele>1174.7</ele>
        <time>2020-11-16T19:38:53Z</time>
      </trkpt>
      <trkpt lat="28.7133550" lon="-17.9251500">
        <ele>1174.7</ele>
        <time>2020-11-16T19:38:54Z</time>
      </trkpt>
      <trkpt lat="28.7133250" lon="-17.9251350">
        <ele>1174.8</ele>
        <time>2020-11-16T19:38:55Z</time>
      </trkpt>
      <trkpt lat="28.7133250" lon="-17.9251350">
        <ele>1174.8</ele>
        <time>2020-11-16T19:38:56Z</time>
      </trkpt>
      <trkpt lat="28.7132970" lon="-17.9251250">
        <ele>1174.9</ele>
        <time>2020-11-16T19:38:57Z</time>
      </trkpt>
      <trkpt lat="28.7132970" lon="-17.9251250">
        <ele>1174.9</ele>
        <time>2020-11-16T19:38:58Z</time>
      </trkpt>
      <trkpt lat="28.7132670" lon="-17.9251170">
        <ele>1175.1</ele>
        <time>2020-11-16T19:38:59Z</time>
      </trkpt>
      <trkpt lat="28.7132600" lon="-17.9250980">
        <ele>1175.2</ele>
        <time>2020-11-16T19:39:00Z</time>
      </trkpt>
      <trkpt lat="28.7132600" lon="-17.9250980">
        <ele>1175.2</ele>
        <time>2020-11-16T19:39:01Z</time>
      </trkpt>
      <trkpt lat="28.7132270" lon="-17.9250470">
        <ele>1175.5</ele>
        <time>2020-11-16T19:39:02Z</time>
      </trkpt>
      <trkpt lat="28.7132270" lon="-17.9250470">
        <ele>1175.5</ele>
        <time>2020-11-16T19:39:03Z</time>
      </trkpt>
      <trkpt lat="28.7132150" lon="-17.9250130">
        <ele>1175.7</ele>
        <time>2020-11-16T19:39:04Z</time>
      </trkpt>
      <trkpt lat="28.7132150" lon="-17.9250130">
        <ele>1175.7</ele>
        <time>2020-11-16T19:39:05Z</time>
      </trkpt>
      <trkpt lat="28.7132030" lon="-17.9249720">
        <ele>1175.9</ele>
        <time>2020-11-16T19:39:06Z</time>
      </trkpt>
      <trkpt lat="28.7132030" lon="-17.9249720">
        <ele>1175.9</ele>
        <time>2020-11-16T19:39:07Z</time>
      </trkpt>
      <trkpt lat="28.7131820" lon="-17.9249270">
        <ele>1176.1</ele>
        <time>2020-11-16T19:39:08Z</time>
      </trkpt>
      <trkpt lat="28.7131820" lon="-17.9249270">
        <ele>1176.1</ele>
        <time>2020-11-16T19:39:09Z</time>
      </trkpt>
      <trkpt lat="28.7131580" lon="-17.9248980">
        <ele>1176.3</ele>
        <time>2020-11-16T19:39:10Z</time>
      </trkpt>
      <trkpt lat="28.7131580" lon="-17.9248980">
        <ele>1176.3</ele>
        <time>2020-11-16T19:39:11Z</time>
      </trkpt>
      <trkpt lat="28.7131370" lon="-17.9248800">
        <ele>1176.4</ele>
        <time>2020-11-16T19:39:12Z</time>
      </trkpt>
      <trkpt lat="28.7131370" lon="-17.9248800">
        <ele>1176.4</ele>
        <time>2020-11-16T19:39:13Z</time>
      </trkpt>
      <trkpt lat="28.7131020" lon="-17.9248700">
        <ele>1176.6</ele>
        <time>2020-11-16T19:39:14Z</time>
      </trkpt>
      <trkpt lat="28.7131020" lon="-17.9248700">
        <ele>1176.6</ele>
        <time>2020-11-16T19:39:15Z</time>
      </trkpt>
      <trkpt lat="28.7130620" lon="-17.9248530">
        <ele>1176.8</ele>
        <time>2020-11-16T19:39:16Z</time>
      </trkpt>
      <trkpt lat="28.7130620" lon="-17.9248530">
        <ele>1176.8</ele>
        <time>2020-11-16T19:39:17Z</time>
      </trkpt>
      <trkpt lat="28.7130230" lon="-17.9248420">
        <ele>1177.0</ele>
        <time>2020-11-16T19:39:18Z</time>
      </trkpt>
      <trkpt lat="28.7130000" lon="-17.9248400">
        <ele>1177.2</ele>
        <time>2020-11-16T19:39:19Z</time>
      </trkpt>
      <trkpt lat="28.7129780" lon="-17.9248280">
        <ele>1177.3</ele>
        <time>2020-11-16T19:39:20Z</time>
      </trkpt>
      <trkpt lat="28.7129780" lon="-17.9248280">
        <ele>1177.3</ele>
        <time>2020-11-16T19:39:21Z</time>
      </trkpt>
      <trkpt lat="28.7129470" lon="-17.9248150">
        <ele>1177.5</ele>
        <time>2020-11-16T19:39:22Z</time>
      </trkpt>
      <trkpt lat="28.7129350" lon="-17.9248070">
        <ele>1177.5</ele>
        <time>2020-11-16T19:39:23Z</time>
      </trkpt>
      <trkpt lat="28.7129230" lon="-17.9247880">
        <ele>1177.6</ele>
        <time>2020-11-16T19:39:24Z</time>
      </trkpt>
      <trkpt lat="28.7129230" lon="-17.9247880">
        <ele>1177.6</ele>
        <time>2020-11-16T19:39:25Z</time>
      </trkpt>
      <trkpt lat="28.7129080" lon="-17.9247530">
        <ele>1177.8</ele>
        <time>2020-11-16T19:39:26Z</time>
      </trkpt>
      <trkpt lat="28.7129080" lon="-17.9247530">
        <ele>1177.8</ele>
        <time>2020-11-16T19:39:27Z</time>
      </trkpt>
      <trkpt lat="28.7128880" lon="-17.9247100">
        <ele>1178.0</ele>
        <time>2020-11-16T19:39:28Z</time>
      </trkpt>
      <trkpt lat="28.7128880" lon="-17.9247100">
        <ele>1178.0</ele>
        <time>2020-11-16T19:39:29Z</time>
      </trkpt>
      <trkpt lat="28.7128680" lon="-17.9246680">
        <ele>1178.2</ele>
        <time>2020-11-16T19:39:30Z</time>
      </trkpt>
      <trkpt lat="28.7128680" lon="-17.9246680">
        <ele>1178.2</ele>
        <time>2020-11-16T19:39:31Z</time>
      </trkpt>
      <trkpt lat="28.7128680" lon="-17.9246680">
        <ele>1178.2</ele>
        <time>2020-11-16T19:39:32Z</time>
      </trkpt>
      <trkpt lat="28.7128480" lon="-17.9246420">
        <ele>1178.4</ele>
        <time>2020-11-16T19:39:33Z</time>
      </trkpt>
      <trkpt lat="28.7128170" lon="-17.9246070">
        <ele>1178.6</ele>
        <time>2020-11-16T19:39:34Z</time>
      </trkpt>
      <trkpt lat="28.7127970" lon="-17.9245900">
        <ele>1178.7</ele>
        <time>2020-11-16T19:39:35Z</time>
      </trkpt>
      <trkpt lat="28.7127970" lon="-17.9245900">
        <ele>1178.7</ele>
        <time>2020-11-16T19:39:36Z</time>
      </trkpt>
      <trkpt lat="28.7127530" lon="-17.9245770">
        <ele>1179.0</ele>
        <time>2020-11-16T19:39:37Z</time>
      </trkpt>
      <trkpt lat="28.7127530" lon="-17.9245770">
        <ele>1179.0</ele>
        <time>2020-11-16T19:39:38Z</time>
      </trkpt>
      <trkpt lat="28.7127180" lon="-17.9245570">
        <ele>1179.2</ele>
        <time>2020-11-16T19:39:39Z</time>
      </trkpt>
      <trkpt lat="28.7127180" lon="-17.9245570">
        <ele>1179.2</ele>
        <time>2020-11-16T19:39:40Z</time>
      </trkpt>
      <trkpt lat="28.7126850" lon="-17.9245470">
        <ele>1179.3</ele>
        <time>2020-11-16T19:39:41Z</time>
      </trkpt>
      <trkpt lat="28.7126850" lon="-17.9245470">
        <ele>1179.3</ele>
        <time>2020-11-16T19:39:42Z</time>
      </trkpt>
      <trkpt lat="28.7126480" lon="-17.9245430">
        <ele>1179.5</ele>
        <time>2020-11-16T19:39:43Z</time>
      </trkpt>
      <trkpt lat="28.7126270" lon="-17.9245350">
        <ele>1179.6</ele>
        <time>2020-11-16T19:39:44Z</time>
      </trkpt>
      <trkpt lat="28.7126270" lon="-17.9245350">
        <ele>1179.6</ele>
        <time>2020-11-16T19:39:45Z</time>
      </trkpt>
      <trkpt lat="28.7125950" lon="-17.9245180">
        <ele>1179.8</ele>
        <time>2020-11-16T19:39:46Z</time>
      </trkpt>
      <trkpt lat="28.7125950" lon="-17.9245180">
        <ele>1179.8</ele>
        <time>2020-11-16T19:39:47Z</time>
      </trkpt>
      <trkpt lat="28.7125650" lon="-17.9245050">
        <ele>1179.9</ele>
        <time>2020-11-16T19:39:48Z</time>
      </trkpt>
      <trkpt lat="28.7125650" lon="-17.9245050">
        <ele>1179.9</ele>
        <time>2020-11-16T19:39:49Z</time>
      </trkpt>
      <trkpt lat="28.7125420" lon="-17.9244850">
        <ele>1180.1</ele>
        <time>2020-11-16T19:39:50Z</time>
      </trkpt>
      <trkpt lat="28.7125420" lon="-17.9244850">
        <ele>1180.1</ele>
        <time>2020-11-16T19:39:51Z</time>
      </trkpt>
      <trkpt lat="28.7125030" lon="-17.9244680">
        <ele>1180.3</ele>
        <time>2020-11-16T19:39:52Z</time>
      </trkpt>
      <trkpt lat="28.7125030" lon="-17.9244680">
        <ele>1180.3</ele>
        <time>2020-11-16T19:39:53Z</time>
      </trkpt>
      <trkpt lat="28.7125030" lon="-17.9244680">
        <ele>1180.3</ele>
        <time>2020-11-16T19:39:54Z</time>
      </trkpt>
      <trkpt lat="28.7124630" lon="-17.9244450">
        <ele>1180.6</ele>
        <time>2020-11-16T19:39:55Z</time>
      </trkpt>
      <trkpt lat="28.7124250" lon="-17.9244330">
        <ele>1180.9</ele>
        <time>2020-11-16T19:39:56Z</time>
      </trkpt>
      <trkpt lat="28.7124250" lon="-17.9244330">
        <ele>1180.9</ele>
        <time>2020-11-16T19:39:57Z</time>
      </trkpt>
      <trkpt lat="28.7123830" lon="-17.9244230">
        <ele>1181.2</ele>
        <time>2020-11-16T19:39:58Z</time>
      </trkpt>
      <trkpt lat="28.7123620" lon="-17.9244230">
        <ele>1181.3</ele>
        <time>2020-11-16T19:39:59Z</time>
      </trkpt>
      <trkpt lat="28.7123620" lon="-17.9244230">
        <ele>1181.3</ele>
        <time>2020-11-16T19:40:00Z</time>
      </trkpt>
      <trkpt lat="28.7123220" lon="-17.9244170">
        <ele>1181.6</ele>
        <time>2020-11-16T19:40:01Z</time>
      </trkpt>
      <trkpt lat="28.7123070" lon="-17.9244120">
        <ele>1181.7</ele>
        <time>2020-11-16T19:40:02Z</time>
      </trkpt>
      <trkpt lat="28.7123070" lon="-17.9244120">
        <ele>1181.7</ele>
        <time>2020-11-16T19:40:03Z</time>
      </trkpt>
      <trkpt lat="28.7122630" lon="-17.9244100">
        <ele>1182.1</ele>
        <time>2020-11-16T19:40:04Z</time>
      </trkpt>
      <trkpt lat="28.7122630" lon="-17.9244100">
        <ele>1182.1</ele>
        <time>2020-11-16T19:40:05Z</time>
      </trkpt>
      <trkpt lat="28.7122230" lon="-17.9244070">
        <ele>1182.4</ele>
        <time>2020-11-16T19:40:06Z</time>
      </trkpt>
      <trkpt lat="28.7122230" lon="-17.9244070">
        <ele>1182.4</ele>
        <time>2020-11-16T19:40:07Z</time>
      </trkpt>
      <trkpt lat="28.7121930" lon="-17.9243950">
        <ele>1182.6</ele>
        <time>2020-11-16T19:40:08Z</time>
      </trkpt>
      <trkpt lat="28.7121930" lon="-17.9243950">
        <ele>1182.6</ele>
        <time>2020-11-16T19:40:09Z</time>
      </trkpt>
      <trkpt lat="28.7121630" lon="-17.9243830">
        <ele>1182.7</ele>
        <time>2020-11-16T19:40:10Z</time>
      </trkpt>
      <trkpt lat="28.7121630" lon="-17.9243830">
        <ele>1182.7</ele>
        <time>2020-11-16T19:40:11Z</time>
      </trkpt>
      <trkpt lat="28.7121320" lon="-17.9243730">
        <ele>1182.9</ele>
        <time>2020-11-16T19:40:12Z</time>
      </trkpt>
      <trkpt lat="28.7121320" lon="-17.9243730">
        <ele>1182.9</ele>
        <time>2020-11-16T19:40:13Z</time>
      </trkpt>
      <trkpt lat="28.7120980" lon="-17.9243730">
        <ele>1183.1</ele>
        <time>2020-11-16T19:40:14Z</time>
      </trkpt>
      <trkpt lat="28.7120980" lon="-17.9243730">
        <ele>1183.1</ele>
        <time>2020-11-16T19:40:15Z</time>
      </trkpt>
      <trkpt lat="28.7120620" lon="-17.9243830">
        <ele>1183.3</ele>
        <time>2020-11-16T19:40:16Z</time>
      </trkpt>
      <trkpt lat="28.7120620" lon="-17.9243830">
        <ele>1183.3</ele>
        <time>2020-11-16T19:40:17Z</time>
      </trkpt>
      <trkpt lat="28.7120270" lon="-17.9244070">
        <ele>1183.5</ele>
        <time>2020-11-16T19:40:18Z</time>
      </trkpt>
      <trkpt lat="28.7120270" lon="-17.9244070">
        <ele>1183.5</ele>
        <time>2020-11-16T19:40:19Z</time>
      </trkpt>
      <trkpt lat="28.7119920" lon="-17.9244230">
        <ele>1183.6</ele>
        <time>2020-11-16T19:40:20Z</time>
      </trkpt>
      <trkpt lat="28.7119920" lon="-17.9244230">
        <ele>1183.6</ele>
        <time>2020-11-16T19:40:21Z</time>
      </trkpt>
      <trkpt lat="28.7119580" lon="-17.9244420">
        <ele>1183.8</ele>
        <time>2020-11-16T19:40:22Z</time>
      </trkpt>
      <trkpt lat="28.7119580" lon="-17.9244420">
        <ele>1183.8</ele>
        <time>2020-11-16T19:40:23Z</time>
      </trkpt>
      <trkpt lat="28.7119280" lon="-17.9244650">
        <ele>1184.0</ele>
        <time>2020-11-16T19:40:24Z</time>
      </trkpt>
      <trkpt lat="28.7119120" lon="-17.9244750">
        <ele>1184.1</ele>
        <time>2020-11-16T19:40:25Z</time>
      </trkpt>
      <trkpt lat="28.7119120" lon="-17.9244750">
        <ele>1184.1</ele>
        <time>2020-11-16T19:40:26Z</time>
      </trkpt>
      <trkpt lat="28.7118730" lon="-17.9244830">
        <ele>1184.2</ele>
        <time>2020-11-16T19:40:27Z</time>
      </trkpt>
      <trkpt lat="28.7118730" lon="-17.9244830">
        <ele>1184.2</ele>
        <time>2020-11-16T19:40:28Z</time>
      </trkpt>
      <trkpt lat="28.7118220" lon="-17.9244880">
        <ele>1184.4</ele>
        <time>2020-11-16T19:40:29Z</time>
      </trkpt>
      <trkpt lat="28.7118220" lon="-17.9244880">
        <ele>1184.4</ele>
        <time>2020-11-16T19:40:30Z</time>
      </trkpt>
      <trkpt lat="28.7117820" lon="-17.9245100">
        <ele>1184.5</ele>
        <time>2020-11-16T19:40:31Z</time>
      </trkpt>
      <trkpt lat="28.7117620" lon="-17.9245170">
        <ele>1184.5</ele>
        <time>2020-11-16T19:40:32Z</time>
      </trkpt>
      <trkpt lat="28.7117620" lon="-17.9245170">
        <ele>1184.5</ele>
        <time>2020-11-16T19:40:33Z</time>
      </trkpt>
      <trkpt lat="28.7117150" lon="-17.9245380">
        <ele>1184.6</ele>
        <time>2020-11-16T19:40:34Z</time>
      </trkpt>
      <trkpt lat="28.7117150" lon="-17.9245380">
        <ele>1184.6</ele>
        <time>2020-11-16T19:40:35Z</time>
      </trkpt>
      <trkpt lat="28.7116600" lon="-17.9245770">
        <ele>1184.7</ele>
        <time>2020-11-16T19:40:36Z</time>
      </trkpt>
      <trkpt lat="28.7116600" lon="-17.9245770">
        <ele>1184.7</ele>
        <time>2020-11-16T19:40:37Z</time>
      </trkpt>
      <trkpt lat="28.7116080" lon="-17.9246050">
        <ele>1184.6</ele>
        <time>2020-11-16T19:40:38Z</time>
      </trkpt>
      <trkpt lat="28.7116080" lon="-17.9246050">
        <ele>1184.6</ele>
        <time>2020-11-16T19:40:39Z</time>
      </trkpt>
      <trkpt lat="28.7115520" lon="-17.9246480">
        <ele>1184.6</ele>
        <time>2020-11-16T19:40:40Z</time>
      </trkpt>
      <trkpt lat="28.7115520" lon="-17.9246480">
        <ele>1184.6</ele>
        <time>2020-11-16T19:40:41Z</time>
      </trkpt>
      <trkpt lat="28.7114930" lon="-17.9246920">
        <ele>1184.4</ele>
        <time>2020-11-16T19:40:42Z</time>
      </trkpt>
      <trkpt lat="28.7114670" lon="-17.9247170">
        <ele>1184.4</ele>
        <time>2020-11-16T19:40:43Z</time>
      </trkpt>
      <trkpt lat="28.7114670" lon="-17.9247170">
        <ele>1184.4</ele>
        <time>2020-11-16T19:40:44Z</time>
      </trkpt>
      <trkpt lat="28.7114180" lon="-17.9247770">
        <ele>1184.2</ele>
        <time>2020-11-16T19:40:45Z</time>
      </trkpt>
      <trkpt lat="28.7114180" lon="-17.9247770">
        <ele>1184.2</ele>
        <time>2020-11-16T19:40:46Z</time>
      </trkpt>
      <trkpt lat="28.7113600" lon="-17.9248530">
        <ele>1183.9</ele>
        <time>2020-11-16T19:40:47Z</time>
      </trkpt>
      <trkpt lat="28.7113600" lon="-17.9248530">
        <ele>1183.9</ele>
        <time>2020-11-16T19:40:48Z</time>
      </trkpt>
      <trkpt lat="28.7113020" lon="-17.9249330">
        <ele>1183.4</ele>
        <time>2020-11-16T19:40:49Z</time>
      </trkpt>
      <trkpt lat="28.7113020" lon="-17.9249330">
        <ele>1183.4</ele>
        <time>2020-11-16T19:40:50Z</time>
      </trkpt>
      <trkpt lat="28.7112480" lon="-17.9250020">
        <ele>1182.8</ele>
        <time>2020-11-16T19:40:51Z</time>
      </trkpt>
      <trkpt lat="28.7112270" lon="-17.9250320">
        <ele>1182.6</ele>
        <time>2020-11-16T19:40:52Z</time>
      </trkpt>
      <trkpt lat="28.7112270" lon="-17.9250320">
        <ele>1182.6</ele>
        <time>2020-11-16T19:40:53Z</time>
      </trkpt>
      <trkpt lat="28.7111770" lon="-17.9250630">
        <ele>1182.0</ele>
        <time>2020-11-16T19:40:54Z</time>
      </trkpt>
      <trkpt lat="28.7111770" lon="-17.9250630">
        <ele>1182.0</ele>
        <time>2020-11-16T19:40:55Z</time>
      </trkpt>
      <trkpt lat="28.7111230" lon="-17.9250500">
        <ele>1181.5</ele>
        <time>2020-11-16T19:40:56Z</time>
      </trkpt>
      <trkpt lat="28.7111230" lon="-17.9250500">
        <ele>1181.5</ele>
        <time>2020-11-16T19:40:57Z</time>
      </trkpt>
      <trkpt lat="28.7111020" lon="-17.9249980">
        <ele>1180.9</ele>
        <time>2020-11-16T19:40:58Z</time>
      </trkpt>
      <trkpt lat="28.7111020" lon="-17.9249980">
        <ele>1180.9</ele>
        <time>2020-11-16T19:40:59Z</time>
      </trkpt>
      <trkpt lat="28.7111030" lon="-17.9249420">
        <ele>1180.3</ele>
        <time>2020-11-16T19:41:00Z</time>
      </trkpt>
      <trkpt lat="28.7111030" lon="-17.9249420">
        <ele>1180.3</ele>
        <time>2020-11-16T19:41:01Z</time>
      </trkpt>
      <trkpt lat="28.7111120" lon="-17.9248920">
        <ele>1179.8</ele>
        <time>2020-11-16T19:41:02Z</time>
      </trkpt>
      <trkpt lat="28.7111120" lon="-17.9248920">
        <ele>1179.8</ele>
        <time>2020-11-16T19:41:03Z</time>
      </trkpt>
      <trkpt lat="28.7111130" lon="-17.9248380">
        <ele>1179.2</ele>
        <time>2020-11-16T19:41:04Z</time>
      </trkpt>
      <trkpt lat="28.7111130" lon="-17.9248380">
        <ele>1179.2</ele>
        <time>2020-11-16T19:41:05Z</time>
      </trkpt>
      <trkpt lat="28.7111050" lon="-17.9247880">
        <ele>1178.7</ele>
        <time>2020-11-16T19:41:06Z</time>
      </trkpt>
      <trkpt lat="28.7111050" lon="-17.9247880">
        <ele>1178.7</ele>
        <time>2020-11-16T19:41:07Z</time>
      </trkpt>
      <trkpt lat="28.7110950" lon="-17.9247300">
        <ele>1178.1</ele>
        <time>2020-11-16T19:41:08Z</time>
      </trkpt>
      <trkpt lat="28.7110950" lon="-17.9247300">
        <ele>1178.1</ele>
        <time>2020-11-16T19:41:09Z</time>
      </trkpt>
      <trkpt lat="28.7110900" lon="-17.9246650">
        <ele>1177.5</ele>
        <time>2020-11-16T19:41:10Z</time>
      </trkpt>
      <trkpt lat="28.7110900" lon="-17.9246650">
        <ele>1177.5</ele>
        <time>2020-11-16T19:41:11Z</time>
      </trkpt>
      <trkpt lat="28.7110970" lon="-17.9245980">
        <ele>1176.8</ele>
        <time>2020-11-16T19:41:12Z</time>
      </trkpt>
      <trkpt lat="28.7111050" lon="-17.9245680">
        <ele>1176.5</ele>
        <time>2020-11-16T19:41:13Z</time>
      </trkpt>
      <trkpt lat="28.7111050" lon="-17.9245680">
        <ele>1176.5</ele>
        <time>2020-11-16T19:41:14Z</time>
      </trkpt>
      <trkpt lat="28.7111100" lon="-17.9245000">
        <ele>1175.9</ele>
        <time>2020-11-16T19:41:15Z</time>
      </trkpt>
      <trkpt lat="28.7111100" lon="-17.9245000">
        <ele>1175.9</ele>
        <time>2020-11-16T19:41:16Z</time>
      </trkpt>
      <trkpt lat="28.7111050" lon="-17.9244400">
        <ele>1175.3</ele>
        <time>2020-11-16T19:41:17Z</time>
      </trkpt>
      <trkpt lat="28.7111050" lon="-17.9244400">
        <ele>1175.3</ele>
        <time>2020-11-16T19:41:18Z</time>
      </trkpt>
      <trkpt lat="28.7111030" lon="-17.9243880">
        <ele>1174.8</ele>
        <time>2020-11-16T19:41:19Z</time>
      </trkpt>
      <trkpt lat="28.7111030" lon="-17.9243880">
        <ele>1174.8</ele>
        <time>2020-11-16T19:41:20Z</time>
      </trkpt>
      <trkpt lat="28.7111050" lon="-17.9243370">
        <ele>1174.3</ele>
        <time>2020-11-16T19:41:21Z</time>
      </trkpt>
      <trkpt lat="28.7111050" lon="-17.9243370">
        <ele>1174.3</ele>
        <time>2020-11-16T19:41:22Z</time>
      </trkpt>
      <trkpt lat="28.7110980" lon="-17.9242830">
        <ele>1173.8</ele>
        <time>2020-11-16T19:41:23Z</time>
      </trkpt>
      <trkpt lat="28.7110980" lon="-17.9242830">
        <ele>1173.8</ele>
        <time>2020-11-16T19:41:24Z</time>
      </trkpt>
      <trkpt lat="28.7110970" lon="-17.9242270">
        <ele>1173.2</ele>
        <time>2020-11-16T19:41:25Z</time>
      </trkpt>
      <trkpt lat="28.7110970" lon="-17.9242270">
        <ele>1173.2</ele>
        <time>2020-11-16T19:41:26Z</time>
      </trkpt>
      <trkpt lat="28.7111000" lon="-17.9241820">
        <ele>1172.8</ele>
        <time>2020-11-16T19:41:27Z</time>
      </trkpt>
      <trkpt lat="28.7111000" lon="-17.9241820">
        <ele>1172.8</ele>
        <time>2020-11-16T19:41:28Z</time>
      </trkpt>
      <trkpt lat="28.7110930" lon="-17.9241270">
        <ele>1172.3</ele>
        <time>2020-11-16T19:41:29Z</time>
      </trkpt>
      <trkpt lat="28.7110930" lon="-17.9241270">
        <ele>1172.3</ele>
        <time>2020-11-16T19:41:30Z</time>
      </trkpt>
      <trkpt lat="28.7110950" lon="-17.9240670">
        <ele>1171.7</ele>
        <time>2020-11-16T19:41:31Z</time>
      </trkpt>
      <trkpt lat="28.7110950" lon="-17.9240670">
        <ele>1171.7</ele>
        <time>2020-11-16T19:41:32Z</time>
      </trkpt>
      <trkpt lat="28.7111070" lon="-17.9240030">
        <ele>1171.1</ele>
        <time>2020-11-16T19:41:33Z</time>
      </trkpt>
      <trkpt lat="28.7111070" lon="-17.9240030">
        <ele>1171.1</ele>
        <time>2020-11-16T19:41:34Z</time>
      </trkpt>
      <trkpt lat="28.7111330" lon="-17.9239400">
        <ele>1170.4</ele>
        <time>2020-11-16T19:41:35Z</time>
      </trkpt>
      <trkpt lat="28.7111330" lon="-17.9239400">
        <ele>1170.4</ele>
        <time>2020-11-16T19:41:36Z</time>
      </trkpt>
      <trkpt lat="28.7111580" lon="-17.9238870">
        <ele>1169.8</ele>
        <time>2020-11-16T19:41:37Z</time>
      </trkpt>
      <trkpt lat="28.7111580" lon="-17.9238870">
        <ele>1169.8</ele>
        <time>2020-11-16T19:41:38Z</time>
      </trkpt>
      <trkpt lat="28.7111850" lon="-17.9238420">
        <ele>1169.2</ele>
        <time>2020-11-16T19:41:39Z</time>
      </trkpt>
      <trkpt lat="28.7111930" lon="-17.9238170">
        <ele>1168.9</ele>
        <time>2020-11-16T19:41:40Z</time>
      </trkpt>
      <trkpt lat="28.7111930" lon="-17.9238170">
        <ele>1168.9</ele>
        <time>2020-11-16T19:41:41Z</time>
      </trkpt>
      <trkpt lat="28.7112130" lon="-17.9237580">
        <ele>1168.2</ele>
        <time>2020-11-16T19:41:42Z</time>
      </trkpt>
      <trkpt lat="28.7112130" lon="-17.9237580">
        <ele>1168.2</ele>
        <time>2020-11-16T19:41:43Z</time>
      </trkpt>
      <trkpt lat="28.7112370" lon="-17.9237000">
        <ele>1167.4</ele>
        <time>2020-11-16T19:41:44Z</time>
      </trkpt>
      <trkpt lat="28.7112480" lon="-17.9236680">
        <ele>1167.0</ele>
        <time>2020-11-16T19:41:45Z</time>
      </trkpt>
      <trkpt lat="28.7112480" lon="-17.9236680">
        <ele>1167.0</ele>
        <time>2020-11-16T19:41:46Z</time>
      </trkpt>
      <trkpt lat="28.7112730" lon="-17.9236050">
        <ele>1166.1</ele>
        <time>2020-11-16T19:41:47Z</time>
      </trkpt>
      <trkpt lat="28.7112730" lon="-17.9236050">
        <ele>1166.1</ele>
        <time>2020-11-16T19:41:48Z</time>
      </trkpt>
      <trkpt lat="28.7113120" lon="-17.9235350">
        <ele>1165.1</ele>
        <time>2020-11-16T19:41:49Z</time>
      </trkpt>
      <trkpt lat="28.7113320" lon="-17.9235050">
        <ele>1164.6</ele>
        <time>2020-11-16T19:41:50Z</time>
      </trkpt>
      <trkpt lat="28.7113320" lon="-17.9235050">
        <ele>1164.6</ele>
        <time>2020-11-16T19:41:51Z</time>
      </trkpt>
      <trkpt lat="28.7113620" lon="-17.9234600">
        <ele>1163.9</ele>
        <time>2020-11-16T19:41:52Z</time>
      </trkpt>
      <trkpt lat="28.7113620" lon="-17.9234600">
        <ele>1163.9</ele>
        <time>2020-11-16T19:41:53Z</time>
      </trkpt>
      <trkpt lat="28.7113870" lon="-17.9234050">
        <ele>1163.1</ele>
        <time>2020-11-16T19:41:54Z</time>
      </trkpt>
      <trkpt lat="28.7113950" lon="-17.9233720">
        <ele>1162.7</ele>
        <time>2020-11-16T19:41:55Z</time>
      </trkpt>
      <trkpt lat="28.7114000" lon="-17.9233370">
        <ele>1162.3</ele>
        <time>2020-11-16T19:41:56Z</time>
      </trkpt>
      <trkpt lat="28.7114000" lon="-17.9233370">
        <ele>1162.3</ele>
        <time>2020-11-16T19:41:57Z</time>
      </trkpt>
      <trkpt lat="28.7113980" lon="-17.9232570">
        <ele>1161.2</ele>
        <time>2020-11-16T19:41:58Z</time>
      </trkpt>
      <trkpt lat="28.7113980" lon="-17.9232570">
        <ele>1161.2</ele>
        <time>2020-11-16T19:41:59Z</time>
      </trkpt>
      <trkpt lat="28.7113950" lon="-17.9232130">
        <ele>1160.7</ele>
        <time>2020-11-16T19:42:00Z</time>
      </trkpt>
      <trkpt lat="28.7113800" lon="-17.9231230">
        <ele>1159.7</ele>
        <time>2020-11-16T19:42:01Z</time>
      </trkpt>
      <trkpt lat="28.7113800" lon="-17.9231230">
        <ele>1159.7</ele>
        <time>2020-11-16T19:42:02Z</time>
      </trkpt>
      <trkpt lat="28.7113600" lon="-17.9230400">
        <ele>1159.0</ele>
        <time>2020-11-16T19:42:03Z</time>
      </trkpt>
      <trkpt lat="28.7113600" lon="-17.9230400">
        <ele>1159.0</ele>
        <time>2020-11-16T19:42:04Z</time>
      </trkpt>
      <trkpt lat="28.7113350" lon="-17.9229750">
        <ele>1158.5</ele>
        <time>2020-11-16T19:42:05Z</time>
      </trkpt>
      <trkpt lat="28.7113350" lon="-17.9229750">
        <ele>1158.5</ele>
        <time>2020-11-16T19:42:06Z</time>
      </trkpt>
      <trkpt lat="28.7112980" lon="-17.9229250">
        <ele>1158.1</ele>
        <time>2020-11-16T19:42:07Z</time>
      </trkpt>
      <trkpt lat="28.7112820" lon="-17.9228900">
        <ele>1157.9</ele>
        <time>2020-11-16T19:42:08Z</time>
      </trkpt>
      <trkpt lat="28.7112820" lon="-17.9228900">
        <ele>1157.9</ele>
        <time>2020-11-16T19:42:09Z</time>
      </trkpt>
      <trkpt lat="28.7112420" lon="-17.9228720">
        <ele>1157.6</ele>
        <time>2020-11-16T19:42:10Z</time>
      </trkpt>
      <trkpt lat="28.7112420" lon="-17.9228720">
        <ele>1157.6</ele>
        <time>2020-11-16T19:42:11Z</time>
      </trkpt>
      <trkpt lat="28.7111930" lon="-17.9228870">
        <ele>1157.3</ele>
        <time>2020-11-16T19:42:12Z</time>
      </trkpt>
      <trkpt lat="28.7111930" lon="-17.9228870">
        <ele>1157.3</ele>
        <time>2020-11-16T19:42:13Z</time>
      </trkpt>
      <trkpt lat="28.7111420" lon="-17.9229020">
        <ele>1157.0</ele>
        <time>2020-11-16T19:42:14Z</time>
      </trkpt>
      <trkpt lat="28.7110930" lon="-17.9228900">
        <ele>1156.7</ele>
        <time>2020-11-16T19:42:15Z</time>
      </trkpt>
      <trkpt lat="28.7110930" lon="-17.9228900">
        <ele>1156.7</ele>
        <time>2020-11-16T19:42:16Z</time>
      </trkpt>
      <trkpt lat="28.7110330" lon="-17.9229200">
        <ele>1156.4</ele>
        <time>2020-11-16T19:42:17Z</time>
      </trkpt>
      <trkpt lat="28.7110330" lon="-17.9229200">
        <ele>1156.4</ele>
        <time>2020-11-16T19:42:18Z</time>
      </trkpt>
      <trkpt lat="28.7109800" lon="-17.9229680">
        <ele>1156.1</ele>
        <time>2020-11-16T19:42:19Z</time>
      </trkpt>
      <trkpt lat="28.7109500" lon="-17.9229930">
        <ele>1156.0</ele>
        <time>2020-11-16T19:42:20Z</time>
      </trkpt>
      <trkpt lat="28.7109500" lon="-17.9229930">
        <ele>1156.0</ele>
        <time>2020-11-16T19:42:21Z</time>
      </trkpt>
      <trkpt lat="28.7108950" lon="-17.9230570">
        <ele>1155.7</ele>
        <time>2020-11-16T19:42:22Z</time>
      </trkpt>
      <trkpt lat="28.7108950" lon="-17.9230570">
        <ele>1155.7</ele>
        <time>2020-11-16T19:42:23Z</time>
      </trkpt>
      <trkpt lat="28.7108330" lon="-17.9231200">
        <ele>1155.4</ele>
        <time>2020-11-16T19:42:24Z</time>
      </trkpt>
      <trkpt lat="28.7108330" lon="-17.9231200">
        <ele>1155.4</ele>
        <time>2020-11-16T19:42:25Z</time>
      </trkpt>
      <trkpt lat="28.7107670" lon="-17.9231700">
        <ele>1155.1</ele>
        <time>2020-11-16T19:42:26Z</time>
      </trkpt>
      <trkpt lat="28.7107670" lon="-17.9231700">
        <ele>1155.1</ele>
        <time>2020-11-16T19:42:27Z</time>
      </trkpt>
      <trkpt lat="28.7106820" lon="-17.9232170">
        <ele>1154.8</ele>
        <time>2020-11-16T19:42:28Z</time>
      </trkpt>
      <trkpt lat="28.7106820" lon="-17.9232170">
        <ele>1154.8</ele>
        <time>2020-11-16T19:42:29Z</time>
      </trkpt>
      <trkpt lat="28.7106050" lon="-17.9233000">
        <ele>1154.4</ele>
        <time>2020-11-16T19:42:30Z</time>
      </trkpt>
      <trkpt lat="28.7106050" lon="-17.9233000">
        <ele>1154.4</ele>
        <time>2020-11-16T19:42:31Z</time>
      </trkpt>
      <trkpt lat="28.7105350" lon="-17.9233730">
        <ele>1154.1</ele>
        <time>2020-11-16T19:42:32Z</time>
      </trkpt>
      <trkpt lat="28.7105350" lon="-17.9233730">
        <ele>1154.1</ele>
        <time>2020-11-16T19:42:33Z</time>
      </trkpt>
      <trkpt lat="28.7104780" lon="-17.9234250">
        <ele>1153.8</ele>
        <time>2020-11-16T19:42:34Z</time>
      </trkpt>
      <trkpt lat="28.7104570" lon="-17.9234520">
        <ele>1153.7</ele>
        <time>2020-11-16T19:42:35Z</time>
      </trkpt>
      <trkpt lat="28.7104570" lon="-17.9234520">
        <ele>1153.7</ele>
        <time>2020-11-16T19:42:36Z</time>
      </trkpt>
      <trkpt lat="28.7104000" lon="-17.9234930">
        <ele>1153.4</ele>
        <time>2020-11-16T19:42:37Z</time>
      </trkpt>
      <trkpt lat="28.7103650" lon="-17.9235070">
        <ele>1153.2</ele>
        <time>2020-11-16T19:42:38Z</time>
      </trkpt>
      <trkpt lat="28.7103650" lon="-17.9235070">
        <ele>1153.2</ele>
        <time>2020-11-16T19:42:39Z</time>
      </trkpt>
      <trkpt lat="28.7103080" lon="-17.9235750">
        <ele>1152.9</ele>
        <time>2020-11-16T19:42:40Z</time>
      </trkpt>
      <trkpt lat="28.7103080" lon="-17.9235750">
        <ele>1152.9</ele>
        <time>2020-11-16T19:42:41Z</time>
      </trkpt>
      <trkpt lat="28.7102650" lon="-17.9236350">
        <ele>1152.7</ele>
        <time>2020-11-16T19:42:42Z</time>
      </trkpt>
      <trkpt lat="28.7102650" lon="-17.9236350">
        <ele>1152.7</ele>
        <time>2020-11-16T19:42:43Z</time>
      </trkpt>
      <trkpt lat="28.7102270" lon="-17.9236770">
        <ele>1152.6</ele>
        <time>2020-11-16T19:42:44Z</time>
      </trkpt>
      <trkpt lat="28.7102270" lon="-17.9236770">
        <ele>1152.6</ele>
        <time>2020-11-16T19:42:45Z</time>
      </trkpt>
      <trkpt lat="28.7101980" lon="-17.9237230">
        <ele>1152.5</ele>
        <time>2020-11-16T19:42:46Z</time>
      </trkpt>
      <trkpt lat="28.7101980" lon="-17.9237230">
        <ele>1152.5</ele>
        <time>2020-11-16T19:42:47Z</time>
      </trkpt>
      <trkpt lat="28.7101550" lon="-17.9237630">
        <ele>1152.4</ele>
        <time>2020-11-16T19:42:48Z</time>
      </trkpt>
      <trkpt lat="28.7101550" lon="-17.9237630">
        <ele>1152.4</ele>
        <time>2020-11-16T19:42:49Z</time>
      </trkpt>
      <trkpt lat="28.7101180" lon="-17.9238130">
        <ele>1152.4</ele>
        <time>2020-11-16T19:42:50Z</time>
      </trkpt>
      <trkpt lat="28.7101180" lon="-17.9238130">
        <ele>1152.4</ele>
        <time>2020-11-16T19:42:51Z</time>
      </trkpt>
      <trkpt lat="28.7100830" lon="-17.9238600">
        <ele>1152.3</ele>
        <time>2020-11-16T19:42:52Z</time>
      </trkpt>
      <trkpt lat="28.7100830" lon="-17.9238600">
        <ele>1152.3</ele>
        <time>2020-11-16T19:42:53Z</time>
      </trkpt>
      <trkpt lat="28.7100570" lon="-17.9239070">
        <ele>1152.3</ele>
        <time>2020-11-16T19:42:54Z</time>
      </trkpt>
      <trkpt lat="28.7100570" lon="-17.9239070">
        <ele>1152.3</ele>
        <time>2020-11-16T19:42:55Z</time>
      </trkpt>
      <trkpt lat="28.7100270" lon="-17.9239500">
        <ele>1152.3</ele>
        <time>2020-11-16T19:42:56Z</time>
      </trkpt>
      <trkpt lat="28.7100270" lon="-17.9239500">
        <ele>1152.3</ele>
        <time>2020-11-16T19:42:57Z</time>
      </trkpt>
      <trkpt lat="28.7099850" lon="-17.9240000">
        <ele>1152.3</ele>
        <time>2020-11-16T19:42:58Z</time>
      </trkpt>
      <trkpt lat="28.7099850" lon="-17.9240000">
        <ele>1152.3</ele>
        <time>2020-11-16T19:42:59Z</time>
      </trkpt>
      <trkpt lat="28.7099570" lon="-17.9240700">
        <ele>1152.3</ele>
        <time>2020-11-16T19:43:00Z</time>
      </trkpt>
      <trkpt lat="28.7099570" lon="-17.9240700">
        <ele>1152.3</ele>
        <time>2020-11-16T19:43:01Z</time>
      </trkpt>
      <trkpt lat="28.7099250" lon="-17.9241380">
        <ele>1152.4</ele>
        <time>2020-11-16T19:43:02Z</time>
      </trkpt>
      <trkpt lat="28.7099250" lon="-17.9241380">
        <ele>1152.4</ele>
        <time>2020-11-16T19:43:03Z</time>
      </trkpt>
      <trkpt lat="28.7098920" lon="-17.9241820">
        <ele>1152.5</ele>
        <time>2020-11-16T19:43:04Z</time>
      </trkpt>
      <trkpt lat="28.7098920" lon="-17.9241820">
        <ele>1152.5</ele>
        <time>2020-11-16T19:43:05Z</time>
      </trkpt>
      <trkpt lat="28.7098720" lon="-17.9242380">
        <ele>1152.6</ele>
        <time>2020-11-16T19:43:06Z</time>
      </trkpt>
      <trkpt lat="28.7098720" lon="-17.9242380">
        <ele>1152.6</ele>
        <time>2020-11-16T19:43:07Z</time>
      </trkpt>
      <trkpt lat="28.7098370" lon="-17.9242780">
        <ele>1152.7</ele>
        <time>2020-11-16T19:43:08Z</time>
      </trkpt>
      <trkpt lat="28.7098370" lon="-17.9242780">
        <ele>1152.7</ele>
        <time>2020-11-16T19:43:09Z</time>
      </trkpt>
      <trkpt lat="28.7097720" lon="-17.9243120">
        <ele>1152.8</ele>
        <time>2020-11-16T19:43:10Z</time>
      </trkpt>
      <trkpt lat="28.7097720" lon="-17.9243120">
        <ele>1152.8</ele>
        <time>2020-11-16T19:43:11Z</time>
      </trkpt>
      <trkpt lat="28.7097320" lon="-17.9243680">
        <ele>1153.0</ele>
        <time>2020-11-16T19:43:12Z</time>
      </trkpt>
      <trkpt lat="28.7097320" lon="-17.9243680">
        <ele>1153.0</ele>
        <time>2020-11-16T19:43:13Z</time>
      </trkpt>
      <trkpt lat="28.7097080" lon="-17.9244100">
        <ele>1153.1</ele>
        <time>2020-11-16T19:43:14Z</time>
      </trkpt>
      <trkpt lat="28.7097080" lon="-17.9244100">
        <ele>1153.1</ele>
        <time>2020-11-16T19:43:15Z</time>
      </trkpt>
      <trkpt lat="28.7096750" lon="-17.9244650">
        <ele>1153.4</ele>
        <time>2020-11-16T19:43:16Z</time>
      </trkpt>
      <trkpt lat="28.7096750" lon="-17.9244650">
        <ele>1153.4</ele>
        <time>2020-11-16T19:43:17Z</time>
      </trkpt>
      <trkpt lat="28.7096350" lon="-17.9244950">
        <ele>1153.7</ele>
        <time>2020-11-16T19:43:18Z</time>
      </trkpt>
      <trkpt lat="28.7096170" lon="-17.9245050">
        <ele>1153.8</ele>
        <time>2020-11-16T19:43:19Z</time>
      </trkpt>
      <trkpt lat="28.7096170" lon="-17.9245050">
        <ele>1153.8</ele>
        <time>2020-11-16T19:43:20Z</time>
      </trkpt>
      <trkpt lat="28.7095870" lon="-17.9245400">
        <ele>1154.1</ele>
        <time>2020-11-16T19:43:21Z</time>
      </trkpt>
      <trkpt lat="28.7095870" lon="-17.9245400">
        <ele>1154.1</ele>
        <time>2020-11-16T19:43:22Z</time>
      </trkpt>
      <trkpt lat="28.7095450" lon="-17.9245600">
        <ele>1154.4</ele>
        <time>2020-11-16T19:43:23Z</time>
      </trkpt>
      <trkpt lat="28.7095450" lon="-17.9245600">
        <ele>1154.4</ele>
        <time>2020-11-16T19:43:24Z</time>
      </trkpt>
      <trkpt lat="28.7094970" lon="-17.9245730">
        <ele>1154.8</ele>
        <time>2020-11-16T19:43:25Z</time>
      </trkpt>
      <trkpt lat="28.7094780" lon="-17.9245820">
        <ele>1155.4</ele>
        <time>2020-11-16T19:43:26Z</time>
      </trkpt>
      <trkpt lat="28.7094780" lon="-17.9245820">
        <ele>1155.4</ele>
        <time>2020-11-16T19:43:27Z</time>
      </trkpt>
      <trkpt lat="28.7094400" lon="-17.9246130">
        <ele>1155.7</ele>
        <time>2020-11-16T19:43:28Z</time>
      </trkpt>
      <trkpt lat="28.7094400" lon="-17.9246130">
        <ele>1155.7</ele>
        <time>2020-11-16T19:43:29Z</time>
      </trkpt>
      <trkpt lat="28.7094050" lon="-17.9246470">
        <ele>1156.0</ele>
        <time>2020-11-16T19:43:30Z</time>
      </trkpt>
      <trkpt lat="28.7093920" lon="-17.9246630">
        <ele>1156.2</ele>
        <time>2020-11-16T19:43:31Z</time>
      </trkpt>
      <trkpt lat="28.7093920" lon="-17.9246630">
        <ele>1156.2</ele>
        <time>2020-11-16T19:43:32Z</time>
      </trkpt>
      <trkpt lat="28.7093730" lon="-17.9246920">
        <ele>1156.4</ele>
        <time>2020-11-16T19:43:33Z</time>
      </trkpt>
      <trkpt lat="28.7093730" lon="-17.9246920">
        <ele>1156.4</ele>
        <time>2020-11-16T19:43:34Z</time>
      </trkpt>
      <trkpt lat="28.7093550" lon="-17.9247220">
        <ele>1156.5</ele>
        <time>2020-11-16T19:43:35Z</time>
      </trkpt>
      <trkpt lat="28.7093550" lon="-17.9247220">
        <ele>1156.5</ele>
        <time>2020-11-16T19:43:36Z</time>
      </trkpt>
      <trkpt lat="28.7093430" lon="-17.9247520">
        <ele>1156.7</ele>
        <time>2020-11-16T19:43:37Z</time>
      </trkpt>
      <trkpt lat="28.7093430" lon="-17.9247520">
        <ele>1156.7</ele>
        <time>2020-11-16T19:43:38Z</time>
      </trkpt>
      <trkpt lat="28.7093450" lon="-17.9248150">
        <ele>1157.0</ele>
        <time>2020-11-16T19:43:39Z</time>
      </trkpt>
      <trkpt lat="28.7093450" lon="-17.9248150">
        <ele>1157.0</ele>
        <time>2020-11-16T19:43:40Z</time>
      </trkpt>
      <trkpt lat="28.7093030" lon="-17.9248720">
        <ele>1157.3</ele>
        <time>2020-11-16T19:43:41Z</time>
      </trkpt>
      <trkpt lat="28.7092970" lon="-17.9248900">
        <ele>1157.4</ele>
        <time>2020-11-16T19:43:42Z</time>
      </trkpt>
      <trkpt lat="28.7092900" lon="-17.9249300">
        <ele>1157.6</ele>
        <time>2020-11-16T19:43:43Z</time>
      </trkpt>
      <trkpt lat="28.7092880" lon="-17.9249630">
        <ele>1157.8</ele>
        <time>2020-11-16T19:43:44Z</time>
      </trkpt>
      <trkpt lat="28.7092880" lon="-17.9249630">
        <ele>1157.8</ele>
        <time>2020-11-16T19:43:45Z</time>
      </trkpt>
      <trkpt lat="28.7092700" lon="-17.9250130">
        <ele>1158.1</ele>
        <time>2020-11-16T19:43:46Z</time>
      </trkpt>
      <trkpt lat="28.7092700" lon="-17.9250130">
        <ele>1158.1</ele>
        <time>2020-11-16T19:43:47Z</time>
      </trkpt>
      <trkpt lat="28.7092750" lon="-17.9250820">
        <ele>1158.4</ele>
        <time>2020-11-16T19:43:48Z</time>
      </trkpt>
      <trkpt lat="28.7092750" lon="-17.9250820">
        <ele>1158.4</ele>
        <time>2020-11-16T19:43:49Z</time>
      </trkpt>
      <trkpt lat="28.7092820" lon="-17.9251450">
        <ele>1158.8</ele>
        <time>2020-11-16T19:43:50Z</time>
      </trkpt>
      <trkpt lat="28.7092820" lon="-17.9251450">
        <ele>1158.8</ele>
        <time>2020-11-16T19:43:51Z</time>
      </trkpt>
      <trkpt lat="28.7092870" lon="-17.9251930">
        <ele>1159.1</ele>
        <time>2020-11-16T19:43:52Z</time>
      </trkpt>
      <trkpt lat="28.7092870" lon="-17.9251930">
        <ele>1159.1</ele>
        <time>2020-11-16T19:43:53Z</time>
      </trkpt>
      <trkpt lat="28.7092770" lon="-17.9252420">
        <ele>1159.4</ele>
        <time>2020-11-16T19:43:54Z</time>
      </trkpt>
      <trkpt lat="28.7092770" lon="-17.9252420">
        <ele>1159.4</ele>
        <time>2020-11-16T19:43:55Z</time>
      </trkpt>
      <trkpt lat="28.7092750" lon="-17.9252830">
        <ele>1159.7</ele>
        <time>2020-11-16T19:43:56Z</time>
      </trkpt>
      <trkpt lat="28.7092750" lon="-17.9252830">
        <ele>1159.7</ele>
        <time>2020-11-16T19:43:57Z</time>
      </trkpt>
      <trkpt lat="28.7092680" lon="-17.9253270">
        <ele>1160.0</ele>
        <time>2020-11-16T19:43:58Z</time>
      </trkpt>
      <trkpt lat="28.7092680" lon="-17.9253270">
        <ele>1160.0</ele>
        <time>2020-11-16T19:43:59Z</time>
      </trkpt>
      <trkpt lat="28.7092470" lon="-17.9253630">
        <ele>1160.3</ele>
        <time>2020-11-16T19:44:00Z</time>
      </trkpt>
      <trkpt lat="28.7092470" lon="-17.9253630">
        <ele>1160.3</ele>
        <time>2020-11-16T19:44:01Z</time>
      </trkpt>
      <trkpt lat="28.7092150" lon="-17.9253980">
        <ele>1160.7</ele>
        <time>2020-11-16T19:44:02Z</time>
      </trkpt>
      <trkpt lat="28.7092150" lon="-17.9253980">
        <ele>1160.7</ele>
        <time>2020-11-16T19:44:03Z</time>
      </trkpt>
      <trkpt lat="28.7091780" lon="-17.9254130">
        <ele>1161.1</ele>
        <time>2020-11-16T19:44:04Z</time>
      </trkpt>
      <trkpt lat="28.7091780" lon="-17.9254130">
        <ele>1161.1</ele>
        <time>2020-11-16T19:44:05Z</time>
      </trkpt>
      <trkpt lat="28.7091420" lon="-17.9254030">
        <ele>1161.4</ele>
        <time>2020-11-16T19:44:06Z</time>
      </trkpt>
      <trkpt lat="28.7091420" lon="-17.9254030">
        <ele>1161.4</ele>
        <time>2020-11-16T19:44:07Z</time>
      </trkpt>
      <trkpt lat="28.7091150" lon="-17.9253900">
        <ele>1161.6</ele>
        <time>2020-11-16T19:44:08Z</time>
      </trkpt>
      <trkpt lat="28.7091150" lon="-17.9253900">
        <ele>1161.6</ele>
        <time>2020-11-16T19:44:09Z</time>
      </trkpt>
      <trkpt lat="28.7090920" lon="-17.9253620">
        <ele>1161.8</ele>
        <time>2020-11-16T19:44:10Z</time>
      </trkpt>
      <trkpt lat="28.7090770" lon="-17.9253470">
        <ele>1161.9</ele>
        <time>2020-11-16T19:44:11Z</time>
      </trkpt>
      <trkpt lat="28.7090770" lon="-17.9253470">
        <ele>1161.9</ele>
        <time>2020-11-16T19:44:12Z</time>
      </trkpt>
      <trkpt lat="28.7090420" lon="-17.9253170">
        <ele>1162.2</ele>
        <time>2020-11-16T19:44:13Z</time>
      </trkpt>
      <trkpt lat="28.7090250" lon="-17.9253130">
        <ele>1162.3</ele>
        <time>2020-11-16T19:44:14Z</time>
      </trkpt>
      <trkpt lat="28.7090250" lon="-17.9253130">
        <ele>1162.3</ele>
        <time>2020-11-16T19:44:15Z</time>
      </trkpt>
      <trkpt lat="28.7089900" lon="-17.9252920">
        <ele>1162.6</ele>
        <time>2020-11-16T19:44:16Z</time>
      </trkpt>
      <trkpt lat="28.7089900" lon="-17.9252920">
        <ele>1162.6</ele>
        <time>2020-11-16T19:44:17Z</time>
      </trkpt>
      <trkpt lat="28.7089600" lon="-17.9252530">
        <ele>1162.9</ele>
        <time>2020-11-16T19:44:18Z</time>
      </trkpt>
      <trkpt lat="28.7089600" lon="-17.9252530">
        <ele>1162.9</ele>
        <time>2020-11-16T19:44:19Z</time>
      </trkpt>
      <trkpt lat="28.7089320" lon="-17.9252250">
        <ele>1163.2</ele>
        <time>2020-11-16T19:44:20Z</time>
      </trkpt>
      <trkpt lat="28.7089320" lon="-17.9252250">
        <ele>1163.2</ele>
        <time>2020-11-16T19:44:21Z</time>
      </trkpt>
      <trkpt lat="28.7089070" lon="-17.9252050">
        <ele>1163.4</ele>
        <time>2020-11-16T19:44:22Z</time>
      </trkpt>
      <trkpt lat="28.7089070" lon="-17.9252050">
        <ele>1163.4</ele>
        <time>2020-11-16T19:44:23Z</time>
      </trkpt>
      <trkpt lat="28.7088870" lon="-17.9251850">
        <ele>1163.6</ele>
        <time>2020-11-16T19:44:24Z</time>
      </trkpt>
      <trkpt lat="28.7088870" lon="-17.9251850">
        <ele>1163.6</ele>
        <time>2020-11-16T19:44:25Z</time>
      </trkpt>
      <trkpt lat="28.7088650" lon="-17.9251580">
        <ele>1163.9</ele>
        <time>2020-11-16T19:44:26Z</time>
      </trkpt>
      <trkpt lat="28.7088650" lon="-17.9251580">
        <ele>1163.9</ele>
        <time>2020-11-16T19:44:27Z</time>
      </trkpt>
      <trkpt lat="28.7088450" lon="-17.9251320">
        <ele>1164.1</ele>
        <time>2020-11-16T19:44:28Z</time>
      </trkpt>
      <trkpt lat="28.7088450" lon="-17.9251320">
        <ele>1164.1</ele>
        <time>2020-11-16T19:44:29Z</time>
      </trkpt>
      <trkpt lat="28.7088150" lon="-17.9251050">
        <ele>1164.4</ele>
        <time>2020-11-16T19:44:30Z</time>
      </trkpt>
      <trkpt lat="28.7088150" lon="-17.9251050">
        <ele>1164.4</ele>
        <time>2020-11-16T19:44:31Z</time>
      </trkpt>
      <trkpt lat="28.7087930" lon="-17.9250700">
        <ele>1164.7</ele>
        <time>2020-11-16T19:44:32Z</time>
      </trkpt>
      <trkpt lat="28.7087930" lon="-17.9250700">
        <ele>1164.7</ele>
        <time>2020-11-16T19:44:33Z</time>
      </trkpt>
      <trkpt lat="28.7087720" lon="-17.9250320">
        <ele>1165.0</ele>
        <time>2020-11-16T19:44:34Z</time>
      </trkpt>
      <trkpt lat="28.7087580" lon="-17.9250150">
        <ele>1165.2</ele>
        <time>2020-11-16T19:44:35Z</time>
      </trkpt>
      <trkpt lat="28.7087580" lon="-17.9250150">
        <ele>1165.2</ele>
        <time>2020-11-16T19:44:36Z</time>
      </trkpt>
      <trkpt lat="28.7087320" lon="-17.9249820">
        <ele>1165.5</ele>
        <time>2020-11-16T19:44:37Z</time>
      </trkpt>
      <trkpt lat="28.7087320" lon="-17.9249820">
        <ele>1165.5</ele>
        <time>2020-11-16T19:44:38Z</time>
      </trkpt>
      <trkpt lat="28.7087020" lon="-17.9249520">
        <ele>1165.8</ele>
        <time>2020-11-16T19:44:39Z</time>
      </trkpt>
      <trkpt lat="28.7087020" lon="-17.9249520">
        <ele>1165.8</ele>
        <time>2020-11-16T19:44:40Z</time>
      </trkpt>
      <trkpt lat="28.7086770" lon="-17.9249250">
        <ele>1166.0</ele>
        <time>2020-11-16T19:44:41Z</time>
      </trkpt>
      <trkpt lat="28.7086770" lon="-17.9249250">
        <ele>1166.0</ele>
        <time>2020-11-16T19:44:42Z</time>
      </trkpt>
      <trkpt lat="28.7086330" lon="-17.9248950">
        <ele>1166.4</ele>
        <time>2020-11-16T19:44:43Z</time>
      </trkpt>
      <trkpt lat="28.7086330" lon="-17.9248950">
        <ele>1166.4</ele>
        <time>2020-11-16T19:44:44Z</time>
      </trkpt>
      <trkpt lat="28.7085950" lon="-17.9248630">
        <ele>1166.7</ele>
        <time>2020-11-16T19:44:45Z</time>
      </trkpt>
      <trkpt lat="28.7085950" lon="-17.9248630">
        <ele>1166.7</ele>
        <time>2020-11-16T19:44:46Z</time>
      </trkpt>
      <trkpt lat="28.7085650" lon="-17.9248430">
        <ele>1166.9</ele>
        <time>2020-11-16T19:44:47Z</time>
      </trkpt>
      <trkpt lat="28.7085650" lon="-17.9248430">
        <ele>1166.9</ele>
        <time>2020-11-16T19:44:48Z</time>
      </trkpt>
      <trkpt lat="28.7085420" lon="-17.9248200">
        <ele>1167.0</ele>
        <time>2020-11-16T19:44:49Z</time>
      </trkpt>
      <trkpt lat="28.7085320" lon="-17.9248000">
        <ele>1167.1</ele>
        <time>2020-11-16T19:44:50Z</time>
      </trkpt>
      <trkpt lat="28.7085320" lon="-17.9248000">
        <ele>1167.1</ele>
        <time>2020-11-16T19:44:51Z</time>
      </trkpt>
      <trkpt lat="28.7085120" lon="-17.9247700">
        <ele>1167.3</ele>
        <time>2020-11-16T19:44:52Z</time>
      </trkpt>
      <trkpt lat="28.7085120" lon="-17.9247700">
        <ele>1167.3</ele>
        <time>2020-11-16T19:44:53Z</time>
      </trkpt>
      <trkpt lat="28.7084930" lon="-17.9247380">
        <ele>1167.5</ele>
        <time>2020-11-16T19:44:54Z</time>
      </trkpt>
      <trkpt lat="28.7084930" lon="-17.9247380">
        <ele>1167.5</ele>
        <time>2020-11-16T19:44:55Z</time>
      </trkpt>
      <trkpt lat="28.7084720" lon="-17.9247080">
        <ele>1167.6</ele>
        <time>2020-11-16T19:44:56Z</time>
      </trkpt>
      <trkpt lat="28.7084720" lon="-17.9247080">
        <ele>1167.6</ele>
        <time>2020-11-16T19:44:57Z</time>
      </trkpt>
      <trkpt lat="28.7084480" lon="-17.9246820">
        <ele>1167.8</ele>
        <time>2020-11-16T19:44:58Z</time>
      </trkpt>
      <trkpt lat="28.7084480" lon="-17.9246820">
        <ele>1167.8</ele>
        <time>2020-11-16T19:44:59Z</time>
      </trkpt>
      <trkpt lat="28.7084230" lon="-17.9246620">
        <ele>1167.9</ele>
        <time>2020-11-16T19:45:00Z</time>
      </trkpt>
      <trkpt lat="28.7084230" lon="-17.9246620">
        <ele>1167.9</ele>
        <time>2020-11-16T19:45:01Z</time>
      </trkpt>
      <trkpt lat="28.7084030" lon="-17.9246450">
        <ele>1168.0</ele>
        <time>2020-11-16T19:45:02Z</time>
      </trkpt>
      <trkpt lat="28.7084030" lon="-17.9246450">
        <ele>1168.0</ele>
        <time>2020-11-16T19:45:03Z</time>
      </trkpt>
      <trkpt lat="28.7083850" lon="-17.9246120">
        <ele>1168.1</ele>
        <time>2020-11-16T19:45:04Z</time>
      </trkpt>
      <trkpt lat="28.7083850" lon="-17.9246120">
        <ele>1168.1</ele>
        <time>2020-11-16T19:45:05Z</time>
      </trkpt>
      <trkpt lat="28.7083570" lon="-17.9245720">
        <ele>1168.2</ele>
        <time>2020-11-16T19:45:06Z</time>
      </trkpt>
      <trkpt lat="28.7083570" lon="-17.9245720">
        <ele>1168.2</ele>
        <time>2020-11-16T19:45:07Z</time>
      </trkpt>
      <trkpt lat="28.7083270" lon="-17.9245330">
        <ele>1168.4</ele>
        <time>2020-11-16T19:45:08Z</time>
      </trkpt>
      <trkpt lat="28.7083270" lon="-17.9245330">
        <ele>1168.4</ele>
        <time>2020-11-16T19:45:09Z</time>
      </trkpt>
      <trkpt lat="28.7082970" lon="-17.9244900">
        <ele>1168.5</ele>
        <time>2020-11-16T19:45:10Z</time>
      </trkpt>
      <trkpt lat="28.7082970" lon="-17.9244900">
        <ele>1168.5</ele>
        <time>2020-11-16T19:45:11Z</time>
      </trkpt>
      <trkpt lat="28.7082650" lon="-17.9244550">
        <ele>1168.6</ele>
        <time>2020-11-16T19:45:12Z</time>
      </trkpt>
      <trkpt lat="28.7082480" lon="-17.9244400">
        <ele>1168.7</ele>
        <time>2020-11-16T19:45:13Z</time>
      </trkpt>
      <trkpt lat="28.7082230" lon="-17.9244200">
        <ele>1168.8</ele>
        <time>2020-11-16T19:45:14Z</time>
      </trkpt>
      <trkpt lat="28.7082230" lon="-17.9244200">
        <ele>1168.8</ele>
        <time>2020-11-16T19:45:15Z</time>
      </trkpt>
      <trkpt lat="28.7081880" lon="-17.9243880">
        <ele>1168.9</ele>
        <time>2020-11-16T19:45:16Z</time>
      </trkpt>
      <trkpt lat="28.7081880" lon="-17.9243880">
        <ele>1168.9</ele>
        <time>2020-11-16T19:45:17Z</time>
      </trkpt>
      <trkpt lat="28.7081520" lon="-17.9243700">
        <ele>1169.0</ele>
        <time>2020-11-16T19:45:18Z</time>
      </trkpt>
      <trkpt lat="28.7081520" lon="-17.9243700">
        <ele>1169.0</ele>
        <time>2020-11-16T19:45:19Z</time>
      </trkpt>
      <trkpt lat="28.7081100" lon="-17.9243620">
        <ele>1169.1</ele>
        <time>2020-11-16T19:45:20Z</time>
      </trkpt>
      <trkpt lat="28.7081100" lon="-17.9243620">
        <ele>1169.1</ele>
        <time>2020-11-16T19:45:21Z</time>
      </trkpt>
      <trkpt lat="28.7080680" lon="-17.9243520">
        <ele>1169.2</ele>
        <time>2020-11-16T19:45:22Z</time>
      </trkpt>
      <trkpt lat="28.7080680" lon="-17.9243520">
        <ele>1169.2</ele>
        <time>2020-11-16T19:45:23Z</time>
      </trkpt>
      <trkpt lat="28.7080320" lon="-17.9243430">
        <ele>1169.3</ele>
        <time>2020-11-16T19:45:24Z</time>
      </trkpt>
      <trkpt lat="28.7080320" lon="-17.9243430">
        <ele>1169.3</ele>
        <time>2020-11-16T19:45:25Z</time>
      </trkpt>
      <trkpt lat="28.7080320" lon="-17.9243430">
        <ele>1169.3</ele>
        <time>2020-11-16T19:45:26Z</time>
      </trkpt>
      <trkpt lat="28.7080070" lon="-17.9243170">
        <ele>1169.3</ele>
        <time>2020-11-16T19:45:27Z</time>
      </trkpt>
      <trkpt lat="28.7079900" lon="-17.9242800">
        <ele>1169.3</ele>
        <time>2020-11-16T19:45:28Z</time>
      </trkpt>
      <trkpt lat="28.7079900" lon="-17.9242800">
        <ele>1169.3</ele>
        <time>2020-11-16T19:45:29Z</time>
      </trkpt>
      <trkpt lat="28.7079820" lon="-17.9242250">
        <ele>1169.4</ele>
        <time>2020-11-16T19:45:30Z</time>
      </trkpt>
      <trkpt lat="28.7079820" lon="-17.9242250">
        <ele>1169.4</ele>
        <time>2020-11-16T19:45:31Z</time>
      </trkpt>
      <trkpt lat="28.7079800" lon="-17.9241620">
        <ele>1169.4</ele>
        <time>2020-11-16T19:45:32Z</time>
      </trkpt>
      <trkpt lat="28.7079800" lon="-17.9241620">
        <ele>1169.4</ele>
        <time>2020-11-16T19:45:33Z</time>
      </trkpt>
      <trkpt lat="28.7079800" lon="-17.9241050">
        <ele>1169.3</ele>
        <time>2020-11-16T19:45:34Z</time>
      </trkpt>
      <trkpt lat="28.7079800" lon="-17.9241050">
        <ele>1169.3</ele>
        <time>2020-11-16T19:45:35Z</time>
      </trkpt>
      <trkpt lat="28.7079670" lon="-17.9240530">
        <ele>1169.3</ele>
        <time>2020-11-16T19:45:36Z</time>
      </trkpt>
      <trkpt lat="28.7079670" lon="-17.9240530">
        <ele>1169.3</ele>
        <time>2020-11-16T19:45:37Z</time>
      </trkpt>
      <trkpt lat="28.7079280" lon="-17.9240120">
        <ele>1169.3</ele>
        <time>2020-11-16T19:45:38Z</time>
      </trkpt>
      <trkpt lat="28.7079280" lon="-17.9240120">
        <ele>1169.3</ele>
        <time>2020-11-16T19:45:39Z</time>
      </trkpt>
      <trkpt lat="28.7078670" lon="-17.9239820">
        <ele>1169.2</ele>
        <time>2020-11-16T19:45:40Z</time>
      </trkpt>
      <trkpt lat="28.7078670" lon="-17.9239820">
        <ele>1169.2</ele>
        <time>2020-11-16T19:45:41Z</time>
      </trkpt>
      <trkpt lat="28.7078070" lon="-17.9239720">
        <ele>1169.2</ele>
        <time>2020-11-16T19:45:42Z</time>
      </trkpt>
      <trkpt lat="28.7078070" lon="-17.9239720">
        <ele>1169.2</ele>
        <time>2020-11-16T19:45:43Z</time>
      </trkpt>
      <trkpt lat="28.7077520" lon="-17.9239750">
        <ele>1169.2</ele>
        <time>2020-11-16T19:45:44Z</time>
      </trkpt>
      <trkpt lat="28.7077520" lon="-17.9239750">
        <ele>1169.2</ele>
        <time>2020-11-16T19:45:45Z</time>
      </trkpt>
      <trkpt lat="28.7076980" lon="-17.9239630">
        <ele>1169.3</ele>
        <time>2020-11-16T19:45:46Z</time>
      </trkpt>
      <trkpt lat="28.7076980" lon="-17.9239630">
        <ele>1169.3</ele>
        <time>2020-11-16T19:45:47Z</time>
      </trkpt>
      <trkpt lat="28.7076420" lon="-17.9239500">
        <ele>1169.4</ele>
        <time>2020-11-16T19:45:48Z</time>
      </trkpt>
      <trkpt lat="28.7076420" lon="-17.9239500">
        <ele>1169.4</ele>
        <time>2020-11-16T19:45:49Z</time>
      </trkpt>
      <trkpt lat="28.7075950" lon="-17.9239150">
        <ele>1169.6</ele>
        <time>2020-11-16T19:45:50Z</time>
      </trkpt>
      <trkpt lat="28.7075950" lon="-17.9239150">
        <ele>1169.6</ele>
        <time>2020-11-16T19:45:51Z</time>
      </trkpt>
      <trkpt lat="28.7075950" lon="-17.9239150">
        <ele>1169.6</ele>
        <time>2020-11-16T19:45:52Z</time>
      </trkpt>
      <trkpt lat="28.7075630" lon="-17.9238750">
        <ele>1169.8</ele>
        <time>2020-11-16T19:45:53Z</time>
      </trkpt>
      <trkpt lat="28.7075420" lon="-17.9238220">
        <ele>1170.1</ele>
        <time>2020-11-16T19:45:54Z</time>
      </trkpt>
      <trkpt lat="28.7075420" lon="-17.9238220">
        <ele>1170.1</ele>
        <time>2020-11-16T19:45:55Z</time>
      </trkpt>
      <trkpt lat="28.7075400" lon="-17.9237680">
        <ele>1170.3</ele>
        <time>2020-11-16T19:45:56Z</time>
      </trkpt>
      <trkpt lat="28.7075400" lon="-17.9237680">
        <ele>1170.3</ele>
        <time>2020-11-16T19:45:57Z</time>
      </trkpt>
      <trkpt lat="28.7075420" lon="-17.9237150">
        <ele>1170.5</ele>
        <time>2020-11-16T19:45:58Z</time>
      </trkpt>
      <trkpt lat="28.7075420" lon="-17.9237150">
        <ele>1170.5</ele>
        <time>2020-11-16T19:45:59Z</time>
      </trkpt>
      <trkpt lat="28.7075420" lon="-17.9236570">
        <ele>1170.7</ele>
        <time>2020-11-16T19:46:00Z</time>
      </trkpt>
      <trkpt lat="28.7075420" lon="-17.9236570">
        <ele>1170.7</ele>
        <time>2020-11-16T19:46:01Z</time>
      </trkpt>
      <trkpt lat="28.7075380" lon="-17.9236030">
        <ele>1170.8</ele>
        <time>2020-11-16T19:46:02Z</time>
      </trkpt>
      <trkpt lat="28.7075380" lon="-17.9236030">
        <ele>1170.8</ele>
        <time>2020-11-16T19:46:03Z</time>
      </trkpt>
      <trkpt lat="28.7075330" lon="-17.9235550">
        <ele>1170.9</ele>
        <time>2020-11-16T19:46:04Z</time>
      </trkpt>
      <trkpt lat="28.7075330" lon="-17.9235550">
        <ele>1170.9</ele>
        <time>2020-11-16T19:46:05Z</time>
      </trkpt>
      <trkpt lat="28.7075280" lon="-17.9234980">
        <ele>1170.9</ele>
        <time>2020-11-16T19:46:06Z</time>
      </trkpt>
      <trkpt lat="28.7075280" lon="-17.9234980">
        <ele>1170.9</ele>
        <time>2020-11-16T19:46:07Z</time>
      </trkpt>
      <trkpt lat="28.7075250" lon="-17.9234320">
        <ele>1170.9</ele>
        <time>2020-11-16T19:46:08Z</time>
      </trkpt>
      <trkpt lat="28.7075250" lon="-17.9234320">
        <ele>1170.9</ele>
        <time>2020-11-16T19:46:09Z</time>
      </trkpt>
      <trkpt lat="28.7075180" lon="-17.9233570">
        <ele>1170.8</ele>
        <time>2020-11-16T19:46:10Z</time>
      </trkpt>
      <trkpt lat="28.7075180" lon="-17.9233570">
        <ele>1170.8</ele>
        <time>2020-11-16T19:46:11Z</time>
      </trkpt>
      <trkpt lat="28.7075020" lon="-17.9232830">
        <ele>1170.7</ele>
        <time>2020-11-16T19:46:12Z</time>
      </trkpt>
      <trkpt lat="28.7075020" lon="-17.9232830">
        <ele>1170.7</ele>
        <time>2020-11-16T19:46:13Z</time>
      </trkpt>
      <trkpt lat="28.7074970" lon="-17.9232000">
        <ele>1170.7</ele>
        <time>2020-11-16T19:46:14Z</time>
      </trkpt>
      <trkpt lat="28.7074970" lon="-17.9232000">
        <ele>1170.7</ele>
        <time>2020-11-16T19:46:15Z</time>
      </trkpt>
      <trkpt lat="28.7074920" lon="-17.9231070">
        <ele>1170.7</ele>
        <time>2020-11-16T19:46:16Z</time>
      </trkpt>
      <trkpt lat="28.7074920" lon="-17.9231070">
        <ele>1170.7</ele>
        <time>2020-11-16T19:46:17Z</time>
      </trkpt>
      <trkpt lat="28.7074780" lon="-17.9230220">
        <ele>1170.7</ele>
        <time>2020-11-16T19:46:18Z</time>
      </trkpt>
      <trkpt lat="28.7074780" lon="-17.9230220">
        <ele>1170.7</ele>
        <time>2020-11-16T19:46:19Z</time>
      </trkpt>
      <trkpt lat="28.7074680" lon="-17.9229500">
        <ele>1170.8</ele>
        <time>2020-11-16T19:46:20Z</time>
      </trkpt>
      <trkpt lat="28.7074680" lon="-17.9229500">
        <ele>1170.8</ele>
        <time>2020-11-16T19:46:21Z</time>
      </trkpt>
      <trkpt lat="28.7074620" lon="-17.9228830">
        <ele>1170.8</ele>
        <time>2020-11-16T19:46:22Z</time>
      </trkpt>
      <trkpt lat="28.7074620" lon="-17.9228830">
        <ele>1170.8</ele>
        <time>2020-11-16T19:46:23Z</time>
      </trkpt>
      <trkpt lat="28.7074430" lon="-17.9228150">
        <ele>1170.9</ele>
        <time>2020-11-16T19:46:24Z</time>
      </trkpt>
      <trkpt lat="28.7074430" lon="-17.9228150">
        <ele>1170.9</ele>
        <time>2020-11-16T19:46:25Z</time>
      </trkpt>
      <trkpt lat="28.7074370" lon="-17.9227480">
        <ele>1170.9</ele>
        <time>2020-11-16T19:46:26Z</time>
      </trkpt>
      <trkpt lat="28.7074370" lon="-17.9227480">
        <ele>1170.9</ele>
        <time>2020-11-16T19:46:27Z</time>
      </trkpt>
      <trkpt lat="28.7074230" lon="-17.9226650">
        <ele>1170.9</ele>
        <time>2020-11-16T19:46:28Z</time>
      </trkpt>
      <trkpt lat="28.7074230" lon="-17.9226650">
        <ele>1170.9</ele>
        <time>2020-11-16T19:46:29Z</time>
      </trkpt>
      <trkpt lat="28.7074100" lon="-17.9225880">
        <ele>1171.0</ele>
        <time>2020-11-16T19:46:30Z</time>
      </trkpt>
      <trkpt lat="28.7074100" lon="-17.9225880">
        <ele>1171.0</ele>
        <time>2020-11-16T19:46:31Z</time>
      </trkpt>
      <trkpt lat="28.7073930" lon="-17.9225150">
        <ele>1171.0</ele>
        <time>2020-11-16T19:46:32Z</time>
      </trkpt>
      <trkpt lat="28.7073930" lon="-17.9225150">
        <ele>1171.0</ele>
        <time>2020-11-16T19:46:33Z</time>
      </trkpt>
      <trkpt lat="28.7073750" lon="-17.9224320">
        <ele>1171.0</ele>
        <time>2020-11-16T19:46:34Z</time>
      </trkpt>
      <trkpt lat="28.7073750" lon="-17.9224320">
        <ele>1171.0</ele>
        <time>2020-11-16T19:46:35Z</time>
      </trkpt>
      <trkpt lat="28.7073620" lon="-17.9223480">
        <ele>1171.2</ele>
        <time>2020-11-16T19:46:36Z</time>
      </trkpt>
      <trkpt lat="28.7073620" lon="-17.9223480">
        <ele>1171.2</ele>
        <time>2020-11-16T19:46:37Z</time>
      </trkpt>
      <trkpt lat="28.7073530" lon="-17.9222720">
        <ele>1171.3</ele>
        <time>2020-11-16T19:46:38Z</time>
      </trkpt>
      <trkpt lat="28.7073530" lon="-17.9222720">
        <ele>1171.3</ele>
        <time>2020-11-16T19:46:39Z</time>
      </trkpt>
      <trkpt lat="28.7073420" lon="-17.9222000">
        <ele>1171.4</ele>
        <time>2020-11-16T19:46:40Z</time>
      </trkpt>
      <trkpt lat="28.7073420" lon="-17.9222000">
        <ele>1171.4</ele>
        <time>2020-11-16T19:46:41Z</time>
      </trkpt>
      <trkpt lat="28.7073280" lon="-17.9221370">
        <ele>1171.6</ele>
        <time>2020-11-16T19:46:42Z</time>
      </trkpt>
      <trkpt lat="28.7073280" lon="-17.9221370">
        <ele>1171.6</ele>
        <time>2020-11-16T19:46:43Z</time>
      </trkpt>
      <trkpt lat="28.7073080" lon="-17.9221100">
        <ele>1171.6</ele>
        <time>2020-11-16T19:46:44Z</time>
      </trkpt>
      <trkpt lat="28.7073080" lon="-17.9221100">
        <ele>1171.6</ele>
        <time>2020-11-16T19:46:45Z</time>
      </trkpt>
      <trkpt lat="28.7072630" lon="-17.9220830">
        <ele>1171.7</ele>
        <time>2020-11-16T19:46:46Z</time>
      </trkpt>
      <trkpt lat="28.7072220" lon="-17.9220430">
        <ele>1171.9</ele>
        <time>2020-11-16T19:46:47Z</time>
      </trkpt>
      <trkpt lat="28.7072220" lon="-17.9220430">
        <ele>1171.9</ele>
        <time>2020-11-16T19:46:48Z</time>
      </trkpt>
      <trkpt lat="28.7071420" lon="-17.9220400">
        <ele>1172.1</ele>
        <time>2020-11-16T19:46:49Z</time>
      </trkpt>
      <trkpt lat="28.7071420" lon="-17.9220400">
        <ele>1172.1</ele>
        <time>2020-11-16T19:46:50Z</time>
      </trkpt>
      <trkpt lat="28.7070820" lon="-17.9220600">
        <ele>1172.3</ele>
        <time>2020-11-16T19:46:51Z</time>
      </trkpt>
      <trkpt lat="28.7070820" lon="-17.9220600">
        <ele>1172.3</ele>
        <time>2020-11-16T19:46:52Z</time>
      </trkpt>
      <trkpt lat="28.7070350" lon="-17.9221000">
        <ele>1172.5</ele>
        <time>2020-11-16T19:46:53Z</time>
      </trkpt>
      <trkpt lat="28.7070230" lon="-17.9221250">
        <ele>1172.6</ele>
        <time>2020-11-16T19:46:54Z</time>
      </trkpt>
      <trkpt lat="28.7070230" lon="-17.9221250">
        <ele>1172.6</ele>
        <time>2020-11-16T19:46:55Z</time>
      </trkpt>
      <trkpt lat="28.7069930" lon="-17.9221600">
        <ele>1172.8</ele>
        <time>2020-11-16T19:46:56Z</time>
      </trkpt>
      <trkpt lat="28.7069930" lon="-17.9221600">
        <ele>1172.8</ele>
        <time>2020-11-16T19:46:57Z</time>
      </trkpt>
      <trkpt lat="28.7069700" lon="-17.9222070">
        <ele>1173.0</ele>
        <time>2020-11-16T19:46:58Z</time>
      </trkpt>
      <trkpt lat="28.7069700" lon="-17.9222070">
        <ele>1173.0</ele>
        <time>2020-11-16T19:46:59Z</time>
      </trkpt>
      <trkpt lat="28.7069530" lon="-17.9222570">
        <ele>1173.2</ele>
        <time>2020-11-16T19:47:00Z</time>
      </trkpt>
      <trkpt lat="28.7069530" lon="-17.9222570">
        <ele>1173.2</ele>
        <time>2020-11-16T19:47:01Z</time>
      </trkpt>
      <trkpt lat="28.7069270" lon="-17.9223020">
        <ele>1173.4</ele>
        <time>2020-11-16T19:47:02Z</time>
      </trkpt>
      <trkpt lat="28.7069270" lon="-17.9223020">
        <ele>1173.4</ele>
        <time>2020-11-16T19:47:03Z</time>
      </trkpt>
      <trkpt lat="28.7069180" lon="-17.9223500">
        <ele>1173.6</ele>
        <time>2020-11-16T19:47:04Z</time>
      </trkpt>
      <trkpt lat="28.7069180" lon="-17.9223500">
        <ele>1173.6</ele>
        <time>2020-11-16T19:47:05Z</time>
      </trkpt>
      <trkpt lat="28.7069150" lon="-17.9223900">
        <ele>1173.8</ele>
        <time>2020-11-16T19:47:06Z</time>
      </trkpt>
      <trkpt lat="28.7069170" lon="-17.9224120">
        <ele>1173.9</ele>
        <time>2020-11-16T19:47:07Z</time>
      </trkpt>
      <trkpt lat="28.7069150" lon="-17.9224330">
        <ele>1174.0</ele>
        <time>2020-11-16T19:47:08Z</time>
      </trkpt>
      <trkpt lat="28.7069150" lon="-17.9224330">
        <ele>1174.0</ele>
        <time>2020-11-16T19:47:09Z</time>
      </trkpt>
      <trkpt lat="28.7068870" lon="-17.9224680">
        <ele>1174.2</ele>
        <time>2020-11-16T19:47:10Z</time>
      </trkpt>
      <trkpt lat="28.7068870" lon="-17.9224680">
        <ele>1174.2</ele>
        <time>2020-11-16T19:47:11Z</time>
      </trkpt>
      <trkpt lat="28.7068670" lon="-17.9225120">
        <ele>1174.4</ele>
        <time>2020-11-16T19:47:12Z</time>
      </trkpt>
      <trkpt lat="28.7068670" lon="-17.9225120">
        <ele>1174.4</ele>
        <time>2020-11-16T19:47:13Z</time>
      </trkpt>
      <trkpt lat="28.7068570" lon="-17.9225570">
        <ele>1174.7</ele>
        <time>2020-11-16T19:47:14Z</time>
      </trkpt>
      <trkpt lat="28.7068570" lon="-17.9225570">
        <ele>1174.7</ele>
        <time>2020-11-16T19:47:15Z</time>
      </trkpt>
      <trkpt lat="28.7068520" lon="-17.9225950">
        <ele>1174.8</ele>
        <time>2020-11-16T19:47:16Z</time>
      </trkpt>
      <trkpt lat="28.7068520" lon="-17.9225950">
        <ele>1174.8</ele>
        <time>2020-11-16T19:47:17Z</time>
      </trkpt>
      <trkpt lat="28.7068220" lon="-17.9226350">
        <ele>1175.1</ele>
        <time>2020-11-16T19:47:18Z</time>
      </trkpt>
      <trkpt lat="28.7068220" lon="-17.9226350">
        <ele>1175.1</ele>
        <time>2020-11-16T19:47:19Z</time>
      </trkpt>
      <trkpt lat="28.7068230" lon="-17.9226870">
        <ele>1175.3</ele>
        <time>2020-11-16T19:47:20Z</time>
      </trkpt>
      <trkpt lat="28.7068230" lon="-17.9226870">
        <ele>1175.3</ele>
        <time>2020-11-16T19:47:21Z</time>
      </trkpt>
      <trkpt lat="28.7068080" lon="-17.9227480">
        <ele>1175.4</ele>
        <time>2020-11-16T19:47:22Z</time>
      </trkpt>
      <trkpt lat="28.7068000" lon="-17.9227730">
        <ele>1175.5</ele>
        <time>2020-11-16T19:47:23Z</time>
      </trkpt>
      <trkpt lat="28.7068000" lon="-17.9227730">
        <ele>1175.5</ele>
        <time>2020-11-16T19:47:24Z</time>
      </trkpt>
      <trkpt lat="28.7067750" lon="-17.9228200">
        <ele>1175.7</ele>
        <time>2020-11-16T19:47:25Z</time>
      </trkpt>
      <trkpt lat="28.7067680" lon="-17.9228430">
        <ele>1175.7</ele>
        <time>2020-11-16T19:47:26Z</time>
      </trkpt>
      <trkpt lat="28.7067680" lon="-17.9228430">
        <ele>1175.7</ele>
        <time>2020-11-16T19:47:27Z</time>
      </trkpt>
      <trkpt lat="28.7067530" lon="-17.9228880">
        <ele>1175.8</ele>
        <time>2020-11-16T19:47:28Z</time>
      </trkpt>
      <trkpt lat="28.7067530" lon="-17.9228880">
        <ele>1175.8</ele>
        <time>2020-11-16T19:47:29Z</time>
      </trkpt>
      <trkpt lat="28.7067270" lon="-17.9229350">
        <ele>1175.9</ele>
        <time>2020-11-16T19:47:30Z</time>
      </trkpt>
      <trkpt lat="28.7067270" lon="-17.9229350">
        <ele>1175.9</ele>
        <time>2020-11-16T19:47:31Z</time>
      </trkpt>
      <trkpt lat="28.7067050" lon="-17.9229750">
        <ele>1176.0</ele>
        <time>2020-11-16T19:47:32Z</time>
      </trkpt>
      <trkpt lat="28.7067050" lon="-17.9229750">
        <ele>1176.0</ele>
        <time>2020-11-16T19:47:33Z</time>
      </trkpt>
      <trkpt lat="28.7066870" lon="-17.9230120">
        <ele>1176.1</ele>
        <time>2020-11-16T19:47:34Z</time>
      </trkpt>
      <trkpt lat="28.7066800" lon="-17.9230370">
        <ele>1176.2</ele>
        <time>2020-11-16T19:47:35Z</time>
      </trkpt>
      <trkpt lat="28.7066750" lon="-17.9230580">
        <ele>1176.3</ele>
        <time>2020-11-16T19:47:36Z</time>
      </trkpt>
      <trkpt lat="28.7066750" lon="-17.9230580">
        <ele>1176.3</ele>
        <time>2020-11-16T19:47:37Z</time>
      </trkpt>
      <trkpt lat="28.7066650" lon="-17.9230950">
        <ele>1176.4</ele>
        <time>2020-11-16T19:47:38Z</time>
      </trkpt>
      <trkpt lat="28.7066650" lon="-17.9230950">
        <ele>1176.4</ele>
        <time>2020-11-16T19:47:39Z</time>
      </trkpt>
      <trkpt lat="28.7066600" lon="-17.9231420">
        <ele>1176.6</ele>
        <time>2020-11-16T19:47:40Z</time>
      </trkpt>
      <trkpt lat="28.7066600" lon="-17.9231420">
        <ele>1176.6</ele>
        <time>2020-11-16T19:47:41Z</time>
      </trkpt>
      <trkpt lat="28.7066530" lon="-17.9231870">
        <ele>1176.7</ele>
        <time>2020-11-16T19:47:42Z</time>
      </trkpt>
      <trkpt lat="28.7066530" lon="-17.9232050">
        <ele>1176.8</ele>
        <time>2020-11-16T19:47:43Z</time>
      </trkpt>
      <trkpt lat="28.7066550" lon="-17.9232280">
        <ele>1176.9</ele>
        <time>2020-11-16T19:47:44Z</time>
      </trkpt>
      <trkpt lat="28.7066550" lon="-17.9232280">
        <ele>1176.9</ele>
        <time>2020-11-16T19:47:45Z</time>
      </trkpt>
      <trkpt lat="28.7066400" lon="-17.9232600">
        <ele>1177.0</ele>
        <time>2020-11-16T19:47:46Z</time>
      </trkpt>
      <trkpt lat="28.7066400" lon="-17.9232600">
        <ele>1177.0</ele>
        <time>2020-11-16T19:47:47Z</time>
      </trkpt>
      <trkpt lat="28.7066400" lon="-17.9232600">
        <ele>1177.0</ele>
        <time>2020-11-16T19:47:48Z</time>
      </trkpt>
      <trkpt lat="28.7065930" lon="-17.9233120">
        <ele>1177.3</ele>
        <time>2020-11-16T19:47:49Z</time>
      </trkpt>
      <trkpt lat="28.7065930" lon="-17.9233120">
        <ele>1177.3</ele>
        <time>2020-11-16T19:47:50Z</time>
      </trkpt>
      <trkpt lat="28.7065170" lon="-17.9233250">
        <ele>1177.6</ele>
        <time>2020-11-16T19:47:51Z</time>
      </trkpt>
      <trkpt lat="28.7065170" lon="-17.9233250">
        <ele>1177.6</ele>
        <time>2020-11-16T19:47:52Z</time>
      </trkpt>
      <trkpt lat="28.7065070" lon="-17.9233380">
        <ele>1177.7</ele>
        <time>2020-11-16T19:47:53Z</time>
      </trkpt>
      <trkpt lat="28.7065070" lon="-17.9233380">
        <ele>1177.7</ele>
        <time>2020-11-16T19:47:54Z</time>
      </trkpt>
      <trkpt lat="28.7064800" lon="-17.9233600">
        <ele>1177.9</ele>
        <time>2020-11-16T19:47:55Z</time>
      </trkpt>
      <trkpt lat="28.7064720" lon="-17.9233730">
        <ele>1177.9</ele>
        <time>2020-11-16T19:47:56Z</time>
      </trkpt>
      <trkpt lat="28.7064720" lon="-17.9233730">
        <ele>1177.9</ele>
        <time>2020-11-16T19:47:57Z</time>
      </trkpt>
      <trkpt lat="28.7064530" lon="-17.9234100">
        <ele>1178.1</ele>
        <time>2020-11-16T19:47:58Z</time>
      </trkpt>
      <trkpt lat="28.7064530" lon="-17.9234100">
        <ele>1178.1</ele>
        <time>2020-11-16T19:47:59Z</time>
      </trkpt>
      <trkpt lat="28.7064380" lon="-17.9234550">
        <ele>1178.4</ele>
        <time>2020-11-16T19:48:00Z</time>
      </trkpt>
      <trkpt lat="28.7064380" lon="-17.9234550">
        <ele>1178.4</ele>
        <time>2020-11-16T19:48:01Z</time>
      </trkpt>
      <trkpt lat="28.7064220" lon="-17.9234970">
        <ele>1178.6</ele>
        <time>2020-11-16T19:48:02Z</time>
      </trkpt>
      <trkpt lat="28.7064220" lon="-17.9234970">
        <ele>1178.6</ele>
        <time>2020-11-16T19:48:03Z</time>
      </trkpt>
      <trkpt lat="28.7064120" lon="-17.9235330">
        <ele>1178.7</ele>
        <time>2020-11-16T19:48:04Z</time>
      </trkpt>
      <trkpt lat="28.7064120" lon="-17.9235330">
        <ele>1178.7</ele>
        <time>2020-11-16T19:48:05Z</time>
      </trkpt>
      <trkpt lat="28.7063930" lon="-17.9235720">
        <ele>1178.9</ele>
        <time>2020-11-16T19:48:06Z</time>
      </trkpt>
      <trkpt lat="28.7063870" lon="-17.9235970">
        <ele>1179.0</ele>
        <time>2020-11-16T19:48:07Z</time>
      </trkpt>
      <trkpt lat="28.7063870" lon="-17.9235970">
        <ele>1179.0</ele>
        <time>2020-11-16T19:48:08Z</time>
      </trkpt>
      <trkpt lat="28.7063800" lon="-17.9236380">
        <ele>1179.2</ele>
        <time>2020-11-16T19:48:09Z</time>
      </trkpt>
      <trkpt lat="28.7063800" lon="-17.9236380">
        <ele>1179.2</ele>
        <time>2020-11-16T19:48:10Z</time>
      </trkpt>
      <trkpt lat="28.7063630" lon="-17.9236830">
        <ele>1179.5</ele>
        <time>2020-11-16T19:48:11Z</time>
      </trkpt>
      <trkpt lat="28.7063620" lon="-17.9237070">
        <ele>1179.6</ele>
        <time>2020-11-16T19:48:12Z</time>
      </trkpt>
      <trkpt lat="28.7063620" lon="-17.9237070">
        <ele>1179.6</ele>
        <time>2020-11-16T19:48:13Z</time>
      </trkpt>
      <trkpt lat="28.7063350" lon="-17.9237550">
        <ele>1179.9</ele>
        <time>2020-11-16T19:48:14Z</time>
      </trkpt>
      <trkpt lat="28.7063350" lon="-17.9237550">
        <ele>1179.9</ele>
        <time>2020-11-16T19:48:15Z</time>
      </trkpt>
      <trkpt lat="28.7063080" lon="-17.9238000">
        <ele>1180.2</ele>
        <time>2020-11-16T19:48:16Z</time>
      </trkpt>
      <trkpt lat="28.7063080" lon="-17.9238000">
        <ele>1180.2</ele>
        <time>2020-11-16T19:48:17Z</time>
      </trkpt>
      <trkpt lat="28.7062920" lon="-17.9238470">
        <ele>1180.5</ele>
        <time>2020-11-16T19:48:18Z</time>
      </trkpt>
      <trkpt lat="28.7062920" lon="-17.9238470">
        <ele>1180.5</ele>
        <time>2020-11-16T19:48:19Z</time>
      </trkpt>
      <trkpt lat="28.7062500" lon="-17.9239230">
        <ele>1180.9</ele>
        <time>2020-11-16T19:48:20Z</time>
      </trkpt>
      <trkpt lat="28.7062500" lon="-17.9239230">
        <ele>1180.9</ele>
        <time>2020-11-16T19:48:21Z</time>
      </trkpt>
      <trkpt lat="28.7062120" lon="-17.9239680">
        <ele>1181.2</ele>
        <time>2020-11-16T19:48:22Z</time>
      </trkpt>
      <trkpt lat="28.7062000" lon="-17.9239880">
        <ele>1181.3</ele>
        <time>2020-11-16T19:48:23Z</time>
      </trkpt>
      <trkpt lat="28.7062000" lon="-17.9239880">
        <ele>1181.3</ele>
        <time>2020-11-16T19:48:24Z</time>
      </trkpt>
      <trkpt lat="28.7062000" lon="-17.9239880">
        <ele>1181.3</ele>
        <time>2020-11-16T19:48:25Z</time>
      </trkpt>
      <trkpt lat="28.7061630" lon="-17.9240300">
        <ele>1181.6</ele>
        <time>2020-11-16T19:48:26Z</time>
      </trkpt>
      <trkpt lat="28.7061380" lon="-17.9240800">
        <ele>1181.8</ele>
        <time>2020-11-16T19:48:27Z</time>
      </trkpt>
      <trkpt lat="28.7061330" lon="-17.9241070">
        <ele>1181.9</ele>
        <time>2020-11-16T19:48:28Z</time>
      </trkpt>
      <trkpt lat="28.7061330" lon="-17.9241070">
        <ele>1181.9</ele>
        <time>2020-11-16T19:48:29Z</time>
      </trkpt>
      <trkpt lat="28.7061270" lon="-17.9241500">
        <ele>1182.1</ele>
        <time>2020-11-16T19:48:30Z</time>
      </trkpt>
      <trkpt lat="28.7061180" lon="-17.9241670">
        <ele>1182.2</ele>
        <time>2020-11-16T19:48:31Z</time>
      </trkpt>
      <trkpt lat="28.7061130" lon="-17.9241880">
        <ele>1182.2</ele>
        <time>2020-11-16T19:48:32Z</time>
      </trkpt>
      <trkpt lat="28.7061130" lon="-17.9241880">
        <ele>1182.2</ele>
        <time>2020-11-16T19:48:33Z</time>
      </trkpt>
      <trkpt lat="28.7061120" lon="-17.9242270">
        <ele>1182.3</ele>
        <time>2020-11-16T19:48:34Z</time>
      </trkpt>
      <trkpt lat="28.7061120" lon="-17.9242270">
        <ele>1182.3</ele>
        <time>2020-11-16T19:48:35Z</time>
      </trkpt>
      <trkpt lat="28.7060770" lon="-17.9242450">
        <ele>1182.4</ele>
        <time>2020-11-16T19:48:36Z</time>
      </trkpt>
      <trkpt lat="28.7060770" lon="-17.9242450">
        <ele>1182.4</ele>
        <time>2020-11-16T19:48:37Z</time>
      </trkpt>
      <trkpt lat="28.7060280" lon="-17.9242520">
        <ele>1182.5</ele>
        <time>2020-11-16T19:48:38Z</time>
      </trkpt>
      <trkpt lat="28.7060070" lon="-17.9242480">
        <ele>1182.5</ele>
        <time>2020-11-16T19:48:39Z</time>
      </trkpt>
      <trkpt lat="28.7060070" lon="-17.9242480">
        <ele>1182.5</ele>
        <time>2020-11-16T19:48:40Z</time>
      </trkpt>
      <trkpt lat="28.7059700" lon="-17.9242380">
        <ele>1182.5</ele>
        <time>2020-11-16T19:48:41Z</time>
      </trkpt>
      <trkpt lat="28.7059480" lon="-17.9242330">
        <ele>1182.5</ele>
        <time>2020-11-16T19:48:42Z</time>
      </trkpt>
      <trkpt lat="28.7059480" lon="-17.9242330">
        <ele>1182.5</ele>
        <time>2020-11-16T19:48:43Z</time>
      </trkpt>
      <trkpt lat="28.7059050" lon="-17.9242450">
        <ele>1182.6</ele>
        <time>2020-11-16T19:48:44Z</time>
      </trkpt>
      <trkpt lat="28.7059050" lon="-17.9242450">
        <ele>1182.6</ele>
        <time>2020-11-16T19:48:45Z</time>
      </trkpt>
      <trkpt lat="28.7059050" lon="-17.9242450">
        <ele>1182.6</ele>
        <time>2020-11-16T19:48:46Z</time>
      </trkpt>
      <trkpt lat="28.7058570" lon="-17.9243050">
        <ele>1182.6</ele>
        <time>2020-11-16T19:48:47Z</time>
      </trkpt>
      <trkpt lat="28.7058570" lon="-17.9243050">
        <ele>1182.6</ele>
        <time>2020-11-16T19:48:48Z</time>
      </trkpt>
      <trkpt lat="28.7058320" lon="-17.9243480">
        <ele>1182.7</ele>
        <time>2020-11-16T19:48:49Z</time>
      </trkpt>
      <trkpt lat="28.7058320" lon="-17.9243480">
        <ele>1182.7</ele>
        <time>2020-11-16T19:48:50Z</time>
      </trkpt>
      <trkpt lat="28.7058020" lon="-17.9243950">
        <ele>1182.8</ele>
        <time>2020-11-16T19:48:51Z</time>
      </trkpt>
      <trkpt lat="28.7058020" lon="-17.9243950">
        <ele>1182.8</ele>
        <time>2020-11-16T19:48:52Z</time>
      </trkpt>
      <trkpt lat="28.7057770" lon="-17.9244420">
        <ele>1183.0</ele>
        <time>2020-11-16T19:48:53Z</time>
      </trkpt>
      <trkpt lat="28.7057770" lon="-17.9244420">
        <ele>1183.0</ele>
        <time>2020-11-16T19:48:54Z</time>
      </trkpt>
      <trkpt lat="28.7057550" lon="-17.9244850">
        <ele>1183.1</ele>
        <time>2020-11-16T19:48:55Z</time>
      </trkpt>
      <trkpt lat="28.7057550" lon="-17.9244850">
        <ele>1183.1</ele>
        <time>2020-11-16T19:48:56Z</time>
      </trkpt>
      <trkpt lat="28.7057320" lon="-17.9245200">
        <ele>1183.3</ele>
        <time>2020-11-16T19:48:57Z</time>
      </trkpt>
      <trkpt lat="28.7057320" lon="-17.9245200">
        <ele>1183.3</ele>
        <time>2020-11-16T19:48:58Z</time>
      </trkpt>
      <trkpt lat="28.7057000" lon="-17.9245550">
        <ele>1183.5</ele>
        <time>2020-11-16T19:48:59Z</time>
      </trkpt>
      <trkpt lat="28.7057000" lon="-17.9245550">
        <ele>1183.5</ele>
        <time>2020-11-16T19:49:00Z</time>
      </trkpt>
      <trkpt lat="28.7056750" lon="-17.9246000">
        <ele>1183.7</ele>
        <time>2020-11-16T19:49:01Z</time>
      </trkpt>
      <trkpt lat="28.7056650" lon="-17.9246220">
        <ele>1183.8</ele>
        <time>2020-11-16T19:49:02Z</time>
      </trkpt>
      <trkpt lat="28.7056650" lon="-17.9246220">
        <ele>1183.8</ele>
        <time>2020-11-16T19:49:03Z</time>
      </trkpt>
      <trkpt lat="28.7056380" lon="-17.9246630">
        <ele>1184.1</ele>
        <time>2020-11-16T19:49:04Z</time>
      </trkpt>
      <trkpt lat="28.7056380" lon="-17.9246630">
        <ele>1184.1</ele>
        <time>2020-11-16T19:49:05Z</time>
      </trkpt>
      <trkpt lat="28.7056180" lon="-17.9247050">
        <ele>1184.3</ele>
        <time>2020-11-16T19:49:06Z</time>
      </trkpt>
      <trkpt lat="28.7056180" lon="-17.9247050">
        <ele>1184.3</ele>
        <time>2020-11-16T19:49:07Z</time>
      </trkpt>
      <trkpt lat="28.7055930" lon="-17.9247500">
        <ele>1184.5</ele>
        <time>2020-11-16T19:49:08Z</time>
      </trkpt>
      <trkpt lat="28.7055930" lon="-17.9247500">
        <ele>1184.5</ele>
        <time>2020-11-16T19:49:09Z</time>
      </trkpt>
      <trkpt lat="28.7055650" lon="-17.9247950">
        <ele>1184.7</ele>
        <time>2020-11-16T19:49:10Z</time>
      </trkpt>
      <trkpt lat="28.7055650" lon="-17.9247950">
        <ele>1184.7</ele>
        <time>2020-11-16T19:49:11Z</time>
      </trkpt>
      <trkpt lat="28.7055400" lon="-17.9248450">
        <ele>1184.9</ele>
        <time>2020-11-16T19:49:12Z</time>
      </trkpt>
      <trkpt lat="28.7055400" lon="-17.9248450">
        <ele>1184.9</ele>
        <time>2020-11-16T19:49:13Z</time>
      </trkpt>
      <trkpt lat="28.7055170" lon="-17.9248850">
        <ele>1185.1</ele>
        <time>2020-11-16T19:49:14Z</time>
      </trkpt>
      <trkpt lat="28.7055170" lon="-17.9248850">
        <ele>1185.1</ele>
        <time>2020-11-16T19:49:15Z</time>
      </trkpt>
      <trkpt lat="28.7055170" lon="-17.9248850">
        <ele>1185.1</ele>
        <time>2020-11-16T19:49:16Z</time>
      </trkpt>
      <trkpt lat="28.7054850" lon="-17.9249400">
        <ele>1185.4</ele>
        <time>2020-11-16T19:49:17Z</time>
      </trkpt>
      <trkpt lat="28.7054650" lon="-17.9249980">
        <ele>1185.6</ele>
        <time>2020-11-16T19:49:18Z</time>
      </trkpt>
      <trkpt lat="28.7054650" lon="-17.9249980">
        <ele>1185.6</ele>
        <time>2020-11-16T19:49:19Z</time>
      </trkpt>
      <trkpt lat="28.7054300" lon="-17.9250620">
        <ele>1185.8</ele>
        <time>2020-11-16T19:49:20Z</time>
      </trkpt>
      <trkpt lat="28.7054300" lon="-17.9250620">
        <ele>1185.8</ele>
        <time>2020-11-16T19:49:21Z</time>
      </trkpt>
      <trkpt lat="28.7053800" lon="-17.9251270">
        <ele>1186.0</ele>
        <time>2020-11-16T19:49:22Z</time>
      </trkpt>
      <trkpt lat="28.7053800" lon="-17.9251270">
        <ele>1186.0</ele>
        <time>2020-11-16T19:49:23Z</time>
      </trkpt>
      <trkpt lat="28.7053430" lon="-17.9251770">
        <ele>1186.2</ele>
        <time>2020-11-16T19:49:24Z</time>
      </trkpt>
      <trkpt lat="28.7053200" lon="-17.9251930">
        <ele>1186.2</ele>
        <time>2020-11-16T19:49:25Z</time>
      </trkpt>
      <trkpt lat="28.7053200" lon="-17.9251930">
        <ele>1186.2</ele>
        <time>2020-11-16T19:49:26Z</time>
      </trkpt>
      <trkpt lat="28.7052720" lon="-17.9252250">
        <ele>1186.2</ele>
        <time>2020-11-16T19:49:27Z</time>
      </trkpt>
      <trkpt lat="28.7052720" lon="-17.9252250">
        <ele>1186.2</ele>
        <time>2020-11-16T19:49:28Z</time>
      </trkpt>
      <trkpt lat="28.7052120" lon="-17.9252530">
        <ele>1186.1</ele>
        <time>2020-11-16T19:49:29Z</time>
      </trkpt>
      <trkpt lat="28.7052120" lon="-17.9252530">
        <ele>1186.1</ele>
        <time>2020-11-16T19:49:30Z</time>
      </trkpt>
      <trkpt lat="28.7051450" lon="-17.9252830">
        <ele>1185.9</ele>
        <time>2020-11-16T19:49:31Z</time>
      </trkpt>
      <trkpt lat="28.7051130" lon="-17.9252980">
        <ele>1185.7</ele>
        <time>2020-11-16T19:49:32Z</time>
      </trkpt>
      <trkpt lat="28.7051130" lon="-17.9252980">
        <ele>1185.7</ele>
        <time>2020-11-16T19:49:33Z</time>
      </trkpt>
      <trkpt lat="28.7050680" lon="-17.9253100">
        <ele>1185.5</ele>
        <time>2020-11-16T19:49:34Z</time>
      </trkpt>
      <trkpt lat="28.7050680" lon="-17.9253100">
        <ele>1185.5</ele>
        <time>2020-11-16T19:49:35Z</time>
      </trkpt>
      <trkpt lat="28.7050300" lon="-17.9253070">
        <ele>1185.2</ele>
        <time>2020-11-16T19:49:36Z</time>
      </trkpt>
      <trkpt lat="28.7050300" lon="-17.9253070">
        <ele>1185.2</ele>
        <time>2020-11-16T19:49:37Z</time>
      </trkpt>
      <trkpt lat="28.7049830" lon="-17.9253000">
        <ele>1185.1</ele>
        <time>2020-11-16T19:49:38Z</time>
      </trkpt>
      <trkpt lat="28.7049830" lon="-17.9253000">
        <ele>1185.1</ele>
        <time>2020-11-16T19:49:39Z</time>
      </trkpt>
      <trkpt lat="28.7049330" lon="-17.9252980">
        <ele>1185.0</ele>
        <time>2020-11-16T19:49:40Z</time>
      </trkpt>
      <trkpt lat="28.7049330" lon="-17.9252980">
        <ele>1185.0</ele>
        <time>2020-11-16T19:49:41Z</time>
      </trkpt>
      <trkpt lat="28.7048720" lon="-17.9252930">
        <ele>1185.0</ele>
        <time>2020-11-16T19:49:42Z</time>
      </trkpt>
      <trkpt lat="28.7048720" lon="-17.9252930">
        <ele>1185.0</ele>
        <time>2020-11-16T19:49:43Z</time>
      </trkpt>
      <trkpt lat="28.7048070" lon="-17.9252880">
        <ele>1184.9</ele>
        <time>2020-11-16T19:49:44Z</time>
      </trkpt>
      <trkpt lat="28.7048070" lon="-17.9252880">
        <ele>1184.9</ele>
        <time>2020-11-16T19:49:45Z</time>
      </trkpt>
      <trkpt lat="28.7047450" lon="-17.9252680">
        <ele>1184.9</ele>
        <time>2020-11-16T19:49:46Z</time>
      </trkpt>
      <trkpt lat="28.7047150" lon="-17.9252630">
        <ele>1184.9</ele>
        <time>2020-11-16T19:49:47Z</time>
      </trkpt>
      <trkpt lat="28.7047150" lon="-17.9252630">
        <ele>1184.9</ele>
        <time>2020-11-16T19:49:48Z</time>
      </trkpt>
      <trkpt lat="28.7046680" lon="-17.9252450">
        <ele>1184.9</ele>
        <time>2020-11-16T19:49:49Z</time>
      </trkpt>
      <trkpt lat="28.7046680" lon="-17.9252450">
        <ele>1184.9</ele>
        <time>2020-11-16T19:49:50Z</time>
      </trkpt>
      <trkpt lat="28.7046450" lon="-17.9252350">
        <ele>1184.9</ele>
        <time>2020-11-16T19:49:51Z</time>
      </trkpt>
      <trkpt lat="28.7045950" lon="-17.9252030">
        <ele>1185.0</ele>
        <time>2020-11-16T19:49:52Z</time>
      </trkpt>
      <trkpt lat="28.7045950" lon="-17.9252030">
        <ele>1185.0</ele>
        <time>2020-11-16T19:49:53Z</time>
      </trkpt>
      <trkpt lat="28.7045500" lon="-17.9251520">
        <ele>1185.1</ele>
        <time>2020-11-16T19:49:54Z</time>
      </trkpt>
      <trkpt lat="28.7045500" lon="-17.9251520">
        <ele>1185.1</ele>
        <time>2020-11-16T19:49:55Z</time>
      </trkpt>
      <trkpt lat="28.7045020" lon="-17.9250950">
        <ele>1185.3</ele>
        <time>2020-11-16T19:49:56Z</time>
      </trkpt>
      <trkpt lat="28.7045020" lon="-17.9250950">
        <ele>1185.3</ele>
        <time>2020-11-16T19:49:57Z</time>
      </trkpt>
      <trkpt lat="28.7044400" lon="-17.9250580">
        <ele>1185.6</ele>
        <time>2020-11-16T19:49:58Z</time>
      </trkpt>
      <trkpt lat="28.7044400" lon="-17.9250580">
        <ele>1185.6</ele>
        <time>2020-11-16T19:49:59Z</time>
      </trkpt>
      <trkpt lat="28.7043830" lon="-17.9250380">
        <ele>1185.8</ele>
        <time>2020-11-16T19:50:00Z</time>
      </trkpt>
      <trkpt lat="28.7043620" lon="-17.9250250">
        <ele>1185.9</ele>
        <time>2020-11-16T19:50:01Z</time>
      </trkpt>
      <trkpt lat="28.7043620" lon="-17.9250250">
        <ele>1185.9</ele>
        <time>2020-11-16T19:50:02Z</time>
      </trkpt>
      <trkpt lat="28.7043180" lon="-17.9250050">
        <ele>1186.1</ele>
        <time>2020-11-16T19:50:03Z</time>
      </trkpt>
      <trkpt lat="28.7042970" lon="-17.9249980">
        <ele>1186.2</ele>
        <time>2020-11-16T19:50:04Z</time>
      </trkpt>
      <trkpt lat="28.7042970" lon="-17.9249980">
        <ele>1186.2</ele>
        <time>2020-11-16T19:50:05Z</time>
      </trkpt>
      <trkpt lat="28.7042680" lon="-17.9249950">
        <ele>1186.3</ele>
        <time>2020-11-16T19:50:06Z</time>
      </trkpt>
      <trkpt lat="28.7042680" lon="-17.9249950">
        <ele>1186.3</ele>
        <time>2020-11-16T19:50:07Z</time>
      </trkpt>
      <trkpt lat="28.7042620" lon="-17.9249950">
        <ele>1186.3</ele>
        <time>2020-11-16T19:50:08Z</time>
      </trkpt>
      <trkpt lat="28.7042620" lon="-17.9249950">
        <ele>1186.3</ele>
        <time>2020-11-16T19:50:09Z</time>
      </trkpt>
      <trkpt lat="28.7042620" lon="-17.9249930">
        <ele>1186.3</ele>
        <time>2020-11-16T19:50:10Z</time>
      </trkpt>
      <trkpt lat="28.7042620" lon="-17.9249930">
        <ele>1186.3</ele>
        <time>2020-11-16T19:50:18Z</time>
      </trkpt>
      <trkpt lat="28.7042400" lon="-17.9249500">
        <ele>1186.3</ele>
        <time>2020-11-16T19:50:19Z</time>
      </trkpt>
      <trkpt lat="28.7042450" lon="-17.9249320">
        <ele>1186.2</ele>
        <time>2020-11-16T19:50:20Z</time>
      </trkpt>
      <trkpt lat="28.7042450" lon="-17.9249320">
        <ele>1186.2</ele>
        <time>2020-11-16T19:50:21Z</time>
      </trkpt>
      <trkpt lat="28.7042530" lon="-17.9248880">
        <ele>1186.0</ele>
        <time>2020-11-16T19:50:22Z</time>
      </trkpt>
      <trkpt lat="28.7042530" lon="-17.9248880">
        <ele>1186.0</ele>
        <time>2020-11-16T19:50:23Z</time>
      </trkpt>
      <trkpt lat="28.7042630" lon="-17.9248350">
        <ele>1185.8</ele>
        <time>2020-11-16T19:50:24Z</time>
      </trkpt>
      <trkpt lat="28.7042630" lon="-17.9248350">
        <ele>1185.8</ele>
        <time>2020-11-16T19:50:25Z</time>
      </trkpt>
      <trkpt lat="28.7042600" lon="-17.9247800">
        <ele>1185.7</ele>
        <time>2020-11-16T19:50:26Z</time>
      </trkpt>
      <trkpt lat="28.7042600" lon="-17.9247800">
        <ele>1185.7</ele>
        <time>2020-11-16T19:50:27Z</time>
      </trkpt>
      <trkpt lat="28.7042480" lon="-17.9247130">
        <ele>1185.5</ele>
        <time>2020-11-16T19:50:28Z</time>
      </trkpt>
      <trkpt lat="28.7042480" lon="-17.9247130">
        <ele>1185.5</ele>
        <time>2020-11-16T19:50:29Z</time>
      </trkpt>
      <trkpt lat="28.7042170" lon="-17.9246520">
        <ele>1185.3</ele>
        <time>2020-11-16T19:50:30Z</time>
      </trkpt>
      <trkpt lat="28.7042170" lon="-17.9246520">
        <ele>1185.3</ele>
        <time>2020-11-16T19:50:31Z</time>
      </trkpt>
      <trkpt lat="28.7041550" lon="-17.9246170">
        <ele>1185.2</ele>
        <time>2020-11-16T19:50:32Z</time>
      </trkpt>
      <trkpt lat="28.7041550" lon="-17.9246170">
        <ele>1185.2</ele>
        <time>2020-11-16T19:50:33Z</time>
      </trkpt>
      <trkpt lat="28.7040880" lon="-17.9246020">
        <ele>1185.1</ele>
        <time>2020-11-16T19:50:34Z</time>
      </trkpt>
      <trkpt lat="28.7040880" lon="-17.9246020">
        <ele>1185.1</ele>
        <time>2020-11-16T19:50:35Z</time>
      </trkpt>
      <trkpt lat="28.7040230" lon="-17.9245950">
        <ele>1184.9</ele>
        <time>2020-11-16T19:50:36Z</time>
      </trkpt>
      <trkpt lat="28.7040230" lon="-17.9245950">
        <ele>1184.9</ele>
        <time>2020-11-16T19:50:37Z</time>
      </trkpt>
      <trkpt lat="28.7039580" lon="-17.9245880">
        <ele>1184.8</ele>
        <time>2020-11-16T19:50:38Z</time>
      </trkpt>
      <trkpt lat="28.7039580" lon="-17.9245880">
        <ele>1184.8</ele>
        <time>2020-11-16T19:50:39Z</time>
      </trkpt>
      <trkpt lat="28.7038970" lon="-17.9245600">
        <ele>1184.6</ele>
        <time>2020-11-16T19:50:40Z</time>
      </trkpt>
      <trkpt lat="28.7038970" lon="-17.9245600">
        <ele>1184.6</ele>
        <time>2020-11-16T19:50:41Z</time>
      </trkpt>
      <trkpt lat="28.7038450" lon="-17.9245080">
        <ele>1184.4</ele>
        <time>2020-11-16T19:50:42Z</time>
      </trkpt>
      <trkpt lat="28.7038450" lon="-17.9245080">
        <ele>1184.4</ele>
        <time>2020-11-16T19:50:43Z</time>
      </trkpt>
      <trkpt lat="28.7038200" lon="-17.9244370">
        <ele>1184.1</ele>
        <time>2020-11-16T19:50:44Z</time>
      </trkpt>
      <trkpt lat="28.7038200" lon="-17.9244370">
        <ele>1184.1</ele>
        <time>2020-11-16T19:50:45Z</time>
      </trkpt>
      <trkpt lat="28.7038300" lon="-17.9243730">
        <ele>1183.9</ele>
        <time>2020-11-16T19:50:46Z</time>
      </trkpt>
      <trkpt lat="28.7038300" lon="-17.9243730">
        <ele>1183.9</ele>
        <time>2020-11-16T19:50:47Z</time>
      </trkpt>
      <trkpt lat="28.7038550" lon="-17.9243020">
        <ele>1183.5</ele>
        <time>2020-11-16T19:50:48Z</time>
      </trkpt>
      <trkpt lat="28.7038650" lon="-17.9242680">
        <ele>1183.3</ele>
        <time>2020-11-16T19:50:49Z</time>
      </trkpt>
      <trkpt lat="28.7038650" lon="-17.9242680">
        <ele>1183.3</ele>
        <time>2020-11-16T19:50:50Z</time>
      </trkpt>
      <trkpt lat="28.7038900" lon="-17.9241930">
        <ele>1182.9</ele>
        <time>2020-11-16T19:50:51Z</time>
      </trkpt>
      <trkpt lat="28.7038900" lon="-17.9241930">
        <ele>1182.9</ele>
        <time>2020-11-16T19:50:52Z</time>
      </trkpt>
      <trkpt lat="28.7039100" lon="-17.9241130">
        <ele>1182.5</ele>
        <time>2020-11-16T19:50:53Z</time>
      </trkpt>
      <trkpt lat="28.7039100" lon="-17.9241130">
        <ele>1182.5</ele>
        <time>2020-11-16T19:50:54Z</time>
      </trkpt>
      <trkpt lat="28.7039300" lon="-17.9240330">
        <ele>1182.1</ele>
        <time>2020-11-16T19:50:55Z</time>
      </trkpt>
      <trkpt lat="28.7039500" lon="-17.9239930">
        <ele>1181.9</ele>
        <time>2020-11-16T19:50:56Z</time>
      </trkpt>
      <trkpt lat="28.7039500" lon="-17.9239930">
        <ele>1181.9</ele>
        <time>2020-11-16T19:50:57Z</time>
      </trkpt>
      <trkpt lat="28.7039700" lon="-17.9239220">
        <ele>1181.6</ele>
        <time>2020-11-16T19:50:58Z</time>
      </trkpt>
      <trkpt lat="28.7039700" lon="-17.9239220">
        <ele>1181.6</ele>
        <time>2020-11-16T19:50:59Z</time>
      </trkpt>
      <trkpt lat="28.7039800" lon="-17.9238570">
        <ele>1181.3</ele>
        <time>2020-11-16T19:51:00Z</time>
      </trkpt>
      <trkpt lat="28.7039800" lon="-17.9238570">
        <ele>1181.3</ele>
        <time>2020-11-16T19:51:01Z</time>
      </trkpt>
      <trkpt lat="28.7039720" lon="-17.9238000">
        <ele>1181.0</ele>
        <time>2020-11-16T19:51:02Z</time>
      </trkpt>
      <trkpt lat="28.7039720" lon="-17.9238000">
        <ele>1181.0</ele>
        <time>2020-11-16T19:51:03Z</time>
      </trkpt>
      <trkpt lat="28.7039520" lon="-17.9237430">
        <ele>1180.7</ele>
        <time>2020-11-16T19:51:04Z</time>
      </trkpt>
      <trkpt lat="28.7039520" lon="-17.9237430">
        <ele>1180.7</ele>
        <time>2020-11-16T19:51:05Z</time>
      </trkpt>
      <trkpt lat="28.7039070" lon="-17.9236920">
        <ele>1180.2</ele>
        <time>2020-11-16T19:51:06Z</time>
      </trkpt>
      <trkpt lat="28.7039070" lon="-17.9236920">
        <ele>1180.2</ele>
        <time>2020-11-16T19:51:07Z</time>
      </trkpt>
      <trkpt lat="28.7038350" lon="-17.9236620">
        <ele>1179.7</ele>
        <time>2020-11-16T19:51:08Z</time>
      </trkpt>
      <trkpt lat="28.7038350" lon="-17.9236620">
        <ele>1179.7</ele>
        <time>2020-11-16T19:51:09Z</time>
      </trkpt>
      <trkpt lat="28.7037580" lon="-17.9236430">
        <ele>1179.4</ele>
        <time>2020-11-16T19:51:10Z</time>
      </trkpt>
      <trkpt lat="28.7037580" lon="-17.9236430">
        <ele>1179.4</ele>
        <time>2020-11-16T19:51:11Z</time>
      </trkpt>
      <trkpt lat="28.7036920" lon="-17.9236220">
        <ele>1179.3</ele>
        <time>2020-11-16T19:51:12Z</time>
      </trkpt>
      <trkpt lat="28.7036920" lon="-17.9236220">
        <ele>1179.3</ele>
        <time>2020-11-16T19:51:13Z</time>
      </trkpt>
      <trkpt lat="28.7036280" lon="-17.9235900">
        <ele>1179.2</ele>
        <time>2020-11-16T19:51:14Z</time>
      </trkpt>
      <trkpt lat="28.7035970" lon="-17.9235680">
        <ele>1179.2</ele>
        <time>2020-11-16T19:51:15Z</time>
      </trkpt>
      <trkpt lat="28.7035720" lon="-17.9235350">
        <ele>1179.1</ele>
        <time>2020-11-16T19:51:16Z</time>
      </trkpt>
      <trkpt lat="28.7035720" lon="-17.9235350">
        <ele>1179.1</ele>
        <time>2020-11-16T19:51:17Z</time>
      </trkpt>
      <trkpt lat="28.7035300" lon="-17.9234570">
        <ele>1179.0</ele>
        <time>2020-11-16T19:51:18Z</time>
      </trkpt>
      <trkpt lat="28.7035300" lon="-17.9234570">
        <ele>1179.0</ele>
        <time>2020-11-16T19:51:19Z</time>
      </trkpt>
      <trkpt lat="28.7035080" lon="-17.9233730">
        <ele>1178.9</ele>
        <time>2020-11-16T19:51:20Z</time>
      </trkpt>
      <trkpt lat="28.7035080" lon="-17.9233730">
        <ele>1178.9</ele>
        <time>2020-11-16T19:51:21Z</time>
      </trkpt>
      <trkpt lat="28.7035000" lon="-17.9232800">
        <ele>1178.7</ele>
        <time>2020-11-16T19:51:22Z</time>
      </trkpt>
      <trkpt lat="28.7035000" lon="-17.9232330">
        <ele>1178.5</ele>
        <time>2020-11-16T19:51:23Z</time>
      </trkpt>
      <trkpt lat="28.7035000" lon="-17.9232330">
        <ele>1178.5</ele>
        <time>2020-11-16T19:51:24Z</time>
      </trkpt>
      <trkpt lat="28.7035050" lon="-17.9231400">
        <ele>1178.4</ele>
        <time>2020-11-16T19:51:25Z</time>
      </trkpt>
      <trkpt lat="28.7035120" lon="-17.9230900">
        <ele>1178.3</ele>
        <time>2020-11-16T19:51:26Z</time>
      </trkpt>
      <trkpt lat="28.7035120" lon="-17.9230900">
        <ele>1178.3</ele>
        <time>2020-11-16T19:51:27Z</time>
      </trkpt>
      <trkpt lat="28.7035280" lon="-17.9229980">
        <ele>1178.3</ele>
        <time>2020-11-16T19:51:28Z</time>
      </trkpt>
      <trkpt lat="28.7035280" lon="-17.9229980">
        <ele>1178.3</ele>
        <time>2020-11-16T19:51:29Z</time>
      </trkpt>
      <trkpt lat="28.7035300" lon="-17.9229030">
        <ele>1178.3</ele>
        <time>2020-11-16T19:51:30Z</time>
      </trkpt>
      <trkpt lat="28.7035300" lon="-17.9229030">
        <ele>1178.3</ele>
        <time>2020-11-16T19:51:31Z</time>
      </trkpt>
      <trkpt lat="28.7035280" lon="-17.9228370">
        <ele>1178.4</ele>
        <time>2020-11-16T19:51:32Z</time>
      </trkpt>
      <trkpt lat="28.7035280" lon="-17.9228370">
        <ele>1178.4</ele>
        <time>2020-11-16T19:51:33Z</time>
      </trkpt>
      <trkpt lat="28.7034950" lon="-17.9228000">
        <ele>1178.5</ele>
        <time>2020-11-16T19:51:34Z</time>
      </trkpt>
      <trkpt lat="28.7034650" lon="-17.9227850">
        <ele>1178.5</ele>
        <time>2020-11-16T19:51:35Z</time>
      </trkpt>
      <trkpt lat="28.7034650" lon="-17.9227850">
        <ele>1178.5</ele>
        <time>2020-11-16T19:51:36Z</time>
      </trkpt>
      <trkpt lat="28.7034130" lon="-17.9227720">
        <ele>1178.6</ele>
        <time>2020-11-16T19:51:37Z</time>
      </trkpt>
      <trkpt lat="28.7034130" lon="-17.9227720">
        <ele>1178.6</ele>
        <time>2020-11-16T19:51:38Z</time>
      </trkpt>
      <trkpt lat="28.7033750" lon="-17.9227720">
        <ele>1178.7</ele>
        <time>2020-11-16T19:51:39Z</time>
      </trkpt>
      <trkpt lat="28.7033750" lon="-17.9227720">
        <ele>1178.7</ele>
        <time>2020-11-16T19:51:40Z</time>
      </trkpt>
      <trkpt lat="28.7033280" lon="-17.9227620">
        <ele>1178.9</ele>
        <time>2020-11-16T19:51:41Z</time>
      </trkpt>
      <trkpt lat="28.7033070" lon="-17.9227530">
        <ele>1179.0</ele>
        <time>2020-11-16T19:51:42Z</time>
      </trkpt>
      <trkpt lat="28.7033070" lon="-17.9227530">
        <ele>1179.0</ele>
        <time>2020-11-16T19:51:43Z</time>
      </trkpt>
      <trkpt lat="28.7032680" lon="-17.9227450">
        <ele>1179.2</ele>
        <time>2020-11-16T19:51:44Z</time>
      </trkpt>
      <trkpt lat="28.7032680" lon="-17.9227450">
        <ele>1179.2</ele>
        <time>2020-11-16T19:51:45Z</time>
      </trkpt>
      <trkpt lat="28.7032220" lon="-17.9227320">
        <ele>1179.4</ele>
        <time>2020-11-16T19:51:46Z</time>
      </trkpt>
      <trkpt lat="28.7032220" lon="-17.9227320">
        <ele>1179.4</ele>
        <time>2020-11-16T19:51:47Z</time>
      </trkpt>
      <trkpt lat="28.7031720" lon="-17.9227230">
        <ele>1179.7</ele>
        <time>2020-11-16T19:51:48Z</time>
      </trkpt>
      <trkpt lat="28.7031720" lon="-17.9227230">
        <ele>1179.7</ele>
        <time>2020-11-16T19:51:49Z</time>
      </trkpt>
      <trkpt lat="28.7031280" lon="-17.9227150">
        <ele>1179.9</ele>
        <time>2020-11-16T19:51:50Z</time>
      </trkpt>
      <trkpt lat="28.7031280" lon="-17.9227150">
        <ele>1179.9</ele>
        <time>2020-11-16T19:51:51Z</time>
      </trkpt>
      <trkpt lat="28.7030720" lon="-17.9227020">
        <ele>1180.2</ele>
        <time>2020-11-16T19:51:52Z</time>
      </trkpt>
      <trkpt lat="28.7030720" lon="-17.9227020">
        <ele>1180.2</ele>
        <time>2020-11-16T19:51:53Z</time>
      </trkpt>
      <trkpt lat="28.7030330" lon="-17.9227050">
        <ele>1180.4</ele>
        <time>2020-11-16T19:51:54Z</time>
      </trkpt>
      <trkpt lat="28.7030330" lon="-17.9227050">
        <ele>1180.4</ele>
        <time>2020-11-16T19:51:55Z</time>
      </trkpt>
      <trkpt lat="28.7029970" lon="-17.9227170">
        <ele>1180.6</ele>
        <time>2020-11-16T19:51:56Z</time>
      </trkpt>
      <trkpt lat="28.7029970" lon="-17.9227170">
        <ele>1180.6</ele>
        <time>2020-11-16T19:51:57Z</time>
      </trkpt>
      <trkpt lat="28.7029480" lon="-17.9227320">
        <ele>1180.8</ele>
        <time>2020-11-16T19:51:58Z</time>
      </trkpt>
      <trkpt lat="28.7029480" lon="-17.9227320">
        <ele>1180.8</ele>
        <time>2020-11-16T19:51:59Z</time>
      </trkpt>
      <trkpt lat="28.7029100" lon="-17.9227780">
        <ele>1181.1</ele>
        <time>2020-11-16T19:52:00Z</time>
      </trkpt>
      <trkpt lat="28.7029100" lon="-17.9227780">
        <ele>1181.1</ele>
        <time>2020-11-16T19:52:01Z</time>
      </trkpt>
      <trkpt lat="28.7028700" lon="-17.9228180">
        <ele>1181.4</ele>
        <time>2020-11-16T19:52:02Z</time>
      </trkpt>
      <trkpt lat="28.7028700" lon="-17.9228180">
        <ele>1181.4</ele>
        <time>2020-11-16T19:52:03Z</time>
      </trkpt>
      <trkpt lat="28.7028350" lon="-17.9228650">
        <ele>1181.6</ele>
        <time>2020-11-16T19:52:04Z</time>
      </trkpt>
      <trkpt lat="28.7028350" lon="-17.9228650">
        <ele>1181.6</ele>
        <time>2020-11-16T19:52:05Z</time>
      </trkpt>
      <trkpt lat="28.7027920" lon="-17.9229050">
        <ele>1181.8</ele>
        <time>2020-11-16T19:52:06Z</time>
      </trkpt>
      <trkpt lat="28.7027920" lon="-17.9229050">
        <ele>1181.8</ele>
        <time>2020-11-16T19:52:07Z</time>
      </trkpt>
      <trkpt lat="28.7027570" lon="-17.9229400">
        <ele>1182.0</ele>
        <time>2020-11-16T19:52:08Z</time>
      </trkpt>
      <trkpt lat="28.7027570" lon="-17.9229400">
        <ele>1182.0</ele>
        <time>2020-11-16T19:52:09Z</time>
      </trkpt>
      <trkpt lat="28.7027200" lon="-17.9229700">
        <ele>1182.1</ele>
        <time>2020-11-16T19:52:10Z</time>
      </trkpt>
      <trkpt lat="28.7027050" lon="-17.9229880">
        <ele>1182.2</ele>
        <time>2020-11-16T19:52:11Z</time>
      </trkpt>
      <trkpt lat="28.7026880" lon="-17.9230020">
        <ele>1182.3</ele>
        <time>2020-11-16T19:52:12Z</time>
      </trkpt>
      <trkpt lat="28.7026880" lon="-17.9230020">
        <ele>1182.3</ele>
        <time>2020-11-16T19:52:13Z</time>
      </trkpt>
      <trkpt lat="28.7026620" lon="-17.9230400">
        <ele>1182.4</ele>
        <time>2020-11-16T19:52:14Z</time>
      </trkpt>
      <trkpt lat="28.7026530" lon="-17.9230650">
        <ele>1182.5</ele>
        <time>2020-11-16T19:52:15Z</time>
      </trkpt>
      <trkpt lat="28.7026530" lon="-17.9230650">
        <ele>1182.5</ele>
        <time>2020-11-16T19:52:16Z</time>
      </trkpt>
      <trkpt lat="28.7026370" lon="-17.9231120">
        <ele>1182.6</ele>
        <time>2020-11-16T19:52:17Z</time>
      </trkpt>
      <trkpt lat="28.7026370" lon="-17.9231120">
        <ele>1182.6</ele>
        <time>2020-11-16T19:52:18Z</time>
      </trkpt>
      <trkpt lat="28.7026180" lon="-17.9231630">
        <ele>1182.7</ele>
        <time>2020-11-16T19:52:19Z</time>
      </trkpt>
      <trkpt lat="28.7026120" lon="-17.9231950">
        <ele>1182.7</ele>
        <time>2020-11-16T19:52:20Z</time>
      </trkpt>
      <trkpt lat="28.7026120" lon="-17.9231950">
        <ele>1182.7</ele>
        <time>2020-11-16T19:52:21Z</time>
      </trkpt>
      <trkpt lat="28.7026000" lon="-17.9232530">
        <ele>1182.8</ele>
        <time>2020-11-16T19:52:22Z</time>
      </trkpt>
      <trkpt lat="28.7025870" lon="-17.9232820">
        <ele>1182.8</ele>
        <time>2020-11-16T19:52:23Z</time>
      </trkpt>
      <trkpt lat="28.7025870" lon="-17.9232820">
        <ele>1182.8</ele>
        <time>2020-11-16T19:52:24Z</time>
      </trkpt>
      <trkpt lat="28.7025530" lon="-17.9233400">
        <ele>1182.9</ele>
        <time>2020-11-16T19:52:25Z</time>
      </trkpt>
      <trkpt lat="28.7025530" lon="-17.9233400">
        <ele>1182.9</ele>
        <time>2020-11-16T19:52:26Z</time>
      </trkpt>
      <trkpt lat="28.7024970" lon="-17.9233750">
        <ele>1182.9</ele>
        <time>2020-11-16T19:52:27Z</time>
      </trkpt>
      <trkpt lat="28.7024970" lon="-17.9233750">
        <ele>1182.9</ele>
        <time>2020-11-16T19:52:28Z</time>
      </trkpt>
      <trkpt lat="28.7024150" lon="-17.9233830">
        <ele>1182.9</ele>
        <time>2020-11-16T19:52:29Z</time>
      </trkpt>
      <trkpt lat="28.7023900" lon="-17.9233730">
        <ele>1182.9</ele>
        <time>2020-11-16T19:52:30Z</time>
      </trkpt>
      <trkpt lat="28.7023900" lon="-17.9233730">
        <ele>1182.9</ele>
        <time>2020-11-16T19:52:31Z</time>
      </trkpt>
      <trkpt lat="28.7023530" lon="-17.9233380">
        <ele>1182.8</ele>
        <time>2020-11-16T19:52:32Z</time>
      </trkpt>
      <trkpt lat="28.7023530" lon="-17.9233380">
        <ele>1182.8</ele>
        <time>2020-11-16T19:52:33Z</time>
      </trkpt>
      <trkpt lat="28.7023270" lon="-17.9232870">
        <ele>1182.8</ele>
        <time>2020-11-16T19:52:34Z</time>
      </trkpt>
      <trkpt lat="28.7023170" lon="-17.9232550">
        <ele>1182.7</ele>
        <time>2020-11-16T19:52:35Z</time>
      </trkpt>
      <trkpt lat="28.7023170" lon="-17.9232550">
        <ele>1182.7</ele>
        <time>2020-11-16T19:52:36Z</time>
      </trkpt>
      <trkpt lat="28.7022820" lon="-17.9231930">
        <ele>1182.7</ele>
        <time>2020-11-16T19:52:37Z</time>
      </trkpt>
      <trkpt lat="28.7022820" lon="-17.9231930">
        <ele>1182.7</ele>
        <time>2020-11-16T19:52:38Z</time>
      </trkpt>
      <trkpt lat="28.7022350" lon="-17.9231430">
        <ele>1182.6</ele>
        <time>2020-11-16T19:52:39Z</time>
      </trkpt>
      <trkpt lat="28.7022350" lon="-17.9231430">
        <ele>1182.6</ele>
        <time>2020-11-16T19:52:40Z</time>
      </trkpt>
      <trkpt lat="28.7021980" lon="-17.9231020">
        <ele>1182.6</ele>
        <time>2020-11-16T19:52:41Z</time>
      </trkpt>
      <trkpt lat="28.7021980" lon="-17.9231020">
        <ele>1182.6</ele>
        <time>2020-11-16T19:52:42Z</time>
      </trkpt>
      <trkpt lat="28.7021620" lon="-17.9230680">
        <ele>1182.5</ele>
        <time>2020-11-16T19:52:43Z</time>
      </trkpt>
      <trkpt lat="28.7021620" lon="-17.9230680">
        <ele>1182.5</ele>
        <time>2020-11-16T19:52:44Z</time>
      </trkpt>
      <trkpt lat="28.7021300" lon="-17.9230400">
        <ele>1182.5</ele>
        <time>2020-11-16T19:52:45Z</time>
      </trkpt>
      <trkpt lat="28.7021150" lon="-17.9230230">
        <ele>1182.5</ele>
        <time>2020-11-16T19:52:46Z</time>
      </trkpt>
      <trkpt lat="28.7021150" lon="-17.9230230">
        <ele>1182.5</ele>
        <time>2020-11-16T19:52:47Z</time>
      </trkpt>
      <trkpt lat="28.7020830" lon="-17.9229670">
        <ele>1182.5</ele>
        <time>2020-11-16T19:52:48Z</time>
      </trkpt>
      <trkpt lat="28.7020830" lon="-17.9229670">
        <ele>1182.5</ele>
        <time>2020-11-16T19:52:49Z</time>
      </trkpt>
      <trkpt lat="28.7020520" lon="-17.9229120">
        <ele>1182.4</ele>
        <time>2020-11-16T19:52:50Z</time>
      </trkpt>
      <trkpt lat="28.7020520" lon="-17.9229120">
        <ele>1182.4</ele>
        <time>2020-11-16T19:52:51Z</time>
      </trkpt>
      <trkpt lat="28.7020150" lon="-17.9228750">
        <ele>1182.4</ele>
        <time>2020-11-16T19:52:52Z</time>
      </trkpt>
      <trkpt lat="28.7020150" lon="-17.9228750">
        <ele>1182.4</ele>
        <time>2020-11-16T19:52:53Z</time>
      </trkpt>
      <trkpt lat="28.7019680" lon="-17.9228350">
        <ele>1182.4</ele>
        <time>2020-11-16T19:52:54Z</time>
      </trkpt>
      <trkpt lat="28.7019680" lon="-17.9228350">
        <ele>1182.4</ele>
        <time>2020-11-16T19:52:55Z</time>
      </trkpt>
      <trkpt lat="28.7019270" lon="-17.9227980">
        <ele>1182.4</ele>
        <time>2020-11-16T19:52:56Z</time>
      </trkpt>
      <trkpt lat="28.7019270" lon="-17.9227980">
        <ele>1182.4</ele>
        <time>2020-11-16T19:52:57Z</time>
      </trkpt>
      <trkpt lat="28.7018800" lon="-17.9227680">
        <ele>1182.4</ele>
        <time>2020-11-16T19:52:58Z</time>
      </trkpt>
      <trkpt lat="28.7018400" lon="-17.9227350">
        <ele>1182.4</ele>
        <time>2020-11-16T19:52:59Z</time>
      </trkpt>
      <trkpt lat="28.7018400" lon="-17.9227350">
        <ele>1182.4</ele>
        <time>2020-11-16T19:53:00Z</time>
      </trkpt>
      <trkpt lat="28.7017930" lon="-17.9227300">
        <ele>1182.4</ele>
        <time>2020-11-16T19:53:01Z</time>
      </trkpt>
      <trkpt lat="28.7017930" lon="-17.9227300">
        <ele>1182.4</ele>
        <time>2020-11-16T19:53:02Z</time>
      </trkpt>
      <trkpt lat="28.7017470" lon="-17.9227700">
        <ele>1182.4</ele>
        <time>2020-11-16T19:53:03Z</time>
      </trkpt>
      <trkpt lat="28.7017470" lon="-17.9227700">
        <ele>1182.4</ele>
        <time>2020-11-16T19:53:04Z</time>
      </trkpt>
      <trkpt lat="28.7017080" lon="-17.9228130">
        <ele>1182.5</ele>
        <time>2020-11-16T19:53:05Z</time>
      </trkpt>
      <trkpt lat="28.7017080" lon="-17.9228130">
        <ele>1182.5</ele>
        <time>2020-11-16T19:53:06Z</time>
      </trkpt>
      <trkpt lat="28.7016730" lon="-17.9228630">
        <ele>1182.6</ele>
        <time>2020-11-16T19:53:07Z</time>
      </trkpt>
      <trkpt lat="28.7016730" lon="-17.9228630">
        <ele>1182.6</ele>
        <time>2020-11-16T19:53:08Z</time>
      </trkpt>
      <trkpt lat="28.7016470" lon="-17.9229280">
        <ele>1182.9</ele>
        <time>2020-11-16T19:53:09Z</time>
      </trkpt>
      <trkpt lat="28.7016470" lon="-17.9229280">
        <ele>1182.9</ele>
        <time>2020-11-16T19:53:10Z</time>
      </trkpt>
      <trkpt lat="28.7016450" lon="-17.9230220">
        <ele>1183.3</ele>
        <time>2020-11-16T19:53:11Z</time>
      </trkpt>
      <trkpt lat="28.7016450" lon="-17.9230220">
        <ele>1183.3</ele>
        <time>2020-11-16T19:53:12Z</time>
      </trkpt>
      <trkpt lat="28.7016280" lon="-17.9230600">
        <ele>1183.5</ele>
        <time>2020-11-16T19:53:13Z</time>
      </trkpt>
      <trkpt lat="28.7016280" lon="-17.9230600">
        <ele>1183.5</ele>
        <time>2020-11-16T19:53:14Z</time>
      </trkpt>
      <trkpt lat="28.7016070" lon="-17.9230980">
        <ele>1183.8</ele>
        <time>2020-11-16T19:53:15Z</time>
      </trkpt>
      <trkpt lat="28.7016070" lon="-17.9230980">
        <ele>1183.8</ele>
        <time>2020-11-16T19:53:16Z</time>
      </trkpt>
      <trkpt lat="28.7015850" lon="-17.9231430">
        <ele>1184.1</ele>
        <time>2020-11-16T19:53:17Z</time>
      </trkpt>
      <trkpt lat="28.7015850" lon="-17.9231430">
        <ele>1184.1</ele>
        <time>2020-11-16T19:53:18Z</time>
      </trkpt>
      <trkpt lat="28.7015680" lon="-17.9231830">
        <ele>1184.5</ele>
        <time>2020-11-16T19:53:19Z</time>
      </trkpt>
      <trkpt lat="28.7015630" lon="-17.9232030">
        <ele>1184.6</ele>
        <time>2020-11-16T19:53:20Z</time>
      </trkpt>
      <trkpt lat="28.7015630" lon="-17.9232030">
        <ele>1184.6</ele>
        <time>2020-11-16T19:53:21Z</time>
      </trkpt>
      <trkpt lat="28.7015550" lon="-17.9232320">
        <ele>1184.9</ele>
        <time>2020-11-16T19:53:22Z</time>
      </trkpt>
      <trkpt lat="28.7015550" lon="-17.9232320">
        <ele>1184.9</ele>
        <time>2020-11-16T19:53:23Z</time>
      </trkpt>
      <trkpt lat="28.7015480" lon="-17.9232600">
        <ele>1185.1</ele>
        <time>2020-11-16T19:53:24Z</time>
      </trkpt>
      <trkpt lat="28.7015480" lon="-17.9232600">
        <ele>1185.1</ele>
        <time>2020-11-16T19:53:25Z</time>
      </trkpt>
      <trkpt lat="28.7015500" lon="-17.9232930">
        <ele>1185.3</ele>
        <time>2020-11-16T19:53:26Z</time>
      </trkpt>
      <trkpt lat="28.7015500" lon="-17.9232930">
        <ele>1185.3</ele>
        <time>2020-11-16T19:53:27Z</time>
      </trkpt>
      <trkpt lat="28.7015230" lon="-17.9233230">
        <ele>1185.7</ele>
        <time>2020-11-16T19:53:28Z</time>
      </trkpt>
      <trkpt lat="28.7015170" lon="-17.9233350">
        <ele>1185.8</ele>
        <time>2020-11-16T19:53:29Z</time>
      </trkpt>
      <trkpt lat="28.7015170" lon="-17.9233350">
        <ele>1185.8</ele>
        <time>2020-11-16T19:53:30Z</time>
      </trkpt>
      <trkpt lat="28.7014600" lon="-17.9233830">
        <ele>1186.3</ele>
        <time>2020-11-16T19:53:31Z</time>
      </trkpt>
      <trkpt lat="28.7014600" lon="-17.9233830">
        <ele>1186.3</ele>
        <time>2020-11-16T19:53:32Z</time>
      </trkpt>
      <trkpt lat="28.7014100" lon="-17.9234120">
        <ele>1186.7</ele>
        <time>2020-11-16T19:53:33Z</time>
      </trkpt>
      <trkpt lat="28.7014100" lon="-17.9234120">
        <ele>1186.7</ele>
        <time>2020-11-16T19:53:34Z</time>
      </trkpt>
      <trkpt lat="28.7013630" lon="-17.9234530">
        <ele>1187.0</ele>
        <time>2020-11-16T19:53:35Z</time>
      </trkpt>
      <trkpt lat="28.7013630" lon="-17.9234530">
        <ele>1187.0</ele>
        <time>2020-11-16T19:53:36Z</time>
      </trkpt>
      <trkpt lat="28.7013280" lon="-17.9234920">
        <ele>1187.3</ele>
        <time>2020-11-16T19:53:37Z</time>
      </trkpt>
      <trkpt lat="28.7013280" lon="-17.9234920">
        <ele>1187.3</ele>
        <time>2020-11-16T19:53:38Z</time>
      </trkpt>
      <trkpt lat="28.7012900" lon="-17.9235220">
        <ele>1187.5</ele>
        <time>2020-11-16T19:53:39Z</time>
      </trkpt>
      <trkpt lat="28.7012900" lon="-17.9235220">
        <ele>1187.5</ele>
        <time>2020-11-16T19:53:40Z</time>
      </trkpt>
      <trkpt lat="28.7012530" lon="-17.9235620">
        <ele>1187.7</ele>
        <time>2020-11-16T19:53:41Z</time>
      </trkpt>
      <trkpt lat="28.7012530" lon="-17.9235620">
        <ele>1187.7</ele>
        <time>2020-11-16T19:53:42Z</time>
      </trkpt>
      <trkpt lat="28.7012170" lon="-17.9236050">
        <ele>1187.9</ele>
        <time>2020-11-16T19:53:43Z</time>
      </trkpt>
      <trkpt lat="28.7012170" lon="-17.9236050">
        <ele>1187.9</ele>
        <time>2020-11-16T19:53:44Z</time>
      </trkpt>
      <trkpt lat="28.7011800" lon="-17.9236580">
        <ele>1188.1</ele>
        <time>2020-11-16T19:53:45Z</time>
      </trkpt>
      <trkpt lat="28.7011800" lon="-17.9236580">
        <ele>1188.1</ele>
        <time>2020-11-16T19:53:46Z</time>
      </trkpt>
      <trkpt lat="28.7011700" lon="-17.9237100">
        <ele>1188.2</ele>
        <time>2020-11-16T19:53:47Z</time>
      </trkpt>
      <trkpt lat="28.7011700" lon="-17.9237100">
        <ele>1188.2</ele>
        <time>2020-11-16T19:53:48Z</time>
      </trkpt>
      <trkpt lat="28.7011630" lon="-17.9237500">
        <ele>1188.4</ele>
        <time>2020-11-16T19:53:49Z</time>
      </trkpt>
      <trkpt lat="28.7011620" lon="-17.9237680">
        <ele>1188.4</ele>
        <time>2020-11-16T19:53:50Z</time>
      </trkpt>
      <trkpt lat="28.7011620" lon="-17.9237680">
        <ele>1188.4</ele>
        <time>2020-11-16T19:53:51Z</time>
      </trkpt>
      <trkpt lat="28.7011730" lon="-17.9238220">
        <ele>1188.6</ele>
        <time>2020-11-16T19:53:52Z</time>
      </trkpt>
      <trkpt lat="28.7011770" lon="-17.9238550">
        <ele>1188.8</ele>
        <time>2020-11-16T19:53:53Z</time>
      </trkpt>
      <trkpt lat="28.7011770" lon="-17.9238550">
        <ele>1188.8</ele>
        <time>2020-11-16T19:53:54Z</time>
      </trkpt>
      <trkpt lat="28.7011680" lon="-17.9239050">
        <ele>1189.0</ele>
        <time>2020-11-16T19:53:55Z</time>
      </trkpt>
      <trkpt lat="28.7011630" lon="-17.9239320">
        <ele>1189.2</ele>
        <time>2020-11-16T19:53:56Z</time>
      </trkpt>
      <trkpt lat="28.7011630" lon="-17.9239320">
        <ele>1189.2</ele>
        <time>2020-11-16T19:53:57Z</time>
      </trkpt>
      <trkpt lat="28.7011480" lon="-17.9239950">
        <ele>1189.5</ele>
        <time>2020-11-16T19:53:58Z</time>
      </trkpt>
      <trkpt lat="28.7011350" lon="-17.9240200">
        <ele>1189.7</ele>
        <time>2020-11-16T19:53:59Z</time>
      </trkpt>
      <trkpt lat="28.7011350" lon="-17.9240200">
        <ele>1189.7</ele>
        <time>2020-11-16T19:54:00Z</time>
      </trkpt>
      <trkpt lat="28.7011000" lon="-17.9241120">
        <ele>1190.2</ele>
        <time>2020-11-16T19:54:01Z</time>
      </trkpt>
      <trkpt lat="28.7011000" lon="-17.9241120">
        <ele>1190.2</ele>
        <time>2020-11-16T19:54:02Z</time>
      </trkpt>
      <trkpt lat="28.7010800" lon="-17.9241800">
        <ele>1190.6</ele>
        <time>2020-11-16T19:54:03Z</time>
      </trkpt>
      <trkpt lat="28.7010800" lon="-17.9241800">
        <ele>1190.6</ele>
        <time>2020-11-16T19:54:04Z</time>
      </trkpt>
      <trkpt lat="28.7010580" lon="-17.9242350">
        <ele>1191.0</ele>
        <time>2020-11-16T19:54:05Z</time>
      </trkpt>
      <trkpt lat="28.7010580" lon="-17.9242350">
        <ele>1191.0</ele>
        <time>2020-11-16T19:54:06Z</time>
      </trkpt>
      <trkpt lat="28.7010280" lon="-17.9242870">
        <ele>1191.4</ele>
        <time>2020-11-16T19:54:07Z</time>
      </trkpt>
      <trkpt lat="28.7010200" lon="-17.9243130">
        <ele>1191.6</ele>
        <time>2020-11-16T19:54:08Z</time>
      </trkpt>
      <trkpt lat="28.7010200" lon="-17.9243130">
        <ele>1191.6</ele>
        <time>2020-11-16T19:54:09Z</time>
      </trkpt>
      <trkpt lat="28.7009980" lon="-17.9243650">
        <ele>1191.9</ele>
        <time>2020-11-16T19:54:10Z</time>
      </trkpt>
      <trkpt lat="28.7009930" lon="-17.9243880">
        <ele>1192.1</ele>
        <time>2020-11-16T19:54:11Z</time>
      </trkpt>
      <trkpt lat="28.7009930" lon="-17.9243880">
        <ele>1192.1</ele>
        <time>2020-11-16T19:54:12Z</time>
      </trkpt>
      <trkpt lat="28.7009830" lon="-17.9244370">
        <ele>1192.5</ele>
        <time>2020-11-16T19:54:13Z</time>
      </trkpt>
      <trkpt lat="28.7009750" lon="-17.9244580">
        <ele>1192.6</ele>
        <time>2020-11-16T19:54:14Z</time>
      </trkpt>
      <trkpt lat="28.7009750" lon="-17.9244580">
        <ele>1192.6</ele>
        <time>2020-11-16T19:54:15Z</time>
      </trkpt>
      <trkpt lat="28.7009650" lon="-17.9245030">
        <ele>1193.0</ele>
        <time>2020-11-16T19:54:16Z</time>
      </trkpt>
      <trkpt lat="28.7009650" lon="-17.9245030">
        <ele>1193.0</ele>
        <time>2020-11-16T19:54:17Z</time>
      </trkpt>
      <trkpt lat="28.7009650" lon="-17.9245480">
        <ele>1193.4</ele>
        <time>2020-11-16T19:54:18Z</time>
      </trkpt>
      <trkpt lat="28.7009650" lon="-17.9245480">
        <ele>1193.4</ele>
        <time>2020-11-16T19:54:19Z</time>
      </trkpt>
      <trkpt lat="28.7009580" lon="-17.9245950">
        <ele>1193.8</ele>
        <time>2020-11-16T19:54:20Z</time>
      </trkpt>
      <trkpt lat="28.7009580" lon="-17.9245950">
        <ele>1193.8</ele>
        <time>2020-11-16T19:54:21Z</time>
      </trkpt>
      <trkpt lat="28.7009530" lon="-17.9246400">
        <ele>1194.2</ele>
        <time>2020-11-16T19:54:22Z</time>
      </trkpt>
      <trkpt lat="28.7009530" lon="-17.9246400">
        <ele>1194.2</ele>
        <time>2020-11-16T19:54:23Z</time>
      </trkpt>
      <trkpt lat="28.7009470" lon="-17.9246820">
        <ele>1194.5</ele>
        <time>2020-11-16T19:54:24Z</time>
      </trkpt>
      <trkpt lat="28.7009420" lon="-17.9247000">
        <ele>1194.7</ele>
        <time>2020-11-16T19:54:25Z</time>
      </trkpt>
      <trkpt lat="28.7009370" lon="-17.9247220">
        <ele>1194.9</ele>
        <time>2020-11-16T19:54:26Z</time>
      </trkpt>
      <trkpt lat="28.7009370" lon="-17.9247220">
        <ele>1194.9</ele>
        <time>2020-11-16T19:54:27Z</time>
      </trkpt>
      <trkpt lat="28.7009150" lon="-17.9247530">
        <ele>1195.3</ele>
        <time>2020-11-16T19:54:28Z</time>
      </trkpt>
      <trkpt lat="28.7009150" lon="-17.9247530">
        <ele>1195.3</ele>
        <time>2020-11-16T19:54:29Z</time>
      </trkpt>
      <trkpt lat="28.7008870" lon="-17.9247830">
        <ele>1195.6</ele>
        <time>2020-11-16T19:54:30Z</time>
      </trkpt>
      <trkpt lat="28.7008870" lon="-17.9247830">
        <ele>1195.6</ele>
        <time>2020-11-16T19:54:31Z</time>
      </trkpt>
      <trkpt lat="28.7008280" lon="-17.9248080">
        <ele>1196.2</ele>
        <time>2020-11-16T19:54:32Z</time>
      </trkpt>
      <trkpt lat="28.7008280" lon="-17.9248080">
        <ele>1196.2</ele>
        <time>2020-11-16T19:54:33Z</time>
      </trkpt>
      <trkpt lat="28.7007970" lon="-17.9248370">
        <ele>1196.6</ele>
        <time>2020-11-16T19:54:34Z</time>
      </trkpt>
      <trkpt lat="28.7007970" lon="-17.9248370">
        <ele>1196.6</ele>
        <time>2020-11-16T19:54:35Z</time>
      </trkpt>
      <trkpt lat="28.7007850" lon="-17.9248720">
        <ele>1196.9</ele>
        <time>2020-11-16T19:54:36Z</time>
      </trkpt>
      <trkpt lat="28.7007850" lon="-17.9248720">
        <ele>1196.9</ele>
        <time>2020-11-16T19:54:37Z</time>
      </trkpt>
      <trkpt lat="28.7007620" lon="-17.9249030">
        <ele>1197.2</ele>
        <time>2020-11-16T19:54:38Z</time>
      </trkpt>
      <trkpt lat="28.7007620" lon="-17.9249030">
        <ele>1197.2</ele>
        <time>2020-11-16T19:54:39Z</time>
      </trkpt>
      <trkpt lat="28.7007430" lon="-17.9249400">
        <ele>1197.5</ele>
        <time>2020-11-16T19:54:40Z</time>
      </trkpt>
      <trkpt lat="28.7007430" lon="-17.9249400">
        <ele>1197.5</ele>
        <time>2020-11-16T19:54:41Z</time>
      </trkpt>
      <trkpt lat="28.7007300" lon="-17.9249780">
        <ele>1197.7</ele>
        <time>2020-11-16T19:54:42Z</time>
      </trkpt>
      <trkpt lat="28.7007300" lon="-17.9249780">
        <ele>1197.7</ele>
        <time>2020-11-16T19:54:43Z</time>
      </trkpt>
      <trkpt lat="28.7007130" lon="-17.9250170">
        <ele>1198.0</ele>
        <time>2020-11-16T19:54:44Z</time>
      </trkpt>
      <trkpt lat="28.7007130" lon="-17.9250170">
        <ele>1198.0</ele>
        <time>2020-11-16T19:54:45Z</time>
      </trkpt>
      <trkpt lat="28.7007070" lon="-17.9250520">
        <ele>1198.2</ele>
        <time>2020-11-16T19:54:46Z</time>
      </trkpt>
      <trkpt lat="28.7007070" lon="-17.9250520">
        <ele>1198.2</ele>
        <time>2020-11-16T19:54:47Z</time>
      </trkpt>
      <trkpt lat="28.7006880" lon="-17.9250850">
        <ele>1198.4</ele>
        <time>2020-11-16T19:54:48Z</time>
      </trkpt>
      <trkpt lat="28.7006880" lon="-17.9250850">
        <ele>1198.4</ele>
        <time>2020-11-16T19:54:49Z</time>
      </trkpt>
      <trkpt lat="28.7006580" lon="-17.9251130">
        <ele>1198.7</ele>
        <time>2020-11-16T19:54:50Z</time>
      </trkpt>
      <trkpt lat="28.7006580" lon="-17.9251130">
        <ele>1198.7</ele>
        <time>2020-11-16T19:54:51Z</time>
      </trkpt>
      <trkpt lat="28.7006230" lon="-17.9251380">
        <ele>1198.9</ele>
        <time>2020-11-16T19:54:52Z</time>
      </trkpt>
      <trkpt lat="28.7006230" lon="-17.9251380">
        <ele>1198.9</ele>
        <time>2020-11-16T19:54:53Z</time>
      </trkpt>
      <trkpt lat="28.7005870" lon="-17.9251630">
        <ele>1199.1</ele>
        <time>2020-11-16T19:54:54Z</time>
      </trkpt>
      <trkpt lat="28.7005870" lon="-17.9251630">
        <ele>1199.1</ele>
        <time>2020-11-16T19:54:55Z</time>
      </trkpt>
      <trkpt lat="28.7005480" lon="-17.9251850">
        <ele>1199.3</ele>
        <time>2020-11-16T19:54:56Z</time>
      </trkpt>
      <trkpt lat="28.7005480" lon="-17.9251850">
        <ele>1199.3</ele>
        <time>2020-11-16T19:54:57Z</time>
      </trkpt>
      <trkpt lat="28.7005080" lon="-17.9252070">
        <ele>1199.4</ele>
        <time>2020-11-16T19:54:58Z</time>
      </trkpt>
      <trkpt lat="28.7005080" lon="-17.9252070">
        <ele>1199.4</ele>
        <time>2020-11-16T19:54:59Z</time>
      </trkpt>
      <trkpt lat="28.7004680" lon="-17.9252280">
        <ele>1199.5</ele>
        <time>2020-11-16T19:55:00Z</time>
      </trkpt>
      <trkpt lat="28.7004680" lon="-17.9252280">
        <ele>1199.5</ele>
        <time>2020-11-16T19:55:01Z</time>
      </trkpt>
      <trkpt lat="28.7004280" lon="-17.9252380">
        <ele>1199.6</ele>
        <time>2020-11-16T19:55:02Z</time>
      </trkpt>
      <trkpt lat="28.7004280" lon="-17.9252380">
        <ele>1199.6</ele>
        <time>2020-11-16T19:55:03Z</time>
      </trkpt>
      <trkpt lat="28.7003830" lon="-17.9252370">
        <ele>1199.7</ele>
        <time>2020-11-16T19:55:04Z</time>
      </trkpt>
      <trkpt lat="28.7003600" lon="-17.9252320">
        <ele>1199.7</ele>
        <time>2020-11-16T19:55:05Z</time>
      </trkpt>
      <trkpt lat="28.7003600" lon="-17.9252320">
        <ele>1199.7</ele>
        <time>2020-11-16T19:55:06Z</time>
      </trkpt>
      <trkpt lat="28.7003120" lon="-17.9252070">
        <ele>1199.6</ele>
        <time>2020-11-16T19:55:07Z</time>
      </trkpt>
      <trkpt lat="28.7003120" lon="-17.9252070">
        <ele>1199.6</ele>
        <time>2020-11-16T19:55:08Z</time>
      </trkpt>
      <trkpt lat="28.7002780" lon="-17.9251570">
        <ele>1199.6</ele>
        <time>2020-11-16T19:55:09Z</time>
      </trkpt>
      <trkpt lat="28.7002620" lon="-17.9251330">
        <ele>1199.5</ele>
        <time>2020-11-16T19:55:10Z</time>
      </trkpt>
      <trkpt lat="28.7002620" lon="-17.9251330">
        <ele>1199.5</ele>
        <time>2020-11-16T19:55:11Z</time>
      </trkpt>
      <trkpt lat="28.7002270" lon="-17.9250770">
        <ele>1199.4</ele>
        <time>2020-11-16T19:55:12Z</time>
      </trkpt>
      <trkpt lat="28.7002270" lon="-17.9250770">
        <ele>1199.4</ele>
        <time>2020-11-16T19:55:13Z</time>
      </trkpt>
      <trkpt lat="28.7001900" lon="-17.9250100">
        <ele>1199.2</ele>
        <time>2020-11-16T19:55:14Z</time>
      </trkpt>
      <trkpt lat="28.7001900" lon="-17.9250100">
        <ele>1199.2</ele>
        <time>2020-11-16T19:55:15Z</time>
      </trkpt>
      <trkpt lat="28.7001450" lon="-17.9249370">
        <ele>1198.9</ele>
        <time>2020-11-16T19:55:16Z</time>
      </trkpt>
      <trkpt lat="28.7001180" lon="-17.9248980">
        <ele>1198.8</ele>
        <time>2020-11-16T19:55:17Z</time>
      </trkpt>
      <trkpt lat="28.7001180" lon="-17.9248980">
        <ele>1198.8</ele>
        <time>2020-11-16T19:55:18Z</time>
      </trkpt>
      <trkpt lat="28.7000600" lon="-17.9248300">
        <ele>1198.5</ele>
        <time>2020-11-16T19:55:19Z</time>
      </trkpt>
      <trkpt lat="28.7000600" lon="-17.9248300">
        <ele>1198.5</ele>
        <time>2020-11-16T19:55:20Z</time>
      </trkpt>
      <trkpt lat="28.6999950" lon="-17.9247650">
        <ele>1198.2</ele>
        <time>2020-11-16T19:55:21Z</time>
      </trkpt>
      <trkpt lat="28.6999950" lon="-17.9247650">
        <ele>1198.2</ele>
        <time>2020-11-16T19:55:22Z</time>
      </trkpt>
      <trkpt lat="28.6999370" lon="-17.9246930">
        <ele>1197.9</ele>
        <time>2020-11-16T19:55:23Z</time>
      </trkpt>
      <trkpt lat="28.6999370" lon="-17.9246930">
        <ele>1197.9</ele>
        <time>2020-11-16T19:55:24Z</time>
      </trkpt>
      <trkpt lat="28.6998780" lon="-17.9246350">
        <ele>1197.5</ele>
        <time>2020-11-16T19:55:25Z</time>
      </trkpt>
      <trkpt lat="28.6998470" lon="-17.9246150">
        <ele>1197.4</ele>
        <time>2020-11-16T19:55:26Z</time>
      </trkpt>
      <trkpt lat="28.6998470" lon="-17.9246150">
        <ele>1197.4</ele>
        <time>2020-11-16T19:55:27Z</time>
      </trkpt>
      <trkpt lat="28.6997820" lon="-17.9246150">
        <ele>1196.3</ele>
        <time>2020-11-16T19:55:28Z</time>
      </trkpt>
      <trkpt lat="28.6997470" lon="-17.9246370">
        <ele>1195.7</ele>
        <time>2020-11-16T19:55:29Z</time>
      </trkpt>
      <trkpt lat="28.6997470" lon="-17.9246370">
        <ele>1195.7</ele>
        <time>2020-11-16T19:55:30Z</time>
      </trkpt>
      <trkpt lat="28.6997030" lon="-17.9247020">
        <ele>1194.6</ele>
        <time>2020-11-16T19:55:31Z</time>
      </trkpt>
      <trkpt lat="28.6996920" lon="-17.9247380">
        <ele>1194.2</ele>
        <time>2020-11-16T19:55:32Z</time>
      </trkpt>
      <trkpt lat="28.6996920" lon="-17.9247380">
        <ele>1194.2</ele>
        <time>2020-11-16T19:55:33Z</time>
      </trkpt>
      <trkpt lat="28.6996620" lon="-17.9248000">
        <ele>1193.3</ele>
        <time>2020-11-16T19:55:34Z</time>
      </trkpt>
      <trkpt lat="28.6996530" lon="-17.9248380">
        <ele>1192.9</ele>
        <time>2020-11-16T19:55:35Z</time>
      </trkpt>
      <trkpt lat="28.6996530" lon="-17.9248380">
        <ele>1192.9</ele>
        <time>2020-11-16T19:55:36Z</time>
      </trkpt>
      <trkpt lat="28.6996350" lon="-17.9248980">
        <ele>1192.2</ele>
        <time>2020-11-16T19:55:37Z</time>
      </trkpt>
      <trkpt lat="28.6996350" lon="-17.9248980">
        <ele>1192.2</ele>
        <time>2020-11-16T19:55:38Z</time>
      </trkpt>
      <trkpt lat="28.6996080" lon="-17.9249520">
        <ele>1191.5</ele>
        <time>2020-11-16T19:55:39Z</time>
      </trkpt>
      <trkpt lat="28.6996080" lon="-17.9249520">
        <ele>1191.5</ele>
        <time>2020-11-16T19:55:40Z</time>
      </trkpt>
      <trkpt lat="28.6995830" lon="-17.9250080">
        <ele>1190.8</ele>
        <time>2020-11-16T19:55:41Z</time>
      </trkpt>
      <trkpt lat="28.6995830" lon="-17.9250080">
        <ele>1190.8</ele>
        <time>2020-11-16T19:55:42Z</time>
      </trkpt>
      <trkpt lat="28.6995520" lon="-17.9250650">
        <ele>1190.0</ele>
        <time>2020-11-16T19:55:43Z</time>
      </trkpt>
      <trkpt lat="28.6995350" lon="-17.9250950">
        <ele>1189.6</ele>
        <time>2020-11-16T19:55:44Z</time>
      </trkpt>
      <trkpt lat="28.6995350" lon="-17.9250950">
        <ele>1189.6</ele>
        <time>2020-11-16T19:55:45Z</time>
      </trkpt>
      <trkpt lat="28.6994980" lon="-17.9251520">
        <ele>1188.8</ele>
        <time>2020-11-16T19:55:46Z</time>
      </trkpt>
      <trkpt lat="28.6994980" lon="-17.9251520">
        <ele>1188.8</ele>
        <time>2020-11-16T19:55:47Z</time>
      </trkpt>
      <trkpt lat="28.6994520" lon="-17.9252080">
        <ele>1188.0</ele>
        <time>2020-11-16T19:55:48Z</time>
      </trkpt>
      <trkpt lat="28.6994520" lon="-17.9252080">
        <ele>1188.0</ele>
        <time>2020-11-16T19:55:49Z</time>
      </trkpt>
      <trkpt lat="28.6994080" lon="-17.9252720">
        <ele>1187.1</ele>
        <time>2020-11-16T19:55:50Z</time>
      </trkpt>
      <trkpt lat="28.6994080" lon="-17.9252720">
        <ele>1187.1</ele>
        <time>2020-11-16T19:55:51Z</time>
      </trkpt>
      <trkpt lat="28.6993650" lon="-17.9253280">
        <ele>1186.3</ele>
        <time>2020-11-16T19:55:52Z</time>
      </trkpt>
      <trkpt lat="28.6993430" lon="-17.9253550">
        <ele>1185.9</ele>
        <time>2020-11-16T19:55:53Z</time>
      </trkpt>
      <trkpt lat="28.6993430" lon="-17.9253550">
        <ele>1185.9</ele>
        <time>2020-11-16T19:55:54Z</time>
      </trkpt>
      <trkpt lat="28.6993020" lon="-17.9254100">
        <ele>1185.2</ele>
        <time>2020-11-16T19:55:55Z</time>
      </trkpt>
      <trkpt lat="28.6993020" lon="-17.9254100">
        <ele>1185.2</ele>
        <time>2020-11-16T19:55:56Z</time>
      </trkpt>
      <trkpt lat="28.6992630" lon="-17.9254680">
        <ele>1184.5</ele>
        <time>2020-11-16T19:55:57Z</time>
      </trkpt>
      <trkpt lat="28.6992630" lon="-17.9254680">
        <ele>1184.5</ele>
        <time>2020-11-16T19:55:58Z</time>
      </trkpt>
      <trkpt lat="28.6992270" lon="-17.9255330">
        <ele>1183.8</ele>
        <time>2020-11-16T19:55:59Z</time>
      </trkpt>
      <trkpt lat="28.6992100" lon="-17.9255620">
        <ele>1183.4</ele>
        <time>2020-11-16T19:56:00Z</time>
      </trkpt>
      <trkpt lat="28.6992100" lon="-17.9255620">
        <ele>1183.4</ele>
        <time>2020-11-16T19:56:01Z</time>
      </trkpt>
      <trkpt lat="28.6991770" lon="-17.9256180">
        <ele>1182.8</ele>
        <time>2020-11-16T19:56:02Z</time>
      </trkpt>
      <trkpt lat="28.6991580" lon="-17.9256450">
        <ele>1182.5</ele>
        <time>2020-11-16T19:56:03Z</time>
      </trkpt>
      <trkpt lat="28.6991580" lon="-17.9256450">
        <ele>1182.5</ele>
        <time>2020-11-16T19:56:04Z</time>
      </trkpt>
      <trkpt lat="28.6991230" lon="-17.9256830">
        <ele>1182.0</ele>
        <time>2020-11-16T19:56:05Z</time>
      </trkpt>
      <trkpt lat="28.6991230" lon="-17.9256830">
        <ele>1182.0</ele>
        <time>2020-11-16T19:56:06Z</time>
      </trkpt>
      <trkpt lat="28.6990850" lon="-17.9256950">
        <ele>1181.6</ele>
        <time>2020-11-16T19:56:07Z</time>
      </trkpt>
      <trkpt lat="28.6990680" lon="-17.9256870">
        <ele>1181.4</ele>
        <time>2020-11-16T19:56:08Z</time>
      </trkpt>
      <trkpt lat="28.6990680" lon="-17.9256870">
        <ele>1181.4</ele>
        <time>2020-11-16T19:56:09Z</time>
      </trkpt>
      <trkpt lat="28.6990380" lon="-17.9256520">
        <ele>1180.9</ele>
        <time>2020-11-16T19:56:10Z</time>
      </trkpt>
      <trkpt lat="28.6990220" lon="-17.9256300">
        <ele>1180.5</ele>
        <time>2020-11-16T19:56:11Z</time>
      </trkpt>
      <trkpt lat="28.6990220" lon="-17.9256300">
        <ele>1180.5</ele>
        <time>2020-11-16T19:56:12Z</time>
      </trkpt>
      <trkpt lat="28.6990000" lon="-17.9255920">
        <ele>1180.0</ele>
        <time>2020-11-16T19:56:13Z</time>
      </trkpt>
      <trkpt lat="28.6990000" lon="-17.9255920">
        <ele>1180.0</ele>
        <time>2020-11-16T19:56:14Z</time>
      </trkpt>
      <trkpt lat="28.6989680" lon="-17.9255630">
        <ele>1179.5</ele>
        <time>2020-11-16T19:56:15Z</time>
      </trkpt>
      <trkpt lat="28.6989680" lon="-17.9255630">
        <ele>1179.5</ele>
        <time>2020-11-16T19:56:16Z</time>
      </trkpt>
      <trkpt lat="28.6989180" lon="-17.9255400">
        <ele>1178.7</ele>
        <time>2020-11-16T19:56:17Z</time>
      </trkpt>
      <trkpt lat="28.6988930" lon="-17.9255320">
        <ele>1178.4</ele>
        <time>2020-11-16T19:56:18Z</time>
      </trkpt>
      <trkpt lat="28.6988930" lon="-17.9255320">
        <ele>1178.4</ele>
        <time>2020-11-16T19:56:19Z</time>
      </trkpt>
      <trkpt lat="28.6988420" lon="-17.9255300">
        <ele>1177.7</ele>
        <time>2020-11-16T19:56:20Z</time>
      </trkpt>
      <trkpt lat="28.6988420" lon="-17.9255300">
        <ele>1177.7</ele>
        <time>2020-11-16T19:56:21Z</time>
      </trkpt>
      <trkpt lat="28.6987900" lon="-17.9255320">
        <ele>1177.0</ele>
        <time>2020-11-16T19:56:22Z</time>
      </trkpt>
      <trkpt lat="28.6987900" lon="-17.9255320">
        <ele>1177.0</ele>
        <time>2020-11-16T19:56:23Z</time>
      </trkpt>
      <trkpt lat="28.6987350" lon="-17.9255370">
        <ele>1176.3</ele>
        <time>2020-11-16T19:56:24Z</time>
      </trkpt>
      <trkpt lat="28.6987350" lon="-17.9255370">
        <ele>1176.3</ele>
        <time>2020-11-16T19:56:25Z</time>
      </trkpt>
      <trkpt lat="28.6986850" lon="-17.9255500">
        <ele>1175.6</ele>
        <time>2020-11-16T19:56:26Z</time>
      </trkpt>
      <trkpt lat="28.6986850" lon="-17.9255500">
        <ele>1175.6</ele>
        <time>2020-11-16T19:56:27Z</time>
      </trkpt>
      <trkpt lat="28.6986320" lon="-17.9255700">
        <ele>1174.8</ele>
        <time>2020-11-16T19:56:28Z</time>
      </trkpt>
      <trkpt lat="28.6986050" lon="-17.9255770">
        <ele>1174.4</ele>
        <time>2020-11-16T19:56:29Z</time>
      </trkpt>
      <trkpt lat="28.6985730" lon="-17.9255770">
        <ele>1174.1</ele>
        <time>2020-11-16T19:56:30Z</time>
      </trkpt>
      <trkpt lat="28.6985730" lon="-17.9255770">
        <ele>1174.1</ele>
        <time>2020-11-16T19:56:31Z</time>
      </trkpt>
      <trkpt lat="28.6985050" lon="-17.9255780">
        <ele>1174.1</ele>
        <time>2020-11-16T19:56:32Z</time>
      </trkpt>
      <trkpt lat="28.6985050" lon="-17.9255780">
        <ele>1174.1</ele>
        <time>2020-11-16T19:56:33Z</time>
      </trkpt>
      <trkpt lat="28.6984400" lon="-17.9255570">
        <ele>1174.0</ele>
        <time>2020-11-16T19:56:34Z</time>
      </trkpt>
      <trkpt lat="28.6984400" lon="-17.9255570">
        <ele>1174.0</ele>
        <time>2020-11-16T19:56:35Z</time>
      </trkpt>
      <trkpt lat="28.6983730" lon="-17.9255270">
        <ele>1173.8</ele>
        <time>2020-11-16T19:56:36Z</time>
      </trkpt>
      <trkpt lat="28.6983730" lon="-17.9255270">
        <ele>1173.8</ele>
        <time>2020-11-16T19:56:37Z</time>
      </trkpt>
      <trkpt lat="28.6983220" lon="-17.9254800">
        <ele>1173.5</ele>
        <time>2020-11-16T19:56:38Z</time>
      </trkpt>
      <trkpt lat="28.6983220" lon="-17.9254800">
        <ele>1173.5</ele>
        <time>2020-11-16T19:56:39Z</time>
      </trkpt>
      <trkpt lat="28.6982820" lon="-17.9254230">
        <ele>1173.2</ele>
        <time>2020-11-16T19:56:40Z</time>
      </trkpt>
      <trkpt lat="28.6982820" lon="-17.9254230">
        <ele>1173.2</ele>
        <time>2020-11-16T19:56:41Z</time>
      </trkpt>
      <trkpt lat="28.6982120" lon="-17.9253620">
        <ele>1172.8</ele>
        <time>2020-11-16T19:56:42Z</time>
      </trkpt>
      <trkpt lat="28.6982120" lon="-17.9253620">
        <ele>1172.8</ele>
        <time>2020-11-16T19:56:43Z</time>
      </trkpt>
      <trkpt lat="28.6981230" lon="-17.9253030">
        <ele>1172.4</ele>
        <time>2020-11-16T19:56:44Z</time>
      </trkpt>
      <trkpt lat="28.6981230" lon="-17.9253030">
        <ele>1172.4</ele>
        <time>2020-11-16T19:56:45Z</time>
      </trkpt>
      <trkpt lat="28.6980470" lon="-17.9252700">
        <ele>1172.1</ele>
        <time>2020-11-16T19:56:46Z</time>
      </trkpt>
      <trkpt lat="28.6980470" lon="-17.9252700">
        <ele>1172.1</ele>
        <time>2020-11-16T19:56:47Z</time>
      </trkpt>
      <trkpt lat="28.6979770" lon="-17.9252120">
        <ele>1171.8</ele>
        <time>2020-11-16T19:56:48Z</time>
      </trkpt>
      <trkpt lat="28.6979770" lon="-17.9252120">
        <ele>1171.8</ele>
        <time>2020-11-16T19:56:49Z</time>
      </trkpt>
      <trkpt lat="28.6979320" lon="-17.9251420">
        <ele>1171.6</ele>
        <time>2020-11-16T19:56:50Z</time>
      </trkpt>
      <trkpt lat="28.6979320" lon="-17.9251420">
        <ele>1171.6</ele>
        <time>2020-11-16T19:56:51Z</time>
      </trkpt>
      <trkpt lat="28.6979130" lon="-17.9250680">
        <ele>1171.4</ele>
        <time>2020-11-16T19:56:52Z</time>
      </trkpt>
      <trkpt lat="28.6979130" lon="-17.9250680">
        <ele>1171.4</ele>
        <time>2020-11-16T19:56:53Z</time>
      </trkpt>
      <trkpt lat="28.6979050" lon="-17.9250070">
        <ele>1171.2</ele>
        <time>2020-11-16T19:56:54Z</time>
      </trkpt>
      <trkpt lat="28.6979020" lon="-17.9249800">
        <ele>1171.0</ele>
        <time>2020-11-16T19:56:55Z</time>
      </trkpt>
      <trkpt lat="28.6978950" lon="-17.9249480">
        <ele>1170.9</ele>
        <time>2020-11-16T19:56:56Z</time>
      </trkpt>
      <trkpt lat="28.6978950" lon="-17.9249480">
        <ele>1170.9</ele>
        <time>2020-11-16T19:56:57Z</time>
      </trkpt>
      <trkpt lat="28.6978720" lon="-17.9248770">
        <ele>1170.5</ele>
        <time>2020-11-16T19:56:58Z</time>
      </trkpt>
      <trkpt lat="28.6978570" lon="-17.9248380">
        <ele>1170.2</ele>
        <time>2020-11-16T19:56:59Z</time>
      </trkpt>
      <trkpt lat="28.6978450" lon="-17.9248020">
        <ele>1169.9</ele>
        <time>2020-11-16T19:57:00Z</time>
      </trkpt>
      <trkpt lat="28.6978450" lon="-17.9248020">
        <ele>1169.9</ele>
        <time>2020-11-16T19:57:01Z</time>
      </trkpt>
      <trkpt lat="28.6978230" lon="-17.9247320">
        <ele>1169.4</ele>
        <time>2020-11-16T19:57:02Z</time>
      </trkpt>
      <trkpt lat="28.6978130" lon="-17.9247000">
        <ele>1169.1</ele>
        <time>2020-11-16T19:57:03Z</time>
      </trkpt>
      <trkpt lat="28.6978130" lon="-17.9247000">
        <ele>1169.1</ele>
        <time>2020-11-16T19:57:04Z</time>
      </trkpt>
      <trkpt lat="28.6978120" lon="-17.9246380">
        <ele>1168.6</ele>
        <time>2020-11-16T19:57:05Z</time>
      </trkpt>
      <trkpt lat="28.6978120" lon="-17.9246380">
        <ele>1168.6</ele>
        <time>2020-11-16T19:57:06Z</time>
      </trkpt>
      <trkpt lat="28.6978070" lon="-17.9245780">
        <ele>1168.2</ele>
        <time>2020-11-16T19:57:07Z</time>
      </trkpt>
      <trkpt lat="28.6978050" lon="-17.9245380">
        <ele>1167.9</ele>
        <time>2020-11-16T19:57:08Z</time>
      </trkpt>
      <trkpt lat="28.6978050" lon="-17.9245380">
        <ele>1167.9</ele>
        <time>2020-11-16T19:57:09Z</time>
      </trkpt>
      <trkpt lat="28.6977680" lon="-17.9244770">
        <ele>1167.4</ele>
        <time>2020-11-16T19:57:10Z</time>
      </trkpt>
      <trkpt lat="28.6977680" lon="-17.9244770">
        <ele>1167.4</ele>
        <time>2020-11-16T19:57:11Z</time>
      </trkpt>
      <trkpt lat="28.6977000" lon="-17.9244480">
        <ele>1167.0</ele>
        <time>2020-11-16T19:57:12Z</time>
      </trkpt>
      <trkpt lat="28.6977000" lon="-17.9244480">
        <ele>1167.0</ele>
        <time>2020-11-16T19:57:13Z</time>
      </trkpt>
      <trkpt lat="28.6976220" lon="-17.9244580">
        <ele>1166.7</ele>
        <time>2020-11-16T19:57:14Z</time>
      </trkpt>
      <trkpt lat="28.6976220" lon="-17.9244580">
        <ele>1166.7</ele>
        <time>2020-11-16T19:57:15Z</time>
      </trkpt>
      <trkpt lat="28.6975520" lon="-17.9244950">
        <ele>1166.4</ele>
        <time>2020-11-16T19:57:16Z</time>
      </trkpt>
      <trkpt lat="28.6975520" lon="-17.9244950">
        <ele>1166.4</ele>
        <time>2020-11-16T19:57:17Z</time>
      </trkpt>
      <trkpt lat="28.6974850" lon="-17.9245370">
        <ele>1166.2</ele>
        <time>2020-11-16T19:57:18Z</time>
      </trkpt>
      <trkpt lat="28.6974850" lon="-17.9245370">
        <ele>1166.2</ele>
        <time>2020-11-16T19:57:19Z</time>
      </trkpt>
      <trkpt lat="28.6974200" lon="-17.9245780">
        <ele>1165.9</ele>
        <time>2020-11-16T19:57:20Z</time>
      </trkpt>
      <trkpt lat="28.6974200" lon="-17.9245780">
        <ele>1165.9</ele>
        <time>2020-11-16T19:57:21Z</time>
      </trkpt>
      <trkpt lat="28.6973520" lon="-17.9246030">
        <ele>1165.7</ele>
        <time>2020-11-16T19:57:22Z</time>
      </trkpt>
      <trkpt lat="28.6973520" lon="-17.9246030">
        <ele>1165.7</ele>
        <time>2020-11-16T19:57:23Z</time>
      </trkpt>
      <trkpt lat="28.6972670" lon="-17.9246170">
        <ele>1165.5</ele>
        <time>2020-11-16T19:57:24Z</time>
      </trkpt>
      <trkpt lat="28.6972670" lon="-17.9246170">
        <ele>1165.5</ele>
        <time>2020-11-16T19:57:25Z</time>
      </trkpt>
      <trkpt lat="28.6971730" lon="-17.9246370">
        <ele>1165.4</ele>
        <time>2020-11-16T19:57:26Z</time>
      </trkpt>
      <trkpt lat="28.6971730" lon="-17.9246370">
        <ele>1165.4</ele>
        <time>2020-11-16T19:57:27Z</time>
      </trkpt>
      <trkpt lat="28.6970850" lon="-17.9246480">
        <ele>1165.4</ele>
        <time>2020-11-16T19:57:28Z</time>
      </trkpt>
      <trkpt lat="28.6970850" lon="-17.9246480">
        <ele>1165.4</ele>
        <time>2020-11-16T19:57:29Z</time>
      </trkpt>
      <trkpt lat="28.6970180" lon="-17.9246680">
        <ele>1165.5</ele>
        <time>2020-11-16T19:57:30Z</time>
      </trkpt>
      <trkpt lat="28.6970180" lon="-17.9246680">
        <ele>1165.5</ele>
        <time>2020-11-16T19:57:31Z</time>
      </trkpt>
      <trkpt lat="28.6969630" lon="-17.9246880">
        <ele>1165.6</ele>
        <time>2020-11-16T19:57:32Z</time>
      </trkpt>
      <trkpt lat="28.6969630" lon="-17.9246880">
        <ele>1165.6</ele>
        <time>2020-11-16T19:57:33Z</time>
      </trkpt>
      <trkpt lat="28.6969220" lon="-17.9247130">
        <ele>1165.8</ele>
        <time>2020-11-16T19:57:34Z</time>
      </trkpt>
      <trkpt lat="28.6969020" lon="-17.9247380">
        <ele>1165.8</ele>
        <time>2020-11-16T19:57:35Z</time>
      </trkpt>
      <trkpt lat="28.6968830" lon="-17.9247670">
        <ele>1165.9</ele>
        <time>2020-11-16T19:57:36Z</time>
      </trkpt>
      <trkpt lat="28.6968830" lon="-17.9247670">
        <ele>1165.9</ele>
        <time>2020-11-16T19:57:37Z</time>
      </trkpt>
      <trkpt lat="28.6968470" lon="-17.9248300">
        <ele>1166.1</ele>
        <time>2020-11-16T19:57:38Z</time>
      </trkpt>
      <trkpt lat="28.6968470" lon="-17.9248300">
        <ele>1166.1</ele>
        <time>2020-11-16T19:57:39Z</time>
      </trkpt>
      <trkpt lat="28.6967900" lon="-17.9249050">
        <ele>1166.2</ele>
        <time>2020-11-16T19:57:40Z</time>
      </trkpt>
      <trkpt lat="28.6967900" lon="-17.9249050">
        <ele>1166.2</ele>
        <time>2020-11-16T19:57:41Z</time>
      </trkpt>
      <trkpt lat="28.6967550" lon="-17.9249870">
        <ele>1166.2</ele>
        <time>2020-11-16T19:57:42Z</time>
      </trkpt>
      <trkpt lat="28.6967370" lon="-17.9250250">
        <ele>1166.2</ele>
        <time>2020-11-16T19:57:43Z</time>
      </trkpt>
      <trkpt lat="28.6967370" lon="-17.9250250">
        <ele>1166.2</ele>
        <time>2020-11-16T19:57:44Z</time>
      </trkpt>
      <trkpt lat="28.6967020" lon="-17.9251130">
        <ele>1166.2</ele>
        <time>2020-11-16T19:57:45Z</time>
      </trkpt>
      <trkpt lat="28.6967020" lon="-17.9251130">
        <ele>1166.2</ele>
        <time>2020-11-16T19:57:46Z</time>
      </trkpt>
      <trkpt lat="28.6966720" lon="-17.9251970">
        <ele>1166.2</ele>
        <time>2020-11-16T19:57:47Z</time>
      </trkpt>
      <trkpt lat="28.6966550" lon="-17.9252430">
        <ele>1166.1</ele>
        <time>2020-11-16T19:57:48Z</time>
      </trkpt>
      <trkpt lat="28.6966550" lon="-17.9252430">
        <ele>1166.1</ele>
        <time>2020-11-16T19:57:49Z</time>
      </trkpt>
      <trkpt lat="28.6966220" lon="-17.9253320">
        <ele>1166.0</ele>
        <time>2020-11-16T19:57:50Z</time>
      </trkpt>
      <trkpt lat="28.6966220" lon="-17.9253320">
        <ele>1166.0</ele>
        <time>2020-11-16T19:57:51Z</time>
      </trkpt>
      <trkpt lat="28.6965880" lon="-17.9254250">
        <ele>1165.7</ele>
        <time>2020-11-16T19:57:52Z</time>
      </trkpt>
      <trkpt lat="28.6965880" lon="-17.9254250">
        <ele>1165.7</ele>
        <time>2020-11-16T19:57:53Z</time>
      </trkpt>
      <trkpt lat="28.6965530" lon="-17.9255150">
        <ele>1165.5</ele>
        <time>2020-11-16T19:57:54Z</time>
      </trkpt>
      <trkpt lat="28.6965530" lon="-17.9255150">
        <ele>1165.5</ele>
        <time>2020-11-16T19:57:55Z</time>
      </trkpt>
      <trkpt lat="28.6965270" lon="-17.9255900">
        <ele>1165.1</ele>
        <time>2020-11-16T19:57:56Z</time>
      </trkpt>
      <trkpt lat="28.6965270" lon="-17.9255900">
        <ele>1165.1</ele>
        <time>2020-11-16T19:57:57Z</time>
      </trkpt>
      <trkpt lat="28.6965100" lon="-17.9256720">
        <ele>1164.8</ele>
        <time>2020-11-16T19:57:58Z</time>
      </trkpt>
      <trkpt lat="28.6965000" lon="-17.9257080">
        <ele>1164.8</ele>
        <time>2020-11-16T19:57:59Z</time>
      </trkpt>
      <trkpt lat="28.6965000" lon="-17.9257080">
        <ele>1164.8</ele>
        <time>2020-11-16T19:58:00Z</time>
      </trkpt>
      <trkpt lat="28.6964520" lon="-17.9257400">
        <ele>1164.8</ele>
        <time>2020-11-16T19:58:01Z</time>
      </trkpt>
      <trkpt lat="28.6964220" lon="-17.9257400">
        <ele>1164.7</ele>
        <time>2020-11-16T19:58:02Z</time>
      </trkpt>
      <trkpt lat="28.6964220" lon="-17.9257400">
        <ele>1164.7</ele>
        <time>2020-11-16T19:58:03Z</time>
      </trkpt>
      <trkpt lat="28.6963670" lon="-17.9257370">
        <ele>1164.8</ele>
        <time>2020-11-16T19:58:04Z</time>
      </trkpt>
      <trkpt lat="28.6963670" lon="-17.9257370">
        <ele>1164.8</ele>
        <time>2020-11-16T19:58:05Z</time>
      </trkpt>
      <trkpt lat="28.6963550" lon="-17.9257370">
        <ele>1164.8</ele>
        <time>2020-11-16T19:58:06Z</time>
      </trkpt>
      <trkpt lat="28.6963550" lon="-17.9257370">
        <ele>1164.8</ele>
        <time>2020-11-16T19:58:07Z</time>
      </trkpt>
      <trkpt lat="28.6963570" lon="-17.9257370">
        <ele>1164.8</ele>
        <time>2020-11-16T19:58:08Z</time>
      </trkpt>
      <trkpt lat="28.6964230" lon="-17.9257320">
        <ele>1164.8</ele>
        <time>2020-11-16T19:59:38Z</time>
      </trkpt>
      <trkpt lat="28.6964230" lon="-17.9257320">
        <ele>1164.8</ele>
        <time>2020-11-16T19:59:39Z</time>
      </trkpt>
      <trkpt lat="28.6964350" lon="-17.9257270">
        <ele>1164.8</ele>
        <time>2020-11-16T19:59:40Z</time>
      </trkpt>
      <trkpt lat="28.6964420" lon="-17.9257280">
        <ele>1164.8</ele>
        <time>2020-11-16T19:59:41Z</time>
      </trkpt>
      <trkpt lat="28.6964420" lon="-17.9257280">
        <ele>1164.8</ele>
        <time>2020-11-16T19:59:42Z</time>
      </trkpt>
      <trkpt lat="28.6964550" lon="-17.9257320">
        <ele>1164.8</ele>
        <time>2020-11-16T19:59:43Z</time>
      </trkpt>
      <trkpt lat="28.6964650" lon="-17.9257370">
        <ele>1164.8</ele>
        <time>2020-11-16T19:59:44Z</time>
      </trkpt>
      <trkpt lat="28.6964650" lon="-17.9257370">
        <ele>1164.8</ele>
        <time>2020-11-16T19:59:45Z</time>
      </trkpt>
      <trkpt lat="28.6965000" lon="-17.9257330">
        <ele>1164.8</ele>
        <time>2020-11-16T19:59:46Z</time>
      </trkpt>
      <trkpt lat="28.6965000" lon="-17.9257330">
        <ele>1164.8</ele>
        <time>2020-11-16T19:59:47Z</time>
      </trkpt>
      <trkpt lat="28.6965350" lon="-17.9257230">
        <ele>1164.8</ele>
        <time>2020-11-16T19:59:48Z</time>
      </trkpt>
      <trkpt lat="28.6965550" lon="-17.9257180">
        <ele>1164.8</ele>
        <time>2020-11-16T19:59:49Z</time>
      </trkpt>
      <trkpt lat="28.6965550" lon="-17.9257180">
        <ele>1164.8</ele>
        <time>2020-11-16T19:59:50Z</time>
      </trkpt>
      <trkpt lat="28.6965870" lon="-17.9256970">
        <ele>1164.9</ele>
        <time>2020-11-16T19:59:51Z</time>
      </trkpt>
      <trkpt lat="28.6965870" lon="-17.9256970">
        <ele>1164.9</ele>
        <time>2020-11-16T19:59:52Z</time>
      </trkpt>
      <trkpt lat="28.6966080" lon="-17.9256630">
        <ele>1165.1</ele>
        <time>2020-11-16T19:59:53Z</time>
      </trkpt>
      <trkpt lat="28.6966080" lon="-17.9256630">
        <ele>1165.1</ele>
        <time>2020-11-16T19:59:54Z</time>
      </trkpt>
      <trkpt lat="28.6966200" lon="-17.9256270">
        <ele>1165.2</ele>
        <time>2020-11-16T19:59:55Z</time>
      </trkpt>
      <trkpt lat="28.6966220" lon="-17.9256070">
        <ele>1165.3</ele>
        <time>2020-11-16T19:59:56Z</time>
      </trkpt>
      <trkpt lat="28.6966250" lon="-17.9255880">
        <ele>1165.4</ele>
        <time>2020-11-16T19:59:57Z</time>
      </trkpt>
      <trkpt lat="28.6966250" lon="-17.9255880">
        <ele>1165.4</ele>
        <time>2020-11-16T19:59:58Z</time>
      </trkpt>
      <trkpt lat="28.6966250" lon="-17.9255880">
        <ele>1165.4</ele>
        <time>2020-11-16T19:59:59Z</time>
      </trkpt>
      <trkpt lat="28.6966380" lon="-17.9255250">
        <ele>1165.6</ele>
        <time>2020-11-16T20:00:00Z</time>
      </trkpt>
      <trkpt lat="28.6966380" lon="-17.9255250">
        <ele>1165.6</ele>
        <time>2020-11-16T20:00:01Z</time>
      </trkpt>
      <trkpt lat="28.6966480" lon="-17.9254850">
        <ele>1165.7</ele>
        <time>2020-11-16T20:00:02Z</time>
      </trkpt>
      <trkpt lat="28.6966480" lon="-17.9254850">
        <ele>1165.7</ele>
        <time>2020-11-16T20:00:03Z</time>
      </trkpt>
      <trkpt lat="28.6966570" lon="-17.9254450">
        <ele>1165.8</ele>
        <time>2020-11-16T20:00:04Z</time>
      </trkpt>
      <trkpt lat="28.6966630" lon="-17.9254250">
        <ele>1165.8</ele>
        <time>2020-11-16T20:00:05Z</time>
      </trkpt>
      <trkpt lat="28.6966630" lon="-17.9254250">
        <ele>1165.8</ele>
        <time>2020-11-16T20:00:06Z</time>
      </trkpt>
      <trkpt lat="28.6966820" lon="-17.9253830">
        <ele>1166.0</ele>
        <time>2020-11-16T20:00:07Z</time>
      </trkpt>
      <trkpt lat="28.6966900" lon="-17.9253630">
        <ele>1166.0</ele>
        <time>2020-11-16T20:00:08Z</time>
      </trkpt>
      <trkpt lat="28.6966900" lon="-17.9253630">
        <ele>1166.0</ele>
        <time>2020-11-16T20:00:09Z</time>
      </trkpt>
      <trkpt lat="28.6967120" lon="-17.9253200">
        <ele>1166.1</ele>
        <time>2020-11-16T20:00:10Z</time>
      </trkpt>
      <trkpt lat="28.6967120" lon="-17.9253200">
        <ele>1166.1</ele>
        <time>2020-11-16T20:00:11Z</time>
      </trkpt>
      <trkpt lat="28.6967320" lon="-17.9252770">
        <ele>1166.1</ele>
        <time>2020-11-16T20:00:12Z</time>
      </trkpt>
      <trkpt lat="28.6967320" lon="-17.9252770">
        <ele>1166.1</ele>
        <time>2020-11-16T20:00:13Z</time>
      </trkpt>
      <trkpt lat="28.6967520" lon="-17.9252320">
        <ele>1166.2</ele>
        <time>2020-11-16T20:00:14Z</time>
      </trkpt>
      <trkpt lat="28.6967620" lon="-17.9252080">
        <ele>1166.2</ele>
        <time>2020-11-16T20:00:15Z</time>
      </trkpt>
      <trkpt lat="28.6967620" lon="-17.9252080">
        <ele>1166.2</ele>
        <time>2020-11-16T20:00:16Z</time>
      </trkpt>
      <trkpt lat="28.6967780" lon="-17.9251620">
        <ele>1166.2</ele>
        <time>2020-11-16T20:00:17Z</time>
      </trkpt>
      <trkpt lat="28.6967880" lon="-17.9251400">
        <ele>1166.2</ele>
        <time>2020-11-16T20:00:18Z</time>
      </trkpt>
      <trkpt lat="28.6967880" lon="-17.9251400">
        <ele>1166.2</ele>
        <time>2020-11-16T20:00:19Z</time>
      </trkpt>
      <trkpt lat="28.6968080" lon="-17.9250920">
        <ele>1166.2</ele>
        <time>2020-11-16T20:00:20Z</time>
      </trkpt>
      <trkpt lat="28.6968200" lon="-17.9250630">
        <ele>1166.2</ele>
        <time>2020-11-16T20:00:21Z</time>
      </trkpt>
      <trkpt lat="28.6968200" lon="-17.9250630">
        <ele>1166.2</ele>
        <time>2020-11-16T20:00:22Z</time>
      </trkpt>
      <trkpt lat="28.6968450" lon="-17.9250070">
        <ele>1166.2</ele>
        <time>2020-11-16T20:00:23Z</time>
      </trkpt>
      <trkpt lat="28.6968450" lon="-17.9250070">
        <ele>1166.2</ele>
        <time>2020-11-16T20:00:24Z</time>
      </trkpt>
      <trkpt lat="28.6968700" lon="-17.9249500">
        <ele>1166.2</ele>
        <time>2020-11-16T20:00:25Z</time>
      </trkpt>
      <trkpt lat="28.6968700" lon="-17.9249500">
        <ele>1166.2</ele>
        <time>2020-11-16T20:00:26Z</time>
      </trkpt>
      <trkpt lat="28.6969000" lon="-17.9248880">
        <ele>1166.1</ele>
        <time>2020-11-16T20:00:27Z</time>
      </trkpt>
      <trkpt lat="28.6969000" lon="-17.9248880">
        <ele>1166.1</ele>
        <time>2020-11-16T20:00:28Z</time>
      </trkpt>
      <trkpt lat="28.6969330" lon="-17.9248270">
        <ele>1166.0</ele>
        <time>2020-11-16T20:00:29Z</time>
      </trkpt>
      <trkpt lat="28.6969330" lon="-17.9248270">
        <ele>1166.0</ele>
        <time>2020-11-16T20:00:30Z</time>
      </trkpt>
      <trkpt lat="28.6969650" lon="-17.9247680">
        <ele>1165.9</ele>
        <time>2020-11-16T20:00:31Z</time>
      </trkpt>
      <trkpt lat="28.6969650" lon="-17.9247680">
        <ele>1165.9</ele>
        <time>2020-11-16T20:00:32Z</time>
      </trkpt>
      <trkpt lat="28.6970050" lon="-17.9247120">
        <ele>1165.7</ele>
        <time>2020-11-16T20:00:33Z</time>
      </trkpt>
      <trkpt lat="28.6970330" lon="-17.9246850">
        <ele>1165.6</ele>
        <time>2020-11-16T20:00:34Z</time>
      </trkpt>
      <trkpt lat="28.6970330" lon="-17.9246850">
        <ele>1165.6</ele>
        <time>2020-11-16T20:00:35Z</time>
      </trkpt>
      <trkpt lat="28.6971130" lon="-17.9246430">
        <ele>1165.4</ele>
        <time>2020-11-16T20:00:36Z</time>
      </trkpt>
      <trkpt lat="28.6971520" lon="-17.9246280">
        <ele>1165.4</ele>
        <time>2020-11-16T20:00:37Z</time>
      </trkpt>
      <trkpt lat="28.6971520" lon="-17.9246280">
        <ele>1165.4</ele>
        <time>2020-11-16T20:00:38Z</time>
      </trkpt>
      <trkpt lat="28.6972320" lon="-17.9246020">
        <ele>1165.4</ele>
        <time>2020-11-16T20:00:39Z</time>
      </trkpt>
      <trkpt lat="28.6972680" lon="-17.9245920">
        <ele>1165.4</ele>
        <time>2020-11-16T20:00:40Z</time>
      </trkpt>
      <trkpt lat="28.6973030" lon="-17.9245820">
        <ele>1165.4</ele>
        <time>2020-11-16T20:00:41Z</time>
      </trkpt>
      <trkpt lat="28.6973030" lon="-17.9245820">
        <ele>1165.4</ele>
        <time>2020-11-16T20:00:42Z</time>
      </trkpt>
      <trkpt lat="28.6973670" lon="-17.9245730">
        <ele>1165.6</ele>
        <time>2020-11-16T20:00:43Z</time>
      </trkpt>
      <trkpt lat="28.6973670" lon="-17.9245730">
        <ele>1165.6</ele>
        <time>2020-11-16T20:00:44Z</time>
      </trkpt>
      <trkpt lat="28.6974150" lon="-17.9245720">
        <ele>1165.7</ele>
        <time>2020-11-16T20:00:45Z</time>
      </trkpt>
      <trkpt lat="28.6974150" lon="-17.9245720">
        <ele>1165.7</ele>
        <time>2020-11-16T20:00:46Z</time>
      </trkpt>
      <trkpt lat="28.6974530" lon="-17.9245670">
        <ele>1165.8</ele>
        <time>2020-11-16T20:00:47Z</time>
      </trkpt>
      <trkpt lat="28.6974530" lon="-17.9245670">
        <ele>1165.8</ele>
        <time>2020-11-16T20:00:48Z</time>
      </trkpt>
      <trkpt lat="28.6974950" lon="-17.9245500">
        <ele>1165.9</ele>
        <time>2020-11-16T20:00:49Z</time>
      </trkpt>
      <trkpt lat="28.6975130" lon="-17.9245380">
        <ele>1166.0</ele>
        <time>2020-11-16T20:00:50Z</time>
      </trkpt>
      <trkpt lat="28.6975330" lon="-17.9245200">
        <ele>1166.1</ele>
        <time>2020-11-16T20:00:51Z</time>
      </trkpt>
      <trkpt lat="28.6975330" lon="-17.9245200">
        <ele>1166.1</ele>
        <time>2020-11-16T20:00:52Z</time>
      </trkpt>
      <trkpt lat="28.6975770" lon="-17.9244920">
        <ele>1166.3</ele>
        <time>2020-11-16T20:00:53Z</time>
      </trkpt>
      <trkpt lat="28.6975770" lon="-17.9244920">
        <ele>1166.3</ele>
        <time>2020-11-16T20:00:54Z</time>
      </trkpt>
      <trkpt lat="28.6976200" lon="-17.9244580">
        <ele>1166.4</ele>
        <time>2020-11-16T20:00:55Z</time>
      </trkpt>
      <trkpt lat="28.6976200" lon="-17.9244580">
        <ele>1166.4</ele>
        <time>2020-11-16T20:00:56Z</time>
      </trkpt>
      <trkpt lat="28.6976630" lon="-17.9244280">
        <ele>1166.6</ele>
        <time>2020-11-16T20:00:57Z</time>
      </trkpt>
      <trkpt lat="28.6976630" lon="-17.9244280">
        <ele>1166.6</ele>
        <time>2020-11-16T20:00:58Z</time>
      </trkpt>
      <trkpt lat="28.6977120" lon="-17.9244030">
        <ele>1166.7</ele>
        <time>2020-11-16T20:00:59Z</time>
      </trkpt>
      <trkpt lat="28.6977120" lon="-17.9244030">
        <ele>1166.7</ele>
        <time>2020-11-16T20:01:00Z</time>
      </trkpt>
      <trkpt lat="28.6977580" lon="-17.9243980">
        <ele>1166.9</ele>
        <time>2020-11-16T20:01:01Z</time>
      </trkpt>
      <trkpt lat="28.6977580" lon="-17.9243980">
        <ele>1166.9</ele>
        <time>2020-11-16T20:01:02Z</time>
      </trkpt>
      <trkpt lat="28.6977580" lon="-17.9243980">
        <ele>1166.9</ele>
        <time>2020-11-16T20:01:03Z</time>
      </trkpt>
      <trkpt lat="28.6978070" lon="-17.9244130">
        <ele>1167.2</ele>
        <time>2020-11-16T20:01:04Z</time>
      </trkpt>
      <trkpt lat="28.6978450" lon="-17.9244450">
        <ele>1167.4</ele>
        <time>2020-11-16T20:01:05Z</time>
      </trkpt>
      <trkpt lat="28.6978580" lon="-17.9244680">
        <ele>1167.6</ele>
        <time>2020-11-16T20:01:06Z</time>
      </trkpt>
      <trkpt lat="28.6978580" lon="-17.9244680">
        <ele>1167.6</ele>
        <time>2020-11-16T20:01:07Z</time>
      </trkpt>
      <trkpt lat="28.6978670" lon="-17.9245030">
        <ele>1167.8</ele>
        <time>2020-11-16T20:01:08Z</time>
      </trkpt>
      <trkpt lat="28.6978670" lon="-17.9245030">
        <ele>1167.8</ele>
        <time>2020-11-16T20:01:09Z</time>
      </trkpt>
      <trkpt lat="28.6978520" lon="-17.9245420">
        <ele>1168.1</ele>
        <time>2020-11-16T20:01:10Z</time>
      </trkpt>
      <trkpt lat="28.6978450" lon="-17.9245600">
        <ele>1168.2</ele>
        <time>2020-11-16T20:01:11Z</time>
      </trkpt>
      <trkpt lat="28.6978450" lon="-17.9245600">
        <ele>1168.2</ele>
        <time>2020-11-16T20:01:12Z</time>
      </trkpt>
      <trkpt lat="28.6978370" lon="-17.9245920">
        <ele>1168.5</ele>
        <time>2020-11-16T20:01:13Z</time>
      </trkpt>
      <trkpt lat="28.6978370" lon="-17.9246120">
        <ele>1168.6</ele>
        <time>2020-11-16T20:01:14Z</time>
      </trkpt>
      <trkpt lat="28.6978320" lon="-17.9246350">
        <ele>1168.8</ele>
        <time>2020-11-16T20:01:15Z</time>
      </trkpt>
      <trkpt lat="28.6978320" lon="-17.9246350">
        <ele>1168.8</ele>
        <time>2020-11-16T20:01:16Z</time>
      </trkpt>
      <trkpt lat="28.6978320" lon="-17.9246780">
        <ele>1169.2</ele>
        <time>2020-11-16T20:01:17Z</time>
      </trkpt>
      <trkpt lat="28.6978320" lon="-17.9246780">
        <ele>1169.2</ele>
        <time>2020-11-16T20:01:18Z</time>
      </trkpt>
      <trkpt lat="28.6978430" lon="-17.9247400">
        <ele>1169.6</ele>
        <time>2020-11-16T20:01:19Z</time>
      </trkpt>
      <trkpt lat="28.6978530" lon="-17.9247650">
        <ele>1169.8</ele>
        <time>2020-11-16T20:01:20Z</time>
      </trkpt>
      <trkpt lat="28.6978530" lon="-17.9247650">
        <ele>1169.8</ele>
        <time>2020-11-16T20:01:21Z</time>
      </trkpt>
      <trkpt lat="28.6978650" lon="-17.9248130">
        <ele>1170.1</ele>
        <time>2020-11-16T20:01:22Z</time>
      </trkpt>
      <trkpt lat="28.6978650" lon="-17.9248130">
        <ele>1170.1</ele>
        <time>2020-11-16T20:01:23Z</time>
      </trkpt>
      <trkpt lat="28.6978650" lon="-17.9248130">
        <ele>1170.1</ele>
        <time>2020-11-16T20:01:24Z</time>
      </trkpt>
      <trkpt lat="28.6978750" lon="-17.9248550">
        <ele>1170.4</ele>
        <time>2020-11-16T20:01:25Z</time>
      </trkpt>
      <trkpt lat="28.6978870" lon="-17.9248930">
        <ele>1170.7</ele>
        <time>2020-11-16T20:01:26Z</time>
      </trkpt>
      <trkpt lat="28.6978900" lon="-17.9249150">
        <ele>1170.8</ele>
        <time>2020-11-16T20:01:27Z</time>
      </trkpt>
      <trkpt lat="28.6978900" lon="-17.9249150">
        <ele>1170.8</ele>
        <time>2020-11-16T20:01:28Z</time>
      </trkpt>
      <trkpt lat="28.6978950" lon="-17.9249520">
        <ele>1171.0</ele>
        <time>2020-11-16T20:01:29Z</time>
      </trkpt>
      <trkpt lat="28.6978950" lon="-17.9249520">
        <ele>1171.0</ele>
        <time>2020-11-16T20:01:30Z</time>
      </trkpt>
      <trkpt lat="28.6979070" lon="-17.9249920">
        <ele>1171.1</ele>
        <time>2020-11-16T20:01:31Z</time>
      </trkpt>
      <trkpt lat="28.6979070" lon="-17.9249920">
        <ele>1171.1</ele>
        <time>2020-11-16T20:01:32Z</time>
      </trkpt>
      <trkpt lat="28.6979180" lon="-17.9250350">
        <ele>1171.3</ele>
        <time>2020-11-16T20:01:33Z</time>
      </trkpt>
      <trkpt lat="28.6979180" lon="-17.9250350">
        <ele>1171.3</ele>
        <time>2020-11-16T20:01:34Z</time>
      </trkpt>
      <trkpt lat="28.6979300" lon="-17.9250780">
        <ele>1171.5</ele>
        <time>2020-11-16T20:01:35Z</time>
      </trkpt>
      <trkpt lat="28.6979400" lon="-17.9251000">
        <ele>1171.5</ele>
        <time>2020-11-16T20:01:36Z</time>
      </trkpt>
      <trkpt lat="28.6979400" lon="-17.9251000">
        <ele>1171.5</ele>
        <time>2020-11-16T20:01:37Z</time>
      </trkpt>
      <trkpt lat="28.6979720" lon="-17.9251400">
        <ele>1171.7</ele>
        <time>2020-11-16T20:01:38Z</time>
      </trkpt>
      <trkpt lat="28.6979720" lon="-17.9251400">
        <ele>1171.7</ele>
        <time>2020-11-16T20:01:39Z</time>
      </trkpt>
      <trkpt lat="28.6980070" lon="-17.9251780">
        <ele>1171.8</ele>
        <time>2020-11-16T20:01:40Z</time>
      </trkpt>
      <trkpt lat="28.6980230" lon="-17.9251930">
        <ele>1171.8</ele>
        <time>2020-11-16T20:01:41Z</time>
      </trkpt>
      <trkpt lat="28.6980230" lon="-17.9251930">
        <ele>1171.8</ele>
        <time>2020-11-16T20:01:42Z</time>
      </trkpt>
      <trkpt lat="28.6980500" lon="-17.9252130">
        <ele>1171.9</ele>
        <time>2020-11-16T20:01:43Z</time>
      </trkpt>
      <trkpt lat="28.6980500" lon="-17.9252130">
        <ele>1171.9</ele>
        <time>2020-11-16T20:01:44Z</time>
      </trkpt>
      <trkpt lat="28.6980830" lon="-17.9252430">
        <ele>1172.0</ele>
        <time>2020-11-16T20:01:45Z</time>
      </trkpt>
      <trkpt lat="28.6980830" lon="-17.9252430">
        <ele>1172.0</ele>
        <time>2020-11-16T20:01:46Z</time>
      </trkpt>
      <trkpt lat="28.6981200" lon="-17.9252700">
        <ele>1172.2</ele>
        <time>2020-11-16T20:01:47Z</time>
      </trkpt>
      <trkpt lat="28.6981400" lon="-17.9252820">
        <ele>1172.2</ele>
        <time>2020-11-16T20:01:48Z</time>
      </trkpt>
      <trkpt lat="28.6981400" lon="-17.9252820">
        <ele>1172.2</ele>
        <time>2020-11-16T20:01:49Z</time>
      </trkpt>
      <trkpt lat="28.6981750" lon="-17.9253230">
        <ele>1172.4</ele>
        <time>2020-11-16T20:01:50Z</time>
      </trkpt>
      <trkpt lat="28.6981750" lon="-17.9253230">
        <ele>1172.4</ele>
        <time>2020-11-16T20:01:51Z</time>
      </trkpt>
      <trkpt lat="28.6981980" lon="-17.9253600">
        <ele>1172.6</ele>
        <time>2020-11-16T20:01:52Z</time>
      </trkpt>
      <trkpt lat="28.6981980" lon="-17.9253600">
        <ele>1172.6</ele>
        <time>2020-11-16T20:01:53Z</time>
      </trkpt>
      <trkpt lat="28.6982280" lon="-17.9253950">
        <ele>1172.8</ele>
        <time>2020-11-16T20:01:54Z</time>
      </trkpt>
      <trkpt lat="28.6982280" lon="-17.9253950">
        <ele>1172.8</ele>
        <time>2020-11-16T20:01:55Z</time>
      </trkpt>
      <trkpt lat="28.6982580" lon="-17.9254200">
        <ele>1173.0</ele>
        <time>2020-11-16T20:01:56Z</time>
      </trkpt>
      <trkpt lat="28.6982580" lon="-17.9254200">
        <ele>1173.0</ele>
        <time>2020-11-16T20:01:57Z</time>
      </trkpt>
      <trkpt lat="28.6982580" lon="-17.9254200">
        <ele>1173.0</ele>
        <time>2020-11-16T20:01:58Z</time>
      </trkpt>
      <trkpt lat="28.6982900" lon="-17.9254500">
        <ele>1173.2</ele>
        <time>2020-11-16T20:01:59Z</time>
      </trkpt>
      <trkpt lat="28.6983170" lon="-17.9254950">
        <ele>1173.4</ele>
        <time>2020-11-16T20:02:00Z</time>
      </trkpt>
      <trkpt lat="28.6983170" lon="-17.9254950">
        <ele>1173.4</ele>
        <time>2020-11-16T20:02:01Z</time>
      </trkpt>
      <trkpt lat="28.6983430" lon="-17.9255370">
        <ele>1173.6</ele>
        <time>2020-11-16T20:02:02Z</time>
      </trkpt>
      <trkpt lat="28.6983430" lon="-17.9255370">
        <ele>1173.6</ele>
        <time>2020-11-16T20:02:03Z</time>
      </trkpt>
      <trkpt lat="28.6983780" lon="-17.9255620">
        <ele>1173.7</ele>
        <time>2020-11-16T20:02:04Z</time>
      </trkpt>
      <trkpt lat="28.6983950" lon="-17.9255730">
        <ele>1173.8</ele>
        <time>2020-11-16T20:02:05Z</time>
      </trkpt>
      <trkpt lat="28.6983950" lon="-17.9255730">
        <ele>1173.8</ele>
        <time>2020-11-16T20:02:06Z</time>
      </trkpt>
      <trkpt lat="28.6984320" lon="-17.9255980">
        <ele>1173.9</ele>
        <time>2020-11-16T20:02:07Z</time>
      </trkpt>
      <trkpt lat="28.6984320" lon="-17.9255980">
        <ele>1173.9</ele>
        <time>2020-11-16T20:02:08Z</time>
      </trkpt>
      <trkpt lat="28.6984720" lon="-17.9256020">
        <ele>1174.0</ele>
        <time>2020-11-16T20:02:09Z</time>
      </trkpt>
      <trkpt lat="28.6984720" lon="-17.9256020">
        <ele>1174.0</ele>
        <time>2020-11-16T20:02:10Z</time>
      </trkpt>
      <trkpt lat="28.6985030" lon="-17.9256320">
        <ele>1174.1</ele>
        <time>2020-11-16T20:02:11Z</time>
      </trkpt>
      <trkpt lat="28.6985030" lon="-17.9256320">
        <ele>1174.1</ele>
        <time>2020-11-16T20:02:12Z</time>
      </trkpt>
      <trkpt lat="28.6985200" lon="-17.9256520">
        <ele>1174.1</ele>
        <time>2020-11-16T20:02:13Z</time>
      </trkpt>
      <trkpt lat="28.6985200" lon="-17.9256520">
        <ele>1174.1</ele>
        <time>2020-11-16T20:02:14Z</time>
      </trkpt>
      <trkpt lat="28.6985220" lon="-17.9256620">
        <ele>1173.2</ele>
        <time>2020-11-16T20:02:15Z</time>
      </trkpt>
      <trkpt lat="28.6985220" lon="-17.9256620">
        <ele>1173.2</ele>
        <time>2020-11-16T20:02:16Z</time>
      </trkpt>
      <trkpt lat="28.6985220" lon="-17.9256620">
        <ele>1173.2</ele>
        <time>2020-11-16T20:02:23Z</time>
      </trkpt>
      <trkpt lat="28.6984230" lon="-17.9257050">
        <ele>1171.7</ele>
        <time>2020-11-16T20:02:24Z</time>
      </trkpt>
      <trkpt lat="28.6984230" lon="-17.9257050">
        <ele>1171.7</ele>
        <time>2020-11-16T20:02:25Z</time>
      </trkpt>
      <trkpt lat="28.6983700" lon="-17.9256870">
        <ele>1170.8</ele>
        <time>2020-11-16T20:02:26Z</time>
      </trkpt>
      <trkpt lat="28.6983700" lon="-17.9256870">
        <ele>1170.8</ele>
        <time>2020-11-16T20:02:27Z</time>
      </trkpt>
      <trkpt lat="28.6983700" lon="-17.9256870">
        <ele>1170.8</ele>
        <time>2020-11-16T20:02:28Z</time>
      </trkpt>
      <trkpt lat="28.6983370" lon="-17.9256680">
        <ele>1170.1</ele>
        <time>2020-11-16T20:02:29Z</time>
      </trkpt>
      <trkpt lat="28.6983220" lon="-17.9256550">
        <ele>1169.8</ele>
        <time>2020-11-16T20:02:30Z</time>
      </trkpt>
      <trkpt lat="28.6982800" lon="-17.9256100">
        <ele>1168.8</ele>
        <time>2020-11-16T20:02:31Z</time>
      </trkpt>
      <trkpt lat="28.6982800" lon="-17.9256100">
        <ele>1168.8</ele>
        <time>2020-11-16T20:02:32Z</time>
      </trkpt>
      <trkpt lat="28.6982300" lon="-17.9255630">
        <ele>1167.7</ele>
        <time>2020-11-16T20:02:33Z</time>
      </trkpt>
      <trkpt lat="28.6982300" lon="-17.9255630">
        <ele>1167.7</ele>
        <time>2020-11-16T20:02:34Z</time>
      </trkpt>
      <trkpt lat="28.6981800" lon="-17.9255220">
        <ele>1166.5</ele>
        <time>2020-11-16T20:02:35Z</time>
      </trkpt>
      <trkpt lat="28.6981800" lon="-17.9255220">
        <ele>1166.5</ele>
        <time>2020-11-16T20:02:36Z</time>
      </trkpt>
      <trkpt lat="28.6981300" lon="-17.9254850">
        <ele>1165.3</ele>
        <time>2020-11-16T20:02:37Z</time>
      </trkpt>
      <trkpt lat="28.6981300" lon="-17.9254850">
        <ele>1165.3</ele>
        <time>2020-11-16T20:02:38Z</time>
      </trkpt>
      <trkpt lat="28.6980850" lon="-17.9254550">
        <ele>1164.2</ele>
        <time>2020-11-16T20:02:39Z</time>
      </trkpt>
      <trkpt lat="28.6980550" lon="-17.9254430">
        <ele>1163.4</ele>
        <time>2020-11-16T20:02:40Z</time>
      </trkpt>
      <trkpt lat="28.6980550" lon="-17.9254430">
        <ele>1163.4</ele>
        <time>2020-11-16T20:02:41Z</time>
      </trkpt>
      <trkpt lat="28.6980020" lon="-17.9254030">
        <ele>1161.9</ele>
        <time>2020-11-16T20:02:42Z</time>
      </trkpt>
      <trkpt lat="28.6980020" lon="-17.9254030">
        <ele>1161.9</ele>
        <time>2020-11-16T20:02:43Z</time>
      </trkpt>
      <trkpt lat="28.6980070" lon="-17.9254220">
        <ele>1161.5</ele>
        <time>2020-11-16T20:02:44Z</time>
      </trkpt>
      <trkpt lat="28.6980200" lon="-17.9254530">
        <ele>1160.8</ele>
        <time>2020-11-16T20:02:45Z</time>
      </trkpt>
      <trkpt lat="28.6980200" lon="-17.9254530">
        <ele>1160.8</ele>
        <time>2020-11-16T20:02:46Z</time>
      </trkpt>
      <trkpt lat="28.6980530" lon="-17.9255120">
        <ele>1159.5</ele>
        <time>2020-11-16T20:02:47Z</time>
      </trkpt>
      <trkpt lat="28.6980610" lon="-17.9255390">
        <ele>1158.9</ele>
        <time>2020-11-16T20:02:48Z</time>
      </trkpt>
      <trkpt lat="28.6980680" lon="-17.9255660">
        <ele>1158.4</ele>
        <time>2020-11-16T20:02:49Z</time>
      </trkpt>
      <trkpt lat="28.6980760" lon="-17.9255930">
        <ele>1157.9</ele>
        <time>2020-11-16T20:02:50Z</time>
      </trkpt>
      <trkpt lat="28.6980830" lon="-17.9256200">
        <ele>1157.4</ele>
        <time>2020-11-16T20:02:51Z</time>
      </trkpt>
      <trkpt lat="28.6980850" lon="-17.9257000">
        <ele>1156.0</ele>
        <time>2020-11-16T20:02:52Z</time>
      </trkpt>
      <trkpt lat="28.6980850" lon="-17.9257000">
        <ele>1156.0</ele>
        <time>2020-11-16T20:02:53Z</time>
      </trkpt>
      <trkpt lat="28.6980720" lon="-17.9257680">
        <ele>1154.8</ele>
        <time>2020-11-16T20:02:54Z</time>
      </trkpt>
      <trkpt lat="28.6980720" lon="-17.9257680">
        <ele>1154.8</ele>
        <time>2020-11-16T20:02:55Z</time>
      </trkpt>
      <trkpt lat="28.6980630" lon="-17.9258250">
        <ele>1153.7</ele>
        <time>2020-11-16T20:02:56Z</time>
      </trkpt>
      <trkpt lat="28.6980630" lon="-17.9258250">
        <ele>1153.7</ele>
        <time>2020-11-16T20:02:57Z</time>
      </trkpt>
      <trkpt lat="28.6980520" lon="-17.9258900">
        <ele>1152.5</ele>
        <time>2020-11-16T20:02:58Z</time>
      </trkpt>
      <trkpt lat="28.6980520" lon="-17.9258900">
        <ele>1152.5</ele>
        <time>2020-11-16T20:02:59Z</time>
      </trkpt>
      <trkpt lat="28.6980450" lon="-17.9259730">
        <ele>1151.0</ele>
        <time>2020-11-16T20:03:00Z</time>
      </trkpt>
      <trkpt lat="28.6980450" lon="-17.9259730">
        <ele>1151.0</ele>
        <time>2020-11-16T20:03:01Z</time>
      </trkpt>
      <trkpt lat="28.6980350" lon="-17.9260650">
        <ele>1149.3</ele>
        <time>2020-11-16T20:03:02Z</time>
      </trkpt>
      <trkpt lat="28.6980350" lon="-17.9260650">
        <ele>1149.3</ele>
        <time>2020-11-16T20:03:03Z</time>
      </trkpt>
      <trkpt lat="28.6980180" lon="-17.9261500">
        <ele>1147.8</ele>
        <time>2020-11-16T20:03:04Z</time>
      </trkpt>
      <trkpt lat="28.6980180" lon="-17.9261500">
        <ele>1147.8</ele>
        <time>2020-11-16T20:03:05Z</time>
      </trkpt>
      <trkpt lat="28.6980020" lon="-17.9262250">
        <ele>1146.4</ele>
        <time>2020-11-16T20:03:06Z</time>
      </trkpt>
      <trkpt lat="28.6980020" lon="-17.9262250">
        <ele>1146.4</ele>
        <time>2020-11-16T20:03:07Z</time>
      </trkpt>
      <trkpt lat="28.6979830" lon="-17.9262970">
        <ele>1145.1</ele>
        <time>2020-11-16T20:03:08Z</time>
      </trkpt>
      <trkpt lat="28.6979830" lon="-17.9262970">
        <ele>1145.1</ele>
        <time>2020-11-16T20:03:09Z</time>
      </trkpt>
      <trkpt lat="28.6979650" lon="-17.9263700">
        <ele>1143.9</ele>
        <time>2020-11-16T20:03:10Z</time>
      </trkpt>
      <trkpt lat="28.6979650" lon="-17.9263700">
        <ele>1143.9</ele>
        <time>2020-11-16T20:03:11Z</time>
      </trkpt>
      <trkpt lat="28.6979450" lon="-17.9264500">
        <ele>1142.4</ele>
        <time>2020-11-16T20:03:12Z</time>
      </trkpt>
      <trkpt lat="28.6979450" lon="-17.9264500">
        <ele>1142.4</ele>
        <time>2020-11-16T20:03:13Z</time>
      </trkpt>
      <trkpt lat="28.6979230" lon="-17.9265220">
        <ele>1141.0</ele>
        <time>2020-11-16T20:03:14Z</time>
      </trkpt>
      <trkpt lat="28.6979230" lon="-17.9265220">
        <ele>1141.0</ele>
        <time>2020-11-16T20:03:15Z</time>
      </trkpt>
      <trkpt lat="28.6979100" lon="-17.9266020">
        <ele>1139.4</ele>
        <time>2020-11-16T20:03:16Z</time>
      </trkpt>
      <trkpt lat="28.6979100" lon="-17.9266020">
        <ele>1139.4</ele>
        <time>2020-11-16T20:03:17Z</time>
      </trkpt>
      <trkpt lat="28.6978880" lon="-17.9266780">
        <ele>1137.7</ele>
        <time>2020-11-16T20:03:18Z</time>
      </trkpt>
      <trkpt lat="28.6978880" lon="-17.9266780">
        <ele>1137.7</ele>
        <time>2020-11-16T20:03:19Z</time>
      </trkpt>
      <trkpt lat="28.6978670" lon="-17.9267430">
        <ele>1136.2</ele>
        <time>2020-11-16T20:03:20Z</time>
      </trkpt>
      <trkpt lat="28.6978670" lon="-17.9267430">
        <ele>1136.2</ele>
        <time>2020-11-16T20:03:21Z</time>
      </trkpt>
      <trkpt lat="28.6978420" lon="-17.9268070">
        <ele>1134.5</ele>
        <time>2020-11-16T20:03:22Z</time>
      </trkpt>
      <trkpt lat="28.6978420" lon="-17.9268070">
        <ele>1134.5</ele>
        <time>2020-11-16T20:03:23Z</time>
      </trkpt>
      <trkpt lat="28.6978180" lon="-17.9268770">
        <ele>1132.7</ele>
        <time>2020-11-16T20:03:24Z</time>
      </trkpt>
      <trkpt lat="28.6978070" lon="-17.9269080">
        <ele>1131.9</ele>
        <time>2020-11-16T20:03:25Z</time>
      </trkpt>
      <trkpt lat="28.6978070" lon="-17.9269080">
        <ele>1131.9</ele>
        <time>2020-11-16T20:03:26Z</time>
      </trkpt>
      <trkpt lat="28.6977830" lon="-17.9269730">
        <ele>1130.1</ele>
        <time>2020-11-16T20:03:27Z</time>
      </trkpt>
      <trkpt lat="28.6977830" lon="-17.9269730">
        <ele>1130.1</ele>
        <time>2020-11-16T20:03:28Z</time>
      </trkpt>
      <trkpt lat="28.6977680" lon="-17.9270420">
        <ele>1128.5</ele>
        <time>2020-11-16T20:03:29Z</time>
      </trkpt>
      <trkpt lat="28.6977680" lon="-17.9270420">
        <ele>1128.5</ele>
        <time>2020-11-16T20:03:30Z</time>
      </trkpt>
      <trkpt lat="28.6977500" lon="-17.9271100">
        <ele>1126.9</ele>
        <time>2020-11-16T20:03:31Z</time>
      </trkpt>
      <trkpt lat="28.6977500" lon="-17.9271100">
        <ele>1126.9</ele>
        <time>2020-11-16T20:03:32Z</time>
      </trkpt>
      <trkpt lat="28.6977370" lon="-17.9271770">
        <ele>1125.4</ele>
        <time>2020-11-16T20:03:33Z</time>
      </trkpt>
      <trkpt lat="28.6977370" lon="-17.9271770">
        <ele>1125.4</ele>
        <time>2020-11-16T20:03:34Z</time>
      </trkpt>
      <trkpt lat="28.6977220" lon="-17.9272420">
        <ele>1123.9</ele>
        <time>2020-11-16T20:03:35Z</time>
      </trkpt>
      <trkpt lat="28.6977220" lon="-17.9272420">
        <ele>1123.9</ele>
        <time>2020-11-16T20:03:36Z</time>
      </trkpt>
      <trkpt lat="28.6977150" lon="-17.9273070">
        <ele>1122.5</ele>
        <time>2020-11-16T20:03:37Z</time>
      </trkpt>
      <trkpt lat="28.6977150" lon="-17.9273070">
        <ele>1122.5</ele>
        <time>2020-11-16T20:03:38Z</time>
      </trkpt>
      <trkpt lat="28.6977020" lon="-17.9273730">
        <ele>1120.9</ele>
        <time>2020-11-16T20:03:39Z</time>
      </trkpt>
      <trkpt lat="28.6977020" lon="-17.9273730">
        <ele>1120.9</ele>
        <time>2020-11-16T20:03:40Z</time>
      </trkpt>
      <trkpt lat="28.6976830" lon="-17.9274280">
        <ele>1119.6</ele>
        <time>2020-11-16T20:03:41Z</time>
      </trkpt>
      <trkpt lat="28.6976830" lon="-17.9274280">
        <ele>1119.6</ele>
        <time>2020-11-16T20:03:42Z</time>
      </trkpt>
      <trkpt lat="28.6976730" lon="-17.9274830">
        <ele>1118.4</ele>
        <time>2020-11-16T20:03:43Z</time>
      </trkpt>
      <trkpt lat="28.6976650" lon="-17.9275100">
        <ele>1117.8</ele>
        <time>2020-11-16T20:03:44Z</time>
      </trkpt>
      <trkpt lat="28.6976650" lon="-17.9275100">
        <ele>1117.8</ele>
        <time>2020-11-16T20:03:45Z</time>
      </trkpt>
      <trkpt lat="28.6976470" lon="-17.9275500">
        <ele>1116.8</ele>
        <time>2020-11-16T20:03:46Z</time>
      </trkpt>
      <trkpt lat="28.6976470" lon="-17.9275500">
        <ele>1116.8</ele>
        <time>2020-11-16T20:03:47Z</time>
      </trkpt>
      <trkpt lat="28.6976230" lon="-17.9275800">
        <ele>1116.0</ele>
        <time>2020-11-16T20:03:48Z</time>
      </trkpt>
      <trkpt lat="28.6976230" lon="-17.9275800">
        <ele>1116.0</ele>
        <time>2020-11-16T20:03:49Z</time>
      </trkpt>
      <trkpt lat="28.6976150" lon="-17.9275980">
        <ele>1115.6</ele>
        <time>2020-11-16T20:03:50Z</time>
      </trkpt>
      <trkpt lat="28.6975950" lon="-17.9276250">
        <ele>1114.8</ele>
        <time>2020-11-16T20:03:51Z</time>
      </trkpt>
      <trkpt lat="28.6975950" lon="-17.9276250">
        <ele>1114.8</ele>
        <time>2020-11-16T20:03:52Z</time>
      </trkpt>
      <trkpt lat="28.6975680" lon="-17.9276720">
        <ele>1113.6</ele>
        <time>2020-11-16T20:03:53Z</time>
      </trkpt>
      <trkpt lat="28.6975680" lon="-17.9276720">
        <ele>1113.6</ele>
        <time>2020-11-16T20:03:54Z</time>
      </trkpt>
      <trkpt lat="28.6975300" lon="-17.9277330">
        <ele>1111.9</ele>
        <time>2020-11-16T20:03:55Z</time>
      </trkpt>
      <trkpt lat="28.6975300" lon="-17.9277330">
        <ele>1111.9</ele>
        <time>2020-11-16T20:03:56Z</time>
      </trkpt>
      <trkpt lat="28.6974900" lon="-17.9277950">
        <ele>1110.7</ele>
        <time>2020-11-16T20:03:57Z</time>
      </trkpt>
      <trkpt lat="28.6974900" lon="-17.9277950">
        <ele>1110.7</ele>
        <time>2020-11-16T20:03:58Z</time>
      </trkpt>
      <trkpt lat="28.6974430" lon="-17.9278580">
        <ele>1109.9</ele>
        <time>2020-11-16T20:03:59Z</time>
      </trkpt>
      <trkpt lat="28.6974430" lon="-17.9278580">
        <ele>1109.9</ele>
        <time>2020-11-16T20:04:00Z</time>
      </trkpt>
      <trkpt lat="28.6974000" lon="-17.9279100">
        <ele>1109.3</ele>
        <time>2020-11-16T20:04:01Z</time>
      </trkpt>
      <trkpt lat="28.6974000" lon="-17.9279100">
        <ele>1109.3</ele>
        <time>2020-11-16T20:04:02Z</time>
      </trkpt>
      <trkpt lat="28.6973580" lon="-17.9279580">
        <ele>1108.7</ele>
        <time>2020-11-16T20:04:03Z</time>
      </trkpt>
      <trkpt lat="28.6973580" lon="-17.9279580">
        <ele>1108.7</ele>
        <time>2020-11-16T20:04:04Z</time>
      </trkpt>
      <trkpt lat="28.6973280" lon="-17.9280100">
        <ele>1108.1</ele>
        <time>2020-11-16T20:04:05Z</time>
      </trkpt>
      <trkpt lat="28.6973280" lon="-17.9280100">
        <ele>1108.1</ele>
        <time>2020-11-16T20:04:06Z</time>
      </trkpt>
      <trkpt lat="28.6973150" lon="-17.9280680">
        <ele>1107.5</ele>
        <time>2020-11-16T20:04:07Z</time>
      </trkpt>
      <trkpt lat="28.6973150" lon="-17.9280680">
        <ele>1107.5</ele>
        <time>2020-11-16T20:04:08Z</time>
      </trkpt>
      <trkpt lat="28.6973180" lon="-17.9281280">
        <ele>1107.0</ele>
        <time>2020-11-16T20:04:09Z</time>
      </trkpt>
      <trkpt lat="28.6973200" lon="-17.9281600">
        <ele>1106.7</ele>
        <time>2020-11-16T20:04:10Z</time>
      </trkpt>
      <trkpt lat="28.6973200" lon="-17.9281600">
        <ele>1106.7</ele>
        <time>2020-11-16T20:04:11Z</time>
      </trkpt>
      <trkpt lat="28.6973270" lon="-17.9282230">
        <ele>1106.1</ele>
        <time>2020-11-16T20:04:12Z</time>
      </trkpt>
      <trkpt lat="28.6973270" lon="-17.9282230">
        <ele>1106.1</ele>
        <time>2020-11-16T20:04:13Z</time>
      </trkpt>
      <trkpt lat="28.6973220" lon="-17.9282930">
        <ele>1105.4</ele>
        <time>2020-11-16T20:04:14Z</time>
      </trkpt>
      <trkpt lat="28.6973220" lon="-17.9282930">
        <ele>1105.4</ele>
        <time>2020-11-16T20:04:15Z</time>
      </trkpt>
      <trkpt lat="28.6973250" lon="-17.9283680">
        <ele>1104.7</ele>
        <time>2020-11-16T20:04:16Z</time>
      </trkpt>
      <trkpt lat="28.6973250" lon="-17.9283680">
        <ele>1104.7</ele>
        <time>2020-11-16T20:04:17Z</time>
      </trkpt>
      <trkpt lat="28.6973230" lon="-17.9284380">
        <ele>1104.1</ele>
        <time>2020-11-16T20:04:18Z</time>
      </trkpt>
      <trkpt lat="28.6973230" lon="-17.9284380">
        <ele>1104.1</ele>
        <time>2020-11-16T20:04:19Z</time>
      </trkpt>
      <trkpt lat="28.6973220" lon="-17.9285170">
        <ele>1103.4</ele>
        <time>2020-11-16T20:04:20Z</time>
      </trkpt>
      <trkpt lat="28.6973220" lon="-17.9285170">
        <ele>1103.4</ele>
        <time>2020-11-16T20:04:21Z</time>
      </trkpt>
      <trkpt lat="28.6973170" lon="-17.9285980">
        <ele>1102.6</ele>
        <time>2020-11-16T20:04:22Z</time>
      </trkpt>
      <trkpt lat="28.6973150" lon="-17.9286420">
        <ele>1102.2</ele>
        <time>2020-11-16T20:04:23Z</time>
      </trkpt>
      <trkpt lat="28.6973150" lon="-17.9286420">
        <ele>1102.2</ele>
        <time>2020-11-16T20:04:24Z</time>
      </trkpt>
      <trkpt lat="28.6973080" lon="-17.9287170">
        <ele>1101.5</ele>
        <time>2020-11-16T20:04:25Z</time>
      </trkpt>
      <trkpt lat="28.6973080" lon="-17.9287170">
        <ele>1101.5</ele>
        <time>2020-11-16T20:04:26Z</time>
      </trkpt>
      <trkpt lat="28.6973080" lon="-17.9287170">
        <ele>1101.5</ele>
        <time>2020-11-16T20:04:27Z</time>
      </trkpt>
      <trkpt lat="28.6972980" lon="-17.9287830">
        <ele>1100.9</ele>
        <time>2020-11-16T20:04:28Z</time>
      </trkpt>
      <trkpt lat="28.6972830" lon="-17.9288500">
        <ele>1100.3</ele>
        <time>2020-11-16T20:04:29Z</time>
      </trkpt>
      <trkpt lat="28.6972730" lon="-17.9288820">
        <ele>1099.9</ele>
        <time>2020-11-16T20:04:30Z</time>
      </trkpt>
      <trkpt lat="28.6972730" lon="-17.9288820">
        <ele>1099.9</ele>
        <time>2020-11-16T20:04:31Z</time>
      </trkpt>
      <trkpt lat="28.6972500" lon="-17.9289420">
        <ele>1099.3</ele>
        <time>2020-11-16T20:04:32Z</time>
      </trkpt>
      <trkpt lat="28.6972500" lon="-17.9289420">
        <ele>1099.3</ele>
        <time>2020-11-16T20:04:33Z</time>
      </trkpt>
      <trkpt lat="28.6972280" lon="-17.9289970">
        <ele>1098.8</ele>
        <time>2020-11-16T20:04:34Z</time>
      </trkpt>
      <trkpt lat="28.6972280" lon="-17.9289970">
        <ele>1098.8</ele>
        <time>2020-11-16T20:04:35Z</time>
      </trkpt>
      <trkpt lat="28.6972200" lon="-17.9290230">
        <ele>1098.5</ele>
        <time>2020-11-16T20:04:36Z</time>
      </trkpt>
      <trkpt lat="28.6971980" lon="-17.9290750">
        <ele>1098.0</ele>
        <time>2020-11-16T20:04:37Z</time>
      </trkpt>
      <trkpt lat="28.6971980" lon="-17.9290750">
        <ele>1098.0</ele>
        <time>2020-11-16T20:04:38Z</time>
      </trkpt>
      <trkpt lat="28.6971730" lon="-17.9291220">
        <ele>1097.5</ele>
        <time>2020-11-16T20:04:39Z</time>
      </trkpt>
      <trkpt lat="28.6971730" lon="-17.9291220">
        <ele>1097.5</ele>
        <time>2020-11-16T20:04:40Z</time>
      </trkpt>
      <trkpt lat="28.6971480" lon="-17.9291630">
        <ele>1097.0</ele>
        <time>2020-11-16T20:04:41Z</time>
      </trkpt>
      <trkpt lat="28.6971480" lon="-17.9291630">
        <ele>1097.0</ele>
        <time>2020-11-16T20:04:42Z</time>
      </trkpt>
      <trkpt lat="28.6971170" lon="-17.9292020">
        <ele>1096.5</ele>
        <time>2020-11-16T20:04:43Z</time>
      </trkpt>
      <trkpt lat="28.6971170" lon="-17.9292020">
        <ele>1096.5</ele>
        <time>2020-11-16T20:04:44Z</time>
      </trkpt>
      <trkpt lat="28.6970980" lon="-17.9292420">
        <ele>1096.1</ele>
        <time>2020-11-16T20:04:45Z</time>
      </trkpt>
      <trkpt lat="28.6970980" lon="-17.9292420">
        <ele>1096.1</ele>
        <time>2020-11-16T20:04:46Z</time>
      </trkpt>
      <trkpt lat="28.6970900" lon="-17.9292830">
        <ele>1095.7</ele>
        <time>2020-11-16T20:04:47Z</time>
      </trkpt>
      <trkpt lat="28.6970900" lon="-17.9292830">
        <ele>1095.7</ele>
        <time>2020-11-16T20:04:48Z</time>
      </trkpt>
      <trkpt lat="28.6970970" lon="-17.9293270">
        <ele>1095.3</ele>
        <time>2020-11-16T20:04:49Z</time>
      </trkpt>
      <trkpt lat="28.6971070" lon="-17.9293470">
        <ele>1095.1</ele>
        <time>2020-11-16T20:04:50Z</time>
      </trkpt>
      <trkpt lat="28.6971070" lon="-17.9293470">
        <ele>1095.1</ele>
        <time>2020-11-16T20:04:51Z</time>
      </trkpt>
      <trkpt lat="28.6971270" lon="-17.9293880">
        <ele>1094.7</ele>
        <time>2020-11-16T20:04:52Z</time>
      </trkpt>
      <trkpt lat="28.6971270" lon="-17.9293880">
        <ele>1094.7</ele>
        <time>2020-11-16T20:04:53Z</time>
      </trkpt>
      <trkpt lat="28.6971480" lon="-17.9294330">
        <ele>1094.2</ele>
        <time>2020-11-16T20:04:54Z</time>
      </trkpt>
      <trkpt lat="28.6971670" lon="-17.9294580">
        <ele>1093.9</ele>
        <time>2020-11-16T20:04:55Z</time>
      </trkpt>
      <trkpt lat="28.6971670" lon="-17.9294580">
        <ele>1093.9</ele>
        <time>2020-11-16T20:04:56Z</time>
      </trkpt>
      <trkpt lat="28.6972070" lon="-17.9295080">
        <ele>1093.3</ele>
        <time>2020-11-16T20:04:57Z</time>
      </trkpt>
      <trkpt lat="28.6972070" lon="-17.9295080">
        <ele>1093.3</ele>
        <time>2020-11-16T20:04:58Z</time>
      </trkpt>
      <trkpt lat="28.6972500" lon="-17.9295430">
        <ele>1092.7</ele>
        <time>2020-11-16T20:04:59Z</time>
      </trkpt>
      <trkpt lat="28.6972500" lon="-17.9295430">
        <ele>1092.7</ele>
        <time>2020-11-16T20:05:00Z</time>
      </trkpt>
      <trkpt lat="28.6973070" lon="-17.9295580">
        <ele>1092.1</ele>
        <time>2020-11-16T20:05:01Z</time>
      </trkpt>
      <trkpt lat="28.6973380" lon="-17.9295620">
        <ele>1091.8</ele>
        <time>2020-11-16T20:05:02Z</time>
      </trkpt>
      <trkpt lat="28.6973380" lon="-17.9295620">
        <ele>1091.8</ele>
        <time>2020-11-16T20:05:03Z</time>
      </trkpt>
      <trkpt lat="28.6974050" lon="-17.9295600">
        <ele>1091.1</ele>
        <time>2020-11-16T20:05:04Z</time>
      </trkpt>
      <trkpt lat="28.6974050" lon="-17.9295600">
        <ele>1091.1</ele>
        <time>2020-11-16T20:05:05Z</time>
      </trkpt>
      <trkpt lat="28.6974730" lon="-17.9295270">
        <ele>1090.3</ele>
        <time>2020-11-16T20:05:06Z</time>
      </trkpt>
      <trkpt lat="28.6974730" lon="-17.9295270">
        <ele>1090.3</ele>
        <time>2020-11-16T20:05:07Z</time>
      </trkpt>
      <trkpt lat="28.6974730" lon="-17.9295270">
        <ele>1090.3</ele>
        <time>2020-11-16T20:05:08Z</time>
      </trkpt>
      <trkpt lat="28.6975500" lon="-17.9294820">
        <ele>1089.4</ele>
        <time>2020-11-16T20:05:09Z</time>
      </trkpt>
      <trkpt lat="28.6976300" lon="-17.9294270">
        <ele>1088.4</ele>
        <time>2020-11-16T20:05:10Z</time>
      </trkpt>
      <trkpt lat="28.6976680" lon="-17.9294020">
        <ele>1087.9</ele>
        <time>2020-11-16T20:05:11Z</time>
      </trkpt>
      <trkpt lat="28.6976680" lon="-17.9294020">
        <ele>1087.9</ele>
        <time>2020-11-16T20:05:12Z</time>
      </trkpt>
      <trkpt lat="28.6977550" lon="-17.9293570">
        <ele>1086.9</ele>
        <time>2020-11-16T20:05:13Z</time>
      </trkpt>
      <trkpt lat="28.6977550" lon="-17.9293570">
        <ele>1086.9</ele>
        <time>2020-11-16T20:05:14Z</time>
      </trkpt>
      <trkpt lat="28.6978300" lon="-17.9292720">
        <ele>1085.8</ele>
        <time>2020-11-16T20:05:15Z</time>
      </trkpt>
      <trkpt lat="28.6978300" lon="-17.9292720">
        <ele>1085.8</ele>
        <time>2020-11-16T20:05:16Z</time>
      </trkpt>
      <trkpt lat="28.6978920" lon="-17.9291680">
        <ele>1084.6</ele>
        <time>2020-11-16T20:05:17Z</time>
      </trkpt>
      <trkpt lat="28.6978920" lon="-17.9291680">
        <ele>1084.6</ele>
        <time>2020-11-16T20:05:18Z</time>
      </trkpt>
      <trkpt lat="28.6979480" lon="-17.9290680">
        <ele>1083.5</ele>
        <time>2020-11-16T20:05:19Z</time>
      </trkpt>
      <trkpt lat="28.6979480" lon="-17.9290680">
        <ele>1083.5</ele>
        <time>2020-11-16T20:05:20Z</time>
      </trkpt>
      <trkpt lat="28.6980150" lon="-17.9289970">
        <ele>1082.6</ele>
        <time>2020-11-16T20:05:21Z</time>
      </trkpt>
      <trkpt lat="28.6980150" lon="-17.9289970">
        <ele>1082.6</ele>
        <time>2020-11-16T20:05:22Z</time>
      </trkpt>
      <trkpt lat="28.6980850" lon="-17.9289420">
        <ele>1081.7</ele>
        <time>2020-11-16T20:05:23Z</time>
      </trkpt>
      <trkpt lat="28.6980850" lon="-17.9289420">
        <ele>1081.7</ele>
        <time>2020-11-16T20:05:24Z</time>
      </trkpt>
      <trkpt lat="28.6981570" lon="-17.9289020">
        <ele>1080.8</ele>
        <time>2020-11-16T20:05:25Z</time>
      </trkpt>
      <trkpt lat="28.6981570" lon="-17.9289020">
        <ele>1080.8</ele>
        <time>2020-11-16T20:05:26Z</time>
      </trkpt>
      <trkpt lat="28.6982280" lon="-17.9288830">
        <ele>1080.1</ele>
        <time>2020-11-16T20:05:27Z</time>
      </trkpt>
      <trkpt lat="28.6982280" lon="-17.9288830">
        <ele>1080.1</ele>
        <time>2020-11-16T20:05:28Z</time>
      </trkpt>
      <trkpt lat="28.6983000" lon="-17.9288920">
        <ele>1079.3</ele>
        <time>2020-11-16T20:05:29Z</time>
      </trkpt>
      <trkpt lat="28.6983000" lon="-17.9288920">
        <ele>1079.3</ele>
        <time>2020-11-16T20:05:30Z</time>
      </trkpt>
      <trkpt lat="28.6983650" lon="-17.9289070">
        <ele>1078.6</ele>
        <time>2020-11-16T20:05:31Z</time>
      </trkpt>
      <trkpt lat="28.6983650" lon="-17.9289070">
        <ele>1078.6</ele>
        <time>2020-11-16T20:05:32Z</time>
      </trkpt>
      <trkpt lat="28.6984380" lon="-17.9288950">
        <ele>1077.8</ele>
        <time>2020-11-16T20:05:33Z</time>
      </trkpt>
      <trkpt lat="28.6984380" lon="-17.9288950">
        <ele>1077.8</ele>
        <time>2020-11-16T20:05:34Z</time>
      </trkpt>
      <trkpt lat="28.6985020" lon="-17.9288630">
        <ele>1077.1</ele>
        <time>2020-11-16T20:05:35Z</time>
      </trkpt>
      <trkpt lat="28.6985020" lon="-17.9288630">
        <ele>1077.1</ele>
        <time>2020-11-16T20:05:36Z</time>
      </trkpt>
      <trkpt lat="28.6985600" lon="-17.9288350">
        <ele>1076.4</ele>
        <time>2020-11-16T20:05:37Z</time>
      </trkpt>
      <trkpt lat="28.6985900" lon="-17.9288170">
        <ele>1076.1</ele>
        <time>2020-11-16T20:05:38Z</time>
      </trkpt>
      <trkpt lat="28.6985900" lon="-17.9288170">
        <ele>1076.1</ele>
        <time>2020-11-16T20:05:39Z</time>
      </trkpt>
      <trkpt lat="28.6986400" lon="-17.9287700">
        <ele>1075.4</ele>
        <time>2020-11-16T20:05:40Z</time>
      </trkpt>
      <trkpt lat="28.6986630" lon="-17.9287450">
        <ele>1075.0</ele>
        <time>2020-11-16T20:05:41Z</time>
      </trkpt>
      <trkpt lat="28.6986630" lon="-17.9287450">
        <ele>1075.0</ele>
        <time>2020-11-16T20:05:42Z</time>
      </trkpt>
      <trkpt lat="28.6987100" lon="-17.9286970">
        <ele>1074.4</ele>
        <time>2020-11-16T20:05:43Z</time>
      </trkpt>
      <trkpt lat="28.6987100" lon="-17.9286970">
        <ele>1074.4</ele>
        <time>2020-11-16T20:05:44Z</time>
      </trkpt>
      <trkpt lat="28.6987580" lon="-17.9286850">
        <ele>1073.9</ele>
        <time>2020-11-16T20:05:45Z</time>
      </trkpt>
      <trkpt lat="28.6987580" lon="-17.9286850">
        <ele>1073.9</ele>
        <time>2020-11-16T20:05:46Z</time>
      </trkpt>
      <trkpt lat="28.6987770" lon="-17.9287000">
        <ele>1073.6</ele>
        <time>2020-11-16T20:05:47Z</time>
      </trkpt>
      <trkpt lat="28.6987770" lon="-17.9287000">
        <ele>1073.6</ele>
        <time>2020-11-16T20:05:48Z</time>
      </trkpt>
      <trkpt lat="28.6987480" lon="-17.9287450">
        <ele>1073.1</ele>
        <time>2020-11-16T20:05:49Z</time>
      </trkpt>
      <trkpt lat="28.6987480" lon="-17.9287450">
        <ele>1073.1</ele>
        <time>2020-11-16T20:05:50Z</time>
      </trkpt>
      <trkpt lat="28.6987020" lon="-17.9288050">
        <ele>1072.4</ele>
        <time>2020-11-16T20:05:51Z</time>
      </trkpt>
      <trkpt lat="28.6986780" lon="-17.9288320">
        <ele>1072.0</ele>
        <time>2020-11-16T20:05:52Z</time>
      </trkpt>
      <trkpt lat="28.6986780" lon="-17.9288320">
        <ele>1072.0</ele>
        <time>2020-11-16T20:05:53Z</time>
      </trkpt>
      <trkpt lat="28.6986420" lon="-17.9288830">
        <ele>1071.4</ele>
        <time>2020-11-16T20:05:54Z</time>
      </trkpt>
      <trkpt lat="28.6986220" lon="-17.9289070">
        <ele>1071.1</ele>
        <time>2020-11-16T20:05:55Z</time>
      </trkpt>
      <trkpt lat="28.6986220" lon="-17.9289070">
        <ele>1071.1</ele>
        <time>2020-11-16T20:05:56Z</time>
      </trkpt>
      <trkpt lat="28.6985850" lon="-17.9289800">
        <ele>1070.3</ele>
        <time>2020-11-16T20:05:57Z</time>
      </trkpt>
      <trkpt lat="28.6985850" lon="-17.9289800">
        <ele>1070.3</ele>
        <time>2020-11-16T20:05:58Z</time>
      </trkpt>
      <trkpt lat="28.6985470" lon="-17.9290570">
        <ele>1069.5</ele>
        <time>2020-11-16T20:05:59Z</time>
      </trkpt>
      <trkpt lat="28.6985470" lon="-17.9290570">
        <ele>1069.5</ele>
        <time>2020-11-16T20:06:00Z</time>
      </trkpt>
      <trkpt lat="28.6985100" lon="-17.9291220">
        <ele>1068.8</ele>
        <time>2020-11-16T20:06:01Z</time>
      </trkpt>
      <trkpt lat="28.6984930" lon="-17.9291480">
        <ele>1068.5</ele>
        <time>2020-11-16T20:06:02Z</time>
      </trkpt>
      <trkpt lat="28.6984930" lon="-17.9291480">
        <ele>1068.5</ele>
        <time>2020-11-16T20:06:03Z</time>
      </trkpt>
      <trkpt lat="28.6984420" lon="-17.9291850">
        <ele>1067.8</ele>
        <time>2020-11-16T20:06:04Z</time>
      </trkpt>
      <trkpt lat="28.6984420" lon="-17.9291850">
        <ele>1067.8</ele>
        <time>2020-11-16T20:06:05Z</time>
      </trkpt>
      <trkpt lat="28.6983800" lon="-17.9292150">
        <ele>1067.1</ele>
        <time>2020-11-16T20:06:06Z</time>
      </trkpt>
      <trkpt lat="28.6983800" lon="-17.9292150">
        <ele>1067.1</ele>
        <time>2020-11-16T20:06:07Z</time>
      </trkpt>
      <trkpt lat="28.6983030" lon="-17.9292280">
        <ele>1066.3</ele>
        <time>2020-11-16T20:06:08Z</time>
      </trkpt>
      <trkpt lat="28.6983030" lon="-17.9292280">
        <ele>1066.3</ele>
        <time>2020-11-16T20:06:09Z</time>
      </trkpt>
      <trkpt lat="28.6982400" lon="-17.9292550">
        <ele>1065.6</ele>
        <time>2020-11-16T20:06:10Z</time>
      </trkpt>
      <trkpt lat="28.6982400" lon="-17.9292550">
        <ele>1065.6</ele>
        <time>2020-11-16T20:06:11Z</time>
      </trkpt>
      <trkpt lat="28.6982020" lon="-17.9292980">
        <ele>1065.0</ele>
        <time>2020-11-16T20:06:12Z</time>
      </trkpt>
      <trkpt lat="28.6982020" lon="-17.9292980">
        <ele>1065.0</ele>
        <time>2020-11-16T20:06:13Z</time>
      </trkpt>
      <trkpt lat="28.6981670" lon="-17.9293620">
        <ele>1064.3</ele>
        <time>2020-11-16T20:06:14Z</time>
      </trkpt>
      <trkpt lat="28.6981670" lon="-17.9293620">
        <ele>1064.3</ele>
        <time>2020-11-16T20:06:15Z</time>
      </trkpt>
      <trkpt lat="28.6981320" lon="-17.9294350">
        <ele>1063.6</ele>
        <time>2020-11-16T20:06:16Z</time>
      </trkpt>
      <trkpt lat="28.6981320" lon="-17.9294350">
        <ele>1063.6</ele>
        <time>2020-11-16T20:06:17Z</time>
      </trkpt>
      <trkpt lat="28.6981120" lon="-17.9295150">
        <ele>1062.8</ele>
        <time>2020-11-16T20:06:18Z</time>
      </trkpt>
      <trkpt lat="28.6980970" lon="-17.9295480">
        <ele>1062.5</ele>
        <time>2020-11-16T20:06:19Z</time>
      </trkpt>
      <trkpt lat="28.6980800" lon="-17.9295750">
        <ele>1062.2</ele>
        <time>2020-11-16T20:06:20Z</time>
      </trkpt>
      <trkpt lat="28.6980800" lon="-17.9295750">
        <ele>1062.2</ele>
        <time>2020-11-16T20:06:21Z</time>
      </trkpt>
      <trkpt lat="28.6980350" lon="-17.9296220">
        <ele>1061.5</ele>
        <time>2020-11-16T20:06:22Z</time>
      </trkpt>
      <trkpt lat="28.6980350" lon="-17.9296220">
        <ele>1061.5</ele>
        <time>2020-11-16T20:06:23Z</time>
      </trkpt>
      <trkpt lat="28.6979900" lon="-17.9296980">
        <ele>1060.7</ele>
        <time>2020-11-16T20:06:24Z</time>
      </trkpt>
      <trkpt lat="28.6979900" lon="-17.9296980">
        <ele>1060.7</ele>
        <time>2020-11-16T20:06:25Z</time>
      </trkpt>
      <trkpt lat="28.6979330" lon="-17.9297770">
        <ele>1059.7</ele>
        <time>2020-11-16T20:06:26Z</time>
      </trkpt>
      <trkpt lat="28.6979330" lon="-17.9297770">
        <ele>1059.7</ele>
        <time>2020-11-16T20:06:27Z</time>
      </trkpt>
      <trkpt lat="28.6978920" lon="-17.9298270">
        <ele>1059.1</ele>
        <time>2020-11-16T20:06:28Z</time>
      </trkpt>
      <trkpt lat="28.6978920" lon="-17.9298270">
        <ele>1059.1</ele>
        <time>2020-11-16T20:06:29Z</time>
      </trkpt>
      <trkpt lat="28.6978520" lon="-17.9298730">
        <ele>1058.5</ele>
        <time>2020-11-16T20:06:30Z</time>
      </trkpt>
      <trkpt lat="28.6978520" lon="-17.9298730">
        <ele>1058.5</ele>
        <time>2020-11-16T20:06:31Z</time>
      </trkpt>
      <trkpt lat="28.6978150" lon="-17.9299250">
        <ele>1057.9</ele>
        <time>2020-11-16T20:06:32Z</time>
      </trkpt>
      <trkpt lat="28.6978150" lon="-17.9299250">
        <ele>1057.9</ele>
        <time>2020-11-16T20:06:33Z</time>
      </trkpt>
      <trkpt lat="28.6977700" lon="-17.9299900">
        <ele>1057.1</ele>
        <time>2020-11-16T20:06:34Z</time>
      </trkpt>
      <trkpt lat="28.6977450" lon="-17.9300220">
        <ele>1056.7</ele>
        <time>2020-11-16T20:06:35Z</time>
      </trkpt>
      <trkpt lat="28.6977450" lon="-17.9300220">
        <ele>1056.7</ele>
        <time>2020-11-16T20:06:36Z</time>
      </trkpt>
      <trkpt lat="28.6976980" lon="-17.9300880">
        <ele>1055.9</ele>
        <time>2020-11-16T20:06:37Z</time>
      </trkpt>
      <trkpt lat="28.6976820" lon="-17.9301250">
        <ele>1055.5</ele>
        <time>2020-11-16T20:06:38Z</time>
      </trkpt>
      <trkpt lat="28.6976820" lon="-17.9301250">
        <ele>1055.5</ele>
        <time>2020-11-16T20:06:39Z</time>
      </trkpt>
      <trkpt lat="28.6976570" lon="-17.9302030">
        <ele>1054.8</ele>
        <time>2020-11-16T20:06:40Z</time>
      </trkpt>
      <trkpt lat="28.6976570" lon="-17.9302030">
        <ele>1054.8</ele>
        <time>2020-11-16T20:06:41Z</time>
      </trkpt>
      <trkpt lat="28.6976270" lon="-17.9302830">
        <ele>1054.0</ele>
        <time>2020-11-16T20:06:42Z</time>
      </trkpt>
      <trkpt lat="28.6976270" lon="-17.9302830">
        <ele>1054.0</ele>
        <time>2020-11-16T20:06:43Z</time>
      </trkpt>
      <trkpt lat="28.6976080" lon="-17.9303820">
        <ele>1053.0</ele>
        <time>2020-11-16T20:06:44Z</time>
      </trkpt>
      <trkpt lat="28.6976080" lon="-17.9303820">
        <ele>1053.0</ele>
        <time>2020-11-16T20:06:45Z</time>
      </trkpt>
      <trkpt lat="28.6975850" lon="-17.9304730">
        <ele>1052.2</ele>
        <time>2020-11-16T20:06:46Z</time>
      </trkpt>
      <trkpt lat="28.6975850" lon="-17.9304730">
        <ele>1052.2</ele>
        <time>2020-11-16T20:06:47Z</time>
      </trkpt>
      <trkpt lat="28.6975700" lon="-17.9305480">
        <ele>1051.4</ele>
        <time>2020-11-16T20:06:48Z</time>
      </trkpt>
      <trkpt lat="28.6975700" lon="-17.9305480">
        <ele>1051.4</ele>
        <time>2020-11-16T20:06:49Z</time>
      </trkpt>
      <trkpt lat="28.6975450" lon="-17.9306270">
        <ele>1050.7</ele>
        <time>2020-11-16T20:06:50Z</time>
      </trkpt>
      <trkpt lat="28.6975450" lon="-17.9306270">
        <ele>1050.7</ele>
        <time>2020-11-16T20:06:51Z</time>
      </trkpt>
      <trkpt lat="28.6975180" lon="-17.9306950">
        <ele>1050.0</ele>
        <time>2020-11-16T20:06:52Z</time>
      </trkpt>
      <trkpt lat="28.6975180" lon="-17.9306950">
        <ele>1050.0</ele>
        <time>2020-11-16T20:06:53Z</time>
      </trkpt>
      <trkpt lat="28.6974830" lon="-17.9307430">
        <ele>1049.4</ele>
        <time>2020-11-16T20:06:54Z</time>
      </trkpt>
      <trkpt lat="28.6974830" lon="-17.9307430">
        <ele>1049.4</ele>
        <time>2020-11-16T20:06:55Z</time>
      </trkpt>
      <trkpt lat="28.6974370" lon="-17.9307780">
        <ele>1048.8</ele>
        <time>2020-11-16T20:06:56Z</time>
      </trkpt>
      <trkpt lat="28.6974370" lon="-17.9307780">
        <ele>1048.8</ele>
        <time>2020-11-16T20:06:57Z</time>
      </trkpt>
      <trkpt lat="28.6973870" lon="-17.9307920">
        <ele>1048.3</ele>
        <time>2020-11-16T20:06:58Z</time>
      </trkpt>
      <trkpt lat="28.6973870" lon="-17.9307920">
        <ele>1048.3</ele>
        <time>2020-11-16T20:06:59Z</time>
      </trkpt>
      <trkpt lat="28.6973400" lon="-17.9307950">
        <ele>1047.8</ele>
        <time>2020-11-16T20:07:00Z</time>
      </trkpt>
      <trkpt lat="28.6973400" lon="-17.9307950">
        <ele>1047.8</ele>
        <time>2020-11-16T20:07:01Z</time>
      </trkpt>
      <trkpt lat="28.6972800" lon="-17.9308020">
        <ele>1047.1</ele>
        <time>2020-11-16T20:07:02Z</time>
      </trkpt>
      <trkpt lat="28.6972800" lon="-17.9308020">
        <ele>1047.1</ele>
        <time>2020-11-16T20:07:03Z</time>
      </trkpt>
      <trkpt lat="28.6972130" lon="-17.9308020">
        <ele>1046.4</ele>
        <time>2020-11-16T20:07:04Z</time>
      </trkpt>
      <trkpt lat="28.6971800" lon="-17.9308000">
        <ele>1046.1</ele>
        <time>2020-11-16T20:07:05Z</time>
      </trkpt>
      <trkpt lat="28.6971800" lon="-17.9308000">
        <ele>1046.1</ele>
        <time>2020-11-16T20:07:06Z</time>
      </trkpt>
      <trkpt lat="28.6971300" lon="-17.9307980">
        <ele>1045.6</ele>
        <time>2020-11-16T20:07:07Z</time>
      </trkpt>
      <trkpt lat="28.6971300" lon="-17.9307980">
        <ele>1045.6</ele>
        <time>2020-11-16T20:07:08Z</time>
      </trkpt>
      <trkpt lat="28.6970950" lon="-17.9308020">
        <ele>1045.2</ele>
        <time>2020-11-16T20:07:09Z</time>
      </trkpt>
      <trkpt lat="28.6970950" lon="-17.9308020">
        <ele>1045.2</ele>
        <time>2020-11-16T20:07:10Z</time>
      </trkpt>
      <trkpt lat="28.6970500" lon="-17.9307950">
        <ele>1044.7</ele>
        <time>2020-11-16T20:07:11Z</time>
      </trkpt>
      <trkpt lat="28.6970220" lon="-17.9307970">
        <ele>1044.4</ele>
        <time>2020-11-16T20:07:12Z</time>
      </trkpt>
      <trkpt lat="28.6970220" lon="-17.9307970">
        <ele>1044.4</ele>
        <time>2020-11-16T20:07:13Z</time>
      </trkpt>
      <trkpt lat="28.6969750" lon="-17.9307970">
        <ele>1043.9</ele>
        <time>2020-11-16T20:07:14Z</time>
      </trkpt>
      <trkpt lat="28.6969620" lon="-17.9307980">
        <ele>1043.8</ele>
        <time>2020-11-16T20:07:15Z</time>
      </trkpt>
      <trkpt lat="28.6969620" lon="-17.9307980">
        <ele>1043.8</ele>
        <time>2020-11-16T20:07:16Z</time>
      </trkpt>
      <trkpt lat="28.6969620" lon="-17.9308050">
        <ele>1043.7</ele>
        <time>2020-11-16T20:07:17Z</time>
      </trkpt>
      <trkpt lat="28.6969620" lon="-17.9308050">
        <ele>1043.7</ele>
        <time>2020-11-16T20:07:18Z</time>
      </trkpt>
      <trkpt lat="28.6969620" lon="-17.9308050">
        <ele>1043.7</ele>
        <time>2020-11-16T20:07:47Z</time>
      </trkpt>
      <trkpt lat="28.6968980" lon="-17.9308180">
        <ele>1043.0</ele>
        <time>2020-11-16T20:07:48Z</time>
      </trkpt>
      <trkpt lat="28.6968980" lon="-17.9308180">
        <ele>1043.0</ele>
        <time>2020-11-16T20:07:49Z</time>
      </trkpt>
      <trkpt lat="28.6968570" lon="-17.9308100">
        <ele>1042.6</ele>
        <time>2020-11-16T20:07:50Z</time>
      </trkpt>
      <trkpt lat="28.6968570" lon="-17.9308100">
        <ele>1042.6</ele>
        <time>2020-11-16T20:07:51Z</time>
      </trkpt>
      <trkpt lat="28.6968200" lon="-17.9307950">
        <ele>1042.2</ele>
        <time>2020-11-16T20:07:52Z</time>
      </trkpt>
      <trkpt lat="28.6968200" lon="-17.9307950">
        <ele>1042.2</ele>
        <time>2020-11-16T20:07:53Z</time>
      </trkpt>
      <trkpt lat="28.6967870" lon="-17.9307600">
        <ele>1041.7</ele>
        <time>2020-11-16T20:07:54Z</time>
      </trkpt>
      <trkpt lat="28.6967680" lon="-17.9307330">
        <ele>1041.4</ele>
        <time>2020-11-16T20:07:55Z</time>
      </trkpt>
      <trkpt lat="28.6967520" lon="-17.9307030">
        <ele>1041.1</ele>
        <time>2020-11-16T20:07:56Z</time>
      </trkpt>
      <trkpt lat="28.6967520" lon="-17.9307030">
        <ele>1041.1</ele>
        <time>2020-11-16T20:07:57Z</time>
      </trkpt>
      <trkpt lat="28.6967270" lon="-17.9306320">
        <ele>1040.3</ele>
        <time>2020-11-16T20:07:58Z</time>
      </trkpt>
      <trkpt lat="28.6967200" lon="-17.9305930">
        <ele>1040.0</ele>
        <time>2020-11-16T20:07:59Z</time>
      </trkpt>
      <trkpt lat="28.6967200" lon="-17.9305930">
        <ele>1040.0</ele>
        <time>2020-11-16T20:08:00Z</time>
      </trkpt>
      <trkpt lat="28.6967080" lon="-17.9305120">
        <ele>1039.2</ele>
        <time>2020-11-16T20:08:01Z</time>
      </trkpt>
      <trkpt lat="28.6966980" lon="-17.9304730">
        <ele>1038.8</ele>
        <time>2020-11-16T20:08:02Z</time>
      </trkpt>
      <trkpt lat="28.6966980" lon="-17.9304730">
        <ele>1038.8</ele>
        <time>2020-11-16T20:08:03Z</time>
      </trkpt>
      <trkpt lat="28.6966500" lon="-17.9304200">
        <ele>1038.1</ele>
        <time>2020-11-16T20:08:04Z</time>
      </trkpt>
      <trkpt lat="28.6966500" lon="-17.9304200">
        <ele>1038.1</ele>
        <time>2020-11-16T20:08:05Z</time>
      </trkpt>
      <trkpt lat="28.6965950" lon="-17.9303700">
        <ele>1037.4</ele>
        <time>2020-11-16T20:08:06Z</time>
      </trkpt>
      <trkpt lat="28.6965950" lon="-17.9303700">
        <ele>1037.4</ele>
        <time>2020-11-16T20:08:07Z</time>
      </trkpt>
      <trkpt lat="28.6965500" lon="-17.9303230">
        <ele>1036.8</ele>
        <time>2020-11-16T20:08:08Z</time>
      </trkpt>
      <trkpt lat="28.6965500" lon="-17.9303230">
        <ele>1036.8</ele>
        <time>2020-11-16T20:08:09Z</time>
      </trkpt>
      <trkpt lat="28.6965330" lon="-17.9302620">
        <ele>1036.2</ele>
        <time>2020-11-16T20:08:10Z</time>
      </trkpt>
      <trkpt lat="28.6965330" lon="-17.9302620">
        <ele>1036.2</ele>
        <time>2020-11-16T20:08:11Z</time>
      </trkpt>
      <trkpt lat="28.6965270" lon="-17.9301820">
        <ele>1035.4</ele>
        <time>2020-11-16T20:08:12Z</time>
      </trkpt>
      <trkpt lat="28.6965270" lon="-17.9301820">
        <ele>1035.4</ele>
        <time>2020-11-16T20:08:13Z</time>
      </trkpt>
      <trkpt lat="28.6965180" lon="-17.9300980">
        <ele>1034.6</ele>
        <time>2020-11-16T20:08:14Z</time>
      </trkpt>
      <trkpt lat="28.6965180" lon="-17.9300980">
        <ele>1034.6</ele>
        <time>2020-11-16T20:08:15Z</time>
      </trkpt>
      <trkpt lat="28.6964930" lon="-17.9300230">
        <ele>1033.9</ele>
        <time>2020-11-16T20:08:16Z</time>
      </trkpt>
      <trkpt lat="28.6964930" lon="-17.9300230">
        <ele>1033.9</ele>
        <time>2020-11-16T20:08:17Z</time>
      </trkpt>
      <trkpt lat="28.6964720" lon="-17.9299650">
        <ele>1033.3</ele>
        <time>2020-11-16T20:08:18Z</time>
      </trkpt>
      <trkpt lat="28.6964720" lon="-17.9299650">
        <ele>1033.3</ele>
        <time>2020-11-16T20:08:19Z</time>
      </trkpt>
      <trkpt lat="28.6964580" lon="-17.9298900">
        <ele>1032.6</ele>
        <time>2020-11-16T20:08:20Z</time>
      </trkpt>
      <trkpt lat="28.6964580" lon="-17.9298900">
        <ele>1032.6</ele>
        <time>2020-11-16T20:08:21Z</time>
      </trkpt>
      <trkpt lat="28.6964420" lon="-17.9298180">
        <ele>1031.9</ele>
        <time>2020-11-16T20:08:22Z</time>
      </trkpt>
      <trkpt lat="28.6964300" lon="-17.9297900">
        <ele>1031.6</ele>
        <time>2020-11-16T20:08:23Z</time>
      </trkpt>
      <trkpt lat="28.6964300" lon="-17.9297900">
        <ele>1031.6</ele>
        <time>2020-11-16T20:08:24Z</time>
      </trkpt>
      <trkpt lat="28.6964120" lon="-17.9297450">
        <ele>1031.2</ele>
        <time>2020-11-16T20:08:25Z</time>
      </trkpt>
      <trkpt lat="28.6964120" lon="-17.9297450">
        <ele>1031.2</ele>
        <time>2020-11-16T20:08:26Z</time>
      </trkpt>
      <trkpt lat="28.6963970" lon="-17.9296900">
        <ele>1030.6</ele>
        <time>2020-11-16T20:08:27Z</time>
      </trkpt>
      <trkpt lat="28.6963970" lon="-17.9296900">
        <ele>1030.6</ele>
        <time>2020-11-16T20:08:28Z</time>
      </trkpt>
      <trkpt lat="28.6963920" lon="-17.9296130">
        <ele>1029.9</ele>
        <time>2020-11-16T20:08:29Z</time>
      </trkpt>
      <trkpt lat="28.6963920" lon="-17.9296130">
        <ele>1029.9</ele>
        <time>2020-11-16T20:08:30Z</time>
      </trkpt>
      <trkpt lat="28.6963980" lon="-17.9295270">
        <ele>1029.1</ele>
        <time>2020-11-16T20:08:31Z</time>
      </trkpt>
      <trkpt lat="28.6964000" lon="-17.9294770">
        <ele>1028.7</ele>
        <time>2020-11-16T20:08:32Z</time>
      </trkpt>
      <trkpt lat="28.6964000" lon="-17.9294770">
        <ele>1028.7</ele>
        <time>2020-11-16T20:08:33Z</time>
      </trkpt>
      <trkpt lat="28.6963750" lon="-17.9294020">
        <ele>1027.9</ele>
        <time>2020-11-16T20:08:34Z</time>
      </trkpt>
      <trkpt lat="28.6963750" lon="-17.9294020">
        <ele>1027.9</ele>
        <time>2020-11-16T20:08:35Z</time>
      </trkpt>
      <trkpt lat="28.6963370" lon="-17.9293770">
        <ele>1027.5</ele>
        <time>2020-11-16T20:08:36Z</time>
      </trkpt>
      <trkpt lat="28.6963170" lon="-17.9293750">
        <ele>1027.3</ele>
        <time>2020-11-16T20:08:37Z</time>
      </trkpt>
      <trkpt lat="28.6963170" lon="-17.9293750">
        <ele>1027.3</ele>
        <time>2020-11-16T20:08:38Z</time>
      </trkpt>
      <trkpt lat="28.6962780" lon="-17.9293730">
        <ele>1026.8</ele>
        <time>2020-11-16T20:08:39Z</time>
      </trkpt>
      <trkpt lat="28.6962780" lon="-17.9293730">
        <ele>1026.8</ele>
        <time>2020-11-16T20:08:40Z</time>
      </trkpt>
      <trkpt lat="28.6962400" lon="-17.9293820">
        <ele>1026.4</ele>
        <time>2020-11-16T20:08:41Z</time>
      </trkpt>
      <trkpt lat="28.6962400" lon="-17.9293820">
        <ele>1026.4</ele>
        <time>2020-11-16T20:08:42Z</time>
      </trkpt>
      <trkpt lat="28.6962120" lon="-17.9293970">
        <ele>1026.1</ele>
        <time>2020-11-16T20:08:43Z</time>
      </trkpt>
      <trkpt lat="28.6961980" lon="-17.9294070">
        <ele>1025.9</ele>
        <time>2020-11-16T20:08:44Z</time>
      </trkpt>
      <trkpt lat="28.6961980" lon="-17.9294070">
        <ele>1025.9</ele>
        <time>2020-11-16T20:08:45Z</time>
      </trkpt>
      <trkpt lat="28.6961850" lon="-17.9294370">
        <ele>1025.6</ele>
        <time>2020-11-16T20:08:46Z</time>
      </trkpt>
      <trkpt lat="28.6961850" lon="-17.9294370">
        <ele>1025.6</ele>
        <time>2020-11-16T20:08:47Z</time>
      </trkpt>
      <trkpt lat="28.6961670" lon="-17.9294500">
        <ele>1025.4</ele>
        <time>2020-11-16T20:08:48Z</time>
      </trkpt>
      <trkpt lat="28.6961670" lon="-17.9294500">
        <ele>1025.4</ele>
        <time>2020-11-16T20:08:49Z</time>
      </trkpt>
      <trkpt lat="28.6961400" lon="-17.9294770">
        <ele>1025.0</ele>
        <time>2020-11-16T20:08:50Z</time>
      </trkpt>
      <trkpt lat="28.6961400" lon="-17.9294770">
        <ele>1025.0</ele>
        <time>2020-11-16T20:08:51Z</time>
      </trkpt>
      <trkpt lat="28.6961050" lon="-17.9295080">
        <ele>1024.6</ele>
        <time>2020-11-16T20:08:52Z</time>
      </trkpt>
      <trkpt lat="28.6961050" lon="-17.9295080">
        <ele>1024.6</ele>
        <time>2020-11-16T20:08:53Z</time>
      </trkpt>
      <trkpt lat="28.6960780" lon="-17.9295350">
        <ele>1024.2</ele>
        <time>2020-11-16T20:08:54Z</time>
      </trkpt>
      <trkpt lat="28.6960780" lon="-17.9295350">
        <ele>1024.2</ele>
        <time>2020-11-16T20:08:55Z</time>
      </trkpt>
      <trkpt lat="28.6960700" lon="-17.9295650">
        <ele>1023.9</ele>
        <time>2020-11-16T20:08:56Z</time>
      </trkpt>
      <trkpt lat="28.6960700" lon="-17.9295650">
        <ele>1023.9</ele>
        <time>2020-11-16T20:08:57Z</time>
      </trkpt>
      <trkpt lat="28.6960820" lon="-17.9296000">
        <ele>1023.5</ele>
        <time>2020-11-16T20:08:58Z</time>
      </trkpt>
      <trkpt lat="28.6960780" lon="-17.9296170">
        <ele>1023.4</ele>
        <time>2020-11-16T20:08:59Z</time>
      </trkpt>
      <trkpt lat="28.6960780" lon="-17.9296170">
        <ele>1023.4</ele>
        <time>2020-11-16T20:09:00Z</time>
      </trkpt>
      <trkpt lat="28.6960730" lon="-17.9296350">
        <ele>1023.2</ele>
        <time>2020-11-16T20:09:01Z</time>
      </trkpt>
      <trkpt lat="28.6960630" lon="-17.9296480">
        <ele>1023.0</ele>
        <time>2020-11-16T20:09:02Z</time>
      </trkpt>
      <trkpt lat="28.6960630" lon="-17.9296480">
        <ele>1023.0</ele>
        <time>2020-11-16T20:09:03Z</time>
      </trkpt>
      <trkpt lat="28.6960570" lon="-17.9296750">
        <ele>1022.8</ele>
        <time>2020-11-16T20:09:04Z</time>
      </trkpt>
      <trkpt lat="28.6960570" lon="-17.9296750">
        <ele>1022.8</ele>
        <time>2020-11-16T20:09:05Z</time>
      </trkpt>
      <trkpt lat="28.6960400" lon="-17.9297080">
        <ele>1022.4</ele>
        <time>2020-11-16T20:09:06Z</time>
      </trkpt>
      <trkpt lat="28.6960400" lon="-17.9297080">
        <ele>1022.4</ele>
        <time>2020-11-16T20:09:07Z</time>
      </trkpt>
      <trkpt lat="28.6960170" lon="-17.9297470">
        <ele>1022.0</ele>
        <time>2020-11-16T20:09:08Z</time>
      </trkpt>
      <trkpt lat="28.6960170" lon="-17.9297470">
        <ele>1022.0</ele>
        <time>2020-11-16T20:09:09Z</time>
      </trkpt>
      <trkpt lat="28.6959970" lon="-17.9297830">
        <ele>1021.6</ele>
        <time>2020-11-16T20:09:10Z</time>
      </trkpt>
      <trkpt lat="28.6959830" lon="-17.9298020">
        <ele>1021.4</ele>
        <time>2020-11-16T20:09:11Z</time>
      </trkpt>
      <trkpt lat="28.6959830" lon="-17.9298020">
        <ele>1021.4</ele>
        <time>2020-11-16T20:09:12Z</time>
      </trkpt>
      <trkpt lat="28.6959570" lon="-17.9298450">
        <ele>1020.9</ele>
        <time>2020-11-16T20:09:13Z</time>
      </trkpt>
      <trkpt lat="28.6959250" lon="-17.9298600">
        <ele>1020.5</ele>
        <time>2020-11-16T20:09:14Z</time>
      </trkpt>
      <trkpt lat="28.6959250" lon="-17.9298600">
        <ele>1020.5</ele>
        <time>2020-11-16T20:09:15Z</time>
      </trkpt>
      <trkpt lat="28.6958900" lon="-17.9298980">
        <ele>1020.0</ele>
        <time>2020-11-16T20:09:16Z</time>
      </trkpt>
      <trkpt lat="28.6958900" lon="-17.9298980">
        <ele>1020.0</ele>
        <time>2020-11-16T20:09:17Z</time>
      </trkpt>
      <trkpt lat="28.6958470" lon="-17.9299330">
        <ele>1019.5</ele>
        <time>2020-11-16T20:09:18Z</time>
      </trkpt>
      <trkpt lat="28.6958470" lon="-17.9299330">
        <ele>1019.5</ele>
        <time>2020-11-16T20:09:19Z</time>
      </trkpt>
      <trkpt lat="28.6958020" lon="-17.9299680">
        <ele>1018.9</ele>
        <time>2020-11-16T20:09:20Z</time>
      </trkpt>
      <trkpt lat="28.6958020" lon="-17.9299680">
        <ele>1018.9</ele>
        <time>2020-11-16T20:09:21Z</time>
      </trkpt>
      <trkpt lat="28.6957730" lon="-17.9300030">
        <ele>1018.1</ele>
        <time>2020-11-16T20:09:22Z</time>
      </trkpt>
      <trkpt lat="28.6957730" lon="-17.9300030">
        <ele>1018.1</ele>
        <time>2020-11-16T20:09:23Z</time>
      </trkpt>
      <trkpt lat="28.6957380" lon="-17.9300370">
        <ele>1016.3</ele>
        <time>2020-11-16T20:09:24Z</time>
      </trkpt>
      <trkpt lat="28.6957270" lon="-17.9300520">
        <ele>1015.6</ele>
        <time>2020-11-16T20:09:25Z</time>
      </trkpt>
      <trkpt lat="28.6957270" lon="-17.9300520">
        <ele>1015.6</ele>
        <time>2020-11-16T20:09:26Z</time>
      </trkpt>
      <trkpt lat="28.6956870" lon="-17.9300870">
        <ele>1013.7</ele>
        <time>2020-11-16T20:09:27Z</time>
      </trkpt>
      <trkpt lat="28.6956870" lon="-17.9300870">
        <ele>1013.7</ele>
        <time>2020-11-16T20:09:28Z</time>
      </trkpt>
      <trkpt lat="28.6956550" lon="-17.9301250">
        <ele>1011.8</ele>
        <time>2020-11-16T20:09:29Z</time>
      </trkpt>
      <trkpt lat="28.6956420" lon="-17.9301520">
        <ele>1010.8</ele>
        <time>2020-11-16T20:09:30Z</time>
      </trkpt>
      <trkpt lat="28.6956420" lon="-17.9301520">
        <ele>1010.8</ele>
        <time>2020-11-16T20:09:31Z</time>
      </trkpt>
      <trkpt lat="28.6956080" lon="-17.9302370">
        <ele>1007.3</ele>
        <time>2020-11-16T20:09:32Z</time>
      </trkpt>
      <trkpt lat="28.6956080" lon="-17.9302370">
        <ele>1007.3</ele>
        <time>2020-11-16T20:09:33Z</time>
      </trkpt>
      <trkpt lat="28.6955880" lon="-17.9303150">
        <ele>1004.1</ele>
        <time>2020-11-16T20:09:34Z</time>
      </trkpt>
      <trkpt lat="28.6955880" lon="-17.9303150">
        <ele>1004.1</ele>
        <time>2020-11-16T20:09:35Z</time>
      </trkpt>
      <trkpt lat="28.6955730" lon="-17.9303920">
        <ele>1000.9</ele>
        <time>2020-11-16T20:09:36Z</time>
      </trkpt>
      <trkpt lat="28.6955730" lon="-17.9303920">
        <ele>1000.9</ele>
        <time>2020-11-16T20:09:37Z</time>
      </trkpt>
      <trkpt lat="28.6955430" lon="-17.9304870">
        <ele>996.7</ele>
        <time>2020-11-16T20:09:38Z</time>
      </trkpt>
      <trkpt lat="28.6955430" lon="-17.9304870">
        <ele>996.7</ele>
        <time>2020-11-16T20:09:39Z</time>
      </trkpt>
      <trkpt lat="28.6955170" lon="-17.9305580">
        <ele>993.5</ele>
        <time>2020-11-16T20:09:40Z</time>
      </trkpt>
      <trkpt lat="28.6955170" lon="-17.9305580">
        <ele>993.5</ele>
        <time>2020-11-16T20:09:41Z</time>
      </trkpt>
      <trkpt lat="28.6954930" lon="-17.9306170">
        <ele>990.8</ele>
        <time>2020-11-16T20:09:42Z</time>
      </trkpt>
      <trkpt lat="28.6954930" lon="-17.9306170">
        <ele>990.8</ele>
        <time>2020-11-16T20:09:43Z</time>
      </trkpt>
      <trkpt lat="28.6954630" lon="-17.9306570">
        <ele>988.5</ele>
        <time>2020-11-16T20:09:44Z</time>
      </trkpt>
      <trkpt lat="28.6954630" lon="-17.9306570">
        <ele>988.5</ele>
        <time>2020-11-16T20:09:45Z</time>
      </trkpt>
      <trkpt lat="28.6954220" lon="-17.9306730">
        <ele>986.5</ele>
        <time>2020-11-16T20:09:46Z</time>
      </trkpt>
      <trkpt lat="28.6953900" lon="-17.9306880">
        <ele>984.8</ele>
        <time>2020-11-16T20:09:47Z</time>
      </trkpt>
      <trkpt lat="28.6953900" lon="-17.9306880">
        <ele>984.8</ele>
        <time>2020-11-16T20:09:48Z</time>
      </trkpt>
      <trkpt lat="28.6953380" lon="-17.9306800">
        <ele>976.8</ele>
        <time>2020-11-16T20:09:49Z</time>
      </trkpt>
      <trkpt lat="28.6953100" lon="-17.9307050">
        <ele>977.2</ele>
        <time>2020-11-16T20:09:50Z</time>
      </trkpt>
      <trkpt lat="28.6953100" lon="-17.9307050">
        <ele>977.2</ele>
        <time>2020-11-16T20:09:51Z</time>
      </trkpt>
      <trkpt lat="28.6952570" lon="-17.9306980">
        <ele>977.6</ele>
        <time>2020-11-16T20:09:52Z</time>
      </trkpt>
      <trkpt lat="28.6952570" lon="-17.9306980">
        <ele>977.6</ele>
        <time>2020-11-16T20:09:53Z</time>
      </trkpt>
      <trkpt lat="28.6951950" lon="-17.9306820">
        <ele>978.2</ele>
        <time>2020-11-16T20:09:54Z</time>
      </trkpt>
      <trkpt lat="28.6951950" lon="-17.9306820">
        <ele>978.2</ele>
        <time>2020-11-16T20:09:55Z</time>
      </trkpt>
      <trkpt lat="28.6951270" lon="-17.9306480">
        <ele>978.8</ele>
        <time>2020-11-16T20:09:56Z</time>
      </trkpt>
      <trkpt lat="28.6951270" lon="-17.9306480">
        <ele>978.8</ele>
        <time>2020-11-16T20:09:57Z</time>
      </trkpt>
      <trkpt lat="28.6950570" lon="-17.9306080">
        <ele>979.3</ele>
        <time>2020-11-16T20:09:58Z</time>
      </trkpt>
      <trkpt lat="28.6950570" lon="-17.9306080">
        <ele>979.3</ele>
        <time>2020-11-16T20:09:59Z</time>
      </trkpt>
      <trkpt lat="28.6950020" lon="-17.9305430">
        <ele>979.9</ele>
        <time>2020-11-16T20:10:00Z</time>
      </trkpt>
      <trkpt lat="28.6950020" lon="-17.9305430">
        <ele>979.9</ele>
        <time>2020-11-16T20:10:01Z</time>
      </trkpt>
      <trkpt lat="28.6949630" lon="-17.9304600">
        <ele>980.5</ele>
        <time>2020-11-16T20:10:02Z</time>
      </trkpt>
      <trkpt lat="28.6949630" lon="-17.9304600">
        <ele>980.5</ele>
        <time>2020-11-16T20:10:03Z</time>
      </trkpt>
      <trkpt lat="28.6949380" lon="-17.9303770">
        <ele>981.2</ele>
        <time>2020-11-16T20:10:04Z</time>
      </trkpt>
      <trkpt lat="28.6949250" lon="-17.9303330">
        <ele>981.4</ele>
        <time>2020-11-16T20:10:05Z</time>
      </trkpt>
      <trkpt lat="28.6949130" lon="-17.9302930">
        <ele>981.6</ele>
        <time>2020-11-16T20:10:06Z</time>
      </trkpt>
      <trkpt lat="28.6949130" lon="-17.9302930">
        <ele>981.6</ele>
        <time>2020-11-16T20:10:07Z</time>
      </trkpt>
      <trkpt lat="28.6948920" lon="-17.9302070">
        <ele>981.9</ele>
        <time>2020-11-16T20:10:08Z</time>
      </trkpt>
      <trkpt lat="28.6948920" lon="-17.9302070">
        <ele>981.9</ele>
        <time>2020-11-16T20:10:09Z</time>
      </trkpt>
      <trkpt lat="28.6948650" lon="-17.9301070">
        <ele>981.8</ele>
        <time>2020-11-16T20:10:10Z</time>
      </trkpt>
      <trkpt lat="28.6948450" lon="-17.9300570">
        <ele>981.7</ele>
        <time>2020-11-16T20:10:11Z</time>
      </trkpt>
      <trkpt lat="28.6948450" lon="-17.9300570">
        <ele>981.7</ele>
        <time>2020-11-16T20:10:12Z</time>
      </trkpt>
      <trkpt lat="28.6947870" lon="-17.9299920">
        <ele>981.5</ele>
        <time>2020-11-16T20:10:13Z</time>
      </trkpt>
      <trkpt lat="28.6947500" lon="-17.9299980">
        <ele>981.6</ele>
        <time>2020-11-16T20:10:14Z</time>
      </trkpt>
      <trkpt lat="28.6947130" lon="-17.9300080">
        <ele>981.7</ele>
        <time>2020-11-16T20:10:15Z</time>
      </trkpt>
      <trkpt lat="28.6947130" lon="-17.9300080">
        <ele>981.7</ele>
        <time>2020-11-16T20:10:16Z</time>
      </trkpt>
      <trkpt lat="28.6946330" lon="-17.9300320">
        <ele>982.1</ele>
        <time>2020-11-16T20:10:17Z</time>
      </trkpt>
      <trkpt lat="28.6946330" lon="-17.9300320">
        <ele>982.1</ele>
        <time>2020-11-16T20:10:18Z</time>
      </trkpt>
      <trkpt lat="28.6945430" lon="-17.9300670">
        <ele>982.8</ele>
        <time>2020-11-16T20:10:19Z</time>
      </trkpt>
      <trkpt lat="28.6945430" lon="-17.9300670">
        <ele>982.8</ele>
        <time>2020-11-16T20:10:20Z</time>
      </trkpt>
      <trkpt lat="28.6944530" lon="-17.9301330">
        <ele>983.9</ele>
        <time>2020-11-16T20:10:21Z</time>
      </trkpt>
      <trkpt lat="28.6944120" lon="-17.9301780">
        <ele>984.5</ele>
        <time>2020-11-16T20:10:22Z</time>
      </trkpt>
      <trkpt lat="28.6944120" lon="-17.9301780">
        <ele>984.5</ele>
        <time>2020-11-16T20:10:23Z</time>
      </trkpt>
      <trkpt lat="28.6943320" lon="-17.9302670">
        <ele>985.6</ele>
        <time>2020-11-16T20:10:24Z</time>
      </trkpt>
      <trkpt lat="28.6943320" lon="-17.9302670">
        <ele>985.6</ele>
        <time>2020-11-16T20:10:25Z</time>
      </trkpt>
      <trkpt lat="28.6942400" lon="-17.9303200">
        <ele>986.7</ele>
        <time>2020-11-16T20:10:26Z</time>
      </trkpt>
      <trkpt lat="28.6942400" lon="-17.9303200">
        <ele>986.7</ele>
        <time>2020-11-16T20:10:27Z</time>
      </trkpt>
      <trkpt lat="28.6941430" lon="-17.9303450">
        <ele>987.9</ele>
        <time>2020-11-16T20:10:28Z</time>
      </trkpt>
      <trkpt lat="28.6941430" lon="-17.9303450">
        <ele>987.9</ele>
        <time>2020-11-16T20:10:29Z</time>
      </trkpt>
      <trkpt lat="28.6940580" lon="-17.9303330">
        <ele>988.9</ele>
        <time>2020-11-16T20:10:30Z</time>
      </trkpt>
      <trkpt lat="28.6940200" lon="-17.9303170">
        <ele>989.4</ele>
        <time>2020-11-16T20:10:31Z</time>
      </trkpt>
      <trkpt lat="28.6940200" lon="-17.9303170">
        <ele>989.4</ele>
        <time>2020-11-16T20:10:32Z</time>
      </trkpt>
      <trkpt lat="28.6939620" lon="-17.9302920">
        <ele>990.3</ele>
        <time>2020-11-16T20:10:33Z</time>
      </trkpt>
      <trkpt lat="28.6939620" lon="-17.9302920">
        <ele>990.3</ele>
        <time>2020-11-16T20:10:34Z</time>
      </trkpt>
      <trkpt lat="28.6939070" lon="-17.9302680">
        <ele>990.9</ele>
        <time>2020-11-16T20:10:35Z</time>
      </trkpt>
      <trkpt lat="28.6939070" lon="-17.9302680">
        <ele>990.9</ele>
        <time>2020-11-16T20:10:36Z</time>
      </trkpt>
      <trkpt lat="28.6938530" lon="-17.9302270">
        <ele>991.5</ele>
        <time>2020-11-16T20:10:37Z</time>
      </trkpt>
      <trkpt lat="28.6938350" lon="-17.9302070">
        <ele>991.6</ele>
        <time>2020-11-16T20:10:38Z</time>
      </trkpt>
      <trkpt lat="28.6938350" lon="-17.9302070">
        <ele>991.6</ele>
        <time>2020-11-16T20:10:39Z</time>
      </trkpt>
      <trkpt lat="28.6937980" lon="-17.9301720">
        <ele>991.8</ele>
        <time>2020-11-16T20:10:40Z</time>
      </trkpt>
      <trkpt lat="28.6937980" lon="-17.9301720">
        <ele>991.8</ele>
        <time>2020-11-16T20:10:41Z</time>
      </trkpt>
      <trkpt lat="28.6937480" lon="-17.9301720">
        <ele>991.3</ele>
        <time>2020-11-16T20:10:42Z</time>
      </trkpt>
      <trkpt lat="28.6937480" lon="-17.9301720">
        <ele>991.3</ele>
        <time>2020-11-16T20:10:43Z</time>
      </trkpt>
      <trkpt lat="28.6937230" lon="-17.9302230">
        <ele>990.8</ele>
        <time>2020-11-16T20:10:44Z</time>
      </trkpt>
      <trkpt lat="28.6937230" lon="-17.9302230">
        <ele>990.8</ele>
        <time>2020-11-16T20:10:45Z</time>
      </trkpt>
      <trkpt lat="28.6937480" lon="-17.9302850">
        <ele>990.2</ele>
        <time>2020-11-16T20:10:46Z</time>
      </trkpt>
      <trkpt lat="28.6937630" lon="-17.9303170">
        <ele>989.9</ele>
        <time>2020-11-16T20:10:47Z</time>
      </trkpt>
      <trkpt lat="28.6937630" lon="-17.9303170">
        <ele>989.9</ele>
        <time>2020-11-16T20:10:48Z</time>
      </trkpt>
      <trkpt lat="28.6937970" lon="-17.9303880">
        <ele>989.2</ele>
        <time>2020-11-16T20:10:49Z</time>
      </trkpt>
      <trkpt lat="28.6938170" lon="-17.9304200">
        <ele>988.9</ele>
        <time>2020-11-16T20:10:50Z</time>
      </trkpt>
      <trkpt lat="28.6938170" lon="-17.9304200">
        <ele>988.9</ele>
        <time>2020-11-16T20:10:51Z</time>
      </trkpt>
      <trkpt lat="28.6938530" lon="-17.9304720">
        <ele>988.3</ele>
        <time>2020-11-16T20:10:52Z</time>
      </trkpt>
      <trkpt lat="28.6938530" lon="-17.9304720">
        <ele>988.3</ele>
        <time>2020-11-16T20:10:53Z</time>
      </trkpt>
      <trkpt lat="28.6938980" lon="-17.9305300">
        <ele>987.6</ele>
        <time>2020-11-16T20:10:54Z</time>
      </trkpt>
      <trkpt lat="28.6938980" lon="-17.9305300">
        <ele>987.6</ele>
        <time>2020-11-16T20:10:55Z</time>
      </trkpt>
      <trkpt lat="28.6939480" lon="-17.9305720">
        <ele>987.0</ele>
        <time>2020-11-16T20:10:56Z</time>
      </trkpt>
      <trkpt lat="28.6939480" lon="-17.9305720">
        <ele>987.0</ele>
        <time>2020-11-16T20:10:57Z</time>
      </trkpt>
      <trkpt lat="28.6940020" lon="-17.9306100">
        <ele>986.4</ele>
        <time>2020-11-16T20:10:58Z</time>
      </trkpt>
      <trkpt lat="28.6940020" lon="-17.9306100">
        <ele>986.4</ele>
        <time>2020-11-16T20:10:59Z</time>
      </trkpt>
      <trkpt lat="28.6940380" lon="-17.9306520">
        <ele>985.9</ele>
        <time>2020-11-16T20:11:00Z</time>
      </trkpt>
      <trkpt lat="28.6940380" lon="-17.9306520">
        <ele>985.9</ele>
        <time>2020-11-16T20:11:01Z</time>
      </trkpt>
      <trkpt lat="28.6940350" lon="-17.9307070">
        <ele>985.4</ele>
        <time>2020-11-16T20:11:02Z</time>
      </trkpt>
      <trkpt lat="28.6940350" lon="-17.9307070">
        <ele>985.4</ele>
        <time>2020-11-16T20:11:03Z</time>
      </trkpt>
      <trkpt lat="28.6939970" lon="-17.9307480">
        <ele>984.9</ele>
        <time>2020-11-16T20:11:04Z</time>
      </trkpt>
      <trkpt lat="28.6939970" lon="-17.9307480">
        <ele>984.9</ele>
        <time>2020-11-16T20:11:05Z</time>
      </trkpt>
      <trkpt lat="28.6939430" lon="-17.9307730">
        <ele>984.3</ele>
        <time>2020-11-16T20:11:06Z</time>
      </trkpt>
      <trkpt lat="28.6939430" lon="-17.9307730">
        <ele>984.3</ele>
        <time>2020-11-16T20:11:07Z</time>
      </trkpt>
      <trkpt lat="28.6938800" lon="-17.9307850">
        <ele>983.7</ele>
        <time>2020-11-16T20:11:08Z</time>
      </trkpt>
      <trkpt lat="28.6938800" lon="-17.9307850">
        <ele>983.7</ele>
        <time>2020-11-16T20:11:09Z</time>
      </trkpt>
      <trkpt lat="28.6938130" lon="-17.9307930">
        <ele>983.0</ele>
        <time>2020-11-16T20:11:10Z</time>
      </trkpt>
      <trkpt lat="28.6938130" lon="-17.9307930">
        <ele>983.0</ele>
        <time>2020-11-16T20:11:11Z</time>
      </trkpt>
      <trkpt lat="28.6937450" lon="-17.9307830">
        <ele>982.4</ele>
        <time>2020-11-16T20:11:12Z</time>
      </trkpt>
      <trkpt lat="28.6937450" lon="-17.9307830">
        <ele>982.4</ele>
        <time>2020-11-16T20:11:13Z</time>
      </trkpt>
      <trkpt lat="28.6936700" lon="-17.9307670">
        <ele>981.6</ele>
        <time>2020-11-16T20:11:14Z</time>
      </trkpt>
      <trkpt lat="28.6936700" lon="-17.9307670">
        <ele>981.6</ele>
        <time>2020-11-16T20:11:15Z</time>
      </trkpt>
      <trkpt lat="28.6935880" lon="-17.9307580">
        <ele>980.8</ele>
        <time>2020-11-16T20:11:16Z</time>
      </trkpt>
      <trkpt lat="28.6935880" lon="-17.9307580">
        <ele>980.8</ele>
        <time>2020-11-16T20:11:17Z</time>
      </trkpt>
      <trkpt lat="28.6935070" lon="-17.9307630">
        <ele>980.0</ele>
        <time>2020-11-16T20:11:18Z</time>
      </trkpt>
      <trkpt lat="28.6935070" lon="-17.9307630">
        <ele>980.0</ele>
        <time>2020-11-16T20:11:19Z</time>
      </trkpt>
      <trkpt lat="28.6934350" lon="-17.9307620">
        <ele>979.3</ele>
        <time>2020-11-16T20:11:20Z</time>
      </trkpt>
      <trkpt lat="28.6934350" lon="-17.9307620">
        <ele>979.3</ele>
        <time>2020-11-16T20:11:21Z</time>
      </trkpt>
      <trkpt lat="28.6933570" lon="-17.9307650">
        <ele>978.5</ele>
        <time>2020-11-16T20:11:22Z</time>
      </trkpt>
      <trkpt lat="28.6933180" lon="-17.9307720">
        <ele>978.1</ele>
        <time>2020-11-16T20:11:23Z</time>
      </trkpt>
      <trkpt lat="28.6933180" lon="-17.9307720">
        <ele>978.1</ele>
        <time>2020-11-16T20:11:24Z</time>
      </trkpt>
      <trkpt lat="28.6932450" lon="-17.9307870">
        <ele>977.4</ele>
        <time>2020-11-16T20:11:25Z</time>
      </trkpt>
      <trkpt lat="28.6932130" lon="-17.9307780">
        <ele>977.1</ele>
        <time>2020-11-16T20:11:26Z</time>
      </trkpt>
      <trkpt lat="28.6932130" lon="-17.9307780">
        <ele>977.1</ele>
        <time>2020-11-16T20:11:27Z</time>
      </trkpt>
      <trkpt lat="28.6931680" lon="-17.9307380">
        <ele>976.5</ele>
        <time>2020-11-16T20:11:28Z</time>
      </trkpt>
      <trkpt lat="28.6931680" lon="-17.9307380">
        <ele>976.5</ele>
        <time>2020-11-16T20:11:29Z</time>
      </trkpt>
      <trkpt lat="28.6931570" lon="-17.9306650">
        <ele>975.9</ele>
        <time>2020-11-16T20:11:30Z</time>
      </trkpt>
      <trkpt lat="28.6931570" lon="-17.9306650">
        <ele>975.9</ele>
        <time>2020-11-16T20:11:31Z</time>
      </trkpt>
      <trkpt lat="28.6931670" lon="-17.9306050">
        <ele>975.3</ele>
        <time>2020-11-16T20:11:32Z</time>
      </trkpt>
      <trkpt lat="28.6931670" lon="-17.9306050">
        <ele>975.3</ele>
        <time>2020-11-16T20:11:33Z</time>
      </trkpt>
      <trkpt lat="28.6931800" lon="-17.9305370">
        <ele>974.7</ele>
        <time>2020-11-16T20:11:34Z</time>
      </trkpt>
      <trkpt lat="28.6931780" lon="-17.9305020">
        <ele>974.4</ele>
        <time>2020-11-16T20:11:35Z</time>
      </trkpt>
      <trkpt lat="28.6931780" lon="-17.9305020">
        <ele>974.4</ele>
        <time>2020-11-16T20:11:36Z</time>
      </trkpt>
      <trkpt lat="28.6931520" lon="-17.9304430">
        <ele>973.9</ele>
        <time>2020-11-16T20:11:37Z</time>
      </trkpt>
      <trkpt lat="28.6931350" lon="-17.9304280">
        <ele>973.7</ele>
        <time>2020-11-16T20:11:38Z</time>
      </trkpt>
      <trkpt lat="28.6931350" lon="-17.9304280">
        <ele>973.7</ele>
        <time>2020-11-16T20:11:39Z</time>
      </trkpt>
      <trkpt lat="28.6930920" lon="-17.9304430">
        <ele>973.2</ele>
        <time>2020-11-16T20:11:40Z</time>
      </trkpt>
      <trkpt lat="28.6930920" lon="-17.9304430">
        <ele>973.2</ele>
        <time>2020-11-16T20:11:41Z</time>
      </trkpt>
      <trkpt lat="28.6930830" lon="-17.9304830">
        <ele>972.9</ele>
        <time>2020-11-16T20:11:42Z</time>
      </trkpt>
      <trkpt lat="28.6930830" lon="-17.9304830">
        <ele>972.9</ele>
        <time>2020-11-16T20:11:43Z</time>
      </trkpt>
      <trkpt lat="28.6930630" lon="-17.9305470">
        <ele>972.3</ele>
        <time>2020-11-16T20:11:44Z</time>
      </trkpt>
      <trkpt lat="28.6930450" lon="-17.9305720">
        <ele>972.0</ele>
        <time>2020-11-16T20:11:45Z</time>
      </trkpt>
      <trkpt lat="28.6930450" lon="-17.9305720">
        <ele>972.0</ele>
        <time>2020-11-16T20:11:46Z</time>
      </trkpt>
      <trkpt lat="28.6930030" lon="-17.9306270">
        <ele>971.4</ele>
        <time>2020-11-16T20:11:47Z</time>
      </trkpt>
      <trkpt lat="28.6929800" lon="-17.9306650">
        <ele>971.0</ele>
        <time>2020-11-16T20:11:48Z</time>
      </trkpt>
      <trkpt lat="28.6929800" lon="-17.9306650">
        <ele>971.0</ele>
        <time>2020-11-16T20:11:49Z</time>
      </trkpt>
      <trkpt lat="28.6929380" lon="-17.9307480">
        <ele>970.1</ele>
        <time>2020-11-16T20:11:50Z</time>
      </trkpt>
      <trkpt lat="28.6929380" lon="-17.9307480">
        <ele>970.1</ele>
        <time>2020-11-16T20:11:51Z</time>
      </trkpt>
      <trkpt lat="28.6928950" lon="-17.9308500">
        <ele>969.1</ele>
        <time>2020-11-16T20:11:52Z</time>
      </trkpt>
      <trkpt lat="28.6928770" lon="-17.9308920">
        <ele>968.7</ele>
        <time>2020-11-16T20:11:53Z</time>
      </trkpt>
      <trkpt lat="28.6928770" lon="-17.9308920">
        <ele>968.7</ele>
        <time>2020-11-16T20:11:54Z</time>
      </trkpt>
      <trkpt lat="28.6928430" lon="-17.9310080">
        <ele>967.7</ele>
        <time>2020-11-16T20:11:55Z</time>
      </trkpt>
      <trkpt lat="28.6928430" lon="-17.9310080">
        <ele>967.7</ele>
        <time>2020-11-16T20:11:56Z</time>
      </trkpt>
      <trkpt lat="28.6928100" lon="-17.9311000">
        <ele>966.8</ele>
        <time>2020-11-16T20:11:57Z</time>
      </trkpt>
      <trkpt lat="28.6927950" lon="-17.9311370">
        <ele>966.5</ele>
        <time>2020-11-16T20:11:58Z</time>
      </trkpt>
      <trkpt lat="28.6927950" lon="-17.9311370">
        <ele>966.5</ele>
        <time>2020-11-16T20:11:59Z</time>
      </trkpt>
      <trkpt lat="28.6927730" lon="-17.9312070">
        <ele>965.8</ele>
        <time>2020-11-16T20:12:00Z</time>
      </trkpt>
      <trkpt lat="28.6927730" lon="-17.9312070">
        <ele>965.8</ele>
        <time>2020-11-16T20:12:01Z</time>
      </trkpt>
      <trkpt lat="28.6927570" lon="-17.9312730">
        <ele>965.2</ele>
        <time>2020-11-16T20:12:02Z</time>
      </trkpt>
      <trkpt lat="28.6927570" lon="-17.9312730">
        <ele>965.2</ele>
        <time>2020-11-16T20:12:03Z</time>
      </trkpt>
      <trkpt lat="28.6927500" lon="-17.9313520">
        <ele>964.5</ele>
        <time>2020-11-16T20:12:04Z</time>
      </trkpt>
      <trkpt lat="28.6927500" lon="-17.9313520">
        <ele>964.5</ele>
        <time>2020-11-16T20:12:05Z</time>
      </trkpt>
      <trkpt lat="28.6927420" lon="-17.9314370">
        <ele>963.8</ele>
        <time>2020-11-16T20:12:06Z</time>
      </trkpt>
      <trkpt lat="28.6927420" lon="-17.9314370">
        <ele>963.8</ele>
        <time>2020-11-16T20:12:07Z</time>
      </trkpt>
      <trkpt lat="28.6927500" lon="-17.9315100">
        <ele>963.2</ele>
        <time>2020-11-16T20:12:08Z</time>
      </trkpt>
      <trkpt lat="28.6927500" lon="-17.9315100">
        <ele>963.2</ele>
        <time>2020-11-16T20:12:09Z</time>
      </trkpt>
      <trkpt lat="28.6927830" lon="-17.9315750">
        <ele>962.5</ele>
        <time>2020-11-16T20:12:10Z</time>
      </trkpt>
      <trkpt lat="28.6927830" lon="-17.9315750">
        <ele>962.5</ele>
        <time>2020-11-16T20:12:11Z</time>
      </trkpt>
      <trkpt lat="28.6928250" lon="-17.9316220">
        <ele>961.9</ele>
        <time>2020-11-16T20:12:12Z</time>
      </trkpt>
      <trkpt lat="28.6928250" lon="-17.9316220">
        <ele>961.9</ele>
        <time>2020-11-16T20:12:13Z</time>
      </trkpt>
      <trkpt lat="28.6928670" lon="-17.9316550">
        <ele>961.4</ele>
        <time>2020-11-16T20:12:14Z</time>
      </trkpt>
      <trkpt lat="28.6928670" lon="-17.9316550">
        <ele>961.4</ele>
        <time>2020-11-16T20:12:15Z</time>
      </trkpt>
      <trkpt lat="28.6929180" lon="-17.9316850">
        <ele>960.9</ele>
        <time>2020-11-16T20:12:16Z</time>
      </trkpt>
      <trkpt lat="28.6929180" lon="-17.9316850">
        <ele>960.9</ele>
        <time>2020-11-16T20:12:17Z</time>
      </trkpt>
      <trkpt lat="28.6929720" lon="-17.9317150">
        <ele>960.3</ele>
        <time>2020-11-16T20:12:18Z</time>
      </trkpt>
      <trkpt lat="28.6929720" lon="-17.9317150">
        <ele>960.3</ele>
        <time>2020-11-16T20:12:19Z</time>
      </trkpt>
      <trkpt lat="28.6930370" lon="-17.9317570">
        <ele>959.5</ele>
        <time>2020-11-16T20:12:20Z</time>
      </trkpt>
      <trkpt lat="28.6930370" lon="-17.9317570">
        <ele>959.5</ele>
        <time>2020-11-16T20:12:21Z</time>
      </trkpt>
      <trkpt lat="28.6931180" lon="-17.9318230">
        <ele>958.6</ele>
        <time>2020-11-16T20:12:22Z</time>
      </trkpt>
      <trkpt lat="28.6931620" lon="-17.9318580">
        <ele>958.0</ele>
        <time>2020-11-16T20:12:23Z</time>
      </trkpt>
      <trkpt lat="28.6931620" lon="-17.9318580">
        <ele>958.0</ele>
        <time>2020-11-16T20:12:24Z</time>
      </trkpt>
      <trkpt lat="28.6932350" lon="-17.9319280">
        <ele>957.1</ele>
        <time>2020-11-16T20:12:25Z</time>
      </trkpt>
      <trkpt lat="28.6932350" lon="-17.9319280">
        <ele>957.1</ele>
        <time>2020-11-16T20:12:26Z</time>
      </trkpt>
      <trkpt lat="28.6933150" lon="-17.9320000">
        <ele>956.1</ele>
        <time>2020-11-16T20:12:27Z</time>
      </trkpt>
      <trkpt lat="28.6933150" lon="-17.9320000">
        <ele>956.1</ele>
        <time>2020-11-16T20:12:28Z</time>
      </trkpt>
      <trkpt lat="28.6933980" lon="-17.9320670">
        <ele>955.1</ele>
        <time>2020-11-16T20:12:29Z</time>
      </trkpt>
      <trkpt lat="28.6934380" lon="-17.9321020">
        <ele>954.6</ele>
        <time>2020-11-16T20:12:30Z</time>
      </trkpt>
      <trkpt lat="28.6934380" lon="-17.9321020">
        <ele>954.6</ele>
        <time>2020-11-16T20:12:31Z</time>
      </trkpt>
      <trkpt lat="28.6935130" lon="-17.9321680">
        <ele>953.7</ele>
        <time>2020-11-16T20:12:32Z</time>
      </trkpt>
      <trkpt lat="28.6935130" lon="-17.9321680">
        <ele>953.7</ele>
        <time>2020-11-16T20:12:33Z</time>
      </trkpt>
      <trkpt lat="28.6935730" lon="-17.9322330">
        <ele>952.8</ele>
        <time>2020-11-16T20:12:34Z</time>
      </trkpt>
      <trkpt lat="28.6936000" lon="-17.9322600">
        <ele>952.5</ele>
        <time>2020-11-16T20:12:35Z</time>
      </trkpt>
      <trkpt lat="28.6936000" lon="-17.9322600">
        <ele>952.5</ele>
        <time>2020-11-16T20:12:36Z</time>
      </trkpt>
      <trkpt lat="28.6936600" lon="-17.9323000">
        <ele>951.8</ele>
        <time>2020-11-16T20:12:37Z</time>
      </trkpt>
      <trkpt lat="28.6936950" lon="-17.9323020">
        <ele>951.5</ele>
        <time>2020-11-16T20:12:38Z</time>
      </trkpt>
      <trkpt lat="28.6936950" lon="-17.9323020">
        <ele>951.5</ele>
        <time>2020-11-16T20:12:39Z</time>
      </trkpt>
      <trkpt lat="28.6937550" lon="-17.9322600">
        <ele>950.8</ele>
        <time>2020-11-16T20:12:40Z</time>
      </trkpt>
      <trkpt lat="28.6937550" lon="-17.9322600">
        <ele>950.8</ele>
        <time>2020-11-16T20:12:41Z</time>
      </trkpt>
      <trkpt lat="28.6938000" lon="-17.9321980">
        <ele>950.1</ele>
        <time>2020-11-16T20:12:42Z</time>
      </trkpt>
      <trkpt lat="28.6938000" lon="-17.9321980">
        <ele>950.1</ele>
        <time>2020-11-16T20:12:43Z</time>
      </trkpt>
      <trkpt lat="28.6938500" lon="-17.9321420">
        <ele>949.4</ele>
        <time>2020-11-16T20:12:44Z</time>
      </trkpt>
      <trkpt lat="28.6938500" lon="-17.9321420">
        <ele>949.4</ele>
        <time>2020-11-16T20:12:45Z</time>
      </trkpt>
      <trkpt lat="28.6939070" lon="-17.9320780">
        <ele>948.6</ele>
        <time>2020-11-16T20:12:46Z</time>
      </trkpt>
      <trkpt lat="28.6939400" lon="-17.9320450">
        <ele>948.1</ele>
        <time>2020-11-16T20:12:47Z</time>
      </trkpt>
      <trkpt lat="28.6939400" lon="-17.9320450">
        <ele>948.1</ele>
        <time>2020-11-16T20:12:48Z</time>
      </trkpt>
      <trkpt lat="28.6940070" lon="-17.9320000">
        <ele>947.4</ele>
        <time>2020-11-16T20:12:49Z</time>
      </trkpt>
      <trkpt lat="28.6940370" lon="-17.9320000">
        <ele>947.1</ele>
        <time>2020-11-16T20:12:50Z</time>
      </trkpt>
      <trkpt lat="28.6940620" lon="-17.9320120">
        <ele>946.8</ele>
        <time>2020-11-16T20:12:51Z</time>
      </trkpt>
      <trkpt lat="28.6940620" lon="-17.9320120">
        <ele>946.8</ele>
        <time>2020-11-16T20:12:52Z</time>
      </trkpt>
      <trkpt lat="28.6940830" lon="-17.9320820">
        <ele>946.2</ele>
        <time>2020-11-16T20:12:53Z</time>
      </trkpt>
      <trkpt lat="28.6940830" lon="-17.9320820">
        <ele>946.2</ele>
        <time>2020-11-16T20:12:54Z</time>
      </trkpt>
      <trkpt lat="28.6940950" lon="-17.9321880">
        <ele>945.3</ele>
        <time>2020-11-16T20:12:55Z</time>
      </trkpt>
      <trkpt lat="28.6940950" lon="-17.9321880">
        <ele>945.3</ele>
        <time>2020-11-16T20:12:56Z</time>
      </trkpt>
      <trkpt lat="28.6941080" lon="-17.9323170">
        <ele>944.1</ele>
        <time>2020-11-16T20:12:57Z</time>
      </trkpt>
      <trkpt lat="28.6941080" lon="-17.9323170">
        <ele>944.1</ele>
        <time>2020-11-16T20:12:58Z</time>
      </trkpt>
      <trkpt lat="28.6941180" lon="-17.9324350">
        <ele>943.1</ele>
        <time>2020-11-16T20:12:59Z</time>
      </trkpt>
      <trkpt lat="28.6941180" lon="-17.9324350">
        <ele>943.1</ele>
        <time>2020-11-16T20:13:00Z</time>
      </trkpt>
      <trkpt lat="28.6941250" lon="-17.9325130">
        <ele>942.4</ele>
        <time>2020-11-16T20:13:01Z</time>
      </trkpt>
      <trkpt lat="28.6941250" lon="-17.9325130">
        <ele>942.4</ele>
        <time>2020-11-16T20:13:02Z</time>
      </trkpt>
      <trkpt lat="28.6941120" lon="-17.9325900">
        <ele>941.8</ele>
        <time>2020-11-16T20:13:03Z</time>
      </trkpt>
      <trkpt lat="28.6941120" lon="-17.9325900">
        <ele>941.8</ele>
        <time>2020-11-16T20:13:04Z</time>
      </trkpt>
      <trkpt lat="28.6940820" lon="-17.9326970">
        <ele>940.8</ele>
        <time>2020-11-16T20:13:05Z</time>
      </trkpt>
      <trkpt lat="28.6940620" lon="-17.9327520">
        <ele>940.3</ele>
        <time>2020-11-16T20:13:06Z</time>
      </trkpt>
      <trkpt lat="28.6940620" lon="-17.9327520">
        <ele>940.3</ele>
        <time>2020-11-16T20:13:07Z</time>
      </trkpt>
      <trkpt lat="28.6940220" lon="-17.9328500">
        <ele>939.3</ele>
        <time>2020-11-16T20:13:08Z</time>
      </trkpt>
      <trkpt lat="28.6940220" lon="-17.9328500">
        <ele>939.3</ele>
        <time>2020-11-16T20:13:09Z</time>
      </trkpt>
      <trkpt lat="28.6939820" lon="-17.9329270">
        <ele>938.6</ele>
        <time>2020-11-16T20:13:10Z</time>
      </trkpt>
      <trkpt lat="28.6939600" lon="-17.9329620">
        <ele>938.2</ele>
        <time>2020-11-16T20:13:11Z</time>
      </trkpt>
      <trkpt lat="28.6939600" lon="-17.9329620">
        <ele>938.2</ele>
        <time>2020-11-16T20:13:12Z</time>
      </trkpt>
      <trkpt lat="28.6939150" lon="-17.9330480">
        <ele>937.3</ele>
        <time>2020-11-16T20:13:13Z</time>
      </trkpt>
      <trkpt lat="28.6939150" lon="-17.9330480">
        <ele>937.3</ele>
        <time>2020-11-16T20:13:14Z</time>
      </trkpt>
      <trkpt lat="28.6938730" lon="-17.9331370">
        <ele>936.4</ele>
        <time>2020-11-16T20:13:15Z</time>
      </trkpt>
      <trkpt lat="28.6938730" lon="-17.9331370">
        <ele>936.4</ele>
        <time>2020-11-16T20:13:16Z</time>
      </trkpt>
      <trkpt lat="28.6938380" lon="-17.9332220">
        <ele>935.6</ele>
        <time>2020-11-16T20:13:17Z</time>
      </trkpt>
      <trkpt lat="28.6938380" lon="-17.9332220">
        <ele>935.6</ele>
        <time>2020-11-16T20:13:18Z</time>
      </trkpt>
      <trkpt lat="28.6938180" lon="-17.9333020">
        <ele>934.9</ele>
        <time>2020-11-16T20:13:19Z</time>
      </trkpt>
      <trkpt lat="28.6938270" lon="-17.9333430">
        <ele>934.5</ele>
        <time>2020-11-16T20:13:20Z</time>
      </trkpt>
      <trkpt lat="28.6938270" lon="-17.9333430">
        <ele>934.5</ele>
        <time>2020-11-16T20:13:21Z</time>
      </trkpt>
      <trkpt lat="28.6938720" lon="-17.9334030">
        <ele>933.9</ele>
        <time>2020-11-16T20:13:22Z</time>
      </trkpt>
      <trkpt lat="28.6939000" lon="-17.9334280">
        <ele>933.5</ele>
        <time>2020-11-16T20:13:23Z</time>
      </trkpt>
      <trkpt lat="28.6939000" lon="-17.9334280">
        <ele>933.5</ele>
        <time>2020-11-16T20:13:24Z</time>
      </trkpt>
      <trkpt lat="28.6939680" lon="-17.9334630">
        <ele>932.8</ele>
        <time>2020-11-16T20:13:25Z</time>
      </trkpt>
      <trkpt lat="28.6939680" lon="-17.9334630">
        <ele>932.8</ele>
        <time>2020-11-16T20:13:26Z</time>
      </trkpt>
      <trkpt lat="28.6940350" lon="-17.9334730">
        <ele>932.1</ele>
        <time>2020-11-16T20:13:27Z</time>
      </trkpt>
      <trkpt lat="28.6940350" lon="-17.9334730">
        <ele>932.1</ele>
        <time>2020-11-16T20:13:28Z</time>
      </trkpt>
      <trkpt lat="28.6940950" lon="-17.9334650">
        <ele>931.5</ele>
        <time>2020-11-16T20:13:29Z</time>
      </trkpt>
      <trkpt lat="28.6940950" lon="-17.9334650">
        <ele>931.5</ele>
        <time>2020-11-16T20:13:30Z</time>
      </trkpt>
      <trkpt lat="28.6941630" lon="-17.9334570">
        <ele>930.8</ele>
        <time>2020-11-16T20:13:31Z</time>
      </trkpt>
      <trkpt lat="28.6941630" lon="-17.9334570">
        <ele>930.8</ele>
        <time>2020-11-16T20:13:32Z</time>
      </trkpt>
      <trkpt lat="28.6942420" lon="-17.9334470">
        <ele>930.1</ele>
        <time>2020-11-16T20:13:33Z</time>
      </trkpt>
      <trkpt lat="28.6942420" lon="-17.9334470">
        <ele>930.1</ele>
        <time>2020-11-16T20:13:34Z</time>
      </trkpt>
      <trkpt lat="28.6943100" lon="-17.9334330">
        <ele>929.4</ele>
        <time>2020-11-16T20:13:35Z</time>
      </trkpt>
      <trkpt lat="28.6943100" lon="-17.9334330">
        <ele>929.4</ele>
        <time>2020-11-16T20:13:36Z</time>
      </trkpt>
      <trkpt lat="28.6943850" lon="-17.9334280">
        <ele>928.6</ele>
        <time>2020-11-16T20:13:37Z</time>
      </trkpt>
      <trkpt lat="28.6943850" lon="-17.9334280">
        <ele>928.6</ele>
        <time>2020-11-16T20:13:38Z</time>
      </trkpt>
      <trkpt lat="28.6944550" lon="-17.9334280">
        <ele>927.9</ele>
        <time>2020-11-16T20:13:39Z</time>
      </trkpt>
      <trkpt lat="28.6944550" lon="-17.9334280">
        <ele>927.9</ele>
        <time>2020-11-16T20:13:40Z</time>
      </trkpt>
      <trkpt lat="28.6945230" lon="-17.9334320">
        <ele>927.3</ele>
        <time>2020-11-16T20:13:41Z</time>
      </trkpt>
      <trkpt lat="28.6945230" lon="-17.9334320">
        <ele>927.3</ele>
        <time>2020-11-16T20:13:42Z</time>
      </trkpt>
      <trkpt lat="28.6945900" lon="-17.9334550">
        <ele>926.6</ele>
        <time>2020-11-16T20:13:43Z</time>
      </trkpt>
      <trkpt lat="28.6945900" lon="-17.9334550">
        <ele>926.6</ele>
        <time>2020-11-16T20:13:44Z</time>
      </trkpt>
      <trkpt lat="28.6946530" lon="-17.9334770">
        <ele>925.9</ele>
        <time>2020-11-16T20:13:45Z</time>
      </trkpt>
      <trkpt lat="28.6946530" lon="-17.9334770">
        <ele>925.9</ele>
        <time>2020-11-16T20:13:46Z</time>
      </trkpt>
      <trkpt lat="28.6947080" lon="-17.9334980">
        <ele>925.4</ele>
        <time>2020-11-16T20:13:47Z</time>
      </trkpt>
      <trkpt lat="28.6947080" lon="-17.9334980">
        <ele>925.4</ele>
        <time>2020-11-16T20:13:48Z</time>
      </trkpt>
      <trkpt lat="28.6947570" lon="-17.9335270">
        <ele>924.8</ele>
        <time>2020-11-16T20:13:49Z</time>
      </trkpt>
      <trkpt lat="28.6947750" lon="-17.9335430">
        <ele>924.6</ele>
        <time>2020-11-16T20:13:50Z</time>
      </trkpt>
      <trkpt lat="28.6947750" lon="-17.9335430">
        <ele>924.6</ele>
        <time>2020-11-16T20:13:51Z</time>
      </trkpt>
      <trkpt lat="28.6948200" lon="-17.9335650">
        <ele>924.1</ele>
        <time>2020-11-16T20:13:52Z</time>
      </trkpt>
      <trkpt lat="28.6948480" lon="-17.9335630">
        <ele>923.8</ele>
        <time>2020-11-16T20:13:53Z</time>
      </trkpt>
      <trkpt lat="28.6948480" lon="-17.9335630">
        <ele>923.8</ele>
        <time>2020-11-16T20:13:54Z</time>
      </trkpt>
      <trkpt lat="28.6949130" lon="-17.9335570">
        <ele>923.2</ele>
        <time>2020-11-16T20:13:55Z</time>
      </trkpt>
      <trkpt lat="28.6949130" lon="-17.9335570">
        <ele>923.2</ele>
        <time>2020-11-16T20:13:56Z</time>
      </trkpt>
      <trkpt lat="28.6949870" lon="-17.9335720">
        <ele>922.4</ele>
        <time>2020-11-16T20:13:57Z</time>
      </trkpt>
      <trkpt lat="28.6949870" lon="-17.9335720">
        <ele>922.4</ele>
        <time>2020-11-16T20:13:58Z</time>
      </trkpt>
      <trkpt lat="28.6950350" lon="-17.9336270">
        <ele>921.8</ele>
        <time>2020-11-16T20:13:59Z</time>
      </trkpt>
      <trkpt lat="28.6950350" lon="-17.9336270">
        <ele>921.8</ele>
        <time>2020-11-16T20:14:00Z</time>
      </trkpt>
      <trkpt lat="28.6950730" lon="-17.9336820">
        <ele>921.2</ele>
        <time>2020-11-16T20:14:01Z</time>
      </trkpt>
      <trkpt lat="28.6950730" lon="-17.9336820">
        <ele>921.2</ele>
        <time>2020-11-16T20:14:02Z</time>
      </trkpt>
      <trkpt lat="28.6951280" lon="-17.9336920">
        <ele>920.6</ele>
        <time>2020-11-16T20:14:03Z</time>
      </trkpt>
      <trkpt lat="28.6951550" lon="-17.9336870">
        <ele>920.4</ele>
        <time>2020-11-16T20:14:04Z</time>
      </trkpt>
      <trkpt lat="28.6951550" lon="-17.9336870">
        <ele>920.4</ele>
        <time>2020-11-16T20:14:05Z</time>
      </trkpt>
      <trkpt lat="28.6952000" lon="-17.9336700">
        <ele>919.9</ele>
        <time>2020-11-16T20:14:06Z</time>
      </trkpt>
      <trkpt lat="28.6952250" lon="-17.9336580">
        <ele>919.6</ele>
        <time>2020-11-16T20:14:07Z</time>
      </trkpt>
      <trkpt lat="28.6952480" lon="-17.9336450">
        <ele>919.4</ele>
        <time>2020-11-16T20:14:08Z</time>
      </trkpt>
      <trkpt lat="28.6952480" lon="-17.9336450">
        <ele>919.4</ele>
        <time>2020-11-16T20:14:09Z</time>
      </trkpt>
      <trkpt lat="28.6952970" lon="-17.9335970">
        <ele>918.7</ele>
        <time>2020-11-16T20:14:10Z</time>
      </trkpt>
      <trkpt lat="28.6953200" lon="-17.9335680">
        <ele>918.4</ele>
        <time>2020-11-16T20:14:11Z</time>
      </trkpt>
      <trkpt lat="28.6953200" lon="-17.9335680">
        <ele>918.4</ele>
        <time>2020-11-16T20:14:12Z</time>
      </trkpt>
      <trkpt lat="28.6953570" lon="-17.9335080">
        <ele>917.8</ele>
        <time>2020-11-16T20:14:13Z</time>
      </trkpt>
      <trkpt lat="28.6953570" lon="-17.9335080">
        <ele>917.8</ele>
        <time>2020-11-16T20:14:14Z</time>
      </trkpt>
      <trkpt lat="28.6953980" lon="-17.9334370">
        <ele>917.0</ele>
        <time>2020-11-16T20:14:15Z</time>
      </trkpt>
      <trkpt lat="28.6953980" lon="-17.9334370">
        <ele>917.0</ele>
        <time>2020-11-16T20:14:16Z</time>
      </trkpt>
      <trkpt lat="28.6954430" lon="-17.9333570">
        <ele>916.2</ele>
        <time>2020-11-16T20:14:17Z</time>
      </trkpt>
      <trkpt lat="28.6954680" lon="-17.9333200">
        <ele>915.8</ele>
        <time>2020-11-16T20:14:18Z</time>
      </trkpt>
      <trkpt lat="28.6954880" lon="-17.9332850">
        <ele>915.4</ele>
        <time>2020-11-16T20:14:19Z</time>
      </trkpt>
      <trkpt lat="28.6954880" lon="-17.9332850">
        <ele>915.4</ele>
        <time>2020-11-16T20:14:20Z</time>
      </trkpt>
      <trkpt lat="28.6955250" lon="-17.9332180">
        <ele>914.7</ele>
        <time>2020-11-16T20:14:21Z</time>
      </trkpt>
      <trkpt lat="28.6955250" lon="-17.9332180">
        <ele>914.7</ele>
        <time>2020-11-16T20:14:22Z</time>
      </trkpt>
      <trkpt lat="28.6955950" lon="-17.9331570">
        <ele>913.9</ele>
        <time>2020-11-16T20:14:23Z</time>
      </trkpt>
      <trkpt lat="28.6955950" lon="-17.9331570">
        <ele>913.9</ele>
        <time>2020-11-16T20:14:24Z</time>
      </trkpt>
      <trkpt lat="28.6956780" lon="-17.9330970">
        <ele>912.9</ele>
        <time>2020-11-16T20:14:25Z</time>
      </trkpt>
      <trkpt lat="28.6957180" lon="-17.9330650">
        <ele>912.4</ele>
        <time>2020-11-16T20:14:26Z</time>
      </trkpt>
      <trkpt lat="28.6957180" lon="-17.9330650">
        <ele>912.4</ele>
        <time>2020-11-16T20:14:27Z</time>
      </trkpt>
      <trkpt lat="28.6957950" lon="-17.9330020">
        <ele>911.5</ele>
        <time>2020-11-16T20:14:28Z</time>
      </trkpt>
      <trkpt lat="28.6958380" lon="-17.9329580">
        <ele>910.9</ele>
        <time>2020-11-16T20:14:29Z</time>
      </trkpt>
      <trkpt lat="28.6958380" lon="-17.9329580">
        <ele>910.9</ele>
        <time>2020-11-16T20:14:30Z</time>
      </trkpt>
      <trkpt lat="28.6958950" lon="-17.9329250">
        <ele>910.3</ele>
        <time>2020-11-16T20:14:31Z</time>
      </trkpt>
      <trkpt lat="28.6958950" lon="-17.9329250">
        <ele>910.3</ele>
        <time>2020-11-16T20:14:32Z</time>
      </trkpt>
      <trkpt lat="28.6959380" lon="-17.9329420">
        <ele>909.8</ele>
        <time>2020-11-16T20:14:33Z</time>
      </trkpt>
      <trkpt lat="28.6959380" lon="-17.9329420">
        <ele>909.8</ele>
        <time>2020-11-16T20:14:34Z</time>
      </trkpt>
      <trkpt lat="28.6959450" lon="-17.9330020">
        <ele>909.3</ele>
        <time>2020-11-16T20:14:35Z</time>
      </trkpt>
      <trkpt lat="28.6959450" lon="-17.9330020">
        <ele>909.3</ele>
        <time>2020-11-16T20:14:36Z</time>
      </trkpt>
      <trkpt lat="28.6959330" lon="-17.9330520">
        <ele>908.9</ele>
        <time>2020-11-16T20:14:37Z</time>
      </trkpt>
      <trkpt lat="28.6959220" lon="-17.9330620">
        <ele>908.7</ele>
        <time>2020-11-16T20:14:38Z</time>
      </trkpt>
      <trkpt lat="28.6959220" lon="-17.9330620">
        <ele>908.7</ele>
        <time>2020-11-16T20:14:39Z</time>
      </trkpt>
      <trkpt lat="28.6959180" lon="-17.9330730">
        <ele>908.6</ele>
        <time>2020-11-16T20:14:40Z</time>
      </trkpt>
      <trkpt lat="28.6959180" lon="-17.9330730">
        <ele>908.6</ele>
        <time>2020-11-16T20:14:41Z</time>
      </trkpt>
      <trkpt lat="28.6959180" lon="-17.9330730">
        <ele>908.6</ele>
        <time>2020-11-16T20:15:47Z</time>
      </trkpt>
      <trkpt lat="28.6958370" lon="-17.9331580">
        <ele>907.5</ele>
        <time>2020-11-16T20:15:48Z</time>
      </trkpt>
      <trkpt lat="28.6958370" lon="-17.9331580">
        <ele>907.5</ele>
        <time>2020-11-16T20:15:49Z</time>
      </trkpt>
      <trkpt lat="28.6957450" lon="-17.9332220">
        <ele>906.5</ele>
        <time>2020-11-16T20:15:50Z</time>
      </trkpt>
      <trkpt lat="28.6957450" lon="-17.9332220">
        <ele>906.5</ele>
        <time>2020-11-16T20:15:51Z</time>
      </trkpt>
      <trkpt lat="28.6957020" lon="-17.9332700">
        <ele>905.9</ele>
        <time>2020-11-16T20:15:52Z</time>
      </trkpt>
      <trkpt lat="28.6957020" lon="-17.9332700">
        <ele>905.9</ele>
        <time>2020-11-16T20:15:53Z</time>
      </trkpt>
      <trkpt lat="28.6956670" lon="-17.9333430">
        <ele>904.5</ele>
        <time>2020-11-16T20:15:54Z</time>
      </trkpt>
      <trkpt lat="28.6956670" lon="-17.9333430">
        <ele>904.5</ele>
        <time>2020-11-16T20:15:55Z</time>
      </trkpt>
      <trkpt lat="28.6956460" lon="-17.9333840">
        <ele>903.3</ele>
        <time>2020-11-16T20:15:56Z</time>
      </trkpt>
      <trkpt lat="28.6956250" lon="-17.9334250">
        <ele>902.2</ele>
        <time>2020-11-16T20:15:57Z</time>
      </trkpt>
      <trkpt lat="28.6955830" lon="-17.9335070">
        <ele>899.9</ele>
        <time>2020-11-16T20:15:58Z</time>
      </trkpt>
      <trkpt lat="28.6955830" lon="-17.9335070">
        <ele>899.9</ele>
        <time>2020-11-16T20:15:59Z</time>
      </trkpt>
      <trkpt lat="28.6955520" lon="-17.9335770">
        <ele>898.0</ele>
        <time>2020-11-16T20:16:00Z</time>
      </trkpt>
      <trkpt lat="28.6955520" lon="-17.9335770">
        <ele>898.0</ele>
        <time>2020-11-16T20:16:01Z</time>
      </trkpt>
      <trkpt lat="28.6955220" lon="-17.9336470">
        <ele>896.2</ele>
        <time>2020-11-16T20:16:02Z</time>
      </trkpt>
      <trkpt lat="28.6955220" lon="-17.9336470">
        <ele>896.2</ele>
        <time>2020-11-16T20:16:03Z</time>
      </trkpt>
      <trkpt lat="28.6954930" lon="-17.9337180">
        <ele>894.3</ele>
        <time>2020-11-16T20:16:04Z</time>
      </trkpt>
      <trkpt lat="28.6954780" lon="-17.9337580">
        <ele>893.2</ele>
        <time>2020-11-16T20:16:05Z</time>
      </trkpt>
      <trkpt lat="28.6954630" lon="-17.9337980">
        <ele>892.2</ele>
        <time>2020-11-16T20:16:06Z</time>
      </trkpt>
      <trkpt lat="28.6954630" lon="-17.9337980">
        <ele>892.2</ele>
        <time>2020-11-16T20:16:07Z</time>
      </trkpt>
      <trkpt lat="28.6954400" lon="-17.9338880">
        <ele>889.9</ele>
        <time>2020-11-16T20:16:08Z</time>
      </trkpt>
      <trkpt lat="28.6954400" lon="-17.9338880">
        <ele>889.9</ele>
        <time>2020-11-16T20:16:09Z</time>
      </trkpt>
      <trkpt lat="28.6954250" lon="-17.9339850">
        <ele>887.6</ele>
        <time>2020-11-16T20:16:10Z</time>
      </trkpt>
      <trkpt lat="28.6954150" lon="-17.9340300">
        <ele>886.4</ele>
        <time>2020-11-16T20:16:11Z</time>
      </trkpt>
      <trkpt lat="28.6954150" lon="-17.9340300">
        <ele>886.4</ele>
        <time>2020-11-16T20:16:12Z</time>
      </trkpt>
      <trkpt lat="28.6953820" lon="-17.9341000">
        <ele>884.5</ele>
        <time>2020-11-16T20:16:13Z</time>
      </trkpt>
      <trkpt lat="28.6953820" lon="-17.9341000">
        <ele>884.5</ele>
        <time>2020-11-16T20:16:14Z</time>
      </trkpt>
      <trkpt lat="28.6953400" lon="-17.9341580">
        <ele>882.7</ele>
        <time>2020-11-16T20:16:15Z</time>
      </trkpt>
      <trkpt lat="28.6953400" lon="-17.9341580">
        <ele>882.7</ele>
        <time>2020-11-16T20:16:16Z</time>
      </trkpt>
      <trkpt lat="28.6952930" lon="-17.9342000">
        <ele>881.1</ele>
        <time>2020-11-16T20:16:17Z</time>
      </trkpt>
      <trkpt lat="28.6952930" lon="-17.9342000">
        <ele>881.1</ele>
        <time>2020-11-16T20:16:18Z</time>
      </trkpt>
      <trkpt lat="28.6952500" lon="-17.9342430">
        <ele>879.5</ele>
        <time>2020-11-16T20:16:19Z</time>
      </trkpt>
      <trkpt lat="28.6952500" lon="-17.9342430">
        <ele>879.5</ele>
        <time>2020-11-16T20:16:20Z</time>
      </trkpt>
      <trkpt lat="28.6951980" lon="-17.9343030">
        <ele>877.5</ele>
        <time>2020-11-16T20:16:21Z</time>
      </trkpt>
      <trkpt lat="28.6951980" lon="-17.9343030">
        <ele>877.5</ele>
        <time>2020-11-16T20:16:22Z</time>
      </trkpt>
      <trkpt lat="28.6951450" lon="-17.9343750">
        <ele>875.2</ele>
        <time>2020-11-16T20:16:23Z</time>
      </trkpt>
      <trkpt lat="28.6951450" lon="-17.9343750">
        <ele>875.2</ele>
        <time>2020-11-16T20:16:24Z</time>
      </trkpt>
      <trkpt lat="28.6950880" lon="-17.9344570">
        <ele>872.7</ele>
        <time>2020-11-16T20:16:25Z</time>
      </trkpt>
      <trkpt lat="28.6950880" lon="-17.9344570">
        <ele>872.7</ele>
        <time>2020-11-16T20:16:26Z</time>
      </trkpt>
      <trkpt lat="28.6950400" lon="-17.9345430">
        <ele>870.3</ele>
        <time>2020-11-16T20:16:27Z</time>
      </trkpt>
      <trkpt lat="28.6950400" lon="-17.9345430">
        <ele>870.3</ele>
        <time>2020-11-16T20:16:28Z</time>
      </trkpt>
      <trkpt lat="28.6950070" lon="-17.9346100">
        <ele>868.4</ele>
        <time>2020-11-16T20:16:29Z</time>
      </trkpt>
      <trkpt lat="28.6950070" lon="-17.9346100">
        <ele>868.4</ele>
        <time>2020-11-16T20:16:30Z</time>
      </trkpt>
      <trkpt lat="28.6949730" lon="-17.9346820">
        <ele>866.4</ele>
        <time>2020-11-16T20:16:31Z</time>
      </trkpt>
      <trkpt lat="28.6949580" lon="-17.9347150">
        <ele>865.5</ele>
        <time>2020-11-16T20:16:32Z</time>
      </trkpt>
      <trkpt lat="28.6949580" lon="-17.9347150">
        <ele>865.5</ele>
        <time>2020-11-16T20:16:33Z</time>
      </trkpt>
      <trkpt lat="28.6949300" lon="-17.9347730">
        <ele>864.0</ele>
        <time>2020-11-16T20:16:34Z</time>
      </trkpt>
      <trkpt lat="28.6949300" lon="-17.9347730">
        <ele>864.0</ele>
        <time>2020-11-16T20:16:35Z</time>
      </trkpt>
      <trkpt lat="28.6949000" lon="-17.9348350">
        <ele>862.2</ele>
        <time>2020-11-16T20:16:36Z</time>
      </trkpt>
      <trkpt lat="28.6949000" lon="-17.9348350">
        <ele>862.2</ele>
        <time>2020-11-16T20:16:37Z</time>
      </trkpt>
      <trkpt lat="28.6948730" lon="-17.9348970">
        <ele>860.6</ele>
        <time>2020-11-16T20:16:38Z</time>
      </trkpt>
      <trkpt lat="28.6948730" lon="-17.9348970">
        <ele>860.6</ele>
        <time>2020-11-16T20:16:39Z</time>
      </trkpt>
      <trkpt lat="28.6948500" lon="-17.9349470">
        <ele>859.2</ele>
        <time>2020-11-16T20:16:40Z</time>
      </trkpt>
      <trkpt lat="28.6948500" lon="-17.9349470">
        <ele>859.2</ele>
        <time>2020-11-16T20:16:41Z</time>
      </trkpt>
      <trkpt lat="28.6948230" lon="-17.9349850">
        <ele>858.1</ele>
        <time>2020-11-16T20:16:42Z</time>
      </trkpt>
      <trkpt lat="28.6948030" lon="-17.9350050">
        <ele>857.3</ele>
        <time>2020-11-16T20:16:43Z</time>
      </trkpt>
      <trkpt lat="28.6947800" lon="-17.9350250">
        <ele>856.5</ele>
        <time>2020-11-16T20:16:44Z</time>
      </trkpt>
      <trkpt lat="28.6947800" lon="-17.9350250">
        <ele>856.5</ele>
        <time>2020-11-16T20:16:45Z</time>
      </trkpt>
      <trkpt lat="28.6947370" lon="-17.9350650">
        <ele>855.0</ele>
        <time>2020-11-16T20:16:46Z</time>
      </trkpt>
      <trkpt lat="28.6947370" lon="-17.9350650">
        <ele>855.0</ele>
        <time>2020-11-16T20:16:47Z</time>
      </trkpt>
      <trkpt lat="28.6946970" lon="-17.9351070">
        <ele>853.5</ele>
        <time>2020-11-16T20:16:48Z</time>
      </trkpt>
      <trkpt lat="28.6946750" lon="-17.9351320">
        <ele>852.7</ele>
        <time>2020-11-16T20:16:49Z</time>
      </trkpt>
      <trkpt lat="28.6946480" lon="-17.9351570">
        <ele>851.7</ele>
        <time>2020-11-16T20:16:50Z</time>
      </trkpt>
      <trkpt lat="28.6946480" lon="-17.9351570">
        <ele>851.7</ele>
        <time>2020-11-16T20:16:51Z</time>
      </trkpt>
      <trkpt lat="28.6945980" lon="-17.9352020">
        <ele>850.0</ele>
        <time>2020-11-16T20:16:52Z</time>
      </trkpt>
      <trkpt lat="28.6945980" lon="-17.9352020">
        <ele>850.0</ele>
        <time>2020-11-16T20:16:53Z</time>
      </trkpt>
      <trkpt lat="28.6945500" lon="-17.9352550">
        <ele>848.1</ele>
        <time>2020-11-16T20:16:54Z</time>
      </trkpt>
      <trkpt lat="28.6945500" lon="-17.9352550">
        <ele>848.1</ele>
        <time>2020-11-16T20:16:55Z</time>
      </trkpt>
      <trkpt lat="28.6945000" lon="-17.9353020">
        <ele>846.4</ele>
        <time>2020-11-16T20:16:56Z</time>
      </trkpt>
      <trkpt lat="28.6945000" lon="-17.9353020">
        <ele>846.4</ele>
        <time>2020-11-16T20:16:57Z</time>
      </trkpt>
      <trkpt lat="28.6944430" lon="-17.9353430">
        <ele>844.5</ele>
        <time>2020-11-16T20:16:58Z</time>
      </trkpt>
      <trkpt lat="28.6944430" lon="-17.9353430">
        <ele>844.5</ele>
        <time>2020-11-16T20:16:59Z</time>
      </trkpt>
      <trkpt lat="28.6943980" lon="-17.9353970">
        <ele>842.7</ele>
        <time>2020-11-16T20:17:00Z</time>
      </trkpt>
      <trkpt lat="28.6943980" lon="-17.9353970">
        <ele>842.7</ele>
        <time>2020-11-16T20:17:01Z</time>
      </trkpt>
      <trkpt lat="28.6943570" lon="-17.9354530">
        <ele>841.0</ele>
        <time>2020-11-16T20:17:02Z</time>
      </trkpt>
      <trkpt lat="28.6943570" lon="-17.9354530">
        <ele>841.0</ele>
        <time>2020-11-16T20:17:03Z</time>
      </trkpt>
      <trkpt lat="28.6943570" lon="-17.9354530">
        <ele>841.0</ele>
        <time>2020-11-16T20:17:04Z</time>
      </trkpt>
      <trkpt lat="28.6943130" lon="-17.9355020">
        <ele>839.3</ele>
        <time>2020-11-16T20:17:05Z</time>
      </trkpt>
      <trkpt lat="28.6942780" lon="-17.9355580">
        <ele>837.6</ele>
        <time>2020-11-16T20:17:06Z</time>
      </trkpt>
      <trkpt lat="28.6942780" lon="-17.9355580">
        <ele>837.6</ele>
        <time>2020-11-16T20:17:07Z</time>
      </trkpt>
      <trkpt lat="28.6942570" lon="-17.9356130">
        <ele>836.2</ele>
        <time>2020-11-16T20:17:08Z</time>
      </trkpt>
      <trkpt lat="28.6942570" lon="-17.9356130">
        <ele>836.2</ele>
        <time>2020-11-16T20:17:09Z</time>
      </trkpt>
      <trkpt lat="28.6942200" lon="-17.9356700">
        <ele>834.5</ele>
        <time>2020-11-16T20:17:10Z</time>
      </trkpt>
      <trkpt lat="28.6942200" lon="-17.9356700">
        <ele>834.5</ele>
        <time>2020-11-16T20:17:11Z</time>
      </trkpt>
      <trkpt lat="28.6941830" lon="-17.9357230">
        <ele>832.8</ele>
        <time>2020-11-16T20:17:12Z</time>
      </trkpt>
      <trkpt lat="28.6941830" lon="-17.9357230">
        <ele>832.8</ele>
        <time>2020-11-16T20:17:13Z</time>
      </trkpt>
      <trkpt lat="28.6941430" lon="-17.9357830">
        <ele>831.0</ele>
        <time>2020-11-16T20:17:14Z</time>
      </trkpt>
      <trkpt lat="28.6941270" lon="-17.9358030">
        <ele>830.4</ele>
        <time>2020-11-16T20:17:15Z</time>
      </trkpt>
      <trkpt lat="28.6941270" lon="-17.9358030">
        <ele>830.4</ele>
        <time>2020-11-16T20:17:16Z</time>
      </trkpt>
      <trkpt lat="28.6941080" lon="-17.9358550">
        <ele>828.6</ele>
        <time>2020-11-16T20:17:17Z</time>
      </trkpt>
      <trkpt lat="28.6941080" lon="-17.9358550">
        <ele>828.6</ele>
        <time>2020-11-16T20:17:18Z</time>
      </trkpt>
      <trkpt lat="28.6940950" lon="-17.9359100">
        <ele>827.0</ele>
        <time>2020-11-16T20:17:19Z</time>
      </trkpt>
      <trkpt lat="28.6940900" lon="-17.9359370">
        <ele>826.2</ele>
        <time>2020-11-16T20:17:20Z</time>
      </trkpt>
      <trkpt lat="28.6940900" lon="-17.9359370">
        <ele>826.2</ele>
        <time>2020-11-16T20:17:21Z</time>
      </trkpt>
      <trkpt lat="28.6940770" lon="-17.9359900">
        <ele>824.7</ele>
        <time>2020-11-16T20:17:22Z</time>
      </trkpt>
      <trkpt lat="28.6940770" lon="-17.9359900">
        <ele>824.7</ele>
        <time>2020-11-16T20:17:23Z</time>
      </trkpt>
      <trkpt lat="28.6940580" lon="-17.9360550">
        <ele>822.8</ele>
        <time>2020-11-16T20:17:24Z</time>
      </trkpt>
      <trkpt lat="28.6940580" lon="-17.9360550">
        <ele>822.8</ele>
        <time>2020-11-16T20:17:25Z</time>
      </trkpt>
      <trkpt lat="28.6940580" lon="-17.9361280">
        <ele>821.0</ele>
        <time>2020-11-16T20:17:26Z</time>
      </trkpt>
      <trkpt lat="28.6940680" lon="-17.9361650">
        <ele>820.1</ele>
        <time>2020-11-16T20:17:27Z</time>
      </trkpt>
      <trkpt lat="28.6940680" lon="-17.9361650">
        <ele>820.1</ele>
        <time>2020-11-16T20:17:28Z</time>
      </trkpt>
      <trkpt lat="28.6940870" lon="-17.9362430">
        <ele>818.2</ele>
        <time>2020-11-16T20:17:29Z</time>
      </trkpt>
      <trkpt lat="28.6940880" lon="-17.9362880">
        <ele>817.1</ele>
        <time>2020-11-16T20:17:30Z</time>
      </trkpt>
      <trkpt lat="28.6940880" lon="-17.9362880">
        <ele>817.1</ele>
        <time>2020-11-16T20:17:31Z</time>
      </trkpt>
      <trkpt lat="28.6940780" lon="-17.9363700">
        <ele>815.2</ele>
        <time>2020-11-16T20:17:32Z</time>
      </trkpt>
      <trkpt lat="28.6940780" lon="-17.9363700">
        <ele>815.2</ele>
        <time>2020-11-16T20:17:33Z</time>
      </trkpt>
      <trkpt lat="28.6940600" lon="-17.9364420">
        <ele>813.5</ele>
        <time>2020-11-16T20:17:34Z</time>
      </trkpt>
      <trkpt lat="28.6940600" lon="-17.9364420">
        <ele>813.5</ele>
        <time>2020-11-16T20:17:35Z</time>
      </trkpt>
      <trkpt lat="28.6940300" lon="-17.9365200">
        <ele>811.7</ele>
        <time>2020-11-16T20:17:36Z</time>
      </trkpt>
      <trkpt lat="28.6940300" lon="-17.9365200">
        <ele>811.7</ele>
        <time>2020-11-16T20:17:37Z</time>
      </trkpt>
      <trkpt lat="28.6939850" lon="-17.9366030">
        <ele>809.8</ele>
        <time>2020-11-16T20:17:38Z</time>
      </trkpt>
      <trkpt lat="28.6939850" lon="-17.9366030">
        <ele>809.8</ele>
        <time>2020-11-16T20:17:39Z</time>
      </trkpt>
      <trkpt lat="28.6939400" lon="-17.9366800">
        <ele>808.0</ele>
        <time>2020-11-16T20:17:40Z</time>
      </trkpt>
      <trkpt lat="28.6939400" lon="-17.9366800">
        <ele>808.0</ele>
        <time>2020-11-16T20:17:41Z</time>
      </trkpt>
      <trkpt lat="28.6938950" lon="-17.9367480">
        <ele>806.4</ele>
        <time>2020-11-16T20:17:42Z</time>
      </trkpt>
      <trkpt lat="28.6938950" lon="-17.9367480">
        <ele>806.4</ele>
        <time>2020-11-16T20:17:43Z</time>
      </trkpt>
      <trkpt lat="28.6938470" lon="-17.9368220">
        <ele>804.7</ele>
        <time>2020-11-16T20:17:44Z</time>
      </trkpt>
      <trkpt lat="28.6938470" lon="-17.9368220">
        <ele>804.7</ele>
        <time>2020-11-16T20:17:45Z</time>
      </trkpt>
      <trkpt lat="28.6938080" lon="-17.9369080">
        <ele>803.1</ele>
        <time>2020-11-16T20:17:46Z</time>
      </trkpt>
      <trkpt lat="28.6937950" lon="-17.9369550">
        <ele>802.3</ele>
        <time>2020-11-16T20:17:47Z</time>
      </trkpt>
      <trkpt lat="28.6937950" lon="-17.9369550">
        <ele>802.3</ele>
        <time>2020-11-16T20:17:48Z</time>
      </trkpt>
      <trkpt lat="28.6937620" lon="-17.9370400">
        <ele>800.8</ele>
        <time>2020-11-16T20:17:49Z</time>
      </trkpt>
      <trkpt lat="28.6937620" lon="-17.9370400">
        <ele>800.8</ele>
        <time>2020-11-16T20:17:50Z</time>
      </trkpt>
      <trkpt lat="28.6937280" lon="-17.9371150">
        <ele>799.5</ele>
        <time>2020-11-16T20:17:51Z</time>
      </trkpt>
      <trkpt lat="28.6937280" lon="-17.9371150">
        <ele>799.5</ele>
        <time>2020-11-16T20:17:52Z</time>
      </trkpt>
      <trkpt lat="28.6937020" lon="-17.9372120">
        <ele>798.3</ele>
        <time>2020-11-16T20:17:53Z</time>
      </trkpt>
      <trkpt lat="28.6936920" lon="-17.9372650">
        <ele>797.7</ele>
        <time>2020-11-16T20:17:54Z</time>
      </trkpt>
      <trkpt lat="28.6936920" lon="-17.9372650">
        <ele>797.7</ele>
        <time>2020-11-16T20:17:55Z</time>
      </trkpt>
      <trkpt lat="28.6936900" lon="-17.9373680">
        <ele>796.5</ele>
        <time>2020-11-16T20:17:56Z</time>
      </trkpt>
      <trkpt lat="28.6936900" lon="-17.9373680">
        <ele>796.5</ele>
        <time>2020-11-16T20:17:57Z</time>
      </trkpt>
      <trkpt lat="28.6937030" lon="-17.9374500">
        <ele>795.6</ele>
        <time>2020-11-16T20:17:58Z</time>
      </trkpt>
      <trkpt lat="28.6937030" lon="-17.9374500">
        <ele>795.6</ele>
        <time>2020-11-16T20:17:59Z</time>
      </trkpt>
      <trkpt lat="28.6937320" lon="-17.9375200">
        <ele>794.8</ele>
        <time>2020-11-16T20:18:00Z</time>
      </trkpt>
      <trkpt lat="28.6937320" lon="-17.9375200">
        <ele>794.8</ele>
        <time>2020-11-16T20:18:01Z</time>
      </trkpt>
      <trkpt lat="28.6937770" lon="-17.9375750">
        <ele>794.0</ele>
        <time>2020-11-16T20:18:02Z</time>
      </trkpt>
      <trkpt lat="28.6937770" lon="-17.9375750">
        <ele>794.0</ele>
        <time>2020-11-16T20:18:03Z</time>
      </trkpt>
      <trkpt lat="28.6938230" lon="-17.9376380">
        <ele>793.3</ele>
        <time>2020-11-16T20:18:04Z</time>
      </trkpt>
      <trkpt lat="28.6938230" lon="-17.9376380">
        <ele>793.3</ele>
        <time>2020-11-16T20:18:05Z</time>
      </trkpt>
      <trkpt lat="28.6938800" lon="-17.9377000">
        <ele>792.5</ele>
        <time>2020-11-16T20:18:06Z</time>
      </trkpt>
      <trkpt lat="28.6938800" lon="-17.9377000">
        <ele>792.5</ele>
        <time>2020-11-16T20:18:07Z</time>
      </trkpt>
      <trkpt lat="28.6939430" lon="-17.9377650">
        <ele>791.8</ele>
        <time>2020-11-16T20:18:08Z</time>
      </trkpt>
      <trkpt lat="28.6939430" lon="-17.9377650">
        <ele>791.8</ele>
        <time>2020-11-16T20:18:09Z</time>
      </trkpt>
      <trkpt lat="28.6940080" lon="-17.9378380">
        <ele>791.4</ele>
        <time>2020-11-16T20:18:10Z</time>
      </trkpt>
      <trkpt lat="28.6940080" lon="-17.9378380">
        <ele>791.4</ele>
        <time>2020-11-16T20:18:11Z</time>
      </trkpt>
      <trkpt lat="28.6940630" lon="-17.9379120">
        <ele>791.2</ele>
        <time>2020-11-16T20:18:12Z</time>
      </trkpt>
      <trkpt lat="28.6940630" lon="-17.9379120">
        <ele>791.2</ele>
        <time>2020-11-16T20:18:13Z</time>
      </trkpt>
      <trkpt lat="28.6941080" lon="-17.9379700">
        <ele>791.2</ele>
        <time>2020-11-16T20:18:14Z</time>
      </trkpt>
      <trkpt lat="28.6941080" lon="-17.9379700">
        <ele>791.2</ele>
        <time>2020-11-16T20:18:15Z</time>
      </trkpt>
      <trkpt lat="28.6941080" lon="-17.9379700">
        <ele>791.2</ele>
        <time>2020-11-16T20:18:16Z</time>
      </trkpt>
      <trkpt lat="28.6941470" lon="-17.9380180">
        <ele>791.2</ele>
        <time>2020-11-16T20:18:17Z</time>
      </trkpt>
      <trkpt lat="28.6941800" lon="-17.9380650">
        <ele>791.1</ele>
        <time>2020-11-16T20:18:18Z</time>
      </trkpt>
      <trkpt lat="28.6941930" lon="-17.9380950">
        <ele>791.1</ele>
        <time>2020-11-16T20:18:19Z</time>
      </trkpt>
      <trkpt lat="28.6941930" lon="-17.9380950">
        <ele>791.1</ele>
        <time>2020-11-16T20:18:20Z</time>
      </trkpt>
      <trkpt lat="28.6942280" lon="-17.9381770">
        <ele>790.7</ele>
        <time>2020-11-16T20:18:21Z</time>
      </trkpt>
      <trkpt lat="28.6942280" lon="-17.9381770">
        <ele>790.7</ele>
        <time>2020-11-16T20:18:22Z</time>
      </trkpt>
      <trkpt lat="28.6942730" lon="-17.9382700">
        <ele>790.3</ele>
        <time>2020-11-16T20:18:23Z</time>
      </trkpt>
      <trkpt lat="28.6942730" lon="-17.9382700">
        <ele>790.3</ele>
        <time>2020-11-16T20:18:24Z</time>
      </trkpt>
      <trkpt lat="28.6943180" lon="-17.9383580">
        <ele>790.0</ele>
        <time>2020-11-16T20:18:25Z</time>
      </trkpt>
      <trkpt lat="28.6943180" lon="-17.9383580">
        <ele>790.0</ele>
        <time>2020-11-16T20:18:26Z</time>
      </trkpt>
      <trkpt lat="28.6943430" lon="-17.9384230">
        <ele>789.8</ele>
        <time>2020-11-16T20:18:27Z</time>
      </trkpt>
      <trkpt lat="28.6943430" lon="-17.9384230">
        <ele>789.8</ele>
        <time>2020-11-16T20:18:28Z</time>
      </trkpt>
      <trkpt lat="28.6943400" lon="-17.9384880">
        <ele>789.6</ele>
        <time>2020-11-16T20:18:29Z</time>
      </trkpt>
      <trkpt lat="28.6943400" lon="-17.9384880">
        <ele>789.6</ele>
        <time>2020-11-16T20:18:30Z</time>
      </trkpt>
      <trkpt lat="28.6943270" lon="-17.9385480">
        <ele>789.3</ele>
        <time>2020-11-16T20:18:31Z</time>
      </trkpt>
      <trkpt lat="28.6943180" lon="-17.9385820">
        <ele>789.0</ele>
        <time>2020-11-16T20:18:32Z</time>
      </trkpt>
      <trkpt lat="28.6943180" lon="-17.9385820">
        <ele>789.0</ele>
        <time>2020-11-16T20:18:33Z</time>
      </trkpt>
      <trkpt lat="28.6942930" lon="-17.9386420">
        <ele>788.5</ele>
        <time>2020-11-16T20:18:34Z</time>
      </trkpt>
      <trkpt lat="28.6942930" lon="-17.9386420">
        <ele>788.5</ele>
        <time>2020-11-16T20:18:35Z</time>
      </trkpt>
      <trkpt lat="28.6942600" lon="-17.9387070">
        <ele>787.8</ele>
        <time>2020-11-16T20:18:36Z</time>
      </trkpt>
      <trkpt lat="28.6942600" lon="-17.9387070">
        <ele>787.8</ele>
        <time>2020-11-16T20:18:37Z</time>
      </trkpt>
      <trkpt lat="28.6942480" lon="-17.9387730">
        <ele>787.0</ele>
        <time>2020-11-16T20:18:38Z</time>
      </trkpt>
      <trkpt lat="28.6942480" lon="-17.9387730">
        <ele>787.0</ele>
        <time>2020-11-16T20:18:39Z</time>
      </trkpt>
      <trkpt lat="28.6942670" lon="-17.9388530">
        <ele>785.4</ele>
        <time>2020-11-16T20:18:40Z</time>
      </trkpt>
      <trkpt lat="28.6942670" lon="-17.9388530">
        <ele>785.4</ele>
        <time>2020-11-16T20:18:41Z</time>
      </trkpt>
      <trkpt lat="28.6942950" lon="-17.9389370">
        <ele>783.8</ele>
        <time>2020-11-16T20:18:42Z</time>
      </trkpt>
      <trkpt lat="28.6942950" lon="-17.9389370">
        <ele>783.8</ele>
        <time>2020-11-16T20:18:43Z</time>
      </trkpt>
      <trkpt lat="28.6942830" lon="-17.9390100">
        <ele>782.5</ele>
        <time>2020-11-16T20:18:44Z</time>
      </trkpt>
      <trkpt lat="28.6942830" lon="-17.9390100">
        <ele>782.5</ele>
        <time>2020-11-16T20:18:45Z</time>
      </trkpt>
      <trkpt lat="28.6942480" lon="-17.9390730">
        <ele>781.1</ele>
        <time>2020-11-16T20:18:46Z</time>
      </trkpt>
      <trkpt lat="28.6942480" lon="-17.9390730">
        <ele>781.1</ele>
        <time>2020-11-16T20:18:47Z</time>
      </trkpt>
      <trkpt lat="28.6941930" lon="-17.9391270">
        <ele>779.6</ele>
        <time>2020-11-16T20:18:48Z</time>
      </trkpt>
      <trkpt lat="28.6941930" lon="-17.9391270">
        <ele>779.6</ele>
        <time>2020-11-16T20:18:49Z</time>
      </trkpt>
      <trkpt lat="28.6941280" lon="-17.9391830">
        <ele>778.0</ele>
        <time>2020-11-16T20:18:50Z</time>
      </trkpt>
      <trkpt lat="28.6941280" lon="-17.9391830">
        <ele>778.0</ele>
        <time>2020-11-16T20:18:51Z</time>
      </trkpt>
      <trkpt lat="28.6940580" lon="-17.9392570">
        <ele>775.9</ele>
        <time>2020-11-16T20:18:52Z</time>
      </trkpt>
      <trkpt lat="28.6940580" lon="-17.9392570">
        <ele>775.9</ele>
        <time>2020-11-16T20:18:53Z</time>
      </trkpt>
      <trkpt lat="28.6940580" lon="-17.9392570">
        <ele>775.9</ele>
        <time>2020-11-16T20:18:54Z</time>
      </trkpt>
      <trkpt lat="28.6940070" lon="-17.9393150">
        <ele>774.2</ele>
        <time>2020-11-16T20:18:55Z</time>
      </trkpt>
      <trkpt lat="28.6939630" lon="-17.9393620">
        <ele>772.5</ele>
        <time>2020-11-16T20:18:56Z</time>
      </trkpt>
      <trkpt lat="28.6939630" lon="-17.9393620">
        <ele>772.5</ele>
        <time>2020-11-16T20:18:57Z</time>
      </trkpt>
      <trkpt lat="28.6939320" lon="-17.9393950">
        <ele>771.4</ele>
        <time>2020-11-16T20:18:58Z</time>
      </trkpt>
      <trkpt lat="28.6939320" lon="-17.9393950">
        <ele>771.4</ele>
        <time>2020-11-16T20:18:59Z</time>
      </trkpt>
      <trkpt lat="28.6938950" lon="-17.9394250">
        <ele>770.2</ele>
        <time>2020-11-16T20:19:00Z</time>
      </trkpt>
      <trkpt lat="28.6938950" lon="-17.9394250">
        <ele>770.2</ele>
        <time>2020-11-16T20:19:01Z</time>
      </trkpt>
      <trkpt lat="28.6938520" lon="-17.9394320">
        <ele>768.5</ele>
        <time>2020-11-16T20:19:02Z</time>
      </trkpt>
      <trkpt lat="28.6938520" lon="-17.9394320">
        <ele>768.5</ele>
        <time>2020-11-16T20:19:03Z</time>
      </trkpt>
      <trkpt lat="28.6937950" lon="-17.9393920">
        <ele>768.3</ele>
        <time>2020-11-16T20:19:04Z</time>
      </trkpt>
      <trkpt lat="28.6937620" lon="-17.9393630">
        <ele>768.1</ele>
        <time>2020-11-16T20:19:05Z</time>
      </trkpt>
      <trkpt lat="28.6937620" lon="-17.9393630">
        <ele>768.1</ele>
        <time>2020-11-16T20:19:06Z</time>
      </trkpt>
      <trkpt lat="28.6936930" lon="-17.9392880">
        <ele>767.8</ele>
        <time>2020-11-16T20:19:07Z</time>
      </trkpt>
      <trkpt lat="28.6936930" lon="-17.9392880">
        <ele>767.8</ele>
        <time>2020-11-16T20:19:08Z</time>
      </trkpt>
      <trkpt lat="28.6936130" lon="-17.9392020">
        <ele>767.3</ele>
        <time>2020-11-16T20:19:09Z</time>
      </trkpt>
      <trkpt lat="28.6936130" lon="-17.9392020">
        <ele>767.3</ele>
        <time>2020-11-16T20:19:10Z</time>
      </trkpt>
      <trkpt lat="28.6935330" lon="-17.9391150">
        <ele>766.9</ele>
        <time>2020-11-16T20:19:11Z</time>
      </trkpt>
      <trkpt lat="28.6934870" lon="-17.9390770">
        <ele>766.8</ele>
        <time>2020-11-16T20:19:12Z</time>
      </trkpt>
      <trkpt lat="28.6934870" lon="-17.9390770">
        <ele>766.8</ele>
        <time>2020-11-16T20:19:13Z</time>
      </trkpt>
      <trkpt lat="28.6933720" lon="-17.9390150">
        <ele>766.4</ele>
        <time>2020-11-16T20:19:14Z</time>
      </trkpt>
      <trkpt lat="28.6933720" lon="-17.9390150">
        <ele>766.4</ele>
        <time>2020-11-16T20:19:15Z</time>
      </trkpt>
      <trkpt lat="28.6932420" lon="-17.9389570">
        <ele>765.9</ele>
        <time>2020-11-16T20:19:16Z</time>
      </trkpt>
      <trkpt lat="28.6932420" lon="-17.9389570">
        <ele>765.9</ele>
        <time>2020-11-16T20:19:17Z</time>
      </trkpt>
      <trkpt lat="28.6931070" lon="-17.9388870">
        <ele>765.4</ele>
        <time>2020-11-16T20:19:18Z</time>
      </trkpt>
      <trkpt lat="28.6931070" lon="-17.9388870">
        <ele>765.4</ele>
        <time>2020-11-16T20:19:19Z</time>
      </trkpt>
      <trkpt lat="28.6931070" lon="-17.9388870">
        <ele>765.4</ele>
        <time>2020-11-16T20:19:20Z</time>
      </trkpt>
      <trkpt lat="28.6929700" lon="-17.9387980">
        <ele>764.8</ele>
        <time>2020-11-16T20:19:21Z</time>
      </trkpt>
      <trkpt lat="28.6928330" lon="-17.9386930">
        <ele>764.2</ele>
        <time>2020-11-16T20:19:22Z</time>
      </trkpt>
      <trkpt lat="28.6928330" lon="-17.9386930">
        <ele>764.2</ele>
        <time>2020-11-16T20:19:23Z</time>
      </trkpt>
      <trkpt lat="28.6926930" lon="-17.9385870">
        <ele>763.4</ele>
        <time>2020-11-16T20:19:24Z</time>
      </trkpt>
      <trkpt lat="28.6926930" lon="-17.9385870">
        <ele>763.4</ele>
        <time>2020-11-16T20:19:25Z</time>
      </trkpt>
      <trkpt lat="28.6925480" lon="-17.9385120">
        <ele>762.7</ele>
        <time>2020-11-16T20:19:26Z</time>
      </trkpt>
      <trkpt lat="28.6925480" lon="-17.9385120">
        <ele>762.7</ele>
        <time>2020-11-16T20:19:27Z</time>
      </trkpt>
      <trkpt lat="28.6923970" lon="-17.9384750">
        <ele>762.2</ele>
        <time>2020-11-16T20:19:28Z</time>
      </trkpt>
      <trkpt lat="28.6923970" lon="-17.9384750">
        <ele>762.2</ele>
        <time>2020-11-16T20:19:29Z</time>
      </trkpt>
      <trkpt lat="28.6922380" lon="-17.9384500">
        <ele>761.5</ele>
        <time>2020-11-16T20:19:30Z</time>
      </trkpt>
      <trkpt lat="28.6922380" lon="-17.9384500">
        <ele>761.5</ele>
        <time>2020-11-16T20:19:31Z</time>
      </trkpt>
      <trkpt lat="28.6920850" lon="-17.9384000">
        <ele>760.6</ele>
        <time>2020-11-16T20:19:32Z</time>
      </trkpt>
      <trkpt lat="28.6920850" lon="-17.9384000">
        <ele>760.6</ele>
        <time>2020-11-16T20:19:33Z</time>
      </trkpt>
      <trkpt lat="28.6919450" lon="-17.9383120">
        <ele>759.8</ele>
        <time>2020-11-16T20:19:34Z</time>
      </trkpt>
      <trkpt lat="28.6919450" lon="-17.9383120">
        <ele>759.8</ele>
        <time>2020-11-16T20:19:35Z</time>
      </trkpt>
      <trkpt lat="28.6918120" lon="-17.9382180">
        <ele>759.0</ele>
        <time>2020-11-16T20:19:36Z</time>
      </trkpt>
      <trkpt lat="28.6918120" lon="-17.9382180">
        <ele>759.0</ele>
        <time>2020-11-16T20:19:37Z</time>
      </trkpt>
      <trkpt lat="28.6916780" lon="-17.9381430">
        <ele>758.2</ele>
        <time>2020-11-16T20:19:38Z</time>
      </trkpt>
      <trkpt lat="28.6916780" lon="-17.9381430">
        <ele>758.2</ele>
        <time>2020-11-16T20:19:39Z</time>
      </trkpt>
      <trkpt lat="28.6916780" lon="-17.9381430">
        <ele>758.2</ele>
        <time>2020-11-16T20:19:40Z</time>
      </trkpt>
      <trkpt lat="28.6915420" lon="-17.9380830">
        <ele>757.5</ele>
        <time>2020-11-16T20:19:41Z</time>
      </trkpt>
      <trkpt lat="28.6914070" lon="-17.9380530">
        <ele>757.1</ele>
        <time>2020-11-16T20:19:42Z</time>
      </trkpt>
      <trkpt lat="28.6914070" lon="-17.9380530">
        <ele>757.1</ele>
        <time>2020-11-16T20:19:43Z</time>
      </trkpt>
      <trkpt lat="28.6912680" lon="-17.9380320">
        <ele>756.8</ele>
        <time>2020-11-16T20:19:44Z</time>
      </trkpt>
      <trkpt lat="28.6912680" lon="-17.9380320">
        <ele>756.8</ele>
        <time>2020-11-16T20:19:45Z</time>
      </trkpt>
      <trkpt lat="28.6911320" lon="-17.9380200">
        <ele>756.4</ele>
        <time>2020-11-16T20:19:46Z</time>
      </trkpt>
      <trkpt lat="28.6911320" lon="-17.9380200">
        <ele>756.4</ele>
        <time>2020-11-16T20:19:47Z</time>
      </trkpt>
      <trkpt lat="28.6909980" lon="-17.9380130">
        <ele>756.2</ele>
        <time>2020-11-16T20:19:48Z</time>
      </trkpt>
      <trkpt lat="28.6909980" lon="-17.9380130">
        <ele>756.2</ele>
        <time>2020-11-16T20:19:49Z</time>
      </trkpt>
      <trkpt lat="28.6908730" lon="-17.9380100">
        <ele>755.9</ele>
        <time>2020-11-16T20:19:50Z</time>
      </trkpt>
      <trkpt lat="28.6908730" lon="-17.9380100">
        <ele>755.9</ele>
        <time>2020-11-16T20:19:51Z</time>
      </trkpt>
      <trkpt lat="28.6907570" lon="-17.9380080">
        <ele>755.8</ele>
        <time>2020-11-16T20:19:52Z</time>
      </trkpt>
      <trkpt lat="28.6907570" lon="-17.9380080">
        <ele>755.8</ele>
        <time>2020-11-16T20:19:53Z</time>
      </trkpt>
      <trkpt lat="28.6906470" lon="-17.9379900">
        <ele>755.5</ele>
        <time>2020-11-16T20:19:54Z</time>
      </trkpt>
      <trkpt lat="28.6906470" lon="-17.9379900">
        <ele>755.5</ele>
        <time>2020-11-16T20:19:55Z</time>
      </trkpt>
      <trkpt lat="28.6905450" lon="-17.9379370">
        <ele>755.2</ele>
        <time>2020-11-16T20:19:56Z</time>
      </trkpt>
      <trkpt lat="28.6905450" lon="-17.9379370">
        <ele>755.2</ele>
        <time>2020-11-16T20:19:57Z</time>
      </trkpt>
      <trkpt lat="28.6904500" lon="-17.9378620">
        <ele>754.8</ele>
        <time>2020-11-16T20:19:58Z</time>
      </trkpt>
      <trkpt lat="28.6904500" lon="-17.9378620">
        <ele>754.8</ele>
        <time>2020-11-16T20:19:59Z</time>
      </trkpt>
      <trkpt lat="28.6903620" lon="-17.9377680">
        <ele>754.2</ele>
        <time>2020-11-16T20:20:00Z</time>
      </trkpt>
      <trkpt lat="28.6903620" lon="-17.9377680">
        <ele>754.2</ele>
        <time>2020-11-16T20:20:01Z</time>
      </trkpt>
      <trkpt lat="28.6902900" lon="-17.9376650">
        <ele>753.6</ele>
        <time>2020-11-16T20:20:02Z</time>
      </trkpt>
      <trkpt lat="28.6902900" lon="-17.9376650">
        <ele>753.6</ele>
        <time>2020-11-16T20:20:03Z</time>
      </trkpt>
      <trkpt lat="28.6902230" lon="-17.9375480">
        <ele>752.9</ele>
        <time>2020-11-16T20:20:04Z</time>
      </trkpt>
      <trkpt lat="28.6902230" lon="-17.9375480">
        <ele>752.9</ele>
        <time>2020-11-16T20:20:05Z</time>
      </trkpt>
      <trkpt lat="28.6901880" lon="-17.9374070">
        <ele>752.0</ele>
        <time>2020-11-16T20:20:06Z</time>
      </trkpt>
      <trkpt lat="28.6901880" lon="-17.9374070">
        <ele>752.0</ele>
        <time>2020-11-16T20:20:07Z</time>
      </trkpt>
      <trkpt lat="28.6901800" lon="-17.9372480">
        <ele>751.2</ele>
        <time>2020-11-16T20:20:08Z</time>
      </trkpt>
      <trkpt lat="28.6901800" lon="-17.9372480">
        <ele>751.2</ele>
        <time>2020-11-16T20:20:09Z</time>
      </trkpt>
      <trkpt lat="28.6901380" lon="-17.9371120">
        <ele>750.7</ele>
        <time>2020-11-16T20:20:10Z</time>
      </trkpt>
      <trkpt lat="28.6900920" lon="-17.9370650">
        <ele>750.5</ele>
        <time>2020-11-16T20:20:11Z</time>
      </trkpt>
      <trkpt lat="28.6900920" lon="-17.9370650">
        <ele>750.5</ele>
        <time>2020-11-16T20:20:12Z</time>
      </trkpt>
      <trkpt lat="28.6899650" lon="-17.9370250">
        <ele>750.1</ele>
        <time>2020-11-16T20:20:13Z</time>
      </trkpt>
      <trkpt lat="28.6899050" lon="-17.9370350">
        <ele>749.9</ele>
        <time>2020-11-16T20:20:14Z</time>
      </trkpt>
      <trkpt lat="28.6899050" lon="-17.9370350">
        <ele>749.9</ele>
        <time>2020-11-16T20:20:15Z</time>
      </trkpt>
      <trkpt lat="28.6898230" lon="-17.9371000">
        <ele>749.7</ele>
        <time>2020-11-16T20:20:16Z</time>
      </trkpt>
      <trkpt lat="28.6898230" lon="-17.9371000">
        <ele>749.7</ele>
        <time>2020-11-16T20:20:17Z</time>
      </trkpt>
      <trkpt lat="28.6897570" lon="-17.9371850">
        <ele>749.4</ele>
        <time>2020-11-16T20:20:18Z</time>
      </trkpt>
      <trkpt lat="28.6897570" lon="-17.9371850">
        <ele>749.4</ele>
        <time>2020-11-16T20:20:19Z</time>
      </trkpt>
      <trkpt lat="28.6897070" lon="-17.9372650">
        <ele>749.2</ele>
        <time>2020-11-16T20:20:20Z</time>
      </trkpt>
      <trkpt lat="28.6897070" lon="-17.9372650">
        <ele>749.2</ele>
        <time>2020-11-16T20:20:21Z</time>
      </trkpt>
      <trkpt lat="28.6896530" lon="-17.9373550">
        <ele>749.1</ele>
        <time>2020-11-16T20:20:22Z</time>
      </trkpt>
      <trkpt lat="28.6896230" lon="-17.9373930">
        <ele>749.0</ele>
        <time>2020-11-16T20:20:23Z</time>
      </trkpt>
      <trkpt lat="28.6896230" lon="-17.9373930">
        <ele>749.0</ele>
        <time>2020-11-16T20:20:24Z</time>
      </trkpt>
      <trkpt lat="28.6895570" lon="-17.9374580">
        <ele>748.8</ele>
        <time>2020-11-16T20:20:25Z</time>
      </trkpt>
      <trkpt lat="28.6895570" lon="-17.9374580">
        <ele>748.8</ele>
        <time>2020-11-16T20:20:26Z</time>
      </trkpt>
      <trkpt lat="28.6894720" lon="-17.9375080">
        <ele>748.7</ele>
        <time>2020-11-16T20:20:27Z</time>
      </trkpt>
      <trkpt lat="28.6894720" lon="-17.9375080">
        <ele>748.7</ele>
        <time>2020-11-16T20:20:28Z</time>
      </trkpt>
      <trkpt lat="28.6893780" lon="-17.9375480">
        <ele>748.5</ele>
        <time>2020-11-16T20:20:29Z</time>
      </trkpt>
      <trkpt lat="28.6893780" lon="-17.9375480">
        <ele>748.5</ele>
        <time>2020-11-16T20:20:30Z</time>
      </trkpt>
      <trkpt lat="28.6892800" lon="-17.9375670">
        <ele>748.3</ele>
        <time>2020-11-16T20:20:31Z</time>
      </trkpt>
      <trkpt lat="28.6892800" lon="-17.9375670">
        <ele>748.3</ele>
        <time>2020-11-16T20:20:32Z</time>
      </trkpt>
      <trkpt lat="28.6891870" lon="-17.9375600">
        <ele>748.0</ele>
        <time>2020-11-16T20:20:33Z</time>
      </trkpt>
      <trkpt lat="28.6891870" lon="-17.9375600">
        <ele>748.0</ele>
        <time>2020-11-16T20:20:34Z</time>
      </trkpt>
      <trkpt lat="28.6891000" lon="-17.9375130">
        <ele>747.8</ele>
        <time>2020-11-16T20:20:35Z</time>
      </trkpt>
      <trkpt lat="28.6891000" lon="-17.9375130">
        <ele>747.8</ele>
        <time>2020-11-16T20:20:36Z</time>
      </trkpt>
      <trkpt lat="28.6890200" lon="-17.9374480">
        <ele>747.5</ele>
        <time>2020-11-16T20:20:37Z</time>
      </trkpt>
      <trkpt lat="28.6890200" lon="-17.9374480">
        <ele>747.5</ele>
        <time>2020-11-16T20:20:38Z</time>
      </trkpt>
      <trkpt lat="28.6889380" lon="-17.9373830">
        <ele>747.3</ele>
        <time>2020-11-16T20:20:39Z</time>
      </trkpt>
      <trkpt lat="28.6889380" lon="-17.9373830">
        <ele>747.3</ele>
        <time>2020-11-16T20:20:40Z</time>
      </trkpt>
      <trkpt lat="28.6888530" lon="-17.9373180">
        <ele>747.1</ele>
        <time>2020-11-16T20:20:41Z</time>
      </trkpt>
      <trkpt lat="28.6888530" lon="-17.9373180">
        <ele>747.1</ele>
        <time>2020-11-16T20:20:42Z</time>
      </trkpt>
      <trkpt lat="28.6887550" lon="-17.9372730">
        <ele>747.0</ele>
        <time>2020-11-16T20:20:43Z</time>
      </trkpt>
      <trkpt lat="28.6887100" lon="-17.9372650">
        <ele>747.0</ele>
        <time>2020-11-16T20:20:44Z</time>
      </trkpt>
      <trkpt lat="28.6887100" lon="-17.9372650">
        <ele>747.0</ele>
        <time>2020-11-16T20:20:45Z</time>
      </trkpt>
      <trkpt lat="28.6886220" lon="-17.9372500">
        <ele>747.0</ele>
        <time>2020-11-16T20:20:46Z</time>
      </trkpt>
      <trkpt lat="28.6886220" lon="-17.9372500">
        <ele>747.0</ele>
        <time>2020-11-16T20:20:47Z</time>
      </trkpt>
      <trkpt lat="28.6885380" lon="-17.9372450">
        <ele>747.1</ele>
        <time>2020-11-16T20:20:48Z</time>
      </trkpt>
      <trkpt lat="28.6885380" lon="-17.9372450">
        <ele>747.1</ele>
        <time>2020-11-16T20:20:49Z</time>
      </trkpt>
      <trkpt lat="28.6884620" lon="-17.9372380">
        <ele>747.1</ele>
        <time>2020-11-16T20:20:50Z</time>
      </trkpt>
      <trkpt lat="28.6884620" lon="-17.9372380">
        <ele>747.1</ele>
        <time>2020-11-16T20:20:51Z</time>
      </trkpt>
      <trkpt lat="28.6883880" lon="-17.9372420">
        <ele>747.5</ele>
        <time>2020-11-16T20:20:52Z</time>
      </trkpt>
      <trkpt lat="28.6883880" lon="-17.9372420">
        <ele>747.5</ele>
        <time>2020-11-16T20:20:53Z</time>
      </trkpt>
      <trkpt lat="28.6883100" lon="-17.9372430">
        <ele>748.1</ele>
        <time>2020-11-16T20:20:54Z</time>
      </trkpt>
      <trkpt lat="28.6882680" lon="-17.9372400">
        <ele>748.5</ele>
        <time>2020-11-16T20:20:55Z</time>
      </trkpt>
      <trkpt lat="28.6882680" lon="-17.9372400">
        <ele>748.5</ele>
        <time>2020-11-16T20:20:56Z</time>
      </trkpt>
      <trkpt lat="28.6881870" lon="-17.9372170">
        <ele>749.1</ele>
        <time>2020-11-16T20:20:57Z</time>
      </trkpt>
      <trkpt lat="28.6881870" lon="-17.9372170">
        <ele>749.1</ele>
        <time>2020-11-16T20:20:58Z</time>
      </trkpt>
      <trkpt lat="28.6881130" lon="-17.9371570">
        <ele>749.8</ele>
        <time>2020-11-16T20:20:59Z</time>
      </trkpt>
      <trkpt lat="28.6881130" lon="-17.9371570">
        <ele>749.8</ele>
        <time>2020-11-16T20:21:00Z</time>
      </trkpt>
      <trkpt lat="28.6880600" lon="-17.9370670">
        <ele>750.4</ele>
        <time>2020-11-16T20:21:01Z</time>
      </trkpt>
      <trkpt lat="28.6880600" lon="-17.9370670">
        <ele>750.4</ele>
        <time>2020-11-16T20:21:02Z</time>
      </trkpt>
      <trkpt lat="28.6880250" lon="-17.9369530">
        <ele>751.0</ele>
        <time>2020-11-16T20:21:03Z</time>
      </trkpt>
      <trkpt lat="28.6880250" lon="-17.9369530">
        <ele>751.0</ele>
        <time>2020-11-16T20:21:04Z</time>
      </trkpt>
      <trkpt lat="28.6879970" lon="-17.9368430">
        <ele>751.5</ele>
        <time>2020-11-16T20:21:05Z</time>
      </trkpt>
      <trkpt lat="28.6879970" lon="-17.9368430">
        <ele>751.5</ele>
        <time>2020-11-16T20:21:06Z</time>
      </trkpt>
      <trkpt lat="28.6879650" lon="-17.9367250">
        <ele>752.0</ele>
        <time>2020-11-16T20:21:07Z</time>
      </trkpt>
      <trkpt lat="28.6879480" lon="-17.9366650">
        <ele>752.3</ele>
        <time>2020-11-16T20:21:08Z</time>
      </trkpt>
      <trkpt lat="28.6879480" lon="-17.9366650">
        <ele>752.3</ele>
        <time>2020-11-16T20:21:09Z</time>
      </trkpt>
      <trkpt lat="28.6878830" lon="-17.9365620">
        <ele>752.9</ele>
        <time>2020-11-16T20:21:10Z</time>
      </trkpt>
      <trkpt lat="28.6878830" lon="-17.9365620">
        <ele>752.9</ele>
        <time>2020-11-16T20:21:11Z</time>
      </trkpt>
      <trkpt lat="28.6877730" lon="-17.9365320">
        <ele>753.6</ele>
        <time>2020-11-16T20:21:12Z</time>
      </trkpt>
      <trkpt lat="28.6877730" lon="-17.9365320">
        <ele>753.6</ele>
        <time>2020-11-16T20:21:13Z</time>
      </trkpt>
      <trkpt lat="28.6876780" lon="-17.9365630">
        <ele>754.3</ele>
        <time>2020-11-16T20:21:14Z</time>
      </trkpt>
      <trkpt lat="28.6876780" lon="-17.9365630">
        <ele>754.3</ele>
        <time>2020-11-16T20:21:15Z</time>
      </trkpt>
      <trkpt lat="28.6876120" lon="-17.9366400">
        <ele>755.1</ele>
        <time>2020-11-16T20:21:16Z</time>
      </trkpt>
      <trkpt lat="28.6876120" lon="-17.9366400">
        <ele>755.1</ele>
        <time>2020-11-16T20:21:17Z</time>
      </trkpt>
      <trkpt lat="28.6875600" lon="-17.9367230">
        <ele>755.9</ele>
        <time>2020-11-16T20:21:18Z</time>
      </trkpt>
      <trkpt lat="28.6875600" lon="-17.9367230">
        <ele>755.9</ele>
        <time>2020-11-16T20:21:19Z</time>
      </trkpt>
      <trkpt lat="28.6875070" lon="-17.9368000">
        <ele>756.6</ele>
        <time>2020-11-16T20:21:20Z</time>
      </trkpt>
      <trkpt lat="28.6875070" lon="-17.9368000">
        <ele>756.6</ele>
        <time>2020-11-16T20:21:21Z</time>
      </trkpt>
      <trkpt lat="28.6874450" lon="-17.9368650">
        <ele>757.3</ele>
        <time>2020-11-16T20:21:22Z</time>
      </trkpt>
      <trkpt lat="28.6874450" lon="-17.9368650">
        <ele>757.3</ele>
        <time>2020-11-16T20:21:23Z</time>
      </trkpt>
      <trkpt lat="28.6873750" lon="-17.9369270">
        <ele>757.9</ele>
        <time>2020-11-16T20:21:24Z</time>
      </trkpt>
      <trkpt lat="28.6873750" lon="-17.9369270">
        <ele>757.9</ele>
        <time>2020-11-16T20:21:25Z</time>
      </trkpt>
      <trkpt lat="28.6872970" lon="-17.9369670">
        <ele>758.5</ele>
        <time>2020-11-16T20:21:26Z</time>
      </trkpt>
      <trkpt lat="28.6872970" lon="-17.9369670">
        <ele>758.5</ele>
        <time>2020-11-16T20:21:27Z</time>
      </trkpt>
      <trkpt lat="28.6872050" lon="-17.9369730">
        <ele>759.1</ele>
        <time>2020-11-16T20:21:28Z</time>
      </trkpt>
      <trkpt lat="28.6872050" lon="-17.9369730">
        <ele>759.1</ele>
        <time>2020-11-16T20:21:29Z</time>
      </trkpt>
      <trkpt lat="28.6871120" lon="-17.9369620">
        <ele>759.7</ele>
        <time>2020-11-16T20:21:30Z</time>
      </trkpt>
      <trkpt lat="28.6870650" lon="-17.9369570">
        <ele>760.1</ele>
        <time>2020-11-16T20:21:31Z</time>
      </trkpt>
      <trkpt lat="28.6870650" lon="-17.9369570">
        <ele>760.1</ele>
        <time>2020-11-16T20:21:32Z</time>
      </trkpt>
      <trkpt lat="28.6869770" lon="-17.9369330">
        <ele>760.7</ele>
        <time>2020-11-16T20:21:33Z</time>
      </trkpt>
      <trkpt lat="28.6869770" lon="-17.9369330">
        <ele>760.7</ele>
        <time>2020-11-16T20:21:34Z</time>
      </trkpt>
      <trkpt lat="28.6868930" lon="-17.9369080">
        <ele>761.3</ele>
        <time>2020-11-16T20:21:35Z</time>
      </trkpt>
      <trkpt lat="28.6868520" lon="-17.9368950">
        <ele>761.6</ele>
        <time>2020-11-16T20:21:36Z</time>
      </trkpt>
      <trkpt lat="28.6868520" lon="-17.9368950">
        <ele>761.6</ele>
        <time>2020-11-16T20:21:37Z</time>
      </trkpt>
      <trkpt lat="28.6867780" lon="-17.9368500">
        <ele>762.2</ele>
        <time>2020-11-16T20:21:38Z</time>
      </trkpt>
      <trkpt lat="28.6867780" lon="-17.9368500">
        <ele>762.2</ele>
        <time>2020-11-16T20:21:39Z</time>
      </trkpt>
      <trkpt lat="28.6867000" lon="-17.9368070">
        <ele>762.8</ele>
        <time>2020-11-16T20:21:40Z</time>
      </trkpt>
      <trkpt lat="28.6867000" lon="-17.9368070">
        <ele>762.8</ele>
        <time>2020-11-16T20:21:41Z</time>
      </trkpt>
      <trkpt lat="28.6866170" lon="-17.9367650">
        <ele>763.5</ele>
        <time>2020-11-16T20:21:42Z</time>
      </trkpt>
      <trkpt lat="28.6866170" lon="-17.9367650">
        <ele>763.5</ele>
        <time>2020-11-16T20:21:43Z</time>
      </trkpt>
      <trkpt lat="28.6865420" lon="-17.9367230">
        <ele>764.1</ele>
        <time>2020-11-16T20:21:44Z</time>
      </trkpt>
      <trkpt lat="28.6865420" lon="-17.9367230">
        <ele>764.1</ele>
        <time>2020-11-16T20:21:45Z</time>
      </trkpt>
      <trkpt lat="28.6864680" lon="-17.9366730">
        <ele>764.7</ele>
        <time>2020-11-16T20:21:46Z</time>
      </trkpt>
      <trkpt lat="28.6864680" lon="-17.9366730">
        <ele>764.7</ele>
        <time>2020-11-16T20:21:47Z</time>
      </trkpt>
      <trkpt lat="28.6863950" lon="-17.9366150">
        <ele>765.3</ele>
        <time>2020-11-16T20:21:48Z</time>
      </trkpt>
      <trkpt lat="28.6863950" lon="-17.9366150">
        <ele>765.3</ele>
        <time>2020-11-16T20:21:49Z</time>
      </trkpt>
      <trkpt lat="28.6863230" lon="-17.9365570">
        <ele>765.8</ele>
        <time>2020-11-16T20:21:50Z</time>
      </trkpt>
      <trkpt lat="28.6863230" lon="-17.9365570">
        <ele>765.8</ele>
        <time>2020-11-16T20:21:51Z</time>
      </trkpt>
      <trkpt lat="28.6862500" lon="-17.9364930">
        <ele>766.3</ele>
        <time>2020-11-16T20:21:52Z</time>
      </trkpt>
      <trkpt lat="28.6862500" lon="-17.9364930">
        <ele>766.3</ele>
        <time>2020-11-16T20:21:53Z</time>
      </trkpt>
      <trkpt lat="28.6861770" lon="-17.9364270">
        <ele>766.8</ele>
        <time>2020-11-16T20:21:54Z</time>
      </trkpt>
      <trkpt lat="28.6861770" lon="-17.9364270">
        <ele>766.8</ele>
        <time>2020-11-16T20:21:55Z</time>
      </trkpt>
      <trkpt lat="28.6861070" lon="-17.9363670">
        <ele>767.3</ele>
        <time>2020-11-16T20:21:56Z</time>
      </trkpt>
      <trkpt lat="28.6861070" lon="-17.9363670">
        <ele>767.3</ele>
        <time>2020-11-16T20:21:57Z</time>
      </trkpt>
      <trkpt lat="28.6860370" lon="-17.9363030">
        <ele>766.6</ele>
        <time>2020-11-16T20:21:58Z</time>
      </trkpt>
      <trkpt lat="28.6860370" lon="-17.9363030">
        <ele>766.6</ele>
        <time>2020-11-16T20:21:59Z</time>
      </trkpt>
      <trkpt lat="28.6859620" lon="-17.9362450">
        <ele>766.0</ele>
        <time>2020-11-16T20:22:00Z</time>
      </trkpt>
      <trkpt lat="28.6859620" lon="-17.9362450">
        <ele>766.0</ele>
        <time>2020-11-16T20:22:01Z</time>
      </trkpt>
      <trkpt lat="28.6858820" lon="-17.9361850">
        <ele>765.4</ele>
        <time>2020-11-16T20:22:02Z</time>
      </trkpt>
      <trkpt lat="28.6858820" lon="-17.9361850">
        <ele>765.4</ele>
        <time>2020-11-16T20:22:03Z</time>
      </trkpt>
      <trkpt lat="28.6858000" lon="-17.9361270">
        <ele>764.8</ele>
        <time>2020-11-16T20:22:04Z</time>
      </trkpt>
      <trkpt lat="28.6857620" lon="-17.9360970">
        <ele>764.5</ele>
        <time>2020-11-16T20:22:05Z</time>
      </trkpt>
      <trkpt lat="28.6857620" lon="-17.9360970">
        <ele>764.5</ele>
        <time>2020-11-16T20:22:06Z</time>
      </trkpt>
      <trkpt lat="28.6856780" lon="-17.9360330">
        <ele>763.8</ele>
        <time>2020-11-16T20:22:07Z</time>
      </trkpt>
      <trkpt lat="28.6856780" lon="-17.9360330">
        <ele>763.8</ele>
        <time>2020-11-16T20:22:08Z</time>
      </trkpt>
      <trkpt lat="28.6855820" lon="-17.9359530">
        <ele>763.0</ele>
        <time>2020-11-16T20:22:09Z</time>
      </trkpt>
      <trkpt lat="28.6855820" lon="-17.9359530">
        <ele>763.0</ele>
        <time>2020-11-16T20:22:10Z</time>
      </trkpt>
      <trkpt lat="28.6854880" lon="-17.9358870">
        <ele>762.3</ele>
        <time>2020-11-16T20:22:11Z</time>
      </trkpt>
      <trkpt lat="28.6854880" lon="-17.9358870">
        <ele>762.3</ele>
        <time>2020-11-16T20:22:12Z</time>
      </trkpt>
      <trkpt lat="28.6854070" lon="-17.9358180">
        <ele>761.6</ele>
        <time>2020-11-16T20:22:13Z</time>
      </trkpt>
      <trkpt lat="28.6854070" lon="-17.9358180">
        <ele>761.6</ele>
        <time>2020-11-16T20:22:14Z</time>
      </trkpt>
      <trkpt lat="28.6853230" lon="-17.9357620">
        <ele>761.0</ele>
        <time>2020-11-16T20:22:15Z</time>
      </trkpt>
      <trkpt lat="28.6853230" lon="-17.9357620">
        <ele>761.0</ele>
        <time>2020-11-16T20:22:16Z</time>
      </trkpt>
      <trkpt lat="28.6852450" lon="-17.9357070">
        <ele>760.3</ele>
        <time>2020-11-16T20:22:17Z</time>
      </trkpt>
      <trkpt lat="28.6852450" lon="-17.9357070">
        <ele>760.3</ele>
        <time>2020-11-16T20:22:18Z</time>
      </trkpt>
      <trkpt lat="28.6851600" lon="-17.9356550">
        <ele>759.7</ele>
        <time>2020-11-16T20:22:19Z</time>
      </trkpt>
      <trkpt lat="28.6851600" lon="-17.9356550">
        <ele>759.7</ele>
        <time>2020-11-16T20:22:20Z</time>
      </trkpt>
      <trkpt lat="28.6850720" lon="-17.9355950">
        <ele>759.0</ele>
        <time>2020-11-16T20:22:21Z</time>
      </trkpt>
      <trkpt lat="28.6850720" lon="-17.9355950">
        <ele>759.0</ele>
        <time>2020-11-16T20:22:22Z</time>
      </trkpt>
      <trkpt lat="28.6849750" lon="-17.9355650">
        <ele>758.4</ele>
        <time>2020-11-16T20:22:23Z</time>
      </trkpt>
      <trkpt lat="28.6849750" lon="-17.9355650">
        <ele>758.4</ele>
        <time>2020-11-16T20:22:24Z</time>
      </trkpt>
      <trkpt lat="28.6848780" lon="-17.9355800">
        <ele>757.8</ele>
        <time>2020-11-16T20:22:25Z</time>
      </trkpt>
      <trkpt lat="28.6848350" lon="-17.9355950">
        <ele>757.6</ele>
        <time>2020-11-16T20:22:26Z</time>
      </trkpt>
      <trkpt lat="28.6848350" lon="-17.9355950">
        <ele>757.6</ele>
        <time>2020-11-16T20:22:27Z</time>
      </trkpt>
      <trkpt lat="28.6847570" lon="-17.9356400">
        <ele>757.1</ele>
        <time>2020-11-16T20:22:28Z</time>
      </trkpt>
      <trkpt lat="28.6847570" lon="-17.9356400">
        <ele>757.1</ele>
        <time>2020-11-16T20:22:29Z</time>
      </trkpt>
      <trkpt lat="28.6846870" lon="-17.9357100">
        <ele>756.5</ele>
        <time>2020-11-16T20:22:30Z</time>
      </trkpt>
      <trkpt lat="28.6846870" lon="-17.9357100">
        <ele>756.5</ele>
        <time>2020-11-16T20:22:31Z</time>
      </trkpt>
      <trkpt lat="28.6846180" lon="-17.9357850">
        <ele>755.8</ele>
        <time>2020-11-16T20:22:32Z</time>
      </trkpt>
      <trkpt lat="28.6846180" lon="-17.9357850">
        <ele>755.8</ele>
        <time>2020-11-16T20:22:33Z</time>
      </trkpt>
      <trkpt lat="28.6845520" lon="-17.9358620">
        <ele>755.2</ele>
        <time>2020-11-16T20:22:34Z</time>
      </trkpt>
      <trkpt lat="28.6845520" lon="-17.9358620">
        <ele>755.2</ele>
        <time>2020-11-16T20:22:35Z</time>
      </trkpt>
      <trkpt lat="28.6844780" lon="-17.9359230">
        <ele>754.5</ele>
        <time>2020-11-16T20:22:36Z</time>
      </trkpt>
      <trkpt lat="28.6844780" lon="-17.9359230">
        <ele>754.5</ele>
        <time>2020-11-16T20:22:37Z</time>
      </trkpt>
      <trkpt lat="28.6843900" lon="-17.9359470">
        <ele>753.9</ele>
        <time>2020-11-16T20:22:38Z</time>
      </trkpt>
      <trkpt lat="28.6843900" lon="-17.9359470">
        <ele>753.9</ele>
        <time>2020-11-16T20:22:39Z</time>
      </trkpt>
      <trkpt lat="28.6842970" lon="-17.9359270">
        <ele>753.1</ele>
        <time>2020-11-16T20:22:40Z</time>
      </trkpt>
      <trkpt lat="28.6842970" lon="-17.9359270">
        <ele>753.1</ele>
        <time>2020-11-16T20:22:41Z</time>
      </trkpt>
      <trkpt lat="28.6842500" lon="-17.9359050">
        <ele>752.7</ele>
        <time>2020-11-16T20:22:42Z</time>
      </trkpt>
      <trkpt lat="28.6841470" lon="-17.9358620">
        <ele>752.0</ele>
        <time>2020-11-16T20:22:43Z</time>
      </trkpt>
      <trkpt lat="28.6840930" lon="-17.9358480">
        <ele>751.6</ele>
        <time>2020-11-16T20:22:44Z</time>
      </trkpt>
      <trkpt lat="28.6840930" lon="-17.9358480">
        <ele>751.6</ele>
        <time>2020-11-16T20:22:45Z</time>
      </trkpt>
      <trkpt lat="28.6839800" lon="-17.9358500">
        <ele>751.0</ele>
        <time>2020-11-16T20:22:46Z</time>
      </trkpt>
      <trkpt lat="28.6839800" lon="-17.9358500">
        <ele>751.0</ele>
        <time>2020-11-16T20:22:47Z</time>
      </trkpt>
      <trkpt lat="28.6838700" lon="-17.9358920">
        <ele>750.4</ele>
        <time>2020-11-16T20:22:48Z</time>
      </trkpt>
      <trkpt lat="28.6838700" lon="-17.9358920">
        <ele>750.4</ele>
        <time>2020-11-16T20:22:49Z</time>
      </trkpt>
      <trkpt lat="28.6837650" lon="-17.9359350">
        <ele>749.9</ele>
        <time>2020-11-16T20:22:50Z</time>
      </trkpt>
      <trkpt lat="28.6837650" lon="-17.9359350">
        <ele>749.9</ele>
        <time>2020-11-16T20:22:51Z</time>
      </trkpt>
      <trkpt lat="28.6836570" lon="-17.9359350">
        <ele>749.4</ele>
        <time>2020-11-16T20:22:52Z</time>
      </trkpt>
      <trkpt lat="28.6836570" lon="-17.9359350">
        <ele>749.4</ele>
        <time>2020-11-16T20:22:53Z</time>
      </trkpt>
      <trkpt lat="28.6835600" lon="-17.9358830">
        <ele>749.2</ele>
        <time>2020-11-16T20:22:54Z</time>
      </trkpt>
      <trkpt lat="28.6835600" lon="-17.9358830">
        <ele>749.2</ele>
        <time>2020-11-16T20:22:55Z</time>
      </trkpt>
      <trkpt lat="28.6834900" lon="-17.9357970">
        <ele>749.2</ele>
        <time>2020-11-16T20:22:56Z</time>
      </trkpt>
      <trkpt lat="28.6834900" lon="-17.9357970">
        <ele>749.2</ele>
        <time>2020-11-16T20:22:57Z</time>
      </trkpt>
      <trkpt lat="28.6834330" lon="-17.9356930">
        <ele>749.0</ele>
        <time>2020-11-16T20:22:58Z</time>
      </trkpt>
      <trkpt lat="28.6834330" lon="-17.9356930">
        <ele>749.0</ele>
        <time>2020-11-16T20:22:59Z</time>
      </trkpt>
      <trkpt lat="28.6833880" lon="-17.9355780">
        <ele>748.8</ele>
        <time>2020-11-16T20:23:00Z</time>
      </trkpt>
      <trkpt lat="28.6833880" lon="-17.9355780">
        <ele>748.8</ele>
        <time>2020-11-16T20:23:01Z</time>
      </trkpt>
      <trkpt lat="28.6833300" lon="-17.9354680">
        <ele>748.3</ele>
        <time>2020-11-16T20:23:02Z</time>
      </trkpt>
      <trkpt lat="28.6833300" lon="-17.9354680">
        <ele>748.3</ele>
        <time>2020-11-16T20:23:03Z</time>
      </trkpt>
      <trkpt lat="28.6832570" lon="-17.9353730">
        <ele>747.7</ele>
        <time>2020-11-16T20:23:04Z</time>
      </trkpt>
      <trkpt lat="28.6832570" lon="-17.9353730">
        <ele>747.7</ele>
        <time>2020-11-16T20:23:05Z</time>
      </trkpt>
      <trkpt lat="28.6831770" lon="-17.9352870">
        <ele>747.0</ele>
        <time>2020-11-16T20:23:06Z</time>
      </trkpt>
      <trkpt lat="28.6831350" lon="-17.9352400">
        <ele>746.6</ele>
        <time>2020-11-16T20:23:07Z</time>
      </trkpt>
      <trkpt lat="28.6831350" lon="-17.9352400">
        <ele>746.6</ele>
        <time>2020-11-16T20:23:08Z</time>
      </trkpt>
      <trkpt lat="28.6831350" lon="-17.9352400">
        <ele>746.6</ele>
        <time>2020-11-16T20:23:09Z</time>
      </trkpt>
      <trkpt lat="28.6830320" lon="-17.9351580">
        <ele>746.0</ele>
        <time>2020-11-16T20:23:10Z</time>
      </trkpt>
      <trkpt lat="28.6829070" lon="-17.9351520">
        <ele>745.5</ele>
        <time>2020-11-16T20:23:11Z</time>
      </trkpt>
      <trkpt lat="28.6828500" lon="-17.9351850">
        <ele>745.4</ele>
        <time>2020-11-16T20:23:12Z</time>
      </trkpt>
      <trkpt lat="28.6828500" lon="-17.9351850">
        <ele>745.4</ele>
        <time>2020-11-16T20:23:13Z</time>
      </trkpt>
      <trkpt lat="28.6827380" lon="-17.9352620">
        <ele>745.2</ele>
        <time>2020-11-16T20:23:14Z</time>
      </trkpt>
      <trkpt lat="28.6827380" lon="-17.9352620">
        <ele>745.2</ele>
        <time>2020-11-16T20:23:15Z</time>
      </trkpt>
      <trkpt lat="28.6826250" lon="-17.9353120">
        <ele>745.0</ele>
        <time>2020-11-16T20:23:16Z</time>
      </trkpt>
      <trkpt lat="28.6826250" lon="-17.9353120">
        <ele>745.0</ele>
        <time>2020-11-16T20:23:17Z</time>
      </trkpt>
      <trkpt lat="28.6825150" lon="-17.9353700">
        <ele>745.0</ele>
        <time>2020-11-16T20:23:18Z</time>
      </trkpt>
      <trkpt lat="28.6825150" lon="-17.9353700">
        <ele>745.0</ele>
        <time>2020-11-16T20:23:19Z</time>
      </trkpt>
      <trkpt lat="28.6824120" lon="-17.9354330">
        <ele>745.0</ele>
        <time>2020-11-16T20:23:20Z</time>
      </trkpt>
      <trkpt lat="28.6824120" lon="-17.9354330">
        <ele>745.0</ele>
        <time>2020-11-16T20:23:21Z</time>
      </trkpt>
      <trkpt lat="28.6823170" lon="-17.9354950">
        <ele>745.1</ele>
        <time>2020-11-16T20:23:22Z</time>
      </trkpt>
      <trkpt lat="28.6822730" lon="-17.9355330">
        <ele>745.1</ele>
        <time>2020-11-16T20:23:23Z</time>
      </trkpt>
      <trkpt lat="28.6822730" lon="-17.9355330">
        <ele>745.1</ele>
        <time>2020-11-16T20:23:24Z</time>
      </trkpt>
      <trkpt lat="28.6821880" lon="-17.9356100">
        <ele>745.2</ele>
        <time>2020-11-16T20:23:25Z</time>
      </trkpt>
      <trkpt lat="28.6821880" lon="-17.9356100">
        <ele>745.2</ele>
        <time>2020-11-16T20:23:26Z</time>
      </trkpt>
      <trkpt lat="28.6820930" lon="-17.9356780">
        <ele>745.2</ele>
        <time>2020-11-16T20:23:27Z</time>
      </trkpt>
      <trkpt lat="28.6820450" lon="-17.9357150">
        <ele>745.2</ele>
        <time>2020-11-16T20:23:28Z</time>
      </trkpt>
      <trkpt lat="28.6820450" lon="-17.9357150">
        <ele>745.2</ele>
        <time>2020-11-16T20:23:29Z</time>
      </trkpt>
      <trkpt lat="28.6819470" lon="-17.9357900">
        <ele>745.1</ele>
        <time>2020-11-16T20:23:30Z</time>
      </trkpt>
      <trkpt lat="28.6819470" lon="-17.9357900">
        <ele>745.1</ele>
        <time>2020-11-16T20:23:31Z</time>
      </trkpt>
      <trkpt lat="28.6818420" lon="-17.9358570">
        <ele>744.9</ele>
        <time>2020-11-16T20:23:32Z</time>
      </trkpt>
      <trkpt lat="28.6818420" lon="-17.9358570">
        <ele>744.9</ele>
        <time>2020-11-16T20:23:33Z</time>
      </trkpt>
      <trkpt lat="28.6817330" lon="-17.9359130">
        <ele>744.5</ele>
        <time>2020-11-16T20:23:34Z</time>
      </trkpt>
      <trkpt lat="28.6816780" lon="-17.9359400">
        <ele>744.1</ele>
        <time>2020-11-16T20:23:35Z</time>
      </trkpt>
      <trkpt lat="28.6816780" lon="-17.9359400">
        <ele>744.1</ele>
        <time>2020-11-16T20:23:36Z</time>
      </trkpt>
      <trkpt lat="28.6816780" lon="-17.9359400">
        <ele>744.1</ele>
        <time>2020-11-16T20:23:37Z</time>
      </trkpt>
      <trkpt lat="28.6815580" lon="-17.9359900">
        <ele>743.0</ele>
        <time>2020-11-16T20:23:38Z</time>
      </trkpt>
      <trkpt lat="28.6814270" lon="-17.9360350">
        <ele>741.8</ele>
        <time>2020-11-16T20:23:39Z</time>
      </trkpt>
      <trkpt lat="28.6814270" lon="-17.9360350">
        <ele>741.8</ele>
        <time>2020-11-16T20:23:40Z</time>
      </trkpt>
      <trkpt lat="28.6812930" lon="-17.9360830">
        <ele>740.4</ele>
        <time>2020-11-16T20:23:41Z</time>
      </trkpt>
      <trkpt lat="28.6812930" lon="-17.9360830">
        <ele>740.4</ele>
        <time>2020-11-16T20:23:42Z</time>
      </trkpt>
      <trkpt lat="28.6811570" lon="-17.9361270">
        <ele>739.0</ele>
        <time>2020-11-16T20:23:43Z</time>
      </trkpt>
      <trkpt lat="28.6810900" lon="-17.9361500">
        <ele>738.3</ele>
        <time>2020-11-16T20:23:44Z</time>
      </trkpt>
      <trkpt lat="28.6810900" lon="-17.9361500">
        <ele>738.3</ele>
        <time>2020-11-16T20:23:45Z</time>
      </trkpt>
      <trkpt lat="28.6809630" lon="-17.9361900">
        <ele>736.2</ele>
        <time>2020-11-16T20:23:46Z</time>
      </trkpt>
      <trkpt lat="28.6809630" lon="-17.9361900">
        <ele>736.2</ele>
        <time>2020-11-16T20:23:47Z</time>
      </trkpt>
      <trkpt lat="28.6808500" lon="-17.9362200">
        <ele>735.4</ele>
        <time>2020-11-16T20:23:48Z</time>
      </trkpt>
      <trkpt lat="28.6808500" lon="-17.9362200">
        <ele>735.4</ele>
        <time>2020-11-16T20:23:49Z</time>
      </trkpt>
      <trkpt lat="28.6807600" lon="-17.9362470">
        <ele>734.6</ele>
        <time>2020-11-16T20:23:50Z</time>
      </trkpt>
      <trkpt lat="28.6807600" lon="-17.9362470">
        <ele>734.6</ele>
        <time>2020-11-16T20:23:51Z</time>
      </trkpt>
      <trkpt lat="28.6806980" lon="-17.9362670">
        <ele>734.1</ele>
        <time>2020-11-16T20:23:52Z</time>
      </trkpt>
      <trkpt lat="28.6806980" lon="-17.9362670">
        <ele>734.1</ele>
        <time>2020-11-16T20:23:53Z</time>
      </trkpt>
      <trkpt lat="28.6806580" lon="-17.9362800">
        <ele>733.7</ele>
        <time>2020-11-16T20:23:54Z</time>
      </trkpt>
      <trkpt lat="28.6806450" lon="-17.9362780">
        <ele>733.6</ele>
        <time>2020-11-16T20:23:55Z</time>
      </trkpt>
      <trkpt lat="28.6806450" lon="-17.9362780">
        <ele>733.6</ele>
        <time>2020-11-16T20:23:56Z</time>
      </trkpt>
      <trkpt lat="28.6806470" lon="-17.9362780">
        <ele>733.6</ele>
        <time>2020-11-16T20:23:57Z</time>
      </trkpt>
      <trkpt lat="28.6806470" lon="-17.9362820">
        <ele>733.6</ele>
        <time>2020-11-16T20:23:58Z</time>
      </trkpt>
      <trkpt lat="28.6806470" lon="-17.9362820">
        <ele>733.6</ele>
        <time>2020-11-16T20:25:14Z</time>
      </trkpt>
      <trkpt lat="28.6806000" lon="-17.9362750">
        <ele>733.2</ele>
        <time>2020-11-16T20:25:15Z</time>
      </trkpt>
      <trkpt lat="28.6806000" lon="-17.9362750">
        <ele>733.2</ele>
        <time>2020-11-16T20:25:16Z</time>
      </trkpt>
      <trkpt lat="28.6805120" lon="-17.9362650">
        <ele>732.3</ele>
        <time>2020-11-16T20:25:17Z</time>
      </trkpt>
      <trkpt lat="28.6804570" lon="-17.9362550">
        <ele>731.7</ele>
        <time>2020-11-16T20:25:18Z</time>
      </trkpt>
      <trkpt lat="28.6804570" lon="-17.9362550">
        <ele>731.7</ele>
        <time>2020-11-16T20:25:19Z</time>
      </trkpt>
      <trkpt lat="28.6803280" lon="-17.9362280">
        <ele>730.0</ele>
        <time>2020-11-16T20:25:20Z</time>
      </trkpt>
      <trkpt lat="28.6803280" lon="-17.9362280">
        <ele>730.0</ele>
        <time>2020-11-16T20:25:21Z</time>
      </trkpt>
      <trkpt lat="28.6801780" lon="-17.9362130">
        <ele>734.2</ele>
        <time>2020-11-16T20:25:22Z</time>
      </trkpt>
      <trkpt lat="28.6801780" lon="-17.9362130">
        <ele>734.2</ele>
        <time>2020-11-16T20:25:23Z</time>
      </trkpt>
      <trkpt lat="28.6800220" lon="-17.9362420">
        <ele>733.9</ele>
        <time>2020-11-16T20:25:24Z</time>
      </trkpt>
      <trkpt lat="28.6800220" lon="-17.9362420">
        <ele>733.9</ele>
        <time>2020-11-16T20:25:25Z</time>
      </trkpt>
      <trkpt lat="28.6798620" lon="-17.9362930">
        <ele>732.0</ele>
        <time>2020-11-16T20:25:26Z</time>
      </trkpt>
      <trkpt lat="28.6798620" lon="-17.9362930">
        <ele>732.0</ele>
        <time>2020-11-16T20:25:27Z</time>
      </trkpt>
      <trkpt lat="28.6796950" lon="-17.9363570">
        <ele>729.9</ele>
        <time>2020-11-16T20:25:28Z</time>
      </trkpt>
      <trkpt lat="28.6796950" lon="-17.9363570">
        <ele>729.9</ele>
        <time>2020-11-16T20:25:29Z</time>
      </trkpt>
      <trkpt lat="28.6795150" lon="-17.9364080">
        <ele>727.6</ele>
        <time>2020-11-16T20:25:30Z</time>
      </trkpt>
      <trkpt lat="28.6794170" lon="-17.9364270">
        <ele>726.3</ele>
        <time>2020-11-16T20:25:31Z</time>
      </trkpt>
      <trkpt lat="28.6794170" lon="-17.9364270">
        <ele>726.3</ele>
        <time>2020-11-16T20:25:32Z</time>
      </trkpt>
      <trkpt lat="28.6794170" lon="-17.9364270">
        <ele>726.3</ele>
        <time>2020-11-16T20:25:33Z</time>
      </trkpt>
      <trkpt lat="28.6791070" lon="-17.9364820">
        <ele>722.2</ele>
        <time>2020-11-16T20:25:34Z</time>
      </trkpt>
      <trkpt lat="28.6791070" lon="-17.9364820">
        <ele>722.2</ele>
        <time>2020-11-16T20:25:35Z</time>
      </trkpt>
      <trkpt lat="28.6788930" lon="-17.9365280">
        <ele>719.6</ele>
        <time>2020-11-16T20:25:36Z</time>
      </trkpt>
      <trkpt lat="28.6788930" lon="-17.9365280">
        <ele>719.6</ele>
        <time>2020-11-16T20:25:37Z</time>
      </trkpt>
      <trkpt lat="28.6786800" lon="-17.9365780">
        <ele>717.1</ele>
        <time>2020-11-16T20:25:38Z</time>
      </trkpt>
      <trkpt lat="28.6786800" lon="-17.9365780">
        <ele>717.1</ele>
        <time>2020-11-16T20:25:39Z</time>
      </trkpt>
      <trkpt lat="28.6784630" lon="-17.9366180">
        <ele>714.7</ele>
        <time>2020-11-16T20:25:40Z</time>
      </trkpt>
      <trkpt lat="28.6784630" lon="-17.9366180">
        <ele>714.7</ele>
        <time>2020-11-16T20:25:41Z</time>
      </trkpt>
      <trkpt lat="28.6782530" lon="-17.9366620">
        <ele>713.5</ele>
        <time>2020-11-16T20:25:42Z</time>
      </trkpt>
      <trkpt lat="28.6781530" lon="-17.9366950">
        <ele>713.1</ele>
        <time>2020-11-16T20:25:43Z</time>
      </trkpt>
      <trkpt lat="28.6781530" lon="-17.9366950">
        <ele>713.1</ele>
        <time>2020-11-16T20:25:44Z</time>
      </trkpt>
      <trkpt lat="28.6779770" lon="-17.9367850">
        <ele>712.5</ele>
        <time>2020-11-16T20:25:45Z</time>
      </trkpt>
      <trkpt lat="28.6779770" lon="-17.9367850">
        <ele>712.5</ele>
        <time>2020-11-16T20:25:46Z</time>
      </trkpt>
      <trkpt lat="28.6778220" lon="-17.9368780">
        <ele>712.0</ele>
        <time>2020-11-16T20:25:47Z</time>
      </trkpt>
      <trkpt lat="28.6778220" lon="-17.9368780">
        <ele>712.0</ele>
        <time>2020-11-16T20:25:48Z</time>
      </trkpt>
      <trkpt lat="28.6776530" lon="-17.9369180">
        <ele>711.8</ele>
        <time>2020-11-16T20:25:49Z</time>
      </trkpt>
      <trkpt lat="28.6776530" lon="-17.9369180">
        <ele>711.8</ele>
        <time>2020-11-16T20:25:50Z</time>
      </trkpt>
      <trkpt lat="28.6775680" lon="-17.9369180">
        <ele>711.6</ele>
        <time>2020-11-16T20:25:51Z</time>
      </trkpt>
      <trkpt lat="28.6774050" lon="-17.9369350">
        <ele>711.5</ele>
        <time>2020-11-16T20:25:52Z</time>
      </trkpt>
      <trkpt lat="28.6774050" lon="-17.9369350">
        <ele>711.5</ele>
        <time>2020-11-16T20:25:53Z</time>
      </trkpt>
      <trkpt lat="28.6772530" lon="-17.9369820">
        <ele>711.3</ele>
        <time>2020-11-16T20:25:54Z</time>
      </trkpt>
      <trkpt lat="28.6772530" lon="-17.9369820">
        <ele>711.3</ele>
        <time>2020-11-16T20:25:55Z</time>
      </trkpt>
      <trkpt lat="28.6771050" lon="-17.9370220">
        <ele>711.1</ele>
        <time>2020-11-16T20:25:56Z</time>
      </trkpt>
      <trkpt lat="28.6771050" lon="-17.9370220">
        <ele>711.1</ele>
        <time>2020-11-16T20:25:57Z</time>
      </trkpt>
      <trkpt lat="28.6769600" lon="-17.9370250">
        <ele>710.9</ele>
        <time>2020-11-16T20:25:58Z</time>
      </trkpt>
      <trkpt lat="28.6769600" lon="-17.9370250">
        <ele>710.9</ele>
        <time>2020-11-16T20:25:59Z</time>
      </trkpt>
      <trkpt lat="28.6768170" lon="-17.9370050">
        <ele>710.5</ele>
        <time>2020-11-16T20:26:00Z</time>
      </trkpt>
      <trkpt lat="28.6768170" lon="-17.9370050">
        <ele>710.5</ele>
        <time>2020-11-16T20:26:01Z</time>
      </trkpt>
      <trkpt lat="28.6766700" lon="-17.9369830">
        <ele>709.9</ele>
        <time>2020-11-16T20:26:02Z</time>
      </trkpt>
      <trkpt lat="28.6766700" lon="-17.9369830">
        <ele>709.9</ele>
        <time>2020-11-16T20:26:03Z</time>
      </trkpt>
      <trkpt lat="28.6765150" lon="-17.9370030">
        <ele>709.3</ele>
        <time>2020-11-16T20:26:04Z</time>
      </trkpt>
      <trkpt lat="28.6764450" lon="-17.9370270">
        <ele>709.3</ele>
        <time>2020-11-16T20:26:05Z</time>
      </trkpt>
      <trkpt lat="28.6764450" lon="-17.9370270">
        <ele>709.3</ele>
        <time>2020-11-16T20:26:06Z</time>
      </trkpt>
      <trkpt lat="28.6763170" lon="-17.9370520">
        <ele>709.2</ele>
        <time>2020-11-16T20:26:07Z</time>
      </trkpt>
      <trkpt lat="28.6762470" lon="-17.9370400">
        <ele>709.1</ele>
        <time>2020-11-16T20:26:08Z</time>
      </trkpt>
      <trkpt lat="28.6762470" lon="-17.9370400">
        <ele>709.1</ele>
        <time>2020-11-16T20:26:09Z</time>
      </trkpt>
      <trkpt lat="28.6760950" lon="-17.9370070">
        <ele>708.9</ele>
        <time>2020-11-16T20:26:10Z</time>
      </trkpt>
      <trkpt lat="28.6760950" lon="-17.9370070">
        <ele>708.9</ele>
        <time>2020-11-16T20:26:11Z</time>
      </trkpt>
      <trkpt lat="28.6760950" lon="-17.9370070">
        <ele>708.9</ele>
        <time>2020-11-16T20:26:12Z</time>
      </trkpt>
      <trkpt lat="28.6759480" lon="-17.9370370">
        <ele>709.0</ele>
        <time>2020-11-16T20:26:13Z</time>
      </trkpt>
      <trkpt lat="28.6758320" lon="-17.9371400">
        <ele>709.2</ele>
        <time>2020-11-16T20:26:14Z</time>
      </trkpt>
      <trkpt lat="28.6758320" lon="-17.9371400">
        <ele>709.2</ele>
        <time>2020-11-16T20:26:15Z</time>
      </trkpt>
      <trkpt lat="28.6757050" lon="-17.9372420">
        <ele>708.4</ele>
        <time>2020-11-16T20:26:16Z</time>
      </trkpt>
      <trkpt lat="28.6757050" lon="-17.9372420">
        <ele>708.4</ele>
        <time>2020-11-16T20:26:17Z</time>
      </trkpt>
      <trkpt lat="28.6755730" lon="-17.9373470">
        <ele>706.6</ele>
        <time>2020-11-16T20:26:18Z</time>
      </trkpt>
      <trkpt lat="28.6755130" lon="-17.9374070">
        <ele>705.6</ele>
        <time>2020-11-16T20:26:19Z</time>
      </trkpt>
      <trkpt lat="28.6755130" lon="-17.9374070">
        <ele>705.6</ele>
        <time>2020-11-16T20:26:20Z</time>
      </trkpt>
      <trkpt lat="28.6754230" lon="-17.9375130">
        <ele>704.1</ele>
        <time>2020-11-16T20:26:21Z</time>
      </trkpt>
      <trkpt lat="28.6753930" lon="-17.9375500">
        <ele>703.5</ele>
        <time>2020-11-16T20:26:22Z</time>
      </trkpt>
      <trkpt lat="28.6753930" lon="-17.9375500">
        <ele>703.5</ele>
        <time>2020-11-16T20:26:23Z</time>
      </trkpt>
      <trkpt lat="28.6753720" lon="-17.9376070">
        <ele>694.1</ele>
        <time>2020-11-16T20:26:24Z</time>
      </trkpt>
      <trkpt lat="28.6753720" lon="-17.9376070">
        <ele>694.1</ele>
        <time>2020-11-16T20:26:25Z</time>
      </trkpt>
      <trkpt lat="28.6753700" lon="-17.9376630">
        <ele>694.1</ele>
        <time>2020-11-16T20:26:26Z</time>
      </trkpt>
      <trkpt lat="28.6753700" lon="-17.9376630">
        <ele>694.1</ele>
        <time>2020-11-16T20:26:27Z</time>
      </trkpt>
      <trkpt lat="28.6753720" lon="-17.9377420">
        <ele>694.2</ele>
        <time>2020-11-16T20:26:28Z</time>
      </trkpt>
      <trkpt lat="28.6753720" lon="-17.9377420">
        <ele>694.2</ele>
        <time>2020-11-16T20:26:29Z</time>
      </trkpt>
      <trkpt lat="28.6753550" lon="-17.9378250">
        <ele>694.1</ele>
        <time>2020-11-16T20:26:30Z</time>
      </trkpt>
      <trkpt lat="28.6753550" lon="-17.9378250">
        <ele>694.1</ele>
        <time>2020-11-16T20:26:31Z</time>
      </trkpt>
      <trkpt lat="28.6753030" lon="-17.9379130">
        <ele>690.4</ele>
        <time>2020-11-16T20:26:32Z</time>
      </trkpt>
      <trkpt lat="28.6753030" lon="-17.9379130">
        <ele>690.4</ele>
        <time>2020-11-16T20:26:33Z</time>
      </trkpt>
      <trkpt lat="28.6752320" lon="-17.9379970">
        <ele>684.4</ele>
        <time>2020-11-16T20:26:34Z</time>
      </trkpt>
      <trkpt lat="28.6752320" lon="-17.9379970">
        <ele>684.4</ele>
        <time>2020-11-16T20:26:35Z</time>
      </trkpt>
      <trkpt lat="28.6751620" lon="-17.9380830">
        <ele>682.2</ele>
        <time>2020-11-16T20:26:36Z</time>
      </trkpt>
      <trkpt lat="28.6751620" lon="-17.9380830">
        <ele>682.2</ele>
        <time>2020-11-16T20:26:37Z</time>
      </trkpt>
      <trkpt lat="28.6751020" lon="-17.9381680">
        <ele>680.0</ele>
        <time>2020-11-16T20:26:38Z</time>
      </trkpt>
      <trkpt lat="28.6751020" lon="-17.9381680">
        <ele>680.0</ele>
        <time>2020-11-16T20:26:39Z</time>
      </trkpt>
      <trkpt lat="28.6750330" lon="-17.9382420">
        <ele>678.0</ele>
        <time>2020-11-16T20:26:40Z</time>
      </trkpt>
      <trkpt lat="28.6750330" lon="-17.9382420">
        <ele>678.0</ele>
        <time>2020-11-16T20:26:41Z</time>
      </trkpt>
      <trkpt lat="28.6749600" lon="-17.9383050">
        <ele>676.1</ele>
        <time>2020-11-16T20:26:42Z</time>
      </trkpt>
      <trkpt lat="28.6749600" lon="-17.9383050">
        <ele>676.1</ele>
        <time>2020-11-16T20:26:43Z</time>
      </trkpt>
      <trkpt lat="28.6748900" lon="-17.9383830">
        <ele>674.3</ele>
        <time>2020-11-16T20:26:44Z</time>
      </trkpt>
      <trkpt lat="28.6748900" lon="-17.9383830">
        <ele>674.3</ele>
        <time>2020-11-16T20:26:45Z</time>
      </trkpt>
      <trkpt lat="28.6748050" lon="-17.9384720">
        <ele>672.7</ele>
        <time>2020-11-16T20:26:46Z</time>
      </trkpt>
      <trkpt lat="28.6747630" lon="-17.9385220">
        <ele>672.0</ele>
        <time>2020-11-16T20:26:47Z</time>
      </trkpt>
      <trkpt lat="28.6747630" lon="-17.9385220">
        <ele>672.0</ele>
        <time>2020-11-16T20:26:48Z</time>
      </trkpt>
      <trkpt lat="28.6746820" lon="-17.9386270">
        <ele>671.4</ele>
        <time>2020-11-16T20:26:49Z</time>
      </trkpt>
      <trkpt lat="28.6746820" lon="-17.9386270">
        <ele>671.4</ele>
        <time>2020-11-16T20:26:50Z</time>
      </trkpt>
      <trkpt lat="28.6746070" lon="-17.9387450">
        <ele>671.1</ele>
        <time>2020-11-16T20:26:51Z</time>
      </trkpt>
      <trkpt lat="28.6746070" lon="-17.9387450">
        <ele>671.1</ele>
        <time>2020-11-16T20:26:52Z</time>
      </trkpt>
      <trkpt lat="28.6745450" lon="-17.9388500">
        <ele>670.9</ele>
        <time>2020-11-16T20:26:53Z</time>
      </trkpt>
      <trkpt lat="28.6745450" lon="-17.9388500">
        <ele>670.9</ele>
        <time>2020-11-16T20:26:54Z</time>
      </trkpt>
      <trkpt lat="28.6744700" lon="-17.9389330">
        <ele>670.4</ele>
        <time>2020-11-16T20:26:55Z</time>
      </trkpt>
      <trkpt lat="28.6744700" lon="-17.9389330">
        <ele>670.4</ele>
        <time>2020-11-16T20:26:56Z</time>
      </trkpt>
      <trkpt lat="28.6743500" lon="-17.9390100">
        <ele>669.0</ele>
        <time>2020-11-16T20:26:57Z</time>
      </trkpt>
      <trkpt lat="28.6743500" lon="-17.9390100">
        <ele>669.0</ele>
        <time>2020-11-16T20:26:58Z</time>
      </trkpt>
      <trkpt lat="28.6742220" lon="-17.9390980">
        <ele>667.5</ele>
        <time>2020-11-16T20:26:59Z</time>
      </trkpt>
      <trkpt lat="28.6741650" lon="-17.9391580">
        <ele>667.0</ele>
        <time>2020-11-16T20:27:00Z</time>
      </trkpt>
      <trkpt lat="28.6741650" lon="-17.9391580">
        <ele>667.0</ele>
        <time>2020-11-16T20:27:01Z</time>
      </trkpt>
      <trkpt lat="28.6740700" lon="-17.9392720">
        <ele>666.9</ele>
        <time>2020-11-16T20:27:02Z</time>
      </trkpt>
      <trkpt lat="28.6740700" lon="-17.9392720">
        <ele>666.9</ele>
        <time>2020-11-16T20:27:03Z</time>
      </trkpt>
      <trkpt lat="28.6739820" lon="-17.9393520">
        <ele>666.9</ele>
        <time>2020-11-16T20:27:04Z</time>
      </trkpt>
      <trkpt lat="28.6739470" lon="-17.9393820">
        <ele>666.9</ele>
        <time>2020-11-16T20:27:05Z</time>
      </trkpt>
      <trkpt lat="28.6739470" lon="-17.9393820">
        <ele>666.9</ele>
        <time>2020-11-16T20:27:06Z</time>
      </trkpt>
      <trkpt lat="28.6739100" lon="-17.9394420">
        <ele>666.5</ele>
        <time>2020-11-16T20:27:07Z</time>
      </trkpt>
      <trkpt lat="28.6739100" lon="-17.9394420">
        <ele>666.5</ele>
        <time>2020-11-16T20:27:08Z</time>
      </trkpt>
      <trkpt lat="28.6739420" lon="-17.9394980">
        <ele>666.0</ele>
        <time>2020-11-16T20:27:09Z</time>
      </trkpt>
      <trkpt lat="28.6739700" lon="-17.9395050">
        <ele>665.7</ele>
        <time>2020-11-16T20:27:10Z</time>
      </trkpt>
      <trkpt lat="28.6739700" lon="-17.9395050">
        <ele>665.7</ele>
        <time>2020-11-16T20:27:11Z</time>
      </trkpt>
      <trkpt lat="28.6740320" lon="-17.9394750">
        <ele>664.9</ele>
        <time>2020-11-16T20:27:12Z</time>
      </trkpt>
      <trkpt lat="28.6740320" lon="-17.9394750">
        <ele>664.9</ele>
        <time>2020-11-16T20:27:13Z</time>
      </trkpt>
      <trkpt lat="28.6740920" lon="-17.9394250">
        <ele>663.9</ele>
        <time>2020-11-16T20:27:14Z</time>
      </trkpt>
      <trkpt lat="28.6740920" lon="-17.9394250">
        <ele>663.9</ele>
        <time>2020-11-16T20:27:15Z</time>
      </trkpt>
      <trkpt lat="28.6741500" lon="-17.9393680">
        <ele>662.9</ele>
        <time>2020-11-16T20:27:16Z</time>
      </trkpt>
      <trkpt lat="28.6741500" lon="-17.9393680">
        <ele>662.9</ele>
        <time>2020-11-16T20:27:17Z</time>
      </trkpt>
      <trkpt lat="28.6742230" lon="-17.9393170">
        <ele>661.8</ele>
        <time>2020-11-16T20:27:18Z</time>
      </trkpt>
      <trkpt lat="28.6742230" lon="-17.9393170">
        <ele>661.8</ele>
        <time>2020-11-16T20:27:19Z</time>
      </trkpt>
      <trkpt lat="28.6742970" lon="-17.9392750">
        <ele>660.7</ele>
        <time>2020-11-16T20:27:20Z</time>
      </trkpt>
      <trkpt lat="28.6742970" lon="-17.9392750">
        <ele>660.7</ele>
        <time>2020-11-16T20:27:21Z</time>
      </trkpt>
      <trkpt lat="28.6743800" lon="-17.9392670">
        <ele>659.8</ele>
        <time>2020-11-16T20:27:22Z</time>
      </trkpt>
      <trkpt lat="28.6744280" lon="-17.9392720">
        <ele>659.3</ele>
        <time>2020-11-16T20:27:23Z</time>
      </trkpt>
      <trkpt lat="28.6744280" lon="-17.9392720">
        <ele>659.3</ele>
        <time>2020-11-16T20:27:24Z</time>
      </trkpt>
      <trkpt lat="28.6745270" lon="-17.9393020">
        <ele>658.3</ele>
        <time>2020-11-16T20:27:25Z</time>
      </trkpt>
      <trkpt lat="28.6745770" lon="-17.9393150">
        <ele>657.9</ele>
        <time>2020-11-16T20:27:26Z</time>
      </trkpt>
      <trkpt lat="28.6745770" lon="-17.9393150">
        <ele>657.9</ele>
        <time>2020-11-16T20:27:27Z</time>
      </trkpt>
      <trkpt lat="28.6746720" lon="-17.9393300">
        <ele>657.1</ele>
        <time>2020-11-16T20:27:28Z</time>
      </trkpt>
      <trkpt lat="28.6746720" lon="-17.9393300">
        <ele>657.1</ele>
        <time>2020-11-16T20:27:29Z</time>
      </trkpt>
      <trkpt lat="28.6747670" lon="-17.9393280">
        <ele>656.3</ele>
        <time>2020-11-16T20:27:30Z</time>
      </trkpt>
      <trkpt lat="28.6747670" lon="-17.9393280">
        <ele>656.3</ele>
        <time>2020-11-16T20:27:31Z</time>
      </trkpt>
      <trkpt lat="28.6748550" lon="-17.9392950">
        <ele>655.7</ele>
        <time>2020-11-16T20:27:32Z</time>
      </trkpt>
      <trkpt lat="28.6748550" lon="-17.9392950">
        <ele>655.7</ele>
        <time>2020-11-16T20:27:33Z</time>
      </trkpt>
      <trkpt lat="28.6749520" lon="-17.9392500">
        <ele>655.1</ele>
        <time>2020-11-16T20:27:34Z</time>
      </trkpt>
      <trkpt lat="28.6749520" lon="-17.9392500">
        <ele>655.1</ele>
        <time>2020-11-16T20:27:35Z</time>
      </trkpt>
      <trkpt lat="28.6750600" lon="-17.9392270">
        <ele>654.4</ele>
        <time>2020-11-16T20:27:36Z</time>
      </trkpt>
      <trkpt lat="28.6750600" lon="-17.9392270">
        <ele>654.4</ele>
        <time>2020-11-16T20:27:37Z</time>
      </trkpt>
      <trkpt lat="28.6751580" lon="-17.9392150">
        <ele>653.6</ele>
        <time>2020-11-16T20:27:38Z</time>
      </trkpt>
      <trkpt lat="28.6751580" lon="-17.9392150">
        <ele>653.6</ele>
        <time>2020-11-16T20:27:39Z</time>
      </trkpt>
      <trkpt lat="28.6752630" lon="-17.9392030">
        <ele>652.5</ele>
        <time>2020-11-16T20:27:40Z</time>
      </trkpt>
      <trkpt lat="28.6752630" lon="-17.9392030">
        <ele>652.5</ele>
        <time>2020-11-16T20:27:41Z</time>
      </trkpt>
      <trkpt lat="28.6753780" lon="-17.9392030">
        <ele>651.3</ele>
        <time>2020-11-16T20:27:42Z</time>
      </trkpt>
      <trkpt lat="28.6753780" lon="-17.9392030">
        <ele>651.3</ele>
        <time>2020-11-16T20:27:43Z</time>
      </trkpt>
      <trkpt lat="28.6755020" lon="-17.9392070">
        <ele>650.3</ele>
        <time>2020-11-16T20:27:44Z</time>
      </trkpt>
      <trkpt lat="28.6755020" lon="-17.9392070">
        <ele>650.3</ele>
        <time>2020-11-16T20:27:45Z</time>
      </trkpt>
      <trkpt lat="28.6756450" lon="-17.9391970">
        <ele>649.3</ele>
        <time>2020-11-16T20:27:46Z</time>
      </trkpt>
      <trkpt lat="28.6756450" lon="-17.9391970">
        <ele>649.3</ele>
        <time>2020-11-16T20:27:47Z</time>
      </trkpt>
      <trkpt lat="28.6757930" lon="-17.9391870">
        <ele>648.6</ele>
        <time>2020-11-16T20:27:48Z</time>
      </trkpt>
      <trkpt lat="28.6757930" lon="-17.9391870">
        <ele>648.6</ele>
        <time>2020-11-16T20:27:49Z</time>
      </trkpt>
      <trkpt lat="28.6759300" lon="-17.9391680">
        <ele>648.3</ele>
        <time>2020-11-16T20:27:50Z</time>
      </trkpt>
      <trkpt lat="28.6759300" lon="-17.9391680">
        <ele>648.3</ele>
        <time>2020-11-16T20:27:51Z</time>
      </trkpt>
      <trkpt lat="28.6760630" lon="-17.9391600">
        <ele>647.8</ele>
        <time>2020-11-16T20:27:52Z</time>
      </trkpt>
      <trkpt lat="28.6760630" lon="-17.9391600">
        <ele>647.8</ele>
        <time>2020-11-16T20:27:53Z</time>
      </trkpt>
      <trkpt lat="28.6760630" lon="-17.9391600">
        <ele>647.8</ele>
        <time>2020-11-16T20:27:54Z</time>
      </trkpt>
      <trkpt lat="28.6762380" lon="-17.9391600">
        <ele>646.4</ele>
        <time>2020-11-16T20:27:55Z</time>
      </trkpt>
      <trkpt lat="28.6762380" lon="-17.9391600">
        <ele>646.4</ele>
        <time>2020-11-16T20:27:56Z</time>
      </trkpt>
      <trkpt lat="28.6763770" lon="-17.9391620">
        <ele>644.8</ele>
        <time>2020-11-16T20:27:57Z</time>
      </trkpt>
      <trkpt lat="28.6763770" lon="-17.9391620">
        <ele>644.8</ele>
        <time>2020-11-16T20:27:58Z</time>
      </trkpt>
      <trkpt lat="28.6765150" lon="-17.9391630">
        <ele>643.6</ele>
        <time>2020-11-16T20:27:59Z</time>
      </trkpt>
      <trkpt lat="28.6765150" lon="-17.9391630">
        <ele>643.6</ele>
        <time>2020-11-16T20:28:00Z</time>
      </trkpt>
      <trkpt lat="28.6766420" lon="-17.9391600">
        <ele>642.8</ele>
        <time>2020-11-16T20:28:01Z</time>
      </trkpt>
      <trkpt lat="28.6766420" lon="-17.9391600">
        <ele>642.8</ele>
        <time>2020-11-16T20:28:02Z</time>
      </trkpt>
      <trkpt lat="28.6767530" lon="-17.9391580">
        <ele>642.2</ele>
        <time>2020-11-16T20:28:03Z</time>
      </trkpt>
      <trkpt lat="28.6767530" lon="-17.9391580">
        <ele>642.2</ele>
        <time>2020-11-16T20:28:04Z</time>
      </trkpt>
      <trkpt lat="28.6768600" lon="-17.9391570">
        <ele>641.5</ele>
        <time>2020-11-16T20:28:05Z</time>
      </trkpt>
      <trkpt lat="28.6768600" lon="-17.9391570">
        <ele>641.5</ele>
        <time>2020-11-16T20:28:06Z</time>
      </trkpt>
      <trkpt lat="28.6769580" lon="-17.9391700">
        <ele>640.7</ele>
        <time>2020-11-16T20:28:07Z</time>
      </trkpt>
      <trkpt lat="28.6769580" lon="-17.9391700">
        <ele>640.7</ele>
        <time>2020-11-16T20:28:08Z</time>
      </trkpt>
      <trkpt lat="28.6770470" lon="-17.9392150">
        <ele>639.7</ele>
        <time>2020-11-16T20:28:09Z</time>
      </trkpt>
      <trkpt lat="28.6770470" lon="-17.9392150">
        <ele>639.7</ele>
        <time>2020-11-16T20:28:10Z</time>
      </trkpt>
      <trkpt lat="28.6771470" lon="-17.9392580">
        <ele>638.8</ele>
        <time>2020-11-16T20:28:11Z</time>
      </trkpt>
      <trkpt lat="28.6771470" lon="-17.9392580">
        <ele>638.8</ele>
        <time>2020-11-16T20:28:12Z</time>
      </trkpt>
      <trkpt lat="28.6772500" lon="-17.9392850">
        <ele>638.0</ele>
        <time>2020-11-16T20:28:13Z</time>
      </trkpt>
      <trkpt lat="28.6772500" lon="-17.9392850">
        <ele>638.0</ele>
        <time>2020-11-16T20:28:14Z</time>
      </trkpt>
      <trkpt lat="28.6773470" lon="-17.9392720">
        <ele>637.5</ele>
        <time>2020-11-16T20:28:15Z</time>
      </trkpt>
      <trkpt lat="28.6773470" lon="-17.9392720">
        <ele>637.5</ele>
        <time>2020-11-16T20:28:16Z</time>
      </trkpt>
      <trkpt lat="28.6774530" lon="-17.9392350">
        <ele>637.3</ele>
        <time>2020-11-16T20:28:17Z</time>
      </trkpt>
      <trkpt lat="28.6774530" lon="-17.9392350">
        <ele>637.3</ele>
        <time>2020-11-16T20:28:18Z</time>
      </trkpt>
      <trkpt lat="28.6775520" lon="-17.9391920">
        <ele>637.5</ele>
        <time>2020-11-16T20:28:19Z</time>
      </trkpt>
      <trkpt lat="28.6775520" lon="-17.9391920">
        <ele>637.5</ele>
        <time>2020-11-16T20:28:20Z</time>
      </trkpt>
      <trkpt lat="28.6776300" lon="-17.9391530">
        <ele>638.0</ele>
        <time>2020-11-16T20:28:21Z</time>
      </trkpt>
      <trkpt lat="28.6776300" lon="-17.9391530">
        <ele>638.0</ele>
        <time>2020-11-16T20:28:22Z</time>
      </trkpt>
      <trkpt lat="28.6776920" lon="-17.9391450">
        <ele>638.4</ele>
        <time>2020-11-16T20:28:23Z</time>
      </trkpt>
      <trkpt lat="28.6776920" lon="-17.9391450">
        <ele>638.4</ele>
        <time>2020-11-16T20:28:24Z</time>
      </trkpt>
      <trkpt lat="28.6777280" lon="-17.9391570">
        <ele>638.7</ele>
        <time>2020-11-16T20:28:25Z</time>
      </trkpt>
      <trkpt lat="28.6777280" lon="-17.9391570">
        <ele>638.7</ele>
        <time>2020-11-16T20:28:26Z</time>
      </trkpt>
      <trkpt lat="28.6777500" lon="-17.9391930">
        <ele>638.9</ele>
        <time>2020-11-16T20:28:27Z</time>
      </trkpt>
      <trkpt lat="28.6777500" lon="-17.9391930">
        <ele>638.9</ele>
        <time>2020-11-16T20:28:28Z</time>
      </trkpt>
      <trkpt lat="28.6777620" lon="-17.9392430">
        <ele>639.1</ele>
        <time>2020-11-16T20:28:29Z</time>
      </trkpt>
      <trkpt lat="28.6777620" lon="-17.9392430">
        <ele>639.1</ele>
        <time>2020-11-16T20:28:30Z</time>
      </trkpt>
      <trkpt lat="28.6777780" lon="-17.9392970">
        <ele>639.2</ele>
        <time>2020-11-16T20:28:31Z</time>
      </trkpt>
      <trkpt lat="28.6777780" lon="-17.9392970">
        <ele>639.2</ele>
        <time>2020-11-16T20:28:32Z</time>
      </trkpt>
      <trkpt lat="28.6778120" lon="-17.9393580">
        <ele>639.1</ele>
        <time>2020-11-16T20:28:33Z</time>
      </trkpt>
      <trkpt lat="28.6778120" lon="-17.9393580">
        <ele>639.1</ele>
        <time>2020-11-16T20:28:34Z</time>
      </trkpt>
      <trkpt lat="28.6778570" lon="-17.9394170">
        <ele>638.8</ele>
        <time>2020-11-16T20:28:35Z</time>
      </trkpt>
      <trkpt lat="28.6778570" lon="-17.9394170">
        <ele>638.8</ele>
        <time>2020-11-16T20:28:36Z</time>
      </trkpt>
      <trkpt lat="28.6779180" lon="-17.9394470">
        <ele>638.3</ele>
        <time>2020-11-16T20:28:37Z</time>
      </trkpt>
      <trkpt lat="28.6779180" lon="-17.9394470">
        <ele>638.3</ele>
        <time>2020-11-16T20:28:38Z</time>
      </trkpt>
      <trkpt lat="28.6779930" lon="-17.9394620">
        <ele>637.7</ele>
        <time>2020-11-16T20:28:39Z</time>
      </trkpt>
      <trkpt lat="28.6779930" lon="-17.9394620">
        <ele>637.7</ele>
        <time>2020-11-16T20:28:40Z</time>
      </trkpt>
      <trkpt lat="28.6780670" lon="-17.9394650">
        <ele>637.0</ele>
        <time>2020-11-16T20:28:41Z</time>
      </trkpt>
      <trkpt lat="28.6781020" lon="-17.9394700">
        <ele>636.6</ele>
        <time>2020-11-16T20:28:42Z</time>
      </trkpt>
      <trkpt lat="28.6781020" lon="-17.9394700">
        <ele>636.6</ele>
        <time>2020-11-16T20:28:43Z</time>
      </trkpt>
      <trkpt lat="28.6781700" lon="-17.9394950">
        <ele>635.8</ele>
        <time>2020-11-16T20:28:44Z</time>
      </trkpt>
      <trkpt lat="28.6781700" lon="-17.9394950">
        <ele>635.8</ele>
        <time>2020-11-16T20:28:45Z</time>
      </trkpt>
      <trkpt lat="28.6782150" lon="-17.9395580">
        <ele>635.4</ele>
        <time>2020-11-16T20:28:46Z</time>
      </trkpt>
      <trkpt lat="28.6782150" lon="-17.9395580">
        <ele>635.4</ele>
        <time>2020-11-16T20:28:47Z</time>
      </trkpt>
      <trkpt lat="28.6782520" lon="-17.9396570">
        <ele>634.6</ele>
        <time>2020-11-16T20:28:48Z</time>
      </trkpt>
      <trkpt lat="28.6782520" lon="-17.9396570">
        <ele>634.6</ele>
        <time>2020-11-16T20:28:49Z</time>
      </trkpt>
      <trkpt lat="28.6783070" lon="-17.9397320">
        <ele>633.8</ele>
        <time>2020-11-16T20:28:50Z</time>
      </trkpt>
      <trkpt lat="28.6783070" lon="-17.9397320">
        <ele>633.8</ele>
        <time>2020-11-16T20:28:51Z</time>
      </trkpt>
      <trkpt lat="28.6783930" lon="-17.9397570">
        <ele>633.2</ele>
        <time>2020-11-16T20:28:52Z</time>
      </trkpt>
      <trkpt lat="28.6784370" lon="-17.9397630">
        <ele>633.1</ele>
        <time>2020-11-16T20:28:53Z</time>
      </trkpt>
      <trkpt lat="28.6784370" lon="-17.9397630">
        <ele>633.1</ele>
        <time>2020-11-16T20:28:54Z</time>
      </trkpt>
      <trkpt lat="28.6785100" lon="-17.9397630">
        <ele>633.0</ele>
        <time>2020-11-16T20:28:55Z</time>
      </trkpt>
      <trkpt lat="28.6785470" lon="-17.9397620">
        <ele>633.0</ele>
        <time>2020-11-16T20:28:56Z</time>
      </trkpt>
      <trkpt lat="28.6785470" lon="-17.9397620">
        <ele>633.0</ele>
        <time>2020-11-16T20:28:57Z</time>
      </trkpt>
      <trkpt lat="28.6786170" lon="-17.9397530">
        <ele>633.1</ele>
        <time>2020-11-16T20:28:58Z</time>
      </trkpt>
      <trkpt lat="28.6786480" lon="-17.9397520">
        <ele>633.2</ele>
        <time>2020-11-16T20:28:59Z</time>
      </trkpt>
      <trkpt lat="28.6786480" lon="-17.9397520">
        <ele>633.2</ele>
        <time>2020-11-16T20:29:00Z</time>
      </trkpt>
      <trkpt lat="28.6787170" lon="-17.9397470">
        <ele>633.4</ele>
        <time>2020-11-16T20:29:01Z</time>
      </trkpt>
      <trkpt lat="28.6787170" lon="-17.9397470">
        <ele>633.4</ele>
        <time>2020-11-16T20:29:02Z</time>
      </trkpt>
      <trkpt lat="28.6787170" lon="-17.9397470">
        <ele>633.4</ele>
        <time>2020-11-16T20:29:03Z</time>
      </trkpt>
      <trkpt lat="28.6788300" lon="-17.9397270">
        <ele>633.7</ele>
        <time>2020-11-16T20:29:04Z</time>
      </trkpt>
      <trkpt lat="28.6788300" lon="-17.9397270">
        <ele>633.7</ele>
        <time>2020-11-16T20:29:05Z</time>
      </trkpt>
      <trkpt lat="28.6789000" lon="-17.9397170">
        <ele>634.0</ele>
        <time>2020-11-16T20:29:06Z</time>
      </trkpt>
      <trkpt lat="28.6789000" lon="-17.9397170">
        <ele>634.0</ele>
        <time>2020-11-16T20:29:07Z</time>
      </trkpt>
      <trkpt lat="28.6789550" lon="-17.9396900">
        <ele>634.4</ele>
        <time>2020-11-16T20:29:08Z</time>
      </trkpt>
      <trkpt lat="28.6789550" lon="-17.9396900">
        <ele>634.4</ele>
        <time>2020-11-16T20:29:09Z</time>
      </trkpt>
      <trkpt lat="28.6790000" lon="-17.9396700">
        <ele>634.7</ele>
        <time>2020-11-16T20:29:10Z</time>
      </trkpt>
      <trkpt lat="28.6790000" lon="-17.9396700">
        <ele>634.7</ele>
        <time>2020-11-16T20:29:11Z</time>
      </trkpt>
      <trkpt lat="28.6790400" lon="-17.9396600">
        <ele>635.0</ele>
        <time>2020-11-16T20:29:12Z</time>
      </trkpt>
      <trkpt lat="28.6790400" lon="-17.9396600">
        <ele>635.0</ele>
        <time>2020-11-16T20:29:13Z</time>
      </trkpt>
      <trkpt lat="28.6790850" lon="-17.9396450">
        <ele>635.4</ele>
        <time>2020-11-16T20:29:14Z</time>
      </trkpt>
      <trkpt lat="28.6790850" lon="-17.9396450">
        <ele>635.4</ele>
        <time>2020-11-16T20:29:15Z</time>
      </trkpt>
      <trkpt lat="28.6791230" lon="-17.9396370">
        <ele>635.7</ele>
        <time>2020-11-16T20:29:16Z</time>
      </trkpt>
      <trkpt lat="28.6791230" lon="-17.9396370">
        <ele>635.7</ele>
        <time>2020-11-16T20:29:17Z</time>
      </trkpt>
      <trkpt lat="28.6791650" lon="-17.9396300">
        <ele>636.0</ele>
        <time>2020-11-16T20:29:18Z</time>
      </trkpt>
      <trkpt lat="28.6791650" lon="-17.9396300">
        <ele>636.0</ele>
        <time>2020-11-16T20:29:19Z</time>
      </trkpt>
      <trkpt lat="28.6792080" lon="-17.9396300">
        <ele>636.4</ele>
        <time>2020-11-16T20:29:20Z</time>
      </trkpt>
      <trkpt lat="28.6792080" lon="-17.9396300">
        <ele>636.4</ele>
        <time>2020-11-16T20:29:21Z</time>
      </trkpt>
      <trkpt lat="28.6792500" lon="-17.9396220">
        <ele>636.7</ele>
        <time>2020-11-16T20:29:22Z</time>
      </trkpt>
      <trkpt lat="28.6792500" lon="-17.9396220">
        <ele>636.7</ele>
        <time>2020-11-16T20:29:23Z</time>
      </trkpt>
      <trkpt lat="28.6792880" lon="-17.9396100">
        <ele>637.0</ele>
        <time>2020-11-16T20:29:24Z</time>
      </trkpt>
      <trkpt lat="28.6793100" lon="-17.9396050">
        <ele>637.2</ele>
        <time>2020-11-16T20:29:25Z</time>
      </trkpt>
      <trkpt lat="28.6793100" lon="-17.9396050">
        <ele>637.2</ele>
        <time>2020-11-16T20:29:26Z</time>
      </trkpt>
      <trkpt lat="28.6793520" lon="-17.9396020">
        <ele>637.5</ele>
        <time>2020-11-16T20:29:27Z</time>
      </trkpt>
      <trkpt lat="28.6793520" lon="-17.9396020">
        <ele>637.5</ele>
        <time>2020-11-16T20:29:28Z</time>
      </trkpt>
      <trkpt lat="28.6793930" lon="-17.9396020">
        <ele>637.9</ele>
        <time>2020-11-16T20:29:29Z</time>
      </trkpt>
      <trkpt lat="28.6793930" lon="-17.9396020">
        <ele>637.9</ele>
        <time>2020-11-16T20:29:30Z</time>
      </trkpt>
      <trkpt lat="28.6794330" lon="-17.9396070">
        <ele>638.3</ele>
        <time>2020-11-16T20:29:31Z</time>
      </trkpt>
      <trkpt lat="28.6794530" lon="-17.9396120">
        <ele>638.5</ele>
        <time>2020-11-16T20:29:32Z</time>
      </trkpt>
      <trkpt lat="28.6794530" lon="-17.9396120">
        <ele>638.5</ele>
        <time>2020-11-16T20:29:33Z</time>
      </trkpt>
      <trkpt lat="28.6794930" lon="-17.9396150">
        <ele>638.9</ele>
        <time>2020-11-16T20:29:34Z</time>
      </trkpt>
      <trkpt lat="28.6794930" lon="-17.9396150">
        <ele>638.9</ele>
        <time>2020-11-16T20:29:35Z</time>
      </trkpt>
      <trkpt lat="28.6795280" lon="-17.9396250">
        <ele>639.2</ele>
        <time>2020-11-16T20:29:36Z</time>
      </trkpt>
      <trkpt lat="28.6795280" lon="-17.9396250">
        <ele>639.2</ele>
        <time>2020-11-16T20:29:37Z</time>
      </trkpt>
      <trkpt lat="28.6795680" lon="-17.9396380">
        <ele>639.7</ele>
        <time>2020-11-16T20:29:38Z</time>
      </trkpt>
      <trkpt lat="28.6795680" lon="-17.9396380">
        <ele>639.7</ele>
        <time>2020-11-16T20:29:39Z</time>
      </trkpt>
      <trkpt lat="28.6796030" lon="-17.9396480">
        <ele>640.0</ele>
        <time>2020-11-16T20:29:40Z</time>
      </trkpt>
      <trkpt lat="28.6796030" lon="-17.9396480">
        <ele>640.0</ele>
        <time>2020-11-16T20:29:41Z</time>
      </trkpt>
      <trkpt lat="28.6796350" lon="-17.9396530">
        <ele>640.2</ele>
        <time>2020-11-16T20:29:42Z</time>
      </trkpt>
      <trkpt lat="28.6796530" lon="-17.9396520">
        <ele>640.2</ele>
        <time>2020-11-16T20:29:43Z</time>
      </trkpt>
      <trkpt lat="28.6796700" lon="-17.9396530">
        <ele>640.1</ele>
        <time>2020-11-16T20:29:44Z</time>
      </trkpt>
      <trkpt lat="28.6796700" lon="-17.9396530">
        <ele>640.1</ele>
        <time>2020-11-16T20:29:45Z</time>
      </trkpt>
      <trkpt lat="28.6797130" lon="-17.9396530">
        <ele>640.0</ele>
        <time>2020-11-16T20:29:46Z</time>
      </trkpt>
      <trkpt lat="28.6797130" lon="-17.9396530">
        <ele>640.0</ele>
        <time>2020-11-16T20:29:47Z</time>
      </trkpt>
      <trkpt lat="28.6797950" lon="-17.9396470">
        <ele>639.7</ele>
        <time>2020-11-16T20:29:48Z</time>
      </trkpt>
      <trkpt lat="28.6797950" lon="-17.9396470">
        <ele>639.7</ele>
        <time>2020-11-16T20:29:49Z</time>
      </trkpt>
      <trkpt lat="28.6798850" lon="-17.9396380">
        <ele>639.1</ele>
        <time>2020-11-16T20:29:50Z</time>
      </trkpt>
      <trkpt lat="28.6798850" lon="-17.9396380">
        <ele>639.1</ele>
        <time>2020-11-16T20:29:51Z</time>
      </trkpt>
      <trkpt lat="28.6799530" lon="-17.9396820">
        <ele>638.6</ele>
        <time>2020-11-16T20:29:52Z</time>
      </trkpt>
      <trkpt lat="28.6799530" lon="-17.9396820">
        <ele>638.6</ele>
        <time>2020-11-16T20:29:53Z</time>
      </trkpt>
      <trkpt lat="28.6799670" lon="-17.9397600">
        <ele>638.1</ele>
        <time>2020-11-16T20:29:54Z</time>
      </trkpt>
      <trkpt lat="28.6799670" lon="-17.9397600">
        <ele>638.1</ele>
        <time>2020-11-16T20:29:55Z</time>
      </trkpt>
      <trkpt lat="28.6799450" lon="-17.9398550">
        <ele>637.6</ele>
        <time>2020-11-16T20:29:56Z</time>
      </trkpt>
      <trkpt lat="28.6799450" lon="-17.9398550">
        <ele>637.6</ele>
        <time>2020-11-16T20:29:57Z</time>
      </trkpt>
      <trkpt lat="28.6799300" lon="-17.9399420">
        <ele>637.4</ele>
        <time>2020-11-16T20:29:58Z</time>
      </trkpt>
      <trkpt lat="28.6799200" lon="-17.9399830">
        <ele>637.3</ele>
        <time>2020-11-16T20:29:59Z</time>
      </trkpt>
      <trkpt lat="28.6799200" lon="-17.9399830">
        <ele>637.3</ele>
        <time>2020-11-16T20:30:00Z</time>
      </trkpt>
      <trkpt lat="28.6798980" lon="-17.9400470">
        <ele>637.2</ele>
        <time>2020-11-16T20:30:01Z</time>
      </trkpt>
      <trkpt lat="28.6798980" lon="-17.9400470">
        <ele>637.2</ele>
        <time>2020-11-16T20:30:02Z</time>
      </trkpt>
      <trkpt lat="28.6798980" lon="-17.9400470">
        <ele>637.2</ele>
        <time>2020-11-16T20:30:03Z</time>
      </trkpt>
      <trkpt lat="28.6798800" lon="-17.9401080">
        <ele>637.1</ele>
        <time>2020-11-16T20:30:04Z</time>
      </trkpt>
      <trkpt lat="28.6798580" lon="-17.9402000">
        <ele>636.7</ele>
        <time>2020-11-16T20:30:05Z</time>
      </trkpt>
      <trkpt lat="28.6798580" lon="-17.9402000">
        <ele>636.7</ele>
        <time>2020-11-16T20:30:06Z</time>
      </trkpt>
      <trkpt lat="28.6798530" lon="-17.9403080">
        <ele>636.3</ele>
        <time>2020-11-16T20:30:07Z</time>
      </trkpt>
      <trkpt lat="28.6798730" lon="-17.9403570">
        <ele>636.0</ele>
        <time>2020-11-16T20:30:08Z</time>
      </trkpt>
      <trkpt lat="28.6798730" lon="-17.9403570">
        <ele>636.0</ele>
        <time>2020-11-16T20:30:09Z</time>
      </trkpt>
      <trkpt lat="28.6799580" lon="-17.9404050">
        <ele>635.6</ele>
        <time>2020-11-16T20:30:10Z</time>
      </trkpt>
      <trkpt lat="28.6799580" lon="-17.9404050">
        <ele>635.6</ele>
        <time>2020-11-16T20:30:11Z</time>
      </trkpt>
      <trkpt lat="28.6800480" lon="-17.9404320">
        <ele>635.0</ele>
        <time>2020-11-16T20:30:12Z</time>
      </trkpt>
      <trkpt lat="28.6800880" lon="-17.9404480">
        <ele>634.6</ele>
        <time>2020-11-16T20:30:13Z</time>
      </trkpt>
      <trkpt lat="28.6801200" lon="-17.9404680">
        <ele>634.2</ele>
        <time>2020-11-16T20:30:14Z</time>
      </trkpt>
      <trkpt lat="28.6801200" lon="-17.9404680">
        <ele>634.2</ele>
        <time>2020-11-16T20:30:15Z</time>
      </trkpt>
      <trkpt lat="28.6801370" lon="-17.9405350">
        <ele>633.2</ele>
        <time>2020-11-16T20:30:16Z</time>
      </trkpt>
      <trkpt lat="28.6801370" lon="-17.9405350">
        <ele>633.2</ele>
        <time>2020-11-16T20:30:17Z</time>
      </trkpt>
      <trkpt lat="28.6800920" lon="-17.9405870">
        <ele>632.1</ele>
        <time>2020-11-16T20:30:18Z</time>
      </trkpt>
      <trkpt lat="28.6800400" lon="-17.9405980">
        <ele>631.1</ele>
        <time>2020-11-16T20:30:19Z</time>
      </trkpt>
      <trkpt lat="28.6800400" lon="-17.9405980">
        <ele>631.1</ele>
        <time>2020-11-16T20:30:20Z</time>
      </trkpt>
      <trkpt lat="28.6799200" lon="-17.9406180">
        <ele>629.2</ele>
        <time>2020-11-16T20:30:21Z</time>
      </trkpt>
      <trkpt lat="28.6799200" lon="-17.9406180">
        <ele>629.2</ele>
        <time>2020-11-16T20:30:22Z</time>
      </trkpt>
      <trkpt lat="28.6798150" lon="-17.9406450">
        <ele>627.3</ele>
        <time>2020-11-16T20:30:23Z</time>
      </trkpt>
      <trkpt lat="28.6797700" lon="-17.9406630">
        <ele>626.2</ele>
        <time>2020-11-16T20:30:24Z</time>
      </trkpt>
      <trkpt lat="28.6797700" lon="-17.9406630">
        <ele>626.2</ele>
        <time>2020-11-16T20:30:25Z</time>
      </trkpt>
      <trkpt lat="28.6797530" lon="-17.9407470">
        <ele>624.5</ele>
        <time>2020-11-16T20:30:26Z</time>
      </trkpt>
      <trkpt lat="28.6797530" lon="-17.9407470">
        <ele>624.5</ele>
        <time>2020-11-16T20:30:27Z</time>
      </trkpt>
      <trkpt lat="28.6798130" lon="-17.9408580">
        <ele>621.9</ele>
        <time>2020-11-16T20:30:28Z</time>
      </trkpt>
      <trkpt lat="28.6798130" lon="-17.9408580">
        <ele>621.9</ele>
        <time>2020-11-16T20:30:29Z</time>
      </trkpt>
      <trkpt lat="28.6798900" lon="-17.9409900">
        <ele>618.7</ele>
        <time>2020-11-16T20:30:30Z</time>
      </trkpt>
      <trkpt lat="28.6799280" lon="-17.9410570">
        <ele>617.2</ele>
        <time>2020-11-16T20:30:31Z</time>
      </trkpt>
      <trkpt lat="28.6799830" lon="-17.9411180">
        <ele>615.5</ele>
        <time>2020-11-16T20:30:32Z</time>
      </trkpt>
      <trkpt lat="28.6799830" lon="-17.9411180">
        <ele>615.5</ele>
        <time>2020-11-16T20:30:33Z</time>
      </trkpt>
      <trkpt lat="28.6801030" lon="-17.9412400">
        <ele>612.7</ele>
        <time>2020-11-16T20:30:34Z</time>
      </trkpt>
      <trkpt lat="28.6801720" lon="-17.9412950">
        <ele>611.7</ele>
        <time>2020-11-16T20:30:35Z</time>
      </trkpt>
      <trkpt lat="28.6801720" lon="-17.9412950">
        <ele>611.7</ele>
        <time>2020-11-16T20:30:36Z</time>
      </trkpt>
      <trkpt lat="28.6803050" lon="-17.9413770">
        <ele>610.5</ele>
        <time>2020-11-16T20:30:37Z</time>
      </trkpt>
      <trkpt lat="28.6803050" lon="-17.9413770">
        <ele>610.5</ele>
        <time>2020-11-16T20:30:38Z</time>
      </trkpt>
      <trkpt lat="28.6804180" lon="-17.9414230">
        <ele>609.6</ele>
        <time>2020-11-16T20:30:39Z</time>
      </trkpt>
      <trkpt lat="28.6804620" lon="-17.9414470">
        <ele>609.1</ele>
        <time>2020-11-16T20:30:40Z</time>
      </trkpt>
      <trkpt lat="28.6804620" lon="-17.9414470">
        <ele>609.1</ele>
        <time>2020-11-16T20:30:41Z</time>
      </trkpt>
      <trkpt lat="28.6805080" lon="-17.9415370">
        <ele>607.6</ele>
        <time>2020-11-16T20:30:42Z</time>
      </trkpt>
      <trkpt lat="28.6805080" lon="-17.9415370">
        <ele>607.6</ele>
        <time>2020-11-16T20:30:43Z</time>
      </trkpt>
      <trkpt lat="28.6804930" lon="-17.9416550">
        <ele>605.5</ele>
        <time>2020-11-16T20:30:44Z</time>
      </trkpt>
      <trkpt lat="28.6804930" lon="-17.9416550">
        <ele>605.5</ele>
        <time>2020-11-16T20:30:45Z</time>
      </trkpt>
      <trkpt lat="28.6804620" lon="-17.9418000">
        <ele>602.8</ele>
        <time>2020-11-16T20:30:46Z</time>
      </trkpt>
      <trkpt lat="28.6804620" lon="-17.9418000">
        <ele>602.8</ele>
        <time>2020-11-16T20:30:47Z</time>
      </trkpt>
      <trkpt lat="28.6804300" lon="-17.9419470">
        <ele>599.9</ele>
        <time>2020-11-16T20:30:48Z</time>
      </trkpt>
      <trkpt lat="28.6804130" lon="-17.9420200">
        <ele>598.4</ele>
        <time>2020-11-16T20:30:49Z</time>
      </trkpt>
      <trkpt lat="28.6804130" lon="-17.9420200">
        <ele>598.4</ele>
        <time>2020-11-16T20:30:50Z</time>
      </trkpt>
      <trkpt lat="28.6804130" lon="-17.9420200">
        <ele>598.4</ele>
        <time>2020-11-16T20:30:51Z</time>
      </trkpt>
      <trkpt lat="28.6803870" lon="-17.9421770">
        <ele>595.1</ele>
        <time>2020-11-16T20:30:52Z</time>
      </trkpt>
      <trkpt lat="28.6803650" lon="-17.9423320">
        <ele>591.8</ele>
        <time>2020-11-16T20:30:53Z</time>
      </trkpt>
      <trkpt lat="28.6803650" lon="-17.9423320">
        <ele>591.8</ele>
        <time>2020-11-16T20:30:54Z</time>
      </trkpt>
      <trkpt lat="28.6803330" lon="-17.9424870">
        <ele>588.4</ele>
        <time>2020-11-16T20:30:55Z</time>
      </trkpt>
      <trkpt lat="28.6803330" lon="-17.9424870">
        <ele>588.4</ele>
        <time>2020-11-16T20:30:56Z</time>
      </trkpt>
      <trkpt lat="28.6802980" lon="-17.9426350">
        <ele>585.0</ele>
        <time>2020-11-16T20:30:57Z</time>
      </trkpt>
      <trkpt lat="28.6802980" lon="-17.9426350">
        <ele>585.0</ele>
        <time>2020-11-16T20:30:58Z</time>
      </trkpt>
      <trkpt lat="28.6802580" lon="-17.9427820">
        <ele>581.6</ele>
        <time>2020-11-16T20:30:59Z</time>
      </trkpt>
      <trkpt lat="28.6802580" lon="-17.9427820">
        <ele>581.6</ele>
        <time>2020-11-16T20:31:00Z</time>
      </trkpt>
      <trkpt lat="28.6802150" lon="-17.9429200">
        <ele>578.6</ele>
        <time>2020-11-16T20:31:01Z</time>
      </trkpt>
      <trkpt lat="28.6802150" lon="-17.9429200">
        <ele>578.6</ele>
        <time>2020-11-16T20:31:02Z</time>
      </trkpt>
      <trkpt lat="28.6801700" lon="-17.9430480">
        <ele>575.9</ele>
        <time>2020-11-16T20:31:03Z</time>
      </trkpt>
      <trkpt lat="28.6801700" lon="-17.9430480">
        <ele>575.9</ele>
        <time>2020-11-16T20:31:04Z</time>
      </trkpt>
      <trkpt lat="28.6801070" lon="-17.9431700">
        <ele>573.5</ele>
        <time>2020-11-16T20:31:05Z</time>
      </trkpt>
      <trkpt lat="28.6801070" lon="-17.9431700">
        <ele>573.5</ele>
        <time>2020-11-16T20:31:06Z</time>
      </trkpt>
      <trkpt lat="28.6800600" lon="-17.9432770">
        <ele>571.5</ele>
        <time>2020-11-16T20:31:07Z</time>
      </trkpt>
      <trkpt lat="28.6800600" lon="-17.9432770">
        <ele>571.5</ele>
        <time>2020-11-16T20:31:08Z</time>
      </trkpt>
      <trkpt lat="28.6800570" lon="-17.9433870">
        <ele>569.6</ele>
        <time>2020-11-16T20:31:09Z</time>
      </trkpt>
      <trkpt lat="28.6800570" lon="-17.9433870">
        <ele>569.6</ele>
        <time>2020-11-16T20:31:10Z</time>
      </trkpt>
      <trkpt lat="28.6800870" lon="-17.9435180">
        <ele>567.2</ele>
        <time>2020-11-16T20:31:11Z</time>
      </trkpt>
      <trkpt lat="28.6800870" lon="-17.9435180">
        <ele>567.2</ele>
        <time>2020-11-16T20:31:12Z</time>
      </trkpt>
      <trkpt lat="28.6801180" lon="-17.9436400">
        <ele>565.4</ele>
        <time>2020-11-16T20:31:13Z</time>
      </trkpt>
      <trkpt lat="28.6801180" lon="-17.9436400">
        <ele>565.4</ele>
        <time>2020-11-16T20:31:14Z</time>
      </trkpt>
      <trkpt lat="28.6801420" lon="-17.9437580">
        <ele>564.1</ele>
        <time>2020-11-16T20:31:15Z</time>
      </trkpt>
      <trkpt lat="28.6801420" lon="-17.9437580">
        <ele>564.1</ele>
        <time>2020-11-16T20:31:16Z</time>
      </trkpt>
      <trkpt lat="28.6801420" lon="-17.9437580">
        <ele>564.1</ele>
        <time>2020-11-16T20:31:17Z</time>
      </trkpt>
      <trkpt lat="28.6801700" lon="-17.9438730">
        <ele>562.9</ele>
        <time>2020-11-16T20:31:18Z</time>
      </trkpt>
      <trkpt lat="28.6801830" lon="-17.9439950">
        <ele>561.5</ele>
        <time>2020-11-16T20:31:19Z</time>
      </trkpt>
      <trkpt lat="28.6801830" lon="-17.9439950">
        <ele>561.5</ele>
        <time>2020-11-16T20:31:20Z</time>
      </trkpt>
      <trkpt lat="28.6801620" lon="-17.9441220">
        <ele>559.8</ele>
        <time>2020-11-16T20:31:21Z</time>
      </trkpt>
      <trkpt lat="28.6801620" lon="-17.9441220">
        <ele>559.8</ele>
        <time>2020-11-16T20:31:22Z</time>
      </trkpt>
      <trkpt lat="28.6801400" lon="-17.9442400">
        <ele>558.1</ele>
        <time>2020-11-16T20:31:23Z</time>
      </trkpt>
      <trkpt lat="28.6801400" lon="-17.9442400">
        <ele>558.1</ele>
        <time>2020-11-16T20:31:24Z</time>
      </trkpt>
      <trkpt lat="28.6801500" lon="-17.9443350">
        <ele>556.6</ele>
        <time>2020-11-16T20:31:25Z</time>
      </trkpt>
      <trkpt lat="28.6801500" lon="-17.9443350">
        <ele>556.6</ele>
        <time>2020-11-16T20:31:26Z</time>
      </trkpt>
      <trkpt lat="28.6802100" lon="-17.9443830">
        <ele>555.4</ele>
        <time>2020-11-16T20:31:27Z</time>
      </trkpt>
      <trkpt lat="28.6802520" lon="-17.9443870">
        <ele>555.4</ele>
        <time>2020-11-16T20:31:28Z</time>
      </trkpt>
      <trkpt lat="28.6802520" lon="-17.9443870">
        <ele>555.4</ele>
        <time>2020-11-16T20:31:29Z</time>
      </trkpt>
      <trkpt lat="28.6803320" lon="-17.9443270">
        <ele>555.7</ele>
        <time>2020-11-16T20:31:30Z</time>
      </trkpt>
      <trkpt lat="28.6803320" lon="-17.9443270">
        <ele>555.7</ele>
        <time>2020-11-16T20:31:31Z</time>
      </trkpt>
      <trkpt lat="28.6804020" lon="-17.9442600">
        <ele>556.4</ele>
        <time>2020-11-16T20:31:32Z</time>
      </trkpt>
      <trkpt lat="28.6804020" lon="-17.9442600">
        <ele>556.4</ele>
        <time>2020-11-16T20:31:33Z</time>
      </trkpt>
      <trkpt lat="28.6804700" lon="-17.9442700">
        <ele>556.8</ele>
        <time>2020-11-16T20:31:34Z</time>
      </trkpt>
      <trkpt lat="28.6804700" lon="-17.9442700">
        <ele>556.8</ele>
        <time>2020-11-16T20:31:35Z</time>
      </trkpt>
      <trkpt lat="28.6805030" lon="-17.9443370">
        <ele>548.1</ele>
        <time>2020-11-16T20:31:36Z</time>
      </trkpt>
      <trkpt lat="28.6805030" lon="-17.9443370">
        <ele>548.1</ele>
        <time>2020-11-16T20:31:37Z</time>
      </trkpt>
      <trkpt lat="28.6804680" lon="-17.9443930">
        <ele>548.1</ele>
        <time>2020-11-16T20:31:38Z</time>
      </trkpt>
      <trkpt lat="28.6804680" lon="-17.9443930">
        <ele>548.1</ele>
        <time>2020-11-16T20:31:39Z</time>
      </trkpt>
      <trkpt lat="28.6804020" lon="-17.9444380">
        <ele>547.7</ele>
        <time>2020-11-16T20:31:40Z</time>
      </trkpt>
      <trkpt lat="28.6804020" lon="-17.9444380">
        <ele>547.7</ele>
        <time>2020-11-16T20:31:41Z</time>
      </trkpt>
      <trkpt lat="28.6803330" lon="-17.9444950">
        <ele>547.4</ele>
        <time>2020-11-16T20:31:42Z</time>
      </trkpt>
      <trkpt lat="28.6803000" lon="-17.9445300">
        <ele>547.2</ele>
        <time>2020-11-16T20:31:43Z</time>
      </trkpt>
      <trkpt lat="28.6802680" lon="-17.9445700">
        <ele>547.0</ele>
        <time>2020-11-16T20:31:44Z</time>
      </trkpt>
      <trkpt lat="28.6802680" lon="-17.9445700">
        <ele>547.0</ele>
        <time>2020-11-16T20:31:45Z</time>
      </trkpt>
      <trkpt lat="28.6802070" lon="-17.9446520">
        <ele>546.6</ele>
        <time>2020-11-16T20:31:46Z</time>
      </trkpt>
      <trkpt lat="28.6802070" lon="-17.9446520">
        <ele>546.6</ele>
        <time>2020-11-16T20:31:47Z</time>
      </trkpt>
      <trkpt lat="28.6801400" lon="-17.9447320">
        <ele>546.2</ele>
        <time>2020-11-16T20:31:48Z</time>
      </trkpt>
      <trkpt lat="28.6801400" lon="-17.9447320">
        <ele>546.2</ele>
        <time>2020-11-16T20:31:49Z</time>
      </trkpt>
      <trkpt lat="28.6800680" lon="-17.9448070">
        <ele>545.9</ele>
        <time>2020-11-16T20:31:50Z</time>
      </trkpt>
      <trkpt lat="28.6800680" lon="-17.9448070">
        <ele>545.9</ele>
        <time>2020-11-16T20:31:51Z</time>
      </trkpt>
      <trkpt lat="28.6799880" lon="-17.9448720">
        <ele>545.6</ele>
        <time>2020-11-16T20:31:52Z</time>
      </trkpt>
      <trkpt lat="28.6799880" lon="-17.9448720">
        <ele>545.6</ele>
        <time>2020-11-16T20:31:53Z</time>
      </trkpt>
      <trkpt lat="28.6798970" lon="-17.9449150">
        <ele>545.6</ele>
        <time>2020-11-16T20:31:54Z</time>
      </trkpt>
      <trkpt lat="28.6798480" lon="-17.9449280">
        <ele>545.6</ele>
        <time>2020-11-16T20:31:55Z</time>
      </trkpt>
      <trkpt lat="28.6798480" lon="-17.9449280">
        <ele>545.6</ele>
        <time>2020-11-16T20:31:56Z</time>
      </trkpt>
      <trkpt lat="28.6797500" lon="-17.9449230">
        <ele>545.6</ele>
        <time>2020-11-16T20:31:57Z</time>
      </trkpt>
      <trkpt lat="28.6797500" lon="-17.9449230">
        <ele>545.6</ele>
        <time>2020-11-16T20:31:58Z</time>
      </trkpt>
      <trkpt lat="28.6796500" lon="-17.9448970">
        <ele>545.5</ele>
        <time>2020-11-16T20:31:59Z</time>
      </trkpt>
      <trkpt lat="28.6796500" lon="-17.9448970">
        <ele>545.5</ele>
        <time>2020-11-16T20:32:00Z</time>
      </trkpt>
      <trkpt lat="28.6795500" lon="-17.9448530">
        <ele>545.3</ele>
        <time>2020-11-16T20:32:01Z</time>
      </trkpt>
      <trkpt lat="28.6795000" lon="-17.9448300">
        <ele>545.1</ele>
        <time>2020-11-16T20:32:02Z</time>
      </trkpt>
      <trkpt lat="28.6795000" lon="-17.9448300">
        <ele>545.1</ele>
        <time>2020-11-16T20:32:03Z</time>
      </trkpt>
      <trkpt lat="28.6793970" lon="-17.9447830">
        <ele>544.9</ele>
        <time>2020-11-16T20:32:04Z</time>
      </trkpt>
      <trkpt lat="28.6793970" lon="-17.9447830">
        <ele>544.9</ele>
        <time>2020-11-16T20:32:05Z</time>
      </trkpt>
      <trkpt lat="28.6792900" lon="-17.9447400">
        <ele>544.5</ele>
        <time>2020-11-16T20:32:06Z</time>
      </trkpt>
      <trkpt lat="28.6792370" lon="-17.9447220">
        <ele>544.4</ele>
        <time>2020-11-16T20:32:07Z</time>
      </trkpt>
      <trkpt lat="28.6792370" lon="-17.9447220">
        <ele>544.4</ele>
        <time>2020-11-16T20:32:08Z</time>
      </trkpt>
      <trkpt lat="28.6791270" lon="-17.9446720">
        <ele>544.0</ele>
        <time>2020-11-16T20:32:09Z</time>
      </trkpt>
      <trkpt lat="28.6791270" lon="-17.9446720">
        <ele>544.0</ele>
        <time>2020-11-16T20:32:10Z</time>
      </trkpt>
      <trkpt lat="28.6790150" lon="-17.9446230">
        <ele>543.7</ele>
        <time>2020-11-16T20:32:11Z</time>
      </trkpt>
      <trkpt lat="28.6790150" lon="-17.9446230">
        <ele>543.7</ele>
        <time>2020-11-16T20:32:12Z</time>
      </trkpt>
      <trkpt lat="28.6789070" lon="-17.9445720">
        <ele>543.4</ele>
        <time>2020-11-16T20:32:13Z</time>
      </trkpt>
      <trkpt lat="28.6788520" lon="-17.9445480">
        <ele>543.2</ele>
        <time>2020-11-16T20:32:14Z</time>
      </trkpt>
      <trkpt lat="28.6788520" lon="-17.9445480">
        <ele>543.2</ele>
        <time>2020-11-16T20:32:15Z</time>
      </trkpt>
      <trkpt lat="28.6787370" lon="-17.9444980">
        <ele>542.9</ele>
        <time>2020-11-16T20:32:16Z</time>
      </trkpt>
      <trkpt lat="28.6787370" lon="-17.9444980">
        <ele>542.9</ele>
        <time>2020-11-16T20:32:17Z</time>
      </trkpt>
      <trkpt lat="28.6786170" lon="-17.9444480">
        <ele>542.5</ele>
        <time>2020-11-16T20:32:18Z</time>
      </trkpt>
      <trkpt lat="28.6786170" lon="-17.9444480">
        <ele>542.5</ele>
        <time>2020-11-16T20:32:19Z</time>
      </trkpt>
      <trkpt lat="28.6784920" lon="-17.9443930">
        <ele>542.3</ele>
        <time>2020-11-16T20:32:20Z</time>
      </trkpt>
      <trkpt lat="28.6784920" lon="-17.9443930">
        <ele>542.3</ele>
        <time>2020-11-16T20:32:21Z</time>
      </trkpt>
      <trkpt lat="28.6783730" lon="-17.9443300">
        <ele>541.9</ele>
        <time>2020-11-16T20:32:22Z</time>
      </trkpt>
      <trkpt lat="28.6783730" lon="-17.9443300">
        <ele>541.9</ele>
        <time>2020-11-16T20:32:23Z</time>
      </trkpt>
      <trkpt lat="28.6782530" lon="-17.9442720">
        <ele>541.4</ele>
        <time>2020-11-16T20:32:24Z</time>
      </trkpt>
      <trkpt lat="28.6782530" lon="-17.9442720">
        <ele>541.4</ele>
        <time>2020-11-16T20:32:25Z</time>
      </trkpt>
      <trkpt lat="28.6781320" lon="-17.9442180">
        <ele>541.0</ele>
        <time>2020-11-16T20:32:26Z</time>
      </trkpt>
      <trkpt lat="28.6781320" lon="-17.9442180">
        <ele>541.0</ele>
        <time>2020-11-16T20:32:27Z</time>
      </trkpt>
      <trkpt lat="28.6780080" lon="-17.9441650">
        <ele>540.6</ele>
        <time>2020-11-16T20:32:28Z</time>
      </trkpt>
      <trkpt lat="28.6780080" lon="-17.9441650">
        <ele>540.6</ele>
        <time>2020-11-16T20:32:29Z</time>
      </trkpt>
      <trkpt lat="28.6778870" lon="-17.9441150">
        <ele>540.2</ele>
        <time>2020-11-16T20:32:30Z</time>
      </trkpt>
      <trkpt lat="28.6778870" lon="-17.9441150">
        <ele>540.2</ele>
        <time>2020-11-16T20:32:31Z</time>
      </trkpt>
      <trkpt lat="28.6777700" lon="-17.9440620">
        <ele>539.8</ele>
        <time>2020-11-16T20:32:32Z</time>
      </trkpt>
      <trkpt lat="28.6777700" lon="-17.9440620">
        <ele>539.8</ele>
        <time>2020-11-16T20:32:33Z</time>
      </trkpt>
      <trkpt lat="28.6776500" lon="-17.9440080">
        <ele>539.4</ele>
        <time>2020-11-16T20:32:34Z</time>
      </trkpt>
      <trkpt lat="28.6776500" lon="-17.9440080">
        <ele>539.4</ele>
        <time>2020-11-16T20:32:35Z</time>
      </trkpt>
      <trkpt lat="28.6775270" lon="-17.9439520">
        <ele>539.0</ele>
        <time>2020-11-16T20:32:36Z</time>
      </trkpt>
      <trkpt lat="28.6775270" lon="-17.9439520">
        <ele>539.0</ele>
        <time>2020-11-16T20:32:37Z</time>
      </trkpt>
      <trkpt lat="28.6774020" lon="-17.9439030">
        <ele>538.6</ele>
        <time>2020-11-16T20:32:38Z</time>
      </trkpt>
      <trkpt lat="28.6774020" lon="-17.9439030">
        <ele>538.6</ele>
        <time>2020-11-16T20:32:39Z</time>
      </trkpt>
      <trkpt lat="28.6773400" lon="-17.9438730">
        <ele>538.3</ele>
        <time>2020-11-16T20:32:40Z</time>
      </trkpt>
      <trkpt lat="28.6772200" lon="-17.9438120">
        <ele>537.9</ele>
        <time>2020-11-16T20:32:41Z</time>
      </trkpt>
      <trkpt lat="28.6771600" lon="-17.9437780">
        <ele>537.7</ele>
        <time>2020-11-16T20:32:42Z</time>
      </trkpt>
      <trkpt lat="28.6771600" lon="-17.9437780">
        <ele>537.7</ele>
        <time>2020-11-16T20:32:43Z</time>
      </trkpt>
      <trkpt lat="28.6770420" lon="-17.9437150">
        <ele>537.4</ele>
        <time>2020-11-16T20:32:44Z</time>
      </trkpt>
      <trkpt lat="28.6770420" lon="-17.9437150">
        <ele>537.4</ele>
        <time>2020-11-16T20:32:45Z</time>
      </trkpt>
      <trkpt lat="28.6769200" lon="-17.9436570">
        <ele>537.2</ele>
        <time>2020-11-16T20:32:46Z</time>
      </trkpt>
      <trkpt lat="28.6769200" lon="-17.9436570">
        <ele>537.2</ele>
        <time>2020-11-16T20:32:47Z</time>
      </trkpt>
      <trkpt lat="28.6767950" lon="-17.9436020">
        <ele>537.0</ele>
        <time>2020-11-16T20:32:48Z</time>
      </trkpt>
      <trkpt lat="28.6767950" lon="-17.9436020">
        <ele>537.0</ele>
        <time>2020-11-16T20:32:49Z</time>
      </trkpt>
      <trkpt lat="28.6766630" lon="-17.9435730">
        <ele>536.9</ele>
        <time>2020-11-16T20:32:50Z</time>
      </trkpt>
      <trkpt lat="28.6766630" lon="-17.9435730">
        <ele>536.9</ele>
        <time>2020-11-16T20:32:51Z</time>
      </trkpt>
      <trkpt lat="28.6765320" lon="-17.9435670">
        <ele>536.7</ele>
        <time>2020-11-16T20:32:52Z</time>
      </trkpt>
      <trkpt lat="28.6765320" lon="-17.9435670">
        <ele>536.7</ele>
        <time>2020-11-16T20:32:53Z</time>
      </trkpt>
      <trkpt lat="28.6764070" lon="-17.9435680">
        <ele>536.5</ele>
        <time>2020-11-16T20:32:54Z</time>
      </trkpt>
      <trkpt lat="28.6764070" lon="-17.9435680">
        <ele>536.5</ele>
        <time>2020-11-16T20:32:55Z</time>
      </trkpt>
      <trkpt lat="28.6762820" lon="-17.9435720">
        <ele>536.4</ele>
        <time>2020-11-16T20:32:56Z</time>
      </trkpt>
      <trkpt lat="28.6762820" lon="-17.9435720">
        <ele>536.4</ele>
        <time>2020-11-16T20:32:57Z</time>
      </trkpt>
      <trkpt lat="28.6761600" lon="-17.9435770">
        <ele>536.1</ele>
        <time>2020-11-16T20:32:58Z</time>
      </trkpt>
      <trkpt lat="28.6761600" lon="-17.9435770">
        <ele>536.1</ele>
        <time>2020-11-16T20:32:59Z</time>
      </trkpt>
      <trkpt lat="28.6760380" lon="-17.9435780">
        <ele>535.9</ele>
        <time>2020-11-16T20:33:00Z</time>
      </trkpt>
      <trkpt lat="28.6759800" lon="-17.9435830">
        <ele>535.7</ele>
        <time>2020-11-16T20:33:01Z</time>
      </trkpt>
      <trkpt lat="28.6759800" lon="-17.9435830">
        <ele>535.7</ele>
        <time>2020-11-16T20:33:02Z</time>
      </trkpt>
      <trkpt lat="28.6758700" lon="-17.9436130">
        <ele>535.5</ele>
        <time>2020-11-16T20:33:03Z</time>
      </trkpt>
      <trkpt lat="28.6758700" lon="-17.9436130">
        <ele>535.5</ele>
        <time>2020-11-16T20:33:04Z</time>
      </trkpt>
      <trkpt lat="28.6757680" lon="-17.9436330">
        <ele>535.4</ele>
        <time>2020-11-16T20:33:05Z</time>
      </trkpt>
      <trkpt lat="28.6757680" lon="-17.9436330">
        <ele>535.4</ele>
        <time>2020-11-16T20:33:06Z</time>
      </trkpt>
      <trkpt lat="28.6756700" lon="-17.9436670">
        <ele>535.2</ele>
        <time>2020-11-16T20:33:07Z</time>
      </trkpt>
      <trkpt lat="28.6756200" lon="-17.9436870">
        <ele>535.2</ele>
        <time>2020-11-16T20:33:08Z</time>
      </trkpt>
      <trkpt lat="28.6756200" lon="-17.9436870">
        <ele>535.2</ele>
        <time>2020-11-16T20:33:09Z</time>
      </trkpt>
      <trkpt lat="28.6755220" lon="-17.9437300">
        <ele>535.1</ele>
        <time>2020-11-16T20:33:10Z</time>
      </trkpt>
      <trkpt lat="28.6755220" lon="-17.9437300">
        <ele>535.1</ele>
        <time>2020-11-16T20:33:11Z</time>
      </trkpt>
      <trkpt lat="28.6754250" lon="-17.9437720">
        <ele>535.1</ele>
        <time>2020-11-16T20:33:12Z</time>
      </trkpt>
      <trkpt lat="28.6754250" lon="-17.9437720">
        <ele>535.1</ele>
        <time>2020-11-16T20:33:13Z</time>
      </trkpt>
      <trkpt lat="28.6753320" lon="-17.9438250">
        <ele>535.0</ele>
        <time>2020-11-16T20:33:14Z</time>
      </trkpt>
      <trkpt lat="28.6753320" lon="-17.9438250">
        <ele>535.0</ele>
        <time>2020-11-16T20:33:15Z</time>
      </trkpt>
      <trkpt lat="28.6752330" lon="-17.9438630">
        <ele>534.9</ele>
        <time>2020-11-16T20:33:16Z</time>
      </trkpt>
      <trkpt lat="28.6752330" lon="-17.9438630">
        <ele>534.9</ele>
        <time>2020-11-16T20:33:17Z</time>
      </trkpt>
      <trkpt lat="28.6751330" lon="-17.9439020">
        <ele>534.8</ele>
        <time>2020-11-16T20:33:18Z</time>
      </trkpt>
      <trkpt lat="28.6751330" lon="-17.9439020">
        <ele>534.8</ele>
        <time>2020-11-16T20:33:19Z</time>
      </trkpt>
      <trkpt lat="28.6750320" lon="-17.9439280">
        <ele>534.7</ele>
        <time>2020-11-16T20:33:20Z</time>
      </trkpt>
      <trkpt lat="28.6750320" lon="-17.9439280">
        <ele>534.7</ele>
        <time>2020-11-16T20:33:21Z</time>
      </trkpt>
      <trkpt lat="28.6749270" lon="-17.9439370">
        <ele>534.7</ele>
        <time>2020-11-16T20:33:22Z</time>
      </trkpt>
      <trkpt lat="28.6749270" lon="-17.9439370">
        <ele>534.7</ele>
        <time>2020-11-16T20:33:23Z</time>
      </trkpt>
      <trkpt lat="28.6748220" lon="-17.9439250">
        <ele>534.6</ele>
        <time>2020-11-16T20:33:24Z</time>
      </trkpt>
      <trkpt lat="28.6748220" lon="-17.9439250">
        <ele>534.6</ele>
        <time>2020-11-16T20:33:25Z</time>
      </trkpt>
      <trkpt lat="28.6747150" lon="-17.9439170">
        <ele>534.5</ele>
        <time>2020-11-16T20:33:26Z</time>
      </trkpt>
      <trkpt lat="28.6747150" lon="-17.9439170">
        <ele>534.5</ele>
        <time>2020-11-16T20:33:27Z</time>
      </trkpt>
      <trkpt lat="28.6746050" lon="-17.9439050">
        <ele>534.4</ele>
        <time>2020-11-16T20:33:28Z</time>
      </trkpt>
      <trkpt lat="28.6746050" lon="-17.9439050">
        <ele>534.4</ele>
        <time>2020-11-16T20:33:29Z</time>
      </trkpt>
      <trkpt lat="28.6744980" lon="-17.9438820">
        <ele>534.3</ele>
        <time>2020-11-16T20:33:30Z</time>
      </trkpt>
      <trkpt lat="28.6744980" lon="-17.9438820">
        <ele>534.3</ele>
        <time>2020-11-16T20:33:31Z</time>
      </trkpt>
      <trkpt lat="28.6743920" lon="-17.9438550">
        <ele>534.3</ele>
        <time>2020-11-16T20:33:32Z</time>
      </trkpt>
      <trkpt lat="28.6743920" lon="-17.9438550">
        <ele>534.3</ele>
        <time>2020-11-16T20:33:33Z</time>
      </trkpt>
      <trkpt lat="28.6742820" lon="-17.9438380">
        <ele>534.2</ele>
        <time>2020-11-16T20:33:34Z</time>
      </trkpt>
      <trkpt lat="28.6742280" lon="-17.9438320">
        <ele>534.1</ele>
        <time>2020-11-16T20:33:35Z</time>
      </trkpt>
      <trkpt lat="28.6742280" lon="-17.9438320">
        <ele>534.1</ele>
        <time>2020-11-16T20:33:36Z</time>
      </trkpt>
      <trkpt lat="28.6741200" lon="-17.9438130">
        <ele>534.1</ele>
        <time>2020-11-16T20:33:37Z</time>
      </trkpt>
      <trkpt lat="28.6740670" lon="-17.9438030">
        <ele>534.1</ele>
        <time>2020-11-16T20:33:38Z</time>
      </trkpt>
      <trkpt lat="28.6740670" lon="-17.9438030">
        <ele>534.1</ele>
        <time>2020-11-16T20:33:39Z</time>
      </trkpt>
      <trkpt lat="28.6739630" lon="-17.9437880">
        <ele>534.0</ele>
        <time>2020-11-16T20:33:40Z</time>
      </trkpt>
      <trkpt lat="28.6739630" lon="-17.9437880">
        <ele>534.0</ele>
        <time>2020-11-16T20:33:41Z</time>
      </trkpt>
      <trkpt lat="28.6738670" lon="-17.9437730">
        <ele>534.0</ele>
        <time>2020-11-16T20:33:42Z</time>
      </trkpt>
      <trkpt lat="28.6738170" lon="-17.9437630">
        <ele>534.0</ele>
        <time>2020-11-16T20:33:43Z</time>
      </trkpt>
      <trkpt lat="28.6738170" lon="-17.9437630">
        <ele>534.0</ele>
        <time>2020-11-16T20:33:44Z</time>
      </trkpt>
      <trkpt lat="28.6737230" lon="-17.9437400">
        <ele>534.0</ele>
        <time>2020-11-16T20:33:45Z</time>
      </trkpt>
      <trkpt lat="28.6737230" lon="-17.9437400">
        <ele>534.0</ele>
        <time>2020-11-16T20:33:46Z</time>
      </trkpt>
      <trkpt lat="28.6736330" lon="-17.9437070">
        <ele>534.0</ele>
        <time>2020-11-16T20:33:47Z</time>
      </trkpt>
      <trkpt lat="28.6736330" lon="-17.9437070">
        <ele>534.0</ele>
        <time>2020-11-16T20:33:48Z</time>
      </trkpt>
      <trkpt lat="28.6735500" lon="-17.9436520">
        <ele>534.0</ele>
        <time>2020-11-16T20:33:49Z</time>
      </trkpt>
      <trkpt lat="28.6735500" lon="-17.9436520">
        <ele>534.0</ele>
        <time>2020-11-16T20:33:50Z</time>
      </trkpt>
      <trkpt lat="28.6734750" lon="-17.9435850">
        <ele>534.0</ele>
        <time>2020-11-16T20:33:51Z</time>
      </trkpt>
      <trkpt lat="28.6734750" lon="-17.9435850">
        <ele>534.0</ele>
        <time>2020-11-16T20:33:52Z</time>
      </trkpt>
      <trkpt lat="28.6733970" lon="-17.9435180">
        <ele>533.9</ele>
        <time>2020-11-16T20:33:53Z</time>
      </trkpt>
      <trkpt lat="28.6733970" lon="-17.9435180">
        <ele>533.9</ele>
        <time>2020-11-16T20:33:54Z</time>
      </trkpt>
      <trkpt lat="28.6733150" lon="-17.9434530">
        <ele>533.9</ele>
        <time>2020-11-16T20:33:55Z</time>
      </trkpt>
      <trkpt lat="28.6733150" lon="-17.9434530">
        <ele>533.9</ele>
        <time>2020-11-16T20:33:56Z</time>
      </trkpt>
      <trkpt lat="28.6732220" lon="-17.9434020">
        <ele>533.9</ele>
        <time>2020-11-16T20:33:57Z</time>
      </trkpt>
      <trkpt lat="28.6732220" lon="-17.9434020">
        <ele>533.9</ele>
        <time>2020-11-16T20:33:58Z</time>
      </trkpt>
      <trkpt lat="28.6731220" lon="-17.9433680">
        <ele>533.8</ele>
        <time>2020-11-16T20:33:59Z</time>
      </trkpt>
      <trkpt lat="28.6731220" lon="-17.9433680">
        <ele>533.8</ele>
        <time>2020-11-16T20:34:00Z</time>
      </trkpt>
      <trkpt lat="28.6730180" lon="-17.9433580">
        <ele>533.7</ele>
        <time>2020-11-16T20:34:01Z</time>
      </trkpt>
      <trkpt lat="28.6730180" lon="-17.9433580">
        <ele>533.7</ele>
        <time>2020-11-16T20:34:02Z</time>
      </trkpt>
      <trkpt lat="28.6729180" lon="-17.9433580">
        <ele>533.7</ele>
        <time>2020-11-16T20:34:03Z</time>
      </trkpt>
      <trkpt lat="28.6729180" lon="-17.9433580">
        <ele>533.7</ele>
        <time>2020-11-16T20:34:04Z</time>
      </trkpt>
      <trkpt lat="28.6728170" lon="-17.9433580">
        <ele>533.7</ele>
        <time>2020-11-16T20:34:05Z</time>
      </trkpt>
      <trkpt lat="28.6728170" lon="-17.9433580">
        <ele>533.7</ele>
        <time>2020-11-16T20:34:06Z</time>
      </trkpt>
      <trkpt lat="28.6727170" lon="-17.9433480">
        <ele>533.6</ele>
        <time>2020-11-16T20:34:07Z</time>
      </trkpt>
      <trkpt lat="28.6726650" lon="-17.9433400">
        <ele>533.6</ele>
        <time>2020-11-16T20:34:08Z</time>
      </trkpt>
      <trkpt lat="28.6726650" lon="-17.9433400">
        <ele>533.6</ele>
        <time>2020-11-16T20:34:09Z</time>
      </trkpt>
      <trkpt lat="28.6725630" lon="-17.9433180">
        <ele>533.5</ele>
        <time>2020-11-16T20:34:10Z</time>
      </trkpt>
      <trkpt lat="28.6725630" lon="-17.9433180">
        <ele>533.5</ele>
        <time>2020-11-16T20:34:11Z</time>
      </trkpt>
      <trkpt lat="28.6724650" lon="-17.9432800">
        <ele>533.5</ele>
        <time>2020-11-16T20:34:12Z</time>
      </trkpt>
      <trkpt lat="28.6724650" lon="-17.9432800">
        <ele>533.5</ele>
        <time>2020-11-16T20:34:13Z</time>
      </trkpt>
      <trkpt lat="28.6723680" lon="-17.9432270">
        <ele>533.4</ele>
        <time>2020-11-16T20:34:14Z</time>
      </trkpt>
      <trkpt lat="28.6723680" lon="-17.9432270">
        <ele>533.4</ele>
        <time>2020-11-16T20:34:15Z</time>
      </trkpt>
      <trkpt lat="28.6722720" lon="-17.9431700">
        <ele>533.3</ele>
        <time>2020-11-16T20:34:16Z</time>
      </trkpt>
      <trkpt lat="28.6722220" lon="-17.9431420">
        <ele>533.3</ele>
        <time>2020-11-16T20:34:17Z</time>
      </trkpt>
      <trkpt lat="28.6722220" lon="-17.9431420">
        <ele>533.3</ele>
        <time>2020-11-16T20:34:18Z</time>
      </trkpt>
      <trkpt lat="28.6721230" lon="-17.9430830">
        <ele>533.2</ele>
        <time>2020-11-16T20:34:19Z</time>
      </trkpt>
      <trkpt lat="28.6721230" lon="-17.9430830">
        <ele>533.2</ele>
        <time>2020-11-16T20:34:20Z</time>
      </trkpt>
      <trkpt lat="28.6720270" lon="-17.9430250">
        <ele>533.1</ele>
        <time>2020-11-16T20:34:21Z</time>
      </trkpt>
      <trkpt lat="28.6720270" lon="-17.9430250">
        <ele>533.1</ele>
        <time>2020-11-16T20:34:22Z</time>
      </trkpt>
      <trkpt lat="28.6719280" lon="-17.9429700">
        <ele>533.0</ele>
        <time>2020-11-16T20:34:23Z</time>
      </trkpt>
      <trkpt lat="28.6719280" lon="-17.9429700">
        <ele>533.0</ele>
        <time>2020-11-16T20:34:24Z</time>
      </trkpt>
      <trkpt lat="28.6718270" lon="-17.9429170">
        <ele>532.9</ele>
        <time>2020-11-16T20:34:25Z</time>
      </trkpt>
      <trkpt lat="28.6717770" lon="-17.9428920">
        <ele>532.8</ele>
        <time>2020-11-16T20:34:26Z</time>
      </trkpt>
      <trkpt lat="28.6717770" lon="-17.9428920">
        <ele>532.8</ele>
        <time>2020-11-16T20:34:27Z</time>
      </trkpt>
      <trkpt lat="28.6716720" lon="-17.9428400">
        <ele>532.7</ele>
        <time>2020-11-16T20:34:28Z</time>
      </trkpt>
      <trkpt lat="28.6716180" lon="-17.9428170">
        <ele>532.6</ele>
        <time>2020-11-16T20:34:29Z</time>
      </trkpt>
      <trkpt lat="28.6716180" lon="-17.9428170">
        <ele>532.6</ele>
        <time>2020-11-16T20:34:30Z</time>
      </trkpt>
      <trkpt lat="28.6715120" lon="-17.9427630">
        <ele>532.5</ele>
        <time>2020-11-16T20:34:31Z</time>
      </trkpt>
      <trkpt lat="28.6715120" lon="-17.9427630">
        <ele>532.5</ele>
        <time>2020-11-16T20:34:32Z</time>
      </trkpt>
      <trkpt lat="28.6714030" lon="-17.9427080">
        <ele>532.3</ele>
        <time>2020-11-16T20:34:33Z</time>
      </trkpt>
      <trkpt lat="28.6714030" lon="-17.9427080">
        <ele>532.3</ele>
        <time>2020-11-16T20:34:34Z</time>
      </trkpt>
      <trkpt lat="28.6712900" lon="-17.9426580">
        <ele>532.1</ele>
        <time>2020-11-16T20:34:35Z</time>
      </trkpt>
      <trkpt lat="28.6712900" lon="-17.9426580">
        <ele>532.1</ele>
        <time>2020-11-16T20:34:36Z</time>
      </trkpt>
      <trkpt lat="28.6711800" lon="-17.9426030">
        <ele>531.9</ele>
        <time>2020-11-16T20:34:37Z</time>
      </trkpt>
      <trkpt lat="28.6711200" lon="-17.9425870">
        <ele>531.8</ele>
        <time>2020-11-16T20:34:38Z</time>
      </trkpt>
      <trkpt lat="28.6711200" lon="-17.9425870">
        <ele>531.8</ele>
        <time>2020-11-16T20:34:39Z</time>
      </trkpt>
      <trkpt lat="28.6710020" lon="-17.9425320">
        <ele>531.6</ele>
        <time>2020-11-16T20:34:40Z</time>
      </trkpt>
      <trkpt lat="28.6710020" lon="-17.9425320">
        <ele>531.6</ele>
        <time>2020-11-16T20:34:41Z</time>
      </trkpt>
      <trkpt lat="28.6708900" lon="-17.9424750">
        <ele>531.4</ele>
        <time>2020-11-16T20:34:42Z</time>
      </trkpt>
      <trkpt lat="28.6708900" lon="-17.9424750">
        <ele>531.4</ele>
        <time>2020-11-16T20:34:43Z</time>
      </trkpt>
      <trkpt lat="28.6707820" lon="-17.9424130">
        <ele>531.3</ele>
        <time>2020-11-16T20:34:44Z</time>
      </trkpt>
      <trkpt lat="28.6707820" lon="-17.9424130">
        <ele>531.3</ele>
        <time>2020-11-16T20:34:45Z</time>
      </trkpt>
      <trkpt lat="28.6706720" lon="-17.9423580">
        <ele>531.1</ele>
        <time>2020-11-16T20:34:46Z</time>
      </trkpt>
      <trkpt lat="28.6706170" lon="-17.9423320">
        <ele>531.1</ele>
        <time>2020-11-16T20:34:47Z</time>
      </trkpt>
      <trkpt lat="28.6706170" lon="-17.9423320">
        <ele>531.1</ele>
        <time>2020-11-16T20:34:48Z</time>
      </trkpt>
      <trkpt lat="28.6705050" lon="-17.9422820">
        <ele>530.9</ele>
        <time>2020-11-16T20:34:49Z</time>
      </trkpt>
      <trkpt lat="28.6704450" lon="-17.9422670">
        <ele>530.7</ele>
        <time>2020-11-16T20:34:50Z</time>
      </trkpt>
      <trkpt lat="28.6704450" lon="-17.9422670">
        <ele>530.7</ele>
        <time>2020-11-16T20:34:51Z</time>
      </trkpt>
      <trkpt lat="28.6704450" lon="-17.9422670">
        <ele>530.7</ele>
        <time>2020-11-16T20:34:52Z</time>
      </trkpt>
      <trkpt lat="28.6702680" lon="-17.9423200">
        <ele>530.3</ele>
        <time>2020-11-16T20:34:53Z</time>
      </trkpt>
      <trkpt lat="28.6702680" lon="-17.9423200">
        <ele>530.3</ele>
        <time>2020-11-16T20:34:54Z</time>
      </trkpt>
      <trkpt lat="28.6701600" lon="-17.9423930">
        <ele>529.9</ele>
        <time>2020-11-16T20:34:55Z</time>
      </trkpt>
      <trkpt lat="28.6701030" lon="-17.9424270">
        <ele>529.7</ele>
        <time>2020-11-16T20:34:56Z</time>
      </trkpt>
      <trkpt lat="28.6701030" lon="-17.9424270">
        <ele>529.7</ele>
        <time>2020-11-16T20:34:57Z</time>
      </trkpt>
      <trkpt lat="28.6699820" lon="-17.9424650">
        <ele>529.4</ele>
        <time>2020-11-16T20:34:58Z</time>
      </trkpt>
      <trkpt lat="28.6699820" lon="-17.9424650">
        <ele>529.4</ele>
        <time>2020-11-16T20:34:59Z</time>
      </trkpt>
      <trkpt lat="28.6698570" lon="-17.9424880">
        <ele>529.0</ele>
        <time>2020-11-16T20:35:00Z</time>
      </trkpt>
      <trkpt lat="28.6697950" lon="-17.9425020">
        <ele>528.8</ele>
        <time>2020-11-16T20:35:01Z</time>
      </trkpt>
      <trkpt lat="28.6697300" lon="-17.9425130">
        <ele>528.7</ele>
        <time>2020-11-16T20:35:02Z</time>
      </trkpt>
      <trkpt lat="28.6697300" lon="-17.9425130">
        <ele>528.7</ele>
        <time>2020-11-16T20:35:03Z</time>
      </trkpt>
      <trkpt lat="28.6696020" lon="-17.9425350">
        <ele>528.4</ele>
        <time>2020-11-16T20:35:04Z</time>
      </trkpt>
      <trkpt lat="28.6695370" lon="-17.9425430">
        <ele>528.3</ele>
        <time>2020-11-16T20:35:05Z</time>
      </trkpt>
      <trkpt lat="28.6695370" lon="-17.9425430">
        <ele>528.3</ele>
        <time>2020-11-16T20:35:06Z</time>
      </trkpt>
      <trkpt lat="28.6694050" lon="-17.9425620">
        <ele>528.0</ele>
        <time>2020-11-16T20:35:07Z</time>
      </trkpt>
      <trkpt lat="28.6694050" lon="-17.9425620">
        <ele>528.0</ele>
        <time>2020-11-16T20:35:08Z</time>
      </trkpt>
      <trkpt lat="28.6692770" lon="-17.9425720">
        <ele>527.8</ele>
        <time>2020-11-16T20:35:09Z</time>
      </trkpt>
      <trkpt lat="28.6692770" lon="-17.9425720">
        <ele>527.8</ele>
        <time>2020-11-16T20:35:10Z</time>
      </trkpt>
      <trkpt lat="28.6691470" lon="-17.9425930">
        <ele>527.5</ele>
        <time>2020-11-16T20:35:11Z</time>
      </trkpt>
      <trkpt lat="28.6690800" lon="-17.9426030">
        <ele>527.4</ele>
        <time>2020-11-16T20:35:12Z</time>
      </trkpt>
      <trkpt lat="28.6690800" lon="-17.9426030">
        <ele>527.4</ele>
        <time>2020-11-16T20:35:13Z</time>
      </trkpt>
      <trkpt lat="28.6690800" lon="-17.9426030">
        <ele>527.4</ele>
        <time>2020-11-16T20:35:14Z</time>
      </trkpt>
      <trkpt lat="28.6689450" lon="-17.9426200">
        <ele>527.1</ele>
        <time>2020-11-16T20:35:15Z</time>
      </trkpt>
      <trkpt lat="28.6688080" lon="-17.9426450">
        <ele>526.7</ele>
        <time>2020-11-16T20:35:16Z</time>
      </trkpt>
      <trkpt lat="28.6688080" lon="-17.9426450">
        <ele>526.7</ele>
        <time>2020-11-16T20:35:17Z</time>
      </trkpt>
      <trkpt lat="28.6686720" lon="-17.9426700">
        <ele>526.3</ele>
        <time>2020-11-16T20:35:18Z</time>
      </trkpt>
      <trkpt lat="28.6686030" lon="-17.9426900">
        <ele>526.1</ele>
        <time>2020-11-16T20:35:19Z</time>
      </trkpt>
      <trkpt lat="28.6685350" lon="-17.9427180">
        <ele>525.9</ele>
        <time>2020-11-16T20:35:20Z</time>
      </trkpt>
      <trkpt lat="28.6685350" lon="-17.9427180">
        <ele>525.9</ele>
        <time>2020-11-16T20:35:21Z</time>
      </trkpt>
      <trkpt lat="28.6684130" lon="-17.9428000">
        <ele>525.4</ele>
        <time>2020-11-16T20:35:22Z</time>
      </trkpt>
      <trkpt lat="28.6683580" lon="-17.9428480">
        <ele>525.2</ele>
        <time>2020-11-16T20:35:23Z</time>
      </trkpt>
      <trkpt lat="28.6683580" lon="-17.9428480">
        <ele>525.2</ele>
        <time>2020-11-16T20:35:24Z</time>
      </trkpt>
      <trkpt lat="28.6682400" lon="-17.9429400">
        <ele>524.7</ele>
        <time>2020-11-16T20:35:25Z</time>
      </trkpt>
      <trkpt lat="28.6681720" lon="-17.9429680">
        <ele>524.4</ele>
        <time>2020-11-16T20:35:26Z</time>
      </trkpt>
      <trkpt lat="28.6681720" lon="-17.9429680">
        <ele>524.4</ele>
        <time>2020-11-16T20:35:27Z</time>
      </trkpt>
      <trkpt lat="28.6680230" lon="-17.9429970">
        <ele>524.0</ele>
        <time>2020-11-16T20:35:28Z</time>
      </trkpt>
      <trkpt lat="28.6680230" lon="-17.9429970">
        <ele>524.0</ele>
        <time>2020-11-16T20:35:29Z</time>
      </trkpt>
      <trkpt lat="28.6678730" lon="-17.9429880">
        <ele>523.6</ele>
        <time>2020-11-16T20:35:30Z</time>
      </trkpt>
      <trkpt lat="28.6678730" lon="-17.9429880">
        <ele>523.6</ele>
        <time>2020-11-16T20:35:31Z</time>
      </trkpt>
      <trkpt lat="28.6677230" lon="-17.9429630">
        <ele>523.1</ele>
        <time>2020-11-16T20:35:32Z</time>
      </trkpt>
      <trkpt lat="28.6677230" lon="-17.9429630">
        <ele>523.1</ele>
        <time>2020-11-16T20:35:33Z</time>
      </trkpt>
      <trkpt lat="28.6675700" lon="-17.9429400">
        <ele>522.7</ele>
        <time>2020-11-16T20:35:34Z</time>
      </trkpt>
      <trkpt lat="28.6674970" lon="-17.9429270">
        <ele>522.6</ele>
        <time>2020-11-16T20:35:35Z</time>
      </trkpt>
      <trkpt lat="28.6674970" lon="-17.9429270">
        <ele>522.6</ele>
        <time>2020-11-16T20:35:36Z</time>
      </trkpt>
      <trkpt lat="28.6673430" lon="-17.9429270">
        <ele>522.2</ele>
        <time>2020-11-16T20:35:37Z</time>
      </trkpt>
      <trkpt lat="28.6673430" lon="-17.9429270">
        <ele>522.2</ele>
        <time>2020-11-16T20:35:38Z</time>
      </trkpt>
      <trkpt lat="28.6671920" lon="-17.9429550">
        <ele>521.8</ele>
        <time>2020-11-16T20:35:39Z</time>
      </trkpt>
      <trkpt lat="28.6671920" lon="-17.9429550">
        <ele>521.8</ele>
        <time>2020-11-16T20:35:40Z</time>
      </trkpt>
      <trkpt lat="28.6670420" lon="-17.9429870">
        <ele>521.4</ele>
        <time>2020-11-16T20:35:41Z</time>
      </trkpt>
      <trkpt lat="28.6669870" lon="-17.9430060">
        <ele>521.2</ele>
        <time>2020-11-16T20:35:42Z</time>
      </trkpt>
      <trkpt lat="28.6669310" lon="-17.9430250">
        <ele>521.0</ele>
        <time>2020-11-16T20:35:43Z</time>
      </trkpt>
      <trkpt lat="28.6668200" lon="-17.9430620">
        <ele>520.7</ele>
        <time>2020-11-16T20:35:44Z</time>
      </trkpt>
      <trkpt lat="28.6667470" lon="-17.9430850">
        <ele>520.6</ele>
        <time>2020-11-16T20:35:45Z</time>
      </trkpt>
      <trkpt lat="28.6667470" lon="-17.9430850">
        <ele>520.6</ele>
        <time>2020-11-16T20:35:46Z</time>
      </trkpt>
      <trkpt lat="28.6666020" lon="-17.9431400">
        <ele>520.3</ele>
        <time>2020-11-16T20:35:47Z</time>
      </trkpt>
      <trkpt lat="28.6666020" lon="-17.9431400">
        <ele>520.3</ele>
        <time>2020-11-16T20:35:48Z</time>
      </trkpt>
      <trkpt lat="28.6664650" lon="-17.9431970">
        <ele>520.0</ele>
        <time>2020-11-16T20:35:49Z</time>
      </trkpt>
      <trkpt lat="28.6663970" lon="-17.9432150">
        <ele>519.8</ele>
        <time>2020-11-16T20:35:50Z</time>
      </trkpt>
      <trkpt lat="28.6663970" lon="-17.9432150">
        <ele>519.8</ele>
        <time>2020-11-16T20:35:51Z</time>
      </trkpt>
      <trkpt lat="28.6662620" lon="-17.9432300">
        <ele>519.5</ele>
        <time>2020-11-16T20:35:52Z</time>
      </trkpt>
      <trkpt lat="28.6662620" lon="-17.9432300">
        <ele>519.5</ele>
        <time>2020-11-16T20:35:53Z</time>
      </trkpt>
      <trkpt lat="28.6661250" lon="-17.9432270">
        <ele>519.2</ele>
        <time>2020-11-16T20:35:54Z</time>
      </trkpt>
      <trkpt lat="28.6661250" lon="-17.9432270">
        <ele>519.2</ele>
        <time>2020-11-16T20:35:55Z</time>
      </trkpt>
      <trkpt lat="28.6659850" lon="-17.9432180">
        <ele>518.8</ele>
        <time>2020-11-16T20:35:56Z</time>
      </trkpt>
      <trkpt lat="28.6659850" lon="-17.9432180">
        <ele>518.8</ele>
        <time>2020-11-16T20:35:57Z</time>
      </trkpt>
      <trkpt lat="28.6658470" lon="-17.9432000">
        <ele>518.4</ele>
        <time>2020-11-16T20:35:58Z</time>
      </trkpt>
      <trkpt lat="28.6658470" lon="-17.9432000">
        <ele>518.4</ele>
        <time>2020-11-16T20:35:59Z</time>
      </trkpt>
      <trkpt lat="28.6657100" lon="-17.9431720">
        <ele>518.1</ele>
        <time>2020-11-16T20:36:00Z</time>
      </trkpt>
      <trkpt lat="28.6657100" lon="-17.9431720">
        <ele>518.1</ele>
        <time>2020-11-16T20:36:01Z</time>
      </trkpt>
      <trkpt lat="28.6655770" lon="-17.9431250">
        <ele>517.9</ele>
        <time>2020-11-16T20:36:02Z</time>
      </trkpt>
      <trkpt lat="28.6655770" lon="-17.9431250">
        <ele>517.9</ele>
        <time>2020-11-16T20:36:03Z</time>
      </trkpt>
      <trkpt lat="28.6654470" lon="-17.9430670">
        <ele>517.5</ele>
        <time>2020-11-16T20:36:04Z</time>
      </trkpt>
      <trkpt lat="28.6653820" lon="-17.9430370">
        <ele>517.3</ele>
        <time>2020-11-16T20:36:05Z</time>
      </trkpt>
      <trkpt lat="28.6653820" lon="-17.9430370">
        <ele>517.3</ele>
        <time>2020-11-16T20:36:06Z</time>
      </trkpt>
      <trkpt lat="28.6653820" lon="-17.9430370">
        <ele>517.3</ele>
        <time>2020-11-16T20:36:07Z</time>
      </trkpt>
      <trkpt lat="28.6652550" lon="-17.9429720">
        <ele>516.9</ele>
        <time>2020-11-16T20:36:08Z</time>
      </trkpt>
      <trkpt lat="28.6651270" lon="-17.9429070">
        <ele>516.7</ele>
        <time>2020-11-16T20:36:09Z</time>
      </trkpt>
      <trkpt lat="28.6651270" lon="-17.9429070">
        <ele>516.7</ele>
        <time>2020-11-16T20:36:10Z</time>
      </trkpt>
      <trkpt lat="28.6649980" lon="-17.9428470">
        <ele>516.4</ele>
        <time>2020-11-16T20:36:11Z</time>
      </trkpt>
      <trkpt lat="28.6649370" lon="-17.9428170">
        <ele>516.2</ele>
        <time>2020-11-16T20:36:12Z</time>
      </trkpt>
      <trkpt lat="28.6649370" lon="-17.9428170">
        <ele>516.2</ele>
        <time>2020-11-16T20:36:13Z</time>
      </trkpt>
      <trkpt lat="28.6648080" lon="-17.9427520">
        <ele>516.0</ele>
        <time>2020-11-16T20:36:14Z</time>
      </trkpt>
      <trkpt lat="28.6648080" lon="-17.9427520">
        <ele>516.0</ele>
        <time>2020-11-16T20:36:15Z</time>
      </trkpt>
      <trkpt lat="28.6646820" lon="-17.9426880">
        <ele>515.7</ele>
        <time>2020-11-16T20:36:16Z</time>
      </trkpt>
      <trkpt lat="28.6646820" lon="-17.9426880">
        <ele>515.7</ele>
        <time>2020-11-16T20:36:17Z</time>
      </trkpt>
      <trkpt lat="28.6645620" lon="-17.9426200">
        <ele>515.5</ele>
        <time>2020-11-16T20:36:18Z</time>
      </trkpt>
      <trkpt lat="28.6645620" lon="-17.9426200">
        <ele>515.5</ele>
        <time>2020-11-16T20:36:19Z</time>
      </trkpt>
      <trkpt lat="28.6644350" lon="-17.9425620">
        <ele>515.3</ele>
        <time>2020-11-16T20:36:20Z</time>
      </trkpt>
      <trkpt lat="28.6644350" lon="-17.9425620">
        <ele>515.3</ele>
        <time>2020-11-16T20:36:21Z</time>
      </trkpt>
      <trkpt lat="28.6643050" lon="-17.9425070">
        <ele>514.9</ele>
        <time>2020-11-16T20:36:22Z</time>
      </trkpt>
      <trkpt lat="28.6643050" lon="-17.9425070">
        <ele>514.9</ele>
        <time>2020-11-16T20:36:23Z</time>
      </trkpt>
      <trkpt lat="28.6641750" lon="-17.9424650">
        <ele>514.4</ele>
        <time>2020-11-16T20:36:24Z</time>
      </trkpt>
      <trkpt lat="28.6641080" lon="-17.9424630">
        <ele>514.0</ele>
        <time>2020-11-16T20:36:25Z</time>
      </trkpt>
      <trkpt lat="28.6641080" lon="-17.9424630">
        <ele>514.0</ele>
        <time>2020-11-16T20:36:26Z</time>
      </trkpt>
      <trkpt lat="28.6639780" lon="-17.9424830">
        <ele>513.3</ele>
        <time>2020-11-16T20:36:27Z</time>
      </trkpt>
      <trkpt lat="28.6639780" lon="-17.9424830">
        <ele>513.3</ele>
        <time>2020-11-16T20:36:28Z</time>
      </trkpt>
      <trkpt lat="28.6638550" lon="-17.9424830">
        <ele>512.7</ele>
        <time>2020-11-16T20:36:29Z</time>
      </trkpt>
      <trkpt lat="28.6638550" lon="-17.9424830">
        <ele>512.7</ele>
        <time>2020-11-16T20:36:30Z</time>
      </trkpt>
      <trkpt lat="28.6637430" lon="-17.9424280">
        <ele>512.1</ele>
        <time>2020-11-16T20:36:31Z</time>
      </trkpt>
      <trkpt lat="28.6637000" lon="-17.9423830">
        <ele>511.7</ele>
        <time>2020-11-16T20:36:32Z</time>
      </trkpt>
      <trkpt lat="28.6637000" lon="-17.9423830">
        <ele>511.7</ele>
        <time>2020-11-16T20:36:33Z</time>
      </trkpt>
      <trkpt lat="28.6636470" lon="-17.9422630">
        <ele>510.8</ele>
        <time>2020-11-16T20:36:34Z</time>
      </trkpt>
      <trkpt lat="28.6636470" lon="-17.9422630">
        <ele>510.8</ele>
        <time>2020-11-16T20:36:35Z</time>
      </trkpt>
      <trkpt lat="28.6636470" lon="-17.9422630">
        <ele>510.8</ele>
        <time>2020-11-16T20:36:36Z</time>
      </trkpt>
      <trkpt lat="28.6636580" lon="-17.9420370">
        <ele>509.2</ele>
        <time>2020-11-16T20:36:37Z</time>
      </trkpt>
      <trkpt lat="28.6636880" lon="-17.9419650">
        <ele>508.7</ele>
        <time>2020-11-16T20:36:38Z</time>
      </trkpt>
      <trkpt lat="28.6636880" lon="-17.9419650">
        <ele>508.7</ele>
        <time>2020-11-16T20:36:39Z</time>
      </trkpt>
      <trkpt lat="28.6637870" lon="-17.9418370">
        <ele>507.7</ele>
        <time>2020-11-16T20:36:40Z</time>
      </trkpt>
      <trkpt lat="28.6637870" lon="-17.9418370">
        <ele>507.7</ele>
        <time>2020-11-16T20:36:41Z</time>
      </trkpt>
      <trkpt lat="28.6639020" lon="-17.9417180">
        <ele>506.8</ele>
        <time>2020-11-16T20:36:42Z</time>
      </trkpt>
      <trkpt lat="28.6639020" lon="-17.9417180">
        <ele>506.8</ele>
        <time>2020-11-16T20:36:43Z</time>
      </trkpt>
      <trkpt lat="28.6640020" lon="-17.9416050">
        <ele>505.9</ele>
        <time>2020-11-16T20:36:44Z</time>
      </trkpt>
      <trkpt lat="28.6640020" lon="-17.9416050">
        <ele>505.9</ele>
        <time>2020-11-16T20:36:45Z</time>
      </trkpt>
      <trkpt lat="28.6640730" lon="-17.9414770">
        <ele>504.9</ele>
        <time>2020-11-16T20:36:46Z</time>
      </trkpt>
      <trkpt lat="28.6640730" lon="-17.9414770">
        <ele>504.9</ele>
        <time>2020-11-16T20:36:47Z</time>
      </trkpt>
      <trkpt lat="28.6641130" lon="-17.9413380">
        <ele>504.0</ele>
        <time>2020-11-16T20:36:48Z</time>
      </trkpt>
      <trkpt lat="28.6641130" lon="-17.9413380">
        <ele>504.0</ele>
        <time>2020-11-16T20:36:49Z</time>
      </trkpt>
      <trkpt lat="28.6641950" lon="-17.9412250">
        <ele>503.0</ele>
        <time>2020-11-16T20:36:50Z</time>
      </trkpt>
      <trkpt lat="28.6641950" lon="-17.9412250">
        <ele>503.0</ele>
        <time>2020-11-16T20:36:51Z</time>
      </trkpt>
      <trkpt lat="28.6643000" lon="-17.9411350">
        <ele>501.9</ele>
        <time>2020-11-16T20:36:52Z</time>
      </trkpt>
      <trkpt lat="28.6643000" lon="-17.9411350">
        <ele>501.9</ele>
        <time>2020-11-16T20:36:53Z</time>
      </trkpt>
      <trkpt lat="28.6643000" lon="-17.9411350">
        <ele>501.9</ele>
        <time>2020-11-16T20:36:54Z</time>
      </trkpt>
      <trkpt lat="28.6644380" lon="-17.9410680">
        <ele>500.6</ele>
        <time>2020-11-16T20:36:55Z</time>
      </trkpt>
      <trkpt lat="28.6645920" lon="-17.9410380">
        <ele>499.1</ele>
        <time>2020-11-16T20:36:56Z</time>
      </trkpt>
      <trkpt lat="28.6645920" lon="-17.9410380">
        <ele>499.1</ele>
        <time>2020-11-16T20:36:57Z</time>
      </trkpt>
      <trkpt lat="28.6647380" lon="-17.9410000">
        <ele>497.7</ele>
        <time>2020-11-16T20:36:58Z</time>
      </trkpt>
      <trkpt lat="28.6647380" lon="-17.9410000">
        <ele>497.7</ele>
        <time>2020-11-16T20:36:59Z</time>
      </trkpt>
      <trkpt lat="28.6648720" lon="-17.9409070">
        <ele>496.2</ele>
        <time>2020-11-16T20:37:00Z</time>
      </trkpt>
      <trkpt lat="28.6648720" lon="-17.9409070">
        <ele>496.2</ele>
        <time>2020-11-16T20:37:01Z</time>
      </trkpt>
      <trkpt lat="28.6650130" lon="-17.9407930">
        <ele>494.6</ele>
        <time>2020-11-16T20:37:02Z</time>
      </trkpt>
      <trkpt lat="28.6650130" lon="-17.9407930">
        <ele>494.6</ele>
        <time>2020-11-16T20:37:03Z</time>
      </trkpt>
      <trkpt lat="28.6651770" lon="-17.9407050">
        <ele>493.2</ele>
        <time>2020-11-16T20:37:04Z</time>
      </trkpt>
      <trkpt lat="28.6651770" lon="-17.9407050">
        <ele>493.2</ele>
        <time>2020-11-16T20:37:05Z</time>
      </trkpt>
      <trkpt lat="28.6653620" lon="-17.9406220">
        <ele>491.7</ele>
        <time>2020-11-16T20:37:06Z</time>
      </trkpt>
      <trkpt lat="28.6653620" lon="-17.9406220">
        <ele>491.7</ele>
        <time>2020-11-16T20:37:07Z</time>
      </trkpt>
      <trkpt lat="28.6655530" lon="-17.9405430">
        <ele>490.4</ele>
        <time>2020-11-16T20:37:08Z</time>
      </trkpt>
      <trkpt lat="28.6655530" lon="-17.9405430">
        <ele>490.4</ele>
        <time>2020-11-16T20:37:09Z</time>
      </trkpt>
      <trkpt lat="28.6657220" lon="-17.9404630">
        <ele>489.0</ele>
        <time>2020-11-16T20:37:10Z</time>
      </trkpt>
      <trkpt lat="28.6657950" lon="-17.9404220">
        <ele>488.4</ele>
        <time>2020-11-16T20:37:11Z</time>
      </trkpt>
      <trkpt lat="28.6657950" lon="-17.9404220">
        <ele>488.4</ele>
        <time>2020-11-16T20:37:12Z</time>
      </trkpt>
      <trkpt lat="28.6659330" lon="-17.9403580">
        <ele>487.3</ele>
        <time>2020-11-16T20:37:13Z</time>
      </trkpt>
      <trkpt lat="28.6659330" lon="-17.9403580">
        <ele>487.3</ele>
        <time>2020-11-16T20:37:14Z</time>
      </trkpt>
      <trkpt lat="28.6660820" lon="-17.9403480">
        <ele>486.2</ele>
        <time>2020-11-16T20:37:15Z</time>
      </trkpt>
      <trkpt lat="28.6660820" lon="-17.9403480">
        <ele>486.2</ele>
        <time>2020-11-16T20:37:16Z</time>
      </trkpt>
      <trkpt lat="28.6662520" lon="-17.9404200">
        <ele>485.0</ele>
        <time>2020-11-16T20:37:17Z</time>
      </trkpt>
      <trkpt lat="28.6663420" lon="-17.9404550">
        <ele>484.3</ele>
        <time>2020-11-16T20:37:18Z</time>
      </trkpt>
      <trkpt lat="28.6663420" lon="-17.9404550">
        <ele>484.3</ele>
        <time>2020-11-16T20:37:19Z</time>
      </trkpt>
      <trkpt lat="28.6665230" lon="-17.9404720">
        <ele>482.9</ele>
        <time>2020-11-16T20:37:20Z</time>
      </trkpt>
      <trkpt lat="28.6665230" lon="-17.9404720">
        <ele>482.9</ele>
        <time>2020-11-16T20:37:21Z</time>
      </trkpt>
      <trkpt lat="28.6665230" lon="-17.9404720">
        <ele>482.9</ele>
        <time>2020-11-16T20:37:22Z</time>
      </trkpt>
      <trkpt lat="28.6667080" lon="-17.9403900">
        <ele>481.2</ele>
        <time>2020-11-16T20:37:23Z</time>
      </trkpt>
      <trkpt lat="28.6668700" lon="-17.9402470">
        <ele>479.8</ele>
        <time>2020-11-16T20:37:24Z</time>
      </trkpt>
      <trkpt lat="28.6669470" lon="-17.9401730">
        <ele>479.3</ele>
        <time>2020-11-16T20:37:25Z</time>
      </trkpt>
      <trkpt lat="28.6669470" lon="-17.9401730">
        <ele>479.3</ele>
        <time>2020-11-16T20:37:26Z</time>
      </trkpt>
      <trkpt lat="28.6670900" lon="-17.9400170">
        <ele>477.6</ele>
        <time>2020-11-16T20:37:27Z</time>
      </trkpt>
      <trkpt lat="28.6670900" lon="-17.9400170">
        <ele>477.6</ele>
        <time>2020-11-16T20:37:28Z</time>
      </trkpt>
      <trkpt lat="28.6672470" lon="-17.9398550">
        <ele>475.7</ele>
        <time>2020-11-16T20:37:29Z</time>
      </trkpt>
      <trkpt lat="28.6672470" lon="-17.9398550">
        <ele>475.7</ele>
        <time>2020-11-16T20:37:30Z</time>
      </trkpt>
      <trkpt lat="28.6674300" lon="-17.9397220">
        <ele>473.9</ele>
        <time>2020-11-16T20:37:31Z</time>
      </trkpt>
      <trkpt lat="28.6674300" lon="-17.9397220">
        <ele>473.9</ele>
        <time>2020-11-16T20:37:32Z</time>
      </trkpt>
      <trkpt lat="28.6676270" lon="-17.9396020">
        <ele>471.9</ele>
        <time>2020-11-16T20:37:33Z</time>
      </trkpt>
      <trkpt lat="28.6676270" lon="-17.9396020">
        <ele>471.9</ele>
        <time>2020-11-16T20:37:34Z</time>
      </trkpt>
      <trkpt lat="28.6678280" lon="-17.9394770">
        <ele>470.0</ele>
        <time>2020-11-16T20:37:35Z</time>
      </trkpt>
      <trkpt lat="28.6678280" lon="-17.9394770">
        <ele>470.0</ele>
        <time>2020-11-16T20:37:36Z</time>
      </trkpt>
      <trkpt lat="28.6680330" lon="-17.9393530">
        <ele>468.1</ele>
        <time>2020-11-16T20:37:37Z</time>
      </trkpt>
      <trkpt lat="28.6681380" lon="-17.9392920">
        <ele>467.1</ele>
        <time>2020-11-16T20:37:38Z</time>
      </trkpt>
      <trkpt lat="28.6681380" lon="-17.9392920">
        <ele>467.1</ele>
        <time>2020-11-16T20:37:39Z</time>
      </trkpt>
      <trkpt lat="28.6683520" lon="-17.9391670">
        <ele>465.2</ele>
        <time>2020-11-16T20:37:40Z</time>
      </trkpt>
      <trkpt lat="28.6683520" lon="-17.9391670">
        <ele>465.2</ele>
        <time>2020-11-16T20:37:41Z</time>
      </trkpt>
      <trkpt lat="28.6685630" lon="-17.9390480">
        <ele>463.3</ele>
        <time>2020-11-16T20:37:42Z</time>
      </trkpt>
      <trkpt lat="28.6686630" lon="-17.9389880">
        <ele>462.4</ele>
        <time>2020-11-16T20:37:43Z</time>
      </trkpt>
      <trkpt lat="28.6686630" lon="-17.9389880">
        <ele>462.4</ele>
        <time>2020-11-16T20:37:44Z</time>
      </trkpt>
      <trkpt lat="28.6688520" lon="-17.9388770">
        <ele>460.7</ele>
        <time>2020-11-16T20:37:45Z</time>
      </trkpt>
      <trkpt lat="28.6688520" lon="-17.9388770">
        <ele>460.7</ele>
        <time>2020-11-16T20:37:46Z</time>
      </trkpt>
      <trkpt lat="28.6690280" lon="-17.9387420">
        <ele>459.0</ele>
        <time>2020-11-16T20:37:47Z</time>
      </trkpt>
      <trkpt lat="28.6690280" lon="-17.9387420">
        <ele>459.0</ele>
        <time>2020-11-16T20:37:48Z</time>
      </trkpt>
      <trkpt lat="28.6691830" lon="-17.9385680">
        <ele>457.3</ele>
        <time>2020-11-16T20:37:49Z</time>
      </trkpt>
      <trkpt lat="28.6692630" lon="-17.9384780">
        <ele>456.4</ele>
        <time>2020-11-16T20:37:50Z</time>
      </trkpt>
      <trkpt lat="28.6692630" lon="-17.9384780">
        <ele>456.4</ele>
        <time>2020-11-16T20:37:51Z</time>
      </trkpt>
      <trkpt lat="28.6694280" lon="-17.9383050">
        <ele>454.6</ele>
        <time>2020-11-16T20:37:52Z</time>
      </trkpt>
      <trkpt lat="28.6694280" lon="-17.9383050">
        <ele>454.6</ele>
        <time>2020-11-16T20:37:53Z</time>
      </trkpt>
      <trkpt lat="28.6695930" lon="-17.9381280">
        <ele>452.8</ele>
        <time>2020-11-16T20:37:54Z</time>
      </trkpt>
      <trkpt lat="28.6695930" lon="-17.9381280">
        <ele>452.8</ele>
        <time>2020-11-16T20:37:55Z</time>
      </trkpt>
      <trkpt lat="28.6697600" lon="-17.9379430">
        <ele>450.9</ele>
        <time>2020-11-16T20:37:56Z</time>
      </trkpt>
      <trkpt lat="28.6697600" lon="-17.9379430">
        <ele>450.9</ele>
        <time>2020-11-16T20:37:57Z</time>
      </trkpt>
      <trkpt lat="28.6699320" lon="-17.9377600">
        <ele>449.1</ele>
        <time>2020-11-16T20:37:58Z</time>
      </trkpt>
      <trkpt lat="28.6699320" lon="-17.9377600">
        <ele>449.1</ele>
        <time>2020-11-16T20:37:59Z</time>
      </trkpt>
      <trkpt lat="28.6701020" lon="-17.9375750">
        <ele>447.1</ele>
        <time>2020-11-16T20:38:00Z</time>
      </trkpt>
      <trkpt lat="28.6701020" lon="-17.9375750">
        <ele>447.1</ele>
        <time>2020-11-16T20:38:01Z</time>
      </trkpt>
      <trkpt lat="28.6702770" lon="-17.9373900">
        <ele>445.1</ele>
        <time>2020-11-16T20:38:02Z</time>
      </trkpt>
      <trkpt lat="28.6702770" lon="-17.9373900">
        <ele>445.1</ele>
        <time>2020-11-16T20:38:03Z</time>
      </trkpt>
      <trkpt lat="28.6704480" lon="-17.9372030">
        <ele>443.2</ele>
        <time>2020-11-16T20:38:04Z</time>
      </trkpt>
      <trkpt lat="28.6704480" lon="-17.9372030">
        <ele>443.2</ele>
        <time>2020-11-16T20:38:05Z</time>
      </trkpt>
      <trkpt lat="28.6706120" lon="-17.9370080">
        <ele>441.3</ele>
        <time>2020-11-16T20:38:06Z</time>
      </trkpt>
      <trkpt lat="28.6706120" lon="-17.9370080">
        <ele>441.3</ele>
        <time>2020-11-16T20:38:07Z</time>
      </trkpt>
      <trkpt lat="28.6706120" lon="-17.9370080">
        <ele>441.3</ele>
        <time>2020-11-16T20:38:08Z</time>
      </trkpt>
      <trkpt lat="28.6707550" lon="-17.9367870">
        <ele>439.4</ele>
        <time>2020-11-16T20:38:09Z</time>
      </trkpt>
      <trkpt lat="28.6708770" lon="-17.9365500">
        <ele>437.6</ele>
        <time>2020-11-16T20:38:10Z</time>
      </trkpt>
      <trkpt lat="28.6708770" lon="-17.9365500">
        <ele>437.6</ele>
        <time>2020-11-16T20:38:11Z</time>
      </trkpt>
      <trkpt lat="28.6709900" lon="-17.9363080">
        <ele>435.7</ele>
        <time>2020-11-16T20:38:12Z</time>
      </trkpt>
      <trkpt lat="28.6709900" lon="-17.9363080">
        <ele>435.7</ele>
        <time>2020-11-16T20:38:13Z</time>
      </trkpt>
      <trkpt lat="28.6711100" lon="-17.9360750">
        <ele>433.9</ele>
        <time>2020-11-16T20:38:14Z</time>
      </trkpt>
      <trkpt lat="28.6711100" lon="-17.9360750">
        <ele>433.9</ele>
        <time>2020-11-16T20:38:15Z</time>
      </trkpt>
      <trkpt lat="28.6712250" lon="-17.9358370">
        <ele>432.1</ele>
        <time>2020-11-16T20:38:16Z</time>
      </trkpt>
      <trkpt lat="28.6712250" lon="-17.9358370">
        <ele>432.1</ele>
        <time>2020-11-16T20:38:17Z</time>
      </trkpt>
      <trkpt lat="28.6713380" lon="-17.9355950">
        <ele>430.3</ele>
        <time>2020-11-16T20:38:18Z</time>
      </trkpt>
      <trkpt lat="28.6713380" lon="-17.9355950">
        <ele>430.3</ele>
        <time>2020-11-16T20:38:19Z</time>
      </trkpt>
      <trkpt lat="28.6714520" lon="-17.9353600">
        <ele>428.4</ele>
        <time>2020-11-16T20:38:20Z</time>
      </trkpt>
      <trkpt lat="28.6714520" lon="-17.9353600">
        <ele>428.4</ele>
        <time>2020-11-16T20:38:21Z</time>
      </trkpt>
      <trkpt lat="28.6715750" lon="-17.9351470">
        <ele>426.7</ele>
        <time>2020-11-16T20:38:22Z</time>
      </trkpt>
      <trkpt lat="28.6715750" lon="-17.9351470">
        <ele>426.7</ele>
        <time>2020-11-16T20:38:23Z</time>
      </trkpt>
      <trkpt lat="28.6717280" lon="-17.9349630">
        <ele>425.0</ele>
        <time>2020-11-16T20:38:24Z</time>
      </trkpt>
      <trkpt lat="28.6717280" lon="-17.9349630">
        <ele>425.0</ele>
        <time>2020-11-16T20:38:25Z</time>
      </trkpt>
      <trkpt lat="28.6719000" lon="-17.9347970">
        <ele>423.4</ele>
        <time>2020-11-16T20:38:26Z</time>
      </trkpt>
      <trkpt lat="28.6719000" lon="-17.9347970">
        <ele>423.4</ele>
        <time>2020-11-16T20:38:27Z</time>
      </trkpt>
      <trkpt lat="28.6720680" lon="-17.9346320">
        <ele>422.0</ele>
        <time>2020-11-16T20:38:28Z</time>
      </trkpt>
      <trkpt lat="28.6720680" lon="-17.9346320">
        <ele>422.0</ele>
        <time>2020-11-16T20:38:29Z</time>
      </trkpt>
      <trkpt lat="28.6722350" lon="-17.9344670">
        <ele>420.5</ele>
        <time>2020-11-16T20:38:30Z</time>
      </trkpt>
      <trkpt lat="28.6723070" lon="-17.9343730">
        <ele>419.6</ele>
        <time>2020-11-16T20:38:31Z</time>
      </trkpt>
      <trkpt lat="28.6723070" lon="-17.9343730">
        <ele>419.6</ele>
        <time>2020-11-16T20:38:32Z</time>
      </trkpt>
      <trkpt lat="28.6723070" lon="-17.9343730">
        <ele>419.6</ele>
        <time>2020-11-16T20:38:33Z</time>
      </trkpt>
      <trkpt lat="28.6724130" lon="-17.9341550">
        <ele>418.0</ele>
        <time>2020-11-16T20:38:34Z</time>
      </trkpt>
      <trkpt lat="28.6725030" lon="-17.9339180">
        <ele>416.3</ele>
        <time>2020-11-16T20:38:35Z</time>
      </trkpt>
      <trkpt lat="28.6725480" lon="-17.9337980">
        <ele>415.4</ele>
        <time>2020-11-16T20:38:36Z</time>
      </trkpt>
      <trkpt lat="28.6725480" lon="-17.9337980">
        <ele>415.4</ele>
        <time>2020-11-16T20:38:37Z</time>
      </trkpt>
      <trkpt lat="28.6726430" lon="-17.9335630">
        <ele>413.7</ele>
        <time>2020-11-16T20:38:38Z</time>
      </trkpt>
      <trkpt lat="28.6726430" lon="-17.9335630">
        <ele>413.7</ele>
        <time>2020-11-16T20:38:39Z</time>
      </trkpt>
      <trkpt lat="28.6727550" lon="-17.9333370">
        <ele>412.1</ele>
        <time>2020-11-16T20:38:40Z</time>
      </trkpt>
      <trkpt lat="28.6727550" lon="-17.9333370">
        <ele>412.1</ele>
        <time>2020-11-16T20:38:41Z</time>
      </trkpt>
      <trkpt lat="28.6728900" lon="-17.9331230">
        <ele>410.5</ele>
        <time>2020-11-16T20:38:42Z</time>
      </trkpt>
      <trkpt lat="28.6728900" lon="-17.9331230">
        <ele>410.5</ele>
        <time>2020-11-16T20:38:43Z</time>
      </trkpt>
      <trkpt lat="28.6730350" lon="-17.9329120">
        <ele>408.8</ele>
        <time>2020-11-16T20:38:44Z</time>
      </trkpt>
      <trkpt lat="28.6730350" lon="-17.9329120">
        <ele>408.8</ele>
        <time>2020-11-16T20:38:45Z</time>
      </trkpt>
      <trkpt lat="28.6731670" lon="-17.9327070">
        <ele>407.2</ele>
        <time>2020-11-16T20:38:46Z</time>
      </trkpt>
      <trkpt lat="28.6731670" lon="-17.9327070">
        <ele>407.2</ele>
        <time>2020-11-16T20:38:47Z</time>
      </trkpt>
      <trkpt lat="28.6732880" lon="-17.9325230">
        <ele>405.8</ele>
        <time>2020-11-16T20:38:48Z</time>
      </trkpt>
      <trkpt lat="28.6732880" lon="-17.9325230">
        <ele>405.8</ele>
        <time>2020-11-16T20:38:49Z</time>
      </trkpt>
      <trkpt lat="28.6734030" lon="-17.9323530">
        <ele>404.7</ele>
        <time>2020-11-16T20:38:50Z</time>
      </trkpt>
      <trkpt lat="28.6734030" lon="-17.9323530">
        <ele>404.7</ele>
        <time>2020-11-16T20:38:51Z</time>
      </trkpt>
      <trkpt lat="28.6735050" lon="-17.9321950">
        <ele>403.5</ele>
        <time>2020-11-16T20:38:52Z</time>
      </trkpt>
      <trkpt lat="28.6735050" lon="-17.9321950">
        <ele>403.5</ele>
        <time>2020-11-16T20:38:53Z</time>
      </trkpt>
      <trkpt lat="28.6735780" lon="-17.9320350">
        <ele>402.3</ele>
        <time>2020-11-16T20:38:54Z</time>
      </trkpt>
      <trkpt lat="28.6735880" lon="-17.9319450">
        <ele>401.7</ele>
        <time>2020-11-16T20:38:55Z</time>
      </trkpt>
      <trkpt lat="28.6735880" lon="-17.9319450">
        <ele>401.7</ele>
        <time>2020-11-16T20:38:56Z</time>
      </trkpt>
      <trkpt lat="28.6735950" lon="-17.9317580">
        <ele>400.4</ele>
        <time>2020-11-16T20:38:57Z</time>
      </trkpt>
      <trkpt lat="28.6735950" lon="-17.9317580">
        <ele>400.4</ele>
        <time>2020-11-16T20:38:58Z</time>
      </trkpt>
      <trkpt lat="28.6735780" lon="-17.9315450">
        <ele>399.0</ele>
        <time>2020-11-16T20:38:59Z</time>
      </trkpt>
      <trkpt lat="28.6735650" lon="-17.9314400">
        <ele>398.4</ele>
        <time>2020-11-16T20:39:00Z</time>
      </trkpt>
      <trkpt lat="28.6735650" lon="-17.9314400">
        <ele>398.4</ele>
        <time>2020-11-16T20:39:01Z</time>
      </trkpt>
      <trkpt lat="28.6735470" lon="-17.9312420">
        <ele>397.4</ele>
        <time>2020-11-16T20:39:02Z</time>
      </trkpt>
      <trkpt lat="28.6735470" lon="-17.9312420">
        <ele>397.4</ele>
        <time>2020-11-16T20:39:03Z</time>
      </trkpt>
      <trkpt lat="28.6735070" lon="-17.9310650">
        <ele>396.6</ele>
        <time>2020-11-16T20:39:04Z</time>
      </trkpt>
      <trkpt lat="28.6734600" lon="-17.9309780">
        <ele>396.1</ele>
        <time>2020-11-16T20:39:05Z</time>
      </trkpt>
      <trkpt lat="28.6734600" lon="-17.9309780">
        <ele>396.1</ele>
        <time>2020-11-16T20:39:06Z</time>
      </trkpt>
      <trkpt lat="28.6733080" lon="-17.9308630">
        <ele>395.0</ele>
        <time>2020-11-16T20:39:07Z</time>
      </trkpt>
      <trkpt lat="28.6732220" lon="-17.9308320">
        <ele>394.4</ele>
        <time>2020-11-16T20:39:08Z</time>
      </trkpt>
      <trkpt lat="28.6732220" lon="-17.9308320">
        <ele>394.4</ele>
        <time>2020-11-16T20:39:09Z</time>
      </trkpt>
      <trkpt lat="28.6730670" lon="-17.9308050">
        <ele>393.2</ele>
        <time>2020-11-16T20:39:10Z</time>
      </trkpt>
      <trkpt lat="28.6730670" lon="-17.9308050">
        <ele>393.2</ele>
        <time>2020-11-16T20:39:11Z</time>
      </trkpt>
      <trkpt lat="28.6729280" lon="-17.9308350">
        <ele>392.0</ele>
        <time>2020-11-16T20:39:12Z</time>
      </trkpt>
      <trkpt lat="28.6729280" lon="-17.9308350">
        <ele>392.0</ele>
        <time>2020-11-16T20:39:13Z</time>
      </trkpt>
      <trkpt lat="28.6728050" lon="-17.9309330">
        <ele>390.7</ele>
        <time>2020-11-16T20:39:14Z</time>
      </trkpt>
      <trkpt lat="28.6728050" lon="-17.9309330">
        <ele>390.7</ele>
        <time>2020-11-16T20:39:15Z</time>
      </trkpt>
      <trkpt lat="28.6726950" lon="-17.9310570">
        <ele>389.4</ele>
        <time>2020-11-16T20:39:16Z</time>
      </trkpt>
      <trkpt lat="28.6726950" lon="-17.9310570">
        <ele>389.4</ele>
        <time>2020-11-16T20:39:17Z</time>
      </trkpt>
      <trkpt lat="28.6725830" lon="-17.9311880">
        <ele>388.1</ele>
        <time>2020-11-16T20:39:18Z</time>
      </trkpt>
      <trkpt lat="28.6725830" lon="-17.9311880">
        <ele>388.1</ele>
        <time>2020-11-16T20:39:19Z</time>
      </trkpt>
      <trkpt lat="28.6724720" lon="-17.9313300">
        <ele>386.7</ele>
        <time>2020-11-16T20:39:20Z</time>
      </trkpt>
      <trkpt lat="28.6724720" lon="-17.9313300">
        <ele>386.7</ele>
        <time>2020-11-16T20:39:21Z</time>
      </trkpt>
      <trkpt lat="28.6724720" lon="-17.9313300">
        <ele>386.7</ele>
        <time>2020-11-16T20:39:22Z</time>
      </trkpt>
      <trkpt lat="28.6724070" lon="-17.9315100">
        <ele>385.2</ele>
        <time>2020-11-16T20:39:23Z</time>
      </trkpt>
      <trkpt lat="28.6723770" lon="-17.9316900">
        <ele>384.0</ele>
        <time>2020-11-16T20:39:24Z</time>
      </trkpt>
      <trkpt lat="28.6723630" lon="-17.9317750">
        <ele>383.5</ele>
        <time>2020-11-16T20:39:25Z</time>
      </trkpt>
      <trkpt lat="28.6723520" lon="-17.9318550">
        <ele>383.0</ele>
        <time>2020-11-16T20:39:26Z</time>
      </trkpt>
      <trkpt lat="28.6723520" lon="-17.9318550">
        <ele>383.0</ele>
        <time>2020-11-16T20:39:27Z</time>
      </trkpt>
      <trkpt lat="28.6723180" lon="-17.9320200">
        <ele>382.0</ele>
        <time>2020-11-16T20:39:28Z</time>
      </trkpt>
      <trkpt lat="28.6723180" lon="-17.9320200">
        <ele>382.0</ele>
        <time>2020-11-16T20:39:29Z</time>
      </trkpt>
      <trkpt lat="28.6722900" lon="-17.9321880">
        <ele>381.0</ele>
        <time>2020-11-16T20:39:30Z</time>
      </trkpt>
      <trkpt lat="28.6722900" lon="-17.9321880">
        <ele>381.0</ele>
        <time>2020-11-16T20:39:31Z</time>
      </trkpt>
      <trkpt lat="28.6722330" lon="-17.9323570">
        <ele>380.0</ele>
        <time>2020-11-16T20:39:32Z</time>
      </trkpt>
      <trkpt lat="28.6722330" lon="-17.9323570">
        <ele>380.0</ele>
        <time>2020-11-16T20:39:33Z</time>
      </trkpt>
      <trkpt lat="28.6721280" lon="-17.9325080">
        <ele>379.0</ele>
        <time>2020-11-16T20:39:34Z</time>
      </trkpt>
      <trkpt lat="28.6721280" lon="-17.9325080">
        <ele>379.0</ele>
        <time>2020-11-16T20:39:35Z</time>
      </trkpt>
      <trkpt lat="28.6720070" lon="-17.9326550">
        <ele>377.9</ele>
        <time>2020-11-16T20:39:36Z</time>
      </trkpt>
      <trkpt lat="28.6720070" lon="-17.9326550">
        <ele>377.9</ele>
        <time>2020-11-16T20:39:37Z</time>
      </trkpt>
      <trkpt lat="28.6718780" lon="-17.9328070">
        <ele>376.6</ele>
        <time>2020-11-16T20:39:38Z</time>
      </trkpt>
      <trkpt lat="28.6718780" lon="-17.9328070">
        <ele>376.6</ele>
        <time>2020-11-16T20:39:39Z</time>
      </trkpt>
      <trkpt lat="28.6717470" lon="-17.9329700">
        <ele>375.2</ele>
        <time>2020-11-16T20:39:40Z</time>
      </trkpt>
      <trkpt lat="28.6717470" lon="-17.9329700">
        <ele>375.2</ele>
        <time>2020-11-16T20:39:41Z</time>
      </trkpt>
      <trkpt lat="28.6716130" lon="-17.9331380">
        <ele>373.7</ele>
        <time>2020-11-16T20:39:42Z</time>
      </trkpt>
      <trkpt lat="28.6716130" lon="-17.9331380">
        <ele>373.7</ele>
        <time>2020-11-16T20:39:43Z</time>
      </trkpt>
      <trkpt lat="28.6714730" lon="-17.9333050">
        <ele>372.2</ele>
        <time>2020-11-16T20:39:44Z</time>
      </trkpt>
      <trkpt lat="28.6714730" lon="-17.9333050">
        <ele>372.2</ele>
        <time>2020-11-16T20:39:45Z</time>
      </trkpt>
      <trkpt lat="28.6713350" lon="-17.9334730">
        <ele>370.7</ele>
        <time>2020-11-16T20:39:46Z</time>
      </trkpt>
      <trkpt lat="28.6713350" lon="-17.9334730">
        <ele>370.7</ele>
        <time>2020-11-16T20:39:47Z</time>
      </trkpt>
      <trkpt lat="28.6711820" lon="-17.9336230">
        <ele>369.2</ele>
        <time>2020-11-16T20:39:48Z</time>
      </trkpt>
      <trkpt lat="28.6711820" lon="-17.9336230">
        <ele>369.2</ele>
        <time>2020-11-16T20:39:49Z</time>
      </trkpt>
      <trkpt lat="28.6710130" lon="-17.9337550">
        <ele>367.8</ele>
        <time>2020-11-16T20:39:50Z</time>
      </trkpt>
      <trkpt lat="28.6710130" lon="-17.9337550">
        <ele>367.8</ele>
        <time>2020-11-16T20:39:51Z</time>
      </trkpt>
      <trkpt lat="28.6708400" lon="-17.9338950">
        <ele>366.3</ele>
        <time>2020-11-16T20:39:52Z</time>
      </trkpt>
      <trkpt lat="28.6708400" lon="-17.9338950">
        <ele>366.3</ele>
        <time>2020-11-16T20:39:53Z</time>
      </trkpt>
      <trkpt lat="28.6708400" lon="-17.9338950">
        <ele>366.3</ele>
        <time>2020-11-16T20:39:54Z</time>
      </trkpt>
      <trkpt lat="28.6706620" lon="-17.9340430">
        <ele>364.6</ele>
        <time>2020-11-16T20:39:55Z</time>
      </trkpt>
      <trkpt lat="28.6704780" lon="-17.9341970">
        <ele>362.8</ele>
        <time>2020-11-16T20:39:56Z</time>
      </trkpt>
      <trkpt lat="28.6704780" lon="-17.9341970">
        <ele>362.8</ele>
        <time>2020-11-16T20:39:57Z</time>
      </trkpt>
      <trkpt lat="28.6702850" lon="-17.9343500">
        <ele>361.0</ele>
        <time>2020-11-16T20:39:58Z</time>
      </trkpt>
      <trkpt lat="28.6702850" lon="-17.9343500">
        <ele>361.0</ele>
        <time>2020-11-16T20:39:59Z</time>
      </trkpt>
      <trkpt lat="28.6700880" lon="-17.9345080">
        <ele>359.1</ele>
        <time>2020-11-16T20:40:00Z</time>
      </trkpt>
      <trkpt lat="28.6700880" lon="-17.9345080">
        <ele>359.1</ele>
        <time>2020-11-16T20:40:01Z</time>
      </trkpt>
      <trkpt lat="28.6698870" lon="-17.9346730">
        <ele>357.3</ele>
        <time>2020-11-16T20:40:02Z</time>
      </trkpt>
      <trkpt lat="28.6698870" lon="-17.9346730">
        <ele>357.3</ele>
        <time>2020-11-16T20:40:03Z</time>
      </trkpt>
      <trkpt lat="28.6696780" lon="-17.9348370">
        <ele>355.4</ele>
        <time>2020-11-16T20:40:04Z</time>
      </trkpt>
      <trkpt lat="28.6696780" lon="-17.9348370">
        <ele>355.4</ele>
        <time>2020-11-16T20:40:05Z</time>
      </trkpt>
      <trkpt lat="28.6694680" lon="-17.9350030">
        <ele>353.4</ele>
        <time>2020-11-16T20:40:06Z</time>
      </trkpt>
      <trkpt lat="28.6694680" lon="-17.9350030">
        <ele>353.4</ele>
        <time>2020-11-16T20:40:07Z</time>
      </trkpt>
      <trkpt lat="28.6692600" lon="-17.9351730">
        <ele>351.5</ele>
        <time>2020-11-16T20:40:08Z</time>
      </trkpt>
      <trkpt lat="28.6692600" lon="-17.9351730">
        <ele>351.5</ele>
        <time>2020-11-16T20:40:09Z</time>
      </trkpt>
      <trkpt lat="28.6690600" lon="-17.9353380">
        <ele>349.9</ele>
        <time>2020-11-16T20:40:10Z</time>
      </trkpt>
      <trkpt lat="28.6690600" lon="-17.9353380">
        <ele>349.9</ele>
        <time>2020-11-16T20:40:11Z</time>
      </trkpt>
      <trkpt lat="28.6688770" lon="-17.9354930">
        <ele>348.5</ele>
        <time>2020-11-16T20:40:12Z</time>
      </trkpt>
      <trkpt lat="28.6688770" lon="-17.9354930">
        <ele>348.5</ele>
        <time>2020-11-16T20:40:13Z</time>
      </trkpt>
      <trkpt lat="28.6687020" lon="-17.9356520">
        <ele>347.0</ele>
        <time>2020-11-16T20:40:14Z</time>
      </trkpt>
      <trkpt lat="28.6687020" lon="-17.9356520">
        <ele>347.0</ele>
        <time>2020-11-16T20:40:15Z</time>
      </trkpt>
      <trkpt lat="28.6685500" lon="-17.9358420">
        <ele>345.6</ele>
        <time>2020-11-16T20:40:16Z</time>
      </trkpt>
      <trkpt lat="28.6685500" lon="-17.9358420">
        <ele>345.6</ele>
        <time>2020-11-16T20:40:17Z</time>
      </trkpt>
      <trkpt lat="28.6684150" lon="-17.9360230">
        <ele>344.3</ele>
        <time>2020-11-16T20:40:18Z</time>
      </trkpt>
      <trkpt lat="28.6684150" lon="-17.9360230">
        <ele>344.3</ele>
        <time>2020-11-16T20:40:19Z</time>
      </trkpt>
      <trkpt lat="28.6682900" lon="-17.9362070">
        <ele>343.0</ele>
        <time>2020-11-16T20:40:20Z</time>
      </trkpt>
      <trkpt lat="28.6682900" lon="-17.9362070">
        <ele>343.0</ele>
        <time>2020-11-16T20:40:21Z</time>
      </trkpt>
      <trkpt lat="28.6681650" lon="-17.9363820">
        <ele>341.8</ele>
        <time>2020-11-16T20:40:22Z</time>
      </trkpt>
      <trkpt lat="28.6681070" lon="-17.9364580">
        <ele>341.3</ele>
        <time>2020-11-16T20:40:23Z</time>
      </trkpt>
      <trkpt lat="28.6681070" lon="-17.9364580">
        <ele>341.3</ele>
        <time>2020-11-16T20:40:24Z</time>
      </trkpt>
      <trkpt lat="28.6680030" lon="-17.9366030">
        <ele>340.0</ele>
        <time>2020-11-16T20:40:25Z</time>
      </trkpt>
      <trkpt lat="28.6680030" lon="-17.9366030">
        <ele>340.0</ele>
        <time>2020-11-16T20:40:26Z</time>
      </trkpt>
      <trkpt lat="28.6679080" lon="-17.9367280">
        <ele>338.8</ele>
        <time>2020-11-16T20:40:27Z</time>
      </trkpt>
      <trkpt lat="28.6679080" lon="-17.9367280">
        <ele>338.8</ele>
        <time>2020-11-16T20:40:28Z</time>
      </trkpt>
      <trkpt lat="28.6677930" lon="-17.9368030">
        <ele>337.6</ele>
        <time>2020-11-16T20:40:29Z</time>
      </trkpt>
      <trkpt lat="28.6677930" lon="-17.9368030">
        <ele>337.6</ele>
        <time>2020-11-16T20:40:30Z</time>
      </trkpt>
      <trkpt lat="28.6676580" lon="-17.9368020">
        <ele>336.5</ele>
        <time>2020-11-16T20:40:31Z</time>
      </trkpt>
      <trkpt lat="28.6676050" lon="-17.9367630">
        <ele>336.0</ele>
        <time>2020-11-16T20:40:32Z</time>
      </trkpt>
      <trkpt lat="28.6676050" lon="-17.9367630">
        <ele>336.0</ele>
        <time>2020-11-16T20:40:33Z</time>
      </trkpt>
      <trkpt lat="28.6675330" lon="-17.9366430">
        <ele>335.1</ele>
        <time>2020-11-16T20:40:34Z</time>
      </trkpt>
      <trkpt lat="28.6675330" lon="-17.9366430">
        <ele>335.1</ele>
        <time>2020-11-16T20:40:35Z</time>
      </trkpt>
      <trkpt lat="28.6675450" lon="-17.9364820">
        <ele>334.0</ele>
        <time>2020-11-16T20:40:36Z</time>
      </trkpt>
      <trkpt lat="28.6675450" lon="-17.9364820">
        <ele>334.0</ele>
        <time>2020-11-16T20:40:37Z</time>
      </trkpt>
      <trkpt lat="28.6675880" lon="-17.9363250">
        <ele>333.0</ele>
        <time>2020-11-16T20:40:38Z</time>
      </trkpt>
      <trkpt lat="28.6676070" lon="-17.9362380">
        <ele>332.4</ele>
        <time>2020-11-16T20:40:39Z</time>
      </trkpt>
      <trkpt lat="28.6676070" lon="-17.9362380">
        <ele>332.4</ele>
        <time>2020-11-16T20:40:40Z</time>
      </trkpt>
      <trkpt lat="28.6676550" lon="-17.9360480">
        <ele>331.2</ele>
        <time>2020-11-16T20:40:41Z</time>
      </trkpt>
      <trkpt lat="28.6676550" lon="-17.9360480">
        <ele>331.2</ele>
        <time>2020-11-16T20:40:42Z</time>
      </trkpt>
      <trkpt lat="28.6677170" lon="-17.9358550">
        <ele>330.0</ele>
        <time>2020-11-16T20:40:43Z</time>
      </trkpt>
      <trkpt lat="28.6677430" lon="-17.9357580">
        <ele>329.5</ele>
        <time>2020-11-16T20:40:44Z</time>
      </trkpt>
      <trkpt lat="28.6677430" lon="-17.9357580">
        <ele>329.5</ele>
        <time>2020-11-16T20:40:45Z</time>
      </trkpt>
      <trkpt lat="28.6677870" lon="-17.9355520">
        <ele>328.3</ele>
        <time>2020-11-16T20:40:46Z</time>
      </trkpt>
      <trkpt lat="28.6677870" lon="-17.9355520">
        <ele>328.3</ele>
        <time>2020-11-16T20:40:47Z</time>
      </trkpt>
      <trkpt lat="28.6678420" lon="-17.9353500">
        <ele>327.2</ele>
        <time>2020-11-16T20:40:48Z</time>
      </trkpt>
      <trkpt lat="28.6678420" lon="-17.9353500">
        <ele>327.2</ele>
        <time>2020-11-16T20:40:49Z</time>
      </trkpt>
      <trkpt lat="28.6678770" lon="-17.9351570">
        <ele>326.1</ele>
        <time>2020-11-16T20:40:50Z</time>
      </trkpt>
      <trkpt lat="28.6678770" lon="-17.9351570">
        <ele>326.1</ele>
        <time>2020-11-16T20:40:51Z</time>
      </trkpt>
      <trkpt lat="28.6678720" lon="-17.9349870">
        <ele>325.1</ele>
        <time>2020-11-16T20:40:52Z</time>
      </trkpt>
      <trkpt lat="28.6678500" lon="-17.9349120">
        <ele>324.7</ele>
        <time>2020-11-16T20:40:53Z</time>
      </trkpt>
      <trkpt lat="28.6678500" lon="-17.9349120">
        <ele>324.7</ele>
        <time>2020-11-16T20:40:54Z</time>
      </trkpt>
      <trkpt lat="28.6677720" lon="-17.9347780">
        <ele>323.9</ele>
        <time>2020-11-16T20:40:55Z</time>
      </trkpt>
      <trkpt lat="28.6677120" lon="-17.9347280">
        <ele>323.5</ele>
        <time>2020-11-16T20:40:56Z</time>
      </trkpt>
      <trkpt lat="28.6677120" lon="-17.9347280">
        <ele>323.5</ele>
        <time>2020-11-16T20:40:57Z</time>
      </trkpt>
      <trkpt lat="28.6675720" lon="-17.9346800">
        <ele>322.6</ele>
        <time>2020-11-16T20:40:58Z</time>
      </trkpt>
      <trkpt lat="28.6675720" lon="-17.9346800">
        <ele>322.6</ele>
        <time>2020-11-16T20:40:59Z</time>
      </trkpt>
      <trkpt lat="28.6674320" lon="-17.9347180">
        <ele>321.6</ele>
        <time>2020-11-16T20:41:00Z</time>
      </trkpt>
      <trkpt lat="28.6673650" lon="-17.9347700">
        <ele>321.0</ele>
        <time>2020-11-16T20:41:01Z</time>
      </trkpt>
      <trkpt lat="28.6672970" lon="-17.9348250">
        <ele>320.4</ele>
        <time>2020-11-16T20:41:02Z</time>
      </trkpt>
      <trkpt lat="28.6672970" lon="-17.9348250">
        <ele>320.4</ele>
        <time>2020-11-16T20:41:03Z</time>
      </trkpt>
      <trkpt lat="28.6671520" lon="-17.9349330">
        <ele>319.2</ele>
        <time>2020-11-16T20:41:04Z</time>
      </trkpt>
      <trkpt lat="28.6670730" lon="-17.9349880">
        <ele>318.6</ele>
        <time>2020-11-16T20:41:05Z</time>
      </trkpt>
      <trkpt lat="28.6670730" lon="-17.9349880">
        <ele>318.6</ele>
        <time>2020-11-16T20:41:06Z</time>
      </trkpt>
      <trkpt lat="28.6669200" lon="-17.9351050">
        <ele>317.3</ele>
        <time>2020-11-16T20:41:07Z</time>
      </trkpt>
      <trkpt lat="28.6669200" lon="-17.9351050">
        <ele>317.3</ele>
        <time>2020-11-16T20:41:08Z</time>
      </trkpt>
      <trkpt lat="28.6667720" lon="-17.9352180">
        <ele>316.0</ele>
        <time>2020-11-16T20:41:09Z</time>
      </trkpt>
      <trkpt lat="28.6667720" lon="-17.9352180">
        <ele>316.0</ele>
        <time>2020-11-16T20:41:10Z</time>
      </trkpt>
      <trkpt lat="28.6666050" lon="-17.9353020">
        <ele>314.6</ele>
        <time>2020-11-16T20:41:11Z</time>
      </trkpt>
      <trkpt lat="28.6666050" lon="-17.9353020">
        <ele>314.6</ele>
        <time>2020-11-16T20:41:12Z</time>
      </trkpt>
      <trkpt lat="28.6664070" lon="-17.9353300">
        <ele>313.0</ele>
        <time>2020-11-16T20:41:13Z</time>
      </trkpt>
      <trkpt lat="28.6664070" lon="-17.9353300">
        <ele>313.0</ele>
        <time>2020-11-16T20:41:14Z</time>
      </trkpt>
      <trkpt lat="28.6662020" lon="-17.9353380">
        <ele>311.5</ele>
        <time>2020-11-16T20:41:15Z</time>
      </trkpt>
      <trkpt lat="28.6662020" lon="-17.9353380">
        <ele>311.5</ele>
        <time>2020-11-16T20:41:16Z</time>
      </trkpt>
      <trkpt lat="28.6659880" lon="-17.9353470">
        <ele>309.9</ele>
        <time>2020-11-16T20:41:17Z</time>
      </trkpt>
      <trkpt lat="28.6658800" lon="-17.9353500">
        <ele>309.1</ele>
        <time>2020-11-16T20:41:18Z</time>
      </trkpt>
      <trkpt lat="28.6658800" lon="-17.9353500">
        <ele>309.1</ele>
        <time>2020-11-16T20:41:19Z</time>
      </trkpt>
      <trkpt lat="28.6656620" lon="-17.9353600">
        <ele>307.6</ele>
        <time>2020-11-16T20:41:20Z</time>
      </trkpt>
      <trkpt lat="28.6655570" lon="-17.9353670">
        <ele>307.0</ele>
        <time>2020-11-16T20:41:21Z</time>
      </trkpt>
      <trkpt lat="28.6655570" lon="-17.9353670">
        <ele>307.0</ele>
        <time>2020-11-16T20:41:22Z</time>
      </trkpt>
      <trkpt lat="28.6653670" lon="-17.9353780">
        <ele>305.7</ele>
        <time>2020-11-16T20:41:23Z</time>
      </trkpt>
      <trkpt lat="28.6653670" lon="-17.9353780">
        <ele>305.7</ele>
        <time>2020-11-16T20:41:24Z</time>
      </trkpt>
      <trkpt lat="28.6651980" lon="-17.9354250">
        <ele>304.6</ele>
        <time>2020-11-16T20:41:25Z</time>
      </trkpt>
      <trkpt lat="28.6651250" lon="-17.9354750">
        <ele>304.0</ele>
        <time>2020-11-16T20:41:26Z</time>
      </trkpt>
      <trkpt lat="28.6651250" lon="-17.9354750">
        <ele>304.0</ele>
        <time>2020-11-16T20:41:27Z</time>
      </trkpt>
      <trkpt lat="28.6649900" lon="-17.9355950">
        <ele>302.8</ele>
        <time>2020-11-16T20:41:28Z</time>
      </trkpt>
      <trkpt lat="28.6649900" lon="-17.9355950">
        <ele>302.8</ele>
        <time>2020-11-16T20:41:29Z</time>
      </trkpt>
      <trkpt lat="28.6648720" lon="-17.9356970">
        <ele>301.7</ele>
        <time>2020-11-16T20:41:30Z</time>
      </trkpt>
      <trkpt lat="28.6648230" lon="-17.9357520">
        <ele>301.2</ele>
        <time>2020-11-16T20:41:31Z</time>
      </trkpt>
      <trkpt lat="28.6647820" lon="-17.9358220">
        <ele>300.6</ele>
        <time>2020-11-16T20:41:32Z</time>
      </trkpt>
      <trkpt lat="28.6647820" lon="-17.9358220">
        <ele>300.6</ele>
        <time>2020-11-16T20:41:33Z</time>
      </trkpt>
      <trkpt lat="28.6647820" lon="-17.9358220">
        <ele>300.6</ele>
        <time>2020-11-16T20:41:34Z</time>
      </trkpt>
      <trkpt lat="28.6647620" lon="-17.9360020">
        <ele>299.3</ele>
        <time>2020-11-16T20:41:35Z</time>
      </trkpt>
      <trkpt lat="28.6647880" lon="-17.9361820">
        <ele>298.0</ele>
        <time>2020-11-16T20:41:36Z</time>
      </trkpt>
      <trkpt lat="28.6647880" lon="-17.9361820">
        <ele>298.0</ele>
        <time>2020-11-16T20:41:37Z</time>
      </trkpt>
      <trkpt lat="28.6648220" lon="-17.9363720">
        <ele>296.6</ele>
        <time>2020-11-16T20:41:38Z</time>
      </trkpt>
      <trkpt lat="28.6648220" lon="-17.9363720">
        <ele>296.6</ele>
        <time>2020-11-16T20:41:39Z</time>
      </trkpt>
      <trkpt lat="28.6648520" lon="-17.9365550">
        <ele>295.4</ele>
        <time>2020-11-16T20:41:40Z</time>
      </trkpt>
      <trkpt lat="28.6648520" lon="-17.9365550">
        <ele>295.4</ele>
        <time>2020-11-16T20:41:41Z</time>
      </trkpt>
      <trkpt lat="28.6648600" lon="-17.9367400">
        <ele>294.0</ele>
        <time>2020-11-16T20:41:42Z</time>
      </trkpt>
      <trkpt lat="28.6648380" lon="-17.9368170">
        <ele>293.5</ele>
        <time>2020-11-16T20:41:43Z</time>
      </trkpt>
      <trkpt lat="28.6647950" lon="-17.9368850">
        <ele>292.9</ele>
        <time>2020-11-16T20:41:44Z</time>
      </trkpt>
      <trkpt lat="28.6647950" lon="-17.9368850">
        <ele>292.9</ele>
        <time>2020-11-16T20:41:45Z</time>
      </trkpt>
      <trkpt lat="28.6646680" lon="-17.9369980">
        <ele>291.6</ele>
        <time>2020-11-16T20:41:46Z</time>
      </trkpt>
      <trkpt lat="28.6645980" lon="-17.9370570">
        <ele>290.9</ele>
        <time>2020-11-16T20:41:47Z</time>
      </trkpt>
      <trkpt lat="28.6645980" lon="-17.9370570">
        <ele>290.9</ele>
        <time>2020-11-16T20:41:48Z</time>
      </trkpt>
      <trkpt lat="28.6644480" lon="-17.9371680">
        <ele>289.4</ele>
        <time>2020-11-16T20:41:49Z</time>
      </trkpt>
      <trkpt lat="28.6643670" lon="-17.9372220">
        <ele>288.7</ele>
        <time>2020-11-16T20:41:50Z</time>
      </trkpt>
      <trkpt lat="28.6643670" lon="-17.9372220">
        <ele>288.7</ele>
        <time>2020-11-16T20:41:51Z</time>
      </trkpt>
      <trkpt lat="28.6641930" lon="-17.9373130">
        <ele>287.2</ele>
        <time>2020-11-16T20:41:52Z</time>
      </trkpt>
      <trkpt lat="28.6641930" lon="-17.9373130">
        <ele>287.2</ele>
        <time>2020-11-16T20:41:53Z</time>
      </trkpt>
      <trkpt lat="28.6640150" lon="-17.9373770">
        <ele>285.8</ele>
        <time>2020-11-16T20:41:54Z</time>
      </trkpt>
      <trkpt lat="28.6640150" lon="-17.9373770">
        <ele>285.8</ele>
        <time>2020-11-16T20:41:55Z</time>
      </trkpt>
      <trkpt lat="28.6638380" lon="-17.9373970">
        <ele>284.5</ele>
        <time>2020-11-16T20:41:56Z</time>
      </trkpt>
      <trkpt lat="28.6638380" lon="-17.9373970">
        <ele>284.5</ele>
        <time>2020-11-16T20:41:57Z</time>
      </trkpt>
      <trkpt lat="28.6636630" lon="-17.9373550">
        <ele>283.2</ele>
        <time>2020-11-16T20:41:58Z</time>
      </trkpt>
      <trkpt lat="28.6636630" lon="-17.9373550">
        <ele>283.2</ele>
        <time>2020-11-16T20:41:59Z</time>
      </trkpt>
      <trkpt lat="28.6634820" lon="-17.9372970">
        <ele>281.8</ele>
        <time>2020-11-16T20:42:00Z</time>
      </trkpt>
      <trkpt lat="28.6634820" lon="-17.9372970">
        <ele>281.8</ele>
        <time>2020-11-16T20:42:01Z</time>
      </trkpt>
      <trkpt lat="28.6633130" lon="-17.9372530">
        <ele>280.5</ele>
        <time>2020-11-16T20:42:02Z</time>
      </trkpt>
      <trkpt lat="28.6633130" lon="-17.9372530">
        <ele>280.5</ele>
        <time>2020-11-16T20:42:03Z</time>
      </trkpt>
      <trkpt lat="28.6631550" lon="-17.9372780">
        <ele>279.1</ele>
        <time>2020-11-16T20:42:04Z</time>
      </trkpt>
      <trkpt lat="28.6630930" lon="-17.9373320">
        <ele>278.4</ele>
        <time>2020-11-16T20:42:05Z</time>
      </trkpt>
      <trkpt lat="28.6630930" lon="-17.9373320">
        <ele>278.4</ele>
        <time>2020-11-16T20:42:06Z</time>
      </trkpt>
      <trkpt lat="28.6630220" lon="-17.9375320">
        <ele>276.6</ele>
        <time>2020-11-16T20:42:07Z</time>
      </trkpt>
      <trkpt lat="28.6629880" lon="-17.9376320">
        <ele>275.7</ele>
        <time>2020-11-16T20:42:08Z</time>
      </trkpt>
      <trkpt lat="28.6629880" lon="-17.9376320">
        <ele>275.7</ele>
        <time>2020-11-16T20:42:09Z</time>
      </trkpt>
      <trkpt lat="28.6629200" lon="-17.9378350">
        <ele>273.8</ele>
        <time>2020-11-16T20:42:10Z</time>
      </trkpt>
      <trkpt lat="28.6629200" lon="-17.9378350">
        <ele>273.8</ele>
        <time>2020-11-16T20:42:11Z</time>
      </trkpt>
      <trkpt lat="28.6628550" lon="-17.9380550">
        <ele>271.9</ele>
        <time>2020-11-16T20:42:12Z</time>
      </trkpt>
      <trkpt lat="28.6628220" lon="-17.9381680">
        <ele>271.0</ele>
        <time>2020-11-16T20:42:13Z</time>
      </trkpt>
      <trkpt lat="28.6628220" lon="-17.9381680">
        <ele>271.0</ele>
        <time>2020-11-16T20:42:14Z</time>
      </trkpt>
      <trkpt lat="28.6627600" lon="-17.9383780">
        <ele>269.2</ele>
        <time>2020-11-16T20:42:15Z</time>
      </trkpt>
      <trkpt lat="28.6627600" lon="-17.9383780">
        <ele>269.2</ele>
        <time>2020-11-16T20:42:16Z</time>
      </trkpt>
      <trkpt lat="28.6626970" lon="-17.9385450">
        <ele>267.6</ele>
        <time>2020-11-16T20:42:17Z</time>
      </trkpt>
      <trkpt lat="28.6626970" lon="-17.9385450">
        <ele>267.6</ele>
        <time>2020-11-16T20:42:18Z</time>
      </trkpt>
      <trkpt lat="28.6626070" lon="-17.9386820">
        <ele>266.0</ele>
        <time>2020-11-16T20:42:19Z</time>
      </trkpt>
      <trkpt lat="28.6625420" lon="-17.9387380">
        <ele>265.1</ele>
        <time>2020-11-16T20:42:20Z</time>
      </trkpt>
      <trkpt lat="28.6625420" lon="-17.9387380">
        <ele>265.1</ele>
        <time>2020-11-16T20:42:21Z</time>
      </trkpt>
      <trkpt lat="28.6623730" lon="-17.9388170">
        <ele>263.3</ele>
        <time>2020-11-16T20:42:22Z</time>
      </trkpt>
      <trkpt lat="28.6622770" lon="-17.9388500">
        <ele>262.3</ele>
        <time>2020-11-16T20:42:23Z</time>
      </trkpt>
      <trkpt lat="28.6622770" lon="-17.9388500">
        <ele>262.3</ele>
        <time>2020-11-16T20:42:24Z</time>
      </trkpt>
      <trkpt lat="28.6620800" lon="-17.9389300">
        <ele>260.3</ele>
        <time>2020-11-16T20:42:25Z</time>
      </trkpt>
      <trkpt lat="28.6619880" lon="-17.9389700">
        <ele>259.4</ele>
        <time>2020-11-16T20:42:26Z</time>
      </trkpt>
      <trkpt lat="28.6619880" lon="-17.9389700">
        <ele>259.4</ele>
        <time>2020-11-16T20:42:27Z</time>
      </trkpt>
      <trkpt lat="28.6618070" lon="-17.9390420">
        <ele>257.6</ele>
        <time>2020-11-16T20:42:28Z</time>
      </trkpt>
      <trkpt lat="28.6618070" lon="-17.9390420">
        <ele>257.6</ele>
        <time>2020-11-16T20:42:29Z</time>
      </trkpt>
      <trkpt lat="28.6616450" lon="-17.9390680">
        <ele>255.8</ele>
        <time>2020-11-16T20:42:30Z</time>
      </trkpt>
      <trkpt lat="28.6616450" lon="-17.9390680">
        <ele>255.8</ele>
        <time>2020-11-16T20:42:31Z</time>
      </trkpt>
      <trkpt lat="28.6615050" lon="-17.9390250">
        <ele>254.2</ele>
        <time>2020-11-16T20:42:32Z</time>
      </trkpt>
      <trkpt lat="28.6614470" lon="-17.9389850">
        <ele>253.4</ele>
        <time>2020-11-16T20:42:33Z</time>
      </trkpt>
      <trkpt lat="28.6614470" lon="-17.9389850">
        <ele>253.4</ele>
        <time>2020-11-16T20:42:34Z</time>
      </trkpt>
      <trkpt lat="28.6614000" lon="-17.9388380">
        <ele>251.9</ele>
        <time>2020-11-16T20:42:35Z</time>
      </trkpt>
      <trkpt lat="28.6614130" lon="-17.9387620">
        <ele>251.3</ele>
        <time>2020-11-16T20:42:36Z</time>
      </trkpt>
      <trkpt lat="28.6614130" lon="-17.9387620">
        <ele>251.3</ele>
        <time>2020-11-16T20:42:37Z</time>
      </trkpt>
      <trkpt lat="28.6614800" lon="-17.9386180">
        <ele>250.1</ele>
        <time>2020-11-16T20:42:38Z</time>
      </trkpt>
      <trkpt lat="28.6614800" lon="-17.9386180">
        <ele>250.1</ele>
        <time>2020-11-16T20:42:39Z</time>
      </trkpt>
      <trkpt lat="28.6615770" lon="-17.9384650">
        <ele>248.9</ele>
        <time>2020-11-16T20:42:40Z</time>
      </trkpt>
      <trkpt lat="28.6615770" lon="-17.9384650">
        <ele>248.9</ele>
        <time>2020-11-16T20:42:41Z</time>
      </trkpt>
      <trkpt lat="28.6616720" lon="-17.9383130">
        <ele>247.7</ele>
        <time>2020-11-16T20:42:42Z</time>
      </trkpt>
      <trkpt lat="28.6616720" lon="-17.9383130">
        <ele>247.7</ele>
        <time>2020-11-16T20:42:43Z</time>
      </trkpt>
      <trkpt lat="28.6617520" lon="-17.9381770">
        <ele>246.6</ele>
        <time>2020-11-16T20:42:44Z</time>
      </trkpt>
      <trkpt lat="28.6617650" lon="-17.9381100">
        <ele>246.2</ele>
        <time>2020-11-16T20:42:45Z</time>
      </trkpt>
      <trkpt lat="28.6617650" lon="-17.9381100">
        <ele>246.2</ele>
        <time>2020-11-16T20:42:46Z</time>
      </trkpt>
      <trkpt lat="28.6617070" lon="-17.9380000">
        <ele>245.2</ele>
        <time>2020-11-16T20:42:47Z</time>
      </trkpt>
      <trkpt lat="28.6616500" lon="-17.9379820">
        <ele>244.6</ele>
        <time>2020-11-16T20:42:48Z</time>
      </trkpt>
      <trkpt lat="28.6616500" lon="-17.9379820">
        <ele>244.6</ele>
        <time>2020-11-16T20:42:49Z</time>
      </trkpt>
      <trkpt lat="28.6615380" lon="-17.9380700">
        <ele>243.4</ele>
        <time>2020-11-16T20:42:50Z</time>
      </trkpt>
      <trkpt lat="28.6615380" lon="-17.9380700">
        <ele>243.4</ele>
        <time>2020-11-16T20:42:51Z</time>
      </trkpt>
      <trkpt lat="28.6614580" lon="-17.9382270">
        <ele>242.1</ele>
        <time>2020-11-16T20:42:52Z</time>
      </trkpt>
      <trkpt lat="28.6614580" lon="-17.9382270">
        <ele>242.1</ele>
        <time>2020-11-16T20:42:53Z</time>
      </trkpt>
      <trkpt lat="28.6613830" lon="-17.9384000">
        <ele>240.7</ele>
        <time>2020-11-16T20:42:54Z</time>
      </trkpt>
      <trkpt lat="28.6613400" lon="-17.9384900">
        <ele>239.9</ele>
        <time>2020-11-16T20:42:55Z</time>
      </trkpt>
      <trkpt lat="28.6613400" lon="-17.9384900">
        <ele>239.9</ele>
        <time>2020-11-16T20:42:56Z</time>
      </trkpt>
      <trkpt lat="28.6612620" lon="-17.9386850">
        <ele>238.6</ele>
        <time>2020-11-16T20:42:57Z</time>
      </trkpt>
      <trkpt lat="28.6612270" lon="-17.9387870">
        <ele>237.9</ele>
        <time>2020-11-16T20:42:58Z</time>
      </trkpt>
      <trkpt lat="28.6612270" lon="-17.9387870">
        <ele>237.9</ele>
        <time>2020-11-16T20:42:59Z</time>
      </trkpt>
      <trkpt lat="28.6611600" lon="-17.9389880">
        <ele>236.2</ele>
        <time>2020-11-16T20:43:00Z</time>
      </trkpt>
      <trkpt lat="28.6611600" lon="-17.9389880">
        <ele>236.2</ele>
        <time>2020-11-16T20:43:01Z</time>
      </trkpt>
      <trkpt lat="28.6611430" lon="-17.9392170">
        <ele>234.1</ele>
        <time>2020-11-16T20:43:02Z</time>
      </trkpt>
      <trkpt lat="28.6611430" lon="-17.9392170">
        <ele>234.1</ele>
        <time>2020-11-16T20:43:03Z</time>
      </trkpt>
      <trkpt lat="28.6611720" lon="-17.9394500">
        <ele>232.5</ele>
        <time>2020-11-16T20:43:04Z</time>
      </trkpt>
      <trkpt lat="28.6611870" lon="-17.9395600">
        <ele>232.0</ele>
        <time>2020-11-16T20:43:05Z</time>
      </trkpt>
      <trkpt lat="28.6611870" lon="-17.9395600">
        <ele>232.0</ele>
        <time>2020-11-16T20:43:06Z</time>
      </trkpt>
      <trkpt lat="28.6612020" lon="-17.9397580">
        <ele>231.2</ele>
        <time>2020-11-16T20:43:07Z</time>
      </trkpt>
      <trkpt lat="28.6611900" lon="-17.9398400">
        <ele>230.7</ele>
        <time>2020-11-16T20:43:08Z</time>
      </trkpt>
      <trkpt lat="28.6611900" lon="-17.9398400">
        <ele>230.7</ele>
        <time>2020-11-16T20:43:09Z</time>
      </trkpt>
      <trkpt lat="28.6611020" lon="-17.9399570">
        <ele>229.6</ele>
        <time>2020-11-16T20:43:10Z</time>
      </trkpt>
      <trkpt lat="28.6611020" lon="-17.9399570">
        <ele>229.6</ele>
        <time>2020-11-16T20:43:11Z</time>
      </trkpt>
      <trkpt lat="28.6609520" lon="-17.9400080">
        <ele>227.9</ele>
        <time>2020-11-16T20:43:12Z</time>
      </trkpt>
      <trkpt lat="28.6608650" lon="-17.9400300">
        <ele>227.0</ele>
        <time>2020-11-16T20:43:13Z</time>
      </trkpt>
      <trkpt lat="28.6607750" lon="-17.9400580">
        <ele>226.0</ele>
        <time>2020-11-16T20:43:14Z</time>
      </trkpt>
      <trkpt lat="28.6607750" lon="-17.9400580">
        <ele>226.0</ele>
        <time>2020-11-16T20:43:15Z</time>
      </trkpt>
      <trkpt lat="28.6605900" lon="-17.9401350">
        <ele>224.0</ele>
        <time>2020-11-16T20:43:16Z</time>
      </trkpt>
      <trkpt lat="28.6605900" lon="-17.9401350">
        <ele>224.0</ele>
        <time>2020-11-16T20:43:17Z</time>
      </trkpt>
      <trkpt lat="28.6604020" lon="-17.9402400">
        <ele>222.1</ele>
        <time>2020-11-16T20:43:18Z</time>
      </trkpt>
      <trkpt lat="28.6603100" lon="-17.9403050">
        <ele>221.1</ele>
        <time>2020-11-16T20:43:19Z</time>
      </trkpt>
      <trkpt lat="28.6602170" lon="-17.9403750">
        <ele>220.2</ele>
        <time>2020-11-16T20:43:20Z</time>
      </trkpt>
      <trkpt lat="28.6602170" lon="-17.9403750">
        <ele>220.2</ele>
        <time>2020-11-16T20:43:21Z</time>
      </trkpt>
      <trkpt lat="28.6602170" lon="-17.9403750">
        <ele>220.2</ele>
        <time>2020-11-16T20:43:22Z</time>
      </trkpt>
      <trkpt lat="28.6600350" lon="-17.9405130">
        <ele>218.3</ele>
        <time>2020-11-16T20:43:23Z</time>
      </trkpt>
      <trkpt lat="28.6598500" lon="-17.9406670">
        <ele>216.7</ele>
        <time>2020-11-16T20:43:24Z</time>
      </trkpt>
      <trkpt lat="28.6597570" lon="-17.9407420">
        <ele>216.0</ele>
        <time>2020-11-16T20:43:25Z</time>
      </trkpt>
      <trkpt lat="28.6597570" lon="-17.9407420">
        <ele>216.0</ele>
        <time>2020-11-16T20:43:26Z</time>
      </trkpt>
      <trkpt lat="28.6595500" lon="-17.9408500">
        <ele>214.5</ele>
        <time>2020-11-16T20:43:27Z</time>
      </trkpt>
      <trkpt lat="28.6594380" lon="-17.9408820">
        <ele>213.8</ele>
        <time>2020-11-16T20:43:28Z</time>
      </trkpt>
      <trkpt lat="28.6594380" lon="-17.9408820">
        <ele>213.8</ele>
        <time>2020-11-16T20:43:29Z</time>
      </trkpt>
      <trkpt lat="28.6592330" lon="-17.9409230">
        <ele>212.5</ele>
        <time>2020-11-16T20:43:30Z</time>
      </trkpt>
      <trkpt lat="28.6592330" lon="-17.9409230">
        <ele>212.5</ele>
        <time>2020-11-16T20:43:31Z</time>
      </trkpt>
      <trkpt lat="28.6590700" lon="-17.9409680">
        <ele>211.3</ele>
        <time>2020-11-16T20:43:32Z</time>
      </trkpt>
      <trkpt lat="28.6590700" lon="-17.9409680">
        <ele>211.3</ele>
        <time>2020-11-16T20:43:33Z</time>
      </trkpt>
      <trkpt lat="28.6589530" lon="-17.9410280">
        <ele>210.3</ele>
        <time>2020-11-16T20:43:34Z</time>
      </trkpt>
      <trkpt lat="28.6589530" lon="-17.9410280">
        <ele>210.3</ele>
        <time>2020-11-16T20:43:35Z</time>
      </trkpt>
      <trkpt lat="28.6588120" lon="-17.9410980">
        <ele>208.8</ele>
        <time>2020-11-16T20:43:36Z</time>
      </trkpt>
      <trkpt lat="28.6587320" lon="-17.9411370">
        <ele>208.0</ele>
        <time>2020-11-16T20:43:37Z</time>
      </trkpt>
      <trkpt lat="28.6587320" lon="-17.9411370">
        <ele>208.0</ele>
        <time>2020-11-16T20:43:38Z</time>
      </trkpt>
      <trkpt lat="28.6585850" lon="-17.9412180">
        <ele>206.3</ele>
        <time>2020-11-16T20:43:39Z</time>
      </trkpt>
      <trkpt lat="28.6585150" lon="-17.9412600">
        <ele>205.5</ele>
        <time>2020-11-16T20:43:40Z</time>
      </trkpt>
      <trkpt lat="28.6585150" lon="-17.9412600">
        <ele>205.5</ele>
        <time>2020-11-16T20:43:41Z</time>
      </trkpt>
      <trkpt lat="28.6583830" lon="-17.9413270">
        <ele>203.8</ele>
        <time>2020-11-16T20:43:42Z</time>
      </trkpt>
      <trkpt lat="28.6583200" lon="-17.9413480">
        <ele>203.0</ele>
        <time>2020-11-16T20:43:43Z</time>
      </trkpt>
      <trkpt lat="28.6583200" lon="-17.9413480">
        <ele>203.0</ele>
        <time>2020-11-16T20:43:44Z</time>
      </trkpt>
      <trkpt lat="28.6581930" lon="-17.9413430">
        <ele>201.2</ele>
        <time>2020-11-16T20:43:45Z</time>
      </trkpt>
      <trkpt lat="28.6581930" lon="-17.9413430">
        <ele>201.2</ele>
        <time>2020-11-16T20:43:46Z</time>
      </trkpt>
      <trkpt lat="28.6581000" lon="-17.9412550">
        <ele>199.3</ele>
        <time>2020-11-16T20:43:47Z</time>
      </trkpt>
      <trkpt lat="28.6581000" lon="-17.9412550">
        <ele>199.3</ele>
        <time>2020-11-16T20:43:48Z</time>
      </trkpt>
      <trkpt lat="28.6580650" lon="-17.9410950">
        <ele>197.1</ele>
        <time>2020-11-16T20:43:49Z</time>
      </trkpt>
      <trkpt lat="28.6580670" lon="-17.9410120">
        <ele>196.2</ele>
        <time>2020-11-16T20:43:50Z</time>
      </trkpt>
      <trkpt lat="28.6580670" lon="-17.9410120">
        <ele>196.2</ele>
        <time>2020-11-16T20:43:51Z</time>
      </trkpt>
      <trkpt lat="28.6581430" lon="-17.9409130">
        <ele>195.1</ele>
        <time>2020-11-16T20:43:52Z</time>
      </trkpt>
      <trkpt lat="28.6582020" lon="-17.9408880">
        <ele>194.5</ele>
        <time>2020-11-16T20:43:53Z</time>
      </trkpt>
      <trkpt lat="28.6582020" lon="-17.9408880">
        <ele>194.5</ele>
        <time>2020-11-16T20:43:54Z</time>
      </trkpt>
      <trkpt lat="28.6583430" lon="-17.9408620">
        <ele>193.2</ele>
        <time>2020-11-16T20:43:55Z</time>
      </trkpt>
      <trkpt lat="28.6583430" lon="-17.9408620">
        <ele>193.2</ele>
        <time>2020-11-16T20:43:56Z</time>
      </trkpt>
      <trkpt lat="28.6584170" lon="-17.9408430">
        <ele>192.5</ele>
        <time>2020-11-16T20:43:57Z</time>
      </trkpt>
      <trkpt lat="28.6585750" lon="-17.9407950">
        <ele>191.2</ele>
        <time>2020-11-16T20:43:58Z</time>
      </trkpt>
      <trkpt lat="28.6586600" lon="-17.9407750">
        <ele>190.4</ele>
        <time>2020-11-16T20:43:59Z</time>
      </trkpt>
      <trkpt lat="28.6586600" lon="-17.9407750">
        <ele>190.4</ele>
        <time>2020-11-16T20:44:00Z</time>
      </trkpt>
      <trkpt lat="28.6588480" lon="-17.9407330">
        <ele>188.9</ele>
        <time>2020-11-16T20:44:01Z</time>
      </trkpt>
      <trkpt lat="28.6588480" lon="-17.9407330">
        <ele>188.9</ele>
        <time>2020-11-16T20:44:02Z</time>
      </trkpt>
      <trkpt lat="28.6590470" lon="-17.9406870">
        <ele>187.2</ele>
        <time>2020-11-16T20:44:03Z</time>
      </trkpt>
      <trkpt lat="28.6590470" lon="-17.9406870">
        <ele>187.2</ele>
        <time>2020-11-16T20:44:04Z</time>
      </trkpt>
      <trkpt lat="28.6592430" lon="-17.9406350">
        <ele>185.5</ele>
        <time>2020-11-16T20:44:05Z</time>
      </trkpt>
      <trkpt lat="28.6593330" lon="-17.9405980">
        <ele>184.7</ele>
        <time>2020-11-16T20:44:06Z</time>
      </trkpt>
      <trkpt lat="28.6594150" lon="-17.9405480">
        <ele>183.8</ele>
        <time>2020-11-16T20:44:07Z</time>
      </trkpt>
      <trkpt lat="28.6594150" lon="-17.9405480">
        <ele>183.8</ele>
        <time>2020-11-16T20:44:08Z</time>
      </trkpt>
      <trkpt lat="28.6595580" lon="-17.9404050">
        <ele>182.1</ele>
        <time>2020-11-16T20:44:09Z</time>
      </trkpt>
      <trkpt lat="28.6595580" lon="-17.9404050">
        <ele>182.1</ele>
        <time>2020-11-16T20:44:10Z</time>
      </trkpt>
      <trkpt lat="28.6596930" lon="-17.9402600">
        <ele>180.5</ele>
        <time>2020-11-16T20:44:11Z</time>
      </trkpt>
      <trkpt lat="28.6597550" lon="-17.9401930">
        <ele>179.9</ele>
        <time>2020-11-16T20:44:12Z</time>
      </trkpt>
      <trkpt lat="28.6597550" lon="-17.9401930">
        <ele>179.9</ele>
        <time>2020-11-16T20:44:13Z</time>
      </trkpt>
      <trkpt lat="28.6598520" lon="-17.9400670">
        <ele>178.8</ele>
        <time>2020-11-16T20:44:14Z</time>
      </trkpt>
      <trkpt lat="28.6598520" lon="-17.9400670">
        <ele>178.8</ele>
        <time>2020-11-16T20:44:15Z</time>
      </trkpt>
      <trkpt lat="28.6598650" lon="-17.9399200">
        <ele>178.2</ele>
        <time>2020-11-16T20:44:16Z</time>
      </trkpt>
      <trkpt lat="28.6598650" lon="-17.9399200">
        <ele>178.2</ele>
        <time>2020-11-16T20:44:17Z</time>
      </trkpt>
      <trkpt lat="28.6598020" lon="-17.9397820">
        <ele>178.0</ele>
        <time>2020-11-16T20:44:18Z</time>
      </trkpt>
      <trkpt lat="28.6598020" lon="-17.9397820">
        <ele>178.0</ele>
        <time>2020-11-16T20:44:19Z</time>
      </trkpt>
      <trkpt lat="28.6597380" lon="-17.9396530">
        <ele>177.6</ele>
        <time>2020-11-16T20:44:20Z</time>
      </trkpt>
      <trkpt lat="28.6597380" lon="-17.9396530">
        <ele>177.6</ele>
        <time>2020-11-16T20:44:21Z</time>
      </trkpt>
      <trkpt lat="28.6596650" lon="-17.9395220">
        <ele>177.0</ele>
        <time>2020-11-16T20:44:22Z</time>
      </trkpt>
      <trkpt lat="28.6596470" lon="-17.9394530">
        <ele>176.7</ele>
        <time>2020-11-16T20:44:23Z</time>
      </trkpt>
      <trkpt lat="28.6596470" lon="-17.9394530">
        <ele>176.7</ele>
        <time>2020-11-16T20:44:24Z</time>
      </trkpt>
      <trkpt lat="28.6596870" lon="-17.9393000">
        <ele>175.8</ele>
        <time>2020-11-16T20:44:25Z</time>
      </trkpt>
      <trkpt lat="28.6597200" lon="-17.9392230">
        <ele>175.3</ele>
        <time>2020-11-16T20:44:26Z</time>
      </trkpt>
      <trkpt lat="28.6597200" lon="-17.9392230">
        <ele>175.3</ele>
        <time>2020-11-16T20:44:27Z</time>
      </trkpt>
      <trkpt lat="28.6598280" lon="-17.9390750">
        <ele>174.0</ele>
        <time>2020-11-16T20:44:28Z</time>
      </trkpt>
      <trkpt lat="28.6598280" lon="-17.9390750">
        <ele>174.0</ele>
        <time>2020-11-16T20:44:29Z</time>
      </trkpt>
      <trkpt lat="28.6599350" lon="-17.9389050">
        <ele>172.6</ele>
        <time>2020-11-16T20:44:30Z</time>
      </trkpt>
      <trkpt lat="28.6599350" lon="-17.9389050">
        <ele>172.6</ele>
        <time>2020-11-16T20:44:31Z</time>
      </trkpt>
      <trkpt lat="28.6600420" lon="-17.9387200">
        <ele>171.0</ele>
        <time>2020-11-16T20:44:32Z</time>
      </trkpt>
      <trkpt lat="28.6600420" lon="-17.9387200">
        <ele>171.0</ele>
        <time>2020-11-16T20:44:33Z</time>
      </trkpt>
      <trkpt lat="28.6601600" lon="-17.9385220">
        <ele>169.4</ele>
        <time>2020-11-16T20:44:34Z</time>
      </trkpt>
      <trkpt lat="28.6601600" lon="-17.9385220">
        <ele>169.4</ele>
        <time>2020-11-16T20:44:35Z</time>
      </trkpt>
      <trkpt lat="28.6602850" lon="-17.9383250">
        <ele>167.6</ele>
        <time>2020-11-16T20:44:36Z</time>
      </trkpt>
      <trkpt lat="28.6602850" lon="-17.9383250">
        <ele>167.6</ele>
        <time>2020-11-16T20:44:37Z</time>
      </trkpt>
      <trkpt lat="28.6604330" lon="-17.9381400">
        <ele>165.8</ele>
        <time>2020-11-16T20:44:38Z</time>
      </trkpt>
      <trkpt lat="28.6604330" lon="-17.9381400">
        <ele>165.8</ele>
        <time>2020-11-16T20:44:39Z</time>
      </trkpt>
      <trkpt lat="28.6606000" lon="-17.9379570">
        <ele>163.9</ele>
        <time>2020-11-16T20:44:40Z</time>
      </trkpt>
      <trkpt lat="28.6606000" lon="-17.9379570">
        <ele>163.9</ele>
        <time>2020-11-16T20:44:41Z</time>
      </trkpt>
      <trkpt lat="28.6607700" lon="-17.9377670">
        <ele>161.9</ele>
        <time>2020-11-16T20:44:42Z</time>
      </trkpt>
      <trkpt lat="28.6608550" lon="-17.9376680">
        <ele>160.9</ele>
        <time>2020-11-16T20:44:43Z</time>
      </trkpt>
      <trkpt lat="28.6609400" lon="-17.9375680">
        <ele>159.8</ele>
        <time>2020-11-16T20:44:44Z</time>
      </trkpt>
      <trkpt lat="28.6609400" lon="-17.9375680">
        <ele>159.8</ele>
        <time>2020-11-16T20:44:45Z</time>
      </trkpt>
      <trkpt lat="28.6611080" lon="-17.9373550">
        <ele>157.3</ele>
        <time>2020-11-16T20:44:46Z</time>
      </trkpt>
      <trkpt lat="28.6611900" lon="-17.9372400">
        <ele>156.0</ele>
        <time>2020-11-16T20:44:47Z</time>
      </trkpt>
      <trkpt lat="28.6611900" lon="-17.9372400">
        <ele>156.0</ele>
        <time>2020-11-16T20:44:48Z</time>
      </trkpt>
      <trkpt lat="28.6613520" lon="-17.9370120">
        <ele>153.6</ele>
        <time>2020-11-16T20:44:49Z</time>
      </trkpt>
      <trkpt lat="28.6614300" lon="-17.9368930">
        <ele>152.4</ele>
        <time>2020-11-16T20:44:50Z</time>
      </trkpt>
      <trkpt lat="28.6614300" lon="-17.9368930">
        <ele>152.4</ele>
        <time>2020-11-16T20:44:51Z</time>
      </trkpt>
      <trkpt lat="28.6615830" lon="-17.9366620">
        <ele>150.4</ele>
        <time>2020-11-16T20:44:52Z</time>
      </trkpt>
      <trkpt lat="28.6616570" lon="-17.9365580">
        <ele>149.5</ele>
        <time>2020-11-16T20:44:53Z</time>
      </trkpt>
      <trkpt lat="28.6616570" lon="-17.9365580">
        <ele>149.5</ele>
        <time>2020-11-16T20:44:54Z</time>
      </trkpt>
      <trkpt lat="28.6617970" lon="-17.9363600">
        <ele>147.9</ele>
        <time>2020-11-16T20:44:55Z</time>
      </trkpt>
      <trkpt lat="28.6617970" lon="-17.9363600">
        <ele>147.9</ele>
        <time>2020-11-16T20:44:56Z</time>
      </trkpt>
      <trkpt lat="28.6619570" lon="-17.9361900">
        <ele>146.2</ele>
        <time>2020-11-16T20:44:57Z</time>
      </trkpt>
      <trkpt lat="28.6619570" lon="-17.9361900">
        <ele>146.2</ele>
        <time>2020-11-16T20:44:58Z</time>
      </trkpt>
      <trkpt lat="28.6621200" lon="-17.9360150">
        <ele>144.3</ele>
        <time>2020-11-16T20:44:59Z</time>
      </trkpt>
      <trkpt lat="28.6621870" lon="-17.9359220">
        <ele>143.4</ele>
        <time>2020-11-16T20:45:00Z</time>
      </trkpt>
      <trkpt lat="28.6621870" lon="-17.9359220">
        <ele>143.4</ele>
        <time>2020-11-16T20:45:01Z</time>
      </trkpt>
      <trkpt lat="28.6622930" lon="-17.9357370">
        <ele>141.8</ele>
        <time>2020-11-16T20:45:02Z</time>
      </trkpt>
      <trkpt lat="28.6622930" lon="-17.9357370">
        <ele>141.8</ele>
        <time>2020-11-16T20:45:03Z</time>
      </trkpt>
      <trkpt lat="28.6624070" lon="-17.9355870">
        <ele>140.5</ele>
        <time>2020-11-16T20:45:04Z</time>
      </trkpt>
      <trkpt lat="28.6624070" lon="-17.9355870">
        <ele>140.5</ele>
        <time>2020-11-16T20:45:05Z</time>
      </trkpt>
      <trkpt lat="28.6625670" lon="-17.9354920">
        <ele>139.2</ele>
        <time>2020-11-16T20:45:06Z</time>
      </trkpt>
      <trkpt lat="28.6625670" lon="-17.9354920">
        <ele>139.2</ele>
        <time>2020-11-16T20:45:07Z</time>
      </trkpt>
      <trkpt lat="28.6627380" lon="-17.9354020">
        <ele>138.0</ele>
        <time>2020-11-16T20:45:08Z</time>
      </trkpt>
      <trkpt lat="28.6627380" lon="-17.9354020">
        <ele>138.0</ele>
        <time>2020-11-16T20:45:09Z</time>
      </trkpt>
      <trkpt lat="28.6628830" lon="-17.9352800">
        <ele>136.7</ele>
        <time>2020-11-16T20:45:10Z</time>
      </trkpt>
      <trkpt lat="28.6629350" lon="-17.9352020">
        <ele>136.0</ele>
        <time>2020-11-16T20:45:11Z</time>
      </trkpt>
      <trkpt lat="28.6629350" lon="-17.9352020">
        <ele>136.0</ele>
        <time>2020-11-16T20:45:12Z</time>
      </trkpt>
      <trkpt lat="28.6630120" lon="-17.9350270">
        <ele>134.6</ele>
        <time>2020-11-16T20:45:13Z</time>
      </trkpt>
      <trkpt lat="28.6630120" lon="-17.9350270">
        <ele>134.6</ele>
        <time>2020-11-16T20:45:14Z</time>
      </trkpt>
      <trkpt lat="28.6631180" lon="-17.9348580">
        <ele>133.1</ele>
        <time>2020-11-16T20:45:15Z</time>
      </trkpt>
      <trkpt lat="28.6631180" lon="-17.9348580">
        <ele>133.1</ele>
        <time>2020-11-16T20:45:16Z</time>
      </trkpt>
      <trkpt lat="28.6632500" lon="-17.9346920">
        <ele>131.5</ele>
        <time>2020-11-16T20:45:17Z</time>
      </trkpt>
      <trkpt lat="28.6633170" lon="-17.9346080">
        <ele>130.7</ele>
        <time>2020-11-16T20:45:18Z</time>
      </trkpt>
      <trkpt lat="28.6633170" lon="-17.9346080">
        <ele>130.7</ele>
        <time>2020-11-16T20:45:19Z</time>
      </trkpt>
      <trkpt lat="28.6633170" lon="-17.9346080">
        <ele>130.7</ele>
        <time>2020-11-16T20:45:20Z</time>
      </trkpt>
      <trkpt lat="28.6634370" lon="-17.9344550">
        <ele>129.3</ele>
        <time>2020-11-16T20:45:21Z</time>
      </trkpt>
      <trkpt lat="28.6635430" lon="-17.9343120">
        <ele>128.0</ele>
        <time>2020-11-16T20:45:22Z</time>
      </trkpt>
      <trkpt lat="28.6635430" lon="-17.9343120">
        <ele>128.0</ele>
        <time>2020-11-16T20:45:23Z</time>
      </trkpt>
      <trkpt lat="28.6635930" lon="-17.9341720">
        <ele>127.0</ele>
        <time>2020-11-16T20:45:24Z</time>
      </trkpt>
      <trkpt lat="28.6635800" lon="-17.9341120">
        <ele>126.5</ele>
        <time>2020-11-16T20:45:25Z</time>
      </trkpt>
      <trkpt lat="28.6635800" lon="-17.9341120">
        <ele>126.5</ele>
        <time>2020-11-16T20:45:26Z</time>
      </trkpt>
      <trkpt lat="28.6634750" lon="-17.9340400">
        <ele>125.1</ele>
        <time>2020-11-16T20:45:27Z</time>
      </trkpt>
      <trkpt lat="28.6634750" lon="-17.9340400">
        <ele>125.1</ele>
        <time>2020-11-16T20:45:28Z</time>
      </trkpt>
      <trkpt lat="28.6633600" lon="-17.9341050">
        <ele>123.9</ele>
        <time>2020-11-16T20:45:29Z</time>
      </trkpt>
      <trkpt lat="28.6633600" lon="-17.9341050">
        <ele>123.9</ele>
        <time>2020-11-16T20:45:30Z</time>
      </trkpt>
      <trkpt lat="28.6632650" lon="-17.9342450">
        <ele>122.6</ele>
        <time>2020-11-16T20:45:31Z</time>
      </trkpt>
      <trkpt lat="28.6632170" lon="-17.9343200">
        <ele>121.9</ele>
        <time>2020-11-16T20:45:32Z</time>
      </trkpt>
      <trkpt lat="28.6632170" lon="-17.9343200">
        <ele>121.9</ele>
        <time>2020-11-16T20:45:33Z</time>
      </trkpt>
      <trkpt lat="28.6631050" lon="-17.9344750">
        <ele>120.6</ele>
        <time>2020-11-16T20:45:34Z</time>
      </trkpt>
      <trkpt lat="28.6630470" lon="-17.9345550">
        <ele>120.0</ele>
        <time>2020-11-16T20:45:35Z</time>
      </trkpt>
      <trkpt lat="28.6629880" lon="-17.9346370">
        <ele>119.4</ele>
        <time>2020-11-16T20:45:36Z</time>
      </trkpt>
      <trkpt lat="28.6629880" lon="-17.9346370">
        <ele>119.4</ele>
        <time>2020-11-16T20:45:37Z</time>
      </trkpt>
      <trkpt lat="28.6628720" lon="-17.9348070">
        <ele>118.3</ele>
        <time>2020-11-16T20:45:38Z</time>
      </trkpt>
      <trkpt lat="28.6628720" lon="-17.9348070">
        <ele>118.3</ele>
        <time>2020-11-16T20:45:39Z</time>
      </trkpt>
      <trkpt lat="28.6627500" lon="-17.9349730">
        <ele>117.3</ele>
        <time>2020-11-16T20:45:40Z</time>
      </trkpt>
      <trkpt lat="28.6627500" lon="-17.9349730">
        <ele>117.3</ele>
        <time>2020-11-16T20:45:41Z</time>
      </trkpt>
      <trkpt lat="28.6626350" lon="-17.9351180">
        <ele>116.1</ele>
        <time>2020-11-16T20:45:42Z</time>
      </trkpt>
      <trkpt lat="28.6625750" lon="-17.9351680">
        <ele>115.5</ele>
        <time>2020-11-16T20:45:43Z</time>
      </trkpt>
      <trkpt lat="28.6625750" lon="-17.9351680">
        <ele>115.5</ele>
        <time>2020-11-16T20:45:44Z</time>
      </trkpt>
      <trkpt lat="28.6624420" lon="-17.9351920">
        <ele>114.3</ele>
        <time>2020-11-16T20:45:45Z</time>
      </trkpt>
      <trkpt lat="28.6624420" lon="-17.9351920">
        <ele>114.3</ele>
        <time>2020-11-16T20:45:46Z</time>
      </trkpt>
      <trkpt lat="28.6623380" lon="-17.9351130">
        <ele>113.4</ele>
        <time>2020-11-16T20:45:47Z</time>
      </trkpt>
      <trkpt lat="28.6623200" lon="-17.9350380">
        <ele>113.0</ele>
        <time>2020-11-16T20:45:48Z</time>
      </trkpt>
      <trkpt lat="28.6623200" lon="-17.9350380">
        <ele>113.0</ele>
        <time>2020-11-16T20:45:49Z</time>
      </trkpt>
      <trkpt lat="28.6623570" lon="-17.9348770">
        <ele>112.1</ele>
        <time>2020-11-16T20:45:50Z</time>
      </trkpt>
      <trkpt lat="28.6623570" lon="-17.9348770">
        <ele>112.1</ele>
        <time>2020-11-16T20:45:51Z</time>
      </trkpt>
      <trkpt lat="28.6624350" lon="-17.9347300">
        <ele>111.3</ele>
        <time>2020-11-16T20:45:52Z</time>
      </trkpt>
      <trkpt lat="28.6624350" lon="-17.9347300">
        <ele>111.3</ele>
        <time>2020-11-16T20:45:53Z</time>
      </trkpt>
      <trkpt lat="28.6625200" lon="-17.9345850">
        <ele>110.4</ele>
        <time>2020-11-16T20:45:54Z</time>
      </trkpt>
      <trkpt lat="28.6625200" lon="-17.9345850">
        <ele>110.4</ele>
        <time>2020-11-16T20:45:55Z</time>
      </trkpt>
      <trkpt lat="28.6626020" lon="-17.9344370">
        <ele>109.5</ele>
        <time>2020-11-16T20:45:56Z</time>
      </trkpt>
      <trkpt lat="28.6626020" lon="-17.9344370">
        <ele>109.5</ele>
        <time>2020-11-16T20:45:57Z</time>
      </trkpt>
      <trkpt lat="28.6626700" lon="-17.9342680">
        <ele>108.5</ele>
        <time>2020-11-16T20:45:58Z</time>
      </trkpt>
      <trkpt lat="28.6627020" lon="-17.9341800">
        <ele>108.0</ele>
        <time>2020-11-16T20:45:59Z</time>
      </trkpt>
      <trkpt lat="28.6627020" lon="-17.9341800">
        <ele>108.0</ele>
        <time>2020-11-16T20:46:00Z</time>
      </trkpt>
      <trkpt lat="28.6627680" lon="-17.9340080">
        <ele>107.0</ele>
        <time>2020-11-16T20:46:01Z</time>
      </trkpt>
      <trkpt lat="28.6627680" lon="-17.9340080">
        <ele>107.0</ele>
        <time>2020-11-16T20:46:02Z</time>
      </trkpt>
      <trkpt lat="28.6628320" lon="-17.9338270">
        <ele>105.9</ele>
        <time>2020-11-16T20:46:03Z</time>
      </trkpt>
      <trkpt lat="28.6628320" lon="-17.9338270">
        <ele>105.9</ele>
        <time>2020-11-16T20:46:04Z</time>
      </trkpt>
      <trkpt lat="28.6628970" lon="-17.9336570">
        <ele>104.6</ele>
        <time>2020-11-16T20:46:05Z</time>
      </trkpt>
      <trkpt lat="28.6628970" lon="-17.9336570">
        <ele>104.6</ele>
        <time>2020-11-16T20:46:06Z</time>
      </trkpt>
      <trkpt lat="28.6629650" lon="-17.9335250">
        <ele>103.4</ele>
        <time>2020-11-16T20:46:07Z</time>
      </trkpt>
      <trkpt lat="28.6630020" lon="-17.9334730">
        <ele>102.9</ele>
        <time>2020-11-16T20:46:08Z</time>
      </trkpt>
      <trkpt lat="28.6630020" lon="-17.9334730">
        <ele>102.9</ele>
        <time>2020-11-16T20:46:09Z</time>
      </trkpt>
      <trkpt lat="28.6630530" lon="-17.9333600">
        <ele>101.9</ele>
        <time>2020-11-16T20:46:10Z</time>
      </trkpt>
      <trkpt lat="28.6630530" lon="-17.9333600">
        <ele>101.9</ele>
        <time>2020-11-16T20:46:11Z</time>
      </trkpt>
      <trkpt lat="28.6630170" lon="-17.9332480">
        <ele>100.9</ele>
        <time>2020-11-16T20:46:12Z</time>
      </trkpt>
      <trkpt lat="28.6629670" lon="-17.9332100">
        <ele>100.2</ele>
        <time>2020-11-16T20:46:13Z</time>
      </trkpt>
      <trkpt lat="28.6629670" lon="-17.9332100">
        <ele>100.2</ele>
        <time>2020-11-16T20:46:14Z</time>
      </trkpt>
      <trkpt lat="28.6628470" lon="-17.9331970">
        <ele>98.9</ele>
        <time>2020-11-16T20:46:15Z</time>
      </trkpt>
      <trkpt lat="28.6628470" lon="-17.9331970">
        <ele>98.9</ele>
        <time>2020-11-16T20:46:16Z</time>
      </trkpt>
      <trkpt lat="28.6627550" lon="-17.9332650">
        <ele>97.6</ele>
        <time>2020-11-16T20:46:17Z</time>
      </trkpt>
      <trkpt lat="28.6627550" lon="-17.9332650">
        <ele>97.6</ele>
        <time>2020-11-16T20:46:18Z</time>
      </trkpt>
      <trkpt lat="28.6626650" lon="-17.9333350">
        <ele>96.3</ele>
        <time>2020-11-16T20:46:19Z</time>
      </trkpt>
      <trkpt lat="28.6626220" lon="-17.9333630">
        <ele>95.7</ele>
        <time>2020-11-16T20:46:20Z</time>
      </trkpt>
      <trkpt lat="28.6626220" lon="-17.9333630">
        <ele>95.7</ele>
        <time>2020-11-16T20:46:21Z</time>
      </trkpt>
      <trkpt lat="28.6625370" lon="-17.9334270">
        <ele>94.5</ele>
        <time>2020-11-16T20:46:22Z</time>
      </trkpt>
      <trkpt lat="28.6625370" lon="-17.9334270">
        <ele>94.5</ele>
        <time>2020-11-16T20:46:23Z</time>
      </trkpt>
      <trkpt lat="28.6624430" lon="-17.9335030">
        <ele>93.0</ele>
        <time>2020-11-16T20:46:24Z</time>
      </trkpt>
      <trkpt lat="28.6624000" lon="-17.9335580">
        <ele>92.7</ele>
        <time>2020-11-16T20:46:25Z</time>
      </trkpt>
      <trkpt lat="28.6624000" lon="-17.9335580">
        <ele>92.7</ele>
        <time>2020-11-16T20:46:26Z</time>
      </trkpt>
      <trkpt lat="28.6623220" lon="-17.9336650">
        <ele>92.6</ele>
        <time>2020-11-16T20:46:27Z</time>
      </trkpt>
      <trkpt lat="28.6623220" lon="-17.9336650">
        <ele>92.6</ele>
        <time>2020-11-16T20:46:28Z</time>
      </trkpt>
      <trkpt lat="28.6622370" lon="-17.9337670">
        <ele>92.4</ele>
        <time>2020-11-16T20:46:29Z</time>
      </trkpt>
      <trkpt lat="28.6621950" lon="-17.9338180">
        <ele>92.4</ele>
        <time>2020-11-16T20:46:30Z</time>
      </trkpt>
      <trkpt lat="28.6621550" lon="-17.9338720">
        <ele>92.3</ele>
        <time>2020-11-16T20:46:31Z</time>
      </trkpt>
      <trkpt lat="28.6621550" lon="-17.9338720">
        <ele>92.3</ele>
        <time>2020-11-16T20:46:32Z</time>
      </trkpt>
      <trkpt lat="28.6620770" lon="-17.9339830">
        <ele>92.1</ele>
        <time>2020-11-16T20:46:33Z</time>
      </trkpt>
      <trkpt lat="28.6620770" lon="-17.9339830">
        <ele>92.1</ele>
        <time>2020-11-16T20:46:34Z</time>
      </trkpt>
      <trkpt lat="28.6619870" lon="-17.9340900">
        <ele>91.8</ele>
        <time>2020-11-16T20:46:35Z</time>
      </trkpt>
      <trkpt lat="28.6619870" lon="-17.9340900">
        <ele>91.8</ele>
        <time>2020-11-16T20:46:36Z</time>
      </trkpt>
      <trkpt lat="28.6619020" lon="-17.9342030">
        <ele>91.4</ele>
        <time>2020-11-16T20:46:37Z</time>
      </trkpt>
      <trkpt lat="28.6619020" lon="-17.9342030">
        <ele>91.4</ele>
        <time>2020-11-16T20:46:38Z</time>
      </trkpt>
      <trkpt lat="28.6618220" lon="-17.9343320">
        <ele>91.1</ele>
        <time>2020-11-16T20:46:39Z</time>
      </trkpt>
      <trkpt lat="28.6617880" lon="-17.9344000">
        <ele>90.9</ele>
        <time>2020-11-16T20:46:40Z</time>
      </trkpt>
      <trkpt lat="28.6617880" lon="-17.9344000">
        <ele>90.9</ele>
        <time>2020-11-16T20:46:41Z</time>
      </trkpt>
      <trkpt lat="28.6617700" lon="-17.9345520">
        <ele>90.6</ele>
        <time>2020-11-16T20:46:42Z</time>
      </trkpt>
      <trkpt lat="28.6617700" lon="-17.9345520">
        <ele>90.6</ele>
        <time>2020-11-16T20:46:43Z</time>
      </trkpt>
      <trkpt lat="28.6617580" lon="-17.9347050">
        <ele>90.1</ele>
        <time>2020-11-16T20:46:44Z</time>
      </trkpt>
      <trkpt lat="28.6617580" lon="-17.9347050">
        <ele>90.1</ele>
        <time>2020-11-16T20:46:45Z</time>
      </trkpt>
      <trkpt lat="28.6617320" lon="-17.9348620">
        <ele>89.5</ele>
        <time>2020-11-16T20:46:46Z</time>
      </trkpt>
      <trkpt lat="28.6617320" lon="-17.9348620">
        <ele>89.5</ele>
        <time>2020-11-16T20:46:47Z</time>
      </trkpt>
      <trkpt lat="28.6617050" lon="-17.9350130">
        <ele>88.8</ele>
        <time>2020-11-16T20:46:48Z</time>
      </trkpt>
      <trkpt lat="28.6616870" lon="-17.9350800">
        <ele>88.5</ele>
        <time>2020-11-16T20:46:49Z</time>
      </trkpt>
      <trkpt lat="28.6616870" lon="-17.9350800">
        <ele>88.5</ele>
        <time>2020-11-16T20:46:50Z</time>
      </trkpt>
      <trkpt lat="28.6616230" lon="-17.9352030">
        <ele>87.5</ele>
        <time>2020-11-16T20:46:51Z</time>
      </trkpt>
      <trkpt lat="28.6616230" lon="-17.9352030">
        <ele>87.5</ele>
        <time>2020-11-16T20:46:52Z</time>
      </trkpt>
      <trkpt lat="28.6615220" lon="-17.9353050">
        <ele>86.1</ele>
        <time>2020-11-16T20:46:53Z</time>
      </trkpt>
      <trkpt lat="28.6615220" lon="-17.9353050">
        <ele>86.1</ele>
        <time>2020-11-16T20:46:54Z</time>
      </trkpt>
      <trkpt lat="28.6614230" lon="-17.9354320">
        <ele>84.4</ele>
        <time>2020-11-16T20:46:55Z</time>
      </trkpt>
      <trkpt lat="28.6613730" lon="-17.9355030">
        <ele>83.5</ele>
        <time>2020-11-16T20:46:56Z</time>
      </trkpt>
      <trkpt lat="28.6613730" lon="-17.9355030">
        <ele>83.5</ele>
        <time>2020-11-16T20:46:57Z</time>
      </trkpt>
      <trkpt lat="28.6612730" lon="-17.9356680">
        <ele>81.4</ele>
        <time>2020-11-16T20:46:58Z</time>
      </trkpt>
      <trkpt lat="28.6612730" lon="-17.9356680">
        <ele>81.4</ele>
        <time>2020-11-16T20:46:59Z</time>
      </trkpt>
      <trkpt lat="28.6611600" lon="-17.9358370">
        <ele>79.3</ele>
        <time>2020-11-16T20:47:00Z</time>
      </trkpt>
      <trkpt lat="28.6611600" lon="-17.9358370">
        <ele>79.3</ele>
        <time>2020-11-16T20:47:01Z</time>
      </trkpt>
      <trkpt lat="28.6610420" lon="-17.9360020">
        <ele>77.2</ele>
        <time>2020-11-16T20:47:02Z</time>
      </trkpt>
      <trkpt lat="28.6610420" lon="-17.9360020">
        <ele>77.2</ele>
        <time>2020-11-16T20:47:03Z</time>
      </trkpt>
      <trkpt lat="28.6609170" lon="-17.9361570">
        <ele>75.3</ele>
        <time>2020-11-16T20:47:04Z</time>
      </trkpt>
      <trkpt lat="28.6609170" lon="-17.9361570">
        <ele>75.3</ele>
        <time>2020-11-16T20:47:05Z</time>
      </trkpt>
      <trkpt lat="28.6607700" lon="-17.9363120">
        <ele>73.1</ele>
        <time>2020-11-16T20:47:06Z</time>
      </trkpt>
      <trkpt lat="28.6607700" lon="-17.9363120">
        <ele>73.1</ele>
        <time>2020-11-16T20:47:07Z</time>
      </trkpt>
      <trkpt lat="28.6606070" lon="-17.9364680">
        <ele>70.9</ele>
        <time>2020-11-16T20:47:08Z</time>
      </trkpt>
      <trkpt lat="28.6606070" lon="-17.9364680">
        <ele>70.9</ele>
        <time>2020-11-16T20:47:09Z</time>
      </trkpt>
      <trkpt lat="28.6604270" lon="-17.9366250">
        <ele>68.5</ele>
        <time>2020-11-16T20:47:10Z</time>
      </trkpt>
      <trkpt lat="28.6604270" lon="-17.9366250">
        <ele>68.5</ele>
        <time>2020-11-16T20:47:11Z</time>
      </trkpt>
      <trkpt lat="28.6602530" lon="-17.9367880">
        <ele>66.2</ele>
        <time>2020-11-16T20:47:12Z</time>
      </trkpt>
      <trkpt lat="28.6602530" lon="-17.9367880">
        <ele>66.2</ele>
        <time>2020-11-16T20:47:13Z</time>
      </trkpt>
      <trkpt lat="28.6600820" lon="-17.9369520">
        <ele>64.1</ele>
        <time>2020-11-16T20:47:14Z</time>
      </trkpt>
      <trkpt lat="28.6600820" lon="-17.9369520">
        <ele>64.1</ele>
        <time>2020-11-16T20:47:15Z</time>
      </trkpt>
      <trkpt lat="28.6598980" lon="-17.9371130">
        <ele>62.9</ele>
        <time>2020-11-16T20:47:16Z</time>
      </trkpt>
      <trkpt lat="28.6598980" lon="-17.9371130">
        <ele>62.9</ele>
        <time>2020-11-16T20:47:17Z</time>
      </trkpt>
      <trkpt lat="28.6597020" lon="-17.9372700">
        <ele>61.8</ele>
        <time>2020-11-16T20:47:18Z</time>
      </trkpt>
      <trkpt lat="28.6597020" lon="-17.9372700">
        <ele>61.8</ele>
        <time>2020-11-16T20:47:19Z</time>
      </trkpt>
      <trkpt lat="28.6595080" lon="-17.9374200">
        <ele>61.0</ele>
        <time>2020-11-16T20:47:20Z</time>
      </trkpt>
      <trkpt lat="28.6595080" lon="-17.9374200">
        <ele>61.0</ele>
        <time>2020-11-16T20:47:21Z</time>
      </trkpt>
      <trkpt lat="28.6593230" lon="-17.9375600">
        <ele>60.3</ele>
        <time>2020-11-16T20:47:22Z</time>
      </trkpt>
      <trkpt lat="28.6592330" lon="-17.9376270">
        <ele>60.0</ele>
        <time>2020-11-16T20:47:23Z</time>
      </trkpt>
      <trkpt lat="28.6592330" lon="-17.9376270">
        <ele>60.0</ele>
        <time>2020-11-16T20:47:24Z</time>
      </trkpt>
      <trkpt lat="28.6590600" lon="-17.9377630">
        <ele>59.4</ele>
        <time>2020-11-16T20:47:25Z</time>
      </trkpt>
      <trkpt lat="28.6589720" lon="-17.9378320">
        <ele>59.1</ele>
        <time>2020-11-16T20:47:26Z</time>
      </trkpt>
      <trkpt lat="28.6589720" lon="-17.9378320">
        <ele>59.1</ele>
        <time>2020-11-16T20:47:27Z</time>
      </trkpt>
      <trkpt lat="28.6588020" lon="-17.9379630">
        <ele>58.5</ele>
        <time>2020-11-16T20:47:28Z</time>
      </trkpt>
      <trkpt lat="28.6588020" lon="-17.9379630">
        <ele>58.5</ele>
        <time>2020-11-16T20:47:29Z</time>
      </trkpt>
      <trkpt lat="28.6586370" lon="-17.9380870">
        <ele>57.9</ele>
        <time>2020-11-16T20:47:30Z</time>
      </trkpt>
      <trkpt lat="28.6586370" lon="-17.9380870">
        <ele>57.9</ele>
        <time>2020-11-16T20:47:31Z</time>
      </trkpt>
      <trkpt lat="28.6584820" lon="-17.9382030">
        <ele>57.3</ele>
        <time>2020-11-16T20:47:32Z</time>
      </trkpt>
      <trkpt lat="28.6584820" lon="-17.9382030">
        <ele>57.3</ele>
        <time>2020-11-16T20:47:33Z</time>
      </trkpt>
      <trkpt lat="28.6583330" lon="-17.9383150">
        <ele>56.6</ele>
        <time>2020-11-16T20:47:34Z</time>
      </trkpt>
      <trkpt lat="28.6582580" lon="-17.9383680">
        <ele>56.3</ele>
        <time>2020-11-16T20:47:35Z</time>
      </trkpt>
      <trkpt lat="28.6582580" lon="-17.9383680">
        <ele>56.3</ele>
        <time>2020-11-16T20:47:36Z</time>
      </trkpt>
      <trkpt lat="28.6581320" lon="-17.9384950">
        <ele>55.6</ele>
        <time>2020-11-16T20:47:37Z</time>
      </trkpt>
      <trkpt lat="28.6580780" lon="-17.9385750">
        <ele>55.2</ele>
        <time>2020-11-16T20:47:38Z</time>
      </trkpt>
      <trkpt lat="28.6580780" lon="-17.9385750">
        <ele>55.2</ele>
        <time>2020-11-16T20:47:39Z</time>
      </trkpt>
      <trkpt lat="28.6579770" lon="-17.9387450">
        <ele>54.6</ele>
        <time>2020-11-16T20:47:40Z</time>
      </trkpt>
      <trkpt lat="28.6579770" lon="-17.9387450">
        <ele>54.6</ele>
        <time>2020-11-16T20:47:41Z</time>
      </trkpt>
      <trkpt lat="28.6578700" lon="-17.9389170">
        <ele>54.0</ele>
        <time>2020-11-16T20:47:42Z</time>
      </trkpt>
      <trkpt lat="28.6578180" lon="-17.9390020">
        <ele>53.8</ele>
        <time>2020-11-16T20:47:43Z</time>
      </trkpt>
      <trkpt lat="28.6578180" lon="-17.9390020">
        <ele>53.8</ele>
        <time>2020-11-16T20:47:44Z</time>
      </trkpt>
      <trkpt lat="28.6577120" lon="-17.9391670">
        <ele>53.2</ele>
        <time>2020-11-16T20:47:45Z</time>
      </trkpt>
      <trkpt lat="28.6577120" lon="-17.9391670">
        <ele>53.2</ele>
        <time>2020-11-16T20:47:46Z</time>
      </trkpt>
      <trkpt lat="28.6576000" lon="-17.9393380">
        <ele>52.7</ele>
        <time>2020-11-16T20:47:47Z</time>
      </trkpt>
      <trkpt lat="28.6576000" lon="-17.9393380">
        <ele>52.7</ele>
        <time>2020-11-16T20:47:48Z</time>
      </trkpt>
      <trkpt lat="28.6574970" lon="-17.9395130">
        <ele>52.3</ele>
        <time>2020-11-16T20:47:49Z</time>
      </trkpt>
      <trkpt lat="28.6574970" lon="-17.9395130">
        <ele>52.3</ele>
        <time>2020-11-16T20:47:50Z</time>
      </trkpt>
      <trkpt lat="28.6573930" lon="-17.9396770">
        <ele>52.0</ele>
        <time>2020-11-16T20:47:51Z</time>
      </trkpt>
      <trkpt lat="28.6573930" lon="-17.9396770">
        <ele>52.0</ele>
        <time>2020-11-16T20:47:52Z</time>
      </trkpt>
      <trkpt lat="28.6572930" lon="-17.9398330">
        <ele>51.6</ele>
        <time>2020-11-16T20:47:53Z</time>
      </trkpt>
      <trkpt lat="28.6572930" lon="-17.9398330">
        <ele>51.6</ele>
        <time>2020-11-16T20:47:54Z</time>
      </trkpt>
      <trkpt lat="28.6571920" lon="-17.9399800">
        <ele>51.3</ele>
        <time>2020-11-16T20:47:55Z</time>
      </trkpt>
      <trkpt lat="28.6571920" lon="-17.9399800">
        <ele>51.3</ele>
        <time>2020-11-16T20:47:56Z</time>
      </trkpt>
      <trkpt lat="28.6570770" lon="-17.9400970">
        <ele>50.9</ele>
        <time>2020-11-16T20:47:57Z</time>
      </trkpt>
      <trkpt lat="28.6570770" lon="-17.9400970">
        <ele>50.9</ele>
        <time>2020-11-16T20:47:58Z</time>
      </trkpt>
      <trkpt lat="28.6569370" lon="-17.9401420">
        <ele>50.3</ele>
        <time>2020-11-16T20:47:59Z</time>
      </trkpt>
      <trkpt lat="28.6569370" lon="-17.9401420">
        <ele>50.3</ele>
        <time>2020-11-16T20:48:00Z</time>
      </trkpt>
      <trkpt lat="28.6567780" lon="-17.9401980">
        <ele>49.5</ele>
        <time>2020-11-16T20:48:01Z</time>
      </trkpt>
      <trkpt lat="28.6566930" lon="-17.9402270">
        <ele>49.1</ele>
        <time>2020-11-16T20:48:02Z</time>
      </trkpt>
      <trkpt lat="28.6566930" lon="-17.9402270">
        <ele>49.1</ele>
        <time>2020-11-16T20:48:03Z</time>
      </trkpt>
      <trkpt lat="28.6565280" lon="-17.9402900">
        <ele>48.4</ele>
        <time>2020-11-16T20:48:04Z</time>
      </trkpt>
      <trkpt lat="28.6564470" lon="-17.9403220">
        <ele>48.0</ele>
        <time>2020-11-16T20:48:05Z</time>
      </trkpt>
      <trkpt lat="28.6564470" lon="-17.9403220">
        <ele>48.0</ele>
        <time>2020-11-16T20:48:06Z</time>
      </trkpt>
      <trkpt lat="28.6562770" lon="-17.9403830">
        <ele>47.2</ele>
        <time>2020-11-16T20:48:07Z</time>
      </trkpt>
      <trkpt lat="28.6562770" lon="-17.9403830">
        <ele>47.2</ele>
        <time>2020-11-16T20:48:08Z</time>
      </trkpt>
      <trkpt lat="28.6561070" lon="-17.9404470">
        <ele>46.3</ele>
        <time>2020-11-16T20:48:09Z</time>
      </trkpt>
      <trkpt lat="28.6561070" lon="-17.9404470">
        <ele>46.3</ele>
        <time>2020-11-16T20:48:10Z</time>
      </trkpt>
      <trkpt lat="28.6559300" lon="-17.9405170">
        <ele>45.3</ele>
        <time>2020-11-16T20:48:11Z</time>
      </trkpt>
      <trkpt lat="28.6559300" lon="-17.9405170">
        <ele>45.3</ele>
        <time>2020-11-16T20:48:12Z</time>
      </trkpt>
      <trkpt lat="28.6557520" lon="-17.9405820">
        <ele>44.4</ele>
        <time>2020-11-16T20:48:13Z</time>
      </trkpt>
      <trkpt lat="28.6556620" lon="-17.9406120">
        <ele>43.9</ele>
        <time>2020-11-16T20:48:14Z</time>
      </trkpt>
      <trkpt lat="28.6556620" lon="-17.9406120">
        <ele>43.9</ele>
        <time>2020-11-16T20:48:15Z</time>
      </trkpt>
      <trkpt lat="28.6554830" lon="-17.9406750">
        <ele>43.0</ele>
        <time>2020-11-16T20:48:16Z</time>
      </trkpt>
      <trkpt lat="28.6554830" lon="-17.9406750">
        <ele>43.0</ele>
        <time>2020-11-16T20:48:17Z</time>
      </trkpt>
      <trkpt lat="28.6552950" lon="-17.9407480">
        <ele>42.2</ele>
        <time>2020-11-16T20:48:18Z</time>
      </trkpt>
      <trkpt lat="28.6552020" lon="-17.9407800">
        <ele>41.8</ele>
        <time>2020-11-16T20:48:19Z</time>
      </trkpt>
      <trkpt lat="28.6551050" lon="-17.9408100">
        <ele>41.4</ele>
        <time>2020-11-16T20:48:20Z</time>
      </trkpt>
      <trkpt lat="28.6551050" lon="-17.9408100">
        <ele>41.4</ele>
        <time>2020-11-16T20:48:21Z</time>
      </trkpt>
      <trkpt lat="28.6549170" lon="-17.9408770">
        <ele>40.6</ele>
        <time>2020-11-16T20:48:22Z</time>
      </trkpt>
      <trkpt lat="28.6548230" lon="-17.9409130">
        <ele>40.0</ele>
        <time>2020-11-16T20:48:23Z</time>
      </trkpt>
      <trkpt lat="28.6548230" lon="-17.9409130">
        <ele>40.0</ele>
        <time>2020-11-16T20:48:24Z</time>
      </trkpt>
      <trkpt lat="28.6546380" lon="-17.9409900">
        <ele>39.1</ele>
        <time>2020-11-16T20:48:25Z</time>
      </trkpt>
      <trkpt lat="28.6546380" lon="-17.9409900">
        <ele>39.1</ele>
        <time>2020-11-16T20:48:26Z</time>
      </trkpt>
      <trkpt lat="28.6544670" lon="-17.9410720">
        <ele>38.4</ele>
        <time>2020-11-16T20:48:27Z</time>
      </trkpt>
      <trkpt lat="28.6544670" lon="-17.9410720">
        <ele>38.4</ele>
        <time>2020-11-16T20:48:28Z</time>
      </trkpt>
      <trkpt lat="28.6542950" lon="-17.9411650">
        <ele>37.4</ele>
        <time>2020-11-16T20:48:29Z</time>
      </trkpt>
      <trkpt lat="28.6542950" lon="-17.9411650">
        <ele>37.4</ele>
        <time>2020-11-16T20:48:30Z</time>
      </trkpt>
      <trkpt lat="28.6541250" lon="-17.9412700">
        <ele>36.5</ele>
        <time>2020-11-16T20:48:31Z</time>
      </trkpt>
      <trkpt lat="28.6541250" lon="-17.9412700">
        <ele>36.5</ele>
        <time>2020-11-16T20:48:32Z</time>
      </trkpt>
      <trkpt lat="28.6540480" lon="-17.9413250">
        <ele>36.0</ele>
        <time>2020-11-16T20:48:33Z</time>
      </trkpt>
      <trkpt lat="28.6538970" lon="-17.9414470">
        <ele>35.1</ele>
        <time>2020-11-16T20:48:34Z</time>
      </trkpt>
      <trkpt lat="28.6538970" lon="-17.9414470">
        <ele>35.1</ele>
        <time>2020-11-16T20:48:35Z</time>
      </trkpt>
      <trkpt lat="28.6537480" lon="-17.9415680">
        <ele>34.2</ele>
        <time>2020-11-16T20:48:36Z</time>
      </trkpt>
      <trkpt lat="28.6537480" lon="-17.9415680">
        <ele>34.2</ele>
        <time>2020-11-16T20:48:37Z</time>
      </trkpt>
      <trkpt lat="28.6535970" lon="-17.9416980">
        <ele>33.4</ele>
        <time>2020-11-16T20:48:38Z</time>
      </trkpt>
      <trkpt lat="28.6535970" lon="-17.9416980">
        <ele>33.4</ele>
        <time>2020-11-16T20:48:39Z</time>
      </trkpt>
      <trkpt lat="28.6534500" lon="-17.9418380">
        <ele>32.6</ele>
        <time>2020-11-16T20:48:40Z</time>
      </trkpt>
      <trkpt lat="28.6534500" lon="-17.9418380">
        <ele>32.6</ele>
        <time>2020-11-16T20:48:41Z</time>
      </trkpt>
      <trkpt lat="28.6533180" lon="-17.9419950">
        <ele>31.9</ele>
        <time>2020-11-16T20:48:42Z</time>
      </trkpt>
      <trkpt lat="28.6533180" lon="-17.9419950">
        <ele>31.9</ele>
        <time>2020-11-16T20:48:43Z</time>
      </trkpt>
      <trkpt lat="28.6531900" lon="-17.9421420">
        <ele>31.3</ele>
        <time>2020-11-16T20:48:44Z</time>
      </trkpt>
      <trkpt lat="28.6531900" lon="-17.9421420">
        <ele>31.3</ele>
        <time>2020-11-16T20:48:45Z</time>
      </trkpt>
      <trkpt lat="28.6530620" lon="-17.9422850">
        <ele>30.7</ele>
        <time>2020-11-16T20:48:46Z</time>
      </trkpt>
      <trkpt lat="28.6529970" lon="-17.9423570">
        <ele>30.4</ele>
        <time>2020-11-16T20:48:47Z</time>
      </trkpt>
      <trkpt lat="28.6529970" lon="-17.9423570">
        <ele>30.4</ele>
        <time>2020-11-16T20:48:48Z</time>
      </trkpt>
      <trkpt lat="28.6528650" lon="-17.9425070">
        <ele>29.7</ele>
        <time>2020-11-16T20:48:49Z</time>
      </trkpt>
      <trkpt lat="28.6528650" lon="-17.9425070">
        <ele>29.7</ele>
        <time>2020-11-16T20:48:50Z</time>
      </trkpt>
      <trkpt lat="28.6527400" lon="-17.9426520">
        <ele>29.1</ele>
        <time>2020-11-16T20:48:51Z</time>
      </trkpt>
      <trkpt lat="28.6527400" lon="-17.9426520">
        <ele>29.1</ele>
        <time>2020-11-16T20:48:52Z</time>
      </trkpt>
      <trkpt lat="28.6526220" lon="-17.9427930">
        <ele>28.5</ele>
        <time>2020-11-16T20:48:53Z</time>
      </trkpt>
      <trkpt lat="28.6526220" lon="-17.9427930">
        <ele>28.5</ele>
        <time>2020-11-16T20:48:54Z</time>
      </trkpt>
      <trkpt lat="28.6525050" lon="-17.9429370">
        <ele>28.0</ele>
        <time>2020-11-16T20:48:55Z</time>
      </trkpt>
      <trkpt lat="28.6525050" lon="-17.9429370">
        <ele>28.0</ele>
        <time>2020-11-16T20:48:56Z</time>
      </trkpt>
      <trkpt lat="28.6523850" lon="-17.9430770">
        <ele>27.5</ele>
        <time>2020-11-16T20:48:57Z</time>
      </trkpt>
      <trkpt lat="28.6523850" lon="-17.9430770">
        <ele>27.5</ele>
        <time>2020-11-16T20:48:58Z</time>
      </trkpt>
      <trkpt lat="28.6522620" lon="-17.9432200">
        <ele>27.1</ele>
        <time>2020-11-16T20:48:59Z</time>
      </trkpt>
      <trkpt lat="28.6521980" lon="-17.9432950">
        <ele>26.8</ele>
        <time>2020-11-16T20:49:00Z</time>
      </trkpt>
      <trkpt lat="28.6521980" lon="-17.9432950">
        <ele>26.8</ele>
        <time>2020-11-16T20:49:01Z</time>
      </trkpt>
      <trkpt lat="28.6520730" lon="-17.9434400">
        <ele>26.4</ele>
        <time>2020-11-16T20:49:02Z</time>
      </trkpt>
      <trkpt lat="28.6520730" lon="-17.9434400">
        <ele>26.4</ele>
        <time>2020-11-16T20:49:03Z</time>
      </trkpt>
      <trkpt lat="28.6519550" lon="-17.9435800">
        <ele>26.0</ele>
        <time>2020-11-16T20:49:04Z</time>
      </trkpt>
      <trkpt lat="28.6519550" lon="-17.9435800">
        <ele>26.0</ele>
        <time>2020-11-16T20:49:05Z</time>
      </trkpt>
      <trkpt lat="28.6518950" lon="-17.9436470">
        <ele>25.7</ele>
        <time>2020-11-16T20:49:06Z</time>
      </trkpt>
      <trkpt lat="28.6517750" lon="-17.9437850">
        <ele>25.1</ele>
        <time>2020-11-16T20:49:07Z</time>
      </trkpt>
      <trkpt lat="28.6517130" lon="-17.9438550">
        <ele>24.8</ele>
        <time>2020-11-16T20:49:08Z</time>
      </trkpt>
      <trkpt lat="28.6517130" lon="-17.9438550">
        <ele>24.8</ele>
        <time>2020-11-16T20:49:09Z</time>
      </trkpt>
      <trkpt lat="28.6515930" lon="-17.9439930">
        <ele>24.1</ele>
        <time>2020-11-16T20:49:10Z</time>
      </trkpt>
      <trkpt lat="28.6515930" lon="-17.9439930">
        <ele>24.1</ele>
        <time>2020-11-16T20:49:11Z</time>
      </trkpt>
      <trkpt lat="28.6514620" lon="-17.9441420">
        <ele>23.4</ele>
        <time>2020-11-16T20:49:12Z</time>
      </trkpt>
      <trkpt lat="28.6514620" lon="-17.9441420">
        <ele>23.4</ele>
        <time>2020-11-16T20:49:13Z</time>
      </trkpt>
      <trkpt lat="28.6513430" lon="-17.9442820">
        <ele>22.7</ele>
        <time>2020-11-16T20:49:14Z</time>
      </trkpt>
      <trkpt lat="28.6512850" lon="-17.9443470">
        <ele>22.3</ele>
        <time>2020-11-16T20:49:15Z</time>
      </trkpt>
      <trkpt lat="28.6512850" lon="-17.9443470">
        <ele>22.3</ele>
        <time>2020-11-16T20:49:16Z</time>
      </trkpt>
      <trkpt lat="28.6511630" lon="-17.9444830">
        <ele>21.5</ele>
        <time>2020-11-16T20:49:17Z</time>
      </trkpt>
      <trkpt lat="28.6511030" lon="-17.9445530">
        <ele>21.1</ele>
        <time>2020-11-16T20:49:18Z</time>
      </trkpt>
      <trkpt lat="28.6511030" lon="-17.9445530">
        <ele>21.1</ele>
        <time>2020-11-16T20:49:19Z</time>
      </trkpt>
      <trkpt lat="28.6509980" lon="-17.9446820">
        <ele>20.3</ele>
        <time>2020-11-16T20:49:20Z</time>
      </trkpt>
      <trkpt lat="28.6509980" lon="-17.9446820">
        <ele>20.3</ele>
        <time>2020-11-16T20:49:21Z</time>
      </trkpt>
      <trkpt lat="28.6509400" lon="-17.9448120">
        <ele>20.2</ele>
        <time>2020-11-16T20:49:22Z</time>
      </trkpt>
      <trkpt lat="28.6509400" lon="-17.9448120">
        <ele>20.2</ele>
        <time>2020-11-16T20:49:23Z</time>
      </trkpt>
      <trkpt lat="28.6509080" lon="-17.9449380">
        <ele>20.2</ele>
        <time>2020-11-16T20:49:24Z</time>
      </trkpt>
      <trkpt lat="28.6509080" lon="-17.9449380">
        <ele>20.2</ele>
        <time>2020-11-16T20:49:25Z</time>
      </trkpt>
      <trkpt lat="28.6509300" lon="-17.9450450">
        <ele>19.0</ele>
        <time>2020-11-16T20:49:26Z</time>
      </trkpt>
      <trkpt lat="28.6509300" lon="-17.9450450">
        <ele>19.0</ele>
        <time>2020-11-16T20:49:27Z</time>
      </trkpt>
      <trkpt lat="28.6509750" lon="-17.9451250">
        <ele>17.9</ele>
        <time>2020-11-16T20:49:28Z</time>
      </trkpt>
      <trkpt lat="28.6509750" lon="-17.9451250">
        <ele>17.9</ele>
        <time>2020-11-16T20:49:29Z</time>
      </trkpt>
      <trkpt lat="28.6510400" lon="-17.9452030">
        <ele>16.4</ele>
        <time>2020-11-16T20:49:30Z</time>
      </trkpt>
      <trkpt lat="28.6510400" lon="-17.9452030">
        <ele>16.4</ele>
        <time>2020-11-16T20:49:31Z</time>
      </trkpt>
      <trkpt lat="28.6510970" lon="-17.9452630">
        <ele>16.2</ele>
        <time>2020-11-16T20:49:32Z</time>
      </trkpt>
      <trkpt lat="28.6510970" lon="-17.9452630">
        <ele>16.2</ele>
        <time>2020-11-16T20:49:33Z</time>
      </trkpt>
      <trkpt lat="28.6511470" lon="-17.9452950">
        <ele>16.3</ele>
        <time>2020-11-16T20:49:34Z</time>
      </trkpt>
      <trkpt lat="28.6511470" lon="-17.9452950">
        <ele>16.3</ele>
        <time>2020-11-16T20:49:35Z</time>
      </trkpt>
      <trkpt lat="28.6512100" lon="-17.9453170">
        <ele>16.3</ele>
        <time>2020-11-16T20:49:36Z</time>
      </trkpt>
      <trkpt lat="28.6512430" lon="-17.9453150">
        <ele>16.3</ele>
        <time>2020-11-16T20:49:37Z</time>
      </trkpt>
      <trkpt lat="28.6512430" lon="-17.9453150">
        <ele>16.3</ele>
        <time>2020-11-16T20:49:38Z</time>
      </trkpt>
      <trkpt lat="28.6513130" lon="-17.9453070">
        <ele>16.3</ele>
        <time>2020-11-16T20:49:39Z</time>
      </trkpt>
      <trkpt lat="28.6513430" lon="-17.9453000">
        <ele>16.4</ele>
        <time>2020-11-16T20:49:40Z</time>
      </trkpt>
      <trkpt lat="28.6513430" lon="-17.9453000">
        <ele>16.4</ele>
        <time>2020-11-16T20:49:41Z</time>
      </trkpt>
      <trkpt lat="28.6514100" lon="-17.9453000">
        <ele>16.4</ele>
        <time>2020-11-16T20:49:42Z</time>
      </trkpt>
      <trkpt lat="28.6514430" lon="-17.9453100">
        <ele>16.5</ele>
        <time>2020-11-16T20:49:43Z</time>
      </trkpt>
      <trkpt lat="28.6514430" lon="-17.9453100">
        <ele>16.5</ele>
        <time>2020-11-16T20:49:44Z</time>
      </trkpt>
      <trkpt lat="28.6515030" lon="-17.9453470">
        <ele>16.5</ele>
        <time>2020-11-16T20:49:45Z</time>
      </trkpt>
      <trkpt lat="28.6515030" lon="-17.9453470">
        <ele>16.5</ele>
        <time>2020-11-16T20:49:46Z</time>
      </trkpt>
      <trkpt lat="28.6515530" lon="-17.9453900">
        <ele>16.6</ele>
        <time>2020-11-16T20:49:47Z</time>
      </trkpt>
      <trkpt lat="28.6515780" lon="-17.9454130">
        <ele>16.6</ele>
        <time>2020-11-16T20:49:48Z</time>
      </trkpt>
      <trkpt lat="28.6515780" lon="-17.9454130">
        <ele>16.6</ele>
        <time>2020-11-16T20:49:49Z</time>
      </trkpt>
      <trkpt lat="28.6516300" lon="-17.9454620">
        <ele>16.8</ele>
        <time>2020-11-16T20:49:50Z</time>
      </trkpt>
      <trkpt lat="28.6516300" lon="-17.9454620">
        <ele>16.8</ele>
        <time>2020-11-16T20:49:51Z</time>
      </trkpt>
      <trkpt lat="28.6516750" lon="-17.9455070">
        <ele>17.0</ele>
        <time>2020-11-16T20:49:52Z</time>
      </trkpt>
      <trkpt lat="28.6516750" lon="-17.9455070">
        <ele>17.0</ele>
        <time>2020-11-16T20:49:53Z</time>
      </trkpt>
      <trkpt lat="28.6517250" lon="-17.9455550">
        <ele>17.0</ele>
        <time>2020-11-16T20:49:54Z</time>
      </trkpt>
      <trkpt lat="28.6517250" lon="-17.9455550">
        <ele>17.0</ele>
        <time>2020-11-16T20:49:55Z</time>
      </trkpt>
      <trkpt lat="28.6517480" lon="-17.9455800">
        <ele>17.0</ele>
        <time>2020-11-16T20:49:56Z</time>
      </trkpt>
      <trkpt lat="28.6518000" lon="-17.9456370">
        <ele>17.0</ele>
        <time>2020-11-16T20:49:57Z</time>
      </trkpt>
      <trkpt lat="28.6518000" lon="-17.9456370">
        <ele>17.0</ele>
        <time>2020-11-16T20:49:58Z</time>
      </trkpt>
      <trkpt lat="28.6518430" lon="-17.9456920">
        <ele>17.1</ele>
        <time>2020-11-16T20:49:59Z</time>
      </trkpt>
      <trkpt lat="28.6518650" lon="-17.9457220">
        <ele>17.1</ele>
        <time>2020-11-16T20:50:00Z</time>
      </trkpt>
      <trkpt lat="28.6518870" lon="-17.9457480">
        <ele>17.1</ele>
        <time>2020-11-16T20:50:01Z</time>
      </trkpt>
      <trkpt lat="28.6518870" lon="-17.9457480">
        <ele>17.1</ele>
        <time>2020-11-16T20:50:02Z</time>
      </trkpt>
      <trkpt lat="28.6519270" lon="-17.9458080">
        <ele>17.1</ele>
        <time>2020-11-16T20:50:03Z</time>
      </trkpt>
      <trkpt lat="28.6519270" lon="-17.9458080">
        <ele>17.1</ele>
        <time>2020-11-16T20:50:04Z</time>
      </trkpt>
      <trkpt lat="28.6519580" lon="-17.9458750">
        <ele>17.2</ele>
        <time>2020-11-16T20:50:05Z</time>
      </trkpt>
      <trkpt lat="28.6519580" lon="-17.9458750">
        <ele>17.2</ele>
        <time>2020-11-16T20:50:06Z</time>
      </trkpt>
      <trkpt lat="28.6519570" lon="-17.9459530">
        <ele>17.3</ele>
        <time>2020-11-16T20:50:07Z</time>
      </trkpt>
      <trkpt lat="28.6519470" lon="-17.9459980">
        <ele>17.4</ele>
        <time>2020-11-16T20:50:08Z</time>
      </trkpt>
      <trkpt lat="28.6519470" lon="-17.9459980">
        <ele>17.4</ele>
        <time>2020-11-16T20:50:09Z</time>
      </trkpt>
      <trkpt lat="28.6519030" lon="-17.9460650">
        <ele>16.3</ele>
        <time>2020-11-16T20:50:10Z</time>
      </trkpt>
      <trkpt lat="28.6519030" lon="-17.9460650">
        <ele>16.3</ele>
        <time>2020-11-16T20:50:11Z</time>
      </trkpt>
      <trkpt lat="28.6518750" lon="-17.9461200">
        <ele>14.4</ele>
        <time>2020-11-16T20:50:12Z</time>
      </trkpt>
      <trkpt lat="28.6518720" lon="-17.9461470">
        <ele>13.6</ele>
        <time>2020-11-16T20:50:13Z</time>
      </trkpt>
      <trkpt lat="28.6518720" lon="-17.9461470">
        <ele>13.6</ele>
        <time>2020-11-16T20:50:14Z</time>
      </trkpt>
      <trkpt lat="28.6518630" lon="-17.9462120">
        <ele>11.6</ele>
        <time>2020-11-16T20:50:15Z</time>
      </trkpt>
      <trkpt lat="28.6518630" lon="-17.9462120">
        <ele>11.6</ele>
        <time>2020-11-16T20:50:16Z</time>
      </trkpt>
      <trkpt lat="28.6518480" lon="-17.9462650">
        <ele>9.8</ele>
        <time>2020-11-16T20:50:17Z</time>
      </trkpt>
      <trkpt lat="28.6518570" lon="-17.9462850">
        <ele>9.1</ele>
        <time>2020-11-16T20:50:18Z</time>
      </trkpt>
      <trkpt lat="28.6518570" lon="-17.9462850">
        <ele>9.1</ele>
        <time>2020-11-16T20:50:19Z</time>
      </trkpt>
      <trkpt lat="28.6518570" lon="-17.9462850">
        <ele>9.1</ele>
        <time>2020-11-16T20:50:20Z</time>
      </trkpt>
      <trkpt lat="28.6518680" lon="-17.9463320">
        <ele>7.6</ele>
        <time>2020-11-16T20:50:21Z</time>
      </trkpt>
      <trkpt lat="28.6518570" lon="-17.9463900">
        <ele>7.2</ele>
        <time>2020-11-16T20:50:22Z</time>
      </trkpt>
      <trkpt lat="28.6518570" lon="-17.9463900">
        <ele>7.2</ele>
        <time>2020-11-16T20:50:23Z</time>
      </trkpt>
      <trkpt lat="28.6518430" lon="-17.9464480">
        <ele>7.1</ele>
        <time>2020-11-16T20:50:24Z</time>
      </trkpt>
      <trkpt lat="28.6518430" lon="-17.9464480">
        <ele>7.1</ele>
        <time>2020-11-16T20:50:25Z</time>
      </trkpt>
      <trkpt lat="28.6518180" lon="-17.9464970">
        <ele>7.1</ele>
        <time>2020-11-16T20:50:26Z</time>
      </trkpt>
      <trkpt lat="28.6518180" lon="-17.9464970">
        <ele>7.1</ele>
        <time>2020-11-16T20:50:27Z</time>
      </trkpt>
      <trkpt lat="28.6517920" lon="-17.9465420">
        <ele>7.0</ele>
        <time>2020-11-16T20:50:28Z</time>
      </trkpt>
      <trkpt lat="28.6517780" lon="-17.9465680">
        <ele>7.0</ele>
        <time>2020-11-16T20:50:29Z</time>
      </trkpt>
      <trkpt lat="28.6517780" lon="-17.9465680">
        <ele>7.0</ele>
        <time>2020-11-16T20:50:30Z</time>
      </trkpt>
      <trkpt lat="28.6517530" lon="-17.9466170">
        <ele>6.9</ele>
        <time>2020-11-16T20:50:31Z</time>
      </trkpt>
      <trkpt lat="28.6517430" lon="-17.9466350">
        <ele>6.9</ele>
        <time>2020-11-16T20:50:32Z</time>
      </trkpt>
      <trkpt lat="28.6517430" lon="-17.9466350">
        <ele>6.9</ele>
        <time>2020-11-16T20:50:33Z</time>
      </trkpt>
      <trkpt lat="28.6517320" lon="-17.9466550">
        <ele>6.9</ele>
        <time>2020-11-16T20:50:34Z</time>
      </trkpt>
      <trkpt lat="28.6517420" lon="-17.9466550">
        <ele>6.9</ele>
        <time>2020-11-16T20:50:35Z</time>
      </trkpt>
      <trkpt lat="28.6517420" lon="-17.9466550">
        <ele>6.9</ele>
        <time>2020-11-16T20:50:36Z</time>
      </trkpt>
      <trkpt lat="28.6517630" lon="-17.9466750">
        <ele>6.8</ele>
        <time>2020-11-16T20:50:37Z</time>
      </trkpt>
      <trkpt lat="28.6517700" lon="-17.9466850">
        <ele>6.8</ele>
        <time>2020-11-16T20:50:38Z</time>
      </trkpt>
      <trkpt lat="28.6517700" lon="-17.9466850">
        <ele>6.8</ele>
        <time>2020-11-16T20:50:39Z</time>
      </trkpt>
      <trkpt lat="28.6517820" lon="-17.9467050">
        <ele>6.8</ele>
        <time>2020-11-16T20:50:40Z</time>
      </trkpt>
      <trkpt lat="28.6517820" lon="-17.9467050">
        <ele>6.8</ele>
        <time>2020-11-16T20:50:41Z</time>
      </trkpt>
      <trkpt lat="28.6517850" lon="-17.9467180">
        <ele>6.8</ele>
        <time>2020-11-16T20:50:42Z</time>
      </trkpt>
      <trkpt lat="28.6517850" lon="-17.9467180">
        <ele>6.8</ele>
        <time>2020-11-16T20:50:43Z</time>
      </trkpt>
      <trkpt lat="28.6517850" lon="-17.9467150">
        <ele>6.8</ele>
        <time>2020-11-16T20:50:44Z</time>
      </trkpt>
      <trkpt lat="28.6517850" lon="-17.9467150">
        <ele>6.8</ele>
        <time>2020-11-16T21:14:19Z</time>
      </trkpt>
      <trkpt lat="28.6517480" lon="-17.9470100">
        <ele>2.1</ele>
        <time>2020-11-16T21:14:20Z</time>
      </trkpt>
      <trkpt lat="28.6517480" lon="-17.9470100">
        <ele>2.1</ele>
        <time>2020-11-16T21:14:21Z</time>
      </trkpt>
      <trkpt lat="28.6517430" lon="-17.9469950">
        <ele>2.9</ele>
        <time>2020-11-16T21:14:22Z</time>
      </trkpt>
      <trkpt lat="28.6517430" lon="-17.9469950">
        <ele>2.9</ele>
        <time>2020-11-16T21:19:32Z</time>
      </trkpt>
      <trkpt lat="28.6517430" lon="-17.9469950">
        <ele>2.9</ele>
        <time>2020-11-16T21:19:33Z</time>
      </trkpt>
      <trkpt lat="28.6516500" lon="-17.9467920">
        <ele>5.2</ele>
        <time>2020-11-16T21:19:34Z</time>
      </trkpt>
      <trkpt lat="28.6516500" lon="-17.9467920">
        <ele>5.2</ele>
        <time>2020-11-16T21:19:35Z</time>
      </trkpt>
      <trkpt lat="28.6516600" lon="-17.9467620">
        <ele>5.5</ele>
        <time>2020-11-16T21:19:36Z</time>
      </trkpt>
      <trkpt lat="28.6516600" lon="-17.9467620">
        <ele>5.5</ele>
        <time>2020-11-16T21:19:37Z</time>
      </trkpt>
      <trkpt lat="28.6516750" lon="-17.9467200">
        <ele>6.0</ele>
        <time>2020-11-16T21:19:38Z</time>
      </trkpt>
      <trkpt lat="28.6516750" lon="-17.9467200">
        <ele>6.0</ele>
        <time>2020-11-16T21:19:39Z</time>
      </trkpt>
      <trkpt lat="28.6516870" lon="-17.9466430">
        <ele>6.8</ele>
        <time>2020-11-16T21:19:40Z</time>
      </trkpt>
      <trkpt lat="28.6516870" lon="-17.9466430">
        <ele>6.8</ele>
        <time>2020-11-16T21:19:41Z</time>
      </trkpt>
      <trkpt lat="28.6517120" lon="-17.9465780">
        <ele>6.9</ele>
        <time>2020-11-16T21:19:42Z</time>
      </trkpt>
      <trkpt lat="28.6517120" lon="-17.9465780">
        <ele>6.9</ele>
        <time>2020-11-16T21:19:43Z</time>
      </trkpt>
      <trkpt lat="28.6517430" lon="-17.9465250">
        <ele>7.0</ele>
        <time>2020-11-16T21:19:44Z</time>
      </trkpt>
      <trkpt lat="28.6517600" lon="-17.9465020">
        <ele>7.0</ele>
        <time>2020-11-16T21:19:45Z</time>
      </trkpt>
      <trkpt lat="28.6517600" lon="-17.9465020">
        <ele>7.0</ele>
        <time>2020-11-16T21:19:46Z</time>
      </trkpt>
      <trkpt lat="28.6517800" lon="-17.9464500">
        <ele>7.1</ele>
        <time>2020-11-16T21:19:47Z</time>
      </trkpt>
      <trkpt lat="28.6517800" lon="-17.9464500">
        <ele>7.1</ele>
        <time>2020-11-16T21:19:48Z</time>
      </trkpt>
      <trkpt lat="28.6517720" lon="-17.9464030">
        <ele>7.1</ele>
        <time>2020-11-16T21:19:49Z</time>
      </trkpt>
      <trkpt lat="28.6517780" lon="-17.9463800">
        <ele>7.2</ele>
        <time>2020-11-16T21:19:50Z</time>
      </trkpt>
      <trkpt lat="28.6517780" lon="-17.9463800">
        <ele>7.2</ele>
        <time>2020-11-16T21:19:51Z</time>
      </trkpt>
      <trkpt lat="28.6518020" lon="-17.9463420">
        <ele>7.2</ele>
        <time>2020-11-16T21:19:52Z</time>
      </trkpt>
      <trkpt lat="28.6518020" lon="-17.9463420">
        <ele>7.2</ele>
        <time>2020-11-16T21:19:53Z</time>
      </trkpt>
      <trkpt lat="28.6518220" lon="-17.9463030">
        <ele>7.6</ele>
        <time>2020-11-16T21:19:54Z</time>
      </trkpt>
      <trkpt lat="28.6518220" lon="-17.9463030">
        <ele>7.6</ele>
        <time>2020-11-16T21:19:55Z</time>
      </trkpt>
      <trkpt lat="28.6518330" lon="-17.9462570">
        <ele>9.7</ele>
        <time>2020-11-16T21:19:56Z</time>
      </trkpt>
      <trkpt lat="28.6518330" lon="-17.9462570">
        <ele>9.7</ele>
        <time>2020-11-16T21:19:57Z</time>
      </trkpt>
      <trkpt lat="28.6518370" lon="-17.9462120">
        <ele>11.7</ele>
        <time>2020-11-16T21:19:58Z</time>
      </trkpt>
      <trkpt lat="28.6518370" lon="-17.9462120">
        <ele>11.7</ele>
        <time>2020-11-16T21:19:59Z</time>
      </trkpt>
      <trkpt lat="28.6518350" lon="-17.9461600">
        <ele>13.9</ele>
        <time>2020-11-16T21:20:00Z</time>
      </trkpt>
      <trkpt lat="28.6518350" lon="-17.9461600">
        <ele>17.1</ele>
        <time>2020-11-16T21:20:01Z</time>
      </trkpt>
      <trkpt lat="28.6518150" lon="-17.9461030">
        <ele>17.0</ele>
        <time>2020-11-16T21:20:02Z</time>
      </trkpt>
      <trkpt lat="28.6518150" lon="-17.9461030">
        <ele>17.0</ele>
        <time>2020-11-16T21:20:03Z</time>
      </trkpt>
      <trkpt lat="28.6517870" lon="-17.9460600">
        <ele>16.9</ele>
        <time>2020-11-16T21:20:04Z</time>
      </trkpt>
      <trkpt lat="28.6517870" lon="-17.9460600">
        <ele>16.9</ele>
        <time>2020-11-16T21:20:05Z</time>
      </trkpt>
      <trkpt lat="28.6517570" lon="-17.9460050">
        <ele>16.9</ele>
        <time>2020-11-16T21:20:06Z</time>
      </trkpt>
      <trkpt lat="28.6517570" lon="-17.9460050">
        <ele>16.9</ele>
        <time>2020-11-16T21:20:07Z</time>
      </trkpt>
      <trkpt lat="28.6517020" lon="-17.9459530">
        <ele>16.8</ele>
        <time>2020-11-16T21:20:08Z</time>
      </trkpt>
      <trkpt lat="28.6517020" lon="-17.9459530">
        <ele>16.8</ele>
        <time>2020-11-16T21:20:09Z</time>
      </trkpt>
      <trkpt lat="28.6516470" lon="-17.9458950">
        <ele>16.6</ele>
        <time>2020-11-16T21:20:10Z</time>
      </trkpt>
      <trkpt lat="28.6516470" lon="-17.9458950">
        <ele>16.6</ele>
        <time>2020-11-16T21:20:11Z</time>
      </trkpt>
      <trkpt lat="28.6515880" lon="-17.9458450">
        <ele>16.5</ele>
        <time>2020-11-16T21:20:12Z</time>
      </trkpt>
      <trkpt lat="28.6515880" lon="-17.9458450">
        <ele>16.5</ele>
        <time>2020-11-16T21:20:13Z</time>
      </trkpt>
      <trkpt lat="28.6515350" lon="-17.9457750">
        <ele>16.4</ele>
        <time>2020-11-16T21:20:14Z</time>
      </trkpt>
      <trkpt lat="28.6515350" lon="-17.9457750">
        <ele>16.4</ele>
        <time>2020-11-16T21:20:15Z</time>
      </trkpt>
      <trkpt lat="28.6514770" lon="-17.9457070">
        <ele>16.3</ele>
        <time>2020-11-16T21:20:16Z</time>
      </trkpt>
      <trkpt lat="28.6514770" lon="-17.9457070">
        <ele>16.3</ele>
        <time>2020-11-16T21:20:17Z</time>
      </trkpt>
      <trkpt lat="28.6514170" lon="-17.9456430">
        <ele>16.1</ele>
        <time>2020-11-16T21:20:18Z</time>
      </trkpt>
      <trkpt lat="28.6514170" lon="-17.9456430">
        <ele>16.1</ele>
        <time>2020-11-16T21:20:19Z</time>
      </trkpt>
      <trkpt lat="28.6513620" lon="-17.9455800">
        <ele>16.0</ele>
        <time>2020-11-16T21:20:20Z</time>
      </trkpt>
      <trkpt lat="28.6513620" lon="-17.9455800">
        <ele>16.0</ele>
        <time>2020-11-16T21:20:21Z</time>
      </trkpt>
      <trkpt lat="28.6513020" lon="-17.9455180">
        <ele>16.0</ele>
        <time>2020-11-16T21:20:22Z</time>
      </trkpt>
      <trkpt lat="28.6513020" lon="-17.9455180">
        <ele>16.0</ele>
        <time>2020-11-16T21:20:23Z</time>
      </trkpt>
      <trkpt lat="28.6512450" lon="-17.9454620">
        <ele>16.0</ele>
        <time>2020-11-16T21:20:24Z</time>
      </trkpt>
      <trkpt lat="28.6512450" lon="-17.9454620">
        <ele>16.0</ele>
        <time>2020-11-16T21:20:25Z</time>
      </trkpt>
      <trkpt lat="28.6511820" lon="-17.9454120">
        <ele>16.1</ele>
        <time>2020-11-16T21:20:26Z</time>
      </trkpt>
      <trkpt lat="28.6511820" lon="-17.9454120">
        <ele>16.1</ele>
        <time>2020-11-16T21:20:27Z</time>
      </trkpt>
      <trkpt lat="28.6511170" lon="-17.9453600">
        <ele>16.1</ele>
        <time>2020-11-16T21:20:28Z</time>
      </trkpt>
      <trkpt lat="28.6511170" lon="-17.9453600">
        <ele>16.1</ele>
        <time>2020-11-16T21:20:29Z</time>
      </trkpt>
      <trkpt lat="28.6510500" lon="-17.9453170">
        <ele>16.2</ele>
        <time>2020-11-16T21:20:30Z</time>
      </trkpt>
      <trkpt lat="28.6510120" lon="-17.9452970">
        <ele>16.3</ele>
        <time>2020-11-16T21:20:31Z</time>
      </trkpt>
      <trkpt lat="28.6510120" lon="-17.9452970">
        <ele>16.3</ele>
        <time>2020-11-16T21:20:32Z</time>
      </trkpt>
      <trkpt lat="28.6509280" lon="-17.9452650">
        <ele>16.4</ele>
        <time>2020-11-16T21:20:33Z</time>
      </trkpt>
      <trkpt lat="28.6508850" lon="-17.9452570">
        <ele>16.4</ele>
        <time>2020-11-16T21:20:34Z</time>
      </trkpt>
      <trkpt lat="28.6508850" lon="-17.9452570">
        <ele>16.4</ele>
        <time>2020-11-16T21:20:35Z</time>
      </trkpt>
      <trkpt lat="28.6508020" lon="-17.9452530">
        <ele>16.2</ele>
        <time>2020-11-16T21:20:36Z</time>
      </trkpt>
      <trkpt lat="28.6508020" lon="-17.9452530">
        <ele>16.2</ele>
        <time>2020-11-16T21:20:37Z</time>
      </trkpt>
      <trkpt lat="28.6507080" lon="-17.9452680">
        <ele>16.1</ele>
        <time>2020-11-16T21:20:38Z</time>
      </trkpt>
      <trkpt lat="28.6507080" lon="-17.9452680">
        <ele>16.1</ele>
        <time>2020-11-16T21:20:39Z</time>
      </trkpt>
      <trkpt lat="28.6506150" lon="-17.9453100">
        <ele>15.9</ele>
        <time>2020-11-16T21:20:40Z</time>
      </trkpt>
      <trkpt lat="28.6506150" lon="-17.9453100">
        <ele>15.9</ele>
        <time>2020-11-16T21:20:41Z</time>
      </trkpt>
      <trkpt lat="28.6505370" lon="-17.9453530">
        <ele>15.8</ele>
        <time>2020-11-16T21:20:42Z</time>
      </trkpt>
      <trkpt lat="28.6505370" lon="-17.9453530">
        <ele>15.8</ele>
        <time>2020-11-16T21:20:43Z</time>
      </trkpt>
      <trkpt lat="28.6504720" lon="-17.9453800">
        <ele>15.8</ele>
        <time>2020-11-16T21:20:44Z</time>
      </trkpt>
      <trkpt lat="28.6504720" lon="-17.9453800">
        <ele>15.8</ele>
        <time>2020-11-16T21:20:45Z</time>
      </trkpt>
      <trkpt lat="28.6504170" lon="-17.9454070">
        <ele>15.8</ele>
        <time>2020-11-16T21:20:46Z</time>
      </trkpt>
      <trkpt lat="28.6504170" lon="-17.9454070">
        <ele>15.8</ele>
        <time>2020-11-16T21:20:47Z</time>
      </trkpt>
      <trkpt lat="28.6503670" lon="-17.9454300">
        <ele>15.8</ele>
        <time>2020-11-16T21:20:48Z</time>
      </trkpt>
      <trkpt lat="28.6503450" lon="-17.9454450">
        <ele>15.8</ele>
        <time>2020-11-16T21:20:49Z</time>
      </trkpt>
      <trkpt lat="28.6503200" lon="-17.9454620">
        <ele>15.8</ele>
        <time>2020-11-16T21:20:50Z</time>
      </trkpt>
      <trkpt lat="28.6503200" lon="-17.9454620">
        <ele>15.8</ele>
        <time>2020-11-16T21:20:51Z</time>
      </trkpt>
      <trkpt lat="28.6502620" lon="-17.9454880">
        <ele>15.9</ele>
        <time>2020-11-16T21:20:52Z</time>
      </trkpt>
      <trkpt lat="28.6502320" lon="-17.9455000">
        <ele>15.9</ele>
        <time>2020-11-16T21:20:53Z</time>
      </trkpt>
      <trkpt lat="28.6502320" lon="-17.9455000">
        <ele>15.9</ele>
        <time>2020-11-16T21:20:54Z</time>
      </trkpt>
      <trkpt lat="28.6501730" lon="-17.9455230">
        <ele>15.9</ele>
        <time>2020-11-16T21:20:55Z</time>
      </trkpt>
      <trkpt lat="28.6501450" lon="-17.9455320">
        <ele>15.9</ele>
        <time>2020-11-16T21:20:56Z</time>
      </trkpt>
      <trkpt lat="28.6501450" lon="-17.9455320">
        <ele>15.9</ele>
        <time>2020-11-16T21:20:57Z</time>
      </trkpt>
      <trkpt lat="28.6500850" lon="-17.9455300">
        <ele>15.9</ele>
        <time>2020-11-16T21:20:58Z</time>
      </trkpt>
      <trkpt lat="28.6500550" lon="-17.9455220">
        <ele>15.9</ele>
        <time>2020-11-16T21:20:59Z</time>
      </trkpt>
      <trkpt lat="28.6500280" lon="-17.9455100">
        <ele>15.9</ele>
        <time>2020-11-16T21:21:00Z</time>
      </trkpt>
      <trkpt lat="28.6500280" lon="-17.9455100">
        <ele>15.9</ele>
        <time>2020-11-16T21:21:01Z</time>
      </trkpt>
      <trkpt lat="28.6499770" lon="-17.9454830">
        <ele>15.9</ele>
        <time>2020-11-16T21:21:02Z</time>
      </trkpt>
      <trkpt lat="28.6499520" lon="-17.9454670">
        <ele>15.9</ele>
        <time>2020-11-16T21:21:03Z</time>
      </trkpt>
      <trkpt lat="28.6499220" lon="-17.9454520">
        <ele>15.9</ele>
        <time>2020-11-16T21:21:04Z</time>
      </trkpt>
      <trkpt lat="28.6499220" lon="-17.9454520">
        <ele>15.9</ele>
        <time>2020-11-16T21:21:05Z</time>
      </trkpt>
      <trkpt lat="28.6498600" lon="-17.9454250">
        <ele>15.9</ele>
        <time>2020-11-16T21:21:06Z</time>
      </trkpt>
      <trkpt lat="28.6498600" lon="-17.9454250">
        <ele>15.9</ele>
        <time>2020-11-16T21:21:07Z</time>
      </trkpt>
      <trkpt lat="28.6497870" lon="-17.9453830">
        <ele>15.8</ele>
        <time>2020-11-16T21:21:08Z</time>
      </trkpt>
      <trkpt lat="28.6497870" lon="-17.9453830">
        <ele>15.8</ele>
        <time>2020-11-16T21:21:09Z</time>
      </trkpt>
      <trkpt lat="28.6497220" lon="-17.9453480">
        <ele>15.8</ele>
        <time>2020-11-16T21:21:10Z</time>
      </trkpt>
      <trkpt lat="28.6497220" lon="-17.9453480">
        <ele>15.8</ele>
        <time>2020-11-16T21:21:11Z</time>
      </trkpt>
      <trkpt lat="28.6496530" lon="-17.9453130">
        <ele>15.8</ele>
        <time>2020-11-16T21:21:12Z</time>
      </trkpt>
      <trkpt lat="28.6496200" lon="-17.9452970">
        <ele>15.7</ele>
        <time>2020-11-16T21:21:13Z</time>
      </trkpt>
      <trkpt lat="28.6496200" lon="-17.9452970">
        <ele>15.7</ele>
        <time>2020-11-16T21:21:14Z</time>
      </trkpt>
      <trkpt lat="28.6495480" lon="-17.9452620">
        <ele>15.6</ele>
        <time>2020-11-16T21:21:15Z</time>
      </trkpt>
      <trkpt lat="28.6495120" lon="-17.9452430">
        <ele>15.5</ele>
        <time>2020-11-16T21:21:16Z</time>
      </trkpt>
      <trkpt lat="28.6495120" lon="-17.9452430">
        <ele>15.5</ele>
        <time>2020-11-16T21:21:17Z</time>
      </trkpt>
      <trkpt lat="28.6494330" lon="-17.9452020">
        <ele>15.4</ele>
        <time>2020-11-16T21:21:18Z</time>
      </trkpt>
      <trkpt lat="28.6494330" lon="-17.9452020">
        <ele>15.4</ele>
        <time>2020-11-16T21:21:19Z</time>
      </trkpt>
      <trkpt lat="28.6493450" lon="-17.9451600">
        <ele>15.3</ele>
        <time>2020-11-16T21:21:20Z</time>
      </trkpt>
      <trkpt lat="28.6493450" lon="-17.9451600">
        <ele>15.3</ele>
        <time>2020-11-16T21:21:21Z</time>
      </trkpt>
      <trkpt lat="28.6492580" lon="-17.9451170">
        <ele>15.1</ele>
        <time>2020-11-16T21:21:22Z</time>
      </trkpt>
      <trkpt lat="28.6492580" lon="-17.9451170">
        <ele>15.1</ele>
        <time>2020-11-16T21:21:23Z</time>
      </trkpt>
      <trkpt lat="28.6491750" lon="-17.9450630">
        <ele>15.1</ele>
        <time>2020-11-16T21:21:24Z</time>
      </trkpt>
      <trkpt lat="28.6491320" lon="-17.9450420">
        <ele>15.0</ele>
        <time>2020-11-16T21:21:25Z</time>
      </trkpt>
      <trkpt lat="28.6491320" lon="-17.9450420">
        <ele>15.0</ele>
        <time>2020-11-16T21:21:26Z</time>
      </trkpt>
      <trkpt lat="28.6490550" lon="-17.9449880">
        <ele>15.0</ele>
        <time>2020-11-16T21:21:27Z</time>
      </trkpt>
      <trkpt lat="28.6490550" lon="-17.9449880">
        <ele>15.0</ele>
        <time>2020-11-16T21:21:28Z</time>
      </trkpt>
      <trkpt lat="28.6489920" lon="-17.9449370">
        <ele>15.0</ele>
        <time>2020-11-16T21:21:29Z</time>
      </trkpt>
      <trkpt lat="28.6489920" lon="-17.9449370">
        <ele>15.0</ele>
        <time>2020-11-16T21:21:30Z</time>
      </trkpt>
      <trkpt lat="28.6489520" lon="-17.9448870">
        <ele>14.9</ele>
        <time>2020-11-16T21:21:31Z</time>
      </trkpt>
      <trkpt lat="28.6489520" lon="-17.9448870">
        <ele>14.9</ele>
        <time>2020-11-16T21:21:32Z</time>
      </trkpt>
      <trkpt lat="28.6488950" lon="-17.9448230">
        <ele>14.9</ele>
        <time>2020-11-16T21:21:33Z</time>
      </trkpt>
      <trkpt lat="28.6488950" lon="-17.9448230">
        <ele>14.9</ele>
        <time>2020-11-16T21:21:34Z</time>
      </trkpt>
      <trkpt lat="28.6488250" lon="-17.9447700">
        <ele>14.8</ele>
        <time>2020-11-16T21:21:35Z</time>
      </trkpt>
      <trkpt lat="28.6488250" lon="-17.9447700">
        <ele>14.8</ele>
        <time>2020-11-16T21:21:36Z</time>
      </trkpt>
      <trkpt lat="28.6487380" lon="-17.9447230">
        <ele>14.8</ele>
        <time>2020-11-16T21:21:37Z</time>
      </trkpt>
      <trkpt lat="28.6487380" lon="-17.9447230">
        <ele>14.8</ele>
        <time>2020-11-16T21:21:38Z</time>
      </trkpt>
      <trkpt lat="28.6486480" lon="-17.9446650">
        <ele>14.8</ele>
        <time>2020-11-16T21:21:39Z</time>
      </trkpt>
      <trkpt lat="28.6486480" lon="-17.9446650">
        <ele>14.8</ele>
        <time>2020-11-16T21:21:40Z</time>
      </trkpt>
      <trkpt lat="28.6485730" lon="-17.9446020">
        <ele>14.7</ele>
        <time>2020-11-16T21:21:41Z</time>
      </trkpt>
      <trkpt lat="28.6485730" lon="-17.9446020">
        <ele>14.7</ele>
        <time>2020-11-16T21:21:42Z</time>
      </trkpt>
      <trkpt lat="28.6485050" lon="-17.9445400">
        <ele>14.7</ele>
        <time>2020-11-16T21:21:43Z</time>
      </trkpt>
      <trkpt lat="28.6485050" lon="-17.9445400">
        <ele>14.7</ele>
        <time>2020-11-16T21:21:44Z</time>
      </trkpt>
      <trkpt lat="28.6484280" lon="-17.9444780">
        <ele>14.7</ele>
        <time>2020-11-16T21:21:45Z</time>
      </trkpt>
      <trkpt lat="28.6484280" lon="-17.9444780">
        <ele>14.7</ele>
        <time>2020-11-16T21:21:46Z</time>
      </trkpt>
      <trkpt lat="28.6483630" lon="-17.9444150">
        <ele>14.7</ele>
        <time>2020-11-16T21:21:47Z</time>
      </trkpt>
      <trkpt lat="28.6483330" lon="-17.9443870">
        <ele>14.8</ele>
        <time>2020-11-16T21:21:48Z</time>
      </trkpt>
      <trkpt lat="28.6483330" lon="-17.9443870">
        <ele>14.8</ele>
        <time>2020-11-16T21:21:49Z</time>
      </trkpt>
      <trkpt lat="28.6482770" lon="-17.9443280">
        <ele>14.8</ele>
        <time>2020-11-16T21:21:50Z</time>
      </trkpt>
      <trkpt lat="28.6482770" lon="-17.9443280">
        <ele>14.8</ele>
        <time>2020-11-16T21:21:51Z</time>
      </trkpt>
      <trkpt lat="28.6482180" lon="-17.9442770">
        <ele>14.8</ele>
        <time>2020-11-16T21:21:52Z</time>
      </trkpt>
      <trkpt lat="28.6482180" lon="-17.9442770">
        <ele>14.8</ele>
        <time>2020-11-16T21:21:53Z</time>
      </trkpt>
      <trkpt lat="28.6481750" lon="-17.9442320">
        <ele>14.8</ele>
        <time>2020-11-16T21:21:54Z</time>
      </trkpt>
      <trkpt lat="28.6481550" lon="-17.9442100">
        <ele>14.8</ele>
        <time>2020-11-16T21:21:55Z</time>
      </trkpt>
      <trkpt lat="28.6481550" lon="-17.9442100">
        <ele>14.8</ele>
        <time>2020-11-16T21:21:56Z</time>
      </trkpt>
      <trkpt lat="28.6481320" lon="-17.9441550">
        <ele>14.8</ele>
        <time>2020-11-16T21:21:57Z</time>
      </trkpt>
      <trkpt lat="28.6481320" lon="-17.9441550">
        <ele>14.8</ele>
        <time>2020-11-16T21:21:58Z</time>
      </trkpt>
      <trkpt lat="28.6481200" lon="-17.9441080">
        <ele>14.9</ele>
        <time>2020-11-16T21:21:59Z</time>
      </trkpt>
      <trkpt lat="28.6481200" lon="-17.9441080">
        <ele>14.9</ele>
        <time>2020-11-16T21:22:00Z</time>
      </trkpt>
      <trkpt lat="28.6481070" lon="-17.9440720">
        <ele>14.9</ele>
        <time>2020-11-16T21:22:01Z</time>
      </trkpt>
      <trkpt lat="28.6481070" lon="-17.9440720">
        <ele>14.9</ele>
        <time>2020-11-16T21:22:02Z</time>
      </trkpt>
      <trkpt lat="28.6481020" lon="-17.9440520">
        <ele>14.9</ele>
        <time>2020-11-16T21:22:03Z</time>
      </trkpt>
      <trkpt lat="28.6481020" lon="-17.9440520">
        <ele>14.9</ele>
        <time>2020-11-16T21:22:04Z</time>
      </trkpt>
      <trkpt lat="28.6481050" lon="-17.9440480">
        <ele>14.9</ele>
        <time>2020-11-16T22:22:30Z</time>
      </trkpt>
      <trkpt lat="28.6481050" lon="-17.9440480">
        <ele>14.9</ele>
        <time>2020-11-16T22:22:31Z</time>
      </trkpt>
      <trkpt lat="28.6480670" lon="-17.9440380">
        <ele>14.9</ele>
        <time>2020-11-16T22:22:32Z</time>
      </trkpt>
      <trkpt lat="28.6480680" lon="-17.9440420">
        <ele>14.9</ele>
        <time>2020-11-16T22:22:33Z</time>
      </trkpt>
      <trkpt lat="28.6480680" lon="-17.9440420">
        <ele>14.9</ele>
        <time>2020-11-16T22:22:34Z</time>
      </trkpt>
      <trkpt lat="28.6480670" lon="-17.9440450">
        <ele>14.9</ele>
        <time>2020-11-16T22:22:35Z</time>
      </trkpt>
      <trkpt lat="28.6480670" lon="-17.9440450">
        <ele>14.9</ele>
        <time>2020-11-16T22:22:36Z</time>
      </trkpt>
      <trkpt lat="28.6480350" lon="-17.9440350">
        <ele>14.9</ele>
        <time>2020-11-16T22:22:37Z</time>
      </trkpt>
      <trkpt lat="28.6480350" lon="-17.9440350">
        <ele>14.9</ele>
        <time>2020-11-16T22:22:38Z</time>
      </trkpt>
      <trkpt lat="28.6479950" lon="-17.9440220">
        <ele>14.9</ele>
        <time>2020-11-16T22:22:39Z</time>
      </trkpt>
      <trkpt lat="28.6479700" lon="-17.9440100">
        <ele>14.8</ele>
        <time>2020-11-16T22:22:40Z</time>
      </trkpt>
      <trkpt lat="28.6479700" lon="-17.9440100">
        <ele>14.8</ele>
        <time>2020-11-16T22:22:41Z</time>
      </trkpt>
      <trkpt lat="28.6479150" lon="-17.9439730">
        <ele>14.8</ele>
        <time>2020-11-16T22:22:42Z</time>
      </trkpt>
      <trkpt lat="28.6479150" lon="-17.9439730">
        <ele>14.8</ele>
        <time>2020-11-16T22:22:43Z</time>
      </trkpt>
      <trkpt lat="28.6478580" lon="-17.9439480">
        <ele>14.8</ele>
        <time>2020-11-16T22:22:44Z</time>
      </trkpt>
      <trkpt lat="28.6478580" lon="-17.9439480">
        <ele>14.8</ele>
        <time>2020-11-16T22:22:45Z</time>
      </trkpt>
      <trkpt lat="28.6478170" lon="-17.9439500">
        <ele>14.7</ele>
        <time>2020-11-16T22:22:46Z</time>
      </trkpt>
      <trkpt lat="28.6478170" lon="-17.9439500">
        <ele>14.7</ele>
        <time>2020-11-16T22:22:47Z</time>
      </trkpt>
      <trkpt lat="28.6477880" lon="-17.9439430">
        <ele>14.7</ele>
        <time>2020-11-16T22:22:48Z</time>
      </trkpt>
      <trkpt lat="28.6477880" lon="-17.9439430">
        <ele>14.7</ele>
        <time>2020-11-16T22:22:49Z</time>
      </trkpt>
      <trkpt lat="28.6477620" lon="-17.9439380">
        <ele>14.7</ele>
        <time>2020-11-16T22:22:50Z</time>
      </trkpt>
      <trkpt lat="28.6477620" lon="-17.9439380">
        <ele>14.7</ele>
        <time>2020-11-16T22:22:51Z</time>
      </trkpt>
      <trkpt lat="28.6477370" lon="-17.9439400">
        <ele>13.3</ele>
        <time>2020-11-16T22:22:52Z</time>
      </trkpt>
      <trkpt lat="28.6477370" lon="-17.9439400">
        <ele>13.3</ele>
        <time>2020-11-16T22:22:53Z</time>
      </trkpt>
      <trkpt lat="28.6477330" lon="-17.9439370">
        <ele>13.3</ele>
        <time>2020-11-16T22:22:54Z</time>
      </trkpt>
      <trkpt lat="28.6477330" lon="-17.9439370">
        <ele>13.3</ele>
        <time>2020-11-16T22:22:55Z</time>
      </trkpt>
      <trkpt lat="28.6477330" lon="-17.9439400">
        <ele>13.3</ele>
        <time>2020-11-16T22:22:56Z</time>
      </trkpt>
      <trkpt lat="28.6477330" lon="-17.9439400">
        <ele>13.3</ele>
        <time>2020-11-16T22:22:57Z</time>
      </trkpt>
      <trkpt lat="28.6477320" lon="-17.9439770">
        <ele>13.3</ele>
        <time>2020-11-16T22:23:37Z</time>
      </trkpt>
      <trkpt lat="28.6477130" lon="-17.9439800">
        <ele>13.3</ele>
        <time>2020-11-16T22:23:38Z</time>
      </trkpt>
      <trkpt lat="28.6476900" lon="-17.9439820">
        <ele>13.1</ele>
        <time>2020-11-16T22:23:39Z</time>
      </trkpt>
      <trkpt lat="28.6476900" lon="-17.9439820">
        <ele>13.1</ele>
        <time>2020-11-16T22:23:40Z</time>
      </trkpt>
      <trkpt lat="28.6476330" lon="-17.9439870">
        <ele>12.9</ele>
        <time>2020-11-16T22:23:41Z</time>
      </trkpt>
      <trkpt lat="28.6476330" lon="-17.9439870">
        <ele>12.9</ele>
        <time>2020-11-16T22:23:42Z</time>
      </trkpt>
      <trkpt lat="28.6475720" lon="-17.9439920">
        <ele>12.7</ele>
        <time>2020-11-16T22:23:43Z</time>
      </trkpt>
      <trkpt lat="28.6475350" lon="-17.9439880">
        <ele>12.5</ele>
        <time>2020-11-16T22:23:44Z</time>
      </trkpt>
      <trkpt lat="28.6475350" lon="-17.9439880">
        <ele>12.5</ele>
        <time>2020-11-16T22:23:45Z</time>
      </trkpt>
      <trkpt lat="28.6474580" lon="-17.9439970">
        <ele>12.1</ele>
        <time>2020-11-16T22:23:46Z</time>
      </trkpt>
      <trkpt lat="28.6474580" lon="-17.9439970">
        <ele>12.1</ele>
        <time>2020-11-16T22:23:47Z</time>
      </trkpt>
      <trkpt lat="28.6473780" lon="-17.9440100">
        <ele>11.7</ele>
        <time>2020-11-16T22:23:48Z</time>
      </trkpt>
      <trkpt lat="28.6473780" lon="-17.9440100">
        <ele>11.7</ele>
        <time>2020-11-16T22:23:49Z</time>
      </trkpt>
      <trkpt lat="28.6472950" lon="-17.9440250">
        <ele>11.3</ele>
        <time>2020-11-16T22:23:50Z</time>
      </trkpt>
      <trkpt lat="28.6472950" lon="-17.9440250">
        <ele>11.3</ele>
        <time>2020-11-16T22:23:51Z</time>
      </trkpt>
      <trkpt lat="28.6472070" lon="-17.9440500">
        <ele>11.0</ele>
        <time>2020-11-16T22:23:52Z</time>
      </trkpt>
      <trkpt lat="28.6471630" lon="-17.9440620">
        <ele>10.8</ele>
        <time>2020-11-16T22:23:53Z</time>
      </trkpt>
      <trkpt lat="28.6471630" lon="-17.9440620">
        <ele>10.8</ele>
        <time>2020-11-16T22:23:54Z</time>
      </trkpt>
      <trkpt lat="28.6470800" lon="-17.9440930">
        <ele>10.6</ele>
        <time>2020-11-16T22:23:55Z</time>
      </trkpt>
      <trkpt lat="28.6470800" lon="-17.9440930">
        <ele>10.6</ele>
        <time>2020-11-16T22:23:56Z</time>
      </trkpt>
      <trkpt lat="28.6470000" lon="-17.9441170">
        <ele>10.5</ele>
        <time>2020-11-16T22:23:57Z</time>
      </trkpt>
      <trkpt lat="28.6469620" lon="-17.9441280">
        <ele>10.5</ele>
        <time>2020-11-16T22:23:58Z</time>
      </trkpt>
      <trkpt lat="28.6469620" lon="-17.9441280">
        <ele>10.5</ele>
        <time>2020-11-16T22:23:59Z</time>
      </trkpt>
      <trkpt lat="28.6468880" lon="-17.9441530">
        <ele>10.4</ele>
        <time>2020-11-16T22:24:00Z</time>
      </trkpt>
      <trkpt lat="28.6468880" lon="-17.9441530">
        <ele>10.4</ele>
        <time>2020-11-16T22:24:01Z</time>
      </trkpt>
      <trkpt lat="28.6468150" lon="-17.9441770">
        <ele>10.3</ele>
        <time>2020-11-16T22:24:02Z</time>
      </trkpt>
      <trkpt lat="28.6468150" lon="-17.9441770">
        <ele>10.3</ele>
        <time>2020-11-16T22:24:03Z</time>
      </trkpt>
      <trkpt lat="28.6467430" lon="-17.9442030">
        <ele>10.3</ele>
        <time>2020-11-16T22:24:04Z</time>
      </trkpt>
      <trkpt lat="28.6467430" lon="-17.9442030">
        <ele>10.3</ele>
        <time>2020-11-16T22:24:05Z</time>
      </trkpt>
      <trkpt lat="28.6466650" lon="-17.9442320">
        <ele>10.2</ele>
        <time>2020-11-16T22:24:06Z</time>
      </trkpt>
      <trkpt lat="28.6466650" lon="-17.9442320">
        <ele>10.2</ele>
        <time>2020-11-16T22:24:07Z</time>
      </trkpt>
      <trkpt lat="28.6465830" lon="-17.9442670">
        <ele>10.2</ele>
        <time>2020-11-16T22:24:08Z</time>
      </trkpt>
      <trkpt lat="28.6465830" lon="-17.9442670">
        <ele>10.2</ele>
        <time>2020-11-16T22:24:09Z</time>
      </trkpt>
      <trkpt lat="28.6464970" lon="-17.9443200">
        <ele>10.2</ele>
        <time>2020-11-16T22:24:10Z</time>
      </trkpt>
      <trkpt lat="28.6464530" lon="-17.9443300">
        <ele>10.2</ele>
        <time>2020-11-16T22:24:11Z</time>
      </trkpt>
      <trkpt lat="28.6464530" lon="-17.9443300">
        <ele>10.2</ele>
        <time>2020-11-16T22:24:12Z</time>
      </trkpt>
      <trkpt lat="28.6463620" lon="-17.9443630">
        <ele>10.2</ele>
        <time>2020-11-16T22:24:13Z</time>
      </trkpt>
      <trkpt lat="28.6463180" lon="-17.9443830">
        <ele>10.2</ele>
        <time>2020-11-16T22:24:14Z</time>
      </trkpt>
      <trkpt lat="28.6463180" lon="-17.9443830">
        <ele>10.2</ele>
        <time>2020-11-16T22:24:15Z</time>
      </trkpt>
      <trkpt lat="28.6462350" lon="-17.9444150">
        <ele>10.2</ele>
        <time>2020-11-16T22:24:16Z</time>
      </trkpt>
      <trkpt lat="28.6461920" lon="-17.9444280">
        <ele>10.2</ele>
        <time>2020-11-16T22:24:17Z</time>
      </trkpt>
      <trkpt lat="28.6461480" lon="-17.9444430">
        <ele>10.2</ele>
        <time>2020-11-16T22:24:18Z</time>
      </trkpt>
      <trkpt lat="28.6461480" lon="-17.9444430">
        <ele>10.2</ele>
        <time>2020-11-16T22:24:19Z</time>
      </trkpt>
      <trkpt lat="28.6460580" lon="-17.9444700">
        <ele>10.2</ele>
        <time>2020-11-16T22:24:20Z</time>
      </trkpt>
      <trkpt lat="28.6460580" lon="-17.9444700">
        <ele>10.2</ele>
        <time>2020-11-16T22:24:21Z</time>
      </trkpt>
      <trkpt lat="28.6459700" lon="-17.9445000">
        <ele>10.2</ele>
        <time>2020-11-16T22:24:22Z</time>
      </trkpt>
      <trkpt lat="28.6459700" lon="-17.9445000">
        <ele>10.2</ele>
        <time>2020-11-16T22:24:23Z</time>
      </trkpt>
      <trkpt lat="28.6458770" lon="-17.9445230">
        <ele>10.2</ele>
        <time>2020-11-16T22:24:24Z</time>
      </trkpt>
      <trkpt lat="28.6458770" lon="-17.9445230">
        <ele>10.2</ele>
        <time>2020-11-16T22:24:25Z</time>
      </trkpt>
      <trkpt lat="28.6457830" lon="-17.9445520">
        <ele>10.2</ele>
        <time>2020-11-16T22:24:26Z</time>
      </trkpt>
      <trkpt lat="28.6457380" lon="-17.9445670">
        <ele>10.2</ele>
        <time>2020-11-16T22:24:27Z</time>
      </trkpt>
      <trkpt lat="28.6457380" lon="-17.9445670">
        <ele>10.2</ele>
        <time>2020-11-16T22:24:28Z</time>
      </trkpt>
      <trkpt lat="28.6456550" lon="-17.9445970">
        <ele>10.2</ele>
        <time>2020-11-16T22:24:29Z</time>
      </trkpt>
      <trkpt lat="28.6456180" lon="-17.9446170">
        <ele>10.2</ele>
        <time>2020-11-16T22:24:30Z</time>
      </trkpt>
      <trkpt lat="28.6456180" lon="-17.9446170">
        <ele>10.2</ele>
        <time>2020-11-16T22:24:31Z</time>
      </trkpt>
      <trkpt lat="28.6455450" lon="-17.9446470">
        <ele>10.2</ele>
        <time>2020-11-16T22:24:32Z</time>
      </trkpt>
      <trkpt lat="28.6455450" lon="-17.9446470">
        <ele>10.2</ele>
        <time>2020-11-16T22:24:33Z</time>
      </trkpt>
      <trkpt lat="28.6454630" lon="-17.9446750">
        <ele>10.2</ele>
        <time>2020-11-16T22:24:34Z</time>
      </trkpt>
      <trkpt lat="28.6454630" lon="-17.9446750">
        <ele>10.2</ele>
        <time>2020-11-16T22:24:35Z</time>
      </trkpt>
      <trkpt lat="28.6453770" lon="-17.9446970">
        <ele>10.3</ele>
        <time>2020-11-16T22:24:36Z</time>
      </trkpt>
      <trkpt lat="28.6453770" lon="-17.9446970">
        <ele>10.3</ele>
        <time>2020-11-16T22:24:37Z</time>
      </trkpt>
      <trkpt lat="28.6453000" lon="-17.9447270">
        <ele>10.3</ele>
        <time>2020-11-16T22:24:38Z</time>
      </trkpt>
      <trkpt lat="28.6453000" lon="-17.9447270">
        <ele>10.3</ele>
        <time>2020-11-16T22:24:39Z</time>
      </trkpt>
      <trkpt lat="28.6452170" lon="-17.9447430">
        <ele>10.3</ele>
        <time>2020-11-16T22:24:40Z</time>
      </trkpt>
      <trkpt lat="28.6452170" lon="-17.9447430">
        <ele>10.3</ele>
        <time>2020-11-16T22:24:41Z</time>
      </trkpt>
      <trkpt lat="28.6451230" lon="-17.9447270">
        <ele>10.4</ele>
        <time>2020-11-16T22:24:42Z</time>
      </trkpt>
      <trkpt lat="28.6450770" lon="-17.9447170">
        <ele>10.4</ele>
        <time>2020-11-16T22:24:43Z</time>
      </trkpt>
      <trkpt lat="28.6450320" lon="-17.9447070">
        <ele>10.4</ele>
        <time>2020-11-16T22:24:44Z</time>
      </trkpt>
      <trkpt lat="28.6450320" lon="-17.9447070">
        <ele>10.4</ele>
        <time>2020-11-16T22:24:45Z</time>
      </trkpt>
      <trkpt lat="28.6449420" lon="-17.9446920">
        <ele>10.5</ele>
        <time>2020-11-16T22:24:46Z</time>
      </trkpt>
      <trkpt lat="28.6449420" lon="-17.9446920">
        <ele>10.5</ele>
        <time>2020-11-16T22:24:47Z</time>
      </trkpt>
      <trkpt lat="28.6448530" lon="-17.9446800">
        <ele>10.6</ele>
        <time>2020-11-16T22:24:48Z</time>
      </trkpt>
      <trkpt lat="28.6448530" lon="-17.9446800">
        <ele>10.6</ele>
        <time>2020-11-16T22:24:49Z</time>
      </trkpt>
      <trkpt lat="28.6447630" lon="-17.9446670">
        <ele>10.6</ele>
        <time>2020-11-16T22:24:50Z</time>
      </trkpt>
      <trkpt lat="28.6447630" lon="-17.9446670">
        <ele>10.6</ele>
        <time>2020-11-16T22:24:51Z</time>
      </trkpt>
      <trkpt lat="28.6446750" lon="-17.9446500">
        <ele>10.7</ele>
        <time>2020-11-16T22:24:52Z</time>
      </trkpt>
      <trkpt lat="28.6446750" lon="-17.9446500">
        <ele>10.7</ele>
        <time>2020-11-16T22:24:53Z</time>
      </trkpt>
      <trkpt lat="28.6445850" lon="-17.9446330">
        <ele>10.7</ele>
        <time>2020-11-16T22:24:54Z</time>
      </trkpt>
      <trkpt lat="28.6445400" lon="-17.9446250">
        <ele>10.7</ele>
        <time>2020-11-16T22:24:55Z</time>
      </trkpt>
      <trkpt lat="28.6445400" lon="-17.9446250">
        <ele>10.7</ele>
        <time>2020-11-16T22:24:56Z</time>
      </trkpt>
      <trkpt lat="28.6444530" lon="-17.9446150">
        <ele>10.7</ele>
        <time>2020-11-16T22:24:57Z</time>
      </trkpt>
      <trkpt lat="28.6444530" lon="-17.9446150">
        <ele>10.7</ele>
        <time>2020-11-16T22:24:58Z</time>
      </trkpt>
      <trkpt lat="28.6443670" lon="-17.9446000">
        <ele>10.7</ele>
        <time>2020-11-16T22:24:59Z</time>
      </trkpt>
      <trkpt lat="28.6443670" lon="-17.9446000">
        <ele>10.7</ele>
        <time>2020-11-16T22:25:00Z</time>
      </trkpt>
      <trkpt lat="28.6442770" lon="-17.9445850">
        <ele>10.7</ele>
        <time>2020-11-16T22:25:01Z</time>
      </trkpt>
      <trkpt lat="28.6442320" lon="-17.9445770">
        <ele>10.7</ele>
        <time>2020-11-16T22:25:02Z</time>
      </trkpt>
      <trkpt lat="28.6442320" lon="-17.9445770">
        <ele>10.7</ele>
        <time>2020-11-16T22:25:03Z</time>
      </trkpt>
      <trkpt lat="28.6441400" lon="-17.9445630">
        <ele>10.7</ele>
        <time>2020-11-16T22:25:04Z</time>
      </trkpt>
      <trkpt lat="28.6440970" lon="-17.9445600">
        <ele>10.7</ele>
        <time>2020-11-16T22:25:05Z</time>
      </trkpt>
      <trkpt lat="28.6440970" lon="-17.9445600">
        <ele>10.7</ele>
        <time>2020-11-16T22:25:06Z</time>
      </trkpt>
      <trkpt lat="28.6440050" lon="-17.9445480">
        <ele>10.7</ele>
        <time>2020-11-16T22:25:07Z</time>
      </trkpt>
      <trkpt lat="28.6439580" lon="-17.9445380">
        <ele>10.7</ele>
        <time>2020-11-16T22:25:08Z</time>
      </trkpt>
      <trkpt lat="28.6439580" lon="-17.9445380">
        <ele>10.7</ele>
        <time>2020-11-16T22:25:09Z</time>
      </trkpt>
      <trkpt lat="28.6438670" lon="-17.9445220">
        <ele>10.7</ele>
        <time>2020-11-16T22:25:10Z</time>
      </trkpt>
      <trkpt lat="28.6438220" lon="-17.9445180">
        <ele>10.7</ele>
        <time>2020-11-16T22:25:11Z</time>
      </trkpt>
      <trkpt lat="28.6438220" lon="-17.9445180">
        <ele>10.7</ele>
        <time>2020-11-16T22:25:12Z</time>
      </trkpt>
      <trkpt lat="28.6437400" lon="-17.9445080">
        <ele>10.7</ele>
        <time>2020-11-16T22:25:13Z</time>
      </trkpt>
      <trkpt lat="28.6436980" lon="-17.9445000">
        <ele>10.7</ele>
        <time>2020-11-16T22:25:14Z</time>
      </trkpt>
      <trkpt lat="28.6436980" lon="-17.9445000">
        <ele>10.7</ele>
        <time>2020-11-16T22:25:15Z</time>
      </trkpt>
      <trkpt lat="28.6436180" lon="-17.9444830">
        <ele>10.7</ele>
        <time>2020-11-16T22:25:16Z</time>
      </trkpt>
      <trkpt lat="28.6436180" lon="-17.9444830">
        <ele>10.7</ele>
        <time>2020-11-16T22:25:17Z</time>
      </trkpt>
      <trkpt lat="28.6435380" lon="-17.9444750">
        <ele>10.6</ele>
        <time>2020-11-16T22:25:18Z</time>
      </trkpt>
      <trkpt lat="28.6434970" lon="-17.9444800">
        <ele>10.6</ele>
        <time>2020-11-16T22:25:19Z</time>
      </trkpt>
      <trkpt lat="28.6434970" lon="-17.9444800">
        <ele>10.6</ele>
        <time>2020-11-16T22:25:20Z</time>
      </trkpt>
      <trkpt lat="28.6434220" lon="-17.9445130">
        <ele>10.6</ele>
        <time>2020-11-16T22:25:21Z</time>
      </trkpt>
      <trkpt lat="28.6434220" lon="-17.9445130">
        <ele>10.6</ele>
        <time>2020-11-16T22:25:22Z</time>
      </trkpt>
      <trkpt lat="28.6433550" lon="-17.9445470">
        <ele>10.5</ele>
        <time>2020-11-16T22:25:23Z</time>
      </trkpt>
      <trkpt lat="28.6433230" lon="-17.9445630">
        <ele>10.5</ele>
        <time>2020-11-16T22:25:24Z</time>
      </trkpt>
      <trkpt lat="28.6433230" lon="-17.9445630">
        <ele>10.5</ele>
        <time>2020-11-16T22:25:25Z</time>
      </trkpt>
      <trkpt lat="28.6432600" lon="-17.9445870">
        <ele>10.5</ele>
        <time>2020-11-16T22:25:26Z</time>
      </trkpt>
      <trkpt lat="28.6432600" lon="-17.9445870">
        <ele>10.5</ele>
        <time>2020-11-16T22:25:27Z</time>
      </trkpt>
      <trkpt lat="28.6431950" lon="-17.9445780">
        <ele>10.4</ele>
        <time>2020-11-16T22:25:28Z</time>
      </trkpt>
      <trkpt lat="28.6431950" lon="-17.9445780">
        <ele>10.4</ele>
        <time>2020-11-16T22:25:29Z</time>
      </trkpt>
      <trkpt lat="28.6431400" lon="-17.9445430">
        <ele>10.4</ele>
        <time>2020-11-16T22:25:30Z</time>
      </trkpt>
      <trkpt lat="28.6431180" lon="-17.9445130">
        <ele>10.4</ele>
        <time>2020-11-16T22:25:31Z</time>
      </trkpt>
      <trkpt lat="28.6431030" lon="-17.9444880">
        <ele>10.4</ele>
        <time>2020-11-16T22:25:32Z</time>
      </trkpt>
      <trkpt lat="28.6431030" lon="-17.9444880">
        <ele>10.4</ele>
        <time>2020-11-16T22:25:33Z</time>
      </trkpt>
      <trkpt lat="28.6430830" lon="-17.9444550">
        <ele>10.4</ele>
        <time>2020-11-16T22:25:34Z</time>
      </trkpt>
      <trkpt lat="28.6430780" lon="-17.9444380">
        <ele>10.5</ele>
        <time>2020-11-16T22:25:35Z</time>
      </trkpt>
      <trkpt lat="28.6430820" lon="-17.9444270">
        <ele>10.5</ele>
        <time>2020-11-16T22:25:36Z</time>
      </trkpt>
      <trkpt lat="28.6430820" lon="-17.9444270">
        <ele>10.5</ele>
        <time>2020-11-16T22:25:37Z</time>
      </trkpt>
      <trkpt lat="28.6430850" lon="-17.9444280">
        <ele>10.5</ele>
        <time>2020-11-16T22:25:38Z</time>
      </trkpt>
      <trkpt lat="28.6430870" lon="-17.9444320">
        <ele>10.5</ele>
        <time>2020-11-16T22:25:39Z</time>
      </trkpt>
      <trkpt lat="28.6431270" lon="-17.9444130">
        <ele>10.9</ele>
        <time>2020-11-16T22:25:58Z</time>
      </trkpt>
      <trkpt lat="28.6431270" lon="-17.9444130">
        <ele>10.9</ele>
        <time>2020-11-16T22:25:59Z</time>
      </trkpt>
      <trkpt lat="28.6431300" lon="-17.9443830">
        <ele>10.9</ele>
        <time>2020-11-16T22:26:00Z</time>
      </trkpt>
      <trkpt lat="28.6431370" lon="-17.9443730">
        <ele>10.9</ele>
        <time>2020-11-16T22:26:01Z</time>
      </trkpt>
      <trkpt lat="28.6431370" lon="-17.9443730">
        <ele>10.9</ele>
        <time>2020-11-16T22:26:02Z</time>
      </trkpt>
      <trkpt lat="28.6431600" lon="-17.9443780">
        <ele>11.3</ele>
        <time>2020-11-16T22:26:03Z</time>
      </trkpt>
      <trkpt lat="28.6431600" lon="-17.9443780">
        <ele>11.3</ele>
        <time>2020-11-16T22:26:04Z</time>
      </trkpt>
      <trkpt lat="28.6431500" lon="-17.9444130">
        <ele>11.3</ele>
        <time>2020-11-16T22:26:05Z</time>
      </trkpt>
      <trkpt lat="28.6431380" lon="-17.9444320">
        <ele>10.9</ele>
        <time>2020-11-16T22:26:06Z</time>
      </trkpt>
      <trkpt lat="28.6431380" lon="-17.9444320">
        <ele>10.9</ele>
        <time>2020-11-16T22:26:07Z</time>
      </trkpt>
      <trkpt lat="28.6431170" lon="-17.9444830">
        <ele>10.8</ele>
        <time>2020-11-16T22:26:08Z</time>
      </trkpt>
      <trkpt lat="28.6431170" lon="-17.9444830">
        <ele>10.8</ele>
        <time>2020-11-16T22:26:09Z</time>
      </trkpt>
      <trkpt lat="28.6430920" lon="-17.9445280">
        <ele>10.3</ele>
        <time>2020-11-16T22:26:10Z</time>
      </trkpt>
      <trkpt lat="28.6430920" lon="-17.9445280">
        <ele>10.3</ele>
        <time>2020-11-16T22:26:11Z</time>
      </trkpt>
      <trkpt lat="28.6430700" lon="-17.9445680">
        <ele>10.1</ele>
        <time>2020-11-16T22:26:12Z</time>
      </trkpt>
      <trkpt lat="28.6430700" lon="-17.9445680">
        <ele>10.1</ele>
        <time>2020-11-16T22:26:13Z</time>
      </trkpt>
      <trkpt lat="28.6430520" lon="-17.9446300">
        <ele>9.4</ele>
        <time>2020-11-16T22:26:14Z</time>
      </trkpt>
      <trkpt lat="28.6430400" lon="-17.9446680">
        <ele>9.3</ele>
        <time>2020-11-16T22:26:15Z</time>
      </trkpt>
      <trkpt lat="28.6430400" lon="-17.9446680">
        <ele>9.3</ele>
        <time>2020-11-16T22:26:16Z</time>
      </trkpt>
      <trkpt lat="28.6430180" lon="-17.9447600">
        <ele>8.9</ele>
        <time>2020-11-16T22:26:17Z</time>
      </trkpt>
      <trkpt lat="28.6430180" lon="-17.9447600">
        <ele>8.9</ele>
        <time>2020-11-16T22:26:18Z</time>
      </trkpt>
      <trkpt lat="28.6429900" lon="-17.9448630">
        <ele>8.7</ele>
        <time>2020-11-16T22:26:19Z</time>
      </trkpt>
      <trkpt lat="28.6429700" lon="-17.9449130">
        <ele>8.7</ele>
        <time>2020-11-16T22:26:20Z</time>
      </trkpt>
      <trkpt lat="28.6429700" lon="-17.9449130">
        <ele>8.7</ele>
        <time>2020-11-16T22:26:21Z</time>
      </trkpt>
      <trkpt lat="28.6429280" lon="-17.9450080">
        <ele>8.7</ele>
        <time>2020-11-16T22:26:22Z</time>
      </trkpt>
      <trkpt lat="28.6429100" lon="-17.9450530">
        <ele>8.7</ele>
        <time>2020-11-16T22:26:23Z</time>
      </trkpt>
      <trkpt lat="28.6429100" lon="-17.9450530">
        <ele>8.7</ele>
        <time>2020-11-16T22:26:24Z</time>
      </trkpt>
      <trkpt lat="28.6428720" lon="-17.9451330">
        <ele>8.7</ele>
        <time>2020-11-16T22:26:25Z</time>
      </trkpt>
      <trkpt lat="28.6428720" lon="-17.9451330">
        <ele>8.7</ele>
        <time>2020-11-16T22:26:26Z</time>
      </trkpt>
      <trkpt lat="28.6428270" lon="-17.9452050">
        <ele>8.7</ele>
        <time>2020-11-16T22:26:27Z</time>
      </trkpt>
      <trkpt lat="28.6428020" lon="-17.9452400">
        <ele>8.7</ele>
        <time>2020-11-16T22:26:28Z</time>
      </trkpt>
      <trkpt lat="28.6428020" lon="-17.9452400">
        <ele>8.7</ele>
        <time>2020-11-16T22:26:29Z</time>
      </trkpt>
      <trkpt lat="28.6427650" lon="-17.9453150">
        <ele>8.7</ele>
        <time>2020-11-16T22:26:30Z</time>
      </trkpt>
      <trkpt lat="28.6427530" lon="-17.9453520">
        <ele>8.7</ele>
        <time>2020-11-16T22:26:31Z</time>
      </trkpt>
      <trkpt lat="28.6427530" lon="-17.9453520">
        <ele>8.7</ele>
        <time>2020-11-16T22:26:32Z</time>
      </trkpt>
      <trkpt lat="28.6427330" lon="-17.9454220">
        <ele>8.7</ele>
        <time>2020-11-16T22:26:33Z</time>
      </trkpt>
      <trkpt lat="28.6427330" lon="-17.9454220">
        <ele>8.7</ele>
        <time>2020-11-16T22:26:34Z</time>
      </trkpt>
      <trkpt lat="28.6427000" lon="-17.9454820">
        <ele>8.7</ele>
        <time>2020-11-16T22:26:35Z</time>
      </trkpt>
      <trkpt lat="28.6427000" lon="-17.9454820">
        <ele>8.7</ele>
        <time>2020-11-16T22:26:36Z</time>
      </trkpt>
      <trkpt lat="28.6426630" lon="-17.9455270">
        <ele>8.7</ele>
        <time>2020-11-16T22:26:37Z</time>
      </trkpt>
      <trkpt lat="28.6426480" lon="-17.9455430">
        <ele>8.7</ele>
        <time>2020-11-16T22:26:38Z</time>
      </trkpt>
      <trkpt lat="28.6426480" lon="-17.9455430">
        <ele>8.7</ele>
        <time>2020-11-16T22:26:39Z</time>
      </trkpt>
      <trkpt lat="28.6426370" lon="-17.9455630">
        <ele>8.7</ele>
        <time>2020-11-16T22:26:40Z</time>
      </trkpt>
      <trkpt lat="28.6426320" lon="-17.9455680">
        <ele>8.7</ele>
        <time>2020-11-16T22:26:41Z</time>
      </trkpt>
      <trkpt lat="28.6426270" lon="-17.9455730">
        <ele>8.7</ele>
        <time>2020-11-16T22:26:42Z</time>
      </trkpt>
      <trkpt lat="28.6426270" lon="-17.9455730">
        <ele>8.7</ele>
        <time>2020-11-16T22:26:43Z</time>
      </trkpt>
      <trkpt lat="28.6426200" lon="-17.9455980">
        <ele>8.7</ele>
        <time>2020-11-16T22:26:44Z</time>
      </trkpt>
      <trkpt lat="28.6426170" lon="-17.9456100">
        <ele>8.7</ele>
        <time>2020-11-16T22:26:45Z</time>
      </trkpt>
      <trkpt lat="28.6426170" lon="-17.9456100">
        <ele>8.7</ele>
        <time>2020-11-16T22:26:46Z</time>
      </trkpt>
      <trkpt lat="28.6426100" lon="-17.9456380">
        <ele>8.7</ele>
        <time>2020-11-16T22:26:47Z</time>
      </trkpt>
      <trkpt lat="28.6426100" lon="-17.9456480">
        <ele>8.7</ele>
        <time>2020-11-16T22:26:48Z</time>
      </trkpt>
      <trkpt lat="28.6426100" lon="-17.9456480">
        <ele>8.7</ele>
        <time>2020-11-16T22:26:49Z</time>
      </trkpt>
      <trkpt lat="28.6426150" lon="-17.9456700">
        <ele>8.7</ele>
        <time>2020-11-16T22:26:50Z</time>
      </trkpt>
      <trkpt lat="28.6426150" lon="-17.9456700">
        <ele>8.7</ele>
        <time>2020-11-16T22:26:51Z</time>
      </trkpt>
      <trkpt lat="28.6425850" lon="-17.9456750">
        <ele>8.7</ele>
        <time>2020-11-16T22:26:52Z</time>
      </trkpt>
      <trkpt lat="28.6425650" lon="-17.9456870">
        <ele>8.7</ele>
        <time>2020-11-16T22:26:53Z</time>
      </trkpt>
      <trkpt lat="28.6425650" lon="-17.9456870">
        <ele>8.7</ele>
        <time>2020-11-16T22:26:54Z</time>
      </trkpt>
      <trkpt lat="28.6425150" lon="-17.9457070">
        <ele>8.7</ele>
        <time>2020-11-16T22:26:55Z</time>
      </trkpt>
      <trkpt lat="28.6424850" lon="-17.9457150">
        <ele>8.7</ele>
        <time>2020-11-16T22:26:56Z</time>
      </trkpt>
      <trkpt lat="28.6424850" lon="-17.9457150">
        <ele>8.7</ele>
        <time>2020-11-16T22:26:57Z</time>
      </trkpt>
      <trkpt lat="28.6424120" lon="-17.9457270">
        <ele>8.7</ele>
        <time>2020-11-16T22:26:58Z</time>
      </trkpt>
      <trkpt lat="28.6424120" lon="-17.9457270">
        <ele>8.7</ele>
        <time>2020-11-16T22:26:59Z</time>
      </trkpt>
      <trkpt lat="28.6423230" lon="-17.9457300">
        <ele>8.7</ele>
        <time>2020-11-16T22:27:00Z</time>
      </trkpt>
      <trkpt lat="28.6423230" lon="-17.9457300">
        <ele>8.7</ele>
        <time>2020-11-16T22:27:01Z</time>
      </trkpt>
      <trkpt lat="28.6422280" lon="-17.9457480">
        <ele>8.7</ele>
        <time>2020-11-16T22:27:02Z</time>
      </trkpt>
      <trkpt lat="28.6421820" lon="-17.9457430">
        <ele>8.7</ele>
        <time>2020-11-16T22:27:03Z</time>
      </trkpt>
      <trkpt lat="28.6421820" lon="-17.9457430">
        <ele>8.7</ele>
        <time>2020-11-16T22:27:04Z</time>
      </trkpt>
      <trkpt lat="28.6420900" lon="-17.9457250">
        <ele>8.7</ele>
        <time>2020-11-16T22:27:05Z</time>
      </trkpt>
      <trkpt lat="28.6420900" lon="-17.9457250">
        <ele>8.7</ele>
        <time>2020-11-16T22:27:06Z</time>
      </trkpt>
      <trkpt lat="28.6420100" lon="-17.9457100">
        <ele>8.7</ele>
        <time>2020-11-16T22:27:07Z</time>
      </trkpt>
      <trkpt lat="28.6419680" lon="-17.9457120">
        <ele>8.7</ele>
        <time>2020-11-16T22:27:08Z</time>
      </trkpt>
      <trkpt lat="28.6419130" lon="-17.9457500">
        <ele>8.7</ele>
        <time>2020-11-16T22:27:09Z</time>
      </trkpt>
      <trkpt lat="28.6419130" lon="-17.9457500">
        <ele>8.7</ele>
        <time>2020-11-16T22:27:10Z</time>
      </trkpt>
      <trkpt lat="28.6418280" lon="-17.9457520">
        <ele>8.7</ele>
        <time>2020-11-16T22:27:11Z</time>
      </trkpt>
      <trkpt lat="28.6418280" lon="-17.9457520">
        <ele>8.7</ele>
        <time>2020-11-16T22:27:12Z</time>
      </trkpt>
      <trkpt lat="28.6417320" lon="-17.9457230">
        <ele>8.7</ele>
        <time>2020-11-16T22:27:13Z</time>
      </trkpt>
      <trkpt lat="28.6416900" lon="-17.9457200">
        <ele>8.7</ele>
        <time>2020-11-16T22:27:14Z</time>
      </trkpt>
      <trkpt lat="28.6416900" lon="-17.9457200">
        <ele>8.7</ele>
        <time>2020-11-16T22:27:15Z</time>
      </trkpt>
      <trkpt lat="28.6416000" lon="-17.9457130">
        <ele>8.7</ele>
        <time>2020-11-16T22:27:16Z</time>
      </trkpt>
      <trkpt lat="28.6416000" lon="-17.9457130">
        <ele>8.7</ele>
        <time>2020-11-16T22:27:17Z</time>
      </trkpt>
      <trkpt lat="28.6415070" lon="-17.9456980">
        <ele>8.7</ele>
        <time>2020-11-16T22:27:18Z</time>
      </trkpt>
      <trkpt lat="28.6415070" lon="-17.9456980">
        <ele>8.7</ele>
        <time>2020-11-16T22:27:19Z</time>
      </trkpt>
      <trkpt lat="28.6414170" lon="-17.9456920">
        <ele>8.7</ele>
        <time>2020-11-16T22:27:20Z</time>
      </trkpt>
      <trkpt lat="28.6414170" lon="-17.9456920">
        <ele>8.7</ele>
        <time>2020-11-16T22:27:21Z</time>
      </trkpt>
      <trkpt lat="28.6413250" lon="-17.9456820">
        <ele>8.7</ele>
        <time>2020-11-16T22:27:22Z</time>
      </trkpt>
      <trkpt lat="28.6413250" lon="-17.9456820">
        <ele>8.7</ele>
        <time>2020-11-16T22:27:23Z</time>
      </trkpt>
      <trkpt lat="28.6412530" lon="-17.9456620">
        <ele>8.7</ele>
        <time>2020-11-16T22:27:24Z</time>
      </trkpt>
      <trkpt lat="28.6412250" lon="-17.9456530">
        <ele>8.7</ele>
        <time>2020-11-16T22:27:25Z</time>
      </trkpt>
      <trkpt lat="28.6412250" lon="-17.9456530">
        <ele>8.7</ele>
        <time>2020-11-16T22:27:26Z</time>
      </trkpt>
      <trkpt lat="28.6411770" lon="-17.9456330">
        <ele>8.7</ele>
        <time>2020-11-16T22:27:27Z</time>
      </trkpt>
      <trkpt lat="28.6411770" lon="-17.9456330">
        <ele>8.7</ele>
        <time>2020-11-16T22:27:28Z</time>
      </trkpt>
      <trkpt lat="28.6411420" lon="-17.9456320">
        <ele>8.7</ele>
        <time>2020-11-16T22:27:29Z</time>
      </trkpt>
      <trkpt lat="28.6411250" lon="-17.9456300">
        <ele>8.7</ele>
        <time>2020-11-16T22:27:30Z</time>
      </trkpt>
      <trkpt lat="28.6411250" lon="-17.9456300">
        <ele>8.7</ele>
        <time>2020-11-16T22:27:31Z</time>
      </trkpt>
      <trkpt lat="28.6410950" lon="-17.9455830">
        <ele>8.7</ele>
        <time>2020-11-16T22:27:32Z</time>
      </trkpt>
      <trkpt lat="28.6410950" lon="-17.9455830">
        <ele>8.7</ele>
        <time>2020-11-16T22:27:33Z</time>
      </trkpt>
      <trkpt lat="28.6410780" lon="-17.9455480">
        <ele>8.7</ele>
        <time>2020-11-16T22:27:34Z</time>
      </trkpt>
      <trkpt lat="28.6410780" lon="-17.9455470">
        <ele>8.7</ele>
        <time>2020-11-16T22:27:35Z</time>
      </trkpt>
      <trkpt lat="28.6410780" lon="-17.9455470">
        <ele>8.7</ele>
        <time>2020-11-16T22:27:36Z</time>
      </trkpt>
      <trkpt lat="28.6410800" lon="-17.9455400">
        <ele>8.7</ele>
        <time>2020-11-16T22:27:37Z</time>
      </trkpt>
      <trkpt lat="28.6408500" lon="-17.9448820">
        <ele>6.3</ele>
        <time>2020-11-17T06:35:24Z</time>
      </trkpt>
      <trkpt lat="28.6408500" lon="-17.9448820">
        <ele>6.3</ele>
        <time>2020-11-17T06:35:25Z</time>
      </trkpt>
      <trkpt lat="28.6409070" lon="-17.9449020">
        <ele>6.3</ele>
        <time>2020-11-17T06:35:26Z</time>
      </trkpt>
      <trkpt lat="28.6409350" lon="-17.9449150">
        <ele>6.3</ele>
        <time>2020-11-17T06:35:27Z</time>
      </trkpt>
      <trkpt lat="28.6409350" lon="-17.9449150">
        <ele>6.3</ele>
        <time>2020-11-17T06:35:28Z</time>
      </trkpt>
      <trkpt lat="28.6409980" lon="-17.9449400">
        <ele>6.3</ele>
        <time>2020-11-17T06:35:29Z</time>
      </trkpt>
      <trkpt lat="28.6410280" lon="-17.9449420">
        <ele>6.3</ele>
        <time>2020-11-17T06:35:30Z</time>
      </trkpt>
      <trkpt lat="28.6410280" lon="-17.9449420">
        <ele>6.3</ele>
        <time>2020-11-17T06:35:31Z</time>
      </trkpt>
      <trkpt lat="28.6410920" lon="-17.9449330">
        <ele>6.3</ele>
        <time>2020-11-17T06:35:32Z</time>
      </trkpt>
      <trkpt lat="28.6410920" lon="-17.9449330">
        <ele>6.3</ele>
        <time>2020-11-17T06:35:33Z</time>
      </trkpt>
      <trkpt lat="28.6411550" lon="-17.9449170">
        <ele>6.3</ele>
        <time>2020-11-17T06:35:34Z</time>
      </trkpt>
      <trkpt lat="28.6411880" lon="-17.9449100">
        <ele>6.3</ele>
        <time>2020-11-17T06:35:35Z</time>
      </trkpt>
      <trkpt lat="28.6412220" lon="-17.9449030">
        <ele>6.3</ele>
        <time>2020-11-17T06:35:36Z</time>
      </trkpt>
      <trkpt lat="28.6412550" lon="-17.9448930">
        <ele>6.3</ele>
        <time>2020-11-17T06:35:37Z</time>
      </trkpt>
      <trkpt lat="28.6412550" lon="-17.9448930">
        <ele>6.3</ele>
        <time>2020-11-17T06:35:38Z</time>
      </trkpt>
      <trkpt lat="28.6413230" lon="-17.9448750">
        <ele>6.3</ele>
        <time>2020-11-17T06:35:39Z</time>
      </trkpt>
      <trkpt lat="28.6413230" lon="-17.9448750">
        <ele>6.3</ele>
        <time>2020-11-17T06:35:40Z</time>
      </trkpt>
      <trkpt lat="28.6413950" lon="-17.9448620">
        <ele>6.3</ele>
        <time>2020-11-17T06:35:41Z</time>
      </trkpt>
      <trkpt lat="28.6414320" lon="-17.9448570">
        <ele>6.3</ele>
        <time>2020-11-17T06:35:42Z</time>
      </trkpt>
      <trkpt lat="28.6414320" lon="-17.9448570">
        <ele>6.3</ele>
        <time>2020-11-17T06:35:43Z</time>
      </trkpt>
      <trkpt lat="28.6415050" lon="-17.9448480">
        <ele>6.3</ele>
        <time>2020-11-17T06:35:44Z</time>
      </trkpt>
      <trkpt lat="28.6415430" lon="-17.9448450">
        <ele>6.3</ele>
        <time>2020-11-17T06:35:45Z</time>
      </trkpt>
      <trkpt lat="28.6415430" lon="-17.9448450">
        <ele>6.3</ele>
        <time>2020-11-17T06:35:46Z</time>
      </trkpt>
      <trkpt lat="28.6416200" lon="-17.9448420">
        <ele>6.3</ele>
        <time>2020-11-17T06:35:47Z</time>
      </trkpt>
      <trkpt lat="28.6416580" lon="-17.9448400">
        <ele>6.3</ele>
        <time>2020-11-17T06:35:48Z</time>
      </trkpt>
      <trkpt lat="28.6416980" lon="-17.9448380">
        <ele>6.3</ele>
        <time>2020-11-17T06:35:49Z</time>
      </trkpt>
      <trkpt lat="28.6416980" lon="-17.9448380">
        <ele>6.3</ele>
        <time>2020-11-17T06:35:50Z</time>
      </trkpt>
      <trkpt lat="28.6417750" lon="-17.9448370">
        <ele>6.3</ele>
        <time>2020-11-17T06:35:51Z</time>
      </trkpt>
      <trkpt lat="28.6417750" lon="-17.9448370">
        <ele>6.3</ele>
        <time>2020-11-17T06:35:52Z</time>
      </trkpt>
      <trkpt lat="28.6418520" lon="-17.9448350">
        <ele>6.3</ele>
        <time>2020-11-17T06:35:53Z</time>
      </trkpt>
      <trkpt lat="28.6418520" lon="-17.9448350">
        <ele>6.3</ele>
        <time>2020-11-17T06:35:54Z</time>
      </trkpt>
      <trkpt lat="28.6418920" lon="-17.9450080">
        <ele>6.3</ele>
        <time>2020-11-17T06:35:55Z</time>
      </trkpt>
      <trkpt lat="28.6418920" lon="-17.9450080">
        <ele>6.3</ele>
        <time>2020-11-17T06:35:56Z</time>
      </trkpt>
      <trkpt lat="28.6420180" lon="-17.9451750">
        <ele>6.3</ele>
        <time>2020-11-17T06:35:57Z</time>
      </trkpt>
      <trkpt lat="28.6420180" lon="-17.9451750">
        <ele>6.3</ele>
        <time>2020-11-17T06:35:58Z</time>
      </trkpt>
      <trkpt lat="28.6421070" lon="-17.9451920">
        <ele>6.3</ele>
        <time>2020-11-17T06:35:59Z</time>
      </trkpt>
      <trkpt lat="28.6421070" lon="-17.9451920">
        <ele>6.3</ele>
        <time>2020-11-17T06:36:00Z</time>
      </trkpt>
      <trkpt lat="28.6421950" lon="-17.9452020">
        <ele>6.3</ele>
        <time>2020-11-17T06:36:01Z</time>
      </trkpt>
      <trkpt lat="28.6421950" lon="-17.9452020">
        <ele>6.3</ele>
        <time>2020-11-17T06:36:02Z</time>
      </trkpt>
      <trkpt lat="28.6422780" lon="-17.9451970">
        <ele>6.3</ele>
        <time>2020-11-17T06:36:03Z</time>
      </trkpt>
      <trkpt lat="28.6422780" lon="-17.9451970">
        <ele>6.3</ele>
        <time>2020-11-17T06:36:04Z</time>
      </trkpt>
      <trkpt lat="28.6423570" lon="-17.9451900">
        <ele>6.3</ele>
        <time>2020-11-17T06:36:05Z</time>
      </trkpt>
      <trkpt lat="28.6423920" lon="-17.9451870">
        <ele>6.3</ele>
        <time>2020-11-17T06:36:06Z</time>
      </trkpt>
      <trkpt lat="28.6423920" lon="-17.9451870">
        <ele>6.3</ele>
        <time>2020-11-17T06:36:07Z</time>
      </trkpt>
      <trkpt lat="28.6424630" lon="-17.9451750">
        <ele>6.3</ele>
        <time>2020-11-17T06:36:08Z</time>
      </trkpt>
      <trkpt lat="28.6424980" lon="-17.9451670">
        <ele>6.3</ele>
        <time>2020-11-17T06:36:09Z</time>
      </trkpt>
      <trkpt lat="28.6424980" lon="-17.9451670">
        <ele>6.3</ele>
        <time>2020-11-17T06:36:10Z</time>
      </trkpt>
      <trkpt lat="28.6425670" lon="-17.9451420">
        <ele>6.3</ele>
        <time>2020-11-17T06:36:11Z</time>
      </trkpt>
      <trkpt lat="28.6425670" lon="-17.9451420">
        <ele>6.3</ele>
        <time>2020-11-17T06:36:12Z</time>
      </trkpt>
      <trkpt lat="28.6426350" lon="-17.9451100">
        <ele>6.3</ele>
        <time>2020-11-17T06:36:13Z</time>
      </trkpt>
      <trkpt lat="28.6426350" lon="-17.9451100">
        <ele>6.3</ele>
        <time>2020-11-17T06:36:14Z</time>
      </trkpt>
      <trkpt lat="28.6426970" lon="-17.9450670">
        <ele>6.3</ele>
        <time>2020-11-17T06:36:15Z</time>
      </trkpt>
      <trkpt lat="28.6426970" lon="-17.9450670">
        <ele>6.3</ele>
        <time>2020-11-17T06:36:16Z</time>
      </trkpt>
      <trkpt lat="28.6427520" lon="-17.9450150">
        <ele>6.3</ele>
        <time>2020-11-17T06:36:17Z</time>
      </trkpt>
      <trkpt lat="28.6427770" lon="-17.9449870">
        <ele>6.4</ele>
        <time>2020-11-17T06:36:18Z</time>
      </trkpt>
      <trkpt lat="28.6427770" lon="-17.9449870">
        <ele>6.4</ele>
        <time>2020-11-17T06:36:19Z</time>
      </trkpt>
      <trkpt lat="28.6428250" lon="-17.9449270">
        <ele>6.3</ele>
        <time>2020-11-17T06:36:20Z</time>
      </trkpt>
      <trkpt lat="28.6428250" lon="-17.9449270">
        <ele>6.3</ele>
        <time>2020-11-17T06:36:21Z</time>
      </trkpt>
      <trkpt lat="28.6428730" lon="-17.9448670">
        <ele>6.3</ele>
        <time>2020-11-17T06:36:22Z</time>
      </trkpt>
      <trkpt lat="28.6428730" lon="-17.9448670">
        <ele>6.3</ele>
        <time>2020-11-17T06:36:23Z</time>
      </trkpt>
      <trkpt lat="28.6429200" lon="-17.9448030">
        <ele>6.3</ele>
        <time>2020-11-17T06:36:24Z</time>
      </trkpt>
      <trkpt lat="28.6429430" lon="-17.9447700">
        <ele>6.3</ele>
        <time>2020-11-17T06:36:25Z</time>
      </trkpt>
      <trkpt lat="28.6429430" lon="-17.9447700">
        <ele>6.3</ele>
        <time>2020-11-17T06:36:26Z</time>
      </trkpt>
      <trkpt lat="28.6429880" lon="-17.9447030">
        <ele>6.5</ele>
        <time>2020-11-17T06:36:27Z</time>
      </trkpt>
      <trkpt lat="28.6430080" lon="-17.9446670">
        <ele>6.7</ele>
        <time>2020-11-17T06:36:28Z</time>
      </trkpt>
      <trkpt lat="28.6430080" lon="-17.9446670">
        <ele>6.7</ele>
        <time>2020-11-17T06:36:29Z</time>
      </trkpt>
      <trkpt lat="28.6430420" lon="-17.9445950">
        <ele>7.2</ele>
        <time>2020-11-17T06:36:30Z</time>
      </trkpt>
      <trkpt lat="28.6430420" lon="-17.9445950">
        <ele>7.2</ele>
        <time>2020-11-17T06:36:31Z</time>
      </trkpt>
      <trkpt lat="28.6430730" lon="-17.9445220">
        <ele>7.9</ele>
        <time>2020-11-17T06:36:32Z</time>
      </trkpt>
      <trkpt lat="28.6430900" lon="-17.9444850">
        <ele>8.0</ele>
        <time>2020-11-17T06:36:33Z</time>
      </trkpt>
      <trkpt lat="28.6431080" lon="-17.9444500">
        <ele>8.5</ele>
        <time>2020-11-17T06:36:34Z</time>
      </trkpt>
      <trkpt lat="28.6431080" lon="-17.9444500">
        <ele>8.5</ele>
        <time>2020-11-17T06:36:35Z</time>
      </trkpt>
      <trkpt lat="28.6431580" lon="-17.9443880">
        <ele>8.9</ele>
        <time>2020-11-17T06:36:36Z</time>
      </trkpt>
      <trkpt lat="28.6431580" lon="-17.9443880">
        <ele>8.9</ele>
        <time>2020-11-17T06:36:37Z</time>
      </trkpt>
      <trkpt lat="28.6432150" lon="-17.9443350">
        <ele>9.4</ele>
        <time>2020-11-17T06:36:38Z</time>
      </trkpt>
      <trkpt lat="28.6432150" lon="-17.9443350">
        <ele>9.4</ele>
        <time>2020-11-17T06:36:39Z</time>
      </trkpt>
      <trkpt lat="28.6432670" lon="-17.9442670">
        <ele>10.4</ele>
        <time>2020-11-17T06:36:40Z</time>
      </trkpt>
      <trkpt lat="28.6432670" lon="-17.9442670">
        <ele>10.4</ele>
        <time>2020-11-17T06:36:41Z</time>
      </trkpt>
      <trkpt lat="28.6432870" lon="-17.9441800">
        <ele>10.4</ele>
        <time>2020-11-17T06:36:42Z</time>
      </trkpt>
      <trkpt lat="28.6432870" lon="-17.9441800">
        <ele>10.4</ele>
        <time>2020-11-17T06:36:43Z</time>
      </trkpt>
      <trkpt lat="28.6432770" lon="-17.9440880">
        <ele>10.4</ele>
        <time>2020-11-17T06:36:44Z</time>
      </trkpt>
      <trkpt lat="28.6432770" lon="-17.9440880">
        <ele>10.4</ele>
        <time>2020-11-17T06:36:45Z</time>
      </trkpt>
      <trkpt lat="28.6432830" lon="-17.9440020">
        <ele>10.5</ele>
        <time>2020-11-17T06:36:46Z</time>
      </trkpt>
      <trkpt lat="28.6433050" lon="-17.9439680">
        <ele>10.5</ele>
        <time>2020-11-17T06:36:47Z</time>
      </trkpt>
      <trkpt lat="28.6433370" lon="-17.9439470">
        <ele>10.6</ele>
        <time>2020-11-17T06:36:48Z</time>
      </trkpt>
      <trkpt lat="28.6433370" lon="-17.9439470">
        <ele>10.6</ele>
        <time>2020-11-17T06:36:49Z</time>
      </trkpt>
      <trkpt lat="28.6434130" lon="-17.9439520">
        <ele>10.6</ele>
        <time>2020-11-17T06:36:50Z</time>
      </trkpt>
      <trkpt lat="28.6434130" lon="-17.9439520">
        <ele>10.6</ele>
        <time>2020-11-17T06:36:51Z</time>
      </trkpt>
      <trkpt lat="28.6434870" lon="-17.9439920">
        <ele>10.7</ele>
        <time>2020-11-17T06:36:52Z</time>
      </trkpt>
      <trkpt lat="28.6434870" lon="-17.9439920">
        <ele>10.7</ele>
        <time>2020-11-17T06:36:53Z</time>
      </trkpt>
      <trkpt lat="28.6435630" lon="-17.9440200">
        <ele>10.7</ele>
        <time>2020-11-17T06:36:54Z</time>
      </trkpt>
      <trkpt lat="28.6435630" lon="-17.9440200">
        <ele>10.7</ele>
        <time>2020-11-17T06:36:55Z</time>
      </trkpt>
      <trkpt lat="28.6436430" lon="-17.9440470">
        <ele>10.6</ele>
        <time>2020-11-17T06:36:56Z</time>
      </trkpt>
      <trkpt lat="28.6436830" lon="-17.9440600">
        <ele>10.6</ele>
        <time>2020-11-17T06:36:57Z</time>
      </trkpt>
      <trkpt lat="28.6436830" lon="-17.9440600">
        <ele>10.6</ele>
        <time>2020-11-17T06:36:58Z</time>
      </trkpt>
      <trkpt lat="28.6437670" lon="-17.9440870">
        <ele>10.5</ele>
        <time>2020-11-17T06:36:59Z</time>
      </trkpt>
      <trkpt lat="28.6437670" lon="-17.9440870">
        <ele>10.5</ele>
        <time>2020-11-17T06:37:00Z</time>
      </trkpt>
      <trkpt lat="28.6438500" lon="-17.9441170">
        <ele>10.5</ele>
        <time>2020-11-17T06:37:01Z</time>
      </trkpt>
      <trkpt lat="28.6438900" lon="-17.9441320">
        <ele>10.4</ele>
        <time>2020-11-17T06:37:02Z</time>
      </trkpt>
      <trkpt lat="28.6438900" lon="-17.9441320">
        <ele>10.4</ele>
        <time>2020-11-17T06:37:03Z</time>
      </trkpt>
      <trkpt lat="28.6439730" lon="-17.9441620">
        <ele>10.4</ele>
        <time>2020-11-17T06:37:04Z</time>
      </trkpt>
      <trkpt lat="28.6439730" lon="-17.9441620">
        <ele>10.4</ele>
        <time>2020-11-17T06:37:05Z</time>
      </trkpt>
      <trkpt lat="28.6440580" lon="-17.9441870">
        <ele>10.4</ele>
        <time>2020-11-17T06:37:06Z</time>
      </trkpt>
      <trkpt lat="28.6440580" lon="-17.9441870">
        <ele>10.4</ele>
        <time>2020-11-17T06:37:07Z</time>
      </trkpt>
      <trkpt lat="28.6441450" lon="-17.9442100">
        <ele>10.4</ele>
        <time>2020-11-17T06:37:08Z</time>
      </trkpt>
      <trkpt lat="28.6441450" lon="-17.9442100">
        <ele>10.4</ele>
        <time>2020-11-17T06:37:09Z</time>
      </trkpt>
      <trkpt lat="28.6442280" lon="-17.9442400">
        <ele>10.4</ele>
        <time>2020-11-17T06:37:10Z</time>
      </trkpt>
      <trkpt lat="28.6442280" lon="-17.9442400">
        <ele>10.4</ele>
        <time>2020-11-17T06:37:11Z</time>
      </trkpt>
      <trkpt lat="28.6443130" lon="-17.9442680">
        <ele>10.4</ele>
        <time>2020-11-17T06:37:12Z</time>
      </trkpt>
      <trkpt lat="28.6443130" lon="-17.9442680">
        <ele>10.4</ele>
        <time>2020-11-17T06:37:13Z</time>
      </trkpt>
      <trkpt lat="28.6444000" lon="-17.9442950">
        <ele>10.4</ele>
        <time>2020-11-17T06:37:14Z</time>
      </trkpt>
      <trkpt lat="28.6444000" lon="-17.9442950">
        <ele>10.4</ele>
        <time>2020-11-17T06:37:15Z</time>
      </trkpt>
      <trkpt lat="28.6444850" lon="-17.9443200">
        <ele>10.5</ele>
        <time>2020-11-17T06:37:16Z</time>
      </trkpt>
      <trkpt lat="28.6445280" lon="-17.9443330">
        <ele>10.5</ele>
        <time>2020-11-17T06:37:17Z</time>
      </trkpt>
      <trkpt lat="28.6445700" lon="-17.9443480">
        <ele>10.5</ele>
        <time>2020-11-17T06:37:18Z</time>
      </trkpt>
      <trkpt lat="28.6445700" lon="-17.9443480">
        <ele>10.5</ele>
        <time>2020-11-17T06:37:19Z</time>
      </trkpt>
      <trkpt lat="28.6446530" lon="-17.9443780">
        <ele>10.5</ele>
        <time>2020-11-17T06:37:20Z</time>
      </trkpt>
      <trkpt lat="28.6446530" lon="-17.9443780">
        <ele>10.5</ele>
        <time>2020-11-17T06:37:21Z</time>
      </trkpt>
      <trkpt lat="28.6447370" lon="-17.9444030">
        <ele>10.5</ele>
        <time>2020-11-17T06:37:22Z</time>
      </trkpt>
      <trkpt lat="28.6447370" lon="-17.9444030">
        <ele>10.5</ele>
        <time>2020-11-17T06:37:23Z</time>
      </trkpt>
      <trkpt lat="28.6448220" lon="-17.9444250">
        <ele>10.5</ele>
        <time>2020-11-17T06:37:24Z</time>
      </trkpt>
      <trkpt lat="28.6448220" lon="-17.9444250">
        <ele>10.5</ele>
        <time>2020-11-17T06:37:25Z</time>
      </trkpt>
      <trkpt lat="28.6449050" lon="-17.9444550">
        <ele>10.5</ele>
        <time>2020-11-17T06:37:26Z</time>
      </trkpt>
      <trkpt lat="28.6449480" lon="-17.9444680">
        <ele>10.4</ele>
        <time>2020-11-17T06:37:27Z</time>
      </trkpt>
      <trkpt lat="28.6449480" lon="-17.9444680">
        <ele>10.4</ele>
        <time>2020-11-17T06:37:28Z</time>
      </trkpt>
      <trkpt lat="28.6450320" lon="-17.9444970">
        <ele>10.4</ele>
        <time>2020-11-17T06:37:29Z</time>
      </trkpt>
      <trkpt lat="28.6450730" lon="-17.9445100">
        <ele>10.4</ele>
        <time>2020-11-17T06:37:30Z</time>
      </trkpt>
      <trkpt lat="28.6450730" lon="-17.9445100">
        <ele>10.4</ele>
        <time>2020-11-17T06:37:31Z</time>
      </trkpt>
      <trkpt lat="28.6451580" lon="-17.9445370">
        <ele>10.4</ele>
        <time>2020-11-17T06:37:32Z</time>
      </trkpt>
      <trkpt lat="28.6451580" lon="-17.9445370">
        <ele>10.4</ele>
        <time>2020-11-17T06:37:33Z</time>
      </trkpt>
      <trkpt lat="28.6452400" lon="-17.9445630">
        <ele>10.3</ele>
        <time>2020-11-17T06:37:34Z</time>
      </trkpt>
      <trkpt lat="28.6452820" lon="-17.9445730">
        <ele>10.3</ele>
        <time>2020-11-17T06:37:35Z</time>
      </trkpt>
      <trkpt lat="28.6452820" lon="-17.9445730">
        <ele>10.3</ele>
        <time>2020-11-17T06:37:36Z</time>
      </trkpt>
      <trkpt lat="28.6453630" lon="-17.9445930">
        <ele>10.3</ele>
        <time>2020-11-17T06:37:37Z</time>
      </trkpt>
      <trkpt lat="28.6454050" lon="-17.9446000">
        <ele>10.3</ele>
        <time>2020-11-17T06:37:38Z</time>
      </trkpt>
      <trkpt lat="28.6454050" lon="-17.9446000">
        <ele>10.3</ele>
        <time>2020-11-17T06:37:39Z</time>
      </trkpt>
      <trkpt lat="28.6454920" lon="-17.9446100">
        <ele>10.2</ele>
        <time>2020-11-17T06:37:40Z</time>
      </trkpt>
      <trkpt lat="28.6454920" lon="-17.9446100">
        <ele>10.2</ele>
        <time>2020-11-17T06:37:41Z</time>
      </trkpt>
      <trkpt lat="28.6455780" lon="-17.9446080">
        <ele>10.2</ele>
        <time>2020-11-17T06:37:42Z</time>
      </trkpt>
      <trkpt lat="28.6455780" lon="-17.9446080">
        <ele>10.2</ele>
        <time>2020-11-17T06:37:43Z</time>
      </trkpt>
      <trkpt lat="28.6456620" lon="-17.9445970">
        <ele>10.2</ele>
        <time>2020-11-17T06:37:44Z</time>
      </trkpt>
      <trkpt lat="28.6456620" lon="-17.9445970">
        <ele>10.2</ele>
        <time>2020-11-17T06:37:45Z</time>
      </trkpt>
      <trkpt lat="28.6457430" lon="-17.9445770">
        <ele>10.2</ele>
        <time>2020-11-17T06:37:46Z</time>
      </trkpt>
      <trkpt lat="28.6457830" lon="-17.9445630">
        <ele>10.2</ele>
        <time>2020-11-17T06:37:47Z</time>
      </trkpt>
      <trkpt lat="28.6458230" lon="-17.9445500">
        <ele>10.2</ele>
        <time>2020-11-17T06:37:48Z</time>
      </trkpt>
      <trkpt lat="28.6458230" lon="-17.9445500">
        <ele>10.2</ele>
        <time>2020-11-17T06:37:49Z</time>
      </trkpt>
      <trkpt lat="28.6459030" lon="-17.9445230">
        <ele>10.2</ele>
        <time>2020-11-17T06:37:50Z</time>
      </trkpt>
      <trkpt lat="28.6459030" lon="-17.9445230">
        <ele>10.2</ele>
        <time>2020-11-17T06:37:51Z</time>
      </trkpt>
      <trkpt lat="28.6459850" lon="-17.9444970">
        <ele>10.2</ele>
        <time>2020-11-17T06:37:52Z</time>
      </trkpt>
      <trkpt lat="28.6460230" lon="-17.9444820">
        <ele>10.2</ele>
        <time>2020-11-17T06:37:53Z</time>
      </trkpt>
      <trkpt lat="28.6460630" lon="-17.9444680">
        <ele>10.2</ele>
        <time>2020-11-17T06:37:54Z</time>
      </trkpt>
      <trkpt lat="28.6460630" lon="-17.9444680">
        <ele>10.2</ele>
        <time>2020-11-17T06:37:55Z</time>
      </trkpt>
      <trkpt lat="28.6461400" lon="-17.9444450">
        <ele>10.2</ele>
        <time>2020-11-17T06:37:56Z</time>
      </trkpt>
      <trkpt lat="28.6461800" lon="-17.9444320">
        <ele>10.2</ele>
        <time>2020-11-17T06:37:57Z</time>
      </trkpt>
      <trkpt lat="28.6461800" lon="-17.9444320">
        <ele>10.2</ele>
        <time>2020-11-17T06:37:58Z</time>
      </trkpt>
      <trkpt lat="28.6462580" lon="-17.9443980">
        <ele>10.2</ele>
        <time>2020-11-17T06:37:59Z</time>
      </trkpt>
      <trkpt lat="28.6462580" lon="-17.9443980">
        <ele>10.2</ele>
        <time>2020-11-17T06:38:00Z</time>
      </trkpt>
      <trkpt lat="28.6463380" lon="-17.9443680">
        <ele>10.2</ele>
        <time>2020-11-17T06:38:01Z</time>
      </trkpt>
      <trkpt lat="28.6463780" lon="-17.9443550">
        <ele>10.2</ele>
        <time>2020-11-17T06:38:02Z</time>
      </trkpt>
      <trkpt lat="28.6464180" lon="-17.9443400">
        <ele>10.2</ele>
        <time>2020-11-17T06:38:03Z</time>
      </trkpt>
      <trkpt lat="28.6464180" lon="-17.9443400">
        <ele>10.2</ele>
        <time>2020-11-17T06:38:04Z</time>
      </trkpt>
      <trkpt lat="28.6464980" lon="-17.9443100">
        <ele>10.2</ele>
        <time>2020-11-17T06:38:05Z</time>
      </trkpt>
      <trkpt lat="28.6464980" lon="-17.9443100">
        <ele>10.2</ele>
        <time>2020-11-17T06:38:06Z</time>
      </trkpt>
      <trkpt lat="28.6465800" lon="-17.9442800">
        <ele>10.2</ele>
        <time>2020-11-17T06:38:07Z</time>
      </trkpt>
      <trkpt lat="28.6466200" lon="-17.9442650">
        <ele>10.2</ele>
        <time>2020-11-17T06:38:08Z</time>
      </trkpt>
      <trkpt lat="28.6466200" lon="-17.9442650">
        <ele>10.2</ele>
        <time>2020-11-17T06:38:09Z</time>
      </trkpt>
      <trkpt lat="28.6466980" lon="-17.9442330">
        <ele>10.3</ele>
        <time>2020-11-17T06:38:10Z</time>
      </trkpt>
      <trkpt lat="28.6467370" lon="-17.9442200">
        <ele>10.3</ele>
        <time>2020-11-17T06:38:11Z</time>
      </trkpt>
      <trkpt lat="28.6467370" lon="-17.9442200">
        <ele>10.3</ele>
        <time>2020-11-17T06:38:12Z</time>
      </trkpt>
      <trkpt lat="28.6468130" lon="-17.9441920">
        <ele>10.3</ele>
        <time>2020-11-17T06:38:13Z</time>
      </trkpt>
      <trkpt lat="28.6468500" lon="-17.9441780">
        <ele>10.4</ele>
        <time>2020-11-17T06:38:14Z</time>
      </trkpt>
      <trkpt lat="28.6468500" lon="-17.9441780">
        <ele>10.4</ele>
        <time>2020-11-17T06:38:15Z</time>
      </trkpt>
      <trkpt lat="28.6469220" lon="-17.9441480">
        <ele>10.5</ele>
        <time>2020-11-17T06:38:16Z</time>
      </trkpt>
      <trkpt lat="28.6469220" lon="-17.9441480">
        <ele>10.5</ele>
        <time>2020-11-17T06:38:17Z</time>
      </trkpt>
      <trkpt lat="28.6469870" lon="-17.9441070">
        <ele>10.5</ele>
        <time>2020-11-17T06:38:18Z</time>
      </trkpt>
      <trkpt lat="28.6469870" lon="-17.9441070">
        <ele>10.5</ele>
        <time>2020-11-17T06:38:19Z</time>
      </trkpt>
      <trkpt lat="28.6470350" lon="-17.9440470">
        <ele>10.6</ele>
        <time>2020-11-17T06:38:20Z</time>
      </trkpt>
      <trkpt lat="28.6470350" lon="-17.9440470">
        <ele>10.6</ele>
        <time>2020-11-17T06:38:21Z</time>
      </trkpt>
      <trkpt lat="28.6470900" lon="-17.9439870">
        <ele>10.7</ele>
        <time>2020-11-17T06:38:22Z</time>
      </trkpt>
      <trkpt lat="28.6470900" lon="-17.9439870">
        <ele>10.7</ele>
        <time>2020-11-17T06:38:23Z</time>
      </trkpt>
      <trkpt lat="28.6471620" lon="-17.9439500">
        <ele>10.9</ele>
        <time>2020-11-17T06:38:24Z</time>
      </trkpt>
      <trkpt lat="28.6471620" lon="-17.9439500">
        <ele>10.9</ele>
        <time>2020-11-17T06:38:25Z</time>
      </trkpt>
      <trkpt lat="28.6472380" lon="-17.9439380">
        <ele>11.2</ele>
        <time>2020-11-17T06:38:26Z</time>
      </trkpt>
      <trkpt lat="28.6472730" lon="-17.9439350">
        <ele>11.3</ele>
        <time>2020-11-17T06:38:27Z</time>
      </trkpt>
      <trkpt lat="28.6472730" lon="-17.9439350">
        <ele>11.3</ele>
        <time>2020-11-17T06:38:28Z</time>
      </trkpt>
      <trkpt lat="28.6473450" lon="-17.9439270">
        <ele>11.6</ele>
        <time>2020-11-17T06:38:29Z</time>
      </trkpt>
      <trkpt lat="28.6473450" lon="-17.9439270">
        <ele>11.6</ele>
        <time>2020-11-17T06:38:30Z</time>
      </trkpt>
      <trkpt lat="28.6474130" lon="-17.9439180">
        <ele>12.0</ele>
        <time>2020-11-17T06:38:31Z</time>
      </trkpt>
      <trkpt lat="28.6474130" lon="-17.9439180">
        <ele>12.0</ele>
        <time>2020-11-17T06:38:32Z</time>
      </trkpt>
      <trkpt lat="28.6474770" lon="-17.9439080">
        <ele>12.3</ele>
        <time>2020-11-17T06:38:33Z</time>
      </trkpt>
      <trkpt lat="28.6474770" lon="-17.9439080">
        <ele>12.3</ele>
        <time>2020-11-17T06:38:34Z</time>
      </trkpt>
      <trkpt lat="28.6475380" lon="-17.9438980">
        <ele>12.6</ele>
        <time>2020-11-17T06:38:35Z</time>
      </trkpt>
      <trkpt lat="28.6475380" lon="-17.9438980">
        <ele>12.6</ele>
        <time>2020-11-17T06:38:36Z</time>
      </trkpt>
      <trkpt lat="28.6475970" lon="-17.9438820">
        <ele>12.9</ele>
        <time>2020-11-17T06:38:37Z</time>
      </trkpt>
      <trkpt lat="28.6475970" lon="-17.9438820">
        <ele>12.9</ele>
        <time>2020-11-17T06:38:38Z</time>
      </trkpt>
      <trkpt lat="28.6476500" lon="-17.9438530">
        <ele>13.1</ele>
        <time>2020-11-17T06:38:39Z</time>
      </trkpt>
      <trkpt lat="28.6476500" lon="-17.9438530">
        <ele>13.1</ele>
        <time>2020-11-17T06:38:40Z</time>
      </trkpt>
      <trkpt lat="28.6476880" lon="-17.9438120">
        <ele>13.5</ele>
        <time>2020-11-17T06:38:41Z</time>
      </trkpt>
      <trkpt lat="28.6477000" lon="-17.9437850">
        <ele>14.7</ele>
        <time>2020-11-17T06:38:42Z</time>
      </trkpt>
      <trkpt lat="28.6477000" lon="-17.9437850">
        <ele>14.7</ele>
        <time>2020-11-17T06:38:43Z</time>
      </trkpt>
      <trkpt lat="28.6476980" lon="-17.9437220">
        <ele>15.1</ele>
        <time>2020-11-17T06:38:44Z</time>
      </trkpt>
      <trkpt lat="28.6476880" lon="-17.9436880">
        <ele>15.3</ele>
        <time>2020-11-17T06:38:45Z</time>
      </trkpt>
      <trkpt lat="28.6476730" lon="-17.9436580">
        <ele>15.5</ele>
        <time>2020-11-17T06:38:46Z</time>
      </trkpt>
      <trkpt lat="28.6476730" lon="-17.9436580">
        <ele>15.5</ele>
        <time>2020-11-17T06:38:47Z</time>
      </trkpt>
      <trkpt lat="28.6476470" lon="-17.9435930">
        <ele>15.9</ele>
        <time>2020-11-17T06:38:48Z</time>
      </trkpt>
      <trkpt lat="28.6476470" lon="-17.9435930">
        <ele>15.9</ele>
        <time>2020-11-17T06:38:49Z</time>
      </trkpt>
      <trkpt lat="28.6476230" lon="-17.9435320">
        <ele>16.3</ele>
        <time>2020-11-17T06:38:50Z</time>
      </trkpt>
      <trkpt lat="28.6476230" lon="-17.9435320">
        <ele>16.3</ele>
        <time>2020-11-17T06:38:51Z</time>
      </trkpt>
      <trkpt lat="28.6476000" lon="-17.9434730">
        <ele>16.6</ele>
        <time>2020-11-17T06:38:52Z</time>
      </trkpt>
      <trkpt lat="28.6475900" lon="-17.9434450">
        <ele>16.8</ele>
        <time>2020-11-17T06:38:53Z</time>
      </trkpt>
      <trkpt lat="28.6475830" lon="-17.9434150">
        <ele>17.0</ele>
        <time>2020-11-17T06:38:54Z</time>
      </trkpt>
      <trkpt lat="28.6475830" lon="-17.9434150">
        <ele>17.0</ele>
        <time>2020-11-17T06:38:55Z</time>
      </trkpt>
      <trkpt lat="28.6475670" lon="-17.9433570">
        <ele>17.4</ele>
        <time>2020-11-17T06:38:56Z</time>
      </trkpt>
      <trkpt lat="28.6475630" lon="-17.9433300">
        <ele>17.6</ele>
        <time>2020-11-17T06:38:57Z</time>
      </trkpt>
      <trkpt lat="28.6475550" lon="-17.9433020">
        <ele>17.7</ele>
        <time>2020-11-17T06:38:58Z</time>
      </trkpt>
      <trkpt lat="28.6475550" lon="-17.9433020">
        <ele>17.7</ele>
        <time>2020-11-17T06:38:59Z</time>
      </trkpt>
      <trkpt lat="28.6475380" lon="-17.9432450">
        <ele>18.1</ele>
        <time>2020-11-17T06:39:00Z</time>
      </trkpt>
      <trkpt lat="28.6475300" lon="-17.9432170">
        <ele>18.3</ele>
        <time>2020-11-17T06:39:01Z</time>
      </trkpt>
      <trkpt lat="28.6475300" lon="-17.9432170">
        <ele>18.3</ele>
        <time>2020-11-17T06:39:02Z</time>
      </trkpt>
      <trkpt lat="28.6475180" lon="-17.9431580">
        <ele>18.7</ele>
        <time>2020-11-17T06:39:03Z</time>
      </trkpt>
      <trkpt lat="28.6475180" lon="-17.9431580">
        <ele>18.7</ele>
        <time>2020-11-17T06:39:04Z</time>
      </trkpt>
      <trkpt lat="28.6475030" lon="-17.9431030">
        <ele>19.1</ele>
        <time>2020-11-17T06:39:05Z</time>
      </trkpt>
      <trkpt lat="28.6475030" lon="-17.9431030">
        <ele>19.1</ele>
        <time>2020-11-17T06:39:06Z</time>
      </trkpt>
      <trkpt lat="28.6474920" lon="-17.9430520">
        <ele>19.5</ele>
        <time>2020-11-17T06:39:07Z</time>
      </trkpt>
      <trkpt lat="28.6474870" lon="-17.9430250">
        <ele>19.6</ele>
        <time>2020-11-17T06:39:08Z</time>
      </trkpt>
      <trkpt lat="28.6474870" lon="-17.9430250">
        <ele>19.6</ele>
        <time>2020-11-17T06:39:09Z</time>
      </trkpt>
      <trkpt lat="28.6474770" lon="-17.9429730">
        <ele>20.0</ele>
        <time>2020-11-17T06:39:10Z</time>
      </trkpt>
      <trkpt lat="28.6474720" lon="-17.9429480">
        <ele>20.2</ele>
        <time>2020-11-17T06:39:11Z</time>
      </trkpt>
      <trkpt lat="28.6474720" lon="-17.9429480">
        <ele>20.2</ele>
        <time>2020-11-17T06:39:12Z</time>
      </trkpt>
      <trkpt lat="28.6474630" lon="-17.9429000">
        <ele>20.5</ele>
        <time>2020-11-17T06:39:13Z</time>
      </trkpt>
      <trkpt lat="28.6474600" lon="-17.9428770">
        <ele>20.7</ele>
        <time>2020-11-17T06:39:14Z</time>
      </trkpt>
      <trkpt lat="28.6474600" lon="-17.9428770">
        <ele>20.7</ele>
        <time>2020-11-17T06:39:15Z</time>
      </trkpt>
      <trkpt lat="28.6474470" lon="-17.9428300">
        <ele>21.0</ele>
        <time>2020-11-17T06:39:16Z</time>
      </trkpt>
      <trkpt lat="28.6474470" lon="-17.9428300">
        <ele>21.0</ele>
        <time>2020-11-17T06:39:17Z</time>
      </trkpt>
      <trkpt lat="28.6474400" lon="-17.9427800">
        <ele>21.4</ele>
        <time>2020-11-17T06:39:18Z</time>
      </trkpt>
      <trkpt lat="28.6474400" lon="-17.9427800">
        <ele>21.4</ele>
        <time>2020-11-17T06:39:19Z</time>
      </trkpt>
      <trkpt lat="28.6474330" lon="-17.9427320">
        <ele>21.7</ele>
        <time>2020-11-17T06:39:20Z</time>
      </trkpt>
      <trkpt lat="28.6474270" lon="-17.9427080">
        <ele>21.9</ele>
        <time>2020-11-17T06:39:21Z</time>
      </trkpt>
      <trkpt lat="28.6474270" lon="-17.9427080">
        <ele>21.9</ele>
        <time>2020-11-17T06:39:22Z</time>
      </trkpt>
      <trkpt lat="28.6474200" lon="-17.9426580">
        <ele>22.3</ele>
        <time>2020-11-17T06:39:23Z</time>
      </trkpt>
      <trkpt lat="28.6474120" lon="-17.9426350">
        <ele>22.5</ele>
        <time>2020-11-17T06:39:24Z</time>
      </trkpt>
      <trkpt lat="28.6474120" lon="-17.9426350">
        <ele>22.5</ele>
        <time>2020-11-17T06:39:25Z</time>
      </trkpt>
      <trkpt lat="28.6473980" lon="-17.9425870">
        <ele>22.8</ele>
        <time>2020-11-17T06:39:26Z</time>
      </trkpt>
      <trkpt lat="28.6473930" lon="-17.9425620">
        <ele>23.0</ele>
        <time>2020-11-17T06:39:27Z</time>
      </trkpt>
      <trkpt lat="28.6473920" lon="-17.9425380">
        <ele>23.2</ele>
        <time>2020-11-17T06:39:28Z</time>
      </trkpt>
      <trkpt lat="28.6473920" lon="-17.9425380">
        <ele>23.2</ele>
        <time>2020-11-17T06:39:29Z</time>
      </trkpt>
      <trkpt lat="28.6473930" lon="-17.9424870">
        <ele>23.6</ele>
        <time>2020-11-17T06:39:30Z</time>
      </trkpt>
      <trkpt lat="28.6473930" lon="-17.9424870">
        <ele>23.6</ele>
        <time>2020-11-17T06:39:31Z</time>
      </trkpt>
      <trkpt lat="28.6473920" lon="-17.9424370">
        <ele>23.9</ele>
        <time>2020-11-17T06:39:32Z</time>
      </trkpt>
      <trkpt lat="28.6473920" lon="-17.9424130">
        <ele>24.1</ele>
        <time>2020-11-17T06:39:33Z</time>
      </trkpt>
      <trkpt lat="28.6473920" lon="-17.9424130">
        <ele>24.1</ele>
        <time>2020-11-17T06:39:34Z</time>
      </trkpt>
      <trkpt lat="28.6473880" lon="-17.9423630">
        <ele>24.4</ele>
        <time>2020-11-17T06:39:35Z</time>
      </trkpt>
      <trkpt lat="28.6473880" lon="-17.9423630">
        <ele>24.4</ele>
        <time>2020-11-17T06:39:36Z</time>
      </trkpt>
      <trkpt lat="28.6473870" lon="-17.9423130">
        <ele>24.8</ele>
        <time>2020-11-17T06:39:37Z</time>
      </trkpt>
      <trkpt lat="28.6473870" lon="-17.9423130">
        <ele>24.8</ele>
        <time>2020-11-17T06:39:38Z</time>
      </trkpt>
      <trkpt lat="28.6473850" lon="-17.9422650">
        <ele>25.2</ele>
        <time>2020-11-17T06:39:39Z</time>
      </trkpt>
      <trkpt lat="28.6473850" lon="-17.9422650">
        <ele>25.2</ele>
        <time>2020-11-17T06:39:40Z</time>
      </trkpt>
      <trkpt lat="28.6473800" lon="-17.9422150">
        <ele>25.6</ele>
        <time>2020-11-17T06:39:41Z</time>
      </trkpt>
      <trkpt lat="28.6473800" lon="-17.9422150">
        <ele>25.6</ele>
        <time>2020-11-17T06:39:42Z</time>
      </trkpt>
      <trkpt lat="28.6473720" lon="-17.9421680">
        <ele>26.0</ele>
        <time>2020-11-17T06:39:43Z</time>
      </trkpt>
      <trkpt lat="28.6473700" lon="-17.9421470">
        <ele>26.1</ele>
        <time>2020-11-17T06:39:44Z</time>
      </trkpt>
      <trkpt lat="28.6473700" lon="-17.9421470">
        <ele>26.1</ele>
        <time>2020-11-17T06:39:45Z</time>
      </trkpt>
      <trkpt lat="28.6473580" lon="-17.9421020">
        <ele>26.5</ele>
        <time>2020-11-17T06:39:46Z</time>
      </trkpt>
      <trkpt lat="28.6473520" lon="-17.9420780">
        <ele>26.7</ele>
        <time>2020-11-17T06:39:47Z</time>
      </trkpt>
      <trkpt lat="28.6473520" lon="-17.9420780">
        <ele>26.7</ele>
        <time>2020-11-17T06:39:48Z</time>
      </trkpt>
      <trkpt lat="28.6473380" lon="-17.9420330">
        <ele>27.1</ele>
        <time>2020-11-17T06:39:49Z</time>
      </trkpt>
      <trkpt lat="28.6473380" lon="-17.9420330">
        <ele>27.1</ele>
        <time>2020-11-17T06:39:50Z</time>
      </trkpt>
      <trkpt lat="28.6473280" lon="-17.9419880">
        <ele>27.5</ele>
        <time>2020-11-17T06:39:51Z</time>
      </trkpt>
      <trkpt lat="28.6473220" lon="-17.9419650">
        <ele>27.6</ele>
        <time>2020-11-17T06:39:52Z</time>
      </trkpt>
      <trkpt lat="28.6473130" lon="-17.9419430">
        <ele>27.8</ele>
        <time>2020-11-17T06:39:53Z</time>
      </trkpt>
      <trkpt lat="28.6473130" lon="-17.9419430">
        <ele>27.8</ele>
        <time>2020-11-17T06:39:54Z</time>
      </trkpt>
      <trkpt lat="28.6472930" lon="-17.9418980">
        <ele>28.2</ele>
        <time>2020-11-17T06:39:55Z</time>
      </trkpt>
      <trkpt lat="28.6472780" lon="-17.9418780">
        <ele>28.5</ele>
        <time>2020-11-17T06:39:56Z</time>
      </trkpt>
      <trkpt lat="28.6472650" lon="-17.9418570">
        <ele>28.7</ele>
        <time>2020-11-17T06:39:57Z</time>
      </trkpt>
      <trkpt lat="28.6472650" lon="-17.9418570">
        <ele>28.7</ele>
        <time>2020-11-17T06:39:58Z</time>
      </trkpt>
      <trkpt lat="28.6472470" lon="-17.9418180">
        <ele>29.0</ele>
        <time>2020-11-17T06:39:59Z</time>
      </trkpt>
      <trkpt lat="28.6472370" lon="-17.9417970">
        <ele>29.2</ele>
        <time>2020-11-17T06:40:00Z</time>
      </trkpt>
      <trkpt lat="28.6472270" lon="-17.9417770">
        <ele>29.4</ele>
        <time>2020-11-17T06:40:01Z</time>
      </trkpt>
      <trkpt lat="28.6472270" lon="-17.9417770">
        <ele>29.4</ele>
        <time>2020-11-17T06:40:02Z</time>
      </trkpt>
      <trkpt lat="28.6472030" lon="-17.9417380">
        <ele>29.7</ele>
        <time>2020-11-17T06:40:03Z</time>
      </trkpt>
      <trkpt lat="28.6471930" lon="-17.9417150">
        <ele>29.9</ele>
        <time>2020-11-17T06:40:04Z</time>
      </trkpt>
      <trkpt lat="28.6471930" lon="-17.9417150">
        <ele>29.9</ele>
        <time>2020-11-17T06:40:05Z</time>
      </trkpt>
      <trkpt lat="28.6471720" lon="-17.9416700">
        <ele>30.3</ele>
        <time>2020-11-17T06:40:06Z</time>
      </trkpt>
      <trkpt lat="28.6471720" lon="-17.9416700">
        <ele>30.3</ele>
        <time>2020-11-17T06:40:07Z</time>
      </trkpt>
      <trkpt lat="28.6471500" lon="-17.9416270">
        <ele>30.7</ele>
        <time>2020-11-17T06:40:08Z</time>
      </trkpt>
      <trkpt lat="28.6471380" lon="-17.9416050">
        <ele>30.9</ele>
        <time>2020-11-17T06:40:09Z</time>
      </trkpt>
      <trkpt lat="28.6471380" lon="-17.9416050">
        <ele>30.9</ele>
        <time>2020-11-17T06:40:10Z</time>
      </trkpt>
      <trkpt lat="28.6471200" lon="-17.9415600">
        <ele>31.2</ele>
        <time>2020-11-17T06:40:11Z</time>
      </trkpt>
      <trkpt lat="28.6471120" lon="-17.9415370">
        <ele>31.4</ele>
        <time>2020-11-17T06:40:12Z</time>
      </trkpt>
      <trkpt lat="28.6471120" lon="-17.9415370">
        <ele>31.4</ele>
        <time>2020-11-17T06:40:13Z</time>
      </trkpt>
      <trkpt lat="28.6471000" lon="-17.9414830">
        <ele>31.8</ele>
        <time>2020-11-17T06:40:14Z</time>
      </trkpt>
      <trkpt lat="28.6470930" lon="-17.9414580">
        <ele>32.0</ele>
        <time>2020-11-17T06:40:15Z</time>
      </trkpt>
      <trkpt lat="28.6470930" lon="-17.9414580">
        <ele>32.0</ele>
        <time>2020-11-17T06:40:16Z</time>
      </trkpt>
      <trkpt lat="28.6470830" lon="-17.9414080">
        <ele>32.3</ele>
        <time>2020-11-17T06:40:17Z</time>
      </trkpt>
      <trkpt lat="28.6470800" lon="-17.9413820">
        <ele>32.5</ele>
        <time>2020-11-17T06:40:18Z</time>
      </trkpt>
      <trkpt lat="28.6470800" lon="-17.9413820">
        <ele>32.5</ele>
        <time>2020-11-17T06:40:19Z</time>
      </trkpt>
      <trkpt lat="28.6470730" lon="-17.9413330">
        <ele>32.8</ele>
        <time>2020-11-17T06:40:20Z</time>
      </trkpt>
      <trkpt lat="28.6470670" lon="-17.9413120">
        <ele>32.9</ele>
        <time>2020-11-17T06:40:21Z</time>
      </trkpt>
      <trkpt lat="28.6470580" lon="-17.9412920">
        <ele>33.1</ele>
        <time>2020-11-17T06:40:22Z</time>
      </trkpt>
      <trkpt lat="28.6470580" lon="-17.9412920">
        <ele>33.1</ele>
        <time>2020-11-17T06:40:23Z</time>
      </trkpt>
      <trkpt lat="28.6470480" lon="-17.9412450">
        <ele>33.4</ele>
        <time>2020-11-17T06:40:24Z</time>
      </trkpt>
      <trkpt lat="28.6470480" lon="-17.9412450">
        <ele>33.4</ele>
        <time>2020-11-17T06:40:25Z</time>
      </trkpt>
      <trkpt lat="28.6470430" lon="-17.9411930">
        <ele>33.6</ele>
        <time>2020-11-17T06:40:26Z</time>
      </trkpt>
      <trkpt lat="28.6470430" lon="-17.9411930">
        <ele>33.6</ele>
        <time>2020-11-17T06:40:27Z</time>
      </trkpt>
      <trkpt lat="28.6470380" lon="-17.9411400">
        <ele>33.9</ele>
        <time>2020-11-17T06:40:28Z</time>
      </trkpt>
      <trkpt lat="28.6470330" lon="-17.9411150">
        <ele>34.1</ele>
        <time>2020-11-17T06:40:29Z</time>
      </trkpt>
      <trkpt lat="28.6470280" lon="-17.9410900">
        <ele>34.2</ele>
        <time>2020-11-17T06:40:30Z</time>
      </trkpt>
      <trkpt lat="28.6470280" lon="-17.9410900">
        <ele>34.2</ele>
        <time>2020-11-17T06:40:31Z</time>
      </trkpt>
      <trkpt lat="28.6470250" lon="-17.9410370">
        <ele>34.5</ele>
        <time>2020-11-17T06:40:32Z</time>
      </trkpt>
      <trkpt lat="28.6470250" lon="-17.9410080">
        <ele>34.6</ele>
        <time>2020-11-17T06:40:33Z</time>
      </trkpt>
      <trkpt lat="28.6470250" lon="-17.9410080">
        <ele>34.6</ele>
        <time>2020-11-17T06:40:34Z</time>
      </trkpt>
      <trkpt lat="28.6470230" lon="-17.9409530">
        <ele>34.9</ele>
        <time>2020-11-17T06:40:35Z</time>
      </trkpt>
      <trkpt lat="28.6470230" lon="-17.9409530">
        <ele>34.9</ele>
        <time>2020-11-17T06:40:36Z</time>
      </trkpt>
      <trkpt lat="28.6470170" lon="-17.9409020">
        <ele>35.2</ele>
        <time>2020-11-17T06:40:37Z</time>
      </trkpt>
      <trkpt lat="28.6470150" lon="-17.9408720">
        <ele>35.3</ele>
        <time>2020-11-17T06:40:38Z</time>
      </trkpt>
      <trkpt lat="28.6470150" lon="-17.9408720">
        <ele>35.3</ele>
        <time>2020-11-17T06:40:39Z</time>
      </trkpt>
      <trkpt lat="28.6470170" lon="-17.9408180">
        <ele>35.5</ele>
        <time>2020-11-17T06:40:40Z</time>
      </trkpt>
      <trkpt lat="28.6470200" lon="-17.9407900">
        <ele>35.6</ele>
        <time>2020-11-17T06:40:41Z</time>
      </trkpt>
      <trkpt lat="28.6470200" lon="-17.9407900">
        <ele>35.6</ele>
        <time>2020-11-17T06:40:42Z</time>
      </trkpt>
      <trkpt lat="28.6470220" lon="-17.9407350">
        <ele>35.9</ele>
        <time>2020-11-17T06:40:43Z</time>
      </trkpt>
      <trkpt lat="28.6470220" lon="-17.9407350">
        <ele>35.9</ele>
        <time>2020-11-17T06:40:44Z</time>
      </trkpt>
      <trkpt lat="28.6470250" lon="-17.9406800">
        <ele>36.1</ele>
        <time>2020-11-17T06:40:45Z</time>
      </trkpt>
      <trkpt lat="28.6470250" lon="-17.9406800">
        <ele>36.1</ele>
        <time>2020-11-17T06:40:46Z</time>
      </trkpt>
      <trkpt lat="28.6470300" lon="-17.9406230">
        <ele>36.3</ele>
        <time>2020-11-17T06:40:47Z</time>
      </trkpt>
      <trkpt lat="28.6470300" lon="-17.9406230">
        <ele>36.3</ele>
        <time>2020-11-17T06:40:48Z</time>
      </trkpt>
      <trkpt lat="28.6470520" lon="-17.9405730">
        <ele>36.5</ele>
        <time>2020-11-17T06:40:49Z</time>
      </trkpt>
      <trkpt lat="28.6470520" lon="-17.9405730">
        <ele>36.5</ele>
        <time>2020-11-17T06:40:50Z</time>
      </trkpt>
      <trkpt lat="28.6470650" lon="-17.9405150">
        <ele>36.7</ele>
        <time>2020-11-17T06:40:51Z</time>
      </trkpt>
      <trkpt lat="28.6470650" lon="-17.9405150">
        <ele>36.7</ele>
        <time>2020-11-17T06:40:52Z</time>
      </trkpt>
      <trkpt lat="28.6470870" lon="-17.9404630">
        <ele>36.9</ele>
        <time>2020-11-17T06:40:53Z</time>
      </trkpt>
      <trkpt lat="28.6470970" lon="-17.9404370">
        <ele>37.0</ele>
        <time>2020-11-17T06:40:54Z</time>
      </trkpt>
      <trkpt lat="28.6470970" lon="-17.9404370">
        <ele>37.0</ele>
        <time>2020-11-17T06:40:55Z</time>
      </trkpt>
      <trkpt lat="28.6471220" lon="-17.9403880">
        <ele>37.2</ele>
        <time>2020-11-17T06:40:56Z</time>
      </trkpt>
      <trkpt lat="28.6471350" lon="-17.9403630">
        <ele>37.3</ele>
        <time>2020-11-17T06:40:57Z</time>
      </trkpt>
      <trkpt lat="28.6471350" lon="-17.9403630">
        <ele>37.3</ele>
        <time>2020-11-17T06:40:58Z</time>
      </trkpt>
      <trkpt lat="28.6471600" lon="-17.9403170">
        <ele>37.6</ele>
        <time>2020-11-17T06:40:59Z</time>
      </trkpt>
      <trkpt lat="28.6471600" lon="-17.9403170">
        <ele>37.6</ele>
        <time>2020-11-17T06:41:00Z</time>
      </trkpt>
      <trkpt lat="28.6471680" lon="-17.9402670">
        <ele>37.9</ele>
        <time>2020-11-17T06:41:01Z</time>
      </trkpt>
      <trkpt lat="28.6471680" lon="-17.9402670">
        <ele>37.9</ele>
        <time>2020-11-17T06:41:02Z</time>
      </trkpt>
      <trkpt lat="28.6471770" lon="-17.9402130">
        <ele>38.1</ele>
        <time>2020-11-17T06:41:03Z</time>
      </trkpt>
      <trkpt lat="28.6471770" lon="-17.9402130">
        <ele>38.1</ele>
        <time>2020-11-17T06:41:04Z</time>
      </trkpt>
      <trkpt lat="28.6471820" lon="-17.9401600">
        <ele>38.4</ele>
        <time>2020-11-17T06:41:05Z</time>
      </trkpt>
      <trkpt lat="28.6471820" lon="-17.9401600">
        <ele>38.4</ele>
        <time>2020-11-17T06:41:06Z</time>
      </trkpt>
      <trkpt lat="28.6471850" lon="-17.9401080">
        <ele>38.7</ele>
        <time>2020-11-17T06:41:07Z</time>
      </trkpt>
      <trkpt lat="28.6471870" lon="-17.9400830">
        <ele>38.9</ele>
        <time>2020-11-17T06:41:08Z</time>
      </trkpt>
      <trkpt lat="28.6471870" lon="-17.9400830">
        <ele>38.9</ele>
        <time>2020-11-17T06:41:09Z</time>
      </trkpt>
      <trkpt lat="28.6471880" lon="-17.9400350">
        <ele>39.2</ele>
        <time>2020-11-17T06:41:10Z</time>
      </trkpt>
      <trkpt lat="28.6471880" lon="-17.9400350">
        <ele>39.2</ele>
        <time>2020-11-17T06:41:11Z</time>
      </trkpt>
      <trkpt lat="28.6471800" lon="-17.9399830">
        <ele>39.5</ele>
        <time>2020-11-17T06:41:12Z</time>
      </trkpt>
      <trkpt lat="28.6471800" lon="-17.9399830">
        <ele>39.5</ele>
        <time>2020-11-17T06:41:13Z</time>
      </trkpt>
      <trkpt lat="28.6471680" lon="-17.9399320">
        <ele>39.9</ele>
        <time>2020-11-17T06:41:14Z</time>
      </trkpt>
      <trkpt lat="28.6471680" lon="-17.9399320">
        <ele>39.9</ele>
        <time>2020-11-17T06:41:15Z</time>
      </trkpt>
      <trkpt lat="28.6471480" lon="-17.9398870">
        <ele>40.2</ele>
        <time>2020-11-17T06:41:16Z</time>
      </trkpt>
      <trkpt lat="28.6471420" lon="-17.9398620">
        <ele>40.4</ele>
        <time>2020-11-17T06:41:17Z</time>
      </trkpt>
      <trkpt lat="28.6471420" lon="-17.9398620">
        <ele>40.4</ele>
        <time>2020-11-17T06:41:18Z</time>
      </trkpt>
      <trkpt lat="28.6471230" lon="-17.9398150">
        <ele>40.7</ele>
        <time>2020-11-17T06:41:19Z</time>
      </trkpt>
      <trkpt lat="28.6471080" lon="-17.9397930">
        <ele>40.9</ele>
        <time>2020-11-17T06:41:20Z</time>
      </trkpt>
      <trkpt lat="28.6471080" lon="-17.9397930">
        <ele>40.9</ele>
        <time>2020-11-17T06:41:21Z</time>
      </trkpt>
      <trkpt lat="28.6470800" lon="-17.9397570">
        <ele>41.2</ele>
        <time>2020-11-17T06:41:22Z</time>
      </trkpt>
      <trkpt lat="28.6470680" lon="-17.9397350">
        <ele>41.4</ele>
        <time>2020-11-17T06:41:23Z</time>
      </trkpt>
      <trkpt lat="28.6470680" lon="-17.9397350">
        <ele>41.4</ele>
        <time>2020-11-17T06:41:24Z</time>
      </trkpt>
      <trkpt lat="28.6470450" lon="-17.9396920">
        <ele>41.8</ele>
        <time>2020-11-17T06:41:25Z</time>
      </trkpt>
      <trkpt lat="28.6470330" lon="-17.9396700">
        <ele>41.9</ele>
        <time>2020-11-17T06:41:26Z</time>
      </trkpt>
      <trkpt lat="28.6470330" lon="-17.9396700">
        <ele>41.9</ele>
        <time>2020-11-17T06:41:27Z</time>
      </trkpt>
      <trkpt lat="28.6470100" lon="-17.9396250">
        <ele>42.3</ele>
        <time>2020-11-17T06:41:28Z</time>
      </trkpt>
      <trkpt lat="28.6470020" lon="-17.9396020">
        <ele>42.4</ele>
        <time>2020-11-17T06:41:29Z</time>
      </trkpt>
      <trkpt lat="28.6470020" lon="-17.9396020">
        <ele>42.4</ele>
        <time>2020-11-17T06:41:30Z</time>
      </trkpt>
      <trkpt lat="28.6469850" lon="-17.9395520">
        <ele>42.8</ele>
        <time>2020-11-17T06:41:31Z</time>
      </trkpt>
      <trkpt lat="28.6469850" lon="-17.9395520">
        <ele>42.8</ele>
        <time>2020-11-17T06:41:32Z</time>
      </trkpt>
      <trkpt lat="28.6469700" lon="-17.9395000">
        <ele>43.1</ele>
        <time>2020-11-17T06:41:33Z</time>
      </trkpt>
      <trkpt lat="28.6469650" lon="-17.9394730">
        <ele>43.2</ele>
        <time>2020-11-17T06:41:34Z</time>
      </trkpt>
      <trkpt lat="28.6469650" lon="-17.9394730">
        <ele>43.2</ele>
        <time>2020-11-17T06:41:35Z</time>
      </trkpt>
      <trkpt lat="28.6469530" lon="-17.9394180">
        <ele>43.5</ele>
        <time>2020-11-17T06:41:36Z</time>
      </trkpt>
      <trkpt lat="28.6469480" lon="-17.9393920">
        <ele>43.7</ele>
        <time>2020-11-17T06:41:37Z</time>
      </trkpt>
      <trkpt lat="28.6469430" lon="-17.9393650">
        <ele>43.8</ele>
        <time>2020-11-17T06:41:38Z</time>
      </trkpt>
      <trkpt lat="28.6469430" lon="-17.9393650">
        <ele>43.8</ele>
        <time>2020-11-17T06:41:39Z</time>
      </trkpt>
      <trkpt lat="28.6469270" lon="-17.9393120">
        <ele>44.1</ele>
        <time>2020-11-17T06:41:40Z</time>
      </trkpt>
      <trkpt lat="28.6469270" lon="-17.9393120">
        <ele>44.1</ele>
        <time>2020-11-17T06:41:41Z</time>
      </trkpt>
      <trkpt lat="28.6469180" lon="-17.9392570">
        <ele>44.4</ele>
        <time>2020-11-17T06:41:42Z</time>
      </trkpt>
      <trkpt lat="28.6469180" lon="-17.9392570">
        <ele>44.4</ele>
        <time>2020-11-17T06:41:43Z</time>
      </trkpt>
      <trkpt lat="28.6469170" lon="-17.9392000">
        <ele>44.7</ele>
        <time>2020-11-17T06:41:44Z</time>
      </trkpt>
      <trkpt lat="28.6469170" lon="-17.9392000">
        <ele>44.7</ele>
        <time>2020-11-17T06:41:45Z</time>
      </trkpt>
      <trkpt lat="28.6469180" lon="-17.9391450">
        <ele>45.0</ele>
        <time>2020-11-17T06:41:46Z</time>
      </trkpt>
      <trkpt lat="28.6469200" lon="-17.9391180">
        <ele>45.1</ele>
        <time>2020-11-17T06:41:47Z</time>
      </trkpt>
      <trkpt lat="28.6469200" lon="-17.9391180">
        <ele>45.1</ele>
        <time>2020-11-17T06:41:48Z</time>
      </trkpt>
      <trkpt lat="28.6469170" lon="-17.9390670">
        <ele>45.4</ele>
        <time>2020-11-17T06:41:49Z</time>
      </trkpt>
      <trkpt lat="28.6469130" lon="-17.9390400">
        <ele>45.6</ele>
        <time>2020-11-17T06:41:50Z</time>
      </trkpt>
      <trkpt lat="28.6469130" lon="-17.9390400">
        <ele>45.6</ele>
        <time>2020-11-17T06:41:51Z</time>
      </trkpt>
      <trkpt lat="28.6469100" lon="-17.9389870">
        <ele>45.8</ele>
        <time>2020-11-17T06:41:52Z</time>
      </trkpt>
      <trkpt lat="28.6469100" lon="-17.9389600">
        <ele>46.0</ele>
        <time>2020-11-17T06:41:53Z</time>
      </trkpt>
      <trkpt lat="28.6469050" lon="-17.9389330">
        <ele>46.1</ele>
        <time>2020-11-17T06:41:54Z</time>
      </trkpt>
      <trkpt lat="28.6469050" lon="-17.9389330">
        <ele>46.1</ele>
        <time>2020-11-17T06:41:55Z</time>
      </trkpt>
      <trkpt lat="28.6468920" lon="-17.9388800">
        <ele>46.4</ele>
        <time>2020-11-17T06:41:56Z</time>
      </trkpt>
      <trkpt lat="28.6468920" lon="-17.9388800">
        <ele>46.4</ele>
        <time>2020-11-17T06:41:57Z</time>
      </trkpt>
      <trkpt lat="28.6468750" lon="-17.9388280">
        <ele>46.7</ele>
        <time>2020-11-17T06:41:58Z</time>
      </trkpt>
      <trkpt lat="28.6468750" lon="-17.9388280">
        <ele>46.7</ele>
        <time>2020-11-17T06:41:59Z</time>
      </trkpt>
      <trkpt lat="28.6468620" lon="-17.9387770">
        <ele>47.0</ele>
        <time>2020-11-17T06:42:00Z</time>
      </trkpt>
      <trkpt lat="28.6468550" lon="-17.9387500">
        <ele>47.1</ele>
        <time>2020-11-17T06:42:01Z</time>
      </trkpt>
      <trkpt lat="28.6468550" lon="-17.9387500">
        <ele>47.1</ele>
        <time>2020-11-17T06:42:02Z</time>
      </trkpt>
      <trkpt lat="28.6468400" lon="-17.9387000">
        <ele>47.4</ele>
        <time>2020-11-17T06:42:03Z</time>
      </trkpt>
      <trkpt lat="28.6468400" lon="-17.9387000">
        <ele>47.4</ele>
        <time>2020-11-17T06:42:04Z</time>
      </trkpt>
      <trkpt lat="28.6468220" lon="-17.9386500">
        <ele>47.7</ele>
        <time>2020-11-17T06:42:05Z</time>
      </trkpt>
      <trkpt lat="28.6468220" lon="-17.9386500">
        <ele>47.7</ele>
        <time>2020-11-17T06:42:06Z</time>
      </trkpt>
      <trkpt lat="28.6468020" lon="-17.9385970">
        <ele>47.9</ele>
        <time>2020-11-17T06:42:07Z</time>
      </trkpt>
      <trkpt lat="28.6467930" lon="-17.9385700">
        <ele>48.1</ele>
        <time>2020-11-17T06:42:08Z</time>
      </trkpt>
      <trkpt lat="28.6467930" lon="-17.9385700">
        <ele>48.1</ele>
        <time>2020-11-17T06:42:09Z</time>
      </trkpt>
      <trkpt lat="28.6467800" lon="-17.9385170">
        <ele>48.4</ele>
        <time>2020-11-17T06:42:10Z</time>
      </trkpt>
      <trkpt lat="28.6467800" lon="-17.9385170">
        <ele>48.4</ele>
        <time>2020-11-17T06:42:11Z</time>
      </trkpt>
      <trkpt lat="28.6467650" lon="-17.9384620">
        <ele>48.7</ele>
        <time>2020-11-17T06:42:12Z</time>
      </trkpt>
      <trkpt lat="28.6467650" lon="-17.9384620">
        <ele>48.7</ele>
        <time>2020-11-17T06:42:13Z</time>
      </trkpt>
      <trkpt lat="28.6467530" lon="-17.9384070">
        <ele>49.1</ele>
        <time>2020-11-17T06:42:14Z</time>
      </trkpt>
      <trkpt lat="28.6467530" lon="-17.9384070">
        <ele>49.1</ele>
        <time>2020-11-17T06:42:15Z</time>
      </trkpt>
      <trkpt lat="28.6467350" lon="-17.9383570">
        <ele>49.5</ele>
        <time>2020-11-17T06:42:16Z</time>
      </trkpt>
      <trkpt lat="28.6467250" lon="-17.9383330">
        <ele>49.7</ele>
        <time>2020-11-17T06:42:17Z</time>
      </trkpt>
      <trkpt lat="28.6467250" lon="-17.9383330">
        <ele>49.7</ele>
        <time>2020-11-17T06:42:18Z</time>
      </trkpt>
      <trkpt lat="28.6467120" lon="-17.9382820">
        <ele>50.1</ele>
        <time>2020-11-17T06:42:19Z</time>
      </trkpt>
      <trkpt lat="28.6467070" lon="-17.9382570">
        <ele>50.3</ele>
        <time>2020-11-17T06:42:20Z</time>
      </trkpt>
      <trkpt lat="28.6467070" lon="-17.9382570">
        <ele>50.3</ele>
        <time>2020-11-17T06:42:21Z</time>
      </trkpt>
      <trkpt lat="28.6466900" lon="-17.9382080">
        <ele>50.7</ele>
        <time>2020-11-17T06:42:22Z</time>
      </trkpt>
      <trkpt lat="28.6466780" lon="-17.9381880">
        <ele>50.9</ele>
        <time>2020-11-17T06:42:23Z</time>
      </trkpt>
      <trkpt lat="28.6466780" lon="-17.9381880">
        <ele>50.9</ele>
        <time>2020-11-17T06:42:24Z</time>
      </trkpt>
      <trkpt lat="28.6466430" lon="-17.9381550">
        <ele>51.5</ele>
        <time>2020-11-17T06:42:25Z</time>
      </trkpt>
      <trkpt lat="28.6466430" lon="-17.9381550">
        <ele>51.5</ele>
        <time>2020-11-17T06:42:26Z</time>
      </trkpt>
      <trkpt lat="28.6466000" lon="-17.9381430">
        <ele>51.6</ele>
        <time>2020-11-17T06:42:27Z</time>
      </trkpt>
      <trkpt lat="28.6465830" lon="-17.9381480">
        <ele>51.7</ele>
        <time>2020-11-17T06:42:28Z</time>
      </trkpt>
      <trkpt lat="28.6465830" lon="-17.9381480">
        <ele>51.7</ele>
        <time>2020-11-17T06:42:29Z</time>
      </trkpt>
      <trkpt lat="28.6465500" lon="-17.9381780">
        <ele>51.9</ele>
        <time>2020-11-17T06:42:30Z</time>
      </trkpt>
      <trkpt lat="28.6465500" lon="-17.9381780">
        <ele>52.2</ele>
        <time>2020-11-17T06:42:31Z</time>
      </trkpt>
      <trkpt lat="28.6465400" lon="-17.9382200">
        <ele>52.4</ele>
        <time>2020-11-17T06:42:32Z</time>
      </trkpt>
      <trkpt lat="28.6465400" lon="-17.9382200">
        <ele>52.4</ele>
        <time>2020-11-17T06:42:33Z</time>
      </trkpt>
      <trkpt lat="28.6465480" lon="-17.9382680">
        <ele>52.8</ele>
        <time>2020-11-17T06:42:34Z</time>
      </trkpt>
      <trkpt lat="28.6465580" lon="-17.9382920">
        <ele>52.9</ele>
        <time>2020-11-17T06:42:35Z</time>
      </trkpt>
      <trkpt lat="28.6465580" lon="-17.9382920">
        <ele>52.9</ele>
        <time>2020-11-17T06:42:36Z</time>
      </trkpt>
      <trkpt lat="28.6465800" lon="-17.9383400">
        <ele>53.3</ele>
        <time>2020-11-17T06:42:37Z</time>
      </trkpt>
      <trkpt lat="28.6465880" lon="-17.9383650">
        <ele>53.4</ele>
        <time>2020-11-17T06:42:38Z</time>
      </trkpt>
      <trkpt lat="28.6465880" lon="-17.9383650">
        <ele>53.4</ele>
        <time>2020-11-17T06:42:39Z</time>
      </trkpt>
      <trkpt lat="28.6466080" lon="-17.9384120">
        <ele>53.7</ele>
        <time>2020-11-17T06:42:40Z</time>
      </trkpt>
      <trkpt lat="28.6466200" lon="-17.9384350">
        <ele>53.9</ele>
        <time>2020-11-17T06:42:41Z</time>
      </trkpt>
      <trkpt lat="28.6466200" lon="-17.9384350">
        <ele>53.9</ele>
        <time>2020-11-17T06:42:42Z</time>
      </trkpt>
      <trkpt lat="28.6466380" lon="-17.9384850">
        <ele>54.2</ele>
        <time>2020-11-17T06:42:43Z</time>
      </trkpt>
      <trkpt lat="28.6466450" lon="-17.9385100">
        <ele>54.4</ele>
        <time>2020-11-17T06:42:44Z</time>
      </trkpt>
      <trkpt lat="28.6466450" lon="-17.9385100">
        <ele>54.4</ele>
        <time>2020-11-17T06:42:45Z</time>
      </trkpt>
      <trkpt lat="28.6466630" lon="-17.9385600">
        <ele>54.7</ele>
        <time>2020-11-17T06:42:46Z</time>
      </trkpt>
      <trkpt lat="28.6466630" lon="-17.9385600">
        <ele>54.7</ele>
        <time>2020-11-17T06:42:47Z</time>
      </trkpt>
      <trkpt lat="28.6466820" lon="-17.9386100">
        <ele>55.0</ele>
        <time>2020-11-17T06:42:48Z</time>
      </trkpt>
      <trkpt lat="28.6466820" lon="-17.9386100">
        <ele>55.0</ele>
        <time>2020-11-17T06:42:49Z</time>
      </trkpt>
      <trkpt lat="28.6466980" lon="-17.9386630">
        <ele>55.3</ele>
        <time>2020-11-17T06:42:50Z</time>
      </trkpt>
      <trkpt lat="28.6466980" lon="-17.9386630">
        <ele>55.3</ele>
        <time>2020-11-17T06:42:51Z</time>
      </trkpt>
      <trkpt lat="28.6467100" lon="-17.9387200">
        <ele>55.6</ele>
        <time>2020-11-17T06:42:52Z</time>
      </trkpt>
      <trkpt lat="28.6467170" lon="-17.9387450">
        <ele>55.7</ele>
        <time>2020-11-17T06:42:53Z</time>
      </trkpt>
      <trkpt lat="28.6467170" lon="-17.9387450">
        <ele>55.7</ele>
        <time>2020-11-17T06:42:54Z</time>
      </trkpt>
      <trkpt lat="28.6467300" lon="-17.9387950">
        <ele>56.0</ele>
        <time>2020-11-17T06:42:55Z</time>
      </trkpt>
      <trkpt lat="28.6467300" lon="-17.9387950">
        <ele>56.0</ele>
        <time>2020-11-17T06:42:56Z</time>
      </trkpt>
      <trkpt lat="28.6467430" lon="-17.9388450">
        <ele>56.3</ele>
        <time>2020-11-17T06:42:57Z</time>
      </trkpt>
      <trkpt lat="28.6467430" lon="-17.9388450">
        <ele>56.3</ele>
        <time>2020-11-17T06:42:58Z</time>
      </trkpt>
      <trkpt lat="28.6467530" lon="-17.9388950">
        <ele>56.6</ele>
        <time>2020-11-17T06:42:59Z</time>
      </trkpt>
      <trkpt lat="28.6467580" lon="-17.9389200">
        <ele>56.7</ele>
        <time>2020-11-17T06:43:00Z</time>
      </trkpt>
      <trkpt lat="28.6467580" lon="-17.9389200">
        <ele>56.7</ele>
        <time>2020-11-17T06:43:01Z</time>
      </trkpt>
      <trkpt lat="28.6467630" lon="-17.9389720">
        <ele>57.0</ele>
        <time>2020-11-17T06:43:02Z</time>
      </trkpt>
      <trkpt lat="28.6467630" lon="-17.9389720">
        <ele>57.0</ele>
        <time>2020-11-17T06:43:03Z</time>
      </trkpt>
      <trkpt lat="28.6467770" lon="-17.9390200">
        <ele>57.3</ele>
        <time>2020-11-17T06:43:04Z</time>
      </trkpt>
      <trkpt lat="28.6467870" lon="-17.9390420">
        <ele>57.4</ele>
        <time>2020-11-17T06:43:05Z</time>
      </trkpt>
      <trkpt lat="28.6467870" lon="-17.9390420">
        <ele>57.4</ele>
        <time>2020-11-17T06:43:06Z</time>
      </trkpt>
      <trkpt lat="28.6468000" lon="-17.9390900">
        <ele>57.7</ele>
        <time>2020-11-17T06:43:07Z</time>
      </trkpt>
      <trkpt lat="28.6468030" lon="-17.9391170">
        <ele>57.9</ele>
        <time>2020-11-17T06:43:08Z</time>
      </trkpt>
      <trkpt lat="28.6468030" lon="-17.9391170">
        <ele>57.9</ele>
        <time>2020-11-17T06:43:09Z</time>
      </trkpt>
      <trkpt lat="28.6468130" lon="-17.9391680">
        <ele>58.2</ele>
        <time>2020-11-17T06:43:10Z</time>
      </trkpt>
      <trkpt lat="28.6468130" lon="-17.9391680">
        <ele>58.2</ele>
        <time>2020-11-17T06:43:11Z</time>
      </trkpt>
      <trkpt lat="28.6468220" lon="-17.9392180">
        <ele>58.4</ele>
        <time>2020-11-17T06:43:12Z</time>
      </trkpt>
      <trkpt lat="28.6468250" lon="-17.9392430">
        <ele>58.6</ele>
        <time>2020-11-17T06:43:13Z</time>
      </trkpt>
      <trkpt lat="28.6468280" lon="-17.9392680">
        <ele>58.7</ele>
        <time>2020-11-17T06:43:14Z</time>
      </trkpt>
      <trkpt lat="28.6468280" lon="-17.9392680">
        <ele>58.7</ele>
        <time>2020-11-17T06:43:15Z</time>
      </trkpt>
      <trkpt lat="28.6468270" lon="-17.9393200">
        <ele>59.0</ele>
        <time>2020-11-17T06:43:16Z</time>
      </trkpt>
      <trkpt lat="28.6468250" lon="-17.9393450">
        <ele>59.1</ele>
        <time>2020-11-17T06:43:17Z</time>
      </trkpt>
      <trkpt lat="28.6468250" lon="-17.9393700">
        <ele>59.3</ele>
        <time>2020-11-17T06:43:18Z</time>
      </trkpt>
      <trkpt lat="28.6468250" lon="-17.9393700">
        <ele>59.3</ele>
        <time>2020-11-17T06:43:19Z</time>
      </trkpt>
      <trkpt lat="28.6468300" lon="-17.9394180">
        <ele>59.5</ele>
        <time>2020-11-17T06:43:20Z</time>
      </trkpt>
      <trkpt lat="28.6468300" lon="-17.9394180">
        <ele>59.5</ele>
        <time>2020-11-17T06:43:21Z</time>
      </trkpt>
      <trkpt lat="28.6468400" lon="-17.9394650">
        <ele>59.8</ele>
        <time>2020-11-17T06:43:22Z</time>
      </trkpt>
      <trkpt lat="28.6468450" lon="-17.9394900">
        <ele>59.9</ele>
        <time>2020-11-17T06:43:23Z</time>
      </trkpt>
      <trkpt lat="28.6468520" lon="-17.9395130">
        <ele>60.0</ele>
        <time>2020-11-17T06:43:24Z</time>
      </trkpt>
      <trkpt lat="28.6468520" lon="-17.9395130">
        <ele>60.0</ele>
        <time>2020-11-17T06:43:25Z</time>
      </trkpt>
      <trkpt lat="28.6468700" lon="-17.9395600">
        <ele>60.3</ele>
        <time>2020-11-17T06:43:26Z</time>
      </trkpt>
      <trkpt lat="28.6468820" lon="-17.9395830">
        <ele>60.4</ele>
        <time>2020-11-17T06:43:27Z</time>
      </trkpt>
      <trkpt lat="28.6468820" lon="-17.9395830">
        <ele>60.4</ele>
        <time>2020-11-17T06:43:28Z</time>
      </trkpt>
      <trkpt lat="28.6469030" lon="-17.9396320">
        <ele>60.7</ele>
        <time>2020-11-17T06:43:29Z</time>
      </trkpt>
      <trkpt lat="28.6469030" lon="-17.9396320">
        <ele>60.7</ele>
        <time>2020-11-17T06:43:30Z</time>
      </trkpt>
      <trkpt lat="28.6469270" lon="-17.9396770">
        <ele>60.9</ele>
        <time>2020-11-17T06:43:31Z</time>
      </trkpt>
      <trkpt lat="28.6469430" lon="-17.9397000">
        <ele>61.1</ele>
        <time>2020-11-17T06:43:32Z</time>
      </trkpt>
      <trkpt lat="28.6469430" lon="-17.9397000">
        <ele>61.1</ele>
        <time>2020-11-17T06:43:33Z</time>
      </trkpt>
      <trkpt lat="28.6469700" lon="-17.9397430">
        <ele>61.3</ele>
        <time>2020-11-17T06:43:34Z</time>
      </trkpt>
      <trkpt lat="28.6469700" lon="-17.9397430">
        <ele>61.3</ele>
        <time>2020-11-17T06:43:35Z</time>
      </trkpt>
      <trkpt lat="28.6469920" lon="-17.9397900">
        <ele>61.6</ele>
        <time>2020-11-17T06:43:36Z</time>
      </trkpt>
      <trkpt lat="28.6469920" lon="-17.9397900">
        <ele>61.6</ele>
        <time>2020-11-17T06:43:37Z</time>
      </trkpt>
      <trkpt lat="28.6470120" lon="-17.9398380">
        <ele>61.8</ele>
        <time>2020-11-17T06:43:38Z</time>
      </trkpt>
      <trkpt lat="28.6470120" lon="-17.9398380">
        <ele>61.8</ele>
        <time>2020-11-17T06:43:39Z</time>
      </trkpt>
      <trkpt lat="28.6470270" lon="-17.9398920">
        <ele>62.1</ele>
        <time>2020-11-17T06:43:40Z</time>
      </trkpt>
      <trkpt lat="28.6470270" lon="-17.9398920">
        <ele>62.1</ele>
        <time>2020-11-17T06:43:41Z</time>
      </trkpt>
      <trkpt lat="28.6470350" lon="-17.9399500">
        <ele>62.3</ele>
        <time>2020-11-17T06:43:42Z</time>
      </trkpt>
      <trkpt lat="28.6470350" lon="-17.9399500">
        <ele>62.3</ele>
        <time>2020-11-17T06:43:43Z</time>
      </trkpt>
      <trkpt lat="28.6470350" lon="-17.9400100">
        <ele>62.5</ele>
        <time>2020-11-17T06:43:44Z</time>
      </trkpt>
      <trkpt lat="28.6470350" lon="-17.9400100">
        <ele>62.5</ele>
        <time>2020-11-17T06:43:45Z</time>
      </trkpt>
      <trkpt lat="28.6470220" lon="-17.9400700">
        <ele>62.7</ele>
        <time>2020-11-17T06:43:46Z</time>
      </trkpt>
      <trkpt lat="28.6470100" lon="-17.9400970">
        <ele>62.8</ele>
        <time>2020-11-17T06:43:47Z</time>
      </trkpt>
      <trkpt lat="28.6469970" lon="-17.9401250">
        <ele>62.9</ele>
        <time>2020-11-17T06:43:48Z</time>
      </trkpt>
      <trkpt lat="28.6469970" lon="-17.9401250">
        <ele>62.9</ele>
        <time>2020-11-17T06:43:49Z</time>
      </trkpt>
      <trkpt lat="28.6469620" lon="-17.9401770">
        <ele>63.1</ele>
        <time>2020-11-17T06:43:50Z</time>
      </trkpt>
      <trkpt lat="28.6469620" lon="-17.9401770">
        <ele>63.1</ele>
        <time>2020-11-17T06:43:51Z</time>
      </trkpt>
      <trkpt lat="28.6469220" lon="-17.9402270">
        <ele>63.2</ele>
        <time>2020-11-17T06:43:52Z</time>
      </trkpt>
      <trkpt lat="28.6469220" lon="-17.9402270">
        <ele>63.2</ele>
        <time>2020-11-17T06:43:53Z</time>
      </trkpt>
      <trkpt lat="28.6468780" lon="-17.9402780">
        <ele>63.4</ele>
        <time>2020-11-17T06:43:54Z</time>
      </trkpt>
      <trkpt lat="28.6468780" lon="-17.9402780">
        <ele>63.4</ele>
        <time>2020-11-17T06:43:55Z</time>
      </trkpt>
      <trkpt lat="28.6468270" lon="-17.9403300">
        <ele>63.5</ele>
        <time>2020-11-17T06:43:56Z</time>
      </trkpt>
      <trkpt lat="28.6467980" lon="-17.9403520">
        <ele>63.6</ele>
        <time>2020-11-17T06:43:57Z</time>
      </trkpt>
      <trkpt lat="28.6467680" lon="-17.9403720">
        <ele>63.7</ele>
        <time>2020-11-17T06:43:58Z</time>
      </trkpt>
      <trkpt lat="28.6467370" lon="-17.9403850">
        <ele>63.8</ele>
        <time>2020-11-17T06:43:59Z</time>
      </trkpt>
      <trkpt lat="28.6467370" lon="-17.9403850">
        <ele>63.8</ele>
        <time>2020-11-17T06:44:00Z</time>
      </trkpt>
      <trkpt lat="28.6466720" lon="-17.9403950">
        <ele>63.9</ele>
        <time>2020-11-17T06:44:01Z</time>
      </trkpt>
      <trkpt lat="28.6466720" lon="-17.9403950">
        <ele>63.9</ele>
        <time>2020-11-17T06:44:02Z</time>
      </trkpt>
      <trkpt lat="28.6466100" lon="-17.9403930">
        <ele>64.1</ele>
        <time>2020-11-17T06:44:03Z</time>
      </trkpt>
      <trkpt lat="28.6465780" lon="-17.9403880">
        <ele>64.2</ele>
        <time>2020-11-17T06:44:04Z</time>
      </trkpt>
      <trkpt lat="28.6465480" lon="-17.9403820">
        <ele>64.3</ele>
        <time>2020-11-17T06:44:05Z</time>
      </trkpt>
      <trkpt lat="28.6465480" lon="-17.9403820">
        <ele>64.3</ele>
        <time>2020-11-17T06:44:06Z</time>
      </trkpt>
      <trkpt lat="28.6464880" lon="-17.9403670">
        <ele>64.4</ele>
        <time>2020-11-17T06:44:07Z</time>
      </trkpt>
      <trkpt lat="28.6464600" lon="-17.9403580">
        <ele>64.5</ele>
        <time>2020-11-17T06:44:08Z</time>
      </trkpt>
      <trkpt lat="28.6464600" lon="-17.9403580">
        <ele>64.5</ele>
        <time>2020-11-17T06:44:09Z</time>
      </trkpt>
      <trkpt lat="28.6464030" lon="-17.9403400">
        <ele>64.7</ele>
        <time>2020-11-17T06:44:10Z</time>
      </trkpt>
      <trkpt lat="28.6463770" lon="-17.9403320">
        <ele>64.8</ele>
        <time>2020-11-17T06:44:11Z</time>
      </trkpt>
      <trkpt lat="28.6463480" lon="-17.9403230">
        <ele>64.9</ele>
        <time>2020-11-17T06:44:12Z</time>
      </trkpt>
      <trkpt lat="28.6463480" lon="-17.9403230">
        <ele>64.9</ele>
        <time>2020-11-17T06:44:13Z</time>
      </trkpt>
      <trkpt lat="28.6462930" lon="-17.9403050">
        <ele>65.1</ele>
        <time>2020-11-17T06:44:14Z</time>
      </trkpt>
      <trkpt lat="28.6462930" lon="-17.9403050">
        <ele>65.1</ele>
        <time>2020-11-17T06:44:15Z</time>
      </trkpt>
      <trkpt lat="28.6462420" lon="-17.9402820">
        <ele>65.3</ele>
        <time>2020-11-17T06:44:16Z</time>
      </trkpt>
      <trkpt lat="28.6462130" lon="-17.9402650">
        <ele>65.4</ele>
        <time>2020-11-17T06:44:17Z</time>
      </trkpt>
      <trkpt lat="28.6462130" lon="-17.9402650">
        <ele>65.4</ele>
        <time>2020-11-17T06:44:18Z</time>
      </trkpt>
      <trkpt lat="28.6461550" lon="-17.9402270">
        <ele>65.7</ele>
        <time>2020-11-17T06:44:19Z</time>
      </trkpt>
      <trkpt lat="28.6461300" lon="-17.9402020">
        <ele>65.8</ele>
        <time>2020-11-17T06:44:20Z</time>
      </trkpt>
      <trkpt lat="28.6461300" lon="-17.9402020">
        <ele>65.8</ele>
        <time>2020-11-17T06:44:21Z</time>
      </trkpt>
      <trkpt lat="28.6460970" lon="-17.9401520">
        <ele>66.0</ele>
        <time>2020-11-17T06:44:22Z</time>
      </trkpt>
      <trkpt lat="28.6460970" lon="-17.9401520">
        <ele>66.0</ele>
        <time>2020-11-17T06:44:23Z</time>
      </trkpt>
      <trkpt lat="28.6460750" lon="-17.9400950">
        <ele>66.3</ele>
        <time>2020-11-17T06:44:24Z</time>
      </trkpt>
      <trkpt lat="28.6460750" lon="-17.9400950">
        <ele>66.3</ele>
        <time>2020-11-17T06:44:25Z</time>
      </trkpt>
      <trkpt lat="28.6460570" lon="-17.9400370">
        <ele>66.5</ele>
        <time>2020-11-17T06:44:26Z</time>
      </trkpt>
      <trkpt lat="28.6460470" lon="-17.9400100">
        <ele>66.6</ele>
        <time>2020-11-17T06:44:27Z</time>
      </trkpt>
      <trkpt lat="28.6460470" lon="-17.9400100">
        <ele>66.6</ele>
        <time>2020-11-17T06:44:28Z</time>
      </trkpt>
      <trkpt lat="28.6460300" lon="-17.9399520">
        <ele>66.8</ele>
        <time>2020-11-17T06:44:29Z</time>
      </trkpt>
      <trkpt lat="28.6460300" lon="-17.9399520">
        <ele>66.8</ele>
        <time>2020-11-17T06:44:30Z</time>
      </trkpt>
      <trkpt lat="28.6460230" lon="-17.9398900">
        <ele>67.1</ele>
        <time>2020-11-17T06:44:31Z</time>
      </trkpt>
      <trkpt lat="28.6460230" lon="-17.9398900">
        <ele>67.1</ele>
        <time>2020-11-17T06:44:32Z</time>
      </trkpt>
      <trkpt lat="28.6460270" lon="-17.9398270">
        <ele>67.3</ele>
        <time>2020-11-17T06:44:33Z</time>
      </trkpt>
      <trkpt lat="28.6460270" lon="-17.9398270">
        <ele>67.3</ele>
        <time>2020-11-17T06:44:34Z</time>
      </trkpt>
      <trkpt lat="28.6460320" lon="-17.9397650">
        <ele>67.6</ele>
        <time>2020-11-17T06:44:35Z</time>
      </trkpt>
      <trkpt lat="28.6460330" lon="-17.9397330">
        <ele>67.7</ele>
        <time>2020-11-17T06:44:36Z</time>
      </trkpt>
      <trkpt lat="28.6460330" lon="-17.9397330">
        <ele>67.7</ele>
        <time>2020-11-17T06:44:37Z</time>
      </trkpt>
      <trkpt lat="28.6460430" lon="-17.9396720">
        <ele>68.0</ele>
        <time>2020-11-17T06:44:38Z</time>
      </trkpt>
      <trkpt lat="28.6460430" lon="-17.9396720">
        <ele>68.0</ele>
        <time>2020-11-17T06:44:39Z</time>
      </trkpt>
      <trkpt lat="28.6460580" lon="-17.9396120">
        <ele>68.3</ele>
        <time>2020-11-17T06:44:40Z</time>
      </trkpt>
      <trkpt lat="28.6460580" lon="-17.9396120">
        <ele>68.3</ele>
        <time>2020-11-17T06:44:41Z</time>
      </trkpt>
      <trkpt lat="28.6460700" lon="-17.9395520">
        <ele>68.5</ele>
        <time>2020-11-17T06:44:42Z</time>
      </trkpt>
      <trkpt lat="28.6460700" lon="-17.9395520">
        <ele>68.5</ele>
        <time>2020-11-17T06:44:43Z</time>
      </trkpt>
      <trkpt lat="28.6460820" lon="-17.9394920">
        <ele>68.8</ele>
        <time>2020-11-17T06:44:44Z</time>
      </trkpt>
      <trkpt lat="28.6460820" lon="-17.9394920">
        <ele>68.8</ele>
        <time>2020-11-17T06:44:45Z</time>
      </trkpt>
      <trkpt lat="28.6461000" lon="-17.9394350">
        <ele>69.1</ele>
        <time>2020-11-17T06:44:46Z</time>
      </trkpt>
      <trkpt lat="28.6461080" lon="-17.9394070">
        <ele>69.2</ele>
        <time>2020-11-17T06:44:47Z</time>
      </trkpt>
      <trkpt lat="28.6461120" lon="-17.9393770">
        <ele>69.4</ele>
        <time>2020-11-17T06:44:48Z</time>
      </trkpt>
      <trkpt lat="28.6461120" lon="-17.9393770">
        <ele>69.4</ele>
        <time>2020-11-17T06:44:49Z</time>
      </trkpt>
      <trkpt lat="28.6461220" lon="-17.9393180">
        <ele>69.7</ele>
        <time>2020-11-17T06:44:50Z</time>
      </trkpt>
      <trkpt lat="28.6461220" lon="-17.9393180">
        <ele>69.7</ele>
        <time>2020-11-17T06:44:51Z</time>
      </trkpt>
      <trkpt lat="28.6461350" lon="-17.9392630">
        <ele>69.9</ele>
        <time>2020-11-17T06:44:52Z</time>
      </trkpt>
      <trkpt lat="28.6461350" lon="-17.9392630">
        <ele>69.9</ele>
        <time>2020-11-17T06:44:53Z</time>
      </trkpt>
      <trkpt lat="28.6461420" lon="-17.9392030">
        <ele>70.3</ele>
        <time>2020-11-17T06:44:54Z</time>
      </trkpt>
      <trkpt lat="28.6461420" lon="-17.9392030">
        <ele>70.3</ele>
        <time>2020-11-17T06:44:55Z</time>
      </trkpt>
      <trkpt lat="28.6461530" lon="-17.9391450">
        <ele>70.6</ele>
        <time>2020-11-17T06:44:56Z</time>
      </trkpt>
      <trkpt lat="28.6461620" lon="-17.9391170">
        <ele>70.7</ele>
        <time>2020-11-17T06:44:57Z</time>
      </trkpt>
      <trkpt lat="28.6461620" lon="-17.9391170">
        <ele>70.7</ele>
        <time>2020-11-17T06:44:58Z</time>
      </trkpt>
      <trkpt lat="28.6461750" lon="-17.9390580">
        <ele>71.0</ele>
        <time>2020-11-17T06:44:59Z</time>
      </trkpt>
      <trkpt lat="28.6461750" lon="-17.9390580">
        <ele>71.0</ele>
        <time>2020-11-17T06:45:00Z</time>
      </trkpt>
      <trkpt lat="28.6461850" lon="-17.9390000">
        <ele>71.4</ele>
        <time>2020-11-17T06:45:01Z</time>
      </trkpt>
      <trkpt lat="28.6461850" lon="-17.9390000">
        <ele>71.4</ele>
        <time>2020-11-17T06:45:02Z</time>
      </trkpt>
      <trkpt lat="28.6462000" lon="-17.9389420">
        <ele>71.7</ele>
        <time>2020-11-17T06:45:03Z</time>
      </trkpt>
      <trkpt lat="28.6462000" lon="-17.9389420">
        <ele>71.7</ele>
        <time>2020-11-17T06:45:04Z</time>
      </trkpt>
      <trkpt lat="28.6462120" lon="-17.9388830">
        <ele>72.0</ele>
        <time>2020-11-17T06:45:05Z</time>
      </trkpt>
      <trkpt lat="28.6462120" lon="-17.9388830">
        <ele>72.0</ele>
        <time>2020-11-17T06:45:06Z</time>
      </trkpt>
      <trkpt lat="28.6462220" lon="-17.9388230">
        <ele>72.3</ele>
        <time>2020-11-17T06:45:07Z</time>
      </trkpt>
      <trkpt lat="28.6462220" lon="-17.9388230">
        <ele>72.3</ele>
        <time>2020-11-17T06:45:08Z</time>
      </trkpt>
      <trkpt lat="28.6462370" lon="-17.9387650">
        <ele>72.5</ele>
        <time>2020-11-17T06:45:09Z</time>
      </trkpt>
      <trkpt lat="28.6462430" lon="-17.9387350">
        <ele>72.7</ele>
        <time>2020-11-17T06:45:10Z</time>
      </trkpt>
      <trkpt lat="28.6462430" lon="-17.9387350">
        <ele>72.7</ele>
        <time>2020-11-17T06:45:11Z</time>
      </trkpt>
      <trkpt lat="28.6462570" lon="-17.9386770">
        <ele>73.0</ele>
        <time>2020-11-17T06:45:12Z</time>
      </trkpt>
      <trkpt lat="28.6462570" lon="-17.9386770">
        <ele>73.0</ele>
        <time>2020-11-17T06:45:13Z</time>
      </trkpt>
      <trkpt lat="28.6462630" lon="-17.9386170">
        <ele>73.3</ele>
        <time>2020-11-17T06:45:14Z</time>
      </trkpt>
      <trkpt lat="28.6462630" lon="-17.9386170">
        <ele>73.3</ele>
        <time>2020-11-17T06:45:15Z</time>
      </trkpt>
      <trkpt lat="28.6462750" lon="-17.9385550">
        <ele>73.6</ele>
        <time>2020-11-17T06:45:16Z</time>
      </trkpt>
      <trkpt lat="28.6462750" lon="-17.9385550">
        <ele>73.6</ele>
        <time>2020-11-17T06:45:17Z</time>
      </trkpt>
      <trkpt lat="28.6462750" lon="-17.9384950">
        <ele>73.9</ele>
        <time>2020-11-17T06:45:18Z</time>
      </trkpt>
      <trkpt lat="28.6462730" lon="-17.9384650">
        <ele>74.1</ele>
        <time>2020-11-17T06:45:19Z</time>
      </trkpt>
      <trkpt lat="28.6462700" lon="-17.9384350">
        <ele>74.3</ele>
        <time>2020-11-17T06:45:20Z</time>
      </trkpt>
      <trkpt lat="28.6462700" lon="-17.9384350">
        <ele>74.3</ele>
        <time>2020-11-17T06:45:21Z</time>
      </trkpt>
      <trkpt lat="28.6462630" lon="-17.9383750">
        <ele>74.6</ele>
        <time>2020-11-17T06:45:22Z</time>
      </trkpt>
      <trkpt lat="28.6462580" lon="-17.9383450">
        <ele>74.7</ele>
        <time>2020-11-17T06:45:23Z</time>
      </trkpt>
      <trkpt lat="28.6462500" lon="-17.9383170">
        <ele>74.9</ele>
        <time>2020-11-17T06:45:24Z</time>
      </trkpt>
      <trkpt lat="28.6462500" lon="-17.9383170">
        <ele>74.9</ele>
        <time>2020-11-17T06:45:25Z</time>
      </trkpt>
      <trkpt lat="28.6462320" lon="-17.9382620">
        <ele>75.1</ele>
        <time>2020-11-17T06:45:26Z</time>
      </trkpt>
      <trkpt lat="28.6462320" lon="-17.9382620">
        <ele>75.1</ele>
        <time>2020-11-17T06:45:27Z</time>
      </trkpt>
      <trkpt lat="28.6462100" lon="-17.9382070">
        <ele>75.5</ele>
        <time>2020-11-17T06:45:28Z</time>
      </trkpt>
      <trkpt lat="28.6462100" lon="-17.9382070">
        <ele>75.5</ele>
        <time>2020-11-17T06:45:29Z</time>
      </trkpt>
      <trkpt lat="28.6461920" lon="-17.9381520">
        <ele>75.9</ele>
        <time>2020-11-17T06:45:30Z</time>
      </trkpt>
      <trkpt lat="28.6461820" lon="-17.9381250">
        <ele>76.0</ele>
        <time>2020-11-17T06:45:31Z</time>
      </trkpt>
      <trkpt lat="28.6461820" lon="-17.9381250">
        <ele>76.0</ele>
        <time>2020-11-17T06:45:32Z</time>
      </trkpt>
      <trkpt lat="28.6461620" lon="-17.9380680">
        <ele>76.4</ele>
        <time>2020-11-17T06:45:33Z</time>
      </trkpt>
      <trkpt lat="28.6461620" lon="-17.9380680">
        <ele>76.4</ele>
        <time>2020-11-17T06:45:34Z</time>
      </trkpt>
      <trkpt lat="28.6461450" lon="-17.9380130">
        <ele>76.7</ele>
        <time>2020-11-17T06:45:35Z</time>
      </trkpt>
      <trkpt lat="28.6461450" lon="-17.9380130">
        <ele>76.7</ele>
        <time>2020-11-17T06:45:36Z</time>
      </trkpt>
      <trkpt lat="28.6461280" lon="-17.9379550">
        <ele>77.1</ele>
        <time>2020-11-17T06:45:37Z</time>
      </trkpt>
      <trkpt lat="28.6461280" lon="-17.9379550">
        <ele>77.1</ele>
        <time>2020-11-17T06:45:38Z</time>
      </trkpt>
      <trkpt lat="28.6461070" lon="-17.9378980">
        <ele>77.4</ele>
        <time>2020-11-17T06:45:39Z</time>
      </trkpt>
      <trkpt lat="28.6461070" lon="-17.9378980">
        <ele>77.4</ele>
        <time>2020-11-17T06:45:40Z</time>
      </trkpt>
      <trkpt lat="28.6460900" lon="-17.9378420">
        <ele>77.8</ele>
        <time>2020-11-17T06:45:41Z</time>
      </trkpt>
      <trkpt lat="28.6460820" lon="-17.9378130">
        <ele>78.0</ele>
        <time>2020-11-17T06:45:42Z</time>
      </trkpt>
      <trkpt lat="28.6460820" lon="-17.9378130">
        <ele>78.0</ele>
        <time>2020-11-17T06:45:43Z</time>
      </trkpt>
      <trkpt lat="28.6460620" lon="-17.9377570">
        <ele>78.3</ele>
        <time>2020-11-17T06:45:44Z</time>
      </trkpt>
      <trkpt lat="28.6460620" lon="-17.9377570">
        <ele>78.3</ele>
        <time>2020-11-17T06:45:45Z</time>
      </trkpt>
      <trkpt lat="28.6460420" lon="-17.9377030">
        <ele>78.6</ele>
        <time>2020-11-17T06:45:46Z</time>
      </trkpt>
      <trkpt lat="28.6460330" lon="-17.9376750">
        <ele>78.8</ele>
        <time>2020-11-17T06:45:47Z</time>
      </trkpt>
      <trkpt lat="28.6460330" lon="-17.9376750">
        <ele>78.8</ele>
        <time>2020-11-17T06:45:48Z</time>
      </trkpt>
      <trkpt lat="28.6460180" lon="-17.9376180">
        <ele>79.1</ele>
        <time>2020-11-17T06:45:49Z</time>
      </trkpt>
      <trkpt lat="28.6460180" lon="-17.9376180">
        <ele>79.1</ele>
        <time>2020-11-17T06:45:50Z</time>
      </trkpt>
      <trkpt lat="28.6460000" lon="-17.9375650">
        <ele>79.4</ele>
        <time>2020-11-17T06:45:51Z</time>
      </trkpt>
      <trkpt lat="28.6460000" lon="-17.9375650">
        <ele>79.4</ele>
        <time>2020-11-17T06:45:52Z</time>
      </trkpt>
      <trkpt lat="28.6459820" lon="-17.9375120">
        <ele>79.7</ele>
        <time>2020-11-17T06:45:53Z</time>
      </trkpt>
      <trkpt lat="28.6459730" lon="-17.9374830">
        <ele>79.9</ele>
        <time>2020-11-17T06:45:54Z</time>
      </trkpt>
      <trkpt lat="28.6459730" lon="-17.9374830">
        <ele>79.9</ele>
        <time>2020-11-17T06:45:55Z</time>
      </trkpt>
      <trkpt lat="28.6459570" lon="-17.9374280">
        <ele>80.3</ele>
        <time>2020-11-17T06:45:56Z</time>
      </trkpt>
      <trkpt lat="28.6459480" lon="-17.9374020">
        <ele>80.4</ele>
        <time>2020-11-17T06:45:57Z</time>
      </trkpt>
      <trkpt lat="28.6459380" lon="-17.9373730">
        <ele>80.6</ele>
        <time>2020-11-17T06:45:58Z</time>
      </trkpt>
      <trkpt lat="28.6459380" lon="-17.9373730">
        <ele>80.6</ele>
        <time>2020-11-17T06:45:59Z</time>
      </trkpt>
      <trkpt lat="28.6459230" lon="-17.9373180">
        <ele>80.9</ele>
        <time>2020-11-17T06:46:00Z</time>
      </trkpt>
      <trkpt lat="28.6459230" lon="-17.9373180">
        <ele>80.9</ele>
        <time>2020-11-17T06:46:01Z</time>
      </trkpt>
      <trkpt lat="28.6459080" lon="-17.9372630">
        <ele>81.2</ele>
        <time>2020-11-17T06:46:02Z</time>
      </trkpt>
      <trkpt lat="28.6459020" lon="-17.9372400">
        <ele>81.4</ele>
        <time>2020-11-17T06:46:03Z</time>
      </trkpt>
      <trkpt lat="28.6458950" lon="-17.9372200">
        <ele>81.5</ele>
        <time>2020-11-17T06:46:04Z</time>
      </trkpt>
      <trkpt lat="28.6458950" lon="-17.9372200">
        <ele>81.5</ele>
        <time>2020-11-17T06:46:05Z</time>
      </trkpt>
      <trkpt lat="28.6458770" lon="-17.9371970">
        <ele>81.7</ele>
        <time>2020-11-17T06:46:06Z</time>
      </trkpt>
      <trkpt lat="28.6458770" lon="-17.9371970">
        <ele>81.7</ele>
        <time>2020-11-17T06:46:07Z</time>
      </trkpt>
      <trkpt lat="28.6458770" lon="-17.9371930">
        <ele>81.7</ele>
        <time>2020-11-17T06:46:08Z</time>
      </trkpt>
      <trkpt lat="28.6458770" lon="-17.9371930">
        <ele>81.7</ele>
        <time>2020-11-17T06:46:09Z</time>
      </trkpt>
      <trkpt lat="28.6458800" lon="-17.9371950">
        <ele>81.7</ele>
        <time>2020-11-17T06:46:10Z</time>
      </trkpt>
      <trkpt lat="28.6458800" lon="-17.9371950">
        <ele>81.7</ele>
        <time>2020-11-17T06:46:11Z</time>
      </trkpt>
      <trkpt lat="28.6458800" lon="-17.9371950">
        <ele>81.7</ele>
        <time>2020-11-17T06:46:12Z</time>
      </trkpt>
      <trkpt lat="28.6458800" lon="-17.9371950">
        <ele>81.7</ele>
        <time>2020-11-17T06:47:25Z</time>
      </trkpt>
      <trkpt lat="28.6458770" lon="-17.9371530">
        <ele>81.9</ele>
        <time>2020-11-17T06:47:26Z</time>
      </trkpt>
      <trkpt lat="28.6458720" lon="-17.9371320">
        <ele>82.1</ele>
        <time>2020-11-17T06:47:27Z</time>
      </trkpt>
      <trkpt lat="28.6458720" lon="-17.9371320">
        <ele>82.1</ele>
        <time>2020-11-17T06:47:28Z</time>
      </trkpt>
      <trkpt lat="28.6458630" lon="-17.9370780">
        <ele>82.4</ele>
        <time>2020-11-17T06:47:29Z</time>
      </trkpt>
      <trkpt lat="28.6458550" lon="-17.9370520">
        <ele>82.5</ele>
        <time>2020-11-17T06:47:30Z</time>
      </trkpt>
      <trkpt lat="28.6458550" lon="-17.9370520">
        <ele>82.5</ele>
        <time>2020-11-17T06:47:31Z</time>
      </trkpt>
      <trkpt lat="28.6458370" lon="-17.9369950">
        <ele>82.9</ele>
        <time>2020-11-17T06:47:32Z</time>
      </trkpt>
      <trkpt lat="28.6458370" lon="-17.9369950">
        <ele>82.9</ele>
        <time>2020-11-17T06:47:33Z</time>
      </trkpt>
      <trkpt lat="28.6458180" lon="-17.9369350">
        <ele>83.2</ele>
        <time>2020-11-17T06:47:34Z</time>
      </trkpt>
      <trkpt lat="28.6458180" lon="-17.9369350">
        <ele>83.2</ele>
        <time>2020-11-17T06:47:35Z</time>
      </trkpt>
      <trkpt lat="28.6457970" lon="-17.9368730">
        <ele>83.6</ele>
        <time>2020-11-17T06:47:36Z</time>
      </trkpt>
      <trkpt lat="28.6457870" lon="-17.9368430">
        <ele>83.7</ele>
        <time>2020-11-17T06:47:37Z</time>
      </trkpt>
      <trkpt lat="28.6457770" lon="-17.9368120">
        <ele>83.9</ele>
        <time>2020-11-17T06:47:38Z</time>
      </trkpt>
      <trkpt lat="28.6457770" lon="-17.9368120">
        <ele>83.9</ele>
        <time>2020-11-17T06:47:39Z</time>
      </trkpt>
      <trkpt lat="28.6457570" lon="-17.9367500">
        <ele>84.3</ele>
        <time>2020-11-17T06:47:40Z</time>
      </trkpt>
      <trkpt lat="28.6457570" lon="-17.9367500">
        <ele>84.3</ele>
        <time>2020-11-17T06:47:41Z</time>
      </trkpt>
      <trkpt lat="28.6457380" lon="-17.9366900">
        <ele>84.7</ele>
        <time>2020-11-17T06:47:42Z</time>
      </trkpt>
      <trkpt lat="28.6457380" lon="-17.9366900">
        <ele>84.7</ele>
        <time>2020-11-17T06:47:43Z</time>
      </trkpt>
      <trkpt lat="28.6457170" lon="-17.9366270">
        <ele>85.1</ele>
        <time>2020-11-17T06:47:44Z</time>
      </trkpt>
      <trkpt lat="28.6457170" lon="-17.9366270">
        <ele>85.1</ele>
        <time>2020-11-17T06:47:45Z</time>
      </trkpt>
      <trkpt lat="28.6456920" lon="-17.9365700">
        <ele>85.4</ele>
        <time>2020-11-17T06:47:46Z</time>
      </trkpt>
      <trkpt lat="28.6456920" lon="-17.9365700">
        <ele>85.4</ele>
        <time>2020-11-17T06:47:47Z</time>
      </trkpt>
      <trkpt lat="28.6456580" lon="-17.9365170">
        <ele>85.8</ele>
        <time>2020-11-17T06:47:48Z</time>
      </trkpt>
      <trkpt lat="28.6456580" lon="-17.9365170">
        <ele>85.8</ele>
        <time>2020-11-17T06:47:49Z</time>
      </trkpt>
      <trkpt lat="28.6456350" lon="-17.9364580">
        <ele>86.2</ele>
        <time>2020-11-17T06:47:50Z</time>
      </trkpt>
      <trkpt lat="28.6456250" lon="-17.9364280">
        <ele>86.4</ele>
        <time>2020-11-17T06:47:51Z</time>
      </trkpt>
      <trkpt lat="28.6456250" lon="-17.9364280">
        <ele>86.4</ele>
        <time>2020-11-17T06:47:52Z</time>
      </trkpt>
      <trkpt lat="28.6456080" lon="-17.9363670">
        <ele>86.8</ele>
        <time>2020-11-17T06:47:53Z</time>
      </trkpt>
      <trkpt lat="28.6455980" lon="-17.9363350">
        <ele>87.0</ele>
        <time>2020-11-17T06:47:54Z</time>
      </trkpt>
      <trkpt lat="28.6455980" lon="-17.9363350">
        <ele>87.0</ele>
        <time>2020-11-17T06:47:55Z</time>
      </trkpt>
      <trkpt lat="28.6455800" lon="-17.9362750">
        <ele>87.4</ele>
        <time>2020-11-17T06:47:56Z</time>
      </trkpt>
      <trkpt lat="28.6455800" lon="-17.9362750">
        <ele>87.4</ele>
        <time>2020-11-17T06:47:57Z</time>
      </trkpt>
      <trkpt lat="28.6455580" lon="-17.9362170">
        <ele>87.8</ele>
        <time>2020-11-17T06:47:58Z</time>
      </trkpt>
      <trkpt lat="28.6455580" lon="-17.9362170">
        <ele>87.8</ele>
        <time>2020-11-17T06:47:59Z</time>
      </trkpt>
      <trkpt lat="28.6455400" lon="-17.9361580">
        <ele>88.1</ele>
        <time>2020-11-17T06:48:00Z</time>
      </trkpt>
      <trkpt lat="28.6455400" lon="-17.9361580">
        <ele>88.1</ele>
        <time>2020-11-17T06:48:01Z</time>
      </trkpt>
      <trkpt lat="28.6455200" lon="-17.9361020">
        <ele>88.5</ele>
        <time>2020-11-17T06:48:02Z</time>
      </trkpt>
      <trkpt lat="28.6455200" lon="-17.9361020">
        <ele>88.5</ele>
        <time>2020-11-17T06:48:03Z</time>
      </trkpt>
      <trkpt lat="28.6455000" lon="-17.9360430">
        <ele>88.8</ele>
        <time>2020-11-17T06:48:04Z</time>
      </trkpt>
      <trkpt lat="28.6455000" lon="-17.9360430">
        <ele>88.8</ele>
        <time>2020-11-17T06:48:05Z</time>
      </trkpt>
      <trkpt lat="28.6454780" lon="-17.9359870">
        <ele>89.2</ele>
        <time>2020-11-17T06:48:06Z</time>
      </trkpt>
      <trkpt lat="28.6454780" lon="-17.9359870">
        <ele>89.2</ele>
        <time>2020-11-17T06:48:07Z</time>
      </trkpt>
      <trkpt lat="28.6454570" lon="-17.9359300">
        <ele>89.5</ele>
        <time>2020-11-17T06:48:08Z</time>
      </trkpt>
      <trkpt lat="28.6454470" lon="-17.9359030">
        <ele>89.7</ele>
        <time>2020-11-17T06:48:09Z</time>
      </trkpt>
      <trkpt lat="28.6454470" lon="-17.9359030">
        <ele>89.7</ele>
        <time>2020-11-17T06:48:10Z</time>
      </trkpt>
      <trkpt lat="28.6454270" lon="-17.9358470">
        <ele>90.1</ele>
        <time>2020-11-17T06:48:11Z</time>
      </trkpt>
      <trkpt lat="28.6454170" lon="-17.9358180">
        <ele>90.2</ele>
        <time>2020-11-17T06:48:12Z</time>
      </trkpt>
      <trkpt lat="28.6454170" lon="-17.9358180">
        <ele>90.2</ele>
        <time>2020-11-17T06:48:13Z</time>
      </trkpt>
      <trkpt lat="28.6453930" lon="-17.9357650">
        <ele>90.6</ele>
        <time>2020-11-17T06:48:14Z</time>
      </trkpt>
      <trkpt lat="28.6453820" lon="-17.9357400">
        <ele>90.8</ele>
        <time>2020-11-17T06:48:15Z</time>
      </trkpt>
      <trkpt lat="28.6453820" lon="-17.9357400">
        <ele>90.8</ele>
        <time>2020-11-17T06:48:16Z</time>
      </trkpt>
      <trkpt lat="28.6453600" lon="-17.9356900">
        <ele>91.1</ele>
        <time>2020-11-17T06:48:17Z</time>
      </trkpt>
      <trkpt lat="28.6453500" lon="-17.9356650">
        <ele>91.2</ele>
        <time>2020-11-17T06:48:18Z</time>
      </trkpt>
      <trkpt lat="28.6453500" lon="-17.9356650">
        <ele>91.2</ele>
        <time>2020-11-17T06:48:19Z</time>
      </trkpt>
      <trkpt lat="28.6453330" lon="-17.9356120">
        <ele>91.6</ele>
        <time>2020-11-17T06:48:20Z</time>
      </trkpt>
      <trkpt lat="28.6453250" lon="-17.9355850">
        <ele>91.8</ele>
        <time>2020-11-17T06:48:21Z</time>
      </trkpt>
      <trkpt lat="28.6453250" lon="-17.9355850">
        <ele>91.8</ele>
        <time>2020-11-17T06:48:22Z</time>
      </trkpt>
      <trkpt lat="28.6453050" lon="-17.9355320">
        <ele>92.1</ele>
        <time>2020-11-17T06:48:23Z</time>
      </trkpt>
      <trkpt lat="28.6453050" lon="-17.9355320">
        <ele>92.1</ele>
        <time>2020-11-17T06:48:24Z</time>
      </trkpt>
      <trkpt lat="28.6452880" lon="-17.9354770">
        <ele>92.5</ele>
        <time>2020-11-17T06:48:25Z</time>
      </trkpt>
      <trkpt lat="28.6452880" lon="-17.9354770">
        <ele>92.5</ele>
        <time>2020-11-17T06:48:26Z</time>
      </trkpt>
      <trkpt lat="28.6452630" lon="-17.9354270">
        <ele>92.8</ele>
        <time>2020-11-17T06:48:27Z</time>
      </trkpt>
      <trkpt lat="28.6452500" lon="-17.9354030">
        <ele>93.0</ele>
        <time>2020-11-17T06:48:28Z</time>
      </trkpt>
      <trkpt lat="28.6452380" lon="-17.9353800">
        <ele>93.2</ele>
        <time>2020-11-17T06:48:29Z</time>
      </trkpt>
      <trkpt lat="28.6452320" lon="-17.9353570">
        <ele>93.4</ele>
        <time>2020-11-17T06:48:30Z</time>
      </trkpt>
      <trkpt lat="28.6452320" lon="-17.9353570">
        <ele>93.4</ele>
        <time>2020-11-17T06:48:31Z</time>
      </trkpt>
      <trkpt lat="28.6452250" lon="-17.9353070">
        <ele>93.7</ele>
        <time>2020-11-17T06:48:32Z</time>
      </trkpt>
      <trkpt lat="28.6452220" lon="-17.9352800">
        <ele>93.9</ele>
        <time>2020-11-17T06:48:33Z</time>
      </trkpt>
      <trkpt lat="28.6452220" lon="-17.9352800">
        <ele>93.9</ele>
        <time>2020-11-17T06:48:34Z</time>
      </trkpt>
      <trkpt lat="28.6452120" lon="-17.9352320">
        <ele>94.2</ele>
        <time>2020-11-17T06:48:35Z</time>
      </trkpt>
      <trkpt lat="28.6452050" lon="-17.9352080">
        <ele>94.4</ele>
        <time>2020-11-17T06:48:36Z</time>
      </trkpt>
      <trkpt lat="28.6452050" lon="-17.9352080">
        <ele>94.4</ele>
        <time>2020-11-17T06:48:37Z</time>
      </trkpt>
      <trkpt lat="28.6451950" lon="-17.9351600">
        <ele>94.8</ele>
        <time>2020-11-17T06:48:38Z</time>
      </trkpt>
      <trkpt lat="28.6451900" lon="-17.9351370">
        <ele>94.9</ele>
        <time>2020-11-17T06:48:39Z</time>
      </trkpt>
      <trkpt lat="28.6451900" lon="-17.9351370">
        <ele>94.9</ele>
        <time>2020-11-17T06:48:40Z</time>
      </trkpt>
      <trkpt lat="28.6451820" lon="-17.9350880">
        <ele>95.2</ele>
        <time>2020-11-17T06:48:41Z</time>
      </trkpt>
      <trkpt lat="28.6451780" lon="-17.9350650">
        <ele>95.4</ele>
        <time>2020-11-17T06:48:42Z</time>
      </trkpt>
      <trkpt lat="28.6451780" lon="-17.9350650">
        <ele>95.4</ele>
        <time>2020-11-17T06:48:43Z</time>
      </trkpt>
      <trkpt lat="28.6451720" lon="-17.9350180">
        <ele>95.7</ele>
        <time>2020-11-17T06:48:44Z</time>
      </trkpt>
      <trkpt lat="28.6451680" lon="-17.9349970">
        <ele>95.9</ele>
        <time>2020-11-17T06:48:45Z</time>
      </trkpt>
      <trkpt lat="28.6451680" lon="-17.9349970">
        <ele>95.9</ele>
        <time>2020-11-17T06:48:46Z</time>
      </trkpt>
      <trkpt lat="28.6451620" lon="-17.9349480">
        <ele>96.2</ele>
        <time>2020-11-17T06:48:47Z</time>
      </trkpt>
      <trkpt lat="28.6451620" lon="-17.9349480">
        <ele>96.2</ele>
        <time>2020-11-17T06:48:48Z</time>
      </trkpt>
      <trkpt lat="28.6451580" lon="-17.9348980">
        <ele>96.6</ele>
        <time>2020-11-17T06:48:49Z</time>
      </trkpt>
      <trkpt lat="28.6451580" lon="-17.9348980">
        <ele>96.6</ele>
        <time>2020-11-17T06:48:50Z</time>
      </trkpt>
      <trkpt lat="28.6451550" lon="-17.9348470">
        <ele>96.9</ele>
        <time>2020-11-17T06:48:51Z</time>
      </trkpt>
      <trkpt lat="28.6451550" lon="-17.9348470">
        <ele>96.9</ele>
        <time>2020-11-17T06:48:52Z</time>
      </trkpt>
      <trkpt lat="28.6451450" lon="-17.9347980">
        <ele>97.3</ele>
        <time>2020-11-17T06:48:53Z</time>
      </trkpt>
      <trkpt lat="28.6451380" lon="-17.9347730">
        <ele>97.5</ele>
        <time>2020-11-17T06:48:54Z</time>
      </trkpt>
      <trkpt lat="28.6451380" lon="-17.9347730">
        <ele>97.5</ele>
        <time>2020-11-17T06:48:55Z</time>
      </trkpt>
      <trkpt lat="28.6451270" lon="-17.9347250">
        <ele>97.8</ele>
        <time>2020-11-17T06:48:56Z</time>
      </trkpt>
      <trkpt lat="28.6451220" lon="-17.9346980">
        <ele>98.0</ele>
        <time>2020-11-17T06:48:57Z</time>
      </trkpt>
      <trkpt lat="28.6451220" lon="-17.9346980">
        <ele>98.0</ele>
        <time>2020-11-17T06:48:58Z</time>
      </trkpt>
      <trkpt lat="28.6451100" lon="-17.9346520">
        <ele>98.4</ele>
        <time>2020-11-17T06:48:59Z</time>
      </trkpt>
      <trkpt lat="28.6451100" lon="-17.9346520">
        <ele>98.4</ele>
        <time>2020-11-17T06:49:00Z</time>
      </trkpt>
      <trkpt lat="28.6450930" lon="-17.9346120">
        <ele>98.7</ele>
        <time>2020-11-17T06:49:01Z</time>
      </trkpt>
      <trkpt lat="28.6450930" lon="-17.9346120">
        <ele>98.7</ele>
        <time>2020-11-17T06:49:02Z</time>
      </trkpt>
      <trkpt lat="28.6450730" lon="-17.9345670">
        <ele>99.0</ele>
        <time>2020-11-17T06:49:03Z</time>
      </trkpt>
      <trkpt lat="28.6450600" lon="-17.9345470">
        <ele>99.2</ele>
        <time>2020-11-17T06:49:04Z</time>
      </trkpt>
      <trkpt lat="28.6450470" lon="-17.9345270">
        <ele>99.4</ele>
        <time>2020-11-17T06:49:05Z</time>
      </trkpt>
      <trkpt lat="28.6450470" lon="-17.9345270">
        <ele>99.4</ele>
        <time>2020-11-17T06:49:06Z</time>
      </trkpt>
      <trkpt lat="28.6450180" lon="-17.9344820">
        <ele>99.7</ele>
        <time>2020-11-17T06:49:07Z</time>
      </trkpt>
      <trkpt lat="28.6450180" lon="-17.9344820">
        <ele>99.7</ele>
        <time>2020-11-17T06:49:08Z</time>
      </trkpt>
      <trkpt lat="28.6449920" lon="-17.9344380">
        <ele>100.1</ele>
        <time>2020-11-17T06:49:09Z</time>
      </trkpt>
      <trkpt lat="28.6449920" lon="-17.9344380">
        <ele>100.1</ele>
        <time>2020-11-17T06:49:10Z</time>
      </trkpt>
      <trkpt lat="28.6449600" lon="-17.9343970">
        <ele>100.4</ele>
        <time>2020-11-17T06:49:11Z</time>
      </trkpt>
      <trkpt lat="28.6449430" lon="-17.9343750">
        <ele>100.5</ele>
        <time>2020-11-17T06:49:12Z</time>
      </trkpt>
      <trkpt lat="28.6449430" lon="-17.9343750">
        <ele>100.5</ele>
        <time>2020-11-17T06:49:13Z</time>
      </trkpt>
      <trkpt lat="28.6449120" lon="-17.9343280">
        <ele>100.5</ele>
        <time>2020-11-17T06:49:14Z</time>
      </trkpt>
      <trkpt lat="28.6449120" lon="-17.9343280">
        <ele>100.5</ele>
        <time>2020-11-17T06:49:15Z</time>
      </trkpt>
      <trkpt lat="28.6448770" lon="-17.9342800">
        <ele>100.6</ele>
        <time>2020-11-17T06:49:16Z</time>
      </trkpt>
      <trkpt lat="28.6448600" lon="-17.9342530">
        <ele>100.8</ele>
        <time>2020-11-17T06:49:17Z</time>
      </trkpt>
      <trkpt lat="28.6448420" lon="-17.9342270">
        <ele>100.9</ele>
        <time>2020-11-17T06:49:18Z</time>
      </trkpt>
      <trkpt lat="28.6448420" lon="-17.9342270">
        <ele>100.9</ele>
        <time>2020-11-17T06:49:19Z</time>
      </trkpt>
      <trkpt lat="28.6448000" lon="-17.9341730">
        <ele>101.2</ele>
        <time>2020-11-17T06:49:20Z</time>
      </trkpt>
      <trkpt lat="28.6448000" lon="-17.9341730">
        <ele>101.2</ele>
        <time>2020-11-17T06:49:21Z</time>
      </trkpt>
      <trkpt lat="28.6447670" lon="-17.9341300">
        <ele>101.5</ele>
        <time>2020-11-17T06:49:22Z</time>
      </trkpt>
      <trkpt lat="28.6447670" lon="-17.9341300">
        <ele>101.5</ele>
        <time>2020-11-17T06:49:23Z</time>
      </trkpt>
      <trkpt lat="28.6447230" lon="-17.9340870">
        <ele>101.7</ele>
        <time>2020-11-17T06:49:24Z</time>
      </trkpt>
      <trkpt lat="28.6447230" lon="-17.9340870">
        <ele>101.7</ele>
        <time>2020-11-17T06:49:25Z</time>
      </trkpt>
      <trkpt lat="28.6446800" lon="-17.9340430">
        <ele>102.0</ele>
        <time>2020-11-17T06:49:26Z</time>
      </trkpt>
      <trkpt lat="28.6446800" lon="-17.9340430">
        <ele>102.0</ele>
        <time>2020-11-17T06:49:27Z</time>
      </trkpt>
      <trkpt lat="28.6446350" lon="-17.9340050">
        <ele>102.3</ele>
        <time>2020-11-17T06:49:28Z</time>
      </trkpt>
      <trkpt lat="28.6446350" lon="-17.9340050">
        <ele>102.3</ele>
        <time>2020-11-17T06:49:29Z</time>
      </trkpt>
      <trkpt lat="28.6445880" lon="-17.9339720">
        <ele>102.6</ele>
        <time>2020-11-17T06:49:30Z</time>
      </trkpt>
      <trkpt lat="28.6445880" lon="-17.9339720">
        <ele>102.6</ele>
        <time>2020-11-17T06:49:31Z</time>
      </trkpt>
      <trkpt lat="28.6445330" lon="-17.9339470">
        <ele>102.9</ele>
        <time>2020-11-17T06:49:32Z</time>
      </trkpt>
      <trkpt lat="28.6445080" lon="-17.9339380">
        <ele>103.1</ele>
        <time>2020-11-17T06:49:33Z</time>
      </trkpt>
      <trkpt lat="28.6444820" lon="-17.9339350">
        <ele>103.3</ele>
        <time>2020-11-17T06:49:34Z</time>
      </trkpt>
      <trkpt lat="28.6444820" lon="-17.9339350">
        <ele>103.3</ele>
        <time>2020-11-17T06:49:35Z</time>
      </trkpt>
      <trkpt lat="28.6444300" lon="-17.9339180">
        <ele>103.6</ele>
        <time>2020-11-17T06:49:36Z</time>
      </trkpt>
      <trkpt lat="28.6444050" lon="-17.9339100">
        <ele>103.8</ele>
        <time>2020-11-17T06:49:37Z</time>
      </trkpt>
      <trkpt lat="28.6444050" lon="-17.9339100">
        <ele>103.8</ele>
        <time>2020-11-17T06:49:38Z</time>
      </trkpt>
      <trkpt lat="28.6443580" lon="-17.9338900">
        <ele>104.1</ele>
        <time>2020-11-17T06:49:39Z</time>
      </trkpt>
      <trkpt lat="28.6443330" lon="-17.9338820">
        <ele>104.5</ele>
        <time>2020-11-17T06:49:40Z</time>
      </trkpt>
      <trkpt lat="28.6443330" lon="-17.9338820">
        <ele>104.5</ele>
        <time>2020-11-17T06:49:41Z</time>
      </trkpt>
      <trkpt lat="28.6442780" lon="-17.9338650">
        <ele>104.5</ele>
        <time>2020-11-17T06:49:42Z</time>
      </trkpt>
      <trkpt lat="28.6442780" lon="-17.9338650">
        <ele>104.5</ele>
        <time>2020-11-17T06:49:43Z</time>
      </trkpt>
      <trkpt lat="28.6442250" lon="-17.9338530">
        <ele>104.7</ele>
        <time>2020-11-17T06:49:44Z</time>
      </trkpt>
      <trkpt lat="28.6441980" lon="-17.9338500">
        <ele>104.9</ele>
        <time>2020-11-17T06:49:45Z</time>
      </trkpt>
      <trkpt lat="28.6441980" lon="-17.9338500">
        <ele>104.9</ele>
        <time>2020-11-17T06:49:46Z</time>
      </trkpt>
      <trkpt lat="28.6441450" lon="-17.9338520">
        <ele>105.1</ele>
        <time>2020-11-17T06:49:47Z</time>
      </trkpt>
      <trkpt lat="28.6441450" lon="-17.9338520">
        <ele>105.1</ele>
        <time>2020-11-17T06:49:48Z</time>
      </trkpt>
      <trkpt lat="28.6440850" lon="-17.9338450">
        <ele>105.4</ele>
        <time>2020-11-17T06:49:49Z</time>
      </trkpt>
      <trkpt lat="28.6440850" lon="-17.9338450">
        <ele>105.4</ele>
        <time>2020-11-17T06:49:50Z</time>
      </trkpt>
      <trkpt lat="28.6440270" lon="-17.9338350">
        <ele>105.7</ele>
        <time>2020-11-17T06:49:51Z</time>
      </trkpt>
      <trkpt lat="28.6440270" lon="-17.9338350">
        <ele>105.7</ele>
        <time>2020-11-17T06:49:52Z</time>
      </trkpt>
      <trkpt lat="28.6439700" lon="-17.9338220">
        <ele>105.9</ele>
        <time>2020-11-17T06:49:53Z</time>
      </trkpt>
      <trkpt lat="28.6439430" lon="-17.9338150">
        <ele>106.0</ele>
        <time>2020-11-17T06:49:54Z</time>
      </trkpt>
      <trkpt lat="28.6439430" lon="-17.9338150">
        <ele>106.0</ele>
        <time>2020-11-17T06:49:55Z</time>
      </trkpt>
      <trkpt lat="28.6438880" lon="-17.9338000">
        <ele>106.1</ele>
        <time>2020-11-17T06:49:56Z</time>
      </trkpt>
      <trkpt lat="28.6438880" lon="-17.9338000">
        <ele>106.1</ele>
        <time>2020-11-17T06:49:57Z</time>
      </trkpt>
      <trkpt lat="28.6438350" lon="-17.9337700">
        <ele>106.2</ele>
        <time>2020-11-17T06:49:58Z</time>
      </trkpt>
      <trkpt lat="28.6438120" lon="-17.9337470">
        <ele>106.3</ele>
        <time>2020-11-17T06:49:59Z</time>
      </trkpt>
      <trkpt lat="28.6438120" lon="-17.9337470">
        <ele>106.3</ele>
        <time>2020-11-17T06:50:00Z</time>
      </trkpt>
      <trkpt lat="28.6437720" lon="-17.9336850">
        <ele>106.3</ele>
        <time>2020-11-17T06:50:01Z</time>
      </trkpt>
      <trkpt lat="28.6437530" lon="-17.9336480">
        <ele>106.4</ele>
        <time>2020-11-17T06:50:02Z</time>
      </trkpt>
      <trkpt lat="28.6437380" lon="-17.9336100">
        <ele>106.4</ele>
        <time>2020-11-17T06:50:03Z</time>
      </trkpt>
      <trkpt lat="28.6437380" lon="-17.9336100">
        <ele>106.4</ele>
        <time>2020-11-17T06:50:04Z</time>
      </trkpt>
      <trkpt lat="28.6437030" lon="-17.9335370">
        <ele>106.5</ele>
        <time>2020-11-17T06:50:05Z</time>
      </trkpt>
      <trkpt lat="28.6437030" lon="-17.9335370">
        <ele>106.5</ele>
        <time>2020-11-17T06:50:06Z</time>
      </trkpt>
      <trkpt lat="28.6436620" lon="-17.9334670">
        <ele>106.5</ele>
        <time>2020-11-17T06:50:07Z</time>
      </trkpt>
      <trkpt lat="28.6436620" lon="-17.9334670">
        <ele>106.5</ele>
        <time>2020-11-17T06:50:08Z</time>
      </trkpt>
      <trkpt lat="28.6436100" lon="-17.9334030">
        <ele>106.5</ele>
        <time>2020-11-17T06:50:09Z</time>
      </trkpt>
      <trkpt lat="28.6435800" lon="-17.9333750">
        <ele>106.5</ele>
        <time>2020-11-17T06:50:10Z</time>
      </trkpt>
      <trkpt lat="28.6435800" lon="-17.9333750">
        <ele>106.5</ele>
        <time>2020-11-17T06:50:11Z</time>
      </trkpt>
      <trkpt lat="28.6435080" lon="-17.9333380">
        <ele>106.5</ele>
        <time>2020-11-17T06:50:12Z</time>
      </trkpt>
      <trkpt lat="28.6435080" lon="-17.9333380">
        <ele>106.5</ele>
        <time>2020-11-17T06:50:13Z</time>
      </trkpt>
      <trkpt lat="28.6434250" lon="-17.9333280">
        <ele>106.5</ele>
        <time>2020-11-17T06:50:14Z</time>
      </trkpt>
      <trkpt lat="28.6434250" lon="-17.9333280">
        <ele>106.5</ele>
        <time>2020-11-17T06:50:15Z</time>
      </trkpt>
      <trkpt lat="28.6433400" lon="-17.9333430">
        <ele>106.5</ele>
        <time>2020-11-17T06:50:16Z</time>
      </trkpt>
      <trkpt lat="28.6432980" lon="-17.9333580">
        <ele>106.5</ele>
        <time>2020-11-17T06:50:17Z</time>
      </trkpt>
      <trkpt lat="28.6432580" lon="-17.9333780">
        <ele>106.5</ele>
        <time>2020-11-17T06:50:18Z</time>
      </trkpt>
      <trkpt lat="28.6432580" lon="-17.9333780">
        <ele>106.5</ele>
        <time>2020-11-17T06:50:19Z</time>
      </trkpt>
      <trkpt lat="28.6431800" lon="-17.9334180">
        <ele>106.5</ele>
        <time>2020-11-17T06:50:20Z</time>
      </trkpt>
      <trkpt lat="28.6431420" lon="-17.9334420">
        <ele>106.5</ele>
        <time>2020-11-17T06:50:21Z</time>
      </trkpt>
      <trkpt lat="28.6431420" lon="-17.9334420">
        <ele>106.5</ele>
        <time>2020-11-17T06:50:22Z</time>
      </trkpt>
      <trkpt lat="28.6430620" lon="-17.9334820">
        <ele>106.5</ele>
        <time>2020-11-17T06:50:23Z</time>
      </trkpt>
      <trkpt lat="28.6430220" lon="-17.9335020">
        <ele>106.6</ele>
        <time>2020-11-17T06:50:24Z</time>
      </trkpt>
      <trkpt lat="28.6430220" lon="-17.9335020">
        <ele>106.6</ele>
        <time>2020-11-17T06:50:25Z</time>
      </trkpt>
      <trkpt lat="28.6429420" lon="-17.9335420">
        <ele>106.6</ele>
        <time>2020-11-17T06:50:26Z</time>
      </trkpt>
      <trkpt lat="28.6429030" lon="-17.9335630">
        <ele>106.6</ele>
        <time>2020-11-17T06:50:27Z</time>
      </trkpt>
      <trkpt lat="28.6428630" lon="-17.9335820">
        <ele>106.6</ele>
        <time>2020-11-17T06:50:28Z</time>
      </trkpt>
      <trkpt lat="28.6428630" lon="-17.9335820">
        <ele>106.6</ele>
        <time>2020-11-17T06:50:29Z</time>
      </trkpt>
      <trkpt lat="28.6427870" lon="-17.9336200">
        <ele>106.6</ele>
        <time>2020-11-17T06:50:30Z</time>
      </trkpt>
      <trkpt lat="28.6427870" lon="-17.9336200">
        <ele>106.6</ele>
        <time>2020-11-17T06:50:31Z</time>
      </trkpt>
      <trkpt lat="28.6427170" lon="-17.9336650">
        <ele>106.6</ele>
        <time>2020-11-17T06:50:32Z</time>
      </trkpt>
      <trkpt lat="28.6427170" lon="-17.9336650">
        <ele>106.6</ele>
        <time>2020-11-17T06:50:33Z</time>
      </trkpt>
      <trkpt lat="28.6426570" lon="-17.9337280">
        <ele>106.7</ele>
        <time>2020-11-17T06:50:34Z</time>
      </trkpt>
      <trkpt lat="28.6426570" lon="-17.9337280">
        <ele>106.7</ele>
        <time>2020-11-17T06:50:35Z</time>
      </trkpt>
      <trkpt lat="28.6426070" lon="-17.9338100">
        <ele>106.7</ele>
        <time>2020-11-17T06:50:36Z</time>
      </trkpt>
      <trkpt lat="28.6426070" lon="-17.9338100">
        <ele>106.7</ele>
        <time>2020-11-17T06:50:37Z</time>
      </trkpt>
      <trkpt lat="28.6425650" lon="-17.9338920">
        <ele>106.8</ele>
        <time>2020-11-17T06:50:38Z</time>
      </trkpt>
      <trkpt lat="28.6425650" lon="-17.9338920">
        <ele>106.8</ele>
        <time>2020-11-17T06:50:39Z</time>
      </trkpt>
      <trkpt lat="28.6425020" lon="-17.9339630">
        <ele>106.9</ele>
        <time>2020-11-17T06:50:40Z</time>
      </trkpt>
      <trkpt lat="28.6424650" lon="-17.9339970">
        <ele>106.9</ele>
        <time>2020-11-17T06:50:41Z</time>
      </trkpt>
      <trkpt lat="28.6424650" lon="-17.9339970">
        <ele>106.9</ele>
        <time>2020-11-17T06:50:42Z</time>
      </trkpt>
      <trkpt lat="28.6424200" lon="-17.9340780">
        <ele>106.9</ele>
        <time>2020-11-17T06:50:43Z</time>
      </trkpt>
      <trkpt lat="28.6424200" lon="-17.9340780">
        <ele>106.9</ele>
        <time>2020-11-17T06:50:44Z</time>
      </trkpt>
      <trkpt lat="28.6423830" lon="-17.9341830">
        <ele>106.9</ele>
        <time>2020-11-17T06:50:45Z</time>
      </trkpt>
      <trkpt lat="28.6423830" lon="-17.9341830">
        <ele>106.9</ele>
        <time>2020-11-17T06:50:46Z</time>
      </trkpt>
      <trkpt lat="28.6423380" lon="-17.9342720">
        <ele>106.8</ele>
        <time>2020-11-17T06:50:47Z</time>
      </trkpt>
      <trkpt lat="28.6423020" lon="-17.9343070">
        <ele>106.7</ele>
        <time>2020-11-17T06:50:48Z</time>
      </trkpt>
      <trkpt lat="28.6422670" lon="-17.9343370">
        <ele>106.7</ele>
        <time>2020-11-17T06:50:49Z</time>
      </trkpt>
      <trkpt lat="28.6422670" lon="-17.9343370">
        <ele>106.7</ele>
        <time>2020-11-17T06:50:50Z</time>
      </trkpt>
      <trkpt lat="28.6421870" lon="-17.9343950">
        <ele>106.6</ele>
        <time>2020-11-17T06:50:51Z</time>
      </trkpt>
      <trkpt lat="28.6421500" lon="-17.9344200">
        <ele>106.5</ele>
        <time>2020-11-17T06:50:52Z</time>
      </trkpt>
      <trkpt lat="28.6421500" lon="-17.9344200">
        <ele>106.5</ele>
        <time>2020-11-17T06:50:53Z</time>
      </trkpt>
      <trkpt lat="28.6420650" lon="-17.9344670">
        <ele>106.4</ele>
        <time>2020-11-17T06:50:54Z</time>
      </trkpt>
      <trkpt lat="28.6420650" lon="-17.9344670">
        <ele>106.4</ele>
        <time>2020-11-17T06:50:55Z</time>
      </trkpt>
      <trkpt lat="28.6420020" lon="-17.9345130">
        <ele>106.3</ele>
        <time>2020-11-17T06:50:56Z</time>
      </trkpt>
      <trkpt lat="28.6419720" lon="-17.9345400">
        <ele>106.3</ele>
        <time>2020-11-17T06:50:57Z</time>
      </trkpt>
      <trkpt lat="28.6419720" lon="-17.9345400">
        <ele>106.3</ele>
        <time>2020-11-17T06:50:58Z</time>
      </trkpt>
      <trkpt lat="28.6419100" lon="-17.9345920">
        <ele>106.2</ele>
        <time>2020-11-17T06:50:59Z</time>
      </trkpt>
      <trkpt lat="28.6418680" lon="-17.9346050">
        <ele>106.2</ele>
        <time>2020-11-17T06:51:00Z</time>
      </trkpt>
      <trkpt lat="28.6418680" lon="-17.9346050">
        <ele>106.2</ele>
        <time>2020-11-17T06:51:01Z</time>
      </trkpt>
      <trkpt lat="28.6417850" lon="-17.9346170">
        <ele>106.2</ele>
        <time>2020-11-17T06:51:02Z</time>
      </trkpt>
      <trkpt lat="28.6417380" lon="-17.9346180">
        <ele>106.1</ele>
        <time>2020-11-17T06:51:03Z</time>
      </trkpt>
      <trkpt lat="28.6417380" lon="-17.9346180">
        <ele>106.1</ele>
        <time>2020-11-17T06:51:04Z</time>
      </trkpt>
      <trkpt lat="28.6416450" lon="-17.9346250">
        <ele>106.1</ele>
        <time>2020-11-17T06:51:05Z</time>
      </trkpt>
      <trkpt lat="28.6416020" lon="-17.9346300">
        <ele>106.1</ele>
        <time>2020-11-17T06:51:06Z</time>
      </trkpt>
      <trkpt lat="28.6416020" lon="-17.9346300">
        <ele>106.1</ele>
        <time>2020-11-17T06:51:07Z</time>
      </trkpt>
      <trkpt lat="28.6415120" lon="-17.9346350">
        <ele>106.0</ele>
        <time>2020-11-17T06:51:08Z</time>
      </trkpt>
      <trkpt lat="28.6415120" lon="-17.9346350">
        <ele>106.0</ele>
        <time>2020-11-17T06:51:09Z</time>
      </trkpt>
      <trkpt lat="28.6414220" lon="-17.9346350">
        <ele>105.9</ele>
        <time>2020-11-17T06:51:10Z</time>
      </trkpt>
      <trkpt lat="28.6414220" lon="-17.9346350">
        <ele>105.9</ele>
        <time>2020-11-17T06:51:11Z</time>
      </trkpt>
      <trkpt lat="28.6413280" lon="-17.9346520">
        <ele>105.9</ele>
        <time>2020-11-17T06:51:12Z</time>
      </trkpt>
      <trkpt lat="28.6412780" lon="-17.9346600">
        <ele>105.9</ele>
        <time>2020-11-17T06:51:13Z</time>
      </trkpt>
      <trkpt lat="28.6412780" lon="-17.9346600">
        <ele>105.9</ele>
        <time>2020-11-17T06:51:14Z</time>
      </trkpt>
      <trkpt lat="28.6411700" lon="-17.9346720">
        <ele>105.8</ele>
        <time>2020-11-17T06:51:15Z</time>
      </trkpt>
      <trkpt lat="28.6411700" lon="-17.9346720">
        <ele>105.8</ele>
        <time>2020-11-17T06:51:16Z</time>
      </trkpt>
      <trkpt lat="28.6410630" lon="-17.9346920">
        <ele>105.8</ele>
        <time>2020-11-17T06:51:17Z</time>
      </trkpt>
      <trkpt lat="28.6410150" lon="-17.9347000">
        <ele>105.7</ele>
        <time>2020-11-17T06:51:18Z</time>
      </trkpt>
      <trkpt lat="28.6410150" lon="-17.9347000">
        <ele>105.7</ele>
        <time>2020-11-17T06:51:19Z</time>
      </trkpt>
      <trkpt lat="28.6409200" lon="-17.9347080">
        <ele>105.7</ele>
        <time>2020-11-17T06:51:20Z</time>
      </trkpt>
      <trkpt lat="28.6409200" lon="-17.9347080">
        <ele>105.7</ele>
        <time>2020-11-17T06:51:21Z</time>
      </trkpt>
      <trkpt lat="28.6408330" lon="-17.9346720">
        <ele>105.8</ele>
        <time>2020-11-17T06:51:22Z</time>
      </trkpt>
      <trkpt lat="28.6408330" lon="-17.9346720">
        <ele>105.8</ele>
        <time>2020-11-17T06:51:23Z</time>
      </trkpt>
      <trkpt lat="28.6407720" lon="-17.9346280">
        <ele>105.9</ele>
        <time>2020-11-17T06:51:24Z</time>
      </trkpt>
      <trkpt lat="28.6407720" lon="-17.9346280">
        <ele>105.9</ele>
        <time>2020-11-17T06:51:25Z</time>
      </trkpt>
      <trkpt lat="28.6407180" lon="-17.9345900">
        <ele>106.0</ele>
        <time>2020-11-17T06:51:26Z</time>
      </trkpt>
      <trkpt lat="28.6406930" lon="-17.9345720">
        <ele>106.1</ele>
        <time>2020-11-17T06:51:27Z</time>
      </trkpt>
      <trkpt lat="28.6406930" lon="-17.9345720">
        <ele>106.1</ele>
        <time>2020-11-17T06:51:28Z</time>
      </trkpt>
      <trkpt lat="28.6406470" lon="-17.9345350">
        <ele>106.3</ele>
        <time>2020-11-17T06:51:29Z</time>
      </trkpt>
      <trkpt lat="28.6406270" lon="-17.9345170">
        <ele>106.4</ele>
        <time>2020-11-17T06:51:30Z</time>
      </trkpt>
      <trkpt lat="28.6406270" lon="-17.9345170">
        <ele>106.4</ele>
        <time>2020-11-17T06:51:31Z</time>
      </trkpt>
      <trkpt lat="28.6405930" lon="-17.9344770">
        <ele>106.5</ele>
        <time>2020-11-17T06:51:32Z</time>
      </trkpt>
      <trkpt lat="28.6405780" lon="-17.9344600">
        <ele>106.6</ele>
        <time>2020-11-17T06:51:33Z</time>
      </trkpt>
      <trkpt lat="28.6405780" lon="-17.9344600">
        <ele>106.6</ele>
        <time>2020-11-17T06:51:34Z</time>
      </trkpt>
      <trkpt lat="28.6405570" lon="-17.9344250">
        <ele>106.7</ele>
        <time>2020-11-17T06:51:35Z</time>
      </trkpt>
      <trkpt lat="28.6405500" lon="-17.9344030">
        <ele>106.8</ele>
        <time>2020-11-17T06:51:36Z</time>
      </trkpt>
      <trkpt lat="28.6405500" lon="-17.9344030">
        <ele>106.8</ele>
        <time>2020-11-17T06:51:37Z</time>
      </trkpt>
      <trkpt lat="28.6405480" lon="-17.9343580">
        <ele>106.9</ele>
        <time>2020-11-17T06:51:38Z</time>
      </trkpt>
      <trkpt lat="28.6405480" lon="-17.9343580">
        <ele>106.9</ele>
        <time>2020-11-17T06:51:39Z</time>
      </trkpt>
      <trkpt lat="28.6405620" lon="-17.9343130">
        <ele>107.7</ele>
        <time>2020-11-17T06:51:40Z</time>
      </trkpt>
      <trkpt lat="28.6405620" lon="-17.9343130">
        <ele>107.7</ele>
        <time>2020-11-17T06:51:41Z</time>
      </trkpt>
      <trkpt lat="28.6405800" lon="-17.9342680">
        <ele>108.0</ele>
        <time>2020-11-17T06:51:42Z</time>
      </trkpt>
      <trkpt lat="28.6405800" lon="-17.9342680">
        <ele>108.0</ele>
        <time>2020-11-17T06:51:43Z</time>
      </trkpt>
      <trkpt lat="28.6406020" lon="-17.9342270">
        <ele>108.3</ele>
        <time>2020-11-17T06:51:44Z</time>
      </trkpt>
      <trkpt lat="28.6406020" lon="-17.9342270">
        <ele>108.3</ele>
        <time>2020-11-17T06:51:45Z</time>
      </trkpt>
      <trkpt lat="28.6406120" lon="-17.9341780">
        <ele>108.7</ele>
        <time>2020-11-17T06:51:46Z</time>
      </trkpt>
      <trkpt lat="28.6406120" lon="-17.9341780">
        <ele>108.7</ele>
        <time>2020-11-17T06:51:47Z</time>
      </trkpt>
      <trkpt lat="28.6406220" lon="-17.9341400">
        <ele>108.9</ele>
        <time>2020-11-17T06:51:48Z</time>
      </trkpt>
      <trkpt lat="28.6406220" lon="-17.9341400">
        <ele>108.9</ele>
        <time>2020-11-17T06:51:49Z</time>
      </trkpt>
      <trkpt lat="28.6406400" lon="-17.9341020">
        <ele>109.2</ele>
        <time>2020-11-17T06:51:50Z</time>
      </trkpt>
      <trkpt lat="28.6406400" lon="-17.9341020">
        <ele>109.2</ele>
        <time>2020-11-17T06:51:51Z</time>
      </trkpt>
      <trkpt lat="28.6406680" lon="-17.9340600">
        <ele>109.5</ele>
        <time>2020-11-17T06:51:52Z</time>
      </trkpt>
      <trkpt lat="28.6406880" lon="-17.9340430">
        <ele>109.7</ele>
        <time>2020-11-17T06:51:53Z</time>
      </trkpt>
      <trkpt lat="28.6407070" lon="-17.9340250">
        <ele>109.9</ele>
        <time>2020-11-17T06:51:54Z</time>
      </trkpt>
      <trkpt lat="28.6407070" lon="-17.9340250">
        <ele>109.9</ele>
        <time>2020-11-17T06:51:55Z</time>
      </trkpt>
      <trkpt lat="28.6407380" lon="-17.9339800">
        <ele>110.4</ele>
        <time>2020-11-17T06:51:56Z</time>
      </trkpt>
      <trkpt lat="28.6407550" lon="-17.9339580">
        <ele>110.7</ele>
        <time>2020-11-17T06:51:57Z</time>
      </trkpt>
      <trkpt lat="28.6407550" lon="-17.9339580">
        <ele>110.7</ele>
        <time>2020-11-17T06:51:58Z</time>
      </trkpt>
      <trkpt lat="28.6407950" lon="-17.9339180">
        <ele>111.2</ele>
        <time>2020-11-17T06:51:59Z</time>
      </trkpt>
      <trkpt lat="28.6408130" lon="-17.9338980">
        <ele>111.5</ele>
        <time>2020-11-17T06:52:00Z</time>
      </trkpt>
      <trkpt lat="28.6408130" lon="-17.9338980">
        <ele>111.5</ele>
        <time>2020-11-17T06:52:01Z</time>
      </trkpt>
      <trkpt lat="28.6408420" lon="-17.9338650">
        <ele>112.0</ele>
        <time>2020-11-17T06:52:02Z</time>
      </trkpt>
      <trkpt lat="28.6408420" lon="-17.9338650">
        <ele>112.0</ele>
        <time>2020-11-17T06:52:03Z</time>
      </trkpt>
      <trkpt lat="28.6408630" lon="-17.9338300">
        <ele>112.5</ele>
        <time>2020-11-17T06:52:04Z</time>
      </trkpt>
      <trkpt lat="28.6408630" lon="-17.9338300">
        <ele>112.5</ele>
        <time>2020-11-17T06:52:05Z</time>
      </trkpt>
      <trkpt lat="28.6408880" lon="-17.9337980">
        <ele>112.9</ele>
        <time>2020-11-17T06:52:06Z</time>
      </trkpt>
      <trkpt lat="28.6408880" lon="-17.9337980">
        <ele>112.9</ele>
        <time>2020-11-17T06:52:07Z</time>
      </trkpt>
      <trkpt lat="28.6409150" lon="-17.9337650">
        <ele>113.4</ele>
        <time>2020-11-17T06:52:08Z</time>
      </trkpt>
      <trkpt lat="28.6409150" lon="-17.9337650">
        <ele>113.4</ele>
        <time>2020-11-17T06:52:09Z</time>
      </trkpt>
      <trkpt lat="28.6409300" lon="-17.9337170">
        <ele>113.9</ele>
        <time>2020-11-17T06:52:10Z</time>
      </trkpt>
      <trkpt lat="28.6409300" lon="-17.9337170">
        <ele>113.9</ele>
        <time>2020-11-17T06:52:11Z</time>
      </trkpt>
      <trkpt lat="28.6409080" lon="-17.9336630">
        <ele>114.5</ele>
        <time>2020-11-17T06:52:12Z</time>
      </trkpt>
      <trkpt lat="28.6409080" lon="-17.9336630">
        <ele>114.5</ele>
        <time>2020-11-17T06:52:13Z</time>
      </trkpt>
      <trkpt lat="28.6408820" lon="-17.9336120">
        <ele>115.0</ele>
        <time>2020-11-17T06:52:14Z</time>
      </trkpt>
      <trkpt lat="28.6408820" lon="-17.9336120">
        <ele>115.0</ele>
        <time>2020-11-17T06:52:15Z</time>
      </trkpt>
      <trkpt lat="28.6408500" lon="-17.9335520">
        <ele>115.7</ele>
        <time>2020-11-17T06:52:16Z</time>
      </trkpt>
      <trkpt lat="28.6408330" lon="-17.9335220">
        <ele>115.8</ele>
        <time>2020-11-17T06:52:17Z</time>
      </trkpt>
      <trkpt lat="28.6408330" lon="-17.9335220">
        <ele>115.8</ele>
        <time>2020-11-17T06:52:18Z</time>
      </trkpt>
      <trkpt lat="28.6408250" lon="-17.9334600">
        <ele>116.0</ele>
        <time>2020-11-17T06:52:19Z</time>
      </trkpt>
      <trkpt lat="28.6408270" lon="-17.9334270">
        <ele>116.1</ele>
        <time>2020-11-17T06:52:20Z</time>
      </trkpt>
      <trkpt lat="28.6408270" lon="-17.9334270">
        <ele>116.1</ele>
        <time>2020-11-17T06:52:21Z</time>
      </trkpt>
      <trkpt lat="28.6408330" lon="-17.9333680">
        <ele>116.8</ele>
        <time>2020-11-17T06:52:22Z</time>
      </trkpt>
      <trkpt lat="28.6408330" lon="-17.9333680">
        <ele>116.8</ele>
        <time>2020-11-17T06:52:23Z</time>
      </trkpt>
      <trkpt lat="28.6408430" lon="-17.9333070">
        <ele>117.0</ele>
        <time>2020-11-17T06:52:24Z</time>
      </trkpt>
      <trkpt lat="28.6408480" lon="-17.9332750">
        <ele>117.2</ele>
        <time>2020-11-17T06:52:25Z</time>
      </trkpt>
      <trkpt lat="28.6408500" lon="-17.9332430">
        <ele>117.3</ele>
        <time>2020-11-17T06:52:26Z</time>
      </trkpt>
      <trkpt lat="28.6408500" lon="-17.9332430">
        <ele>117.3</ele>
        <time>2020-11-17T06:52:27Z</time>
      </trkpt>
      <trkpt lat="28.6408320" lon="-17.9331880">
        <ele>117.6</ele>
        <time>2020-11-17T06:52:28Z</time>
      </trkpt>
      <trkpt lat="28.6408130" lon="-17.9331620">
        <ele>117.8</ele>
        <time>2020-11-17T06:52:29Z</time>
      </trkpt>
      <trkpt lat="28.6408130" lon="-17.9331620">
        <ele>117.8</ele>
        <time>2020-11-17T06:52:30Z</time>
      </trkpt>
      <trkpt lat="28.6407780" lon="-17.9331130">
        <ele>118.0</ele>
        <time>2020-11-17T06:52:31Z</time>
      </trkpt>
      <trkpt lat="28.6407780" lon="-17.9331130">
        <ele>118.0</ele>
        <time>2020-11-17T06:52:32Z</time>
      </trkpt>
      <trkpt lat="28.6407380" lon="-17.9330720">
        <ele>118.1</ele>
        <time>2020-11-17T06:52:33Z</time>
      </trkpt>
      <trkpt lat="28.6407380" lon="-17.9330720">
        <ele>118.1</ele>
        <time>2020-11-17T06:52:34Z</time>
      </trkpt>
      <trkpt lat="28.6407030" lon="-17.9330270">
        <ele>118.3</ele>
        <time>2020-11-17T06:52:35Z</time>
      </trkpt>
      <trkpt lat="28.6406930" lon="-17.9330020">
        <ele>118.4</ele>
        <time>2020-11-17T06:52:36Z</time>
      </trkpt>
      <trkpt lat="28.6406780" lon="-17.9329800">
        <ele>118.6</ele>
        <time>2020-11-17T06:52:37Z</time>
      </trkpt>
      <trkpt lat="28.6406780" lon="-17.9329800">
        <ele>118.6</ele>
        <time>2020-11-17T06:52:38Z</time>
      </trkpt>
      <trkpt lat="28.6406450" lon="-17.9329380">
        <ele>118.8</ele>
        <time>2020-11-17T06:52:39Z</time>
      </trkpt>
      <trkpt lat="28.6406450" lon="-17.9329380">
        <ele>118.8</ele>
        <time>2020-11-17T06:52:40Z</time>
      </trkpt>
      <trkpt lat="28.6406120" lon="-17.9328980">
        <ele>119.1</ele>
        <time>2020-11-17T06:52:41Z</time>
      </trkpt>
      <trkpt lat="28.6405920" lon="-17.9328780">
        <ele>119.2</ele>
        <time>2020-11-17T06:52:42Z</time>
      </trkpt>
      <trkpt lat="28.6405920" lon="-17.9328780">
        <ele>119.2</ele>
        <time>2020-11-17T06:52:43Z</time>
      </trkpt>
      <trkpt lat="28.6405580" lon="-17.9328350">
        <ele>119.5</ele>
        <time>2020-11-17T06:52:44Z</time>
      </trkpt>
      <trkpt lat="28.6405580" lon="-17.9328350">
        <ele>119.5</ele>
        <time>2020-11-17T06:52:45Z</time>
      </trkpt>
      <trkpt lat="28.6405300" lon="-17.9327900">
        <ele>119.8</ele>
        <time>2020-11-17T06:52:46Z</time>
      </trkpt>
      <trkpt lat="28.6405180" lon="-17.9327700">
        <ele>119.9</ele>
        <time>2020-11-17T06:52:47Z</time>
      </trkpt>
      <trkpt lat="28.6405180" lon="-17.9327700">
        <ele>119.9</ele>
        <time>2020-11-17T06:52:48Z</time>
      </trkpt>
      <trkpt lat="28.6404870" lon="-17.9327300">
        <ele>120.2</ele>
        <time>2020-11-17T06:52:49Z</time>
      </trkpt>
      <trkpt lat="28.6404670" lon="-17.9327080">
        <ele>120.4</ele>
        <time>2020-11-17T06:52:50Z</time>
      </trkpt>
      <trkpt lat="28.6404670" lon="-17.9327080">
        <ele>120.4</ele>
        <time>2020-11-17T06:52:51Z</time>
      </trkpt>
      <trkpt lat="28.6404300" lon="-17.9326600">
        <ele>120.7</ele>
        <time>2020-11-17T06:52:52Z</time>
      </trkpt>
      <trkpt lat="28.6404300" lon="-17.9326600">
        <ele>120.7</ele>
        <time>2020-11-17T06:52:53Z</time>
      </trkpt>
      <trkpt lat="28.6404070" lon="-17.9326150">
        <ele>121.0</ele>
        <time>2020-11-17T06:52:54Z</time>
      </trkpt>
      <trkpt lat="28.6404070" lon="-17.9326150">
        <ele>121.0</ele>
        <time>2020-11-17T06:52:55Z</time>
      </trkpt>
      <trkpt lat="28.6403730" lon="-17.9325700">
        <ele>121.4</ele>
        <time>2020-11-17T06:52:56Z</time>
      </trkpt>
      <trkpt lat="28.6403730" lon="-17.9325700">
        <ele>121.4</ele>
        <time>2020-11-17T06:52:57Z</time>
      </trkpt>
      <trkpt lat="28.6403370" lon="-17.9325300">
        <ele>121.7</ele>
        <time>2020-11-17T06:52:58Z</time>
      </trkpt>
      <trkpt lat="28.6403370" lon="-17.9325300">
        <ele>121.7</ele>
        <time>2020-11-17T06:52:59Z</time>
      </trkpt>
      <trkpt lat="28.6403020" lon="-17.9324850">
        <ele>122.0</ele>
        <time>2020-11-17T06:53:00Z</time>
      </trkpt>
      <trkpt lat="28.6403020" lon="-17.9324850">
        <ele>122.0</ele>
        <time>2020-11-17T06:53:01Z</time>
      </trkpt>
      <trkpt lat="28.6402700" lon="-17.9324430">
        <ele>122.3</ele>
        <time>2020-11-17T06:53:02Z</time>
      </trkpt>
      <trkpt lat="28.6402700" lon="-17.9324430">
        <ele>122.3</ele>
        <time>2020-11-17T06:53:03Z</time>
      </trkpt>
      <trkpt lat="28.6402400" lon="-17.9323970">
        <ele>122.6</ele>
        <time>2020-11-17T06:53:04Z</time>
      </trkpt>
      <trkpt lat="28.6402230" lon="-17.9323770">
        <ele>122.7</ele>
        <time>2020-11-17T06:53:05Z</time>
      </trkpt>
      <trkpt lat="28.6401980" lon="-17.9323580">
        <ele>122.9</ele>
        <time>2020-11-17T06:53:06Z</time>
      </trkpt>
      <trkpt lat="28.6401980" lon="-17.9323580">
        <ele>122.9</ele>
        <time>2020-11-17T06:53:07Z</time>
      </trkpt>
      <trkpt lat="28.6401620" lon="-17.9323170">
        <ele>123.3</ele>
        <time>2020-11-17T06:53:08Z</time>
      </trkpt>
      <trkpt lat="28.6401620" lon="-17.9323170">
        <ele>123.3</ele>
        <time>2020-11-17T06:53:09Z</time>
      </trkpt>
      <trkpt lat="28.6401250" lon="-17.9322770">
        <ele>123.6</ele>
        <time>2020-11-17T06:53:10Z</time>
      </trkpt>
      <trkpt lat="28.6401250" lon="-17.9322770">
        <ele>123.6</ele>
        <time>2020-11-17T06:53:11Z</time>
      </trkpt>
      <trkpt lat="28.6400820" lon="-17.9322370">
        <ele>124.0</ele>
        <time>2020-11-17T06:53:12Z</time>
      </trkpt>
      <trkpt lat="28.6400820" lon="-17.9322370">
        <ele>124.0</ele>
        <time>2020-11-17T06:53:13Z</time>
      </trkpt>
      <trkpt lat="28.6400450" lon="-17.9321950">
        <ele>124.4</ele>
        <time>2020-11-17T06:53:14Z</time>
      </trkpt>
      <trkpt lat="28.6400450" lon="-17.9321950">
        <ele>124.4</ele>
        <time>2020-11-17T06:53:15Z</time>
      </trkpt>
      <trkpt lat="28.6400120" lon="-17.9321520">
        <ele>124.7</ele>
        <time>2020-11-17T06:53:16Z</time>
      </trkpt>
      <trkpt lat="28.6399930" lon="-17.9321300">
        <ele>124.9</ele>
        <time>2020-11-17T06:53:17Z</time>
      </trkpt>
      <trkpt lat="28.6399750" lon="-17.9321100">
        <ele>125.1</ele>
        <time>2020-11-17T06:53:18Z</time>
      </trkpt>
      <trkpt lat="28.6399750" lon="-17.9321100">
        <ele>125.1</ele>
        <time>2020-11-17T06:53:19Z</time>
      </trkpt>
      <trkpt lat="28.6399370" lon="-17.9320670">
        <ele>125.5</ele>
        <time>2020-11-17T06:53:20Z</time>
      </trkpt>
      <trkpt lat="28.6399370" lon="-17.9320670">
        <ele>125.5</ele>
        <time>2020-11-17T06:53:21Z</time>
      </trkpt>
      <trkpt lat="28.6399020" lon="-17.9320230">
        <ele>125.8</ele>
        <time>2020-11-17T06:53:22Z</time>
      </trkpt>
      <trkpt lat="28.6399020" lon="-17.9320230">
        <ele>125.8</ele>
        <time>2020-11-17T06:53:23Z</time>
      </trkpt>
      <trkpt lat="28.6398720" lon="-17.9319800">
        <ele>126.2</ele>
        <time>2020-11-17T06:53:24Z</time>
      </trkpt>
      <trkpt lat="28.6398720" lon="-17.9319800">
        <ele>126.2</ele>
        <time>2020-11-17T06:53:25Z</time>
      </trkpt>
      <trkpt lat="28.6398420" lon="-17.9319320">
        <ele>126.5</ele>
        <time>2020-11-17T06:53:26Z</time>
      </trkpt>
      <trkpt lat="28.6398420" lon="-17.9319320">
        <ele>126.5</ele>
        <time>2020-11-17T06:53:27Z</time>
      </trkpt>
      <trkpt lat="28.6398080" lon="-17.9318850">
        <ele>126.9</ele>
        <time>2020-11-17T06:53:28Z</time>
      </trkpt>
      <trkpt lat="28.6398080" lon="-17.9318850">
        <ele>126.9</ele>
        <time>2020-11-17T06:53:29Z</time>
      </trkpt>
      <trkpt lat="28.6397700" lon="-17.9318420">
        <ele>127.3</ele>
        <time>2020-11-17T06:53:30Z</time>
      </trkpt>
      <trkpt lat="28.6397700" lon="-17.9318420">
        <ele>127.3</ele>
        <time>2020-11-17T06:53:31Z</time>
      </trkpt>
      <trkpt lat="28.6397480" lon="-17.9317950">
        <ele>127.7</ele>
        <time>2020-11-17T06:53:32Z</time>
      </trkpt>
      <trkpt lat="28.6397480" lon="-17.9317950">
        <ele>127.7</ele>
        <time>2020-11-17T06:53:33Z</time>
      </trkpt>
      <trkpt lat="28.6397180" lon="-17.9317500">
        <ele>127.9</ele>
        <time>2020-11-17T06:53:34Z</time>
      </trkpt>
      <trkpt lat="28.6397180" lon="-17.9317500">
        <ele>127.9</ele>
        <time>2020-11-17T06:53:35Z</time>
      </trkpt>
      <trkpt lat="28.6396900" lon="-17.9317130">
        <ele>128.1</ele>
        <time>2020-11-17T06:53:36Z</time>
      </trkpt>
      <trkpt lat="28.6396900" lon="-17.9317130">
        <ele>128.1</ele>
        <time>2020-11-17T06:53:37Z</time>
      </trkpt>
      <trkpt lat="28.6396500" lon="-17.9316700">
        <ele>128.2</ele>
        <time>2020-11-17T06:53:38Z</time>
      </trkpt>
      <trkpt lat="28.6396430" lon="-17.9316450">
        <ele>128.4</ele>
        <time>2020-11-17T06:53:39Z</time>
      </trkpt>
      <trkpt lat="28.6396430" lon="-17.9316450">
        <ele>128.4</ele>
        <time>2020-11-17T06:53:40Z</time>
      </trkpt>
      <trkpt lat="28.6395970" lon="-17.9316030">
        <ele>128.7</ele>
        <time>2020-11-17T06:53:41Z</time>
      </trkpt>
      <trkpt lat="28.6395770" lon="-17.9315800">
        <ele>128.9</ele>
        <time>2020-11-17T06:53:42Z</time>
      </trkpt>
      <trkpt lat="28.6395770" lon="-17.9315800">
        <ele>128.9</ele>
        <time>2020-11-17T06:53:43Z</time>
      </trkpt>
      <trkpt lat="28.6395380" lon="-17.9315300">
        <ele>129.3</ele>
        <time>2020-11-17T06:53:44Z</time>
      </trkpt>
      <trkpt lat="28.6395380" lon="-17.9315300">
        <ele>129.3</ele>
        <time>2020-11-17T06:53:45Z</time>
      </trkpt>
      <trkpt lat="28.6395100" lon="-17.9314820">
        <ele>129.6</ele>
        <time>2020-11-17T06:53:46Z</time>
      </trkpt>
      <trkpt lat="28.6395100" lon="-17.9314820">
        <ele>129.6</ele>
        <time>2020-11-17T06:53:47Z</time>
      </trkpt>
      <trkpt lat="28.6394620" lon="-17.9314450">
        <ele>129.9</ele>
        <time>2020-11-17T06:53:48Z</time>
      </trkpt>
      <trkpt lat="28.6394620" lon="-17.9314450">
        <ele>129.9</ele>
        <time>2020-11-17T06:53:49Z</time>
      </trkpt>
      <trkpt lat="28.6394150" lon="-17.9314130">
        <ele>130.3</ele>
        <time>2020-11-17T06:53:50Z</time>
      </trkpt>
      <trkpt lat="28.6393920" lon="-17.9313950">
        <ele>130.4</ele>
        <time>2020-11-17T06:53:51Z</time>
      </trkpt>
      <trkpt lat="28.6393920" lon="-17.9313950">
        <ele>130.4</ele>
        <time>2020-11-17T06:53:52Z</time>
      </trkpt>
      <trkpt lat="28.6393450" lon="-17.9313620">
        <ele>130.7</ele>
        <time>2020-11-17T06:53:53Z</time>
      </trkpt>
      <trkpt lat="28.6393220" lon="-17.9313470">
        <ele>130.9</ele>
        <time>2020-11-17T06:53:54Z</time>
      </trkpt>
      <trkpt lat="28.6392980" lon="-17.9313330">
        <ele>131.0</ele>
        <time>2020-11-17T06:53:55Z</time>
      </trkpt>
      <trkpt lat="28.6392980" lon="-17.9313330">
        <ele>131.0</ele>
        <time>2020-11-17T06:53:56Z</time>
      </trkpt>
      <trkpt lat="28.6392500" lon="-17.9313030">
        <ele>131.4</ele>
        <time>2020-11-17T06:53:57Z</time>
      </trkpt>
      <trkpt lat="28.6392500" lon="-17.9313030">
        <ele>131.4</ele>
        <time>2020-11-17T06:53:58Z</time>
      </trkpt>
      <trkpt lat="28.6392050" lon="-17.9312670">
        <ele>131.7</ele>
        <time>2020-11-17T06:53:59Z</time>
      </trkpt>
      <trkpt lat="28.6391830" lon="-17.9312500">
        <ele>131.8</ele>
        <time>2020-11-17T06:54:00Z</time>
      </trkpt>
      <trkpt lat="28.6391830" lon="-17.9312500">
        <ele>131.8</ele>
        <time>2020-11-17T06:54:01Z</time>
      </trkpt>
      <trkpt lat="28.6391370" lon="-17.9312230">
        <ele>132.1</ele>
        <time>2020-11-17T06:54:02Z</time>
      </trkpt>
      <trkpt lat="28.6391120" lon="-17.9312120">
        <ele>132.3</ele>
        <time>2020-11-17T06:54:03Z</time>
      </trkpt>
      <trkpt lat="28.6391120" lon="-17.9312120">
        <ele>132.3</ele>
        <time>2020-11-17T06:54:04Z</time>
      </trkpt>
      <trkpt lat="28.6390650" lon="-17.9311830">
        <ele>132.6</ele>
        <time>2020-11-17T06:54:05Z</time>
      </trkpt>
      <trkpt lat="28.6390650" lon="-17.9311830">
        <ele>132.6</ele>
        <time>2020-11-17T06:54:06Z</time>
      </trkpt>
      <trkpt lat="28.6390220" lon="-17.9311530">
        <ele>132.9</ele>
        <time>2020-11-17T06:54:07Z</time>
      </trkpt>
      <trkpt lat="28.6390220" lon="-17.9311530">
        <ele>132.9</ele>
        <time>2020-11-17T06:54:08Z</time>
      </trkpt>
      <trkpt lat="28.6389730" lon="-17.9311270">
        <ele>133.1</ele>
        <time>2020-11-17T06:54:09Z</time>
      </trkpt>
      <trkpt lat="28.6389730" lon="-17.9311270">
        <ele>133.1</ele>
        <time>2020-11-17T06:54:10Z</time>
      </trkpt>
      <trkpt lat="28.6389220" lon="-17.9311020">
        <ele>133.4</ele>
        <time>2020-11-17T06:54:11Z</time>
      </trkpt>
      <trkpt lat="28.6389220" lon="-17.9311020">
        <ele>133.4</ele>
        <time>2020-11-17T06:54:12Z</time>
      </trkpt>
      <trkpt lat="28.6388750" lon="-17.9310750">
        <ele>133.7</ele>
        <time>2020-11-17T06:54:13Z</time>
      </trkpt>
      <trkpt lat="28.6388520" lon="-17.9310630">
        <ele>133.9</ele>
        <time>2020-11-17T06:54:14Z</time>
      </trkpt>
      <trkpt lat="28.6388520" lon="-17.9310630">
        <ele>133.9</ele>
        <time>2020-11-17T06:54:15Z</time>
      </trkpt>
      <trkpt lat="28.6388030" lon="-17.9310380">
        <ele>134.1</ele>
        <time>2020-11-17T06:54:16Z</time>
      </trkpt>
      <trkpt lat="28.6388030" lon="-17.9310380">
        <ele>134.1</ele>
        <time>2020-11-17T06:54:17Z</time>
      </trkpt>
      <trkpt lat="28.6387580" lon="-17.9310120">
        <ele>134.4</ele>
        <time>2020-11-17T06:54:18Z</time>
      </trkpt>
      <trkpt lat="28.6387580" lon="-17.9310120">
        <ele>134.4</ele>
        <time>2020-11-17T06:54:19Z</time>
      </trkpt>
      <trkpt lat="28.6387170" lon="-17.9309780">
        <ele>134.7</ele>
        <time>2020-11-17T06:54:20Z</time>
      </trkpt>
      <trkpt lat="28.6387170" lon="-17.9309780">
        <ele>134.7</ele>
        <time>2020-11-17T06:54:21Z</time>
      </trkpt>
      <trkpt lat="28.6386720" lon="-17.9309500">
        <ele>134.9</ele>
        <time>2020-11-17T06:54:22Z</time>
      </trkpt>
      <trkpt lat="28.6386480" lon="-17.9309380">
        <ele>135.0</ele>
        <time>2020-11-17T06:54:23Z</time>
      </trkpt>
      <trkpt lat="28.6386480" lon="-17.9309380">
        <ele>135.0</ele>
        <time>2020-11-17T06:54:24Z</time>
      </trkpt>
      <trkpt lat="28.6386050" lon="-17.9309080">
        <ele>135.2</ele>
        <time>2020-11-17T06:54:25Z</time>
      </trkpt>
      <trkpt lat="28.6386050" lon="-17.9309080">
        <ele>135.2</ele>
        <time>2020-11-17T06:54:26Z</time>
      </trkpt>
      <trkpt lat="28.6385630" lon="-17.9308750">
        <ele>135.4</ele>
        <time>2020-11-17T06:54:27Z</time>
      </trkpt>
      <trkpt lat="28.6385630" lon="-17.9308750">
        <ele>135.4</ele>
        <time>2020-11-17T06:54:28Z</time>
      </trkpt>
      <trkpt lat="28.6385180" lon="-17.9308450">
        <ele>135.6</ele>
        <time>2020-11-17T06:54:29Z</time>
      </trkpt>
      <trkpt lat="28.6384970" lon="-17.9308280">
        <ele>135.7</ele>
        <time>2020-11-17T06:54:30Z</time>
      </trkpt>
      <trkpt lat="28.6384970" lon="-17.9308280">
        <ele>135.7</ele>
        <time>2020-11-17T06:54:31Z</time>
      </trkpt>
      <trkpt lat="28.6384530" lon="-17.9307950">
        <ele>136.0</ele>
        <time>2020-11-17T06:54:32Z</time>
      </trkpt>
      <trkpt lat="28.6384370" lon="-17.9307750">
        <ele>136.2</ele>
        <time>2020-11-17T06:54:33Z</time>
      </trkpt>
      <trkpt lat="28.6384370" lon="-17.9307750">
        <ele>136.2</ele>
        <time>2020-11-17T06:54:34Z</time>
      </trkpt>
      <trkpt lat="28.6384030" lon="-17.9307300">
        <ele>136.6</ele>
        <time>2020-11-17T06:54:35Z</time>
      </trkpt>
      <trkpt lat="28.6384030" lon="-17.9307300">
        <ele>136.6</ele>
        <time>2020-11-17T06:54:36Z</time>
      </trkpt>
      <trkpt lat="28.6383770" lon="-17.9306820">
        <ele>136.9</ele>
        <time>2020-11-17T06:54:37Z</time>
      </trkpt>
      <trkpt lat="28.6383770" lon="-17.9306820">
        <ele>136.9</ele>
        <time>2020-11-17T06:54:38Z</time>
      </trkpt>
      <trkpt lat="28.6383630" lon="-17.9306300">
        <ele>137.3</ele>
        <time>2020-11-17T06:54:39Z</time>
      </trkpt>
      <trkpt lat="28.6383570" lon="-17.9306030">
        <ele>137.5</ele>
        <time>2020-11-17T06:54:40Z</time>
      </trkpt>
      <trkpt lat="28.6383570" lon="-17.9306030">
        <ele>137.5</ele>
        <time>2020-11-17T06:54:41Z</time>
      </trkpt>
      <trkpt lat="28.6383420" lon="-17.9305520">
        <ele>137.9</ele>
        <time>2020-11-17T06:54:42Z</time>
      </trkpt>
      <trkpt lat="28.6383420" lon="-17.9305520">
        <ele>137.9</ele>
        <time>2020-11-17T06:54:43Z</time>
      </trkpt>
      <trkpt lat="28.6383370" lon="-17.9305020">
        <ele>138.3</ele>
        <time>2020-11-17T06:54:44Z</time>
      </trkpt>
      <trkpt lat="28.6383380" lon="-17.9304750">
        <ele>138.5</ele>
        <time>2020-11-17T06:54:45Z</time>
      </trkpt>
      <trkpt lat="28.6383380" lon="-17.9304750">
        <ele>138.5</ele>
        <time>2020-11-17T06:54:46Z</time>
      </trkpt>
      <trkpt lat="28.6383480" lon="-17.9304220">
        <ele>138.9</ele>
        <time>2020-11-17T06:54:47Z</time>
      </trkpt>
      <trkpt lat="28.6383570" lon="-17.9303980">
        <ele>139.1</ele>
        <time>2020-11-17T06:54:48Z</time>
      </trkpt>
      <trkpt lat="28.6383570" lon="-17.9303980">
        <ele>139.1</ele>
        <time>2020-11-17T06:54:49Z</time>
      </trkpt>
      <trkpt lat="28.6383730" lon="-17.9303550">
        <ele>139.4</ele>
        <time>2020-11-17T06:54:50Z</time>
      </trkpt>
      <trkpt lat="28.6383730" lon="-17.9303550">
        <ele>139.4</ele>
        <time>2020-11-17T06:54:51Z</time>
      </trkpt>
      <trkpt lat="28.6383900" lon="-17.9303130">
        <ele>139.7</ele>
        <time>2020-11-17T06:54:52Z</time>
      </trkpt>
      <trkpt lat="28.6383900" lon="-17.9303130">
        <ele>139.7</ele>
        <time>2020-11-17T06:54:53Z</time>
      </trkpt>
      <trkpt lat="28.6384120" lon="-17.9302750">
        <ele>140.1</ele>
        <time>2020-11-17T06:54:54Z</time>
      </trkpt>
      <trkpt lat="28.6384250" lon="-17.9302580">
        <ele>140.2</ele>
        <time>2020-11-17T06:54:55Z</time>
      </trkpt>
      <trkpt lat="28.6384370" lon="-17.9302430">
        <ele>140.4</ele>
        <time>2020-11-17T06:54:56Z</time>
      </trkpt>
      <trkpt lat="28.6384370" lon="-17.9302430">
        <ele>140.4</ele>
        <time>2020-11-17T06:54:57Z</time>
      </trkpt>
      <trkpt lat="28.6384600" lon="-17.9302100">
        <ele>140.7</ele>
        <time>2020-11-17T06:54:58Z</time>
      </trkpt>
      <trkpt lat="28.6384730" lon="-17.9301970">
        <ele>140.9</ele>
        <time>2020-11-17T06:54:59Z</time>
      </trkpt>
      <trkpt lat="28.6384730" lon="-17.9301970">
        <ele>140.9</ele>
        <time>2020-11-17T06:55:00Z</time>
      </trkpt>
      <trkpt lat="28.6385120" lon="-17.9301770">
        <ele>141.2</ele>
        <time>2020-11-17T06:55:01Z</time>
      </trkpt>
      <trkpt lat="28.6385120" lon="-17.9301770">
        <ele>141.2</ele>
        <time>2020-11-17T06:55:02Z</time>
      </trkpt>
      <trkpt lat="28.6385430" lon="-17.9301450">
        <ele>141.6</ele>
        <time>2020-11-17T06:55:03Z</time>
      </trkpt>
      <trkpt lat="28.6385530" lon="-17.9301300">
        <ele>141.7</ele>
        <time>2020-11-17T06:55:04Z</time>
      </trkpt>
      <trkpt lat="28.6385530" lon="-17.9301300">
        <ele>141.7</ele>
        <time>2020-11-17T06:55:05Z</time>
      </trkpt>
      <trkpt lat="28.6385780" lon="-17.9301130">
        <ele>141.9</ele>
        <time>2020-11-17T06:55:06Z</time>
      </trkpt>
      <trkpt lat="28.6385780" lon="-17.9301130">
        <ele>141.9</ele>
        <time>2020-11-17T06:55:07Z</time>
      </trkpt>
      <trkpt lat="28.6386180" lon="-17.9301000">
        <ele>142.3</ele>
        <time>2020-11-17T06:55:08Z</time>
      </trkpt>
      <trkpt lat="28.6386350" lon="-17.9300970">
        <ele>142.4</ele>
        <time>2020-11-17T06:55:09Z</time>
      </trkpt>
      <trkpt lat="28.6386520" lon="-17.9300950">
        <ele>142.5</ele>
        <time>2020-11-17T06:55:10Z</time>
      </trkpt>
      <trkpt lat="28.6386520" lon="-17.9300950">
        <ele>142.5</ele>
        <time>2020-11-17T06:55:11Z</time>
      </trkpt>
      <trkpt lat="28.6386880" lon="-17.9300970">
        <ele>142.7</ele>
        <time>2020-11-17T06:55:12Z</time>
      </trkpt>
      <trkpt lat="28.6386880" lon="-17.9300970">
        <ele>142.7</ele>
        <time>2020-11-17T06:55:13Z</time>
      </trkpt>
      <trkpt lat="28.6387230" lon="-17.9301030">
        <ele>143.0</ele>
        <time>2020-11-17T06:55:14Z</time>
      </trkpt>
      <trkpt lat="28.6387230" lon="-17.9301030">
        <ele>143.0</ele>
        <time>2020-11-17T06:55:15Z</time>
      </trkpt>
      <trkpt lat="28.6387570" lon="-17.9301220">
        <ele>143.2</ele>
        <time>2020-11-17T06:55:16Z</time>
      </trkpt>
      <trkpt lat="28.6387750" lon="-17.9301320">
        <ele>143.3</ele>
        <time>2020-11-17T06:55:17Z</time>
      </trkpt>
      <trkpt lat="28.6387750" lon="-17.9301320">
        <ele>143.3</ele>
        <time>2020-11-17T06:55:18Z</time>
      </trkpt>
      <trkpt lat="28.6388150" lon="-17.9301470">
        <ele>143.6</ele>
        <time>2020-11-17T06:55:19Z</time>
      </trkpt>
      <trkpt lat="28.6388370" lon="-17.9301530">
        <ele>143.7</ele>
        <time>2020-11-17T06:55:20Z</time>
      </trkpt>
      <trkpt lat="28.6388370" lon="-17.9301530">
        <ele>143.7</ele>
        <time>2020-11-17T06:55:21Z</time>
      </trkpt>
      <trkpt lat="28.6388720" lon="-17.9301750">
        <ele>144.0</ele>
        <time>2020-11-17T06:55:22Z</time>
      </trkpt>
      <trkpt lat="28.6388720" lon="-17.9301750">
        <ele>144.0</ele>
        <time>2020-11-17T06:55:23Z</time>
      </trkpt>
      <trkpt lat="28.6389120" lon="-17.9302020">
        <ele>144.2</ele>
        <time>2020-11-17T06:55:24Z</time>
      </trkpt>
      <trkpt lat="28.6389120" lon="-17.9302020">
        <ele>144.2</ele>
        <time>2020-11-17T06:55:25Z</time>
      </trkpt>
      <trkpt lat="28.6389520" lon="-17.9302180">
        <ele>144.4</ele>
        <time>2020-11-17T06:55:26Z</time>
      </trkpt>
      <trkpt lat="28.6389520" lon="-17.9302180">
        <ele>144.4</ele>
        <time>2020-11-17T06:55:27Z</time>
      </trkpt>
      <trkpt lat="28.6389920" lon="-17.9302370">
        <ele>144.7</ele>
        <time>2020-11-17T06:55:28Z</time>
      </trkpt>
      <trkpt lat="28.6389920" lon="-17.9302370">
        <ele>144.7</ele>
        <time>2020-11-17T06:55:29Z</time>
      </trkpt>
      <trkpt lat="28.6390280" lon="-17.9302550">
        <ele>144.9</ele>
        <time>2020-11-17T06:55:30Z</time>
      </trkpt>
      <trkpt lat="28.6390280" lon="-17.9302550">
        <ele>144.9</ele>
        <time>2020-11-17T06:55:31Z</time>
      </trkpt>
      <trkpt lat="28.6390630" lon="-17.9302800">
        <ele>145.1</ele>
        <time>2020-11-17T06:55:32Z</time>
      </trkpt>
      <trkpt lat="28.6390630" lon="-17.9302800">
        <ele>145.1</ele>
        <time>2020-11-17T06:55:33Z</time>
      </trkpt>
      <trkpt lat="28.6391000" lon="-17.9303030">
        <ele>145.3</ele>
        <time>2020-11-17T06:55:34Z</time>
      </trkpt>
      <trkpt lat="28.6391000" lon="-17.9303030">
        <ele>145.3</ele>
        <time>2020-11-17T06:55:35Z</time>
      </trkpt>
      <trkpt lat="28.6391370" lon="-17.9303220">
        <ele>145.5</ele>
        <time>2020-11-17T06:55:36Z</time>
      </trkpt>
      <trkpt lat="28.6391370" lon="-17.9303220">
        <ele>145.5</ele>
        <time>2020-11-17T06:55:37Z</time>
      </trkpt>
      <trkpt lat="28.6391770" lon="-17.9303380">
        <ele>145.7</ele>
        <time>2020-11-17T06:55:38Z</time>
      </trkpt>
      <trkpt lat="28.6391770" lon="-17.9303380">
        <ele>145.7</ele>
        <time>2020-11-17T06:55:39Z</time>
      </trkpt>
      <trkpt lat="28.6392220" lon="-17.9303470">
        <ele>146.0</ele>
        <time>2020-11-17T06:55:40Z</time>
      </trkpt>
      <trkpt lat="28.6392420" lon="-17.9303500">
        <ele>146.1</ele>
        <time>2020-11-17T06:55:41Z</time>
      </trkpt>
      <trkpt lat="28.6392420" lon="-17.9303500">
        <ele>146.1</ele>
        <time>2020-11-17T06:55:42Z</time>
      </trkpt>
      <trkpt lat="28.6392870" lon="-17.9303470">
        <ele>146.3</ele>
        <time>2020-11-17T06:55:43Z</time>
      </trkpt>
      <trkpt lat="28.6393100" lon="-17.9303430">
        <ele>146.5</ele>
        <time>2020-11-17T06:55:44Z</time>
      </trkpt>
      <trkpt lat="28.6393100" lon="-17.9303430">
        <ele>146.5</ele>
        <time>2020-11-17T06:55:45Z</time>
      </trkpt>
      <trkpt lat="28.6393500" lon="-17.9303330">
        <ele>146.7</ele>
        <time>2020-11-17T06:55:46Z</time>
      </trkpt>
      <trkpt lat="28.6393700" lon="-17.9303280">
        <ele>146.9</ele>
        <time>2020-11-17T06:55:47Z</time>
      </trkpt>
      <trkpt lat="28.6393700" lon="-17.9303280">
        <ele>146.9</ele>
        <time>2020-11-17T06:55:48Z</time>
      </trkpt>
      <trkpt lat="28.6394050" lon="-17.9303230">
        <ele>147.1</ele>
        <time>2020-11-17T06:55:49Z</time>
      </trkpt>
      <trkpt lat="28.6394250" lon="-17.9303170">
        <ele>147.2</ele>
        <time>2020-11-17T06:55:50Z</time>
      </trkpt>
      <trkpt lat="28.6394250" lon="-17.9303170">
        <ele>147.2</ele>
        <time>2020-11-17T06:55:51Z</time>
      </trkpt>
      <trkpt lat="28.6394670" lon="-17.9302970">
        <ele>147.5</ele>
        <time>2020-11-17T06:55:52Z</time>
      </trkpt>
      <trkpt lat="28.6394670" lon="-17.9302970">
        <ele>147.5</ele>
        <time>2020-11-17T06:55:53Z</time>
      </trkpt>
      <trkpt lat="28.6395050" lon="-17.9302830">
        <ele>147.8</ele>
        <time>2020-11-17T06:55:54Z</time>
      </trkpt>
      <trkpt lat="28.6395050" lon="-17.9302830">
        <ele>147.8</ele>
        <time>2020-11-17T06:55:55Z</time>
      </trkpt>
      <trkpt lat="28.6395420" lon="-17.9302670">
        <ele>148.0</ele>
        <time>2020-11-17T06:55:56Z</time>
      </trkpt>
      <trkpt lat="28.6395420" lon="-17.9302670">
        <ele>148.0</ele>
        <time>2020-11-17T06:55:57Z</time>
      </trkpt>
      <trkpt lat="28.6395770" lon="-17.9302550">
        <ele>148.2</ele>
        <time>2020-11-17T06:55:58Z</time>
      </trkpt>
      <trkpt lat="28.6395970" lon="-17.9302480">
        <ele>148.4</ele>
        <time>2020-11-17T06:55:59Z</time>
      </trkpt>
      <trkpt lat="28.6395970" lon="-17.9302480">
        <ele>148.4</ele>
        <time>2020-11-17T06:56:00Z</time>
      </trkpt>
      <trkpt lat="28.6396300" lon="-17.9302280">
        <ele>148.6</ele>
        <time>2020-11-17T06:56:01Z</time>
      </trkpt>
      <trkpt lat="28.6396480" lon="-17.9302180">
        <ele>148.7</ele>
        <time>2020-11-17T06:56:02Z</time>
      </trkpt>
      <trkpt lat="28.6396480" lon="-17.9302180">
        <ele>148.7</ele>
        <time>2020-11-17T06:56:03Z</time>
      </trkpt>
      <trkpt lat="28.6396800" lon="-17.9301950">
        <ele>149.0</ele>
        <time>2020-11-17T06:56:04Z</time>
      </trkpt>
      <trkpt lat="28.6396800" lon="-17.9301950">
        <ele>149.0</ele>
        <time>2020-11-17T06:56:05Z</time>
      </trkpt>
      <trkpt lat="28.6397170" lon="-17.9301720">
        <ele>149.3</ele>
        <time>2020-11-17T06:56:06Z</time>
      </trkpt>
      <trkpt lat="28.6397170" lon="-17.9301720">
        <ele>149.3</ele>
        <time>2020-11-17T06:56:07Z</time>
      </trkpt>
      <trkpt lat="28.6397500" lon="-17.9301520">
        <ele>149.5</ele>
        <time>2020-11-17T06:56:08Z</time>
      </trkpt>
      <trkpt lat="28.6397500" lon="-17.9301520">
        <ele>149.5</ele>
        <time>2020-11-17T06:56:09Z</time>
      </trkpt>
      <trkpt lat="28.6397900" lon="-17.9301350">
        <ele>149.8</ele>
        <time>2020-11-17T06:56:10Z</time>
      </trkpt>
      <trkpt lat="28.6397900" lon="-17.9301350">
        <ele>149.8</ele>
        <time>2020-11-17T06:56:11Z</time>
      </trkpt>
      <trkpt lat="28.6398320" lon="-17.9301170">
        <ele>150.0</ele>
        <time>2020-11-17T06:56:12Z</time>
      </trkpt>
      <trkpt lat="28.6398320" lon="-17.9301170">
        <ele>150.0</ele>
        <time>2020-11-17T06:56:13Z</time>
      </trkpt>
      <trkpt lat="28.6398670" lon="-17.9300900">
        <ele>150.3</ele>
        <time>2020-11-17T06:56:14Z</time>
      </trkpt>
      <trkpt lat="28.6398670" lon="-17.9300900">
        <ele>150.3</ele>
        <time>2020-11-17T06:56:15Z</time>
      </trkpt>
      <trkpt lat="28.6398970" lon="-17.9300670">
        <ele>150.5</ele>
        <time>2020-11-17T06:56:16Z</time>
      </trkpt>
      <trkpt lat="28.6398970" lon="-17.9300670">
        <ele>150.5</ele>
        <time>2020-11-17T06:56:17Z</time>
      </trkpt>
      <trkpt lat="28.6399280" lon="-17.9300550">
        <ele>150.4</ele>
        <time>2020-11-17T06:56:18Z</time>
      </trkpt>
      <trkpt lat="28.6399280" lon="-17.9300550">
        <ele>150.4</ele>
        <time>2020-11-17T06:56:19Z</time>
      </trkpt>
      <trkpt lat="28.6399620" lon="-17.9300300">
        <ele>150.2</ele>
        <time>2020-11-17T06:56:20Z</time>
      </trkpt>
      <trkpt lat="28.6399620" lon="-17.9300300">
        <ele>150.2</ele>
        <time>2020-11-17T06:56:21Z</time>
      </trkpt>
      <trkpt lat="28.6399870" lon="-17.9300100">
        <ele>150.1</ele>
        <time>2020-11-17T06:56:22Z</time>
      </trkpt>
      <trkpt lat="28.6399870" lon="-17.9300100">
        <ele>150.1</ele>
        <time>2020-11-17T06:56:23Z</time>
      </trkpt>
      <trkpt lat="28.6400100" lon="-17.9300200">
        <ele>150.0</ele>
        <time>2020-11-17T06:56:24Z</time>
      </trkpt>
      <trkpt lat="28.6400100" lon="-17.9300200">
        <ele>150.0</ele>
        <time>2020-11-17T06:56:25Z</time>
      </trkpt>
      <trkpt lat="28.6400080" lon="-17.9300670">
        <ele>149.8</ele>
        <time>2020-11-17T06:56:26Z</time>
      </trkpt>
      <trkpt lat="28.6400080" lon="-17.9300670">
        <ele>149.8</ele>
        <time>2020-11-17T06:56:27Z</time>
      </trkpt>
      <trkpt lat="28.6399630" lon="-17.9301050">
        <ele>149.6</ele>
        <time>2020-11-17T06:56:28Z</time>
      </trkpt>
      <trkpt lat="28.6399630" lon="-17.9301050">
        <ele>149.6</ele>
        <time>2020-11-17T06:56:29Z</time>
      </trkpt>
      <trkpt lat="28.6399030" lon="-17.9301420">
        <ele>149.3</ele>
        <time>2020-11-17T06:56:30Z</time>
      </trkpt>
      <trkpt lat="28.6399030" lon="-17.9301420">
        <ele>149.3</ele>
        <time>2020-11-17T06:56:31Z</time>
      </trkpt>
      <trkpt lat="28.6398280" lon="-17.9301850">
        <ele>148.9</ele>
        <time>2020-11-17T06:56:32Z</time>
      </trkpt>
      <trkpt lat="28.6398280" lon="-17.9301850">
        <ele>148.9</ele>
        <time>2020-11-17T06:56:33Z</time>
      </trkpt>
      <trkpt lat="28.6397380" lon="-17.9302300">
        <ele>148.5</ele>
        <time>2020-11-17T06:56:34Z</time>
      </trkpt>
      <trkpt lat="28.6397380" lon="-17.9302300">
        <ele>148.5</ele>
        <time>2020-11-17T06:56:35Z</time>
      </trkpt>
      <trkpt lat="28.6396420" lon="-17.9302850">
        <ele>148.1</ele>
        <time>2020-11-17T06:56:36Z</time>
      </trkpt>
      <trkpt lat="28.6396420" lon="-17.9302850">
        <ele>148.1</ele>
        <time>2020-11-17T06:56:37Z</time>
      </trkpt>
      <trkpt lat="28.6395280" lon="-17.9303350">
        <ele>147.6</ele>
        <time>2020-11-17T06:56:38Z</time>
      </trkpt>
      <trkpt lat="28.6395280" lon="-17.9303350">
        <ele>147.6</ele>
        <time>2020-11-17T06:56:39Z</time>
      </trkpt>
      <trkpt lat="28.6394020" lon="-17.9303820">
        <ele>147.0</ele>
        <time>2020-11-17T06:56:40Z</time>
      </trkpt>
      <trkpt lat="28.6394020" lon="-17.9303820">
        <ele>147.0</ele>
        <time>2020-11-17T06:56:41Z</time>
      </trkpt>
      <trkpt lat="28.6392680" lon="-17.9304030">
        <ele>146.2</ele>
        <time>2020-11-17T06:56:42Z</time>
      </trkpt>
      <trkpt lat="28.6392680" lon="-17.9304030">
        <ele>146.2</ele>
        <time>2020-11-17T06:56:43Z</time>
      </trkpt>
      <trkpt lat="28.6391350" lon="-17.9303800">
        <ele>145.5</ele>
        <time>2020-11-17T06:56:44Z</time>
      </trkpt>
      <trkpt lat="28.6391350" lon="-17.9303800">
        <ele>145.5</ele>
        <time>2020-11-17T06:56:45Z</time>
      </trkpt>
      <trkpt lat="28.6390080" lon="-17.9303200">
        <ele>144.9</ele>
        <time>2020-11-17T06:56:46Z</time>
      </trkpt>
      <trkpt lat="28.6390080" lon="-17.9303200">
        <ele>144.9</ele>
        <time>2020-11-17T06:56:47Z</time>
      </trkpt>
      <trkpt lat="28.6388850" lon="-17.9302420">
        <ele>144.2</ele>
        <time>2020-11-17T06:56:48Z</time>
      </trkpt>
      <trkpt lat="28.6388850" lon="-17.9302420">
        <ele>144.2</ele>
        <time>2020-11-17T06:56:49Z</time>
      </trkpt>
      <trkpt lat="28.6387630" lon="-17.9301600">
        <ele>143.4</ele>
        <time>2020-11-17T06:56:50Z</time>
      </trkpt>
      <trkpt lat="28.6387630" lon="-17.9301600">
        <ele>143.4</ele>
        <time>2020-11-17T06:56:51Z</time>
      </trkpt>
      <trkpt lat="28.6386430" lon="-17.9301330">
        <ele>142.6</ele>
        <time>2020-11-17T06:56:52Z</time>
      </trkpt>
      <trkpt lat="28.6386430" lon="-17.9301330">
        <ele>142.6</ele>
        <time>2020-11-17T06:56:53Z</time>
      </trkpt>
      <trkpt lat="28.6385300" lon="-17.9301970">
        <ele>141.6</ele>
        <time>2020-11-17T06:56:54Z</time>
      </trkpt>
      <trkpt lat="28.6384800" lon="-17.9302430">
        <ele>141.0</ele>
        <time>2020-11-17T06:56:55Z</time>
      </trkpt>
      <trkpt lat="28.6384800" lon="-17.9302430">
        <ele>141.0</ele>
        <time>2020-11-17T06:56:56Z</time>
      </trkpt>
      <trkpt lat="28.6384000" lon="-17.9303380">
        <ele>139.9</ele>
        <time>2020-11-17T06:56:57Z</time>
      </trkpt>
      <trkpt lat="28.6383600" lon="-17.9303650">
        <ele>139.5</ele>
        <time>2020-11-17T06:56:58Z</time>
      </trkpt>
      <trkpt lat="28.6383600" lon="-17.9303650">
        <ele>139.5</ele>
        <time>2020-11-17T06:56:59Z</time>
      </trkpt>
      <trkpt lat="28.6382830" lon="-17.9303600">
        <ele>139.5</ele>
        <time>2020-11-17T06:57:00Z</time>
      </trkpt>
      <trkpt lat="28.6382830" lon="-17.9303600">
        <ele>139.5</ele>
        <time>2020-11-17T06:57:01Z</time>
      </trkpt>
      <trkpt lat="28.6382420" lon="-17.9303250">
        <ele>139.5</ele>
        <time>2020-11-17T06:57:02Z</time>
      </trkpt>
      <trkpt lat="28.6382420" lon="-17.9303250">
        <ele>139.5</ele>
        <time>2020-11-17T06:57:03Z</time>
      </trkpt>
      <trkpt lat="28.6382030" lon="-17.9303100">
        <ele>139.5</ele>
        <time>2020-11-17T06:57:04Z</time>
      </trkpt>
      <trkpt lat="28.6382030" lon="-17.9303100">
        <ele>139.5</ele>
        <time>2020-11-17T06:57:05Z</time>
      </trkpt>
      <trkpt lat="28.6381580" lon="-17.9302900">
        <ele>139.6</ele>
        <time>2020-11-17T06:57:06Z</time>
      </trkpt>
      <trkpt lat="28.6381580" lon="-17.9302900">
        <ele>139.6</ele>
        <time>2020-11-17T06:57:07Z</time>
      </trkpt>
      <trkpt lat="28.6381150" lon="-17.9302770">
        <ele>139.6</ele>
        <time>2020-11-17T06:57:08Z</time>
      </trkpt>
      <trkpt lat="28.6380950" lon="-17.9302680">
        <ele>139.7</ele>
        <time>2020-11-17T06:57:09Z</time>
      </trkpt>
      <trkpt lat="28.6380950" lon="-17.9302680">
        <ele>139.7</ele>
        <time>2020-11-17T06:57:10Z</time>
      </trkpt>
      <trkpt lat="28.6380500" lon="-17.9302600">
        <ele>139.8</ele>
        <time>2020-11-17T06:57:11Z</time>
      </trkpt>
      <trkpt lat="28.6380500" lon="-17.9302600">
        <ele>139.8</ele>
        <time>2020-11-17T06:57:12Z</time>
      </trkpt>
      <trkpt lat="28.6380050" lon="-17.9302450">
        <ele>139.9</ele>
        <time>2020-11-17T06:57:13Z</time>
      </trkpt>
      <trkpt lat="28.6380050" lon="-17.9302450">
        <ele>139.9</ele>
        <time>2020-11-17T06:57:14Z</time>
      </trkpt>
      <trkpt lat="28.6379630" lon="-17.9302170">
        <ele>140.0</ele>
        <time>2020-11-17T06:57:15Z</time>
      </trkpt>
      <trkpt lat="28.6379630" lon="-17.9302170">
        <ele>140.0</ele>
        <time>2020-11-17T06:57:16Z</time>
      </trkpt>
      <trkpt lat="28.6379300" lon="-17.9301750">
        <ele>140.0</ele>
        <time>2020-11-17T06:57:17Z</time>
      </trkpt>
      <trkpt lat="28.6379170" lon="-17.9301530">
        <ele>140.0</ele>
        <time>2020-11-17T06:57:18Z</time>
      </trkpt>
      <trkpt lat="28.6379170" lon="-17.9301530">
        <ele>140.0</ele>
        <time>2020-11-17T06:57:19Z</time>
      </trkpt>
      <trkpt lat="28.6378880" lon="-17.9301130">
        <ele>140.0</ele>
        <time>2020-11-17T06:57:20Z</time>
      </trkpt>
      <trkpt lat="28.6378880" lon="-17.9301130">
        <ele>140.0</ele>
        <time>2020-11-17T06:57:21Z</time>
      </trkpt>
      <trkpt lat="28.6378600" lon="-17.9300670">
        <ele>140.0</ele>
        <time>2020-11-17T06:57:22Z</time>
      </trkpt>
      <trkpt lat="28.6378430" lon="-17.9300420">
        <ele>140.0</ele>
        <time>2020-11-17T06:57:23Z</time>
      </trkpt>
      <trkpt lat="28.6378280" lon="-17.9300170">
        <ele>140.1</ele>
        <time>2020-11-17T06:57:24Z</time>
      </trkpt>
      <trkpt lat="28.6378280" lon="-17.9300170">
        <ele>140.1</ele>
        <time>2020-11-17T06:57:25Z</time>
      </trkpt>
      <trkpt lat="28.6377970" lon="-17.9299680">
        <ele>140.1</ele>
        <time>2020-11-17T06:57:26Z</time>
      </trkpt>
      <trkpt lat="28.6377770" lon="-17.9299430">
        <ele>140.0</ele>
        <time>2020-11-17T06:57:27Z</time>
      </trkpt>
      <trkpt lat="28.6377770" lon="-17.9299430">
        <ele>140.0</ele>
        <time>2020-11-17T06:57:28Z</time>
      </trkpt>
      <trkpt lat="28.6377380" lon="-17.9298880">
        <ele>139.9</ele>
        <time>2020-11-17T06:57:29Z</time>
      </trkpt>
      <trkpt lat="28.6377380" lon="-17.9298880">
        <ele>139.9</ele>
        <time>2020-11-17T06:57:30Z</time>
      </trkpt>
      <trkpt lat="28.6377100" lon="-17.9298180">
        <ele>139.6</ele>
        <time>2020-11-17T06:57:31Z</time>
      </trkpt>
      <trkpt lat="28.6376930" lon="-17.9297770">
        <ele>139.3</ele>
        <time>2020-11-17T06:57:32Z</time>
      </trkpt>
      <trkpt lat="28.6376930" lon="-17.9297770">
        <ele>139.3</ele>
        <time>2020-11-17T06:57:33Z</time>
      </trkpt>
      <trkpt lat="28.6376530" lon="-17.9296970">
        <ele>138.7</ele>
        <time>2020-11-17T06:57:34Z</time>
      </trkpt>
      <trkpt lat="28.6376300" lon="-17.9296550">
        <ele>138.3</ele>
        <time>2020-11-17T06:57:35Z</time>
      </trkpt>
      <trkpt lat="28.6376050" lon="-17.9296100">
        <ele>137.9</ele>
        <time>2020-11-17T06:57:36Z</time>
      </trkpt>
      <trkpt lat="28.6376050" lon="-17.9296100">
        <ele>137.9</ele>
        <time>2020-11-17T06:57:37Z</time>
      </trkpt>
      <trkpt lat="28.6375530" lon="-17.9295170">
        <ele>137.0</ele>
        <time>2020-11-17T06:57:38Z</time>
      </trkpt>
      <trkpt lat="28.6375530" lon="-17.9295170">
        <ele>137.0</ele>
        <time>2020-11-17T06:57:39Z</time>
      </trkpt>
      <trkpt lat="28.6375070" lon="-17.9294170">
        <ele>136.1</ele>
        <time>2020-11-17T06:57:40Z</time>
      </trkpt>
      <trkpt lat="28.6375070" lon="-17.9294170">
        <ele>136.1</ele>
        <time>2020-11-17T06:57:41Z</time>
      </trkpt>
      <trkpt lat="28.6374600" lon="-17.9293180">
        <ele>135.3</ele>
        <time>2020-11-17T06:57:42Z</time>
      </trkpt>
      <trkpt lat="28.6374600" lon="-17.9293180">
        <ele>135.3</ele>
        <time>2020-11-17T06:57:43Z</time>
      </trkpt>
      <trkpt lat="28.6374250" lon="-17.9292230">
        <ele>134.6</ele>
        <time>2020-11-17T06:57:44Z</time>
      </trkpt>
      <trkpt lat="28.6374100" lon="-17.9291800">
        <ele>134.3</ele>
        <time>2020-11-17T06:57:45Z</time>
      </trkpt>
      <trkpt lat="28.6374100" lon="-17.9291800">
        <ele>134.3</ele>
        <time>2020-11-17T06:57:46Z</time>
      </trkpt>
      <trkpt lat="28.6373920" lon="-17.9291120">
        <ele>133.8</ele>
        <time>2020-11-17T06:57:47Z</time>
      </trkpt>
      <trkpt lat="28.6373820" lon="-17.9290850">
        <ele>133.7</ele>
        <time>2020-11-17T06:57:48Z</time>
      </trkpt>
      <trkpt lat="28.6373820" lon="-17.9290850">
        <ele>133.7</ele>
        <time>2020-11-17T06:57:49Z</time>
      </trkpt>
      <trkpt lat="28.6373580" lon="-17.9290420">
        <ele>133.3</ele>
        <time>2020-11-17T06:57:50Z</time>
      </trkpt>
      <trkpt lat="28.6373420" lon="-17.9290250">
        <ele>133.0</ele>
        <time>2020-11-17T06:57:51Z</time>
      </trkpt>
      <trkpt lat="28.6373420" lon="-17.9290250">
        <ele>133.0</ele>
        <time>2020-11-17T06:57:52Z</time>
      </trkpt>
      <trkpt lat="28.6373000" lon="-17.9290330">
        <ele>132.8</ele>
        <time>2020-11-17T06:57:53Z</time>
      </trkpt>
      <trkpt lat="28.6372750" lon="-17.9290500">
        <ele>132.7</ele>
        <time>2020-11-17T06:57:54Z</time>
      </trkpt>
      <trkpt lat="28.6372750" lon="-17.9290500">
        <ele>132.7</ele>
        <time>2020-11-17T06:57:55Z</time>
      </trkpt>
      <trkpt lat="28.6372170" lon="-17.9290880">
        <ele>132.5</ele>
        <time>2020-11-17T06:57:56Z</time>
      </trkpt>
      <trkpt lat="28.6371870" lon="-17.9291070">
        <ele>132.4</ele>
        <time>2020-11-17T06:57:57Z</time>
      </trkpt>
      <trkpt lat="28.6371570" lon="-17.9291250">
        <ele>132.3</ele>
        <time>2020-11-17T06:57:58Z</time>
      </trkpt>
      <trkpt lat="28.6371300" lon="-17.9291450">
        <ele>132.2</ele>
        <time>2020-11-17T06:57:59Z</time>
      </trkpt>
      <trkpt lat="28.6371070" lon="-17.9291620">
        <ele>132.1</ele>
        <time>2020-11-17T06:58:00Z</time>
      </trkpt>
      <trkpt lat="28.6371070" lon="-17.9291620">
        <ele>132.1</ele>
        <time>2020-11-17T06:58:01Z</time>
      </trkpt>
      <trkpt lat="28.6370620" lon="-17.9291420">
        <ele>131.9</ele>
        <time>2020-11-17T06:58:02Z</time>
      </trkpt>
      <trkpt lat="28.6370620" lon="-17.9291420">
        <ele>131.9</ele>
        <time>2020-11-17T06:58:03Z</time>
      </trkpt>
      <trkpt lat="28.6370820" lon="-17.9291150">
        <ele>131.8</ele>
        <time>2020-11-17T06:58:04Z</time>
      </trkpt>
      <trkpt lat="28.6371030" lon="-17.9291100">
        <ele>131.8</ele>
        <time>2020-11-17T06:58:05Z</time>
      </trkpt>
      <trkpt lat="28.6371030" lon="-17.9291100">
        <ele>131.8</ele>
        <time>2020-11-17T06:58:06Z</time>
      </trkpt>
      <trkpt lat="28.6371470" lon="-17.9290970">
        <ele>131.6</ele>
        <time>2020-11-17T06:58:07Z</time>
      </trkpt>
      <trkpt lat="28.6371470" lon="-17.9290970">
        <ele>131.6</ele>
        <time>2020-11-17T06:58:08Z</time>
      </trkpt>
      <trkpt lat="28.6371870" lon="-17.9290830">
        <ele>131.5</ele>
        <time>2020-11-17T06:58:09Z</time>
      </trkpt>
      <trkpt lat="28.6371870" lon="-17.9290830">
        <ele>131.5</ele>
        <time>2020-11-17T06:58:10Z</time>
      </trkpt>
      <trkpt lat="28.6372230" lon="-17.9290670">
        <ele>131.8</ele>
        <time>2020-11-17T06:58:11Z</time>
      </trkpt>
      <trkpt lat="28.6372380" lon="-17.9290520">
        <ele>132.0</ele>
        <time>2020-11-17T06:58:12Z</time>
      </trkpt>
      <trkpt lat="28.6372380" lon="-17.9290520">
        <ele>132.0</ele>
        <time>2020-11-17T06:58:13Z</time>
      </trkpt>
      <trkpt lat="28.6372630" lon="-17.9290130">
        <ele>132.3</ele>
        <time>2020-11-17T06:58:14Z</time>
      </trkpt>
      <trkpt lat="28.6372630" lon="-17.9290130">
        <ele>132.3</ele>
        <time>2020-11-17T06:58:15Z</time>
      </trkpt>
      <trkpt lat="28.6372880" lon="-17.9289820">
        <ele>133.0</ele>
        <time>2020-11-17T06:58:16Z</time>
      </trkpt>
      <trkpt lat="28.6372880" lon="-17.9289820">
        <ele>133.0</ele>
        <time>2020-11-17T06:58:17Z</time>
      </trkpt>
      <trkpt lat="28.6373100" lon="-17.9289420">
        <ele>133.0</ele>
        <time>2020-11-17T06:58:18Z</time>
      </trkpt>
      <trkpt lat="28.6373100" lon="-17.9289420">
        <ele>133.0</ele>
        <time>2020-11-17T06:58:19Z</time>
      </trkpt>
      <trkpt lat="28.6373180" lon="-17.9288900">
        <ele>133.0</ele>
        <time>2020-11-17T06:58:20Z</time>
      </trkpt>
      <trkpt lat="28.6373170" lon="-17.9288570">
        <ele>133.0</ele>
        <time>2020-11-17T06:58:21Z</time>
      </trkpt>
      <trkpt lat="28.6373170" lon="-17.9288570">
        <ele>133.0</ele>
        <time>2020-11-17T06:58:22Z</time>
      </trkpt>
      <trkpt lat="28.6373080" lon="-17.9288000">
        <ele>133.1</ele>
        <time>2020-11-17T06:58:23Z</time>
      </trkpt>
      <trkpt lat="28.6373020" lon="-17.9287850">
        <ele>133.1</ele>
        <time>2020-11-17T06:58:24Z</time>
      </trkpt>
      <trkpt lat="28.6373020" lon="-17.9287850">
        <ele>133.1</ele>
        <time>2020-11-17T06:58:25Z</time>
      </trkpt>
      <trkpt lat="28.6373030" lon="-17.9287380">
        <ele>133.2</ele>
        <time>2020-11-17T06:58:26Z</time>
      </trkpt>
      <trkpt lat="28.6373030" lon="-17.9287380">
        <ele>133.2</ele>
        <time>2020-11-17T06:58:27Z</time>
      </trkpt>
      <trkpt lat="28.6373000" lon="-17.9286730">
        <ele>133.4</ele>
        <time>2020-11-17T06:58:28Z</time>
      </trkpt>
      <trkpt lat="28.6373000" lon="-17.9286730">
        <ele>133.4</ele>
        <time>2020-11-17T06:58:29Z</time>
      </trkpt>
      <trkpt lat="28.6373050" lon="-17.9286220">
        <ele>133.5</ele>
        <time>2020-11-17T06:58:30Z</time>
      </trkpt>
      <trkpt lat="28.6373050" lon="-17.9286220">
        <ele>133.5</ele>
        <time>2020-11-17T06:58:31Z</time>
      </trkpt>
      <trkpt lat="28.6373020" lon="-17.9285670">
        <ele>133.7</ele>
        <time>2020-11-17T06:58:32Z</time>
      </trkpt>
      <trkpt lat="28.6373020" lon="-17.9285670">
        <ele>133.7</ele>
        <time>2020-11-17T06:58:33Z</time>
      </trkpt>
      <trkpt lat="28.6372970" lon="-17.9285070">
        <ele>133.9</ele>
        <time>2020-11-17T06:58:34Z</time>
      </trkpt>
      <trkpt lat="28.6372970" lon="-17.9285070">
        <ele>133.9</ele>
        <time>2020-11-17T06:58:35Z</time>
      </trkpt>
      <trkpt lat="28.6372870" lon="-17.9284480">
        <ele>134.1</ele>
        <time>2020-11-17T06:58:36Z</time>
      </trkpt>
      <trkpt lat="28.6372820" lon="-17.9284200">
        <ele>134.2</ele>
        <time>2020-11-17T06:58:37Z</time>
      </trkpt>
      <trkpt lat="28.6372820" lon="-17.9284200">
        <ele>134.2</ele>
        <time>2020-11-17T06:58:38Z</time>
      </trkpt>
      <trkpt lat="28.6372720" lon="-17.9283700">
        <ele>134.4</ele>
        <time>2020-11-17T06:58:39Z</time>
      </trkpt>
      <trkpt lat="28.6372720" lon="-17.9283700">
        <ele>134.4</ele>
        <time>2020-11-17T06:58:40Z</time>
      </trkpt>
      <trkpt lat="28.6372670" lon="-17.9283180">
        <ele>134.6</ele>
        <time>2020-11-17T06:58:41Z</time>
      </trkpt>
      <trkpt lat="28.6372580" lon="-17.9282950">
        <ele>134.8</ele>
        <time>2020-11-17T06:58:42Z</time>
      </trkpt>
      <trkpt lat="28.6372580" lon="-17.9282950">
        <ele>134.8</ele>
        <time>2020-11-17T06:58:43Z</time>
      </trkpt>
      <trkpt lat="28.6372530" lon="-17.9282500">
        <ele>135.0</ele>
        <time>2020-11-17T06:58:44Z</time>
      </trkpt>
      <trkpt lat="28.6372530" lon="-17.9282500">
        <ele>135.0</ele>
        <time>2020-11-17T06:58:45Z</time>
      </trkpt>
      <trkpt lat="28.6372450" lon="-17.9281970">
        <ele>135.3</ele>
        <time>2020-11-17T06:58:46Z</time>
      </trkpt>
      <trkpt lat="28.6372450" lon="-17.9281970">
        <ele>135.3</ele>
        <time>2020-11-17T06:58:47Z</time>
      </trkpt>
      <trkpt lat="28.6372330" lon="-17.9281450">
        <ele>135.6</ele>
        <time>2020-11-17T06:58:48Z</time>
      </trkpt>
      <trkpt lat="28.6372330" lon="-17.9281450">
        <ele>135.6</ele>
        <time>2020-11-17T06:58:49Z</time>
      </trkpt>
      <trkpt lat="28.6372250" lon="-17.9280980">
        <ele>136.0</ele>
        <time>2020-11-17T06:58:50Z</time>
      </trkpt>
      <trkpt lat="28.6372250" lon="-17.9280980">
        <ele>136.0</ele>
        <time>2020-11-17T06:58:51Z</time>
      </trkpt>
      <trkpt lat="28.6372180" lon="-17.9280530">
        <ele>136.3</ele>
        <time>2020-11-17T06:58:52Z</time>
      </trkpt>
      <trkpt lat="28.6372180" lon="-17.9280280">
        <ele>136.5</ele>
        <time>2020-11-17T06:58:53Z</time>
      </trkpt>
      <trkpt lat="28.6372180" lon="-17.9280070">
        <ele>136.7</ele>
        <time>2020-11-17T06:58:54Z</time>
      </trkpt>
      <trkpt lat="28.6372180" lon="-17.9280070">
        <ele>136.7</ele>
        <time>2020-11-17T06:58:55Z</time>
      </trkpt>
      <trkpt lat="28.6371920" lon="-17.9279450">
        <ele>137.3</ele>
        <time>2020-11-17T06:58:56Z</time>
      </trkpt>
      <trkpt lat="28.6371920" lon="-17.9279450">
        <ele>137.3</ele>
        <time>2020-11-17T06:58:57Z</time>
      </trkpt>
      <trkpt lat="28.6371700" lon="-17.9278850">
        <ele>137.9</ele>
        <time>2020-11-17T06:58:58Z</time>
      </trkpt>
      <trkpt lat="28.6371700" lon="-17.9278850">
        <ele>137.9</ele>
        <time>2020-11-17T06:58:59Z</time>
      </trkpt>
      <trkpt lat="28.6371550" lon="-17.9278400">
        <ele>138.4</ele>
        <time>2020-11-17T06:59:00Z</time>
      </trkpt>
      <trkpt lat="28.6371550" lon="-17.9278400">
        <ele>138.4</ele>
        <time>2020-11-17T06:59:01Z</time>
      </trkpt>
      <trkpt lat="28.6371420" lon="-17.9277930">
        <ele>138.9</ele>
        <time>2020-11-17T06:59:02Z</time>
      </trkpt>
      <trkpt lat="28.6371370" lon="-17.9277720">
        <ele>139.1</ele>
        <time>2020-11-17T06:59:03Z</time>
      </trkpt>
      <trkpt lat="28.6371370" lon="-17.9277720">
        <ele>139.1</ele>
        <time>2020-11-17T06:59:04Z</time>
      </trkpt>
      <trkpt lat="28.6371220" lon="-17.9277350">
        <ele>139.5</ele>
        <time>2020-11-17T06:59:05Z</time>
      </trkpt>
      <trkpt lat="28.6371150" lon="-17.9277130">
        <ele>139.7</ele>
        <time>2020-11-17T06:59:06Z</time>
      </trkpt>
      <trkpt lat="28.6371150" lon="-17.9277130">
        <ele>139.7</ele>
        <time>2020-11-17T06:59:07Z</time>
      </trkpt>
      <trkpt lat="28.6371150" lon="-17.9276650">
        <ele>140.2</ele>
        <time>2020-11-17T06:59:08Z</time>
      </trkpt>
      <trkpt lat="28.6371150" lon="-17.9276420">
        <ele>140.4</ele>
        <time>2020-11-17T06:59:09Z</time>
      </trkpt>
      <trkpt lat="28.6371150" lon="-17.9276420">
        <ele>140.4</ele>
        <time>2020-11-17T06:59:10Z</time>
      </trkpt>
      <trkpt lat="28.6371100" lon="-17.9275930">
        <ele>140.9</ele>
        <time>2020-11-17T06:59:11Z</time>
      </trkpt>
      <trkpt lat="28.6371100" lon="-17.9275930">
        <ele>140.9</ele>
        <time>2020-11-17T06:59:12Z</time>
      </trkpt>
      <trkpt lat="28.6371000" lon="-17.9275430">
        <ele>141.4</ele>
        <time>2020-11-17T06:59:13Z</time>
      </trkpt>
      <trkpt lat="28.6370950" lon="-17.9275200">
        <ele>141.6</ele>
        <time>2020-11-17T06:59:14Z</time>
      </trkpt>
      <trkpt lat="28.6370950" lon="-17.9275200">
        <ele>141.6</ele>
        <time>2020-11-17T06:59:15Z</time>
      </trkpt>
      <trkpt lat="28.6370880" lon="-17.9274750">
        <ele>142.1</ele>
        <time>2020-11-17T06:59:16Z</time>
      </trkpt>
      <trkpt lat="28.6370880" lon="-17.9274750">
        <ele>142.1</ele>
        <time>2020-11-17T06:59:17Z</time>
      </trkpt>
      <trkpt lat="28.6370820" lon="-17.9274320">
        <ele>142.5</ele>
        <time>2020-11-17T06:59:18Z</time>
      </trkpt>
      <trkpt lat="28.6370820" lon="-17.9274320">
        <ele>142.5</ele>
        <time>2020-11-17T06:59:19Z</time>
      </trkpt>
      <trkpt lat="28.6370770" lon="-17.9273880">
        <ele>143.0</ele>
        <time>2020-11-17T06:59:20Z</time>
      </trkpt>
      <trkpt lat="28.6370770" lon="-17.9273880">
        <ele>143.0</ele>
        <time>2020-11-17T06:59:21Z</time>
      </trkpt>
      <trkpt lat="28.6370730" lon="-17.9273520">
        <ele>143.3</ele>
        <time>2020-11-17T06:59:22Z</time>
      </trkpt>
      <trkpt lat="28.6370730" lon="-17.9273520">
        <ele>143.3</ele>
        <time>2020-11-17T06:59:23Z</time>
      </trkpt>
      <trkpt lat="28.6370780" lon="-17.9273130">
        <ele>143.8</ele>
        <time>2020-11-17T06:59:24Z</time>
      </trkpt>
      <trkpt lat="28.6370780" lon="-17.9273130">
        <ele>143.8</ele>
        <time>2020-11-17T06:59:25Z</time>
      </trkpt>
      <trkpt lat="28.6370770" lon="-17.9272770">
        <ele>144.2</ele>
        <time>2020-11-17T06:59:26Z</time>
      </trkpt>
      <trkpt lat="28.6370770" lon="-17.9272770">
        <ele>144.2</ele>
        <time>2020-11-17T06:59:27Z</time>
      </trkpt>
      <trkpt lat="28.6370750" lon="-17.9272350">
        <ele>144.6</ele>
        <time>2020-11-17T06:59:28Z</time>
      </trkpt>
      <trkpt lat="28.6370750" lon="-17.9272350">
        <ele>144.6</ele>
        <time>2020-11-17T06:59:29Z</time>
      </trkpt>
      <trkpt lat="28.6370800" lon="-17.9271980">
        <ele>145.0</ele>
        <time>2020-11-17T06:59:30Z</time>
      </trkpt>
      <trkpt lat="28.6370800" lon="-17.9271980">
        <ele>145.0</ele>
        <time>2020-11-17T06:59:31Z</time>
      </trkpt>
      <trkpt lat="28.6370900" lon="-17.9271630">
        <ele>145.5</ele>
        <time>2020-11-17T06:59:32Z</time>
      </trkpt>
      <trkpt lat="28.6370970" lon="-17.9271470">
        <ele>145.7</ele>
        <time>2020-11-17T06:59:33Z</time>
      </trkpt>
      <trkpt lat="28.6371020" lon="-17.9271300">
        <ele>145.9</ele>
        <time>2020-11-17T06:59:34Z</time>
      </trkpt>
      <trkpt lat="28.6371020" lon="-17.9271300">
        <ele>145.9</ele>
        <time>2020-11-17T06:59:35Z</time>
      </trkpt>
      <trkpt lat="28.6371120" lon="-17.9270970">
        <ele>146.3</ele>
        <time>2020-11-17T06:59:36Z</time>
      </trkpt>
      <trkpt lat="28.6371120" lon="-17.9270970">
        <ele>146.3</ele>
        <time>2020-11-17T06:59:37Z</time>
      </trkpt>
      <trkpt lat="28.6371170" lon="-17.9270580">
        <ele>146.8</ele>
        <time>2020-11-17T06:59:38Z</time>
      </trkpt>
      <trkpt lat="28.6371180" lon="-17.9270420">
        <ele>147.0</ele>
        <time>2020-11-17T06:59:39Z</time>
      </trkpt>
      <trkpt lat="28.6371180" lon="-17.9270420">
        <ele>147.0</ele>
        <time>2020-11-17T06:59:40Z</time>
      </trkpt>
      <trkpt lat="28.6371320" lon="-17.9270080">
        <ele>147.6</ele>
        <time>2020-11-17T06:59:41Z</time>
      </trkpt>
      <trkpt lat="28.6371320" lon="-17.9270080">
        <ele>147.6</ele>
        <time>2020-11-17T06:59:42Z</time>
      </trkpt>
      <trkpt lat="28.6371520" lon="-17.9269730">
        <ele>148.2</ele>
        <time>2020-11-17T06:59:43Z</time>
      </trkpt>
      <trkpt lat="28.6371620" lon="-17.9269570">
        <ele>148.5</ele>
        <time>2020-11-17T06:59:44Z</time>
      </trkpt>
      <trkpt lat="28.6371620" lon="-17.9269570">
        <ele>148.5</ele>
        <time>2020-11-17T06:59:45Z</time>
      </trkpt>
      <trkpt lat="28.6371800" lon="-17.9269250">
        <ele>149.1</ele>
        <time>2020-11-17T06:59:46Z</time>
      </trkpt>
      <trkpt lat="28.6371800" lon="-17.9269250">
        <ele>149.1</ele>
        <time>2020-11-17T06:59:47Z</time>
      </trkpt>
      <trkpt lat="28.6371950" lon="-17.9268920">
        <ele>149.5</ele>
        <time>2020-11-17T06:59:48Z</time>
      </trkpt>
      <trkpt lat="28.6371950" lon="-17.9268920">
        <ele>149.5</ele>
        <time>2020-11-17T06:59:49Z</time>
      </trkpt>
      <trkpt lat="28.6372030" lon="-17.9268530">
        <ele>150.0</ele>
        <time>2020-11-17T06:59:50Z</time>
      </trkpt>
      <trkpt lat="28.6372030" lon="-17.9268530">
        <ele>150.0</ele>
        <time>2020-11-17T06:59:51Z</time>
      </trkpt>
      <trkpt lat="28.6372230" lon="-17.9268230">
        <ele>150.5</ele>
        <time>2020-11-17T06:59:52Z</time>
      </trkpt>
      <trkpt lat="28.6372300" lon="-17.9268080">
        <ele>150.7</ele>
        <time>2020-11-17T06:59:53Z</time>
      </trkpt>
      <trkpt lat="28.6372300" lon="-17.9268080">
        <ele>150.7</ele>
        <time>2020-11-17T06:59:54Z</time>
      </trkpt>
      <trkpt lat="28.6372380" lon="-17.9267670">
        <ele>151.2</ele>
        <time>2020-11-17T06:59:55Z</time>
      </trkpt>
      <trkpt lat="28.6372370" lon="-17.9267480">
        <ele>151.4</ele>
        <time>2020-11-17T06:59:56Z</time>
      </trkpt>
      <trkpt lat="28.6372370" lon="-17.9267480">
        <ele>151.4</ele>
        <time>2020-11-17T06:59:57Z</time>
      </trkpt>
      <trkpt lat="28.6372400" lon="-17.9267150">
        <ele>151.9</ele>
        <time>2020-11-17T06:59:58Z</time>
      </trkpt>
      <trkpt lat="28.6372480" lon="-17.9266980">
        <ele>152.2</ele>
        <time>2020-11-17T06:59:59Z</time>
      </trkpt>
      <trkpt lat="28.6372480" lon="-17.9266980">
        <ele>152.2</ele>
        <time>2020-11-17T07:00:00Z</time>
      </trkpt>
      <trkpt lat="28.6372530" lon="-17.9266630">
        <ele>152.8</ele>
        <time>2020-11-17T07:00:01Z</time>
      </trkpt>
      <trkpt lat="28.6372530" lon="-17.9266470">
        <ele>153.1</ele>
        <time>2020-11-17T07:00:02Z</time>
      </trkpt>
      <trkpt lat="28.6372530" lon="-17.9266470">
        <ele>153.1</ele>
        <time>2020-11-17T07:00:03Z</time>
      </trkpt>
      <trkpt lat="28.6372480" lon="-17.9266170">
        <ele>153.6</ele>
        <time>2020-11-17T07:00:04Z</time>
      </trkpt>
      <trkpt lat="28.6372500" lon="-17.9266030">
        <ele>153.8</ele>
        <time>2020-11-17T07:00:05Z</time>
      </trkpt>
      <trkpt lat="28.6372500" lon="-17.9266030">
        <ele>153.8</ele>
        <time>2020-11-17T07:00:06Z</time>
      </trkpt>
      <trkpt lat="28.6372530" lon="-17.9265830">
        <ele>154.1</ele>
        <time>2020-11-17T07:00:07Z</time>
      </trkpt>
      <trkpt lat="28.6372520" lon="-17.9265720">
        <ele>154.3</ele>
        <time>2020-11-17T07:00:08Z</time>
      </trkpt>
      <trkpt lat="28.6372520" lon="-17.9265720">
        <ele>154.3</ele>
        <time>2020-11-17T07:00:09Z</time>
      </trkpt>
      <trkpt lat="28.6372470" lon="-17.9265430">
        <ele>154.7</ele>
        <time>2020-11-17T07:00:10Z</time>
      </trkpt>
      <trkpt lat="28.6372470" lon="-17.9265430">
        <ele>154.7</ele>
        <time>2020-11-17T07:00:11Z</time>
      </trkpt>
      <trkpt lat="28.6372420" lon="-17.9265100">
        <ele>155.3</ele>
        <time>2020-11-17T07:00:12Z</time>
      </trkpt>
      <trkpt lat="28.6372400" lon="-17.9264970">
        <ele>155.5</ele>
        <time>2020-11-17T07:00:13Z</time>
      </trkpt>
      <trkpt lat="28.6372400" lon="-17.9264970">
        <ele>155.5</ele>
        <time>2020-11-17T07:00:14Z</time>
      </trkpt>
      <trkpt lat="28.6372280" lon="-17.9264620">
        <ele>156.1</ele>
        <time>2020-11-17T07:00:15Z</time>
      </trkpt>
      <trkpt lat="28.6372280" lon="-17.9264620">
        <ele>156.1</ele>
        <time>2020-11-17T07:00:16Z</time>
      </trkpt>
      <trkpt lat="28.6372170" lon="-17.9264280">
        <ele>156.6</ele>
        <time>2020-11-17T07:00:17Z</time>
      </trkpt>
      <trkpt lat="28.6372130" lon="-17.9264080">
        <ele>157.0</ele>
        <time>2020-11-17T07:00:18Z</time>
      </trkpt>
      <trkpt lat="28.6372120" lon="-17.9263920">
        <ele>157.2</ele>
        <time>2020-11-17T07:00:19Z</time>
      </trkpt>
      <trkpt lat="28.6372120" lon="-17.9263920">
        <ele>157.2</ele>
        <time>2020-11-17T07:00:20Z</time>
      </trkpt>
      <trkpt lat="28.6372070" lon="-17.9263630">
        <ele>157.7</ele>
        <time>2020-11-17T07:00:21Z</time>
      </trkpt>
      <trkpt lat="28.6372030" lon="-17.9263450">
        <ele>158.0</ele>
        <time>2020-11-17T07:00:22Z</time>
      </trkpt>
      <trkpt lat="28.6372030" lon="-17.9263450">
        <ele>158.0</ele>
        <time>2020-11-17T07:00:23Z</time>
      </trkpt>
      <trkpt lat="28.6371900" lon="-17.9263100">
        <ele>158.7</ele>
        <time>2020-11-17T07:00:24Z</time>
      </trkpt>
      <trkpt lat="28.6371900" lon="-17.9263100">
        <ele>158.7</ele>
        <time>2020-11-17T07:00:25Z</time>
      </trkpt>
      <trkpt lat="28.6371820" lon="-17.9262770">
        <ele>159.2</ele>
        <time>2020-11-17T07:00:26Z</time>
      </trkpt>
      <trkpt lat="28.6371820" lon="-17.9262770">
        <ele>159.2</ele>
        <time>2020-11-17T07:00:27Z</time>
      </trkpt>
      <trkpt lat="28.6371770" lon="-17.9262400">
        <ele>159.9</ele>
        <time>2020-11-17T07:00:28Z</time>
      </trkpt>
      <trkpt lat="28.6371750" lon="-17.9262230">
        <ele>160.1</ele>
        <time>2020-11-17T07:00:29Z</time>
      </trkpt>
      <trkpt lat="28.6371750" lon="-17.9262230">
        <ele>160.1</ele>
        <time>2020-11-17T07:00:30Z</time>
      </trkpt>
      <trkpt lat="28.6371600" lon="-17.9261980">
        <ele>160.6</ele>
        <time>2020-11-17T07:00:31Z</time>
      </trkpt>
      <trkpt lat="28.6371570" lon="-17.9261800">
        <ele>160.9</ele>
        <time>2020-11-17T07:00:32Z</time>
      </trkpt>
      <trkpt lat="28.6371570" lon="-17.9261800">
        <ele>160.9</ele>
        <time>2020-11-17T07:00:33Z</time>
      </trkpt>
      <trkpt lat="28.6371620" lon="-17.9261480">
        <ele>161.4</ele>
        <time>2020-11-17T07:00:34Z</time>
      </trkpt>
      <trkpt lat="28.6371620" lon="-17.9261480">
        <ele>161.4</ele>
        <time>2020-11-17T07:00:35Z</time>
      </trkpt>
      <trkpt lat="28.6371700" lon="-17.9261180">
        <ele>161.9</ele>
        <time>2020-11-17T07:00:36Z</time>
      </trkpt>
      <trkpt lat="28.6371700" lon="-17.9261180">
        <ele>161.9</ele>
        <time>2020-11-17T07:00:37Z</time>
      </trkpt>
      <trkpt lat="28.6371770" lon="-17.9260900">
        <ele>162.3</ele>
        <time>2020-11-17T07:00:38Z</time>
      </trkpt>
      <trkpt lat="28.6371770" lon="-17.9260900">
        <ele>162.3</ele>
        <time>2020-11-17T07:00:39Z</time>
      </trkpt>
      <trkpt lat="28.6371950" lon="-17.9260700">
        <ele>162.7</ele>
        <time>2020-11-17T07:00:40Z</time>
      </trkpt>
      <trkpt lat="28.6371950" lon="-17.9260700">
        <ele>162.7</ele>
        <time>2020-11-17T07:00:41Z</time>
      </trkpt>
      <trkpt lat="28.6372080" lon="-17.9260450">
        <ele>163.2</ele>
        <time>2020-11-17T07:00:42Z</time>
      </trkpt>
      <trkpt lat="28.6372080" lon="-17.9260450">
        <ele>163.2</ele>
        <time>2020-11-17T07:00:43Z</time>
      </trkpt>
      <trkpt lat="28.6372250" lon="-17.9260250">
        <ele>163.6</ele>
        <time>2020-11-17T07:00:44Z</time>
      </trkpt>
      <trkpt lat="28.6372250" lon="-17.9260250">
        <ele>163.6</ele>
        <time>2020-11-17T07:00:45Z</time>
      </trkpt>
      <trkpt lat="28.6372420" lon="-17.9260030">
        <ele>164.0</ele>
        <time>2020-11-17T07:00:46Z</time>
      </trkpt>
      <trkpt lat="28.6372520" lon="-17.9259930">
        <ele>164.2</ele>
        <time>2020-11-17T07:00:47Z</time>
      </trkpt>
      <trkpt lat="28.6372520" lon="-17.9259930">
        <ele>164.2</ele>
        <time>2020-11-17T07:00:48Z</time>
      </trkpt>
      <trkpt lat="28.6372730" lon="-17.9259730">
        <ele>164.6</ele>
        <time>2020-11-17T07:00:49Z</time>
      </trkpt>
      <trkpt lat="28.6372830" lon="-17.9259650">
        <ele>164.8</ele>
        <time>2020-11-17T07:00:50Z</time>
      </trkpt>
      <trkpt lat="28.6372830" lon="-17.9259650">
        <ele>164.8</ele>
        <time>2020-11-17T07:00:51Z</time>
      </trkpt>
      <trkpt lat="28.6373050" lon="-17.9259480">
        <ele>165.3</ele>
        <time>2020-11-17T07:00:52Z</time>
      </trkpt>
      <trkpt lat="28.6373050" lon="-17.9259480">
        <ele>165.3</ele>
        <time>2020-11-17T07:00:53Z</time>
      </trkpt>
      <trkpt lat="28.6373270" lon="-17.9259370">
        <ele>165.7</ele>
        <time>2020-11-17T07:00:54Z</time>
      </trkpt>
      <trkpt lat="28.6373270" lon="-17.9259370">
        <ele>165.7</ele>
        <time>2020-11-17T07:00:55Z</time>
      </trkpt>
      <trkpt lat="28.6373480" lon="-17.9259200">
        <ele>166.1</ele>
        <time>2020-11-17T07:00:56Z</time>
      </trkpt>
      <trkpt lat="28.6373580" lon="-17.9259100">
        <ele>166.3</ele>
        <time>2020-11-17T07:00:57Z</time>
      </trkpt>
      <trkpt lat="28.6373580" lon="-17.9259100">
        <ele>166.3</ele>
        <time>2020-11-17T07:00:58Z</time>
      </trkpt>
      <trkpt lat="28.6373770" lon="-17.9258850">
        <ele>166.8</ele>
        <time>2020-11-17T07:00:59Z</time>
      </trkpt>
      <trkpt lat="28.6373770" lon="-17.9258850">
        <ele>166.8</ele>
        <time>2020-11-17T07:01:00Z</time>
      </trkpt>
      <trkpt lat="28.6373820" lon="-17.9258530">
        <ele>167.3</ele>
        <time>2020-11-17T07:01:01Z</time>
      </trkpt>
      <trkpt lat="28.6373800" lon="-17.9258350">
        <ele>167.6</ele>
        <time>2020-11-17T07:01:02Z</time>
      </trkpt>
      <trkpt lat="28.6373800" lon="-17.9258350">
        <ele>167.6</ele>
        <time>2020-11-17T07:01:03Z</time>
      </trkpt>
      <trkpt lat="28.6373830" lon="-17.9258000">
        <ele>168.2</ele>
        <time>2020-11-17T07:01:04Z</time>
      </trkpt>
      <trkpt lat="28.6373830" lon="-17.9258000">
        <ele>168.2</ele>
        <time>2020-11-17T07:01:05Z</time>
      </trkpt>
      <trkpt lat="28.6373770" lon="-17.9257700">
        <ele>168.7</ele>
        <time>2020-11-17T07:01:06Z</time>
      </trkpt>
      <trkpt lat="28.6373770" lon="-17.9257700">
        <ele>168.7</ele>
        <time>2020-11-17T07:01:07Z</time>
      </trkpt>
      <trkpt lat="28.6373630" lon="-17.9257450">
        <ele>169.3</ele>
        <time>2020-11-17T07:01:08Z</time>
      </trkpt>
      <trkpt lat="28.6373630" lon="-17.9257450">
        <ele>169.3</ele>
        <time>2020-11-17T07:01:09Z</time>
      </trkpt>
      <trkpt lat="28.6373520" lon="-17.9257180">
        <ele>169.8</ele>
        <time>2020-11-17T07:01:10Z</time>
      </trkpt>
      <trkpt lat="28.6373520" lon="-17.9257180">
        <ele>169.8</ele>
        <time>2020-11-17T07:01:11Z</time>
      </trkpt>
      <trkpt lat="28.6373280" lon="-17.9256980">
        <ele>170.4</ele>
        <time>2020-11-17T07:01:12Z</time>
      </trkpt>
      <trkpt lat="28.6373280" lon="-17.9256980">
        <ele>170.4</ele>
        <time>2020-11-17T07:01:13Z</time>
      </trkpt>
      <trkpt lat="28.6373050" lon="-17.9256820">
        <ele>170.9</ele>
        <time>2020-11-17T07:01:14Z</time>
      </trkpt>
      <trkpt lat="28.6373050" lon="-17.9256820">
        <ele>170.9</ele>
        <time>2020-11-17T07:01:15Z</time>
      </trkpt>
      <trkpt lat="28.6372820" lon="-17.9256600">
        <ele>171.5</ele>
        <time>2020-11-17T07:01:16Z</time>
      </trkpt>
      <trkpt lat="28.6372680" lon="-17.9256520">
        <ele>171.8</ele>
        <time>2020-11-17T07:01:17Z</time>
      </trkpt>
      <trkpt lat="28.6372680" lon="-17.9256520">
        <ele>171.8</ele>
        <time>2020-11-17T07:01:18Z</time>
      </trkpt>
      <trkpt lat="28.6372430" lon="-17.9256350">
        <ele>172.4</ele>
        <time>2020-11-17T07:01:19Z</time>
      </trkpt>
      <trkpt lat="28.6372320" lon="-17.9256220">
        <ele>172.7</ele>
        <time>2020-11-17T07:01:20Z</time>
      </trkpt>
      <trkpt lat="28.6372320" lon="-17.9256220">
        <ele>172.7</ele>
        <time>2020-11-17T07:01:21Z</time>
      </trkpt>
      <trkpt lat="28.6372080" lon="-17.9255970">
        <ele>173.4</ele>
        <time>2020-11-17T07:01:22Z</time>
      </trkpt>
      <trkpt lat="28.6372080" lon="-17.9255970">
        <ele>173.4</ele>
        <time>2020-11-17T07:01:23Z</time>
      </trkpt>
      <trkpt lat="28.6371850" lon="-17.9255670">
        <ele>174.1</ele>
        <time>2020-11-17T07:01:24Z</time>
      </trkpt>
      <trkpt lat="28.6371850" lon="-17.9255670">
        <ele>174.1</ele>
        <time>2020-11-17T07:01:25Z</time>
      </trkpt>
      <trkpt lat="28.6371670" lon="-17.9255350">
        <ele>174.8</ele>
        <time>2020-11-17T07:01:26Z</time>
      </trkpt>
      <trkpt lat="28.6371670" lon="-17.9255350">
        <ele>174.8</ele>
        <time>2020-11-17T07:01:27Z</time>
      </trkpt>
      <trkpt lat="28.6371580" lon="-17.9255020">
        <ele>175.4</ele>
        <time>2020-11-17T07:01:28Z</time>
      </trkpt>
      <trkpt lat="28.6371630" lon="-17.9254850">
        <ele>175.7</ele>
        <time>2020-11-17T07:01:29Z</time>
      </trkpt>
      <trkpt lat="28.6371630" lon="-17.9254850">
        <ele>175.7</ele>
        <time>2020-11-17T07:01:30Z</time>
      </trkpt>
      <trkpt lat="28.6371780" lon="-17.9254550">
        <ele>176.3</ele>
        <time>2020-11-17T07:01:31Z</time>
      </trkpt>
      <trkpt lat="28.6371780" lon="-17.9254550">
        <ele>176.3</ele>
        <time>2020-11-17T07:01:32Z</time>
      </trkpt>
      <trkpt lat="28.6371980" lon="-17.9254320">
        <ele>176.9</ele>
        <time>2020-11-17T07:01:33Z</time>
      </trkpt>
      <trkpt lat="28.6371980" lon="-17.9254320">
        <ele>176.9</ele>
        <time>2020-11-17T07:01:34Z</time>
      </trkpt>
      <trkpt lat="28.6372230" lon="-17.9254100">
        <ele>177.5</ele>
        <time>2020-11-17T07:01:35Z</time>
      </trkpt>
      <trkpt lat="28.6372230" lon="-17.9254100">
        <ele>177.5</ele>
        <time>2020-11-17T07:01:36Z</time>
      </trkpt>
      <trkpt lat="28.6372430" lon="-17.9254020">
        <ele>177.9</ele>
        <time>2020-11-17T07:01:37Z</time>
      </trkpt>
      <trkpt lat="28.6372580" lon="-17.9253920">
        <ele>178.2</ele>
        <time>2020-11-17T07:01:38Z</time>
      </trkpt>
      <trkpt lat="28.6372580" lon="-17.9253920">
        <ele>178.2</ele>
        <time>2020-11-17T07:01:39Z</time>
      </trkpt>
      <trkpt lat="28.6372830" lon="-17.9253700">
        <ele>178.8</ele>
        <time>2020-11-17T07:01:40Z</time>
      </trkpt>
      <trkpt lat="28.6372830" lon="-17.9253700">
        <ele>178.8</ele>
        <time>2020-11-17T07:01:41Z</time>
      </trkpt>
      <trkpt lat="28.6373080" lon="-17.9253470">
        <ele>179.3</ele>
        <time>2020-11-17T07:01:42Z</time>
      </trkpt>
      <trkpt lat="28.6373080" lon="-17.9253470">
        <ele>179.3</ele>
        <time>2020-11-17T07:01:43Z</time>
      </trkpt>
      <trkpt lat="28.6373280" lon="-17.9253270">
        <ele>179.8</ele>
        <time>2020-11-17T07:01:44Z</time>
      </trkpt>
      <trkpt lat="28.6373280" lon="-17.9253270">
        <ele>179.8</ele>
        <time>2020-11-17T07:01:45Z</time>
      </trkpt>
      <trkpt lat="28.6373470" lon="-17.9253120">
        <ele>180.2</ele>
        <time>2020-11-17T07:01:46Z</time>
      </trkpt>
      <trkpt lat="28.6373580" lon="-17.9253030">
        <ele>180.4</ele>
        <time>2020-11-17T07:01:47Z</time>
      </trkpt>
      <trkpt lat="28.6373720" lon="-17.9253000">
        <ele>180.7</ele>
        <time>2020-11-17T07:01:48Z</time>
      </trkpt>
      <trkpt lat="28.6373850" lon="-17.9252920">
        <ele>180.9</ele>
        <time>2020-11-17T07:01:49Z</time>
      </trkpt>
      <trkpt lat="28.6373850" lon="-17.9252920">
        <ele>180.9</ele>
        <time>2020-11-17T07:01:50Z</time>
      </trkpt>
      <trkpt lat="28.6374180" lon="-17.9252820">
        <ele>181.5</ele>
        <time>2020-11-17T07:01:51Z</time>
      </trkpt>
      <trkpt lat="28.6374180" lon="-17.9252820">
        <ele>181.5</ele>
        <time>2020-11-17T07:01:52Z</time>
      </trkpt>
      <trkpt lat="28.6374530" lon="-17.9252650">
        <ele>182.2</ele>
        <time>2020-11-17T07:01:53Z</time>
      </trkpt>
      <trkpt lat="28.6374530" lon="-17.9252650">
        <ele>182.2</ele>
        <time>2020-11-17T07:01:54Z</time>
      </trkpt>
      <trkpt lat="28.6374830" lon="-17.9252500">
        <ele>182.9</ele>
        <time>2020-11-17T07:01:55Z</time>
      </trkpt>
      <trkpt lat="28.6374980" lon="-17.9252470">
        <ele>183.2</ele>
        <time>2020-11-17T07:01:56Z</time>
      </trkpt>
      <trkpt lat="28.6374980" lon="-17.9252470">
        <ele>183.2</ele>
        <time>2020-11-17T07:01:57Z</time>
      </trkpt>
      <trkpt lat="28.6375180" lon="-17.9252350">
        <ele>183.6</ele>
        <time>2020-11-17T07:01:58Z</time>
      </trkpt>
      <trkpt lat="28.6375180" lon="-17.9252350">
        <ele>183.6</ele>
        <time>2020-11-17T07:01:59Z</time>
      </trkpt>
      <trkpt lat="28.6375350" lon="-17.9252070">
        <ele>184.2</ele>
        <time>2020-11-17T07:02:00Z</time>
      </trkpt>
      <trkpt lat="28.6375350" lon="-17.9252070">
        <ele>184.2</ele>
        <time>2020-11-17T07:02:01Z</time>
      </trkpt>
      <trkpt lat="28.6375580" lon="-17.9251820">
        <ele>184.9</ele>
        <time>2020-11-17T07:02:02Z</time>
      </trkpt>
      <trkpt lat="28.6375620" lon="-17.9251670">
        <ele>185.1</ele>
        <time>2020-11-17T07:02:03Z</time>
      </trkpt>
      <trkpt lat="28.6375620" lon="-17.9251670">
        <ele>185.1</ele>
        <time>2020-11-17T07:02:04Z</time>
      </trkpt>
      <trkpt lat="28.6375620" lon="-17.9251380">
        <ele>185.7</ele>
        <time>2020-11-17T07:02:05Z</time>
      </trkpt>
      <trkpt lat="28.6375620" lon="-17.9251380">
        <ele>185.7</ele>
        <time>2020-11-17T07:02:06Z</time>
      </trkpt>
      <trkpt lat="28.6375520" lon="-17.9251130">
        <ele>186.2</ele>
        <time>2020-11-17T07:02:07Z</time>
      </trkpt>
      <trkpt lat="28.6375520" lon="-17.9251130">
        <ele>186.2</ele>
        <time>2020-11-17T07:02:08Z</time>
      </trkpt>
      <trkpt lat="28.6375230" lon="-17.9251120">
        <ele>186.8</ele>
        <time>2020-11-17T07:02:09Z</time>
      </trkpt>
      <trkpt lat="28.6375070" lon="-17.9251020">
        <ele>187.2</ele>
        <time>2020-11-17T07:02:10Z</time>
      </trkpt>
      <trkpt lat="28.6374900" lon="-17.9250920">
        <ele>187.6</ele>
        <time>2020-11-17T07:02:11Z</time>
      </trkpt>
      <trkpt lat="28.6374780" lon="-17.9250830">
        <ele>187.9</ele>
        <time>2020-11-17T07:02:12Z</time>
      </trkpt>
      <trkpt lat="28.6374780" lon="-17.9250830">
        <ele>187.9</ele>
        <time>2020-11-17T07:02:13Z</time>
      </trkpt>
      <trkpt lat="28.6374550" lon="-17.9250680">
        <ele>188.5</ele>
        <time>2020-11-17T07:02:14Z</time>
      </trkpt>
      <trkpt lat="28.6374550" lon="-17.9250680">
        <ele>188.5</ele>
        <time>2020-11-17T07:02:15Z</time>
      </trkpt>
      <trkpt lat="28.6374280" lon="-17.9250420">
        <ele>189.3</ele>
        <time>2020-11-17T07:02:16Z</time>
      </trkpt>
      <trkpt lat="28.6374150" lon="-17.9250280">
        <ele>189.7</ele>
        <time>2020-11-17T07:02:17Z</time>
      </trkpt>
      <trkpt lat="28.6374150" lon="-17.9250280">
        <ele>189.7</ele>
        <time>2020-11-17T07:02:18Z</time>
      </trkpt>
      <trkpt lat="28.6373870" lon="-17.9250170">
        <ele>190.3</ele>
        <time>2020-11-17T07:02:19Z</time>
      </trkpt>
      <trkpt lat="28.6373870" lon="-17.9250170">
        <ele>190.3</ele>
        <time>2020-11-17T07:02:20Z</time>
      </trkpt>
      <trkpt lat="28.6373620" lon="-17.9250020">
        <ele>190.8</ele>
        <time>2020-11-17T07:02:21Z</time>
      </trkpt>
      <trkpt lat="28.6373620" lon="-17.9250020">
        <ele>190.8</ele>
        <time>2020-11-17T07:02:22Z</time>
      </trkpt>
      <trkpt lat="28.6373400" lon="-17.9249830">
        <ele>191.4</ele>
        <time>2020-11-17T07:02:23Z</time>
      </trkpt>
      <trkpt lat="28.6373400" lon="-17.9249830">
        <ele>191.4</ele>
        <time>2020-11-17T07:02:24Z</time>
      </trkpt>
      <trkpt lat="28.6373220" lon="-17.9249600">
        <ele>191.9</ele>
        <time>2020-11-17T07:02:25Z</time>
      </trkpt>
      <trkpt lat="28.6373220" lon="-17.9249600">
        <ele>191.9</ele>
        <time>2020-11-17T07:02:26Z</time>
      </trkpt>
      <trkpt lat="28.6373030" lon="-17.9249350">
        <ele>192.4</ele>
        <time>2020-11-17T07:02:27Z</time>
      </trkpt>
      <trkpt lat="28.6372950" lon="-17.9249200">
        <ele>192.7</ele>
        <time>2020-11-17T07:02:28Z</time>
      </trkpt>
      <trkpt lat="28.6372950" lon="-17.9249200">
        <ele>192.7</ele>
        <time>2020-11-17T07:02:29Z</time>
      </trkpt>
      <trkpt lat="28.6372800" lon="-17.9248900">
        <ele>193.2</ele>
        <time>2020-11-17T07:02:30Z</time>
      </trkpt>
      <trkpt lat="28.6372800" lon="-17.9248900">
        <ele>193.2</ele>
        <time>2020-11-17T07:02:31Z</time>
      </trkpt>
      <trkpt lat="28.6372750" lon="-17.9248530">
        <ele>193.8</ele>
        <time>2020-11-17T07:02:32Z</time>
      </trkpt>
      <trkpt lat="28.6372750" lon="-17.9248530">
        <ele>193.8</ele>
        <time>2020-11-17T07:02:33Z</time>
      </trkpt>
      <trkpt lat="28.6372700" lon="-17.9248180">
        <ele>194.3</ele>
        <time>2020-11-17T07:02:34Z</time>
      </trkpt>
      <trkpt lat="28.6372700" lon="-17.9248180">
        <ele>194.3</ele>
        <time>2020-11-17T07:02:35Z</time>
      </trkpt>
      <trkpt lat="28.6372750" lon="-17.9247830">
        <ele>194.8</ele>
        <time>2020-11-17T07:02:36Z</time>
      </trkpt>
      <trkpt lat="28.6372750" lon="-17.9247830">
        <ele>194.8</ele>
        <time>2020-11-17T07:02:37Z</time>
      </trkpt>
      <trkpt lat="28.6372800" lon="-17.9247480">
        <ele>195.4</ele>
        <time>2020-11-17T07:02:38Z</time>
      </trkpt>
      <trkpt lat="28.6372830" lon="-17.9247280">
        <ele>195.7</ele>
        <time>2020-11-17T07:02:39Z</time>
      </trkpt>
      <trkpt lat="28.6372830" lon="-17.9247280">
        <ele>195.7</ele>
        <time>2020-11-17T07:02:40Z</time>
      </trkpt>
      <trkpt lat="28.6372770" lon="-17.9247030">
        <ele>196.1</ele>
        <time>2020-11-17T07:02:41Z</time>
      </trkpt>
      <trkpt lat="28.6372770" lon="-17.9246920">
        <ele>196.3</ele>
        <time>2020-11-17T07:02:42Z</time>
      </trkpt>
      <trkpt lat="28.6372770" lon="-17.9246920">
        <ele>196.3</ele>
        <time>2020-11-17T07:02:43Z</time>
      </trkpt>
      <trkpt lat="28.6372880" lon="-17.9246630">
        <ele>196.8</ele>
        <time>2020-11-17T07:02:44Z</time>
      </trkpt>
      <trkpt lat="28.6372880" lon="-17.9246630">
        <ele>196.8</ele>
        <time>2020-11-17T07:02:45Z</time>
      </trkpt>
      <trkpt lat="28.6372920" lon="-17.9246300">
        <ele>197.3</ele>
        <time>2020-11-17T07:02:46Z</time>
      </trkpt>
      <trkpt lat="28.6372920" lon="-17.9246300">
        <ele>197.3</ele>
        <time>2020-11-17T07:02:47Z</time>
      </trkpt>
      <trkpt lat="28.6373050" lon="-17.9246050">
        <ele>197.7</ele>
        <time>2020-11-17T07:02:48Z</time>
      </trkpt>
      <trkpt lat="28.6373050" lon="-17.9246050">
        <ele>197.7</ele>
        <time>2020-11-17T07:02:49Z</time>
      </trkpt>
      <trkpt lat="28.6373150" lon="-17.9245750">
        <ele>198.2</ele>
        <time>2020-11-17T07:02:50Z</time>
      </trkpt>
      <trkpt lat="28.6373150" lon="-17.9245600">
        <ele>198.5</ele>
        <time>2020-11-17T07:02:51Z</time>
      </trkpt>
      <trkpt lat="28.6373150" lon="-17.9245600">
        <ele>198.5</ele>
        <time>2020-11-17T07:02:52Z</time>
      </trkpt>
      <trkpt lat="28.6373080" lon="-17.9245280">
        <ele>199.0</ele>
        <time>2020-11-17T07:02:53Z</time>
      </trkpt>
      <trkpt lat="28.6373070" lon="-17.9245130">
        <ele>199.2</ele>
        <time>2020-11-17T07:02:54Z</time>
      </trkpt>
      <trkpt lat="28.6373070" lon="-17.9245130">
        <ele>199.2</ele>
        <time>2020-11-17T07:02:55Z</time>
      </trkpt>
      <trkpt lat="28.6373100" lon="-17.9244820">
        <ele>199.7</ele>
        <time>2020-11-17T07:02:56Z</time>
      </trkpt>
      <trkpt lat="28.6373080" lon="-17.9244670">
        <ele>200.0</ele>
        <time>2020-11-17T07:02:57Z</time>
      </trkpt>
      <trkpt lat="28.6373080" lon="-17.9244670">
        <ele>200.0</ele>
        <time>2020-11-17T07:02:58Z</time>
      </trkpt>
      <trkpt lat="28.6373170" lon="-17.9244320">
        <ele>200.5</ele>
        <time>2020-11-17T07:02:59Z</time>
      </trkpt>
      <trkpt lat="28.6373200" lon="-17.9244120">
        <ele>200.8</ele>
        <time>2020-11-17T07:03:00Z</time>
      </trkpt>
      <trkpt lat="28.6373250" lon="-17.9243950">
        <ele>201.1</ele>
        <time>2020-11-17T07:03:01Z</time>
      </trkpt>
      <trkpt lat="28.6373250" lon="-17.9243950">
        <ele>201.1</ele>
        <time>2020-11-17T07:03:02Z</time>
      </trkpt>
      <trkpt lat="28.6373320" lon="-17.9243630">
        <ele>201.6</ele>
        <time>2020-11-17T07:03:03Z</time>
      </trkpt>
      <trkpt lat="28.6373370" lon="-17.9243480">
        <ele>201.8</ele>
        <time>2020-11-17T07:03:04Z</time>
      </trkpt>
      <trkpt lat="28.6373370" lon="-17.9243480">
        <ele>201.8</ele>
        <time>2020-11-17T07:03:05Z</time>
      </trkpt>
      <trkpt lat="28.6373480" lon="-17.9243150">
        <ele>202.3</ele>
        <time>2020-11-17T07:03:06Z</time>
      </trkpt>
      <trkpt lat="28.6373480" lon="-17.9243150">
        <ele>202.3</ele>
        <time>2020-11-17T07:03:07Z</time>
      </trkpt>
      <trkpt lat="28.6373530" lon="-17.9242780">
        <ele>202.9</ele>
        <time>2020-11-17T07:03:08Z</time>
      </trkpt>
      <trkpt lat="28.6373570" lon="-17.9242600">
        <ele>203.1</ele>
        <time>2020-11-17T07:03:09Z</time>
      </trkpt>
      <trkpt lat="28.6373570" lon="-17.9242600">
        <ele>203.1</ele>
        <time>2020-11-17T07:03:10Z</time>
      </trkpt>
      <trkpt lat="28.6373670" lon="-17.9242270">
        <ele>203.5</ele>
        <time>2020-11-17T07:03:11Z</time>
      </trkpt>
      <trkpt lat="28.6373670" lon="-17.9242270">
        <ele>203.5</ele>
        <time>2020-11-17T07:03:12Z</time>
      </trkpt>
      <trkpt lat="28.6373700" lon="-17.9241920">
        <ele>203.5</ele>
        <time>2020-11-17T07:03:13Z</time>
      </trkpt>
      <trkpt lat="28.6373720" lon="-17.9241750">
        <ele>203.5</ele>
        <time>2020-11-17T07:03:14Z</time>
      </trkpt>
      <trkpt lat="28.6373720" lon="-17.9241750">
        <ele>203.5</ele>
        <time>2020-11-17T07:03:15Z</time>
      </trkpt>
      <trkpt lat="28.6373750" lon="-17.9241420">
        <ele>203.9</ele>
        <time>2020-11-17T07:03:16Z</time>
      </trkpt>
      <trkpt lat="28.6373780" lon="-17.9241250">
        <ele>204.1</ele>
        <time>2020-11-17T07:03:17Z</time>
      </trkpt>
      <trkpt lat="28.6373780" lon="-17.9241250">
        <ele>204.1</ele>
        <time>2020-11-17T07:03:18Z</time>
      </trkpt>
      <trkpt lat="28.6373870" lon="-17.9240950">
        <ele>204.6</ele>
        <time>2020-11-17T07:03:19Z</time>
      </trkpt>
      <trkpt lat="28.6373870" lon="-17.9240950">
        <ele>204.6</ele>
        <time>2020-11-17T07:03:20Z</time>
      </trkpt>
      <trkpt lat="28.6373920" lon="-17.9240600">
        <ele>205.1</ele>
        <time>2020-11-17T07:03:21Z</time>
      </trkpt>
      <trkpt lat="28.6373920" lon="-17.9240600">
        <ele>205.1</ele>
        <time>2020-11-17T07:03:22Z</time>
      </trkpt>
      <trkpt lat="28.6373930" lon="-17.9240270">
        <ele>205.6</ele>
        <time>2020-11-17T07:03:23Z</time>
      </trkpt>
      <trkpt lat="28.6373950" lon="-17.9240120">
        <ele>205.9</ele>
        <time>2020-11-17T07:03:24Z</time>
      </trkpt>
      <trkpt lat="28.6373950" lon="-17.9240120">
        <ele>205.9</ele>
        <time>2020-11-17T07:03:25Z</time>
      </trkpt>
      <trkpt lat="28.6373980" lon="-17.9239820">
        <ele>206.4</ele>
        <time>2020-11-17T07:03:26Z</time>
      </trkpt>
      <trkpt lat="28.6373980" lon="-17.9239820">
        <ele>206.4</ele>
        <time>2020-11-17T07:03:27Z</time>
      </trkpt>
      <trkpt lat="28.6374070" lon="-17.9239500">
        <ele>206.9</ele>
        <time>2020-11-17T07:03:28Z</time>
      </trkpt>
      <trkpt lat="28.6374070" lon="-17.9239500">
        <ele>206.9</ele>
        <time>2020-11-17T07:03:29Z</time>
      </trkpt>
      <trkpt lat="28.6374130" lon="-17.9239150">
        <ele>207.5</ele>
        <time>2020-11-17T07:03:30Z</time>
      </trkpt>
      <trkpt lat="28.6374130" lon="-17.9239150">
        <ele>207.5</ele>
        <time>2020-11-17T07:03:31Z</time>
      </trkpt>
      <trkpt lat="28.6374170" lon="-17.9238800">
        <ele>208.1</ele>
        <time>2020-11-17T07:03:32Z</time>
      </trkpt>
      <trkpt lat="28.6374180" lon="-17.9238580">
        <ele>208.5</ele>
        <time>2020-11-17T07:03:33Z</time>
      </trkpt>
      <trkpt lat="28.6374180" lon="-17.9238580">
        <ele>208.5</ele>
        <time>2020-11-17T07:03:34Z</time>
      </trkpt>
      <trkpt lat="28.6374220" lon="-17.9238250">
        <ele>209.0</ele>
        <time>2020-11-17T07:03:35Z</time>
      </trkpt>
      <trkpt lat="28.6374180" lon="-17.9238070">
        <ele>209.4</ele>
        <time>2020-11-17T07:03:36Z</time>
      </trkpt>
      <trkpt lat="28.6374180" lon="-17.9238070">
        <ele>209.4</ele>
        <time>2020-11-17T07:03:37Z</time>
      </trkpt>
      <trkpt lat="28.6374070" lon="-17.9237680">
        <ele>210.0</ele>
        <time>2020-11-17T07:03:38Z</time>
      </trkpt>
      <trkpt lat="28.6374000" lon="-17.9237500">
        <ele>210.4</ele>
        <time>2020-11-17T07:03:39Z</time>
      </trkpt>
      <trkpt lat="28.6374000" lon="-17.9237500">
        <ele>210.4</ele>
        <time>2020-11-17T07:03:40Z</time>
      </trkpt>
      <trkpt lat="28.6373830" lon="-17.9237050">
        <ele>211.2</ele>
        <time>2020-11-17T07:03:41Z</time>
      </trkpt>
      <trkpt lat="28.6373830" lon="-17.9237050">
        <ele>211.2</ele>
        <time>2020-11-17T07:03:42Z</time>
      </trkpt>
      <trkpt lat="28.6373670" lon="-17.9236680">
        <ele>211.8</ele>
        <time>2020-11-17T07:03:43Z</time>
      </trkpt>
      <trkpt lat="28.6373670" lon="-17.9236680">
        <ele>211.8</ele>
        <time>2020-11-17T07:03:44Z</time>
      </trkpt>
      <trkpt lat="28.6373520" lon="-17.9236400">
        <ele>212.4</ele>
        <time>2020-11-17T07:03:45Z</time>
      </trkpt>
      <trkpt lat="28.6373520" lon="-17.9236400">
        <ele>212.4</ele>
        <time>2020-11-17T07:03:46Z</time>
      </trkpt>
      <trkpt lat="28.6373330" lon="-17.9236150">
        <ele>212.9</ele>
        <time>2020-11-17T07:03:47Z</time>
      </trkpt>
      <trkpt lat="28.6373270" lon="-17.9236030">
        <ele>213.1</ele>
        <time>2020-11-17T07:03:48Z</time>
      </trkpt>
      <trkpt lat="28.6373270" lon="-17.9236030">
        <ele>213.1</ele>
        <time>2020-11-17T07:03:49Z</time>
      </trkpt>
      <trkpt lat="28.6373080" lon="-17.9235830">
        <ele>213.5</ele>
        <time>2020-11-17T07:03:50Z</time>
      </trkpt>
      <trkpt lat="28.6373080" lon="-17.9235830">
        <ele>213.5</ele>
        <time>2020-11-17T07:03:51Z</time>
      </trkpt>
      <trkpt lat="28.6372930" lon="-17.9235520">
        <ele>213.9</ele>
        <time>2020-11-17T07:03:52Z</time>
      </trkpt>
      <trkpt lat="28.6372930" lon="-17.9235520">
        <ele>213.9</ele>
        <time>2020-11-17T07:03:53Z</time>
      </trkpt>
      <trkpt lat="28.6372730" lon="-17.9235220">
        <ele>214.0</ele>
        <time>2020-11-17T07:03:54Z</time>
      </trkpt>
      <trkpt lat="28.6372730" lon="-17.9235220">
        <ele>214.0</ele>
        <time>2020-11-17T07:03:55Z</time>
      </trkpt>
      <trkpt lat="28.6372450" lon="-17.9234950">
        <ele>214.2</ele>
        <time>2020-11-17T07:03:56Z</time>
      </trkpt>
      <trkpt lat="28.6372320" lon="-17.9234800">
        <ele>214.3</ele>
        <time>2020-11-17T07:03:57Z</time>
      </trkpt>
      <trkpt lat="28.6372320" lon="-17.9234800">
        <ele>214.3</ele>
        <time>2020-11-17T07:03:58Z</time>
      </trkpt>
      <trkpt lat="28.6372000" lon="-17.9234550">
        <ele>214.4</ele>
        <time>2020-11-17T07:03:59Z</time>
      </trkpt>
      <trkpt lat="28.6372000" lon="-17.9234550">
        <ele>214.4</ele>
        <time>2020-11-17T07:04:00Z</time>
      </trkpt>
      <trkpt lat="28.6371720" lon="-17.9234270">
        <ele>214.6</ele>
        <time>2020-11-17T07:04:01Z</time>
      </trkpt>
      <trkpt lat="28.6371620" lon="-17.9234100">
        <ele>214.6</ele>
        <time>2020-11-17T07:04:02Z</time>
      </trkpt>
      <trkpt lat="28.6371620" lon="-17.9234100">
        <ele>214.6</ele>
        <time>2020-11-17T07:04:03Z</time>
      </trkpt>
      <trkpt lat="28.6371380" lon="-17.9233770">
        <ele>214.8</ele>
        <time>2020-11-17T07:04:04Z</time>
      </trkpt>
      <trkpt lat="28.6371380" lon="-17.9233770">
        <ele>214.8</ele>
        <time>2020-11-17T07:04:05Z</time>
      </trkpt>
      <trkpt lat="28.6371080" lon="-17.9233450">
        <ele>215.0</ele>
        <time>2020-11-17T07:04:06Z</time>
      </trkpt>
      <trkpt lat="28.6371080" lon="-17.9233450">
        <ele>215.0</ele>
        <time>2020-11-17T07:04:07Z</time>
      </trkpt>
      <trkpt lat="28.6370770" lon="-17.9233150">
        <ele>215.2</ele>
        <time>2020-11-17T07:04:08Z</time>
      </trkpt>
      <trkpt lat="28.6370770" lon="-17.9233150">
        <ele>215.2</ele>
        <time>2020-11-17T07:04:09Z</time>
      </trkpt>
      <trkpt lat="28.6370450" lon="-17.9232880">
        <ele>215.4</ele>
        <time>2020-11-17T07:04:10Z</time>
      </trkpt>
      <trkpt lat="28.6370450" lon="-17.9232880">
        <ele>215.4</ele>
        <time>2020-11-17T07:04:11Z</time>
      </trkpt>
      <trkpt lat="28.6370030" lon="-17.9232530">
        <ele>215.7</ele>
        <time>2020-11-17T07:04:12Z</time>
      </trkpt>
      <trkpt lat="28.6369830" lon="-17.9232330">
        <ele>215.8</ele>
        <time>2020-11-17T07:04:13Z</time>
      </trkpt>
      <trkpt lat="28.6369830" lon="-17.9232330">
        <ele>215.8</ele>
        <time>2020-11-17T07:04:14Z</time>
      </trkpt>
      <trkpt lat="28.6369550" lon="-17.9232080">
        <ele>216.0</ele>
        <time>2020-11-17T07:04:15Z</time>
      </trkpt>
      <trkpt lat="28.6369550" lon="-17.9232080">
        <ele>216.0</ele>
        <time>2020-11-17T07:04:16Z</time>
      </trkpt>
      <trkpt lat="28.6369200" lon="-17.9231800">
        <ele>216.3</ele>
        <time>2020-11-17T07:04:17Z</time>
      </trkpt>
      <trkpt lat="28.6369200" lon="-17.9231800">
        <ele>216.3</ele>
        <time>2020-11-17T07:04:18Z</time>
      </trkpt>
      <trkpt lat="28.6368920" lon="-17.9231420">
        <ele>216.6</ele>
        <time>2020-11-17T07:04:19Z</time>
      </trkpt>
      <trkpt lat="28.6368800" lon="-17.9231220">
        <ele>216.7</ele>
        <time>2020-11-17T07:04:20Z</time>
      </trkpt>
      <trkpt lat="28.6368800" lon="-17.9231220">
        <ele>216.7</ele>
        <time>2020-11-17T07:04:21Z</time>
      </trkpt>
      <trkpt lat="28.6368530" lon="-17.9230870">
        <ele>216.9</ele>
        <time>2020-11-17T07:04:22Z</time>
      </trkpt>
      <trkpt lat="28.6368530" lon="-17.9230870">
        <ele>216.9</ele>
        <time>2020-11-17T07:04:23Z</time>
      </trkpt>
      <trkpt lat="28.6368270" lon="-17.9230530">
        <ele>217.2</ele>
        <time>2020-11-17T07:04:24Z</time>
      </trkpt>
      <trkpt lat="28.6368270" lon="-17.9230530">
        <ele>217.2</ele>
        <time>2020-11-17T07:04:25Z</time>
      </trkpt>
      <trkpt lat="28.6368000" lon="-17.9230230">
        <ele>217.5</ele>
        <time>2020-11-17T07:04:26Z</time>
      </trkpt>
      <trkpt lat="28.6367830" lon="-17.9230100">
        <ele>217.6</ele>
        <time>2020-11-17T07:04:27Z</time>
      </trkpt>
      <trkpt lat="28.6367830" lon="-17.9230100">
        <ele>217.6</ele>
        <time>2020-11-17T07:04:28Z</time>
      </trkpt>
      <trkpt lat="28.6367520" lon="-17.9229850">
        <ele>217.9</ele>
        <time>2020-11-17T07:04:29Z</time>
      </trkpt>
      <trkpt lat="28.6367520" lon="-17.9229850">
        <ele>217.9</ele>
        <time>2020-11-17T07:04:30Z</time>
      </trkpt>
      <trkpt lat="28.6367220" lon="-17.9229580">
        <ele>218.1</ele>
        <time>2020-11-17T07:04:31Z</time>
      </trkpt>
      <trkpt lat="28.6367220" lon="-17.9229580">
        <ele>218.1</ele>
        <time>2020-11-17T07:04:32Z</time>
      </trkpt>
      <trkpt lat="28.6366930" lon="-17.9229300">
        <ele>218.4</ele>
        <time>2020-11-17T07:04:33Z</time>
      </trkpt>
      <trkpt lat="28.6366930" lon="-17.9229300">
        <ele>218.4</ele>
        <time>2020-11-17T07:04:34Z</time>
      </trkpt>
      <trkpt lat="28.6366630" lon="-17.9229020">
        <ele>218.7</ele>
        <time>2020-11-17T07:04:35Z</time>
      </trkpt>
      <trkpt lat="28.6366480" lon="-17.9228880">
        <ele>218.8</ele>
        <time>2020-11-17T07:04:36Z</time>
      </trkpt>
      <trkpt lat="28.6366480" lon="-17.9228880">
        <ele>218.8</ele>
        <time>2020-11-17T07:04:37Z</time>
      </trkpt>
      <trkpt lat="28.6366200" lon="-17.9228600">
        <ele>219.1</ele>
        <time>2020-11-17T07:04:38Z</time>
      </trkpt>
      <trkpt lat="28.6366200" lon="-17.9228600">
        <ele>219.1</ele>
        <time>2020-11-17T07:04:39Z</time>
      </trkpt>
      <trkpt lat="28.6365920" lon="-17.9228300">
        <ele>219.4</ele>
        <time>2020-11-17T07:04:40Z</time>
      </trkpt>
      <trkpt lat="28.6365920" lon="-17.9228300">
        <ele>219.4</ele>
        <time>2020-11-17T07:04:41Z</time>
      </trkpt>
      <trkpt lat="28.6365600" lon="-17.9228030">
        <ele>219.6</ele>
        <time>2020-11-17T07:04:42Z</time>
      </trkpt>
      <trkpt lat="28.6365600" lon="-17.9228030">
        <ele>219.6</ele>
        <time>2020-11-17T07:04:43Z</time>
      </trkpt>
      <trkpt lat="28.6365320" lon="-17.9227700">
        <ele>219.9</ele>
        <time>2020-11-17T07:04:44Z</time>
      </trkpt>
      <trkpt lat="28.6365320" lon="-17.9227700">
        <ele>219.9</ele>
        <time>2020-11-17T07:04:45Z</time>
      </trkpt>
      <trkpt lat="28.6364970" lon="-17.9227230">
        <ele>220.3</ele>
        <time>2020-11-17T07:04:46Z</time>
      </trkpt>
      <trkpt lat="28.6364970" lon="-17.9227230">
        <ele>220.3</ele>
        <time>2020-11-17T07:04:47Z</time>
      </trkpt>
      <trkpt lat="28.6364800" lon="-17.9226800">
        <ele>220.5</ele>
        <time>2020-11-17T07:04:48Z</time>
      </trkpt>
      <trkpt lat="28.6364800" lon="-17.9226800">
        <ele>220.5</ele>
        <time>2020-11-17T07:04:49Z</time>
      </trkpt>
      <trkpt lat="28.6364800" lon="-17.9226400">
        <ele>220.7</ele>
        <time>2020-11-17T07:04:50Z</time>
      </trkpt>
      <trkpt lat="28.6364800" lon="-17.9226400">
        <ele>220.7</ele>
        <time>2020-11-17T07:04:51Z</time>
      </trkpt>
      <trkpt lat="28.6364730" lon="-17.9226020">
        <ele>221.0</ele>
        <time>2020-11-17T07:04:52Z</time>
      </trkpt>
      <trkpt lat="28.6364730" lon="-17.9226020">
        <ele>221.0</ele>
        <time>2020-11-17T07:04:53Z</time>
      </trkpt>
      <trkpt lat="28.6364620" lon="-17.9225600">
        <ele>221.3</ele>
        <time>2020-11-17T07:04:54Z</time>
      </trkpt>
      <trkpt lat="28.6364620" lon="-17.9225600">
        <ele>221.3</ele>
        <time>2020-11-17T07:04:55Z</time>
      </trkpt>
      <trkpt lat="28.6364470" lon="-17.9225230">
        <ele>221.6</ele>
        <time>2020-11-17T07:04:56Z</time>
      </trkpt>
      <trkpt lat="28.6364350" lon="-17.9225050">
        <ele>221.8</ele>
        <time>2020-11-17T07:04:57Z</time>
      </trkpt>
      <trkpt lat="28.6364350" lon="-17.9225050">
        <ele>221.8</ele>
        <time>2020-11-17T07:04:58Z</time>
      </trkpt>
      <trkpt lat="28.6364200" lon="-17.9224730">
        <ele>221.7</ele>
        <time>2020-11-17T07:04:59Z</time>
      </trkpt>
      <trkpt lat="28.6364200" lon="-17.9224670">
        <ele>221.7</ele>
        <time>2020-11-17T07:05:00Z</time>
      </trkpt>
      <trkpt lat="28.6364200" lon="-17.9224670">
        <ele>221.7</ele>
        <time>2020-11-17T07:05:01Z</time>
      </trkpt>
      <trkpt lat="28.6364250" lon="-17.9224670">
        <ele>221.6</ele>
        <time>2020-11-17T07:05:02Z</time>
      </trkpt>
      <trkpt lat="28.6364250" lon="-17.9224670">
        <ele>221.6</ele>
        <time>2020-11-17T07:05:03Z</time>
      </trkpt>
      <trkpt lat="28.6364270" lon="-17.9224680">
        <ele>221.6</ele>
        <time>2020-11-17T07:05:04Z</time>
      </trkpt>
      <trkpt lat="28.6364270" lon="-17.9224680">
        <ele>221.6</ele>
        <time>2020-11-17T07:05:30Z</time>
      </trkpt>
      <trkpt lat="28.6364750" lon="-17.9224720">
        <ele>221.4</ele>
        <time>2020-11-17T07:05:31Z</time>
      </trkpt>
      <trkpt lat="28.6364750" lon="-17.9224720">
        <ele>221.4</ele>
        <time>2020-11-17T07:05:32Z</time>
      </trkpt>
      <trkpt lat="28.6365030" lon="-17.9225020">
        <ele>221.3</ele>
        <time>2020-11-17T07:05:33Z</time>
      </trkpt>
      <trkpt lat="28.6365030" lon="-17.9225020">
        <ele>221.3</ele>
        <time>2020-11-17T07:05:34Z</time>
      </trkpt>
      <trkpt lat="28.6365180" lon="-17.9225570">
        <ele>221.0</ele>
        <time>2020-11-17T07:05:35Z</time>
      </trkpt>
      <trkpt lat="28.6365180" lon="-17.9225570">
        <ele>221.0</ele>
        <time>2020-11-17T07:05:36Z</time>
      </trkpt>
      <trkpt lat="28.6365300" lon="-17.9226220">
        <ele>220.8</ele>
        <time>2020-11-17T07:05:37Z</time>
      </trkpt>
      <trkpt lat="28.6365300" lon="-17.9226220">
        <ele>220.8</ele>
        <time>2020-11-17T07:05:38Z</time>
      </trkpt>
      <trkpt lat="28.6365570" lon="-17.9226970">
        <ele>220.1</ele>
        <time>2020-11-17T07:05:39Z</time>
      </trkpt>
      <trkpt lat="28.6365570" lon="-17.9226970">
        <ele>220.1</ele>
        <time>2020-11-17T07:05:40Z</time>
      </trkpt>
      <trkpt lat="28.6365830" lon="-17.9227750">
        <ele>219.6</ele>
        <time>2020-11-17T07:05:41Z</time>
      </trkpt>
      <trkpt lat="28.6366020" lon="-17.9228130">
        <ele>219.4</ele>
        <time>2020-11-17T07:05:42Z</time>
      </trkpt>
      <trkpt lat="28.6366020" lon="-17.9228130">
        <ele>219.4</ele>
        <time>2020-11-17T07:05:43Z</time>
      </trkpt>
      <trkpt lat="28.6366600" lon="-17.9228900">
        <ele>218.7</ele>
        <time>2020-11-17T07:05:44Z</time>
      </trkpt>
      <trkpt lat="28.6366950" lon="-17.9229300">
        <ele>218.4</ele>
        <time>2020-11-17T07:05:45Z</time>
      </trkpt>
      <trkpt lat="28.6366950" lon="-17.9229300">
        <ele>218.4</ele>
        <time>2020-11-17T07:05:46Z</time>
      </trkpt>
      <trkpt lat="28.6367770" lon="-17.9230100">
        <ele>217.6</ele>
        <time>2020-11-17T07:05:47Z</time>
      </trkpt>
      <trkpt lat="28.6368200" lon="-17.9230500">
        <ele>217.2</ele>
        <time>2020-11-17T07:05:48Z</time>
      </trkpt>
      <trkpt lat="28.6368200" lon="-17.9230500">
        <ele>217.2</ele>
        <time>2020-11-17T07:05:49Z</time>
      </trkpt>
      <trkpt lat="28.6369070" lon="-17.9231280">
        <ele>216.5</ele>
        <time>2020-11-17T07:05:50Z</time>
      </trkpt>
      <trkpt lat="28.6369070" lon="-17.9231280">
        <ele>216.5</ele>
        <time>2020-11-17T07:05:51Z</time>
      </trkpt>
      <trkpt lat="28.6369850" lon="-17.9232080">
        <ele>215.9</ele>
        <time>2020-11-17T07:05:52Z</time>
      </trkpt>
      <trkpt lat="28.6369850" lon="-17.9232080">
        <ele>215.9</ele>
        <time>2020-11-17T07:05:53Z</time>
      </trkpt>
      <trkpt lat="28.6370570" lon="-17.9232900">
        <ele>215.4</ele>
        <time>2020-11-17T07:05:54Z</time>
      </trkpt>
      <trkpt lat="28.6370570" lon="-17.9232900">
        <ele>215.4</ele>
        <time>2020-11-17T07:05:55Z</time>
      </trkpt>
      <trkpt lat="28.6371230" lon="-17.9233700">
        <ele>214.9</ele>
        <time>2020-11-17T07:05:56Z</time>
      </trkpt>
      <trkpt lat="28.6371230" lon="-17.9233700">
        <ele>214.9</ele>
        <time>2020-11-17T07:05:57Z</time>
      </trkpt>
      <trkpt lat="28.6371870" lon="-17.9234320">
        <ele>214.5</ele>
        <time>2020-11-17T07:05:58Z</time>
      </trkpt>
      <trkpt lat="28.6371870" lon="-17.9234320">
        <ele>214.5</ele>
        <time>2020-11-17T07:05:59Z</time>
      </trkpt>
      <trkpt lat="28.6372400" lon="-17.9234830">
        <ele>214.2</ele>
        <time>2020-11-17T07:06:00Z</time>
      </trkpt>
      <trkpt lat="28.6372400" lon="-17.9234830">
        <ele>214.2</ele>
        <time>2020-11-17T07:06:01Z</time>
      </trkpt>
      <trkpt lat="28.6372800" lon="-17.9235270">
        <ele>214.0</ele>
        <time>2020-11-17T07:06:02Z</time>
      </trkpt>
      <trkpt lat="28.6372800" lon="-17.9235270">
        <ele>214.0</ele>
        <time>2020-11-17T07:06:03Z</time>
      </trkpt>
      <trkpt lat="28.6373250" lon="-17.9235530">
        <ele>213.8</ele>
        <time>2020-11-17T07:06:04Z</time>
      </trkpt>
      <trkpt lat="28.6373250" lon="-17.9235530">
        <ele>214.4</ele>
        <time>2020-11-17T07:06:05Z</time>
      </trkpt>
      <trkpt lat="28.6373530" lon="-17.9235600">
        <ele>215.1</ele>
        <time>2020-11-17T07:06:06Z</time>
      </trkpt>
      <trkpt lat="28.6373570" lon="-17.9235580">
        <ele>215.2</ele>
        <time>2020-11-17T07:06:07Z</time>
      </trkpt>
      <trkpt lat="28.6373550" lon="-17.9235570">
        <ele>215.2</ele>
        <time>2020-11-17T07:06:08Z</time>
      </trkpt>
      <trkpt lat="28.6373550" lon="-17.9235570">
        <ele>215.2</ele>
        <time>2020-11-17T07:06:27Z</time>
      </trkpt>
      <trkpt lat="28.6373670" lon="-17.9235180">
        <ele>216.0</ele>
        <time>2020-11-17T07:06:28Z</time>
      </trkpt>
      <trkpt lat="28.6373700" lon="-17.9235020">
        <ele>216.3</ele>
        <time>2020-11-17T07:06:29Z</time>
      </trkpt>
      <trkpt lat="28.6373700" lon="-17.9235020">
        <ele>216.3</ele>
        <time>2020-11-17T07:06:30Z</time>
      </trkpt>
      <trkpt lat="28.6373920" lon="-17.9234580">
        <ele>217.2</ele>
        <time>2020-11-17T07:06:31Z</time>
      </trkpt>
      <trkpt lat="28.6374030" lon="-17.9234420">
        <ele>217.5</ele>
        <time>2020-11-17T07:06:32Z</time>
      </trkpt>
      <trkpt lat="28.6374030" lon="-17.9234420">
        <ele>217.5</ele>
        <time>2020-11-17T07:06:33Z</time>
      </trkpt>
      <trkpt lat="28.6374220" lon="-17.9234000">
        <ele>218.1</ele>
        <time>2020-11-17T07:06:34Z</time>
      </trkpt>
      <trkpt lat="28.6374270" lon="-17.9233800">
        <ele>218.4</ele>
        <time>2020-11-17T07:06:35Z</time>
      </trkpt>
      <trkpt lat="28.6374270" lon="-17.9233800">
        <ele>218.4</ele>
        <time>2020-11-17T07:06:36Z</time>
      </trkpt>
      <trkpt lat="28.6374470" lon="-17.9233430">
        <ele>218.9</ele>
        <time>2020-11-17T07:06:37Z</time>
      </trkpt>
      <trkpt lat="28.6374470" lon="-17.9233430">
        <ele>218.9</ele>
        <time>2020-11-17T07:06:38Z</time>
      </trkpt>
      <trkpt lat="28.6374720" lon="-17.9233050">
        <ele>219.5</ele>
        <time>2020-11-17T07:06:39Z</time>
      </trkpt>
      <trkpt lat="28.6374720" lon="-17.9233050">
        <ele>219.5</ele>
        <time>2020-11-17T07:06:40Z</time>
      </trkpt>
      <trkpt lat="28.6374930" lon="-17.9232650">
        <ele>220.1</ele>
        <time>2020-11-17T07:06:41Z</time>
      </trkpt>
      <trkpt lat="28.6375020" lon="-17.9232470">
        <ele>220.3</ele>
        <time>2020-11-17T07:06:42Z</time>
      </trkpt>
      <trkpt lat="28.6375020" lon="-17.9232470">
        <ele>220.3</ele>
        <time>2020-11-17T07:06:43Z</time>
      </trkpt>
      <trkpt lat="28.6375250" lon="-17.9232100">
        <ele>221.0</ele>
        <time>2020-11-17T07:06:44Z</time>
      </trkpt>
      <trkpt lat="28.6375350" lon="-17.9231930">
        <ele>221.2</ele>
        <time>2020-11-17T07:06:45Z</time>
      </trkpt>
      <trkpt lat="28.6375450" lon="-17.9231780">
        <ele>221.5</ele>
        <time>2020-11-17T07:06:46Z</time>
      </trkpt>
      <trkpt lat="28.6375450" lon="-17.9231780">
        <ele>221.5</ele>
        <time>2020-11-17T07:06:47Z</time>
      </trkpt>
      <trkpt lat="28.6375670" lon="-17.9231480">
        <ele>222.0</ele>
        <time>2020-11-17T07:06:48Z</time>
      </trkpt>
      <trkpt lat="28.6375670" lon="-17.9231480">
        <ele>222.0</ele>
        <time>2020-11-17T07:06:49Z</time>
      </trkpt>
      <trkpt lat="28.6376000" lon="-17.9231330">
        <ele>222.5</ele>
        <time>2020-11-17T07:06:50Z</time>
      </trkpt>
      <trkpt lat="28.6376230" lon="-17.9231270">
        <ele>222.9</ele>
        <time>2020-11-17T07:06:51Z</time>
      </trkpt>
      <trkpt lat="28.6376230" lon="-17.9231270">
        <ele>222.9</ele>
        <time>2020-11-17T07:06:52Z</time>
      </trkpt>
      <trkpt lat="28.6376600" lon="-17.9231300">
        <ele>223.3</ele>
        <time>2020-11-17T07:06:53Z</time>
      </trkpt>
      <trkpt lat="28.6376600" lon="-17.9231300">
        <ele>223.3</ele>
        <time>2020-11-17T07:06:54Z</time>
      </trkpt>
      <trkpt lat="28.6376980" lon="-17.9231430">
        <ele>223.7</ele>
        <time>2020-11-17T07:06:55Z</time>
      </trkpt>
      <trkpt lat="28.6377170" lon="-17.9231530">
        <ele>223.9</ele>
        <time>2020-11-17T07:06:56Z</time>
      </trkpt>
      <trkpt lat="28.6377170" lon="-17.9231530">
        <ele>223.9</ele>
        <time>2020-11-17T07:06:57Z</time>
      </trkpt>
      <trkpt lat="28.6377420" lon="-17.9231680">
        <ele>224.1</ele>
        <time>2020-11-17T07:06:58Z</time>
      </trkpt>
      <trkpt lat="28.6377420" lon="-17.9231680">
        <ele>224.1</ele>
        <time>2020-11-17T07:06:59Z</time>
      </trkpt>
      <trkpt lat="28.6377680" lon="-17.9231880">
        <ele>224.3</ele>
        <time>2020-11-17T07:07:00Z</time>
      </trkpt>
      <trkpt lat="28.6377680" lon="-17.9231880">
        <ele>224.3</ele>
        <time>2020-11-17T07:07:01Z</time>
      </trkpt>
      <trkpt lat="28.6377930" lon="-17.9232130">
        <ele>224.5</ele>
        <time>2020-11-17T07:07:02Z</time>
      </trkpt>
      <trkpt lat="28.6377930" lon="-17.9232130">
        <ele>224.5</ele>
        <time>2020-11-17T07:07:03Z</time>
      </trkpt>
      <trkpt lat="28.6378280" lon="-17.9232250">
        <ele>224.7</ele>
        <time>2020-11-17T07:07:04Z</time>
      </trkpt>
      <trkpt lat="28.6378450" lon="-17.9232320">
        <ele>224.8</ele>
        <time>2020-11-17T07:07:05Z</time>
      </trkpt>
      <trkpt lat="28.6378450" lon="-17.9232320">
        <ele>224.8</ele>
        <time>2020-11-17T07:07:06Z</time>
      </trkpt>
      <trkpt lat="28.6378820" lon="-17.9232420">
        <ele>225.0</ele>
        <time>2020-11-17T07:07:07Z</time>
      </trkpt>
      <trkpt lat="28.6378820" lon="-17.9232420">
        <ele>225.0</ele>
        <time>2020-11-17T07:07:08Z</time>
      </trkpt>
      <trkpt lat="28.6379130" lon="-17.9232500">
        <ele>225.1</ele>
        <time>2020-11-17T07:07:09Z</time>
      </trkpt>
      <trkpt lat="28.6379130" lon="-17.9232500">
        <ele>225.1</ele>
        <time>2020-11-17T07:07:10Z</time>
      </trkpt>
      <trkpt lat="28.6379430" lon="-17.9232550">
        <ele>225.2</ele>
        <time>2020-11-17T07:07:11Z</time>
      </trkpt>
      <trkpt lat="28.6379600" lon="-17.9232570">
        <ele>225.3</ele>
        <time>2020-11-17T07:07:12Z</time>
      </trkpt>
      <trkpt lat="28.6379750" lon="-17.9232600">
        <ele>225.4</ele>
        <time>2020-11-17T07:07:13Z</time>
      </trkpt>
      <trkpt lat="28.6379750" lon="-17.9232600">
        <ele>225.4</ele>
        <time>2020-11-17T07:07:14Z</time>
      </trkpt>
      <trkpt lat="28.6380000" lon="-17.9232750">
        <ele>225.5</ele>
        <time>2020-11-17T07:07:15Z</time>
      </trkpt>
      <trkpt lat="28.6380000" lon="-17.9232750">
        <ele>225.5</ele>
        <time>2020-11-17T07:07:16Z</time>
      </trkpt>
      <trkpt lat="28.6380330" lon="-17.9232820">
        <ele>225.6</ele>
        <time>2020-11-17T07:07:17Z</time>
      </trkpt>
      <trkpt lat="28.6380500" lon="-17.9232850">
        <ele>225.7</ele>
        <time>2020-11-17T07:07:18Z</time>
      </trkpt>
      <trkpt lat="28.6380500" lon="-17.9232850">
        <ele>225.7</ele>
        <time>2020-11-17T07:07:19Z</time>
      </trkpt>
      <trkpt lat="28.6380820" lon="-17.9232930">
        <ele>225.8</ele>
        <time>2020-11-17T07:07:20Z</time>
      </trkpt>
      <trkpt lat="28.6380820" lon="-17.9232930">
        <ele>225.8</ele>
        <time>2020-11-17T07:07:21Z</time>
      </trkpt>
      <trkpt lat="28.6381100" lon="-17.9233200">
        <ele>225.9</ele>
        <time>2020-11-17T07:07:22Z</time>
      </trkpt>
      <trkpt lat="28.6381100" lon="-17.9233200">
        <ele>225.9</ele>
        <time>2020-11-17T07:07:23Z</time>
      </trkpt>
      <trkpt lat="28.6381480" lon="-17.9233300">
        <ele>226.1</ele>
        <time>2020-11-17T07:07:24Z</time>
      </trkpt>
      <trkpt lat="28.6381480" lon="-17.9233300">
        <ele>226.1</ele>
        <time>2020-11-17T07:07:25Z</time>
      </trkpt>
      <trkpt lat="28.6381870" lon="-17.9233500">
        <ele>226.3</ele>
        <time>2020-11-17T07:07:26Z</time>
      </trkpt>
      <trkpt lat="28.6381870" lon="-17.9233500">
        <ele>226.3</ele>
        <time>2020-11-17T07:07:27Z</time>
      </trkpt>
      <trkpt lat="28.6382280" lon="-17.9233650">
        <ele>226.5</ele>
        <time>2020-11-17T07:07:28Z</time>
      </trkpt>
      <trkpt lat="28.6382550" lon="-17.9233730">
        <ele>226.6</ele>
        <time>2020-11-17T07:07:29Z</time>
      </trkpt>
      <trkpt lat="28.6382550" lon="-17.9233730">
        <ele>226.6</ele>
        <time>2020-11-17T07:07:30Z</time>
      </trkpt>
      <trkpt lat="28.6383050" lon="-17.9233820">
        <ele>226.9</ele>
        <time>2020-11-17T07:07:31Z</time>
      </trkpt>
      <trkpt lat="28.6383280" lon="-17.9233930">
        <ele>227.0</ele>
        <time>2020-11-17T07:07:32Z</time>
      </trkpt>
      <trkpt lat="28.6383280" lon="-17.9233930">
        <ele>227.0</ele>
        <time>2020-11-17T07:07:33Z</time>
      </trkpt>
      <trkpt lat="28.6383800" lon="-17.9234180">
        <ele>227.3</ele>
        <time>2020-11-17T07:07:34Z</time>
      </trkpt>
      <trkpt lat="28.6383800" lon="-17.9234180">
        <ele>227.3</ele>
        <time>2020-11-17T07:07:35Z</time>
      </trkpt>
      <trkpt lat="28.6384270" lon="-17.9234470">
        <ele>227.5</ele>
        <time>2020-11-17T07:07:36Z</time>
      </trkpt>
      <trkpt lat="28.6384530" lon="-17.9234550">
        <ele>227.7</ele>
        <time>2020-11-17T07:07:37Z</time>
      </trkpt>
      <trkpt lat="28.6384530" lon="-17.9234550">
        <ele>227.7</ele>
        <time>2020-11-17T07:07:38Z</time>
      </trkpt>
      <trkpt lat="28.6385070" lon="-17.9234800">
        <ele>228.0</ele>
        <time>2020-11-17T07:07:39Z</time>
      </trkpt>
      <trkpt lat="28.6385070" lon="-17.9234800">
        <ele>228.0</ele>
        <time>2020-11-17T07:07:40Z</time>
      </trkpt>
      <trkpt lat="28.6385630" lon="-17.9235030">
        <ele>228.3</ele>
        <time>2020-11-17T07:07:41Z</time>
      </trkpt>
      <trkpt lat="28.6385630" lon="-17.9235030">
        <ele>228.3</ele>
        <time>2020-11-17T07:07:42Z</time>
      </trkpt>
      <trkpt lat="28.6386200" lon="-17.9235250">
        <ele>228.7</ele>
        <time>2020-11-17T07:07:43Z</time>
      </trkpt>
      <trkpt lat="28.6386200" lon="-17.9235250">
        <ele>228.7</ele>
        <time>2020-11-17T07:07:44Z</time>
      </trkpt>
      <trkpt lat="28.6386750" lon="-17.9235480">
        <ele>229.2</ele>
        <time>2020-11-17T07:07:45Z</time>
      </trkpt>
      <trkpt lat="28.6386750" lon="-17.9235480">
        <ele>229.2</ele>
        <time>2020-11-17T07:07:46Z</time>
      </trkpt>
      <trkpt lat="28.6387300" lon="-17.9235720">
        <ele>229.7</ele>
        <time>2020-11-17T07:07:47Z</time>
      </trkpt>
      <trkpt lat="28.6387570" lon="-17.9235830">
        <ele>230.1</ele>
        <time>2020-11-17T07:07:48Z</time>
      </trkpt>
      <trkpt lat="28.6387570" lon="-17.9235830">
        <ele>230.1</ele>
        <time>2020-11-17T07:07:49Z</time>
      </trkpt>
      <trkpt lat="28.6388120" lon="-17.9236030">
        <ele>230.7</ele>
        <time>2020-11-17T07:07:50Z</time>
      </trkpt>
      <trkpt lat="28.6388120" lon="-17.9236030">
        <ele>230.7</ele>
        <time>2020-11-17T07:07:51Z</time>
      </trkpt>
      <trkpt lat="28.6388630" lon="-17.9236180">
        <ele>231.3</ele>
        <time>2020-11-17T07:07:52Z</time>
      </trkpt>
      <trkpt lat="28.6388900" lon="-17.9236280">
        <ele>231.6</ele>
        <time>2020-11-17T07:07:53Z</time>
      </trkpt>
      <trkpt lat="28.6389130" lon="-17.9236370">
        <ele>231.9</ele>
        <time>2020-11-17T07:07:54Z</time>
      </trkpt>
      <trkpt lat="28.6389380" lon="-17.9236420">
        <ele>232.2</ele>
        <time>2020-11-17T07:07:55Z</time>
      </trkpt>
      <trkpt lat="28.6389380" lon="-17.9236420">
        <ele>232.2</ele>
        <time>2020-11-17T07:07:56Z</time>
      </trkpt>
      <trkpt lat="28.6389800" lon="-17.9236500">
        <ele>232.8</ele>
        <time>2020-11-17T07:07:57Z</time>
      </trkpt>
      <trkpt lat="28.6389800" lon="-17.9236500">
        <ele>232.8</ele>
        <time>2020-11-17T07:07:58Z</time>
      </trkpt>
      <trkpt lat="28.6390200" lon="-17.9236600">
        <ele>233.4</ele>
        <time>2020-11-17T07:07:59Z</time>
      </trkpt>
      <trkpt lat="28.6390400" lon="-17.9236720">
        <ele>233.7</ele>
        <time>2020-11-17T07:08:00Z</time>
      </trkpt>
      <trkpt lat="28.6390400" lon="-17.9236720">
        <ele>233.7</ele>
        <time>2020-11-17T07:08:01Z</time>
      </trkpt>
      <trkpt lat="28.6390750" lon="-17.9236900">
        <ele>234.3</ele>
        <time>2020-11-17T07:08:02Z</time>
      </trkpt>
      <trkpt lat="28.6390750" lon="-17.9236900">
        <ele>234.3</ele>
        <time>2020-11-17T07:08:03Z</time>
      </trkpt>
      <trkpt lat="28.6391100" lon="-17.9237020">
        <ele>234.8</ele>
        <time>2020-11-17T07:08:04Z</time>
      </trkpt>
      <trkpt lat="28.6391280" lon="-17.9237080">
        <ele>235.1</ele>
        <time>2020-11-17T07:08:05Z</time>
      </trkpt>
      <trkpt lat="28.6391280" lon="-17.9237080">
        <ele>235.1</ele>
        <time>2020-11-17T07:08:06Z</time>
      </trkpt>
      <trkpt lat="28.6391580" lon="-17.9237320">
        <ele>235.6</ele>
        <time>2020-11-17T07:08:07Z</time>
      </trkpt>
      <trkpt lat="28.6391730" lon="-17.9237450">
        <ele>235.9</ele>
        <time>2020-11-17T07:08:08Z</time>
      </trkpt>
      <trkpt lat="28.6391730" lon="-17.9237450">
        <ele>235.9</ele>
        <time>2020-11-17T07:08:09Z</time>
      </trkpt>
      <trkpt lat="28.6391970" lon="-17.9237730">
        <ele>236.4</ele>
        <time>2020-11-17T07:08:10Z</time>
      </trkpt>
      <trkpt lat="28.6391970" lon="-17.9237730">
        <ele>236.4</ele>
        <time>2020-11-17T07:08:11Z</time>
      </trkpt>
      <trkpt lat="28.6392270" lon="-17.9237930">
        <ele>236.8</ele>
        <time>2020-11-17T07:08:12Z</time>
      </trkpt>
      <trkpt lat="28.6392270" lon="-17.9237930">
        <ele>236.8</ele>
        <time>2020-11-17T07:08:13Z</time>
      </trkpt>
      <trkpt lat="28.6392720" lon="-17.9238120">
        <ele>237.5</ele>
        <time>2020-11-17T07:08:14Z</time>
      </trkpt>
      <trkpt lat="28.6392720" lon="-17.9238120">
        <ele>237.5</ele>
        <time>2020-11-17T07:08:15Z</time>
      </trkpt>
      <trkpt lat="28.6393070" lon="-17.9238420">
        <ele>238.0</ele>
        <time>2020-11-17T07:08:16Z</time>
      </trkpt>
      <trkpt lat="28.6393230" lon="-17.9238530">
        <ele>238.2</ele>
        <time>2020-11-17T07:08:17Z</time>
      </trkpt>
      <trkpt lat="28.6393400" lon="-17.9238620">
        <ele>238.5</ele>
        <time>2020-11-17T07:08:18Z</time>
      </trkpt>
      <trkpt lat="28.6393400" lon="-17.9238620">
        <ele>238.5</ele>
        <time>2020-11-17T07:08:19Z</time>
      </trkpt>
      <trkpt lat="28.6393830" lon="-17.9238800">
        <ele>239.0</ele>
        <time>2020-11-17T07:08:20Z</time>
      </trkpt>
      <trkpt lat="28.6393830" lon="-17.9238800">
        <ele>239.0</ele>
        <time>2020-11-17T07:08:21Z</time>
      </trkpt>
      <trkpt lat="28.6394200" lon="-17.9239050">
        <ele>239.5</ele>
        <time>2020-11-17T07:08:22Z</time>
      </trkpt>
      <trkpt lat="28.6394200" lon="-17.9239050">
        <ele>239.5</ele>
        <time>2020-11-17T07:08:23Z</time>
      </trkpt>
      <trkpt lat="28.6394530" lon="-17.9239350">
        <ele>240.0</ele>
        <time>2020-11-17T07:08:24Z</time>
      </trkpt>
      <trkpt lat="28.6394530" lon="-17.9239350">
        <ele>240.0</ele>
        <time>2020-11-17T07:08:25Z</time>
      </trkpt>
      <trkpt lat="28.6394900" lon="-17.9239600">
        <ele>240.5</ele>
        <time>2020-11-17T07:08:26Z</time>
      </trkpt>
      <trkpt lat="28.6394900" lon="-17.9239600">
        <ele>240.5</ele>
        <time>2020-11-17T07:08:27Z</time>
      </trkpt>
      <trkpt lat="28.6395270" lon="-17.9239870">
        <ele>241.0</ele>
        <time>2020-11-17T07:08:28Z</time>
      </trkpt>
      <trkpt lat="28.6395270" lon="-17.9239870">
        <ele>241.0</ele>
        <time>2020-11-17T07:08:29Z</time>
      </trkpt>
      <trkpt lat="28.6395620" lon="-17.9240120">
        <ele>241.4</ele>
        <time>2020-11-17T07:08:30Z</time>
      </trkpt>
      <trkpt lat="28.6395620" lon="-17.9240120">
        <ele>241.4</ele>
        <time>2020-11-17T07:08:31Z</time>
      </trkpt>
      <trkpt lat="28.6396030" lon="-17.9240380">
        <ele>242.0</ele>
        <time>2020-11-17T07:08:32Z</time>
      </trkpt>
      <trkpt lat="28.6396030" lon="-17.9240380">
        <ele>242.0</ele>
        <time>2020-11-17T07:08:33Z</time>
      </trkpt>
      <trkpt lat="28.6396320" lon="-17.9240620">
        <ele>242.5</ele>
        <time>2020-11-17T07:08:34Z</time>
      </trkpt>
      <trkpt lat="28.6396320" lon="-17.9240620">
        <ele>242.5</ele>
        <time>2020-11-17T07:08:35Z</time>
      </trkpt>
      <trkpt lat="28.6396630" lon="-17.9240780">
        <ele>243.0</ele>
        <time>2020-11-17T07:08:36Z</time>
      </trkpt>
      <trkpt lat="28.6396630" lon="-17.9240780">
        <ele>243.0</ele>
        <time>2020-11-17T07:08:37Z</time>
      </trkpt>
      <trkpt lat="28.6396930" lon="-17.9241000">
        <ele>243.4</ele>
        <time>2020-11-17T07:08:38Z</time>
      </trkpt>
      <trkpt lat="28.6396930" lon="-17.9241000">
        <ele>243.4</ele>
        <time>2020-11-17T07:08:39Z</time>
      </trkpt>
      <trkpt lat="28.6397230" lon="-17.9241200">
        <ele>244.0</ele>
        <time>2020-11-17T07:08:40Z</time>
      </trkpt>
      <trkpt lat="28.6397380" lon="-17.9241280">
        <ele>244.2</ele>
        <time>2020-11-17T07:08:41Z</time>
      </trkpt>
      <trkpt lat="28.6397380" lon="-17.9241280">
        <ele>244.2</ele>
        <time>2020-11-17T07:08:42Z</time>
      </trkpt>
      <trkpt lat="28.6397700" lon="-17.9241470">
        <ele>244.8</ele>
        <time>2020-11-17T07:08:43Z</time>
      </trkpt>
      <trkpt lat="28.6397880" lon="-17.9241550">
        <ele>245.1</ele>
        <time>2020-11-17T07:08:44Z</time>
      </trkpt>
      <trkpt lat="28.6397880" lon="-17.9241550">
        <ele>245.1</ele>
        <time>2020-11-17T07:08:45Z</time>
      </trkpt>
      <trkpt lat="28.6398230" lon="-17.9241650">
        <ele>245.7</ele>
        <time>2020-11-17T07:08:46Z</time>
      </trkpt>
      <trkpt lat="28.6398230" lon="-17.9241650">
        <ele>245.7</ele>
        <time>2020-11-17T07:08:47Z</time>
      </trkpt>
      <trkpt lat="28.6398580" lon="-17.9241750">
        <ele>246.2</ele>
        <time>2020-11-17T07:08:48Z</time>
      </trkpt>
      <trkpt lat="28.6398580" lon="-17.9241750">
        <ele>246.2</ele>
        <time>2020-11-17T07:08:49Z</time>
      </trkpt>
      <trkpt lat="28.6398880" lon="-17.9241930">
        <ele>246.8</ele>
        <time>2020-11-17T07:08:50Z</time>
      </trkpt>
      <trkpt lat="28.6398880" lon="-17.9241930">
        <ele>246.8</ele>
        <time>2020-11-17T07:08:51Z</time>
      </trkpt>
      <trkpt lat="28.6399080" lon="-17.9242120">
        <ele>247.3</ele>
        <time>2020-11-17T07:08:52Z</time>
      </trkpt>
      <trkpt lat="28.6399080" lon="-17.9242120">
        <ele>247.3</ele>
        <time>2020-11-17T07:08:53Z</time>
      </trkpt>
      <trkpt lat="28.6399230" lon="-17.9242500">
        <ele>247.1</ele>
        <time>2020-11-17T07:08:54Z</time>
      </trkpt>
      <trkpt lat="28.6399230" lon="-17.9242500">
        <ele>247.1</ele>
        <time>2020-11-17T07:08:55Z</time>
      </trkpt>
      <trkpt lat="28.6399370" lon="-17.9243000">
        <ele>246.2</ele>
        <time>2020-11-17T07:08:56Z</time>
      </trkpt>
      <trkpt lat="28.6399370" lon="-17.9243000">
        <ele>246.2</ele>
        <time>2020-11-17T07:08:57Z</time>
      </trkpt>
      <trkpt lat="28.6399600" lon="-17.9243430">
        <ele>245.4</ele>
        <time>2020-11-17T07:08:58Z</time>
      </trkpt>
      <trkpt lat="28.6399600" lon="-17.9243430">
        <ele>245.4</ele>
        <time>2020-11-17T07:08:59Z</time>
      </trkpt>
      <trkpt lat="28.6399870" lon="-17.9243770">
        <ele>244.6</ele>
        <time>2020-11-17T07:09:00Z</time>
      </trkpt>
      <trkpt lat="28.6400020" lon="-17.9243950">
        <ele>244.2</ele>
        <time>2020-11-17T07:09:01Z</time>
      </trkpt>
      <trkpt lat="28.6400200" lon="-17.9244150">
        <ele>243.7</ele>
        <time>2020-11-17T07:09:02Z</time>
      </trkpt>
      <trkpt lat="28.6400200" lon="-17.9244150">
        <ele>243.7</ele>
        <time>2020-11-17T07:09:03Z</time>
      </trkpt>
      <trkpt lat="28.6400530" lon="-17.9244620">
        <ele>242.7</ele>
        <time>2020-11-17T07:09:04Z</time>
      </trkpt>
      <trkpt lat="28.6400530" lon="-17.9244620">
        <ele>242.7</ele>
        <time>2020-11-17T07:09:05Z</time>
      </trkpt>
      <trkpt lat="28.6400870" lon="-17.9245020">
        <ele>241.8</ele>
        <time>2020-11-17T07:09:06Z</time>
      </trkpt>
      <trkpt lat="28.6401050" lon="-17.9245220">
        <ele>241.3</ele>
        <time>2020-11-17T07:09:07Z</time>
      </trkpt>
      <trkpt lat="28.6401250" lon="-17.9245430">
        <ele>240.8</ele>
        <time>2020-11-17T07:09:08Z</time>
      </trkpt>
      <trkpt lat="28.6401250" lon="-17.9245430">
        <ele>240.8</ele>
        <time>2020-11-17T07:09:09Z</time>
      </trkpt>
      <trkpt lat="28.6401580" lon="-17.9245870">
        <ele>239.8</ele>
        <time>2020-11-17T07:09:10Z</time>
      </trkpt>
      <trkpt lat="28.6401580" lon="-17.9245870">
        <ele>239.8</ele>
        <time>2020-11-17T07:09:11Z</time>
      </trkpt>
      <trkpt lat="28.6401850" lon="-17.9246330">
        <ele>238.9</ele>
        <time>2020-11-17T07:09:12Z</time>
      </trkpt>
      <trkpt lat="28.6401850" lon="-17.9246330">
        <ele>238.9</ele>
        <time>2020-11-17T07:09:13Z</time>
      </trkpt>
      <trkpt lat="28.6402080" lon="-17.9246770">
        <ele>238.0</ele>
        <time>2020-11-17T07:09:14Z</time>
      </trkpt>
      <trkpt lat="28.6402080" lon="-17.9246770">
        <ele>238.0</ele>
        <time>2020-11-17T07:09:15Z</time>
      </trkpt>
      <trkpt lat="28.6402420" lon="-17.9247100">
        <ele>237.2</ele>
        <time>2020-11-17T07:09:16Z</time>
      </trkpt>
      <trkpt lat="28.6402550" lon="-17.9247230">
        <ele>236.9</ele>
        <time>2020-11-17T07:09:17Z</time>
      </trkpt>
      <trkpt lat="28.6402670" lon="-17.9247300">
        <ele>236.9</ele>
        <time>2020-11-17T07:09:18Z</time>
      </trkpt>
      <trkpt lat="28.6402670" lon="-17.9247300">
        <ele>236.9</ele>
        <time>2020-11-17T07:09:19Z</time>
      </trkpt>
      <trkpt lat="28.6402720" lon="-17.9247280">
        <ele>237.0</ele>
        <time>2020-11-17T07:09:20Z</time>
      </trkpt>
      <trkpt lat="28.6402720" lon="-17.9247280">
        <ele>237.0</ele>
        <time>2020-11-17T07:09:51Z</time>
      </trkpt>
      <trkpt lat="28.6402580" lon="-17.9247000">
        <ele>237.5</ele>
        <time>2020-11-17T07:09:52Z</time>
      </trkpt>
      <trkpt lat="28.6402450" lon="-17.9246900">
        <ele>237.8</ele>
        <time>2020-11-17T07:09:53Z</time>
      </trkpt>
      <trkpt lat="28.6402300" lon="-17.9246770">
        <ele>238.2</ele>
        <time>2020-11-17T07:09:54Z</time>
      </trkpt>
      <trkpt lat="28.6402300" lon="-17.9246770">
        <ele>238.2</ele>
        <time>2020-11-17T07:09:55Z</time>
      </trkpt>
      <trkpt lat="28.6401950" lon="-17.9246300">
        <ele>239.2</ele>
        <time>2020-11-17T07:09:56Z</time>
      </trkpt>
      <trkpt lat="28.6401950" lon="-17.9246300">
        <ele>239.2</ele>
        <time>2020-11-17T07:09:57Z</time>
      </trkpt>
      <trkpt lat="28.6401600" lon="-17.9245750">
        <ele>240.3</ele>
        <time>2020-11-17T07:09:58Z</time>
      </trkpt>
      <trkpt lat="28.6401600" lon="-17.9245750">
        <ele>240.3</ele>
        <time>2020-11-17T07:09:59Z</time>
      </trkpt>
      <trkpt lat="28.6401230" lon="-17.9245170">
        <ele>241.5</ele>
        <time>2020-11-17T07:10:00Z</time>
      </trkpt>
      <trkpt lat="28.6401030" lon="-17.9244850">
        <ele>242.1</ele>
        <time>2020-11-17T07:10:01Z</time>
      </trkpt>
      <trkpt lat="28.6400820" lon="-17.9244500">
        <ele>242.8</ele>
        <time>2020-11-17T07:10:02Z</time>
      </trkpt>
      <trkpt lat="28.6400820" lon="-17.9244500">
        <ele>242.8</ele>
        <time>2020-11-17T07:10:03Z</time>
      </trkpt>
      <trkpt lat="28.6400300" lon="-17.9243900">
        <ele>244.2</ele>
        <time>2020-11-17T07:10:04Z</time>
      </trkpt>
      <trkpt lat="28.6400050" lon="-17.9243600">
        <ele>244.9</ele>
        <time>2020-11-17T07:10:05Z</time>
      </trkpt>
      <trkpt lat="28.6400050" lon="-17.9243600">
        <ele>244.9</ele>
        <time>2020-11-17T07:10:06Z</time>
      </trkpt>
      <trkpt lat="28.6399650" lon="-17.9242930">
        <ele>246.2</ele>
        <time>2020-11-17T07:10:07Z</time>
      </trkpt>
      <trkpt lat="28.6399570" lon="-17.9242570">
        <ele>246.8</ele>
        <time>2020-11-17T07:10:08Z</time>
      </trkpt>
      <trkpt lat="28.6399570" lon="-17.9242570">
        <ele>246.8</ele>
        <time>2020-11-17T07:10:09Z</time>
      </trkpt>
      <trkpt lat="28.6399650" lon="-17.9241900">
        <ele>247.8</ele>
        <time>2020-11-17T07:10:10Z</time>
      </trkpt>
      <trkpt lat="28.6399650" lon="-17.9241900">
        <ele>248.2</ele>
        <time>2020-11-17T07:10:11Z</time>
      </trkpt>
      <trkpt lat="28.6399930" lon="-17.9241330">
        <ele>248.9</ele>
        <time>2020-11-17T07:10:12Z</time>
      </trkpt>
      <trkpt lat="28.6399930" lon="-17.9241330">
        <ele>248.9</ele>
        <time>2020-11-17T07:10:13Z</time>
      </trkpt>
      <trkpt lat="28.6400320" lon="-17.9240930">
        <ele>249.5</ele>
        <time>2020-11-17T07:10:14Z</time>
      </trkpt>
      <trkpt lat="28.6400320" lon="-17.9240930">
        <ele>249.5</ele>
        <time>2020-11-17T07:10:15Z</time>
      </trkpt>
      <trkpt lat="28.6400700" lon="-17.9240570">
        <ele>250.1</ele>
        <time>2020-11-17T07:10:16Z</time>
      </trkpt>
      <trkpt lat="28.6400700" lon="-17.9240570">
        <ele>250.1</ele>
        <time>2020-11-17T07:10:17Z</time>
      </trkpt>
      <trkpt lat="28.6401170" lon="-17.9240270">
        <ele>250.6</ele>
        <time>2020-11-17T07:10:18Z</time>
      </trkpt>
      <trkpt lat="28.6401170" lon="-17.9240270">
        <ele>250.6</ele>
        <time>2020-11-17T07:10:19Z</time>
      </trkpt>
      <trkpt lat="28.6401600" lon="-17.9239920">
        <ele>251.1</ele>
        <time>2020-11-17T07:10:20Z</time>
      </trkpt>
      <trkpt lat="28.6401600" lon="-17.9239920">
        <ele>251.1</ele>
        <time>2020-11-17T07:10:21Z</time>
      </trkpt>
      <trkpt lat="28.6402000" lon="-17.9239630">
        <ele>251.6</ele>
        <time>2020-11-17T07:10:22Z</time>
      </trkpt>
      <trkpt lat="28.6402000" lon="-17.9239630">
        <ele>251.6</ele>
        <time>2020-11-17T07:10:23Z</time>
      </trkpt>
      <trkpt lat="28.6402500" lon="-17.9239500">
        <ele>252.1</ele>
        <time>2020-11-17T07:10:24Z</time>
      </trkpt>
      <trkpt lat="28.6402500" lon="-17.9239500">
        <ele>252.1</ele>
        <time>2020-11-17T07:10:25Z</time>
      </trkpt>
      <trkpt lat="28.6402970" lon="-17.9239520">
        <ele>252.4</ele>
        <time>2020-11-17T07:10:26Z</time>
      </trkpt>
      <trkpt lat="28.6402970" lon="-17.9239520">
        <ele>252.4</ele>
        <time>2020-11-17T07:10:27Z</time>
      </trkpt>
      <trkpt lat="28.6403350" lon="-17.9239470">
        <ele>252.7</ele>
        <time>2020-11-17T07:10:28Z</time>
      </trkpt>
      <trkpt lat="28.6403350" lon="-17.9239470">
        <ele>252.7</ele>
        <time>2020-11-17T07:10:29Z</time>
      </trkpt>
      <trkpt lat="28.6403800" lon="-17.9239500">
        <ele>253.0</ele>
        <time>2020-11-17T07:10:30Z</time>
      </trkpt>
      <trkpt lat="28.6403800" lon="-17.9239500">
        <ele>253.0</ele>
        <time>2020-11-17T07:10:31Z</time>
      </trkpt>
      <trkpt lat="28.6404220" lon="-17.9239520">
        <ele>253.3</ele>
        <time>2020-11-17T07:10:32Z</time>
      </trkpt>
      <trkpt lat="28.6404430" lon="-17.9239570">
        <ele>253.4</ele>
        <time>2020-11-17T07:10:33Z</time>
      </trkpt>
      <trkpt lat="28.6404430" lon="-17.9239570">
        <ele>253.4</ele>
        <time>2020-11-17T07:10:34Z</time>
      </trkpt>
      <trkpt lat="28.6404830" lon="-17.9239670">
        <ele>253.5</ele>
        <time>2020-11-17T07:10:35Z</time>
      </trkpt>
      <trkpt lat="28.6404830" lon="-17.9239670">
        <ele>253.5</ele>
        <time>2020-11-17T07:10:36Z</time>
      </trkpt>
      <trkpt lat="28.6405280" lon="-17.9239780">
        <ele>253.6</ele>
        <time>2020-11-17T07:10:37Z</time>
      </trkpt>
      <trkpt lat="28.6405520" lon="-17.9239830">
        <ele>253.6</ele>
        <time>2020-11-17T07:10:38Z</time>
      </trkpt>
      <trkpt lat="28.6405520" lon="-17.9239830">
        <ele>253.6</ele>
        <time>2020-11-17T07:10:39Z</time>
      </trkpt>
      <trkpt lat="28.6406030" lon="-17.9239980">
        <ele>253.7</ele>
        <time>2020-11-17T07:10:40Z</time>
      </trkpt>
      <trkpt lat="28.6406320" lon="-17.9240030">
        <ele>253.7</ele>
        <time>2020-11-17T07:10:41Z</time>
      </trkpt>
      <trkpt lat="28.6406320" lon="-17.9240030">
        <ele>253.7</ele>
        <time>2020-11-17T07:10:42Z</time>
      </trkpt>
      <trkpt lat="28.6406870" lon="-17.9240220">
        <ele>253.6</ele>
        <time>2020-11-17T07:10:43Z</time>
      </trkpt>
      <trkpt lat="28.6407150" lon="-17.9240300">
        <ele>253.6</ele>
        <time>2020-11-17T07:10:44Z</time>
      </trkpt>
      <trkpt lat="28.6407150" lon="-17.9240300">
        <ele>253.6</ele>
        <time>2020-11-17T07:10:45Z</time>
      </trkpt>
      <trkpt lat="28.6407780" lon="-17.9240500">
        <ele>253.6</ele>
        <time>2020-11-17T07:10:46Z</time>
      </trkpt>
      <trkpt lat="28.6407780" lon="-17.9240500">
        <ele>253.6</ele>
        <time>2020-11-17T07:10:47Z</time>
      </trkpt>
      <trkpt lat="28.6408480" lon="-17.9240700">
        <ele>253.5</ele>
        <time>2020-11-17T07:10:48Z</time>
      </trkpt>
      <trkpt lat="28.6408480" lon="-17.9240700">
        <ele>253.5</ele>
        <time>2020-11-17T07:10:49Z</time>
      </trkpt>
      <trkpt lat="28.6409220" lon="-17.9240920">
        <ele>253.5</ele>
        <time>2020-11-17T07:10:50Z</time>
      </trkpt>
      <trkpt lat="28.6409580" lon="-17.9241020">
        <ele>253.4</ele>
        <time>2020-11-17T07:10:51Z</time>
      </trkpt>
      <trkpt lat="28.6409580" lon="-17.9241020">
        <ele>253.4</ele>
        <time>2020-11-17T07:10:52Z</time>
      </trkpt>
      <trkpt lat="28.6410350" lon="-17.9241180">
        <ele>253.3</ele>
        <time>2020-11-17T07:10:53Z</time>
      </trkpt>
      <trkpt lat="28.6410730" lon="-17.9241250">
        <ele>253.3</ele>
        <time>2020-11-17T07:10:54Z</time>
      </trkpt>
      <trkpt lat="28.6410730" lon="-17.9241250">
        <ele>253.3</ele>
        <time>2020-11-17T07:10:55Z</time>
      </trkpt>
      <trkpt lat="28.6411530" lon="-17.9241400">
        <ele>253.2</ele>
        <time>2020-11-17T07:10:56Z</time>
      </trkpt>
      <trkpt lat="28.6411950" lon="-17.9241480">
        <ele>253.2</ele>
        <time>2020-11-17T07:10:57Z</time>
      </trkpt>
      <trkpt lat="28.6411950" lon="-17.9241480">
        <ele>253.2</ele>
        <time>2020-11-17T07:10:58Z</time>
      </trkpt>
      <trkpt lat="28.6412800" lon="-17.9241600">
        <ele>253.1</ele>
        <time>2020-11-17T07:10:59Z</time>
      </trkpt>
      <trkpt lat="28.6413180" lon="-17.9241700">
        <ele>253.1</ele>
        <time>2020-11-17T07:11:00Z</time>
      </trkpt>
      <trkpt lat="28.6413180" lon="-17.9241700">
        <ele>253.1</ele>
        <time>2020-11-17T07:11:01Z</time>
      </trkpt>
      <trkpt lat="28.6414050" lon="-17.9241950">
        <ele>253.0</ele>
        <time>2020-11-17T07:11:02Z</time>
      </trkpt>
      <trkpt lat="28.6414050" lon="-17.9241950">
        <ele>253.0</ele>
        <time>2020-11-17T07:11:03Z</time>
      </trkpt>
      <trkpt lat="28.6414850" lon="-17.9242230">
        <ele>253.0</ele>
        <time>2020-11-17T07:11:04Z</time>
      </trkpt>
      <trkpt lat="28.6415280" lon="-17.9242370">
        <ele>253.0</ele>
        <time>2020-11-17T07:11:05Z</time>
      </trkpt>
      <trkpt lat="28.6415720" lon="-17.9242480">
        <ele>252.9</ele>
        <time>2020-11-17T07:11:06Z</time>
      </trkpt>
      <trkpt lat="28.6415720" lon="-17.9242480">
        <ele>252.9</ele>
        <time>2020-11-17T07:11:07Z</time>
      </trkpt>
      <trkpt lat="28.6416580" lon="-17.9242730">
        <ele>252.9</ele>
        <time>2020-11-17T07:11:08Z</time>
      </trkpt>
      <trkpt lat="28.6416580" lon="-17.9242730">
        <ele>252.9</ele>
        <time>2020-11-17T07:11:09Z</time>
      </trkpt>
      <trkpt lat="28.6417480" lon="-17.9242950">
        <ele>252.8</ele>
        <time>2020-11-17T07:11:10Z</time>
      </trkpt>
      <trkpt lat="28.6417480" lon="-17.9242950">
        <ele>252.8</ele>
        <time>2020-11-17T07:11:11Z</time>
      </trkpt>
      <trkpt lat="28.6418330" lon="-17.9243130">
        <ele>252.7</ele>
        <time>2020-11-17T07:11:12Z</time>
      </trkpt>
      <trkpt lat="28.6418330" lon="-17.9243130">
        <ele>252.7</ele>
        <time>2020-11-17T07:11:13Z</time>
      </trkpt>
      <trkpt lat="28.6419130" lon="-17.9243300">
        <ele>252.6</ele>
        <time>2020-11-17T07:11:14Z</time>
      </trkpt>
      <trkpt lat="28.6419520" lon="-17.9243380">
        <ele>252.6</ele>
        <time>2020-11-17T07:11:15Z</time>
      </trkpt>
      <trkpt lat="28.6419520" lon="-17.9243380">
        <ele>252.6</ele>
        <time>2020-11-17T07:11:16Z</time>
      </trkpt>
      <trkpt lat="28.6420250" lon="-17.9243480">
        <ele>252.5</ele>
        <time>2020-11-17T07:11:17Z</time>
      </trkpt>
      <trkpt lat="28.6420250" lon="-17.9243480">
        <ele>252.5</ele>
        <time>2020-11-17T07:11:18Z</time>
      </trkpt>
      <trkpt lat="28.6420980" lon="-17.9243530">
        <ele>252.3</ele>
        <time>2020-11-17T07:11:19Z</time>
      </trkpt>
      <trkpt lat="28.6421350" lon="-17.9243580">
        <ele>252.3</ele>
        <time>2020-11-17T07:11:20Z</time>
      </trkpt>
      <trkpt lat="28.6421720" lon="-17.9243630">
        <ele>252.2</ele>
        <time>2020-11-17T07:11:21Z</time>
      </trkpt>
      <trkpt lat="28.6421720" lon="-17.9243630">
        <ele>252.2</ele>
        <time>2020-11-17T07:11:22Z</time>
      </trkpt>
      <trkpt lat="28.6422480" lon="-17.9243730">
        <ele>252.0</ele>
        <time>2020-11-17T07:11:23Z</time>
      </trkpt>
      <trkpt lat="28.6422480" lon="-17.9243730">
        <ele>252.0</ele>
        <time>2020-11-17T07:11:24Z</time>
      </trkpt>
      <trkpt lat="28.6423230" lon="-17.9243870">
        <ele>251.7</ele>
        <time>2020-11-17T07:11:25Z</time>
      </trkpt>
      <trkpt lat="28.6423230" lon="-17.9243870">
        <ele>251.7</ele>
        <time>2020-11-17T07:11:26Z</time>
      </trkpt>
      <trkpt lat="28.6423950" lon="-17.9244020">
        <ele>251.2</ele>
        <time>2020-11-17T07:11:27Z</time>
      </trkpt>
      <trkpt lat="28.6423950" lon="-17.9244020">
        <ele>251.2</ele>
        <time>2020-11-17T07:11:28Z</time>
      </trkpt>
      <trkpt lat="28.6424700" lon="-17.9244180">
        <ele>250.5</ele>
        <time>2020-11-17T07:11:29Z</time>
      </trkpt>
      <trkpt lat="28.6425100" lon="-17.9244270">
        <ele>250.1</ele>
        <time>2020-11-17T07:11:30Z</time>
      </trkpt>
      <trkpt lat="28.6425100" lon="-17.9244270">
        <ele>250.1</ele>
        <time>2020-11-17T07:11:31Z</time>
      </trkpt>
      <trkpt lat="28.6426030" lon="-17.9244450">
        <ele>249.1</ele>
        <time>2020-11-17T07:11:32Z</time>
      </trkpt>
      <trkpt lat="28.6426030" lon="-17.9244450">
        <ele>249.1</ele>
        <time>2020-11-17T07:11:33Z</time>
      </trkpt>
      <trkpt lat="28.6427070" lon="-17.9244600">
        <ele>247.9</ele>
        <time>2020-11-17T07:11:34Z</time>
      </trkpt>
      <trkpt lat="28.6427070" lon="-17.9244600">
        <ele>247.9</ele>
        <time>2020-11-17T07:11:35Z</time>
      </trkpt>
      <trkpt lat="28.6428180" lon="-17.9244780">
        <ele>246.7</ele>
        <time>2020-11-17T07:11:36Z</time>
      </trkpt>
      <trkpt lat="28.6428180" lon="-17.9244780">
        <ele>246.7</ele>
        <time>2020-11-17T07:11:37Z</time>
      </trkpt>
      <trkpt lat="28.6429230" lon="-17.9244930">
        <ele>245.5</ele>
        <time>2020-11-17T07:11:38Z</time>
      </trkpt>
      <trkpt lat="28.6429680" lon="-17.9244950">
        <ele>244.9</ele>
        <time>2020-11-17T07:11:39Z</time>
      </trkpt>
      <trkpt lat="28.6429680" lon="-17.9244950">
        <ele>244.9</ele>
        <time>2020-11-17T07:11:40Z</time>
      </trkpt>
      <trkpt lat="28.6430480" lon="-17.9245000">
        <ele>244.0</ele>
        <time>2020-11-17T07:11:41Z</time>
      </trkpt>
      <trkpt lat="28.6430870" lon="-17.9245130">
        <ele>243.6</ele>
        <time>2020-11-17T07:11:42Z</time>
      </trkpt>
      <trkpt lat="28.6430870" lon="-17.9245130">
        <ele>243.6</ele>
        <time>2020-11-17T07:11:43Z</time>
      </trkpt>
      <trkpt lat="28.6431770" lon="-17.9245350">
        <ele>242.7</ele>
        <time>2020-11-17T07:11:44Z</time>
      </trkpt>
      <trkpt lat="28.6432280" lon="-17.9245500">
        <ele>242.3</ele>
        <time>2020-11-17T07:11:45Z</time>
      </trkpt>
      <trkpt lat="28.6432280" lon="-17.9245500">
        <ele>242.3</ele>
        <time>2020-11-17T07:11:46Z</time>
      </trkpt>
      <trkpt lat="28.6433320" lon="-17.9245880">
        <ele>241.7</ele>
        <time>2020-11-17T07:11:47Z</time>
      </trkpt>
      <trkpt lat="28.6433850" lon="-17.9246130">
        <ele>241.5</ele>
        <time>2020-11-17T07:11:48Z</time>
      </trkpt>
      <trkpt lat="28.6433850" lon="-17.9246130">
        <ele>241.5</ele>
        <time>2020-11-17T07:11:49Z</time>
      </trkpt>
      <trkpt lat="28.6434970" lon="-17.9246800">
        <ele>241.1</ele>
        <time>2020-11-17T07:11:50Z</time>
      </trkpt>
      <trkpt lat="28.6434970" lon="-17.9246800">
        <ele>241.1</ele>
        <time>2020-11-17T07:11:51Z</time>
      </trkpt>
      <trkpt lat="28.6436130" lon="-17.9247450">
        <ele>240.9</ele>
        <time>2020-11-17T07:11:52Z</time>
      </trkpt>
      <trkpt lat="28.6436130" lon="-17.9247450">
        <ele>240.9</ele>
        <time>2020-11-17T07:11:53Z</time>
      </trkpt>
      <trkpt lat="28.6437300" lon="-17.9248100">
        <ele>240.8</ele>
        <time>2020-11-17T07:11:54Z</time>
      </trkpt>
      <trkpt lat="28.6437300" lon="-17.9248100">
        <ele>240.8</ele>
        <time>2020-11-17T07:11:55Z</time>
      </trkpt>
      <trkpt lat="28.6438420" lon="-17.9248670">
        <ele>240.8</ele>
        <time>2020-11-17T07:11:56Z</time>
      </trkpt>
      <trkpt lat="28.6438420" lon="-17.9248670">
        <ele>240.8</ele>
        <time>2020-11-17T07:11:57Z</time>
      </trkpt>
      <trkpt lat="28.6439480" lon="-17.9249070">
        <ele>241.0</ele>
        <time>2020-11-17T07:11:58Z</time>
      </trkpt>
      <trkpt lat="28.6439980" lon="-17.9249200">
        <ele>241.1</ele>
        <time>2020-11-17T07:11:59Z</time>
      </trkpt>
      <trkpt lat="28.6439980" lon="-17.9249200">
        <ele>241.1</ele>
        <time>2020-11-17T07:12:00Z</time>
      </trkpt>
      <trkpt lat="28.6440950" lon="-17.9249370">
        <ele>241.3</ele>
        <time>2020-11-17T07:12:01Z</time>
      </trkpt>
      <trkpt lat="28.6440950" lon="-17.9249370">
        <ele>241.3</ele>
        <time>2020-11-17T07:12:02Z</time>
      </trkpt>
      <trkpt lat="28.6441850" lon="-17.9249480">
        <ele>241.6</ele>
        <time>2020-11-17T07:12:03Z</time>
      </trkpt>
      <trkpt lat="28.6442300" lon="-17.9249450">
        <ele>241.7</ele>
        <time>2020-11-17T07:12:04Z</time>
      </trkpt>
      <trkpt lat="28.6442300" lon="-17.9249450">
        <ele>241.7</ele>
        <time>2020-11-17T07:12:05Z</time>
      </trkpt>
      <trkpt lat="28.6443100" lon="-17.9249400">
        <ele>241.8</ele>
        <time>2020-11-17T07:12:06Z</time>
      </trkpt>
      <trkpt lat="28.6443100" lon="-17.9249400">
        <ele>241.8</ele>
        <time>2020-11-17T07:12:07Z</time>
      </trkpt>
      <trkpt lat="28.6443880" lon="-17.9249330">
        <ele>241.8</ele>
        <time>2020-11-17T07:12:08Z</time>
      </trkpt>
      <trkpt lat="28.6444280" lon="-17.9249280">
        <ele>241.6</ele>
        <time>2020-11-17T07:12:09Z</time>
      </trkpt>
      <trkpt lat="28.6444280" lon="-17.9249280">
        <ele>241.6</ele>
        <time>2020-11-17T07:12:10Z</time>
      </trkpt>
      <trkpt lat="28.6444980" lon="-17.9249250">
        <ele>241.3</ele>
        <time>2020-11-17T07:12:11Z</time>
      </trkpt>
      <trkpt lat="28.6444980" lon="-17.9249250">
        <ele>241.3</ele>
        <time>2020-11-17T07:12:12Z</time>
      </trkpt>
      <trkpt lat="28.6445670" lon="-17.9249130">
        <ele>240.8</ele>
        <time>2020-11-17T07:12:13Z</time>
      </trkpt>
      <trkpt lat="28.6445980" lon="-17.9249100">
        <ele>240.5</ele>
        <time>2020-11-17T07:12:14Z</time>
      </trkpt>
      <trkpt lat="28.6445980" lon="-17.9249100">
        <ele>240.5</ele>
        <time>2020-11-17T07:12:15Z</time>
      </trkpt>
      <trkpt lat="28.6446600" lon="-17.9248980">
        <ele>240.0</ele>
        <time>2020-11-17T07:12:16Z</time>
      </trkpt>
      <trkpt lat="28.6446870" lon="-17.9248920">
        <ele>239.7</ele>
        <time>2020-11-17T07:12:17Z</time>
      </trkpt>
      <trkpt lat="28.6446870" lon="-17.9248920">
        <ele>239.7</ele>
        <time>2020-11-17T07:12:18Z</time>
      </trkpt>
      <trkpt lat="28.6447330" lon="-17.9248700">
        <ele>239.4</ele>
        <time>2020-11-17T07:12:19Z</time>
      </trkpt>
      <trkpt lat="28.6447330" lon="-17.9248700">
        <ele>239.4</ele>
        <time>2020-11-17T07:12:20Z</time>
      </trkpt>
      <trkpt lat="28.6447700" lon="-17.9248370">
        <ele>239.1</ele>
        <time>2020-11-17T07:12:21Z</time>
      </trkpt>
      <trkpt lat="28.6447700" lon="-17.9248370">
        <ele>239.1</ele>
        <time>2020-11-17T07:12:22Z</time>
      </trkpt>
      <trkpt lat="28.6447800" lon="-17.9247780">
        <ele>239.3</ele>
        <time>2020-11-17T07:12:23Z</time>
      </trkpt>
      <trkpt lat="28.6447800" lon="-17.9247780">
        <ele>239.3</ele>
        <time>2020-11-17T07:12:24Z</time>
      </trkpt>
      <trkpt lat="28.6447500" lon="-17.9247130">
        <ele>239.6</ele>
        <time>2020-11-17T07:12:25Z</time>
      </trkpt>
      <trkpt lat="28.6447500" lon="-17.9247130">
        <ele>239.6</ele>
        <time>2020-11-17T07:12:26Z</time>
      </trkpt>
      <trkpt lat="28.6447230" lon="-17.9246500">
        <ele>240.0</ele>
        <time>2020-11-17T07:12:27Z</time>
      </trkpt>
      <trkpt lat="28.6447230" lon="-17.9246500">
        <ele>240.0</ele>
        <time>2020-11-17T07:12:28Z</time>
      </trkpt>
      <trkpt lat="28.6447120" lon="-17.9245850">
        <ele>240.3</ele>
        <time>2020-11-17T07:12:29Z</time>
      </trkpt>
      <trkpt lat="28.6447080" lon="-17.9245500">
        <ele>240.5</ele>
        <time>2020-11-17T07:12:30Z</time>
      </trkpt>
      <trkpt lat="28.6447080" lon="-17.9245500">
        <ele>240.5</ele>
        <time>2020-11-17T07:12:31Z</time>
      </trkpt>
      <trkpt lat="28.6446920" lon="-17.9244900">
        <ele>240.8</ele>
        <time>2020-11-17T07:12:32Z</time>
      </trkpt>
      <trkpt lat="28.6446830" lon="-17.9244600">
        <ele>240.9</ele>
        <time>2020-11-17T07:12:33Z</time>
      </trkpt>
      <trkpt lat="28.6446830" lon="-17.9244600">
        <ele>240.9</ele>
        <time>2020-11-17T07:12:34Z</time>
      </trkpt>
      <trkpt lat="28.6446600" lon="-17.9244180">
        <ele>240.8</ele>
        <time>2020-11-17T07:12:35Z</time>
      </trkpt>
      <trkpt lat="28.6446550" lon="-17.9244030">
        <ele>240.7</ele>
        <time>2020-11-17T07:12:36Z</time>
      </trkpt>
      <trkpt lat="28.6446550" lon="-17.9244030">
        <ele>240.7</ele>
        <time>2020-11-17T07:12:37Z</time>
      </trkpt>
      <trkpt lat="28.6446680" lon="-17.9244000">
        <ele>240.7</ele>
        <time>2020-11-17T07:12:38Z</time>
      </trkpt>
      <trkpt lat="28.6446680" lon="-17.9244000">
        <ele>240.7</ele>
        <time>2020-11-17T07:12:39Z</time>
      </trkpt>
      <trkpt lat="28.6446730" lon="-17.9244020">
        <ele>240.7</ele>
        <time>2020-11-17T07:12:40Z</time>
      </trkpt>
      <trkpt lat="28.6446730" lon="-17.9244020">
        <ele>240.7</ele>
        <time>2020-11-17T07:12:41Z</time>
      </trkpt>
      <trkpt lat="28.6446730" lon="-17.9244020">
        <ele>240.7</ele>
        <time>2020-11-17T07:13:06Z</time>
      </trkpt>
      <trkpt lat="28.6446920" lon="-17.9244480">
        <ele>240.5</ele>
        <time>2020-11-17T07:13:07Z</time>
      </trkpt>
      <trkpt lat="28.6446950" lon="-17.9244720">
        <ele>240.4</ele>
        <time>2020-11-17T07:13:08Z</time>
      </trkpt>
      <trkpt lat="28.6446950" lon="-17.9244720">
        <ele>240.4</ele>
        <time>2020-11-17T07:13:09Z</time>
      </trkpt>
      <trkpt lat="28.6447130" lon="-17.9245300">
        <ele>240.2</ele>
        <time>2020-11-17T07:13:10Z</time>
      </trkpt>
      <trkpt lat="28.6447130" lon="-17.9245300">
        <ele>240.2</ele>
        <time>2020-11-17T07:13:11Z</time>
      </trkpt>
      <trkpt lat="28.6447380" lon="-17.9246080">
        <ele>239.9</ele>
        <time>2020-11-17T07:13:12Z</time>
      </trkpt>
      <trkpt lat="28.6447380" lon="-17.9246080">
        <ele>239.9</ele>
        <time>2020-11-17T07:13:13Z</time>
      </trkpt>
      <trkpt lat="28.6447750" lon="-17.9247030">
        <ele>239.6</ele>
        <time>2020-11-17T07:13:14Z</time>
      </trkpt>
      <trkpt lat="28.6447750" lon="-17.9247030">
        <ele>239.6</ele>
        <time>2020-11-17T07:13:15Z</time>
      </trkpt>
      <trkpt lat="28.6448120" lon="-17.9248050">
        <ele>238.9</ele>
        <time>2020-11-17T07:13:16Z</time>
      </trkpt>
      <trkpt lat="28.6448270" lon="-17.9248530">
        <ele>238.9</ele>
        <time>2020-11-17T07:13:17Z</time>
      </trkpt>
      <trkpt lat="28.6448270" lon="-17.9248530">
        <ele>238.9</ele>
        <time>2020-11-17T07:13:18Z</time>
      </trkpt>
      <trkpt lat="28.6448480" lon="-17.9249300">
        <ele>238.5</ele>
        <time>2020-11-17T07:13:19Z</time>
      </trkpt>
      <trkpt lat="28.6448620" lon="-17.9249550">
        <ele>238.6</ele>
        <time>2020-11-17T07:13:20Z</time>
      </trkpt>
      <trkpt lat="28.6448620" lon="-17.9249550">
        <ele>238.6</ele>
        <time>2020-11-17T07:13:21Z</time>
      </trkpt>
      <trkpt lat="28.6449020" lon="-17.9249580">
        <ele>238.8</ele>
        <time>2020-11-17T07:13:22Z</time>
      </trkpt>
      <trkpt lat="28.6449400" lon="-17.9249330">
        <ele>239.0</ele>
        <time>2020-11-17T07:13:23Z</time>
      </trkpt>
      <trkpt lat="28.6449700" lon="-17.9249050">
        <ele>239.2</ele>
        <time>2020-11-17T07:13:24Z</time>
      </trkpt>
      <trkpt lat="28.6449700" lon="-17.9249050">
        <ele>239.2</ele>
        <time>2020-11-17T07:13:25Z</time>
      </trkpt>
      <trkpt lat="28.6450520" lon="-17.9248620">
        <ele>239.6</ele>
        <time>2020-11-17T07:13:26Z</time>
      </trkpt>
      <trkpt lat="28.6450520" lon="-17.9248620">
        <ele>239.6</ele>
        <time>2020-11-17T07:13:27Z</time>
      </trkpt>
      <trkpt lat="28.6451270" lon="-17.9248230">
        <ele>239.9</ele>
        <time>2020-11-17T07:13:28Z</time>
      </trkpt>
      <trkpt lat="28.6451270" lon="-17.9248230">
        <ele>239.9</ele>
        <time>2020-11-17T07:13:29Z</time>
      </trkpt>
      <trkpt lat="28.6452080" lon="-17.9247900">
        <ele>240.3</ele>
        <time>2020-11-17T07:13:30Z</time>
      </trkpt>
      <trkpt lat="28.6452480" lon="-17.9247720">
        <ele>240.5</ele>
        <time>2020-11-17T07:13:31Z</time>
      </trkpt>
      <trkpt lat="28.6452480" lon="-17.9247720">
        <ele>240.5</ele>
        <time>2020-11-17T07:13:32Z</time>
      </trkpt>
      <trkpt lat="28.6453180" lon="-17.9247330">
        <ele>241.0</ele>
        <time>2020-11-17T07:13:33Z</time>
      </trkpt>
      <trkpt lat="28.6453180" lon="-17.9247330">
        <ele>241.0</ele>
        <time>2020-11-17T07:13:34Z</time>
      </trkpt>
      <trkpt lat="28.6453880" lon="-17.9247000">
        <ele>241.5</ele>
        <time>2020-11-17T07:13:35Z</time>
      </trkpt>
      <trkpt lat="28.6453880" lon="-17.9247000">
        <ele>241.5</ele>
        <time>2020-11-17T07:13:36Z</time>
      </trkpt>
      <trkpt lat="28.6454420" lon="-17.9246630">
        <ele>242.0</ele>
        <time>2020-11-17T07:13:37Z</time>
      </trkpt>
      <trkpt lat="28.6454420" lon="-17.9246630">
        <ele>242.0</ele>
        <time>2020-11-17T07:13:38Z</time>
      </trkpt>
      <trkpt lat="28.6455030" lon="-17.9246370">
        <ele>242.5</ele>
        <time>2020-11-17T07:13:39Z</time>
      </trkpt>
      <trkpt lat="28.6455350" lon="-17.9246280">
        <ele>242.7</ele>
        <time>2020-11-17T07:13:40Z</time>
      </trkpt>
      <trkpt lat="28.6455350" lon="-17.9246280">
        <ele>242.7</ele>
        <time>2020-11-17T07:13:41Z</time>
      </trkpt>
      <trkpt lat="28.6455980" lon="-17.9246100">
        <ele>243.2</ele>
        <time>2020-11-17T07:13:42Z</time>
      </trkpt>
      <trkpt lat="28.6455980" lon="-17.9246100">
        <ele>243.2</ele>
        <time>2020-11-17T07:13:43Z</time>
      </trkpt>
      <trkpt lat="28.6456550" lon="-17.9245920">
        <ele>243.2</ele>
        <time>2020-11-17T07:13:44Z</time>
      </trkpt>
      <trkpt lat="28.6456830" lon="-17.9245830">
        <ele>243.4</ele>
        <time>2020-11-17T07:13:45Z</time>
      </trkpt>
      <trkpt lat="28.6457120" lon="-17.9245770">
        <ele>243.5</ele>
        <time>2020-11-17T07:13:46Z</time>
      </trkpt>
      <trkpt lat="28.6457400" lon="-17.9245670">
        <ele>243.6</ele>
        <time>2020-11-17T07:13:47Z</time>
      </trkpt>
      <trkpt lat="28.6457400" lon="-17.9245670">
        <ele>243.6</ele>
        <time>2020-11-17T07:13:48Z</time>
      </trkpt>
      <trkpt lat="28.6457970" lon="-17.9245400">
        <ele>243.9</ele>
        <time>2020-11-17T07:13:49Z</time>
      </trkpt>
      <trkpt lat="28.6457970" lon="-17.9245400">
        <ele>243.9</ele>
        <time>2020-11-17T07:13:50Z</time>
      </trkpt>
      <trkpt lat="28.6458570" lon="-17.9245230">
        <ele>244.2</ele>
        <time>2020-11-17T07:13:51Z</time>
      </trkpt>
      <trkpt lat="28.6458870" lon="-17.9245170">
        <ele>244.3</ele>
        <time>2020-11-17T07:13:52Z</time>
      </trkpt>
      <trkpt lat="28.6458870" lon="-17.9245170">
        <ele>244.3</ele>
        <time>2020-11-17T07:13:53Z</time>
      </trkpt>
      <trkpt lat="28.6459450" lon="-17.9245050">
        <ele>244.6</ele>
        <time>2020-11-17T07:13:54Z</time>
      </trkpt>
      <trkpt lat="28.6459450" lon="-17.9245050">
        <ele>244.6</ele>
        <time>2020-11-17T07:13:55Z</time>
      </trkpt>
      <trkpt lat="28.6460020" lon="-17.9244920">
        <ele>244.8</ele>
        <time>2020-11-17T07:13:56Z</time>
      </trkpt>
      <trkpt lat="28.6460020" lon="-17.9244920">
        <ele>244.8</ele>
        <time>2020-11-17T07:13:57Z</time>
      </trkpt>
      <trkpt lat="28.6460570" lon="-17.9244770">
        <ele>245.0</ele>
        <time>2020-11-17T07:13:58Z</time>
      </trkpt>
      <trkpt lat="28.6460570" lon="-17.9244770">
        <ele>245.0</ele>
        <time>2020-11-17T07:13:59Z</time>
      </trkpt>
      <trkpt lat="28.6461100" lon="-17.9244680">
        <ele>245.2</ele>
        <time>2020-11-17T07:14:00Z</time>
      </trkpt>
      <trkpt lat="28.6461100" lon="-17.9244680">
        <ele>245.2</ele>
        <time>2020-11-17T07:14:01Z</time>
      </trkpt>
      <trkpt lat="28.6461670" lon="-17.9244620">
        <ele>245.3</ele>
        <time>2020-11-17T07:14:02Z</time>
      </trkpt>
      <trkpt lat="28.6461950" lon="-17.9244580">
        <ele>245.3</ele>
        <time>2020-11-17T07:14:03Z</time>
      </trkpt>
      <trkpt lat="28.6461950" lon="-17.9244580">
        <ele>245.3</ele>
        <time>2020-11-17T07:14:04Z</time>
      </trkpt>
      <trkpt lat="28.6462500" lon="-17.9244520">
        <ele>245.4</ele>
        <time>2020-11-17T07:14:05Z</time>
      </trkpt>
      <trkpt lat="28.6462500" lon="-17.9244520">
        <ele>245.4</ele>
        <time>2020-11-17T07:14:06Z</time>
      </trkpt>
      <trkpt lat="28.6463070" lon="-17.9244570">
        <ele>245.4</ele>
        <time>2020-11-17T07:14:07Z</time>
      </trkpt>
      <trkpt lat="28.6463350" lon="-17.9244570">
        <ele>245.4</ele>
        <time>2020-11-17T07:14:08Z</time>
      </trkpt>
      <trkpt lat="28.6463670" lon="-17.9244500">
        <ele>245.3</ele>
        <time>2020-11-17T07:14:09Z</time>
      </trkpt>
      <trkpt lat="28.6463670" lon="-17.9244500">
        <ele>245.3</ele>
        <time>2020-11-17T07:14:10Z</time>
      </trkpt>
      <trkpt lat="28.6464380" lon="-17.9244330">
        <ele>245.2</ele>
        <time>2020-11-17T07:14:11Z</time>
      </trkpt>
      <trkpt lat="28.6464730" lon="-17.9244230">
        <ele>245.2</ele>
        <time>2020-11-17T07:14:12Z</time>
      </trkpt>
      <trkpt lat="28.6464730" lon="-17.9244230">
        <ele>245.2</ele>
        <time>2020-11-17T07:14:13Z</time>
      </trkpt>
      <trkpt lat="28.6465480" lon="-17.9244100">
        <ele>245.0</ele>
        <time>2020-11-17T07:14:14Z</time>
      </trkpt>
      <trkpt lat="28.6465900" lon="-17.9244020">
        <ele>245.0</ele>
        <time>2020-11-17T07:14:15Z</time>
      </trkpt>
      <trkpt lat="28.6465900" lon="-17.9244020">
        <ele>245.0</ele>
        <time>2020-11-17T07:14:16Z</time>
      </trkpt>
      <trkpt lat="28.6466750" lon="-17.9243870">
        <ele>244.9</ele>
        <time>2020-11-17T07:14:17Z</time>
      </trkpt>
      <trkpt lat="28.6467170" lon="-17.9243800">
        <ele>244.8</ele>
        <time>2020-11-17T07:14:18Z</time>
      </trkpt>
      <trkpt lat="28.6467550" lon="-17.9243730">
        <ele>244.8</ele>
        <time>2020-11-17T07:14:19Z</time>
      </trkpt>
      <trkpt lat="28.6467550" lon="-17.9243730">
        <ele>244.8</ele>
        <time>2020-11-17T07:14:20Z</time>
      </trkpt>
      <trkpt lat="28.6468230" lon="-17.9243480">
        <ele>244.8</ele>
        <time>2020-11-17T07:14:21Z</time>
      </trkpt>
      <trkpt lat="28.6468230" lon="-17.9243480">
        <ele>244.8</ele>
        <time>2020-11-17T07:14:22Z</time>
      </trkpt>
      <trkpt lat="28.6468930" lon="-17.9243250">
        <ele>244.8</ele>
        <time>2020-11-17T07:14:23Z</time>
      </trkpt>
      <trkpt lat="28.6469300" lon="-17.9243170">
        <ele>244.8</ele>
        <time>2020-11-17T07:14:24Z</time>
      </trkpt>
      <trkpt lat="28.6469300" lon="-17.9243170">
        <ele>244.8</ele>
        <time>2020-11-17T07:14:25Z</time>
      </trkpt>
      <trkpt lat="28.6470080" lon="-17.9242950">
        <ele>244.8</ele>
        <time>2020-11-17T07:14:26Z</time>
      </trkpt>
      <trkpt lat="28.6470470" lon="-17.9242880">
        <ele>244.9</ele>
        <time>2020-11-17T07:14:27Z</time>
      </trkpt>
      <trkpt lat="28.6470470" lon="-17.9242880">
        <ele>244.9</ele>
        <time>2020-11-17T07:14:28Z</time>
      </trkpt>
      <trkpt lat="28.6471230" lon="-17.9242720">
        <ele>245.0</ele>
        <time>2020-11-17T07:14:29Z</time>
      </trkpt>
      <trkpt lat="28.6471600" lon="-17.9242620">
        <ele>245.0</ele>
        <time>2020-11-17T07:14:30Z</time>
      </trkpt>
      <trkpt lat="28.6471600" lon="-17.9242620">
        <ele>245.0</ele>
        <time>2020-11-17T07:14:31Z</time>
      </trkpt>
      <trkpt lat="28.6472370" lon="-17.9242400">
        <ele>245.1</ele>
        <time>2020-11-17T07:14:32Z</time>
      </trkpt>
      <trkpt lat="28.6472730" lon="-17.9242320">
        <ele>245.2</ele>
        <time>2020-11-17T07:14:33Z</time>
      </trkpt>
      <trkpt lat="28.6472730" lon="-17.9242320">
        <ele>245.2</ele>
        <time>2020-11-17T07:14:34Z</time>
      </trkpt>
      <trkpt lat="28.6473450" lon="-17.9242170">
        <ele>245.3</ele>
        <time>2020-11-17T07:14:35Z</time>
      </trkpt>
      <trkpt lat="28.6473820" lon="-17.9242080">
        <ele>245.4</ele>
        <time>2020-11-17T07:14:36Z</time>
      </trkpt>
      <trkpt lat="28.6473820" lon="-17.9242080">
        <ele>245.4</ele>
        <time>2020-11-17T07:14:37Z</time>
      </trkpt>
      <trkpt lat="28.6474550" lon="-17.9242000">
        <ele>245.6</ele>
        <time>2020-11-17T07:14:38Z</time>
      </trkpt>
      <trkpt lat="28.6474550" lon="-17.9242000">
        <ele>245.6</ele>
        <time>2020-11-17T07:14:39Z</time>
      </trkpt>
      <trkpt lat="28.6475300" lon="-17.9241830">
        <ele>245.7</ele>
        <time>2020-11-17T07:14:40Z</time>
      </trkpt>
      <trkpt lat="28.6475670" lon="-17.9241720">
        <ele>245.8</ele>
        <time>2020-11-17T07:14:41Z</time>
      </trkpt>
      <trkpt lat="28.6476020" lon="-17.9241630">
        <ele>245.9</ele>
        <time>2020-11-17T07:14:42Z</time>
      </trkpt>
      <trkpt lat="28.6476020" lon="-17.9241630">
        <ele>245.9</ele>
        <time>2020-11-17T07:14:43Z</time>
      </trkpt>
      <trkpt lat="28.6476730" lon="-17.9241370">
        <ele>246.3</ele>
        <time>2020-11-17T07:14:44Z</time>
      </trkpt>
      <trkpt lat="28.6476730" lon="-17.9241370">
        <ele>246.3</ele>
        <time>2020-11-17T07:14:45Z</time>
      </trkpt>
      <trkpt lat="28.6477420" lon="-17.9241080">
        <ele>246.7</ele>
        <time>2020-11-17T07:14:46Z</time>
      </trkpt>
      <trkpt lat="28.6477420" lon="-17.9241080">
        <ele>246.7</ele>
        <time>2020-11-17T07:14:47Z</time>
      </trkpt>
      <trkpt lat="28.6478070" lon="-17.9240680">
        <ele>247.1</ele>
        <time>2020-11-17T07:14:48Z</time>
      </trkpt>
      <trkpt lat="28.6478070" lon="-17.9240680">
        <ele>247.1</ele>
        <time>2020-11-17T07:14:49Z</time>
      </trkpt>
      <trkpt lat="28.6478680" lon="-17.9240250">
        <ele>247.6</ele>
        <time>2020-11-17T07:14:50Z</time>
      </trkpt>
      <trkpt lat="28.6478680" lon="-17.9240250">
        <ele>247.6</ele>
        <time>2020-11-17T07:14:51Z</time>
      </trkpt>
      <trkpt lat="28.6479300" lon="-17.9239830">
        <ele>248.1</ele>
        <time>2020-11-17T07:14:52Z</time>
      </trkpt>
      <trkpt lat="28.6479300" lon="-17.9239830">
        <ele>248.1</ele>
        <time>2020-11-17T07:14:53Z</time>
      </trkpt>
      <trkpt lat="28.6479870" lon="-17.9239450">
        <ele>248.7</ele>
        <time>2020-11-17T07:14:54Z</time>
      </trkpt>
      <trkpt lat="28.6480100" lon="-17.9239270">
        <ele>249.0</ele>
        <time>2020-11-17T07:14:55Z</time>
      </trkpt>
      <trkpt lat="28.6480100" lon="-17.9239270">
        <ele>249.0</ele>
        <time>2020-11-17T07:14:56Z</time>
      </trkpt>
      <trkpt lat="28.6480570" lon="-17.9238970">
        <ele>249.5</ele>
        <time>2020-11-17T07:14:57Z</time>
      </trkpt>
      <trkpt lat="28.6480570" lon="-17.9238970">
        <ele>249.5</ele>
        <time>2020-11-17T07:14:58Z</time>
      </trkpt>
      <trkpt lat="28.6480970" lon="-17.9238700">
        <ele>250.0</ele>
        <time>2020-11-17T07:14:59Z</time>
      </trkpt>
      <trkpt lat="28.6480970" lon="-17.9238700">
        <ele>250.0</ele>
        <time>2020-11-17T07:15:00Z</time>
      </trkpt>
      <trkpt lat="28.6481350" lon="-17.9238400">
        <ele>250.5</ele>
        <time>2020-11-17T07:15:01Z</time>
      </trkpt>
      <trkpt lat="28.6481530" lon="-17.9238270">
        <ele>250.7</ele>
        <time>2020-11-17T07:15:02Z</time>
      </trkpt>
      <trkpt lat="28.6481530" lon="-17.9238270">
        <ele>250.7</ele>
        <time>2020-11-17T07:15:03Z</time>
      </trkpt>
      <trkpt lat="28.6481880" lon="-17.9238000">
        <ele>251.2</ele>
        <time>2020-11-17T07:15:04Z</time>
      </trkpt>
      <trkpt lat="28.6481880" lon="-17.9238000">
        <ele>251.2</ele>
        <time>2020-11-17T07:15:05Z</time>
      </trkpt>
      <trkpt lat="28.6482250" lon="-17.9237830">
        <ele>251.8</ele>
        <time>2020-11-17T07:15:06Z</time>
      </trkpt>
      <trkpt lat="28.6482250" lon="-17.9237830">
        <ele>251.8</ele>
        <time>2020-11-17T07:15:07Z</time>
      </trkpt>
      <trkpt lat="28.6482530" lon="-17.9237770">
        <ele>252.2</ele>
        <time>2020-11-17T07:15:08Z</time>
      </trkpt>
      <trkpt lat="28.6482680" lon="-17.9237720">
        <ele>252.4</ele>
        <time>2020-11-17T07:15:09Z</time>
      </trkpt>
      <trkpt lat="28.6482680" lon="-17.9237720">
        <ele>252.4</ele>
        <time>2020-11-17T07:15:10Z</time>
      </trkpt>
      <trkpt lat="28.6483030" lon="-17.9237520">
        <ele>252.9</ele>
        <time>2020-11-17T07:15:11Z</time>
      </trkpt>
      <trkpt lat="28.6483030" lon="-17.9237520">
        <ele>252.9</ele>
        <time>2020-11-17T07:15:12Z</time>
      </trkpt>
      <trkpt lat="28.6483370" lon="-17.9237370">
        <ele>253.4</ele>
        <time>2020-11-17T07:15:13Z</time>
      </trkpt>
      <trkpt lat="28.6483370" lon="-17.9237370">
        <ele>253.4</ele>
        <time>2020-11-17T07:15:14Z</time>
      </trkpt>
      <trkpt lat="28.6483730" lon="-17.9237320">
        <ele>254.0</ele>
        <time>2020-11-17T07:15:15Z</time>
      </trkpt>
      <trkpt lat="28.6483900" lon="-17.9237280">
        <ele>254.2</ele>
        <time>2020-11-17T07:15:16Z</time>
      </trkpt>
      <trkpt lat="28.6484080" lon="-17.9237220">
        <ele>254.5</ele>
        <time>2020-11-17T07:15:17Z</time>
      </trkpt>
      <trkpt lat="28.6484080" lon="-17.9237220">
        <ele>254.5</ele>
        <time>2020-11-17T07:15:18Z</time>
      </trkpt>
      <trkpt lat="28.6484430" lon="-17.9237080">
        <ele>255.0</ele>
        <time>2020-11-17T07:15:19Z</time>
      </trkpt>
      <trkpt lat="28.6484580" lon="-17.9237030">
        <ele>255.2</ele>
        <time>2020-11-17T07:15:20Z</time>
      </trkpt>
      <trkpt lat="28.6484580" lon="-17.9237030">
        <ele>255.2</ele>
        <time>2020-11-17T07:15:21Z</time>
      </trkpt>
      <trkpt lat="28.6484930" lon="-17.9237000">
        <ele>255.7</ele>
        <time>2020-11-17T07:15:22Z</time>
      </trkpt>
      <trkpt lat="28.6485100" lon="-17.9236980">
        <ele>255.9</ele>
        <time>2020-11-17T07:15:23Z</time>
      </trkpt>
      <trkpt lat="28.6485100" lon="-17.9236980">
        <ele>255.9</ele>
        <time>2020-11-17T07:15:24Z</time>
      </trkpt>
      <trkpt lat="28.6485450" lon="-17.9236970">
        <ele>256.4</ele>
        <time>2020-11-17T07:15:25Z</time>
      </trkpt>
      <trkpt lat="28.6485450" lon="-17.9236970">
        <ele>256.4</ele>
        <time>2020-11-17T07:15:26Z</time>
      </trkpt>
      <trkpt lat="28.6485780" lon="-17.9236980">
        <ele>256.9</ele>
        <time>2020-11-17T07:15:27Z</time>
      </trkpt>
      <trkpt lat="28.6485780" lon="-17.9236980">
        <ele>256.9</ele>
        <time>2020-11-17T07:15:28Z</time>
      </trkpt>
      <trkpt lat="28.6486120" lon="-17.9237000">
        <ele>257.4</ele>
        <time>2020-11-17T07:15:29Z</time>
      </trkpt>
      <trkpt lat="28.6486120" lon="-17.9237000">
        <ele>257.4</ele>
        <time>2020-11-17T07:15:30Z</time>
      </trkpt>
      <trkpt lat="28.6486470" lon="-17.9237050">
        <ele>257.8</ele>
        <time>2020-11-17T07:15:31Z</time>
      </trkpt>
      <trkpt lat="28.6486470" lon="-17.9237050">
        <ele>257.8</ele>
        <time>2020-11-17T07:15:32Z</time>
      </trkpt>
      <trkpt lat="28.6486830" lon="-17.9237020">
        <ele>258.3</ele>
        <time>2020-11-17T07:15:33Z</time>
      </trkpt>
      <trkpt lat="28.6486830" lon="-17.9237020">
        <ele>258.3</ele>
        <time>2020-11-17T07:15:34Z</time>
      </trkpt>
      <trkpt lat="28.6487180" lon="-17.9237000">
        <ele>258.8</ele>
        <time>2020-11-17T07:15:35Z</time>
      </trkpt>
      <trkpt lat="28.6487370" lon="-17.9236980">
        <ele>259.0</ele>
        <time>2020-11-17T07:15:36Z</time>
      </trkpt>
      <trkpt lat="28.6487370" lon="-17.9236980">
        <ele>259.0</ele>
        <time>2020-11-17T07:15:37Z</time>
      </trkpt>
      <trkpt lat="28.6487720" lon="-17.9236930">
        <ele>259.5</ele>
        <time>2020-11-17T07:15:38Z</time>
      </trkpt>
      <trkpt lat="28.6487720" lon="-17.9236930">
        <ele>259.5</ele>
        <time>2020-11-17T07:15:39Z</time>
      </trkpt>
      <trkpt lat="28.6488030" lon="-17.9236780">
        <ele>259.9</ele>
        <time>2020-11-17T07:15:40Z</time>
      </trkpt>
      <trkpt lat="28.6488030" lon="-17.9236780">
        <ele>259.9</ele>
        <time>2020-11-17T07:15:41Z</time>
      </trkpt>
      <trkpt lat="28.6488350" lon="-17.9236600">
        <ele>260.4</ele>
        <time>2020-11-17T07:15:42Z</time>
      </trkpt>
      <trkpt lat="28.6488350" lon="-17.9236600">
        <ele>260.4</ele>
        <time>2020-11-17T07:15:43Z</time>
      </trkpt>
      <trkpt lat="28.6488720" lon="-17.9236520">
        <ele>260.9</ele>
        <time>2020-11-17T07:15:44Z</time>
      </trkpt>
      <trkpt lat="28.6488720" lon="-17.9236520">
        <ele>260.9</ele>
        <time>2020-11-17T07:15:45Z</time>
      </trkpt>
      <trkpt lat="28.6489080" lon="-17.9236380">
        <ele>261.4</ele>
        <time>2020-11-17T07:15:46Z</time>
      </trkpt>
      <trkpt lat="28.6489080" lon="-17.9236380">
        <ele>261.4</ele>
        <time>2020-11-17T07:15:47Z</time>
      </trkpt>
      <trkpt lat="28.6489450" lon="-17.9236330">
        <ele>261.8</ele>
        <time>2020-11-17T07:15:48Z</time>
      </trkpt>
      <trkpt lat="28.6489450" lon="-17.9236330">
        <ele>261.8</ele>
        <time>2020-11-17T07:15:49Z</time>
      </trkpt>
      <trkpt lat="28.6489830" lon="-17.9236320">
        <ele>262.3</ele>
        <time>2020-11-17T07:15:50Z</time>
      </trkpt>
      <trkpt lat="28.6489830" lon="-17.9236320">
        <ele>262.3</ele>
        <time>2020-11-17T07:15:51Z</time>
      </trkpt>
      <trkpt lat="28.6490180" lon="-17.9236280">
        <ele>262.8</ele>
        <time>2020-11-17T07:15:52Z</time>
      </trkpt>
      <trkpt lat="28.6490350" lon="-17.9236270">
        <ele>263.0</ele>
        <time>2020-11-17T07:15:53Z</time>
      </trkpt>
      <trkpt lat="28.6490350" lon="-17.9236270">
        <ele>263.0</ele>
        <time>2020-11-17T07:15:54Z</time>
      </trkpt>
      <trkpt lat="28.6490700" lon="-17.9236200">
        <ele>263.5</ele>
        <time>2020-11-17T07:15:55Z</time>
      </trkpt>
      <trkpt lat="28.6490700" lon="-17.9236200">
        <ele>263.5</ele>
        <time>2020-11-17T07:15:56Z</time>
      </trkpt>
      <trkpt lat="28.6491030" lon="-17.9236080">
        <ele>263.9</ele>
        <time>2020-11-17T07:15:57Z</time>
      </trkpt>
      <trkpt lat="28.6491030" lon="-17.9236080">
        <ele>263.9</ele>
        <time>2020-11-17T07:15:58Z</time>
      </trkpt>
      <trkpt lat="28.6491330" lon="-17.9235900">
        <ele>264.4</ele>
        <time>2020-11-17T07:15:59Z</time>
      </trkpt>
      <trkpt lat="28.6491330" lon="-17.9235900">
        <ele>264.4</ele>
        <time>2020-11-17T07:16:00Z</time>
      </trkpt>
      <trkpt lat="28.6491630" lon="-17.9235700">
        <ele>264.9</ele>
        <time>2020-11-17T07:16:01Z</time>
      </trkpt>
      <trkpt lat="28.6491630" lon="-17.9235700">
        <ele>264.9</ele>
        <time>2020-11-17T07:16:02Z</time>
      </trkpt>
      <trkpt lat="28.6491950" lon="-17.9235600">
        <ele>265.3</ele>
        <time>2020-11-17T07:16:03Z</time>
      </trkpt>
      <trkpt lat="28.6492100" lon="-17.9235530">
        <ele>265.6</ele>
        <time>2020-11-17T07:16:04Z</time>
      </trkpt>
      <trkpt lat="28.6492100" lon="-17.9235530">
        <ele>265.6</ele>
        <time>2020-11-17T07:16:05Z</time>
      </trkpt>
      <trkpt lat="28.6492370" lon="-17.9235330">
        <ele>266.0</ele>
        <time>2020-11-17T07:16:06Z</time>
      </trkpt>
      <trkpt lat="28.6492370" lon="-17.9235330">
        <ele>266.0</ele>
        <time>2020-11-17T07:16:07Z</time>
      </trkpt>
      <trkpt lat="28.6492620" lon="-17.9235150">
        <ele>266.5</ele>
        <time>2020-11-17T07:16:08Z</time>
      </trkpt>
      <trkpt lat="28.6492620" lon="-17.9235150">
        <ele>266.5</ele>
        <time>2020-11-17T07:16:09Z</time>
      </trkpt>
      <trkpt lat="28.6492870" lon="-17.9234930">
        <ele>267.0</ele>
        <time>2020-11-17T07:16:10Z</time>
      </trkpt>
      <trkpt lat="28.6493000" lon="-17.9234820">
        <ele>267.2</ele>
        <time>2020-11-17T07:16:11Z</time>
      </trkpt>
      <trkpt lat="28.6493000" lon="-17.9234820">
        <ele>267.2</ele>
        <time>2020-11-17T07:16:12Z</time>
      </trkpt>
      <trkpt lat="28.6493270" lon="-17.9234630">
        <ele>267.7</ele>
        <time>2020-11-17T07:16:13Z</time>
      </trkpt>
      <trkpt lat="28.6493270" lon="-17.9234630">
        <ele>267.7</ele>
        <time>2020-11-17T07:16:14Z</time>
      </trkpt>
      <trkpt lat="28.6493600" lon="-17.9234630">
        <ele>268.2</ele>
        <time>2020-11-17T07:16:15Z</time>
      </trkpt>
      <trkpt lat="28.6493770" lon="-17.9234570">
        <ele>268.5</ele>
        <time>2020-11-17T07:16:16Z</time>
      </trkpt>
      <trkpt lat="28.6493770" lon="-17.9234570">
        <ele>268.5</ele>
        <time>2020-11-17T07:16:17Z</time>
      </trkpt>
      <trkpt lat="28.6494050" lon="-17.9234400">
        <ele>269.1</ele>
        <time>2020-11-17T07:16:18Z</time>
      </trkpt>
      <trkpt lat="28.6494170" lon="-17.9234330">
        <ele>269.3</ele>
        <time>2020-11-17T07:16:19Z</time>
      </trkpt>
      <trkpt lat="28.6494170" lon="-17.9234330">
        <ele>269.3</ele>
        <time>2020-11-17T07:16:20Z</time>
      </trkpt>
      <trkpt lat="28.6494420" lon="-17.9234250">
        <ele>269.8</ele>
        <time>2020-11-17T07:16:21Z</time>
      </trkpt>
      <trkpt lat="28.6494550" lon="-17.9234200">
        <ele>270.0</ele>
        <time>2020-11-17T07:16:22Z</time>
      </trkpt>
      <trkpt lat="28.6494550" lon="-17.9234200">
        <ele>270.0</ele>
        <time>2020-11-17T07:16:23Z</time>
      </trkpt>
      <trkpt lat="28.6494730" lon="-17.9233980">
        <ele>270.5</ele>
        <time>2020-11-17T07:16:24Z</time>
      </trkpt>
      <trkpt lat="28.6494730" lon="-17.9233980">
        <ele>270.5</ele>
        <time>2020-11-17T07:16:25Z</time>
      </trkpt>
      <trkpt lat="28.6494900" lon="-17.9233850">
        <ele>270.9</ele>
        <time>2020-11-17T07:16:26Z</time>
      </trkpt>
      <trkpt lat="28.6495020" lon="-17.9233750">
        <ele>271.2</ele>
        <time>2020-11-17T07:16:27Z</time>
      </trkpt>
      <trkpt lat="28.6495020" lon="-17.9233750">
        <ele>271.2</ele>
        <time>2020-11-17T07:16:28Z</time>
      </trkpt>
      <trkpt lat="28.6495320" lon="-17.9233530">
        <ele>271.8</ele>
        <time>2020-11-17T07:16:29Z</time>
      </trkpt>
      <trkpt lat="28.6495320" lon="-17.9233530">
        <ele>271.8</ele>
        <time>2020-11-17T07:16:30Z</time>
      </trkpt>
      <trkpt lat="28.6495630" lon="-17.9233350">
        <ele>272.5</ele>
        <time>2020-11-17T07:16:31Z</time>
      </trkpt>
      <trkpt lat="28.6495630" lon="-17.9233350">
        <ele>272.5</ele>
        <time>2020-11-17T07:16:32Z</time>
      </trkpt>
      <trkpt lat="28.6495950" lon="-17.9233150">
        <ele>273.1</ele>
        <time>2020-11-17T07:16:33Z</time>
      </trkpt>
      <trkpt lat="28.6495950" lon="-17.9233150">
        <ele>273.1</ele>
        <time>2020-11-17T07:16:34Z</time>
      </trkpt>
      <trkpt lat="28.6496220" lon="-17.9232980">
        <ele>273.7</ele>
        <time>2020-11-17T07:16:35Z</time>
      </trkpt>
      <trkpt lat="28.6496220" lon="-17.9232980">
        <ele>273.7</ele>
        <time>2020-11-17T07:16:36Z</time>
      </trkpt>
      <trkpt lat="28.6496430" lon="-17.9232830">
        <ele>274.2</ele>
        <time>2020-11-17T07:16:37Z</time>
      </trkpt>
      <trkpt lat="28.6496550" lon="-17.9232770">
        <ele>274.4</ele>
        <time>2020-11-17T07:16:38Z</time>
      </trkpt>
      <trkpt lat="28.6496550" lon="-17.9232770">
        <ele>274.4</ele>
        <time>2020-11-17T07:16:39Z</time>
      </trkpt>
      <trkpt lat="28.6496770" lon="-17.9232570">
        <ele>274.9</ele>
        <time>2020-11-17T07:16:40Z</time>
      </trkpt>
      <trkpt lat="28.6496870" lon="-17.9232370">
        <ele>275.3</ele>
        <time>2020-11-17T07:16:41Z</time>
      </trkpt>
      <trkpt lat="28.6496870" lon="-17.9232370">
        <ele>275.3</ele>
        <time>2020-11-17T07:16:42Z</time>
      </trkpt>
      <trkpt lat="28.6497100" lon="-17.9232050">
        <ele>276.0</ele>
        <time>2020-11-17T07:16:43Z</time>
      </trkpt>
      <trkpt lat="28.6497200" lon="-17.9231920">
        <ele>276.3</ele>
        <time>2020-11-17T07:16:44Z</time>
      </trkpt>
      <trkpt lat="28.6497200" lon="-17.9231920">
        <ele>276.3</ele>
        <time>2020-11-17T07:16:45Z</time>
      </trkpt>
      <trkpt lat="28.6497380" lon="-17.9231700">
        <ele>276.8</ele>
        <time>2020-11-17T07:16:46Z</time>
      </trkpt>
      <trkpt lat="28.6497380" lon="-17.9231700">
        <ele>276.8</ele>
        <time>2020-11-17T07:16:47Z</time>
      </trkpt>
      <trkpt lat="28.6497570" lon="-17.9231470">
        <ele>277.3</ele>
        <time>2020-11-17T07:16:48Z</time>
      </trkpt>
      <trkpt lat="28.6497630" lon="-17.9231350">
        <ele>277.5</ele>
        <time>2020-11-17T07:16:49Z</time>
      </trkpt>
      <trkpt lat="28.6497630" lon="-17.9231350">
        <ele>277.5</ele>
        <time>2020-11-17T07:16:50Z</time>
      </trkpt>
      <trkpt lat="28.6497820" lon="-17.9231130">
        <ele>278.0</ele>
        <time>2020-11-17T07:16:51Z</time>
      </trkpt>
      <trkpt lat="28.6497920" lon="-17.9231020">
        <ele>278.2</ele>
        <time>2020-11-17T07:16:52Z</time>
      </trkpt>
      <trkpt lat="28.6497920" lon="-17.9231020">
        <ele>278.2</ele>
        <time>2020-11-17T07:16:53Z</time>
      </trkpt>
      <trkpt lat="28.6498200" lon="-17.9230850">
        <ele>278.8</ele>
        <time>2020-11-17T07:16:54Z</time>
      </trkpt>
      <trkpt lat="28.6498200" lon="-17.9230850">
        <ele>278.8</ele>
        <time>2020-11-17T07:16:55Z</time>
      </trkpt>
      <trkpt lat="28.6498430" lon="-17.9230620">
        <ele>279.3</ele>
        <time>2020-11-17T07:16:56Z</time>
      </trkpt>
      <trkpt lat="28.6498430" lon="-17.9230620">
        <ele>279.3</ele>
        <time>2020-11-17T07:16:57Z</time>
      </trkpt>
      <trkpt lat="28.6498630" lon="-17.9230380">
        <ele>279.8</ele>
        <time>2020-11-17T07:16:58Z</time>
      </trkpt>
      <trkpt lat="28.6498770" lon="-17.9230300">
        <ele>280.1</ele>
        <time>2020-11-17T07:16:59Z</time>
      </trkpt>
      <trkpt lat="28.6498770" lon="-17.9230300">
        <ele>280.1</ele>
        <time>2020-11-17T07:17:00Z</time>
      </trkpt>
      <trkpt lat="28.6498980" lon="-17.9230080">
        <ele>280.5</ele>
        <time>2020-11-17T07:17:01Z</time>
      </trkpt>
      <trkpt lat="28.6498980" lon="-17.9230080">
        <ele>280.5</ele>
        <time>2020-11-17T07:17:02Z</time>
      </trkpt>
      <trkpt lat="28.6499170" lon="-17.9229900">
        <ele>280.9</ele>
        <time>2020-11-17T07:17:03Z</time>
      </trkpt>
      <trkpt lat="28.6499170" lon="-17.9229900">
        <ele>280.9</ele>
        <time>2020-11-17T07:17:04Z</time>
      </trkpt>
      <trkpt lat="28.6499370" lon="-17.9229670">
        <ele>281.4</ele>
        <time>2020-11-17T07:17:05Z</time>
      </trkpt>
      <trkpt lat="28.6499370" lon="-17.9229670">
        <ele>281.4</ele>
        <time>2020-11-17T07:17:06Z</time>
      </trkpt>
      <trkpt lat="28.6499570" lon="-17.9229420">
        <ele>281.8</ele>
        <time>2020-11-17T07:17:07Z</time>
      </trkpt>
      <trkpt lat="28.6499680" lon="-17.9229280">
        <ele>282.1</ele>
        <time>2020-11-17T07:17:08Z</time>
      </trkpt>
      <trkpt lat="28.6499680" lon="-17.9229280">
        <ele>282.1</ele>
        <time>2020-11-17T07:17:09Z</time>
      </trkpt>
      <trkpt lat="28.6499850" lon="-17.9229050">
        <ele>282.5</ele>
        <time>2020-11-17T07:17:10Z</time>
      </trkpt>
      <trkpt lat="28.6499850" lon="-17.9229050">
        <ele>282.5</ele>
        <time>2020-11-17T07:17:11Z</time>
      </trkpt>
      <trkpt lat="28.6500030" lon="-17.9228850">
        <ele>282.8</ele>
        <time>2020-11-17T07:17:12Z</time>
      </trkpt>
      <trkpt lat="28.6500030" lon="-17.9228850">
        <ele>282.8</ele>
        <time>2020-11-17T07:17:13Z</time>
      </trkpt>
      <trkpt lat="28.6500230" lon="-17.9228580">
        <ele>283.3</ele>
        <time>2020-11-17T07:17:14Z</time>
      </trkpt>
      <trkpt lat="28.6500330" lon="-17.9228480">
        <ele>283.5</ele>
        <time>2020-11-17T07:17:15Z</time>
      </trkpt>
      <trkpt lat="28.6500330" lon="-17.9228480">
        <ele>283.5</ele>
        <time>2020-11-17T07:17:16Z</time>
      </trkpt>
      <trkpt lat="28.6500450" lon="-17.9228150">
        <ele>283.9</ele>
        <time>2020-11-17T07:17:17Z</time>
      </trkpt>
      <trkpt lat="28.6500500" lon="-17.9227970">
        <ele>284.1</ele>
        <time>2020-11-17T07:17:18Z</time>
      </trkpt>
      <trkpt lat="28.6500500" lon="-17.9227970">
        <ele>284.1</ele>
        <time>2020-11-17T07:17:19Z</time>
      </trkpt>
      <trkpt lat="28.6500570" lon="-17.9227650">
        <ele>284.5</ele>
        <time>2020-11-17T07:17:20Z</time>
      </trkpt>
      <trkpt lat="28.6500580" lon="-17.9227480">
        <ele>284.7</ele>
        <time>2020-11-17T07:17:21Z</time>
      </trkpt>
      <trkpt lat="28.6500580" lon="-17.9227480">
        <ele>284.7</ele>
        <time>2020-11-17T07:17:22Z</time>
      </trkpt>
      <trkpt lat="28.6500680" lon="-17.9227180">
        <ele>285.1</ele>
        <time>2020-11-17T07:17:23Z</time>
      </trkpt>
      <trkpt lat="28.6500780" lon="-17.9227050">
        <ele>285.4</ele>
        <time>2020-11-17T07:17:24Z</time>
      </trkpt>
      <trkpt lat="28.6500780" lon="-17.9227050">
        <ele>285.4</ele>
        <time>2020-11-17T07:17:25Z</time>
      </trkpt>
      <trkpt lat="28.6500950" lon="-17.9226770">
        <ele>285.8</ele>
        <time>2020-11-17T07:17:26Z</time>
      </trkpt>
      <trkpt lat="28.6500950" lon="-17.9226770">
        <ele>285.8</ele>
        <time>2020-11-17T07:17:27Z</time>
      </trkpt>
      <trkpt lat="28.6501020" lon="-17.9226430">
        <ele>286.2</ele>
        <time>2020-11-17T07:17:28Z</time>
      </trkpt>
      <trkpt lat="28.6501030" lon="-17.9226270">
        <ele>286.4</ele>
        <time>2020-11-17T07:17:29Z</time>
      </trkpt>
      <trkpt lat="28.6501050" lon="-17.9226120">
        <ele>286.6</ele>
        <time>2020-11-17T07:17:30Z</time>
      </trkpt>
      <trkpt lat="28.6501050" lon="-17.9226120">
        <ele>286.6</ele>
        <time>2020-11-17T07:17:31Z</time>
      </trkpt>
      <trkpt lat="28.6501180" lon="-17.9225770">
        <ele>287.0</ele>
        <time>2020-11-17T07:17:32Z</time>
      </trkpt>
      <trkpt lat="28.6501180" lon="-17.9225770">
        <ele>287.0</ele>
        <time>2020-11-17T07:17:33Z</time>
      </trkpt>
      <trkpt lat="28.6501250" lon="-17.9225400">
        <ele>287.5</ele>
        <time>2020-11-17T07:17:34Z</time>
      </trkpt>
      <trkpt lat="28.6501250" lon="-17.9225400">
        <ele>287.5</ele>
        <time>2020-11-17T07:17:35Z</time>
      </trkpt>
      <trkpt lat="28.6501250" lon="-17.9225030">
        <ele>287.9</ele>
        <time>2020-11-17T07:17:36Z</time>
      </trkpt>
      <trkpt lat="28.6501250" lon="-17.9225030">
        <ele>287.9</ele>
        <time>2020-11-17T07:17:37Z</time>
      </trkpt>
      <trkpt lat="28.6501230" lon="-17.9224650">
        <ele>288.4</ele>
        <time>2020-11-17T07:17:38Z</time>
      </trkpt>
      <trkpt lat="28.6501230" lon="-17.9224450">
        <ele>288.6</ele>
        <time>2020-11-17T07:17:39Z</time>
      </trkpt>
      <trkpt lat="28.6501230" lon="-17.9224450">
        <ele>288.6</ele>
        <time>2020-11-17T07:17:40Z</time>
      </trkpt>
      <trkpt lat="28.6501270" lon="-17.9224050">
        <ele>289.0</ele>
        <time>2020-11-17T07:17:41Z</time>
      </trkpt>
      <trkpt lat="28.6501270" lon="-17.9224050">
        <ele>289.0</ele>
        <time>2020-11-17T07:17:42Z</time>
      </trkpt>
      <trkpt lat="28.6501250" lon="-17.9223670">
        <ele>289.5</ele>
        <time>2020-11-17T07:17:43Z</time>
      </trkpt>
      <trkpt lat="28.6501250" lon="-17.9223470">
        <ele>289.7</ele>
        <time>2020-11-17T07:17:44Z</time>
      </trkpt>
      <trkpt lat="28.6501250" lon="-17.9223470">
        <ele>289.7</ele>
        <time>2020-11-17T07:17:45Z</time>
      </trkpt>
      <trkpt lat="28.6501350" lon="-17.9223080">
        <ele>290.1</ele>
        <time>2020-11-17T07:17:46Z</time>
      </trkpt>
      <trkpt lat="28.6501420" lon="-17.9222880">
        <ele>290.4</ele>
        <time>2020-11-17T07:17:47Z</time>
      </trkpt>
      <trkpt lat="28.6501420" lon="-17.9222880">
        <ele>290.4</ele>
        <time>2020-11-17T07:17:48Z</time>
      </trkpt>
      <trkpt lat="28.6501500" lon="-17.9222520">
        <ele>290.8</ele>
        <time>2020-11-17T07:17:49Z</time>
      </trkpt>
      <trkpt lat="28.6501500" lon="-17.9222520">
        <ele>290.8</ele>
        <time>2020-11-17T07:17:50Z</time>
      </trkpt>
      <trkpt lat="28.6501670" lon="-17.9222180">
        <ele>291.2</ele>
        <time>2020-11-17T07:17:51Z</time>
      </trkpt>
      <trkpt lat="28.6501670" lon="-17.9222180">
        <ele>291.2</ele>
        <time>2020-11-17T07:17:52Z</time>
      </trkpt>
      <trkpt lat="28.6501820" lon="-17.9221820">
        <ele>291.6</ele>
        <time>2020-11-17T07:17:53Z</time>
      </trkpt>
      <trkpt lat="28.6501820" lon="-17.9221820">
        <ele>291.6</ele>
        <time>2020-11-17T07:17:54Z</time>
      </trkpt>
      <trkpt lat="28.6501970" lon="-17.9221480">
        <ele>292.1</ele>
        <time>2020-11-17T07:17:55Z</time>
      </trkpt>
      <trkpt lat="28.6501970" lon="-17.9221480">
        <ele>292.1</ele>
        <time>2020-11-17T07:17:56Z</time>
      </trkpt>
      <trkpt lat="28.6502100" lon="-17.9221150">
        <ele>292.4</ele>
        <time>2020-11-17T07:17:57Z</time>
      </trkpt>
      <trkpt lat="28.6502130" lon="-17.9220970">
        <ele>292.6</ele>
        <time>2020-11-17T07:17:58Z</time>
      </trkpt>
      <trkpt lat="28.6502130" lon="-17.9220970">
        <ele>292.6</ele>
        <time>2020-11-17T07:17:59Z</time>
      </trkpt>
      <trkpt lat="28.6502200" lon="-17.9220570">
        <ele>293.1</ele>
        <time>2020-11-17T07:18:00Z</time>
      </trkpt>
      <trkpt lat="28.6502200" lon="-17.9220570">
        <ele>293.1</ele>
        <time>2020-11-17T07:18:01Z</time>
      </trkpt>
      <trkpt lat="28.6502280" lon="-17.9220170">
        <ele>293.5</ele>
        <time>2020-11-17T07:18:02Z</time>
      </trkpt>
      <trkpt lat="28.6502330" lon="-17.9219980">
        <ele>293.7</ele>
        <time>2020-11-17T07:18:03Z</time>
      </trkpt>
      <trkpt lat="28.6502330" lon="-17.9219980">
        <ele>293.7</ele>
        <time>2020-11-17T07:18:04Z</time>
      </trkpt>
      <trkpt lat="28.6502420" lon="-17.9219650">
        <ele>294.0</ele>
        <time>2020-11-17T07:18:05Z</time>
      </trkpt>
      <trkpt lat="28.6502420" lon="-17.9219650">
        <ele>294.0</ele>
        <time>2020-11-17T07:18:06Z</time>
      </trkpt>
      <trkpt lat="28.6502570" lon="-17.9219330">
        <ele>294.4</ele>
        <time>2020-11-17T07:18:07Z</time>
      </trkpt>
      <trkpt lat="28.6502670" lon="-17.9219200">
        <ele>294.6</ele>
        <time>2020-11-17T07:18:08Z</time>
      </trkpt>
      <trkpt lat="28.6502670" lon="-17.9219200">
        <ele>294.6</ele>
        <time>2020-11-17T07:18:09Z</time>
      </trkpt>
      <trkpt lat="28.6502770" lon="-17.9218870">
        <ele>295.0</ele>
        <time>2020-11-17T07:18:10Z</time>
      </trkpt>
      <trkpt lat="28.6502800" lon="-17.9218680">
        <ele>295.2</ele>
        <time>2020-11-17T07:18:11Z</time>
      </trkpt>
      <trkpt lat="28.6502800" lon="-17.9218680">
        <ele>295.2</ele>
        <time>2020-11-17T07:18:12Z</time>
      </trkpt>
      <trkpt lat="28.6502850" lon="-17.9218280">
        <ele>295.6</ele>
        <time>2020-11-17T07:18:13Z</time>
      </trkpt>
      <trkpt lat="28.6502880" lon="-17.9218080">
        <ele>295.8</ele>
        <time>2020-11-17T07:18:14Z</time>
      </trkpt>
      <trkpt lat="28.6502920" lon="-17.9217900">
        <ele>296.0</ele>
        <time>2020-11-17T07:18:15Z</time>
      </trkpt>
      <trkpt lat="28.6502950" lon="-17.9217720">
        <ele>296.2</ele>
        <time>2020-11-17T07:18:16Z</time>
      </trkpt>
      <trkpt lat="28.6502950" lon="-17.9217720">
        <ele>296.2</ele>
        <time>2020-11-17T07:18:17Z</time>
      </trkpt>
      <trkpt lat="28.6503030" lon="-17.9217330">
        <ele>296.6</ele>
        <time>2020-11-17T07:18:18Z</time>
      </trkpt>
      <trkpt lat="28.6503030" lon="-17.9217330">
        <ele>296.6</ele>
        <time>2020-11-17T07:18:19Z</time>
      </trkpt>
      <trkpt lat="28.6503150" lon="-17.9216980">
        <ele>297.0</ele>
        <time>2020-11-17T07:18:20Z</time>
      </trkpt>
      <trkpt lat="28.6503150" lon="-17.9216980">
        <ele>297.0</ele>
        <time>2020-11-17T07:18:21Z</time>
      </trkpt>
      <trkpt lat="28.6503270" lon="-17.9216600">
        <ele>297.3</ele>
        <time>2020-11-17T07:18:22Z</time>
      </trkpt>
      <trkpt lat="28.6503270" lon="-17.9216600">
        <ele>297.3</ele>
        <time>2020-11-17T07:18:23Z</time>
      </trkpt>
      <trkpt lat="28.6503350" lon="-17.9216220">
        <ele>297.7</ele>
        <time>2020-11-17T07:18:24Z</time>
      </trkpt>
      <trkpt lat="28.6503400" lon="-17.9216020">
        <ele>297.8</ele>
        <time>2020-11-17T07:18:25Z</time>
      </trkpt>
      <trkpt lat="28.6503400" lon="-17.9216020">
        <ele>297.8</ele>
        <time>2020-11-17T07:18:26Z</time>
      </trkpt>
      <trkpt lat="28.6503480" lon="-17.9215670">
        <ele>298.1</ele>
        <time>2020-11-17T07:18:27Z</time>
      </trkpt>
      <trkpt lat="28.6503480" lon="-17.9215670">
        <ele>298.1</ele>
        <time>2020-11-17T07:18:28Z</time>
      </trkpt>
      <trkpt lat="28.6503620" lon="-17.9215280">
        <ele>298.5</ele>
        <time>2020-11-17T07:18:29Z</time>
      </trkpt>
      <trkpt lat="28.6503670" lon="-17.9215100">
        <ele>298.6</ele>
        <time>2020-11-17T07:18:30Z</time>
      </trkpt>
      <trkpt lat="28.6503670" lon="-17.9215100">
        <ele>298.6</ele>
        <time>2020-11-17T07:18:31Z</time>
      </trkpt>
      <trkpt lat="28.6503800" lon="-17.9214730">
        <ele>298.9</ele>
        <time>2020-11-17T07:18:32Z</time>
      </trkpt>
      <trkpt lat="28.6503800" lon="-17.9214730">
        <ele>298.9</ele>
        <time>2020-11-17T07:18:33Z</time>
      </trkpt>
      <trkpt lat="28.6503870" lon="-17.9214350">
        <ele>299.2</ele>
        <time>2020-11-17T07:18:34Z</time>
      </trkpt>
      <trkpt lat="28.6503900" lon="-17.9214130">
        <ele>299.3</ele>
        <time>2020-11-17T07:18:35Z</time>
      </trkpt>
      <trkpt lat="28.6503900" lon="-17.9214130">
        <ele>299.3</ele>
        <time>2020-11-17T07:18:36Z</time>
      </trkpt>
      <trkpt lat="28.6504030" lon="-17.9213720">
        <ele>299.6</ele>
        <time>2020-11-17T07:18:37Z</time>
      </trkpt>
      <trkpt lat="28.6504030" lon="-17.9213720">
        <ele>299.6</ele>
        <time>2020-11-17T07:18:38Z</time>
      </trkpt>
      <trkpt lat="28.6504220" lon="-17.9213300">
        <ele>299.9</ele>
        <time>2020-11-17T07:18:39Z</time>
      </trkpt>
      <trkpt lat="28.6504220" lon="-17.9213300">
        <ele>299.9</ele>
        <time>2020-11-17T07:18:40Z</time>
      </trkpt>
      <trkpt lat="28.6504330" lon="-17.9212820">
        <ele>300.1</ele>
        <time>2020-11-17T07:18:41Z</time>
      </trkpt>
      <trkpt lat="28.6504330" lon="-17.9212820">
        <ele>300.1</ele>
        <time>2020-11-17T07:18:42Z</time>
      </trkpt>
      <trkpt lat="28.6504430" lon="-17.9212300">
        <ele>300.3</ele>
        <time>2020-11-17T07:18:43Z</time>
      </trkpt>
      <trkpt lat="28.6504520" lon="-17.9212050">
        <ele>300.4</ele>
        <time>2020-11-17T07:18:44Z</time>
      </trkpt>
      <trkpt lat="28.6504520" lon="-17.9212050">
        <ele>300.4</ele>
        <time>2020-11-17T07:18:45Z</time>
      </trkpt>
      <trkpt lat="28.6504670" lon="-17.9211550">
        <ele>300.6</ele>
        <time>2020-11-17T07:18:46Z</time>
      </trkpt>
      <trkpt lat="28.6504670" lon="-17.9211550">
        <ele>300.6</ele>
        <time>2020-11-17T07:18:47Z</time>
      </trkpt>
      <trkpt lat="28.6504770" lon="-17.9211050">
        <ele>300.8</ele>
        <time>2020-11-17T07:18:48Z</time>
      </trkpt>
      <trkpt lat="28.6504770" lon="-17.9211050">
        <ele>300.8</ele>
        <time>2020-11-17T07:18:49Z</time>
      </trkpt>
      <trkpt lat="28.6504830" lon="-17.9210530">
        <ele>300.9</ele>
        <time>2020-11-17T07:18:50Z</time>
      </trkpt>
      <trkpt lat="28.6504830" lon="-17.9210530">
        <ele>300.9</ele>
        <time>2020-11-17T07:18:51Z</time>
      </trkpt>
      <trkpt lat="28.6504930" lon="-17.9210020">
        <ele>301.1</ele>
        <time>2020-11-17T07:18:52Z</time>
      </trkpt>
      <trkpt lat="28.6505000" lon="-17.9209750">
        <ele>301.2</ele>
        <time>2020-11-17T07:18:53Z</time>
      </trkpt>
      <trkpt lat="28.6505000" lon="-17.9209750">
        <ele>301.2</ele>
        <time>2020-11-17T07:18:54Z</time>
      </trkpt>
      <trkpt lat="28.6505150" lon="-17.9209230">
        <ele>301.3</ele>
        <time>2020-11-17T07:18:55Z</time>
      </trkpt>
      <trkpt lat="28.6505150" lon="-17.9209230">
        <ele>301.3</ele>
        <time>2020-11-17T07:18:56Z</time>
      </trkpt>
      <trkpt lat="28.6505320" lon="-17.9208730">
        <ele>301.5</ele>
        <time>2020-11-17T07:18:57Z</time>
      </trkpt>
      <trkpt lat="28.6505320" lon="-17.9208730">
        <ele>301.5</ele>
        <time>2020-11-17T07:18:58Z</time>
      </trkpt>
      <trkpt lat="28.6505450" lon="-17.9208200">
        <ele>301.7</ele>
        <time>2020-11-17T07:18:59Z</time>
      </trkpt>
      <trkpt lat="28.6505450" lon="-17.9208200">
        <ele>301.7</ele>
        <time>2020-11-17T07:19:00Z</time>
      </trkpt>
      <trkpt lat="28.6505570" lon="-17.9207680">
        <ele>301.8</ele>
        <time>2020-11-17T07:19:01Z</time>
      </trkpt>
      <trkpt lat="28.6505630" lon="-17.9207400">
        <ele>301.9</ele>
        <time>2020-11-17T07:19:02Z</time>
      </trkpt>
      <trkpt lat="28.6505630" lon="-17.9207400">
        <ele>301.9</ele>
        <time>2020-11-17T07:19:03Z</time>
      </trkpt>
      <trkpt lat="28.6505770" lon="-17.9206880">
        <ele>302.0</ele>
        <time>2020-11-17T07:19:04Z</time>
      </trkpt>
      <trkpt lat="28.6505770" lon="-17.9206880">
        <ele>302.0</ele>
        <time>2020-11-17T07:19:05Z</time>
      </trkpt>
      <trkpt lat="28.6505970" lon="-17.9206380">
        <ele>302.2</ele>
        <time>2020-11-17T07:19:06Z</time>
      </trkpt>
      <trkpt lat="28.6506050" lon="-17.9206120">
        <ele>302.3</ele>
        <time>2020-11-17T07:19:07Z</time>
      </trkpt>
      <trkpt lat="28.6506050" lon="-17.9206120">
        <ele>302.3</ele>
        <time>2020-11-17T07:19:08Z</time>
      </trkpt>
      <trkpt lat="28.6506220" lon="-17.9205580">
        <ele>302.4</ele>
        <time>2020-11-17T07:19:09Z</time>
      </trkpt>
      <trkpt lat="28.6506270" lon="-17.9205300">
        <ele>302.4</ele>
        <time>2020-11-17T07:19:10Z</time>
      </trkpt>
      <trkpt lat="28.6506270" lon="-17.9205300">
        <ele>302.4</ele>
        <time>2020-11-17T07:19:11Z</time>
      </trkpt>
      <trkpt lat="28.6506400" lon="-17.9204730">
        <ele>302.5</ele>
        <time>2020-11-17T07:19:12Z</time>
      </trkpt>
      <trkpt lat="28.6506400" lon="-17.9204730">
        <ele>302.5</ele>
        <time>2020-11-17T07:19:13Z</time>
      </trkpt>
      <trkpt lat="28.6506550" lon="-17.9204150">
        <ele>302.7</ele>
        <time>2020-11-17T07:19:14Z</time>
      </trkpt>
      <trkpt lat="28.6506620" lon="-17.9203850">
        <ele>302.7</ele>
        <time>2020-11-17T07:19:15Z</time>
      </trkpt>
      <trkpt lat="28.6506620" lon="-17.9203850">
        <ele>302.7</ele>
        <time>2020-11-17T07:19:16Z</time>
      </trkpt>
      <trkpt lat="28.6506720" lon="-17.9203200">
        <ele>302.8</ele>
        <time>2020-11-17T07:19:17Z</time>
      </trkpt>
      <trkpt lat="28.6506800" lon="-17.9202870">
        <ele>302.9</ele>
        <time>2020-11-17T07:19:18Z</time>
      </trkpt>
      <trkpt lat="28.6506800" lon="-17.9202870">
        <ele>302.9</ele>
        <time>2020-11-17T07:19:19Z</time>
      </trkpt>
      <trkpt lat="28.6506980" lon="-17.9202150">
        <ele>303.0</ele>
        <time>2020-11-17T07:19:20Z</time>
      </trkpt>
      <trkpt lat="28.6506980" lon="-17.9202150">
        <ele>303.0</ele>
        <time>2020-11-17T07:19:21Z</time>
      </trkpt>
      <trkpt lat="28.6507150" lon="-17.9201430">
        <ele>303.1</ele>
        <time>2020-11-17T07:19:22Z</time>
      </trkpt>
      <trkpt lat="28.6507150" lon="-17.9201430">
        <ele>303.1</ele>
        <time>2020-11-17T07:19:23Z</time>
      </trkpt>
      <trkpt lat="28.6507350" lon="-17.9200750">
        <ele>303.2</ele>
        <time>2020-11-17T07:19:24Z</time>
      </trkpt>
      <trkpt lat="28.6507350" lon="-17.9200750">
        <ele>303.2</ele>
        <time>2020-11-17T07:19:25Z</time>
      </trkpt>
      <trkpt lat="28.6507550" lon="-17.9200000">
        <ele>303.3</ele>
        <time>2020-11-17T07:19:26Z</time>
      </trkpt>
      <trkpt lat="28.6507630" lon="-17.9199650">
        <ele>303.3</ele>
        <time>2020-11-17T07:19:27Z</time>
      </trkpt>
      <trkpt lat="28.6507630" lon="-17.9199650">
        <ele>303.3</ele>
        <time>2020-11-17T07:19:28Z</time>
      </trkpt>
      <trkpt lat="28.6507800" lon="-17.9198900">
        <ele>303.4</ele>
        <time>2020-11-17T07:19:29Z</time>
      </trkpt>
      <trkpt lat="28.6507880" lon="-17.9198530">
        <ele>303.4</ele>
        <time>2020-11-17T07:19:30Z</time>
      </trkpt>
      <trkpt lat="28.6507880" lon="-17.9198530">
        <ele>303.4</ele>
        <time>2020-11-17T07:19:31Z</time>
      </trkpt>
      <trkpt lat="28.6508000" lon="-17.9197780">
        <ele>303.5</ele>
        <time>2020-11-17T07:19:32Z</time>
      </trkpt>
      <trkpt lat="28.6508000" lon="-17.9197780">
        <ele>303.5</ele>
        <time>2020-11-17T07:19:33Z</time>
      </trkpt>
      <trkpt lat="28.6508130" lon="-17.9197030">
        <ele>303.6</ele>
        <time>2020-11-17T07:19:34Z</time>
      </trkpt>
      <trkpt lat="28.6508130" lon="-17.9197030">
        <ele>303.6</ele>
        <time>2020-11-17T07:19:35Z</time>
      </trkpt>
      <trkpt lat="28.6508320" lon="-17.9196280">
        <ele>303.7</ele>
        <time>2020-11-17T07:19:36Z</time>
      </trkpt>
      <trkpt lat="28.6508320" lon="-17.9196280">
        <ele>303.7</ele>
        <time>2020-11-17T07:19:37Z</time>
      </trkpt>
      <trkpt lat="28.6508500" lon="-17.9195550">
        <ele>303.9</ele>
        <time>2020-11-17T07:19:38Z</time>
      </trkpt>
      <trkpt lat="28.6508620" lon="-17.9195180">
        <ele>304.0</ele>
        <time>2020-11-17T07:19:39Z</time>
      </trkpt>
      <trkpt lat="28.6508750" lon="-17.9194820">
        <ele>304.0</ele>
        <time>2020-11-17T07:19:40Z</time>
      </trkpt>
      <trkpt lat="28.6508750" lon="-17.9194820">
        <ele>304.0</ele>
        <time>2020-11-17T07:19:41Z</time>
      </trkpt>
      <trkpt lat="28.6509180" lon="-17.9194200">
        <ele>304.2</ele>
        <time>2020-11-17T07:19:42Z</time>
      </trkpt>
      <trkpt lat="28.6509180" lon="-17.9194200">
        <ele>304.2</ele>
        <time>2020-11-17T07:19:43Z</time>
      </trkpt>
      <trkpt lat="28.6509720" lon="-17.9193680">
        <ele>304.4</ele>
        <time>2020-11-17T07:19:44Z</time>
      </trkpt>
      <trkpt lat="28.6509720" lon="-17.9193680">
        <ele>304.4</ele>
        <time>2020-11-17T07:19:45Z</time>
      </trkpt>
      <trkpt lat="28.6510250" lon="-17.9193250">
        <ele>304.7</ele>
        <time>2020-11-17T07:19:46Z</time>
      </trkpt>
      <trkpt lat="28.6510250" lon="-17.9193250">
        <ele>304.7</ele>
        <time>2020-11-17T07:19:47Z</time>
      </trkpt>
      <trkpt lat="28.6510780" lon="-17.9192830">
        <ele>304.9</ele>
        <time>2020-11-17T07:19:48Z</time>
      </trkpt>
      <trkpt lat="28.6510780" lon="-17.9192830">
        <ele>304.9</ele>
        <time>2020-11-17T07:19:49Z</time>
      </trkpt>
      <trkpt lat="28.6511320" lon="-17.9192420">
        <ele>305.2</ele>
        <time>2020-11-17T07:19:50Z</time>
      </trkpt>
      <trkpt lat="28.6511320" lon="-17.9192420">
        <ele>305.2</ele>
        <time>2020-11-17T07:19:51Z</time>
      </trkpt>
      <trkpt lat="28.6511870" lon="-17.9192000">
        <ele>305.4</ele>
        <time>2020-11-17T07:19:52Z</time>
      </trkpt>
      <trkpt lat="28.6512130" lon="-17.9191800">
        <ele>305.6</ele>
        <time>2020-11-17T07:19:53Z</time>
      </trkpt>
      <trkpt lat="28.6512130" lon="-17.9191800">
        <ele>305.6</ele>
        <time>2020-11-17T07:19:54Z</time>
      </trkpt>
      <trkpt lat="28.6512700" lon="-17.9191380">
        <ele>305.8</ele>
        <time>2020-11-17T07:19:55Z</time>
      </trkpt>
      <trkpt lat="28.6512700" lon="-17.9191380">
        <ele>305.8</ele>
        <time>2020-11-17T07:19:56Z</time>
      </trkpt>
      <trkpt lat="28.6513250" lon="-17.9191000">
        <ele>306.1</ele>
        <time>2020-11-17T07:19:57Z</time>
      </trkpt>
      <trkpt lat="28.6513250" lon="-17.9191000">
        <ele>306.1</ele>
        <time>2020-11-17T07:19:58Z</time>
      </trkpt>
      <trkpt lat="28.6513800" lon="-17.9190600">
        <ele>306.4</ele>
        <time>2020-11-17T07:19:59Z</time>
      </trkpt>
      <trkpt lat="28.6513800" lon="-17.9190600">
        <ele>306.4</ele>
        <time>2020-11-17T07:20:00Z</time>
      </trkpt>
      <trkpt lat="28.6514370" lon="-17.9190200">
        <ele>306.7</ele>
        <time>2020-11-17T07:20:01Z</time>
      </trkpt>
      <trkpt lat="28.6514370" lon="-17.9190200">
        <ele>306.7</ele>
        <time>2020-11-17T07:20:02Z</time>
      </trkpt>
      <trkpt lat="28.6514920" lon="-17.9189800">
        <ele>307.0</ele>
        <time>2020-11-17T07:20:03Z</time>
      </trkpt>
      <trkpt lat="28.6514920" lon="-17.9189800">
        <ele>307.0</ele>
        <time>2020-11-17T07:20:04Z</time>
      </trkpt>
      <trkpt lat="28.6515450" lon="-17.9189420">
        <ele>307.2</ele>
        <time>2020-11-17T07:20:05Z</time>
      </trkpt>
      <trkpt lat="28.6515450" lon="-17.9189420">
        <ele>307.2</ele>
        <time>2020-11-17T07:20:06Z</time>
      </trkpt>
      <trkpt lat="28.6515900" lon="-17.9188950">
        <ele>307.5</ele>
        <time>2020-11-17T07:20:07Z</time>
      </trkpt>
      <trkpt lat="28.6515900" lon="-17.9188950">
        <ele>307.5</ele>
        <time>2020-11-17T07:20:08Z</time>
      </trkpt>
      <trkpt lat="28.6516350" lon="-17.9188470">
        <ele>307.7</ele>
        <time>2020-11-17T07:20:09Z</time>
      </trkpt>
      <trkpt lat="28.6516350" lon="-17.9188470">
        <ele>307.7</ele>
        <time>2020-11-17T07:20:10Z</time>
      </trkpt>
      <trkpt lat="28.6516770" lon="-17.9187930">
        <ele>307.8</ele>
        <time>2020-11-17T07:20:11Z</time>
      </trkpt>
      <trkpt lat="28.6516770" lon="-17.9187930">
        <ele>307.8</ele>
        <time>2020-11-17T07:20:12Z</time>
      </trkpt>
      <trkpt lat="28.6517200" lon="-17.9187420">
        <ele>308.0</ele>
        <time>2020-11-17T07:20:13Z</time>
      </trkpt>
      <trkpt lat="28.6517200" lon="-17.9187420">
        <ele>308.0</ele>
        <time>2020-11-17T07:20:14Z</time>
      </trkpt>
      <trkpt lat="28.6517600" lon="-17.9186880">
        <ele>308.1</ele>
        <time>2020-11-17T07:20:15Z</time>
      </trkpt>
      <trkpt lat="28.6517800" lon="-17.9186600">
        <ele>308.2</ele>
        <time>2020-11-17T07:20:16Z</time>
      </trkpt>
      <trkpt lat="28.6517800" lon="-17.9186600">
        <ele>308.2</ele>
        <time>2020-11-17T07:20:17Z</time>
      </trkpt>
      <trkpt lat="28.6518220" lon="-17.9186050">
        <ele>308.5</ele>
        <time>2020-11-17T07:20:18Z</time>
      </trkpt>
      <trkpt lat="28.6518220" lon="-17.9186050">
        <ele>308.5</ele>
        <time>2020-11-17T07:20:19Z</time>
      </trkpt>
      <trkpt lat="28.6518580" lon="-17.9185450">
        <ele>308.7</ele>
        <time>2020-11-17T07:20:20Z</time>
      </trkpt>
      <trkpt lat="28.6518580" lon="-17.9185450">
        <ele>308.7</ele>
        <time>2020-11-17T07:20:21Z</time>
      </trkpt>
      <trkpt lat="28.6518880" lon="-17.9184820">
        <ele>309.0</ele>
        <time>2020-11-17T07:20:22Z</time>
      </trkpt>
      <trkpt lat="28.6518880" lon="-17.9184820">
        <ele>309.0</ele>
        <time>2020-11-17T07:20:23Z</time>
      </trkpt>
      <trkpt lat="28.6519150" lon="-17.9184170">
        <ele>309.2</ele>
        <time>2020-11-17T07:20:24Z</time>
      </trkpt>
      <trkpt lat="28.6519150" lon="-17.9184170">
        <ele>309.2</ele>
        <time>2020-11-17T07:20:25Z</time>
      </trkpt>
      <trkpt lat="28.6519400" lon="-17.9183520">
        <ele>309.5</ele>
        <time>2020-11-17T07:20:26Z</time>
      </trkpt>
      <trkpt lat="28.6519500" lon="-17.9183170">
        <ele>309.6</ele>
        <time>2020-11-17T07:20:27Z</time>
      </trkpt>
      <trkpt lat="28.6519620" lon="-17.9182820">
        <ele>309.8</ele>
        <time>2020-11-17T07:20:28Z</time>
      </trkpt>
      <trkpt lat="28.6519620" lon="-17.9182820">
        <ele>309.8</ele>
        <time>2020-11-17T07:20:29Z</time>
      </trkpt>
      <trkpt lat="28.6519820" lon="-17.9182130">
        <ele>310.1</ele>
        <time>2020-11-17T07:20:30Z</time>
      </trkpt>
      <trkpt lat="28.6519820" lon="-17.9182130">
        <ele>310.1</ele>
        <time>2020-11-17T07:20:31Z</time>
      </trkpt>
      <trkpt lat="28.6519980" lon="-17.9181480">
        <ele>310.4</ele>
        <time>2020-11-17T07:20:32Z</time>
      </trkpt>
      <trkpt lat="28.6520070" lon="-17.9181150">
        <ele>310.6</ele>
        <time>2020-11-17T07:20:33Z</time>
      </trkpt>
      <trkpt lat="28.6520070" lon="-17.9181150">
        <ele>310.6</ele>
        <time>2020-11-17T07:20:34Z</time>
      </trkpt>
      <trkpt lat="28.6520250" lon="-17.9180500">
        <ele>310.9</ele>
        <time>2020-11-17T07:20:35Z</time>
      </trkpt>
      <trkpt lat="28.6520250" lon="-17.9180500">
        <ele>310.9</ele>
        <time>2020-11-17T07:20:36Z</time>
      </trkpt>
      <trkpt lat="28.6520430" lon="-17.9179850">
        <ele>311.2</ele>
        <time>2020-11-17T07:20:37Z</time>
      </trkpt>
      <trkpt lat="28.6520520" lon="-17.9179520">
        <ele>311.3</ele>
        <time>2020-11-17T07:20:38Z</time>
      </trkpt>
      <trkpt lat="28.6520520" lon="-17.9179520">
        <ele>311.3</ele>
        <time>2020-11-17T07:20:39Z</time>
      </trkpt>
      <trkpt lat="28.6520700" lon="-17.9178850">
        <ele>311.6</ele>
        <time>2020-11-17T07:20:40Z</time>
      </trkpt>
      <trkpt lat="28.6520700" lon="-17.9178850">
        <ele>311.6</ele>
        <time>2020-11-17T07:20:41Z</time>
      </trkpt>
      <trkpt lat="28.6520870" lon="-17.9178200">
        <ele>312.0</ele>
        <time>2020-11-17T07:20:42Z</time>
      </trkpt>
      <trkpt lat="28.6520920" lon="-17.9177850">
        <ele>312.1</ele>
        <time>2020-11-17T07:20:43Z</time>
      </trkpt>
      <trkpt lat="28.6520920" lon="-17.9177850">
        <ele>312.1</ele>
        <time>2020-11-17T07:20:44Z</time>
      </trkpt>
      <trkpt lat="28.6521080" lon="-17.9177150">
        <ele>312.5</ele>
        <time>2020-11-17T07:20:45Z</time>
      </trkpt>
      <trkpt lat="28.6521080" lon="-17.9177150">
        <ele>312.5</ele>
        <time>2020-11-17T07:20:46Z</time>
      </trkpt>
      <trkpt lat="28.6521250" lon="-17.9176570">
        <ele>312.8</ele>
        <time>2020-11-17T07:20:47Z</time>
      </trkpt>
      <trkpt lat="28.6521350" lon="-17.9176270">
        <ele>313.0</ele>
        <time>2020-11-17T07:20:48Z</time>
      </trkpt>
      <trkpt lat="28.6521350" lon="-17.9176270">
        <ele>313.0</ele>
        <time>2020-11-17T07:20:49Z</time>
      </trkpt>
      <trkpt lat="28.6521520" lon="-17.9175680">
        <ele>313.3</ele>
        <time>2020-11-17T07:20:50Z</time>
      </trkpt>
      <trkpt lat="28.6521520" lon="-17.9175680">
        <ele>313.3</ele>
        <time>2020-11-17T07:20:51Z</time>
      </trkpt>
      <trkpt lat="28.6521630" lon="-17.9175070">
        <ele>313.6</ele>
        <time>2020-11-17T07:20:52Z</time>
      </trkpt>
      <trkpt lat="28.6521630" lon="-17.9175070">
        <ele>313.6</ele>
        <time>2020-11-17T07:20:53Z</time>
      </trkpt>
      <trkpt lat="28.6521770" lon="-17.9174420">
        <ele>313.9</ele>
        <time>2020-11-17T07:20:54Z</time>
      </trkpt>
      <trkpt lat="28.6521770" lon="-17.9174420">
        <ele>313.9</ele>
        <time>2020-11-17T07:20:55Z</time>
      </trkpt>
      <trkpt lat="28.6521900" lon="-17.9173780">
        <ele>314.2</ele>
        <time>2020-11-17T07:20:56Z</time>
      </trkpt>
      <trkpt lat="28.6521900" lon="-17.9173780">
        <ele>314.2</ele>
        <time>2020-11-17T07:20:57Z</time>
      </trkpt>
      <trkpt lat="28.6522070" lon="-17.9173150">
        <ele>314.5</ele>
        <time>2020-11-17T07:20:58Z</time>
      </trkpt>
      <trkpt lat="28.6522180" lon="-17.9172830">
        <ele>314.7</ele>
        <time>2020-11-17T07:20:59Z</time>
      </trkpt>
      <trkpt lat="28.6522270" lon="-17.9172520">
        <ele>314.8</ele>
        <time>2020-11-17T07:21:00Z</time>
      </trkpt>
      <trkpt lat="28.6522270" lon="-17.9172520">
        <ele>314.8</ele>
        <time>2020-11-17T07:21:01Z</time>
      </trkpt>
      <trkpt lat="28.6522420" lon="-17.9171850">
        <ele>315.1</ele>
        <time>2020-11-17T07:21:02Z</time>
      </trkpt>
      <trkpt lat="28.6522420" lon="-17.9171850">
        <ele>315.1</ele>
        <time>2020-11-17T07:21:03Z</time>
      </trkpt>
      <trkpt lat="28.6522620" lon="-17.9171100">
        <ele>315.5</ele>
        <time>2020-11-17T07:21:04Z</time>
      </trkpt>
      <trkpt lat="28.6522620" lon="-17.9171100">
        <ele>315.5</ele>
        <time>2020-11-17T07:21:05Z</time>
      </trkpt>
      <trkpt lat="28.6522820" lon="-17.9170420">
        <ele>315.8</ele>
        <time>2020-11-17T07:21:06Z</time>
      </trkpt>
      <trkpt lat="28.6522820" lon="-17.9170420">
        <ele>315.8</ele>
        <time>2020-11-17T07:21:07Z</time>
      </trkpt>
      <trkpt lat="28.6523050" lon="-17.9169820">
        <ele>316.0</ele>
        <time>2020-11-17T07:21:08Z</time>
      </trkpt>
      <trkpt lat="28.6523050" lon="-17.9169820">
        <ele>316.0</ele>
        <time>2020-11-17T07:21:09Z</time>
      </trkpt>
      <trkpt lat="28.6523230" lon="-17.9169220">
        <ele>316.3</ele>
        <time>2020-11-17T07:21:10Z</time>
      </trkpt>
      <trkpt lat="28.6523230" lon="-17.9169220">
        <ele>316.3</ele>
        <time>2020-11-17T07:21:11Z</time>
      </trkpt>
      <trkpt lat="28.6523500" lon="-17.9168650">
        <ele>316.6</ele>
        <time>2020-11-17T07:21:12Z</time>
      </trkpt>
      <trkpt lat="28.6523500" lon="-17.9168650">
        <ele>316.6</ele>
        <time>2020-11-17T07:21:13Z</time>
      </trkpt>
      <trkpt lat="28.6523730" lon="-17.9168080">
        <ele>316.9</ele>
        <time>2020-11-17T07:21:14Z</time>
      </trkpt>
      <trkpt lat="28.6523830" lon="-17.9167800">
        <ele>317.0</ele>
        <time>2020-11-17T07:21:15Z</time>
      </trkpt>
      <trkpt lat="28.6523830" lon="-17.9167800">
        <ele>317.0</ele>
        <time>2020-11-17T07:21:16Z</time>
      </trkpt>
      <trkpt lat="28.6524050" lon="-17.9167220">
        <ele>317.3</ele>
        <time>2020-11-17T07:21:17Z</time>
      </trkpt>
      <trkpt lat="28.6524050" lon="-17.9167220">
        <ele>317.3</ele>
        <time>2020-11-17T07:21:18Z</time>
      </trkpt>
      <trkpt lat="28.6524270" lon="-17.9166670">
        <ele>317.6</ele>
        <time>2020-11-17T07:21:19Z</time>
      </trkpt>
      <trkpt lat="28.6524270" lon="-17.9166670">
        <ele>317.6</ele>
        <time>2020-11-17T07:21:20Z</time>
      </trkpt>
      <trkpt lat="28.6524530" lon="-17.9166120">
        <ele>317.9</ele>
        <time>2020-11-17T07:21:21Z</time>
      </trkpt>
      <trkpt lat="28.6524670" lon="-17.9165820">
        <ele>318.1</ele>
        <time>2020-11-17T07:21:22Z</time>
      </trkpt>
      <trkpt lat="28.6524670" lon="-17.9165820">
        <ele>318.1</ele>
        <time>2020-11-17T07:21:23Z</time>
      </trkpt>
      <trkpt lat="28.6524920" lon="-17.9165220">
        <ele>318.4</ele>
        <time>2020-11-17T07:21:24Z</time>
      </trkpt>
      <trkpt lat="28.6524920" lon="-17.9165220">
        <ele>318.4</ele>
        <time>2020-11-17T07:21:25Z</time>
      </trkpt>
      <trkpt lat="28.6525180" lon="-17.9164700">
        <ele>318.7</ele>
        <time>2020-11-17T07:21:26Z</time>
      </trkpt>
      <trkpt lat="28.6525280" lon="-17.9164420">
        <ele>318.8</ele>
        <time>2020-11-17T07:21:27Z</time>
      </trkpt>
      <trkpt lat="28.6525380" lon="-17.9164130">
        <ele>318.9</ele>
        <time>2020-11-17T07:21:28Z</time>
      </trkpt>
      <trkpt lat="28.6525380" lon="-17.9164130">
        <ele>318.9</ele>
        <time>2020-11-17T07:21:29Z</time>
      </trkpt>
      <trkpt lat="28.6525530" lon="-17.9163500">
        <ele>319.2</ele>
        <time>2020-11-17T07:21:30Z</time>
      </trkpt>
      <trkpt lat="28.6525620" lon="-17.9163180">
        <ele>319.4</ele>
        <time>2020-11-17T07:21:31Z</time>
      </trkpt>
      <trkpt lat="28.6525620" lon="-17.9163180">
        <ele>319.4</ele>
        <time>2020-11-17T07:21:32Z</time>
      </trkpt>
      <trkpt lat="28.6525800" lon="-17.9162580">
        <ele>319.7</ele>
        <time>2020-11-17T07:21:33Z</time>
      </trkpt>
      <trkpt lat="28.6525920" lon="-17.9162300">
        <ele>319.8</ele>
        <time>2020-11-17T07:21:34Z</time>
      </trkpt>
      <trkpt lat="28.6525920" lon="-17.9162300">
        <ele>319.8</ele>
        <time>2020-11-17T07:21:35Z</time>
      </trkpt>
      <trkpt lat="28.6526180" lon="-17.9161730">
        <ele>320.1</ele>
        <time>2020-11-17T07:21:36Z</time>
      </trkpt>
      <trkpt lat="28.6526180" lon="-17.9161730">
        <ele>320.1</ele>
        <time>2020-11-17T07:21:37Z</time>
      </trkpt>
      <trkpt lat="28.6526470" lon="-17.9161170">
        <ele>320.4</ele>
        <time>2020-11-17T07:21:38Z</time>
      </trkpt>
      <trkpt lat="28.6526620" lon="-17.9160870">
        <ele>320.5</ele>
        <time>2020-11-17T07:21:39Z</time>
      </trkpt>
      <trkpt lat="28.6526620" lon="-17.9160870">
        <ele>320.5</ele>
        <time>2020-11-17T07:21:40Z</time>
      </trkpt>
      <trkpt lat="28.6526830" lon="-17.9160300">
        <ele>320.8</ele>
        <time>2020-11-17T07:21:41Z</time>
      </trkpt>
      <trkpt lat="28.6526900" lon="-17.9160000">
        <ele>320.9</ele>
        <time>2020-11-17T07:21:42Z</time>
      </trkpt>
      <trkpt lat="28.6526900" lon="-17.9160000">
        <ele>320.9</ele>
        <time>2020-11-17T07:21:43Z</time>
      </trkpt>
      <trkpt lat="28.6527030" lon="-17.9159320">
        <ele>321.2</ele>
        <time>2020-11-17T07:21:44Z</time>
      </trkpt>
      <trkpt lat="28.6527030" lon="-17.9159320">
        <ele>321.2</ele>
        <time>2020-11-17T07:21:45Z</time>
      </trkpt>
      <trkpt lat="28.6527250" lon="-17.9158720">
        <ele>321.5</ele>
        <time>2020-11-17T07:21:46Z</time>
      </trkpt>
      <trkpt lat="28.6527370" lon="-17.9158450">
        <ele>321.6</ele>
        <time>2020-11-17T07:21:47Z</time>
      </trkpt>
      <trkpt lat="28.6527430" lon="-17.9158150">
        <ele>321.7</ele>
        <time>2020-11-17T07:21:48Z</time>
      </trkpt>
      <trkpt lat="28.6527430" lon="-17.9158150">
        <ele>321.7</ele>
        <time>2020-11-17T07:21:49Z</time>
      </trkpt>
      <trkpt lat="28.6527620" lon="-17.9157570">
        <ele>322.0</ele>
        <time>2020-11-17T07:21:50Z</time>
      </trkpt>
      <trkpt lat="28.6527700" lon="-17.9157320">
        <ele>322.1</ele>
        <time>2020-11-17T07:21:51Z</time>
      </trkpt>
      <trkpt lat="28.6527700" lon="-17.9157320">
        <ele>322.1</ele>
        <time>2020-11-17T07:21:52Z</time>
      </trkpt>
      <trkpt lat="28.6527830" lon="-17.9156770">
        <ele>322.3</ele>
        <time>2020-11-17T07:21:53Z</time>
      </trkpt>
      <trkpt lat="28.6527900" lon="-17.9156470">
        <ele>322.5</ele>
        <time>2020-11-17T07:21:54Z</time>
      </trkpt>
      <trkpt lat="28.6527900" lon="-17.9156470">
        <ele>322.5</ele>
        <time>2020-11-17T07:21:55Z</time>
      </trkpt>
      <trkpt lat="28.6528120" lon="-17.9155920">
        <ele>322.7</ele>
        <time>2020-11-17T07:21:56Z</time>
      </trkpt>
      <trkpt lat="28.6528250" lon="-17.9155630">
        <ele>322.9</ele>
        <time>2020-11-17T07:21:57Z</time>
      </trkpt>
      <trkpt lat="28.6528350" lon="-17.9155370">
        <ele>323.0</ele>
        <time>2020-11-17T07:21:58Z</time>
      </trkpt>
      <trkpt lat="28.6528350" lon="-17.9155370">
        <ele>323.0</ele>
        <time>2020-11-17T07:21:59Z</time>
      </trkpt>
      <trkpt lat="28.6528570" lon="-17.9154830">
        <ele>323.2</ele>
        <time>2020-11-17T07:22:00Z</time>
      </trkpt>
      <trkpt lat="28.6528570" lon="-17.9154830">
        <ele>323.2</ele>
        <time>2020-11-17T07:22:01Z</time>
      </trkpt>
      <trkpt lat="28.6528680" lon="-17.9154200">
        <ele>323.5</ele>
        <time>2020-11-17T07:22:02Z</time>
      </trkpt>
      <trkpt lat="28.6528770" lon="-17.9153920">
        <ele>323.6</ele>
        <time>2020-11-17T07:22:03Z</time>
      </trkpt>
      <trkpt lat="28.6528770" lon="-17.9153920">
        <ele>323.6</ele>
        <time>2020-11-17T07:22:04Z</time>
      </trkpt>
      <trkpt lat="28.6529000" lon="-17.9153320">
        <ele>323.8</ele>
        <time>2020-11-17T07:22:05Z</time>
      </trkpt>
      <trkpt lat="28.6529000" lon="-17.9153320">
        <ele>323.8</ele>
        <time>2020-11-17T07:22:06Z</time>
      </trkpt>
      <trkpt lat="28.6529150" lon="-17.9152750">
        <ele>324.0</ele>
        <time>2020-11-17T07:22:07Z</time>
      </trkpt>
      <trkpt lat="28.6529150" lon="-17.9152750">
        <ele>324.0</ele>
        <time>2020-11-17T07:22:08Z</time>
      </trkpt>
      <trkpt lat="28.6529350" lon="-17.9152170">
        <ele>324.2</ele>
        <time>2020-11-17T07:22:09Z</time>
      </trkpt>
      <trkpt lat="28.6529350" lon="-17.9152170">
        <ele>324.2</ele>
        <time>2020-11-17T07:22:10Z</time>
      </trkpt>
      <trkpt lat="28.6529580" lon="-17.9151650">
        <ele>324.4</ele>
        <time>2020-11-17T07:22:11Z</time>
      </trkpt>
      <trkpt lat="28.6529680" lon="-17.9151370">
        <ele>324.6</ele>
        <time>2020-11-17T07:22:12Z</time>
      </trkpt>
      <trkpt lat="28.6529680" lon="-17.9151370">
        <ele>324.6</ele>
        <time>2020-11-17T07:22:13Z</time>
      </trkpt>
      <trkpt lat="28.6529920" lon="-17.9150780">
        <ele>324.8</ele>
        <time>2020-11-17T07:22:14Z</time>
      </trkpt>
      <trkpt lat="28.6529920" lon="-17.9150780">
        <ele>324.8</ele>
        <time>2020-11-17T07:22:15Z</time>
      </trkpt>
      <trkpt lat="28.6530180" lon="-17.9150200">
        <ele>325.0</ele>
        <time>2020-11-17T07:22:16Z</time>
      </trkpt>
      <trkpt lat="28.6530300" lon="-17.9149920">
        <ele>325.1</ele>
        <time>2020-11-17T07:22:17Z</time>
      </trkpt>
      <trkpt lat="28.6530430" lon="-17.9149620">
        <ele>325.3</ele>
        <time>2020-11-17T07:22:18Z</time>
      </trkpt>
      <trkpt lat="28.6530430" lon="-17.9149620">
        <ele>325.3</ele>
        <time>2020-11-17T07:22:19Z</time>
      </trkpt>
      <trkpt lat="28.6530600" lon="-17.9149080">
        <ele>325.5</ele>
        <time>2020-11-17T07:22:20Z</time>
      </trkpt>
      <trkpt lat="28.6530700" lon="-17.9148800">
        <ele>325.6</ele>
        <time>2020-11-17T07:22:21Z</time>
      </trkpt>
      <trkpt lat="28.6530700" lon="-17.9148800">
        <ele>325.6</ele>
        <time>2020-11-17T07:22:22Z</time>
      </trkpt>
      <trkpt lat="28.6530900" lon="-17.9148270">
        <ele>325.8</ele>
        <time>2020-11-17T07:22:23Z</time>
      </trkpt>
      <trkpt lat="28.6530900" lon="-17.9148270">
        <ele>325.8</ele>
        <time>2020-11-17T07:22:24Z</time>
      </trkpt>
      <trkpt lat="28.6531050" lon="-17.9147700">
        <ele>326.0</ele>
        <time>2020-11-17T07:22:25Z</time>
      </trkpt>
      <trkpt lat="28.6531050" lon="-17.9147700">
        <ele>326.0</ele>
        <time>2020-11-17T07:22:26Z</time>
      </trkpt>
      <trkpt lat="28.6531270" lon="-17.9147130">
        <ele>326.3</ele>
        <time>2020-11-17T07:22:27Z</time>
      </trkpt>
      <trkpt lat="28.6531270" lon="-17.9147130">
        <ele>326.3</ele>
        <time>2020-11-17T07:22:28Z</time>
      </trkpt>
      <trkpt lat="28.6531500" lon="-17.9146580">
        <ele>326.5</ele>
        <time>2020-11-17T07:22:29Z</time>
      </trkpt>
      <trkpt lat="28.6531500" lon="-17.9146580">
        <ele>326.5</ele>
        <time>2020-11-17T07:22:30Z</time>
      </trkpt>
      <trkpt lat="28.6531630" lon="-17.9145970">
        <ele>326.8</ele>
        <time>2020-11-17T07:22:31Z</time>
      </trkpt>
      <trkpt lat="28.6531630" lon="-17.9145970">
        <ele>326.8</ele>
        <time>2020-11-17T07:22:32Z</time>
      </trkpt>
      <trkpt lat="28.6531930" lon="-17.9145330">
        <ele>327.1</ele>
        <time>2020-11-17T07:22:33Z</time>
      </trkpt>
      <trkpt lat="28.6531930" lon="-17.9145330">
        <ele>327.1</ele>
        <time>2020-11-17T07:22:34Z</time>
      </trkpt>
      <trkpt lat="28.6532180" lon="-17.9144730">
        <ele>327.4</ele>
        <time>2020-11-17T07:22:35Z</time>
      </trkpt>
      <trkpt lat="28.6532280" lon="-17.9144430">
        <ele>327.6</ele>
        <time>2020-11-17T07:22:36Z</time>
      </trkpt>
      <trkpt lat="28.6532280" lon="-17.9144430">
        <ele>327.6</ele>
        <time>2020-11-17T07:22:37Z</time>
      </trkpt>
      <trkpt lat="28.6532550" lon="-17.9143830">
        <ele>327.9</ele>
        <time>2020-11-17T07:22:38Z</time>
      </trkpt>
      <trkpt lat="28.6532550" lon="-17.9143830">
        <ele>327.9</ele>
        <time>2020-11-17T07:22:39Z</time>
      </trkpt>
      <trkpt lat="28.6532750" lon="-17.9143250">
        <ele>328.2</ele>
        <time>2020-11-17T07:22:40Z</time>
      </trkpt>
      <trkpt lat="28.6532870" lon="-17.9142980">
        <ele>328.3</ele>
        <time>2020-11-17T07:22:41Z</time>
      </trkpt>
      <trkpt lat="28.6532870" lon="-17.9142980">
        <ele>328.3</ele>
        <time>2020-11-17T07:22:42Z</time>
      </trkpt>
      <trkpt lat="28.6533080" lon="-17.9142620">
        <ele>328.5</ele>
        <time>2020-11-17T07:22:43Z</time>
      </trkpt>
      <trkpt lat="28.6533080" lon="-17.9142620">
        <ele>328.5</ele>
        <time>2020-11-17T07:22:44Z</time>
      </trkpt>
      <trkpt lat="28.6533280" lon="-17.9142230">
        <ele>328.7</ele>
        <time>2020-11-17T07:22:45Z</time>
      </trkpt>
      <trkpt lat="28.6533280" lon="-17.9142230">
        <ele>328.7</ele>
        <time>2020-11-17T07:22:46Z</time>
      </trkpt>
      <trkpt lat="28.6533520" lon="-17.9141770">
        <ele>329.0</ele>
        <time>2020-11-17T07:22:47Z</time>
      </trkpt>
      <trkpt lat="28.6533580" lon="-17.9141500">
        <ele>329.2</ele>
        <time>2020-11-17T07:22:48Z</time>
      </trkpt>
      <trkpt lat="28.6533580" lon="-17.9141500">
        <ele>329.2</ele>
        <time>2020-11-17T07:22:49Z</time>
      </trkpt>
      <trkpt lat="28.6533620" lon="-17.9140950">
        <ele>329.5</ele>
        <time>2020-11-17T07:22:50Z</time>
      </trkpt>
      <trkpt lat="28.6533650" lon="-17.9140820">
        <ele>329.5</ele>
        <time>2020-11-17T07:22:51Z</time>
      </trkpt>
      <trkpt lat="28.6533650" lon="-17.9140820">
        <ele>329.5</ele>
        <time>2020-11-17T07:22:52Z</time>
      </trkpt>
      <trkpt lat="28.6533720" lon="-17.9140620">
        <ele>329.7</ele>
        <time>2020-11-17T07:22:53Z</time>
      </trkpt>
      <trkpt lat="28.6533730" lon="-17.9140550">
        <ele>329.7</ele>
        <time>2020-11-17T07:22:54Z</time>
      </trkpt>
      <trkpt lat="28.6533730" lon="-17.9140550">
        <ele>329.7</ele>
        <time>2020-11-17T07:22:55Z</time>
      </trkpt>
      <trkpt lat="28.6533700" lon="-17.9140500">
        <ele>329.7</ele>
        <time>2020-11-17T07:23:05Z</time>
      </trkpt>
      <trkpt lat="28.6533870" lon="-17.9140050">
        <ele>330.0</ele>
        <time>2020-11-17T07:23:06Z</time>
      </trkpt>
      <trkpt lat="28.6533870" lon="-17.9140050">
        <ele>330.0</ele>
        <time>2020-11-17T07:23:07Z</time>
      </trkpt>
      <trkpt lat="28.6534180" lon="-17.9139530">
        <ele>330.3</ele>
        <time>2020-11-17T07:23:08Z</time>
      </trkpt>
      <trkpt lat="28.6534180" lon="-17.9139530">
        <ele>330.3</ele>
        <time>2020-11-17T07:23:09Z</time>
      </trkpt>
      <trkpt lat="28.6534530" lon="-17.9139030">
        <ele>330.5</ele>
        <time>2020-11-17T07:23:10Z</time>
      </trkpt>
      <trkpt lat="28.6534700" lon="-17.9138800">
        <ele>330.6</ele>
        <time>2020-11-17T07:23:11Z</time>
      </trkpt>
      <trkpt lat="28.6534700" lon="-17.9138800">
        <ele>330.6</ele>
        <time>2020-11-17T07:23:12Z</time>
      </trkpt>
      <trkpt lat="28.6535020" lon="-17.9138270">
        <ele>330.9</ele>
        <time>2020-11-17T07:23:13Z</time>
      </trkpt>
      <trkpt lat="28.6535170" lon="-17.9137930">
        <ele>331.0</ele>
        <time>2020-11-17T07:23:14Z</time>
      </trkpt>
      <trkpt lat="28.6535170" lon="-17.9137930">
        <ele>331.0</ele>
        <time>2020-11-17T07:23:15Z</time>
      </trkpt>
      <trkpt lat="28.6535530" lon="-17.9137400">
        <ele>331.2</ele>
        <time>2020-11-17T07:23:16Z</time>
      </trkpt>
      <trkpt lat="28.6535830" lon="-17.9137250">
        <ele>331.4</ele>
        <time>2020-11-17T07:23:17Z</time>
      </trkpt>
      <trkpt lat="28.6536070" lon="-17.9137050">
        <ele>331.5</ele>
        <time>2020-11-17T07:23:18Z</time>
      </trkpt>
      <trkpt lat="28.6536070" lon="-17.9137050">
        <ele>331.5</ele>
        <time>2020-11-17T07:23:19Z</time>
      </trkpt>
      <trkpt lat="28.6536400" lon="-17.9136600">
        <ele>331.7</ele>
        <time>2020-11-17T07:23:20Z</time>
      </trkpt>
      <trkpt lat="28.6536570" lon="-17.9136350">
        <ele>331.8</ele>
        <time>2020-11-17T07:23:21Z</time>
      </trkpt>
      <trkpt lat="28.6536570" lon="-17.9136350">
        <ele>331.8</ele>
        <time>2020-11-17T07:23:22Z</time>
      </trkpt>
      <trkpt lat="28.6536930" lon="-17.9135870">
        <ele>332.0</ele>
        <time>2020-11-17T07:23:23Z</time>
      </trkpt>
      <trkpt lat="28.6537100" lon="-17.9135620">
        <ele>332.2</ele>
        <time>2020-11-17T07:23:24Z</time>
      </trkpt>
      <trkpt lat="28.6537100" lon="-17.9135620">
        <ele>332.2</ele>
        <time>2020-11-17T07:23:25Z</time>
      </trkpt>
      <trkpt lat="28.6537480" lon="-17.9135150">
        <ele>332.4</ele>
        <time>2020-11-17T07:23:26Z</time>
      </trkpt>
      <trkpt lat="28.6537700" lon="-17.9134950">
        <ele>332.5</ele>
        <time>2020-11-17T07:23:27Z</time>
      </trkpt>
      <trkpt lat="28.6537700" lon="-17.9134950">
        <ele>332.5</ele>
        <time>2020-11-17T07:23:28Z</time>
      </trkpt>
      <trkpt lat="28.6538100" lon="-17.9134470">
        <ele>332.8</ele>
        <time>2020-11-17T07:23:29Z</time>
      </trkpt>
      <trkpt lat="28.6538330" lon="-17.9134280">
        <ele>333.0</ele>
        <time>2020-11-17T07:23:30Z</time>
      </trkpt>
      <trkpt lat="28.6538330" lon="-17.9134280">
        <ele>333.0</ele>
        <time>2020-11-17T07:23:31Z</time>
      </trkpt>
      <trkpt lat="28.6538750" lon="-17.9133830">
        <ele>333.3</ele>
        <time>2020-11-17T07:23:32Z</time>
      </trkpt>
      <trkpt lat="28.6538880" lon="-17.9133570">
        <ele>333.4</ele>
        <time>2020-11-17T07:23:33Z</time>
      </trkpt>
      <trkpt lat="28.6538880" lon="-17.9133570">
        <ele>333.4</ele>
        <time>2020-11-17T07:23:34Z</time>
      </trkpt>
      <trkpt lat="28.6539250" lon="-17.9133100">
        <ele>333.7</ele>
        <time>2020-11-17T07:23:35Z</time>
      </trkpt>
      <trkpt lat="28.6539450" lon="-17.9132870">
        <ele>333.9</ele>
        <time>2020-11-17T07:23:36Z</time>
      </trkpt>
      <trkpt lat="28.6539450" lon="-17.9132870">
        <ele>333.9</ele>
        <time>2020-11-17T07:23:37Z</time>
      </trkpt>
      <trkpt lat="28.6539900" lon="-17.9132350">
        <ele>334.2</ele>
        <time>2020-11-17T07:23:38Z</time>
      </trkpt>
      <trkpt lat="28.6540100" lon="-17.9132080">
        <ele>334.4</ele>
        <time>2020-11-17T07:23:39Z</time>
      </trkpt>
      <trkpt lat="28.6540100" lon="-17.9132080">
        <ele>334.4</ele>
        <time>2020-11-17T07:23:40Z</time>
      </trkpt>
      <trkpt lat="28.6540520" lon="-17.9131620">
        <ele>334.8</ele>
        <time>2020-11-17T07:23:41Z</time>
      </trkpt>
      <trkpt lat="28.6540520" lon="-17.9131620">
        <ele>334.8</ele>
        <time>2020-11-17T07:23:42Z</time>
      </trkpt>
      <trkpt lat="28.6540880" lon="-17.9131170">
        <ele>335.1</ele>
        <time>2020-11-17T07:23:43Z</time>
      </trkpt>
      <trkpt lat="28.6540880" lon="-17.9131170">
        <ele>335.1</ele>
        <time>2020-11-17T07:23:44Z</time>
      </trkpt>
      <trkpt lat="28.6541270" lon="-17.9130580">
        <ele>335.4</ele>
        <time>2020-11-17T07:23:45Z</time>
      </trkpt>
      <trkpt lat="28.6541270" lon="-17.9130580">
        <ele>335.4</ele>
        <time>2020-11-17T07:23:46Z</time>
      </trkpt>
      <trkpt lat="28.6541630" lon="-17.9130070">
        <ele>335.8</ele>
        <time>2020-11-17T07:23:47Z</time>
      </trkpt>
      <trkpt lat="28.6541830" lon="-17.9129820">
        <ele>335.9</ele>
        <time>2020-11-17T07:23:48Z</time>
      </trkpt>
      <trkpt lat="28.6541830" lon="-17.9129820">
        <ele>335.9</ele>
        <time>2020-11-17T07:23:49Z</time>
      </trkpt>
      <trkpt lat="28.6542300" lon="-17.9129400">
        <ele>336.1</ele>
        <time>2020-11-17T07:23:50Z</time>
      </trkpt>
      <trkpt lat="28.6542480" lon="-17.9129170">
        <ele>336.1</ele>
        <time>2020-11-17T07:23:51Z</time>
      </trkpt>
      <trkpt lat="28.6542650" lon="-17.9128930">
        <ele>336.2</ele>
        <time>2020-11-17T07:23:52Z</time>
      </trkpt>
      <trkpt lat="28.6542650" lon="-17.9128930">
        <ele>336.2</ele>
        <time>2020-11-17T07:23:53Z</time>
      </trkpt>
      <trkpt lat="28.6543050" lon="-17.9128530">
        <ele>336.3</ele>
        <time>2020-11-17T07:23:54Z</time>
      </trkpt>
      <trkpt lat="28.6543050" lon="-17.9128530">
        <ele>336.3</ele>
        <time>2020-11-17T07:23:55Z</time>
      </trkpt>
      <trkpt lat="28.6543470" lon="-17.9128170">
        <ele>336.6</ele>
        <time>2020-11-17T07:23:56Z</time>
      </trkpt>
      <trkpt lat="28.6543680" lon="-17.9127980">
        <ele>336.8</ele>
        <time>2020-11-17T07:23:57Z</time>
      </trkpt>
      <trkpt lat="28.6543680" lon="-17.9127980">
        <ele>336.8</ele>
        <time>2020-11-17T07:23:58Z</time>
      </trkpt>
      <trkpt lat="28.6544070" lon="-17.9127570">
        <ele>337.1</ele>
        <time>2020-11-17T07:23:59Z</time>
      </trkpt>
      <trkpt lat="28.6544070" lon="-17.9127570">
        <ele>337.1</ele>
        <time>2020-11-17T07:24:00Z</time>
      </trkpt>
      <trkpt lat="28.6544530" lon="-17.9127200">
        <ele>337.5</ele>
        <time>2020-11-17T07:24:01Z</time>
      </trkpt>
      <trkpt lat="28.6544530" lon="-17.9127200">
        <ele>337.5</ele>
        <time>2020-11-17T07:24:02Z</time>
      </trkpt>
      <trkpt lat="28.6545000" lon="-17.9126880">
        <ele>337.8</ele>
        <time>2020-11-17T07:24:03Z</time>
      </trkpt>
      <trkpt lat="28.6545230" lon="-17.9126750">
        <ele>338.0</ele>
        <time>2020-11-17T07:24:04Z</time>
      </trkpt>
      <trkpt lat="28.6545230" lon="-17.9126750">
        <ele>338.0</ele>
        <time>2020-11-17T07:24:05Z</time>
      </trkpt>
      <trkpt lat="28.6545700" lon="-17.9126570">
        <ele>338.3</ele>
        <time>2020-11-17T07:24:06Z</time>
      </trkpt>
      <trkpt lat="28.6545700" lon="-17.9126570">
        <ele>338.3</ele>
        <time>2020-11-17T07:24:07Z</time>
      </trkpt>
      <trkpt lat="28.6546220" lon="-17.9126450">
        <ele>338.6</ele>
        <time>2020-11-17T07:24:08Z</time>
      </trkpt>
      <trkpt lat="28.6546480" lon="-17.9126370">
        <ele>338.7</ele>
        <time>2020-11-17T07:24:09Z</time>
      </trkpt>
      <trkpt lat="28.6546730" lon="-17.9126300">
        <ele>338.9</ele>
        <time>2020-11-17T07:24:10Z</time>
      </trkpt>
      <trkpt lat="28.6546730" lon="-17.9126300">
        <ele>338.9</ele>
        <time>2020-11-17T07:24:11Z</time>
      </trkpt>
      <trkpt lat="28.6547250" lon="-17.9126200">
        <ele>339.2</ele>
        <time>2020-11-17T07:24:12Z</time>
      </trkpt>
      <trkpt lat="28.6547250" lon="-17.9126200">
        <ele>339.2</ele>
        <time>2020-11-17T07:24:13Z</time>
      </trkpt>
      <trkpt lat="28.6547770" lon="-17.9126180">
        <ele>339.5</ele>
        <time>2020-11-17T07:24:14Z</time>
      </trkpt>
      <trkpt lat="28.6547980" lon="-17.9126150">
        <ele>339.6</ele>
        <time>2020-11-17T07:24:15Z</time>
      </trkpt>
      <trkpt lat="28.6548220" lon="-17.9126150">
        <ele>339.8</ele>
        <time>2020-11-17T07:24:16Z</time>
      </trkpt>
      <trkpt lat="28.6548220" lon="-17.9126150">
        <ele>339.8</ele>
        <time>2020-11-17T07:24:17Z</time>
      </trkpt>
      <trkpt lat="28.6548700" lon="-17.9126170">
        <ele>340.0</ele>
        <time>2020-11-17T07:24:18Z</time>
      </trkpt>
      <trkpt lat="28.6548700" lon="-17.9126170">
        <ele>340.0</ele>
        <time>2020-11-17T07:24:19Z</time>
      </trkpt>
      <trkpt lat="28.6549180" lon="-17.9126200">
        <ele>340.3</ele>
        <time>2020-11-17T07:24:20Z</time>
      </trkpt>
      <trkpt lat="28.6549180" lon="-17.9126200">
        <ele>340.3</ele>
        <time>2020-11-17T07:24:21Z</time>
      </trkpt>
      <trkpt lat="28.6549700" lon="-17.9126270">
        <ele>340.6</ele>
        <time>2020-11-17T07:24:22Z</time>
      </trkpt>
      <trkpt lat="28.6549700" lon="-17.9126270">
        <ele>340.6</ele>
        <time>2020-11-17T07:24:23Z</time>
      </trkpt>
      <trkpt lat="28.6550270" lon="-17.9126320">
        <ele>340.8</ele>
        <time>2020-11-17T07:24:24Z</time>
      </trkpt>
      <trkpt lat="28.6550270" lon="-17.9126320">
        <ele>340.8</ele>
        <time>2020-11-17T07:24:25Z</time>
      </trkpt>
      <trkpt lat="28.6550870" lon="-17.9126380">
        <ele>341.1</ele>
        <time>2020-11-17T07:24:26Z</time>
      </trkpt>
      <trkpt lat="28.6550870" lon="-17.9126380">
        <ele>341.1</ele>
        <time>2020-11-17T07:24:27Z</time>
      </trkpt>
      <trkpt lat="28.6551420" lon="-17.9126430">
        <ele>341.5</ele>
        <time>2020-11-17T07:24:28Z</time>
      </trkpt>
      <trkpt lat="28.6551420" lon="-17.9126430">
        <ele>341.5</ele>
        <time>2020-11-17T07:24:29Z</time>
      </trkpt>
      <trkpt lat="28.6552000" lon="-17.9126470">
        <ele>341.5</ele>
        <time>2020-11-17T07:24:30Z</time>
      </trkpt>
      <trkpt lat="28.6552000" lon="-17.9126470">
        <ele>341.5</ele>
        <time>2020-11-17T07:24:31Z</time>
      </trkpt>
      <trkpt lat="28.6552570" lon="-17.9126480">
        <ele>341.7</ele>
        <time>2020-11-17T07:24:32Z</time>
      </trkpt>
      <trkpt lat="28.6552850" lon="-17.9126500">
        <ele>341.8</ele>
        <time>2020-11-17T07:24:33Z</time>
      </trkpt>
      <trkpt lat="28.6552850" lon="-17.9126500">
        <ele>341.8</ele>
        <time>2020-11-17T07:24:34Z</time>
      </trkpt>
      <trkpt lat="28.6553430" lon="-17.9126520">
        <ele>342.2</ele>
        <time>2020-11-17T07:24:35Z</time>
      </trkpt>
      <trkpt lat="28.6553430" lon="-17.9126520">
        <ele>342.2</ele>
        <time>2020-11-17T07:24:36Z</time>
      </trkpt>
      <trkpt lat="28.6554000" lon="-17.9126570">
        <ele>342.2</ele>
        <time>2020-11-17T07:24:37Z</time>
      </trkpt>
      <trkpt lat="28.6554000" lon="-17.9126570">
        <ele>342.2</ele>
        <time>2020-11-17T07:24:38Z</time>
      </trkpt>
      <trkpt lat="28.6554570" lon="-17.9126650">
        <ele>342.5</ele>
        <time>2020-11-17T07:24:39Z</time>
      </trkpt>
      <trkpt lat="28.6554830" lon="-17.9126700">
        <ele>342.6</ele>
        <time>2020-11-17T07:24:40Z</time>
      </trkpt>
      <trkpt lat="28.6555120" lon="-17.9126730">
        <ele>342.7</ele>
        <time>2020-11-17T07:24:41Z</time>
      </trkpt>
      <trkpt lat="28.6555120" lon="-17.9126730">
        <ele>342.7</ele>
        <time>2020-11-17T07:24:42Z</time>
      </trkpt>
      <trkpt lat="28.6555680" lon="-17.9126820">
        <ele>342.9</ele>
        <time>2020-11-17T07:24:43Z</time>
      </trkpt>
      <trkpt lat="28.6555680" lon="-17.9126820">
        <ele>342.9</ele>
        <time>2020-11-17T07:24:44Z</time>
      </trkpt>
      <trkpt lat="28.6556230" lon="-17.9126870">
        <ele>343.2</ele>
        <time>2020-11-17T07:24:45Z</time>
      </trkpt>
      <trkpt lat="28.6556550" lon="-17.9126850">
        <ele>343.3</ele>
        <time>2020-11-17T07:24:46Z</time>
      </trkpt>
      <trkpt lat="28.6556550" lon="-17.9126850">
        <ele>343.3</ele>
        <time>2020-11-17T07:24:47Z</time>
      </trkpt>
      <trkpt lat="28.6557150" lon="-17.9126800">
        <ele>343.6</ele>
        <time>2020-11-17T07:24:48Z</time>
      </trkpt>
      <trkpt lat="28.6557150" lon="-17.9126800">
        <ele>343.6</ele>
        <time>2020-11-17T07:24:49Z</time>
      </trkpt>
      <trkpt lat="28.6557770" lon="-17.9126720">
        <ele>343.8</ele>
        <time>2020-11-17T07:24:50Z</time>
      </trkpt>
      <trkpt lat="28.6557770" lon="-17.9126720">
        <ele>343.8</ele>
        <time>2020-11-17T07:24:51Z</time>
      </trkpt>
      <trkpt lat="28.6558370" lon="-17.9126800">
        <ele>344.1</ele>
        <time>2020-11-17T07:24:52Z</time>
      </trkpt>
      <trkpt lat="28.6558370" lon="-17.9126800">
        <ele>344.1</ele>
        <time>2020-11-17T07:24:53Z</time>
      </trkpt>
      <trkpt lat="28.6558950" lon="-17.9126780">
        <ele>344.2</ele>
        <time>2020-11-17T07:24:54Z</time>
      </trkpt>
      <trkpt lat="28.6558950" lon="-17.9126780">
        <ele>344.2</ele>
        <time>2020-11-17T07:24:55Z</time>
      </trkpt>
      <trkpt lat="28.6559520" lon="-17.9126870">
        <ele>344.3</ele>
        <time>2020-11-17T07:24:56Z</time>
      </trkpt>
      <trkpt lat="28.6559800" lon="-17.9126950">
        <ele>344.4</ele>
        <time>2020-11-17T07:24:57Z</time>
      </trkpt>
      <trkpt lat="28.6560070" lon="-17.9127050">
        <ele>344.5</ele>
        <time>2020-11-17T07:24:58Z</time>
      </trkpt>
      <trkpt lat="28.6560070" lon="-17.9127050">
        <ele>344.5</ele>
        <time>2020-11-17T07:24:59Z</time>
      </trkpt>
      <trkpt lat="28.6560620" lon="-17.9127180">
        <ele>344.6</ele>
        <time>2020-11-17T07:25:00Z</time>
      </trkpt>
      <trkpt lat="28.6560620" lon="-17.9127180">
        <ele>344.6</ele>
        <time>2020-11-17T07:25:01Z</time>
      </trkpt>
      <trkpt lat="28.6561130" lon="-17.9127300">
        <ele>344.7</ele>
        <time>2020-11-17T07:25:02Z</time>
      </trkpt>
      <trkpt lat="28.6561380" lon="-17.9127330">
        <ele>344.8</ele>
        <time>2020-11-17T07:25:03Z</time>
      </trkpt>
      <trkpt lat="28.6561380" lon="-17.9127330">
        <ele>344.8</ele>
        <time>2020-11-17T07:25:04Z</time>
      </trkpt>
      <trkpt lat="28.6561900" lon="-17.9127470">
        <ele>345.0</ele>
        <time>2020-11-17T07:25:05Z</time>
      </trkpt>
      <trkpt lat="28.6562150" lon="-17.9127550">
        <ele>345.1</ele>
        <time>2020-11-17T07:25:06Z</time>
      </trkpt>
      <trkpt lat="28.6562150" lon="-17.9127550">
        <ele>345.1</ele>
        <time>2020-11-17T07:25:07Z</time>
      </trkpt>
      <trkpt lat="28.6562700" lon="-17.9127620">
        <ele>345.3</ele>
        <time>2020-11-17T07:25:08Z</time>
      </trkpt>
      <trkpt lat="28.6562970" lon="-17.9127700">
        <ele>345.4</ele>
        <time>2020-11-17T07:25:09Z</time>
      </trkpt>
      <trkpt lat="28.6563220" lon="-17.9127780">
        <ele>345.5</ele>
        <time>2020-11-17T07:25:10Z</time>
      </trkpt>
      <trkpt lat="28.6563220" lon="-17.9127780">
        <ele>345.5</ele>
        <time>2020-11-17T07:25:11Z</time>
      </trkpt>
      <trkpt lat="28.6563720" lon="-17.9127980">
        <ele>345.6</ele>
        <time>2020-11-17T07:25:12Z</time>
      </trkpt>
      <trkpt lat="28.6563720" lon="-17.9127980">
        <ele>345.6</ele>
        <time>2020-11-17T07:25:13Z</time>
      </trkpt>
      <trkpt lat="28.6564150" lon="-17.9128250">
        <ele>345.8</ele>
        <time>2020-11-17T07:25:14Z</time>
      </trkpt>
      <trkpt lat="28.6564370" lon="-17.9128430">
        <ele>345.9</ele>
        <time>2020-11-17T07:25:15Z</time>
      </trkpt>
      <trkpt lat="28.6564370" lon="-17.9128430">
        <ele>345.9</ele>
        <time>2020-11-17T07:25:16Z</time>
      </trkpt>
      <trkpt lat="28.6564880" lon="-17.9128630">
        <ele>346.0</ele>
        <time>2020-11-17T07:25:17Z</time>
      </trkpt>
      <trkpt lat="28.6565120" lon="-17.9128670">
        <ele>346.1</ele>
        <time>2020-11-17T07:25:18Z</time>
      </trkpt>
      <trkpt lat="28.6565120" lon="-17.9128670">
        <ele>346.1</ele>
        <time>2020-11-17T07:25:19Z</time>
      </trkpt>
      <trkpt lat="28.6565530" lon="-17.9129130">
        <ele>346.3</ele>
        <time>2020-11-17T07:25:20Z</time>
      </trkpt>
      <trkpt lat="28.6565770" lon="-17.9129280">
        <ele>346.4</ele>
        <time>2020-11-17T07:25:21Z</time>
      </trkpt>
      <trkpt lat="28.6565770" lon="-17.9129280">
        <ele>346.4</ele>
        <time>2020-11-17T07:25:22Z</time>
      </trkpt>
      <trkpt lat="28.6566220" lon="-17.9129520">
        <ele>346.5</ele>
        <time>2020-11-17T07:25:23Z</time>
      </trkpt>
      <trkpt lat="28.6566650" lon="-17.9129270">
        <ele>346.6</ele>
        <time>2020-11-17T07:25:24Z</time>
      </trkpt>
      <trkpt lat="28.6566650" lon="-17.9129270">
        <ele>346.6</ele>
        <time>2020-11-17T07:25:25Z</time>
      </trkpt>
      <trkpt lat="28.6567270" lon="-17.9129300">
        <ele>346.8</ele>
        <time>2020-11-17T07:25:26Z</time>
      </trkpt>
      <trkpt lat="28.6567270" lon="-17.9129300">
        <ele>346.8</ele>
        <time>2020-11-17T07:25:27Z</time>
      </trkpt>
      <trkpt lat="28.6567880" lon="-17.9129380">
        <ele>347.0</ele>
        <time>2020-11-17T07:25:28Z</time>
      </trkpt>
      <trkpt lat="28.6567880" lon="-17.9129380">
        <ele>347.0</ele>
        <time>2020-11-17T07:25:29Z</time>
      </trkpt>
      <trkpt lat="28.6568480" lon="-17.9129450">
        <ele>347.2</ele>
        <time>2020-11-17T07:25:30Z</time>
      </trkpt>
      <trkpt lat="28.6568480" lon="-17.9129450">
        <ele>347.2</ele>
        <time>2020-11-17T07:25:31Z</time>
      </trkpt>
      <trkpt lat="28.6569030" lon="-17.9129620">
        <ele>347.3</ele>
        <time>2020-11-17T07:25:32Z</time>
      </trkpt>
      <trkpt lat="28.6569270" lon="-17.9129700">
        <ele>347.3</ele>
        <time>2020-11-17T07:25:33Z</time>
      </trkpt>
      <trkpt lat="28.6569270" lon="-17.9129700">
        <ele>347.3</ele>
        <time>2020-11-17T07:25:34Z</time>
      </trkpt>
      <trkpt lat="28.6569550" lon="-17.9130270">
        <ele>347.4</ele>
        <time>2020-11-17T07:25:35Z</time>
      </trkpt>
      <trkpt lat="28.6569730" lon="-17.9130570">
        <ele>347.5</ele>
        <time>2020-11-17T07:25:36Z</time>
      </trkpt>
      <trkpt lat="28.6569730" lon="-17.9130570">
        <ele>347.5</ele>
        <time>2020-11-17T07:25:37Z</time>
      </trkpt>
      <trkpt lat="28.6569920" lon="-17.9131130">
        <ele>347.6</ele>
        <time>2020-11-17T07:25:38Z</time>
      </trkpt>
      <trkpt lat="28.6569870" lon="-17.9131120">
        <ele>347.6</ele>
        <time>2020-11-17T07:25:39Z</time>
      </trkpt>
      <trkpt lat="28.6569870" lon="-17.9131120">
        <ele>347.6</ele>
        <time>2020-11-17T07:25:40Z</time>
      </trkpt>
      <trkpt lat="28.6570050" lon="-17.9130950">
        <ele>347.7</ele>
        <time>2020-11-17T07:25:41Z</time>
      </trkpt>
      <trkpt lat="28.6570050" lon="-17.9130950">
        <ele>347.7</ele>
        <time>2020-11-17T07:25:42Z</time>
      </trkpt>
      <trkpt lat="28.6570050" lon="-17.9130950">
        <ele>347.7</ele>
        <time>2020-11-17T07:25:43Z</time>
      </trkpt>
      <trkpt lat="28.6570050" lon="-17.9130950">
        <ele>347.7</ele>
        <time>2020-11-17T07:26:26Z</time>
      </trkpt>
      <trkpt lat="28.6571300" lon="-17.9130770">
        <ele>348.0</ele>
        <time>2020-11-17T07:26:27Z</time>
      </trkpt>
      <trkpt lat="28.6571300" lon="-17.9130770">
        <ele>348.0</ele>
        <time>2020-11-17T07:26:28Z</time>
      </trkpt>
      <trkpt lat="28.6571680" lon="-17.9130680">
        <ele>348.1</ele>
        <time>2020-11-17T07:26:29Z</time>
      </trkpt>
      <trkpt lat="28.6571680" lon="-17.9130680">
        <ele>348.1</ele>
        <time>2020-11-17T07:26:30Z</time>
      </trkpt>
      <trkpt lat="28.6572330" lon="-17.9130770">
        <ele>348.4</ele>
        <time>2020-11-17T07:26:31Z</time>
      </trkpt>
      <trkpt lat="28.6572570" lon="-17.9130980">
        <ele>348.4</ele>
        <time>2020-11-17T07:26:32Z</time>
      </trkpt>
      <trkpt lat="28.6572570" lon="-17.9130980">
        <ele>348.4</ele>
        <time>2020-11-17T07:26:33Z</time>
      </trkpt>
      <trkpt lat="28.6573020" lon="-17.9131450">
        <ele>348.4</ele>
        <time>2020-11-17T07:26:34Z</time>
      </trkpt>
      <trkpt lat="28.6573020" lon="-17.9131450">
        <ele>348.4</ele>
        <time>2020-11-17T07:26:35Z</time>
      </trkpt>
      <trkpt lat="28.6573370" lon="-17.9132120">
        <ele>348.4</ele>
        <time>2020-11-17T07:26:36Z</time>
      </trkpt>
      <trkpt lat="28.6573370" lon="-17.9132120">
        <ele>348.4</ele>
        <time>2020-11-17T07:26:37Z</time>
      </trkpt>
      <trkpt lat="28.6573770" lon="-17.9132730">
        <ele>348.3</ele>
        <time>2020-11-17T07:26:38Z</time>
      </trkpt>
      <trkpt lat="28.6573770" lon="-17.9132730">
        <ele>348.3</ele>
        <time>2020-11-17T07:26:39Z</time>
      </trkpt>
      <trkpt lat="28.6574100" lon="-17.9133370">
        <ele>348.2</ele>
        <time>2020-11-17T07:26:40Z</time>
      </trkpt>
      <trkpt lat="28.6574230" lon="-17.9133720">
        <ele>348.2</ele>
        <time>2020-11-17T07:26:41Z</time>
      </trkpt>
      <trkpt lat="28.6574230" lon="-17.9133720">
        <ele>348.2</ele>
        <time>2020-11-17T07:26:42Z</time>
      </trkpt>
      <trkpt lat="28.6574520" lon="-17.9134470">
        <ele>348.1</ele>
        <time>2020-11-17T07:26:43Z</time>
      </trkpt>
      <trkpt lat="28.6574670" lon="-17.9134880">
        <ele>348.1</ele>
        <time>2020-11-17T07:26:44Z</time>
      </trkpt>
      <trkpt lat="28.6574670" lon="-17.9134880">
        <ele>348.1</ele>
        <time>2020-11-17T07:26:45Z</time>
      </trkpt>
      <trkpt lat="28.6574970" lon="-17.9135700">
        <ele>348.0</ele>
        <time>2020-11-17T07:26:46Z</time>
      </trkpt>
      <trkpt lat="28.6574970" lon="-17.9135700">
        <ele>348.0</ele>
        <time>2020-11-17T07:26:47Z</time>
      </trkpt>
      <trkpt lat="28.6575380" lon="-17.9136480">
        <ele>347.9</ele>
        <time>2020-11-17T07:26:48Z</time>
      </trkpt>
      <trkpt lat="28.6575380" lon="-17.9136480">
        <ele>347.9</ele>
        <time>2020-11-17T07:26:49Z</time>
      </trkpt>
      <trkpt lat="28.6575780" lon="-17.9137320">
        <ele>347.8</ele>
        <time>2020-11-17T07:26:50Z</time>
      </trkpt>
      <trkpt lat="28.6575970" lon="-17.9137730">
        <ele>347.7</ele>
        <time>2020-11-17T07:26:51Z</time>
      </trkpt>
      <trkpt lat="28.6575970" lon="-17.9137730">
        <ele>347.7</ele>
        <time>2020-11-17T07:26:52Z</time>
      </trkpt>
      <trkpt lat="28.6576220" lon="-17.9138700">
        <ele>347.5</ele>
        <time>2020-11-17T07:26:53Z</time>
      </trkpt>
      <trkpt lat="28.6576350" lon="-17.9139150">
        <ele>347.5</ele>
        <time>2020-11-17T07:26:54Z</time>
      </trkpt>
      <trkpt lat="28.6576350" lon="-17.9139150">
        <ele>347.5</ele>
        <time>2020-11-17T07:26:55Z</time>
      </trkpt>
      <trkpt lat="28.6576650" lon="-17.9140070">
        <ele>347.3</ele>
        <time>2020-11-17T07:26:56Z</time>
      </trkpt>
      <trkpt lat="28.6576870" lon="-17.9140480">
        <ele>347.2</ele>
        <time>2020-11-17T07:26:57Z</time>
      </trkpt>
      <trkpt lat="28.6576870" lon="-17.9140480">
        <ele>347.2</ele>
        <time>2020-11-17T07:26:58Z</time>
      </trkpt>
      <trkpt lat="28.6577720" lon="-17.9141130">
        <ele>347.0</ele>
        <time>2020-11-17T07:26:59Z</time>
      </trkpt>
      <trkpt lat="28.6577720" lon="-17.9141130">
        <ele>347.0</ele>
        <time>2020-11-17T07:27:00Z</time>
      </trkpt>
      <trkpt lat="28.6578480" lon="-17.9141320">
        <ele>347.0</ele>
        <time>2020-11-17T07:27:01Z</time>
      </trkpt>
      <trkpt lat="28.6578480" lon="-17.9141320">
        <ele>347.0</ele>
        <time>2020-11-17T07:27:02Z</time>
      </trkpt>
      <trkpt lat="28.6579200" lon="-17.9141330">
        <ele>346.9</ele>
        <time>2020-11-17T07:27:03Z</time>
      </trkpt>
      <trkpt lat="28.6579200" lon="-17.9141330">
        <ele>346.9</ele>
        <time>2020-11-17T07:27:04Z</time>
      </trkpt>
      <trkpt lat="28.6579870" lon="-17.9141230">
        <ele>346.9</ele>
        <time>2020-11-17T07:27:05Z</time>
      </trkpt>
      <trkpt lat="28.6580200" lon="-17.9141150">
        <ele>346.8</ele>
        <time>2020-11-17T07:27:06Z</time>
      </trkpt>
      <trkpt lat="28.6580200" lon="-17.9141150">
        <ele>346.8</ele>
        <time>2020-11-17T07:27:07Z</time>
      </trkpt>
      <trkpt lat="28.6580970" lon="-17.9141000">
        <ele>346.7</ele>
        <time>2020-11-17T07:27:08Z</time>
      </trkpt>
      <trkpt lat="28.6580970" lon="-17.9141000">
        <ele>346.7</ele>
        <time>2020-11-17T07:27:09Z</time>
      </trkpt>
      <trkpt lat="28.6581730" lon="-17.9140900">
        <ele>346.7</ele>
        <time>2020-11-17T07:27:10Z</time>
      </trkpt>
      <trkpt lat="28.6581730" lon="-17.9140900">
        <ele>346.7</ele>
        <time>2020-11-17T07:27:11Z</time>
      </trkpt>
      <trkpt lat="28.6582520" lon="-17.9140820">
        <ele>346.6</ele>
        <time>2020-11-17T07:27:12Z</time>
      </trkpt>
      <trkpt lat="28.6582520" lon="-17.9140820">
        <ele>346.6</ele>
        <time>2020-11-17T07:27:13Z</time>
      </trkpt>
      <trkpt lat="28.6583270" lon="-17.9140780">
        <ele>346.5</ele>
        <time>2020-11-17T07:27:14Z</time>
      </trkpt>
      <trkpt lat="28.6583270" lon="-17.9140780">
        <ele>346.5</ele>
        <time>2020-11-17T07:27:15Z</time>
      </trkpt>
      <trkpt lat="28.6584000" lon="-17.9140870">
        <ele>346.4</ele>
        <time>2020-11-17T07:27:16Z</time>
      </trkpt>
      <trkpt lat="28.6584000" lon="-17.9140870">
        <ele>346.4</ele>
        <time>2020-11-17T07:27:17Z</time>
      </trkpt>
      <trkpt lat="28.6584780" lon="-17.9140730">
        <ele>346.4</ele>
        <time>2020-11-17T07:27:18Z</time>
      </trkpt>
      <trkpt lat="28.6584780" lon="-17.9140730">
        <ele>346.4</ele>
        <time>2020-11-17T07:27:19Z</time>
      </trkpt>
      <trkpt lat="28.6585570" lon="-17.9140680">
        <ele>346.3</ele>
        <time>2020-11-17T07:27:20Z</time>
      </trkpt>
      <trkpt lat="28.6585570" lon="-17.9140680">
        <ele>346.3</ele>
        <time>2020-11-17T07:27:21Z</time>
      </trkpt>
      <trkpt lat="28.6586330" lon="-17.9140670">
        <ele>346.3</ele>
        <time>2020-11-17T07:27:22Z</time>
      </trkpt>
      <trkpt lat="28.6586330" lon="-17.9140670">
        <ele>346.3</ele>
        <time>2020-11-17T07:27:23Z</time>
      </trkpt>
      <trkpt lat="28.6587130" lon="-17.9140480">
        <ele>346.3</ele>
        <time>2020-11-17T07:27:24Z</time>
      </trkpt>
      <trkpt lat="28.6587130" lon="-17.9140480">
        <ele>346.3</ele>
        <time>2020-11-17T07:27:25Z</time>
      </trkpt>
      <trkpt lat="28.6587730" lon="-17.9140100">
        <ele>346.1</ele>
        <time>2020-11-17T07:27:26Z</time>
      </trkpt>
      <trkpt lat="28.6587730" lon="-17.9140100">
        <ele>346.1</ele>
        <time>2020-11-17T07:27:27Z</time>
      </trkpt>
      <trkpt lat="28.6588030" lon="-17.9139430">
        <ele>346.3</ele>
        <time>2020-11-17T07:27:28Z</time>
      </trkpt>
      <trkpt lat="28.6588080" lon="-17.9139130">
        <ele>346.3</ele>
        <time>2020-11-17T07:27:29Z</time>
      </trkpt>
      <trkpt lat="28.6588080" lon="-17.9139130">
        <ele>346.3</ele>
        <time>2020-11-17T07:27:30Z</time>
      </trkpt>
      <trkpt lat="28.6588100" lon="-17.9138630">
        <ele>346.4</ele>
        <time>2020-11-17T07:27:31Z</time>
      </trkpt>
      <trkpt lat="28.6588100" lon="-17.9138630">
        <ele>346.4</ele>
        <time>2020-11-17T07:27:32Z</time>
      </trkpt>
      <trkpt lat="28.6588220" lon="-17.9138150">
        <ele>346.5</ele>
        <time>2020-11-17T07:27:33Z</time>
      </trkpt>
      <trkpt lat="28.6588220" lon="-17.9138150">
        <ele>346.5</ele>
        <time>2020-11-17T07:27:34Z</time>
      </trkpt>
      <trkpt lat="28.6588370" lon="-17.9137680">
        <ele>346.6</ele>
        <time>2020-11-17T07:27:35Z</time>
      </trkpt>
      <trkpt lat="28.6588370" lon="-17.9137680">
        <ele>346.6</ele>
        <time>2020-11-17T07:27:36Z</time>
      </trkpt>
      <trkpt lat="28.6588320" lon="-17.9137080">
        <ele>346.7</ele>
        <time>2020-11-17T07:27:37Z</time>
      </trkpt>
      <trkpt lat="28.6588320" lon="-17.9137080">
        <ele>346.7</ele>
        <time>2020-11-17T07:27:38Z</time>
      </trkpt>
      <trkpt lat="28.6588300" lon="-17.9136450">
        <ele>346.8</ele>
        <time>2020-11-17T07:27:39Z</time>
      </trkpt>
      <trkpt lat="28.6588300" lon="-17.9136450">
        <ele>346.8</ele>
        <time>2020-11-17T07:27:40Z</time>
      </trkpt>
      <trkpt lat="28.6588380" lon="-17.9135800">
        <ele>346.9</ele>
        <time>2020-11-17T07:27:41Z</time>
      </trkpt>
      <trkpt lat="28.6588380" lon="-17.9135800">
        <ele>346.9</ele>
        <time>2020-11-17T07:27:42Z</time>
      </trkpt>
      <trkpt lat="28.6588370" lon="-17.9135180">
        <ele>347.0</ele>
        <time>2020-11-17T07:27:43Z</time>
      </trkpt>
      <trkpt lat="28.6588370" lon="-17.9135180">
        <ele>347.0</ele>
        <time>2020-11-17T07:27:44Z</time>
      </trkpt>
      <trkpt lat="28.6588350" lon="-17.9134670">
        <ele>347.1</ele>
        <time>2020-11-17T07:27:45Z</time>
      </trkpt>
      <trkpt lat="28.6588350" lon="-17.9134670">
        <ele>347.1</ele>
        <time>2020-11-17T07:27:46Z</time>
      </trkpt>
      <trkpt lat="28.6588280" lon="-17.9134120">
        <ele>347.2</ele>
        <time>2020-11-17T07:27:47Z</time>
      </trkpt>
      <trkpt lat="28.6588230" lon="-17.9133870">
        <ele>347.3</ele>
        <time>2020-11-17T07:27:48Z</time>
      </trkpt>
      <trkpt lat="28.6588230" lon="-17.9133870">
        <ele>347.3</ele>
        <time>2020-11-17T07:27:49Z</time>
      </trkpt>
      <trkpt lat="28.6588130" lon="-17.9133330">
        <ele>347.4</ele>
        <time>2020-11-17T07:27:50Z</time>
      </trkpt>
      <trkpt lat="28.6588100" lon="-17.9133070">
        <ele>347.5</ele>
        <time>2020-11-17T07:27:51Z</time>
      </trkpt>
      <trkpt lat="28.6588100" lon="-17.9133070">
        <ele>347.5</ele>
        <time>2020-11-17T07:27:52Z</time>
      </trkpt>
      <trkpt lat="28.6588070" lon="-17.9132500">
        <ele>347.6</ele>
        <time>2020-11-17T07:27:53Z</time>
      </trkpt>
      <trkpt lat="28.6588070" lon="-17.9132500">
        <ele>347.6</ele>
        <time>2020-11-17T07:27:54Z</time>
      </trkpt>
      <trkpt lat="28.6587950" lon="-17.9131880">
        <ele>347.8</ele>
        <time>2020-11-17T07:27:55Z</time>
      </trkpt>
      <trkpt lat="28.6587900" lon="-17.9131600">
        <ele>347.9</ele>
        <time>2020-11-17T07:27:56Z</time>
      </trkpt>
      <trkpt lat="28.6587900" lon="-17.9131600">
        <ele>347.9</ele>
        <time>2020-11-17T07:27:57Z</time>
      </trkpt>
      <trkpt lat="28.6587800" lon="-17.9131120">
        <ele>348.0</ele>
        <time>2020-11-17T07:27:58Z</time>
      </trkpt>
      <trkpt lat="28.6587800" lon="-17.9131120">
        <ele>348.0</ele>
        <time>2020-11-17T07:27:59Z</time>
      </trkpt>
      <trkpt lat="28.6587730" lon="-17.9130630">
        <ele>348.2</ele>
        <time>2020-11-17T07:28:00Z</time>
      </trkpt>
      <trkpt lat="28.6587730" lon="-17.9130630">
        <ele>348.2</ele>
        <time>2020-11-17T07:28:01Z</time>
      </trkpt>
      <trkpt lat="28.6587730" lon="-17.9130120">
        <ele>348.3</ele>
        <time>2020-11-17T07:28:02Z</time>
      </trkpt>
      <trkpt lat="28.6587730" lon="-17.9130120">
        <ele>348.3</ele>
        <time>2020-11-17T07:28:03Z</time>
      </trkpt>
      <trkpt lat="28.6587670" lon="-17.9129620">
        <ele>348.5</ele>
        <time>2020-11-17T07:28:04Z</time>
      </trkpt>
      <trkpt lat="28.6587670" lon="-17.9129620">
        <ele>348.5</ele>
        <time>2020-11-17T07:28:05Z</time>
      </trkpt>
      <trkpt lat="28.6587600" lon="-17.9129220">
        <ele>348.6</ele>
        <time>2020-11-17T07:28:06Z</time>
      </trkpt>
      <trkpt lat="28.6587600" lon="-17.9129220">
        <ele>348.6</ele>
        <time>2020-11-17T07:28:07Z</time>
      </trkpt>
      <trkpt lat="28.6587530" lon="-17.9128880">
        <ele>348.7</ele>
        <time>2020-11-17T07:28:08Z</time>
      </trkpt>
      <trkpt lat="28.6587530" lon="-17.9128880">
        <ele>348.7</ele>
        <time>2020-11-17T07:28:09Z</time>
      </trkpt>
      <trkpt lat="28.6587450" lon="-17.9128650">
        <ele>348.8</ele>
        <time>2020-11-17T07:28:10Z</time>
      </trkpt>
      <trkpt lat="28.6587450" lon="-17.9128650">
        <ele>348.8</ele>
        <time>2020-11-17T07:28:11Z</time>
      </trkpt>
      <trkpt lat="28.6587470" lon="-17.9128270">
        <ele>348.9</ele>
        <time>2020-11-17T07:28:12Z</time>
      </trkpt>
      <trkpt lat="28.6587470" lon="-17.9128270">
        <ele>348.9</ele>
        <time>2020-11-17T07:28:13Z</time>
      </trkpt>
      <trkpt lat="28.6587470" lon="-17.9128020">
        <ele>349.0</ele>
        <time>2020-11-17T07:28:14Z</time>
      </trkpt>
      <trkpt lat="28.6587430" lon="-17.9127930">
        <ele>349.1</ele>
        <time>2020-11-17T07:28:15Z</time>
      </trkpt>
      <trkpt lat="28.6587430" lon="-17.9127930">
        <ele>349.1</ele>
        <time>2020-11-17T07:28:16Z</time>
      </trkpt>
      <trkpt lat="28.6587470" lon="-17.9127850">
        <ele>349.1</ele>
        <time>2020-11-17T07:28:17Z</time>
      </trkpt>
      <trkpt lat="28.6587470" lon="-17.9127850">
        <ele>349.1</ele>
        <time>2020-11-17T07:28:18Z</time>
      </trkpt>
      <trkpt lat="28.6587470" lon="-17.9127850">
        <ele>349.1</ele>
        <time>2020-11-17T07:54:59Z</time>
      </trkpt>
      <trkpt lat="28.6587170" lon="-17.9127450">
        <ele>349.3</ele>
        <time>2020-11-17T07:55:00Z</time>
      </trkpt>
      <trkpt lat="28.6587170" lon="-17.9127450">
        <ele>349.3</ele>
        <time>2020-11-17T07:55:01Z</time>
      </trkpt>
      <trkpt lat="28.6587230" lon="-17.9126800">
        <ele>349.6</ele>
        <time>2020-11-17T07:57:39Z</time>
      </trkpt>
      <trkpt lat="28.6587230" lon="-17.9126800">
        <ele>349.6</ele>
        <time>2020-11-17T07:57:40Z</time>
      </trkpt>
      <trkpt lat="28.6587070" lon="-17.9126530">
        <ele>349.7</ele>
        <time>2020-11-17T07:57:41Z</time>
      </trkpt>
      <trkpt lat="28.6586970" lon="-17.9126480">
        <ele>349.7</ele>
        <time>2020-11-17T07:57:42Z</time>
      </trkpt>
      <trkpt lat="28.6586970" lon="-17.9126480">
        <ele>349.7</ele>
        <time>2020-11-17T07:57:43Z</time>
      </trkpt>
      <trkpt lat="28.6586820" lon="-17.9126230">
        <ele>349.9</ele>
        <time>2020-11-17T07:57:44Z</time>
      </trkpt>
      <trkpt lat="28.6586820" lon="-17.9126230">
        <ele>349.9</ele>
        <time>2020-11-17T07:57:45Z</time>
      </trkpt>
      <trkpt lat="28.6586670" lon="-17.9125970">
        <ele>350.0</ele>
        <time>2020-11-17T07:57:46Z</time>
      </trkpt>
      <trkpt lat="28.6586670" lon="-17.9125970">
        <ele>350.0</ele>
        <time>2020-11-17T07:57:47Z</time>
      </trkpt>
      <trkpt lat="28.6586500" lon="-17.9125520">
        <ele>350.2</ele>
        <time>2020-11-17T07:57:48Z</time>
      </trkpt>
      <trkpt lat="28.6586480" lon="-17.9125320">
        <ele>350.3</ele>
        <time>2020-11-17T07:57:49Z</time>
      </trkpt>
      <trkpt lat="28.6586480" lon="-17.9125320">
        <ele>350.3</ele>
        <time>2020-11-17T07:57:50Z</time>
      </trkpt>
      <trkpt lat="28.6586380" lon="-17.9125030">
        <ele>350.4</ele>
        <time>2020-11-17T07:57:51Z</time>
      </trkpt>
      <trkpt lat="28.6586380" lon="-17.9125030">
        <ele>350.4</ele>
        <time>2020-11-17T07:57:52Z</time>
      </trkpt>
      <trkpt lat="28.6586280" lon="-17.9124420">
        <ele>350.6</ele>
        <time>2020-11-17T07:57:53Z</time>
      </trkpt>
      <trkpt lat="28.6586280" lon="-17.9124420">
        <ele>350.6</ele>
        <time>2020-11-17T07:57:54Z</time>
      </trkpt>
      <trkpt lat="28.6586350" lon="-17.9123850">
        <ele>350.8</ele>
        <time>2020-11-17T07:57:55Z</time>
      </trkpt>
      <trkpt lat="28.6586350" lon="-17.9123850">
        <ele>350.8</ele>
        <time>2020-11-17T07:57:56Z</time>
      </trkpt>
      <trkpt lat="28.6586250" lon="-17.9123330">
        <ele>351.0</ele>
        <time>2020-11-17T07:57:57Z</time>
      </trkpt>
      <trkpt lat="28.6586220" lon="-17.9122980">
        <ele>351.1</ele>
        <time>2020-11-17T07:57:58Z</time>
      </trkpt>
      <trkpt lat="28.6586220" lon="-17.9122980">
        <ele>351.1</ele>
        <time>2020-11-17T07:57:59Z</time>
      </trkpt>
      <trkpt lat="28.6586150" lon="-17.9122350">
        <ele>351.5</ele>
        <time>2020-11-17T07:58:00Z</time>
      </trkpt>
      <trkpt lat="28.6586150" lon="-17.9122350">
        <ele>351.5</ele>
        <time>2020-11-17T07:58:01Z</time>
      </trkpt>
      <trkpt lat="28.6586020" lon="-17.9121850">
        <ele>351.8</ele>
        <time>2020-11-17T07:58:02Z</time>
      </trkpt>
      <trkpt lat="28.6586020" lon="-17.9121850">
        <ele>351.8</ele>
        <time>2020-11-17T07:58:03Z</time>
      </trkpt>
      <trkpt lat="28.6585870" lon="-17.9121370">
        <ele>352.0</ele>
        <time>2020-11-17T07:58:04Z</time>
      </trkpt>
      <trkpt lat="28.6585870" lon="-17.9121370">
        <ele>352.0</ele>
        <time>2020-11-17T07:58:05Z</time>
      </trkpt>
      <trkpt lat="28.6585820" lon="-17.9120850">
        <ele>352.3</ele>
        <time>2020-11-17T07:58:06Z</time>
      </trkpt>
      <trkpt lat="28.6585820" lon="-17.9120850">
        <ele>352.3</ele>
        <time>2020-11-17T07:58:07Z</time>
      </trkpt>
      <trkpt lat="28.6585700" lon="-17.9120300">
        <ele>352.7</ele>
        <time>2020-11-17T07:58:08Z</time>
      </trkpt>
      <trkpt lat="28.6585700" lon="-17.9120300">
        <ele>352.7</ele>
        <time>2020-11-17T07:58:09Z</time>
      </trkpt>
      <trkpt lat="28.6585570" lon="-17.9119770">
        <ele>353.0</ele>
        <time>2020-11-17T07:58:10Z</time>
      </trkpt>
      <trkpt lat="28.6585530" lon="-17.9119470">
        <ele>353.2</ele>
        <time>2020-11-17T07:58:11Z</time>
      </trkpt>
      <trkpt lat="28.6585380" lon="-17.9119170">
        <ele>353.4</ele>
        <time>2020-11-17T07:58:12Z</time>
      </trkpt>
      <trkpt lat="28.6585380" lon="-17.9119170">
        <ele>353.4</ele>
        <time>2020-11-17T07:58:13Z</time>
      </trkpt>
      <trkpt lat="28.6585200" lon="-17.9118670">
        <ele>353.7</ele>
        <time>2020-11-17T07:58:14Z</time>
      </trkpt>
      <trkpt lat="28.6585100" lon="-17.9118400">
        <ele>353.9</ele>
        <time>2020-11-17T07:58:15Z</time>
      </trkpt>
      <trkpt lat="28.6585100" lon="-17.9118400">
        <ele>353.9</ele>
        <time>2020-11-17T07:58:16Z</time>
      </trkpt>
      <trkpt lat="28.6584980" lon="-17.9117830">
        <ele>354.2</ele>
        <time>2020-11-17T07:58:17Z</time>
      </trkpt>
      <trkpt lat="28.6584930" lon="-17.9117550">
        <ele>354.4</ele>
        <time>2020-11-17T07:58:18Z</time>
      </trkpt>
      <trkpt lat="28.6584930" lon="-17.9117550">
        <ele>354.4</ele>
        <time>2020-11-17T07:58:19Z</time>
      </trkpt>
      <trkpt lat="28.6584880" lon="-17.9117000">
        <ele>354.7</ele>
        <time>2020-11-17T07:58:20Z</time>
      </trkpt>
      <trkpt lat="28.6584850" lon="-17.9116730">
        <ele>354.7</ele>
        <time>2020-11-17T07:58:21Z</time>
      </trkpt>
      <trkpt lat="28.6584850" lon="-17.9116730">
        <ele>354.7</ele>
        <time>2020-11-17T07:58:22Z</time>
      </trkpt>
      <trkpt lat="28.6584730" lon="-17.9116220">
        <ele>354.8</ele>
        <time>2020-11-17T07:58:23Z</time>
      </trkpt>
      <trkpt lat="28.6584750" lon="-17.9115930">
        <ele>354.8</ele>
        <time>2020-11-17T07:58:24Z</time>
      </trkpt>
      <trkpt lat="28.6584750" lon="-17.9115930">
        <ele>354.8</ele>
        <time>2020-11-17T07:58:25Z</time>
      </trkpt>
      <trkpt lat="28.6584680" lon="-17.9115400">
        <ele>355.1</ele>
        <time>2020-11-17T07:58:26Z</time>
      </trkpt>
      <trkpt lat="28.6584680" lon="-17.9115400">
        <ele>355.1</ele>
        <time>2020-11-17T07:58:27Z</time>
      </trkpt>
      <trkpt lat="28.6584700" lon="-17.9114870">
        <ele>355.3</ele>
        <time>2020-11-17T07:58:28Z</time>
      </trkpt>
      <trkpt lat="28.6584700" lon="-17.9114870">
        <ele>355.3</ele>
        <time>2020-11-17T07:58:29Z</time>
      </trkpt>
      <trkpt lat="28.6584680" lon="-17.9114470">
        <ele>355.5</ele>
        <time>2020-11-17T07:58:30Z</time>
      </trkpt>
      <trkpt lat="28.6584680" lon="-17.9114470">
        <ele>355.5</ele>
        <time>2020-11-17T07:58:31Z</time>
      </trkpt>
      <trkpt lat="28.6584700" lon="-17.9113920">
        <ele>355.8</ele>
        <time>2020-11-17T07:58:32Z</time>
      </trkpt>
      <trkpt lat="28.6584780" lon="-17.9113630">
        <ele>356.0</ele>
        <time>2020-11-17T07:58:33Z</time>
      </trkpt>
      <trkpt lat="28.6584780" lon="-17.9113630">
        <ele>356.0</ele>
        <time>2020-11-17T07:58:34Z</time>
      </trkpt>
      <trkpt lat="28.6584820" lon="-17.9113050">
        <ele>356.2</ele>
        <time>2020-11-17T07:58:35Z</time>
      </trkpt>
      <trkpt lat="28.6584820" lon="-17.9112770">
        <ele>356.4</ele>
        <time>2020-11-17T07:58:36Z</time>
      </trkpt>
      <trkpt lat="28.6584820" lon="-17.9112770">
        <ele>356.4</ele>
        <time>2020-11-17T07:58:37Z</time>
      </trkpt>
      <trkpt lat="28.6584850" lon="-17.9112200">
        <ele>356.6</ele>
        <time>2020-11-17T07:58:38Z</time>
      </trkpt>
      <trkpt lat="28.6584850" lon="-17.9112200">
        <ele>356.6</ele>
        <time>2020-11-17T07:58:39Z</time>
      </trkpt>
      <trkpt lat="28.6584850" lon="-17.9111630">
        <ele>356.9</ele>
        <time>2020-11-17T07:58:40Z</time>
      </trkpt>
      <trkpt lat="28.6584850" lon="-17.9111350">
        <ele>357.0</ele>
        <time>2020-11-17T07:58:41Z</time>
      </trkpt>
      <trkpt lat="28.6584850" lon="-17.9111050">
        <ele>357.2</ele>
        <time>2020-11-17T07:58:42Z</time>
      </trkpt>
      <trkpt lat="28.6584850" lon="-17.9111050">
        <ele>357.2</ele>
        <time>2020-11-17T07:58:43Z</time>
      </trkpt>
      <trkpt lat="28.6584780" lon="-17.9110430">
        <ele>357.5</ele>
        <time>2020-11-17T07:58:44Z</time>
      </trkpt>
      <trkpt lat="28.6584750" lon="-17.9110170">
        <ele>357.6</ele>
        <time>2020-11-17T07:58:45Z</time>
      </trkpt>
      <trkpt lat="28.6584750" lon="-17.9110170">
        <ele>357.6</ele>
        <time>2020-11-17T07:58:46Z</time>
      </trkpt>
      <trkpt lat="28.6584750" lon="-17.9109630">
        <ele>357.9</ele>
        <time>2020-11-17T07:58:47Z</time>
      </trkpt>
      <trkpt lat="28.6584800" lon="-17.9109370">
        <ele>358.0</ele>
        <time>2020-11-17T07:58:48Z</time>
      </trkpt>
      <trkpt lat="28.6584800" lon="-17.9109370">
        <ele>358.0</ele>
        <time>2020-11-17T07:58:49Z</time>
      </trkpt>
      <trkpt lat="28.6584820" lon="-17.9108850">
        <ele>358.1</ele>
        <time>2020-11-17T07:58:50Z</time>
      </trkpt>
      <trkpt lat="28.6584780" lon="-17.9108570">
        <ele>358.2</ele>
        <time>2020-11-17T07:58:51Z</time>
      </trkpt>
      <trkpt lat="28.6584780" lon="-17.9108570">
        <ele>358.2</ele>
        <time>2020-11-17T07:58:52Z</time>
      </trkpt>
      <trkpt lat="28.6584780" lon="-17.9108030">
        <ele>358.3</ele>
        <time>2020-11-17T07:58:53Z</time>
      </trkpt>
      <trkpt lat="28.6584780" lon="-17.9107780">
        <ele>358.4</ele>
        <time>2020-11-17T07:58:54Z</time>
      </trkpt>
      <trkpt lat="28.6584800" lon="-17.9107520">
        <ele>358.5</ele>
        <time>2020-11-17T07:58:55Z</time>
      </trkpt>
      <trkpt lat="28.6584800" lon="-17.9107520">
        <ele>358.5</ele>
        <time>2020-11-17T07:58:56Z</time>
      </trkpt>
      <trkpt lat="28.6584820" lon="-17.9106970">
        <ele>358.8</ele>
        <time>2020-11-17T07:58:57Z</time>
      </trkpt>
      <trkpt lat="28.6584820" lon="-17.9106970">
        <ele>358.8</ele>
        <time>2020-11-17T07:58:58Z</time>
      </trkpt>
      <trkpt lat="28.6584800" lon="-17.9106430">
        <ele>359.0</ele>
        <time>2020-11-17T07:58:59Z</time>
      </trkpt>
      <trkpt lat="28.6584800" lon="-17.9106150">
        <ele>359.1</ele>
        <time>2020-11-17T07:59:00Z</time>
      </trkpt>
      <trkpt lat="28.6584800" lon="-17.9106150">
        <ele>359.1</ele>
        <time>2020-11-17T07:59:01Z</time>
      </trkpt>
      <trkpt lat="28.6584800" lon="-17.9105570">
        <ele>359.4</ele>
        <time>2020-11-17T07:59:02Z</time>
      </trkpt>
      <trkpt lat="28.6584800" lon="-17.9105570">
        <ele>359.4</ele>
        <time>2020-11-17T07:59:03Z</time>
      </trkpt>
      <trkpt lat="28.6584870" lon="-17.9104980">
        <ele>359.7</ele>
        <time>2020-11-17T07:59:04Z</time>
      </trkpt>
      <trkpt lat="28.6584870" lon="-17.9104980">
        <ele>359.7</ele>
        <time>2020-11-17T07:59:05Z</time>
      </trkpt>
      <trkpt lat="28.6584800" lon="-17.9104430">
        <ele>360.0</ele>
        <time>2020-11-17T07:59:06Z</time>
      </trkpt>
      <trkpt lat="28.6584800" lon="-17.9104430">
        <ele>360.0</ele>
        <time>2020-11-17T07:59:07Z</time>
      </trkpt>
      <trkpt lat="28.6584850" lon="-17.9103880">
        <ele>360.3</ele>
        <time>2020-11-17T07:59:08Z</time>
      </trkpt>
      <trkpt lat="28.6584850" lon="-17.9103880">
        <ele>360.3</ele>
        <time>2020-11-17T07:59:09Z</time>
      </trkpt>
      <trkpt lat="28.6584880" lon="-17.9103300">
        <ele>360.6</ele>
        <time>2020-11-17T07:59:10Z</time>
      </trkpt>
      <trkpt lat="28.6584870" lon="-17.9103000">
        <ele>360.7</ele>
        <time>2020-11-17T07:59:11Z</time>
      </trkpt>
      <trkpt lat="28.6584870" lon="-17.9103000">
        <ele>360.7</ele>
        <time>2020-11-17T07:59:12Z</time>
      </trkpt>
      <trkpt lat="28.6584880" lon="-17.9102430">
        <ele>361.0</ele>
        <time>2020-11-17T07:59:13Z</time>
      </trkpt>
      <trkpt lat="28.6584880" lon="-17.9102430">
        <ele>361.0</ele>
        <time>2020-11-17T07:59:14Z</time>
      </trkpt>
      <trkpt lat="28.6584820" lon="-17.9101950">
        <ele>361.3</ele>
        <time>2020-11-17T07:59:15Z</time>
      </trkpt>
      <trkpt lat="28.6584820" lon="-17.9101950">
        <ele>361.3</ele>
        <time>2020-11-17T07:59:16Z</time>
      </trkpt>
      <trkpt lat="28.6584900" lon="-17.9101400">
        <ele>361.6</ele>
        <time>2020-11-17T07:59:17Z</time>
      </trkpt>
      <trkpt lat="28.6584930" lon="-17.9101100">
        <ele>361.7</ele>
        <time>2020-11-17T07:59:18Z</time>
      </trkpt>
      <trkpt lat="28.6584930" lon="-17.9101100">
        <ele>361.7</ele>
        <time>2020-11-17T07:59:19Z</time>
      </trkpt>
      <trkpt lat="28.6584970" lon="-17.9100470">
        <ele>362.0</ele>
        <time>2020-11-17T07:59:20Z</time>
      </trkpt>
      <trkpt lat="28.6584970" lon="-17.9100470">
        <ele>362.0</ele>
        <time>2020-11-17T07:59:21Z</time>
      </trkpt>
      <trkpt lat="28.6584970" lon="-17.9099920">
        <ele>362.2</ele>
        <time>2020-11-17T07:59:22Z</time>
      </trkpt>
      <trkpt lat="28.6584970" lon="-17.9099920">
        <ele>362.2</ele>
        <time>2020-11-17T07:59:23Z</time>
      </trkpt>
      <trkpt lat="28.6584980" lon="-17.9099370">
        <ele>362.3</ele>
        <time>2020-11-17T07:59:24Z</time>
      </trkpt>
      <trkpt lat="28.6584980" lon="-17.9099370">
        <ele>362.3</ele>
        <time>2020-11-17T07:59:25Z</time>
      </trkpt>
      <trkpt lat="28.6585070" lon="-17.9098800">
        <ele>362.5</ele>
        <time>2020-11-17T07:59:26Z</time>
      </trkpt>
      <trkpt lat="28.6585070" lon="-17.9098800">
        <ele>362.5</ele>
        <time>2020-11-17T07:59:27Z</time>
      </trkpt>
      <trkpt lat="28.6585070" lon="-17.9098280">
        <ele>362.7</ele>
        <time>2020-11-17T07:59:28Z</time>
      </trkpt>
      <trkpt lat="28.6585070" lon="-17.9098280">
        <ele>362.7</ele>
        <time>2020-11-17T07:59:29Z</time>
      </trkpt>
      <trkpt lat="28.6585030" lon="-17.9097750">
        <ele>363.0</ele>
        <time>2020-11-17T07:59:30Z</time>
      </trkpt>
      <trkpt lat="28.6585030" lon="-17.9097750">
        <ele>363.0</ele>
        <time>2020-11-17T07:59:31Z</time>
      </trkpt>
      <trkpt lat="28.6585130" lon="-17.9097220">
        <ele>363.3</ele>
        <time>2020-11-17T07:59:32Z</time>
      </trkpt>
      <trkpt lat="28.6585200" lon="-17.9096950">
        <ele>363.4</ele>
        <time>2020-11-17T07:59:33Z</time>
      </trkpt>
      <trkpt lat="28.6585200" lon="-17.9096950">
        <ele>363.4</ele>
        <time>2020-11-17T07:59:34Z</time>
      </trkpt>
      <trkpt lat="28.6585280" lon="-17.9096430">
        <ele>363.7</ele>
        <time>2020-11-17T07:59:35Z</time>
      </trkpt>
      <trkpt lat="28.6585300" lon="-17.9096170">
        <ele>363.8</ele>
        <time>2020-11-17T07:59:36Z</time>
      </trkpt>
      <trkpt lat="28.6585300" lon="-17.9096170">
        <ele>363.8</ele>
        <time>2020-11-17T07:59:37Z</time>
      </trkpt>
      <trkpt lat="28.6585380" lon="-17.9095580">
        <ele>364.1</ele>
        <time>2020-11-17T07:59:38Z</time>
      </trkpt>
      <trkpt lat="28.6585380" lon="-17.9095580">
        <ele>364.1</ele>
        <time>2020-11-17T07:59:39Z</time>
      </trkpt>
      <trkpt lat="28.6585450" lon="-17.9095030">
        <ele>364.3</ele>
        <time>2020-11-17T07:59:40Z</time>
      </trkpt>
      <trkpt lat="28.6585470" lon="-17.9094750">
        <ele>364.4</ele>
        <time>2020-11-17T07:59:41Z</time>
      </trkpt>
      <trkpt lat="28.6585470" lon="-17.9094750">
        <ele>364.4</ele>
        <time>2020-11-17T07:59:42Z</time>
      </trkpt>
      <trkpt lat="28.6585500" lon="-17.9094170">
        <ele>364.7</ele>
        <time>2020-11-17T07:59:43Z</time>
      </trkpt>
      <trkpt lat="28.6585520" lon="-17.9093900">
        <ele>364.8</ele>
        <time>2020-11-17T07:59:44Z</time>
      </trkpt>
      <trkpt lat="28.6585430" lon="-17.9093670">
        <ele>364.9</ele>
        <time>2020-11-17T07:59:45Z</time>
      </trkpt>
      <trkpt lat="28.6585430" lon="-17.9093670">
        <ele>364.9</ele>
        <time>2020-11-17T07:59:46Z</time>
      </trkpt>
      <trkpt lat="28.6585300" lon="-17.9093220">
        <ele>365.1</ele>
        <time>2020-11-17T07:59:47Z</time>
      </trkpt>
      <trkpt lat="28.6585150" lon="-17.9093020">
        <ele>365.3</ele>
        <time>2020-11-17T07:59:48Z</time>
      </trkpt>
      <trkpt lat="28.6585150" lon="-17.9093020">
        <ele>365.3</ele>
        <time>2020-11-17T07:59:49Z</time>
      </trkpt>
      <trkpt lat="28.6584820" lon="-17.9092550">
        <ele>365.6</ele>
        <time>2020-11-17T07:59:50Z</time>
      </trkpt>
      <trkpt lat="28.6584820" lon="-17.9092550">
        <ele>365.6</ele>
        <time>2020-11-17T07:59:51Z</time>
      </trkpt>
      <trkpt lat="28.6584700" lon="-17.9092000">
        <ele>365.7</ele>
        <time>2020-11-17T07:59:52Z</time>
      </trkpt>
      <trkpt lat="28.6584700" lon="-17.9092000">
        <ele>365.7</ele>
        <time>2020-11-17T07:59:53Z</time>
      </trkpt>
      <trkpt lat="28.6584730" lon="-17.9091450">
        <ele>365.8</ele>
        <time>2020-11-17T07:59:54Z</time>
      </trkpt>
      <trkpt lat="28.6584730" lon="-17.9091450">
        <ele>365.8</ele>
        <time>2020-11-17T07:59:55Z</time>
      </trkpt>
      <trkpt lat="28.6584720" lon="-17.9090870">
        <ele>365.9</ele>
        <time>2020-11-17T07:59:56Z</time>
      </trkpt>
      <trkpt lat="28.6584700" lon="-17.9090570">
        <ele>365.9</ele>
        <time>2020-11-17T07:59:57Z</time>
      </trkpt>
      <trkpt lat="28.6584700" lon="-17.9090570">
        <ele>365.9</ele>
        <time>2020-11-17T07:59:58Z</time>
      </trkpt>
      <trkpt lat="28.6584780" lon="-17.9089950">
        <ele>366.1</ele>
        <time>2020-11-17T07:59:59Z</time>
      </trkpt>
      <trkpt lat="28.6584800" lon="-17.9089680">
        <ele>366.1</ele>
        <time>2020-11-17T08:00:00Z</time>
      </trkpt>
      <trkpt lat="28.6584800" lon="-17.9089680">
        <ele>366.1</ele>
        <time>2020-11-17T08:00:01Z</time>
      </trkpt>
      <trkpt lat="28.6584820" lon="-17.9089070">
        <ele>366.3</ele>
        <time>2020-11-17T08:00:02Z</time>
      </trkpt>
      <trkpt lat="28.6584820" lon="-17.9089070">
        <ele>366.3</ele>
        <time>2020-11-17T08:00:03Z</time>
      </trkpt>
      <trkpt lat="28.6584870" lon="-17.9088470">
        <ele>366.5</ele>
        <time>2020-11-17T08:00:04Z</time>
      </trkpt>
      <trkpt lat="28.6584870" lon="-17.9088180">
        <ele>366.6</ele>
        <time>2020-11-17T08:00:05Z</time>
      </trkpt>
      <trkpt lat="28.6584850" lon="-17.9087900">
        <ele>366.7</ele>
        <time>2020-11-17T08:00:06Z</time>
      </trkpt>
      <trkpt lat="28.6584870" lon="-17.9087630">
        <ele>366.8</ele>
        <time>2020-11-17T08:00:07Z</time>
      </trkpt>
      <trkpt lat="28.6584870" lon="-17.9087630">
        <ele>366.8</ele>
        <time>2020-11-17T08:00:08Z</time>
      </trkpt>
      <trkpt lat="28.6584880" lon="-17.9087120">
        <ele>366.9</ele>
        <time>2020-11-17T08:00:09Z</time>
      </trkpt>
      <trkpt lat="28.6584880" lon="-17.9087120">
        <ele>366.9</ele>
        <time>2020-11-17T08:00:10Z</time>
      </trkpt>
      <trkpt lat="28.6584880" lon="-17.9086570">
        <ele>367.1</ele>
        <time>2020-11-17T08:00:11Z</time>
      </trkpt>
      <trkpt lat="28.6584920" lon="-17.9086270">
        <ele>367.2</ele>
        <time>2020-11-17T08:00:12Z</time>
      </trkpt>
      <trkpt lat="28.6584920" lon="-17.9086270">
        <ele>367.2</ele>
        <time>2020-11-17T08:00:13Z</time>
      </trkpt>
      <trkpt lat="28.6584930" lon="-17.9085730">
        <ele>367.4</ele>
        <time>2020-11-17T08:00:14Z</time>
      </trkpt>
      <trkpt lat="28.6584920" lon="-17.9085500">
        <ele>367.5</ele>
        <time>2020-11-17T08:00:15Z</time>
      </trkpt>
      <trkpt lat="28.6584920" lon="-17.9085500">
        <ele>367.5</ele>
        <time>2020-11-17T08:00:16Z</time>
      </trkpt>
      <trkpt lat="28.6584970" lon="-17.9085000">
        <ele>367.7</ele>
        <time>2020-11-17T08:00:17Z</time>
      </trkpt>
      <trkpt lat="28.6585030" lon="-17.9084700">
        <ele>367.8</ele>
        <time>2020-11-17T08:00:18Z</time>
      </trkpt>
      <trkpt lat="28.6585030" lon="-17.9084700">
        <ele>367.8</ele>
        <time>2020-11-17T08:00:19Z</time>
      </trkpt>
      <trkpt lat="28.6585080" lon="-17.9084070">
        <ele>368.1</ele>
        <time>2020-11-17T08:00:20Z</time>
      </trkpt>
      <trkpt lat="28.6585080" lon="-17.9083750">
        <ele>368.2</ele>
        <time>2020-11-17T08:00:21Z</time>
      </trkpt>
      <trkpt lat="28.6585080" lon="-17.9083750">
        <ele>368.2</ele>
        <time>2020-11-17T08:00:22Z</time>
      </trkpt>
      <trkpt lat="28.6585070" lon="-17.9083130">
        <ele>368.6</ele>
        <time>2020-11-17T08:00:23Z</time>
      </trkpt>
      <trkpt lat="28.6585080" lon="-17.9082850">
        <ele>368.7</ele>
        <time>2020-11-17T08:00:24Z</time>
      </trkpt>
      <trkpt lat="28.6585080" lon="-17.9082850">
        <ele>368.7</ele>
        <time>2020-11-17T08:00:25Z</time>
      </trkpt>
      <trkpt lat="28.6585120" lon="-17.9082230">
        <ele>369.1</ele>
        <time>2020-11-17T08:00:26Z</time>
      </trkpt>
      <trkpt lat="28.6585120" lon="-17.9082230">
        <ele>369.1</ele>
        <time>2020-11-17T08:00:27Z</time>
      </trkpt>
      <trkpt lat="28.6585080" lon="-17.9081580">
        <ele>369.4</ele>
        <time>2020-11-17T08:00:28Z</time>
      </trkpt>
      <trkpt lat="28.6585170" lon="-17.9081270">
        <ele>369.6</ele>
        <time>2020-11-17T08:00:29Z</time>
      </trkpt>
      <trkpt lat="28.6585170" lon="-17.9080970">
        <ele>369.8</ele>
        <time>2020-11-17T08:00:30Z</time>
      </trkpt>
      <trkpt lat="28.6585170" lon="-17.9080970">
        <ele>369.8</ele>
        <time>2020-11-17T08:00:31Z</time>
      </trkpt>
      <trkpt lat="28.6585170" lon="-17.9080330">
        <ele>370.2</ele>
        <time>2020-11-17T08:00:32Z</time>
      </trkpt>
      <trkpt lat="28.6585150" lon="-17.9080030">
        <ele>370.4</ele>
        <time>2020-11-17T08:00:33Z</time>
      </trkpt>
      <trkpt lat="28.6585170" lon="-17.9079720">
        <ele>370.5</ele>
        <time>2020-11-17T08:00:34Z</time>
      </trkpt>
      <trkpt lat="28.6585170" lon="-17.9079720">
        <ele>370.5</ele>
        <time>2020-11-17T08:00:35Z</time>
      </trkpt>
      <trkpt lat="28.6585170" lon="-17.9079120">
        <ele>370.9</ele>
        <time>2020-11-17T08:00:36Z</time>
      </trkpt>
      <trkpt lat="28.6585170" lon="-17.9079120">
        <ele>370.9</ele>
        <time>2020-11-17T08:00:37Z</time>
      </trkpt>
      <trkpt lat="28.6585070" lon="-17.9078480">
        <ele>371.3</ele>
        <time>2020-11-17T08:00:38Z</time>
      </trkpt>
      <trkpt lat="28.6585070" lon="-17.9078480">
        <ele>371.3</ele>
        <time>2020-11-17T08:00:39Z</time>
      </trkpt>
      <trkpt lat="28.6584950" lon="-17.9077880">
        <ele>371.6</ele>
        <time>2020-11-17T08:00:40Z</time>
      </trkpt>
      <trkpt lat="28.6584900" lon="-17.9077570">
        <ele>371.8</ele>
        <time>2020-11-17T08:00:41Z</time>
      </trkpt>
      <trkpt lat="28.6584830" lon="-17.9077250">
        <ele>372.0</ele>
        <time>2020-11-17T08:00:42Z</time>
      </trkpt>
      <trkpt lat="28.6584830" lon="-17.9077250">
        <ele>372.0</ele>
        <time>2020-11-17T08:00:43Z</time>
      </trkpt>
      <trkpt lat="28.6584750" lon="-17.9076670">
        <ele>372.4</ele>
        <time>2020-11-17T08:00:44Z</time>
      </trkpt>
      <trkpt lat="28.6584750" lon="-17.9076670">
        <ele>372.4</ele>
        <time>2020-11-17T08:00:45Z</time>
      </trkpt>
      <trkpt lat="28.6584570" lon="-17.9076180">
        <ele>372.7</ele>
        <time>2020-11-17T08:00:46Z</time>
      </trkpt>
      <trkpt lat="28.6584570" lon="-17.9076180">
        <ele>372.7</ele>
        <time>2020-11-17T08:00:47Z</time>
      </trkpt>
      <trkpt lat="28.6584000" lon="-17.9075500">
        <ele>374.2</ele>
        <time>2020-11-17T08:00:48Z</time>
      </trkpt>
      <trkpt lat="28.6584000" lon="-17.9075500">
        <ele>374.2</ele>
        <time>2020-11-17T08:00:49Z</time>
      </trkpt>
      <trkpt lat="28.6583420" lon="-17.9075030">
        <ele>374.3</ele>
        <time>2020-11-17T08:00:50Z</time>
      </trkpt>
      <trkpt lat="28.6583420" lon="-17.9075030">
        <ele>374.3</ele>
        <time>2020-11-17T08:00:51Z</time>
      </trkpt>
      <trkpt lat="28.6582970" lon="-17.9074800">
        <ele>374.5</ele>
        <time>2020-11-17T08:00:52Z</time>
      </trkpt>
      <trkpt lat="28.6582770" lon="-17.9074750">
        <ele>374.6</ele>
        <time>2020-11-17T08:00:53Z</time>
      </trkpt>
      <trkpt lat="28.6582670" lon="-17.9074730">
        <ele>374.7</ele>
        <time>2020-11-17T08:00:54Z</time>
      </trkpt>
      <trkpt lat="28.6582670" lon="-17.9074730">
        <ele>374.7</ele>
        <time>2020-11-17T08:00:55Z</time>
      </trkpt>
      <trkpt lat="28.6582520" lon="-17.9074770">
        <ele>374.7</ele>
        <time>2020-11-17T08:00:56Z</time>
      </trkpt>
      <trkpt lat="28.6582520" lon="-17.9074770">
        <ele>374.7</ele>
        <time>2020-11-17T08:00:57Z</time>
      </trkpt>
      <trkpt lat="28.6582320" lon="-17.9074480">
        <ele>374.9</ele>
        <time>2020-11-17T08:00:58Z</time>
      </trkpt>
      <trkpt lat="28.6582320" lon="-17.9074480">
        <ele>374.9</ele>
        <time>2020-11-17T08:00:59Z</time>
      </trkpt>
      <trkpt lat="28.6581820" lon="-17.9074520">
        <ele>375.0</ele>
        <time>2020-11-17T08:01:00Z</time>
      </trkpt>
      <trkpt lat="28.6581820" lon="-17.9074520">
        <ele>375.0</ele>
        <time>2020-11-17T08:01:01Z</time>
      </trkpt>
      <trkpt lat="28.6581250" lon="-17.9074720">
        <ele>375.1</ele>
        <time>2020-11-17T08:01:02Z</time>
      </trkpt>
      <trkpt lat="28.6580970" lon="-17.9074780">
        <ele>375.2</ele>
        <time>2020-11-17T08:01:03Z</time>
      </trkpt>
      <trkpt lat="28.6580680" lon="-17.9074800">
        <ele>375.2</ele>
        <time>2020-11-17T08:01:04Z</time>
      </trkpt>
      <trkpt lat="28.6580680" lon="-17.9074800">
        <ele>375.2</ele>
        <time>2020-11-17T08:01:05Z</time>
      </trkpt>
      <trkpt lat="28.6580100" lon="-17.9074870">
        <ele>375.3</ele>
        <time>2020-11-17T08:01:06Z</time>
      </trkpt>
      <trkpt lat="28.6580100" lon="-17.9074870">
        <ele>375.3</ele>
        <time>2020-11-17T08:01:07Z</time>
      </trkpt>
      <trkpt lat="28.6579550" lon="-17.9074880">
        <ele>375.4</ele>
        <time>2020-11-17T08:01:08Z</time>
      </trkpt>
      <trkpt lat="28.6579550" lon="-17.9074880">
        <ele>375.4</ele>
        <time>2020-11-17T08:01:09Z</time>
      </trkpt>
      <trkpt lat="28.6579020" lon="-17.9074880">
        <ele>375.5</ele>
        <time>2020-11-17T08:01:10Z</time>
      </trkpt>
      <trkpt lat="28.6579020" lon="-17.9074880">
        <ele>375.5</ele>
        <time>2020-11-17T08:01:11Z</time>
      </trkpt>
      <trkpt lat="28.6578430" lon="-17.9074750">
        <ele>375.6</ele>
        <time>2020-11-17T08:01:12Z</time>
      </trkpt>
      <trkpt lat="28.6578430" lon="-17.9074750">
        <ele>375.6</ele>
        <time>2020-11-17T08:01:13Z</time>
      </trkpt>
      <trkpt lat="28.6577820" lon="-17.9074550">
        <ele>375.7</ele>
        <time>2020-11-17T08:01:14Z</time>
      </trkpt>
      <trkpt lat="28.6577480" lon="-17.9074400">
        <ele>375.8</ele>
        <time>2020-11-17T08:01:15Z</time>
      </trkpt>
      <trkpt lat="28.6577480" lon="-17.9074400">
        <ele>375.8</ele>
        <time>2020-11-17T08:01:16Z</time>
      </trkpt>
      <trkpt lat="28.6576900" lon="-17.9073930">
        <ele>375.9</ele>
        <time>2020-11-17T08:01:17Z</time>
      </trkpt>
      <trkpt lat="28.6576580" lon="-17.9073670">
        <ele>376.0</ele>
        <time>2020-11-17T08:01:18Z</time>
      </trkpt>
      <trkpt lat="28.6576580" lon="-17.9073670">
        <ele>376.0</ele>
        <time>2020-11-17T08:01:19Z</time>
      </trkpt>
      <trkpt lat="28.6576100" lon="-17.9073100">
        <ele>376.1</ele>
        <time>2020-11-17T08:01:20Z</time>
      </trkpt>
      <trkpt lat="28.6576100" lon="-17.9073100">
        <ele>376.1</ele>
        <time>2020-11-17T08:01:21Z</time>
      </trkpt>
      <trkpt lat="28.6575750" lon="-17.9072480">
        <ele>376.3</ele>
        <time>2020-11-17T08:01:22Z</time>
      </trkpt>
      <trkpt lat="28.6575750" lon="-17.9072480">
        <ele>376.3</ele>
        <time>2020-11-17T08:01:23Z</time>
      </trkpt>
      <trkpt lat="28.6575370" lon="-17.9071880">
        <ele>376.4</ele>
        <time>2020-11-17T08:01:24Z</time>
      </trkpt>
      <trkpt lat="28.6575370" lon="-17.9071880">
        <ele>376.4</ele>
        <time>2020-11-17T08:01:25Z</time>
      </trkpt>
      <trkpt lat="28.6574950" lon="-17.9071320">
        <ele>376.5</ele>
        <time>2020-11-17T08:01:26Z</time>
      </trkpt>
      <trkpt lat="28.6574950" lon="-17.9071320">
        <ele>376.5</ele>
        <time>2020-11-17T08:01:27Z</time>
      </trkpt>
      <trkpt lat="28.6574550" lon="-17.9070720">
        <ele>376.7</ele>
        <time>2020-11-17T08:01:28Z</time>
      </trkpt>
      <trkpt lat="28.6574370" lon="-17.9070430">
        <ele>376.8</ele>
        <time>2020-11-17T08:01:29Z</time>
      </trkpt>
      <trkpt lat="28.6574200" lon="-17.9070130">
        <ele>376.9</ele>
        <time>2020-11-17T08:01:30Z</time>
      </trkpt>
      <trkpt lat="28.6574200" lon="-17.9070130">
        <ele>376.9</ele>
        <time>2020-11-17T08:01:31Z</time>
      </trkpt>
      <trkpt lat="28.6573800" lon="-17.9069580">
        <ele>377.0</ele>
        <time>2020-11-17T08:01:32Z</time>
      </trkpt>
      <trkpt lat="28.6573620" lon="-17.9069280">
        <ele>377.1</ele>
        <time>2020-11-17T08:01:33Z</time>
      </trkpt>
      <trkpt lat="28.6573620" lon="-17.9069280">
        <ele>377.1</ele>
        <time>2020-11-17T08:01:34Z</time>
      </trkpt>
      <trkpt lat="28.6573170" lon="-17.9068620">
        <ele>377.3</ele>
        <time>2020-11-17T08:01:35Z</time>
      </trkpt>
      <trkpt lat="28.6572950" lon="-17.9068300">
        <ele>377.4</ele>
        <time>2020-11-17T08:01:36Z</time>
      </trkpt>
      <trkpt lat="28.6572950" lon="-17.9068300">
        <ele>377.4</ele>
        <time>2020-11-17T08:01:37Z</time>
      </trkpt>
      <trkpt lat="28.6572580" lon="-17.9067650">
        <ele>377.6</ele>
        <time>2020-11-17T08:01:38Z</time>
      </trkpt>
      <trkpt lat="28.6572580" lon="-17.9067650">
        <ele>377.6</ele>
        <time>2020-11-17T08:01:39Z</time>
      </trkpt>
      <trkpt lat="28.6572250" lon="-17.9066970">
        <ele>377.8</ele>
        <time>2020-11-17T08:01:40Z</time>
      </trkpt>
      <trkpt lat="28.6572070" lon="-17.9066630">
        <ele>377.9</ele>
        <time>2020-11-17T08:01:41Z</time>
      </trkpt>
      <trkpt lat="28.6571870" lon="-17.9066300">
        <ele>378.1</ele>
        <time>2020-11-17T08:01:42Z</time>
      </trkpt>
      <trkpt lat="28.6571870" lon="-17.9066300">
        <ele>378.1</ele>
        <time>2020-11-17T08:01:43Z</time>
      </trkpt>
      <trkpt lat="28.6571500" lon="-17.9065680">
        <ele>378.3</ele>
        <time>2020-11-17T08:01:44Z</time>
      </trkpt>
      <trkpt lat="28.6571270" lon="-17.9065400">
        <ele>378.4</ele>
        <time>2020-11-17T08:01:45Z</time>
      </trkpt>
      <trkpt lat="28.6571270" lon="-17.9065400">
        <ele>378.4</ele>
        <time>2020-11-17T08:01:46Z</time>
      </trkpt>
      <trkpt lat="28.6570800" lon="-17.9064950">
        <ele>378.7</ele>
        <time>2020-11-17T08:01:47Z</time>
      </trkpt>
      <trkpt lat="28.6570550" lon="-17.9064800">
        <ele>378.8</ele>
        <time>2020-11-17T08:01:48Z</time>
      </trkpt>
      <trkpt lat="28.6570550" lon="-17.9064800">
        <ele>378.8</ele>
        <time>2020-11-17T08:01:49Z</time>
      </trkpt>
      <trkpt lat="28.6570020" lon="-17.9064570">
        <ele>379.0</ele>
        <time>2020-11-17T08:01:50Z</time>
      </trkpt>
      <trkpt lat="28.6569820" lon="-17.9064480">
        <ele>379.0</ele>
        <time>2020-11-17T08:01:51Z</time>
      </trkpt>
      <trkpt lat="28.6569820" lon="-17.9064480">
        <ele>379.0</ele>
        <time>2020-11-17T08:01:52Z</time>
      </trkpt>
      <trkpt lat="28.6569530" lon="-17.9064370">
        <ele>379.1</ele>
        <time>2020-11-17T08:01:53Z</time>
      </trkpt>
      <trkpt lat="28.6569500" lon="-17.9064370">
        <ele>379.2</ele>
        <time>2020-11-17T08:01:54Z</time>
      </trkpt>
      <trkpt lat="28.6569500" lon="-17.9064370">
        <ele>379.2</ele>
        <time>2020-11-17T08:01:55Z</time>
      </trkpt>
      <trkpt lat="28.6569530" lon="-17.9064380">
        <ele>379.2</ele>
        <time>2020-11-17T08:01:56Z</time>
      </trkpt>
      <trkpt lat="28.6568930" lon="-17.9064000">
        <ele>379.4</ele>
        <time>2020-11-17T08:02:02Z</time>
      </trkpt>
      <trkpt lat="28.6568930" lon="-17.9064000">
        <ele>379.4</ele>
        <time>2020-11-17T08:02:03Z</time>
      </trkpt>
      <trkpt lat="28.6568580" lon="-17.9063500">
        <ele>378.8</ele>
        <time>2020-11-17T08:02:04Z</time>
      </trkpt>
      <trkpt lat="28.6568580" lon="-17.9063500">
        <ele>378.8</ele>
        <time>2020-11-17T08:02:05Z</time>
      </trkpt>
      <trkpt lat="28.6568350" lon="-17.9062880">
        <ele>378.8</ele>
        <time>2020-11-17T08:02:06Z</time>
      </trkpt>
      <trkpt lat="28.6568350" lon="-17.9062880">
        <ele>378.8</ele>
        <time>2020-11-17T08:02:07Z</time>
      </trkpt>
      <trkpt lat="28.6568150" lon="-17.9062270">
        <ele>379.0</ele>
        <time>2020-11-17T08:02:08Z</time>
      </trkpt>
      <trkpt lat="28.6568070" lon="-17.9061950">
        <ele>379.2</ele>
        <time>2020-11-17T08:02:09Z</time>
      </trkpt>
      <trkpt lat="28.6567950" lon="-17.9061630">
        <ele>379.3</ele>
        <time>2020-11-17T08:02:10Z</time>
      </trkpt>
      <trkpt lat="28.6567950" lon="-17.9061630">
        <ele>379.3</ele>
        <time>2020-11-17T08:02:11Z</time>
      </trkpt>
      <trkpt lat="28.6567720" lon="-17.9061030">
        <ele>379.6</ele>
        <time>2020-11-17T08:02:12Z</time>
      </trkpt>
      <trkpt lat="28.6567550" lon="-17.9060750">
        <ele>379.7</ele>
        <time>2020-11-17T08:02:13Z</time>
      </trkpt>
      <trkpt lat="28.6567550" lon="-17.9060750">
        <ele>379.7</ele>
        <time>2020-11-17T08:02:14Z</time>
      </trkpt>
      <trkpt lat="28.6567200" lon="-17.9060230">
        <ele>380.0</ele>
        <time>2020-11-17T08:02:15Z</time>
      </trkpt>
      <trkpt lat="28.6566980" lon="-17.9059980">
        <ele>380.1</ele>
        <time>2020-11-17T08:02:16Z</time>
      </trkpt>
      <trkpt lat="28.6566980" lon="-17.9059980">
        <ele>380.1</ele>
        <time>2020-11-17T08:02:17Z</time>
      </trkpt>
      <trkpt lat="28.6566520" lon="-17.9059530">
        <ele>380.3</ele>
        <time>2020-11-17T08:02:18Z</time>
      </trkpt>
      <trkpt lat="28.6566520" lon="-17.9059530">
        <ele>380.3</ele>
        <time>2020-11-17T08:02:19Z</time>
      </trkpt>
      <trkpt lat="28.6565980" lon="-17.9059200">
        <ele>380.5</ele>
        <time>2020-11-17T08:02:20Z</time>
      </trkpt>
      <trkpt lat="28.6565980" lon="-17.9059200">
        <ele>380.5</ele>
        <time>2020-11-17T08:02:21Z</time>
      </trkpt>
      <trkpt lat="28.6565420" lon="-17.9058930">
        <ele>380.7</ele>
        <time>2020-11-17T08:02:22Z</time>
      </trkpt>
      <trkpt lat="28.6565100" lon="-17.9058830">
        <ele>380.8</ele>
        <time>2020-11-17T08:02:23Z</time>
      </trkpt>
      <trkpt lat="28.6564780" lon="-17.9058750">
        <ele>381.0</ele>
        <time>2020-11-17T08:02:24Z</time>
      </trkpt>
      <trkpt lat="28.6564780" lon="-17.9058750">
        <ele>381.0</ele>
        <time>2020-11-17T08:02:25Z</time>
      </trkpt>
      <trkpt lat="28.6564180" lon="-17.9058580">
        <ele>381.2</ele>
        <time>2020-11-17T08:02:26Z</time>
      </trkpt>
      <trkpt lat="28.6563880" lon="-17.9058520">
        <ele>381.3</ele>
        <time>2020-11-17T08:02:27Z</time>
      </trkpt>
      <trkpt lat="28.6563880" lon="-17.9058520">
        <ele>381.3</ele>
        <time>2020-11-17T08:02:28Z</time>
      </trkpt>
      <trkpt lat="28.6563300" lon="-17.9058420">
        <ele>381.4</ele>
        <time>2020-11-17T08:02:29Z</time>
      </trkpt>
      <trkpt lat="28.6562980" lon="-17.9058330">
        <ele>381.5</ele>
        <time>2020-11-17T08:02:30Z</time>
      </trkpt>
      <trkpt lat="28.6562980" lon="-17.9058330">
        <ele>381.5</ele>
        <time>2020-11-17T08:02:31Z</time>
      </trkpt>
      <trkpt lat="28.6562330" lon="-17.9058130">
        <ele>381.7</ele>
        <time>2020-11-17T08:02:32Z</time>
      </trkpt>
      <trkpt lat="28.6562330" lon="-17.9058130">
        <ele>381.7</ele>
        <time>2020-11-17T08:02:33Z</time>
      </trkpt>
      <trkpt lat="28.6561750" lon="-17.9057900">
        <ele>381.8</ele>
        <time>2020-11-17T08:02:34Z</time>
      </trkpt>
      <trkpt lat="28.6561750" lon="-17.9057900">
        <ele>381.8</ele>
        <time>2020-11-17T08:02:35Z</time>
      </trkpt>
      <trkpt lat="28.6561220" lon="-17.9057620">
        <ele>381.9</ele>
        <time>2020-11-17T08:02:36Z</time>
      </trkpt>
      <trkpt lat="28.6561220" lon="-17.9057620">
        <ele>381.9</ele>
        <time>2020-11-17T08:02:37Z</time>
      </trkpt>
      <trkpt lat="28.6560650" lon="-17.9057330">
        <ele>382.1</ele>
        <time>2020-11-17T08:02:38Z</time>
      </trkpt>
      <trkpt lat="28.6560650" lon="-17.9057330">
        <ele>382.1</ele>
        <time>2020-11-17T08:02:39Z</time>
      </trkpt>
      <trkpt lat="28.6560030" lon="-17.9057020">
        <ele>382.3</ele>
        <time>2020-11-17T08:02:40Z</time>
      </trkpt>
      <trkpt lat="28.6560030" lon="-17.9057020">
        <ele>382.3</ele>
        <time>2020-11-17T08:02:41Z</time>
      </trkpt>
      <trkpt lat="28.6559430" lon="-17.9056700">
        <ele>382.4</ele>
        <time>2020-11-17T08:02:42Z</time>
      </trkpt>
      <trkpt lat="28.6559430" lon="-17.9056700">
        <ele>382.4</ele>
        <time>2020-11-17T08:02:43Z</time>
      </trkpt>
      <trkpt lat="28.6558880" lon="-17.9056300">
        <ele>382.6</ele>
        <time>2020-11-17T08:02:44Z</time>
      </trkpt>
      <trkpt lat="28.6558880" lon="-17.9056300">
        <ele>382.6</ele>
        <time>2020-11-17T08:02:45Z</time>
      </trkpt>
      <trkpt lat="28.6558350" lon="-17.9055900">
        <ele>382.7</ele>
        <time>2020-11-17T08:02:46Z</time>
      </trkpt>
      <trkpt lat="28.6558350" lon="-17.9055900">
        <ele>382.7</ele>
        <time>2020-11-17T08:02:47Z</time>
      </trkpt>
      <trkpt lat="28.6557800" lon="-17.9055550">
        <ele>382.8</ele>
        <time>2020-11-17T08:02:48Z</time>
      </trkpt>
      <trkpt lat="28.6557800" lon="-17.9055550">
        <ele>382.8</ele>
        <time>2020-11-17T08:02:49Z</time>
      </trkpt>
      <trkpt lat="28.6557250" lon="-17.9055170">
        <ele>382.9</ele>
        <time>2020-11-17T08:02:50Z</time>
      </trkpt>
      <trkpt lat="28.6557250" lon="-17.9055170">
        <ele>382.9</ele>
        <time>2020-11-17T08:02:51Z</time>
      </trkpt>
      <trkpt lat="28.6556680" lon="-17.9054730">
        <ele>383.1</ele>
        <time>2020-11-17T08:02:52Z</time>
      </trkpt>
      <trkpt lat="28.6556680" lon="-17.9054730">
        <ele>383.1</ele>
        <time>2020-11-17T08:02:53Z</time>
      </trkpt>
      <trkpt lat="28.6556150" lon="-17.9054270">
        <ele>383.2</ele>
        <time>2020-11-17T08:02:54Z</time>
      </trkpt>
      <trkpt lat="28.6556150" lon="-17.9054270">
        <ele>383.2</ele>
        <time>2020-11-17T08:02:55Z</time>
      </trkpt>
      <trkpt lat="28.6555620" lon="-17.9053820">
        <ele>383.2</ele>
        <time>2020-11-17T08:02:56Z</time>
      </trkpt>
      <trkpt lat="28.6555620" lon="-17.9053820">
        <ele>383.2</ele>
        <time>2020-11-17T08:02:57Z</time>
      </trkpt>
      <trkpt lat="28.6555620" lon="-17.9053820">
        <ele>383.2</ele>
        <time>2020-11-17T08:02:58Z</time>
      </trkpt>
      <trkpt lat="28.6555070" lon="-17.9053370">
        <ele>383.3</ele>
        <time>2020-11-17T08:02:59Z</time>
      </trkpt>
      <trkpt lat="28.6554470" lon="-17.9052920">
        <ele>383.4</ele>
        <time>2020-11-17T08:03:00Z</time>
      </trkpt>
      <trkpt lat="28.6554470" lon="-17.9052920">
        <ele>383.4</ele>
        <time>2020-11-17T08:03:01Z</time>
      </trkpt>
      <trkpt lat="28.6553880" lon="-17.9052450">
        <ele>383.5</ele>
        <time>2020-11-17T08:03:02Z</time>
      </trkpt>
      <trkpt lat="28.6553880" lon="-17.9052450">
        <ele>383.5</ele>
        <time>2020-11-17T08:03:03Z</time>
      </trkpt>
      <trkpt lat="28.6553270" lon="-17.9051980">
        <ele>383.5</ele>
        <time>2020-11-17T08:03:04Z</time>
      </trkpt>
      <trkpt lat="28.6553270" lon="-17.9051980">
        <ele>383.5</ele>
        <time>2020-11-17T08:03:05Z</time>
      </trkpt>
      <trkpt lat="28.6552600" lon="-17.9051480">
        <ele>383.6</ele>
        <time>2020-11-17T08:03:06Z</time>
      </trkpt>
      <trkpt lat="28.6552600" lon="-17.9051480">
        <ele>383.6</ele>
        <time>2020-11-17T08:03:07Z</time>
      </trkpt>
      <trkpt lat="28.6551920" lon="-17.9050950">
        <ele>383.6</ele>
        <time>2020-11-17T08:03:08Z</time>
      </trkpt>
      <trkpt lat="28.6551600" lon="-17.9050650">
        <ele>383.6</ele>
        <time>2020-11-17T08:03:09Z</time>
      </trkpt>
      <trkpt lat="28.6551600" lon="-17.9050650">
        <ele>383.6</ele>
        <time>2020-11-17T08:03:10Z</time>
      </trkpt>
      <trkpt lat="28.6550970" lon="-17.9050120">
        <ele>383.6</ele>
        <time>2020-11-17T08:03:11Z</time>
      </trkpt>
      <trkpt lat="28.6550670" lon="-17.9049880">
        <ele>383.6</ele>
        <time>2020-11-17T08:03:12Z</time>
      </trkpt>
      <trkpt lat="28.6550670" lon="-17.9049880">
        <ele>383.6</ele>
        <time>2020-11-17T08:03:13Z</time>
      </trkpt>
      <trkpt lat="28.6550050" lon="-17.9049450">
        <ele>383.7</ele>
        <time>2020-11-17T08:03:14Z</time>
      </trkpt>
      <trkpt lat="28.6550050" lon="-17.9049450">
        <ele>383.7</ele>
        <time>2020-11-17T08:03:15Z</time>
      </trkpt>
      <trkpt lat="28.6549430" lon="-17.9048970">
        <ele>383.7</ele>
        <time>2020-11-17T08:03:16Z</time>
      </trkpt>
      <trkpt lat="28.6549430" lon="-17.9048970">
        <ele>383.7</ele>
        <time>2020-11-17T08:03:17Z</time>
      </trkpt>
      <trkpt lat="28.6548750" lon="-17.9048480">
        <ele>383.7</ele>
        <time>2020-11-17T08:03:18Z</time>
      </trkpt>
      <trkpt lat="28.6548400" lon="-17.9048250">
        <ele>383.7</ele>
        <time>2020-11-17T08:03:19Z</time>
      </trkpt>
      <trkpt lat="28.6548400" lon="-17.9048250">
        <ele>383.7</ele>
        <time>2020-11-17T08:03:20Z</time>
      </trkpt>
      <trkpt lat="28.6547700" lon="-17.9047770">
        <ele>383.7</ele>
        <time>2020-11-17T08:03:21Z</time>
      </trkpt>
      <trkpt lat="28.6547700" lon="-17.9047770">
        <ele>383.7</ele>
        <time>2020-11-17T08:03:22Z</time>
      </trkpt>
      <trkpt lat="28.6547000" lon="-17.9047230">
        <ele>383.8</ele>
        <time>2020-11-17T08:03:23Z</time>
      </trkpt>
      <trkpt lat="28.6546670" lon="-17.9046970">
        <ele>383.9</ele>
        <time>2020-11-17T08:03:24Z</time>
      </trkpt>
      <trkpt lat="28.6546670" lon="-17.9046970">
        <ele>383.9</ele>
        <time>2020-11-17T08:03:25Z</time>
      </trkpt>
      <trkpt lat="28.6546020" lon="-17.9046450">
        <ele>384.0</ele>
        <time>2020-11-17T08:03:26Z</time>
      </trkpt>
      <trkpt lat="28.6546020" lon="-17.9046450">
        <ele>384.0</ele>
        <time>2020-11-17T08:03:27Z</time>
      </trkpt>
      <trkpt lat="28.6545400" lon="-17.9045950">
        <ele>384.2</ele>
        <time>2020-11-17T08:03:28Z</time>
      </trkpt>
      <trkpt lat="28.6545400" lon="-17.9045950">
        <ele>384.2</ele>
        <time>2020-11-17T08:03:29Z</time>
      </trkpt>
      <trkpt lat="28.6544820" lon="-17.9045480">
        <ele>384.3</ele>
        <time>2020-11-17T08:03:30Z</time>
      </trkpt>
      <trkpt lat="28.6544820" lon="-17.9045480">
        <ele>384.3</ele>
        <time>2020-11-17T08:03:31Z</time>
      </trkpt>
      <trkpt lat="28.6544270" lon="-17.9045020">
        <ele>384.5</ele>
        <time>2020-11-17T08:03:32Z</time>
      </trkpt>
      <trkpt lat="28.6544000" lon="-17.9044770">
        <ele>384.6</ele>
        <time>2020-11-17T08:03:33Z</time>
      </trkpt>
      <trkpt lat="28.6544000" lon="-17.9044770">
        <ele>384.6</ele>
        <time>2020-11-17T08:03:34Z</time>
      </trkpt>
      <trkpt lat="28.6543450" lon="-17.9044320">
        <ele>384.8</ele>
        <time>2020-11-17T08:03:35Z</time>
      </trkpt>
      <trkpt lat="28.6543180" lon="-17.9044070">
        <ele>384.9</ele>
        <time>2020-11-17T08:03:36Z</time>
      </trkpt>
      <trkpt lat="28.6543180" lon="-17.9044070">
        <ele>384.9</ele>
        <time>2020-11-17T08:03:37Z</time>
      </trkpt>
      <trkpt lat="28.6542700" lon="-17.9043600">
        <ele>385.1</ele>
        <time>2020-11-17T08:03:38Z</time>
      </trkpt>
      <trkpt lat="28.6542700" lon="-17.9043600">
        <ele>385.1</ele>
        <time>2020-11-17T08:03:39Z</time>
      </trkpt>
      <trkpt lat="28.6542230" lon="-17.9043170">
        <ele>385.3</ele>
        <time>2020-11-17T08:03:40Z</time>
      </trkpt>
      <trkpt lat="28.6542000" lon="-17.9042900">
        <ele>385.4</ele>
        <time>2020-11-17T08:03:41Z</time>
      </trkpt>
      <trkpt lat="28.6542000" lon="-17.9042900">
        <ele>385.4</ele>
        <time>2020-11-17T08:03:42Z</time>
      </trkpt>
      <trkpt lat="28.6541580" lon="-17.9042380">
        <ele>385.6</ele>
        <time>2020-11-17T08:03:43Z</time>
      </trkpt>
      <trkpt lat="28.6541580" lon="-17.9042380">
        <ele>385.6</ele>
        <time>2020-11-17T08:03:44Z</time>
      </trkpt>
      <trkpt lat="28.6541170" lon="-17.9041820">
        <ele>385.9</ele>
        <time>2020-11-17T08:03:45Z</time>
      </trkpt>
      <trkpt lat="28.6540970" lon="-17.9041530">
        <ele>386.0</ele>
        <time>2020-11-17T08:03:46Z</time>
      </trkpt>
      <trkpt lat="28.6540970" lon="-17.9041530">
        <ele>386.0</ele>
        <time>2020-11-17T08:03:47Z</time>
      </trkpt>
      <trkpt lat="28.6540580" lon="-17.9040930">
        <ele>386.3</ele>
        <time>2020-11-17T08:03:48Z</time>
      </trkpt>
      <trkpt lat="28.6540580" lon="-17.9040930">
        <ele>386.3</ele>
        <time>2020-11-17T08:03:49Z</time>
      </trkpt>
      <trkpt lat="28.6540230" lon="-17.9040330">
        <ele>386.5</ele>
        <time>2020-11-17T08:03:50Z</time>
      </trkpt>
      <trkpt lat="28.6540230" lon="-17.9040330">
        <ele>386.5</ele>
        <time>2020-11-17T08:03:51Z</time>
      </trkpt>
      <trkpt lat="28.6539970" lon="-17.9039670">
        <ele>386.7</ele>
        <time>2020-11-17T08:03:52Z</time>
      </trkpt>
      <trkpt lat="28.6539970" lon="-17.9039670">
        <ele>386.7</ele>
        <time>2020-11-17T08:03:53Z</time>
      </trkpt>
      <trkpt lat="28.6539720" lon="-17.9039000">
        <ele>386.9</ele>
        <time>2020-11-17T08:03:54Z</time>
      </trkpt>
      <trkpt lat="28.6539720" lon="-17.9039000">
        <ele>386.9</ele>
        <time>2020-11-17T08:03:55Z</time>
      </trkpt>
      <trkpt lat="28.6539520" lon="-17.9038320">
        <ele>387.1</ele>
        <time>2020-11-17T08:03:56Z</time>
      </trkpt>
      <trkpt lat="28.6539520" lon="-17.9038320">
        <ele>387.1</ele>
        <time>2020-11-17T08:03:57Z</time>
      </trkpt>
      <trkpt lat="28.6539400" lon="-17.9037600">
        <ele>387.3</ele>
        <time>2020-11-17T08:03:58Z</time>
      </trkpt>
      <trkpt lat="28.6539380" lon="-17.9037250">
        <ele>387.3</ele>
        <time>2020-11-17T08:03:59Z</time>
      </trkpt>
      <trkpt lat="28.6539350" lon="-17.9036880">
        <ele>387.4</ele>
        <time>2020-11-17T08:04:00Z</time>
      </trkpt>
      <trkpt lat="28.6539350" lon="-17.9036880">
        <ele>387.4</ele>
        <time>2020-11-17T08:04:01Z</time>
      </trkpt>
      <trkpt lat="28.6539350" lon="-17.9036080">
        <ele>387.5</ele>
        <time>2020-11-17T08:04:02Z</time>
      </trkpt>
      <trkpt lat="28.6539350" lon="-17.9036080">
        <ele>387.5</ele>
        <time>2020-11-17T08:04:03Z</time>
      </trkpt>
      <trkpt lat="28.6539370" lon="-17.9035250">
        <ele>387.5</ele>
        <time>2020-11-17T08:04:04Z</time>
      </trkpt>
      <trkpt lat="28.6539370" lon="-17.9035250">
        <ele>387.5</ele>
        <time>2020-11-17T08:04:05Z</time>
      </trkpt>
      <trkpt lat="28.6539470" lon="-17.9034370">
        <ele>387.5</ele>
        <time>2020-11-17T08:04:06Z</time>
      </trkpt>
      <trkpt lat="28.6539470" lon="-17.9034370">
        <ele>387.5</ele>
        <time>2020-11-17T08:04:07Z</time>
      </trkpt>
      <trkpt lat="28.6539500" lon="-17.9033500">
        <ele>387.5</ele>
        <time>2020-11-17T08:04:08Z</time>
      </trkpt>
      <trkpt lat="28.6539500" lon="-17.9033500">
        <ele>387.5</ele>
        <time>2020-11-17T08:04:09Z</time>
      </trkpt>
      <trkpt lat="28.6539520" lon="-17.9032600">
        <ele>387.5</ele>
        <time>2020-11-17T08:04:10Z</time>
      </trkpt>
      <trkpt lat="28.6539520" lon="-17.9032600">
        <ele>387.5</ele>
        <time>2020-11-17T08:04:11Z</time>
      </trkpt>
      <trkpt lat="28.6539430" lon="-17.9031670">
        <ele>387.6</ele>
        <time>2020-11-17T08:04:12Z</time>
      </trkpt>
      <trkpt lat="28.6539430" lon="-17.9031670">
        <ele>387.6</ele>
        <time>2020-11-17T08:04:13Z</time>
      </trkpt>
      <trkpt lat="28.6539300" lon="-17.9030770">
        <ele>387.6</ele>
        <time>2020-11-17T08:04:14Z</time>
      </trkpt>
      <trkpt lat="28.6539220" lon="-17.9030300">
        <ele>387.6</ele>
        <time>2020-11-17T08:04:15Z</time>
      </trkpt>
      <trkpt lat="28.6539100" lon="-17.9029870">
        <ele>387.6</ele>
        <time>2020-11-17T08:04:16Z</time>
      </trkpt>
      <trkpt lat="28.6539100" lon="-17.9029870">
        <ele>387.6</ele>
        <time>2020-11-17T08:04:17Z</time>
      </trkpt>
      <trkpt lat="28.6538820" lon="-17.9028970">
        <ele>387.6</ele>
        <time>2020-11-17T08:04:18Z</time>
      </trkpt>
      <trkpt lat="28.6538820" lon="-17.9028970">
        <ele>387.6</ele>
        <time>2020-11-17T08:04:19Z</time>
      </trkpt>
      <trkpt lat="28.6538530" lon="-17.9028070">
        <ele>387.6</ele>
        <time>2020-11-17T08:04:20Z</time>
      </trkpt>
      <trkpt lat="28.6538330" lon="-17.9027600">
        <ele>387.6</ele>
        <time>2020-11-17T08:04:21Z</time>
      </trkpt>
      <trkpt lat="28.6538330" lon="-17.9027600">
        <ele>387.6</ele>
        <time>2020-11-17T08:04:22Z</time>
      </trkpt>
      <trkpt lat="28.6537830" lon="-17.9026720">
        <ele>387.6</ele>
        <time>2020-11-17T08:04:23Z</time>
      </trkpt>
      <trkpt lat="28.6537530" lon="-17.9026300">
        <ele>387.6</ele>
        <time>2020-11-17T08:04:24Z</time>
      </trkpt>
      <trkpt lat="28.6537530" lon="-17.9026300">
        <ele>387.6</ele>
        <time>2020-11-17T08:04:25Z</time>
      </trkpt>
      <trkpt lat="28.6537530" lon="-17.9026300">
        <ele>387.6</ele>
        <time>2020-11-17T08:04:26Z</time>
      </trkpt>
      <trkpt lat="28.6536580" lon="-17.9025130">
        <ele>387.6</ele>
        <time>2020-11-17T08:04:27Z</time>
      </trkpt>
      <trkpt lat="28.6536580" lon="-17.9025130">
        <ele>387.6</ele>
        <time>2020-11-17T08:04:28Z</time>
      </trkpt>
      <trkpt lat="28.6535880" lon="-17.9024420">
        <ele>387.6</ele>
        <time>2020-11-17T08:04:29Z</time>
      </trkpt>
      <trkpt lat="28.6535880" lon="-17.9024420">
        <ele>387.6</ele>
        <time>2020-11-17T08:04:30Z</time>
      </trkpt>
      <trkpt lat="28.6535150" lon="-17.9023830">
        <ele>387.6</ele>
        <time>2020-11-17T08:04:31Z</time>
      </trkpt>
      <trkpt lat="28.6535150" lon="-17.9023830">
        <ele>387.6</ele>
        <time>2020-11-17T08:04:32Z</time>
      </trkpt>
      <trkpt lat="28.6534430" lon="-17.9023300">
        <ele>387.6</ele>
        <time>2020-11-17T08:04:33Z</time>
      </trkpt>
      <trkpt lat="28.6534430" lon="-17.9023300">
        <ele>387.6</ele>
        <time>2020-11-17T08:04:34Z</time>
      </trkpt>
      <trkpt lat="28.6533650" lon="-17.9022830">
        <ele>387.6</ele>
        <time>2020-11-17T08:04:35Z</time>
      </trkpt>
      <trkpt lat="28.6533250" lon="-17.9022600">
        <ele>387.6</ele>
        <time>2020-11-17T08:04:36Z</time>
      </trkpt>
      <trkpt lat="28.6533250" lon="-17.9022600">
        <ele>387.6</ele>
        <time>2020-11-17T08:04:37Z</time>
      </trkpt>
      <trkpt lat="28.6532470" lon="-17.9022200">
        <ele>387.7</ele>
        <time>2020-11-17T08:04:38Z</time>
      </trkpt>
      <trkpt lat="28.6532050" lon="-17.9022020">
        <ele>387.8</ele>
        <time>2020-11-17T08:04:39Z</time>
      </trkpt>
      <trkpt lat="28.6532050" lon="-17.9022020">
        <ele>387.8</ele>
        <time>2020-11-17T08:04:40Z</time>
      </trkpt>
      <trkpt lat="28.6531230" lon="-17.9021700">
        <ele>387.9</ele>
        <time>2020-11-17T08:04:41Z</time>
      </trkpt>
      <trkpt lat="28.6531230" lon="-17.9021700">
        <ele>387.9</ele>
        <time>2020-11-17T08:04:42Z</time>
      </trkpt>
      <trkpt lat="28.6530830" lon="-17.9021570">
        <ele>388.0</ele>
        <time>2020-11-17T08:04:43Z</time>
      </trkpt>
      <trkpt lat="28.6530000" lon="-17.9021370">
        <ele>388.1</ele>
        <time>2020-11-17T08:04:44Z</time>
      </trkpt>
      <trkpt lat="28.6529600" lon="-17.9021280">
        <ele>388.2</ele>
        <time>2020-11-17T08:04:45Z</time>
      </trkpt>
      <trkpt lat="28.6529600" lon="-17.9021280">
        <ele>388.2</ele>
        <time>2020-11-17T08:04:46Z</time>
      </trkpt>
      <trkpt lat="28.6528730" lon="-17.9021230">
        <ele>388.4</ele>
        <time>2020-11-17T08:04:47Z</time>
      </trkpt>
      <trkpt lat="28.6528320" lon="-17.9021300">
        <ele>388.4</ele>
        <time>2020-11-17T08:04:48Z</time>
      </trkpt>
      <trkpt lat="28.6528320" lon="-17.9021300">
        <ele>388.4</ele>
        <time>2020-11-17T08:04:49Z</time>
      </trkpt>
      <trkpt lat="28.6527500" lon="-17.9021670">
        <ele>388.3</ele>
        <time>2020-11-17T08:04:50Z</time>
      </trkpt>
      <trkpt lat="28.6527500" lon="-17.9021670">
        <ele>388.3</ele>
        <time>2020-11-17T08:04:51Z</time>
      </trkpt>
      <trkpt lat="28.6526700" lon="-17.9022100">
        <ele>388.1</ele>
        <time>2020-11-17T08:04:52Z</time>
      </trkpt>
      <trkpt lat="28.6526250" lon="-17.9022250">
        <ele>388.0</ele>
        <time>2020-11-17T08:04:53Z</time>
      </trkpt>
      <trkpt lat="28.6525780" lon="-17.9022280">
        <ele>388.0</ele>
        <time>2020-11-17T08:04:54Z</time>
      </trkpt>
      <trkpt lat="28.6525780" lon="-17.9022280">
        <ele>388.0</ele>
        <time>2020-11-17T08:04:55Z</time>
      </trkpt>
      <trkpt lat="28.6524930" lon="-17.9022030">
        <ele>388.0</ele>
        <time>2020-11-17T08:04:56Z</time>
      </trkpt>
      <trkpt lat="28.6524930" lon="-17.9022030">
        <ele>388.0</ele>
        <time>2020-11-17T08:04:57Z</time>
      </trkpt>
      <trkpt lat="28.6524450" lon="-17.9021350">
        <ele>388.2</ele>
        <time>2020-11-17T08:04:58Z</time>
      </trkpt>
      <trkpt lat="28.6524450" lon="-17.9021350">
        <ele>388.2</ele>
        <time>2020-11-17T08:04:59Z</time>
      </trkpt>
      <trkpt lat="28.6524220" lon="-17.9020430">
        <ele>388.5</ele>
        <time>2020-11-17T08:05:00Z</time>
      </trkpt>
      <trkpt lat="28.6524220" lon="-17.9020430">
        <ele>388.5</ele>
        <time>2020-11-17T08:05:01Z</time>
      </trkpt>
      <trkpt lat="28.6523970" lon="-17.9019520">
        <ele>389.1</ele>
        <time>2020-11-17T08:05:02Z</time>
      </trkpt>
      <trkpt lat="28.6523970" lon="-17.9019520">
        <ele>389.1</ele>
        <time>2020-11-17T08:05:03Z</time>
      </trkpt>
      <trkpt lat="28.6523970" lon="-17.9019520">
        <ele>389.1</ele>
        <time>2020-11-17T08:05:04Z</time>
      </trkpt>
      <trkpt lat="28.6523550" lon="-17.9018720">
        <ele>389.3</ele>
        <time>2020-11-17T08:05:05Z</time>
      </trkpt>
      <trkpt lat="28.6523000" lon="-17.9018050">
        <ele>389.5</ele>
        <time>2020-11-17T08:05:06Z</time>
      </trkpt>
      <trkpt lat="28.6523000" lon="-17.9018050">
        <ele>389.5</ele>
        <time>2020-11-17T08:05:07Z</time>
      </trkpt>
      <trkpt lat="28.6523000" lon="-17.9018050">
        <ele>389.5</ele>
        <time>2020-11-17T08:05:08Z</time>
      </trkpt>
      <trkpt lat="28.6522420" lon="-17.9017470">
        <ele>389.7</ele>
        <time>2020-11-17T08:05:09Z</time>
      </trkpt>
      <trkpt lat="28.6521820" lon="-17.9016920">
        <ele>389.8</ele>
        <time>2020-11-17T08:05:10Z</time>
      </trkpt>
      <trkpt lat="28.6521820" lon="-17.9016920">
        <ele>389.8</ele>
        <time>2020-11-17T08:05:11Z</time>
      </trkpt>
      <trkpt lat="28.6521220" lon="-17.9016420">
        <ele>390.1</ele>
        <time>2020-11-17T08:05:12Z</time>
      </trkpt>
      <trkpt lat="28.6521220" lon="-17.9016420">
        <ele>390.1</ele>
        <time>2020-11-17T08:05:13Z</time>
      </trkpt>
      <trkpt lat="28.6520680" lon="-17.9015900">
        <ele>390.3</ele>
        <time>2020-11-17T08:05:14Z</time>
      </trkpt>
      <trkpt lat="28.6520430" lon="-17.9015650">
        <ele>390.4</ele>
        <time>2020-11-17T08:05:15Z</time>
      </trkpt>
      <trkpt lat="28.6520430" lon="-17.9015650">
        <ele>390.4</ele>
        <time>2020-11-17T08:05:16Z</time>
      </trkpt>
      <trkpt lat="28.6519980" lon="-17.9015130">
        <ele>390.6</ele>
        <time>2020-11-17T08:05:17Z</time>
      </trkpt>
      <trkpt lat="28.6519720" lon="-17.9014900">
        <ele>390.7</ele>
        <time>2020-11-17T08:05:18Z</time>
      </trkpt>
      <trkpt lat="28.6519720" lon="-17.9014900">
        <ele>390.7</ele>
        <time>2020-11-17T08:05:19Z</time>
      </trkpt>
      <trkpt lat="28.6519170" lon="-17.9014430">
        <ele>391.0</ele>
        <time>2020-11-17T08:05:20Z</time>
      </trkpt>
      <trkpt lat="28.6518900" lon="-17.9014180">
        <ele>391.1</ele>
        <time>2020-11-17T08:05:21Z</time>
      </trkpt>
      <trkpt lat="28.6518620" lon="-17.9013950">
        <ele>391.2</ele>
        <time>2020-11-17T08:05:22Z</time>
      </trkpt>
      <trkpt lat="28.6518620" lon="-17.9013950">
        <ele>391.2</ele>
        <time>2020-11-17T08:05:23Z</time>
      </trkpt>
      <trkpt lat="28.6518070" lon="-17.9013450">
        <ele>391.5</ele>
        <time>2020-11-17T08:05:24Z</time>
      </trkpt>
      <trkpt lat="28.6518070" lon="-17.9013450">
        <ele>391.5</ele>
        <time>2020-11-17T08:05:25Z</time>
      </trkpt>
      <trkpt lat="28.6517520" lon="-17.9012920">
        <ele>391.7</ele>
        <time>2020-11-17T08:05:26Z</time>
      </trkpt>
      <trkpt lat="28.6517250" lon="-17.9012650">
        <ele>391.9</ele>
        <time>2020-11-17T08:05:27Z</time>
      </trkpt>
      <trkpt lat="28.6517250" lon="-17.9012650">
        <ele>391.9</ele>
        <time>2020-11-17T08:05:28Z</time>
      </trkpt>
      <trkpt lat="28.6516720" lon="-17.9012200">
        <ele>392.2</ele>
        <time>2020-11-17T08:05:29Z</time>
      </trkpt>
      <trkpt lat="28.6516450" lon="-17.9011970">
        <ele>392.3</ele>
        <time>2020-11-17T08:05:30Z</time>
      </trkpt>
      <trkpt lat="28.6516450" lon="-17.9011970">
        <ele>392.3</ele>
        <time>2020-11-17T08:05:31Z</time>
      </trkpt>
      <trkpt lat="28.6515950" lon="-17.9011470">
        <ele>392.5</ele>
        <time>2020-11-17T08:05:32Z</time>
      </trkpt>
      <trkpt lat="28.6515950" lon="-17.9011470">
        <ele>392.5</ele>
        <time>2020-11-17T08:05:33Z</time>
      </trkpt>
      <trkpt lat="28.6515430" lon="-17.9010980">
        <ele>392.7</ele>
        <time>2020-11-17T08:05:34Z</time>
      </trkpt>
      <trkpt lat="28.6515150" lon="-17.9010750">
        <ele>392.8</ele>
        <time>2020-11-17T08:05:35Z</time>
      </trkpt>
      <trkpt lat="28.6515150" lon="-17.9010750">
        <ele>392.8</ele>
        <time>2020-11-17T08:05:36Z</time>
      </trkpt>
      <trkpt lat="28.6514900" lon="-17.9010520">
        <ele>392.9</ele>
        <time>2020-11-17T08:05:37Z</time>
      </trkpt>
      <trkpt lat="28.6514380" lon="-17.9010030">
        <ele>393.0</ele>
        <time>2020-11-17T08:05:38Z</time>
      </trkpt>
      <trkpt lat="28.6514380" lon="-17.9010030">
        <ele>393.0</ele>
        <time>2020-11-17T08:05:39Z</time>
      </trkpt>
      <trkpt lat="28.6513850" lon="-17.9009570">
        <ele>393.2</ele>
        <time>2020-11-17T08:05:40Z</time>
      </trkpt>
      <trkpt lat="28.6513850" lon="-17.9009570">
        <ele>393.2</ele>
        <time>2020-11-17T08:05:41Z</time>
      </trkpt>
      <trkpt lat="28.6513330" lon="-17.9009120">
        <ele>393.4</ele>
        <time>2020-11-17T08:05:42Z</time>
      </trkpt>
      <trkpt lat="28.6513330" lon="-17.9009120">
        <ele>393.4</ele>
        <time>2020-11-17T08:05:43Z</time>
      </trkpt>
      <trkpt lat="28.6512820" lon="-17.9008620">
        <ele>393.5</ele>
        <time>2020-11-17T08:05:44Z</time>
      </trkpt>
      <trkpt lat="28.6512820" lon="-17.9008620">
        <ele>393.5</ele>
        <time>2020-11-17T08:05:45Z</time>
      </trkpt>
      <trkpt lat="28.6512270" lon="-17.9008130">
        <ele>393.7</ele>
        <time>2020-11-17T08:05:46Z</time>
      </trkpt>
      <trkpt lat="28.6512270" lon="-17.9008130">
        <ele>393.7</ele>
        <time>2020-11-17T08:05:47Z</time>
      </trkpt>
      <trkpt lat="28.6511720" lon="-17.9007620">
        <ele>393.9</ele>
        <time>2020-11-17T08:05:48Z</time>
      </trkpt>
      <trkpt lat="28.6511720" lon="-17.9007620">
        <ele>393.9</ele>
        <time>2020-11-17T08:05:49Z</time>
      </trkpt>
      <trkpt lat="28.6511170" lon="-17.9007150">
        <ele>394.1</ele>
        <time>2020-11-17T08:05:50Z</time>
      </trkpt>
      <trkpt lat="28.6510900" lon="-17.9006900">
        <ele>394.2</ele>
        <time>2020-11-17T08:05:51Z</time>
      </trkpt>
      <trkpt lat="28.6510900" lon="-17.9006900">
        <ele>394.2</ele>
        <time>2020-11-17T08:05:52Z</time>
      </trkpt>
      <trkpt lat="28.6510370" lon="-17.9006420">
        <ele>394.4</ele>
        <time>2020-11-17T08:05:53Z</time>
      </trkpt>
      <trkpt lat="28.6510080" lon="-17.9006180">
        <ele>394.6</ele>
        <time>2020-11-17T08:05:54Z</time>
      </trkpt>
      <trkpt lat="28.6510080" lon="-17.9006180">
        <ele>394.6</ele>
        <time>2020-11-17T08:05:55Z</time>
      </trkpt>
      <trkpt lat="28.6509570" lon="-17.9005700">
        <ele>394.8</ele>
        <time>2020-11-17T08:05:56Z</time>
      </trkpt>
      <trkpt lat="28.6509570" lon="-17.9005700">
        <ele>394.8</ele>
        <time>2020-11-17T08:05:57Z</time>
      </trkpt>
      <trkpt lat="28.6509080" lon="-17.9005200">
        <ele>395.0</ele>
        <time>2020-11-17T08:05:58Z</time>
      </trkpt>
      <trkpt lat="28.6509080" lon="-17.9005200">
        <ele>395.0</ele>
        <time>2020-11-17T08:05:59Z</time>
      </trkpt>
      <trkpt lat="28.6508580" lon="-17.9004780">
        <ele>395.2</ele>
        <time>2020-11-17T08:06:00Z</time>
      </trkpt>
      <trkpt lat="28.6508580" lon="-17.9004780">
        <ele>395.2</ele>
        <time>2020-11-17T08:06:01Z</time>
      </trkpt>
      <trkpt lat="28.6508030" lon="-17.9004480">
        <ele>395.4</ele>
        <time>2020-11-17T08:06:02Z</time>
      </trkpt>
      <trkpt lat="28.6508030" lon="-17.9004480">
        <ele>395.4</ele>
        <time>2020-11-17T08:06:03Z</time>
      </trkpt>
      <trkpt lat="28.6507450" lon="-17.9004300">
        <ele>395.6</ele>
        <time>2020-11-17T08:06:04Z</time>
      </trkpt>
      <trkpt lat="28.6507450" lon="-17.9004300">
        <ele>395.6</ele>
        <time>2020-11-17T08:06:05Z</time>
      </trkpt>
      <trkpt lat="28.6506800" lon="-17.9004200">
        <ele>395.9</ele>
        <time>2020-11-17T08:06:06Z</time>
      </trkpt>
      <trkpt lat="28.6506800" lon="-17.9004200">
        <ele>395.9</ele>
        <time>2020-11-17T08:06:07Z</time>
      </trkpt>
      <trkpt lat="28.6506170" lon="-17.9004100">
        <ele>396.1</ele>
        <time>2020-11-17T08:06:08Z</time>
      </trkpt>
      <trkpt lat="28.6506170" lon="-17.9004100">
        <ele>396.1</ele>
        <time>2020-11-17T08:06:09Z</time>
      </trkpt>
      <trkpt lat="28.6505570" lon="-17.9004030">
        <ele>396.4</ele>
        <time>2020-11-17T08:06:10Z</time>
      </trkpt>
      <trkpt lat="28.6505570" lon="-17.9004030">
        <ele>396.4</ele>
        <time>2020-11-17T08:06:11Z</time>
      </trkpt>
      <trkpt lat="28.6504970" lon="-17.9003950">
        <ele>396.7</ele>
        <time>2020-11-17T08:06:12Z</time>
      </trkpt>
      <trkpt lat="28.6504970" lon="-17.9003950">
        <ele>396.7</ele>
        <time>2020-11-17T08:06:13Z</time>
      </trkpt>
      <trkpt lat="28.6504370" lon="-17.9003930">
        <ele>396.9</ele>
        <time>2020-11-17T08:06:14Z</time>
      </trkpt>
      <trkpt lat="28.6504070" lon="-17.9003950">
        <ele>397.1</ele>
        <time>2020-11-17T08:06:15Z</time>
      </trkpt>
      <trkpt lat="28.6503780" lon="-17.9003970">
        <ele>397.2</ele>
        <time>2020-11-17T08:06:16Z</time>
      </trkpt>
      <trkpt lat="28.6503780" lon="-17.9003970">
        <ele>397.2</ele>
        <time>2020-11-17T08:06:17Z</time>
      </trkpt>
      <trkpt lat="28.6503180" lon="-17.9004030">
        <ele>397.5</ele>
        <time>2020-11-17T08:06:18Z</time>
      </trkpt>
      <trkpt lat="28.6503180" lon="-17.9004030">
        <ele>397.5</ele>
        <time>2020-11-17T08:06:19Z</time>
      </trkpt>
      <trkpt lat="28.6502600" lon="-17.9004180">
        <ele>397.7</ele>
        <time>2020-11-17T08:06:20Z</time>
      </trkpt>
      <trkpt lat="28.6502320" lon="-17.9004270">
        <ele>397.8</ele>
        <time>2020-11-17T08:06:21Z</time>
      </trkpt>
      <trkpt lat="28.6502320" lon="-17.9004270">
        <ele>397.8</ele>
        <time>2020-11-17T08:06:22Z</time>
      </trkpt>
      <trkpt lat="28.6501730" lon="-17.9004480">
        <ele>398.1</ele>
        <time>2020-11-17T08:06:23Z</time>
      </trkpt>
      <trkpt lat="28.6501450" lon="-17.9004620">
        <ele>398.2</ele>
        <time>2020-11-17T08:06:24Z</time>
      </trkpt>
      <trkpt lat="28.6501150" lon="-17.9004750">
        <ele>398.4</ele>
        <time>2020-11-17T08:06:25Z</time>
      </trkpt>
      <trkpt lat="28.6501150" lon="-17.9004750">
        <ele>398.4</ele>
        <time>2020-11-17T08:06:26Z</time>
      </trkpt>
      <trkpt lat="28.6500580" lon="-17.9005020">
        <ele>398.7</ele>
        <time>2020-11-17T08:06:27Z</time>
      </trkpt>
      <trkpt lat="28.6500320" lon="-17.9005150">
        <ele>398.8</ele>
        <time>2020-11-17T08:06:28Z</time>
      </trkpt>
      <trkpt lat="28.6500320" lon="-17.9005150">
        <ele>398.8</ele>
        <time>2020-11-17T08:06:29Z</time>
      </trkpt>
      <trkpt lat="28.6499770" lon="-17.9005480">
        <ele>399.1</ele>
        <time>2020-11-17T08:06:30Z</time>
      </trkpt>
      <trkpt lat="28.6499770" lon="-17.9005480">
        <ele>399.1</ele>
        <time>2020-11-17T08:06:31Z</time>
      </trkpt>
      <trkpt lat="28.6499250" lon="-17.9005870">
        <ele>399.4</ele>
        <time>2020-11-17T08:06:32Z</time>
      </trkpt>
      <trkpt lat="28.6499250" lon="-17.9005870">
        <ele>399.4</ele>
        <time>2020-11-17T08:06:33Z</time>
      </trkpt>
      <trkpt lat="28.6498730" lon="-17.9006280">
        <ele>399.7</ele>
        <time>2020-11-17T08:06:34Z</time>
      </trkpt>
      <trkpt lat="28.6498730" lon="-17.9006280">
        <ele>399.7</ele>
        <time>2020-11-17T08:06:35Z</time>
      </trkpt>
      <trkpt lat="28.6498730" lon="-17.9006280">
        <ele>399.7</ele>
        <time>2020-11-17T08:06:36Z</time>
      </trkpt>
      <trkpt lat="28.6498230" lon="-17.9006720">
        <ele>400.0</ele>
        <time>2020-11-17T08:06:37Z</time>
      </trkpt>
      <trkpt lat="28.6497780" lon="-17.9007150">
        <ele>400.3</ele>
        <time>2020-11-17T08:06:38Z</time>
      </trkpt>
      <trkpt lat="28.6497530" lon="-17.9007370">
        <ele>400.4</ele>
        <time>2020-11-17T08:06:39Z</time>
      </trkpt>
      <trkpt lat="28.6497530" lon="-17.9007370">
        <ele>400.4</ele>
        <time>2020-11-17T08:06:40Z</time>
      </trkpt>
      <trkpt lat="28.6497120" lon="-17.9007820">
        <ele>400.7</ele>
        <time>2020-11-17T08:06:41Z</time>
      </trkpt>
      <trkpt lat="28.6496900" lon="-17.9008030">
        <ele>400.9</ele>
        <time>2020-11-17T08:06:42Z</time>
      </trkpt>
      <trkpt lat="28.6496900" lon="-17.9008030">
        <ele>400.9</ele>
        <time>2020-11-17T08:06:43Z</time>
      </trkpt>
      <trkpt lat="28.6496470" lon="-17.9008480">
        <ele>401.2</ele>
        <time>2020-11-17T08:06:44Z</time>
      </trkpt>
      <trkpt lat="28.6496470" lon="-17.9008480">
        <ele>401.2</ele>
        <time>2020-11-17T08:06:45Z</time>
      </trkpt>
      <trkpt lat="28.6496020" lon="-17.9008930">
        <ele>401.5</ele>
        <time>2020-11-17T08:06:46Z</time>
      </trkpt>
      <trkpt lat="28.6496020" lon="-17.9008930">
        <ele>401.5</ele>
        <time>2020-11-17T08:06:47Z</time>
      </trkpt>
      <trkpt lat="28.6495570" lon="-17.9009400">
        <ele>401.9</ele>
        <time>2020-11-17T08:06:48Z</time>
      </trkpt>
      <trkpt lat="28.6495570" lon="-17.9009400">
        <ele>401.9</ele>
        <time>2020-11-17T08:06:49Z</time>
      </trkpt>
      <trkpt lat="28.6495130" lon="-17.9009870">
        <ele>402.2</ele>
        <time>2020-11-17T08:06:50Z</time>
      </trkpt>
      <trkpt lat="28.6494920" lon="-17.9010080">
        <ele>402.4</ele>
        <time>2020-11-17T08:06:51Z</time>
      </trkpt>
      <trkpt lat="28.6494920" lon="-17.9010080">
        <ele>402.4</ele>
        <time>2020-11-17T08:06:52Z</time>
      </trkpt>
      <trkpt lat="28.6494480" lon="-17.9010500">
        <ele>402.7</ele>
        <time>2020-11-17T08:06:53Z</time>
      </trkpt>
      <trkpt lat="28.6494270" lon="-17.9010700">
        <ele>402.9</ele>
        <time>2020-11-17T08:06:54Z</time>
      </trkpt>
      <trkpt lat="28.6494270" lon="-17.9010700">
        <ele>402.9</ele>
        <time>2020-11-17T08:06:55Z</time>
      </trkpt>
      <trkpt lat="28.6493800" lon="-17.9011050">
        <ele>403.2</ele>
        <time>2020-11-17T08:06:56Z</time>
      </trkpt>
      <trkpt lat="28.6493800" lon="-17.9011050">
        <ele>403.2</ele>
        <time>2020-11-17T08:06:57Z</time>
      </trkpt>
      <trkpt lat="28.6493250" lon="-17.9011280">
        <ele>403.5</ele>
        <time>2020-11-17T08:06:58Z</time>
      </trkpt>
      <trkpt lat="28.6493250" lon="-17.9011280">
        <ele>403.5</ele>
        <time>2020-11-17T08:06:59Z</time>
      </trkpt>
      <trkpt lat="28.6492670" lon="-17.9011400">
        <ele>403.9</ele>
        <time>2020-11-17T08:07:00Z</time>
      </trkpt>
      <trkpt lat="28.6492670" lon="-17.9011400">
        <ele>403.9</ele>
        <time>2020-11-17T08:07:01Z</time>
      </trkpt>
      <trkpt lat="28.6492050" lon="-17.9011380">
        <ele>404.2</ele>
        <time>2020-11-17T08:07:02Z</time>
      </trkpt>
      <trkpt lat="28.6492050" lon="-17.9011380">
        <ele>404.2</ele>
        <time>2020-11-17T08:07:03Z</time>
      </trkpt>
      <trkpt lat="28.6491470" lon="-17.9011220">
        <ele>404.5</ele>
        <time>2020-11-17T08:07:04Z</time>
      </trkpt>
      <trkpt lat="28.6491470" lon="-17.9011220">
        <ele>404.5</ele>
        <time>2020-11-17T08:07:05Z</time>
      </trkpt>
      <trkpt lat="28.6490880" lon="-17.9010970">
        <ele>404.8</ele>
        <time>2020-11-17T08:07:06Z</time>
      </trkpt>
      <trkpt lat="28.6490880" lon="-17.9010970">
        <ele>404.8</ele>
        <time>2020-11-17T08:07:07Z</time>
      </trkpt>
      <trkpt lat="28.6490320" lon="-17.9010700">
        <ele>405.1</ele>
        <time>2020-11-17T08:07:08Z</time>
      </trkpt>
      <trkpt lat="28.6490050" lon="-17.9010580">
        <ele>405.3</ele>
        <time>2020-11-17T08:07:09Z</time>
      </trkpt>
      <trkpt lat="28.6490050" lon="-17.9010580">
        <ele>405.3</ele>
        <time>2020-11-17T08:07:10Z</time>
      </trkpt>
      <trkpt lat="28.6489570" lon="-17.9010280">
        <ele>405.5</ele>
        <time>2020-11-17T08:07:11Z</time>
      </trkpt>
      <trkpt lat="28.6489350" lon="-17.9010120">
        <ele>405.7</ele>
        <time>2020-11-17T08:07:12Z</time>
      </trkpt>
      <trkpt lat="28.6489350" lon="-17.9010120">
        <ele>405.7</ele>
        <time>2020-11-17T08:07:13Z</time>
      </trkpt>
      <trkpt lat="28.6488930" lon="-17.9009700">
        <ele>405.9</ele>
        <time>2020-11-17T08:07:14Z</time>
      </trkpt>
      <trkpt lat="28.6488930" lon="-17.9009700">
        <ele>405.9</ele>
        <time>2020-11-17T08:07:15Z</time>
      </trkpt>
      <trkpt lat="28.6488500" lon="-17.9009280">
        <ele>406.2</ele>
        <time>2020-11-17T08:07:16Z</time>
      </trkpt>
      <trkpt lat="28.6488500" lon="-17.9009280">
        <ele>406.2</ele>
        <time>2020-11-17T08:07:17Z</time>
      </trkpt>
      <trkpt lat="28.6488080" lon="-17.9008830">
        <ele>406.5</ele>
        <time>2020-11-17T08:07:18Z</time>
      </trkpt>
      <trkpt lat="28.6488080" lon="-17.9008830">
        <ele>406.5</ele>
        <time>2020-11-17T08:07:19Z</time>
      </trkpt>
      <trkpt lat="28.6488080" lon="-17.9008830">
        <ele>406.5</ele>
        <time>2020-11-17T08:07:20Z</time>
      </trkpt>
      <trkpt lat="28.6487650" lon="-17.9008400">
        <ele>406.8</ele>
        <time>2020-11-17T08:07:21Z</time>
      </trkpt>
      <trkpt lat="28.6487250" lon="-17.9007950">
        <ele>407.1</ele>
        <time>2020-11-17T08:07:22Z</time>
      </trkpt>
      <trkpt lat="28.6487250" lon="-17.9007950">
        <ele>407.1</ele>
        <time>2020-11-17T08:07:23Z</time>
      </trkpt>
      <trkpt lat="28.6486830" lon="-17.9007500">
        <ele>407.3</ele>
        <time>2020-11-17T08:07:24Z</time>
      </trkpt>
      <trkpt lat="28.6486830" lon="-17.9007500">
        <ele>407.3</ele>
        <time>2020-11-17T08:07:25Z</time>
      </trkpt>
      <trkpt lat="28.6486470" lon="-17.9006970">
        <ele>407.5</ele>
        <time>2020-11-17T08:07:26Z</time>
      </trkpt>
      <trkpt lat="28.6486250" lon="-17.9006720">
        <ele>407.7</ele>
        <time>2020-11-17T08:07:27Z</time>
      </trkpt>
      <trkpt lat="28.6486250" lon="-17.9006720">
        <ele>407.7</ele>
        <time>2020-11-17T08:07:28Z</time>
      </trkpt>
      <trkpt lat="28.6485830" lon="-17.9006220">
        <ele>407.9</ele>
        <time>2020-11-17T08:07:29Z</time>
      </trkpt>
      <trkpt lat="28.6485600" lon="-17.9006000">
        <ele>408.1</ele>
        <time>2020-11-17T08:07:30Z</time>
      </trkpt>
      <trkpt lat="28.6485600" lon="-17.9006000">
        <ele>408.1</ele>
        <time>2020-11-17T08:07:31Z</time>
      </trkpt>
      <trkpt lat="28.6485150" lon="-17.9005550">
        <ele>408.3</ele>
        <time>2020-11-17T08:07:32Z</time>
      </trkpt>
      <trkpt lat="28.6485150" lon="-17.9005550">
        <ele>408.3</ele>
        <time>2020-11-17T08:07:33Z</time>
      </trkpt>
      <trkpt lat="28.6484770" lon="-17.9005050">
        <ele>408.6</ele>
        <time>2020-11-17T08:07:34Z</time>
      </trkpt>
      <trkpt lat="28.6484770" lon="-17.9005050">
        <ele>408.6</ele>
        <time>2020-11-17T08:07:35Z</time>
      </trkpt>
      <trkpt lat="28.6484400" lon="-17.9004570">
        <ele>408.8</ele>
        <time>2020-11-17T08:07:36Z</time>
      </trkpt>
      <trkpt lat="28.6484400" lon="-17.9004570">
        <ele>408.8</ele>
        <time>2020-11-17T08:07:37Z</time>
      </trkpt>
      <trkpt lat="28.6484020" lon="-17.9004070">
        <ele>409.0</ele>
        <time>2020-11-17T08:07:38Z</time>
      </trkpt>
      <trkpt lat="28.6484020" lon="-17.9004070">
        <ele>409.0</ele>
        <time>2020-11-17T08:07:39Z</time>
      </trkpt>
      <trkpt lat="28.6483630" lon="-17.9003580">
        <ele>409.2</ele>
        <time>2020-11-17T08:07:40Z</time>
      </trkpt>
      <trkpt lat="28.6483470" lon="-17.9003320">
        <ele>409.3</ele>
        <time>2020-11-17T08:07:41Z</time>
      </trkpt>
      <trkpt lat="28.6483470" lon="-17.9003320">
        <ele>409.3</ele>
        <time>2020-11-17T08:07:42Z</time>
      </trkpt>
      <trkpt lat="28.6483130" lon="-17.9002820">
        <ele>409.6</ele>
        <time>2020-11-17T08:07:43Z</time>
      </trkpt>
      <trkpt lat="28.6483130" lon="-17.9002820">
        <ele>409.6</ele>
        <time>2020-11-17T08:07:44Z</time>
      </trkpt>
      <trkpt lat="28.6482780" lon="-17.9002320">
        <ele>409.8</ele>
        <time>2020-11-17T08:07:45Z</time>
      </trkpt>
      <trkpt lat="28.6482600" lon="-17.9002100">
        <ele>409.9</ele>
        <time>2020-11-17T08:07:46Z</time>
      </trkpt>
      <trkpt lat="28.6482600" lon="-17.9002100">
        <ele>409.9</ele>
        <time>2020-11-17T08:07:47Z</time>
      </trkpt>
      <trkpt lat="28.6482600" lon="-17.9002100">
        <ele>409.9</ele>
        <time>2020-11-17T08:07:48Z</time>
      </trkpt>
      <trkpt lat="28.6482220" lon="-17.9001650">
        <ele>410.1</ele>
        <time>2020-11-17T08:07:49Z</time>
      </trkpt>
      <trkpt lat="28.6481850" lon="-17.9001220">
        <ele>410.3</ele>
        <time>2020-11-17T08:07:50Z</time>
      </trkpt>
      <trkpt lat="28.6481850" lon="-17.9001220">
        <ele>410.3</ele>
        <time>2020-11-17T08:07:51Z</time>
      </trkpt>
      <trkpt lat="28.6481480" lon="-17.9000780">
        <ele>410.6</ele>
        <time>2020-11-17T08:07:52Z</time>
      </trkpt>
      <trkpt lat="28.6481480" lon="-17.9000780">
        <ele>410.6</ele>
        <time>2020-11-17T08:07:53Z</time>
      </trkpt>
      <trkpt lat="28.6480980" lon="-17.9000480">
        <ele>410.8</ele>
        <time>2020-11-17T08:07:54Z</time>
      </trkpt>
      <trkpt lat="28.6480730" lon="-17.9000350">
        <ele>410.9</ele>
        <time>2020-11-17T08:07:55Z</time>
      </trkpt>
      <trkpt lat="28.6480730" lon="-17.9000350">
        <ele>410.9</ele>
        <time>2020-11-17T08:07:56Z</time>
      </trkpt>
      <trkpt lat="28.6480200" lon="-17.9000150">
        <ele>411.1</ele>
        <time>2020-11-17T08:07:57Z</time>
      </trkpt>
      <trkpt lat="28.6480200" lon="-17.9000150">
        <ele>411.1</ele>
        <time>2020-11-17T08:07:58Z</time>
      </trkpt>
      <trkpt lat="28.6480200" lon="-17.9000150">
        <ele>411.1</ele>
        <time>2020-11-17T08:07:59Z</time>
      </trkpt>
      <trkpt lat="28.6479650" lon="-17.9000030">
        <ele>411.3</ele>
        <time>2020-11-17T08:08:00Z</time>
      </trkpt>
      <trkpt lat="28.6479050" lon="-17.9000000">
        <ele>411.5</ele>
        <time>2020-11-17T08:08:01Z</time>
      </trkpt>
      <trkpt lat="28.6479050" lon="-17.9000000">
        <ele>411.5</ele>
        <time>2020-11-17T08:08:02Z</time>
      </trkpt>
      <trkpt lat="28.6478770" lon="-17.8999970">
        <ele>411.6</ele>
        <time>2020-11-17T08:08:03Z</time>
      </trkpt>
      <trkpt lat="28.6478180" lon="-17.8999920">
        <ele>411.8</ele>
        <time>2020-11-17T08:08:04Z</time>
      </trkpt>
      <trkpt lat="28.6478180" lon="-17.8999920">
        <ele>411.8</ele>
        <time>2020-11-17T08:08:05Z</time>
      </trkpt>
      <trkpt lat="28.6477620" lon="-17.8999870">
        <ele>412.0</ele>
        <time>2020-11-17T08:08:06Z</time>
      </trkpt>
      <trkpt lat="28.6477620" lon="-17.8999870">
        <ele>412.0</ele>
        <time>2020-11-17T08:08:07Z</time>
      </trkpt>
      <trkpt lat="28.6477030" lon="-17.8999870">
        <ele>412.3</ele>
        <time>2020-11-17T08:08:08Z</time>
      </trkpt>
      <trkpt lat="28.6476720" lon="-17.8999900">
        <ele>412.4</ele>
        <time>2020-11-17T08:08:09Z</time>
      </trkpt>
      <trkpt lat="28.6476720" lon="-17.8999900">
        <ele>412.4</ele>
        <time>2020-11-17T08:08:10Z</time>
      </trkpt>
      <trkpt lat="28.6476120" lon="-17.8999930">
        <ele>412.6</ele>
        <time>2020-11-17T08:08:11Z</time>
      </trkpt>
      <trkpt lat="28.6475820" lon="-17.8999970">
        <ele>412.7</ele>
        <time>2020-11-17T08:08:12Z</time>
      </trkpt>
      <trkpt lat="28.6475820" lon="-17.8999970">
        <ele>412.7</ele>
        <time>2020-11-17T08:08:13Z</time>
      </trkpt>
      <trkpt lat="28.6475200" lon="-17.9000000">
        <ele>413.0</ele>
        <time>2020-11-17T08:08:14Z</time>
      </trkpt>
      <trkpt lat="28.6474920" lon="-17.9000020">
        <ele>413.1</ele>
        <time>2020-11-17T08:08:15Z</time>
      </trkpt>
      <trkpt lat="28.6474920" lon="-17.9000020">
        <ele>413.1</ele>
        <time>2020-11-17T08:08:16Z</time>
      </trkpt>
      <trkpt lat="28.6474320" lon="-17.8999980">
        <ele>413.3</ele>
        <time>2020-11-17T08:08:17Z</time>
      </trkpt>
      <trkpt lat="28.6474320" lon="-17.8999980">
        <ele>413.3</ele>
        <time>2020-11-17T08:08:18Z</time>
      </trkpt>
      <trkpt lat="28.6474020" lon="-17.8999980">
        <ele>413.4</ele>
        <time>2020-11-17T08:08:19Z</time>
      </trkpt>
      <trkpt lat="28.6473470" lon="-17.9000030">
        <ele>413.6</ele>
        <time>2020-11-17T08:08:20Z</time>
      </trkpt>
      <trkpt lat="28.6473470" lon="-17.9000030">
        <ele>413.6</ele>
        <time>2020-11-17T08:08:21Z</time>
      </trkpt>
      <trkpt lat="28.6473470" lon="-17.9000030">
        <ele>413.6</ele>
        <time>2020-11-17T08:08:22Z</time>
      </trkpt>
      <trkpt lat="28.6472600" lon="-17.9000120">
        <ele>413.9</ele>
        <time>2020-11-17T08:08:23Z</time>
      </trkpt>
      <trkpt lat="28.6472600" lon="-17.9000120">
        <ele>413.9</ele>
        <time>2020-11-17T08:08:24Z</time>
      </trkpt>
      <trkpt lat="28.6472030" lon="-17.9000150">
        <ele>414.1</ele>
        <time>2020-11-17T08:08:25Z</time>
      </trkpt>
      <trkpt lat="28.6472030" lon="-17.9000150">
        <ele>414.1</ele>
        <time>2020-11-17T08:08:26Z</time>
      </trkpt>
      <trkpt lat="28.6471470" lon="-17.9000170">
        <ele>414.3</ele>
        <time>2020-11-17T08:08:27Z</time>
      </trkpt>
      <trkpt lat="28.6471470" lon="-17.9000170">
        <ele>414.3</ele>
        <time>2020-11-17T08:08:28Z</time>
      </trkpt>
      <trkpt lat="28.6471470" lon="-17.9000170">
        <ele>414.3</ele>
        <time>2020-11-17T08:08:29Z</time>
      </trkpt>
      <trkpt lat="28.6470870" lon="-17.9000220">
        <ele>414.5</ele>
        <time>2020-11-17T08:08:30Z</time>
      </trkpt>
      <trkpt lat="28.6470270" lon="-17.9000300">
        <ele>414.7</ele>
        <time>2020-11-17T08:08:31Z</time>
      </trkpt>
      <trkpt lat="28.6470270" lon="-17.9000300">
        <ele>414.7</ele>
        <time>2020-11-17T08:08:32Z</time>
      </trkpt>
      <trkpt lat="28.6469680" lon="-17.9000400">
        <ele>414.8</ele>
        <time>2020-11-17T08:08:33Z</time>
      </trkpt>
      <trkpt lat="28.6469380" lon="-17.9000420">
        <ele>414.9</ele>
        <time>2020-11-17T08:08:34Z</time>
      </trkpt>
      <trkpt lat="28.6469380" lon="-17.9000420">
        <ele>414.9</ele>
        <time>2020-11-17T08:08:35Z</time>
      </trkpt>
      <trkpt lat="28.6468800" lon="-17.9000400">
        <ele>414.9</ele>
        <time>2020-11-17T08:08:36Z</time>
      </trkpt>
      <trkpt lat="28.6468800" lon="-17.9000400">
        <ele>414.9</ele>
        <time>2020-11-17T08:08:37Z</time>
      </trkpt>
      <trkpt lat="28.6468170" lon="-17.9000320">
        <ele>415.1</ele>
        <time>2020-11-17T08:08:38Z</time>
      </trkpt>
      <trkpt lat="28.6467850" lon="-17.9000270">
        <ele>415.2</ele>
        <time>2020-11-17T08:08:39Z</time>
      </trkpt>
      <trkpt lat="28.6467850" lon="-17.9000270">
        <ele>415.2</ele>
        <time>2020-11-17T08:08:40Z</time>
      </trkpt>
      <trkpt lat="28.6467250" lon="-17.9000130">
        <ele>415.4</ele>
        <time>2020-11-17T08:08:41Z</time>
      </trkpt>
      <trkpt lat="28.6467250" lon="-17.9000130">
        <ele>415.4</ele>
        <time>2020-11-17T08:08:42Z</time>
      </trkpt>
      <trkpt lat="28.6466630" lon="-17.8999920">
        <ele>415.7</ele>
        <time>2020-11-17T08:08:43Z</time>
      </trkpt>
      <trkpt lat="28.6466630" lon="-17.8999920">
        <ele>415.7</ele>
        <time>2020-11-17T08:08:44Z</time>
      </trkpt>
      <trkpt lat="28.6466020" lon="-17.8999650">
        <ele>415.9</ele>
        <time>2020-11-17T08:08:45Z</time>
      </trkpt>
      <trkpt lat="28.6466020" lon="-17.8999650">
        <ele>415.9</ele>
        <time>2020-11-17T08:08:46Z</time>
      </trkpt>
      <trkpt lat="28.6465420" lon="-17.8999370">
        <ele>416.1</ele>
        <time>2020-11-17T08:08:47Z</time>
      </trkpt>
      <trkpt lat="28.6465420" lon="-17.8999370">
        <ele>416.1</ele>
        <time>2020-11-17T08:08:48Z</time>
      </trkpt>
      <trkpt lat="28.6464820" lon="-17.8999050">
        <ele>416.4</ele>
        <time>2020-11-17T08:08:49Z</time>
      </trkpt>
      <trkpt lat="28.6464820" lon="-17.8999050">
        <ele>416.4</ele>
        <time>2020-11-17T08:08:50Z</time>
      </trkpt>
      <trkpt lat="28.6464820" lon="-17.8999050">
        <ele>416.4</ele>
        <time>2020-11-17T08:08:51Z</time>
      </trkpt>
      <trkpt lat="28.6464270" lon="-17.8998670">
        <ele>416.6</ele>
        <time>2020-11-17T08:08:52Z</time>
      </trkpt>
      <trkpt lat="28.6463800" lon="-17.8998180">
        <ele>416.8</ele>
        <time>2020-11-17T08:08:53Z</time>
      </trkpt>
      <trkpt lat="28.6463580" lon="-17.8997930">
        <ele>416.9</ele>
        <time>2020-11-17T08:08:54Z</time>
      </trkpt>
      <trkpt lat="28.6463580" lon="-17.8997930">
        <ele>416.9</ele>
        <time>2020-11-17T08:08:55Z</time>
      </trkpt>
      <trkpt lat="28.6463200" lon="-17.8997370">
        <ele>417.1</ele>
        <time>2020-11-17T08:08:56Z</time>
      </trkpt>
      <trkpt lat="28.6463200" lon="-17.8997370">
        <ele>417.1</ele>
        <time>2020-11-17T08:08:57Z</time>
      </trkpt>
      <trkpt lat="28.6462900" lon="-17.8996780">
        <ele>417.3</ele>
        <time>2020-11-17T08:08:58Z</time>
      </trkpt>
      <trkpt lat="28.6462900" lon="-17.8996780">
        <ele>417.3</ele>
        <time>2020-11-17T08:08:59Z</time>
      </trkpt>
      <trkpt lat="28.6462600" lon="-17.8996220">
        <ele>417.6</ele>
        <time>2020-11-17T08:09:00Z</time>
      </trkpt>
      <trkpt lat="28.6462600" lon="-17.8996220">
        <ele>417.6</ele>
        <time>2020-11-17T08:09:01Z</time>
      </trkpt>
      <trkpt lat="28.6462280" lon="-17.8995630">
        <ele>417.9</ele>
        <time>2020-11-17T08:09:02Z</time>
      </trkpt>
      <trkpt lat="28.6462120" lon="-17.8995350">
        <ele>418.1</ele>
        <time>2020-11-17T08:09:03Z</time>
      </trkpt>
      <trkpt lat="28.6462120" lon="-17.8995350">
        <ele>418.1</ele>
        <time>2020-11-17T08:09:04Z</time>
      </trkpt>
      <trkpt lat="28.6461850" lon="-17.8994770">
        <ele>418.4</ele>
        <time>2020-11-17T08:09:05Z</time>
      </trkpt>
      <trkpt lat="28.6461720" lon="-17.8994470">
        <ele>418.6</ele>
        <time>2020-11-17T08:09:06Z</time>
      </trkpt>
      <trkpt lat="28.6461720" lon="-17.8994470">
        <ele>418.6</ele>
        <time>2020-11-17T08:09:07Z</time>
      </trkpt>
      <trkpt lat="28.6461480" lon="-17.8993850">
        <ele>418.8</ele>
        <time>2020-11-17T08:09:08Z</time>
      </trkpt>
      <trkpt lat="28.6461480" lon="-17.8993850">
        <ele>418.8</ele>
        <time>2020-11-17T08:09:09Z</time>
      </trkpt>
      <trkpt lat="28.6461220" lon="-17.8993180">
        <ele>418.9</ele>
        <time>2020-11-17T08:09:10Z</time>
      </trkpt>
      <trkpt lat="28.6461220" lon="-17.8993180">
        <ele>418.9</ele>
        <time>2020-11-17T08:09:11Z</time>
      </trkpt>
      <trkpt lat="28.6460980" lon="-17.8992570">
        <ele>419.1</ele>
        <time>2020-11-17T08:09:12Z</time>
      </trkpt>
      <trkpt lat="28.6460980" lon="-17.8992570">
        <ele>419.1</ele>
        <time>2020-11-17T08:09:13Z</time>
      </trkpt>
      <trkpt lat="28.6460700" lon="-17.8991930">
        <ele>419.3</ele>
        <time>2020-11-17T08:09:14Z</time>
      </trkpt>
      <trkpt lat="28.6460700" lon="-17.8991930">
        <ele>419.3</ele>
        <time>2020-11-17T08:09:15Z</time>
      </trkpt>
      <trkpt lat="28.6460400" lon="-17.8991330">
        <ele>419.5</ele>
        <time>2020-11-17T08:09:16Z</time>
      </trkpt>
      <trkpt lat="28.6460400" lon="-17.8991330">
        <ele>419.5</ele>
        <time>2020-11-17T08:09:17Z</time>
      </trkpt>
      <trkpt lat="28.6460080" lon="-17.8990730">
        <ele>419.7</ele>
        <time>2020-11-17T08:09:18Z</time>
      </trkpt>
      <trkpt lat="28.6460080" lon="-17.8990730">
        <ele>419.7</ele>
        <time>2020-11-17T08:09:19Z</time>
      </trkpt>
      <trkpt lat="28.6459780" lon="-17.8990130">
        <ele>419.9</ele>
        <time>2020-11-17T08:09:20Z</time>
      </trkpt>
      <trkpt lat="28.6459780" lon="-17.8990130">
        <ele>419.9</ele>
        <time>2020-11-17T08:09:21Z</time>
      </trkpt>
      <trkpt lat="28.6459550" lon="-17.8989500">
        <ele>420.1</ele>
        <time>2020-11-17T08:09:22Z</time>
      </trkpt>
      <trkpt lat="28.6459420" lon="-17.8989200">
        <ele>420.2</ele>
        <time>2020-11-17T08:09:23Z</time>
      </trkpt>
      <trkpt lat="28.6459280" lon="-17.8988880">
        <ele>420.3</ele>
        <time>2020-11-17T08:09:24Z</time>
      </trkpt>
      <trkpt lat="28.6459280" lon="-17.8988880">
        <ele>420.3</ele>
        <time>2020-11-17T08:09:25Z</time>
      </trkpt>
      <trkpt lat="28.6459000" lon="-17.8988280">
        <ele>420.5</ele>
        <time>2020-11-17T08:09:26Z</time>
      </trkpt>
      <trkpt lat="28.6459000" lon="-17.8988280">
        <ele>420.5</ele>
        <time>2020-11-17T08:09:27Z</time>
      </trkpt>
      <trkpt lat="28.6458700" lon="-17.8987670">
        <ele>420.7</ele>
        <time>2020-11-17T08:09:28Z</time>
      </trkpt>
      <trkpt lat="28.6458700" lon="-17.8987670">
        <ele>420.7</ele>
        <time>2020-11-17T08:09:29Z</time>
      </trkpt>
      <trkpt lat="28.6458400" lon="-17.8987080">
        <ele>420.9</ele>
        <time>2020-11-17T08:09:30Z</time>
      </trkpt>
      <trkpt lat="28.6458400" lon="-17.8987080">
        <ele>420.9</ele>
        <time>2020-11-17T08:09:31Z</time>
      </trkpt>
      <trkpt lat="28.6458130" lon="-17.8986480">
        <ele>421.1</ele>
        <time>2020-11-17T08:09:32Z</time>
      </trkpt>
      <trkpt lat="28.6458020" lon="-17.8986200">
        <ele>421.2</ele>
        <time>2020-11-17T08:09:33Z</time>
      </trkpt>
      <trkpt lat="28.6458020" lon="-17.8986200">
        <ele>421.2</ele>
        <time>2020-11-17T08:09:34Z</time>
      </trkpt>
      <trkpt lat="28.6457750" lon="-17.8985620">
        <ele>421.4</ele>
        <time>2020-11-17T08:09:35Z</time>
      </trkpt>
      <trkpt lat="28.6457750" lon="-17.8985620">
        <ele>421.4</ele>
        <time>2020-11-17T08:09:36Z</time>
      </trkpt>
      <trkpt lat="28.6457750" lon="-17.8985620">
        <ele>421.4</ele>
        <time>2020-11-17T08:09:37Z</time>
      </trkpt>
      <trkpt lat="28.6457350" lon="-17.8984700">
        <ele>421.7</ele>
        <time>2020-11-17T08:09:38Z</time>
      </trkpt>
      <trkpt lat="28.6457350" lon="-17.8984700">
        <ele>421.7</ele>
        <time>2020-11-17T08:09:39Z</time>
      </trkpt>
      <trkpt lat="28.6457050" lon="-17.8984130">
        <ele>422.0</ele>
        <time>2020-11-17T08:09:40Z</time>
      </trkpt>
      <trkpt lat="28.6457050" lon="-17.8984130">
        <ele>422.0</ele>
        <time>2020-11-17T08:09:41Z</time>
      </trkpt>
      <trkpt lat="28.6456750" lon="-17.8983550">
        <ele>422.3</ele>
        <time>2020-11-17T08:09:42Z</time>
      </trkpt>
      <trkpt lat="28.6456750" lon="-17.8983550">
        <ele>422.3</ele>
        <time>2020-11-17T08:09:43Z</time>
      </trkpt>
      <trkpt lat="28.6456430" lon="-17.8983020">
        <ele>422.7</ele>
        <time>2020-11-17T08:09:44Z</time>
      </trkpt>
      <trkpt lat="28.6456430" lon="-17.8983020">
        <ele>422.7</ele>
        <time>2020-11-17T08:09:45Z</time>
      </trkpt>
      <trkpt lat="28.6456030" lon="-17.8982480">
        <ele>423.0</ele>
        <time>2020-11-17T08:09:46Z</time>
      </trkpt>
      <trkpt lat="28.6456030" lon="-17.8982480">
        <ele>423.0</ele>
        <time>2020-11-17T08:09:47Z</time>
      </trkpt>
      <trkpt lat="28.6455600" lon="-17.8981950">
        <ele>423.3</ele>
        <time>2020-11-17T08:09:48Z</time>
      </trkpt>
      <trkpt lat="28.6455600" lon="-17.8981950">
        <ele>423.3</ele>
        <time>2020-11-17T08:09:49Z</time>
      </trkpt>
      <trkpt lat="28.6455180" lon="-17.8981400">
        <ele>423.7</ele>
        <time>2020-11-17T08:09:50Z</time>
      </trkpt>
      <trkpt lat="28.6455000" lon="-17.8981130">
        <ele>423.8</ele>
        <time>2020-11-17T08:09:51Z</time>
      </trkpt>
      <trkpt lat="28.6455000" lon="-17.8981130">
        <ele>423.8</ele>
        <time>2020-11-17T08:09:52Z</time>
      </trkpt>
      <trkpt lat="28.6454600" lon="-17.8980620">
        <ele>424.1</ele>
        <time>2020-11-17T08:09:53Z</time>
      </trkpt>
      <trkpt lat="28.6454600" lon="-17.8980620">
        <ele>424.1</ele>
        <time>2020-11-17T08:09:54Z</time>
      </trkpt>
      <trkpt lat="28.6454130" lon="-17.8980130">
        <ele>424.4</ele>
        <time>2020-11-17T08:09:55Z</time>
      </trkpt>
      <trkpt lat="28.6453920" lon="-17.8979900">
        <ele>424.6</ele>
        <time>2020-11-17T08:09:56Z</time>
      </trkpt>
      <trkpt lat="28.6453920" lon="-17.8979900">
        <ele>424.6</ele>
        <time>2020-11-17T08:09:57Z</time>
      </trkpt>
      <trkpt lat="28.6453520" lon="-17.8979450">
        <ele>424.8</ele>
        <time>2020-11-17T08:09:58Z</time>
      </trkpt>
      <trkpt lat="28.6453520" lon="-17.8979450">
        <ele>424.8</ele>
        <time>2020-11-17T08:09:59Z</time>
      </trkpt>
      <trkpt lat="28.6453070" lon="-17.8979000">
        <ele>425.1</ele>
        <time>2020-11-17T08:10:00Z</time>
      </trkpt>
      <trkpt lat="28.6453070" lon="-17.8979000">
        <ele>425.1</ele>
        <time>2020-11-17T08:10:01Z</time>
      </trkpt>
      <trkpt lat="28.6452670" lon="-17.8978550">
        <ele>425.4</ele>
        <time>2020-11-17T08:10:02Z</time>
      </trkpt>
      <trkpt lat="28.6452670" lon="-17.8978550">
        <ele>425.4</ele>
        <time>2020-11-17T08:10:03Z</time>
      </trkpt>
      <trkpt lat="28.6452270" lon="-17.8978100">
        <ele>425.6</ele>
        <time>2020-11-17T08:10:04Z</time>
      </trkpt>
      <trkpt lat="28.6452270" lon="-17.8978100">
        <ele>425.6</ele>
        <time>2020-11-17T08:10:05Z</time>
      </trkpt>
      <trkpt lat="28.6451780" lon="-17.8977720">
        <ele>425.9</ele>
        <time>2020-11-17T08:10:06Z</time>
      </trkpt>
      <trkpt lat="28.6451780" lon="-17.8977720">
        <ele>425.9</ele>
        <time>2020-11-17T08:10:07Z</time>
      </trkpt>
      <trkpt lat="28.6451300" lon="-17.8977350">
        <ele>426.2</ele>
        <time>2020-11-17T08:10:08Z</time>
      </trkpt>
      <trkpt lat="28.6451300" lon="-17.8977350">
        <ele>426.2</ele>
        <time>2020-11-17T08:10:09Z</time>
      </trkpt>
      <trkpt lat="28.6450850" lon="-17.8977000">
        <ele>426.4</ele>
        <time>2020-11-17T08:10:10Z</time>
      </trkpt>
      <trkpt lat="28.6450600" lon="-17.8976850">
        <ele>426.6</ele>
        <time>2020-11-17T08:10:11Z</time>
      </trkpt>
      <trkpt lat="28.6450600" lon="-17.8976850">
        <ele>426.6</ele>
        <time>2020-11-17T08:10:12Z</time>
      </trkpt>
      <trkpt lat="28.6450120" lon="-17.8976580">
        <ele>426.9</ele>
        <time>2020-11-17T08:10:13Z</time>
      </trkpt>
      <trkpt lat="28.6450120" lon="-17.8976580">
        <ele>426.9</ele>
        <time>2020-11-17T08:10:14Z</time>
      </trkpt>
      <trkpt lat="28.6449620" lon="-17.8976320">
        <ele>427.2</ele>
        <time>2020-11-17T08:10:15Z</time>
      </trkpt>
      <trkpt lat="28.6449380" lon="-17.8976200">
        <ele>427.3</ele>
        <time>2020-11-17T08:10:16Z</time>
      </trkpt>
      <trkpt lat="28.6449380" lon="-17.8976200">
        <ele>427.3</ele>
        <time>2020-11-17T08:10:17Z</time>
      </trkpt>
      <trkpt lat="28.6448920" lon="-17.8976050">
        <ele>427.6</ele>
        <time>2020-11-17T08:10:18Z</time>
      </trkpt>
      <trkpt lat="28.6448920" lon="-17.8976050">
        <ele>427.6</ele>
        <time>2020-11-17T08:10:19Z</time>
      </trkpt>
      <trkpt lat="28.6448400" lon="-17.8975930">
        <ele>427.9</ele>
        <time>2020-11-17T08:10:20Z</time>
      </trkpt>
      <trkpt lat="28.6448130" lon="-17.8975880">
        <ele>428.0</ele>
        <time>2020-11-17T08:10:21Z</time>
      </trkpt>
      <trkpt lat="28.6448130" lon="-17.8975880">
        <ele>428.0</ele>
        <time>2020-11-17T08:10:22Z</time>
      </trkpt>
      <trkpt lat="28.6448130" lon="-17.8975880">
        <ele>428.0</ele>
        <time>2020-11-17T08:10:23Z</time>
      </trkpt>
      <trkpt lat="28.6447580" lon="-17.8975750">
        <ele>428.4</ele>
        <time>2020-11-17T08:10:24Z</time>
      </trkpt>
      <trkpt lat="28.6447100" lon="-17.8975600">
        <ele>428.7</ele>
        <time>2020-11-17T08:10:25Z</time>
      </trkpt>
      <trkpt lat="28.6446870" lon="-17.8975520">
        <ele>428.8</ele>
        <time>2020-11-17T08:10:26Z</time>
      </trkpt>
      <trkpt lat="28.6446870" lon="-17.8975520">
        <ele>428.8</ele>
        <time>2020-11-17T08:10:27Z</time>
      </trkpt>
      <trkpt lat="28.6446430" lon="-17.8975370">
        <ele>429.1</ele>
        <time>2020-11-17T08:10:28Z</time>
      </trkpt>
      <trkpt lat="28.6446220" lon="-17.8975280">
        <ele>429.2</ele>
        <time>2020-11-17T08:10:29Z</time>
      </trkpt>
      <trkpt lat="28.6446220" lon="-17.8975280">
        <ele>429.2</ele>
        <time>2020-11-17T08:10:30Z</time>
      </trkpt>
      <trkpt lat="28.6445720" lon="-17.8975150">
        <ele>429.5</ele>
        <time>2020-11-17T08:10:31Z</time>
      </trkpt>
      <trkpt lat="28.6445720" lon="-17.8975150">
        <ele>429.5</ele>
        <time>2020-11-17T08:10:32Z</time>
      </trkpt>
      <trkpt lat="28.6445200" lon="-17.8975030">
        <ele>429.8</ele>
        <time>2020-11-17T08:10:33Z</time>
      </trkpt>
      <trkpt lat="28.6445200" lon="-17.8975030">
        <ele>429.8</ele>
        <time>2020-11-17T08:10:34Z</time>
      </trkpt>
      <trkpt lat="28.6444720" lon="-17.8974930">
        <ele>430.1</ele>
        <time>2020-11-17T08:10:35Z</time>
      </trkpt>
      <trkpt lat="28.6444500" lon="-17.8974880">
        <ele>430.3</ele>
        <time>2020-11-17T08:10:36Z</time>
      </trkpt>
      <trkpt lat="28.6444500" lon="-17.8974880">
        <ele>430.3</ele>
        <time>2020-11-17T08:10:37Z</time>
      </trkpt>
      <trkpt lat="28.6444020" lon="-17.8974820">
        <ele>430.6</ele>
        <time>2020-11-17T08:10:38Z</time>
      </trkpt>
      <trkpt lat="28.6443770" lon="-17.8974800">
        <ele>430.7</ele>
        <time>2020-11-17T08:10:39Z</time>
      </trkpt>
      <trkpt lat="28.6443770" lon="-17.8974800">
        <ele>430.7</ele>
        <time>2020-11-17T08:10:40Z</time>
      </trkpt>
      <trkpt lat="28.6443250" lon="-17.8974770">
        <ele>431.0</ele>
        <time>2020-11-17T08:10:41Z</time>
      </trkpt>
      <trkpt lat="28.6442980" lon="-17.8974730">
        <ele>431.2</ele>
        <time>2020-11-17T08:10:42Z</time>
      </trkpt>
      <trkpt lat="28.6442980" lon="-17.8974730">
        <ele>431.2</ele>
        <time>2020-11-17T08:10:43Z</time>
      </trkpt>
      <trkpt lat="28.6442420" lon="-17.8974680">
        <ele>431.6</ele>
        <time>2020-11-17T08:10:44Z</time>
      </trkpt>
      <trkpt lat="28.6442420" lon="-17.8974680">
        <ele>431.6</ele>
        <time>2020-11-17T08:10:45Z</time>
      </trkpt>
      <trkpt lat="28.6441880" lon="-17.8974720">
        <ele>431.9</ele>
        <time>2020-11-17T08:10:46Z</time>
      </trkpt>
      <trkpt lat="28.6441880" lon="-17.8974720">
        <ele>431.9</ele>
        <time>2020-11-17T08:10:47Z</time>
      </trkpt>
      <trkpt lat="28.6441380" lon="-17.8974650">
        <ele>432.2</ele>
        <time>2020-11-17T08:10:48Z</time>
      </trkpt>
      <trkpt lat="28.6441380" lon="-17.8974650">
        <ele>432.2</ele>
        <time>2020-11-17T08:10:49Z</time>
      </trkpt>
      <trkpt lat="28.6440870" lon="-17.8974620">
        <ele>432.5</ele>
        <time>2020-11-17T08:10:50Z</time>
      </trkpt>
      <trkpt lat="28.6440870" lon="-17.8974620">
        <ele>432.5</ele>
        <time>2020-11-17T08:10:51Z</time>
      </trkpt>
      <trkpt lat="28.6440320" lon="-17.8974570">
        <ele>432.9</ele>
        <time>2020-11-17T08:10:52Z</time>
      </trkpt>
      <trkpt lat="28.6440050" lon="-17.8974520">
        <ele>433.0</ele>
        <time>2020-11-17T08:10:53Z</time>
      </trkpt>
      <trkpt lat="28.6440050" lon="-17.8974520">
        <ele>433.0</ele>
        <time>2020-11-17T08:10:54Z</time>
      </trkpt>
      <trkpt lat="28.6439500" lon="-17.8974500">
        <ele>433.4</ele>
        <time>2020-11-17T08:10:55Z</time>
      </trkpt>
      <trkpt lat="28.6439500" lon="-17.8974500">
        <ele>433.4</ele>
        <time>2020-11-17T08:10:56Z</time>
      </trkpt>
      <trkpt lat="28.6438930" lon="-17.8974480">
        <ele>433.7</ele>
        <time>2020-11-17T08:10:57Z</time>
      </trkpt>
      <trkpt lat="28.6438650" lon="-17.8974450">
        <ele>433.9</ele>
        <time>2020-11-17T08:10:58Z</time>
      </trkpt>
      <trkpt lat="28.6438650" lon="-17.8974450">
        <ele>433.9</ele>
        <time>2020-11-17T08:10:59Z</time>
      </trkpt>
      <trkpt lat="28.6438080" lon="-17.8974400">
        <ele>434.2</ele>
        <time>2020-11-17T08:11:00Z</time>
      </trkpt>
      <trkpt lat="28.6438080" lon="-17.8974400">
        <ele>434.2</ele>
        <time>2020-11-17T08:11:01Z</time>
      </trkpt>
      <trkpt lat="28.6437500" lon="-17.8974370">
        <ele>434.5</ele>
        <time>2020-11-17T08:11:02Z</time>
      </trkpt>
      <trkpt lat="28.6437220" lon="-17.8974320">
        <ele>434.6</ele>
        <time>2020-11-17T08:11:03Z</time>
      </trkpt>
      <trkpt lat="28.6437220" lon="-17.8974320">
        <ele>434.6</ele>
        <time>2020-11-17T08:11:04Z</time>
      </trkpt>
      <trkpt lat="28.6436620" lon="-17.8974150">
        <ele>434.9</ele>
        <time>2020-11-17T08:11:05Z</time>
      </trkpt>
      <trkpt lat="28.6436620" lon="-17.8974150">
        <ele>434.9</ele>
        <time>2020-11-17T08:11:06Z</time>
      </trkpt>
      <trkpt lat="28.6436070" lon="-17.8973880">
        <ele>435.1</ele>
        <time>2020-11-17T08:11:07Z</time>
      </trkpt>
      <trkpt lat="28.6436070" lon="-17.8973880">
        <ele>435.1</ele>
        <time>2020-11-17T08:11:08Z</time>
      </trkpt>
      <trkpt lat="28.6435580" lon="-17.8973520">
        <ele>435.3</ele>
        <time>2020-11-17T08:11:09Z</time>
      </trkpt>
      <trkpt lat="28.6435580" lon="-17.8973520">
        <ele>435.3</ele>
        <time>2020-11-17T08:11:10Z</time>
      </trkpt>
      <trkpt lat="28.6435230" lon="-17.8973020">
        <ele>435.5</ele>
        <time>2020-11-17T08:11:11Z</time>
      </trkpt>
      <trkpt lat="28.6435230" lon="-17.8973020">
        <ele>435.5</ele>
        <time>2020-11-17T08:11:12Z</time>
      </trkpt>
      <trkpt lat="28.6435120" lon="-17.8972370">
        <ele>435.7</ele>
        <time>2020-11-17T08:11:13Z</time>
      </trkpt>
      <trkpt lat="28.6435120" lon="-17.8972370">
        <ele>435.7</ele>
        <time>2020-11-17T08:11:14Z</time>
      </trkpt>
      <trkpt lat="28.6435120" lon="-17.8971830">
        <ele>435.8</ele>
        <time>2020-11-17T08:11:15Z</time>
      </trkpt>
      <trkpt lat="28.6435080" lon="-17.8971580">
        <ele>435.9</ele>
        <time>2020-11-17T08:11:16Z</time>
      </trkpt>
      <trkpt lat="28.6435080" lon="-17.8971580">
        <ele>435.9</ele>
        <time>2020-11-17T08:11:17Z</time>
      </trkpt>
      <trkpt lat="28.6434970" lon="-17.8971180">
        <ele>436.1</ele>
        <time>2020-11-17T08:11:18Z</time>
      </trkpt>
      <trkpt lat="28.6434970" lon="-17.8971180">
        <ele>436.1</ele>
        <time>2020-11-17T08:11:19Z</time>
      </trkpt>
      <trkpt lat="28.6434820" lon="-17.8970900">
        <ele>436.3</ele>
        <time>2020-11-17T08:11:20Z</time>
      </trkpt>
      <trkpt lat="28.6434730" lon="-17.8970750">
        <ele>436.5</ele>
        <time>2020-11-17T08:11:21Z</time>
      </trkpt>
      <trkpt lat="28.6434680" lon="-17.8970580">
        <ele>436.6</ele>
        <time>2020-11-17T08:11:22Z</time>
      </trkpt>
      <trkpt lat="28.6434680" lon="-17.8970580">
        <ele>436.6</ele>
        <time>2020-11-17T08:11:23Z</time>
      </trkpt>
      <trkpt lat="28.6434550" lon="-17.8970270">
        <ele>436.8</ele>
        <time>2020-11-17T08:11:24Z</time>
      </trkpt>
      <trkpt lat="28.6434550" lon="-17.8970270">
        <ele>436.8</ele>
        <time>2020-11-17T08:11:25Z</time>
      </trkpt>
      <trkpt lat="28.6434470" lon="-17.8969970">
        <ele>437.1</ele>
        <time>2020-11-17T08:11:26Z</time>
      </trkpt>
      <trkpt lat="28.6434400" lon="-17.8969830">
        <ele>437.2</ele>
        <time>2020-11-17T08:11:27Z</time>
      </trkpt>
      <trkpt lat="28.6434400" lon="-17.8969830">
        <ele>437.2</ele>
        <time>2020-11-17T08:11:28Z</time>
      </trkpt>
      <trkpt lat="28.6434250" lon="-17.8969570">
        <ele>437.5</ele>
        <time>2020-11-17T08:11:29Z</time>
      </trkpt>
      <trkpt lat="28.6434250" lon="-17.8969570">
        <ele>437.5</ele>
        <time>2020-11-17T08:11:30Z</time>
      </trkpt>
      <trkpt lat="28.6434080" lon="-17.8969330">
        <ele>437.8</ele>
        <time>2020-11-17T08:11:31Z</time>
      </trkpt>
      <trkpt lat="28.6434080" lon="-17.8969330">
        <ele>437.8</ele>
        <time>2020-11-17T08:11:32Z</time>
      </trkpt>
      <trkpt lat="28.6433920" lon="-17.8969020">
        <ele>438.2</ele>
        <time>2020-11-17T08:11:33Z</time>
      </trkpt>
      <trkpt lat="28.6433870" lon="-17.8968850">
        <ele>438.4</ele>
        <time>2020-11-17T08:11:34Z</time>
      </trkpt>
      <trkpt lat="28.6433870" lon="-17.8968850">
        <ele>438.4</ele>
        <time>2020-11-17T08:11:35Z</time>
      </trkpt>
      <trkpt lat="28.6433800" lon="-17.8968500">
        <ele>438.7</ele>
        <time>2020-11-17T08:11:36Z</time>
      </trkpt>
      <trkpt lat="28.6433800" lon="-17.8968500">
        <ele>438.7</ele>
        <time>2020-11-17T08:11:37Z</time>
      </trkpt>
      <trkpt lat="28.6433680" lon="-17.8968120">
        <ele>439.1</ele>
        <time>2020-11-17T08:11:38Z</time>
      </trkpt>
      <trkpt lat="28.6433680" lon="-17.8968120">
        <ele>439.1</ele>
        <time>2020-11-17T08:11:39Z</time>
      </trkpt>
      <trkpt lat="28.6433520" lon="-17.8967830">
        <ele>439.4</ele>
        <time>2020-11-17T08:11:40Z</time>
      </trkpt>
      <trkpt lat="28.6433520" lon="-17.8967830">
        <ele>439.4</ele>
        <time>2020-11-17T08:11:41Z</time>
      </trkpt>
      <trkpt lat="28.6433370" lon="-17.8967570">
        <ele>439.8</ele>
        <time>2020-11-17T08:11:42Z</time>
      </trkpt>
      <trkpt lat="28.6433370" lon="-17.8967570">
        <ele>439.8</ele>
        <time>2020-11-17T08:11:43Z</time>
      </trkpt>
      <trkpt lat="28.6433250" lon="-17.8967270">
        <ele>440.1</ele>
        <time>2020-11-17T08:11:44Z</time>
      </trkpt>
      <trkpt lat="28.6433220" lon="-17.8967120">
        <ele>440.3</ele>
        <time>2020-11-17T08:11:45Z</time>
      </trkpt>
      <trkpt lat="28.6433220" lon="-17.8967120">
        <ele>440.3</ele>
        <time>2020-11-17T08:11:46Z</time>
      </trkpt>
      <trkpt lat="28.6433150" lon="-17.8966770">
        <ele>440.7</ele>
        <time>2020-11-17T08:11:47Z</time>
      </trkpt>
      <trkpt lat="28.6433130" lon="-17.8966580">
        <ele>440.9</ele>
        <time>2020-11-17T08:11:48Z</time>
      </trkpt>
      <trkpt lat="28.6433130" lon="-17.8966580">
        <ele>440.9</ele>
        <time>2020-11-17T08:11:49Z</time>
      </trkpt>
      <trkpt lat="28.6433130" lon="-17.8966300">
        <ele>441.3</ele>
        <time>2020-11-17T08:11:50Z</time>
      </trkpt>
      <trkpt lat="28.6433130" lon="-17.8966300">
        <ele>441.3</ele>
        <time>2020-11-17T08:11:51Z</time>
      </trkpt>
      <trkpt lat="28.6433100" lon="-17.8965980">
        <ele>441.8</ele>
        <time>2020-11-17T08:11:52Z</time>
      </trkpt>
      <trkpt lat="28.6433100" lon="-17.8965980">
        <ele>441.8</ele>
        <time>2020-11-17T08:11:53Z</time>
      </trkpt>
      <trkpt lat="28.6433070" lon="-17.8965680">
        <ele>442.2</ele>
        <time>2020-11-17T08:11:54Z</time>
      </trkpt>
      <trkpt lat="28.6433070" lon="-17.8965680">
        <ele>442.2</ele>
        <time>2020-11-17T08:11:55Z</time>
      </trkpt>
      <trkpt lat="28.6433000" lon="-17.8965400">
        <ele>442.5</ele>
        <time>2020-11-17T08:11:56Z</time>
      </trkpt>
      <trkpt lat="28.6432950" lon="-17.8965250">
        <ele>442.7</ele>
        <time>2020-11-17T08:11:57Z</time>
      </trkpt>
      <trkpt lat="28.6432950" lon="-17.8965250">
        <ele>442.7</ele>
        <time>2020-11-17T08:11:58Z</time>
      </trkpt>
      <trkpt lat="28.6432930" lon="-17.8964880">
        <ele>443.2</ele>
        <time>2020-11-17T08:11:59Z</time>
      </trkpt>
      <trkpt lat="28.6432950" lon="-17.8964720">
        <ele>443.4</ele>
        <time>2020-11-17T08:12:00Z</time>
      </trkpt>
      <trkpt lat="28.6432950" lon="-17.8964720">
        <ele>443.4</ele>
        <time>2020-11-17T08:12:01Z</time>
      </trkpt>
      <trkpt lat="28.6432900" lon="-17.8964420">
        <ele>443.7</ele>
        <time>2020-11-17T08:12:02Z</time>
      </trkpt>
      <trkpt lat="28.6432900" lon="-17.8964420">
        <ele>443.7</ele>
        <time>2020-11-17T08:12:03Z</time>
      </trkpt>
      <trkpt lat="28.6432830" lon="-17.8964080">
        <ele>444.0</ele>
        <time>2020-11-17T08:12:04Z</time>
      </trkpt>
      <trkpt lat="28.6432830" lon="-17.8964080">
        <ele>444.0</ele>
        <time>2020-11-17T08:12:05Z</time>
      </trkpt>
      <trkpt lat="28.6432770" lon="-17.8963750">
        <ele>444.3</ele>
        <time>2020-11-17T08:12:06Z</time>
      </trkpt>
      <trkpt lat="28.6432770" lon="-17.8963750">
        <ele>444.3</ele>
        <time>2020-11-17T08:12:07Z</time>
      </trkpt>
      <trkpt lat="28.6432780" lon="-17.8963420">
        <ele>444.5</ele>
        <time>2020-11-17T08:12:08Z</time>
      </trkpt>
      <trkpt lat="28.6432780" lon="-17.8963420">
        <ele>444.5</ele>
        <time>2020-11-17T08:12:09Z</time>
      </trkpt>
      <trkpt lat="28.6432750" lon="-17.8963080">
        <ele>444.8</ele>
        <time>2020-11-17T08:12:10Z</time>
      </trkpt>
      <trkpt lat="28.6432750" lon="-17.8963080">
        <ele>444.8</ele>
        <time>2020-11-17T08:12:11Z</time>
      </trkpt>
      <trkpt lat="28.6432630" lon="-17.8962780">
        <ele>445.1</ele>
        <time>2020-11-17T08:12:12Z</time>
      </trkpt>
      <trkpt lat="28.6432600" lon="-17.8962620">
        <ele>445.2</ele>
        <time>2020-11-17T08:12:13Z</time>
      </trkpt>
      <trkpt lat="28.6432600" lon="-17.8962620">
        <ele>445.2</ele>
        <time>2020-11-17T08:12:14Z</time>
      </trkpt>
      <trkpt lat="28.6432600" lon="-17.8962270">
        <ele>445.5</ele>
        <time>2020-11-17T08:12:15Z</time>
      </trkpt>
      <trkpt lat="28.6432600" lon="-17.8962270">
        <ele>445.5</ele>
        <time>2020-11-17T08:12:16Z</time>
      </trkpt>
      <trkpt lat="28.6432670" lon="-17.8961930">
        <ele>445.8</ele>
        <time>2020-11-17T08:12:17Z</time>
      </trkpt>
      <trkpt lat="28.6432650" lon="-17.8961750">
        <ele>445.9</ele>
        <time>2020-11-17T08:12:18Z</time>
      </trkpt>
      <trkpt lat="28.6432650" lon="-17.8961750">
        <ele>445.9</ele>
        <time>2020-11-17T08:12:19Z</time>
      </trkpt>
      <trkpt lat="28.6432550" lon="-17.8961450">
        <ele>446.2</ele>
        <time>2020-11-17T08:12:20Z</time>
      </trkpt>
      <trkpt lat="28.6432550" lon="-17.8961450">
        <ele>446.2</ele>
        <time>2020-11-17T08:12:21Z</time>
      </trkpt>
      <trkpt lat="28.6432430" lon="-17.8961130">
        <ele>446.4</ele>
        <time>2020-11-17T08:12:22Z</time>
      </trkpt>
      <trkpt lat="28.6432430" lon="-17.8961130">
        <ele>446.4</ele>
        <time>2020-11-17T08:12:23Z</time>
      </trkpt>
      <trkpt lat="28.6432400" lon="-17.8960800">
        <ele>446.7</ele>
        <time>2020-11-17T08:12:24Z</time>
      </trkpt>
      <trkpt lat="28.6432400" lon="-17.8960800">
        <ele>446.7</ele>
        <time>2020-11-17T08:12:25Z</time>
      </trkpt>
      <trkpt lat="28.6432450" lon="-17.8960420">
        <ele>447.1</ele>
        <time>2020-11-17T08:12:26Z</time>
      </trkpt>
      <trkpt lat="28.6432450" lon="-17.8960420">
        <ele>447.1</ele>
        <time>2020-11-17T08:12:27Z</time>
      </trkpt>
      <trkpt lat="28.6432430" lon="-17.8960050">
        <ele>447.4</ele>
        <time>2020-11-17T08:12:28Z</time>
      </trkpt>
      <trkpt lat="28.6432430" lon="-17.8960050">
        <ele>447.4</ele>
        <time>2020-11-17T08:12:29Z</time>
      </trkpt>
      <trkpt lat="28.6432300" lon="-17.8959730">
        <ele>447.7</ele>
        <time>2020-11-17T08:12:30Z</time>
      </trkpt>
      <trkpt lat="28.6432270" lon="-17.8959550">
        <ele>447.8</ele>
        <time>2020-11-17T08:12:31Z</time>
      </trkpt>
      <trkpt lat="28.6432270" lon="-17.8959550">
        <ele>447.8</ele>
        <time>2020-11-17T08:12:32Z</time>
      </trkpt>
      <trkpt lat="28.6432300" lon="-17.8959180">
        <ele>448.1</ele>
        <time>2020-11-17T08:12:33Z</time>
      </trkpt>
      <trkpt lat="28.6432300" lon="-17.8959180">
        <ele>448.1</ele>
        <time>2020-11-17T08:12:34Z</time>
      </trkpt>
      <trkpt lat="28.6432370" lon="-17.8958820">
        <ele>448.3</ele>
        <time>2020-11-17T08:12:35Z</time>
      </trkpt>
      <trkpt lat="28.6432370" lon="-17.8958820">
        <ele>448.3</ele>
        <time>2020-11-17T08:12:36Z</time>
      </trkpt>
      <trkpt lat="28.6432350" lon="-17.8958650">
        <ele>448.4</ele>
        <time>2020-11-17T08:12:37Z</time>
      </trkpt>
      <trkpt lat="28.6432200" lon="-17.8958370">
        <ele>448.7</ele>
        <time>2020-11-17T08:12:38Z</time>
      </trkpt>
      <trkpt lat="28.6432120" lon="-17.8958200">
        <ele>448.8</ele>
        <time>2020-11-17T08:12:39Z</time>
      </trkpt>
      <trkpt lat="28.6432120" lon="-17.8958200">
        <ele>448.8</ele>
        <time>2020-11-17T08:12:40Z</time>
      </trkpt>
      <trkpt lat="28.6432070" lon="-17.8957850">
        <ele>449.1</ele>
        <time>2020-11-17T08:12:41Z</time>
      </trkpt>
      <trkpt lat="28.6432070" lon="-17.8957850">
        <ele>449.1</ele>
        <time>2020-11-17T08:12:42Z</time>
      </trkpt>
      <trkpt lat="28.6432050" lon="-17.8957470">
        <ele>449.4</ele>
        <time>2020-11-17T08:12:43Z</time>
      </trkpt>
      <trkpt lat="28.6432050" lon="-17.8957470">
        <ele>449.4</ele>
        <time>2020-11-17T08:12:44Z</time>
      </trkpt>
      <trkpt lat="28.6432000" lon="-17.8957080">
        <ele>449.6</ele>
        <time>2020-11-17T08:12:45Z</time>
      </trkpt>
      <trkpt lat="28.6432000" lon="-17.8957080">
        <ele>449.6</ele>
        <time>2020-11-17T08:12:46Z</time>
      </trkpt>
      <trkpt lat="28.6432000" lon="-17.8957080">
        <ele>449.6</ele>
        <time>2020-11-17T08:12:47Z</time>
      </trkpt>
      <trkpt lat="28.6431950" lon="-17.8956550">
        <ele>450.0</ele>
        <time>2020-11-17T08:12:48Z</time>
      </trkpt>
      <trkpt lat="28.6431950" lon="-17.8956550">
        <ele>450.0</ele>
        <time>2020-11-17T08:12:49Z</time>
      </trkpt>
      <trkpt lat="28.6431920" lon="-17.8956180">
        <ele>450.3</ele>
        <time>2020-11-17T08:12:50Z</time>
      </trkpt>
      <trkpt lat="28.6431920" lon="-17.8956180">
        <ele>450.3</ele>
        <time>2020-11-17T08:12:51Z</time>
      </trkpt>
      <trkpt lat="28.6431950" lon="-17.8955800">
        <ele>450.5</ele>
        <time>2020-11-17T08:12:52Z</time>
      </trkpt>
      <trkpt lat="28.6431950" lon="-17.8955800">
        <ele>450.5</ele>
        <time>2020-11-17T08:12:53Z</time>
      </trkpt>
      <trkpt lat="28.6431830" lon="-17.8955470">
        <ele>450.8</ele>
        <time>2020-11-17T08:12:54Z</time>
      </trkpt>
      <trkpt lat="28.6431830" lon="-17.8955470">
        <ele>450.8</ele>
        <time>2020-11-17T08:12:55Z</time>
      </trkpt>
      <trkpt lat="28.6431700" lon="-17.8955130">
        <ele>451.1</ele>
        <time>2020-11-17T08:12:56Z</time>
      </trkpt>
      <trkpt lat="28.6431700" lon="-17.8955130">
        <ele>451.1</ele>
        <time>2020-11-17T08:12:57Z</time>
      </trkpt>
      <trkpt lat="28.6431650" lon="-17.8954780">
        <ele>451.4</ele>
        <time>2020-11-17T08:12:58Z</time>
      </trkpt>
      <trkpt lat="28.6431650" lon="-17.8954780">
        <ele>451.4</ele>
        <time>2020-11-17T08:12:59Z</time>
      </trkpt>
      <trkpt lat="28.6431580" lon="-17.8954430">
        <ele>451.8</ele>
        <time>2020-11-17T08:13:00Z</time>
      </trkpt>
      <trkpt lat="28.6431550" lon="-17.8954270">
        <ele>451.9</ele>
        <time>2020-11-17T08:13:01Z</time>
      </trkpt>
      <trkpt lat="28.6431550" lon="-17.8954270">
        <ele>451.9</ele>
        <time>2020-11-17T08:13:02Z</time>
      </trkpt>
      <trkpt lat="28.6431450" lon="-17.8953920">
        <ele>452.3</ele>
        <time>2020-11-17T08:13:03Z</time>
      </trkpt>
      <trkpt lat="28.6431450" lon="-17.8953920">
        <ele>452.3</ele>
        <time>2020-11-17T08:13:04Z</time>
      </trkpt>
      <trkpt lat="28.6431350" lon="-17.8953550">
        <ele>452.7</ele>
        <time>2020-11-17T08:13:05Z</time>
      </trkpt>
      <trkpt lat="28.6431350" lon="-17.8953550">
        <ele>452.7</ele>
        <time>2020-11-17T08:13:06Z</time>
      </trkpt>
      <trkpt lat="28.6431230" lon="-17.8953200">
        <ele>453.1</ele>
        <time>2020-11-17T08:13:07Z</time>
      </trkpt>
      <trkpt lat="28.6431170" lon="-17.8953030">
        <ele>453.3</ele>
        <time>2020-11-17T08:13:08Z</time>
      </trkpt>
      <trkpt lat="28.6431170" lon="-17.8953030">
        <ele>453.3</ele>
        <time>2020-11-17T08:13:09Z</time>
      </trkpt>
      <trkpt lat="28.6431050" lon="-17.8952680">
        <ele>453.7</ele>
        <time>2020-11-17T08:13:10Z</time>
      </trkpt>
      <trkpt lat="28.6431050" lon="-17.8952680">
        <ele>453.7</ele>
        <time>2020-11-17T08:13:11Z</time>
      </trkpt>
      <trkpt lat="28.6430970" lon="-17.8952330">
        <ele>454.1</ele>
        <time>2020-11-17T08:13:12Z</time>
      </trkpt>
      <trkpt lat="28.6430970" lon="-17.8952330">
        <ele>454.1</ele>
        <time>2020-11-17T08:13:13Z</time>
      </trkpt>
      <trkpt lat="28.6430850" lon="-17.8951980">
        <ele>454.4</ele>
        <time>2020-11-17T08:13:14Z</time>
      </trkpt>
      <trkpt lat="28.6430850" lon="-17.8951980">
        <ele>454.4</ele>
        <time>2020-11-17T08:13:15Z</time>
      </trkpt>
      <trkpt lat="28.6430730" lon="-17.8951620">
        <ele>454.8</ele>
        <time>2020-11-17T08:13:16Z</time>
      </trkpt>
      <trkpt lat="28.6430670" lon="-17.8951420">
        <ele>455.0</ele>
        <time>2020-11-17T08:13:17Z</time>
      </trkpt>
      <trkpt lat="28.6430620" lon="-17.8951220">
        <ele>455.1</ele>
        <time>2020-11-17T08:13:18Z</time>
      </trkpt>
      <trkpt lat="28.6430620" lon="-17.8951220">
        <ele>455.1</ele>
        <time>2020-11-17T08:13:19Z</time>
      </trkpt>
      <trkpt lat="28.6430480" lon="-17.8950850">
        <ele>455.4</ele>
        <time>2020-11-17T08:13:20Z</time>
      </trkpt>
      <trkpt lat="28.6430400" lon="-17.8950680">
        <ele>455.6</ele>
        <time>2020-11-17T08:13:21Z</time>
      </trkpt>
      <trkpt lat="28.6430300" lon="-17.8950520">
        <ele>455.7</ele>
        <time>2020-11-17T08:13:22Z</time>
      </trkpt>
      <trkpt lat="28.6430300" lon="-17.8950520">
        <ele>455.7</ele>
        <time>2020-11-17T08:13:23Z</time>
      </trkpt>
      <trkpt lat="28.6430120" lon="-17.8950170">
        <ele>456.1</ele>
        <time>2020-11-17T08:13:24Z</time>
      </trkpt>
      <trkpt lat="28.6430120" lon="-17.8950170">
        <ele>456.1</ele>
        <time>2020-11-17T08:13:25Z</time>
      </trkpt>
      <trkpt lat="28.6429920" lon="-17.8949820">
        <ele>456.4</ele>
        <time>2020-11-17T08:13:26Z</time>
      </trkpt>
      <trkpt lat="28.6429920" lon="-17.8949820">
        <ele>456.4</ele>
        <time>2020-11-17T08:13:27Z</time>
      </trkpt>
      <trkpt lat="28.6429680" lon="-17.8949500">
        <ele>456.7</ele>
        <time>2020-11-17T08:13:28Z</time>
      </trkpt>
      <trkpt lat="28.6429680" lon="-17.8949500">
        <ele>456.7</ele>
        <time>2020-11-17T08:13:29Z</time>
      </trkpt>
      <trkpt lat="28.6429430" lon="-17.8949200">
        <ele>457.0</ele>
        <time>2020-11-17T08:13:30Z</time>
      </trkpt>
      <trkpt lat="28.6429430" lon="-17.8949200">
        <ele>457.0</ele>
        <time>2020-11-17T08:13:31Z</time>
      </trkpt>
      <trkpt lat="28.6429220" lon="-17.8948850">
        <ele>457.3</ele>
        <time>2020-11-17T08:13:32Z</time>
      </trkpt>
      <trkpt lat="28.6429100" lon="-17.8948670">
        <ele>457.5</ele>
        <time>2020-11-17T08:13:33Z</time>
      </trkpt>
      <trkpt lat="28.6429100" lon="-17.8948670">
        <ele>457.5</ele>
        <time>2020-11-17T08:13:34Z</time>
      </trkpt>
      <trkpt lat="28.6428920" lon="-17.8948280">
        <ele>457.8</ele>
        <time>2020-11-17T08:13:35Z</time>
      </trkpt>
      <trkpt lat="28.6428920" lon="-17.8948280">
        <ele>457.8</ele>
        <time>2020-11-17T08:13:36Z</time>
      </trkpt>
      <trkpt lat="28.6428630" lon="-17.8947970">
        <ele>458.1</ele>
        <time>2020-11-17T08:13:37Z</time>
      </trkpt>
      <trkpt lat="28.6428480" lon="-17.8947820">
        <ele>458.3</ele>
        <time>2020-11-17T08:13:38Z</time>
      </trkpt>
      <trkpt lat="28.6428480" lon="-17.8947820">
        <ele>458.3</ele>
        <time>2020-11-17T08:13:39Z</time>
      </trkpt>
      <trkpt lat="28.6428170" lon="-17.8947520">
        <ele>458.7</ele>
        <time>2020-11-17T08:13:40Z</time>
      </trkpt>
      <trkpt lat="28.6428170" lon="-17.8947520">
        <ele>458.7</ele>
        <time>2020-11-17T08:13:41Z</time>
      </trkpt>
      <trkpt lat="28.6427830" lon="-17.8947280">
        <ele>459.1</ele>
        <time>2020-11-17T08:13:42Z</time>
      </trkpt>
      <trkpt lat="28.6427830" lon="-17.8947280">
        <ele>459.1</ele>
        <time>2020-11-17T08:13:43Z</time>
      </trkpt>
      <trkpt lat="28.6427520" lon="-17.8947050">
        <ele>459.5</ele>
        <time>2020-11-17T08:13:44Z</time>
      </trkpt>
      <trkpt lat="28.6427520" lon="-17.8947050">
        <ele>459.5</ele>
        <time>2020-11-17T08:13:45Z</time>
      </trkpt>
      <trkpt lat="28.6427220" lon="-17.8946780">
        <ele>460.0</ele>
        <time>2020-11-17T08:13:46Z</time>
      </trkpt>
      <trkpt lat="28.6427220" lon="-17.8946780">
        <ele>460.0</ele>
        <time>2020-11-17T08:13:47Z</time>
      </trkpt>
      <trkpt lat="28.6426950" lon="-17.8946520">
        <ele>460.4</ele>
        <time>2020-11-17T08:13:48Z</time>
      </trkpt>
      <trkpt lat="28.6426820" lon="-17.8946370">
        <ele>460.6</ele>
        <time>2020-11-17T08:13:49Z</time>
      </trkpt>
      <trkpt lat="28.6426820" lon="-17.8946370">
        <ele>460.6</ele>
        <time>2020-11-17T08:13:50Z</time>
      </trkpt>
      <trkpt lat="28.6426500" lon="-17.8946150">
        <ele>461.0</ele>
        <time>2020-11-17T08:13:51Z</time>
      </trkpt>
      <trkpt lat="28.6426500" lon="-17.8946150">
        <ele>461.0</ele>
        <time>2020-11-17T08:13:52Z</time>
      </trkpt>
      <trkpt lat="28.6426170" lon="-17.8945970">
        <ele>461.5</ele>
        <time>2020-11-17T08:13:53Z</time>
      </trkpt>
      <trkpt lat="28.6426000" lon="-17.8945830">
        <ele>461.7</ele>
        <time>2020-11-17T08:13:54Z</time>
      </trkpt>
      <trkpt lat="28.6426000" lon="-17.8945830">
        <ele>461.7</ele>
        <time>2020-11-17T08:13:55Z</time>
      </trkpt>
      <trkpt lat="28.6425580" lon="-17.8945650">
        <ele>462.2</ele>
        <time>2020-11-17T08:13:56Z</time>
      </trkpt>
      <trkpt lat="28.6425580" lon="-17.8945650">
        <ele>462.2</ele>
        <time>2020-11-17T08:13:57Z</time>
      </trkpt>
      <trkpt lat="28.6425300" lon="-17.8945320">
        <ele>462.7</ele>
        <time>2020-11-17T08:13:58Z</time>
      </trkpt>
      <trkpt lat="28.6425300" lon="-17.8945320">
        <ele>462.7</ele>
        <time>2020-11-17T08:13:59Z</time>
      </trkpt>
      <trkpt lat="28.6425000" lon="-17.8945070">
        <ele>463.1</ele>
        <time>2020-11-17T08:14:00Z</time>
      </trkpt>
      <trkpt lat="28.6425000" lon="-17.8945070">
        <ele>463.1</ele>
        <time>2020-11-17T08:14:01Z</time>
      </trkpt>
      <trkpt lat="28.6424700" lon="-17.8944830">
        <ele>463.5</ele>
        <time>2020-11-17T08:14:02Z</time>
      </trkpt>
      <trkpt lat="28.6424700" lon="-17.8944830">
        <ele>463.5</ele>
        <time>2020-11-17T08:14:03Z</time>
      </trkpt>
      <trkpt lat="28.6424450" lon="-17.8944620">
        <ele>463.8</ele>
        <time>2020-11-17T08:14:04Z</time>
      </trkpt>
      <trkpt lat="28.6424450" lon="-17.8944620">
        <ele>463.8</ele>
        <time>2020-11-17T08:14:05Z</time>
      </trkpt>
      <trkpt lat="28.6424250" lon="-17.8944330">
        <ele>464.1</ele>
        <time>2020-11-17T08:14:06Z</time>
      </trkpt>
      <trkpt lat="28.6424250" lon="-17.8944330">
        <ele>464.1</ele>
        <time>2020-11-17T08:14:07Z</time>
      </trkpt>
      <trkpt lat="28.6424120" lon="-17.8944220">
        <ele>464.3</ele>
        <time>2020-11-17T08:14:08Z</time>
      </trkpt>
      <trkpt lat="28.6423920" lon="-17.8943930">
        <ele>464.7</ele>
        <time>2020-11-17T08:14:09Z</time>
      </trkpt>
      <trkpt lat="28.6423830" lon="-17.8943780">
        <ele>464.9</ele>
        <time>2020-11-17T08:14:10Z</time>
      </trkpt>
      <trkpt lat="28.6423830" lon="-17.8943780">
        <ele>464.9</ele>
        <time>2020-11-17T08:14:11Z</time>
      </trkpt>
      <trkpt lat="28.6423650" lon="-17.8943480">
        <ele>465.3</ele>
        <time>2020-11-17T08:14:12Z</time>
      </trkpt>
      <trkpt lat="28.6423650" lon="-17.8943480">
        <ele>465.3</ele>
        <time>2020-11-17T08:14:13Z</time>
      </trkpt>
      <trkpt lat="28.6423380" lon="-17.8943250">
        <ele>465.7</ele>
        <time>2020-11-17T08:14:14Z</time>
      </trkpt>
      <trkpt lat="28.6423270" lon="-17.8943120">
        <ele>465.9</ele>
        <time>2020-11-17T08:14:15Z</time>
      </trkpt>
      <trkpt lat="28.6423270" lon="-17.8943120">
        <ele>465.9</ele>
        <time>2020-11-17T08:14:16Z</time>
      </trkpt>
      <trkpt lat="28.6423020" lon="-17.8942830">
        <ele>466.4</ele>
        <time>2020-11-17T08:14:17Z</time>
      </trkpt>
      <trkpt lat="28.6423020" lon="-17.8942830">
        <ele>466.4</ele>
        <time>2020-11-17T08:14:18Z</time>
      </trkpt>
      <trkpt lat="28.6422780" lon="-17.8942570">
        <ele>466.9</ele>
        <time>2020-11-17T08:14:19Z</time>
      </trkpt>
      <trkpt lat="28.6422650" lon="-17.8942450">
        <ele>467.1</ele>
        <time>2020-11-17T08:14:20Z</time>
      </trkpt>
      <trkpt lat="28.6422530" lon="-17.8942350">
        <ele>467.3</ele>
        <time>2020-11-17T08:14:21Z</time>
      </trkpt>
      <trkpt lat="28.6422530" lon="-17.8942350">
        <ele>467.3</ele>
        <time>2020-11-17T08:14:22Z</time>
      </trkpt>
      <trkpt lat="28.6422270" lon="-17.8942100">
        <ele>467.8</ele>
        <time>2020-11-17T08:14:23Z</time>
      </trkpt>
      <trkpt lat="28.6422270" lon="-17.8942100">
        <ele>467.8</ele>
        <time>2020-11-17T08:14:24Z</time>
      </trkpt>
      <trkpt lat="28.6422020" lon="-17.8941850">
        <ele>468.2</ele>
        <time>2020-11-17T08:14:25Z</time>
      </trkpt>
      <trkpt lat="28.6422020" lon="-17.8941850">
        <ele>468.2</ele>
        <time>2020-11-17T08:14:26Z</time>
      </trkpt>
      <trkpt lat="28.6421720" lon="-17.8941630">
        <ele>468.7</ele>
        <time>2020-11-17T08:14:27Z</time>
      </trkpt>
      <trkpt lat="28.6421550" lon="-17.8941530">
        <ele>468.9</ele>
        <time>2020-11-17T08:14:28Z</time>
      </trkpt>
      <trkpt lat="28.6421550" lon="-17.8941530">
        <ele>468.9</ele>
        <time>2020-11-17T08:14:29Z</time>
      </trkpt>
      <trkpt lat="28.6421270" lon="-17.8941330">
        <ele>469.4</ele>
        <time>2020-11-17T08:14:30Z</time>
      </trkpt>
      <trkpt lat="28.6421270" lon="-17.8941330">
        <ele>469.4</ele>
        <time>2020-11-17T08:14:31Z</time>
      </trkpt>
      <trkpt lat="28.6420970" lon="-17.8941070">
        <ele>469.8</ele>
        <time>2020-11-17T08:14:32Z</time>
      </trkpt>
      <trkpt lat="28.6420970" lon="-17.8941070">
        <ele>469.8</ele>
        <time>2020-11-17T08:14:33Z</time>
      </trkpt>
      <trkpt lat="28.6420650" lon="-17.8940970">
        <ele>470.2</ele>
        <time>2020-11-17T08:14:34Z</time>
      </trkpt>
      <trkpt lat="28.6420650" lon="-17.8940970">
        <ele>470.2</ele>
        <time>2020-11-17T08:14:35Z</time>
      </trkpt>
      <trkpt lat="28.6420300" lon="-17.8940950">
        <ele>470.6</ele>
        <time>2020-11-17T08:14:36Z</time>
      </trkpt>
      <trkpt lat="28.6420150" lon="-17.8940880">
        <ele>470.8</ele>
        <time>2020-11-17T08:14:37Z</time>
      </trkpt>
      <trkpt lat="28.6420150" lon="-17.8940880">
        <ele>470.8</ele>
        <time>2020-11-17T08:14:38Z</time>
      </trkpt>
      <trkpt lat="28.6419870" lon="-17.8940750">
        <ele>471.1</ele>
        <time>2020-11-17T08:14:39Z</time>
      </trkpt>
      <trkpt lat="28.6419870" lon="-17.8940750">
        <ele>471.1</ele>
        <time>2020-11-17T08:14:40Z</time>
      </trkpt>
      <trkpt lat="28.6419580" lon="-17.8940620">
        <ele>471.4</ele>
        <time>2020-11-17T08:14:41Z</time>
      </trkpt>
      <trkpt lat="28.6419430" lon="-17.8940550">
        <ele>471.5</ele>
        <time>2020-11-17T08:14:42Z</time>
      </trkpt>
      <trkpt lat="28.6419430" lon="-17.8940550">
        <ele>471.5</ele>
        <time>2020-11-17T08:14:43Z</time>
      </trkpt>
      <trkpt lat="28.6419100" lon="-17.8940420">
        <ele>471.8</ele>
        <time>2020-11-17T08:14:44Z</time>
      </trkpt>
      <trkpt lat="28.6418920" lon="-17.8940330">
        <ele>472.0</ele>
        <time>2020-11-17T08:14:45Z</time>
      </trkpt>
      <trkpt lat="28.6418920" lon="-17.8940330">
        <ele>472.0</ele>
        <time>2020-11-17T08:14:46Z</time>
      </trkpt>
      <trkpt lat="28.6418500" lon="-17.8940130">
        <ele>472.4</ele>
        <time>2020-11-17T08:14:47Z</time>
      </trkpt>
      <trkpt lat="28.6418330" lon="-17.8940020">
        <ele>472.6</ele>
        <time>2020-11-17T08:14:48Z</time>
      </trkpt>
      <trkpt lat="28.6418330" lon="-17.8940020">
        <ele>472.6</ele>
        <time>2020-11-17T08:14:49Z</time>
      </trkpt>
      <trkpt lat="28.6418330" lon="-17.8940020">
        <ele>472.6</ele>
        <time>2020-11-17T08:14:50Z</time>
      </trkpt>
      <trkpt lat="28.6417770" lon="-17.8939600">
        <ele>473.2</ele>
        <time>2020-11-17T08:14:51Z</time>
      </trkpt>
      <trkpt lat="28.6417770" lon="-17.8939600">
        <ele>473.2</ele>
        <time>2020-11-17T08:14:52Z</time>
      </trkpt>
      <trkpt lat="28.6417380" lon="-17.8939220">
        <ele>473.7</ele>
        <time>2020-11-17T08:14:53Z</time>
      </trkpt>
      <trkpt lat="28.6417380" lon="-17.8939220">
        <ele>473.7</ele>
        <time>2020-11-17T08:14:54Z</time>
      </trkpt>
      <trkpt lat="28.6416970" lon="-17.8938750">
        <ele>474.2</ele>
        <time>2020-11-17T08:14:55Z</time>
      </trkpt>
      <trkpt lat="28.6416970" lon="-17.8938750">
        <ele>474.2</ele>
        <time>2020-11-17T08:14:56Z</time>
      </trkpt>
      <trkpt lat="28.6416550" lon="-17.8938280">
        <ele>474.8</ele>
        <time>2020-11-17T08:14:57Z</time>
      </trkpt>
      <trkpt lat="28.6416370" lon="-17.8938050">
        <ele>475.0</ele>
        <time>2020-11-17T08:14:58Z</time>
      </trkpt>
      <trkpt lat="28.6416370" lon="-17.8938050">
        <ele>475.0</ele>
        <time>2020-11-17T08:14:59Z</time>
      </trkpt>
      <trkpt lat="28.6416000" lon="-17.8937580">
        <ele>475.6</ele>
        <time>2020-11-17T08:15:00Z</time>
      </trkpt>
      <trkpt lat="28.6416000" lon="-17.8937580">
        <ele>475.6</ele>
        <time>2020-11-17T08:15:01Z</time>
      </trkpt>
      <trkpt lat="28.6415620" lon="-17.8937170">
        <ele>476.1</ele>
        <time>2020-11-17T08:15:02Z</time>
      </trkpt>
      <trkpt lat="28.6415430" lon="-17.8936930">
        <ele>476.3</ele>
        <time>2020-11-17T08:15:03Z</time>
      </trkpt>
      <trkpt lat="28.6415430" lon="-17.8936930">
        <ele>476.3</ele>
        <time>2020-11-17T08:15:04Z</time>
      </trkpt>
      <trkpt lat="28.6415100" lon="-17.8936450">
        <ele>476.8</ele>
        <time>2020-11-17T08:15:05Z</time>
      </trkpt>
      <trkpt lat="28.6415100" lon="-17.8936450">
        <ele>476.8</ele>
        <time>2020-11-17T08:15:06Z</time>
      </trkpt>
      <trkpt lat="28.6414730" lon="-17.8935980">
        <ele>477.4</ele>
        <time>2020-11-17T08:15:07Z</time>
      </trkpt>
      <trkpt lat="28.6414730" lon="-17.8935980">
        <ele>477.4</ele>
        <time>2020-11-17T08:15:08Z</time>
      </trkpt>
      <trkpt lat="28.6414420" lon="-17.8935530">
        <ele>477.8</ele>
        <time>2020-11-17T08:15:09Z</time>
      </trkpt>
      <trkpt lat="28.6414420" lon="-17.8935530">
        <ele>477.8</ele>
        <time>2020-11-17T08:15:10Z</time>
      </trkpt>
      <trkpt lat="28.6414050" lon="-17.8935130">
        <ele>478.3</ele>
        <time>2020-11-17T08:15:11Z</time>
      </trkpt>
      <trkpt lat="28.6413900" lon="-17.8934950">
        <ele>478.5</ele>
        <time>2020-11-17T08:15:12Z</time>
      </trkpt>
      <trkpt lat="28.6413900" lon="-17.8934950">
        <ele>478.5</ele>
        <time>2020-11-17T08:15:13Z</time>
      </trkpt>
      <trkpt lat="28.6413600" lon="-17.8934570">
        <ele>479.0</ele>
        <time>2020-11-17T08:15:14Z</time>
      </trkpt>
      <trkpt lat="28.6413600" lon="-17.8934570">
        <ele>479.0</ele>
        <time>2020-11-17T08:15:15Z</time>
      </trkpt>
      <trkpt lat="28.6413320" lon="-17.8934270">
        <ele>479.4</ele>
        <time>2020-11-17T08:15:16Z</time>
      </trkpt>
      <trkpt lat="28.6413320" lon="-17.8934270">
        <ele>479.4</ele>
        <time>2020-11-17T08:15:17Z</time>
      </trkpt>
      <trkpt lat="28.6413020" lon="-17.8933900">
        <ele>479.9</ele>
        <time>2020-11-17T08:15:18Z</time>
      </trkpt>
      <trkpt lat="28.6413020" lon="-17.8933900">
        <ele>479.9</ele>
        <time>2020-11-17T08:15:19Z</time>
      </trkpt>
      <trkpt lat="28.6412700" lon="-17.8933650">
        <ele>480.3</ele>
        <time>2020-11-17T08:15:20Z</time>
      </trkpt>
      <trkpt lat="28.6412700" lon="-17.8933650">
        <ele>480.3</ele>
        <time>2020-11-17T08:15:21Z</time>
      </trkpt>
      <trkpt lat="28.6412480" lon="-17.8933350">
        <ele>480.7</ele>
        <time>2020-11-17T08:15:22Z</time>
      </trkpt>
      <trkpt lat="28.6412350" lon="-17.8933230">
        <ele>480.9</ele>
        <time>2020-11-17T08:15:23Z</time>
      </trkpt>
      <trkpt lat="28.6412350" lon="-17.8933230">
        <ele>480.9</ele>
        <time>2020-11-17T08:15:24Z</time>
      </trkpt>
      <trkpt lat="28.6412120" lon="-17.8932950">
        <ele>481.3</ele>
        <time>2020-11-17T08:15:25Z</time>
      </trkpt>
      <trkpt lat="28.6412120" lon="-17.8932950">
        <ele>481.3</ele>
        <time>2020-11-17T08:15:26Z</time>
      </trkpt>
      <trkpt lat="28.6411920" lon="-17.8932670">
        <ele>481.7</ele>
        <time>2020-11-17T08:15:27Z</time>
      </trkpt>
      <trkpt lat="28.6411920" lon="-17.8932670">
        <ele>481.7</ele>
        <time>2020-11-17T08:15:28Z</time>
      </trkpt>
      <trkpt lat="28.6411650" lon="-17.8932520">
        <ele>482.1</ele>
        <time>2020-11-17T08:15:29Z</time>
      </trkpt>
      <trkpt lat="28.6411520" lon="-17.8932470">
        <ele>482.2</ele>
        <time>2020-11-17T08:15:30Z</time>
      </trkpt>
      <trkpt lat="28.6411520" lon="-17.8932470">
        <ele>482.2</ele>
        <time>2020-11-17T08:15:31Z</time>
      </trkpt>
      <trkpt lat="28.6411180" lon="-17.8932330">
        <ele>482.6</ele>
        <time>2020-11-17T08:15:32Z</time>
      </trkpt>
      <trkpt lat="28.6411070" lon="-17.8932280">
        <ele>482.7</ele>
        <time>2020-11-17T08:15:33Z</time>
      </trkpt>
      <trkpt lat="28.6411070" lon="-17.8932280">
        <ele>482.7</ele>
        <time>2020-11-17T08:15:34Z</time>
      </trkpt>
      <trkpt lat="28.6411070" lon="-17.8932280">
        <ele>482.7</ele>
        <time>2020-11-17T08:15:35Z</time>
      </trkpt>
      <trkpt lat="28.6410670" lon="-17.8932020">
        <ele>483.2</ele>
        <time>2020-11-17T08:15:36Z</time>
      </trkpt>
      <trkpt lat="28.6410670" lon="-17.8932020">
        <ele>483.2</ele>
        <time>2020-11-17T08:15:37Z</time>
      </trkpt>
      <trkpt lat="28.6410350" lon="-17.8931930">
        <ele>483.6</ele>
        <time>2020-11-17T08:15:38Z</time>
      </trkpt>
      <trkpt lat="28.6410200" lon="-17.8931900">
        <ele>483.7</ele>
        <time>2020-11-17T08:15:39Z</time>
      </trkpt>
      <trkpt lat="28.6410200" lon="-17.8931900">
        <ele>483.7</ele>
        <time>2020-11-17T08:15:40Z</time>
      </trkpt>
      <trkpt lat="28.6409900" lon="-17.8931950">
        <ele>484.0</ele>
        <time>2020-11-17T08:15:41Z</time>
      </trkpt>
      <trkpt lat="28.6409900" lon="-17.8931950">
        <ele>484.0</ele>
        <time>2020-11-17T08:15:42Z</time>
      </trkpt>
      <trkpt lat="28.6409600" lon="-17.8931970">
        <ele>484.4</ele>
        <time>2020-11-17T08:15:43Z</time>
      </trkpt>
      <trkpt lat="28.6409600" lon="-17.8931970">
        <ele>484.4</ele>
        <time>2020-11-17T08:15:44Z</time>
      </trkpt>
      <trkpt lat="28.6409320" lon="-17.8931930">
        <ele>484.6</ele>
        <time>2020-11-17T08:15:45Z</time>
      </trkpt>
      <trkpt lat="28.6409320" lon="-17.8931930">
        <ele>484.6</ele>
        <time>2020-11-17T08:15:46Z</time>
      </trkpt>
      <trkpt lat="28.6409020" lon="-17.8931900">
        <ele>484.9</ele>
        <time>2020-11-17T08:15:47Z</time>
      </trkpt>
      <trkpt lat="28.6409020" lon="-17.8931900">
        <ele>484.9</ele>
        <time>2020-11-17T08:15:48Z</time>
      </trkpt>
      <trkpt lat="28.6408720" lon="-17.8931930">
        <ele>485.1</ele>
        <time>2020-11-17T08:15:49Z</time>
      </trkpt>
      <trkpt lat="28.6408570" lon="-17.8931920">
        <ele>485.2</ele>
        <time>2020-11-17T08:15:50Z</time>
      </trkpt>
      <trkpt lat="28.6408570" lon="-17.8931920">
        <ele>485.2</ele>
        <time>2020-11-17T08:15:51Z</time>
      </trkpt>
      <trkpt lat="28.6408230" lon="-17.8931870">
        <ele>485.5</ele>
        <time>2020-11-17T08:15:52Z</time>
      </trkpt>
      <trkpt lat="28.6408230" lon="-17.8931870">
        <ele>485.5</ele>
        <time>2020-11-17T08:15:53Z</time>
      </trkpt>
      <trkpt lat="28.6407930" lon="-17.8931780">
        <ele>485.8</ele>
        <time>2020-11-17T08:15:54Z</time>
      </trkpt>
      <trkpt lat="28.6407930" lon="-17.8931780">
        <ele>485.8</ele>
        <time>2020-11-17T08:15:55Z</time>
      </trkpt>
      <trkpt lat="28.6407650" lon="-17.8931720">
        <ele>486.0</ele>
        <time>2020-11-17T08:15:56Z</time>
      </trkpt>
      <trkpt lat="28.6407480" lon="-17.8931680">
        <ele>486.1</ele>
        <time>2020-11-17T08:15:57Z</time>
      </trkpt>
      <trkpt lat="28.6407350" lon="-17.8931650">
        <ele>486.3</ele>
        <time>2020-11-17T08:15:58Z</time>
      </trkpt>
      <trkpt lat="28.6407350" lon="-17.8931650">
        <ele>486.3</ele>
        <time>2020-11-17T08:15:59Z</time>
      </trkpt>
      <trkpt lat="28.6407020" lon="-17.8931520">
        <ele>486.5</ele>
        <time>2020-11-17T08:16:00Z</time>
      </trkpt>
      <trkpt lat="28.6407020" lon="-17.8931520">
        <ele>486.5</ele>
        <time>2020-11-17T08:16:01Z</time>
      </trkpt>
      <trkpt lat="28.6406700" lon="-17.8931470">
        <ele>486.8</ele>
        <time>2020-11-17T08:16:02Z</time>
      </trkpt>
      <trkpt lat="28.6406700" lon="-17.8931470">
        <ele>486.8</ele>
        <time>2020-11-17T08:16:03Z</time>
      </trkpt>
      <trkpt lat="28.6406400" lon="-17.8931280">
        <ele>487.1</ele>
        <time>2020-11-17T08:16:04Z</time>
      </trkpt>
      <trkpt lat="28.6406400" lon="-17.8931280">
        <ele>487.1</ele>
        <time>2020-11-17T08:16:05Z</time>
      </trkpt>
      <trkpt lat="28.6406130" lon="-17.8931050">
        <ele>487.4</ele>
        <time>2020-11-17T08:16:06Z</time>
      </trkpt>
      <trkpt lat="28.6406130" lon="-17.8931050">
        <ele>487.4</ele>
        <time>2020-11-17T08:16:07Z</time>
      </trkpt>
      <trkpt lat="28.6405850" lon="-17.8930920">
        <ele>487.6</ele>
        <time>2020-11-17T08:16:08Z</time>
      </trkpt>
      <trkpt lat="28.6405850" lon="-17.8930920">
        <ele>487.6</ele>
        <time>2020-11-17T08:16:09Z</time>
      </trkpt>
      <trkpt lat="28.6405550" lon="-17.8930800">
        <ele>487.9</ele>
        <time>2020-11-17T08:16:10Z</time>
      </trkpt>
      <trkpt lat="28.6405420" lon="-17.8930730">
        <ele>488.1</ele>
        <time>2020-11-17T08:16:11Z</time>
      </trkpt>
      <trkpt lat="28.6405270" lon="-17.8930650">
        <ele>488.2</ele>
        <time>2020-11-17T08:16:12Z</time>
      </trkpt>
      <trkpt lat="28.6405270" lon="-17.8930650">
        <ele>488.2</ele>
        <time>2020-11-17T08:16:13Z</time>
      </trkpt>
      <trkpt lat="28.6404970" lon="-17.8930500">
        <ele>488.6</ele>
        <time>2020-11-17T08:16:14Z</time>
      </trkpt>
      <trkpt lat="28.6404830" lon="-17.8930430">
        <ele>488.7</ele>
        <time>2020-11-17T08:16:15Z</time>
      </trkpt>
      <trkpt lat="28.6404830" lon="-17.8930430">
        <ele>488.7</ele>
        <time>2020-11-17T08:16:16Z</time>
      </trkpt>
      <trkpt lat="28.6404550" lon="-17.8930300">
        <ele>489.0</ele>
        <time>2020-11-17T08:16:17Z</time>
      </trkpt>
      <trkpt lat="28.6404400" lon="-17.8930250">
        <ele>489.2</ele>
        <time>2020-11-17T08:16:18Z</time>
      </trkpt>
      <trkpt lat="28.6404250" lon="-17.8930230">
        <ele>489.3</ele>
        <time>2020-11-17T08:16:19Z</time>
      </trkpt>
      <trkpt lat="28.6404250" lon="-17.8930230">
        <ele>489.3</ele>
        <time>2020-11-17T08:16:20Z</time>
      </trkpt>
      <trkpt lat="28.6404000" lon="-17.8930070">
        <ele>489.6</ele>
        <time>2020-11-17T08:16:21Z</time>
      </trkpt>
      <trkpt lat="28.6404000" lon="-17.8930070">
        <ele>489.6</ele>
        <time>2020-11-17T08:16:22Z</time>
      </trkpt>
      <trkpt lat="28.6403680" lon="-17.8929950">
        <ele>489.9</ele>
        <time>2020-11-17T08:16:23Z</time>
      </trkpt>
      <trkpt lat="28.6403530" lon="-17.8929900">
        <ele>490.0</ele>
        <time>2020-11-17T08:16:24Z</time>
      </trkpt>
      <trkpt lat="28.6403530" lon="-17.8929900">
        <ele>490.0</ele>
        <time>2020-11-17T08:16:25Z</time>
      </trkpt>
      <trkpt lat="28.6403270" lon="-17.8929750">
        <ele>490.3</ele>
        <time>2020-11-17T08:16:26Z</time>
      </trkpt>
      <trkpt lat="28.6403150" lon="-17.8929650">
        <ele>490.5</ele>
        <time>2020-11-17T08:16:27Z</time>
      </trkpt>
      <trkpt lat="28.6403150" lon="-17.8929650">
        <ele>490.5</ele>
        <time>2020-11-17T08:16:28Z</time>
      </trkpt>
      <trkpt lat="28.6402880" lon="-17.8929530">
        <ele>490.7</ele>
        <time>2020-11-17T08:16:29Z</time>
      </trkpt>
      <trkpt lat="28.6402750" lon="-17.8929470">
        <ele>490.9</ele>
        <time>2020-11-17T08:16:30Z</time>
      </trkpt>
      <trkpt lat="28.6402600" lon="-17.8929400">
        <ele>491.0</ele>
        <time>2020-11-17T08:16:31Z</time>
      </trkpt>
      <trkpt lat="28.6402600" lon="-17.8929400">
        <ele>491.0</ele>
        <time>2020-11-17T08:16:32Z</time>
      </trkpt>
      <trkpt lat="28.6402320" lon="-17.8929200">
        <ele>491.3</ele>
        <time>2020-11-17T08:16:33Z</time>
      </trkpt>
      <trkpt lat="28.6402320" lon="-17.8929200">
        <ele>491.3</ele>
        <time>2020-11-17T08:16:34Z</time>
      </trkpt>
      <trkpt lat="28.6402180" lon="-17.8928880">
        <ele>491.6</ele>
        <time>2020-11-17T08:16:35Z</time>
      </trkpt>
      <trkpt lat="28.6402150" lon="-17.8928680">
        <ele>491.7</ele>
        <time>2020-11-17T08:16:36Z</time>
      </trkpt>
      <trkpt lat="28.6402150" lon="-17.8928680">
        <ele>491.7</ele>
        <time>2020-11-17T08:16:37Z</time>
      </trkpt>
      <trkpt lat="28.6402100" lon="-17.8928350">
        <ele>492.2</ele>
        <time>2020-11-17T08:16:38Z</time>
      </trkpt>
      <trkpt lat="28.6402100" lon="-17.8928350">
        <ele>492.2</ele>
        <time>2020-11-17T08:16:39Z</time>
      </trkpt>
      <trkpt lat="28.6402150" lon="-17.8928020">
        <ele>492.7</ele>
        <time>2020-11-17T08:16:40Z</time>
      </trkpt>
      <trkpt lat="28.6402230" lon="-17.8927830">
        <ele>493.0</ele>
        <time>2020-11-17T08:16:41Z</time>
      </trkpt>
      <trkpt lat="28.6402230" lon="-17.8927830">
        <ele>493.0</ele>
        <time>2020-11-17T08:16:42Z</time>
      </trkpt>
      <trkpt lat="28.6402420" lon="-17.8927530">
        <ele>493.5</ele>
        <time>2020-11-17T08:16:43Z</time>
      </trkpt>
      <trkpt lat="28.6402420" lon="-17.8927530">
        <ele>493.5</ele>
        <time>2020-11-17T08:16:44Z</time>
      </trkpt>
      <trkpt lat="28.6402380" lon="-17.8927300">
        <ele>493.8</ele>
        <time>2020-11-17T08:16:45Z</time>
      </trkpt>
      <trkpt lat="28.6402320" lon="-17.8927170">
        <ele>494.0</ele>
        <time>2020-11-17T08:16:46Z</time>
      </trkpt>
      <trkpt lat="28.6402270" lon="-17.8927000">
        <ele>494.2</ele>
        <time>2020-11-17T08:16:47Z</time>
      </trkpt>
      <trkpt lat="28.6402270" lon="-17.8927000">
        <ele>494.2</ele>
        <time>2020-11-17T08:16:48Z</time>
      </trkpt>
      <trkpt lat="28.6402200" lon="-17.8926650">
        <ele>494.7</ele>
        <time>2020-11-17T08:16:49Z</time>
      </trkpt>
      <trkpt lat="28.6402200" lon="-17.8926650">
        <ele>494.7</ele>
        <time>2020-11-17T08:16:50Z</time>
      </trkpt>
      <trkpt lat="28.6402130" lon="-17.8926350">
        <ele>495.1</ele>
        <time>2020-11-17T08:16:51Z</time>
      </trkpt>
      <trkpt lat="28.6402070" lon="-17.8926220">
        <ele>495.2</ele>
        <time>2020-11-17T08:16:52Z</time>
      </trkpt>
      <trkpt lat="28.6402070" lon="-17.8926220">
        <ele>495.2</ele>
        <time>2020-11-17T08:16:53Z</time>
      </trkpt>
      <trkpt lat="28.6401930" lon="-17.8925900">
        <ele>495.7</ele>
        <time>2020-11-17T08:16:54Z</time>
      </trkpt>
      <trkpt lat="28.6401930" lon="-17.8925900">
        <ele>495.7</ele>
        <time>2020-11-17T08:16:55Z</time>
      </trkpt>
      <trkpt lat="28.6401900" lon="-17.8925530">
        <ele>496.1</ele>
        <time>2020-11-17T08:16:56Z</time>
      </trkpt>
      <trkpt lat="28.6401900" lon="-17.8925530">
        <ele>496.1</ele>
        <time>2020-11-17T08:16:57Z</time>
      </trkpt>
      <trkpt lat="28.6401900" lon="-17.8925200">
        <ele>496.5</ele>
        <time>2020-11-17T08:16:58Z</time>
      </trkpt>
      <trkpt lat="28.6401900" lon="-17.8925200">
        <ele>496.5</ele>
        <time>2020-11-17T08:16:59Z</time>
      </trkpt>
      <trkpt lat="28.6401750" lon="-17.8924900">
        <ele>496.9</ele>
        <time>2020-11-17T08:17:00Z</time>
      </trkpt>
      <trkpt lat="28.6401750" lon="-17.8924900">
        <ele>496.9</ele>
        <time>2020-11-17T08:17:01Z</time>
      </trkpt>
      <trkpt lat="28.6401770" lon="-17.8924580">
        <ele>497.2</ele>
        <time>2020-11-17T08:17:02Z</time>
      </trkpt>
      <trkpt lat="28.6401770" lon="-17.8924580">
        <ele>497.2</ele>
        <time>2020-11-17T08:17:03Z</time>
      </trkpt>
      <trkpt lat="28.6401780" lon="-17.8924420">
        <ele>497.4</ele>
        <time>2020-11-17T08:17:04Z</time>
      </trkpt>
      <trkpt lat="28.6401700" lon="-17.8924100">
        <ele>497.7</ele>
        <time>2020-11-17T08:17:05Z</time>
      </trkpt>
      <trkpt lat="28.6401650" lon="-17.8923930">
        <ele>497.9</ele>
        <time>2020-11-17T08:17:06Z</time>
      </trkpt>
      <trkpt lat="28.6401650" lon="-17.8923930">
        <ele>497.9</ele>
        <time>2020-11-17T08:17:07Z</time>
      </trkpt>
      <trkpt lat="28.6401700" lon="-17.8923580">
        <ele>498.3</ele>
        <time>2020-11-17T08:17:08Z</time>
      </trkpt>
      <trkpt lat="28.6401700" lon="-17.8923580">
        <ele>498.3</ele>
        <time>2020-11-17T08:17:09Z</time>
      </trkpt>
      <trkpt lat="28.6401770" lon="-17.8923230">
        <ele>498.6</ele>
        <time>2020-11-17T08:17:10Z</time>
      </trkpt>
      <trkpt lat="28.6401770" lon="-17.8923230">
        <ele>498.6</ele>
        <time>2020-11-17T08:17:11Z</time>
      </trkpt>
      <trkpt lat="28.6401820" lon="-17.8922880">
        <ele>499.0</ele>
        <time>2020-11-17T08:17:12Z</time>
      </trkpt>
      <trkpt lat="28.6401820" lon="-17.8922880">
        <ele>499.0</ele>
        <time>2020-11-17T08:17:13Z</time>
      </trkpt>
      <trkpt lat="28.6401770" lon="-17.8922550">
        <ele>499.4</ele>
        <time>2020-11-17T08:17:14Z</time>
      </trkpt>
      <trkpt lat="28.6401770" lon="-17.8922550">
        <ele>499.4</ele>
        <time>2020-11-17T08:17:15Z</time>
      </trkpt>
      <trkpt lat="28.6401750" lon="-17.8922150">
        <ele>499.9</ele>
        <time>2020-11-17T08:17:16Z</time>
      </trkpt>
      <trkpt lat="28.6401750" lon="-17.8921950">
        <ele>500.1</ele>
        <time>2020-11-17T08:17:17Z</time>
      </trkpt>
      <trkpt lat="28.6401750" lon="-17.8921950">
        <ele>500.1</ele>
        <time>2020-11-17T08:17:18Z</time>
      </trkpt>
      <trkpt lat="28.6401770" lon="-17.8921530">
        <ele>500.7</ele>
        <time>2020-11-17T08:17:19Z</time>
      </trkpt>
      <trkpt lat="28.6401770" lon="-17.8921530">
        <ele>500.7</ele>
        <time>2020-11-17T08:17:20Z</time>
      </trkpt>
      <trkpt lat="28.6401800" lon="-17.8921150">
        <ele>501.2</ele>
        <time>2020-11-17T08:17:21Z</time>
      </trkpt>
      <trkpt lat="28.6401800" lon="-17.8921150">
        <ele>501.2</ele>
        <time>2020-11-17T08:17:22Z</time>
      </trkpt>
      <trkpt lat="28.6401820" lon="-17.8920830">
        <ele>501.6</ele>
        <time>2020-11-17T08:17:23Z</time>
      </trkpt>
      <trkpt lat="28.6401820" lon="-17.8920830">
        <ele>501.6</ele>
        <time>2020-11-17T08:17:24Z</time>
      </trkpt>
      <trkpt lat="28.6401820" lon="-17.8920650">
        <ele>501.8</ele>
        <time>2020-11-17T08:17:25Z</time>
      </trkpt>
      <trkpt lat="28.6401830" lon="-17.8920270">
        <ele>502.3</ele>
        <time>2020-11-17T08:17:26Z</time>
      </trkpt>
      <trkpt lat="28.6401830" lon="-17.8920270">
        <ele>502.3</ele>
        <time>2020-11-17T08:17:27Z</time>
      </trkpt>
      <trkpt lat="28.6401920" lon="-17.8919950">
        <ele>502.7</ele>
        <time>2020-11-17T08:17:28Z</time>
      </trkpt>
      <trkpt lat="28.6401920" lon="-17.8919950">
        <ele>502.7</ele>
        <time>2020-11-17T08:17:29Z</time>
      </trkpt>
      <trkpt lat="28.6402000" lon="-17.8919630">
        <ele>503.2</ele>
        <time>2020-11-17T08:17:30Z</time>
      </trkpt>
      <trkpt lat="28.6402000" lon="-17.8919630">
        <ele>503.2</ele>
        <time>2020-11-17T08:17:31Z</time>
      </trkpt>
      <trkpt lat="28.6402080" lon="-17.8919320">
        <ele>503.5</ele>
        <time>2020-11-17T08:17:32Z</time>
      </trkpt>
      <trkpt lat="28.6402100" lon="-17.8919150">
        <ele>503.7</ele>
        <time>2020-11-17T08:17:33Z</time>
      </trkpt>
      <trkpt lat="28.6402100" lon="-17.8919150">
        <ele>503.7</ele>
        <time>2020-11-17T08:17:34Z</time>
      </trkpt>
      <trkpt lat="28.6402150" lon="-17.8918780">
        <ele>504.1</ele>
        <time>2020-11-17T08:17:35Z</time>
      </trkpt>
      <trkpt lat="28.6402150" lon="-17.8918780">
        <ele>504.1</ele>
        <time>2020-11-17T08:17:36Z</time>
      </trkpt>
      <trkpt lat="28.6402220" lon="-17.8918430">
        <ele>504.5</ele>
        <time>2020-11-17T08:17:37Z</time>
      </trkpt>
      <trkpt lat="28.6402250" lon="-17.8918280">
        <ele>504.6</ele>
        <time>2020-11-17T08:17:38Z</time>
      </trkpt>
      <trkpt lat="28.6402250" lon="-17.8918280">
        <ele>504.6</ele>
        <time>2020-11-17T08:17:39Z</time>
      </trkpt>
      <trkpt lat="28.6402320" lon="-17.8918000">
        <ele>504.9</ele>
        <time>2020-11-17T08:17:40Z</time>
      </trkpt>
      <trkpt lat="28.6402320" lon="-17.8918000">
        <ele>504.9</ele>
        <time>2020-11-17T08:17:41Z</time>
      </trkpt>
      <trkpt lat="28.6402370" lon="-17.8917620">
        <ele>505.3</ele>
        <time>2020-11-17T08:17:42Z</time>
      </trkpt>
      <trkpt lat="28.6402370" lon="-17.8917620">
        <ele>505.3</ele>
        <time>2020-11-17T08:17:43Z</time>
      </trkpt>
      <trkpt lat="28.6402320" lon="-17.8917270">
        <ele>505.5</ele>
        <time>2020-11-17T08:17:44Z</time>
      </trkpt>
      <trkpt lat="28.6402320" lon="-17.8917270">
        <ele>505.5</ele>
        <time>2020-11-17T08:17:45Z</time>
      </trkpt>
      <trkpt lat="28.6402220" lon="-17.8916950">
        <ele>505.8</ele>
        <time>2020-11-17T08:17:46Z</time>
      </trkpt>
      <trkpt lat="28.6402220" lon="-17.8916950">
        <ele>505.8</ele>
        <time>2020-11-17T08:17:47Z</time>
      </trkpt>
      <trkpt lat="28.6402200" lon="-17.8916600">
        <ele>506.1</ele>
        <time>2020-11-17T08:17:48Z</time>
      </trkpt>
      <trkpt lat="28.6402250" lon="-17.8916470">
        <ele>506.2</ele>
        <time>2020-11-17T08:17:49Z</time>
      </trkpt>
      <trkpt lat="28.6402250" lon="-17.8916470">
        <ele>506.2</ele>
        <time>2020-11-17T08:17:50Z</time>
      </trkpt>
      <trkpt lat="28.6402430" lon="-17.8916180">
        <ele>506.5</ele>
        <time>2020-11-17T08:17:51Z</time>
      </trkpt>
      <trkpt lat="28.6402430" lon="-17.8916180">
        <ele>506.5</ele>
        <time>2020-11-17T08:17:52Z</time>
      </trkpt>
      <trkpt lat="28.6402550" lon="-17.8915880">
        <ele>506.7</ele>
        <time>2020-11-17T08:17:53Z</time>
      </trkpt>
      <trkpt lat="28.6402550" lon="-17.8915750">
        <ele>506.8</ele>
        <time>2020-11-17T08:17:54Z</time>
      </trkpt>
      <trkpt lat="28.6402550" lon="-17.8915750">
        <ele>506.8</ele>
        <time>2020-11-17T08:17:55Z</time>
      </trkpt>
      <trkpt lat="28.6402520" lon="-17.8915450">
        <ele>507.0</ele>
        <time>2020-11-17T08:17:56Z</time>
      </trkpt>
      <trkpt lat="28.6402520" lon="-17.8915300">
        <ele>507.1</ele>
        <time>2020-11-17T08:17:57Z</time>
      </trkpt>
      <trkpt lat="28.6402520" lon="-17.8915300">
        <ele>507.1</ele>
        <time>2020-11-17T08:17:58Z</time>
      </trkpt>
      <trkpt lat="28.6402600" lon="-17.8914970">
        <ele>507.3</ele>
        <time>2020-11-17T08:17:59Z</time>
      </trkpt>
      <trkpt lat="28.6402680" lon="-17.8914820">
        <ele>507.4</ele>
        <time>2020-11-17T08:18:00Z</time>
      </trkpt>
      <trkpt lat="28.6402680" lon="-17.8914820">
        <ele>507.4</ele>
        <time>2020-11-17T08:18:01Z</time>
      </trkpt>
      <trkpt lat="28.6402780" lon="-17.8914530">
        <ele>507.6</ele>
        <time>2020-11-17T08:18:02Z</time>
      </trkpt>
      <trkpt lat="28.6402780" lon="-17.8914530">
        <ele>507.6</ele>
        <time>2020-11-17T08:18:03Z</time>
      </trkpt>
      <trkpt lat="28.6402780" lon="-17.8914530">
        <ele>507.6</ele>
        <time>2020-11-17T08:18:04Z</time>
      </trkpt>
      <trkpt lat="28.6402780" lon="-17.8914220">
        <ele>507.8</ele>
        <time>2020-11-17T08:18:05Z</time>
      </trkpt>
      <trkpt lat="28.6402880" lon="-17.8913900">
        <ele>508.1</ele>
        <time>2020-11-17T08:18:06Z</time>
      </trkpt>
      <trkpt lat="28.6402880" lon="-17.8913900">
        <ele>508.1</ele>
        <time>2020-11-17T08:18:07Z</time>
      </trkpt>
      <trkpt lat="28.6403000" lon="-17.8913600">
        <ele>508.3</ele>
        <time>2020-11-17T08:18:08Z</time>
      </trkpt>
      <trkpt lat="28.6403000" lon="-17.8913600">
        <ele>508.3</ele>
        <time>2020-11-17T08:18:09Z</time>
      </trkpt>
      <trkpt lat="28.6403080" lon="-17.8913270">
        <ele>508.5</ele>
        <time>2020-11-17T08:18:10Z</time>
      </trkpt>
      <trkpt lat="28.6403080" lon="-17.8913270">
        <ele>508.5</ele>
        <time>2020-11-17T08:18:11Z</time>
      </trkpt>
      <trkpt lat="28.6403080" lon="-17.8913270">
        <ele>508.5</ele>
        <time>2020-11-17T08:18:12Z</time>
      </trkpt>
      <trkpt lat="28.6403180" lon="-17.8912980">
        <ele>508.8</ele>
        <time>2020-11-17T08:18:13Z</time>
      </trkpt>
      <trkpt lat="28.6403280" lon="-17.8912680">
        <ele>509.0</ele>
        <time>2020-11-17T08:18:14Z</time>
      </trkpt>
      <trkpt lat="28.6403280" lon="-17.8912680">
        <ele>509.0</ele>
        <time>2020-11-17T08:18:15Z</time>
      </trkpt>
      <trkpt lat="28.6403330" lon="-17.8912530">
        <ele>509.2</ele>
        <time>2020-11-17T08:18:16Z</time>
      </trkpt>
      <trkpt lat="28.6403380" lon="-17.8912220">
        <ele>509.5</ele>
        <time>2020-11-17T08:18:17Z</time>
      </trkpt>
      <trkpt lat="28.6403370" lon="-17.8912050">
        <ele>509.6</ele>
        <time>2020-11-17T08:18:18Z</time>
      </trkpt>
      <trkpt lat="28.6403370" lon="-17.8912050">
        <ele>509.6</ele>
        <time>2020-11-17T08:18:19Z</time>
      </trkpt>
      <trkpt lat="28.6403250" lon="-17.8911770">
        <ele>510.0</ele>
        <time>2020-11-17T08:18:20Z</time>
      </trkpt>
      <trkpt lat="28.6403170" lon="-17.8911630">
        <ele>510.2</ele>
        <time>2020-11-17T08:18:21Z</time>
      </trkpt>
      <trkpt lat="28.6403170" lon="-17.8911630">
        <ele>510.2</ele>
        <time>2020-11-17T08:18:22Z</time>
      </trkpt>
      <trkpt lat="28.6403120" lon="-17.8911330">
        <ele>510.5</ele>
        <time>2020-11-17T08:18:23Z</time>
      </trkpt>
      <trkpt lat="28.6403080" lon="-17.8911170">
        <ele>510.7</ele>
        <time>2020-11-17T08:18:24Z</time>
      </trkpt>
      <trkpt lat="28.6403080" lon="-17.8911170">
        <ele>510.7</ele>
        <time>2020-11-17T08:18:25Z</time>
      </trkpt>
      <trkpt lat="28.6403080" lon="-17.8911170">
        <ele>510.7</ele>
        <time>2020-11-17T08:18:26Z</time>
      </trkpt>
      <trkpt lat="28.6403000" lon="-17.8910870">
        <ele>511.2</ele>
        <time>2020-11-17T08:18:27Z</time>
      </trkpt>
      <trkpt lat="28.6403000" lon="-17.8910870">
        <ele>511.2</ele>
        <time>2020-11-17T08:18:28Z</time>
      </trkpt>
      <trkpt lat="28.6402900" lon="-17.8910620">
        <ele>511.5</ele>
        <time>2020-11-17T08:18:29Z</time>
      </trkpt>
      <trkpt lat="28.6402780" lon="-17.8910330">
        <ele>512.0</ele>
        <time>2020-11-17T08:18:30Z</time>
      </trkpt>
      <trkpt lat="28.6402780" lon="-17.8910330">
        <ele>512.0</ele>
        <time>2020-11-17T08:18:31Z</time>
      </trkpt>
      <trkpt lat="28.6402620" lon="-17.8910080">
        <ele>512.5</ele>
        <time>2020-11-17T08:18:32Z</time>
      </trkpt>
      <trkpt lat="28.6402620" lon="-17.8910080">
        <ele>512.5</ele>
        <time>2020-11-17T08:18:33Z</time>
      </trkpt>
      <trkpt lat="28.6402420" lon="-17.8909850">
        <ele>512.9</ele>
        <time>2020-11-17T08:18:34Z</time>
      </trkpt>
      <trkpt lat="28.6402320" lon="-17.8909720">
        <ele>513.2</ele>
        <time>2020-11-17T08:18:35Z</time>
      </trkpt>
      <trkpt lat="28.6402250" lon="-17.8909580">
        <ele>513.4</ele>
        <time>2020-11-17T08:18:36Z</time>
      </trkpt>
      <trkpt lat="28.6402250" lon="-17.8909580">
        <ele>513.4</ele>
        <time>2020-11-17T08:18:37Z</time>
      </trkpt>
      <trkpt lat="28.6402170" lon="-17.8909280">
        <ele>513.9</ele>
        <time>2020-11-17T08:18:38Z</time>
      </trkpt>
      <trkpt lat="28.6402080" lon="-17.8909150">
        <ele>514.1</ele>
        <time>2020-11-17T08:18:39Z</time>
      </trkpt>
      <trkpt lat="28.6402080" lon="-17.8909150">
        <ele>514.1</ele>
        <time>2020-11-17T08:18:40Z</time>
      </trkpt>
      <trkpt lat="28.6402080" lon="-17.8909150">
        <ele>514.1</ele>
        <time>2020-11-17T08:18:41Z</time>
      </trkpt>
      <trkpt lat="28.6401820" lon="-17.8908770">
        <ele>514.8</ele>
        <time>2020-11-17T08:18:42Z</time>
      </trkpt>
      <trkpt lat="28.6401820" lon="-17.8908770">
        <ele>514.8</ele>
        <time>2020-11-17T08:18:43Z</time>
      </trkpt>
      <trkpt lat="28.6401820" lon="-17.8908770">
        <ele>514.8</ele>
        <time>2020-11-17T08:18:44Z</time>
      </trkpt>
      <trkpt lat="28.6401630" lon="-17.8908420">
        <ele>515.3</ele>
        <time>2020-11-17T08:18:45Z</time>
      </trkpt>
      <trkpt lat="28.6401480" lon="-17.8908100">
        <ele>515.8</ele>
        <time>2020-11-17T08:18:46Z</time>
      </trkpt>
      <trkpt lat="28.6401420" lon="-17.8907950">
        <ele>516.0</ele>
        <time>2020-11-17T08:18:47Z</time>
      </trkpt>
      <trkpt lat="28.6401420" lon="-17.8907950">
        <ele>516.0</ele>
        <time>2020-11-17T08:18:48Z</time>
      </trkpt>
      <trkpt lat="28.6401420" lon="-17.8907950">
        <ele>516.0</ele>
        <time>2020-11-17T08:18:49Z</time>
      </trkpt>
      <trkpt lat="28.6401300" lon="-17.8907620">
        <ele>516.4</ele>
        <time>2020-11-17T08:18:50Z</time>
      </trkpt>
      <trkpt lat="28.6401330" lon="-17.8907230">
        <ele>516.9</ele>
        <time>2020-11-17T08:18:51Z</time>
      </trkpt>
      <trkpt lat="28.6401330" lon="-17.8907050">
        <ele>517.1</ele>
        <time>2020-11-17T08:18:52Z</time>
      </trkpt>
      <trkpt lat="28.6401350" lon="-17.8906850">
        <ele>517.4</ele>
        <time>2020-11-17T08:18:53Z</time>
      </trkpt>
      <trkpt lat="28.6401350" lon="-17.8906850">
        <ele>517.4</ele>
        <time>2020-11-17T08:18:54Z</time>
      </trkpt>
      <trkpt lat="28.6401300" lon="-17.8906470">
        <ele>517.8</ele>
        <time>2020-11-17T08:18:55Z</time>
      </trkpt>
      <trkpt lat="28.6401300" lon="-17.8906470">
        <ele>517.8</ele>
        <time>2020-11-17T08:18:56Z</time>
      </trkpt>
      <trkpt lat="28.6401330" lon="-17.8906050">
        <ele>518.2</ele>
        <time>2020-11-17T08:18:57Z</time>
      </trkpt>
      <trkpt lat="28.6401330" lon="-17.8906050">
        <ele>518.2</ele>
        <time>2020-11-17T08:18:58Z</time>
      </trkpt>
      <trkpt lat="28.6401370" lon="-17.8905630">
        <ele>518.7</ele>
        <time>2020-11-17T08:18:59Z</time>
      </trkpt>
      <trkpt lat="28.6401370" lon="-17.8905630">
        <ele>518.7</ele>
        <time>2020-11-17T08:19:00Z</time>
      </trkpt>
      <trkpt lat="28.6401380" lon="-17.8905250">
        <ele>519.1</ele>
        <time>2020-11-17T08:19:01Z</time>
      </trkpt>
      <trkpt lat="28.6401380" lon="-17.8905250">
        <ele>519.1</ele>
        <time>2020-11-17T08:19:02Z</time>
      </trkpt>
      <trkpt lat="28.6401480" lon="-17.8904870">
        <ele>519.6</ele>
        <time>2020-11-17T08:19:03Z</time>
      </trkpt>
      <trkpt lat="28.6401580" lon="-17.8904720">
        <ele>519.8</ele>
        <time>2020-11-17T08:19:04Z</time>
      </trkpt>
      <trkpt lat="28.6401580" lon="-17.8904720">
        <ele>519.8</ele>
        <time>2020-11-17T08:19:05Z</time>
      </trkpt>
      <trkpt lat="28.6401580" lon="-17.8904720">
        <ele>519.8</ele>
        <time>2020-11-17T08:19:06Z</time>
      </trkpt>
      <trkpt lat="28.6401750" lon="-17.8904450">
        <ele>520.2</ele>
        <time>2020-11-17T08:19:07Z</time>
      </trkpt>
      <trkpt lat="28.6401850" lon="-17.8904100">
        <ele>520.7</ele>
        <time>2020-11-17T08:19:08Z</time>
      </trkpt>
      <trkpt lat="28.6401850" lon="-17.8903920">
        <ele>521.0</ele>
        <time>2020-11-17T08:19:09Z</time>
      </trkpt>
      <trkpt lat="28.6401850" lon="-17.8903920">
        <ele>521.0</ele>
        <time>2020-11-17T08:19:10Z</time>
      </trkpt>
      <trkpt lat="28.6401850" lon="-17.8903920">
        <ele>521.0</ele>
        <time>2020-11-17T08:19:11Z</time>
      </trkpt>
      <trkpt lat="28.6401820" lon="-17.8903380">
        <ele>521.8</ele>
        <time>2020-11-17T08:19:12Z</time>
      </trkpt>
      <trkpt lat="28.6401820" lon="-17.8903380">
        <ele>521.8</ele>
        <time>2020-11-17T08:19:13Z</time>
      </trkpt>
      <trkpt lat="28.6401850" lon="-17.8903030">
        <ele>522.3</ele>
        <time>2020-11-17T08:19:14Z</time>
      </trkpt>
      <trkpt lat="28.6401850" lon="-17.8903030">
        <ele>522.3</ele>
        <time>2020-11-17T08:19:15Z</time>
      </trkpt>
      <trkpt lat="28.6401900" lon="-17.8902680">
        <ele>522.7</ele>
        <time>2020-11-17T08:19:16Z</time>
      </trkpt>
      <trkpt lat="28.6401930" lon="-17.8902500">
        <ele>523.0</ele>
        <time>2020-11-17T08:19:17Z</time>
      </trkpt>
      <trkpt lat="28.6401930" lon="-17.8902500">
        <ele>523.0</ele>
        <time>2020-11-17T08:19:18Z</time>
      </trkpt>
      <trkpt lat="28.6401900" lon="-17.8902150">
        <ele>523.4</ele>
        <time>2020-11-17T08:19:19Z</time>
      </trkpt>
      <trkpt lat="28.6401900" lon="-17.8902150">
        <ele>523.4</ele>
        <time>2020-11-17T08:19:20Z</time>
      </trkpt>
      <trkpt lat="28.6401920" lon="-17.8901830">
        <ele>523.9</ele>
        <time>2020-11-17T08:19:21Z</time>
      </trkpt>
      <trkpt lat="28.6401920" lon="-17.8901830">
        <ele>523.9</ele>
        <time>2020-11-17T08:19:22Z</time>
      </trkpt>
      <trkpt lat="28.6401970" lon="-17.8901480">
        <ele>524.3</ele>
        <time>2020-11-17T08:19:23Z</time>
      </trkpt>
      <trkpt lat="28.6401970" lon="-17.8901480">
        <ele>524.3</ele>
        <time>2020-11-17T08:19:24Z</time>
      </trkpt>
      <trkpt lat="28.6401970" lon="-17.8901280">
        <ele>524.6</ele>
        <time>2020-11-17T08:19:25Z</time>
      </trkpt>
      <trkpt lat="28.6402000" lon="-17.8900950">
        <ele>525.0</ele>
        <time>2020-11-17T08:19:26Z</time>
      </trkpt>
      <trkpt lat="28.6402000" lon="-17.8900950">
        <ele>525.0</ele>
        <time>2020-11-17T08:19:27Z</time>
      </trkpt>
      <trkpt lat="28.6402030" lon="-17.8900620">
        <ele>525.4</ele>
        <time>2020-11-17T08:19:28Z</time>
      </trkpt>
      <trkpt lat="28.6402030" lon="-17.8900620">
        <ele>525.4</ele>
        <time>2020-11-17T08:19:29Z</time>
      </trkpt>
      <trkpt lat="28.6402030" lon="-17.8900620">
        <ele>525.4</ele>
        <time>2020-11-17T08:19:30Z</time>
      </trkpt>
      <trkpt lat="28.6402030" lon="-17.8900070">
        <ele>526.1</ele>
        <time>2020-11-17T08:19:31Z</time>
      </trkpt>
      <trkpt lat="28.6402030" lon="-17.8900070">
        <ele>526.1</ele>
        <time>2020-11-17T08:19:32Z</time>
      </trkpt>
      <trkpt lat="28.6402030" lon="-17.8900070">
        <ele>526.1</ele>
        <time>2020-11-17T08:19:33Z</time>
      </trkpt>
      <trkpt lat="28.6401970" lon="-17.8899500">
        <ele>526.9</ele>
        <time>2020-11-17T08:19:34Z</time>
      </trkpt>
      <trkpt lat="28.6401970" lon="-17.8899500">
        <ele>526.9</ele>
        <time>2020-11-17T08:19:35Z</time>
      </trkpt>
      <trkpt lat="28.6401900" lon="-17.8899130">
        <ele>527.4</ele>
        <time>2020-11-17T08:19:36Z</time>
      </trkpt>
      <trkpt lat="28.6401900" lon="-17.8899130">
        <ele>527.4</ele>
        <time>2020-11-17T08:19:37Z</time>
      </trkpt>
      <trkpt lat="28.6401770" lon="-17.8898830">
        <ele>527.8</ele>
        <time>2020-11-17T08:19:38Z</time>
      </trkpt>
      <trkpt lat="28.6401720" lon="-17.8898680">
        <ele>528.1</ele>
        <time>2020-11-17T08:19:39Z</time>
      </trkpt>
      <trkpt lat="28.6401720" lon="-17.8898680">
        <ele>528.1</ele>
        <time>2020-11-17T08:19:40Z</time>
      </trkpt>
      <trkpt lat="28.6401670" lon="-17.8898330">
        <ele>528.6</ele>
        <time>2020-11-17T08:19:41Z</time>
      </trkpt>
      <trkpt lat="28.6401670" lon="-17.8898330">
        <ele>528.6</ele>
        <time>2020-11-17T08:19:42Z</time>
      </trkpt>
      <trkpt lat="28.6401650" lon="-17.8898130">
        <ele>528.8</ele>
        <time>2020-11-17T08:19:43Z</time>
      </trkpt>
      <trkpt lat="28.6401580" lon="-17.8897700">
        <ele>529.5</ele>
        <time>2020-11-17T08:19:44Z</time>
      </trkpt>
      <trkpt lat="28.6401550" lon="-17.8897480">
        <ele>529.8</ele>
        <time>2020-11-17T08:19:45Z</time>
      </trkpt>
      <trkpt lat="28.6401550" lon="-17.8897480">
        <ele>529.8</ele>
        <time>2020-11-17T08:19:46Z</time>
      </trkpt>
      <trkpt lat="28.6401430" lon="-17.8897080">
        <ele>530.4</ele>
        <time>2020-11-17T08:19:47Z</time>
      </trkpt>
      <trkpt lat="28.6401430" lon="-17.8896870">
        <ele>530.7</ele>
        <time>2020-11-17T08:19:48Z</time>
      </trkpt>
      <trkpt lat="28.6401430" lon="-17.8896870">
        <ele>530.7</ele>
        <time>2020-11-17T08:19:49Z</time>
      </trkpt>
      <trkpt lat="28.6401330" lon="-17.8896500">
        <ele>531.3</ele>
        <time>2020-11-17T08:19:50Z</time>
      </trkpt>
      <trkpt lat="28.6401300" lon="-17.8896320">
        <ele>531.6</ele>
        <time>2020-11-17T08:19:51Z</time>
      </trkpt>
      <trkpt lat="28.6401300" lon="-17.8896320">
        <ele>531.6</ele>
        <time>2020-11-17T08:19:52Z</time>
      </trkpt>
      <trkpt lat="28.6401200" lon="-17.8895970">
        <ele>532.1</ele>
        <time>2020-11-17T08:19:53Z</time>
      </trkpt>
      <trkpt lat="28.6401150" lon="-17.8895820">
        <ele>532.4</ele>
        <time>2020-11-17T08:19:54Z</time>
      </trkpt>
      <trkpt lat="28.6401150" lon="-17.8895820">
        <ele>532.4</ele>
        <time>2020-11-17T08:19:55Z</time>
      </trkpt>
      <trkpt lat="28.6401020" lon="-17.8895480">
        <ele>532.9</ele>
        <time>2020-11-17T08:19:56Z</time>
      </trkpt>
      <trkpt lat="28.6400980" lon="-17.8895300">
        <ele>533.1</ele>
        <time>2020-11-17T08:19:57Z</time>
      </trkpt>
      <trkpt lat="28.6400980" lon="-17.8895300">
        <ele>533.1</ele>
        <time>2020-11-17T08:19:58Z</time>
      </trkpt>
      <trkpt lat="28.6400930" lon="-17.8894930">
        <ele>533.6</ele>
        <time>2020-11-17T08:19:59Z</time>
      </trkpt>
      <trkpt lat="28.6400930" lon="-17.8894930">
        <ele>533.6</ele>
        <time>2020-11-17T08:20:00Z</time>
      </trkpt>
      <trkpt lat="28.6400930" lon="-17.8894930">
        <ele>533.6</ele>
        <time>2020-11-17T08:20:01Z</time>
      </trkpt>
      <trkpt lat="28.6400850" lon="-17.8894570">
        <ele>534.0</ele>
        <time>2020-11-17T08:20:02Z</time>
      </trkpt>
      <trkpt lat="28.6400780" lon="-17.8894180">
        <ele>534.5</ele>
        <time>2020-11-17T08:20:03Z</time>
      </trkpt>
      <trkpt lat="28.6400770" lon="-17.8894000">
        <ele>534.7</ele>
        <time>2020-11-17T08:20:04Z</time>
      </trkpt>
      <trkpt lat="28.6400770" lon="-17.8894000">
        <ele>534.7</ele>
        <time>2020-11-17T08:20:05Z</time>
      </trkpt>
      <trkpt lat="28.6400680" lon="-17.8893630">
        <ele>535.1</ele>
        <time>2020-11-17T08:20:06Z</time>
      </trkpt>
      <trkpt lat="28.6400680" lon="-17.8893630">
        <ele>535.1</ele>
        <time>2020-11-17T08:20:07Z</time>
      </trkpt>
      <trkpt lat="28.6400550" lon="-17.8893270">
        <ele>535.6</ele>
        <time>2020-11-17T08:20:08Z</time>
      </trkpt>
      <trkpt lat="28.6400550" lon="-17.8893270">
        <ele>535.6</ele>
        <time>2020-11-17T08:20:09Z</time>
      </trkpt>
      <trkpt lat="28.6400550" lon="-17.8892880">
        <ele>536.0</ele>
        <time>2020-11-17T08:20:10Z</time>
      </trkpt>
      <trkpt lat="28.6400550" lon="-17.8892880">
        <ele>536.0</ele>
        <time>2020-11-17T08:20:11Z</time>
      </trkpt>
      <trkpt lat="28.6400550" lon="-17.8892880">
        <ele>536.0</ele>
        <time>2020-11-17T08:20:12Z</time>
      </trkpt>
      <trkpt lat="28.6400480" lon="-17.8892550">
        <ele>536.3</ele>
        <time>2020-11-17T08:20:13Z</time>
      </trkpt>
      <trkpt lat="28.6400350" lon="-17.8892230">
        <ele>536.7</ele>
        <time>2020-11-17T08:20:14Z</time>
      </trkpt>
      <trkpt lat="28.6400280" lon="-17.8892070">
        <ele>536.9</ele>
        <time>2020-11-17T08:20:15Z</time>
      </trkpt>
      <trkpt lat="28.6400280" lon="-17.8892070">
        <ele>536.9</ele>
        <time>2020-11-17T08:20:16Z</time>
      </trkpt>
      <trkpt lat="28.6400280" lon="-17.8892070">
        <ele>536.9</ele>
        <time>2020-11-17T08:20:17Z</time>
      </trkpt>
      <trkpt lat="28.6400120" lon="-17.8891600">
        <ele>537.4</ele>
        <time>2020-11-17T08:20:18Z</time>
      </trkpt>
      <trkpt lat="28.6400120" lon="-17.8891600">
        <ele>537.4</ele>
        <time>2020-11-17T08:20:19Z</time>
      </trkpt>
      <trkpt lat="28.6399980" lon="-17.8891350">
        <ele>537.7</ele>
        <time>2020-11-17T08:20:20Z</time>
      </trkpt>
      <trkpt lat="28.6399880" lon="-17.8891250">
        <ele>537.9</ele>
        <time>2020-11-17T08:20:21Z</time>
      </trkpt>
      <trkpt lat="28.6399780" lon="-17.8891170">
        <ele>538.0</ele>
        <time>2020-11-17T08:20:22Z</time>
      </trkpt>
      <trkpt lat="28.6399780" lon="-17.8891170">
        <ele>538.0</ele>
        <time>2020-11-17T08:20:23Z</time>
      </trkpt>
      <trkpt lat="28.6399550" lon="-17.8891030">
        <ele>538.3</ele>
        <time>2020-11-17T08:20:24Z</time>
      </trkpt>
      <trkpt lat="28.6399470" lon="-17.8890970">
        <ele>538.4</ele>
        <time>2020-11-17T08:20:25Z</time>
      </trkpt>
      <trkpt lat="28.6399470" lon="-17.8890970">
        <ele>538.4</ele>
        <time>2020-11-17T08:20:26Z</time>
      </trkpt>
      <trkpt lat="28.6399330" lon="-17.8890780">
        <ele>538.6</ele>
        <time>2020-11-17T08:20:27Z</time>
      </trkpt>
      <trkpt lat="28.6399280" lon="-17.8890700">
        <ele>539.1</ele>
        <time>2020-11-17T08:20:28Z</time>
      </trkpt>
      <trkpt lat="28.6399280" lon="-17.8890700">
        <ele>539.1</ele>
        <time>2020-11-17T08:20:29Z</time>
      </trkpt>
      <trkpt lat="28.6399220" lon="-17.8890400">
        <ele>539.5</ele>
        <time>2020-11-17T08:20:30Z</time>
      </trkpt>
      <trkpt lat="28.6399220" lon="-17.8890400">
        <ele>539.5</ele>
        <time>2020-11-17T08:20:31Z</time>
      </trkpt>
      <trkpt lat="28.6399150" lon="-17.8890030">
        <ele>539.9</ele>
        <time>2020-11-17T08:20:32Z</time>
      </trkpt>
      <trkpt lat="28.6399150" lon="-17.8889880">
        <ele>540.1</ele>
        <time>2020-11-17T08:20:33Z</time>
      </trkpt>
      <trkpt lat="28.6399150" lon="-17.8889880">
        <ele>540.1</ele>
        <time>2020-11-17T08:20:34Z</time>
      </trkpt>
      <trkpt lat="28.6399120" lon="-17.8889520">
        <ele>540.5</ele>
        <time>2020-11-17T08:20:35Z</time>
      </trkpt>
      <trkpt lat="28.6399030" lon="-17.8889320">
        <ele>540.8</ele>
        <time>2020-11-17T08:20:36Z</time>
      </trkpt>
      <trkpt lat="28.6399030" lon="-17.8889320">
        <ele>540.8</ele>
        <time>2020-11-17T08:20:37Z</time>
      </trkpt>
      <trkpt lat="28.6398920" lon="-17.8889000">
        <ele>541.2</ele>
        <time>2020-11-17T08:20:38Z</time>
      </trkpt>
      <trkpt lat="28.6398920" lon="-17.8889000">
        <ele>541.2</ele>
        <time>2020-11-17T08:20:39Z</time>
      </trkpt>
      <trkpt lat="28.6398820" lon="-17.8888730">
        <ele>541.6</ele>
        <time>2020-11-17T08:20:40Z</time>
      </trkpt>
      <trkpt lat="28.6398800" lon="-17.8888600">
        <ele>541.8</ele>
        <time>2020-11-17T08:20:41Z</time>
      </trkpt>
      <trkpt lat="28.6398800" lon="-17.8888600">
        <ele>541.8</ele>
        <time>2020-11-17T08:20:42Z</time>
      </trkpt>
      <trkpt lat="28.6398770" lon="-17.8888300">
        <ele>542.1</ele>
        <time>2020-11-17T08:20:43Z</time>
      </trkpt>
      <trkpt lat="28.6398780" lon="-17.8888170">
        <ele>542.3</ele>
        <time>2020-11-17T08:20:44Z</time>
      </trkpt>
      <trkpt lat="28.6398780" lon="-17.8888170">
        <ele>542.3</ele>
        <time>2020-11-17T08:20:45Z</time>
      </trkpt>
      <trkpt lat="28.6398800" lon="-17.8887870">
        <ele>542.7</ele>
        <time>2020-11-17T08:20:46Z</time>
      </trkpt>
      <trkpt lat="28.6398770" lon="-17.8887730">
        <ele>542.9</ele>
        <time>2020-11-17T08:20:47Z</time>
      </trkpt>
      <trkpt lat="28.6398770" lon="-17.8887730">
        <ele>542.9</ele>
        <time>2020-11-17T08:20:48Z</time>
      </trkpt>
      <trkpt lat="28.6398580" lon="-17.8887470">
        <ele>543.3</ele>
        <time>2020-11-17T08:20:49Z</time>
      </trkpt>
      <trkpt lat="28.6398530" lon="-17.8887330">
        <ele>543.5</ele>
        <time>2020-11-17T08:20:50Z</time>
      </trkpt>
      <trkpt lat="28.6398530" lon="-17.8887330">
        <ele>543.5</ele>
        <time>2020-11-17T08:20:51Z</time>
      </trkpt>
      <trkpt lat="28.6398620" lon="-17.8886980">
        <ele>544.0</ele>
        <time>2020-11-17T08:20:52Z</time>
      </trkpt>
      <trkpt lat="28.6398620" lon="-17.8886980">
        <ele>544.0</ele>
        <time>2020-11-17T08:20:53Z</time>
      </trkpt>
      <trkpt lat="28.6398650" lon="-17.8886670">
        <ele>544.4</ele>
        <time>2020-11-17T08:20:54Z</time>
      </trkpt>
      <trkpt lat="28.6398650" lon="-17.8886670">
        <ele>544.4</ele>
        <time>2020-11-17T08:20:55Z</time>
      </trkpt>
      <trkpt lat="28.6398520" lon="-17.8886380">
        <ele>544.8</ele>
        <time>2020-11-17T08:20:56Z</time>
      </trkpt>
      <trkpt lat="28.6398450" lon="-17.8886250">
        <ele>545.0</ele>
        <time>2020-11-17T08:20:57Z</time>
      </trkpt>
      <trkpt lat="28.6398450" lon="-17.8886250">
        <ele>545.0</ele>
        <time>2020-11-17T08:20:58Z</time>
      </trkpt>
      <trkpt lat="28.6398420" lon="-17.8885950">
        <ele>545.5</ele>
        <time>2020-11-17T08:20:59Z</time>
      </trkpt>
      <trkpt lat="28.6398470" lon="-17.8885820">
        <ele>545.7</ele>
        <time>2020-11-17T08:21:00Z</time>
      </trkpt>
      <trkpt lat="28.6398470" lon="-17.8885820">
        <ele>545.7</ele>
        <time>2020-11-17T08:21:01Z</time>
      </trkpt>
      <trkpt lat="28.6398580" lon="-17.8885520">
        <ele>546.1</ele>
        <time>2020-11-17T08:21:02Z</time>
      </trkpt>
      <trkpt lat="28.6398580" lon="-17.8885520">
        <ele>546.1</ele>
        <time>2020-11-17T08:21:03Z</time>
      </trkpt>
      <trkpt lat="28.6398580" lon="-17.8885200">
        <ele>546.6</ele>
        <time>2020-11-17T08:21:04Z</time>
      </trkpt>
      <trkpt lat="28.6398530" lon="-17.8885070">
        <ele>546.7</ele>
        <time>2020-11-17T08:21:05Z</time>
      </trkpt>
      <trkpt lat="28.6398530" lon="-17.8885070">
        <ele>546.7</ele>
        <time>2020-11-17T08:21:06Z</time>
      </trkpt>
      <trkpt lat="28.6398450" lon="-17.8884750">
        <ele>547.5</ele>
        <time>2020-11-17T08:21:07Z</time>
      </trkpt>
      <trkpt lat="28.6398450" lon="-17.8884750">
        <ele>547.5</ele>
        <time>2020-11-17T08:21:08Z</time>
      </trkpt>
      <trkpt lat="28.6398550" lon="-17.8884450">
        <ele>547.5</ele>
        <time>2020-11-17T08:21:09Z</time>
      </trkpt>
      <trkpt lat="28.6398620" lon="-17.8884280">
        <ele>547.5</ele>
        <time>2020-11-17T08:21:10Z</time>
      </trkpt>
      <trkpt lat="28.6398620" lon="-17.8884280">
        <ele>547.5</ele>
        <time>2020-11-17T08:21:11Z</time>
      </trkpt>
      <trkpt lat="28.6398770" lon="-17.8884030">
        <ele>547.5</ele>
        <time>2020-11-17T08:21:12Z</time>
      </trkpt>
      <trkpt lat="28.6398770" lon="-17.8884030">
        <ele>547.5</ele>
        <time>2020-11-17T08:21:13Z</time>
      </trkpt>
      <trkpt lat="28.6398900" lon="-17.8883780">
        <ele>548.0</ele>
        <time>2020-11-17T08:21:14Z</time>
      </trkpt>
      <trkpt lat="28.6398900" lon="-17.8883780">
        <ele>548.0</ele>
        <time>2020-11-17T08:21:15Z</time>
      </trkpt>
      <trkpt lat="28.6399150" lon="-17.8883630">
        <ele>548.2</ele>
        <time>2020-11-17T08:21:16Z</time>
      </trkpt>
      <trkpt lat="28.6399320" lon="-17.8883580">
        <ele>548.3</ele>
        <time>2020-11-17T08:21:17Z</time>
      </trkpt>
      <trkpt lat="28.6399320" lon="-17.8883580">
        <ele>548.3</ele>
        <time>2020-11-17T08:21:18Z</time>
      </trkpt>
      <trkpt lat="28.6399600" lon="-17.8883400">
        <ele>548.5</ele>
        <time>2020-11-17T08:21:19Z</time>
      </trkpt>
      <trkpt lat="28.6399600" lon="-17.8883400">
        <ele>548.5</ele>
        <time>2020-11-17T08:21:20Z</time>
      </trkpt>
      <trkpt lat="28.6399830" lon="-17.8882970">
        <ele>548.8</ele>
        <time>2020-11-17T08:21:21Z</time>
      </trkpt>
      <trkpt lat="28.6399970" lon="-17.8882750">
        <ele>549.0</ele>
        <time>2020-11-17T08:21:22Z</time>
      </trkpt>
      <trkpt lat="28.6400130" lon="-17.8882580">
        <ele>549.1</ele>
        <time>2020-11-17T08:21:23Z</time>
      </trkpt>
      <trkpt lat="28.6400330" lon="-17.8882470">
        <ele>549.3</ele>
        <time>2020-11-17T08:21:24Z</time>
      </trkpt>
      <trkpt lat="28.6400330" lon="-17.8882470">
        <ele>549.3</ele>
        <time>2020-11-17T08:21:25Z</time>
      </trkpt>
      <trkpt lat="28.6400730" lon="-17.8882300">
        <ele>549.5</ele>
        <time>2020-11-17T08:21:26Z</time>
      </trkpt>
      <trkpt lat="28.6400930" lon="-17.8882250">
        <ele>549.7</ele>
        <time>2020-11-17T08:21:27Z</time>
      </trkpt>
      <trkpt lat="28.6401130" lon="-17.8882200">
        <ele>549.8</ele>
        <time>2020-11-17T08:21:28Z</time>
      </trkpt>
      <trkpt lat="28.6401130" lon="-17.8882200">
        <ele>549.8</ele>
        <time>2020-11-17T08:21:29Z</time>
      </trkpt>
      <trkpt lat="28.6401530" lon="-17.8882070">
        <ele>550.0</ele>
        <time>2020-11-17T08:21:30Z</time>
      </trkpt>
      <trkpt lat="28.6401530" lon="-17.8882070">
        <ele>550.0</ele>
        <time>2020-11-17T08:21:31Z</time>
      </trkpt>
      <trkpt lat="28.6401920" lon="-17.8881930">
        <ele>550.3</ele>
        <time>2020-11-17T08:21:32Z</time>
      </trkpt>
      <trkpt lat="28.6401920" lon="-17.8881930">
        <ele>550.3</ele>
        <time>2020-11-17T08:21:33Z</time>
      </trkpt>
      <trkpt lat="28.6402350" lon="-17.8881820">
        <ele>550.6</ele>
        <time>2020-11-17T08:21:34Z</time>
      </trkpt>
      <trkpt lat="28.6402570" lon="-17.8881780">
        <ele>550.7</ele>
        <time>2020-11-17T08:21:35Z</time>
      </trkpt>
      <trkpt lat="28.6402570" lon="-17.8881780">
        <ele>550.7</ele>
        <time>2020-11-17T08:21:36Z</time>
      </trkpt>
      <trkpt lat="28.6403000" lon="-17.8881670">
        <ele>551.0</ele>
        <time>2020-11-17T08:21:37Z</time>
      </trkpt>
      <trkpt lat="28.6403000" lon="-17.8881670">
        <ele>551.0</ele>
        <time>2020-11-17T08:21:38Z</time>
      </trkpt>
      <trkpt lat="28.6403430" lon="-17.8881550">
        <ele>551.2</ele>
        <time>2020-11-17T08:21:39Z</time>
      </trkpt>
      <trkpt lat="28.6403430" lon="-17.8881550">
        <ele>551.2</ele>
        <time>2020-11-17T08:21:40Z</time>
      </trkpt>
      <trkpt lat="28.6403870" lon="-17.8881450">
        <ele>551.5</ele>
        <time>2020-11-17T08:21:41Z</time>
      </trkpt>
      <trkpt lat="28.6404100" lon="-17.8881400">
        <ele>551.6</ele>
        <time>2020-11-17T08:21:42Z</time>
      </trkpt>
      <trkpt lat="28.6404100" lon="-17.8881400">
        <ele>551.6</ele>
        <time>2020-11-17T08:21:43Z</time>
      </trkpt>
      <trkpt lat="28.6404580" lon="-17.8881280">
        <ele>551.9</ele>
        <time>2020-11-17T08:21:44Z</time>
      </trkpt>
      <trkpt lat="28.6404580" lon="-17.8881280">
        <ele>551.9</ele>
        <time>2020-11-17T08:21:45Z</time>
      </trkpt>
      <trkpt lat="28.6405050" lon="-17.8881180">
        <ele>552.2</ele>
        <time>2020-11-17T08:21:46Z</time>
      </trkpt>
      <trkpt lat="28.6405280" lon="-17.8881170">
        <ele>552.4</ele>
        <time>2020-11-17T08:21:47Z</time>
      </trkpt>
      <trkpt lat="28.6405280" lon="-17.8881170">
        <ele>552.4</ele>
        <time>2020-11-17T08:21:48Z</time>
      </trkpt>
      <trkpt lat="28.6405730" lon="-17.8881080">
        <ele>552.7</ele>
        <time>2020-11-17T08:21:49Z</time>
      </trkpt>
      <trkpt lat="28.6405730" lon="-17.8881080">
        <ele>552.7</ele>
        <time>2020-11-17T08:21:50Z</time>
      </trkpt>
      <trkpt lat="28.6406180" lon="-17.8880950">
        <ele>552.9</ele>
        <time>2020-11-17T08:21:51Z</time>
      </trkpt>
      <trkpt lat="28.6406180" lon="-17.8880950">
        <ele>552.9</ele>
        <time>2020-11-17T08:21:52Z</time>
      </trkpt>
      <trkpt lat="28.6406670" lon="-17.8880870">
        <ele>553.2</ele>
        <time>2020-11-17T08:21:53Z</time>
      </trkpt>
      <trkpt lat="28.6406670" lon="-17.8880870">
        <ele>553.2</ele>
        <time>2020-11-17T08:21:54Z</time>
      </trkpt>
      <trkpt lat="28.6406920" lon="-17.8880820">
        <ele>553.4</ele>
        <time>2020-11-17T08:21:55Z</time>
      </trkpt>
      <trkpt lat="28.6407420" lon="-17.8880800">
        <ele>553.7</ele>
        <time>2020-11-17T08:21:56Z</time>
      </trkpt>
      <trkpt lat="28.6407420" lon="-17.8880800">
        <ele>553.7</ele>
        <time>2020-11-17T08:21:57Z</time>
      </trkpt>
      <trkpt lat="28.6407900" lon="-17.8880750">
        <ele>554.1</ele>
        <time>2020-11-17T08:21:58Z</time>
      </trkpt>
      <trkpt lat="28.6407900" lon="-17.8880750">
        <ele>554.1</ele>
        <time>2020-11-17T08:21:59Z</time>
      </trkpt>
      <trkpt lat="28.6408320" lon="-17.8880750">
        <ele>554.3</ele>
        <time>2020-11-17T08:22:00Z</time>
      </trkpt>
      <trkpt lat="28.6408520" lon="-17.8880750">
        <ele>554.5</ele>
        <time>2020-11-17T08:22:01Z</time>
      </trkpt>
      <trkpt lat="28.6408520" lon="-17.8880750">
        <ele>554.5</ele>
        <time>2020-11-17T08:22:02Z</time>
      </trkpt>
      <trkpt lat="28.6408930" lon="-17.8880750">
        <ele>554.8</ele>
        <time>2020-11-17T08:22:03Z</time>
      </trkpt>
      <trkpt lat="28.6408930" lon="-17.8880750">
        <ele>554.8</ele>
        <time>2020-11-17T08:22:04Z</time>
      </trkpt>
      <trkpt lat="28.6409370" lon="-17.8880700">
        <ele>555.1</ele>
        <time>2020-11-17T08:22:05Z</time>
      </trkpt>
      <trkpt lat="28.6409370" lon="-17.8880700">
        <ele>555.1</ele>
        <time>2020-11-17T08:22:06Z</time>
      </trkpt>
      <trkpt lat="28.6409800" lon="-17.8880580">
        <ele>555.4</ele>
        <time>2020-11-17T08:22:07Z</time>
      </trkpt>
      <trkpt lat="28.6409800" lon="-17.8880580">
        <ele>555.4</ele>
        <time>2020-11-17T08:22:08Z</time>
      </trkpt>
      <trkpt lat="28.6410220" lon="-17.8880550">
        <ele>555.6</ele>
        <time>2020-11-17T08:22:09Z</time>
      </trkpt>
      <trkpt lat="28.6410220" lon="-17.8880550">
        <ele>555.6</ele>
        <time>2020-11-17T08:22:10Z</time>
      </trkpt>
      <trkpt lat="28.6410650" lon="-17.8880480">
        <ele>555.9</ele>
        <time>2020-11-17T08:22:11Z</time>
      </trkpt>
      <trkpt lat="28.6410850" lon="-17.8880420">
        <ele>556.1</ele>
        <time>2020-11-17T08:22:12Z</time>
      </trkpt>
      <trkpt lat="28.6410850" lon="-17.8880420">
        <ele>556.1</ele>
        <time>2020-11-17T08:22:13Z</time>
      </trkpt>
      <trkpt lat="28.6411280" lon="-17.8880250">
        <ele>556.4</ele>
        <time>2020-11-17T08:22:14Z</time>
      </trkpt>
      <trkpt lat="28.6411480" lon="-17.8880180">
        <ele>556.5</ele>
        <time>2020-11-17T08:22:15Z</time>
      </trkpt>
      <trkpt lat="28.6411480" lon="-17.8880180">
        <ele>556.5</ele>
        <time>2020-11-17T08:22:16Z</time>
      </trkpt>
      <trkpt lat="28.6411920" lon="-17.8880100">
        <ele>556.8</ele>
        <time>2020-11-17T08:22:17Z</time>
      </trkpt>
      <trkpt lat="28.6411920" lon="-17.8880100">
        <ele>556.8</ele>
        <time>2020-11-17T08:22:18Z</time>
      </trkpt>
      <trkpt lat="28.6412370" lon="-17.8880030">
        <ele>557.0</ele>
        <time>2020-11-17T08:22:19Z</time>
      </trkpt>
      <trkpt lat="28.6412370" lon="-17.8880030">
        <ele>557.0</ele>
        <time>2020-11-17T08:22:20Z</time>
      </trkpt>
      <trkpt lat="28.6412800" lon="-17.8879970">
        <ele>556.4</ele>
        <time>2020-11-17T08:22:21Z</time>
      </trkpt>
      <trkpt lat="28.6412800" lon="-17.8879970">
        <ele>556.4</ele>
        <time>2020-11-17T08:22:22Z</time>
      </trkpt>
      <trkpt lat="28.6413230" lon="-17.8879930">
        <ele>556.5</ele>
        <time>2020-11-17T08:22:23Z</time>
      </trkpt>
      <trkpt lat="28.6413230" lon="-17.8879930">
        <ele>556.5</ele>
        <time>2020-11-17T08:22:24Z</time>
      </trkpt>
      <trkpt lat="28.6413650" lon="-17.8879880">
        <ele>556.7</ele>
        <time>2020-11-17T08:22:25Z</time>
      </trkpt>
      <trkpt lat="28.6413650" lon="-17.8879880">
        <ele>556.7</ele>
        <time>2020-11-17T08:22:26Z</time>
      </trkpt>
      <trkpt lat="28.6414080" lon="-17.8879830">
        <ele>556.9</ele>
        <time>2020-11-17T08:22:27Z</time>
      </trkpt>
      <trkpt lat="28.6414300" lon="-17.8879770">
        <ele>557.1</ele>
        <time>2020-11-17T08:22:28Z</time>
      </trkpt>
      <trkpt lat="28.6414300" lon="-17.8879770">
        <ele>557.1</ele>
        <time>2020-11-17T08:22:29Z</time>
      </trkpt>
      <trkpt lat="28.6414720" lon="-17.8879750">
        <ele>557.3</ele>
        <time>2020-11-17T08:22:30Z</time>
      </trkpt>
      <trkpt lat="28.6414950" lon="-17.8879720">
        <ele>557.4</ele>
        <time>2020-11-17T08:22:31Z</time>
      </trkpt>
      <trkpt lat="28.6414950" lon="-17.8879720">
        <ele>557.4</ele>
        <time>2020-11-17T08:22:32Z</time>
      </trkpt>
      <trkpt lat="28.6415380" lon="-17.8879620">
        <ele>557.7</ele>
        <time>2020-11-17T08:22:33Z</time>
      </trkpt>
      <trkpt lat="28.6415380" lon="-17.8879620">
        <ele>557.7</ele>
        <time>2020-11-17T08:22:34Z</time>
      </trkpt>
      <trkpt lat="28.6415820" lon="-17.8879520">
        <ele>557.9</ele>
        <time>2020-11-17T08:22:35Z</time>
      </trkpt>
      <trkpt lat="28.6416050" lon="-17.8879480">
        <ele>558.0</ele>
        <time>2020-11-17T08:22:36Z</time>
      </trkpt>
      <trkpt lat="28.6416050" lon="-17.8879480">
        <ele>558.0</ele>
        <time>2020-11-17T08:22:37Z</time>
      </trkpt>
      <trkpt lat="28.6416270" lon="-17.8879450">
        <ele>558.1</ele>
        <time>2020-11-17T08:22:38Z</time>
      </trkpt>
      <trkpt lat="28.6416720" lon="-17.8879450">
        <ele>558.4</ele>
        <time>2020-11-17T08:22:39Z</time>
      </trkpt>
      <trkpt lat="28.6416720" lon="-17.8879450">
        <ele>558.4</ele>
        <time>2020-11-17T08:22:40Z</time>
      </trkpt>
      <trkpt lat="28.6417150" lon="-17.8879350">
        <ele>558.6</ele>
        <time>2020-11-17T08:22:41Z</time>
      </trkpt>
      <trkpt lat="28.6417150" lon="-17.8879350">
        <ele>558.6</ele>
        <time>2020-11-17T08:22:42Z</time>
      </trkpt>
      <trkpt lat="28.6417600" lon="-17.8879270">
        <ele>558.9</ele>
        <time>2020-11-17T08:22:43Z</time>
      </trkpt>
      <trkpt lat="28.6417830" lon="-17.8879220">
        <ele>559.0</ele>
        <time>2020-11-17T08:22:44Z</time>
      </trkpt>
      <trkpt lat="28.6417830" lon="-17.8879220">
        <ele>559.0</ele>
        <time>2020-11-17T08:22:45Z</time>
      </trkpt>
      <trkpt lat="28.6418280" lon="-17.8879130">
        <ele>559.2</ele>
        <time>2020-11-17T08:22:46Z</time>
      </trkpt>
      <trkpt lat="28.6418280" lon="-17.8879130">
        <ele>559.2</ele>
        <time>2020-11-17T08:22:47Z</time>
      </trkpt>
      <trkpt lat="28.6418730" lon="-17.8879070">
        <ele>559.5</ele>
        <time>2020-11-17T08:22:48Z</time>
      </trkpt>
      <trkpt lat="28.6418950" lon="-17.8879050">
        <ele>559.6</ele>
        <time>2020-11-17T08:22:49Z</time>
      </trkpt>
      <trkpt lat="28.6418950" lon="-17.8879050">
        <ele>559.6</ele>
        <time>2020-11-17T08:22:50Z</time>
      </trkpt>
      <trkpt lat="28.6419400" lon="-17.8879080">
        <ele>559.6</ele>
        <time>2020-11-17T08:22:51Z</time>
      </trkpt>
      <trkpt lat="28.6419630" lon="-17.8879070">
        <ele>559.6</ele>
        <time>2020-11-17T08:22:52Z</time>
      </trkpt>
      <trkpt lat="28.6419850" lon="-17.8879000">
        <ele>559.6</ele>
        <time>2020-11-17T08:22:53Z</time>
      </trkpt>
      <trkpt lat="28.6419850" lon="-17.8879000">
        <ele>559.6</ele>
        <time>2020-11-17T08:22:54Z</time>
      </trkpt>
      <trkpt lat="28.6420280" lon="-17.8878900">
        <ele>559.7</ele>
        <time>2020-11-17T08:22:55Z</time>
      </trkpt>
      <trkpt lat="28.6420280" lon="-17.8878900">
        <ele>559.7</ele>
        <time>2020-11-17T08:22:56Z</time>
      </trkpt>
      <trkpt lat="28.6420720" lon="-17.8878900">
        <ele>559.8</ele>
        <time>2020-11-17T08:22:57Z</time>
      </trkpt>
      <trkpt lat="28.6420930" lon="-17.8878870">
        <ele>560.0</ele>
        <time>2020-11-17T08:22:58Z</time>
      </trkpt>
      <trkpt lat="28.6420930" lon="-17.8878870">
        <ele>560.0</ele>
        <time>2020-11-17T08:22:59Z</time>
      </trkpt>
      <trkpt lat="28.6421370" lon="-17.8878800">
        <ele>560.3</ele>
        <time>2020-11-17T08:23:00Z</time>
      </trkpt>
      <trkpt lat="28.6421370" lon="-17.8878800">
        <ele>560.3</ele>
        <time>2020-11-17T08:23:01Z</time>
      </trkpt>
      <trkpt lat="28.6421850" lon="-17.8878730">
        <ele>560.6</ele>
        <time>2020-11-17T08:23:02Z</time>
      </trkpt>
      <trkpt lat="28.6422100" lon="-17.8878680">
        <ele>560.8</ele>
        <time>2020-11-17T08:23:03Z</time>
      </trkpt>
      <trkpt lat="28.6422100" lon="-17.8878680">
        <ele>560.8</ele>
        <time>2020-11-17T08:23:04Z</time>
      </trkpt>
      <trkpt lat="28.6422550" lon="-17.8878580">
        <ele>561.1</ele>
        <time>2020-11-17T08:23:05Z</time>
      </trkpt>
      <trkpt lat="28.6422550" lon="-17.8878580">
        <ele>561.1</ele>
        <time>2020-11-17T08:23:06Z</time>
      </trkpt>
      <trkpt lat="28.6423020" lon="-17.8878520">
        <ele>561.4</ele>
        <time>2020-11-17T08:23:07Z</time>
      </trkpt>
      <trkpt lat="28.6423020" lon="-17.8878520">
        <ele>561.4</ele>
        <time>2020-11-17T08:23:08Z</time>
      </trkpt>
      <trkpt lat="28.6423480" lon="-17.8878480">
        <ele>561.7</ele>
        <time>2020-11-17T08:23:09Z</time>
      </trkpt>
      <trkpt lat="28.6423480" lon="-17.8878480">
        <ele>561.7</ele>
        <time>2020-11-17T08:23:10Z</time>
      </trkpt>
      <trkpt lat="28.6423920" lon="-17.8878430">
        <ele>562.0</ele>
        <time>2020-11-17T08:23:11Z</time>
      </trkpt>
      <trkpt lat="28.6424150" lon="-17.8878380">
        <ele>562.1</ele>
        <time>2020-11-17T08:23:12Z</time>
      </trkpt>
      <trkpt lat="28.6424150" lon="-17.8878380">
        <ele>562.1</ele>
        <time>2020-11-17T08:23:13Z</time>
      </trkpt>
      <trkpt lat="28.6424630" lon="-17.8878130">
        <ele>562.5</ele>
        <time>2020-11-17T08:23:14Z</time>
      </trkpt>
      <trkpt lat="28.6424630" lon="-17.8878130">
        <ele>562.5</ele>
        <time>2020-11-17T08:23:15Z</time>
      </trkpt>
      <trkpt lat="28.6425120" lon="-17.8878070">
        <ele>562.8</ele>
        <time>2020-11-17T08:23:16Z</time>
      </trkpt>
      <trkpt lat="28.6425120" lon="-17.8878070">
        <ele>562.8</ele>
        <time>2020-11-17T08:23:17Z</time>
      </trkpt>
      <trkpt lat="28.6425580" lon="-17.8877980">
        <ele>563.1</ele>
        <time>2020-11-17T08:23:18Z</time>
      </trkpt>
      <trkpt lat="28.6425580" lon="-17.8877980">
        <ele>563.1</ele>
        <time>2020-11-17T08:23:19Z</time>
      </trkpt>
      <trkpt lat="28.6425580" lon="-17.8877980">
        <ele>563.1</ele>
        <time>2020-11-17T08:23:20Z</time>
      </trkpt>
      <trkpt lat="28.6426200" lon="-17.8877750">
        <ele>563.5</ele>
        <time>2020-11-17T08:23:21Z</time>
      </trkpt>
      <trkpt lat="28.6426200" lon="-17.8877750">
        <ele>563.5</ele>
        <time>2020-11-17T08:23:22Z</time>
      </trkpt>
      <trkpt lat="28.6426620" lon="-17.8877570">
        <ele>563.8</ele>
        <time>2020-11-17T08:23:23Z</time>
      </trkpt>
      <trkpt lat="28.6426820" lon="-17.8877450">
        <ele>564.0</ele>
        <time>2020-11-17T08:23:24Z</time>
      </trkpt>
      <trkpt lat="28.6426820" lon="-17.8877450">
        <ele>564.0</ele>
        <time>2020-11-17T08:23:25Z</time>
      </trkpt>
      <trkpt lat="28.6427220" lon="-17.8877200">
        <ele>564.3</ele>
        <time>2020-11-17T08:23:26Z</time>
      </trkpt>
      <trkpt lat="28.6427420" lon="-17.8877080">
        <ele>564.4</ele>
        <time>2020-11-17T08:23:27Z</time>
      </trkpt>
      <trkpt lat="28.6427420" lon="-17.8877080">
        <ele>564.4</ele>
        <time>2020-11-17T08:23:28Z</time>
      </trkpt>
      <trkpt lat="28.6427750" lon="-17.8876820">
        <ele>564.6</ele>
        <time>2020-11-17T08:23:29Z</time>
      </trkpt>
      <trkpt lat="28.6427920" lon="-17.8876650">
        <ele>564.8</ele>
        <time>2020-11-17T08:23:30Z</time>
      </trkpt>
      <trkpt lat="28.6427920" lon="-17.8876650">
        <ele>564.8</ele>
        <time>2020-11-17T08:23:31Z</time>
      </trkpt>
      <trkpt lat="28.6428280" lon="-17.8876350">
        <ele>565.0</ele>
        <time>2020-11-17T08:23:32Z</time>
      </trkpt>
      <trkpt lat="28.6428420" lon="-17.8876180">
        <ele>565.1</ele>
        <time>2020-11-17T08:23:33Z</time>
      </trkpt>
      <trkpt lat="28.6428420" lon="-17.8876180">
        <ele>565.1</ele>
        <time>2020-11-17T08:23:34Z</time>
      </trkpt>
      <trkpt lat="28.6428770" lon="-17.8875880">
        <ele>565.4</ele>
        <time>2020-11-17T08:23:35Z</time>
      </trkpt>
      <trkpt lat="28.6428930" lon="-17.8875730">
        <ele>565.5</ele>
        <time>2020-11-17T08:23:36Z</time>
      </trkpt>
      <trkpt lat="28.6428930" lon="-17.8875730">
        <ele>565.5</ele>
        <time>2020-11-17T08:23:37Z</time>
      </trkpt>
      <trkpt lat="28.6429300" lon="-17.8875450">
        <ele>565.8</ele>
        <time>2020-11-17T08:23:38Z</time>
      </trkpt>
      <trkpt lat="28.6429300" lon="-17.8875450">
        <ele>565.8</ele>
        <time>2020-11-17T08:23:39Z</time>
      </trkpt>
      <trkpt lat="28.6429630" lon="-17.8875130">
        <ele>566.0</ele>
        <time>2020-11-17T08:23:40Z</time>
      </trkpt>
      <trkpt lat="28.6429630" lon="-17.8875130">
        <ele>566.0</ele>
        <time>2020-11-17T08:23:41Z</time>
      </trkpt>
      <trkpt lat="28.6429630" lon="-17.8875130">
        <ele>566.0</ele>
        <time>2020-11-17T08:23:42Z</time>
      </trkpt>
      <trkpt lat="28.6429980" lon="-17.8874820">
        <ele>566.3</ele>
        <time>2020-11-17T08:23:43Z</time>
      </trkpt>
      <trkpt lat="28.6430300" lon="-17.8874480">
        <ele>566.5</ele>
        <time>2020-11-17T08:23:44Z</time>
      </trkpt>
      <trkpt lat="28.6430300" lon="-17.8874480">
        <ele>566.5</ele>
        <time>2020-11-17T08:23:45Z</time>
      </trkpt>
      <trkpt lat="28.6430570" lon="-17.8874100">
        <ele>566.8</ele>
        <time>2020-11-17T08:23:46Z</time>
      </trkpt>
      <trkpt lat="28.6430570" lon="-17.8874100">
        <ele>566.8</ele>
        <time>2020-11-17T08:23:47Z</time>
      </trkpt>
      <trkpt lat="28.6430820" lon="-17.8873680">
        <ele>567.0</ele>
        <time>2020-11-17T08:23:48Z</time>
      </trkpt>
      <trkpt lat="28.6430820" lon="-17.8873680">
        <ele>567.0</ele>
        <time>2020-11-17T08:23:49Z</time>
      </trkpt>
      <trkpt lat="28.6431050" lon="-17.8873230">
        <ele>567.3</ele>
        <time>2020-11-17T08:23:50Z</time>
      </trkpt>
      <trkpt lat="28.6431050" lon="-17.8873230">
        <ele>567.3</ele>
        <time>2020-11-17T08:23:51Z</time>
      </trkpt>
      <trkpt lat="28.6431270" lon="-17.8872770">
        <ele>567.6</ele>
        <time>2020-11-17T08:23:52Z</time>
      </trkpt>
      <trkpt lat="28.6431270" lon="-17.8872770">
        <ele>567.6</ele>
        <time>2020-11-17T08:23:53Z</time>
      </trkpt>
      <trkpt lat="28.6431350" lon="-17.8872550">
        <ele>567.7</ele>
        <time>2020-11-17T08:23:54Z</time>
      </trkpt>
      <trkpt lat="28.6431550" lon="-17.8872100">
        <ele>568.0</ele>
        <time>2020-11-17T08:23:55Z</time>
      </trkpt>
      <trkpt lat="28.6431670" lon="-17.8871880">
        <ele>568.1</ele>
        <time>2020-11-17T08:23:56Z</time>
      </trkpt>
      <trkpt lat="28.6431670" lon="-17.8871880">
        <ele>568.1</ele>
        <time>2020-11-17T08:23:57Z</time>
      </trkpt>
      <trkpt lat="28.6431870" lon="-17.8871470">
        <ele>568.4</ele>
        <time>2020-11-17T08:23:58Z</time>
      </trkpt>
      <trkpt lat="28.6432000" lon="-17.8871270">
        <ele>568.5</ele>
        <time>2020-11-17T08:23:59Z</time>
      </trkpt>
      <trkpt lat="28.6432000" lon="-17.8871270">
        <ele>568.5</ele>
        <time>2020-11-17T08:24:00Z</time>
      </trkpt>
      <trkpt lat="28.6432230" lon="-17.8870850">
        <ele>568.7</ele>
        <time>2020-11-17T08:24:01Z</time>
      </trkpt>
      <trkpt lat="28.6432230" lon="-17.8870850">
        <ele>568.7</ele>
        <time>2020-11-17T08:24:02Z</time>
      </trkpt>
      <trkpt lat="28.6432350" lon="-17.8870650">
        <ele>568.9</ele>
        <time>2020-11-17T08:24:03Z</time>
      </trkpt>
      <trkpt lat="28.6432580" lon="-17.8870270">
        <ele>569.1</ele>
        <time>2020-11-17T08:24:04Z</time>
      </trkpt>
      <trkpt lat="28.6432580" lon="-17.8870270">
        <ele>569.1</ele>
        <time>2020-11-17T08:24:05Z</time>
      </trkpt>
      <trkpt lat="28.6432750" lon="-17.8870100">
        <ele>569.2</ele>
        <time>2020-11-17T08:24:06Z</time>
      </trkpt>
      <trkpt lat="28.6433030" lon="-17.8869800">
        <ele>569.4</ele>
        <time>2020-11-17T08:24:07Z</time>
      </trkpt>
      <trkpt lat="28.6433030" lon="-17.8869800">
        <ele>569.4</ele>
        <time>2020-11-17T08:24:08Z</time>
      </trkpt>
      <trkpt lat="28.6433320" lon="-17.8869470">
        <ele>569.6</ele>
        <time>2020-11-17T08:24:09Z</time>
      </trkpt>
      <trkpt lat="28.6433320" lon="-17.8869470">
        <ele>569.6</ele>
        <time>2020-11-17T08:24:10Z</time>
      </trkpt>
      <trkpt lat="28.6433600" lon="-17.8869100">
        <ele>569.9</ele>
        <time>2020-11-17T08:24:11Z</time>
      </trkpt>
      <trkpt lat="28.6433600" lon="-17.8869100">
        <ele>569.9</ele>
        <time>2020-11-17T08:24:12Z</time>
      </trkpt>
      <trkpt lat="28.6433970" lon="-17.8868820">
        <ele>570.1</ele>
        <time>2020-11-17T08:24:13Z</time>
      </trkpt>
      <trkpt lat="28.6433970" lon="-17.8868820">
        <ele>570.1</ele>
        <time>2020-11-17T08:24:14Z</time>
      </trkpt>
      <trkpt lat="28.6434400" lon="-17.8868570">
        <ele>570.3</ele>
        <time>2020-11-17T08:24:15Z</time>
      </trkpt>
      <trkpt lat="28.6434400" lon="-17.8868570">
        <ele>570.3</ele>
        <time>2020-11-17T08:24:16Z</time>
      </trkpt>
      <trkpt lat="28.6434830" lon="-17.8868270">
        <ele>570.5</ele>
        <time>2020-11-17T08:24:17Z</time>
      </trkpt>
      <trkpt lat="28.6434830" lon="-17.8868270">
        <ele>570.5</ele>
        <time>2020-11-17T08:24:18Z</time>
      </trkpt>
      <trkpt lat="28.6435250" lon="-17.8868020">
        <ele>570.7</ele>
        <time>2020-11-17T08:24:19Z</time>
      </trkpt>
      <trkpt lat="28.6435250" lon="-17.8868020">
        <ele>570.7</ele>
        <time>2020-11-17T08:24:20Z</time>
      </trkpt>
      <trkpt lat="28.6435680" lon="-17.8867750">
        <ele>570.9</ele>
        <time>2020-11-17T08:24:21Z</time>
      </trkpt>
      <trkpt lat="28.6435880" lon="-17.8867620">
        <ele>571.0</ele>
        <time>2020-11-17T08:24:22Z</time>
      </trkpt>
      <trkpt lat="28.6435880" lon="-17.8867620">
        <ele>571.0</ele>
        <time>2020-11-17T08:24:23Z</time>
      </trkpt>
      <trkpt lat="28.6435880" lon="-17.8867620">
        <ele>571.0</ele>
        <time>2020-11-17T08:24:24Z</time>
      </trkpt>
      <trkpt lat="28.6436530" lon="-17.8867270">
        <ele>571.3</ele>
        <time>2020-11-17T08:24:25Z</time>
      </trkpt>
      <trkpt lat="28.6436530" lon="-17.8867270">
        <ele>571.3</ele>
        <time>2020-11-17T08:24:26Z</time>
      </trkpt>
      <trkpt lat="28.6436950" lon="-17.8867050">
        <ele>571.4</ele>
        <time>2020-11-17T08:24:27Z</time>
      </trkpt>
      <trkpt lat="28.6437180" lon="-17.8866930">
        <ele>571.5</ele>
        <time>2020-11-17T08:24:28Z</time>
      </trkpt>
      <trkpt lat="28.6437400" lon="-17.8866820">
        <ele>571.7</ele>
        <time>2020-11-17T08:24:29Z</time>
      </trkpt>
      <trkpt lat="28.6437630" lon="-17.8866700">
        <ele>571.8</ele>
        <time>2020-11-17T08:24:30Z</time>
      </trkpt>
      <trkpt lat="28.6437630" lon="-17.8866700">
        <ele>571.8</ele>
        <time>2020-11-17T08:24:31Z</time>
      </trkpt>
      <trkpt lat="28.6438050" lon="-17.8866470">
        <ele>572.0</ele>
        <time>2020-11-17T08:24:32Z</time>
      </trkpt>
      <trkpt lat="28.6438050" lon="-17.8866470">
        <ele>572.0</ele>
        <time>2020-11-17T08:24:33Z</time>
      </trkpt>
      <trkpt lat="28.6438470" lon="-17.8866180">
        <ele>572.2</ele>
        <time>2020-11-17T08:24:34Z</time>
      </trkpt>
      <trkpt lat="28.6438470" lon="-17.8866180">
        <ele>572.2</ele>
        <time>2020-11-17T08:24:35Z</time>
      </trkpt>
      <trkpt lat="28.6438870" lon="-17.8865920">
        <ele>572.4</ele>
        <time>2020-11-17T08:24:36Z</time>
      </trkpt>
      <trkpt lat="28.6438870" lon="-17.8865920">
        <ele>572.4</ele>
        <time>2020-11-17T08:24:37Z</time>
      </trkpt>
      <trkpt lat="28.6439280" lon="-17.8865720">
        <ele>572.6</ele>
        <time>2020-11-17T08:24:38Z</time>
      </trkpt>
      <trkpt lat="28.6439280" lon="-17.8865720">
        <ele>572.6</ele>
        <time>2020-11-17T08:24:39Z</time>
      </trkpt>
      <trkpt lat="28.6439680" lon="-17.8865480">
        <ele>572.8</ele>
        <time>2020-11-17T08:24:40Z</time>
      </trkpt>
      <trkpt lat="28.6439900" lon="-17.8865350">
        <ele>572.9</ele>
        <time>2020-11-17T08:24:41Z</time>
      </trkpt>
      <trkpt lat="28.6439900" lon="-17.8865350">
        <ele>572.9</ele>
        <time>2020-11-17T08:24:42Z</time>
      </trkpt>
      <trkpt lat="28.6440350" lon="-17.8865100">
        <ele>573.2</ele>
        <time>2020-11-17T08:24:43Z</time>
      </trkpt>
      <trkpt lat="28.6440550" lon="-17.8864970">
        <ele>573.3</ele>
        <time>2020-11-17T08:24:44Z</time>
      </trkpt>
      <trkpt lat="28.6440550" lon="-17.8864970">
        <ele>573.3</ele>
        <time>2020-11-17T08:24:45Z</time>
      </trkpt>
      <trkpt lat="28.6440980" lon="-17.8864720">
        <ele>573.5</ele>
        <time>2020-11-17T08:24:46Z</time>
      </trkpt>
      <trkpt lat="28.6441180" lon="-17.8864620">
        <ele>573.6</ele>
        <time>2020-11-17T08:24:47Z</time>
      </trkpt>
      <trkpt lat="28.6441180" lon="-17.8864620">
        <ele>573.6</ele>
        <time>2020-11-17T08:24:48Z</time>
      </trkpt>
      <trkpt lat="28.6441630" lon="-17.8864380">
        <ele>573.8</ele>
        <time>2020-11-17T08:24:49Z</time>
      </trkpt>
      <trkpt lat="28.6441630" lon="-17.8864380">
        <ele>573.8</ele>
        <time>2020-11-17T08:24:50Z</time>
      </trkpt>
      <trkpt lat="28.6442070" lon="-17.8864120">
        <ele>574.1</ele>
        <time>2020-11-17T08:24:51Z</time>
      </trkpt>
      <trkpt lat="28.6442070" lon="-17.8864120">
        <ele>574.1</ele>
        <time>2020-11-17T08:24:52Z</time>
      </trkpt>
      <trkpt lat="28.6442520" lon="-17.8863850">
        <ele>574.3</ele>
        <time>2020-11-17T08:24:53Z</time>
      </trkpt>
      <trkpt lat="28.6442720" lon="-17.8863780">
        <ele>574.4</ele>
        <time>2020-11-17T08:24:54Z</time>
      </trkpt>
      <trkpt lat="28.6442720" lon="-17.8863780">
        <ele>574.4</ele>
        <time>2020-11-17T08:24:55Z</time>
      </trkpt>
      <trkpt lat="28.6443130" lon="-17.8863630">
        <ele>574.6</ele>
        <time>2020-11-17T08:24:56Z</time>
      </trkpt>
      <trkpt lat="28.6443350" lon="-17.8863530">
        <ele>574.7</ele>
        <time>2020-11-17T08:24:57Z</time>
      </trkpt>
      <trkpt lat="28.6443350" lon="-17.8863530">
        <ele>574.7</ele>
        <time>2020-11-17T08:24:58Z</time>
      </trkpt>
      <trkpt lat="28.6443800" lon="-17.8863330">
        <ele>575.0</ele>
        <time>2020-11-17T08:24:59Z</time>
      </trkpt>
      <trkpt lat="28.6444000" lon="-17.8863220">
        <ele>575.1</ele>
        <time>2020-11-17T08:25:00Z</time>
      </trkpt>
      <trkpt lat="28.6444000" lon="-17.8863220">
        <ele>575.1</ele>
        <time>2020-11-17T08:25:01Z</time>
      </trkpt>
      <trkpt lat="28.6444450" lon="-17.8863080">
        <ele>575.4</ele>
        <time>2020-11-17T08:25:02Z</time>
      </trkpt>
      <trkpt lat="28.6444450" lon="-17.8863080">
        <ele>575.4</ele>
        <time>2020-11-17T08:25:03Z</time>
      </trkpt>
      <trkpt lat="28.6444450" lon="-17.8863080">
        <ele>575.4</ele>
        <time>2020-11-17T08:25:04Z</time>
      </trkpt>
      <trkpt lat="28.6444920" lon="-17.8862980">
        <ele>575.6</ele>
        <time>2020-11-17T08:25:05Z</time>
      </trkpt>
      <trkpt lat="28.6445370" lon="-17.8862880">
        <ele>575.9</ele>
        <time>2020-11-17T08:25:06Z</time>
      </trkpt>
      <trkpt lat="28.6445370" lon="-17.8862880">
        <ele>575.9</ele>
        <time>2020-11-17T08:25:07Z</time>
      </trkpt>
      <trkpt lat="28.6445820" lon="-17.8862770">
        <ele>576.2</ele>
        <time>2020-11-17T08:25:08Z</time>
      </trkpt>
      <trkpt lat="28.6445820" lon="-17.8862770">
        <ele>576.2</ele>
        <time>2020-11-17T08:25:09Z</time>
      </trkpt>
      <trkpt lat="28.6446250" lon="-17.8862680">
        <ele>576.5</ele>
        <time>2020-11-17T08:25:10Z</time>
      </trkpt>
      <trkpt lat="28.6446250" lon="-17.8862680">
        <ele>576.5</ele>
        <time>2020-11-17T08:25:11Z</time>
      </trkpt>
      <trkpt lat="28.6446250" lon="-17.8862680">
        <ele>576.5</ele>
        <time>2020-11-17T08:25:12Z</time>
      </trkpt>
      <trkpt lat="28.6446670" lon="-17.8862670">
        <ele>576.8</ele>
        <time>2020-11-17T08:25:13Z</time>
      </trkpt>
      <trkpt lat="28.6447130" lon="-17.8862620">
        <ele>577.1</ele>
        <time>2020-11-17T08:25:14Z</time>
      </trkpt>
      <trkpt lat="28.6447130" lon="-17.8862620">
        <ele>577.1</ele>
        <time>2020-11-17T08:25:15Z</time>
      </trkpt>
      <trkpt lat="28.6447330" lon="-17.8862620">
        <ele>577.2</ele>
        <time>2020-11-17T08:25:16Z</time>
      </trkpt>
      <trkpt lat="28.6447770" lon="-17.8862650">
        <ele>577.5</ele>
        <time>2020-11-17T08:25:17Z</time>
      </trkpt>
      <trkpt lat="28.6447770" lon="-17.8862650">
        <ele>577.5</ele>
        <time>2020-11-17T08:25:18Z</time>
      </trkpt>
      <trkpt lat="28.6448180" lon="-17.8862730">
        <ele>577.7</ele>
        <time>2020-11-17T08:25:19Z</time>
      </trkpt>
      <trkpt lat="28.6448180" lon="-17.8862730">
        <ele>577.7</ele>
        <time>2020-11-17T08:25:20Z</time>
      </trkpt>
      <trkpt lat="28.6448630" lon="-17.8862830">
        <ele>578.0</ele>
        <time>2020-11-17T08:25:21Z</time>
      </trkpt>
      <trkpt lat="28.6448630" lon="-17.8862830">
        <ele>578.0</ele>
        <time>2020-11-17T08:25:22Z</time>
      </trkpt>
      <trkpt lat="28.6449070" lon="-17.8862930">
        <ele>578.3</ele>
        <time>2020-11-17T08:25:23Z</time>
      </trkpt>
      <trkpt lat="28.6449070" lon="-17.8862930">
        <ele>578.3</ele>
        <time>2020-11-17T08:25:24Z</time>
      </trkpt>
      <trkpt lat="28.6449500" lon="-17.8863050">
        <ele>578.6</ele>
        <time>2020-11-17T08:25:25Z</time>
      </trkpt>
      <trkpt lat="28.6449500" lon="-17.8863050">
        <ele>578.6</ele>
        <time>2020-11-17T08:25:26Z</time>
      </trkpt>
      <trkpt lat="28.6449920" lon="-17.8863150">
        <ele>578.9</ele>
        <time>2020-11-17T08:25:27Z</time>
      </trkpt>
      <trkpt lat="28.6449920" lon="-17.8863150">
        <ele>578.9</ele>
        <time>2020-11-17T08:25:28Z</time>
      </trkpt>
      <trkpt lat="28.6450150" lon="-17.8863200">
        <ele>579.1</ele>
        <time>2020-11-17T08:25:29Z</time>
      </trkpt>
      <trkpt lat="28.6450380" lon="-17.8863250">
        <ele>579.2</ele>
        <time>2020-11-17T08:25:30Z</time>
      </trkpt>
      <trkpt lat="28.6450870" lon="-17.8863300">
        <ele>579.6</ele>
        <time>2020-11-17T08:25:31Z</time>
      </trkpt>
      <trkpt lat="28.6450870" lon="-17.8863300">
        <ele>579.6</ele>
        <time>2020-11-17T08:25:32Z</time>
      </trkpt>
      <trkpt lat="28.6451350" lon="-17.8863330">
        <ele>579.9</ele>
        <time>2020-11-17T08:25:33Z</time>
      </trkpt>
      <trkpt lat="28.6451350" lon="-17.8863330">
        <ele>579.9</ele>
        <time>2020-11-17T08:25:34Z</time>
      </trkpt>
      <trkpt lat="28.6451570" lon="-17.8863370">
        <ele>580.0</ele>
        <time>2020-11-17T08:25:35Z</time>
      </trkpt>
      <trkpt lat="28.6452030" lon="-17.8863380">
        <ele>580.4</ele>
        <time>2020-11-17T08:25:36Z</time>
      </trkpt>
      <trkpt lat="28.6452030" lon="-17.8863380">
        <ele>580.4</ele>
        <time>2020-11-17T08:25:37Z</time>
      </trkpt>
      <trkpt lat="28.6452520" lon="-17.8863350">
        <ele>580.9</ele>
        <time>2020-11-17T08:25:38Z</time>
      </trkpt>
      <trkpt lat="28.6452750" lon="-17.8863280">
        <ele>581.1</ele>
        <time>2020-11-17T08:25:39Z</time>
      </trkpt>
      <trkpt lat="28.6452980" lon="-17.8863220">
        <ele>581.3</ele>
        <time>2020-11-17T08:25:40Z</time>
      </trkpt>
      <trkpt lat="28.6452980" lon="-17.8863220">
        <ele>581.3</ele>
        <time>2020-11-17T08:25:41Z</time>
      </trkpt>
      <trkpt lat="28.6453420" lon="-17.8863050">
        <ele>581.6</ele>
        <time>2020-11-17T08:25:42Z</time>
      </trkpt>
      <trkpt lat="28.6453420" lon="-17.8863050">
        <ele>581.6</ele>
        <time>2020-11-17T08:25:43Z</time>
      </trkpt>
      <trkpt lat="28.6453800" lon="-17.8862880">
        <ele>582.0</ele>
        <time>2020-11-17T08:25:44Z</time>
      </trkpt>
      <trkpt lat="28.6453800" lon="-17.8862880">
        <ele>582.0</ele>
        <time>2020-11-17T08:25:45Z</time>
      </trkpt>
      <trkpt lat="28.6454180" lon="-17.8862700">
        <ele>582.3</ele>
        <time>2020-11-17T08:25:46Z</time>
      </trkpt>
      <trkpt lat="28.6454180" lon="-17.8862700">
        <ele>582.3</ele>
        <time>2020-11-17T08:25:47Z</time>
      </trkpt>
      <trkpt lat="28.6454550" lon="-17.8862480">
        <ele>582.6</ele>
        <time>2020-11-17T08:25:48Z</time>
      </trkpt>
      <trkpt lat="28.6454550" lon="-17.8862480">
        <ele>582.6</ele>
        <time>2020-11-17T08:25:49Z</time>
      </trkpt>
      <trkpt lat="28.6454730" lon="-17.8862380">
        <ele>582.8</ele>
        <time>2020-11-17T08:25:50Z</time>
      </trkpt>
      <trkpt lat="28.6455100" lon="-17.8862150">
        <ele>583.1</ele>
        <time>2020-11-17T08:25:51Z</time>
      </trkpt>
      <trkpt lat="28.6455100" lon="-17.8862150">
        <ele>583.1</ele>
        <time>2020-11-17T08:25:52Z</time>
      </trkpt>
      <trkpt lat="28.6455450" lon="-17.8861900">
        <ele>583.4</ele>
        <time>2020-11-17T08:25:53Z</time>
      </trkpt>
      <trkpt lat="28.6455620" lon="-17.8861780">
        <ele>583.6</ele>
        <time>2020-11-17T08:25:54Z</time>
      </trkpt>
      <trkpt lat="28.6455620" lon="-17.8861780">
        <ele>583.6</ele>
        <time>2020-11-17T08:25:55Z</time>
      </trkpt>
      <trkpt lat="28.6455970" lon="-17.8861520">
        <ele>583.9</ele>
        <time>2020-11-17T08:25:56Z</time>
      </trkpt>
      <trkpt lat="28.6456150" lon="-17.8861400">
        <ele>584.1</ele>
        <time>2020-11-17T08:25:57Z</time>
      </trkpt>
      <trkpt lat="28.6456150" lon="-17.8861400">
        <ele>584.1</ele>
        <time>2020-11-17T08:25:58Z</time>
      </trkpt>
      <trkpt lat="28.6456530" lon="-17.8861200">
        <ele>584.4</ele>
        <time>2020-11-17T08:25:59Z</time>
      </trkpt>
      <trkpt lat="28.6456720" lon="-17.8861080">
        <ele>584.6</ele>
        <time>2020-11-17T08:26:00Z</time>
      </trkpt>
      <trkpt lat="28.6456720" lon="-17.8861080">
        <ele>584.6</ele>
        <time>2020-11-17T08:26:01Z</time>
      </trkpt>
      <trkpt lat="28.6457080" lon="-17.8860830">
        <ele>584.9</ele>
        <time>2020-11-17T08:26:02Z</time>
      </trkpt>
      <trkpt lat="28.6457080" lon="-17.8860830">
        <ele>584.9</ele>
        <time>2020-11-17T08:26:03Z</time>
      </trkpt>
      <trkpt lat="28.6457470" lon="-17.8860580">
        <ele>585.3</ele>
        <time>2020-11-17T08:26:04Z</time>
      </trkpt>
      <trkpt lat="28.6457670" lon="-17.8860450">
        <ele>585.6</ele>
        <time>2020-11-17T08:26:05Z</time>
      </trkpt>
      <trkpt lat="28.6457850" lon="-17.8860300">
        <ele>585.8</ele>
        <time>2020-11-17T08:26:06Z</time>
      </trkpt>
      <trkpt lat="28.6457850" lon="-17.8860300">
        <ele>585.8</ele>
        <time>2020-11-17T08:26:07Z</time>
      </trkpt>
      <trkpt lat="28.6458220" lon="-17.8860050">
        <ele>586.2</ele>
        <time>2020-11-17T08:26:08Z</time>
      </trkpt>
      <trkpt lat="28.6458220" lon="-17.8860050">
        <ele>586.2</ele>
        <time>2020-11-17T08:26:09Z</time>
      </trkpt>
      <trkpt lat="28.6458580" lon="-17.8859820">
        <ele>586.7</ele>
        <time>2020-11-17T08:26:10Z</time>
      </trkpt>
      <trkpt lat="28.6458770" lon="-17.8859720">
        <ele>586.9</ele>
        <time>2020-11-17T08:26:11Z</time>
      </trkpt>
      <trkpt lat="28.6458950" lon="-17.8859580">
        <ele>587.1</ele>
        <time>2020-11-17T08:26:12Z</time>
      </trkpt>
      <trkpt lat="28.6458950" lon="-17.8859580">
        <ele>587.1</ele>
        <time>2020-11-17T08:26:13Z</time>
      </trkpt>
      <trkpt lat="28.6459320" lon="-17.8859350">
        <ele>587.5</ele>
        <time>2020-11-17T08:26:14Z</time>
      </trkpt>
      <trkpt lat="28.6459520" lon="-17.8859200">
        <ele>587.8</ele>
        <time>2020-11-17T08:26:15Z</time>
      </trkpt>
      <trkpt lat="28.6459520" lon="-17.8859200">
        <ele>587.8</ele>
        <time>2020-11-17T08:26:16Z</time>
      </trkpt>
      <trkpt lat="28.6459880" lon="-17.8858950">
        <ele>588.2</ele>
        <time>2020-11-17T08:26:17Z</time>
      </trkpt>
      <trkpt lat="28.6459880" lon="-17.8858950">
        <ele>588.2</ele>
        <time>2020-11-17T08:26:18Z</time>
      </trkpt>
      <trkpt lat="28.6460280" lon="-17.8858700">
        <ele>588.7</ele>
        <time>2020-11-17T08:26:19Z</time>
      </trkpt>
      <trkpt lat="28.6460280" lon="-17.8858700">
        <ele>588.7</ele>
        <time>2020-11-17T08:26:20Z</time>
      </trkpt>
      <trkpt lat="28.6460630" lon="-17.8858420">
        <ele>589.1</ele>
        <time>2020-11-17T08:26:21Z</time>
      </trkpt>
      <trkpt lat="28.6460630" lon="-17.8858420">
        <ele>589.1</ele>
        <time>2020-11-17T08:26:22Z</time>
      </trkpt>
      <trkpt lat="28.6461000" lon="-17.8858170">
        <ele>589.6</ele>
        <time>2020-11-17T08:26:23Z</time>
      </trkpt>
      <trkpt lat="28.6461000" lon="-17.8858170">
        <ele>589.6</ele>
        <time>2020-11-17T08:26:24Z</time>
      </trkpt>
      <trkpt lat="28.6461400" lon="-17.8857970">
        <ele>590.0</ele>
        <time>2020-11-17T08:26:25Z</time>
      </trkpt>
      <trkpt lat="28.6461580" lon="-17.8857870">
        <ele>590.2</ele>
        <time>2020-11-17T08:26:26Z</time>
      </trkpt>
      <trkpt lat="28.6461580" lon="-17.8857870">
        <ele>590.2</ele>
        <time>2020-11-17T08:26:27Z</time>
      </trkpt>
      <trkpt lat="28.6461950" lon="-17.8857630">
        <ele>590.6</ele>
        <time>2020-11-17T08:26:28Z</time>
      </trkpt>
      <trkpt lat="28.6462150" lon="-17.8857520">
        <ele>590.8</ele>
        <time>2020-11-17T08:26:29Z</time>
      </trkpt>
      <trkpt lat="28.6462150" lon="-17.8857520">
        <ele>590.8</ele>
        <time>2020-11-17T08:26:30Z</time>
      </trkpt>
      <trkpt lat="28.6462500" lon="-17.8857250">
        <ele>591.3</ele>
        <time>2020-11-17T08:26:31Z</time>
      </trkpt>
      <trkpt lat="28.6462500" lon="-17.8857250">
        <ele>591.3</ele>
        <time>2020-11-17T08:26:32Z</time>
      </trkpt>
      <trkpt lat="28.6462680" lon="-17.8857100">
        <ele>591.3</ele>
        <time>2020-11-17T08:26:33Z</time>
      </trkpt>
      <trkpt lat="28.6463070" lon="-17.8856780">
        <ele>590.9</ele>
        <time>2020-11-17T08:26:34Z</time>
      </trkpt>
      <trkpt lat="28.6463070" lon="-17.8856780">
        <ele>590.9</ele>
        <time>2020-11-17T08:26:35Z</time>
      </trkpt>
      <trkpt lat="28.6463070" lon="-17.8856780">
        <ele>590.9</ele>
        <time>2020-11-17T08:26:36Z</time>
      </trkpt>
      <trkpt lat="28.6463450" lon="-17.8856520">
        <ele>590.8</ele>
        <time>2020-11-17T08:26:37Z</time>
      </trkpt>
      <trkpt lat="28.6463830" lon="-17.8856230">
        <ele>591.3</ele>
        <time>2020-11-17T08:26:38Z</time>
      </trkpt>
      <trkpt lat="28.6464020" lon="-17.8856100">
        <ele>591.5</ele>
        <time>2020-11-17T08:26:39Z</time>
      </trkpt>
      <trkpt lat="28.6464020" lon="-17.8856100">
        <ele>591.5</ele>
        <time>2020-11-17T08:26:40Z</time>
      </trkpt>
      <trkpt lat="28.6464430" lon="-17.8855800">
        <ele>592.0</ele>
        <time>2020-11-17T08:26:41Z</time>
      </trkpt>
      <trkpt lat="28.6464650" lon="-17.8855620">
        <ele>592.3</ele>
        <time>2020-11-17T08:26:42Z</time>
      </trkpt>
      <trkpt lat="28.6464650" lon="-17.8855620">
        <ele>592.3</ele>
        <time>2020-11-17T08:26:43Z</time>
      </trkpt>
      <trkpt lat="28.6465070" lon="-17.8855350">
        <ele>592.8</ele>
        <time>2020-11-17T08:26:44Z</time>
      </trkpt>
      <trkpt lat="28.6465250" lon="-17.8855180">
        <ele>593.0</ele>
        <time>2020-11-17T08:26:45Z</time>
      </trkpt>
      <trkpt lat="28.6465250" lon="-17.8855180">
        <ele>593.0</ele>
        <time>2020-11-17T08:26:46Z</time>
      </trkpt>
      <trkpt lat="28.6465580" lon="-17.8854870">
        <ele>593.4</ele>
        <time>2020-11-17T08:26:47Z</time>
      </trkpt>
      <trkpt lat="28.6465750" lon="-17.8854750">
        <ele>593.6</ele>
        <time>2020-11-17T08:26:48Z</time>
      </trkpt>
      <trkpt lat="28.6465750" lon="-17.8854750">
        <ele>593.6</ele>
        <time>2020-11-17T08:26:49Z</time>
      </trkpt>
      <trkpt lat="28.6466130" lon="-17.8854500">
        <ele>594.1</ele>
        <time>2020-11-17T08:26:50Z</time>
      </trkpt>
      <trkpt lat="28.6466130" lon="-17.8854500">
        <ele>594.1</ele>
        <time>2020-11-17T08:26:51Z</time>
      </trkpt>
      <trkpt lat="28.6466480" lon="-17.8854230">
        <ele>594.5</ele>
        <time>2020-11-17T08:26:52Z</time>
      </trkpt>
      <trkpt lat="28.6466480" lon="-17.8854230">
        <ele>594.5</ele>
        <time>2020-11-17T08:26:53Z</time>
      </trkpt>
      <trkpt lat="28.6466850" lon="-17.8854030">
        <ele>594.9</ele>
        <time>2020-11-17T08:26:54Z</time>
      </trkpt>
      <trkpt lat="28.6466850" lon="-17.8854030">
        <ele>594.9</ele>
        <time>2020-11-17T08:26:55Z</time>
      </trkpt>
      <trkpt lat="28.6467200" lon="-17.8853850">
        <ele>595.3</ele>
        <time>2020-11-17T08:26:56Z</time>
      </trkpt>
      <trkpt lat="28.6467200" lon="-17.8853850">
        <ele>595.3</ele>
        <time>2020-11-17T08:26:57Z</time>
      </trkpt>
      <trkpt lat="28.6467520" lon="-17.8853650">
        <ele>595.7</ele>
        <time>2020-11-17T08:26:58Z</time>
      </trkpt>
      <trkpt lat="28.6467520" lon="-17.8853650">
        <ele>595.7</ele>
        <time>2020-11-17T08:26:59Z</time>
      </trkpt>
      <trkpt lat="28.6467870" lon="-17.8853470">
        <ele>596.1</ele>
        <time>2020-11-17T08:27:00Z</time>
      </trkpt>
      <trkpt lat="28.6467870" lon="-17.8853470">
        <ele>596.1</ele>
        <time>2020-11-17T08:27:01Z</time>
      </trkpt>
      <trkpt lat="28.6467870" lon="-17.8853470">
        <ele>596.1</ele>
        <time>2020-11-17T08:27:02Z</time>
      </trkpt>
      <trkpt lat="28.6468230" lon="-17.8853250">
        <ele>596.5</ele>
        <time>2020-11-17T08:27:03Z</time>
      </trkpt>
      <trkpt lat="28.6468580" lon="-17.8853030">
        <ele>596.9</ele>
        <time>2020-11-17T08:27:04Z</time>
      </trkpt>
      <trkpt lat="28.6468780" lon="-17.8852930">
        <ele>597.1</ele>
        <time>2020-11-17T08:27:05Z</time>
      </trkpt>
      <trkpt lat="28.6468780" lon="-17.8852930">
        <ele>597.1</ele>
        <time>2020-11-17T08:27:06Z</time>
      </trkpt>
      <trkpt lat="28.6469170" lon="-17.8852770">
        <ele>597.5</ele>
        <time>2020-11-17T08:27:07Z</time>
      </trkpt>
      <trkpt lat="28.6469350" lon="-17.8852700">
        <ele>597.7</ele>
        <time>2020-11-17T08:27:08Z</time>
      </trkpt>
      <trkpt lat="28.6469570" lon="-17.8852630">
        <ele>597.9</ele>
        <time>2020-11-17T08:27:09Z</time>
      </trkpt>
      <trkpt lat="28.6469570" lon="-17.8852630">
        <ele>597.9</ele>
        <time>2020-11-17T08:27:10Z</time>
      </trkpt>
      <trkpt lat="28.6469930" lon="-17.8852420">
        <ele>598.3</ele>
        <time>2020-11-17T08:27:11Z</time>
      </trkpt>
      <trkpt lat="28.6470070" lon="-17.8852230">
        <ele>596.8</ele>
        <time>2020-11-17T08:27:12Z</time>
      </trkpt>
      <trkpt lat="28.6470180" lon="-17.8852030">
        <ele>595.8</ele>
        <time>2020-11-17T08:27:13Z</time>
      </trkpt>
      <trkpt lat="28.6470320" lon="-17.8851870">
        <ele>595.9</ele>
        <time>2020-11-17T08:27:14Z</time>
      </trkpt>
      <trkpt lat="28.6470320" lon="-17.8851870">
        <ele>595.9</ele>
        <time>2020-11-17T08:27:15Z</time>
      </trkpt>
      <trkpt lat="28.6470320" lon="-17.8851870">
        <ele>595.9</ele>
        <time>2020-11-17T08:27:16Z</time>
      </trkpt>
      <trkpt lat="28.6470650" lon="-17.8851580">
        <ele>596.2</ele>
        <time>2020-11-17T08:27:17Z</time>
      </trkpt>
      <trkpt lat="28.6471030" lon="-17.8851270">
        <ele>596.5</ele>
        <time>2020-11-17T08:27:18Z</time>
      </trkpt>
      <trkpt lat="28.6471030" lon="-17.8851270">
        <ele>596.5</ele>
        <time>2020-11-17T08:27:19Z</time>
      </trkpt>
      <trkpt lat="28.6471450" lon="-17.8850920">
        <ele>596.8</ele>
        <time>2020-11-17T08:27:20Z</time>
      </trkpt>
      <trkpt lat="28.6471670" lon="-17.8850750">
        <ele>597.0</ele>
        <time>2020-11-17T08:27:21Z</time>
      </trkpt>
      <trkpt lat="28.6471670" lon="-17.8850750">
        <ele>597.0</ele>
        <time>2020-11-17T08:27:22Z</time>
      </trkpt>
      <trkpt lat="28.6472050" lon="-17.8850430">
        <ele>597.3</ele>
        <time>2020-11-17T08:27:23Z</time>
      </trkpt>
      <trkpt lat="28.6472250" lon="-17.8850280">
        <ele>597.4</ele>
        <time>2020-11-17T08:27:24Z</time>
      </trkpt>
      <trkpt lat="28.6472450" lon="-17.8850130">
        <ele>597.6</ele>
        <time>2020-11-17T08:27:25Z</time>
      </trkpt>
      <trkpt lat="28.6472450" lon="-17.8850130">
        <ele>597.6</ele>
        <time>2020-11-17T08:27:26Z</time>
      </trkpt>
      <trkpt lat="28.6472880" lon="-17.8849900">
        <ele>597.9</ele>
        <time>2020-11-17T08:27:27Z</time>
      </trkpt>
      <trkpt lat="28.6473070" lon="-17.8849770">
        <ele>598.1</ele>
        <time>2020-11-17T08:27:28Z</time>
      </trkpt>
      <trkpt lat="28.6473070" lon="-17.8849770">
        <ele>598.1</ele>
        <time>2020-11-17T08:27:29Z</time>
      </trkpt>
      <trkpt lat="28.6473470" lon="-17.8849480">
        <ele>598.4</ele>
        <time>2020-11-17T08:27:30Z</time>
      </trkpt>
      <trkpt lat="28.6473470" lon="-17.8849480">
        <ele>598.4</ele>
        <time>2020-11-17T08:27:31Z</time>
      </trkpt>
      <trkpt lat="28.6473870" lon="-17.8849220">
        <ele>598.7</ele>
        <time>2020-11-17T08:27:32Z</time>
      </trkpt>
      <trkpt lat="28.6473870" lon="-17.8849220">
        <ele>598.7</ele>
        <time>2020-11-17T08:27:33Z</time>
      </trkpt>
      <trkpt lat="28.6474270" lon="-17.8848950">
        <ele>599.0</ele>
        <time>2020-11-17T08:27:34Z</time>
      </trkpt>
      <trkpt lat="28.6474270" lon="-17.8848950">
        <ele>599.0</ele>
        <time>2020-11-17T08:27:35Z</time>
      </trkpt>
      <trkpt lat="28.6474680" lon="-17.8848680">
        <ele>599.3</ele>
        <time>2020-11-17T08:27:36Z</time>
      </trkpt>
      <trkpt lat="28.6474680" lon="-17.8848680">
        <ele>599.3</ele>
        <time>2020-11-17T08:27:37Z</time>
      </trkpt>
      <trkpt lat="28.6475120" lon="-17.8848470">
        <ele>599.6</ele>
        <time>2020-11-17T08:27:38Z</time>
      </trkpt>
      <trkpt lat="28.6475320" lon="-17.8848370">
        <ele>599.8</ele>
        <time>2020-11-17T08:27:39Z</time>
      </trkpt>
      <trkpt lat="28.6475320" lon="-17.8848370">
        <ele>599.8</ele>
        <time>2020-11-17T08:27:40Z</time>
      </trkpt>
      <trkpt lat="28.6475320" lon="-17.8848370">
        <ele>599.8</ele>
        <time>2020-11-17T08:27:41Z</time>
      </trkpt>
      <trkpt lat="28.6475730" lon="-17.8848130">
        <ele>600.1</ele>
        <time>2020-11-17T08:27:42Z</time>
      </trkpt>
      <trkpt lat="28.6476200" lon="-17.8847980">
        <ele>600.5</ele>
        <time>2020-11-17T08:27:43Z</time>
      </trkpt>
      <trkpt lat="28.6476200" lon="-17.8847980">
        <ele>600.5</ele>
        <time>2020-11-17T08:27:44Z</time>
      </trkpt>
      <trkpt lat="28.6476650" lon="-17.8847870">
        <ele>600.8</ele>
        <time>2020-11-17T08:27:45Z</time>
      </trkpt>
      <trkpt lat="28.6476650" lon="-17.8847870">
        <ele>600.8</ele>
        <time>2020-11-17T08:27:46Z</time>
      </trkpt>
      <trkpt lat="28.6477080" lon="-17.8847600">
        <ele>601.3</ele>
        <time>2020-11-17T08:27:47Z</time>
      </trkpt>
      <trkpt lat="28.6477330" lon="-17.8847430">
        <ele>601.7</ele>
        <time>2020-11-17T08:27:48Z</time>
      </trkpt>
      <trkpt lat="28.6477330" lon="-17.8847430">
        <ele>601.7</ele>
        <time>2020-11-17T08:27:49Z</time>
      </trkpt>
      <trkpt lat="28.6477770" lon="-17.8847120">
        <ele>602.2</ele>
        <time>2020-11-17T08:27:50Z</time>
      </trkpt>
      <trkpt lat="28.6477770" lon="-17.8847120">
        <ele>602.2</ele>
        <time>2020-11-17T08:27:51Z</time>
      </trkpt>
      <trkpt lat="28.6478120" lon="-17.8846830">
        <ele>602.7</ele>
        <time>2020-11-17T08:27:52Z</time>
      </trkpt>
      <trkpt lat="28.6478280" lon="-17.8846700">
        <ele>602.9</ele>
        <time>2020-11-17T08:27:53Z</time>
      </trkpt>
      <trkpt lat="28.6478280" lon="-17.8846700">
        <ele>602.9</ele>
        <time>2020-11-17T08:27:54Z</time>
      </trkpt>
      <trkpt lat="28.6478630" lon="-17.8846430">
        <ele>603.3</ele>
        <time>2020-11-17T08:27:55Z</time>
      </trkpt>
      <trkpt lat="28.6478630" lon="-17.8846430">
        <ele>603.3</ele>
        <time>2020-11-17T08:27:56Z</time>
      </trkpt>
      <trkpt lat="28.6478980" lon="-17.8846120">
        <ele>603.8</ele>
        <time>2020-11-17T08:27:57Z</time>
      </trkpt>
      <trkpt lat="28.6479150" lon="-17.8845970">
        <ele>604.0</ele>
        <time>2020-11-17T08:27:58Z</time>
      </trkpt>
      <trkpt lat="28.6479150" lon="-17.8845970">
        <ele>604.0</ele>
        <time>2020-11-17T08:27:59Z</time>
      </trkpt>
      <trkpt lat="28.6479500" lon="-17.8845620">
        <ele>604.5</ele>
        <time>2020-11-17T08:28:00Z</time>
      </trkpt>
      <trkpt lat="28.6479500" lon="-17.8845620">
        <ele>604.5</ele>
        <time>2020-11-17T08:28:01Z</time>
      </trkpt>
      <trkpt lat="28.6479850" lon="-17.8845330">
        <ele>604.9</ele>
        <time>2020-11-17T08:28:02Z</time>
      </trkpt>
      <trkpt lat="28.6479850" lon="-17.8845330">
        <ele>604.9</ele>
        <time>2020-11-17T08:28:03Z</time>
      </trkpt>
      <trkpt lat="28.6480200" lon="-17.8845050">
        <ele>605.4</ele>
        <time>2020-11-17T08:28:04Z</time>
      </trkpt>
      <trkpt lat="28.6480200" lon="-17.8845050">
        <ele>605.4</ele>
        <time>2020-11-17T08:28:05Z</time>
      </trkpt>
      <trkpt lat="28.6480570" lon="-17.8844700">
        <ele>605.9</ele>
        <time>2020-11-17T08:28:06Z</time>
      </trkpt>
      <trkpt lat="28.6480570" lon="-17.8844700">
        <ele>605.9</ele>
        <time>2020-11-17T08:28:07Z</time>
      </trkpt>
      <trkpt lat="28.6480920" lon="-17.8844370">
        <ele>606.4</ele>
        <time>2020-11-17T08:28:08Z</time>
      </trkpt>
      <trkpt lat="28.6481100" lon="-17.8844220">
        <ele>606.6</ele>
        <time>2020-11-17T08:28:09Z</time>
      </trkpt>
      <trkpt lat="28.6481100" lon="-17.8844220">
        <ele>606.6</ele>
        <time>2020-11-17T08:28:10Z</time>
      </trkpt>
      <trkpt lat="28.6481430" lon="-17.8843850">
        <ele>607.1</ele>
        <time>2020-11-17T08:28:11Z</time>
      </trkpt>
      <trkpt lat="28.6481580" lon="-17.8843680">
        <ele>607.4</ele>
        <time>2020-11-17T08:28:12Z</time>
      </trkpt>
      <trkpt lat="28.6481730" lon="-17.8843520">
        <ele>607.6</ele>
        <time>2020-11-17T08:28:13Z</time>
      </trkpt>
      <trkpt lat="28.6481730" lon="-17.8843520">
        <ele>607.6</ele>
        <time>2020-11-17T08:28:14Z</time>
      </trkpt>
      <trkpt lat="28.6482020" lon="-17.8843230">
        <ele>608.0</ele>
        <time>2020-11-17T08:28:15Z</time>
      </trkpt>
      <trkpt lat="28.6482020" lon="-17.8843230">
        <ele>608.0</ele>
        <time>2020-11-17T08:28:16Z</time>
      </trkpt>
      <trkpt lat="28.6482320" lon="-17.8842930">
        <ele>608.5</ele>
        <time>2020-11-17T08:28:17Z</time>
      </trkpt>
      <trkpt lat="28.6482470" lon="-17.8842770">
        <ele>608.7</ele>
        <time>2020-11-17T08:28:18Z</time>
      </trkpt>
      <trkpt lat="28.6482470" lon="-17.8842770">
        <ele>608.7</ele>
        <time>2020-11-17T08:28:19Z</time>
      </trkpt>
      <trkpt lat="28.6482720" lon="-17.8842470">
        <ele>609.1</ele>
        <time>2020-11-17T08:28:20Z</time>
      </trkpt>
      <trkpt lat="28.6482880" lon="-17.8842320">
        <ele>609.3</ele>
        <time>2020-11-17T08:28:21Z</time>
      </trkpt>
      <trkpt lat="28.6482880" lon="-17.8842320">
        <ele>609.3</ele>
        <time>2020-11-17T08:28:22Z</time>
      </trkpt>
      <trkpt lat="28.6483170" lon="-17.8842030">
        <ele>609.0</ele>
        <time>2020-11-17T08:28:23Z</time>
      </trkpt>
      <trkpt lat="28.6483330" lon="-17.8841880">
        <ele>608.8</ele>
        <time>2020-11-17T08:28:24Z</time>
      </trkpt>
      <trkpt lat="28.6483330" lon="-17.8841880">
        <ele>608.8</ele>
        <time>2020-11-17T08:28:25Z</time>
      </trkpt>
      <trkpt lat="28.6483650" lon="-17.8841600">
        <ele>608.3</ele>
        <time>2020-11-17T08:28:26Z</time>
      </trkpt>
      <trkpt lat="28.6483800" lon="-17.8841450">
        <ele>608.5</ele>
        <time>2020-11-17T08:28:27Z</time>
      </trkpt>
      <trkpt lat="28.6483800" lon="-17.8841450">
        <ele>608.5</ele>
        <time>2020-11-17T08:28:28Z</time>
      </trkpt>
      <trkpt lat="28.6484100" lon="-17.8841130">
        <ele>609.0</ele>
        <time>2020-11-17T08:28:29Z</time>
      </trkpt>
      <trkpt lat="28.6484100" lon="-17.8841130">
        <ele>609.0</ele>
        <time>2020-11-17T08:28:30Z</time>
      </trkpt>
      <trkpt lat="28.6484430" lon="-17.8840870">
        <ele>609.5</ele>
        <time>2020-11-17T08:28:31Z</time>
      </trkpt>
      <trkpt lat="28.6484430" lon="-17.8840870">
        <ele>609.5</ele>
        <time>2020-11-17T08:28:32Z</time>
      </trkpt>
      <trkpt lat="28.6484720" lon="-17.8840650">
        <ele>609.9</ele>
        <time>2020-11-17T08:28:33Z</time>
      </trkpt>
      <trkpt lat="28.6484720" lon="-17.8840650">
        <ele>609.9</ele>
        <time>2020-11-17T08:28:34Z</time>
      </trkpt>
      <trkpt lat="28.6484980" lon="-17.8840470">
        <ele>610.3</ele>
        <time>2020-11-17T08:28:35Z</time>
      </trkpt>
      <trkpt lat="28.6485150" lon="-17.8840350">
        <ele>610.5</ele>
        <time>2020-11-17T08:28:36Z</time>
      </trkpt>
      <trkpt lat="28.6485150" lon="-17.8840350">
        <ele>610.5</ele>
        <time>2020-11-17T08:28:37Z</time>
      </trkpt>
      <trkpt lat="28.6485450" lon="-17.8840130">
        <ele>611.0</ele>
        <time>2020-11-17T08:28:38Z</time>
      </trkpt>
      <trkpt lat="28.6485630" lon="-17.8840030">
        <ele>611.2</ele>
        <time>2020-11-17T08:28:39Z</time>
      </trkpt>
      <trkpt lat="28.6485630" lon="-17.8840030">
        <ele>611.2</ele>
        <time>2020-11-17T08:28:40Z</time>
      </trkpt>
      <trkpt lat="28.6485930" lon="-17.8839880">
        <ele>611.6</ele>
        <time>2020-11-17T08:28:41Z</time>
      </trkpt>
      <trkpt lat="28.6485930" lon="-17.8839880">
        <ele>611.6</ele>
        <time>2020-11-17T08:28:42Z</time>
      </trkpt>
      <trkpt lat="28.6486270" lon="-17.8839700">
        <ele>612.0</ele>
        <time>2020-11-17T08:28:43Z</time>
      </trkpt>
      <trkpt lat="28.6486270" lon="-17.8839700">
        <ele>612.0</ele>
        <time>2020-11-17T08:28:44Z</time>
      </trkpt>
      <trkpt lat="28.6486630" lon="-17.8839480">
        <ele>612.5</ele>
        <time>2020-11-17T08:28:45Z</time>
      </trkpt>
      <trkpt lat="28.6486780" lon="-17.8839400">
        <ele>612.7</ele>
        <time>2020-11-17T08:28:46Z</time>
      </trkpt>
      <trkpt lat="28.6486950" lon="-17.8839300">
        <ele>612.9</ele>
        <time>2020-11-17T08:28:47Z</time>
      </trkpt>
      <trkpt lat="28.6486950" lon="-17.8839300">
        <ele>612.9</ele>
        <time>2020-11-17T08:28:48Z</time>
      </trkpt>
      <trkpt lat="28.6487320" lon="-17.8839050">
        <ele>613.4</ele>
        <time>2020-11-17T08:28:49Z</time>
      </trkpt>
      <trkpt lat="28.6487320" lon="-17.8839050">
        <ele>613.4</ele>
        <time>2020-11-17T08:28:50Z</time>
      </trkpt>
      <trkpt lat="28.6487680" lon="-17.8838830">
        <ele>613.8</ele>
        <time>2020-11-17T08:28:51Z</time>
      </trkpt>
      <trkpt lat="28.6487680" lon="-17.8838830">
        <ele>613.8</ele>
        <time>2020-11-17T08:28:52Z</time>
      </trkpt>
      <trkpt lat="28.6488000" lon="-17.8838630">
        <ele>614.2</ele>
        <time>2020-11-17T08:28:53Z</time>
      </trkpt>
      <trkpt lat="28.6488180" lon="-17.8838580">
        <ele>614.4</ele>
        <time>2020-11-17T08:28:54Z</time>
      </trkpt>
      <trkpt lat="28.6488180" lon="-17.8838580">
        <ele>614.4</ele>
        <time>2020-11-17T08:28:55Z</time>
      </trkpt>
      <trkpt lat="28.6488180" lon="-17.8838580">
        <ele>614.4</ele>
        <time>2020-11-17T08:28:56Z</time>
      </trkpt>
      <trkpt lat="28.6488730" lon="-17.8838400">
        <ele>615.0</ele>
        <time>2020-11-17T08:28:57Z</time>
      </trkpt>
      <trkpt lat="28.6488730" lon="-17.8838400">
        <ele>615.0</ele>
        <time>2020-11-17T08:28:58Z</time>
      </trkpt>
      <trkpt lat="28.6489080" lon="-17.8838250">
        <ele>615.4</ele>
        <time>2020-11-17T08:28:59Z</time>
      </trkpt>
      <trkpt lat="28.6489270" lon="-17.8838150">
        <ele>615.7</ele>
        <time>2020-11-17T08:29:00Z</time>
      </trkpt>
      <trkpt lat="28.6489270" lon="-17.8838150">
        <ele>615.7</ele>
        <time>2020-11-17T08:29:01Z</time>
      </trkpt>
      <trkpt lat="28.6489700" lon="-17.8838080">
        <ele>616.1</ele>
        <time>2020-11-17T08:29:02Z</time>
      </trkpt>
      <trkpt lat="28.6489700" lon="-17.8838080">
        <ele>616.1</ele>
        <time>2020-11-17T08:29:03Z</time>
      </trkpt>
      <trkpt lat="28.6490070" lon="-17.8837970">
        <ele>616.5</ele>
        <time>2020-11-17T08:29:04Z</time>
      </trkpt>
      <trkpt lat="28.6490070" lon="-17.8837970">
        <ele>616.5</ele>
        <time>2020-11-17T08:29:05Z</time>
      </trkpt>
      <trkpt lat="28.6490470" lon="-17.8837880">
        <ele>616.9</ele>
        <time>2020-11-17T08:29:06Z</time>
      </trkpt>
      <trkpt lat="28.6490470" lon="-17.8837880">
        <ele>616.9</ele>
        <time>2020-11-17T08:29:07Z</time>
      </trkpt>
      <trkpt lat="28.6490930" lon="-17.8837820">
        <ele>617.4</ele>
        <time>2020-11-17T08:29:08Z</time>
      </trkpt>
      <trkpt lat="28.6491180" lon="-17.8837820">
        <ele>617.6</ele>
        <time>2020-11-17T08:29:09Z</time>
      </trkpt>
      <trkpt lat="28.6491180" lon="-17.8837820">
        <ele>617.6</ele>
        <time>2020-11-17T08:29:10Z</time>
      </trkpt>
      <trkpt lat="28.6491650" lon="-17.8837720">
        <ele>618.1</ele>
        <time>2020-11-17T08:29:11Z</time>
      </trkpt>
      <trkpt lat="28.6491650" lon="-17.8837720">
        <ele>618.1</ele>
        <time>2020-11-17T08:29:12Z</time>
      </trkpt>
      <trkpt lat="28.6492080" lon="-17.8837570">
        <ele>618.5</ele>
        <time>2020-11-17T08:29:13Z</time>
      </trkpt>
      <trkpt lat="28.6492080" lon="-17.8837570">
        <ele>618.6</ele>
        <time>2020-11-17T08:29:14Z</time>
      </trkpt>
      <trkpt lat="28.6492530" lon="-17.8837530">
        <ele>618.2</ele>
        <time>2020-11-17T08:29:15Z</time>
      </trkpt>
      <trkpt lat="28.6492530" lon="-17.8837530">
        <ele>618.2</ele>
        <time>2020-11-17T08:29:16Z</time>
      </trkpt>
      <trkpt lat="28.6492970" lon="-17.8837520">
        <ele>618.4</ele>
        <time>2020-11-17T08:29:17Z</time>
      </trkpt>
      <trkpt lat="28.6492970" lon="-17.8837520">
        <ele>618.4</ele>
        <time>2020-11-17T08:29:18Z</time>
      </trkpt>
      <trkpt lat="28.6493400" lon="-17.8837550">
        <ele>618.8</ele>
        <time>2020-11-17T08:29:19Z</time>
      </trkpt>
      <trkpt lat="28.6493400" lon="-17.8837550">
        <ele>618.8</ele>
        <time>2020-11-17T08:29:20Z</time>
      </trkpt>
      <trkpt lat="28.6493830" lon="-17.8837600">
        <ele>619.1</ele>
        <time>2020-11-17T08:29:21Z</time>
      </trkpt>
      <trkpt lat="28.6494050" lon="-17.8837650">
        <ele>619.3</ele>
        <time>2020-11-17T08:29:22Z</time>
      </trkpt>
      <trkpt lat="28.6494050" lon="-17.8837650">
        <ele>619.3</ele>
        <time>2020-11-17T08:29:23Z</time>
      </trkpt>
      <trkpt lat="28.6494480" lon="-17.8837720">
        <ele>619.5</ele>
        <time>2020-11-17T08:29:24Z</time>
      </trkpt>
      <trkpt lat="28.6494480" lon="-17.8837720">
        <ele>619.5</ele>
        <time>2020-11-17T08:29:25Z</time>
      </trkpt>
      <trkpt lat="28.6494920" lon="-17.8837820">
        <ele>619.5</ele>
        <time>2020-11-17T08:29:26Z</time>
      </trkpt>
      <trkpt lat="28.6494920" lon="-17.8837820">
        <ele>619.5</ele>
        <time>2020-11-17T08:29:27Z</time>
      </trkpt>
      <trkpt lat="28.6495270" lon="-17.8837870">
        <ele>619.4</ele>
        <time>2020-11-17T08:29:28Z</time>
      </trkpt>
      <trkpt lat="28.6495270" lon="-17.8837870">
        <ele>619.4</ele>
        <time>2020-11-17T08:29:29Z</time>
      </trkpt>
      <trkpt lat="28.6495620" lon="-17.8837820">
        <ele>619.3</ele>
        <time>2020-11-17T08:29:30Z</time>
      </trkpt>
      <trkpt lat="28.6495620" lon="-17.8837820">
        <ele>619.3</ele>
        <time>2020-11-17T08:29:31Z</time>
      </trkpt>
      <trkpt lat="28.6495850" lon="-17.8837500">
        <ele>619.3</ele>
        <time>2020-11-17T08:29:32Z</time>
      </trkpt>
      <trkpt lat="28.6496030" lon="-17.8837270">
        <ele>619.2</ele>
        <time>2020-11-17T08:29:33Z</time>
      </trkpt>
      <trkpt lat="28.6496030" lon="-17.8837270">
        <ele>619.2</ele>
        <time>2020-11-17T08:29:34Z</time>
      </trkpt>
      <trkpt lat="28.6496400" lon="-17.8836980">
        <ele>619.5</ele>
        <time>2020-11-17T08:29:35Z</time>
      </trkpt>
      <trkpt lat="28.6496600" lon="-17.8836850">
        <ele>619.6</ele>
        <time>2020-11-17T08:29:36Z</time>
      </trkpt>
      <trkpt lat="28.6496600" lon="-17.8836850">
        <ele>619.6</ele>
        <time>2020-11-17T08:29:37Z</time>
      </trkpt>
      <trkpt lat="28.6497030" lon="-17.8836530">
        <ele>619.9</ele>
        <time>2020-11-17T08:29:38Z</time>
      </trkpt>
      <trkpt lat="28.6497030" lon="-17.8836530">
        <ele>619.9</ele>
        <time>2020-11-17T08:29:39Z</time>
      </trkpt>
      <trkpt lat="28.6497030" lon="-17.8836530">
        <ele>619.9</ele>
        <time>2020-11-17T08:29:40Z</time>
      </trkpt>
      <trkpt lat="28.6497630" lon="-17.8836080">
        <ele>620.5</ele>
        <time>2020-11-17T08:29:41Z</time>
      </trkpt>
      <trkpt lat="28.6497630" lon="-17.8836080">
        <ele>620.5</ele>
        <time>2020-11-17T08:29:42Z</time>
      </trkpt>
      <trkpt lat="28.6498030" lon="-17.8835880">
        <ele>620.9</ele>
        <time>2020-11-17T08:29:43Z</time>
      </trkpt>
      <trkpt lat="28.6498230" lon="-17.8835750">
        <ele>621.1</ele>
        <time>2020-11-17T08:29:44Z</time>
      </trkpt>
      <trkpt lat="28.6498230" lon="-17.8835750">
        <ele>621.1</ele>
        <time>2020-11-17T08:29:45Z</time>
      </trkpt>
      <trkpt lat="28.6498650" lon="-17.8835520">
        <ele>621.5</ele>
        <time>2020-11-17T08:29:46Z</time>
      </trkpt>
      <trkpt lat="28.6498870" lon="-17.8835420">
        <ele>621.8</ele>
        <time>2020-11-17T08:29:47Z</time>
      </trkpt>
      <trkpt lat="28.6498870" lon="-17.8835420">
        <ele>621.8</ele>
        <time>2020-11-17T08:29:48Z</time>
      </trkpt>
      <trkpt lat="28.6499300" lon="-17.8835200">
        <ele>622.3</ele>
        <time>2020-11-17T08:29:49Z</time>
      </trkpt>
      <trkpt lat="28.6499300" lon="-17.8835200">
        <ele>622.3</ele>
        <time>2020-11-17T08:29:50Z</time>
      </trkpt>
      <trkpt lat="28.6499780" lon="-17.8835020">
        <ele>622.8</ele>
        <time>2020-11-17T08:29:51Z</time>
      </trkpt>
      <trkpt lat="28.6499780" lon="-17.8835020">
        <ele>622.8</ele>
        <time>2020-11-17T08:29:52Z</time>
      </trkpt>
      <trkpt lat="28.6500280" lon="-17.8834820">
        <ele>623.4</ele>
        <time>2020-11-17T08:29:53Z</time>
      </trkpt>
      <trkpt lat="28.6500280" lon="-17.8834820">
        <ele>623.4</ele>
        <time>2020-11-17T08:29:54Z</time>
      </trkpt>
      <trkpt lat="28.6500730" lon="-17.8834650">
        <ele>623.9</ele>
        <time>2020-11-17T08:29:55Z</time>
      </trkpt>
      <trkpt lat="28.6500730" lon="-17.8834650">
        <ele>623.9</ele>
        <time>2020-11-17T08:29:56Z</time>
      </trkpt>
      <trkpt lat="28.6501150" lon="-17.8834600">
        <ele>624.4</ele>
        <time>2020-11-17T08:29:57Z</time>
      </trkpt>
      <trkpt lat="28.6501370" lon="-17.8834550">
        <ele>624.7</ele>
        <time>2020-11-17T08:29:58Z</time>
      </trkpt>
      <trkpt lat="28.6501370" lon="-17.8834550">
        <ele>624.7</ele>
        <time>2020-11-17T08:29:59Z</time>
      </trkpt>
      <trkpt lat="28.6501730" lon="-17.8834500">
        <ele>625.1</ele>
        <time>2020-11-17T08:30:00Z</time>
      </trkpt>
      <trkpt lat="28.6501730" lon="-17.8834500">
        <ele>625.1</ele>
        <time>2020-11-17T08:30:01Z</time>
      </trkpt>
      <trkpt lat="28.6501980" lon="-17.8834350">
        <ele>625.4</ele>
        <time>2020-11-17T08:30:02Z</time>
      </trkpt>
      <trkpt lat="28.6501980" lon="-17.8834350">
        <ele>625.4</ele>
        <time>2020-11-17T08:30:03Z</time>
      </trkpt>
      <trkpt lat="28.6502220" lon="-17.8833930">
        <ele>625.5</ele>
        <time>2020-11-17T08:30:04Z</time>
      </trkpt>
      <trkpt lat="28.6502220" lon="-17.8833930">
        <ele>625.5</ele>
        <time>2020-11-17T08:30:05Z</time>
      </trkpt>
      <trkpt lat="28.6502470" lon="-17.8833570">
        <ele>625.9</ele>
        <time>2020-11-17T08:30:06Z</time>
      </trkpt>
      <trkpt lat="28.6502620" lon="-17.8833400">
        <ele>626.2</ele>
        <time>2020-11-17T08:30:07Z</time>
      </trkpt>
      <trkpt lat="28.6502620" lon="-17.8833400">
        <ele>626.2</ele>
        <time>2020-11-17T08:30:08Z</time>
      </trkpt>
      <trkpt lat="28.6502850" lon="-17.8833050">
        <ele>626.7</ele>
        <time>2020-11-17T08:30:09Z</time>
      </trkpt>
      <trkpt lat="28.6502930" lon="-17.8832870">
        <ele>627.0</ele>
        <time>2020-11-17T08:30:10Z</time>
      </trkpt>
      <trkpt lat="28.6502930" lon="-17.8832870">
        <ele>627.0</ele>
        <time>2020-11-17T08:30:11Z</time>
      </trkpt>
      <trkpt lat="28.6503070" lon="-17.8832550">
        <ele>627.5</ele>
        <time>2020-11-17T08:30:12Z</time>
      </trkpt>
      <trkpt lat="28.6503070" lon="-17.8832550">
        <ele>627.5</ele>
        <time>2020-11-17T08:30:13Z</time>
      </trkpt>
      <trkpt lat="28.6503220" lon="-17.8832230">
        <ele>628.0</ele>
        <time>2020-11-17T08:30:14Z</time>
      </trkpt>
      <trkpt lat="28.6503220" lon="-17.8832230">
        <ele>628.0</ele>
        <time>2020-11-17T08:30:15Z</time>
      </trkpt>
      <trkpt lat="28.6503330" lon="-17.8831930">
        <ele>628.5</ele>
        <time>2020-11-17T08:30:16Z</time>
      </trkpt>
      <trkpt lat="28.6503330" lon="-17.8831930">
        <ele>628.5</ele>
        <time>2020-11-17T08:30:17Z</time>
      </trkpt>
      <trkpt lat="28.6503470" lon="-17.8831670">
        <ele>629.0</ele>
        <time>2020-11-17T08:30:18Z</time>
      </trkpt>
      <trkpt lat="28.6503530" lon="-17.8831530">
        <ele>629.3</ele>
        <time>2020-11-17T08:30:19Z</time>
      </trkpt>
      <trkpt lat="28.6503530" lon="-17.8831530">
        <ele>629.3</ele>
        <time>2020-11-17T08:30:20Z</time>
      </trkpt>
      <trkpt lat="28.6503670" lon="-17.8831270">
        <ele>629.8</ele>
        <time>2020-11-17T08:30:21Z</time>
      </trkpt>
      <trkpt lat="28.6503670" lon="-17.8831270">
        <ele>629.8</ele>
        <time>2020-11-17T08:30:22Z</time>
      </trkpt>
      <trkpt lat="28.6503670" lon="-17.8831270">
        <ele>629.8</ele>
        <time>2020-11-17T08:30:23Z</time>
      </trkpt>
      <trkpt lat="28.6503800" lon="-17.8830970">
        <ele>630.4</ele>
        <time>2020-11-17T08:30:24Z</time>
      </trkpt>
      <trkpt lat="28.6503980" lon="-17.8830720">
        <ele>630.9</ele>
        <time>2020-11-17T08:30:25Z</time>
      </trkpt>
      <trkpt lat="28.6503980" lon="-17.8830720">
        <ele>630.9</ele>
        <time>2020-11-17T08:30:26Z</time>
      </trkpt>
      <trkpt lat="28.6504080" lon="-17.8830400">
        <ele>631.4</ele>
        <time>2020-11-17T08:30:27Z</time>
      </trkpt>
      <trkpt lat="28.6504080" lon="-17.8830400">
        <ele>631.4</ele>
        <time>2020-11-17T08:30:28Z</time>
      </trkpt>
      <trkpt lat="28.6504220" lon="-17.8830100">
        <ele>632.0</ele>
        <time>2020-11-17T08:30:29Z</time>
      </trkpt>
      <trkpt lat="28.6504220" lon="-17.8830100">
        <ele>632.0</ele>
        <time>2020-11-17T08:30:30Z</time>
      </trkpt>
      <trkpt lat="28.6504420" lon="-17.8829770">
        <ele>632.5</ele>
        <time>2020-11-17T08:30:31Z</time>
      </trkpt>
      <trkpt lat="28.6504500" lon="-17.8829600">
        <ele>632.8</ele>
        <time>2020-11-17T08:30:32Z</time>
      </trkpt>
      <trkpt lat="28.6504620" lon="-17.8829400">
        <ele>633.1</ele>
        <time>2020-11-17T08:30:33Z</time>
      </trkpt>
      <trkpt lat="28.6504620" lon="-17.8829400">
        <ele>633.1</ele>
        <time>2020-11-17T08:30:34Z</time>
      </trkpt>
      <trkpt lat="28.6504750" lon="-17.8829030">
        <ele>633.6</ele>
        <time>2020-11-17T08:30:35Z</time>
      </trkpt>
      <trkpt lat="28.6504750" lon="-17.8829030">
        <ele>633.6</ele>
        <time>2020-11-17T08:30:36Z</time>
      </trkpt>
      <trkpt lat="28.6504850" lon="-17.8828670">
        <ele>634.1</ele>
        <time>2020-11-17T08:30:37Z</time>
      </trkpt>
      <trkpt lat="28.6504850" lon="-17.8828670">
        <ele>634.1</ele>
        <time>2020-11-17T08:30:38Z</time>
      </trkpt>
      <trkpt lat="28.6504980" lon="-17.8828330">
        <ele>634.5</ele>
        <time>2020-11-17T08:30:39Z</time>
      </trkpt>
      <trkpt lat="28.6504980" lon="-17.8828330">
        <ele>634.5</ele>
        <time>2020-11-17T08:30:40Z</time>
      </trkpt>
      <trkpt lat="28.6505070" lon="-17.8827930">
        <ele>635.0</ele>
        <time>2020-11-17T08:30:41Z</time>
      </trkpt>
      <trkpt lat="28.6505070" lon="-17.8827930">
        <ele>635.0</ele>
        <time>2020-11-17T08:30:42Z</time>
      </trkpt>
      <trkpt lat="28.6505200" lon="-17.8827570">
        <ele>635.4</ele>
        <time>2020-11-17T08:30:43Z</time>
      </trkpt>
      <trkpt lat="28.6505270" lon="-17.8827420">
        <ele>635.6</ele>
        <time>2020-11-17T08:30:44Z</time>
      </trkpt>
      <trkpt lat="28.6505270" lon="-17.8827420">
        <ele>635.6</ele>
        <time>2020-11-17T08:30:45Z</time>
      </trkpt>
      <trkpt lat="28.6505350" lon="-17.8827100">
        <ele>636.0</ele>
        <time>2020-11-17T08:30:46Z</time>
      </trkpt>
      <trkpt lat="28.6505400" lon="-17.8826950">
        <ele>636.1</ele>
        <time>2020-11-17T08:30:47Z</time>
      </trkpt>
      <trkpt lat="28.6505450" lon="-17.8826780">
        <ele>636.3</ele>
        <time>2020-11-17T08:30:48Z</time>
      </trkpt>
      <trkpt lat="28.6505450" lon="-17.8826780">
        <ele>636.3</ele>
        <time>2020-11-17T08:30:49Z</time>
      </trkpt>
      <trkpt lat="28.6505570" lon="-17.8826480">
        <ele>636.5</ele>
        <time>2020-11-17T08:30:50Z</time>
      </trkpt>
      <trkpt lat="28.6505630" lon="-17.8826300">
        <ele>636.7</ele>
        <time>2020-11-17T08:30:51Z</time>
      </trkpt>
      <trkpt lat="28.6505630" lon="-17.8826300">
        <ele>636.7</ele>
        <time>2020-11-17T08:30:52Z</time>
      </trkpt>
      <trkpt lat="28.6505750" lon="-17.8825970">
        <ele>637.0</ele>
        <time>2020-11-17T08:30:53Z</time>
      </trkpt>
      <trkpt lat="28.6505750" lon="-17.8825970">
        <ele>637.0</ele>
        <time>2020-11-17T08:30:54Z</time>
      </trkpt>
      <trkpt lat="28.6505920" lon="-17.8825650">
        <ele>637.3</ele>
        <time>2020-11-17T08:30:55Z</time>
      </trkpt>
      <trkpt lat="28.6505920" lon="-17.8825650">
        <ele>637.3</ele>
        <time>2020-11-17T08:30:56Z</time>
      </trkpt>
      <trkpt lat="28.6506030" lon="-17.8825320">
        <ele>637.6</ele>
        <time>2020-11-17T08:30:57Z</time>
      </trkpt>
      <trkpt lat="28.6506030" lon="-17.8825320">
        <ele>637.6</ele>
        <time>2020-11-17T08:30:58Z</time>
      </trkpt>
      <trkpt lat="28.6506100" lon="-17.8825030">
        <ele>637.8</ele>
        <time>2020-11-17T08:30:59Z</time>
      </trkpt>
      <trkpt lat="28.6506100" lon="-17.8825030">
        <ele>637.8</ele>
        <time>2020-11-17T08:31:00Z</time>
      </trkpt>
      <trkpt lat="28.6506220" lon="-17.8824750">
        <ele>638.1</ele>
        <time>2020-11-17T08:31:01Z</time>
      </trkpt>
      <trkpt lat="28.6506220" lon="-17.8824750">
        <ele>638.1</ele>
        <time>2020-11-17T08:31:02Z</time>
      </trkpt>
      <trkpt lat="28.6506430" lon="-17.8824520">
        <ele>638.4</ele>
        <time>2020-11-17T08:31:03Z</time>
      </trkpt>
      <trkpt lat="28.6506430" lon="-17.8824520">
        <ele>638.4</ele>
        <time>2020-11-17T08:31:04Z</time>
      </trkpt>
      <trkpt lat="28.6506630" lon="-17.8824270">
        <ele>638.6</ele>
        <time>2020-11-17T08:31:05Z</time>
      </trkpt>
      <trkpt lat="28.6506730" lon="-17.8824120">
        <ele>638.8</ele>
        <time>2020-11-17T08:31:06Z</time>
      </trkpt>
      <trkpt lat="28.6506830" lon="-17.8823950">
        <ele>639.0</ele>
        <time>2020-11-17T08:31:07Z</time>
      </trkpt>
      <trkpt lat="28.6506830" lon="-17.8823950">
        <ele>639.0</ele>
        <time>2020-11-17T08:31:08Z</time>
      </trkpt>
      <trkpt lat="28.6507030" lon="-17.8823650">
        <ele>639.2</ele>
        <time>2020-11-17T08:31:09Z</time>
      </trkpt>
      <trkpt lat="28.6507030" lon="-17.8823650">
        <ele>639.2</ele>
        <time>2020-11-17T08:31:10Z</time>
      </trkpt>
      <trkpt lat="28.6507170" lon="-17.8823380">
        <ele>639.5</ele>
        <time>2020-11-17T08:31:11Z</time>
      </trkpt>
      <trkpt lat="28.6507170" lon="-17.8823380">
        <ele>639.5</ele>
        <time>2020-11-17T08:31:12Z</time>
      </trkpt>
      <trkpt lat="28.6507200" lon="-17.8823050">
        <ele>639.7</ele>
        <time>2020-11-17T08:31:13Z</time>
      </trkpt>
      <trkpt lat="28.6507200" lon="-17.8823050">
        <ele>639.7</ele>
        <time>2020-11-17T08:31:14Z</time>
      </trkpt>
      <trkpt lat="28.6507230" lon="-17.8822670">
        <ele>640.0</ele>
        <time>2020-11-17T08:31:15Z</time>
      </trkpt>
      <trkpt lat="28.6507230" lon="-17.8822470">
        <ele>640.1</ele>
        <time>2020-11-17T08:31:16Z</time>
      </trkpt>
      <trkpt lat="28.6507230" lon="-17.8822470">
        <ele>640.1</ele>
        <time>2020-11-17T08:31:17Z</time>
      </trkpt>
      <trkpt lat="28.6507230" lon="-17.8822080">
        <ele>640.4</ele>
        <time>2020-11-17T08:31:18Z</time>
      </trkpt>
      <trkpt lat="28.6507230" lon="-17.8822080">
        <ele>640.4</ele>
        <time>2020-11-17T08:31:19Z</time>
      </trkpt>
      <trkpt lat="28.6507280" lon="-17.8821780">
        <ele>640.6</ele>
        <time>2020-11-17T08:31:20Z</time>
      </trkpt>
      <trkpt lat="28.6507280" lon="-17.8821780">
        <ele>640.6</ele>
        <time>2020-11-17T08:31:21Z</time>
      </trkpt>
      <trkpt lat="28.6507400" lon="-17.8821430">
        <ele>640.9</ele>
        <time>2020-11-17T08:31:22Z</time>
      </trkpt>
      <trkpt lat="28.6507470" lon="-17.8821250">
        <ele>641.0</ele>
        <time>2020-11-17T08:31:23Z</time>
      </trkpt>
      <trkpt lat="28.6507470" lon="-17.8821250">
        <ele>641.0</ele>
        <time>2020-11-17T08:31:24Z</time>
      </trkpt>
      <trkpt lat="28.6507500" lon="-17.8820900">
        <ele>641.2</ele>
        <time>2020-11-17T08:31:25Z</time>
      </trkpt>
      <trkpt lat="28.6507480" lon="-17.8820700">
        <ele>641.3</ele>
        <time>2020-11-17T08:31:26Z</time>
      </trkpt>
      <trkpt lat="28.6507480" lon="-17.8820700">
        <ele>641.3</ele>
        <time>2020-11-17T08:31:27Z</time>
      </trkpt>
      <trkpt lat="28.6507480" lon="-17.8820700">
        <ele>641.3</ele>
        <time>2020-11-17T08:31:28Z</time>
      </trkpt>
      <trkpt lat="28.6507570" lon="-17.8820030">
        <ele>641.7</ele>
        <time>2020-11-17T08:31:29Z</time>
      </trkpt>
      <trkpt lat="28.6507570" lon="-17.8820030">
        <ele>641.7</ele>
        <time>2020-11-17T08:31:30Z</time>
      </trkpt>
      <trkpt lat="28.6507520" lon="-17.8819420">
        <ele>641.9</ele>
        <time>2020-11-17T08:31:31Z</time>
      </trkpt>
      <trkpt lat="28.6507520" lon="-17.8819420">
        <ele>641.9</ele>
        <time>2020-11-17T08:31:32Z</time>
      </trkpt>
      <trkpt lat="28.6507530" lon="-17.8818980">
        <ele>642.1</ele>
        <time>2020-11-17T08:31:33Z</time>
      </trkpt>
      <trkpt lat="28.6507570" lon="-17.8818820">
        <ele>642.1</ele>
        <time>2020-11-17T08:31:34Z</time>
      </trkpt>
      <trkpt lat="28.6507580" lon="-17.8818630">
        <ele>642.2</ele>
        <time>2020-11-17T08:31:35Z</time>
      </trkpt>
      <trkpt lat="28.6507580" lon="-17.8818630">
        <ele>642.2</ele>
        <time>2020-11-17T08:31:36Z</time>
      </trkpt>
      <trkpt lat="28.6507620" lon="-17.8818180">
        <ele>642.3</ele>
        <time>2020-11-17T08:31:37Z</time>
      </trkpt>
      <trkpt lat="28.6507620" lon="-17.8817980">
        <ele>642.4</ele>
        <time>2020-11-17T08:31:38Z</time>
      </trkpt>
      <trkpt lat="28.6507620" lon="-17.8817980">
        <ele>642.4</ele>
        <time>2020-11-17T08:31:39Z</time>
      </trkpt>
      <trkpt lat="28.6507620" lon="-17.8817730">
        <ele>642.5</ele>
        <time>2020-11-17T08:31:40Z</time>
      </trkpt>
      <trkpt lat="28.6507620" lon="-17.8817620">
        <ele>642.5</ele>
        <time>2020-11-17T08:31:41Z</time>
      </trkpt>
      <trkpt lat="28.6507600" lon="-17.8817480">
        <ele>642.5</ele>
        <time>2020-11-17T08:31:42Z</time>
      </trkpt>
      <trkpt lat="28.6507600" lon="-17.8817480">
        <ele>642.5</ele>
        <time>2020-11-17T08:31:43Z</time>
      </trkpt>
      <trkpt lat="28.6507530" lon="-17.8817230">
        <ele>642.6</ele>
        <time>2020-11-17T08:31:44Z</time>
      </trkpt>
      <trkpt lat="28.6507530" lon="-17.8817230">
        <ele>642.6</ele>
        <time>2020-11-17T08:31:45Z</time>
      </trkpt>
      <trkpt lat="28.6507530" lon="-17.8817230">
        <ele>642.6</ele>
        <time>2020-11-17T08:31:46Z</time>
      </trkpt>
      <trkpt lat="28.6507570" lon="-17.8817020">
        <ele>642.7</ele>
        <time>2020-11-17T08:31:47Z</time>
      </trkpt>
      <trkpt lat="28.6507570" lon="-17.8817020">
        <ele>642.7</ele>
        <time>2020-11-17T08:31:48Z</time>
      </trkpt>
      <trkpt lat="28.6507420" lon="-17.8816670">
        <ele>642.9</ele>
        <time>2020-11-17T08:31:49Z</time>
      </trkpt>
      <trkpt lat="28.6507230" lon="-17.8816350">
        <ele>643.1</ele>
        <time>2020-11-17T08:31:50Z</time>
      </trkpt>
      <trkpt lat="28.6507230" lon="-17.8816350">
        <ele>643.1</ele>
        <time>2020-11-17T08:31:51Z</time>
      </trkpt>
      <trkpt lat="28.6507050" lon="-17.8816000">
        <ele>643.3</ele>
        <time>2020-11-17T08:31:52Z</time>
      </trkpt>
      <trkpt lat="28.6506880" lon="-17.8815830">
        <ele>643.5</ele>
        <time>2020-11-17T08:31:53Z</time>
      </trkpt>
      <trkpt lat="28.6506880" lon="-17.8815830">
        <ele>643.5</ele>
        <time>2020-11-17T08:31:54Z</time>
      </trkpt>
      <trkpt lat="28.6506620" lon="-17.8815400">
        <ele>643.8</ele>
        <time>2020-11-17T08:31:55Z</time>
      </trkpt>
      <trkpt lat="28.6506620" lon="-17.8815400">
        <ele>643.8</ele>
        <time>2020-11-17T08:31:56Z</time>
      </trkpt>
      <trkpt lat="28.6506370" lon="-17.8815000">
        <ele>644.1</ele>
        <time>2020-11-17T08:31:57Z</time>
      </trkpt>
      <trkpt lat="28.6506370" lon="-17.8815000">
        <ele>644.1</ele>
        <time>2020-11-17T08:31:58Z</time>
      </trkpt>
      <trkpt lat="28.6506200" lon="-17.8814630">
        <ele>644.4</ele>
        <time>2020-11-17T08:31:59Z</time>
      </trkpt>
      <trkpt lat="28.6506200" lon="-17.8814630">
        <ele>644.4</ele>
        <time>2020-11-17T08:32:00Z</time>
      </trkpt>
      <trkpt lat="28.6506050" lon="-17.8814270">
        <ele>644.6</ele>
        <time>2020-11-17T08:32:01Z</time>
      </trkpt>
      <trkpt lat="28.6506050" lon="-17.8814270">
        <ele>644.6</ele>
        <time>2020-11-17T08:32:02Z</time>
      </trkpt>
      <trkpt lat="28.6505880" lon="-17.8813820">
        <ele>644.9</ele>
        <time>2020-11-17T08:32:03Z</time>
      </trkpt>
      <trkpt lat="28.6505880" lon="-17.8813820">
        <ele>644.9</ele>
        <time>2020-11-17T08:32:04Z</time>
      </trkpt>
      <trkpt lat="28.6505750" lon="-17.8813350">
        <ele>645.2</ele>
        <time>2020-11-17T08:32:05Z</time>
      </trkpt>
      <trkpt lat="28.6505750" lon="-17.8813350">
        <ele>645.2</ele>
        <time>2020-11-17T08:32:06Z</time>
      </trkpt>
      <trkpt lat="28.6505600" lon="-17.8812880">
        <ele>645.5</ele>
        <time>2020-11-17T08:32:07Z</time>
      </trkpt>
      <trkpt lat="28.6505570" lon="-17.8812630">
        <ele>645.6</ele>
        <time>2020-11-17T08:32:08Z</time>
      </trkpt>
      <trkpt lat="28.6505570" lon="-17.8812630">
        <ele>645.6</ele>
        <time>2020-11-17T08:32:09Z</time>
      </trkpt>
      <trkpt lat="28.6505400" lon="-17.8812170">
        <ele>646.0</ele>
        <time>2020-11-17T08:32:10Z</time>
      </trkpt>
      <trkpt lat="28.6505400" lon="-17.8812170">
        <ele>646.0</ele>
        <time>2020-11-17T08:32:11Z</time>
      </trkpt>
      <trkpt lat="28.6505400" lon="-17.8812170">
        <ele>646.0</ele>
        <time>2020-11-17T08:32:12Z</time>
      </trkpt>
      <trkpt lat="28.6505270" lon="-17.8811720">
        <ele>646.3</ele>
        <time>2020-11-17T08:32:13Z</time>
      </trkpt>
      <trkpt lat="28.6505050" lon="-17.8811280">
        <ele>646.6</ele>
        <time>2020-11-17T08:32:14Z</time>
      </trkpt>
      <trkpt lat="28.6505050" lon="-17.8811280">
        <ele>646.6</ele>
        <time>2020-11-17T08:32:15Z</time>
      </trkpt>
      <trkpt lat="28.6504820" lon="-17.8810830">
        <ele>646.9</ele>
        <time>2020-11-17T08:32:16Z</time>
      </trkpt>
      <trkpt lat="28.6504820" lon="-17.8810830">
        <ele>646.9</ele>
        <time>2020-11-17T08:32:17Z</time>
      </trkpt>
      <trkpt lat="28.6504820" lon="-17.8810830">
        <ele>646.9</ele>
        <time>2020-11-17T08:32:18Z</time>
      </trkpt>
      <trkpt lat="28.6504750" lon="-17.8810350">
        <ele>647.2</ele>
        <time>2020-11-17T08:32:19Z</time>
      </trkpt>
      <trkpt lat="28.6504550" lon="-17.8809930">
        <ele>647.5</ele>
        <time>2020-11-17T08:32:20Z</time>
      </trkpt>
      <trkpt lat="28.6504550" lon="-17.8809930">
        <ele>647.5</ele>
        <time>2020-11-17T08:32:21Z</time>
      </trkpt>
      <trkpt lat="28.6504370" lon="-17.8809550">
        <ele>647.7</ele>
        <time>2020-11-17T08:32:22Z</time>
      </trkpt>
      <trkpt lat="28.6504370" lon="-17.8809550">
        <ele>647.7</ele>
        <time>2020-11-17T08:32:23Z</time>
      </trkpt>
      <trkpt lat="28.6504230" lon="-17.8809100">
        <ele>648.0</ele>
        <time>2020-11-17T08:32:24Z</time>
      </trkpt>
      <trkpt lat="28.6504150" lon="-17.8808920">
        <ele>648.2</ele>
        <time>2020-11-17T08:32:25Z</time>
      </trkpt>
      <trkpt lat="28.6504150" lon="-17.8808920">
        <ele>648.2</ele>
        <time>2020-11-17T08:32:26Z</time>
      </trkpt>
      <trkpt lat="28.6504000" lon="-17.8808480">
        <ele>648.4</ele>
        <time>2020-11-17T08:32:27Z</time>
      </trkpt>
      <trkpt lat="28.6503980" lon="-17.8808250">
        <ele>648.6</ele>
        <time>2020-11-17T08:32:28Z</time>
      </trkpt>
      <trkpt lat="28.6503980" lon="-17.8808250">
        <ele>648.6</ele>
        <time>2020-11-17T08:32:29Z</time>
      </trkpt>
      <trkpt lat="28.6503830" lon="-17.8807920">
        <ele>648.8</ele>
        <time>2020-11-17T08:32:30Z</time>
      </trkpt>
      <trkpt lat="28.6503830" lon="-17.8807920">
        <ele>648.8</ele>
        <time>2020-11-17T08:32:31Z</time>
      </trkpt>
      <trkpt lat="28.6503630" lon="-17.8807630">
        <ele>649.0</ele>
        <time>2020-11-17T08:32:32Z</time>
      </trkpt>
      <trkpt lat="28.6503630" lon="-17.8807630">
        <ele>649.0</ele>
        <time>2020-11-17T08:32:33Z</time>
      </trkpt>
      <trkpt lat="28.6503500" lon="-17.8807370">
        <ele>649.1</ele>
        <time>2020-11-17T08:32:34Z</time>
      </trkpt>
      <trkpt lat="28.6503500" lon="-17.8807370">
        <ele>649.1</ele>
        <time>2020-11-17T08:32:35Z</time>
      </trkpt>
      <trkpt lat="28.6503400" lon="-17.8807120">
        <ele>649.3</ele>
        <time>2020-11-17T08:32:36Z</time>
      </trkpt>
      <trkpt lat="28.6503400" lon="-17.8807120">
        <ele>649.3</ele>
        <time>2020-11-17T08:32:37Z</time>
      </trkpt>
      <trkpt lat="28.6503270" lon="-17.8806820">
        <ele>649.4</ele>
        <time>2020-11-17T08:32:38Z</time>
      </trkpt>
      <trkpt lat="28.6503270" lon="-17.8806820">
        <ele>649.4</ele>
        <time>2020-11-17T08:32:39Z</time>
      </trkpt>
      <trkpt lat="28.6503150" lon="-17.8806430">
        <ele>649.6</ele>
        <time>2020-11-17T08:32:40Z</time>
      </trkpt>
      <trkpt lat="28.6503200" lon="-17.8806180">
        <ele>649.7</ele>
        <time>2020-11-17T08:32:41Z</time>
      </trkpt>
      <trkpt lat="28.6503400" lon="-17.8806000">
        <ele>649.6</ele>
        <time>2020-11-17T08:32:42Z</time>
      </trkpt>
      <trkpt lat="28.6503400" lon="-17.8806000">
        <ele>649.6</ele>
        <time>2020-11-17T08:32:43Z</time>
      </trkpt>
      <trkpt lat="28.6503820" lon="-17.8806300">
        <ele>649.4</ele>
        <time>2020-11-17T08:32:44Z</time>
      </trkpt>
      <trkpt lat="28.6503820" lon="-17.8806300">
        <ele>649.4</ele>
        <time>2020-11-17T08:32:45Z</time>
      </trkpt>
      <trkpt lat="28.6504130" lon="-17.8806770">
        <ele>649.2</ele>
        <time>2020-11-17T08:32:46Z</time>
      </trkpt>
      <trkpt lat="28.6504230" lon="-17.8806980">
        <ele>649.1</ele>
        <time>2020-11-17T08:32:47Z</time>
      </trkpt>
      <trkpt lat="28.6504230" lon="-17.8806980">
        <ele>649.1</ele>
        <time>2020-11-17T08:32:48Z</time>
      </trkpt>
      <trkpt lat="28.6504520" lon="-17.8807350">
        <ele>648.9</ele>
        <time>2020-11-17T08:32:49Z</time>
      </trkpt>
      <trkpt lat="28.6504520" lon="-17.8807350">
        <ele>648.9</ele>
        <time>2020-11-17T08:32:50Z</time>
      </trkpt>
      <trkpt lat="28.6504930" lon="-17.8807830">
        <ele>648.6</ele>
        <time>2020-11-17T08:32:51Z</time>
      </trkpt>
      <trkpt lat="28.6504930" lon="-17.8807830">
        <ele>648.6</ele>
        <time>2020-11-17T08:32:52Z</time>
      </trkpt>
      <trkpt lat="28.6505330" lon="-17.8808470">
        <ele>648.2</ele>
        <time>2020-11-17T08:32:53Z</time>
      </trkpt>
      <trkpt lat="28.6505570" lon="-17.8808750">
        <ele>648.0</ele>
        <time>2020-11-17T08:32:54Z</time>
      </trkpt>
      <trkpt lat="28.6505570" lon="-17.8808750">
        <ele>648.0</ele>
        <time>2020-11-17T08:32:55Z</time>
      </trkpt>
      <trkpt lat="28.6506030" lon="-17.8809050">
        <ele>647.7</ele>
        <time>2020-11-17T08:32:56Z</time>
      </trkpt>
      <trkpt lat="28.6506030" lon="-17.8809050">
        <ele>647.7</ele>
        <time>2020-11-17T08:32:57Z</time>
      </trkpt>
      <trkpt lat="28.6506370" lon="-17.8809020">
        <ele>647.6</ele>
        <time>2020-11-17T08:32:58Z</time>
      </trkpt>
      <trkpt lat="28.6506370" lon="-17.8809020">
        <ele>647.6</ele>
        <time>2020-11-17T08:32:59Z</time>
      </trkpt>
      <trkpt lat="28.6506480" lon="-17.8809030">
        <ele>647.5</ele>
        <time>2020-11-17T08:33:00Z</time>
      </trkpt>
      <trkpt lat="28.6506480" lon="-17.8809030">
        <ele>647.5</ele>
        <time>2020-11-17T08:33:01Z</time>
      </trkpt>
      <trkpt lat="28.6506480" lon="-17.8809030">
        <ele>647.5</ele>
        <time>2020-11-17T08:42:59Z</time>
      </trkpt>
      <trkpt lat="28.6504670" lon="-17.8807670">
        <ele>648.3</ele>
        <time>2020-11-17T08:43:00Z</time>
      </trkpt>
      <trkpt lat="28.6504730" lon="-17.8807670">
        <ele>648.3</ele>
        <time>2020-11-17T08:43:01Z</time>
      </trkpt>
      <trkpt lat="28.6504770" lon="-17.8807700">
        <ele>648.3</ele>
        <time>2020-11-17T08:43:02Z</time>
      </trkpt>
      <trkpt lat="28.6504770" lon="-17.8807700">
        <ele>648.3</ele>
        <time>2020-11-17T08:43:03Z</time>
      </trkpt>
      <trkpt lat="28.6504770" lon="-17.8807670">
        <ele>648.3</ele>
        <time>2020-11-17T08:43:04Z</time>
      </trkpt>
      <trkpt lat="28.6504770" lon="-17.8807670">
        <ele>648.3</ele>
        <time>2020-11-17T08:43:11Z</time>
      </trkpt>
      <trkpt lat="28.6504670" lon="-17.8807570">
        <ele>648.4</ele>
        <time>2020-11-17T08:43:12Z</time>
      </trkpt>
      <trkpt lat="28.6504730" lon="-17.8807680">
        <ele>648.4</ele>
        <time>2020-11-17T08:43:13Z</time>
      </trkpt>
      <trkpt lat="28.6504730" lon="-17.8807680">
        <ele>648.4</ele>
        <time>2020-11-17T08:43:14Z</time>
      </trkpt>
      <trkpt lat="28.6504770" lon="-17.8807680">
        <ele>648.4</ele>
        <time>2020-11-17T08:43:15Z</time>
      </trkpt>
      <trkpt lat="28.6504770" lon="-17.8807680">
        <ele>648.4</ele>
        <time>2020-11-17T08:43:16Z</time>
      </trkpt>
      <trkpt lat="28.6504770" lon="-17.8807680">
        <ele>648.4</ele>
        <time>2020-11-17T08:43:41Z</time>
      </trkpt>
      <trkpt lat="28.6504400" lon="-17.8808070">
        <ele>648.6</ele>
        <time>2020-11-17T08:43:42Z</time>
      </trkpt>
      <trkpt lat="28.6504400" lon="-17.8808070">
        <ele>648.6</ele>
        <time>2020-11-17T08:43:43Z</time>
      </trkpt>
      <trkpt lat="28.6503870" lon="-17.8807930">
        <ele>648.8</ele>
        <time>2020-11-17T08:43:44Z</time>
      </trkpt>
      <trkpt lat="28.6503630" lon="-17.8807770">
        <ele>648.9</ele>
        <time>2020-11-17T08:43:45Z</time>
      </trkpt>
      <trkpt lat="28.6503630" lon="-17.8807770">
        <ele>648.9</ele>
        <time>2020-11-17T08:43:46Z</time>
      </trkpt>
      <trkpt lat="28.6503330" lon="-17.8807330">
        <ele>649.2</ele>
        <time>2020-11-17T08:43:47Z</time>
      </trkpt>
      <trkpt lat="28.6503230" lon="-17.8807100">
        <ele>649.3</ele>
        <time>2020-11-17T08:43:48Z</time>
      </trkpt>
      <trkpt lat="28.6503230" lon="-17.8807100">
        <ele>649.3</ele>
        <time>2020-11-17T08:43:49Z</time>
      </trkpt>
      <trkpt lat="28.6503050" lon="-17.8806620">
        <ele>649.6</ele>
        <time>2020-11-17T08:43:50Z</time>
      </trkpt>
      <trkpt lat="28.6503000" lon="-17.8806370">
        <ele>649.7</ele>
        <time>2020-11-17T08:43:51Z</time>
      </trkpt>
      <trkpt lat="28.6503000" lon="-17.8806370">
        <ele>649.7</ele>
        <time>2020-11-17T08:43:52Z</time>
      </trkpt>
      <trkpt lat="28.6502820" lon="-17.8805920">
        <ele>650.0</ele>
        <time>2020-11-17T08:43:53Z</time>
      </trkpt>
      <trkpt lat="28.6502720" lon="-17.8805700">
        <ele>650.1</ele>
        <time>2020-11-17T08:43:54Z</time>
      </trkpt>
      <trkpt lat="28.6502720" lon="-17.8805700">
        <ele>650.1</ele>
        <time>2020-11-17T08:43:55Z</time>
      </trkpt>
      <trkpt lat="28.6502600" lon="-17.8805280">
        <ele>650.4</ele>
        <time>2020-11-17T08:43:56Z</time>
      </trkpt>
      <trkpt lat="28.6502530" lon="-17.8805080">
        <ele>650.5</ele>
        <time>2020-11-17T08:43:57Z</time>
      </trkpt>
      <trkpt lat="28.6502530" lon="-17.8805080">
        <ele>650.5</ele>
        <time>2020-11-17T08:43:58Z</time>
      </trkpt>
      <trkpt lat="28.6502350" lon="-17.8804700">
        <ele>650.8</ele>
        <time>2020-11-17T08:43:59Z</time>
      </trkpt>
      <trkpt lat="28.6502300" lon="-17.8804470">
        <ele>650.9</ele>
        <time>2020-11-17T08:44:00Z</time>
      </trkpt>
      <trkpt lat="28.6502300" lon="-17.8804470">
        <ele>650.9</ele>
        <time>2020-11-17T08:44:01Z</time>
      </trkpt>
      <trkpt lat="28.6502130" lon="-17.8804080">
        <ele>651.1</ele>
        <time>2020-11-17T08:44:02Z</time>
      </trkpt>
      <trkpt lat="28.6502130" lon="-17.8804080">
        <ele>651.1</ele>
        <time>2020-11-17T08:44:03Z</time>
      </trkpt>
      <trkpt lat="28.6501950" lon="-17.8803680">
        <ele>651.4</ele>
        <time>2020-11-17T08:44:04Z</time>
      </trkpt>
      <trkpt lat="28.6501950" lon="-17.8803680">
        <ele>651.4</ele>
        <time>2020-11-17T08:44:05Z</time>
      </trkpt>
      <trkpt lat="28.6501820" lon="-17.8803230">
        <ele>651.6</ele>
        <time>2020-11-17T08:44:06Z</time>
      </trkpt>
      <trkpt lat="28.6501820" lon="-17.8803230">
        <ele>651.6</ele>
        <time>2020-11-17T08:44:07Z</time>
      </trkpt>
      <trkpt lat="28.6501600" lon="-17.8802850">
        <ele>651.9</ele>
        <time>2020-11-17T08:44:08Z</time>
      </trkpt>
      <trkpt lat="28.6501600" lon="-17.8802850">
        <ele>651.9</ele>
        <time>2020-11-17T08:44:09Z</time>
      </trkpt>
      <trkpt lat="28.6501530" lon="-17.8802530">
        <ele>652.1</ele>
        <time>2020-11-17T08:44:10Z</time>
      </trkpt>
      <trkpt lat="28.6501530" lon="-17.8802530">
        <ele>652.1</ele>
        <time>2020-11-17T08:44:11Z</time>
      </trkpt>
      <trkpt lat="28.6501500" lon="-17.8802480">
        <ele>652.2</ele>
        <time>2020-11-17T08:44:12Z</time>
      </trkpt>
      <trkpt lat="28.6501500" lon="-17.8802480">
        <ele>652.2</ele>
        <time>2020-11-17T08:44:13Z</time>
      </trkpt>
      <trkpt lat="28.6501500" lon="-17.8802480">
        <ele>652.2</ele>
        <time>2020-11-17T08:44:14Z</time>
      </trkpt>
      <trkpt lat="28.6501500" lon="-17.8802480">
        <ele>652.2</ele>
        <time>2020-11-17T08:44:15Z</time>
      </trkpt>
      <trkpt lat="28.6501470" lon="-17.8802330">
        <ele>652.2</ele>
        <time>2020-11-17T08:44:16Z</time>
      </trkpt>
      <trkpt lat="28.6501470" lon="-17.8802330">
        <ele>652.2</ele>
        <time>2020-11-17T08:44:17Z</time>
      </trkpt>
      <trkpt lat="28.6501380" lon="-17.8802100">
        <ele>652.4</ele>
        <time>2020-11-17T08:44:18Z</time>
      </trkpt>
      <trkpt lat="28.6501380" lon="-17.8802100">
        <ele>652.4</ele>
        <time>2020-11-17T08:44:19Z</time>
      </trkpt>
      <trkpt lat="28.6501120" lon="-17.8801820">
        <ele>652.7</ele>
        <time>2020-11-17T08:44:20Z</time>
      </trkpt>
      <trkpt lat="28.6501000" lon="-17.8801620">
        <ele>652.8</ele>
        <time>2020-11-17T08:44:21Z</time>
      </trkpt>
      <trkpt lat="28.6500920" lon="-17.8801420">
        <ele>653.0</ele>
        <time>2020-11-17T08:44:22Z</time>
      </trkpt>
      <trkpt lat="28.6500920" lon="-17.8801420">
        <ele>653.0</ele>
        <time>2020-11-17T08:44:23Z</time>
      </trkpt>
      <trkpt lat="28.6500780" lon="-17.8801020">
        <ele>653.2</ele>
        <time>2020-11-17T08:44:24Z</time>
      </trkpt>
      <trkpt lat="28.6500780" lon="-17.8801020">
        <ele>653.2</ele>
        <time>2020-11-17T08:44:25Z</time>
      </trkpt>
      <trkpt lat="28.6500630" lon="-17.8800600">
        <ele>653.5</ele>
        <time>2020-11-17T08:44:26Z</time>
      </trkpt>
      <trkpt lat="28.6500630" lon="-17.8800600">
        <ele>653.5</ele>
        <time>2020-11-17T08:44:27Z</time>
      </trkpt>
      <trkpt lat="28.6500470" lon="-17.8800270">
        <ele>653.7</ele>
        <time>2020-11-17T08:44:28Z</time>
      </trkpt>
      <trkpt lat="28.6500350" lon="-17.8800120">
        <ele>653.9</ele>
        <time>2020-11-17T08:44:29Z</time>
      </trkpt>
      <trkpt lat="28.6500350" lon="-17.8800120">
        <ele>653.9</ele>
        <time>2020-11-17T08:44:30Z</time>
      </trkpt>
      <trkpt lat="28.6500220" lon="-17.8799830">
        <ele>654.1</ele>
        <time>2020-11-17T08:44:31Z</time>
      </trkpt>
      <trkpt lat="28.6500220" lon="-17.8799830">
        <ele>654.1</ele>
        <time>2020-11-17T08:44:32Z</time>
      </trkpt>
      <trkpt lat="28.6500080" lon="-17.8799600">
        <ele>654.2</ele>
        <time>2020-11-17T08:44:33Z</time>
      </trkpt>
      <trkpt lat="28.6500020" lon="-17.8799480">
        <ele>654.3</ele>
        <time>2020-11-17T08:44:34Z</time>
      </trkpt>
      <trkpt lat="28.6500020" lon="-17.8799480">
        <ele>654.3</ele>
        <time>2020-11-17T08:44:35Z</time>
      </trkpt>
      <trkpt lat="28.6499770" lon="-17.8799320">
        <ele>654.5</ele>
        <time>2020-11-17T08:44:36Z</time>
      </trkpt>
      <trkpt lat="28.6499770" lon="-17.8799320">
        <ele>654.5</ele>
        <time>2020-11-17T08:44:37Z</time>
      </trkpt>
      <trkpt lat="28.6499500" lon="-17.8799120">
        <ele>654.7</ele>
        <time>2020-11-17T08:44:38Z</time>
      </trkpt>
      <trkpt lat="28.6499470" lon="-17.8798900">
        <ele>654.9</ele>
        <time>2020-11-17T08:44:39Z</time>
      </trkpt>
      <trkpt lat="28.6499470" lon="-17.8798900">
        <ele>654.9</ele>
        <time>2020-11-17T08:44:40Z</time>
      </trkpt>
      <trkpt lat="28.6499700" lon="-17.8798550">
        <ele>654.9</ele>
        <time>2020-11-17T08:44:41Z</time>
      </trkpt>
      <trkpt lat="28.6499870" lon="-17.8798500">
        <ele>654.8</ele>
        <time>2020-11-17T08:44:42Z</time>
      </trkpt>
      <trkpt lat="28.6499870" lon="-17.8798500">
        <ele>654.8</ele>
        <time>2020-11-17T08:44:43Z</time>
      </trkpt>
      <trkpt lat="28.6500450" lon="-17.8798730">
        <ele>654.4</ele>
        <time>2020-11-17T08:44:44Z</time>
      </trkpt>
      <trkpt lat="28.6500450" lon="-17.8798730">
        <ele>654.4</ele>
        <time>2020-11-17T08:44:45Z</time>
      </trkpt>
      <trkpt lat="28.6500900" lon="-17.8799420">
        <ele>654.0</ele>
        <time>2020-11-17T08:44:46Z</time>
      </trkpt>
      <trkpt lat="28.6501080" lon="-17.8799730">
        <ele>653.8</ele>
        <time>2020-11-17T08:44:47Z</time>
      </trkpt>
      <trkpt lat="28.6501080" lon="-17.8799730">
        <ele>653.8</ele>
        <time>2020-11-17T08:44:48Z</time>
      </trkpt>
      <trkpt lat="28.6501470" lon="-17.8800320">
        <ele>653.3</ele>
        <time>2020-11-17T08:44:49Z</time>
      </trkpt>
      <trkpt lat="28.6501470" lon="-17.8800320">
        <ele>653.3</ele>
        <time>2020-11-17T08:44:50Z</time>
      </trkpt>
      <trkpt lat="28.6501730" lon="-17.8801070">
        <ele>652.9</ele>
        <time>2020-11-17T08:44:51Z</time>
      </trkpt>
      <trkpt lat="28.6501880" lon="-17.8801430">
        <ele>652.7</ele>
        <time>2020-11-17T08:44:52Z</time>
      </trkpt>
      <trkpt lat="28.6501980" lon="-17.8801750">
        <ele>652.5</ele>
        <time>2020-11-17T08:44:53Z</time>
      </trkpt>
      <trkpt lat="28.6501970" lon="-17.8802020">
        <ele>652.3</ele>
        <time>2020-11-17T08:44:54Z</time>
      </trkpt>
      <trkpt lat="28.6501970" lon="-17.8802020">
        <ele>652.3</ele>
        <time>2020-11-17T08:44:55Z</time>
      </trkpt>
      <trkpt lat="28.6501880" lon="-17.8802350">
        <ele>652.1</ele>
        <time>2020-11-17T08:44:56Z</time>
      </trkpt>
      <trkpt lat="28.6501870" lon="-17.8802530">
        <ele>651.7</ele>
        <time>2020-11-17T08:44:57Z</time>
      </trkpt>
      <trkpt lat="28.6501770" lon="-17.8802750">
        <ele>651.6</ele>
        <time>2020-11-17T08:44:58Z</time>
      </trkpt>
      <trkpt lat="28.6501770" lon="-17.8802750">
        <ele>651.6</ele>
        <time>2020-11-17T08:44:59Z</time>
      </trkpt>
      <trkpt lat="28.6501330" lon="-17.8803230">
        <ele>651.4</ele>
        <time>2020-11-17T08:45:00Z</time>
      </trkpt>
      <trkpt lat="28.6501330" lon="-17.8803230">
        <ele>651.4</ele>
        <time>2020-11-17T08:45:01Z</time>
      </trkpt>
      <trkpt lat="28.6500600" lon="-17.8803650">
        <ele>651.0</ele>
        <time>2020-11-17T08:45:02Z</time>
      </trkpt>
      <trkpt lat="28.6500120" lon="-17.8803930">
        <ele>650.9</ele>
        <time>2020-11-17T08:45:03Z</time>
      </trkpt>
      <trkpt lat="28.6500120" lon="-17.8803930">
        <ele>650.9</ele>
        <time>2020-11-17T08:45:04Z</time>
      </trkpt>
      <trkpt lat="28.6499150" lon="-17.8804420">
        <ele>650.7</ele>
        <time>2020-11-17T08:45:05Z</time>
      </trkpt>
      <trkpt lat="28.6499150" lon="-17.8804420">
        <ele>650.7</ele>
        <time>2020-11-17T08:45:06Z</time>
      </trkpt>
      <trkpt lat="28.6498320" lon="-17.8804830">
        <ele>650.7</ele>
        <time>2020-11-17T08:45:07Z</time>
      </trkpt>
      <trkpt lat="28.6498320" lon="-17.8804830">
        <ele>650.7</ele>
        <time>2020-11-17T08:45:08Z</time>
      </trkpt>
      <trkpt lat="28.6497530" lon="-17.8805280">
        <ele>650.7</ele>
        <time>2020-11-17T08:45:09Z</time>
      </trkpt>
      <trkpt lat="28.6497130" lon="-17.8805650">
        <ele>650.7</ele>
        <time>2020-11-17T08:45:10Z</time>
      </trkpt>
      <trkpt lat="28.6497130" lon="-17.8805650">
        <ele>650.7</ele>
        <time>2020-11-17T08:45:11Z</time>
      </trkpt>
      <trkpt lat="28.6497130" lon="-17.8805650">
        <ele>650.7</ele>
        <time>2020-11-17T08:45:12Z</time>
      </trkpt>
      <trkpt lat="28.6496430" lon="-17.8806200">
        <ele>650.7</ele>
        <time>2020-11-17T08:45:13Z</time>
      </trkpt>
      <trkpt lat="28.6495680" lon="-17.8806630">
        <ele>650.9</ele>
        <time>2020-11-17T08:45:14Z</time>
      </trkpt>
      <trkpt lat="28.6495680" lon="-17.8806630">
        <ele>650.9</ele>
        <time>2020-11-17T08:45:15Z</time>
      </trkpt>
      <trkpt lat="28.6494870" lon="-17.8806870">
        <ele>651.2</ele>
        <time>2020-11-17T08:45:16Z</time>
      </trkpt>
      <trkpt lat="28.6494480" lon="-17.8806920">
        <ele>651.4</ele>
        <time>2020-11-17T08:45:17Z</time>
      </trkpt>
      <trkpt lat="28.6494480" lon="-17.8806920">
        <ele>651.4</ele>
        <time>2020-11-17T08:45:18Z</time>
      </trkpt>
      <trkpt lat="28.6493750" lon="-17.8806970">
        <ele>651.8</ele>
        <time>2020-11-17T08:45:19Z</time>
      </trkpt>
      <trkpt lat="28.6493750" lon="-17.8806970">
        <ele>651.8</ele>
        <time>2020-11-17T08:45:20Z</time>
      </trkpt>
      <trkpt lat="28.6493130" lon="-17.8807100">
        <ele>652.1</ele>
        <time>2020-11-17T08:45:21Z</time>
      </trkpt>
      <trkpt lat="28.6493130" lon="-17.8807100">
        <ele>652.1</ele>
        <time>2020-11-17T08:45:22Z</time>
      </trkpt>
      <trkpt lat="28.6492630" lon="-17.8807250">
        <ele>652.4</ele>
        <time>2020-11-17T08:45:23Z</time>
      </trkpt>
      <trkpt lat="28.6492380" lon="-17.8807220">
        <ele>652.5</ele>
        <time>2020-11-17T08:45:24Z</time>
      </trkpt>
      <trkpt lat="28.6492380" lon="-17.8807220">
        <ele>652.5</ele>
        <time>2020-11-17T08:45:25Z</time>
      </trkpt>
      <trkpt lat="28.6492050" lon="-17.8807220">
        <ele>652.6</ele>
        <time>2020-11-17T08:45:26Z</time>
      </trkpt>
      <trkpt lat="28.6491930" lon="-17.8807220">
        <ele>652.7</ele>
        <time>2020-11-17T08:45:27Z</time>
      </trkpt>
      <trkpt lat="28.6491730" lon="-17.8807150">
        <ele>652.8</ele>
        <time>2020-11-17T08:45:28Z</time>
      </trkpt>
      <trkpt lat="28.6491730" lon="-17.8807150">
        <ele>652.8</ele>
        <time>2020-11-17T08:45:29Z</time>
      </trkpt>
      <trkpt lat="28.6491320" lon="-17.8807100">
        <ele>652.9</ele>
        <time>2020-11-17T08:45:30Z</time>
      </trkpt>
      <trkpt lat="28.6491320" lon="-17.8807100">
        <ele>652.9</ele>
        <time>2020-11-17T08:45:31Z</time>
      </trkpt>
      <trkpt lat="28.6490880" lon="-17.8807050">
        <ele>653.1</ele>
        <time>2020-11-17T08:45:32Z</time>
      </trkpt>
      <trkpt lat="28.6490630" lon="-17.8806980">
        <ele>653.2</ele>
        <time>2020-11-17T08:45:33Z</time>
      </trkpt>
      <trkpt lat="28.6490630" lon="-17.8806980">
        <ele>653.2</ele>
        <time>2020-11-17T08:45:34Z</time>
      </trkpt>
      <trkpt lat="28.6490120" lon="-17.8806850">
        <ele>653.3</ele>
        <time>2020-11-17T08:45:35Z</time>
      </trkpt>
      <trkpt lat="28.6490120" lon="-17.8806850">
        <ele>653.3</ele>
        <time>2020-11-17T08:45:36Z</time>
      </trkpt>
      <trkpt lat="28.6489620" lon="-17.8806650">
        <ele>653.4</ele>
        <time>2020-11-17T08:45:37Z</time>
      </trkpt>
      <trkpt lat="28.6489380" lon="-17.8806550">
        <ele>653.5</ele>
        <time>2020-11-17T08:45:38Z</time>
      </trkpt>
      <trkpt lat="28.6489380" lon="-17.8806550">
        <ele>653.5</ele>
        <time>2020-11-17T08:45:39Z</time>
      </trkpt>
      <trkpt lat="28.6489020" lon="-17.8806420">
        <ele>653.6</ele>
        <time>2020-11-17T08:45:40Z</time>
      </trkpt>
      <trkpt lat="28.6489020" lon="-17.8806420">
        <ele>653.6</ele>
        <time>2020-11-17T08:45:41Z</time>
      </trkpt>
      <trkpt lat="28.6488600" lon="-17.8806270">
        <ele>653.6</ele>
        <time>2020-11-17T08:45:42Z</time>
      </trkpt>
      <trkpt lat="28.6488600" lon="-17.8806270">
        <ele>653.6</ele>
        <time>2020-11-17T08:45:43Z</time>
      </trkpt>
      <trkpt lat="28.6488120" lon="-17.8806120">
        <ele>653.8</ele>
        <time>2020-11-17T08:45:44Z</time>
      </trkpt>
      <trkpt lat="28.6488120" lon="-17.8806120">
        <ele>653.8</ele>
        <time>2020-11-17T08:45:45Z</time>
      </trkpt>
      <trkpt lat="28.6487600" lon="-17.8806030">
        <ele>653.7</ele>
        <time>2020-11-17T08:45:46Z</time>
      </trkpt>
      <trkpt lat="28.6487600" lon="-17.8806030">
        <ele>653.7</ele>
        <time>2020-11-17T08:45:47Z</time>
      </trkpt>
      <trkpt lat="28.6487000" lon="-17.8806030">
        <ele>653.7</ele>
        <time>2020-11-17T08:45:48Z</time>
      </trkpt>
      <trkpt lat="28.6487000" lon="-17.8806030">
        <ele>653.7</ele>
        <time>2020-11-17T08:45:49Z</time>
      </trkpt>
      <trkpt lat="28.6486300" lon="-17.8806050">
        <ele>653.6</ele>
        <time>2020-11-17T08:45:50Z</time>
      </trkpt>
      <trkpt lat="28.6485930" lon="-17.8806050">
        <ele>653.6</ele>
        <time>2020-11-17T08:45:51Z</time>
      </trkpt>
      <trkpt lat="28.6485930" lon="-17.8806050">
        <ele>653.6</ele>
        <time>2020-11-17T08:45:52Z</time>
      </trkpt>
      <trkpt lat="28.6485180" lon="-17.8805980">
        <ele>653.5</ele>
        <time>2020-11-17T08:45:53Z</time>
      </trkpt>
      <trkpt lat="28.6485180" lon="-17.8805980">
        <ele>653.5</ele>
        <time>2020-11-17T08:45:54Z</time>
      </trkpt>
      <trkpt lat="28.6484400" lon="-17.8805900">
        <ele>653.5</ele>
        <time>2020-11-17T08:45:55Z</time>
      </trkpt>
      <trkpt lat="28.6484400" lon="-17.8805900">
        <ele>653.5</ele>
        <time>2020-11-17T08:45:56Z</time>
      </trkpt>
      <trkpt lat="28.6483580" lon="-17.8805850">
        <ele>653.4</ele>
        <time>2020-11-17T08:45:57Z</time>
      </trkpt>
      <trkpt lat="28.6483580" lon="-17.8805850">
        <ele>653.4</ele>
        <time>2020-11-17T08:45:58Z</time>
      </trkpt>
      <trkpt lat="28.6482750" lon="-17.8805830">
        <ele>653.3</ele>
        <time>2020-11-17T08:45:59Z</time>
      </trkpt>
      <trkpt lat="28.6482350" lon="-17.8805780">
        <ele>653.2</ele>
        <time>2020-11-17T08:46:00Z</time>
      </trkpt>
      <trkpt lat="28.6482350" lon="-17.8805780">
        <ele>653.2</ele>
        <time>2020-11-17T08:46:01Z</time>
      </trkpt>
      <trkpt lat="28.6481500" lon="-17.8805770">
        <ele>653.1</ele>
        <time>2020-11-17T08:46:02Z</time>
      </trkpt>
      <trkpt lat="28.6481500" lon="-17.8805770">
        <ele>653.1</ele>
        <time>2020-11-17T08:46:03Z</time>
      </trkpt>
      <trkpt lat="28.6480650" lon="-17.8805700">
        <ele>653.1</ele>
        <time>2020-11-17T08:46:04Z</time>
      </trkpt>
      <trkpt lat="28.6480650" lon="-17.8805700">
        <ele>653.1</ele>
        <time>2020-11-17T08:46:05Z</time>
      </trkpt>
      <trkpt lat="28.6479770" lon="-17.8805650">
        <ele>653.0</ele>
        <time>2020-11-17T08:46:06Z</time>
      </trkpt>
      <trkpt lat="28.6479770" lon="-17.8805650">
        <ele>653.0</ele>
        <time>2020-11-17T08:46:07Z</time>
      </trkpt>
      <trkpt lat="28.6478850" lon="-17.8805680">
        <ele>653.0</ele>
        <time>2020-11-17T08:46:08Z</time>
      </trkpt>
      <trkpt lat="28.6478850" lon="-17.8805680">
        <ele>653.0</ele>
        <time>2020-11-17T08:46:09Z</time>
      </trkpt>
      <trkpt lat="28.6477930" lon="-17.8805630">
        <ele>653.0</ele>
        <time>2020-11-17T08:46:10Z</time>
      </trkpt>
      <trkpt lat="28.6477930" lon="-17.8805630">
        <ele>653.0</ele>
        <time>2020-11-17T08:46:11Z</time>
      </trkpt>
      <trkpt lat="28.6477050" lon="-17.8805600">
        <ele>652.9</ele>
        <time>2020-11-17T08:46:12Z</time>
      </trkpt>
      <trkpt lat="28.6477050" lon="-17.8805600">
        <ele>652.9</ele>
        <time>2020-11-17T08:46:13Z</time>
      </trkpt>
      <trkpt lat="28.6476150" lon="-17.8805550">
        <ele>652.9</ele>
        <time>2020-11-17T08:46:14Z</time>
      </trkpt>
      <trkpt lat="28.6476150" lon="-17.8805550">
        <ele>652.9</ele>
        <time>2020-11-17T08:46:15Z</time>
      </trkpt>
      <trkpt lat="28.6475250" lon="-17.8805320">
        <ele>652.9</ele>
        <time>2020-11-17T08:46:16Z</time>
      </trkpt>
      <trkpt lat="28.6475250" lon="-17.8805320">
        <ele>652.9</ele>
        <time>2020-11-17T08:46:17Z</time>
      </trkpt>
      <trkpt lat="28.6474330" lon="-17.8805100">
        <ele>652.9</ele>
        <time>2020-11-17T08:46:18Z</time>
      </trkpt>
      <trkpt lat="28.6474330" lon="-17.8805100">
        <ele>652.9</ele>
        <time>2020-11-17T08:46:19Z</time>
      </trkpt>
      <trkpt lat="28.6473400" lon="-17.8804880">
        <ele>652.9</ele>
        <time>2020-11-17T08:46:20Z</time>
      </trkpt>
      <trkpt lat="28.6473400" lon="-17.8804880">
        <ele>652.9</ele>
        <time>2020-11-17T08:46:21Z</time>
      </trkpt>
      <trkpt lat="28.6472470" lon="-17.8804680">
        <ele>652.9</ele>
        <time>2020-11-17T08:46:22Z</time>
      </trkpt>
      <trkpt lat="28.6472470" lon="-17.8804680">
        <ele>652.9</ele>
        <time>2020-11-17T08:46:23Z</time>
      </trkpt>
      <trkpt lat="28.6471530" lon="-17.8804520">
        <ele>652.8</ele>
        <time>2020-11-17T08:46:24Z</time>
      </trkpt>
      <trkpt lat="28.6471530" lon="-17.8804520">
        <ele>652.8</ele>
        <time>2020-11-17T08:46:25Z</time>
      </trkpt>
      <trkpt lat="28.6470600" lon="-17.8804320">
        <ele>652.7</ele>
        <time>2020-11-17T08:46:26Z</time>
      </trkpt>
      <trkpt lat="28.6470170" lon="-17.8804180">
        <ele>652.7</ele>
        <time>2020-11-17T08:46:27Z</time>
      </trkpt>
      <trkpt lat="28.6470170" lon="-17.8804180">
        <ele>652.7</ele>
        <time>2020-11-17T08:46:28Z</time>
      </trkpt>
      <trkpt lat="28.6469270" lon="-17.8803930">
        <ele>652.7</ele>
        <time>2020-11-17T08:46:29Z</time>
      </trkpt>
      <trkpt lat="28.6468830" lon="-17.8803830">
        <ele>652.6</ele>
        <time>2020-11-17T08:46:30Z</time>
      </trkpt>
      <trkpt lat="28.6468830" lon="-17.8803830">
        <ele>652.6</ele>
        <time>2020-11-17T08:46:31Z</time>
      </trkpt>
      <trkpt lat="28.6467920" lon="-17.8803580">
        <ele>652.6</ele>
        <time>2020-11-17T08:46:32Z</time>
      </trkpt>
      <trkpt lat="28.6467920" lon="-17.8803580">
        <ele>652.6</ele>
        <time>2020-11-17T08:46:33Z</time>
      </trkpt>
      <trkpt lat="28.6466980" lon="-17.8803350">
        <ele>652.6</ele>
        <time>2020-11-17T08:46:34Z</time>
      </trkpt>
      <trkpt lat="28.6466520" lon="-17.8803250">
        <ele>652.7</ele>
        <time>2020-11-17T08:46:35Z</time>
      </trkpt>
      <trkpt lat="28.6466520" lon="-17.8803250">
        <ele>652.7</ele>
        <time>2020-11-17T08:46:36Z</time>
      </trkpt>
      <trkpt lat="28.6465570" lon="-17.8803150">
        <ele>652.7</ele>
        <time>2020-11-17T08:46:37Z</time>
      </trkpt>
      <trkpt lat="28.6465570" lon="-17.8803150">
        <ele>652.7</ele>
        <time>2020-11-17T08:46:38Z</time>
      </trkpt>
      <trkpt lat="28.6464600" lon="-17.8803030">
        <ele>652.8</ele>
        <time>2020-11-17T08:46:39Z</time>
      </trkpt>
      <trkpt lat="28.6464600" lon="-17.8803030">
        <ele>652.8</ele>
        <time>2020-11-17T08:46:40Z</time>
      </trkpt>
      <trkpt lat="28.6463650" lon="-17.8803000">
        <ele>652.9</ele>
        <time>2020-11-17T08:46:41Z</time>
      </trkpt>
      <trkpt lat="28.6463200" lon="-17.8802980">
        <ele>652.9</ele>
        <time>2020-11-17T08:46:42Z</time>
      </trkpt>
      <trkpt lat="28.6463200" lon="-17.8802980">
        <ele>652.9</ele>
        <time>2020-11-17T08:46:43Z</time>
      </trkpt>
      <trkpt lat="28.6462330" lon="-17.8802980">
        <ele>653.0</ele>
        <time>2020-11-17T08:46:44Z</time>
      </trkpt>
      <trkpt lat="28.6462330" lon="-17.8802980">
        <ele>653.0</ele>
        <time>2020-11-17T08:46:45Z</time>
      </trkpt>
      <trkpt lat="28.6461500" lon="-17.8803000">
        <ele>653.1</ele>
        <time>2020-11-17T08:46:46Z</time>
      </trkpt>
      <trkpt lat="28.6461500" lon="-17.8803000">
        <ele>653.1</ele>
        <time>2020-11-17T08:46:47Z</time>
      </trkpt>
      <trkpt lat="28.6460650" lon="-17.8803020">
        <ele>653.3</ele>
        <time>2020-11-17T08:46:48Z</time>
      </trkpt>
      <trkpt lat="28.6460650" lon="-17.8803020">
        <ele>653.3</ele>
        <time>2020-11-17T08:46:49Z</time>
      </trkpt>
      <trkpt lat="28.6459800" lon="-17.8803030">
        <ele>653.4</ele>
        <time>2020-11-17T08:46:50Z</time>
      </trkpt>
      <trkpt lat="28.6459800" lon="-17.8803030">
        <ele>653.4</ele>
        <time>2020-11-17T08:46:51Z</time>
      </trkpt>
      <trkpt lat="28.6458980" lon="-17.8803050">
        <ele>653.6</ele>
        <time>2020-11-17T08:46:52Z</time>
      </trkpt>
      <trkpt lat="28.6458980" lon="-17.8803050">
        <ele>653.6</ele>
        <time>2020-11-17T08:46:53Z</time>
      </trkpt>
      <trkpt lat="28.6458200" lon="-17.8803080">
        <ele>653.7</ele>
        <time>2020-11-17T08:46:54Z</time>
      </trkpt>
      <trkpt lat="28.6458200" lon="-17.8803080">
        <ele>653.7</ele>
        <time>2020-11-17T08:46:55Z</time>
      </trkpt>
      <trkpt lat="28.6457420" lon="-17.8803120">
        <ele>653.9</ele>
        <time>2020-11-17T08:46:56Z</time>
      </trkpt>
      <trkpt lat="28.6457420" lon="-17.8803120">
        <ele>653.9</ele>
        <time>2020-11-17T08:46:57Z</time>
      </trkpt>
      <trkpt lat="28.6456650" lon="-17.8803120">
        <ele>654.1</ele>
        <time>2020-11-17T08:46:58Z</time>
      </trkpt>
      <trkpt lat="28.6456270" lon="-17.8803130">
        <ele>654.2</ele>
        <time>2020-11-17T08:46:59Z</time>
      </trkpt>
      <trkpt lat="28.6455880" lon="-17.8803120">
        <ele>654.3</ele>
        <time>2020-11-17T08:47:00Z</time>
      </trkpt>
      <trkpt lat="28.6455880" lon="-17.8803120">
        <ele>654.3</ele>
        <time>2020-11-17T08:47:01Z</time>
      </trkpt>
      <trkpt lat="28.6455170" lon="-17.8803070">
        <ele>654.5</ele>
        <time>2020-11-17T08:47:02Z</time>
      </trkpt>
      <trkpt lat="28.6455170" lon="-17.8803070">
        <ele>654.5</ele>
        <time>2020-11-17T08:47:03Z</time>
      </trkpt>
      <trkpt lat="28.6454330" lon="-17.8803080">
        <ele>654.8</ele>
        <time>2020-11-17T08:47:04Z</time>
      </trkpt>
      <trkpt lat="28.6454330" lon="-17.8803080">
        <ele>654.8</ele>
        <time>2020-11-17T08:47:05Z</time>
      </trkpt>
      <trkpt lat="28.6453520" lon="-17.8803120">
        <ele>655.1</ele>
        <time>2020-11-17T08:47:06Z</time>
      </trkpt>
      <trkpt lat="28.6453520" lon="-17.8803120">
        <ele>655.1</ele>
        <time>2020-11-17T08:47:07Z</time>
      </trkpt>
      <trkpt lat="28.6452780" lon="-17.8803170">
        <ele>655.3</ele>
        <time>2020-11-17T08:47:08Z</time>
      </trkpt>
      <trkpt lat="28.6452400" lon="-17.8803220">
        <ele>655.4</ele>
        <time>2020-11-17T08:47:09Z</time>
      </trkpt>
      <trkpt lat="28.6452400" lon="-17.8803220">
        <ele>655.4</ele>
        <time>2020-11-17T08:47:10Z</time>
      </trkpt>
      <trkpt lat="28.6451670" lon="-17.8803220">
        <ele>655.7</ele>
        <time>2020-11-17T08:47:11Z</time>
      </trkpt>
      <trkpt lat="28.6451670" lon="-17.8803220">
        <ele>655.7</ele>
        <time>2020-11-17T08:47:12Z</time>
      </trkpt>
      <trkpt lat="28.6450930" lon="-17.8803200">
        <ele>656.0</ele>
        <time>2020-11-17T08:47:13Z</time>
      </trkpt>
      <trkpt lat="28.6450570" lon="-17.8803220">
        <ele>656.1</ele>
        <time>2020-11-17T08:47:14Z</time>
      </trkpt>
      <trkpt lat="28.6450570" lon="-17.8803220">
        <ele>656.1</ele>
        <time>2020-11-17T08:47:15Z</time>
      </trkpt>
      <trkpt lat="28.6449820" lon="-17.8803230">
        <ele>656.3</ele>
        <time>2020-11-17T08:47:16Z</time>
      </trkpt>
      <trkpt lat="28.6449820" lon="-17.8803230">
        <ele>656.3</ele>
        <time>2020-11-17T08:47:17Z</time>
      </trkpt>
      <trkpt lat="28.6449050" lon="-17.8803270">
        <ele>656.6</ele>
        <time>2020-11-17T08:47:18Z</time>
      </trkpt>
      <trkpt lat="28.6449050" lon="-17.8803270">
        <ele>656.6</ele>
        <time>2020-11-17T08:47:19Z</time>
      </trkpt>
      <trkpt lat="28.6448300" lon="-17.8803250">
        <ele>656.9</ele>
        <time>2020-11-17T08:47:20Z</time>
      </trkpt>
      <trkpt lat="28.6448300" lon="-17.8803250">
        <ele>656.9</ele>
        <time>2020-11-17T08:47:21Z</time>
      </trkpt>
      <trkpt lat="28.6447570" lon="-17.8803130">
        <ele>657.3</ele>
        <time>2020-11-17T08:47:22Z</time>
      </trkpt>
      <trkpt lat="28.6447570" lon="-17.8803130">
        <ele>657.3</ele>
        <time>2020-11-17T08:47:23Z</time>
      </trkpt>
      <trkpt lat="28.6446850" lon="-17.8803000">
        <ele>657.7</ele>
        <time>2020-11-17T08:47:24Z</time>
      </trkpt>
      <trkpt lat="28.6446850" lon="-17.8803000">
        <ele>657.7</ele>
        <time>2020-11-17T08:47:25Z</time>
      </trkpt>
      <trkpt lat="28.6446150" lon="-17.8802820">
        <ele>657.7</ele>
        <time>2020-11-17T08:47:26Z</time>
      </trkpt>
      <trkpt lat="28.6445820" lon="-17.8802720">
        <ele>657.7</ele>
        <time>2020-11-17T08:47:27Z</time>
      </trkpt>
      <trkpt lat="28.6445820" lon="-17.8802720">
        <ele>657.7</ele>
        <time>2020-11-17T08:47:28Z</time>
      </trkpt>
      <trkpt lat="28.6445130" lon="-17.8802520">
        <ele>657.9</ele>
        <time>2020-11-17T08:47:29Z</time>
      </trkpt>
      <trkpt lat="28.6444820" lon="-17.8802370">
        <ele>658.0</ele>
        <time>2020-11-17T08:47:30Z</time>
      </trkpt>
      <trkpt lat="28.6444820" lon="-17.8802370">
        <ele>658.0</ele>
        <time>2020-11-17T08:47:31Z</time>
      </trkpt>
      <trkpt lat="28.6444230" lon="-17.8801950">
        <ele>658.1</ele>
        <time>2020-11-17T08:47:32Z</time>
      </trkpt>
      <trkpt lat="28.6444230" lon="-17.8801950">
        <ele>658.1</ele>
        <time>2020-11-17T08:47:33Z</time>
      </trkpt>
      <trkpt lat="28.6443620" lon="-17.8801650">
        <ele>658.3</ele>
        <time>2020-11-17T08:47:34Z</time>
      </trkpt>
      <trkpt lat="28.6443620" lon="-17.8801650">
        <ele>658.3</ele>
        <time>2020-11-17T08:47:35Z</time>
      </trkpt>
      <trkpt lat="28.6443070" lon="-17.8801320">
        <ele>658.5</ele>
        <time>2020-11-17T08:47:36Z</time>
      </trkpt>
      <trkpt lat="28.6443070" lon="-17.8801320">
        <ele>658.5</ele>
        <time>2020-11-17T08:47:37Z</time>
      </trkpt>
      <trkpt lat="28.6442570" lon="-17.8801020">
        <ele>658.7</ele>
        <time>2020-11-17T08:47:38Z</time>
      </trkpt>
      <trkpt lat="28.6442570" lon="-17.8801020">
        <ele>658.7</ele>
        <time>2020-11-17T08:47:39Z</time>
      </trkpt>
      <trkpt lat="28.6442070" lon="-17.8800730">
        <ele>659.0</ele>
        <time>2020-11-17T08:47:40Z</time>
      </trkpt>
      <trkpt lat="28.6441850" lon="-17.8800580">
        <ele>659.2</ele>
        <time>2020-11-17T08:47:41Z</time>
      </trkpt>
      <trkpt lat="28.6441850" lon="-17.8800580">
        <ele>659.2</ele>
        <time>2020-11-17T08:47:42Z</time>
      </trkpt>
      <trkpt lat="28.6441450" lon="-17.8800330">
        <ele>659.4</ele>
        <time>2020-11-17T08:47:43Z</time>
      </trkpt>
      <trkpt lat="28.6441450" lon="-17.8800330">
        <ele>659.4</ele>
        <time>2020-11-17T08:47:44Z</time>
      </trkpt>
      <trkpt lat="28.6441030" lon="-17.8800100">
        <ele>659.7</ele>
        <time>2020-11-17T08:47:45Z</time>
      </trkpt>
      <trkpt lat="28.6441030" lon="-17.8800100">
        <ele>659.7</ele>
        <time>2020-11-17T08:47:46Z</time>
      </trkpt>
      <trkpt lat="28.6440680" lon="-17.8799900">
        <ele>660.0</ele>
        <time>2020-11-17T08:47:47Z</time>
      </trkpt>
      <trkpt lat="28.6440500" lon="-17.8799780">
        <ele>660.1</ele>
        <time>2020-11-17T08:47:48Z</time>
      </trkpt>
      <trkpt lat="28.6440500" lon="-17.8799780">
        <ele>660.1</ele>
        <time>2020-11-17T08:47:49Z</time>
      </trkpt>
      <trkpt lat="28.6440100" lon="-17.8799550">
        <ele>660.3</ele>
        <time>2020-11-17T08:47:50Z</time>
      </trkpt>
      <trkpt lat="28.6440100" lon="-17.8799550">
        <ele>660.3</ele>
        <time>2020-11-17T08:47:51Z</time>
      </trkpt>
      <trkpt lat="28.6439670" lon="-17.8799320">
        <ele>660.6</ele>
        <time>2020-11-17T08:47:52Z</time>
      </trkpt>
      <trkpt lat="28.6439670" lon="-17.8799320">
        <ele>660.6</ele>
        <time>2020-11-17T08:47:53Z</time>
      </trkpt>
      <trkpt lat="28.6439220" lon="-17.8799070">
        <ele>660.9</ele>
        <time>2020-11-17T08:47:54Z</time>
      </trkpt>
      <trkpt lat="28.6439220" lon="-17.8799070">
        <ele>660.9</ele>
        <time>2020-11-17T08:47:55Z</time>
      </trkpt>
      <trkpt lat="28.6438770" lon="-17.8798820">
        <ele>661.2</ele>
        <time>2020-11-17T08:47:56Z</time>
      </trkpt>
      <trkpt lat="28.6438530" lon="-17.8798720">
        <ele>661.4</ele>
        <time>2020-11-17T08:47:57Z</time>
      </trkpt>
      <trkpt lat="28.6438530" lon="-17.8798720">
        <ele>661.4</ele>
        <time>2020-11-17T08:47:58Z</time>
      </trkpt>
      <trkpt lat="28.6438080" lon="-17.8798480">
        <ele>661.7</ele>
        <time>2020-11-17T08:47:59Z</time>
      </trkpt>
      <trkpt lat="28.6437880" lon="-17.8798350">
        <ele>661.9</ele>
        <time>2020-11-17T08:48:00Z</time>
      </trkpt>
      <trkpt lat="28.6437880" lon="-17.8798350">
        <ele>661.9</ele>
        <time>2020-11-17T08:48:01Z</time>
      </trkpt>
      <trkpt lat="28.6437470" lon="-17.8798070">
        <ele>662.2</ele>
        <time>2020-11-17T08:48:02Z</time>
      </trkpt>
      <trkpt lat="28.6437470" lon="-17.8798070">
        <ele>662.2</ele>
        <time>2020-11-17T08:48:03Z</time>
      </trkpt>
      <trkpt lat="28.6437050" lon="-17.8797830">
        <ele>662.4</ele>
        <time>2020-11-17T08:48:04Z</time>
      </trkpt>
      <trkpt lat="28.6437050" lon="-17.8797830">
        <ele>662.4</ele>
        <time>2020-11-17T08:48:05Z</time>
      </trkpt>
      <trkpt lat="28.6436670" lon="-17.8797600">
        <ele>662.7</ele>
        <time>2020-11-17T08:48:06Z</time>
      </trkpt>
      <trkpt lat="28.6436670" lon="-17.8797600">
        <ele>662.7</ele>
        <time>2020-11-17T08:48:07Z</time>
      </trkpt>
      <trkpt lat="28.6436360" lon="-17.8797410">
        <ele>662.8</ele>
        <time>2020-11-17T08:48:08Z</time>
      </trkpt>
      <trkpt lat="28.6436050" lon="-17.8797230">
        <ele>663.1</ele>
        <time>2020-11-17T08:48:09Z</time>
      </trkpt>
      <trkpt lat="28.6435850" lon="-17.8797120">
        <ele>663.2</ele>
        <time>2020-11-17T08:48:10Z</time>
      </trkpt>
      <trkpt lat="28.6435850" lon="-17.8797120">
        <ele>663.2</ele>
        <time>2020-11-17T08:48:11Z</time>
      </trkpt>
      <trkpt lat="28.6435480" lon="-17.8796880">
        <ele>663.5</ele>
        <time>2020-11-17T08:48:12Z</time>
      </trkpt>
      <trkpt lat="28.6435280" lon="-17.8796770">
        <ele>663.7</ele>
        <time>2020-11-17T08:48:13Z</time>
      </trkpt>
      <trkpt lat="28.6435280" lon="-17.8796770">
        <ele>663.7</ele>
        <time>2020-11-17T08:48:14Z</time>
      </trkpt>
      <trkpt lat="28.6434870" lon="-17.8796570">
        <ele>664.0</ele>
        <time>2020-11-17T08:48:15Z</time>
      </trkpt>
      <trkpt lat="28.6434870" lon="-17.8796570">
        <ele>664.0</ele>
        <time>2020-11-17T08:48:16Z</time>
      </trkpt>
      <trkpt lat="28.6434480" lon="-17.8796350">
        <ele>664.3</ele>
        <time>2020-11-17T08:48:17Z</time>
      </trkpt>
      <trkpt lat="28.6434280" lon="-17.8796230">
        <ele>664.5</ele>
        <time>2020-11-17T08:48:18Z</time>
      </trkpt>
      <trkpt lat="28.6434280" lon="-17.8796230">
        <ele>664.5</ele>
        <time>2020-11-17T08:48:19Z</time>
      </trkpt>
      <trkpt lat="28.6433900" lon="-17.8796050">
        <ele>664.8</ele>
        <time>2020-11-17T08:48:20Z</time>
      </trkpt>
      <trkpt lat="28.6433900" lon="-17.8796050">
        <ele>664.8</ele>
        <time>2020-11-17T08:48:21Z</time>
      </trkpt>
      <trkpt lat="28.6433550" lon="-17.8795820">
        <ele>665.1</ele>
        <time>2020-11-17T08:48:22Z</time>
      </trkpt>
      <trkpt lat="28.6433550" lon="-17.8795820">
        <ele>665.1</ele>
        <time>2020-11-17T08:48:23Z</time>
      </trkpt>
      <trkpt lat="28.6433180" lon="-17.8795620">
        <ele>665.4</ele>
        <time>2020-11-17T08:48:24Z</time>
      </trkpt>
      <trkpt lat="28.6433180" lon="-17.8795620">
        <ele>665.4</ele>
        <time>2020-11-17T08:48:25Z</time>
      </trkpt>
      <trkpt lat="28.6432800" lon="-17.8795370">
        <ele>665.7</ele>
        <time>2020-11-17T08:48:26Z</time>
      </trkpt>
      <trkpt lat="28.6432600" lon="-17.8795230">
        <ele>665.8</ele>
        <time>2020-11-17T08:48:27Z</time>
      </trkpt>
      <trkpt lat="28.6432600" lon="-17.8795230">
        <ele>665.8</ele>
        <time>2020-11-17T08:48:28Z</time>
      </trkpt>
      <trkpt lat="28.6432230" lon="-17.8795000">
        <ele>666.1</ele>
        <time>2020-11-17T08:48:29Z</time>
      </trkpt>
      <trkpt lat="28.6432230" lon="-17.8795000">
        <ele>666.1</ele>
        <time>2020-11-17T08:48:30Z</time>
      </trkpt>
      <trkpt lat="28.6431830" lon="-17.8794770">
        <ele>666.4</ele>
        <time>2020-11-17T08:48:31Z</time>
      </trkpt>
      <trkpt lat="28.6431830" lon="-17.8794770">
        <ele>666.4</ele>
        <time>2020-11-17T08:48:32Z</time>
      </trkpt>
      <trkpt lat="28.6431480" lon="-17.8794600">
        <ele>666.7</ele>
        <time>2020-11-17T08:48:33Z</time>
      </trkpt>
      <trkpt lat="28.6431320" lon="-17.8794500">
        <ele>666.8</ele>
        <time>2020-11-17T08:48:34Z</time>
      </trkpt>
      <trkpt lat="28.6431320" lon="-17.8794500">
        <ele>666.8</ele>
        <time>2020-11-17T08:48:35Z</time>
      </trkpt>
      <trkpt lat="28.6430920" lon="-17.8794370">
        <ele>667.1</ele>
        <time>2020-11-17T08:48:36Z</time>
      </trkpt>
      <trkpt lat="28.6430920" lon="-17.8794370">
        <ele>667.1</ele>
        <time>2020-11-17T08:48:37Z</time>
      </trkpt>
      <trkpt lat="28.6430570" lon="-17.8794130">
        <ele>667.4</ele>
        <time>2020-11-17T08:48:38Z</time>
      </trkpt>
      <trkpt lat="28.6430570" lon="-17.8794130">
        <ele>667.4</ele>
        <time>2020-11-17T08:48:39Z</time>
      </trkpt>
      <trkpt lat="28.6430230" lon="-17.8793920">
        <ele>667.6</ele>
        <time>2020-11-17T08:48:40Z</time>
      </trkpt>
      <trkpt lat="28.6430070" lon="-17.8793820">
        <ele>667.8</ele>
        <time>2020-11-17T08:48:41Z</time>
      </trkpt>
      <trkpt lat="28.6429880" lon="-17.8793700">
        <ele>667.9</ele>
        <time>2020-11-17T08:48:42Z</time>
      </trkpt>
      <trkpt lat="28.6429880" lon="-17.8793700">
        <ele>667.9</ele>
        <time>2020-11-17T08:48:43Z</time>
      </trkpt>
      <trkpt lat="28.6429500" lon="-17.8793520">
        <ele>668.2</ele>
        <time>2020-11-17T08:48:44Z</time>
      </trkpt>
      <trkpt lat="28.6429500" lon="-17.8793520">
        <ele>668.2</ele>
        <time>2020-11-17T08:48:45Z</time>
      </trkpt>
      <trkpt lat="28.6429100" lon="-17.8793300">
        <ele>668.5</ele>
        <time>2020-11-17T08:48:46Z</time>
      </trkpt>
      <trkpt lat="28.6428920" lon="-17.8793220">
        <ele>668.6</ele>
        <time>2020-11-17T08:48:47Z</time>
      </trkpt>
      <trkpt lat="28.6428920" lon="-17.8793220">
        <ele>668.6</ele>
        <time>2020-11-17T08:48:48Z</time>
      </trkpt>
      <trkpt lat="28.6428620" lon="-17.8793000">
        <ele>668.9</ele>
        <time>2020-11-17T08:48:49Z</time>
      </trkpt>
      <trkpt lat="28.6428620" lon="-17.8793000">
        <ele>668.9</ele>
        <time>2020-11-17T08:48:50Z</time>
      </trkpt>
      <trkpt lat="28.6428320" lon="-17.8792780">
        <ele>669.2</ele>
        <time>2020-11-17T08:48:51Z</time>
      </trkpt>
      <trkpt lat="28.6428150" lon="-17.8792650">
        <ele>669.3</ele>
        <time>2020-11-17T08:48:52Z</time>
      </trkpt>
      <trkpt lat="28.6427980" lon="-17.8792550">
        <ele>669.4</ele>
        <time>2020-11-17T08:48:53Z</time>
      </trkpt>
      <trkpt lat="28.6427980" lon="-17.8792550">
        <ele>669.4</ele>
        <time>2020-11-17T08:48:54Z</time>
      </trkpt>
      <trkpt lat="28.6427600" lon="-17.8792400">
        <ele>669.7</ele>
        <time>2020-11-17T08:48:55Z</time>
      </trkpt>
      <trkpt lat="28.6427600" lon="-17.8792400">
        <ele>669.7</ele>
        <time>2020-11-17T08:48:56Z</time>
      </trkpt>
      <trkpt lat="28.6427250" lon="-17.8792180">
        <ele>670.0</ele>
        <time>2020-11-17T08:48:57Z</time>
      </trkpt>
      <trkpt lat="28.6427070" lon="-17.8792080">
        <ele>670.2</ele>
        <time>2020-11-17T08:48:58Z</time>
      </trkpt>
      <trkpt lat="28.6427070" lon="-17.8792080">
        <ele>670.2</ele>
        <time>2020-11-17T08:48:59Z</time>
      </trkpt>
      <trkpt lat="28.6426770" lon="-17.8791830">
        <ele>670.5</ele>
        <time>2020-11-17T08:49:00Z</time>
      </trkpt>
      <trkpt lat="28.6426770" lon="-17.8791830">
        <ele>670.5</ele>
        <time>2020-11-17T08:49:01Z</time>
      </trkpt>
      <trkpt lat="28.6426400" lon="-17.8791630">
        <ele>670.8</ele>
        <time>2020-11-17T08:49:02Z</time>
      </trkpt>
      <trkpt lat="28.6426400" lon="-17.8791630">
        <ele>670.8</ele>
        <time>2020-11-17T08:49:03Z</time>
      </trkpt>
      <trkpt lat="28.6426050" lon="-17.8791500">
        <ele>671.0</ele>
        <time>2020-11-17T08:49:04Z</time>
      </trkpt>
      <trkpt lat="28.6425850" lon="-17.8791420">
        <ele>671.2</ele>
        <time>2020-11-17T08:49:05Z</time>
      </trkpt>
      <trkpt lat="28.6425850" lon="-17.8791420">
        <ele>671.2</ele>
        <time>2020-11-17T08:49:06Z</time>
      </trkpt>
      <trkpt lat="28.6425520" lon="-17.8791220">
        <ele>671.5</ele>
        <time>2020-11-17T08:49:07Z</time>
      </trkpt>
      <trkpt lat="28.6425520" lon="-17.8791220">
        <ele>671.5</ele>
        <time>2020-11-17T08:49:08Z</time>
      </trkpt>
      <trkpt lat="28.6425150" lon="-17.8791030">
        <ele>671.8</ele>
        <time>2020-11-17T08:49:09Z</time>
      </trkpt>
      <trkpt lat="28.6425150" lon="-17.8791030">
        <ele>671.8</ele>
        <time>2020-11-17T08:49:10Z</time>
      </trkpt>
      <trkpt lat="28.6424730" lon="-17.8790850">
        <ele>672.1</ele>
        <time>2020-11-17T08:49:11Z</time>
      </trkpt>
      <trkpt lat="28.6424550" lon="-17.8790730">
        <ele>672.3</ele>
        <time>2020-11-17T08:49:12Z</time>
      </trkpt>
      <trkpt lat="28.6424350" lon="-17.8790600">
        <ele>672.5</ele>
        <time>2020-11-17T08:49:13Z</time>
      </trkpt>
      <trkpt lat="28.6424350" lon="-17.8790600">
        <ele>672.5</ele>
        <time>2020-11-17T08:49:14Z</time>
      </trkpt>
      <trkpt lat="28.6423930" lon="-17.8790420">
        <ele>672.8</ele>
        <time>2020-11-17T08:49:15Z</time>
      </trkpt>
      <trkpt lat="28.6423930" lon="-17.8790420">
        <ele>672.8</ele>
        <time>2020-11-17T08:49:16Z</time>
      </trkpt>
      <trkpt lat="28.6423550" lon="-17.8790230">
        <ele>673.1</ele>
        <time>2020-11-17T08:49:17Z</time>
      </trkpt>
      <trkpt lat="28.6423380" lon="-17.8790120">
        <ele>673.3</ele>
        <time>2020-11-17T08:49:18Z</time>
      </trkpt>
      <trkpt lat="28.6423380" lon="-17.8790120">
        <ele>673.3</ele>
        <time>2020-11-17T08:49:19Z</time>
      </trkpt>
      <trkpt lat="28.6423020" lon="-17.8789900">
        <ele>673.6</ele>
        <time>2020-11-17T08:49:20Z</time>
      </trkpt>
      <trkpt lat="28.6423020" lon="-17.8789900">
        <ele>673.6</ele>
        <time>2020-11-17T08:49:21Z</time>
      </trkpt>
      <trkpt lat="28.6422650" lon="-17.8789700">
        <ele>673.9</ele>
        <time>2020-11-17T08:49:22Z</time>
      </trkpt>
      <trkpt lat="28.6422650" lon="-17.8789700">
        <ele>673.9</ele>
        <time>2020-11-17T08:49:23Z</time>
      </trkpt>
      <trkpt lat="28.6422250" lon="-17.8789550">
        <ele>674.2</ele>
        <time>2020-11-17T08:49:24Z</time>
      </trkpt>
      <trkpt lat="28.6422250" lon="-17.8789550">
        <ele>674.2</ele>
        <time>2020-11-17T08:49:25Z</time>
      </trkpt>
      <trkpt lat="28.6421830" lon="-17.8789430">
        <ele>674.5</ele>
        <time>2020-11-17T08:49:26Z</time>
      </trkpt>
      <trkpt lat="28.6421830" lon="-17.8789430">
        <ele>674.5</ele>
        <time>2020-11-17T08:49:27Z</time>
      </trkpt>
      <trkpt lat="28.6421450" lon="-17.8789330">
        <ele>674.8</ele>
        <time>2020-11-17T08:49:28Z</time>
      </trkpt>
      <trkpt lat="28.6421230" lon="-17.8789320">
        <ele>674.9</ele>
        <time>2020-11-17T08:49:29Z</time>
      </trkpt>
      <trkpt lat="28.6421030" lon="-17.8789330">
        <ele>675.1</ele>
        <time>2020-11-17T08:49:30Z</time>
      </trkpt>
      <trkpt lat="28.6421030" lon="-17.8789330">
        <ele>675.1</ele>
        <time>2020-11-17T08:49:31Z</time>
      </trkpt>
      <trkpt lat="28.6420600" lon="-17.8789330">
        <ele>675.4</ele>
        <time>2020-11-17T08:49:32Z</time>
      </trkpt>
      <trkpt lat="28.6420400" lon="-17.8789320">
        <ele>675.5</ele>
        <time>2020-11-17T08:49:33Z</time>
      </trkpt>
      <trkpt lat="28.6420400" lon="-17.8789320">
        <ele>675.5</ele>
        <time>2020-11-17T08:49:34Z</time>
      </trkpt>
      <trkpt lat="28.6419970" lon="-17.8789370">
        <ele>675.8</ele>
        <time>2020-11-17T08:49:35Z</time>
      </trkpt>
      <trkpt lat="28.6419970" lon="-17.8789370">
        <ele>675.8</ele>
        <time>2020-11-17T08:49:36Z</time>
      </trkpt>
      <trkpt lat="28.6419530" lon="-17.8789430">
        <ele>676.1</ele>
        <time>2020-11-17T08:49:37Z</time>
      </trkpt>
      <trkpt lat="28.6419320" lon="-17.8789450">
        <ele>676.3</ele>
        <time>2020-11-17T08:49:38Z</time>
      </trkpt>
      <trkpt lat="28.6419320" lon="-17.8789450">
        <ele>676.3</ele>
        <time>2020-11-17T08:49:39Z</time>
      </trkpt>
      <trkpt lat="28.6418880" lon="-17.8789530">
        <ele>676.6</ele>
        <time>2020-11-17T08:49:40Z</time>
      </trkpt>
      <trkpt lat="28.6418880" lon="-17.8789530">
        <ele>676.6</ele>
        <time>2020-11-17T08:49:41Z</time>
      </trkpt>
      <trkpt lat="28.6418430" lon="-17.8789580">
        <ele>676.9</ele>
        <time>2020-11-17T08:49:42Z</time>
      </trkpt>
      <trkpt lat="28.6418430" lon="-17.8789580">
        <ele>676.9</ele>
        <time>2020-11-17T08:49:43Z</time>
      </trkpt>
      <trkpt lat="28.6418000" lon="-17.8789620">
        <ele>677.2</ele>
        <time>2020-11-17T08:49:44Z</time>
      </trkpt>
      <trkpt lat="28.6418000" lon="-17.8789620">
        <ele>677.2</ele>
        <time>2020-11-17T08:49:45Z</time>
      </trkpt>
      <trkpt lat="28.6417570" lon="-17.8789650">
        <ele>677.5</ele>
        <time>2020-11-17T08:49:46Z</time>
      </trkpt>
      <trkpt lat="28.6417570" lon="-17.8789650">
        <ele>677.5</ele>
        <time>2020-11-17T08:49:47Z</time>
      </trkpt>
      <trkpt lat="28.6417150" lon="-17.8789700">
        <ele>677.8</ele>
        <time>2020-11-17T08:49:48Z</time>
      </trkpt>
      <trkpt lat="28.6417150" lon="-17.8789700">
        <ele>677.8</ele>
        <time>2020-11-17T08:49:49Z</time>
      </trkpt>
      <trkpt lat="28.6416730" lon="-17.8789770">
        <ele>678.1</ele>
        <time>2020-11-17T08:49:50Z</time>
      </trkpt>
      <trkpt lat="28.6416730" lon="-17.8789770">
        <ele>678.1</ele>
        <time>2020-11-17T08:49:51Z</time>
      </trkpt>
      <trkpt lat="28.6416320" lon="-17.8789830">
        <ele>678.4</ele>
        <time>2020-11-17T08:49:52Z</time>
      </trkpt>
      <trkpt lat="28.6416320" lon="-17.8789830">
        <ele>678.4</ele>
        <time>2020-11-17T08:49:53Z</time>
      </trkpt>
      <trkpt lat="28.6415880" lon="-17.8789850">
        <ele>678.7</ele>
        <time>2020-11-17T08:49:54Z</time>
      </trkpt>
      <trkpt lat="28.6415880" lon="-17.8789850">
        <ele>678.7</ele>
        <time>2020-11-17T08:49:55Z</time>
      </trkpt>
      <trkpt lat="28.6415450" lon="-17.8789880">
        <ele>679.0</ele>
        <time>2020-11-17T08:49:56Z</time>
      </trkpt>
      <trkpt lat="28.6415450" lon="-17.8789880">
        <ele>679.0</ele>
        <time>2020-11-17T08:49:57Z</time>
      </trkpt>
      <trkpt lat="28.6415030" lon="-17.8789970">
        <ele>679.2</ele>
        <time>2020-11-17T08:49:58Z</time>
      </trkpt>
      <trkpt lat="28.6414820" lon="-17.8790000">
        <ele>679.4</ele>
        <time>2020-11-17T08:49:59Z</time>
      </trkpt>
      <trkpt lat="28.6414600" lon="-17.8790020">
        <ele>679.5</ele>
        <time>2020-11-17T08:50:00Z</time>
      </trkpt>
      <trkpt lat="28.6414600" lon="-17.8790020">
        <ele>679.5</ele>
        <time>2020-11-17T08:50:01Z</time>
      </trkpt>
      <trkpt lat="28.6414170" lon="-17.8790030">
        <ele>679.8</ele>
        <time>2020-11-17T08:50:02Z</time>
      </trkpt>
      <trkpt lat="28.6414170" lon="-17.8790030">
        <ele>679.8</ele>
        <time>2020-11-17T08:50:03Z</time>
      </trkpt>
      <trkpt lat="28.6413730" lon="-17.8790070">
        <ele>680.0</ele>
        <time>2020-11-17T08:50:04Z</time>
      </trkpt>
      <trkpt lat="28.6413520" lon="-17.8790100">
        <ele>680.2</ele>
        <time>2020-11-17T08:50:05Z</time>
      </trkpt>
      <trkpt lat="28.6413520" lon="-17.8790100">
        <ele>680.2</ele>
        <time>2020-11-17T08:50:06Z</time>
      </trkpt>
      <trkpt lat="28.6413080" lon="-17.8790170">
        <ele>680.5</ele>
        <time>2020-11-17T08:50:07Z</time>
      </trkpt>
      <trkpt lat="28.6413080" lon="-17.8790170">
        <ele>680.5</ele>
        <time>2020-11-17T08:50:08Z</time>
      </trkpt>
      <trkpt lat="28.6412650" lon="-17.8790220">
        <ele>680.7</ele>
        <time>2020-11-17T08:50:09Z</time>
      </trkpt>
      <trkpt lat="28.6412650" lon="-17.8790220">
        <ele>680.7</ele>
        <time>2020-11-17T08:50:10Z</time>
      </trkpt>
      <trkpt lat="28.6412170" lon="-17.8790270">
        <ele>681.0</ele>
        <time>2020-11-17T08:50:11Z</time>
      </trkpt>
      <trkpt lat="28.6411900" lon="-17.8790280">
        <ele>681.2</ele>
        <time>2020-11-17T08:50:12Z</time>
      </trkpt>
      <trkpt lat="28.6411900" lon="-17.8790280">
        <ele>681.2</ele>
        <time>2020-11-17T08:50:13Z</time>
      </trkpt>
      <trkpt lat="28.6411450" lon="-17.8790330">
        <ele>681.5</ele>
        <time>2020-11-17T08:50:14Z</time>
      </trkpt>
      <trkpt lat="28.6411450" lon="-17.8790330">
        <ele>681.5</ele>
        <time>2020-11-17T08:50:15Z</time>
      </trkpt>
      <trkpt lat="28.6411000" lon="-17.8790420">
        <ele>681.8</ele>
        <time>2020-11-17T08:50:16Z</time>
      </trkpt>
      <trkpt lat="28.6410780" lon="-17.8790470">
        <ele>682.0</ele>
        <time>2020-11-17T08:50:17Z</time>
      </trkpt>
      <trkpt lat="28.6410550" lon="-17.8790500">
        <ele>682.1</ele>
        <time>2020-11-17T08:50:18Z</time>
      </trkpt>
      <trkpt lat="28.6410550" lon="-17.8790500">
        <ele>682.1</ele>
        <time>2020-11-17T08:50:19Z</time>
      </trkpt>
      <trkpt lat="28.6410070" lon="-17.8790550">
        <ele>682.4</ele>
        <time>2020-11-17T08:50:20Z</time>
      </trkpt>
      <trkpt lat="28.6410070" lon="-17.8790550">
        <ele>682.4</ele>
        <time>2020-11-17T08:50:21Z</time>
      </trkpt>
      <trkpt lat="28.6409630" lon="-17.8790580">
        <ele>682.7</ele>
        <time>2020-11-17T08:50:22Z</time>
      </trkpt>
      <trkpt lat="28.6409400" lon="-17.8790600">
        <ele>682.9</ele>
        <time>2020-11-17T08:50:23Z</time>
      </trkpt>
      <trkpt lat="28.6409400" lon="-17.8790600">
        <ele>682.9</ele>
        <time>2020-11-17T08:50:24Z</time>
      </trkpt>
      <trkpt lat="28.6408950" lon="-17.8790600">
        <ele>683.2</ele>
        <time>2020-11-17T08:50:25Z</time>
      </trkpt>
      <trkpt lat="28.6408950" lon="-17.8790600">
        <ele>683.2</ele>
        <time>2020-11-17T08:50:26Z</time>
      </trkpt>
      <trkpt lat="28.6408520" lon="-17.8790630">
        <ele>683.4</ele>
        <time>2020-11-17T08:50:27Z</time>
      </trkpt>
      <trkpt lat="28.6408300" lon="-17.8790650">
        <ele>683.6</ele>
        <time>2020-11-17T08:50:28Z</time>
      </trkpt>
      <trkpt lat="28.6408300" lon="-17.8790650">
        <ele>683.6</ele>
        <time>2020-11-17T08:50:29Z</time>
      </trkpt>
      <trkpt lat="28.6407870" lon="-17.8790680">
        <ele>683.8</ele>
        <time>2020-11-17T08:50:30Z</time>
      </trkpt>
      <trkpt lat="28.6407870" lon="-17.8790680">
        <ele>683.8</ele>
        <time>2020-11-17T08:50:31Z</time>
      </trkpt>
      <trkpt lat="28.6407430" lon="-17.8790730">
        <ele>684.1</ele>
        <time>2020-11-17T08:50:32Z</time>
      </trkpt>
      <trkpt lat="28.6407430" lon="-17.8790730">
        <ele>684.1</ele>
        <time>2020-11-17T08:50:33Z</time>
      </trkpt>
      <trkpt lat="28.6406980" lon="-17.8790770">
        <ele>684.3</ele>
        <time>2020-11-17T08:50:34Z</time>
      </trkpt>
      <trkpt lat="28.6406770" lon="-17.8790770">
        <ele>684.4</ele>
        <time>2020-11-17T08:50:35Z</time>
      </trkpt>
      <trkpt lat="28.6406770" lon="-17.8790770">
        <ele>684.4</ele>
        <time>2020-11-17T08:50:36Z</time>
      </trkpt>
      <trkpt lat="28.6406350" lon="-17.8790700">
        <ele>684.6</ele>
        <time>2020-11-17T08:50:37Z</time>
      </trkpt>
      <trkpt lat="28.6406350" lon="-17.8790700">
        <ele>684.6</ele>
        <time>2020-11-17T08:50:38Z</time>
      </trkpt>
      <trkpt lat="28.6406350" lon="-17.8790700">
        <ele>684.6</ele>
        <time>2020-11-17T08:50:39Z</time>
      </trkpt>
      <trkpt lat="28.6405980" lon="-17.8790700">
        <ele>684.8</ele>
        <time>2020-11-17T08:50:40Z</time>
      </trkpt>
      <trkpt lat="28.6405600" lon="-17.8790800">
        <ele>684.9</ele>
        <time>2020-11-17T08:50:41Z</time>
      </trkpt>
      <trkpt lat="28.6405600" lon="-17.8790800">
        <ele>684.9</ele>
        <time>2020-11-17T08:50:42Z</time>
      </trkpt>
      <trkpt lat="28.6405180" lon="-17.8790830">
        <ele>685.1</ele>
        <time>2020-11-17T08:50:43Z</time>
      </trkpt>
      <trkpt lat="28.6405180" lon="-17.8790830">
        <ele>685.1</ele>
        <time>2020-11-17T08:50:44Z</time>
      </trkpt>
      <trkpt lat="28.6404750" lon="-17.8790820">
        <ele>685.3</ele>
        <time>2020-11-17T08:50:45Z</time>
      </trkpt>
      <trkpt lat="28.6404750" lon="-17.8790820">
        <ele>685.3</ele>
        <time>2020-11-17T08:50:46Z</time>
      </trkpt>
      <trkpt lat="28.6404270" lon="-17.8790850">
        <ele>685.4</ele>
        <time>2020-11-17T08:50:47Z</time>
      </trkpt>
      <trkpt lat="28.6404000" lon="-17.8790900">
        <ele>685.5</ele>
        <time>2020-11-17T08:50:48Z</time>
      </trkpt>
      <trkpt lat="28.6404000" lon="-17.8790900">
        <ele>685.5</ele>
        <time>2020-11-17T08:50:49Z</time>
      </trkpt>
      <trkpt lat="28.6403480" lon="-17.8790920">
        <ele>685.7</ele>
        <time>2020-11-17T08:50:50Z</time>
      </trkpt>
      <trkpt lat="28.6403480" lon="-17.8790920">
        <ele>685.7</ele>
        <time>2020-11-17T08:50:51Z</time>
      </trkpt>
      <trkpt lat="28.6402970" lon="-17.8790900">
        <ele>685.8</ele>
        <time>2020-11-17T08:50:52Z</time>
      </trkpt>
      <trkpt lat="28.6402720" lon="-17.8790870">
        <ele>685.9</ele>
        <time>2020-11-17T08:50:53Z</time>
      </trkpt>
      <trkpt lat="28.6402450" lon="-17.8790830">
        <ele>685.9</ele>
        <time>2020-11-17T08:50:54Z</time>
      </trkpt>
      <trkpt lat="28.6402450" lon="-17.8790830">
        <ele>685.9</ele>
        <time>2020-11-17T08:50:55Z</time>
      </trkpt>
      <trkpt lat="28.6401900" lon="-17.8790780">
        <ele>686.0</ele>
        <time>2020-11-17T08:50:56Z</time>
      </trkpt>
      <trkpt lat="28.6401630" lon="-17.8790750">
        <ele>686.1</ele>
        <time>2020-11-17T08:50:57Z</time>
      </trkpt>
      <trkpt lat="28.6401630" lon="-17.8790750">
        <ele>686.1</ele>
        <time>2020-11-17T08:50:58Z</time>
      </trkpt>
      <trkpt lat="28.6401120" lon="-17.8790630">
        <ele>686.2</ele>
        <time>2020-11-17T08:50:59Z</time>
      </trkpt>
      <trkpt lat="28.6400850" lon="-17.8790530">
        <ele>686.2</ele>
        <time>2020-11-17T08:51:00Z</time>
      </trkpt>
      <trkpt lat="28.6400850" lon="-17.8790530">
        <ele>686.2</ele>
        <time>2020-11-17T08:51:01Z</time>
      </trkpt>
      <trkpt lat="28.6400370" lon="-17.8790300">
        <ele>686.2</ele>
        <time>2020-11-17T08:51:02Z</time>
      </trkpt>
      <trkpt lat="28.6400370" lon="-17.8790300">
        <ele>686.2</ele>
        <time>2020-11-17T08:51:03Z</time>
      </trkpt>
      <trkpt lat="28.6399830" lon="-17.8789980">
        <ele>686.3</ele>
        <time>2020-11-17T08:51:04Z</time>
      </trkpt>
      <trkpt lat="28.6399830" lon="-17.8789980">
        <ele>686.3</ele>
        <time>2020-11-17T08:51:05Z</time>
      </trkpt>
      <trkpt lat="28.6399280" lon="-17.8789580">
        <ele>686.3</ele>
        <time>2020-11-17T08:51:06Z</time>
      </trkpt>
      <trkpt lat="28.6399280" lon="-17.8789580">
        <ele>686.3</ele>
        <time>2020-11-17T08:51:07Z</time>
      </trkpt>
      <trkpt lat="28.6398680" lon="-17.8789100">
        <ele>686.3</ele>
        <time>2020-11-17T08:51:08Z</time>
      </trkpt>
      <trkpt lat="28.6398330" lon="-17.8788870">
        <ele>686.3</ele>
        <time>2020-11-17T08:51:09Z</time>
      </trkpt>
      <trkpt lat="28.6398330" lon="-17.8788870">
        <ele>686.3</ele>
        <time>2020-11-17T08:51:10Z</time>
      </trkpt>
      <trkpt lat="28.6397680" lon="-17.8788400">
        <ele>686.3</ele>
        <time>2020-11-17T08:51:11Z</time>
      </trkpt>
      <trkpt lat="28.6397370" lon="-17.8788170">
        <ele>686.3</ele>
        <time>2020-11-17T08:51:12Z</time>
      </trkpt>
      <trkpt lat="28.6397370" lon="-17.8788170">
        <ele>686.3</ele>
        <time>2020-11-17T08:51:13Z</time>
      </trkpt>
      <trkpt lat="28.6396750" lon="-17.8787670">
        <ele>686.3</ele>
        <time>2020-11-17T08:51:14Z</time>
      </trkpt>
      <trkpt lat="28.6396750" lon="-17.8787670">
        <ele>686.3</ele>
        <time>2020-11-17T08:51:15Z</time>
      </trkpt>
      <trkpt lat="28.6396150" lon="-17.8787150">
        <ele>686.3</ele>
        <time>2020-11-17T08:51:16Z</time>
      </trkpt>
      <trkpt lat="28.6396150" lon="-17.8787150">
        <ele>686.3</ele>
        <time>2020-11-17T08:51:17Z</time>
      </trkpt>
      <trkpt lat="28.6395550" lon="-17.8786680">
        <ele>686.4</ele>
        <time>2020-11-17T08:51:18Z</time>
      </trkpt>
      <trkpt lat="28.6395550" lon="-17.8786680">
        <ele>686.4</ele>
        <time>2020-11-17T08:51:19Z</time>
      </trkpt>
      <trkpt lat="28.6394920" lon="-17.8786180">
        <ele>686.5</ele>
        <time>2020-11-17T08:51:20Z</time>
      </trkpt>
      <trkpt lat="28.6394920" lon="-17.8786180">
        <ele>686.5</ele>
        <time>2020-11-17T08:51:21Z</time>
      </trkpt>
      <trkpt lat="28.6394300" lon="-17.8785700">
        <ele>686.6</ele>
        <time>2020-11-17T08:51:22Z</time>
      </trkpt>
      <trkpt lat="28.6394300" lon="-17.8785700">
        <ele>686.6</ele>
        <time>2020-11-17T08:51:23Z</time>
      </trkpt>
      <trkpt lat="28.6393680" lon="-17.8785250">
        <ele>686.8</ele>
        <time>2020-11-17T08:51:24Z</time>
      </trkpt>
      <trkpt lat="28.6393680" lon="-17.8785250">
        <ele>686.8</ele>
        <time>2020-11-17T08:51:25Z</time>
      </trkpt>
      <trkpt lat="28.6393120" lon="-17.8784770">
        <ele>686.9</ele>
        <time>2020-11-17T08:51:26Z</time>
      </trkpt>
      <trkpt lat="28.6393120" lon="-17.8784770">
        <ele>686.9</ele>
        <time>2020-11-17T08:51:27Z</time>
      </trkpt>
      <trkpt lat="28.6392570" lon="-17.8784350">
        <ele>687.0</ele>
        <time>2020-11-17T08:51:28Z</time>
      </trkpt>
      <trkpt lat="28.6392570" lon="-17.8784350">
        <ele>687.0</ele>
        <time>2020-11-17T08:51:29Z</time>
      </trkpt>
      <trkpt lat="28.6392020" lon="-17.8783920">
        <ele>687.2</ele>
        <time>2020-11-17T08:51:30Z</time>
      </trkpt>
      <trkpt lat="28.6392020" lon="-17.8783920">
        <ele>687.2</ele>
        <time>2020-11-17T08:51:31Z</time>
      </trkpt>
      <trkpt lat="28.6391450" lon="-17.8783480">
        <ele>687.3</ele>
        <time>2020-11-17T08:51:32Z</time>
      </trkpt>
      <trkpt lat="28.6391180" lon="-17.8783270">
        <ele>687.4</ele>
        <time>2020-11-17T08:51:33Z</time>
      </trkpt>
      <trkpt lat="28.6391180" lon="-17.8783270">
        <ele>687.4</ele>
        <time>2020-11-17T08:51:34Z</time>
      </trkpt>
      <trkpt lat="28.6390650" lon="-17.8782820">
        <ele>687.5</ele>
        <time>2020-11-17T08:51:35Z</time>
      </trkpt>
      <trkpt lat="28.6390380" lon="-17.8782600">
        <ele>687.6</ele>
        <time>2020-11-17T08:51:36Z</time>
      </trkpt>
      <trkpt lat="28.6390100" lon="-17.8782380">
        <ele>687.7</ele>
        <time>2020-11-17T08:51:37Z</time>
      </trkpt>
      <trkpt lat="28.6390100" lon="-17.8782380">
        <ele>687.7</ele>
        <time>2020-11-17T08:51:38Z</time>
      </trkpt>
      <trkpt lat="28.6389570" lon="-17.8781970">
        <ele>687.9</ele>
        <time>2020-11-17T08:51:39Z</time>
      </trkpt>
      <trkpt lat="28.6389570" lon="-17.8781970">
        <ele>687.9</ele>
        <time>2020-11-17T08:51:40Z</time>
      </trkpt>
      <trkpt lat="28.6389030" lon="-17.8781550">
        <ele>688.0</ele>
        <time>2020-11-17T08:51:41Z</time>
      </trkpt>
      <trkpt lat="28.6388750" lon="-17.8781320">
        <ele>688.1</ele>
        <time>2020-11-17T08:51:42Z</time>
      </trkpt>
      <trkpt lat="28.6388750" lon="-17.8781320">
        <ele>688.1</ele>
        <time>2020-11-17T08:51:43Z</time>
      </trkpt>
      <trkpt lat="28.6388250" lon="-17.8780870">
        <ele>688.3</ele>
        <time>2020-11-17T08:51:44Z</time>
      </trkpt>
      <trkpt lat="28.6388250" lon="-17.8780870">
        <ele>688.3</ele>
        <time>2020-11-17T08:51:45Z</time>
      </trkpt>
      <trkpt lat="28.6387720" lon="-17.8780420">
        <ele>688.5</ele>
        <time>2020-11-17T08:51:46Z</time>
      </trkpt>
      <trkpt lat="28.6387720" lon="-17.8780420">
        <ele>688.5</ele>
        <time>2020-11-17T08:51:47Z</time>
      </trkpt>
      <trkpt lat="28.6387220" lon="-17.8780000">
        <ele>688.7</ele>
        <time>2020-11-17T08:51:48Z</time>
      </trkpt>
      <trkpt lat="28.6387220" lon="-17.8780000">
        <ele>688.7</ele>
        <time>2020-11-17T08:51:49Z</time>
      </trkpt>
      <trkpt lat="28.6386700" lon="-17.8779600">
        <ele>688.9</ele>
        <time>2020-11-17T08:51:50Z</time>
      </trkpt>
      <trkpt lat="28.6386430" lon="-17.8779400">
        <ele>688.9</ele>
        <time>2020-11-17T08:51:51Z</time>
      </trkpt>
      <trkpt lat="28.6386430" lon="-17.8779400">
        <ele>688.9</ele>
        <time>2020-11-17T08:51:52Z</time>
      </trkpt>
      <trkpt lat="28.6385920" lon="-17.8778980">
        <ele>689.1</ele>
        <time>2020-11-17T08:51:53Z</time>
      </trkpt>
      <trkpt lat="28.6385670" lon="-17.8778770">
        <ele>689.2</ele>
        <time>2020-11-17T08:51:54Z</time>
      </trkpt>
      <trkpt lat="28.6385670" lon="-17.8778770">
        <ele>689.2</ele>
        <time>2020-11-17T08:51:55Z</time>
      </trkpt>
      <trkpt lat="28.6385130" lon="-17.8778330">
        <ele>689.3</ele>
        <time>2020-11-17T08:51:56Z</time>
      </trkpt>
      <trkpt lat="28.6385130" lon="-17.8778330">
        <ele>689.3</ele>
        <time>2020-11-17T08:51:57Z</time>
      </trkpt>
      <trkpt lat="28.6384620" lon="-17.8777930">
        <ele>689.4</ele>
        <time>2020-11-17T08:51:58Z</time>
      </trkpt>
      <trkpt lat="28.6384620" lon="-17.8777930">
        <ele>689.4</ele>
        <time>2020-11-17T08:51:59Z</time>
      </trkpt>
      <trkpt lat="28.6384100" lon="-17.8777550">
        <ele>689.6</ele>
        <time>2020-11-17T08:52:00Z</time>
      </trkpt>
      <trkpt lat="28.6384100" lon="-17.8777550">
        <ele>689.6</ele>
        <time>2020-11-17T08:52:01Z</time>
      </trkpt>
      <trkpt lat="28.6383580" lon="-17.8777130">
        <ele>689.8</ele>
        <time>2020-11-17T08:52:02Z</time>
      </trkpt>
      <trkpt lat="28.6383580" lon="-17.8777130">
        <ele>689.8</ele>
        <time>2020-11-17T08:52:03Z</time>
      </trkpt>
      <trkpt lat="28.6383020" lon="-17.8776720">
        <ele>690.0</ele>
        <time>2020-11-17T08:52:04Z</time>
      </trkpt>
      <trkpt lat="28.6383020" lon="-17.8776720">
        <ele>690.0</ele>
        <time>2020-11-17T08:52:05Z</time>
      </trkpt>
      <trkpt lat="28.6382480" lon="-17.8776300">
        <ele>690.2</ele>
        <time>2020-11-17T08:52:06Z</time>
      </trkpt>
      <trkpt lat="28.6382480" lon="-17.8776300">
        <ele>690.2</ele>
        <time>2020-11-17T08:52:07Z</time>
      </trkpt>
      <trkpt lat="28.6381970" lon="-17.8775880">
        <ele>690.4</ele>
        <time>2020-11-17T08:52:08Z</time>
      </trkpt>
      <trkpt lat="28.6381970" lon="-17.8775880">
        <ele>690.4</ele>
        <time>2020-11-17T08:52:09Z</time>
      </trkpt>
      <trkpt lat="28.6381470" lon="-17.8775470">
        <ele>690.5</ele>
        <time>2020-11-17T08:52:10Z</time>
      </trkpt>
      <trkpt lat="28.6381200" lon="-17.8775270">
        <ele>690.6</ele>
        <time>2020-11-17T08:52:11Z</time>
      </trkpt>
      <trkpt lat="28.6380930" lon="-17.8775050">
        <ele>690.7</ele>
        <time>2020-11-17T08:52:12Z</time>
      </trkpt>
      <trkpt lat="28.6380930" lon="-17.8775050">
        <ele>690.7</ele>
        <time>2020-11-17T08:52:13Z</time>
      </trkpt>
      <trkpt lat="28.6380430" lon="-17.8774630">
        <ele>690.9</ele>
        <time>2020-11-17T08:52:14Z</time>
      </trkpt>
      <trkpt lat="28.6380430" lon="-17.8774630">
        <ele>690.9</ele>
        <time>2020-11-17T08:52:15Z</time>
      </trkpt>
      <trkpt lat="28.6379920" lon="-17.8774250">
        <ele>691.1</ele>
        <time>2020-11-17T08:52:16Z</time>
      </trkpt>
      <trkpt lat="28.6379650" lon="-17.8774080">
        <ele>691.2</ele>
        <time>2020-11-17T08:52:17Z</time>
      </trkpt>
      <trkpt lat="28.6379380" lon="-17.8773900">
        <ele>691.3</ele>
        <time>2020-11-17T08:52:18Z</time>
      </trkpt>
      <trkpt lat="28.6379380" lon="-17.8773900">
        <ele>691.3</ele>
        <time>2020-11-17T08:52:19Z</time>
      </trkpt>
      <trkpt lat="28.6378820" lon="-17.8773620">
        <ele>691.5</ele>
        <time>2020-11-17T08:52:20Z</time>
      </trkpt>
      <trkpt lat="28.6378820" lon="-17.8773620">
        <ele>691.5</ele>
        <time>2020-11-17T08:52:21Z</time>
      </trkpt>
      <trkpt lat="28.6378200" lon="-17.8773420">
        <ele>691.7</ele>
        <time>2020-11-17T08:52:22Z</time>
      </trkpt>
      <trkpt lat="28.6377900" lon="-17.8773320">
        <ele>691.8</ele>
        <time>2020-11-17T08:52:23Z</time>
      </trkpt>
      <trkpt lat="28.6377580" lon="-17.8773220">
        <ele>691.9</ele>
        <time>2020-11-17T08:52:24Z</time>
      </trkpt>
      <trkpt lat="28.6377580" lon="-17.8773220">
        <ele>691.9</ele>
        <time>2020-11-17T08:52:25Z</time>
      </trkpt>
      <trkpt lat="28.6376950" lon="-17.8773020">
        <ele>692.1</ele>
        <time>2020-11-17T08:52:26Z</time>
      </trkpt>
      <trkpt lat="28.6376950" lon="-17.8773020">
        <ele>692.1</ele>
        <time>2020-11-17T08:52:27Z</time>
      </trkpt>
      <trkpt lat="28.6376320" lon="-17.8772820">
        <ele>692.2</ele>
        <time>2020-11-17T08:52:28Z</time>
      </trkpt>
      <trkpt lat="28.6375980" lon="-17.8772750">
        <ele>692.3</ele>
        <time>2020-11-17T08:52:29Z</time>
      </trkpt>
      <trkpt lat="28.6375980" lon="-17.8772750">
        <ele>692.3</ele>
        <time>2020-11-17T08:52:30Z</time>
      </trkpt>
      <trkpt lat="28.6375350" lon="-17.8772630">
        <ele>692.4</ele>
        <time>2020-11-17T08:52:31Z</time>
      </trkpt>
      <trkpt lat="28.6375350" lon="-17.8772630">
        <ele>692.4</ele>
        <time>2020-11-17T08:52:32Z</time>
      </trkpt>
      <trkpt lat="28.6374720" lon="-17.8772500">
        <ele>692.5</ele>
        <time>2020-11-17T08:52:33Z</time>
      </trkpt>
      <trkpt lat="28.6374720" lon="-17.8772500">
        <ele>692.5</ele>
        <time>2020-11-17T08:52:34Z</time>
      </trkpt>
      <trkpt lat="28.6374100" lon="-17.8772380">
        <ele>692.7</ele>
        <time>2020-11-17T08:52:35Z</time>
      </trkpt>
      <trkpt lat="28.6373780" lon="-17.8772350">
        <ele>692.8</ele>
        <time>2020-11-17T08:52:36Z</time>
      </trkpt>
      <trkpt lat="28.6373780" lon="-17.8772350">
        <ele>692.8</ele>
        <time>2020-11-17T08:52:37Z</time>
      </trkpt>
      <trkpt lat="28.6373150" lon="-17.8772280">
        <ele>693.0</ele>
        <time>2020-11-17T08:52:38Z</time>
      </trkpt>
      <trkpt lat="28.6373150" lon="-17.8772280">
        <ele>693.0</ele>
        <time>2020-11-17T08:52:39Z</time>
      </trkpt>
      <trkpt lat="28.6372520" lon="-17.8772170">
        <ele>693.2</ele>
        <time>2020-11-17T08:52:40Z</time>
      </trkpt>
      <trkpt lat="28.6372520" lon="-17.8772170">
        <ele>693.2</ele>
        <time>2020-11-17T08:52:41Z</time>
      </trkpt>
      <trkpt lat="28.6371870" lon="-17.8772150">
        <ele>693.3</ele>
        <time>2020-11-17T08:52:42Z</time>
      </trkpt>
      <trkpt lat="28.6371870" lon="-17.8772150">
        <ele>693.3</ele>
        <time>2020-11-17T08:52:43Z</time>
      </trkpt>
      <trkpt lat="28.6371200" lon="-17.8772220">
        <ele>693.5</ele>
        <time>2020-11-17T08:52:44Z</time>
      </trkpt>
      <trkpt lat="28.6371200" lon="-17.8772220">
        <ele>693.5</ele>
        <time>2020-11-17T08:52:45Z</time>
      </trkpt>
      <trkpt lat="28.6370550" lon="-17.8772330">
        <ele>693.7</ele>
        <time>2020-11-17T08:52:46Z</time>
      </trkpt>
      <trkpt lat="28.6370250" lon="-17.8772400">
        <ele>693.8</ele>
        <time>2020-11-17T08:52:47Z</time>
      </trkpt>
      <trkpt lat="28.6369920" lon="-17.8772470">
        <ele>693.9</ele>
        <time>2020-11-17T08:52:48Z</time>
      </trkpt>
      <trkpt lat="28.6369920" lon="-17.8772470">
        <ele>693.9</ele>
        <time>2020-11-17T08:52:49Z</time>
      </trkpt>
      <trkpt lat="28.6369320" lon="-17.8772630">
        <ele>694.0</ele>
        <time>2020-11-17T08:52:50Z</time>
      </trkpt>
      <trkpt lat="28.6369320" lon="-17.8772630">
        <ele>694.0</ele>
        <time>2020-11-17T08:52:51Z</time>
      </trkpt>
      <trkpt lat="28.6368700" lon="-17.8772850">
        <ele>694.2</ele>
        <time>2020-11-17T08:52:52Z</time>
      </trkpt>
      <trkpt lat="28.6368700" lon="-17.8772850">
        <ele>694.2</ele>
        <time>2020-11-17T08:52:53Z</time>
      </trkpt>
      <trkpt lat="28.6368080" lon="-17.8773100">
        <ele>694.4</ele>
        <time>2020-11-17T08:52:54Z</time>
      </trkpt>
      <trkpt lat="28.6368080" lon="-17.8773100">
        <ele>694.4</ele>
        <time>2020-11-17T08:52:55Z</time>
      </trkpt>
      <trkpt lat="28.6367480" lon="-17.8773330">
        <ele>694.6</ele>
        <time>2020-11-17T08:52:56Z</time>
      </trkpt>
      <trkpt lat="28.6367480" lon="-17.8773330">
        <ele>694.6</ele>
        <time>2020-11-17T08:52:57Z</time>
      </trkpt>
      <trkpt lat="28.6366880" lon="-17.8773480">
        <ele>694.8</ele>
        <time>2020-11-17T08:52:58Z</time>
      </trkpt>
      <trkpt lat="28.6366880" lon="-17.8773480">
        <ele>694.8</ele>
        <time>2020-11-17T08:52:59Z</time>
      </trkpt>
      <trkpt lat="28.6366350" lon="-17.8773670">
        <ele>695.0</ele>
        <time>2020-11-17T08:53:00Z</time>
      </trkpt>
      <trkpt lat="28.6366350" lon="-17.8773670">
        <ele>695.0</ele>
        <time>2020-11-17T08:53:01Z</time>
      </trkpt>
      <trkpt lat="28.6365820" lon="-17.8773920">
        <ele>695.2</ele>
        <time>2020-11-17T08:53:02Z</time>
      </trkpt>
      <trkpt lat="28.6365550" lon="-17.8774020">
        <ele>695.3</ele>
        <time>2020-11-17T08:53:03Z</time>
      </trkpt>
      <trkpt lat="28.6365550" lon="-17.8774020">
        <ele>695.3</ele>
        <time>2020-11-17T08:53:04Z</time>
      </trkpt>
      <trkpt lat="28.6364970" lon="-17.8774150">
        <ele>695.5</ele>
        <time>2020-11-17T08:53:05Z</time>
      </trkpt>
      <trkpt lat="28.6364630" lon="-17.8774180">
        <ele>695.6</ele>
        <time>2020-11-17T08:53:06Z</time>
      </trkpt>
      <trkpt lat="28.6364630" lon="-17.8774180">
        <ele>695.6</ele>
        <time>2020-11-17T08:53:07Z</time>
      </trkpt>
      <trkpt lat="28.6363980" lon="-17.8774200">
        <ele>695.8</ele>
        <time>2020-11-17T08:53:08Z</time>
      </trkpt>
      <trkpt lat="28.6363980" lon="-17.8774200">
        <ele>695.8</ele>
        <time>2020-11-17T08:53:09Z</time>
      </trkpt>
      <trkpt lat="28.6363980" lon="-17.8774200">
        <ele>695.8</ele>
        <time>2020-11-17T08:53:10Z</time>
      </trkpt>
      <trkpt lat="28.6363330" lon="-17.8774050">
        <ele>696.0</ele>
        <time>2020-11-17T08:53:11Z</time>
      </trkpt>
      <trkpt lat="28.6362700" lon="-17.8773870">
        <ele>696.1</ele>
        <time>2020-11-17T08:53:12Z</time>
      </trkpt>
      <trkpt lat="28.6362700" lon="-17.8773870">
        <ele>696.1</ele>
        <time>2020-11-17T08:53:13Z</time>
      </trkpt>
      <trkpt lat="28.6362030" lon="-17.8773650">
        <ele>696.2</ele>
        <time>2020-11-17T08:53:14Z</time>
      </trkpt>
      <trkpt lat="28.6362030" lon="-17.8773650">
        <ele>696.2</ele>
        <time>2020-11-17T08:53:15Z</time>
      </trkpt>
      <trkpt lat="28.6361370" lon="-17.8773380">
        <ele>696.3</ele>
        <time>2020-11-17T08:53:16Z</time>
      </trkpt>
      <trkpt lat="28.6361370" lon="-17.8773380">
        <ele>696.3</ele>
        <time>2020-11-17T08:53:17Z</time>
      </trkpt>
      <trkpt lat="28.6360700" lon="-17.8773100">
        <ele>696.4</ele>
        <time>2020-11-17T08:53:18Z</time>
      </trkpt>
      <trkpt lat="28.6360380" lon="-17.8772950">
        <ele>696.4</ele>
        <time>2020-11-17T08:53:19Z</time>
      </trkpt>
      <trkpt lat="28.6360380" lon="-17.8772950">
        <ele>696.4</ele>
        <time>2020-11-17T08:53:20Z</time>
      </trkpt>
      <trkpt lat="28.6359720" lon="-17.8772680">
        <ele>696.4</ele>
        <time>2020-11-17T08:53:21Z</time>
      </trkpt>
      <trkpt lat="28.6359720" lon="-17.8772680">
        <ele>696.4</ele>
        <time>2020-11-17T08:53:22Z</time>
      </trkpt>
      <trkpt lat="28.6359020" lon="-17.8772420">
        <ele>696.4</ele>
        <time>2020-11-17T08:53:23Z</time>
      </trkpt>
      <trkpt lat="28.6358680" lon="-17.8772270">
        <ele>696.4</ele>
        <time>2020-11-17T08:53:24Z</time>
      </trkpt>
      <trkpt lat="28.6358680" lon="-17.8772270">
        <ele>696.4</ele>
        <time>2020-11-17T08:53:25Z</time>
      </trkpt>
      <trkpt lat="28.6358000" lon="-17.8771970">
        <ele>696.4</ele>
        <time>2020-11-17T08:53:26Z</time>
      </trkpt>
      <trkpt lat="28.6358000" lon="-17.8771970">
        <ele>696.4</ele>
        <time>2020-11-17T08:53:27Z</time>
      </trkpt>
      <trkpt lat="28.6357280" lon="-17.8771700">
        <ele>696.4</ele>
        <time>2020-11-17T08:53:28Z</time>
      </trkpt>
      <trkpt lat="28.6357280" lon="-17.8771700">
        <ele>696.4</ele>
        <time>2020-11-17T08:53:29Z</time>
      </trkpt>
      <trkpt lat="28.6356550" lon="-17.8771400">
        <ele>696.4</ele>
        <time>2020-11-17T08:53:30Z</time>
      </trkpt>
      <trkpt lat="28.6356550" lon="-17.8771400">
        <ele>696.4</ele>
        <time>2020-11-17T08:53:31Z</time>
      </trkpt>
      <trkpt lat="28.6355830" lon="-17.8771080">
        <ele>696.3</ele>
        <time>2020-11-17T08:53:32Z</time>
      </trkpt>
      <trkpt lat="28.6355830" lon="-17.8771080">
        <ele>696.3</ele>
        <time>2020-11-17T08:53:33Z</time>
      </trkpt>
      <trkpt lat="28.6355100" lon="-17.8770770">
        <ele>696.2</ele>
        <time>2020-11-17T08:53:34Z</time>
      </trkpt>
      <trkpt lat="28.6354730" lon="-17.8770600">
        <ele>696.1</ele>
        <time>2020-11-17T08:53:35Z</time>
      </trkpt>
      <trkpt lat="28.6354730" lon="-17.8770600">
        <ele>696.1</ele>
        <time>2020-11-17T08:53:36Z</time>
      </trkpt>
      <trkpt lat="28.6354000" lon="-17.8770250">
        <ele>695.9</ele>
        <time>2020-11-17T08:53:37Z</time>
      </trkpt>
      <trkpt lat="28.6354000" lon="-17.8770250">
        <ele>695.9</ele>
        <time>2020-11-17T08:53:38Z</time>
      </trkpt>
      <trkpt lat="28.6353280" lon="-17.8769880">
        <ele>695.7</ele>
        <time>2020-11-17T08:53:39Z</time>
      </trkpt>
      <trkpt lat="28.6353280" lon="-17.8769880">
        <ele>695.7</ele>
        <time>2020-11-17T08:53:40Z</time>
      </trkpt>
      <trkpt lat="28.6352470" lon="-17.8769530">
        <ele>695.3</ele>
        <time>2020-11-17T08:53:41Z</time>
      </trkpt>
      <trkpt lat="28.6352100" lon="-17.8769330">
        <ele>695.1</ele>
        <time>2020-11-17T08:53:42Z</time>
      </trkpt>
      <trkpt lat="28.6352100" lon="-17.8769330">
        <ele>695.1</ele>
        <time>2020-11-17T08:53:43Z</time>
      </trkpt>
      <trkpt lat="28.6351230" lon="-17.8768920">
        <ele>694.7</ele>
        <time>2020-11-17T08:53:44Z</time>
      </trkpt>
      <trkpt lat="28.6351230" lon="-17.8768920">
        <ele>694.7</ele>
        <time>2020-11-17T08:53:45Z</time>
      </trkpt>
      <trkpt lat="28.6350250" lon="-17.8768500">
        <ele>694.2</ele>
        <time>2020-11-17T08:53:46Z</time>
      </trkpt>
      <trkpt lat="28.6350250" lon="-17.8768500">
        <ele>694.2</ele>
        <time>2020-11-17T08:53:47Z</time>
      </trkpt>
      <trkpt lat="28.6349250" lon="-17.8768080">
        <ele>693.7</ele>
        <time>2020-11-17T08:53:48Z</time>
      </trkpt>
      <trkpt lat="28.6349250" lon="-17.8768080">
        <ele>693.7</ele>
        <time>2020-11-17T08:53:49Z</time>
      </trkpt>
      <trkpt lat="28.6348150" lon="-17.8767620">
        <ele>693.2</ele>
        <time>2020-11-17T08:53:50Z</time>
      </trkpt>
      <trkpt lat="28.6347600" lon="-17.8767400">
        <ele>692.9</ele>
        <time>2020-11-17T08:53:51Z</time>
      </trkpt>
      <trkpt lat="28.6347600" lon="-17.8767400">
        <ele>692.9</ele>
        <time>2020-11-17T08:53:52Z</time>
      </trkpt>
      <trkpt lat="28.6346520" lon="-17.8766950">
        <ele>692.4</ele>
        <time>2020-11-17T08:53:53Z</time>
      </trkpt>
      <trkpt lat="28.6345950" lon="-17.8766720">
        <ele>692.1</ele>
        <time>2020-11-17T08:53:54Z</time>
      </trkpt>
      <trkpt lat="28.6345950" lon="-17.8766720">
        <ele>692.1</ele>
        <time>2020-11-17T08:53:55Z</time>
      </trkpt>
      <trkpt lat="28.6344730" lon="-17.8766280">
        <ele>691.4</ele>
        <time>2020-11-17T08:53:56Z</time>
      </trkpt>
      <trkpt lat="28.6344730" lon="-17.8766280">
        <ele>691.4</ele>
        <time>2020-11-17T08:53:57Z</time>
      </trkpt>
      <trkpt lat="28.6343380" lon="-17.8765920">
        <ele>690.7</ele>
        <time>2020-11-17T08:53:58Z</time>
      </trkpt>
      <trkpt lat="28.6342670" lon="-17.8765800">
        <ele>690.4</ele>
        <time>2020-11-17T08:53:59Z</time>
      </trkpt>
      <trkpt lat="28.6342670" lon="-17.8765800">
        <ele>690.4</ele>
        <time>2020-11-17T08:54:00Z</time>
      </trkpt>
      <trkpt lat="28.6341130" lon="-17.8765720">
        <ele>689.6</ele>
        <time>2020-11-17T08:54:01Z</time>
      </trkpt>
      <trkpt lat="28.6340370" lon="-17.8765820">
        <ele>689.3</ele>
        <time>2020-11-17T08:54:02Z</time>
      </trkpt>
      <trkpt lat="28.6340370" lon="-17.8765820">
        <ele>689.3</ele>
        <time>2020-11-17T08:54:03Z</time>
      </trkpt>
      <trkpt lat="28.6338820" lon="-17.8766320">
        <ele>688.6</ele>
        <time>2020-11-17T08:54:04Z</time>
      </trkpt>
      <trkpt lat="28.6338820" lon="-17.8766320">
        <ele>688.6</ele>
        <time>2020-11-17T08:54:05Z</time>
      </trkpt>
      <trkpt lat="28.6337230" lon="-17.8766930">
        <ele>688.0</ele>
        <time>2020-11-17T08:54:06Z</time>
      </trkpt>
      <trkpt lat="28.6337230" lon="-17.8766930">
        <ele>688.0</ele>
        <time>2020-11-17T08:54:07Z</time>
      </trkpt>
      <trkpt lat="28.6335650" lon="-17.8767550">
        <ele>687.5</ele>
        <time>2020-11-17T08:54:08Z</time>
      </trkpt>
      <trkpt lat="28.6335650" lon="-17.8767550">
        <ele>687.5</ele>
        <time>2020-11-17T08:54:09Z</time>
      </trkpt>
      <trkpt lat="28.6334030" lon="-17.8768150">
        <ele>687.3</ele>
        <time>2020-11-17T08:54:10Z</time>
      </trkpt>
      <trkpt lat="28.6334030" lon="-17.8768150">
        <ele>687.3</ele>
        <time>2020-11-17T08:54:11Z</time>
      </trkpt>
      <trkpt lat="28.6332400" lon="-17.8768650">
        <ele>687.2</ele>
        <time>2020-11-17T08:54:12Z</time>
      </trkpt>
      <trkpt lat="28.6332400" lon="-17.8768650">
        <ele>687.2</ele>
        <time>2020-11-17T08:54:13Z</time>
      </trkpt>
      <trkpt lat="28.6330780" lon="-17.8768780">
        <ele>687.4</ele>
        <time>2020-11-17T08:54:14Z</time>
      </trkpt>
      <trkpt lat="28.6330780" lon="-17.8768780">
        <ele>687.4</ele>
        <time>2020-11-17T08:54:15Z</time>
      </trkpt>
      <trkpt lat="28.6329350" lon="-17.8768400">
        <ele>687.7</ele>
        <time>2020-11-17T08:54:16Z</time>
      </trkpt>
      <trkpt lat="28.6329350" lon="-17.8768400">
        <ele>687.7</ele>
        <time>2020-11-17T08:54:17Z</time>
      </trkpt>
      <trkpt lat="28.6328170" lon="-17.8767730">
        <ele>688.1</ele>
        <time>2020-11-17T08:54:18Z</time>
      </trkpt>
      <trkpt lat="28.6328170" lon="-17.8767730">
        <ele>688.1</ele>
        <time>2020-11-17T08:54:19Z</time>
      </trkpt>
      <trkpt lat="28.6327150" lon="-17.8767030">
        <ele>688.6</ele>
        <time>2020-11-17T08:54:20Z</time>
      </trkpt>
      <trkpt lat="28.6326680" lon="-17.8766700">
        <ele>688.9</ele>
        <time>2020-11-17T08:54:21Z</time>
      </trkpt>
      <trkpt lat="28.6326680" lon="-17.8766700">
        <ele>688.9</ele>
        <time>2020-11-17T08:54:22Z</time>
      </trkpt>
      <trkpt lat="28.6325820" lon="-17.8766130">
        <ele>689.4</ele>
        <time>2020-11-17T08:54:23Z</time>
      </trkpt>
      <trkpt lat="28.6325820" lon="-17.8766130">
        <ele>689.4</ele>
        <time>2020-11-17T08:54:24Z</time>
      </trkpt>
      <trkpt lat="28.6325030" lon="-17.8765650">
        <ele>689.9</ele>
        <time>2020-11-17T08:54:25Z</time>
      </trkpt>
      <trkpt lat="28.6325030" lon="-17.8765650">
        <ele>689.9</ele>
        <time>2020-11-17T08:54:26Z</time>
      </trkpt>
      <trkpt lat="28.6324370" lon="-17.8765220">
        <ele>690.4</ele>
        <time>2020-11-17T08:54:27Z</time>
      </trkpt>
      <trkpt lat="28.6324370" lon="-17.8765220">
        <ele>690.4</ele>
        <time>2020-11-17T08:54:28Z</time>
      </trkpt>
      <trkpt lat="28.6323770" lon="-17.8764770">
        <ele>690.8</ele>
        <time>2020-11-17T08:54:29Z</time>
      </trkpt>
      <trkpt lat="28.6323770" lon="-17.8764770">
        <ele>690.8</ele>
        <time>2020-11-17T08:54:30Z</time>
      </trkpt>
      <trkpt lat="28.6323180" lon="-17.8764350">
        <ele>691.3</ele>
        <time>2020-11-17T08:54:31Z</time>
      </trkpt>
      <trkpt lat="28.6323180" lon="-17.8764350">
        <ele>691.3</ele>
        <time>2020-11-17T08:54:32Z</time>
      </trkpt>
      <trkpt lat="28.6322650" lon="-17.8763970">
        <ele>691.7</ele>
        <time>2020-11-17T08:54:33Z</time>
      </trkpt>
      <trkpt lat="28.6322350" lon="-17.8763770">
        <ele>691.9</ele>
        <time>2020-11-17T08:54:34Z</time>
      </trkpt>
      <trkpt lat="28.6322350" lon="-17.8763770">
        <ele>691.9</ele>
        <time>2020-11-17T08:54:35Z</time>
      </trkpt>
      <trkpt lat="28.6321730" lon="-17.8763370">
        <ele>692.4</ele>
        <time>2020-11-17T08:54:36Z</time>
      </trkpt>
      <trkpt lat="28.6321430" lon="-17.8763130">
        <ele>692.6</ele>
        <time>2020-11-17T08:54:37Z</time>
      </trkpt>
      <trkpt lat="28.6321430" lon="-17.8763130">
        <ele>692.6</ele>
        <time>2020-11-17T08:54:38Z</time>
      </trkpt>
      <trkpt lat="28.6320850" lon="-17.8762720">
        <ele>693.1</ele>
        <time>2020-11-17T08:54:39Z</time>
      </trkpt>
      <trkpt lat="28.6320550" lon="-17.8762520">
        <ele>693.3</ele>
        <time>2020-11-17T08:54:40Z</time>
      </trkpt>
      <trkpt lat="28.6320550" lon="-17.8762520">
        <ele>693.3</ele>
        <time>2020-11-17T08:54:41Z</time>
      </trkpt>
      <trkpt lat="28.6319970" lon="-17.8762170">
        <ele>693.7</ele>
        <time>2020-11-17T08:54:42Z</time>
      </trkpt>
      <trkpt lat="28.6319970" lon="-17.8762170">
        <ele>693.7</ele>
        <time>2020-11-17T08:54:43Z</time>
      </trkpt>
      <trkpt lat="28.6319380" lon="-17.8761780">
        <ele>694.1</ele>
        <time>2020-11-17T08:54:44Z</time>
      </trkpt>
      <trkpt lat="28.6319100" lon="-17.8761580">
        <ele>694.3</ele>
        <time>2020-11-17T08:54:45Z</time>
      </trkpt>
      <trkpt lat="28.6319100" lon="-17.8761580">
        <ele>694.3</ele>
        <time>2020-11-17T08:54:46Z</time>
      </trkpt>
      <trkpt lat="28.6318570" lon="-17.8761280">
        <ele>694.7</ele>
        <time>2020-11-17T08:54:47Z</time>
      </trkpt>
      <trkpt lat="28.6318300" lon="-17.8761080">
        <ele>694.9</ele>
        <time>2020-11-17T08:54:48Z</time>
      </trkpt>
      <trkpt lat="28.6318300" lon="-17.8761080">
        <ele>694.9</ele>
        <time>2020-11-17T08:54:49Z</time>
      </trkpt>
      <trkpt lat="28.6317770" lon="-17.8760720">
        <ele>695.3</ele>
        <time>2020-11-17T08:54:50Z</time>
      </trkpt>
      <trkpt lat="28.6317770" lon="-17.8760720">
        <ele>695.3</ele>
        <time>2020-11-17T08:54:51Z</time>
      </trkpt>
      <trkpt lat="28.6317270" lon="-17.8760370">
        <ele>695.6</ele>
        <time>2020-11-17T08:54:52Z</time>
      </trkpt>
      <trkpt lat="28.6317270" lon="-17.8760370">
        <ele>695.6</ele>
        <time>2020-11-17T08:54:53Z</time>
      </trkpt>
      <trkpt lat="28.6316800" lon="-17.8760000">
        <ele>695.9</ele>
        <time>2020-11-17T08:54:54Z</time>
      </trkpt>
      <trkpt lat="28.6316800" lon="-17.8760000">
        <ele>695.9</ele>
        <time>2020-11-17T08:54:55Z</time>
      </trkpt>
      <trkpt lat="28.6316270" lon="-17.8759600">
        <ele>696.2</ele>
        <time>2020-11-17T08:54:56Z</time>
      </trkpt>
      <trkpt lat="28.6316000" lon="-17.8759380">
        <ele>696.4</ele>
        <time>2020-11-17T08:54:57Z</time>
      </trkpt>
      <trkpt lat="28.6316000" lon="-17.8759380">
        <ele>696.4</ele>
        <time>2020-11-17T08:54:58Z</time>
      </trkpt>
      <trkpt lat="28.6315450" lon="-17.8759020">
        <ele>696.8</ele>
        <time>2020-11-17T08:54:59Z</time>
      </trkpt>
      <trkpt lat="28.6315450" lon="-17.8759020">
        <ele>696.8</ele>
        <time>2020-11-17T08:55:00Z</time>
      </trkpt>
      <trkpt lat="28.6314850" lon="-17.8758650">
        <ele>697.1</ele>
        <time>2020-11-17T08:55:01Z</time>
      </trkpt>
      <trkpt lat="28.6314850" lon="-17.8758650">
        <ele>697.1</ele>
        <time>2020-11-17T08:55:02Z</time>
      </trkpt>
      <trkpt lat="28.6314170" lon="-17.8758400">
        <ele>697.5</ele>
        <time>2020-11-17T08:55:03Z</time>
      </trkpt>
      <trkpt lat="28.6314170" lon="-17.8758400">
        <ele>697.5</ele>
        <time>2020-11-17T08:55:04Z</time>
      </trkpt>
      <trkpt lat="28.6313480" lon="-17.8758230">
        <ele>697.9</ele>
        <time>2020-11-17T08:55:05Z</time>
      </trkpt>
      <trkpt lat="28.6313150" lon="-17.8758180">
        <ele>698.1</ele>
        <time>2020-11-17T08:55:06Z</time>
      </trkpt>
      <trkpt lat="28.6313150" lon="-17.8758180">
        <ele>698.1</ele>
        <time>2020-11-17T08:55:07Z</time>
      </trkpt>
      <trkpt lat="28.6312500" lon="-17.8758130">
        <ele>698.5</ele>
        <time>2020-11-17T08:55:08Z</time>
      </trkpt>
      <trkpt lat="28.6312500" lon="-17.8758130">
        <ele>698.5</ele>
        <time>2020-11-17T08:55:09Z</time>
      </trkpt>
      <trkpt lat="28.6311900" lon="-17.8758050">
        <ele>698.9</ele>
        <time>2020-11-17T08:55:10Z</time>
      </trkpt>
      <trkpt lat="28.6311900" lon="-17.8758050">
        <ele>698.9</ele>
        <time>2020-11-17T08:55:11Z</time>
      </trkpt>
      <trkpt lat="28.6311320" lon="-17.8758030">
        <ele>698.8</ele>
        <time>2020-11-17T08:55:12Z</time>
      </trkpt>
      <trkpt lat="28.6311320" lon="-17.8758030">
        <ele>698.8</ele>
        <time>2020-11-17T08:55:13Z</time>
      </trkpt>
      <trkpt lat="28.6310700" lon="-17.8758100">
        <ele>698.9</ele>
        <time>2020-11-17T08:55:14Z</time>
      </trkpt>
      <trkpt lat="28.6310400" lon="-17.8758120">
        <ele>699.1</ele>
        <time>2020-11-17T08:55:15Z</time>
      </trkpt>
      <trkpt lat="28.6310400" lon="-17.8758120">
        <ele>699.1</ele>
        <time>2020-11-17T08:55:16Z</time>
      </trkpt>
      <trkpt lat="28.6309820" lon="-17.8758150">
        <ele>699.6</ele>
        <time>2020-11-17T08:55:17Z</time>
      </trkpt>
      <trkpt lat="28.6309550" lon="-17.8758170">
        <ele>699.8</ele>
        <time>2020-11-17T08:55:18Z</time>
      </trkpt>
      <trkpt lat="28.6309550" lon="-17.8758170">
        <ele>699.8</ele>
        <time>2020-11-17T08:55:19Z</time>
      </trkpt>
      <trkpt lat="28.6309120" lon="-17.8758220">
        <ele>700.1</ele>
        <time>2020-11-17T08:55:20Z</time>
      </trkpt>
      <trkpt lat="28.6309120" lon="-17.8758220">
        <ele>700.1</ele>
        <time>2020-11-17T08:55:21Z</time>
      </trkpt>
      <trkpt lat="28.6308650" lon="-17.8758250">
        <ele>700.5</ele>
        <time>2020-11-17T08:55:22Z</time>
      </trkpt>
      <trkpt lat="28.6308650" lon="-17.8758250">
        <ele>700.5</ele>
        <time>2020-11-17T08:55:23Z</time>
      </trkpt>
      <trkpt lat="28.6308250" lon="-17.8758250">
        <ele>700.8</ele>
        <time>2020-11-17T08:55:24Z</time>
      </trkpt>
      <trkpt lat="28.6308250" lon="-17.8758250">
        <ele>700.8</ele>
        <time>2020-11-17T08:55:25Z</time>
      </trkpt>
      <trkpt lat="28.6307850" lon="-17.8758230">
        <ele>701.2</ele>
        <time>2020-11-17T08:55:26Z</time>
      </trkpt>
      <trkpt lat="28.6307670" lon="-17.8758230">
        <ele>701.3</ele>
        <time>2020-11-17T08:55:27Z</time>
      </trkpt>
      <trkpt lat="28.6307670" lon="-17.8758230">
        <ele>701.3</ele>
        <time>2020-11-17T08:55:28Z</time>
      </trkpt>
      <trkpt lat="28.6307270" lon="-17.8758270">
        <ele>701.7</ele>
        <time>2020-11-17T08:55:29Z</time>
      </trkpt>
      <trkpt lat="28.6307270" lon="-17.8758270">
        <ele>701.7</ele>
        <time>2020-11-17T08:55:30Z</time>
      </trkpt>
      <trkpt lat="28.6306870" lon="-17.8758250">
        <ele>702.0</ele>
        <time>2020-11-17T08:55:31Z</time>
      </trkpt>
      <trkpt lat="28.6306870" lon="-17.8758250">
        <ele>702.0</ele>
        <time>2020-11-17T08:55:32Z</time>
      </trkpt>
      <trkpt lat="28.6306470" lon="-17.8758200">
        <ele>702.4</ele>
        <time>2020-11-17T08:55:33Z</time>
      </trkpt>
      <trkpt lat="28.6306470" lon="-17.8758200">
        <ele>702.4</ele>
        <time>2020-11-17T08:55:34Z</time>
      </trkpt>
      <trkpt lat="28.6306080" lon="-17.8758120">
        <ele>702.7</ele>
        <time>2020-11-17T08:55:35Z</time>
      </trkpt>
      <trkpt lat="28.6306080" lon="-17.8758120">
        <ele>702.7</ele>
        <time>2020-11-17T08:55:36Z</time>
      </trkpt>
      <trkpt lat="28.6305700" lon="-17.8757930">
        <ele>703.1</ele>
        <time>2020-11-17T08:55:37Z</time>
      </trkpt>
      <trkpt lat="28.6305700" lon="-17.8757930">
        <ele>703.1</ele>
        <time>2020-11-17T08:55:38Z</time>
      </trkpt>
      <trkpt lat="28.6305320" lon="-17.8757750">
        <ele>703.4</ele>
        <time>2020-11-17T08:55:39Z</time>
      </trkpt>
      <trkpt lat="28.6305320" lon="-17.8757750">
        <ele>703.4</ele>
        <time>2020-11-17T08:55:40Z</time>
      </trkpt>
      <trkpt lat="28.6304880" lon="-17.8757550">
        <ele>703.7</ele>
        <time>2020-11-17T08:55:41Z</time>
      </trkpt>
      <trkpt lat="28.6304880" lon="-17.8757550">
        <ele>703.7</ele>
        <time>2020-11-17T08:55:42Z</time>
      </trkpt>
      <trkpt lat="28.6304470" lon="-17.8757320">
        <ele>704.0</ele>
        <time>2020-11-17T08:55:43Z</time>
      </trkpt>
      <trkpt lat="28.6304270" lon="-17.8757200">
        <ele>704.1</ele>
        <time>2020-11-17T08:55:44Z</time>
      </trkpt>
      <trkpt lat="28.6304270" lon="-17.8757200">
        <ele>704.1</ele>
        <time>2020-11-17T08:55:45Z</time>
      </trkpt>
      <trkpt lat="28.6303880" lon="-17.8756930">
        <ele>704.4</ele>
        <time>2020-11-17T08:55:46Z</time>
      </trkpt>
      <trkpt lat="28.6303700" lon="-17.8756820">
        <ele>704.6</ele>
        <time>2020-11-17T08:55:47Z</time>
      </trkpt>
      <trkpt lat="28.6303520" lon="-17.8756700">
        <ele>704.7</ele>
        <time>2020-11-17T08:55:48Z</time>
      </trkpt>
      <trkpt lat="28.6303520" lon="-17.8756700">
        <ele>704.7</ele>
        <time>2020-11-17T08:55:49Z</time>
      </trkpt>
      <trkpt lat="28.6303180" lon="-17.8756500">
        <ele>704.9</ele>
        <time>2020-11-17T08:55:50Z</time>
      </trkpt>
      <trkpt lat="28.6303180" lon="-17.8756500">
        <ele>704.9</ele>
        <time>2020-11-17T08:55:51Z</time>
      </trkpt>
      <trkpt lat="28.6302870" lon="-17.8756280">
        <ele>705.2</ele>
        <time>2020-11-17T08:55:52Z</time>
      </trkpt>
      <trkpt lat="28.6302870" lon="-17.8756280">
        <ele>705.2</ele>
        <time>2020-11-17T08:55:53Z</time>
      </trkpt>
      <trkpt lat="28.6302580" lon="-17.8756130">
        <ele>705.4</ele>
        <time>2020-11-17T08:55:54Z</time>
      </trkpt>
      <trkpt lat="28.6302580" lon="-17.8756130">
        <ele>705.4</ele>
        <time>2020-11-17T08:55:55Z</time>
      </trkpt>
      <trkpt lat="28.6302300" lon="-17.8755970">
        <ele>705.6</ele>
        <time>2020-11-17T08:55:56Z</time>
      </trkpt>
      <trkpt lat="28.6302100" lon="-17.8755900">
        <ele>705.7</ele>
        <time>2020-11-17T08:55:57Z</time>
      </trkpt>
      <trkpt lat="28.6302100" lon="-17.8755900">
        <ele>705.7</ele>
        <time>2020-11-17T08:55:58Z</time>
      </trkpt>
      <trkpt lat="28.6301770" lon="-17.8755680">
        <ele>705.9</ele>
        <time>2020-11-17T08:55:59Z</time>
      </trkpt>
      <trkpt lat="28.6301630" lon="-17.8755600">
        <ele>706.0</ele>
        <time>2020-11-17T08:56:00Z</time>
      </trkpt>
      <trkpt lat="28.6301630" lon="-17.8755600">
        <ele>706.0</ele>
        <time>2020-11-17T08:56:01Z</time>
      </trkpt>
      <trkpt lat="28.6301280" lon="-17.8755430">
        <ele>706.3</ele>
        <time>2020-11-17T08:56:02Z</time>
      </trkpt>
      <trkpt lat="28.6301080" lon="-17.8755400">
        <ele>706.4</ele>
        <time>2020-11-17T08:56:03Z</time>
      </trkpt>
      <trkpt lat="28.6300900" lon="-17.8755330">
        <ele>706.6</ele>
        <time>2020-11-17T08:56:04Z</time>
      </trkpt>
      <trkpt lat="28.6300900" lon="-17.8755330">
        <ele>706.6</ele>
        <time>2020-11-17T08:56:05Z</time>
      </trkpt>
      <trkpt lat="28.6300570" lon="-17.8755120">
        <ele>706.8</ele>
        <time>2020-11-17T08:56:06Z</time>
      </trkpt>
      <trkpt lat="28.6300570" lon="-17.8755120">
        <ele>706.8</ele>
        <time>2020-11-17T08:56:07Z</time>
      </trkpt>
      <trkpt lat="28.6300230" lon="-17.8754920">
        <ele>707.1</ele>
        <time>2020-11-17T08:56:08Z</time>
      </trkpt>
      <trkpt lat="28.6300230" lon="-17.8754920">
        <ele>707.1</ele>
        <time>2020-11-17T08:56:09Z</time>
      </trkpt>
      <trkpt lat="28.6299900" lon="-17.8754700">
        <ele>707.3</ele>
        <time>2020-11-17T08:56:10Z</time>
      </trkpt>
      <trkpt lat="28.6299720" lon="-17.8754600">
        <ele>707.5</ele>
        <time>2020-11-17T08:56:11Z</time>
      </trkpt>
      <trkpt lat="28.6299550" lon="-17.8754480">
        <ele>707.6</ele>
        <time>2020-11-17T08:56:12Z</time>
      </trkpt>
      <trkpt lat="28.6299550" lon="-17.8754480">
        <ele>707.6</ele>
        <time>2020-11-17T08:56:13Z</time>
      </trkpt>
      <trkpt lat="28.6299180" lon="-17.8754300">
        <ele>707.9</ele>
        <time>2020-11-17T08:56:14Z</time>
      </trkpt>
      <trkpt lat="28.6299030" lon="-17.8754200">
        <ele>708.0</ele>
        <time>2020-11-17T08:56:15Z</time>
      </trkpt>
      <trkpt lat="28.6299030" lon="-17.8754200">
        <ele>708.0</ele>
        <time>2020-11-17T08:56:16Z</time>
      </trkpt>
      <trkpt lat="28.6298680" lon="-17.8754020">
        <ele>708.3</ele>
        <time>2020-11-17T08:56:17Z</time>
      </trkpt>
      <trkpt lat="28.6298520" lon="-17.8753920">
        <ele>708.5</ele>
        <time>2020-11-17T08:56:18Z</time>
      </trkpt>
      <trkpt lat="28.6298520" lon="-17.8753920">
        <ele>708.5</ele>
        <time>2020-11-17T08:56:19Z</time>
      </trkpt>
      <trkpt lat="28.6298150" lon="-17.8753730">
        <ele>708.8</ele>
        <time>2020-11-17T08:56:20Z</time>
      </trkpt>
      <trkpt lat="28.6297970" lon="-17.8753650">
        <ele>708.9</ele>
        <time>2020-11-17T08:56:21Z</time>
      </trkpt>
      <trkpt lat="28.6297820" lon="-17.8753530">
        <ele>709.0</ele>
        <time>2020-11-17T08:56:22Z</time>
      </trkpt>
      <trkpt lat="28.6297820" lon="-17.8753530">
        <ele>709.0</ele>
        <time>2020-11-17T08:56:23Z</time>
      </trkpt>
      <trkpt lat="28.6297520" lon="-17.8753320">
        <ele>709.3</ele>
        <time>2020-11-17T08:56:24Z</time>
      </trkpt>
      <trkpt lat="28.6297520" lon="-17.8753320">
        <ele>709.3</ele>
        <time>2020-11-17T08:56:25Z</time>
      </trkpt>
      <trkpt lat="28.6297180" lon="-17.8753100">
        <ele>709.6</ele>
        <time>2020-11-17T08:56:26Z</time>
      </trkpt>
      <trkpt lat="28.6296920" lon="-17.8753020">
        <ele>709.8</ele>
        <time>2020-11-17T08:56:27Z</time>
      </trkpt>
      <trkpt lat="28.6296920" lon="-17.8753020">
        <ele>709.8</ele>
        <time>2020-11-17T08:56:28Z</time>
      </trkpt>
      <trkpt lat="28.6296580" lon="-17.8752850">
        <ele>710.0</ele>
        <time>2020-11-17T08:56:29Z</time>
      </trkpt>
      <trkpt lat="28.6296580" lon="-17.8752850">
        <ele>710.0</ele>
        <time>2020-11-17T08:56:30Z</time>
      </trkpt>
      <trkpt lat="28.6296300" lon="-17.8752700">
        <ele>710.2</ele>
        <time>2020-11-17T08:56:31Z</time>
      </trkpt>
      <trkpt lat="28.6296300" lon="-17.8752700">
        <ele>710.2</ele>
        <time>2020-11-17T08:56:32Z</time>
      </trkpt>
      <trkpt lat="28.6295950" lon="-17.8752470">
        <ele>710.5</ele>
        <time>2020-11-17T08:56:33Z</time>
      </trkpt>
      <trkpt lat="28.6295950" lon="-17.8752470">
        <ele>710.5</ele>
        <time>2020-11-17T08:56:34Z</time>
      </trkpt>
      <trkpt lat="28.6295600" lon="-17.8752180">
        <ele>710.7</ele>
        <time>2020-11-17T08:56:35Z</time>
      </trkpt>
      <trkpt lat="28.6295600" lon="-17.8752180">
        <ele>710.7</ele>
        <time>2020-11-17T08:56:36Z</time>
      </trkpt>
      <trkpt lat="28.6295220" lon="-17.8751830">
        <ele>711.0</ele>
        <time>2020-11-17T08:56:37Z</time>
      </trkpt>
      <trkpt lat="28.6295220" lon="-17.8751830">
        <ele>711.0</ele>
        <time>2020-11-17T08:56:38Z</time>
      </trkpt>
      <trkpt lat="28.6294780" lon="-17.8751430">
        <ele>711.2</ele>
        <time>2020-11-17T08:56:39Z</time>
      </trkpt>
      <trkpt lat="28.6294780" lon="-17.8751430">
        <ele>711.2</ele>
        <time>2020-11-17T08:56:40Z</time>
      </trkpt>
      <trkpt lat="28.6294380" lon="-17.8750980">
        <ele>711.4</ele>
        <time>2020-11-17T08:56:41Z</time>
      </trkpt>
      <trkpt lat="28.6294380" lon="-17.8750980">
        <ele>711.4</ele>
        <time>2020-11-17T08:56:42Z</time>
      </trkpt>
      <trkpt lat="28.6294000" lon="-17.8750520">
        <ele>711.7</ele>
        <time>2020-11-17T08:56:43Z</time>
      </trkpt>
      <trkpt lat="28.6294000" lon="-17.8750520">
        <ele>711.7</ele>
        <time>2020-11-17T08:56:44Z</time>
      </trkpt>
      <trkpt lat="28.6293680" lon="-17.8750050">
        <ele>711.9</ele>
        <time>2020-11-17T08:56:45Z</time>
      </trkpt>
      <trkpt lat="28.6293680" lon="-17.8750050">
        <ele>711.9</ele>
        <time>2020-11-17T08:56:46Z</time>
      </trkpt>
      <trkpt lat="28.6293350" lon="-17.8749620">
        <ele>712.1</ele>
        <time>2020-11-17T08:56:47Z</time>
      </trkpt>
      <trkpt lat="28.6293350" lon="-17.8749620">
        <ele>712.1</ele>
        <time>2020-11-17T08:56:48Z</time>
      </trkpt>
      <trkpt lat="28.6293030" lon="-17.8749180">
        <ele>712.2</ele>
        <time>2020-11-17T08:56:49Z</time>
      </trkpt>
      <trkpt lat="28.6293030" lon="-17.8749180">
        <ele>712.2</ele>
        <time>2020-11-17T08:56:50Z</time>
      </trkpt>
      <trkpt lat="28.6292700" lon="-17.8748750">
        <ele>712.4</ele>
        <time>2020-11-17T08:56:51Z</time>
      </trkpt>
      <trkpt lat="28.6292520" lon="-17.8748520">
        <ele>712.5</ele>
        <time>2020-11-17T08:56:52Z</time>
      </trkpt>
      <trkpt lat="28.6292520" lon="-17.8748520">
        <ele>712.5</ele>
        <time>2020-11-17T08:56:53Z</time>
      </trkpt>
      <trkpt lat="28.6292170" lon="-17.8748070">
        <ele>712.7</ele>
        <time>2020-11-17T08:56:54Z</time>
      </trkpt>
      <trkpt lat="28.6292170" lon="-17.8748070">
        <ele>712.7</ele>
        <time>2020-11-17T08:56:55Z</time>
      </trkpt>
      <trkpt lat="28.6291800" lon="-17.8747620">
        <ele>712.9</ele>
        <time>2020-11-17T08:56:56Z</time>
      </trkpt>
      <trkpt lat="28.6291620" lon="-17.8747380">
        <ele>713.0</ele>
        <time>2020-11-17T08:56:57Z</time>
      </trkpt>
      <trkpt lat="28.6291620" lon="-17.8747380">
        <ele>713.0</ele>
        <time>2020-11-17T08:56:58Z</time>
      </trkpt>
      <trkpt lat="28.6291250" lon="-17.8746950">
        <ele>713.2</ele>
        <time>2020-11-17T08:56:59Z</time>
      </trkpt>
      <trkpt lat="28.6291250" lon="-17.8746950">
        <ele>713.2</ele>
        <time>2020-11-17T08:57:00Z</time>
      </trkpt>
      <trkpt lat="28.6290880" lon="-17.8746500">
        <ele>713.4</ele>
        <time>2020-11-17T08:57:01Z</time>
      </trkpt>
      <trkpt lat="28.6290680" lon="-17.8746280">
        <ele>713.5</ele>
        <time>2020-11-17T08:57:02Z</time>
      </trkpt>
      <trkpt lat="28.6290680" lon="-17.8746280">
        <ele>713.5</ele>
        <time>2020-11-17T08:57:03Z</time>
      </trkpt>
      <trkpt lat="28.6290320" lon="-17.8745820">
        <ele>713.7</ele>
        <time>2020-11-17T08:57:04Z</time>
      </trkpt>
      <trkpt lat="28.6290320" lon="-17.8745820">
        <ele>713.7</ele>
        <time>2020-11-17T08:57:05Z</time>
      </trkpt>
      <trkpt lat="28.6290000" lon="-17.8745350">
        <ele>713.9</ele>
        <time>2020-11-17T08:57:06Z</time>
      </trkpt>
      <trkpt lat="28.6290000" lon="-17.8745350">
        <ele>713.9</ele>
        <time>2020-11-17T08:57:07Z</time>
      </trkpt>
      <trkpt lat="28.6289630" lon="-17.8744880">
        <ele>714.1</ele>
        <time>2020-11-17T08:57:08Z</time>
      </trkpt>
      <trkpt lat="28.6289630" lon="-17.8744880">
        <ele>714.1</ele>
        <time>2020-11-17T08:57:09Z</time>
      </trkpt>
      <trkpt lat="28.6289220" lon="-17.8744380">
        <ele>714.3</ele>
        <time>2020-11-17T08:57:10Z</time>
      </trkpt>
      <trkpt lat="28.6289020" lon="-17.8744130">
        <ele>714.4</ele>
        <time>2020-11-17T08:57:11Z</time>
      </trkpt>
      <trkpt lat="28.6289020" lon="-17.8744130">
        <ele>714.4</ele>
        <time>2020-11-17T08:57:12Z</time>
      </trkpt>
      <trkpt lat="28.6288620" lon="-17.8743630">
        <ele>714.6</ele>
        <time>2020-11-17T08:57:13Z</time>
      </trkpt>
      <trkpt lat="28.6288430" lon="-17.8743380">
        <ele>714.7</ele>
        <time>2020-11-17T08:57:14Z</time>
      </trkpt>
      <trkpt lat="28.6288430" lon="-17.8743380">
        <ele>714.7</ele>
        <time>2020-11-17T08:57:15Z</time>
      </trkpt>
      <trkpt lat="28.6288070" lon="-17.8742900">
        <ele>714.9</ele>
        <time>2020-11-17T08:57:16Z</time>
      </trkpt>
      <trkpt lat="28.6288070" lon="-17.8742900">
        <ele>714.9</ele>
        <time>2020-11-17T08:57:17Z</time>
      </trkpt>
      <trkpt lat="28.6287680" lon="-17.8742420">
        <ele>715.1</ele>
        <time>2020-11-17T08:57:18Z</time>
      </trkpt>
      <trkpt lat="28.6287680" lon="-17.8742420">
        <ele>715.1</ele>
        <time>2020-11-17T08:57:19Z</time>
      </trkpt>
      <trkpt lat="28.6287300" lon="-17.8741950">
        <ele>715.3</ele>
        <time>2020-11-17T08:57:20Z</time>
      </trkpt>
      <trkpt lat="28.6287100" lon="-17.8741720">
        <ele>715.5</ele>
        <time>2020-11-17T08:57:21Z</time>
      </trkpt>
      <trkpt lat="28.6287100" lon="-17.8741720">
        <ele>715.5</ele>
        <time>2020-11-17T08:57:22Z</time>
      </trkpt>
      <trkpt lat="28.6286720" lon="-17.8741270">
        <ele>715.7</ele>
        <time>2020-11-17T08:57:23Z</time>
      </trkpt>
      <trkpt lat="28.6286520" lon="-17.8741030">
        <ele>715.8</ele>
        <time>2020-11-17T08:57:24Z</time>
      </trkpt>
      <trkpt lat="28.6286520" lon="-17.8741030">
        <ele>715.8</ele>
        <time>2020-11-17T08:57:25Z</time>
      </trkpt>
      <trkpt lat="28.6286150" lon="-17.8740570">
        <ele>716.0</ele>
        <time>2020-11-17T08:57:26Z</time>
      </trkpt>
      <trkpt lat="28.6286150" lon="-17.8740570">
        <ele>716.0</ele>
        <time>2020-11-17T08:57:27Z</time>
      </trkpt>
      <trkpt lat="28.6285780" lon="-17.8740150">
        <ele>716.2</ele>
        <time>2020-11-17T08:57:28Z</time>
      </trkpt>
      <trkpt lat="28.6285600" lon="-17.8739930">
        <ele>716.3</ele>
        <time>2020-11-17T08:57:29Z</time>
      </trkpt>
      <trkpt lat="28.6285600" lon="-17.8739930">
        <ele>716.3</ele>
        <time>2020-11-17T08:57:30Z</time>
      </trkpt>
      <trkpt lat="28.6285250" lon="-17.8739470">
        <ele>716.6</ele>
        <time>2020-11-17T08:57:31Z</time>
      </trkpt>
      <trkpt lat="28.6285250" lon="-17.8739470">
        <ele>716.6</ele>
        <time>2020-11-17T08:57:32Z</time>
      </trkpt>
      <trkpt lat="28.6284880" lon="-17.8739000">
        <ele>716.8</ele>
        <time>2020-11-17T08:57:33Z</time>
      </trkpt>
      <trkpt lat="28.6284880" lon="-17.8739000">
        <ele>716.8</ele>
        <time>2020-11-17T08:57:34Z</time>
      </trkpt>
      <trkpt lat="28.6284520" lon="-17.8738530">
        <ele>717.0</ele>
        <time>2020-11-17T08:57:35Z</time>
      </trkpt>
      <trkpt lat="28.6284520" lon="-17.8738530">
        <ele>717.0</ele>
        <time>2020-11-17T08:57:36Z</time>
      </trkpt>
      <trkpt lat="28.6284130" lon="-17.8738100">
        <ele>717.3</ele>
        <time>2020-11-17T08:57:37Z</time>
      </trkpt>
      <trkpt lat="28.6284130" lon="-17.8738100">
        <ele>717.3</ele>
        <time>2020-11-17T08:57:38Z</time>
      </trkpt>
      <trkpt lat="28.6283770" lon="-17.8737670">
        <ele>717.5</ele>
        <time>2020-11-17T08:57:39Z</time>
      </trkpt>
      <trkpt lat="28.6283770" lon="-17.8737670">
        <ele>717.5</ele>
        <time>2020-11-17T08:57:40Z</time>
      </trkpt>
      <trkpt lat="28.6283400" lon="-17.8737230">
        <ele>717.7</ele>
        <time>2020-11-17T08:57:41Z</time>
      </trkpt>
      <trkpt lat="28.6283200" lon="-17.8737030">
        <ele>717.8</ele>
        <time>2020-11-17T08:57:42Z</time>
      </trkpt>
      <trkpt lat="28.6283200" lon="-17.8737030">
        <ele>717.8</ele>
        <time>2020-11-17T08:57:43Z</time>
      </trkpt>
      <trkpt lat="28.6282780" lon="-17.8736670">
        <ele>718.0</ele>
        <time>2020-11-17T08:57:44Z</time>
      </trkpt>
      <trkpt lat="28.6282780" lon="-17.8736670">
        <ele>718.0</ele>
        <time>2020-11-17T08:57:45Z</time>
      </trkpt>
      <trkpt lat="28.6282350" lon="-17.8736300">
        <ele>718.2</ele>
        <time>2020-11-17T08:57:46Z</time>
      </trkpt>
      <trkpt lat="28.6282350" lon="-17.8736300">
        <ele>718.2</ele>
        <time>2020-11-17T08:57:47Z</time>
      </trkpt>
      <trkpt lat="28.6281880" lon="-17.8735980">
        <ele>718.4</ele>
        <time>2020-11-17T08:57:48Z</time>
      </trkpt>
      <trkpt lat="28.6281630" lon="-17.8735850">
        <ele>718.5</ele>
        <time>2020-11-17T08:57:49Z</time>
      </trkpt>
      <trkpt lat="28.6281630" lon="-17.8735850">
        <ele>718.5</ele>
        <time>2020-11-17T08:57:50Z</time>
      </trkpt>
      <trkpt lat="28.6281080" lon="-17.8735600">
        <ele>718.7</ele>
        <time>2020-11-17T08:57:51Z</time>
      </trkpt>
      <trkpt lat="28.6281080" lon="-17.8735600">
        <ele>718.7</ele>
        <time>2020-11-17T08:57:52Z</time>
      </trkpt>
      <trkpt lat="28.6280530" lon="-17.8735430">
        <ele>718.9</ele>
        <time>2020-11-17T08:57:53Z</time>
      </trkpt>
      <trkpt lat="28.6280250" lon="-17.8735370">
        <ele>719.0</ele>
        <time>2020-11-17T08:57:54Z</time>
      </trkpt>
      <trkpt lat="28.6280250" lon="-17.8735370">
        <ele>719.0</ele>
        <time>2020-11-17T08:57:55Z</time>
      </trkpt>
      <trkpt lat="28.6279670" lon="-17.8735250">
        <ele>719.2</ele>
        <time>2020-11-17T08:57:56Z</time>
      </trkpt>
      <trkpt lat="28.6279670" lon="-17.8735250">
        <ele>719.2</ele>
        <time>2020-11-17T08:57:57Z</time>
      </trkpt>
      <trkpt lat="28.6279050" lon="-17.8735120">
        <ele>719.5</ele>
        <time>2020-11-17T08:57:58Z</time>
      </trkpt>
      <trkpt lat="28.6278750" lon="-17.8735050">
        <ele>719.6</ele>
        <time>2020-11-17T08:57:59Z</time>
      </trkpt>
      <trkpt lat="28.6278750" lon="-17.8735050">
        <ele>719.6</ele>
        <time>2020-11-17T08:58:00Z</time>
      </trkpt>
      <trkpt lat="28.6278180" lon="-17.8734930">
        <ele>719.8</ele>
        <time>2020-11-17T08:58:01Z</time>
      </trkpt>
      <trkpt lat="28.6278180" lon="-17.8734930">
        <ele>719.8</ele>
        <time>2020-11-17T08:58:02Z</time>
      </trkpt>
      <trkpt lat="28.6277680" lon="-17.8734820">
        <ele>720.0</ele>
        <time>2020-11-17T08:58:03Z</time>
      </trkpt>
      <trkpt lat="28.6277680" lon="-17.8734820">
        <ele>720.0</ele>
        <time>2020-11-17T08:58:04Z</time>
      </trkpt>
      <trkpt lat="28.6277150" lon="-17.8734650">
        <ele>720.1</ele>
        <time>2020-11-17T08:58:05Z</time>
      </trkpt>
      <trkpt lat="28.6277150" lon="-17.8734650">
        <ele>720.1</ele>
        <time>2020-11-17T08:58:06Z</time>
      </trkpt>
      <trkpt lat="28.6276630" lon="-17.8734480">
        <ele>720.3</ele>
        <time>2020-11-17T08:58:07Z</time>
      </trkpt>
      <trkpt lat="28.6276630" lon="-17.8734480">
        <ele>720.3</ele>
        <time>2020-11-17T08:58:08Z</time>
      </trkpt>
      <trkpt lat="28.6276130" lon="-17.8734370">
        <ele>720.5</ele>
        <time>2020-11-17T08:58:09Z</time>
      </trkpt>
      <trkpt lat="28.6275900" lon="-17.8734320">
        <ele>720.6</ele>
        <time>2020-11-17T08:58:10Z</time>
      </trkpt>
      <trkpt lat="28.6275900" lon="-17.8734320">
        <ele>720.6</ele>
        <time>2020-11-17T08:58:11Z</time>
      </trkpt>
      <trkpt lat="28.6275370" lon="-17.8734230">
        <ele>720.8</ele>
        <time>2020-11-17T08:58:12Z</time>
      </trkpt>
      <trkpt lat="28.6275370" lon="-17.8734230">
        <ele>720.8</ele>
        <time>2020-11-17T08:58:13Z</time>
      </trkpt>
      <trkpt lat="28.6274880" lon="-17.8734100">
        <ele>721.0</ele>
        <time>2020-11-17T08:58:14Z</time>
      </trkpt>
      <trkpt lat="28.6274630" lon="-17.8734050">
        <ele>721.1</ele>
        <time>2020-11-17T08:58:15Z</time>
      </trkpt>
      <trkpt lat="28.6274630" lon="-17.8734050">
        <ele>721.1</ele>
        <time>2020-11-17T08:58:16Z</time>
      </trkpt>
      <trkpt lat="28.6274050" lon="-17.8733950">
        <ele>721.3</ele>
        <time>2020-11-17T08:58:17Z</time>
      </trkpt>
      <trkpt lat="28.6274050" lon="-17.8733950">
        <ele>721.3</ele>
        <time>2020-11-17T08:58:18Z</time>
      </trkpt>
      <trkpt lat="28.6274050" lon="-17.8733950">
        <ele>721.3</ele>
        <time>2020-11-17T08:58:19Z</time>
      </trkpt>
      <trkpt lat="28.6273470" lon="-17.8733820">
        <ele>721.5</ele>
        <time>2020-11-17T08:58:20Z</time>
      </trkpt>
      <trkpt lat="28.6272850" lon="-17.8733650">
        <ele>721.7</ele>
        <time>2020-11-17T08:58:21Z</time>
      </trkpt>
      <trkpt lat="28.6272850" lon="-17.8733650">
        <ele>721.7</ele>
        <time>2020-11-17T08:58:22Z</time>
      </trkpt>
      <trkpt lat="28.6272230" lon="-17.8733600">
        <ele>721.7</ele>
        <time>2020-11-17T08:58:23Z</time>
      </trkpt>
      <trkpt lat="28.6271930" lon="-17.8733570">
        <ele>721.8</ele>
        <time>2020-11-17T08:58:24Z</time>
      </trkpt>
      <trkpt lat="28.6271930" lon="-17.8733570">
        <ele>721.8</ele>
        <time>2020-11-17T08:58:25Z</time>
      </trkpt>
      <trkpt lat="28.6271380" lon="-17.8733450">
        <ele>721.9</ele>
        <time>2020-11-17T08:58:26Z</time>
      </trkpt>
      <trkpt lat="28.6271380" lon="-17.8733450">
        <ele>721.9</ele>
        <time>2020-11-17T08:58:27Z</time>
      </trkpt>
      <trkpt lat="28.6270780" lon="-17.8733320">
        <ele>722.1</ele>
        <time>2020-11-17T08:58:28Z</time>
      </trkpt>
      <trkpt lat="28.6270780" lon="-17.8733320">
        <ele>722.1</ele>
        <time>2020-11-17T08:58:29Z</time>
      </trkpt>
      <trkpt lat="28.6270180" lon="-17.8733250">
        <ele>722.3</ele>
        <time>2020-11-17T08:58:30Z</time>
      </trkpt>
      <trkpt lat="28.6270180" lon="-17.8733250">
        <ele>722.3</ele>
        <time>2020-11-17T08:58:31Z</time>
      </trkpt>
      <trkpt lat="28.6269600" lon="-17.8733170">
        <ele>722.5</ele>
        <time>2020-11-17T08:58:32Z</time>
      </trkpt>
      <trkpt lat="28.6269600" lon="-17.8733170">
        <ele>722.5</ele>
        <time>2020-11-17T08:58:33Z</time>
      </trkpt>
      <trkpt lat="28.6269100" lon="-17.8732950">
        <ele>722.7</ele>
        <time>2020-11-17T08:58:34Z</time>
      </trkpt>
      <trkpt lat="28.6269100" lon="-17.8732950">
        <ele>722.7</ele>
        <time>2020-11-17T08:58:35Z</time>
      </trkpt>
      <trkpt lat="28.6268570" lon="-17.8732770">
        <ele>722.9</ele>
        <time>2020-11-17T08:58:36Z</time>
      </trkpt>
      <trkpt lat="28.6268570" lon="-17.8732770">
        <ele>722.9</ele>
        <time>2020-11-17T08:58:37Z</time>
      </trkpt>
      <trkpt lat="28.6268050" lon="-17.8732630">
        <ele>723.1</ele>
        <time>2020-11-17T08:58:38Z</time>
      </trkpt>
      <trkpt lat="28.6268050" lon="-17.8732630">
        <ele>723.1</ele>
        <time>2020-11-17T08:58:39Z</time>
      </trkpt>
      <trkpt lat="28.6267480" lon="-17.8732570">
        <ele>723.3</ele>
        <time>2020-11-17T08:58:40Z</time>
      </trkpt>
      <trkpt lat="28.6267480" lon="-17.8732570">
        <ele>723.3</ele>
        <time>2020-11-17T08:58:41Z</time>
      </trkpt>
      <trkpt lat="28.6266920" lon="-17.8732450">
        <ele>723.5</ele>
        <time>2020-11-17T08:58:42Z</time>
      </trkpt>
      <trkpt lat="28.6266920" lon="-17.8732450">
        <ele>723.5</ele>
        <time>2020-11-17T08:58:43Z</time>
      </trkpt>
      <trkpt lat="28.6266380" lon="-17.8732320">
        <ele>723.7</ele>
        <time>2020-11-17T08:58:44Z</time>
      </trkpt>
      <trkpt lat="28.6266380" lon="-17.8732320">
        <ele>723.7</ele>
        <time>2020-11-17T08:58:45Z</time>
      </trkpt>
      <trkpt lat="28.6265830" lon="-17.8732220">
        <ele>723.9</ele>
        <time>2020-11-17T08:58:46Z</time>
      </trkpt>
      <trkpt lat="28.6265830" lon="-17.8732220">
        <ele>723.9</ele>
        <time>2020-11-17T08:58:47Z</time>
      </trkpt>
      <trkpt lat="28.6265280" lon="-17.8732130">
        <ele>724.1</ele>
        <time>2020-11-17T08:58:48Z</time>
      </trkpt>
      <trkpt lat="28.6265000" lon="-17.8732080">
        <ele>724.2</ele>
        <time>2020-11-17T08:58:49Z</time>
      </trkpt>
      <trkpt lat="28.6265000" lon="-17.8732080">
        <ele>724.2</ele>
        <time>2020-11-17T08:58:50Z</time>
      </trkpt>
      <trkpt lat="28.6264450" lon="-17.8731950">
        <ele>724.4</ele>
        <time>2020-11-17T08:58:51Z</time>
      </trkpt>
      <trkpt lat="28.6264180" lon="-17.8731900">
        <ele>724.5</ele>
        <time>2020-11-17T08:58:52Z</time>
      </trkpt>
      <trkpt lat="28.6263900" lon="-17.8731850">
        <ele>724.6</ele>
        <time>2020-11-17T08:58:53Z</time>
      </trkpt>
      <trkpt lat="28.6263630" lon="-17.8731780">
        <ele>724.7</ele>
        <time>2020-11-17T08:58:54Z</time>
      </trkpt>
      <trkpt lat="28.6263630" lon="-17.8731780">
        <ele>724.7</ele>
        <time>2020-11-17T08:58:55Z</time>
      </trkpt>
      <trkpt lat="28.6263080" lon="-17.8731650">
        <ele>724.9</ele>
        <time>2020-11-17T08:58:56Z</time>
      </trkpt>
      <trkpt lat="28.6263080" lon="-17.8731650">
        <ele>724.9</ele>
        <time>2020-11-17T08:58:57Z</time>
      </trkpt>
      <trkpt lat="28.6262520" lon="-17.8731500">
        <ele>725.1</ele>
        <time>2020-11-17T08:58:58Z</time>
      </trkpt>
      <trkpt lat="28.6262520" lon="-17.8731500">
        <ele>725.1</ele>
        <time>2020-11-17T08:58:59Z</time>
      </trkpt>
      <trkpt lat="28.6261970" lon="-17.8731380">
        <ele>725.3</ele>
        <time>2020-11-17T08:59:00Z</time>
      </trkpt>
      <trkpt lat="28.6261970" lon="-17.8731380">
        <ele>725.3</ele>
        <time>2020-11-17T08:59:01Z</time>
      </trkpt>
      <trkpt lat="28.6261480" lon="-17.8731230">
        <ele>725.5</ele>
        <time>2020-11-17T08:59:02Z</time>
      </trkpt>
      <trkpt lat="28.6261480" lon="-17.8731230">
        <ele>725.5</ele>
        <time>2020-11-17T08:59:03Z</time>
      </trkpt>
      <trkpt lat="28.6261000" lon="-17.8731070">
        <ele>725.7</ele>
        <time>2020-11-17T08:59:04Z</time>
      </trkpt>
      <trkpt lat="28.6261000" lon="-17.8731070">
        <ele>725.7</ele>
        <time>2020-11-17T08:59:05Z</time>
      </trkpt>
      <trkpt lat="28.6260470" lon="-17.8731000">
        <ele>725.8</ele>
        <time>2020-11-17T08:59:06Z</time>
      </trkpt>
      <trkpt lat="28.6260470" lon="-17.8731000">
        <ele>725.8</ele>
        <time>2020-11-17T08:59:07Z</time>
      </trkpt>
      <trkpt lat="28.6259930" lon="-17.8730930">
        <ele>726.0</ele>
        <time>2020-11-17T08:59:08Z</time>
      </trkpt>
      <trkpt lat="28.6259670" lon="-17.8730880">
        <ele>726.1</ele>
        <time>2020-11-17T08:59:09Z</time>
      </trkpt>
      <trkpt lat="28.6259670" lon="-17.8730880">
        <ele>726.1</ele>
        <time>2020-11-17T08:59:10Z</time>
      </trkpt>
      <trkpt lat="28.6259120" lon="-17.8730770">
        <ele>726.3</ele>
        <time>2020-11-17T08:59:11Z</time>
      </trkpt>
      <trkpt lat="28.6259120" lon="-17.8730770">
        <ele>726.3</ele>
        <time>2020-11-17T08:59:12Z</time>
      </trkpt>
      <trkpt lat="28.6258550" lon="-17.8730700">
        <ele>726.5</ele>
        <time>2020-11-17T08:59:13Z</time>
      </trkpt>
      <trkpt lat="28.6258550" lon="-17.8730700">
        <ele>726.5</ele>
        <time>2020-11-17T08:59:14Z</time>
      </trkpt>
      <trkpt lat="28.6257950" lon="-17.8730680">
        <ele>726.7</ele>
        <time>2020-11-17T08:59:15Z</time>
      </trkpt>
      <trkpt lat="28.6257670" lon="-17.8730700">
        <ele>726.8</ele>
        <time>2020-11-17T08:59:16Z</time>
      </trkpt>
      <trkpt lat="28.6257670" lon="-17.8730700">
        <ele>726.8</ele>
        <time>2020-11-17T08:59:17Z</time>
      </trkpt>
      <trkpt lat="28.6257080" lon="-17.8730800">
        <ele>727.1</ele>
        <time>2020-11-17T08:59:18Z</time>
      </trkpt>
      <trkpt lat="28.6257080" lon="-17.8730800">
        <ele>727.1</ele>
        <time>2020-11-17T08:59:19Z</time>
      </trkpt>
      <trkpt lat="28.6256520" lon="-17.8730870">
        <ele>727.3</ele>
        <time>2020-11-17T08:59:20Z</time>
      </trkpt>
      <trkpt lat="28.6256230" lon="-17.8730900">
        <ele>727.4</ele>
        <time>2020-11-17T08:59:21Z</time>
      </trkpt>
      <trkpt lat="28.6256230" lon="-17.8730900">
        <ele>727.4</ele>
        <time>2020-11-17T08:59:22Z</time>
      </trkpt>
      <trkpt lat="28.6255670" lon="-17.8731020">
        <ele>727.6</ele>
        <time>2020-11-17T08:59:23Z</time>
      </trkpt>
      <trkpt lat="28.6255400" lon="-17.8731100">
        <ele>727.7</ele>
        <time>2020-11-17T08:59:24Z</time>
      </trkpt>
      <trkpt lat="28.6255120" lon="-17.8731180">
        <ele>727.8</ele>
        <time>2020-11-17T08:59:25Z</time>
      </trkpt>
      <trkpt lat="28.6255120" lon="-17.8731180">
        <ele>727.8</ele>
        <time>2020-11-17T08:59:26Z</time>
      </trkpt>
      <trkpt lat="28.6254570" lon="-17.8731330">
        <ele>728.1</ele>
        <time>2020-11-17T08:59:27Z</time>
      </trkpt>
      <trkpt lat="28.6254570" lon="-17.8731330">
        <ele>728.1</ele>
        <time>2020-11-17T08:59:28Z</time>
      </trkpt>
      <trkpt lat="28.6254020" lon="-17.8731550">
        <ele>728.3</ele>
        <time>2020-11-17T08:59:29Z</time>
      </trkpt>
      <trkpt lat="28.6254020" lon="-17.8731550">
        <ele>728.3</ele>
        <time>2020-11-17T08:59:30Z</time>
      </trkpt>
      <trkpt lat="28.6253450" lon="-17.8731750">
        <ele>728.5</ele>
        <time>2020-11-17T08:59:31Z</time>
      </trkpt>
      <trkpt lat="28.6253450" lon="-17.8731750">
        <ele>728.5</ele>
        <time>2020-11-17T08:59:32Z</time>
      </trkpt>
      <trkpt lat="28.6252900" lon="-17.8731930">
        <ele>728.7</ele>
        <time>2020-11-17T08:59:33Z</time>
      </trkpt>
      <trkpt lat="28.6252630" lon="-17.8732030">
        <ele>728.8</ele>
        <time>2020-11-17T08:59:34Z</time>
      </trkpt>
      <trkpt lat="28.6252630" lon="-17.8732030">
        <ele>728.8</ele>
        <time>2020-11-17T08:59:35Z</time>
      </trkpt>
      <trkpt lat="28.6252080" lon="-17.8732180">
        <ele>729.0</ele>
        <time>2020-11-17T08:59:36Z</time>
      </trkpt>
      <trkpt lat="28.6251820" lon="-17.8732270">
        <ele>729.1</ele>
        <time>2020-11-17T08:59:37Z</time>
      </trkpt>
      <trkpt lat="28.6251820" lon="-17.8732270">
        <ele>729.1</ele>
        <time>2020-11-17T08:59:38Z</time>
      </trkpt>
      <trkpt lat="28.6251280" lon="-17.8732450">
        <ele>729.3</ele>
        <time>2020-11-17T08:59:39Z</time>
      </trkpt>
      <trkpt lat="28.6251280" lon="-17.8732450">
        <ele>729.3</ele>
        <time>2020-11-17T08:59:40Z</time>
      </trkpt>
      <trkpt lat="28.6250750" lon="-17.8732620">
        <ele>729.5</ele>
        <time>2020-11-17T08:59:41Z</time>
      </trkpt>
      <trkpt lat="28.6250750" lon="-17.8732620">
        <ele>729.5</ele>
        <time>2020-11-17T08:59:42Z</time>
      </trkpt>
      <trkpt lat="28.6250220" lon="-17.8732780">
        <ele>729.7</ele>
        <time>2020-11-17T08:59:43Z</time>
      </trkpt>
      <trkpt lat="28.6250220" lon="-17.8732780">
        <ele>729.7</ele>
        <time>2020-11-17T08:59:44Z</time>
      </trkpt>
      <trkpt lat="28.6249600" lon="-17.8732970">
        <ele>729.9</ele>
        <time>2020-11-17T08:59:45Z</time>
      </trkpt>
      <trkpt lat="28.6249300" lon="-17.8733070">
        <ele>730.0</ele>
        <time>2020-11-17T08:59:46Z</time>
      </trkpt>
      <trkpt lat="28.6249300" lon="-17.8733070">
        <ele>730.0</ele>
        <time>2020-11-17T08:59:47Z</time>
      </trkpt>
      <trkpt lat="28.6248730" lon="-17.8733280">
        <ele>730.3</ele>
        <time>2020-11-17T08:59:48Z</time>
      </trkpt>
      <trkpt lat="28.6248730" lon="-17.8733280">
        <ele>730.3</ele>
        <time>2020-11-17T08:59:49Z</time>
      </trkpt>
      <trkpt lat="28.6248150" lon="-17.8733480">
        <ele>730.5</ele>
        <time>2020-11-17T08:59:50Z</time>
      </trkpt>
      <trkpt lat="28.6247850" lon="-17.8733580">
        <ele>730.6</ele>
        <time>2020-11-17T08:59:51Z</time>
      </trkpt>
      <trkpt lat="28.6247850" lon="-17.8733580">
        <ele>730.6</ele>
        <time>2020-11-17T08:59:52Z</time>
      </trkpt>
      <trkpt lat="28.6247270" lon="-17.8733780">
        <ele>730.8</ele>
        <time>2020-11-17T08:59:53Z</time>
      </trkpt>
      <trkpt lat="28.6247270" lon="-17.8733780">
        <ele>730.8</ele>
        <time>2020-11-17T08:59:54Z</time>
      </trkpt>
      <trkpt lat="28.6246680" lon="-17.8734000">
        <ele>730.9</ele>
        <time>2020-11-17T08:59:55Z</time>
      </trkpt>
      <trkpt lat="28.6246680" lon="-17.8734000">
        <ele>730.9</ele>
        <time>2020-11-17T08:59:56Z</time>
      </trkpt>
      <trkpt lat="28.6246100" lon="-17.8734250">
        <ele>731.0</ele>
        <time>2020-11-17T08:59:57Z</time>
      </trkpt>
      <trkpt lat="28.6246100" lon="-17.8734250">
        <ele>731.0</ele>
        <time>2020-11-17T08:59:58Z</time>
      </trkpt>
      <trkpt lat="28.6245520" lon="-17.8734450">
        <ele>731.2</ele>
        <time>2020-11-17T08:59:59Z</time>
      </trkpt>
      <trkpt lat="28.6245520" lon="-17.8734450">
        <ele>731.2</ele>
        <time>2020-11-17T09:00:00Z</time>
      </trkpt>
      <trkpt lat="28.6244930" lon="-17.8734600">
        <ele>731.4</ele>
        <time>2020-11-17T09:00:01Z</time>
      </trkpt>
      <trkpt lat="28.6244930" lon="-17.8734600">
        <ele>731.4</ele>
        <time>2020-11-17T09:00:02Z</time>
      </trkpt>
      <trkpt lat="28.6244330" lon="-17.8734800">
        <ele>731.5</ele>
        <time>2020-11-17T09:00:03Z</time>
      </trkpt>
      <trkpt lat="28.6244050" lon="-17.8734900">
        <ele>731.6</ele>
        <time>2020-11-17T09:00:04Z</time>
      </trkpt>
      <trkpt lat="28.6244050" lon="-17.8734900">
        <ele>731.6</ele>
        <time>2020-11-17T09:00:05Z</time>
      </trkpt>
      <trkpt lat="28.6243470" lon="-17.8735080">
        <ele>731.8</ele>
        <time>2020-11-17T09:00:06Z</time>
      </trkpt>
      <trkpt lat="28.6243470" lon="-17.8735080">
        <ele>731.8</ele>
        <time>2020-11-17T09:00:07Z</time>
      </trkpt>
      <trkpt lat="28.6242970" lon="-17.8735200">
        <ele>732.0</ele>
        <time>2020-11-17T09:00:08Z</time>
      </trkpt>
      <trkpt lat="28.6242770" lon="-17.8735280">
        <ele>732.0</ele>
        <time>2020-11-17T09:00:09Z</time>
      </trkpt>
      <trkpt lat="28.6242770" lon="-17.8735280">
        <ele>732.0</ele>
        <time>2020-11-17T09:00:10Z</time>
      </trkpt>
      <trkpt lat="28.6242380" lon="-17.8735500">
        <ele>732.2</ele>
        <time>2020-11-17T09:00:11Z</time>
      </trkpt>
      <trkpt lat="28.6242380" lon="-17.8735500">
        <ele>732.2</ele>
        <time>2020-11-17T09:00:12Z</time>
      </trkpt>
      <trkpt lat="28.6242050" lon="-17.8735630">
        <ele>732.3</ele>
        <time>2020-11-17T09:00:13Z</time>
      </trkpt>
      <trkpt lat="28.6241870" lon="-17.8735680">
        <ele>732.2</ele>
        <time>2020-11-17T09:00:14Z</time>
      </trkpt>
      <trkpt lat="28.6241870" lon="-17.8735680">
        <ele>732.2</ele>
        <time>2020-11-17T09:00:15Z</time>
      </trkpt>
      <trkpt lat="28.6241530" lon="-17.8735570">
        <ele>732.1</ele>
        <time>2020-11-17T09:00:16Z</time>
      </trkpt>
      <trkpt lat="28.6241530" lon="-17.8735570">
        <ele>732.1</ele>
        <time>2020-11-17T09:00:17Z</time>
      </trkpt>
      <trkpt lat="28.6241770" lon="-17.8735320">
        <ele>732.1</ele>
        <time>2020-11-17T09:00:18Z</time>
      </trkpt>
      <trkpt lat="28.6241770" lon="-17.8735320">
        <ele>732.1</ele>
        <time>2020-11-17T09:00:19Z</time>
      </trkpt>
      <trkpt lat="28.6242320" lon="-17.8735150">
        <ele>731.9</ele>
        <time>2020-11-17T09:00:20Z</time>
      </trkpt>
      <trkpt lat="28.6242320" lon="-17.8735150">
        <ele>731.9</ele>
        <time>2020-11-17T09:00:21Z</time>
      </trkpt>
      <trkpt lat="28.6243030" lon="-17.8734900">
        <ele>731.7</ele>
        <time>2020-11-17T09:00:22Z</time>
      </trkpt>
      <trkpt lat="28.6243030" lon="-17.8734900">
        <ele>731.7</ele>
        <time>2020-11-17T09:00:23Z</time>
      </trkpt>
      <trkpt lat="28.6243850" lon="-17.8734600">
        <ele>731.5</ele>
        <time>2020-11-17T09:00:24Z</time>
      </trkpt>
      <trkpt lat="28.6244300" lon="-17.8734430">
        <ele>731.4</ele>
        <time>2020-11-17T09:00:25Z</time>
      </trkpt>
      <trkpt lat="28.6244300" lon="-17.8734430">
        <ele>731.4</ele>
        <time>2020-11-17T09:00:26Z</time>
      </trkpt>
      <trkpt lat="28.6244300" lon="-17.8734430">
        <ele>731.4</ele>
        <time>2020-11-17T09:00:27Z</time>
      </trkpt>
      <trkpt lat="28.6245680" lon="-17.8734020">
        <ele>731.0</ele>
        <time>2020-11-17T09:00:28Z</time>
      </trkpt>
      <trkpt lat="28.6246130" lon="-17.8733870">
        <ele>730.9</ele>
        <time>2020-11-17T09:00:29Z</time>
      </trkpt>
      <trkpt lat="28.6246130" lon="-17.8733870">
        <ele>730.9</ele>
        <time>2020-11-17T09:00:30Z</time>
      </trkpt>
      <trkpt lat="28.6246930" lon="-17.8733330">
        <ele>730.8</ele>
        <time>2020-11-17T09:00:31Z</time>
      </trkpt>
      <trkpt lat="28.6246930" lon="-17.8733330">
        <ele>730.8</ele>
        <time>2020-11-17T09:00:32Z</time>
      </trkpt>
      <trkpt lat="28.6247180" lon="-17.8732370">
        <ele>731.1</ele>
        <time>2020-11-17T09:00:33Z</time>
      </trkpt>
      <trkpt lat="28.6247220" lon="-17.8731900">
        <ele>731.4</ele>
        <time>2020-11-17T09:00:34Z</time>
      </trkpt>
      <trkpt lat="28.6247220" lon="-17.8731900">
        <ele>731.4</ele>
        <time>2020-11-17T09:00:35Z</time>
      </trkpt>
      <trkpt lat="28.6247180" lon="-17.8731130">
        <ele>731.9</ele>
        <time>2020-11-17T09:00:36Z</time>
      </trkpt>
      <trkpt lat="28.6247180" lon="-17.8731130">
        <ele>731.9</ele>
        <time>2020-11-17T09:00:37Z</time>
      </trkpt>
      <trkpt lat="28.6247000" lon="-17.8730650">
        <ele>732.3</ele>
        <time>2020-11-17T09:00:38Z</time>
      </trkpt>
      <trkpt lat="28.6247000" lon="-17.8730650">
        <ele>732.3</ele>
        <time>2020-11-17T09:00:39Z</time>
      </trkpt>
      <trkpt lat="28.6246870" lon="-17.8730230">
        <ele>732.7</ele>
        <time>2020-11-17T09:00:40Z</time>
      </trkpt>
      <trkpt lat="28.6246780" lon="-17.8730020">
        <ele>732.9</ele>
        <time>2020-11-17T09:00:41Z</time>
      </trkpt>
      <trkpt lat="28.6246780" lon="-17.8730020">
        <ele>732.9</ele>
        <time>2020-11-17T09:00:42Z</time>
      </trkpt>
      <trkpt lat="28.6246670" lon="-17.8729620">
        <ele>733.4</ele>
        <time>2020-11-17T09:00:43Z</time>
      </trkpt>
      <trkpt lat="28.6246670" lon="-17.8729620">
        <ele>733.4</ele>
        <time>2020-11-17T09:00:44Z</time>
      </trkpt>
      <trkpt lat="28.6246550" lon="-17.8729250">
        <ele>733.8</ele>
        <time>2020-11-17T09:00:45Z</time>
      </trkpt>
      <trkpt lat="28.6246550" lon="-17.8729250">
        <ele>733.8</ele>
        <time>2020-11-17T09:00:46Z</time>
      </trkpt>
      <trkpt lat="28.6246430" lon="-17.8728870">
        <ele>734.3</ele>
        <time>2020-11-17T09:00:47Z</time>
      </trkpt>
      <trkpt lat="28.6246370" lon="-17.8728680">
        <ele>734.5</ele>
        <time>2020-11-17T09:00:48Z</time>
      </trkpt>
      <trkpt lat="28.6246370" lon="-17.8728680">
        <ele>734.5</ele>
        <time>2020-11-17T09:00:49Z</time>
      </trkpt>
      <trkpt lat="28.6246220" lon="-17.8728330">
        <ele>735.0</ele>
        <time>2020-11-17T09:00:50Z</time>
      </trkpt>
      <trkpt lat="28.6246220" lon="-17.8728330">
        <ele>735.0</ele>
        <time>2020-11-17T09:00:51Z</time>
      </trkpt>
      <trkpt lat="28.6246080" lon="-17.8728000">
        <ele>735.5</ele>
        <time>2020-11-17T09:00:52Z</time>
      </trkpt>
      <trkpt lat="28.6246020" lon="-17.8727850">
        <ele>735.7</ele>
        <time>2020-11-17T09:00:53Z</time>
      </trkpt>
      <trkpt lat="28.6246020" lon="-17.8727850">
        <ele>735.7</ele>
        <time>2020-11-17T09:00:54Z</time>
      </trkpt>
      <trkpt lat="28.6245830" lon="-17.8727530">
        <ele>736.2</ele>
        <time>2020-11-17T09:00:55Z</time>
      </trkpt>
      <trkpt lat="28.6245830" lon="-17.8727530">
        <ele>736.2</ele>
        <time>2020-11-17T09:00:56Z</time>
      </trkpt>
      <trkpt lat="28.6245650" lon="-17.8727230">
        <ele>736.7</ele>
        <time>2020-11-17T09:00:57Z</time>
      </trkpt>
      <trkpt lat="28.6245650" lon="-17.8727230">
        <ele>736.7</ele>
        <time>2020-11-17T09:00:58Z</time>
      </trkpt>
      <trkpt lat="28.6245630" lon="-17.8726850">
        <ele>737.2</ele>
        <time>2020-11-17T09:00:59Z</time>
      </trkpt>
      <trkpt lat="28.6245630" lon="-17.8726850">
        <ele>737.2</ele>
        <time>2020-11-17T09:01:00Z</time>
      </trkpt>
      <trkpt lat="28.6245570" lon="-17.8726400">
        <ele>737.8</ele>
        <time>2020-11-17T09:01:01Z</time>
      </trkpt>
      <trkpt lat="28.6245570" lon="-17.8726400">
        <ele>737.8</ele>
        <time>2020-11-17T09:01:02Z</time>
      </trkpt>
      <trkpt lat="28.6245450" lon="-17.8726020">
        <ele>738.3</ele>
        <time>2020-11-17T09:01:03Z</time>
      </trkpt>
      <trkpt lat="28.6245450" lon="-17.8726020">
        <ele>738.3</ele>
        <time>2020-11-17T09:01:04Z</time>
      </trkpt>
      <trkpt lat="28.6245270" lon="-17.8725780">
        <ele>738.7</ele>
        <time>2020-11-17T09:01:05Z</time>
      </trkpt>
      <trkpt lat="28.6245270" lon="-17.8725780">
        <ele>738.7</ele>
        <time>2020-11-17T09:01:06Z</time>
      </trkpt>
      <trkpt lat="28.6245080" lon="-17.8725520">
        <ele>739.2</ele>
        <time>2020-11-17T09:01:07Z</time>
      </trkpt>
      <trkpt lat="28.6245080" lon="-17.8725520">
        <ele>739.2</ele>
        <time>2020-11-17T09:01:08Z</time>
      </trkpt>
      <trkpt lat="28.6245050" lon="-17.8725150">
        <ele>739.6</ele>
        <time>2020-11-17T09:01:09Z</time>
      </trkpt>
      <trkpt lat="28.6245070" lon="-17.8724950">
        <ele>739.8</ele>
        <time>2020-11-17T09:01:10Z</time>
      </trkpt>
      <trkpt lat="28.6245070" lon="-17.8724950">
        <ele>739.8</ele>
        <time>2020-11-17T09:01:11Z</time>
      </trkpt>
      <trkpt lat="28.6245050" lon="-17.8724580">
        <ele>740.3</ele>
        <time>2020-11-17T09:01:12Z</time>
      </trkpt>
      <trkpt lat="28.6245050" lon="-17.8724580">
        <ele>740.3</ele>
        <time>2020-11-17T09:01:13Z</time>
      </trkpt>
      <trkpt lat="28.6244970" lon="-17.8724280">
        <ele>740.6</ele>
        <time>2020-11-17T09:01:14Z</time>
      </trkpt>
      <trkpt lat="28.6244900" lon="-17.8724150">
        <ele>740.8</ele>
        <time>2020-11-17T09:01:15Z</time>
      </trkpt>
      <trkpt lat="28.6244900" lon="-17.8724150">
        <ele>740.8</ele>
        <time>2020-11-17T09:01:16Z</time>
      </trkpt>
      <trkpt lat="28.6244780" lon="-17.8723880">
        <ele>741.1</ele>
        <time>2020-11-17T09:01:17Z</time>
      </trkpt>
      <trkpt lat="28.6244720" lon="-17.8723770">
        <ele>741.2</ele>
        <time>2020-11-17T09:01:18Z</time>
      </trkpt>
      <trkpt lat="28.6244720" lon="-17.8723770">
        <ele>741.2</ele>
        <time>2020-11-17T09:01:19Z</time>
      </trkpt>
      <trkpt lat="28.6244680" lon="-17.8723470">
        <ele>741.5</ele>
        <time>2020-11-17T09:01:20Z</time>
      </trkpt>
      <trkpt lat="28.6244680" lon="-17.8723470">
        <ele>741.5</ele>
        <time>2020-11-17T09:01:21Z</time>
      </trkpt>
      <trkpt lat="28.6244570" lon="-17.8723130">
        <ele>741.9</ele>
        <time>2020-11-17T09:01:22Z</time>
      </trkpt>
      <trkpt lat="28.6244570" lon="-17.8723130">
        <ele>741.9</ele>
        <time>2020-11-17T09:01:23Z</time>
      </trkpt>
      <trkpt lat="28.6244420" lon="-17.8722850">
        <ele>742.1</ele>
        <time>2020-11-17T09:01:24Z</time>
      </trkpt>
      <trkpt lat="28.6244420" lon="-17.8722850">
        <ele>742.1</ele>
        <time>2020-11-17T09:01:25Z</time>
      </trkpt>
      <trkpt lat="28.6244320" lon="-17.8722500">
        <ele>742.5</ele>
        <time>2020-11-17T09:01:26Z</time>
      </trkpt>
      <trkpt lat="28.6244320" lon="-17.8722500">
        <ele>742.5</ele>
        <time>2020-11-17T09:01:27Z</time>
      </trkpt>
      <trkpt lat="28.6244250" lon="-17.8722170">
        <ele>742.8</ele>
        <time>2020-11-17T09:01:28Z</time>
      </trkpt>
      <trkpt lat="28.6244250" lon="-17.8722170">
        <ele>742.8</ele>
        <time>2020-11-17T09:01:29Z</time>
      </trkpt>
      <trkpt lat="28.6244150" lon="-17.8721820">
        <ele>743.1</ele>
        <time>2020-11-17T09:01:30Z</time>
      </trkpt>
      <trkpt lat="28.6244150" lon="-17.8721820">
        <ele>743.1</ele>
        <time>2020-11-17T09:01:31Z</time>
      </trkpt>
      <trkpt lat="28.6244030" lon="-17.8721500">
        <ele>743.4</ele>
        <time>2020-11-17T09:01:32Z</time>
      </trkpt>
      <trkpt lat="28.6243980" lon="-17.8721330">
        <ele>743.5</ele>
        <time>2020-11-17T09:01:33Z</time>
      </trkpt>
      <trkpt lat="28.6243980" lon="-17.8721330">
        <ele>743.5</ele>
        <time>2020-11-17T09:01:34Z</time>
      </trkpt>
      <trkpt lat="28.6243880" lon="-17.8721000">
        <ele>743.8</ele>
        <time>2020-11-17T09:01:35Z</time>
      </trkpt>
      <trkpt lat="28.6243880" lon="-17.8721000">
        <ele>743.8</ele>
        <time>2020-11-17T09:01:36Z</time>
      </trkpt>
      <trkpt lat="28.6243770" lon="-17.8720650">
        <ele>744.1</ele>
        <time>2020-11-17T09:01:37Z</time>
      </trkpt>
      <trkpt lat="28.6243700" lon="-17.8720480">
        <ele>744.3</ele>
        <time>2020-11-17T09:01:38Z</time>
      </trkpt>
      <trkpt lat="28.6243700" lon="-17.8720480">
        <ele>744.3</ele>
        <time>2020-11-17T09:01:39Z</time>
      </trkpt>
      <trkpt lat="28.6243600" lon="-17.8720170">
        <ele>744.6</ele>
        <time>2020-11-17T09:01:40Z</time>
      </trkpt>
      <trkpt lat="28.6243600" lon="-17.8720170">
        <ele>744.6</ele>
        <time>2020-11-17T09:01:41Z</time>
      </trkpt>
      <trkpt lat="28.6243580" lon="-17.8719820">
        <ele>744.9</ele>
        <time>2020-11-17T09:01:42Z</time>
      </trkpt>
      <trkpt lat="28.6243580" lon="-17.8719820">
        <ele>744.9</ele>
        <time>2020-11-17T09:01:43Z</time>
      </trkpt>
      <trkpt lat="28.6243520" lon="-17.8719500">
        <ele>745.2</ele>
        <time>2020-11-17T09:01:44Z</time>
      </trkpt>
      <trkpt lat="28.6243500" lon="-17.8719320">
        <ele>745.3</ele>
        <time>2020-11-17T09:01:45Z</time>
      </trkpt>
      <trkpt lat="28.6243500" lon="-17.8719320">
        <ele>745.3</ele>
        <time>2020-11-17T09:01:46Z</time>
      </trkpt>
      <trkpt lat="28.6243450" lon="-17.8718970">
        <ele>745.6</ele>
        <time>2020-11-17T09:01:47Z</time>
      </trkpt>
      <trkpt lat="28.6243430" lon="-17.8718780">
        <ele>745.8</ele>
        <time>2020-11-17T09:01:48Z</time>
      </trkpt>
      <trkpt lat="28.6243430" lon="-17.8718780">
        <ele>745.8</ele>
        <time>2020-11-17T09:01:49Z</time>
      </trkpt>
      <trkpt lat="28.6243350" lon="-17.8718420">
        <ele>746.1</ele>
        <time>2020-11-17T09:01:50Z</time>
      </trkpt>
      <trkpt lat="28.6243350" lon="-17.8718420">
        <ele>746.1</ele>
        <time>2020-11-17T09:01:51Z</time>
      </trkpt>
      <trkpt lat="28.6243300" lon="-17.8718050">
        <ele>746.5</ele>
        <time>2020-11-17T09:01:52Z</time>
      </trkpt>
      <trkpt lat="28.6243300" lon="-17.8718050">
        <ele>746.5</ele>
        <time>2020-11-17T09:01:53Z</time>
      </trkpt>
      <trkpt lat="28.6243250" lon="-17.8717700">
        <ele>746.8</ele>
        <time>2020-11-17T09:01:54Z</time>
      </trkpt>
      <trkpt lat="28.6243250" lon="-17.8717700">
        <ele>746.8</ele>
        <time>2020-11-17T09:01:55Z</time>
      </trkpt>
      <trkpt lat="28.6243220" lon="-17.8717330">
        <ele>747.1</ele>
        <time>2020-11-17T09:01:56Z</time>
      </trkpt>
      <trkpt lat="28.6243200" lon="-17.8717130">
        <ele>747.3</ele>
        <time>2020-11-17T09:01:57Z</time>
      </trkpt>
      <trkpt lat="28.6243200" lon="-17.8717130">
        <ele>747.3</ele>
        <time>2020-11-17T09:01:58Z</time>
      </trkpt>
      <trkpt lat="28.6243130" lon="-17.8716750">
        <ele>747.7</ele>
        <time>2020-11-17T09:01:59Z</time>
      </trkpt>
      <trkpt lat="28.6243100" lon="-17.8716550">
        <ele>747.9</ele>
        <time>2020-11-17T09:02:00Z</time>
      </trkpt>
      <trkpt lat="28.6243100" lon="-17.8716550">
        <ele>747.9</ele>
        <time>2020-11-17T09:02:01Z</time>
      </trkpt>
      <trkpt lat="28.6243070" lon="-17.8716150">
        <ele>748.2</ele>
        <time>2020-11-17T09:02:02Z</time>
      </trkpt>
      <trkpt lat="28.6243020" lon="-17.8715950">
        <ele>748.4</ele>
        <time>2020-11-17T09:02:03Z</time>
      </trkpt>
      <trkpt lat="28.6243020" lon="-17.8715950">
        <ele>748.4</ele>
        <time>2020-11-17T09:02:04Z</time>
      </trkpt>
      <trkpt lat="28.6242970" lon="-17.8715550">
        <ele>748.8</ele>
        <time>2020-11-17T09:02:05Z</time>
      </trkpt>
      <trkpt lat="28.6242970" lon="-17.8715550">
        <ele>748.8</ele>
        <time>2020-11-17T09:02:06Z</time>
      </trkpt>
      <trkpt lat="28.6242930" lon="-17.8715180">
        <ele>749.2</ele>
        <time>2020-11-17T09:02:07Z</time>
      </trkpt>
      <trkpt lat="28.6242930" lon="-17.8715180">
        <ele>749.2</ele>
        <time>2020-11-17T09:02:08Z</time>
      </trkpt>
      <trkpt lat="28.6242820" lon="-17.8714820">
        <ele>749.5</ele>
        <time>2020-11-17T09:02:09Z</time>
      </trkpt>
      <trkpt lat="28.6242820" lon="-17.8714820">
        <ele>749.5</ele>
        <time>2020-11-17T09:02:10Z</time>
      </trkpt>
      <trkpt lat="28.6242720" lon="-17.8714470">
        <ele>749.8</ele>
        <time>2020-11-17T09:02:11Z</time>
      </trkpt>
      <trkpt lat="28.6242670" lon="-17.8714280">
        <ele>750.0</ele>
        <time>2020-11-17T09:02:12Z</time>
      </trkpt>
      <trkpt lat="28.6242670" lon="-17.8714280">
        <ele>750.0</ele>
        <time>2020-11-17T09:02:13Z</time>
      </trkpt>
      <trkpt lat="28.6242550" lon="-17.8713930">
        <ele>750.3</ele>
        <time>2020-11-17T09:02:14Z</time>
      </trkpt>
      <trkpt lat="28.6242550" lon="-17.8713930">
        <ele>750.3</ele>
        <time>2020-11-17T09:02:15Z</time>
      </trkpt>
      <trkpt lat="28.6242400" lon="-17.8713630">
        <ele>750.7</ele>
        <time>2020-11-17T09:02:16Z</time>
      </trkpt>
      <trkpt lat="28.6242400" lon="-17.8713630">
        <ele>750.7</ele>
        <time>2020-11-17T09:02:17Z</time>
      </trkpt>
      <trkpt lat="28.6242170" lon="-17.8713400">
        <ele>751.0</ele>
        <time>2020-11-17T09:02:18Z</time>
      </trkpt>
      <trkpt lat="28.6242170" lon="-17.8713400">
        <ele>751.0</ele>
        <time>2020-11-17T09:02:19Z</time>
      </trkpt>
      <trkpt lat="28.6241900" lon="-17.8713220">
        <ele>751.3</ele>
        <time>2020-11-17T09:02:20Z</time>
      </trkpt>
      <trkpt lat="28.6241750" lon="-17.8713170">
        <ele>751.4</ele>
        <time>2020-11-17T09:02:21Z</time>
      </trkpt>
      <trkpt lat="28.6241750" lon="-17.8713170">
        <ele>751.4</ele>
        <time>2020-11-17T09:02:22Z</time>
      </trkpt>
      <trkpt lat="28.6241430" lon="-17.8713100">
        <ele>751.8</ele>
        <time>2020-11-17T09:02:23Z</time>
      </trkpt>
      <trkpt lat="28.6241430" lon="-17.8713100">
        <ele>751.8</ele>
        <time>2020-11-17T09:02:24Z</time>
      </trkpt>
      <trkpt lat="28.6241170" lon="-17.8713030">
        <ele>752.0</ele>
        <time>2020-11-17T09:02:25Z</time>
      </trkpt>
      <trkpt lat="28.6241170" lon="-17.8713030">
        <ele>752.0</ele>
        <time>2020-11-17T09:02:26Z</time>
      </trkpt>
      <trkpt lat="28.6240820" lon="-17.8712950">
        <ele>752.4</ele>
        <time>2020-11-17T09:02:27Z</time>
      </trkpt>
      <trkpt lat="28.6240820" lon="-17.8712950">
        <ele>752.4</ele>
        <time>2020-11-17T09:02:28Z</time>
      </trkpt>
      <trkpt lat="28.6240470" lon="-17.8713020">
        <ele>752.7</ele>
        <time>2020-11-17T09:02:29Z</time>
      </trkpt>
      <trkpt lat="28.6240470" lon="-17.8713020">
        <ele>752.7</ele>
        <time>2020-11-17T09:02:30Z</time>
      </trkpt>
      <trkpt lat="28.6240120" lon="-17.8713150">
        <ele>753.1</ele>
        <time>2020-11-17T09:02:31Z</time>
      </trkpt>
      <trkpt lat="28.6240120" lon="-17.8713150">
        <ele>753.1</ele>
        <time>2020-11-17T09:02:32Z</time>
      </trkpt>
      <trkpt lat="28.6239770" lon="-17.8713230">
        <ele>753.4</ele>
        <time>2020-11-17T09:02:33Z</time>
      </trkpt>
      <trkpt lat="28.6239580" lon="-17.8713280">
        <ele>753.6</ele>
        <time>2020-11-17T09:02:34Z</time>
      </trkpt>
      <trkpt lat="28.6239420" lon="-17.8713330">
        <ele>753.7</ele>
        <time>2020-11-17T09:02:35Z</time>
      </trkpt>
      <trkpt lat="28.6239420" lon="-17.8713330">
        <ele>753.7</ele>
        <time>2020-11-17T09:02:36Z</time>
      </trkpt>
      <trkpt lat="28.6239080" lon="-17.8713430">
        <ele>754.0</ele>
        <time>2020-11-17T09:02:37Z</time>
      </trkpt>
      <trkpt lat="28.6239080" lon="-17.8713430">
        <ele>754.0</ele>
        <time>2020-11-17T09:02:38Z</time>
      </trkpt>
      <trkpt lat="28.6238700" lon="-17.8713450">
        <ele>754.3</ele>
        <time>2020-11-17T09:02:39Z</time>
      </trkpt>
      <trkpt lat="28.6238700" lon="-17.8713450">
        <ele>754.3</ele>
        <time>2020-11-17T09:02:40Z</time>
      </trkpt>
      <trkpt lat="28.6238320" lon="-17.8713430">
        <ele>754.6</ele>
        <time>2020-11-17T09:02:41Z</time>
      </trkpt>
      <trkpt lat="28.6238130" lon="-17.8713430">
        <ele>754.7</ele>
        <time>2020-11-17T09:02:42Z</time>
      </trkpt>
      <trkpt lat="28.6238130" lon="-17.8713430">
        <ele>754.7</ele>
        <time>2020-11-17T09:02:43Z</time>
      </trkpt>
      <trkpt lat="28.6237770" lon="-17.8713320">
        <ele>755.0</ele>
        <time>2020-11-17T09:02:44Z</time>
      </trkpt>
      <trkpt lat="28.6237770" lon="-17.8713320">
        <ele>755.0</ele>
        <time>2020-11-17T09:02:45Z</time>
      </trkpt>
      <trkpt lat="28.6237430" lon="-17.8713120">
        <ele>755.3</ele>
        <time>2020-11-17T09:02:46Z</time>
      </trkpt>
      <trkpt lat="28.6237430" lon="-17.8713120">
        <ele>755.3</ele>
        <time>2020-11-17T09:02:47Z</time>
      </trkpt>
      <trkpt lat="28.6237200" lon="-17.8712820">
        <ele>755.5</ele>
        <time>2020-11-17T09:02:48Z</time>
      </trkpt>
      <trkpt lat="28.6237200" lon="-17.8712820">
        <ele>755.5</ele>
        <time>2020-11-17T09:02:49Z</time>
      </trkpt>
      <trkpt lat="28.6237020" lon="-17.8712420">
        <ele>755.8</ele>
        <time>2020-11-17T09:02:50Z</time>
      </trkpt>
      <trkpt lat="28.6237020" lon="-17.8712420">
        <ele>755.8</ele>
        <time>2020-11-17T09:02:51Z</time>
      </trkpt>
      <trkpt lat="28.6236850" lon="-17.8712030">
        <ele>756.1</ele>
        <time>2020-11-17T09:02:52Z</time>
      </trkpt>
      <trkpt lat="28.6236770" lon="-17.8711830">
        <ele>756.2</ele>
        <time>2020-11-17T09:02:53Z</time>
      </trkpt>
      <trkpt lat="28.6236700" lon="-17.8711620">
        <ele>756.3</ele>
        <time>2020-11-17T09:02:54Z</time>
      </trkpt>
      <trkpt lat="28.6236700" lon="-17.8711620">
        <ele>756.3</ele>
        <time>2020-11-17T09:02:55Z</time>
      </trkpt>
      <trkpt lat="28.6236550" lon="-17.8711150">
        <ele>756.5</ele>
        <time>2020-11-17T09:02:56Z</time>
      </trkpt>
      <trkpt lat="28.6236550" lon="-17.8711150">
        <ele>756.5</ele>
        <time>2020-11-17T09:02:57Z</time>
      </trkpt>
      <trkpt lat="28.6236370" lon="-17.8710720">
        <ele>756.7</ele>
        <time>2020-11-17T09:02:58Z</time>
      </trkpt>
      <trkpt lat="28.6236370" lon="-17.8710720">
        <ele>756.7</ele>
        <time>2020-11-17T09:02:59Z</time>
      </trkpt>
      <trkpt lat="28.6236080" lon="-17.8710320">
        <ele>756.9</ele>
        <time>2020-11-17T09:03:00Z</time>
      </trkpt>
      <trkpt lat="28.6236080" lon="-17.8710320">
        <ele>756.9</ele>
        <time>2020-11-17T09:03:01Z</time>
      </trkpt>
      <trkpt lat="28.6235680" lon="-17.8709970">
        <ele>757.1</ele>
        <time>2020-11-17T09:03:02Z</time>
      </trkpt>
      <trkpt lat="28.6235500" lon="-17.8709830">
        <ele>757.2</ele>
        <time>2020-11-17T09:03:03Z</time>
      </trkpt>
      <trkpt lat="28.6235500" lon="-17.8709830">
        <ele>757.2</ele>
        <time>2020-11-17T09:03:04Z</time>
      </trkpt>
      <trkpt lat="28.6235020" lon="-17.8709720">
        <ele>757.4</ele>
        <time>2020-11-17T09:03:05Z</time>
      </trkpt>
      <trkpt lat="28.6235020" lon="-17.8709720">
        <ele>757.4</ele>
        <time>2020-11-17T09:03:06Z</time>
      </trkpt>
      <trkpt lat="28.6234400" lon="-17.8709630">
        <ele>757.5</ele>
        <time>2020-11-17T09:03:07Z</time>
      </trkpt>
      <trkpt lat="28.6234400" lon="-17.8709630">
        <ele>757.5</ele>
        <time>2020-11-17T09:03:08Z</time>
      </trkpt>
      <trkpt lat="28.6233750" lon="-17.8709630">
        <ele>757.6</ele>
        <time>2020-11-17T09:03:09Z</time>
      </trkpt>
      <trkpt lat="28.6233750" lon="-17.8709630">
        <ele>757.6</ele>
        <time>2020-11-17T09:03:10Z</time>
      </trkpt>
      <trkpt lat="28.6233080" lon="-17.8709830">
        <ele>757.7</ele>
        <time>2020-11-17T09:03:11Z</time>
      </trkpt>
      <trkpt lat="28.6233080" lon="-17.8709830">
        <ele>757.7</ele>
        <time>2020-11-17T09:03:12Z</time>
      </trkpt>
      <trkpt lat="28.6232550" lon="-17.8710280">
        <ele>757.8</ele>
        <time>2020-11-17T09:03:13Z</time>
      </trkpt>
      <trkpt lat="28.6232330" lon="-17.8710520">
        <ele>757.8</ele>
        <time>2020-11-17T09:03:14Z</time>
      </trkpt>
      <trkpt lat="28.6232130" lon="-17.8710750">
        <ele>757.9</ele>
        <time>2020-11-17T09:03:15Z</time>
      </trkpt>
      <trkpt lat="28.6232130" lon="-17.8710750">
        <ele>757.9</ele>
        <time>2020-11-17T09:03:16Z</time>
      </trkpt>
      <trkpt lat="28.6231730" lon="-17.8711200">
        <ele>758.0</ele>
        <time>2020-11-17T09:03:17Z</time>
      </trkpt>
      <trkpt lat="28.6231500" lon="-17.8711400">
        <ele>758.1</ele>
        <time>2020-11-17T09:03:18Z</time>
      </trkpt>
      <trkpt lat="28.6231500" lon="-17.8711400">
        <ele>758.1</ele>
        <time>2020-11-17T09:03:19Z</time>
      </trkpt>
      <trkpt lat="28.6230920" lon="-17.8711750">
        <ele>758.3</ele>
        <time>2020-11-17T09:03:20Z</time>
      </trkpt>
      <trkpt lat="28.6230920" lon="-17.8711750">
        <ele>758.3</ele>
        <time>2020-11-17T09:03:21Z</time>
      </trkpt>
      <trkpt lat="28.6230270" lon="-17.8712000">
        <ele>758.4</ele>
        <time>2020-11-17T09:03:22Z</time>
      </trkpt>
      <trkpt lat="28.6229880" lon="-17.8712050">
        <ele>758.5</ele>
        <time>2020-11-17T09:03:23Z</time>
      </trkpt>
      <trkpt lat="28.6229880" lon="-17.8712050">
        <ele>758.5</ele>
        <time>2020-11-17T09:03:24Z</time>
      </trkpt>
      <trkpt lat="28.6229100" lon="-17.8711930">
        <ele>758.5</ele>
        <time>2020-11-17T09:03:25Z</time>
      </trkpt>
      <trkpt lat="28.6229100" lon="-17.8711930">
        <ele>758.5</ele>
        <time>2020-11-17T09:03:26Z</time>
      </trkpt>
      <trkpt lat="28.6228330" lon="-17.8711670">
        <ele>758.6</ele>
        <time>2020-11-17T09:03:27Z</time>
      </trkpt>
      <trkpt lat="28.6228330" lon="-17.8711670">
        <ele>758.6</ele>
        <time>2020-11-17T09:03:28Z</time>
      </trkpt>
      <trkpt lat="28.6227500" lon="-17.8711520">
        <ele>758.6</ele>
        <time>2020-11-17T09:03:29Z</time>
      </trkpt>
      <trkpt lat="28.6227120" lon="-17.8711550">
        <ele>758.6</ele>
        <time>2020-11-17T09:03:30Z</time>
      </trkpt>
      <trkpt lat="28.6227120" lon="-17.8711550">
        <ele>758.6</ele>
        <time>2020-11-17T09:03:31Z</time>
      </trkpt>
      <trkpt lat="28.6226520" lon="-17.8711880">
        <ele>758.8</ele>
        <time>2020-11-17T09:03:32Z</time>
      </trkpt>
      <trkpt lat="28.6226520" lon="-17.8711880">
        <ele>758.8</ele>
        <time>2020-11-17T09:03:33Z</time>
      </trkpt>
      <trkpt lat="28.6226230" lon="-17.8712470">
        <ele>759.0</ele>
        <time>2020-11-17T09:03:34Z</time>
      </trkpt>
      <trkpt lat="28.6226080" lon="-17.8712770">
        <ele>759.1</ele>
        <time>2020-11-17T09:03:35Z</time>
      </trkpt>
      <trkpt lat="28.6225920" lon="-17.8713070">
        <ele>759.2</ele>
        <time>2020-11-17T09:03:36Z</time>
      </trkpt>
      <trkpt lat="28.6225920" lon="-17.8713070">
        <ele>759.2</ele>
        <time>2020-11-17T09:03:37Z</time>
      </trkpt>
      <trkpt lat="28.6225430" lon="-17.8713680">
        <ele>759.4</ele>
        <time>2020-11-17T09:03:38Z</time>
      </trkpt>
      <trkpt lat="28.6225200" lon="-17.8713950">
        <ele>759.5</ele>
        <time>2020-11-17T09:03:39Z</time>
      </trkpt>
      <trkpt lat="28.6225200" lon="-17.8713950">
        <ele>759.5</ele>
        <time>2020-11-17T09:03:40Z</time>
      </trkpt>
      <trkpt lat="28.6224600" lon="-17.8714400">
        <ele>759.8</ele>
        <time>2020-11-17T09:03:41Z</time>
      </trkpt>
      <trkpt lat="28.6224320" lon="-17.8714550">
        <ele>759.9</ele>
        <time>2020-11-17T09:03:42Z</time>
      </trkpt>
      <trkpt lat="28.6224320" lon="-17.8714550">
        <ele>759.9</ele>
        <time>2020-11-17T09:03:43Z</time>
      </trkpt>
      <trkpt lat="28.6223750" lon="-17.8714700">
        <ele>760.2</ele>
        <time>2020-11-17T09:03:44Z</time>
      </trkpt>
      <trkpt lat="28.6223750" lon="-17.8714700">
        <ele>760.2</ele>
        <time>2020-11-17T09:03:45Z</time>
      </trkpt>
      <trkpt lat="28.6223200" lon="-17.8714720">
        <ele>760.5</ele>
        <time>2020-11-17T09:03:46Z</time>
      </trkpt>
      <trkpt lat="28.6223200" lon="-17.8714720">
        <ele>760.5</ele>
        <time>2020-11-17T09:03:47Z</time>
      </trkpt>
      <trkpt lat="28.6222750" lon="-17.8714650">
        <ele>760.8</ele>
        <time>2020-11-17T09:03:48Z</time>
      </trkpt>
      <trkpt lat="28.6222750" lon="-17.8714650">
        <ele>760.8</ele>
        <time>2020-11-17T09:03:49Z</time>
      </trkpt>
      <trkpt lat="28.6222400" lon="-17.8714370">
        <ele>761.1</ele>
        <time>2020-11-17T09:03:50Z</time>
      </trkpt>
      <trkpt lat="28.6222400" lon="-17.8714370">
        <ele>761.1</ele>
        <time>2020-11-17T09:03:51Z</time>
      </trkpt>
      <trkpt lat="28.6222270" lon="-17.8713850">
        <ele>761.4</ele>
        <time>2020-11-17T09:03:52Z</time>
      </trkpt>
      <trkpt lat="28.6222270" lon="-17.8713850">
        <ele>761.4</ele>
        <time>2020-11-17T09:03:53Z</time>
      </trkpt>
      <trkpt lat="28.6222370" lon="-17.8713330">
        <ele>761.8</ele>
        <time>2020-11-17T09:03:54Z</time>
      </trkpt>
      <trkpt lat="28.6222470" lon="-17.8713120">
        <ele>761.9</ele>
        <time>2020-11-17T09:03:55Z</time>
      </trkpt>
      <trkpt lat="28.6222470" lon="-17.8713120">
        <ele>761.9</ele>
        <time>2020-11-17T09:03:56Z</time>
      </trkpt>
      <trkpt lat="28.6222670" lon="-17.8712700">
        <ele>762.3</ele>
        <time>2020-11-17T09:03:57Z</time>
      </trkpt>
      <trkpt lat="28.6222670" lon="-17.8712700">
        <ele>762.3</ele>
        <time>2020-11-17T09:03:58Z</time>
      </trkpt>
      <trkpt lat="28.6222830" lon="-17.8712330">
        <ele>762.6</ele>
        <time>2020-11-17T09:03:59Z</time>
      </trkpt>
      <trkpt lat="28.6222930" lon="-17.8712200">
        <ele>762.8</ele>
        <time>2020-11-17T09:04:00Z</time>
      </trkpt>
      <trkpt lat="28.6222930" lon="-17.8712200">
        <ele>762.8</ele>
        <time>2020-11-17T09:04:01Z</time>
      </trkpt>
      <trkpt lat="28.6223150" lon="-17.8711930">
        <ele>763.1</ele>
        <time>2020-11-17T09:04:02Z</time>
      </trkpt>
      <trkpt lat="28.6223150" lon="-17.8711930">
        <ele>763.1</ele>
        <time>2020-11-17T09:04:03Z</time>
      </trkpt>
      <trkpt lat="28.6223370" lon="-17.8711630">
        <ele>763.5</ele>
        <time>2020-11-17T09:04:04Z</time>
      </trkpt>
      <trkpt lat="28.6223370" lon="-17.8711630">
        <ele>763.5</ele>
        <time>2020-11-17T09:04:05Z</time>
      </trkpt>
      <trkpt lat="28.6223580" lon="-17.8711330">
        <ele>763.9</ele>
        <time>2020-11-17T09:04:06Z</time>
      </trkpt>
      <trkpt lat="28.6223580" lon="-17.8711330">
        <ele>763.9</ele>
        <time>2020-11-17T09:04:07Z</time>
      </trkpt>
      <trkpt lat="28.6223780" lon="-17.8711030">
        <ele>764.2</ele>
        <time>2020-11-17T09:04:08Z</time>
      </trkpt>
      <trkpt lat="28.6223880" lon="-17.8710880">
        <ele>764.4</ele>
        <time>2020-11-17T09:04:09Z</time>
      </trkpt>
      <trkpt lat="28.6223880" lon="-17.8710880">
        <ele>764.4</ele>
        <time>2020-11-17T09:04:10Z</time>
      </trkpt>
      <trkpt lat="28.6224120" lon="-17.8710620">
        <ele>764.9</ele>
        <time>2020-11-17T09:04:11Z</time>
      </trkpt>
      <trkpt lat="28.6224220" lon="-17.8710500">
        <ele>765.0</ele>
        <time>2020-11-17T09:04:12Z</time>
      </trkpt>
      <trkpt lat="28.6224220" lon="-17.8710500">
        <ele>765.0</ele>
        <time>2020-11-17T09:04:13Z</time>
      </trkpt>
      <trkpt lat="28.6224430" lon="-17.8710220">
        <ele>765.5</ele>
        <time>2020-11-17T09:04:14Z</time>
      </trkpt>
      <trkpt lat="28.6224530" lon="-17.8710080">
        <ele>765.7</ele>
        <time>2020-11-17T09:04:15Z</time>
      </trkpt>
      <trkpt lat="28.6224650" lon="-17.8709950">
        <ele>765.9</ele>
        <time>2020-11-17T09:04:16Z</time>
      </trkpt>
      <trkpt lat="28.6224650" lon="-17.8709950">
        <ele>765.9</ele>
        <time>2020-11-17T09:04:17Z</time>
      </trkpt>
      <trkpt lat="28.6224850" lon="-17.8709670">
        <ele>766.4</ele>
        <time>2020-11-17T09:04:18Z</time>
      </trkpt>
      <trkpt lat="28.6224950" lon="-17.8709530">
        <ele>766.7</ele>
        <time>2020-11-17T09:04:19Z</time>
      </trkpt>
      <trkpt lat="28.6224950" lon="-17.8709530">
        <ele>766.7</ele>
        <time>2020-11-17T09:04:20Z</time>
      </trkpt>
      <trkpt lat="28.6225130" lon="-17.8709220">
        <ele>767.2</ele>
        <time>2020-11-17T09:04:21Z</time>
      </trkpt>
      <trkpt lat="28.6225220" lon="-17.8709030">
        <ele>767.6</ele>
        <time>2020-11-17T09:04:22Z</time>
      </trkpt>
      <trkpt lat="28.6225220" lon="-17.8709030">
        <ele>767.6</ele>
        <time>2020-11-17T09:04:23Z</time>
      </trkpt>
      <trkpt lat="28.6225280" lon="-17.8708700">
        <ele>768.1</ele>
        <time>2020-11-17T09:04:24Z</time>
      </trkpt>
      <trkpt lat="28.6225280" lon="-17.8708700">
        <ele>768.1</ele>
        <time>2020-11-17T09:04:25Z</time>
      </trkpt>
      <trkpt lat="28.6225250" lon="-17.8708350">
        <ele>768.7</ele>
        <time>2020-11-17T09:04:26Z</time>
      </trkpt>
      <trkpt lat="28.6225250" lon="-17.8708350">
        <ele>768.7</ele>
        <time>2020-11-17T09:04:27Z</time>
      </trkpt>
      <trkpt lat="28.6225170" lon="-17.8707980">
        <ele>769.3</ele>
        <time>2020-11-17T09:04:28Z</time>
      </trkpt>
      <trkpt lat="28.6225170" lon="-17.8707980">
        <ele>769.3</ele>
        <time>2020-11-17T09:04:29Z</time>
      </trkpt>
      <trkpt lat="28.6225030" lon="-17.8707650">
        <ele>769.9</ele>
        <time>2020-11-17T09:04:30Z</time>
      </trkpt>
      <trkpt lat="28.6225030" lon="-17.8707650">
        <ele>769.9</ele>
        <time>2020-11-17T09:04:31Z</time>
      </trkpt>
      <trkpt lat="28.6224920" lon="-17.8707370">
        <ele>770.4</ele>
        <time>2020-11-17T09:04:32Z</time>
      </trkpt>
      <trkpt lat="28.6224920" lon="-17.8707370">
        <ele>770.4</ele>
        <time>2020-11-17T09:04:33Z</time>
      </trkpt>
      <trkpt lat="28.6224780" lon="-17.8707030">
        <ele>771.0</ele>
        <time>2020-11-17T09:04:34Z</time>
      </trkpt>
      <trkpt lat="28.6224780" lon="-17.8707030">
        <ele>771.0</ele>
        <time>2020-11-17T09:04:35Z</time>
      </trkpt>
      <trkpt lat="28.6224650" lon="-17.8706720">
        <ele>771.5</ele>
        <time>2020-11-17T09:04:36Z</time>
      </trkpt>
      <trkpt lat="28.6224650" lon="-17.8706720">
        <ele>771.5</ele>
        <time>2020-11-17T09:04:37Z</time>
      </trkpt>
      <trkpt lat="28.6224450" lon="-17.8706480">
        <ele>772.0</ele>
        <time>2020-11-17T09:04:38Z</time>
      </trkpt>
      <trkpt lat="28.6224450" lon="-17.8706480">
        <ele>772.0</ele>
        <time>2020-11-17T09:04:39Z</time>
      </trkpt>
      <trkpt lat="28.6224330" lon="-17.8706220">
        <ele>772.5</ele>
        <time>2020-11-17T09:04:40Z</time>
      </trkpt>
      <trkpt lat="28.6224330" lon="-17.8706220">
        <ele>772.5</ele>
        <time>2020-11-17T09:04:41Z</time>
      </trkpt>
      <trkpt lat="28.6224250" lon="-17.8705880">
        <ele>773.0</ele>
        <time>2020-11-17T09:04:42Z</time>
      </trkpt>
      <trkpt lat="28.6224200" lon="-17.8705770">
        <ele>773.2</ele>
        <time>2020-11-17T09:04:43Z</time>
      </trkpt>
      <trkpt lat="28.6224200" lon="-17.8705770">
        <ele>773.2</ele>
        <time>2020-11-17T09:04:44Z</time>
      </trkpt>
      <trkpt lat="28.6224030" lon="-17.8705530">
        <ele>773.6</ele>
        <time>2020-11-17T09:04:45Z</time>
      </trkpt>
      <trkpt lat="28.6224030" lon="-17.8705530">
        <ele>773.6</ele>
        <time>2020-11-17T09:04:46Z</time>
      </trkpt>
      <trkpt lat="28.6223870" lon="-17.8705280">
        <ele>774.1</ele>
        <time>2020-11-17T09:04:47Z</time>
      </trkpt>
      <trkpt lat="28.6223780" lon="-17.8705150">
        <ele>774.3</ele>
        <time>2020-11-17T09:04:48Z</time>
      </trkpt>
      <trkpt lat="28.6223780" lon="-17.8705150">
        <ele>774.3</ele>
        <time>2020-11-17T09:04:49Z</time>
      </trkpt>
      <trkpt lat="28.6223630" lon="-17.8704830">
        <ele>774.8</ele>
        <time>2020-11-17T09:04:50Z</time>
      </trkpt>
      <trkpt lat="28.6223630" lon="-17.8704830">
        <ele>774.8</ele>
        <time>2020-11-17T09:04:51Z</time>
      </trkpt>
      <trkpt lat="28.6223500" lon="-17.8704530">
        <ele>775.3</ele>
        <time>2020-11-17T09:04:52Z</time>
      </trkpt>
      <trkpt lat="28.6223500" lon="-17.8704530">
        <ele>775.3</ele>
        <time>2020-11-17T09:04:53Z</time>
      </trkpt>
      <trkpt lat="28.6223370" lon="-17.8704250">
        <ele>775.7</ele>
        <time>2020-11-17T09:04:54Z</time>
      </trkpt>
      <trkpt lat="28.6223270" lon="-17.8704050">
        <ele>776.0</ele>
        <time>2020-11-17T09:04:55Z</time>
      </trkpt>
      <trkpt lat="28.6223200" lon="-17.8703880">
        <ele>776.2</ele>
        <time>2020-11-17T09:04:56Z</time>
      </trkpt>
      <trkpt lat="28.6223200" lon="-17.8703880">
        <ele>776.2</ele>
        <time>2020-11-17T09:04:57Z</time>
      </trkpt>
      <trkpt lat="28.6223030" lon="-17.8703570">
        <ele>776.6</ele>
        <time>2020-11-17T09:04:58Z</time>
      </trkpt>
      <trkpt lat="28.6222930" lon="-17.8703430">
        <ele>776.8</ele>
        <time>2020-11-17T09:04:59Z</time>
      </trkpt>
      <trkpt lat="28.6222930" lon="-17.8703430">
        <ele>776.8</ele>
        <time>2020-11-17T09:05:00Z</time>
      </trkpt>
      <trkpt lat="28.6222680" lon="-17.8703180">
        <ele>777.2</ele>
        <time>2020-11-17T09:05:01Z</time>
      </trkpt>
      <trkpt lat="28.6222680" lon="-17.8703180">
        <ele>777.2</ele>
        <time>2020-11-17T09:05:02Z</time>
      </trkpt>
      <trkpt lat="28.6222430" lon="-17.8703020">
        <ele>777.5</ele>
        <time>2020-11-17T09:05:03Z</time>
      </trkpt>
      <trkpt lat="28.6222280" lon="-17.8702920">
        <ele>777.7</ele>
        <time>2020-11-17T09:05:04Z</time>
      </trkpt>
      <trkpt lat="28.6222130" lon="-17.8702800">
        <ele>777.9</ele>
        <time>2020-11-17T09:05:05Z</time>
      </trkpt>
      <trkpt lat="28.6222130" lon="-17.8702800">
        <ele>777.9</ele>
        <time>2020-11-17T09:05:06Z</time>
      </trkpt>
      <trkpt lat="28.6221870" lon="-17.8702580">
        <ele>778.2</ele>
        <time>2020-11-17T09:05:07Z</time>
      </trkpt>
      <trkpt lat="28.6221720" lon="-17.8702500">
        <ele>778.4</ele>
        <time>2020-11-17T09:05:08Z</time>
      </trkpt>
      <trkpt lat="28.6221720" lon="-17.8702500">
        <ele>778.4</ele>
        <time>2020-11-17T09:05:09Z</time>
      </trkpt>
      <trkpt lat="28.6221400" lon="-17.8702520">
        <ele>778.7</ele>
        <time>2020-11-17T09:05:10Z</time>
      </trkpt>
      <trkpt lat="28.6221230" lon="-17.8702570">
        <ele>778.9</ele>
        <time>2020-11-17T09:05:11Z</time>
      </trkpt>
      <trkpt lat="28.6221230" lon="-17.8702570">
        <ele>778.9</ele>
        <time>2020-11-17T09:05:12Z</time>
      </trkpt>
      <trkpt lat="28.6220970" lon="-17.8702700">
        <ele>779.2</ele>
        <time>2020-11-17T09:05:13Z</time>
      </trkpt>
      <trkpt lat="28.6220970" lon="-17.8702700">
        <ele>779.2</ele>
        <time>2020-11-17T09:05:14Z</time>
      </trkpt>
      <trkpt lat="28.6220670" lon="-17.8702900">
        <ele>779.5</ele>
        <time>2020-11-17T09:05:15Z</time>
      </trkpt>
      <trkpt lat="28.6220670" lon="-17.8702900">
        <ele>779.5</ele>
        <time>2020-11-17T09:05:16Z</time>
      </trkpt>
      <trkpt lat="28.6220400" lon="-17.8703000">
        <ele>779.8</ele>
        <time>2020-11-17T09:05:17Z</time>
      </trkpt>
      <trkpt lat="28.6220400" lon="-17.8703000">
        <ele>779.8</ele>
        <time>2020-11-17T09:05:18Z</time>
      </trkpt>
      <trkpt lat="28.6220070" lon="-17.8703100">
        <ele>780.1</ele>
        <time>2020-11-17T09:05:19Z</time>
      </trkpt>
      <trkpt lat="28.6220070" lon="-17.8703100">
        <ele>780.1</ele>
        <time>2020-11-17T09:05:20Z</time>
      </trkpt>
      <trkpt lat="28.6219770" lon="-17.8703230">
        <ele>780.5</ele>
        <time>2020-11-17T09:05:21Z</time>
      </trkpt>
      <trkpt lat="28.6219770" lon="-17.8703230">
        <ele>780.5</ele>
        <time>2020-11-17T09:05:22Z</time>
      </trkpt>
      <trkpt lat="28.6219420" lon="-17.8703330">
        <ele>780.9</ele>
        <time>2020-11-17T09:05:23Z</time>
      </trkpt>
      <trkpt lat="28.6219280" lon="-17.8703400">
        <ele>781.0</ele>
        <time>2020-11-17T09:05:24Z</time>
      </trkpt>
      <trkpt lat="28.6219280" lon="-17.8703400">
        <ele>781.0</ele>
        <time>2020-11-17T09:05:25Z</time>
      </trkpt>
      <trkpt lat="28.6219080" lon="-17.8703570">
        <ele>781.3</ele>
        <time>2020-11-17T09:05:26Z</time>
      </trkpt>
      <trkpt lat="28.6219080" lon="-17.8703570">
        <ele>781.3</ele>
        <time>2020-11-17T09:05:27Z</time>
      </trkpt>
      <trkpt lat="28.6218920" lon="-17.8703800">
        <ele>781.6</ele>
        <time>2020-11-17T09:05:28Z</time>
      </trkpt>
      <trkpt lat="28.6218920" lon="-17.8703800">
        <ele>781.6</ele>
        <time>2020-11-17T09:05:29Z</time>
      </trkpt>
      <trkpt lat="28.6218630" lon="-17.8703830">
        <ele>781.9</ele>
        <time>2020-11-17T09:05:30Z</time>
      </trkpt>
      <trkpt lat="28.6218630" lon="-17.8703830">
        <ele>781.9</ele>
        <time>2020-11-17T09:05:31Z</time>
      </trkpt>
      <trkpt lat="28.6218370" lon="-17.8704000">
        <ele>782.3</ele>
        <time>2020-11-17T09:05:32Z</time>
      </trkpt>
      <trkpt lat="28.6218230" lon="-17.8704100">
        <ele>782.5</ele>
        <time>2020-11-17T09:05:33Z</time>
      </trkpt>
      <trkpt lat="28.6218230" lon="-17.8704100">
        <ele>782.5</ele>
        <time>2020-11-17T09:05:34Z</time>
      </trkpt>
      <trkpt lat="28.6217980" lon="-17.8704300">
        <ele>782.8</ele>
        <time>2020-11-17T09:05:35Z</time>
      </trkpt>
      <trkpt lat="28.6217850" lon="-17.8704380">
        <ele>783.0</ele>
        <time>2020-11-17T09:05:36Z</time>
      </trkpt>
      <trkpt lat="28.6217850" lon="-17.8704380">
        <ele>783.0</ele>
        <time>2020-11-17T09:05:37Z</time>
      </trkpt>
      <trkpt lat="28.6217570" lon="-17.8704530">
        <ele>783.3</ele>
        <time>2020-11-17T09:05:38Z</time>
      </trkpt>
      <trkpt lat="28.6217570" lon="-17.8704530">
        <ele>783.3</ele>
        <time>2020-11-17T09:05:39Z</time>
      </trkpt>
      <trkpt lat="28.6217230" lon="-17.8704670">
        <ele>783.7</ele>
        <time>2020-11-17T09:05:40Z</time>
      </trkpt>
      <trkpt lat="28.6217230" lon="-17.8704670">
        <ele>783.7</ele>
        <time>2020-11-17T09:05:41Z</time>
      </trkpt>
      <trkpt lat="28.6216930" lon="-17.8704800">
        <ele>784.1</ele>
        <time>2020-11-17T09:05:42Z</time>
      </trkpt>
      <trkpt lat="28.6216930" lon="-17.8704800">
        <ele>784.1</ele>
        <time>2020-11-17T09:05:43Z</time>
      </trkpt>
      <trkpt lat="28.6216600" lon="-17.8704880">
        <ele>784.5</ele>
        <time>2020-11-17T09:05:44Z</time>
      </trkpt>
      <trkpt lat="28.6216600" lon="-17.8704880">
        <ele>784.5</ele>
        <time>2020-11-17T09:05:45Z</time>
      </trkpt>
      <trkpt lat="28.6216600" lon="-17.8704880">
        <ele>784.5</ele>
        <time>2020-11-17T09:05:46Z</time>
      </trkpt>
      <trkpt lat="28.6216300" lon="-17.8704930">
        <ele>784.8</ele>
        <time>2020-11-17T09:05:47Z</time>
      </trkpt>
      <trkpt lat="28.6215980" lon="-17.8704970">
        <ele>785.1</ele>
        <time>2020-11-17T09:05:48Z</time>
      </trkpt>
      <trkpt lat="28.6215800" lon="-17.8704930">
        <ele>785.3</ele>
        <time>2020-11-17T09:05:49Z</time>
      </trkpt>
      <trkpt lat="28.6215800" lon="-17.8704930">
        <ele>785.3</ele>
        <time>2020-11-17T09:05:50Z</time>
      </trkpt>
      <trkpt lat="28.6215480" lon="-17.8704900">
        <ele>785.6</ele>
        <time>2020-11-17T09:05:51Z</time>
      </trkpt>
      <trkpt lat="28.6215480" lon="-17.8704900">
        <ele>785.6</ele>
        <time>2020-11-17T09:05:52Z</time>
      </trkpt>
      <trkpt lat="28.6215080" lon="-17.8704870">
        <ele>785.9</ele>
        <time>2020-11-17T09:05:53Z</time>
      </trkpt>
      <trkpt lat="28.6215080" lon="-17.8704870">
        <ele>785.9</ele>
        <time>2020-11-17T09:05:54Z</time>
      </trkpt>
      <trkpt lat="28.6214700" lon="-17.8704850">
        <ele>786.2</ele>
        <time>2020-11-17T09:05:55Z</time>
      </trkpt>
      <trkpt lat="28.6214530" lon="-17.8704870">
        <ele>786.4</ele>
        <time>2020-11-17T09:05:56Z</time>
      </trkpt>
      <trkpt lat="28.6214530" lon="-17.8704870">
        <ele>786.4</ele>
        <time>2020-11-17T09:05:57Z</time>
      </trkpt>
      <trkpt lat="28.6214200" lon="-17.8704950">
        <ele>786.7</ele>
        <time>2020-11-17T09:05:58Z</time>
      </trkpt>
      <trkpt lat="28.6214200" lon="-17.8704950">
        <ele>786.7</ele>
        <time>2020-11-17T09:05:59Z</time>
      </trkpt>
      <trkpt lat="28.6213900" lon="-17.8705130">
        <ele>787.0</ele>
        <time>2020-11-17T09:06:00Z</time>
      </trkpt>
      <trkpt lat="28.6213900" lon="-17.8705130">
        <ele>787.0</ele>
        <time>2020-11-17T09:06:01Z</time>
      </trkpt>
      <trkpt lat="28.6213600" lon="-17.8705270">
        <ele>787.3</ele>
        <time>2020-11-17T09:06:02Z</time>
      </trkpt>
      <trkpt lat="28.6213420" lon="-17.8705330">
        <ele>787.4</ele>
        <time>2020-11-17T09:06:03Z</time>
      </trkpt>
      <trkpt lat="28.6213420" lon="-17.8705330">
        <ele>787.4</ele>
        <time>2020-11-17T09:06:04Z</time>
      </trkpt>
      <trkpt lat="28.6213030" lon="-17.8705420">
        <ele>787.8</ele>
        <time>2020-11-17T09:06:05Z</time>
      </trkpt>
      <trkpt lat="28.6212870" lon="-17.8705470">
        <ele>787.9</ele>
        <time>2020-11-17T09:06:06Z</time>
      </trkpt>
      <trkpt lat="28.6212870" lon="-17.8705470">
        <ele>787.9</ele>
        <time>2020-11-17T09:06:07Z</time>
      </trkpt>
      <trkpt lat="28.6212500" lon="-17.8705550">
        <ele>788.3</ele>
        <time>2020-11-17T09:06:08Z</time>
      </trkpt>
      <trkpt lat="28.6212330" lon="-17.8705550">
        <ele>788.4</ele>
        <time>2020-11-17T09:06:09Z</time>
      </trkpt>
      <trkpt lat="28.6212330" lon="-17.8705550">
        <ele>788.4</ele>
        <time>2020-11-17T09:06:10Z</time>
      </trkpt>
      <trkpt lat="28.6211950" lon="-17.8705530">
        <ele>788.7</ele>
        <time>2020-11-17T09:06:11Z</time>
      </trkpt>
      <trkpt lat="28.6211750" lon="-17.8705520">
        <ele>788.9</ele>
        <time>2020-11-17T09:06:12Z</time>
      </trkpt>
      <trkpt lat="28.6211750" lon="-17.8705520">
        <ele>788.9</ele>
        <time>2020-11-17T09:06:13Z</time>
      </trkpt>
      <trkpt lat="28.6211400" lon="-17.8705420">
        <ele>789.2</ele>
        <time>2020-11-17T09:06:14Z</time>
      </trkpt>
      <trkpt lat="28.6211400" lon="-17.8705420">
        <ele>789.2</ele>
        <time>2020-11-17T09:06:15Z</time>
      </trkpt>
      <trkpt lat="28.6211080" lon="-17.8705320">
        <ele>789.5</ele>
        <time>2020-11-17T09:06:16Z</time>
      </trkpt>
      <trkpt lat="28.6211080" lon="-17.8705320">
        <ele>789.5</ele>
        <time>2020-11-17T09:06:17Z</time>
      </trkpt>
      <trkpt lat="28.6210750" lon="-17.8705150">
        <ele>789.8</ele>
        <time>2020-11-17T09:06:18Z</time>
      </trkpt>
      <trkpt lat="28.6210600" lon="-17.8705070">
        <ele>789.9</ele>
        <time>2020-11-17T09:06:19Z</time>
      </trkpt>
      <trkpt lat="28.6210600" lon="-17.8705070">
        <ele>789.9</ele>
        <time>2020-11-17T09:06:20Z</time>
      </trkpt>
      <trkpt lat="28.6210330" lon="-17.8704930">
        <ele>790.2</ele>
        <time>2020-11-17T09:06:21Z</time>
      </trkpt>
      <trkpt lat="28.6210330" lon="-17.8704930">
        <ele>790.2</ele>
        <time>2020-11-17T09:06:22Z</time>
      </trkpt>
      <trkpt lat="28.6210100" lon="-17.8704680">
        <ele>790.5</ele>
        <time>2020-11-17T09:06:23Z</time>
      </trkpt>
      <trkpt lat="28.6210100" lon="-17.8704680">
        <ele>790.5</ele>
        <time>2020-11-17T09:06:24Z</time>
      </trkpt>
      <trkpt lat="28.6209870" lon="-17.8704450">
        <ele>790.7</ele>
        <time>2020-11-17T09:06:25Z</time>
      </trkpt>
      <trkpt lat="28.6209730" lon="-17.8704280">
        <ele>790.9</ele>
        <time>2020-11-17T09:06:26Z</time>
      </trkpt>
      <trkpt lat="28.6209730" lon="-17.8704280">
        <ele>790.9</ele>
        <time>2020-11-17T09:06:27Z</time>
      </trkpt>
      <trkpt lat="28.6209450" lon="-17.8703930">
        <ele>791.2</ele>
        <time>2020-11-17T09:06:28Z</time>
      </trkpt>
      <trkpt lat="28.6209350" lon="-17.8703770">
        <ele>791.3</ele>
        <time>2020-11-17T09:06:29Z</time>
      </trkpt>
      <trkpt lat="28.6209230" lon="-17.8703620">
        <ele>791.5</ele>
        <time>2020-11-17T09:06:30Z</time>
      </trkpt>
      <trkpt lat="28.6209230" lon="-17.8703620">
        <ele>791.5</ele>
        <time>2020-11-17T09:06:31Z</time>
      </trkpt>
      <trkpt lat="28.6209050" lon="-17.8703270">
        <ele>791.7</ele>
        <time>2020-11-17T09:06:32Z</time>
      </trkpt>
      <trkpt lat="28.6208970" lon="-17.8703100">
        <ele>791.8</ele>
        <time>2020-11-17T09:06:33Z</time>
      </trkpt>
      <trkpt lat="28.6208970" lon="-17.8703100">
        <ele>791.8</ele>
        <time>2020-11-17T09:06:34Z</time>
      </trkpt>
      <trkpt lat="28.6208730" lon="-17.8702750">
        <ele>792.1</ele>
        <time>2020-11-17T09:06:35Z</time>
      </trkpt>
      <trkpt lat="28.6208730" lon="-17.8702750">
        <ele>792.1</ele>
        <time>2020-11-17T09:06:36Z</time>
      </trkpt>
      <trkpt lat="28.6208520" lon="-17.8702470">
        <ele>792.3</ele>
        <time>2020-11-17T09:06:37Z</time>
      </trkpt>
      <trkpt lat="28.6208520" lon="-17.8702470">
        <ele>792.3</ele>
        <time>2020-11-17T09:06:38Z</time>
      </trkpt>
      <trkpt lat="28.6208330" lon="-17.8702150">
        <ele>792.5</ele>
        <time>2020-11-17T09:06:39Z</time>
      </trkpt>
      <trkpt lat="28.6208330" lon="-17.8702150">
        <ele>792.5</ele>
        <time>2020-11-17T09:06:40Z</time>
      </trkpt>
      <trkpt lat="28.6208170" lon="-17.8701800">
        <ele>792.8</ele>
        <time>2020-11-17T09:06:41Z</time>
      </trkpt>
      <trkpt lat="28.6208170" lon="-17.8701800">
        <ele>792.8</ele>
        <time>2020-11-17T09:06:42Z</time>
      </trkpt>
      <trkpt lat="28.6208000" lon="-17.8701470">
        <ele>793.0</ele>
        <time>2020-11-17T09:06:43Z</time>
      </trkpt>
      <trkpt lat="28.6207900" lon="-17.8701300">
        <ele>793.1</ele>
        <time>2020-11-17T09:06:44Z</time>
      </trkpt>
      <trkpt lat="28.6207900" lon="-17.8701300">
        <ele>793.1</ele>
        <time>2020-11-17T09:06:45Z</time>
      </trkpt>
      <trkpt lat="28.6207700" lon="-17.8700980">
        <ele>793.3</ele>
        <time>2020-11-17T09:06:46Z</time>
      </trkpt>
      <trkpt lat="28.6207620" lon="-17.8700800">
        <ele>793.4</ele>
        <time>2020-11-17T09:06:47Z</time>
      </trkpt>
      <trkpt lat="28.6207550" lon="-17.8700600">
        <ele>793.5</ele>
        <time>2020-11-17T09:06:48Z</time>
      </trkpt>
      <trkpt lat="28.6207550" lon="-17.8700600">
        <ele>793.5</ele>
        <time>2020-11-17T09:06:49Z</time>
      </trkpt>
      <trkpt lat="28.6207430" lon="-17.8700220">
        <ele>793.7</ele>
        <time>2020-11-17T09:06:50Z</time>
      </trkpt>
      <trkpt lat="28.6207430" lon="-17.8700220">
        <ele>793.7</ele>
        <time>2020-11-17T09:06:51Z</time>
      </trkpt>
      <trkpt lat="28.6207370" lon="-17.8699830">
        <ele>793.9</ele>
        <time>2020-11-17T09:06:52Z</time>
      </trkpt>
      <trkpt lat="28.6207330" lon="-17.8699650">
        <ele>794.0</ele>
        <time>2020-11-17T09:06:53Z</time>
      </trkpt>
      <trkpt lat="28.6207330" lon="-17.8699650">
        <ele>794.0</ele>
        <time>2020-11-17T09:06:54Z</time>
      </trkpt>
      <trkpt lat="28.6207330" lon="-17.8699650">
        <ele>794.0</ele>
        <time>2020-11-17T09:06:55Z</time>
      </trkpt>
      <trkpt lat="28.6207230" lon="-17.8699080">
        <ele>794.3</ele>
        <time>2020-11-17T09:06:56Z</time>
      </trkpt>
      <trkpt lat="28.6207230" lon="-17.8699080">
        <ele>794.3</ele>
        <time>2020-11-17T09:06:57Z</time>
      </trkpt>
      <trkpt lat="28.6207170" lon="-17.8698670">
        <ele>794.5</ele>
        <time>2020-11-17T09:06:58Z</time>
      </trkpt>
      <trkpt lat="28.6207170" lon="-17.8698670">
        <ele>794.5</ele>
        <time>2020-11-17T09:06:59Z</time>
      </trkpt>
      <trkpt lat="28.6207200" lon="-17.8698270">
        <ele>794.7</ele>
        <time>2020-11-17T09:07:00Z</time>
      </trkpt>
      <trkpt lat="28.6207200" lon="-17.8698270">
        <ele>794.7</ele>
        <time>2020-11-17T09:07:01Z</time>
      </trkpt>
      <trkpt lat="28.6207100" lon="-17.8697880">
        <ele>794.9</ele>
        <time>2020-11-17T09:07:02Z</time>
      </trkpt>
      <trkpt lat="28.6207030" lon="-17.8697720">
        <ele>795.0</ele>
        <time>2020-11-17T09:07:03Z</time>
      </trkpt>
      <trkpt lat="28.6207030" lon="-17.8697720">
        <ele>795.0</ele>
        <time>2020-11-17T09:07:04Z</time>
      </trkpt>
      <trkpt lat="28.6206850" lon="-17.8697470">
        <ele>795.1</ele>
        <time>2020-11-17T09:07:05Z</time>
      </trkpt>
      <trkpt lat="28.6206770" lon="-17.8697350">
        <ele>795.2</ele>
        <time>2020-11-17T09:07:06Z</time>
      </trkpt>
      <trkpt lat="28.6206770" lon="-17.8697350">
        <ele>795.2</ele>
        <time>2020-11-17T09:07:07Z</time>
      </trkpt>
      <trkpt lat="28.6206570" lon="-17.8697130">
        <ele>795.5</ele>
        <time>2020-11-17T09:07:08Z</time>
      </trkpt>
      <trkpt lat="28.6206450" lon="-17.8697030">
        <ele>795.6</ele>
        <time>2020-11-17T09:07:09Z</time>
      </trkpt>
      <trkpt lat="28.6206450" lon="-17.8697030">
        <ele>795.6</ele>
        <time>2020-11-17T09:07:10Z</time>
      </trkpt>
      <trkpt lat="28.6206250" lon="-17.8696880">
        <ele>795.8</ele>
        <time>2020-11-17T09:07:11Z</time>
      </trkpt>
      <trkpt lat="28.6206150" lon="-17.8696770">
        <ele>795.9</ele>
        <time>2020-11-17T09:07:12Z</time>
      </trkpt>
      <trkpt lat="28.6206150" lon="-17.8696770">
        <ele>795.9</ele>
        <time>2020-11-17T09:07:13Z</time>
      </trkpt>
      <trkpt lat="28.6205950" lon="-17.8696570">
        <ele>796.2</ele>
        <time>2020-11-17T09:07:14Z</time>
      </trkpt>
      <trkpt lat="28.6205850" lon="-17.8696480">
        <ele>796.3</ele>
        <time>2020-11-17T09:07:15Z</time>
      </trkpt>
      <trkpt lat="28.6205770" lon="-17.8696380">
        <ele>796.4</ele>
        <time>2020-11-17T09:07:16Z</time>
      </trkpt>
      <trkpt lat="28.6205770" lon="-17.8696380">
        <ele>796.4</ele>
        <time>2020-11-17T09:07:17Z</time>
      </trkpt>
      <trkpt lat="28.6205550" lon="-17.8696100">
        <ele>796.8</ele>
        <time>2020-11-17T09:07:18Z</time>
      </trkpt>
      <trkpt lat="28.6205470" lon="-17.8695930">
        <ele>797.0</ele>
        <time>2020-11-17T09:07:19Z</time>
      </trkpt>
      <trkpt lat="28.6205470" lon="-17.8695930">
        <ele>797.0</ele>
        <time>2020-11-17T09:07:20Z</time>
      </trkpt>
      <trkpt lat="28.6205330" lon="-17.8695530">
        <ele>797.4</ele>
        <time>2020-11-17T09:07:21Z</time>
      </trkpt>
      <trkpt lat="28.6205270" lon="-17.8695350">
        <ele>797.5</ele>
        <time>2020-11-17T09:07:22Z</time>
      </trkpt>
      <trkpt lat="28.6205270" lon="-17.8695350">
        <ele>797.5</ele>
        <time>2020-11-17T09:07:23Z</time>
      </trkpt>
      <trkpt lat="28.6205050" lon="-17.8694970">
        <ele>798.0</ele>
        <time>2020-11-17T09:07:24Z</time>
      </trkpt>
      <trkpt lat="28.6205050" lon="-17.8694970">
        <ele>798.0</ele>
        <time>2020-11-17T09:07:25Z</time>
      </trkpt>
      <trkpt lat="28.6204920" lon="-17.8694520">
        <ele>798.4</ele>
        <time>2020-11-17T09:07:26Z</time>
      </trkpt>
      <trkpt lat="28.6204830" lon="-17.8694350">
        <ele>798.6</ele>
        <time>2020-11-17T09:07:27Z</time>
      </trkpt>
      <trkpt lat="28.6204830" lon="-17.8694350">
        <ele>798.6</ele>
        <time>2020-11-17T09:07:28Z</time>
      </trkpt>
      <trkpt lat="28.6204580" lon="-17.8694030">
        <ele>799.0</ele>
        <time>2020-11-17T09:07:29Z</time>
      </trkpt>
      <trkpt lat="28.6204580" lon="-17.8694030">
        <ele>799.0</ele>
        <time>2020-11-17T09:07:30Z</time>
      </trkpt>
      <trkpt lat="28.6204300" lon="-17.8693680">
        <ele>799.4</ele>
        <time>2020-11-17T09:07:31Z</time>
      </trkpt>
      <trkpt lat="28.6204180" lon="-17.8693570">
        <ele>799.5</ele>
        <time>2020-11-17T09:07:32Z</time>
      </trkpt>
      <trkpt lat="28.6204180" lon="-17.8693570">
        <ele>799.5</ele>
        <time>2020-11-17T09:07:33Z</time>
      </trkpt>
      <trkpt lat="28.6203970" lon="-17.8693480">
        <ele>799.8</ele>
        <time>2020-11-17T09:07:34Z</time>
      </trkpt>
      <trkpt lat="28.6203970" lon="-17.8693480">
        <ele>799.8</ele>
        <time>2020-11-17T09:07:35Z</time>
      </trkpt>
      <trkpt lat="28.6203720" lon="-17.8693550">
        <ele>800.0</ele>
        <time>2020-11-17T09:07:36Z</time>
      </trkpt>
      <trkpt lat="28.6203720" lon="-17.8693550">
        <ele>800.0</ele>
        <time>2020-11-17T09:07:37Z</time>
      </trkpt>
      <trkpt lat="28.6203480" lon="-17.8693630">
        <ele>800.3</ele>
        <time>2020-11-17T09:07:38Z</time>
      </trkpt>
      <trkpt lat="28.6203380" lon="-17.8693680">
        <ele>800.4</ele>
        <time>2020-11-17T09:07:39Z</time>
      </trkpt>
      <trkpt lat="28.6203380" lon="-17.8693680">
        <ele>800.4</ele>
        <time>2020-11-17T09:07:40Z</time>
      </trkpt>
      <trkpt lat="28.6203180" lon="-17.8693830">
        <ele>800.6</ele>
        <time>2020-11-17T09:07:41Z</time>
      </trkpt>
      <trkpt lat="28.6203180" lon="-17.8693830">
        <ele>800.6</ele>
        <time>2020-11-17T09:07:42Z</time>
      </trkpt>
      <trkpt lat="28.6202980" lon="-17.8694000">
        <ele>800.9</ele>
        <time>2020-11-17T09:07:43Z</time>
      </trkpt>
      <trkpt lat="28.6202980" lon="-17.8694000">
        <ele>800.9</ele>
        <time>2020-11-17T09:07:44Z</time>
      </trkpt>
      <trkpt lat="28.6202700" lon="-17.8694130">
        <ele>801.2</ele>
        <time>2020-11-17T09:07:45Z</time>
      </trkpt>
      <trkpt lat="28.6202700" lon="-17.8694130">
        <ele>801.2</ele>
        <time>2020-11-17T09:07:46Z</time>
      </trkpt>
      <trkpt lat="28.6202420" lon="-17.8694230">
        <ele>801.6</ele>
        <time>2020-11-17T09:07:47Z</time>
      </trkpt>
      <trkpt lat="28.6202300" lon="-17.8694330">
        <ele>801.7</ele>
        <time>2020-11-17T09:07:48Z</time>
      </trkpt>
      <trkpt lat="28.6202300" lon="-17.8694330">
        <ele>801.7</ele>
        <time>2020-11-17T09:07:49Z</time>
      </trkpt>
      <trkpt lat="28.6202020" lon="-17.8694550">
        <ele>802.1</ele>
        <time>2020-11-17T09:07:50Z</time>
      </trkpt>
      <trkpt lat="28.6202020" lon="-17.8694550">
        <ele>802.1</ele>
        <time>2020-11-17T09:07:51Z</time>
      </trkpt>
      <trkpt lat="28.6201730" lon="-17.8694770">
        <ele>802.5</ele>
        <time>2020-11-17T09:07:52Z</time>
      </trkpt>
      <trkpt lat="28.6201570" lon="-17.8694880">
        <ele>802.8</ele>
        <time>2020-11-17T09:07:53Z</time>
      </trkpt>
      <trkpt lat="28.6201420" lon="-17.8695020">
        <ele>803.0</ele>
        <time>2020-11-17T09:07:54Z</time>
      </trkpt>
      <trkpt lat="28.6201280" lon="-17.8695150">
        <ele>803.2</ele>
        <time>2020-11-17T09:07:55Z</time>
      </trkpt>
      <trkpt lat="28.6201280" lon="-17.8695150">
        <ele>803.2</ele>
        <time>2020-11-17T09:07:56Z</time>
      </trkpt>
      <trkpt lat="28.6200950" lon="-17.8695380">
        <ele>803.7</ele>
        <time>2020-11-17T09:07:57Z</time>
      </trkpt>
      <trkpt lat="28.6200950" lon="-17.8695380">
        <ele>803.7</ele>
        <time>2020-11-17T09:07:58Z</time>
      </trkpt>
      <trkpt lat="28.6200630" lon="-17.8695530">
        <ele>804.0</ele>
        <time>2020-11-17T09:07:59Z</time>
      </trkpt>
      <trkpt lat="28.6200480" lon="-17.8695600">
        <ele>804.2</ele>
        <time>2020-11-17T09:08:00Z</time>
      </trkpt>
      <trkpt lat="28.6200480" lon="-17.8695600">
        <ele>804.2</ele>
        <time>2020-11-17T09:08:01Z</time>
      </trkpt>
      <trkpt lat="28.6200180" lon="-17.8695780">
        <ele>804.5</ele>
        <time>2020-11-17T09:08:02Z</time>
      </trkpt>
      <trkpt lat="28.6200030" lon="-17.8695900">
        <ele>804.7</ele>
        <time>2020-11-17T09:08:03Z</time>
      </trkpt>
      <trkpt lat="28.6200030" lon="-17.8695900">
        <ele>804.7</ele>
        <time>2020-11-17T09:08:04Z</time>
      </trkpt>
      <trkpt lat="28.6199730" lon="-17.8696050">
        <ele>805.1</ele>
        <time>2020-11-17T09:08:05Z</time>
      </trkpt>
      <trkpt lat="28.6199570" lon="-17.8696070">
        <ele>805.2</ele>
        <time>2020-11-17T09:08:06Z</time>
      </trkpt>
      <trkpt lat="28.6199570" lon="-17.8696070">
        <ele>805.2</ele>
        <time>2020-11-17T09:08:07Z</time>
      </trkpt>
      <trkpt lat="28.6199200" lon="-17.8696150">
        <ele>805.6</ele>
        <time>2020-11-17T09:08:08Z</time>
      </trkpt>
      <trkpt lat="28.6199200" lon="-17.8696150">
        <ele>805.6</ele>
        <time>2020-11-17T09:08:09Z</time>
      </trkpt>
      <trkpt lat="28.6198830" lon="-17.8696300">
        <ele>805.9</ele>
        <time>2020-11-17T09:08:10Z</time>
      </trkpt>
      <trkpt lat="28.6198630" lon="-17.8696370">
        <ele>806.1</ele>
        <time>2020-11-17T09:08:11Z</time>
      </trkpt>
      <trkpt lat="28.6198630" lon="-17.8696370">
        <ele>806.1</ele>
        <time>2020-11-17T09:08:12Z</time>
      </trkpt>
      <trkpt lat="28.6198300" lon="-17.8696470">
        <ele>806.4</ele>
        <time>2020-11-17T09:08:13Z</time>
      </trkpt>
      <trkpt lat="28.6198300" lon="-17.8696470">
        <ele>806.4</ele>
        <time>2020-11-17T09:08:14Z</time>
      </trkpt>
      <trkpt lat="28.6197900" lon="-17.8696450">
        <ele>806.7</ele>
        <time>2020-11-17T09:08:15Z</time>
      </trkpt>
      <trkpt lat="28.6197900" lon="-17.8696450">
        <ele>806.7</ele>
        <time>2020-11-17T09:08:16Z</time>
      </trkpt>
      <trkpt lat="28.6197630" lon="-17.8696530">
        <ele>806.9</ele>
        <time>2020-11-17T09:08:17Z</time>
      </trkpt>
      <trkpt lat="28.6197630" lon="-17.8696530">
        <ele>806.9</ele>
        <time>2020-11-17T09:08:18Z</time>
      </trkpt>
      <trkpt lat="28.6197370" lon="-17.8696650">
        <ele>807.2</ele>
        <time>2020-11-17T09:08:19Z</time>
      </trkpt>
      <trkpt lat="28.6197200" lon="-17.8696730">
        <ele>807.3</ele>
        <time>2020-11-17T09:08:20Z</time>
      </trkpt>
      <trkpt lat="28.6197200" lon="-17.8696730">
        <ele>807.3</ele>
        <time>2020-11-17T09:08:21Z</time>
      </trkpt>
      <trkpt lat="28.6196900" lon="-17.8696820">
        <ele>807.6</ele>
        <time>2020-11-17T09:08:22Z</time>
      </trkpt>
      <trkpt lat="28.6196720" lon="-17.8696870">
        <ele>807.7</ele>
        <time>2020-11-17T09:08:23Z</time>
      </trkpt>
      <trkpt lat="28.6196530" lon="-17.8696920">
        <ele>807.9</ele>
        <time>2020-11-17T09:08:24Z</time>
      </trkpt>
      <trkpt lat="28.6196530" lon="-17.8696920">
        <ele>807.9</ele>
        <time>2020-11-17T09:08:25Z</time>
      </trkpt>
      <trkpt lat="28.6196180" lon="-17.8697020">
        <ele>808.2</ele>
        <time>2020-11-17T09:08:26Z</time>
      </trkpt>
      <trkpt lat="28.6196180" lon="-17.8697020">
        <ele>808.2</ele>
        <time>2020-11-17T09:08:27Z</time>
      </trkpt>
      <trkpt lat="28.6195800" lon="-17.8697100">
        <ele>808.5</ele>
        <time>2020-11-17T09:08:28Z</time>
      </trkpt>
      <trkpt lat="28.6195800" lon="-17.8697100">
        <ele>808.5</ele>
        <time>2020-11-17T09:08:29Z</time>
      </trkpt>
      <trkpt lat="28.6195450" lon="-17.8697080">
        <ele>808.8</ele>
        <time>2020-11-17T09:08:30Z</time>
      </trkpt>
      <trkpt lat="28.6195450" lon="-17.8697080">
        <ele>808.8</ele>
        <time>2020-11-17T09:08:31Z</time>
      </trkpt>
      <trkpt lat="28.6195100" lon="-17.8697100">
        <ele>809.1</ele>
        <time>2020-11-17T09:08:32Z</time>
      </trkpt>
      <trkpt lat="28.6194950" lon="-17.8697130">
        <ele>809.3</ele>
        <time>2020-11-17T09:08:33Z</time>
      </trkpt>
      <trkpt lat="28.6194950" lon="-17.8697130">
        <ele>809.3</ele>
        <time>2020-11-17T09:08:34Z</time>
      </trkpt>
      <trkpt lat="28.6194630" lon="-17.8697230">
        <ele>809.5</ele>
        <time>2020-11-17T09:08:35Z</time>
      </trkpt>
      <trkpt lat="28.6194450" lon="-17.8697220">
        <ele>809.7</ele>
        <time>2020-11-17T09:08:36Z</time>
      </trkpt>
      <trkpt lat="28.6194450" lon="-17.8697220">
        <ele>809.7</ele>
        <time>2020-11-17T09:08:37Z</time>
      </trkpt>
      <trkpt lat="28.6194120" lon="-17.8697150">
        <ele>810.0</ele>
        <time>2020-11-17T09:08:38Z</time>
      </trkpt>
      <trkpt lat="28.6194120" lon="-17.8697150">
        <ele>810.0</ele>
        <time>2020-11-17T09:08:39Z</time>
      </trkpt>
      <trkpt lat="28.6193820" lon="-17.8697230">
        <ele>810.3</ele>
        <time>2020-11-17T09:08:40Z</time>
      </trkpt>
      <trkpt lat="28.6193670" lon="-17.8697320">
        <ele>810.4</ele>
        <time>2020-11-17T09:08:41Z</time>
      </trkpt>
      <trkpt lat="28.6193520" lon="-17.8697370">
        <ele>810.5</ele>
        <time>2020-11-17T09:08:42Z</time>
      </trkpt>
      <trkpt lat="28.6193520" lon="-17.8697370">
        <ele>810.5</ele>
        <time>2020-11-17T09:08:43Z</time>
      </trkpt>
      <trkpt lat="28.6193170" lon="-17.8697370">
        <ele>810.9</ele>
        <time>2020-11-17T09:08:44Z</time>
      </trkpt>
      <trkpt lat="28.6193000" lon="-17.8697350">
        <ele>811.0</ele>
        <time>2020-11-17T09:08:45Z</time>
      </trkpt>
      <trkpt lat="28.6192850" lon="-17.8697370">
        <ele>811.1</ele>
        <time>2020-11-17T09:08:46Z</time>
      </trkpt>
      <trkpt lat="28.6192850" lon="-17.8697370">
        <ele>811.1</ele>
        <time>2020-11-17T09:08:47Z</time>
      </trkpt>
      <trkpt lat="28.6192520" lon="-17.8697450">
        <ele>811.4</ele>
        <time>2020-11-17T09:08:48Z</time>
      </trkpt>
      <trkpt lat="28.6192330" lon="-17.8697500">
        <ele>811.6</ele>
        <time>2020-11-17T09:08:49Z</time>
      </trkpt>
      <trkpt lat="28.6192330" lon="-17.8697500">
        <ele>811.6</ele>
        <time>2020-11-17T09:08:50Z</time>
      </trkpt>
      <trkpt lat="28.6191980" lon="-17.8697570">
        <ele>811.9</ele>
        <time>2020-11-17T09:08:51Z</time>
      </trkpt>
      <trkpt lat="28.6191820" lon="-17.8697600">
        <ele>812.0</ele>
        <time>2020-11-17T09:08:52Z</time>
      </trkpt>
      <trkpt lat="28.6191820" lon="-17.8697600">
        <ele>812.0</ele>
        <time>2020-11-17T09:08:53Z</time>
      </trkpt>
      <trkpt lat="28.6191480" lon="-17.8697730">
        <ele>812.3</ele>
        <time>2020-11-17T09:08:54Z</time>
      </trkpt>
      <trkpt lat="28.6191480" lon="-17.8697730">
        <ele>812.3</ele>
        <time>2020-11-17T09:08:55Z</time>
      </trkpt>
      <trkpt lat="28.6191150" lon="-17.8697820">
        <ele>812.5</ele>
        <time>2020-11-17T09:08:56Z</time>
      </trkpt>
      <trkpt lat="28.6191150" lon="-17.8697820">
        <ele>812.5</ele>
        <time>2020-11-17T09:08:57Z</time>
      </trkpt>
      <trkpt lat="28.6190780" lon="-17.8697880">
        <ele>812.8</ele>
        <time>2020-11-17T09:08:58Z</time>
      </trkpt>
      <trkpt lat="28.6190630" lon="-17.8697900">
        <ele>812.9</ele>
        <time>2020-11-17T09:08:59Z</time>
      </trkpt>
      <trkpt lat="28.6190630" lon="-17.8697900">
        <ele>812.9</ele>
        <time>2020-11-17T09:09:00Z</time>
      </trkpt>
      <trkpt lat="28.6190380" lon="-17.8698020">
        <ele>813.1</ele>
        <time>2020-11-17T09:09:01Z</time>
      </trkpt>
      <trkpt lat="28.6190380" lon="-17.8698020">
        <ele>813.1</ele>
        <time>2020-11-17T09:09:02Z</time>
      </trkpt>
      <trkpt lat="28.6190070" lon="-17.8698130">
        <ele>813.3</ele>
        <time>2020-11-17T09:09:03Z</time>
      </trkpt>
      <trkpt lat="28.6190070" lon="-17.8698130">
        <ele>813.3</ele>
        <time>2020-11-17T09:09:04Z</time>
      </trkpt>
      <trkpt lat="28.6189730" lon="-17.8698220">
        <ele>813.6</ele>
        <time>2020-11-17T09:09:05Z</time>
      </trkpt>
      <trkpt lat="28.6189730" lon="-17.8698220">
        <ele>813.6</ele>
        <time>2020-11-17T09:09:06Z</time>
      </trkpt>
      <trkpt lat="28.6189350" lon="-17.8698380">
        <ele>813.9</ele>
        <time>2020-11-17T09:09:07Z</time>
      </trkpt>
      <trkpt lat="28.6189350" lon="-17.8698380">
        <ele>813.9</ele>
        <time>2020-11-17T09:09:08Z</time>
      </trkpt>
      <trkpt lat="28.6188980" lon="-17.8698480">
        <ele>814.1</ele>
        <time>2020-11-17T09:09:09Z</time>
      </trkpt>
      <trkpt lat="28.6188980" lon="-17.8698480">
        <ele>814.1</ele>
        <time>2020-11-17T09:09:10Z</time>
      </trkpt>
      <trkpt lat="28.6188770" lon="-17.8698600">
        <ele>814.3</ele>
        <time>2020-11-17T09:09:11Z</time>
      </trkpt>
      <trkpt lat="28.6188630" lon="-17.8698680">
        <ele>814.4</ele>
        <time>2020-11-17T09:09:12Z</time>
      </trkpt>
      <trkpt lat="28.6188630" lon="-17.8698680">
        <ele>814.4</ele>
        <time>2020-11-17T09:09:13Z</time>
      </trkpt>
      <trkpt lat="28.6188630" lon="-17.8698680">
        <ele>814.4</ele>
        <time>2020-11-17T09:09:14Z</time>
      </trkpt>
      <trkpt lat="28.6188180" lon="-17.8698920">
        <ele>814.8</ele>
        <time>2020-11-17T09:09:15Z</time>
      </trkpt>
      <trkpt lat="28.6188180" lon="-17.8698920">
        <ele>814.8</ele>
        <time>2020-11-17T09:09:16Z</time>
      </trkpt>
      <trkpt lat="28.6187880" lon="-17.8698980">
        <ele>815.0</ele>
        <time>2020-11-17T09:09:17Z</time>
      </trkpt>
      <trkpt lat="28.6187730" lon="-17.8699050">
        <ele>815.2</ele>
        <time>2020-11-17T09:09:18Z</time>
      </trkpt>
      <trkpt lat="28.6187730" lon="-17.8699050">
        <ele>815.2</ele>
        <time>2020-11-17T09:09:19Z</time>
      </trkpt>
      <trkpt lat="28.6187430" lon="-17.8699200">
        <ele>815.4</ele>
        <time>2020-11-17T09:09:20Z</time>
      </trkpt>
      <trkpt lat="28.6187320" lon="-17.8699280">
        <ele>815.5</ele>
        <time>2020-11-17T09:09:21Z</time>
      </trkpt>
      <trkpt lat="28.6187320" lon="-17.8699280">
        <ele>815.5</ele>
        <time>2020-11-17T09:09:22Z</time>
      </trkpt>
      <trkpt lat="28.6187030" lon="-17.8699400">
        <ele>815.8</ele>
        <time>2020-11-17T09:09:23Z</time>
      </trkpt>
      <trkpt lat="28.6186900" lon="-17.8699470">
        <ele>815.9</ele>
        <time>2020-11-17T09:09:24Z</time>
      </trkpt>
      <trkpt lat="28.6186900" lon="-17.8699470">
        <ele>815.9</ele>
        <time>2020-11-17T09:09:25Z</time>
      </trkpt>
      <trkpt lat="28.6186580" lon="-17.8699600">
        <ele>816.1</ele>
        <time>2020-11-17T09:09:26Z</time>
      </trkpt>
      <trkpt lat="28.6186580" lon="-17.8699600">
        <ele>816.1</ele>
        <time>2020-11-17T09:09:27Z</time>
      </trkpt>
      <trkpt lat="28.6186320" lon="-17.8699770">
        <ele>816.4</ele>
        <time>2020-11-17T09:09:28Z</time>
      </trkpt>
      <trkpt lat="28.6186320" lon="-17.8699770">
        <ele>816.4</ele>
        <time>2020-11-17T09:09:29Z</time>
      </trkpt>
      <trkpt lat="28.6186020" lon="-17.8699920">
        <ele>816.6</ele>
        <time>2020-11-17T09:09:30Z</time>
      </trkpt>
      <trkpt lat="28.6186020" lon="-17.8699920">
        <ele>816.6</ele>
        <time>2020-11-17T09:09:31Z</time>
      </trkpt>
      <trkpt lat="28.6185670" lon="-17.8699980">
        <ele>816.9</ele>
        <time>2020-11-17T09:09:32Z</time>
      </trkpt>
      <trkpt lat="28.6185520" lon="-17.8700050">
        <ele>817.0</ele>
        <time>2020-11-17T09:09:33Z</time>
      </trkpt>
      <trkpt lat="28.6185520" lon="-17.8700050">
        <ele>817.0</ele>
        <time>2020-11-17T09:09:34Z</time>
      </trkpt>
      <trkpt lat="28.6185250" lon="-17.8700300">
        <ele>817.3</ele>
        <time>2020-11-17T09:09:35Z</time>
      </trkpt>
      <trkpt lat="28.6185080" lon="-17.8700380">
        <ele>817.4</ele>
        <time>2020-11-17T09:09:36Z</time>
      </trkpt>
      <trkpt lat="28.6185080" lon="-17.8700380">
        <ele>817.4</ele>
        <time>2020-11-17T09:09:37Z</time>
      </trkpt>
      <trkpt lat="28.6184770" lon="-17.8700570">
        <ele>817.7</ele>
        <time>2020-11-17T09:09:38Z</time>
      </trkpt>
      <trkpt lat="28.6184620" lon="-17.8700670">
        <ele>817.8</ele>
        <time>2020-11-17T09:09:39Z</time>
      </trkpt>
      <trkpt lat="28.6184430" lon="-17.8700770">
        <ele>818.0</ele>
        <time>2020-11-17T09:09:40Z</time>
      </trkpt>
      <trkpt lat="28.6184430" lon="-17.8700770">
        <ele>818.0</ele>
        <time>2020-11-17T09:09:41Z</time>
      </trkpt>
      <trkpt lat="28.6184030" lon="-17.8701020">
        <ele>818.3</ele>
        <time>2020-11-17T09:09:42Z</time>
      </trkpt>
      <trkpt lat="28.6184030" lon="-17.8701020">
        <ele>818.3</ele>
        <time>2020-11-17T09:09:43Z</time>
      </trkpt>
      <trkpt lat="28.6183680" lon="-17.8701380">
        <ele>818.5</ele>
        <time>2020-11-17T09:09:44Z</time>
      </trkpt>
      <trkpt lat="28.6183680" lon="-17.8701380">
        <ele>818.5</ele>
        <time>2020-11-17T09:09:45Z</time>
      </trkpt>
      <trkpt lat="28.6183350" lon="-17.8701720">
        <ele>818.8</ele>
        <time>2020-11-17T09:09:46Z</time>
      </trkpt>
      <trkpt lat="28.6183350" lon="-17.8701720">
        <ele>818.8</ele>
        <time>2020-11-17T09:09:47Z</time>
      </trkpt>
      <trkpt lat="28.6183030" lon="-17.8701980">
        <ele>819.0</ele>
        <time>2020-11-17T09:09:48Z</time>
      </trkpt>
      <trkpt lat="28.6183030" lon="-17.8701980">
        <ele>819.0</ele>
        <time>2020-11-17T09:09:49Z</time>
      </trkpt>
      <trkpt lat="28.6182770" lon="-17.8702330">
        <ele>819.2</ele>
        <time>2020-11-17T09:09:50Z</time>
      </trkpt>
      <trkpt lat="28.6182770" lon="-17.8702330">
        <ele>819.2</ele>
        <time>2020-11-17T09:09:51Z</time>
      </trkpt>
      <trkpt lat="28.6182480" lon="-17.8702630">
        <ele>819.4</ele>
        <time>2020-11-17T09:09:52Z</time>
      </trkpt>
      <trkpt lat="28.6182480" lon="-17.8702630">
        <ele>819.4</ele>
        <time>2020-11-17T09:09:53Z</time>
      </trkpt>
      <trkpt lat="28.6182220" lon="-17.8702930">
        <ele>819.5</ele>
        <time>2020-11-17T09:09:54Z</time>
      </trkpt>
      <trkpt lat="28.6182220" lon="-17.8702930">
        <ele>819.5</ele>
        <time>2020-11-17T09:09:55Z</time>
      </trkpt>
      <trkpt lat="28.6181950" lon="-17.8703300">
        <ele>819.7</ele>
        <time>2020-11-17T09:09:56Z</time>
      </trkpt>
      <trkpt lat="28.6181950" lon="-17.8703300">
        <ele>819.7</ele>
        <time>2020-11-17T09:09:57Z</time>
      </trkpt>
      <trkpt lat="28.6181670" lon="-17.8703630">
        <ele>819.9</ele>
        <time>2020-11-17T09:09:58Z</time>
      </trkpt>
      <trkpt lat="28.6181670" lon="-17.8703630">
        <ele>819.9</ele>
        <time>2020-11-17T09:09:59Z</time>
      </trkpt>
      <trkpt lat="28.6181670" lon="-17.8703630">
        <ele>819.9</ele>
        <time>2020-11-17T09:10:00Z</time>
      </trkpt>
      <trkpt lat="28.6181370" lon="-17.8703880">
        <ele>820.1</ele>
        <time>2020-11-17T09:10:01Z</time>
      </trkpt>
      <trkpt lat="28.6181020" lon="-17.8704150">
        <ele>820.4</ele>
        <time>2020-11-17T09:10:02Z</time>
      </trkpt>
      <trkpt lat="28.6181020" lon="-17.8704150">
        <ele>820.4</ele>
        <time>2020-11-17T09:10:03Z</time>
      </trkpt>
      <trkpt lat="28.6180650" lon="-17.8704470">
        <ele>820.6</ele>
        <time>2020-11-17T09:10:04Z</time>
      </trkpt>
      <trkpt lat="28.6180450" lon="-17.8704630">
        <ele>820.7</ele>
        <time>2020-11-17T09:10:05Z</time>
      </trkpt>
      <trkpt lat="28.6180450" lon="-17.8704630">
        <ele>820.7</ele>
        <time>2020-11-17T09:10:06Z</time>
      </trkpt>
      <trkpt lat="28.6180070" lon="-17.8704920">
        <ele>820.9</ele>
        <time>2020-11-17T09:10:07Z</time>
      </trkpt>
      <trkpt lat="28.6180070" lon="-17.8704920">
        <ele>820.9</ele>
        <time>2020-11-17T09:10:08Z</time>
      </trkpt>
      <trkpt lat="28.6179680" lon="-17.8705250">
        <ele>821.0</ele>
        <time>2020-11-17T09:10:09Z</time>
      </trkpt>
      <trkpt lat="28.6179680" lon="-17.8705250">
        <ele>821.0</ele>
        <time>2020-11-17T09:10:10Z</time>
      </trkpt>
      <trkpt lat="28.6179230" lon="-17.8705670">
        <ele>821.1</ele>
        <time>2020-11-17T09:10:11Z</time>
      </trkpt>
      <trkpt lat="28.6179030" lon="-17.8705920">
        <ele>821.2</ele>
        <time>2020-11-17T09:10:12Z</time>
      </trkpt>
      <trkpt lat="28.6179030" lon="-17.8705920">
        <ele>821.2</ele>
        <time>2020-11-17T09:10:13Z</time>
      </trkpt>
      <trkpt lat="28.6178650" lon="-17.8706420">
        <ele>821.3</ele>
        <time>2020-11-17T09:10:14Z</time>
      </trkpt>
      <trkpt lat="28.6178650" lon="-17.8706420">
        <ele>821.3</ele>
        <time>2020-11-17T09:10:15Z</time>
      </trkpt>
      <trkpt lat="28.6178350" lon="-17.8706920">
        <ele>821.5</ele>
        <time>2020-11-17T09:10:16Z</time>
      </trkpt>
      <trkpt lat="28.6178350" lon="-17.8706920">
        <ele>821.5</ele>
        <time>2020-11-17T09:10:17Z</time>
      </trkpt>
      <trkpt lat="28.6178070" lon="-17.8707380">
        <ele>821.6</ele>
        <time>2020-11-17T09:10:18Z</time>
      </trkpt>
      <trkpt lat="28.6177920" lon="-17.8707620">
        <ele>821.7</ele>
        <time>2020-11-17T09:10:19Z</time>
      </trkpt>
      <trkpt lat="28.6177920" lon="-17.8707620">
        <ele>821.7</ele>
        <time>2020-11-17T09:10:20Z</time>
      </trkpt>
      <trkpt lat="28.6177570" lon="-17.8707950">
        <ele>821.9</ele>
        <time>2020-11-17T09:10:21Z</time>
      </trkpt>
      <trkpt lat="28.6177570" lon="-17.8707950">
        <ele>821.9</ele>
        <time>2020-11-17T09:10:22Z</time>
      </trkpt>
      <trkpt lat="28.6177200" lon="-17.8708300">
        <ele>822.2</ele>
        <time>2020-11-17T09:10:23Z</time>
      </trkpt>
      <trkpt lat="28.6177030" lon="-17.8708470">
        <ele>822.3</ele>
        <time>2020-11-17T09:10:24Z</time>
      </trkpt>
      <trkpt lat="28.6176870" lon="-17.8708630">
        <ele>822.5</ele>
        <time>2020-11-17T09:10:25Z</time>
      </trkpt>
      <trkpt lat="28.6176870" lon="-17.8708630">
        <ele>822.5</ele>
        <time>2020-11-17T09:10:26Z</time>
      </trkpt>
      <trkpt lat="28.6176500" lon="-17.8709000">
        <ele>822.8</ele>
        <time>2020-11-17T09:10:27Z</time>
      </trkpt>
      <trkpt lat="28.6176330" lon="-17.8709170">
        <ele>823.0</ele>
        <time>2020-11-17T09:10:28Z</time>
      </trkpt>
      <trkpt lat="28.6176330" lon="-17.8709170">
        <ele>823.0</ele>
        <time>2020-11-17T09:10:29Z</time>
      </trkpt>
      <trkpt lat="28.6175980" lon="-17.8709500">
        <ele>823.3</ele>
        <time>2020-11-17T09:10:30Z</time>
      </trkpt>
      <trkpt lat="28.6175980" lon="-17.8709500">
        <ele>823.3</ele>
        <time>2020-11-17T09:10:31Z</time>
      </trkpt>
      <trkpt lat="28.6175620" lon="-17.8709770">
        <ele>823.6</ele>
        <time>2020-11-17T09:10:32Z</time>
      </trkpt>
      <trkpt lat="28.6175420" lon="-17.8709880">
        <ele>823.8</ele>
        <time>2020-11-17T09:10:33Z</time>
      </trkpt>
      <trkpt lat="28.6175420" lon="-17.8709880">
        <ele>823.8</ele>
        <time>2020-11-17T09:10:34Z</time>
      </trkpt>
      <trkpt lat="28.6175020" lon="-17.8710120">
        <ele>824.2</ele>
        <time>2020-11-17T09:10:35Z</time>
      </trkpt>
      <trkpt lat="28.6175020" lon="-17.8710120">
        <ele>824.2</ele>
        <time>2020-11-17T09:10:36Z</time>
      </trkpt>
      <trkpt lat="28.6174580" lon="-17.8710280">
        <ele>824.6</ele>
        <time>2020-11-17T09:10:37Z</time>
      </trkpt>
      <trkpt lat="28.6174580" lon="-17.8710280">
        <ele>824.6</ele>
        <time>2020-11-17T09:10:38Z</time>
      </trkpt>
      <trkpt lat="28.6174150" lon="-17.8710430">
        <ele>825.0</ele>
        <time>2020-11-17T09:10:39Z</time>
      </trkpt>
      <trkpt lat="28.6173950" lon="-17.8710520">
        <ele>825.3</ele>
        <time>2020-11-17T09:10:40Z</time>
      </trkpt>
      <trkpt lat="28.6173950" lon="-17.8710520">
        <ele>825.3</ele>
        <time>2020-11-17T09:10:41Z</time>
      </trkpt>
      <trkpt lat="28.6173600" lon="-17.8710630">
        <ele>825.7</ele>
        <time>2020-11-17T09:10:42Z</time>
      </trkpt>
      <trkpt lat="28.6173600" lon="-17.8710630">
        <ele>825.7</ele>
        <time>2020-11-17T09:10:43Z</time>
      </trkpt>
      <trkpt lat="28.6173270" lon="-17.8710750">
        <ele>826.0</ele>
        <time>2020-11-17T09:10:44Z</time>
      </trkpt>
      <trkpt lat="28.6173270" lon="-17.8710750">
        <ele>826.0</ele>
        <time>2020-11-17T09:10:45Z</time>
      </trkpt>
      <trkpt lat="28.6172930" lon="-17.8710880">
        <ele>826.4</ele>
        <time>2020-11-17T09:10:46Z</time>
      </trkpt>
      <trkpt lat="28.6172930" lon="-17.8710880">
        <ele>826.4</ele>
        <time>2020-11-17T09:10:47Z</time>
      </trkpt>
      <trkpt lat="28.6172600" lon="-17.8710950">
        <ele>826.7</ele>
        <time>2020-11-17T09:10:48Z</time>
      </trkpt>
      <trkpt lat="28.6172600" lon="-17.8710950">
        <ele>826.7</ele>
        <time>2020-11-17T09:10:49Z</time>
      </trkpt>
      <trkpt lat="28.6172280" lon="-17.8711030">
        <ele>827.1</ele>
        <time>2020-11-17T09:10:50Z</time>
      </trkpt>
      <trkpt lat="28.6172120" lon="-17.8711080">
        <ele>827.2</ele>
        <time>2020-11-17T09:10:51Z</time>
      </trkpt>
      <trkpt lat="28.6172120" lon="-17.8711080">
        <ele>827.2</ele>
        <time>2020-11-17T09:10:52Z</time>
      </trkpt>
      <trkpt lat="28.6171780" lon="-17.8711150">
        <ele>827.6</ele>
        <time>2020-11-17T09:10:53Z</time>
      </trkpt>
      <trkpt lat="28.6171780" lon="-17.8711150">
        <ele>827.6</ele>
        <time>2020-11-17T09:10:54Z</time>
      </trkpt>
      <trkpt lat="28.6171480" lon="-17.8711080">
        <ele>827.9</ele>
        <time>2020-11-17T09:10:55Z</time>
      </trkpt>
      <trkpt lat="28.6171480" lon="-17.8711080">
        <ele>827.9</ele>
        <time>2020-11-17T09:10:56Z</time>
      </trkpt>
      <trkpt lat="28.6171220" lon="-17.8710970">
        <ele>828.2</ele>
        <time>2020-11-17T09:10:57Z</time>
      </trkpt>
      <trkpt lat="28.6171220" lon="-17.8710970">
        <ele>828.2</ele>
        <time>2020-11-17T09:10:58Z</time>
      </trkpt>
      <trkpt lat="28.6170980" lon="-17.8710800">
        <ele>828.5</ele>
        <time>2020-11-17T09:10:59Z</time>
      </trkpt>
      <trkpt lat="28.6170880" lon="-17.8710670">
        <ele>828.7</ele>
        <time>2020-11-17T09:11:00Z</time>
      </trkpt>
      <trkpt lat="28.6170880" lon="-17.8710670">
        <ele>828.7</ele>
        <time>2020-11-17T09:11:01Z</time>
      </trkpt>
      <trkpt lat="28.6170670" lon="-17.8710380">
        <ele>829.1</ele>
        <time>2020-11-17T09:11:02Z</time>
      </trkpt>
      <trkpt lat="28.6170670" lon="-17.8710380">
        <ele>829.1</ele>
        <time>2020-11-17T09:11:03Z</time>
      </trkpt>
      <trkpt lat="28.6170430" lon="-17.8710070">
        <ele>829.4</ele>
        <time>2020-11-17T09:11:04Z</time>
      </trkpt>
      <trkpt lat="28.6170430" lon="-17.8710070">
        <ele>829.4</ele>
        <time>2020-11-17T09:11:05Z</time>
      </trkpt>
      <trkpt lat="28.6170100" lon="-17.8709820">
        <ele>829.8</ele>
        <time>2020-11-17T09:11:06Z</time>
      </trkpt>
      <trkpt lat="28.6170100" lon="-17.8709820">
        <ele>829.8</ele>
        <time>2020-11-17T09:11:07Z</time>
      </trkpt>
      <trkpt lat="28.6169820" lon="-17.8709600">
        <ele>830.2</ele>
        <time>2020-11-17T09:11:08Z</time>
      </trkpt>
      <trkpt lat="28.6169720" lon="-17.8709470">
        <ele>830.3</ele>
        <time>2020-11-17T09:11:09Z</time>
      </trkpt>
      <trkpt lat="28.6169720" lon="-17.8709470">
        <ele>830.3</ele>
        <time>2020-11-17T09:11:10Z</time>
      </trkpt>
      <trkpt lat="28.6169530" lon="-17.8709180">
        <ele>830.6</ele>
        <time>2020-11-17T09:11:11Z</time>
      </trkpt>
      <trkpt lat="28.6169470" lon="-17.8709030">
        <ele>830.8</ele>
        <time>2020-11-17T09:11:12Z</time>
      </trkpt>
      <trkpt lat="28.6169350" lon="-17.8708920">
        <ele>830.9</ele>
        <time>2020-11-17T09:11:13Z</time>
      </trkpt>
      <trkpt lat="28.6169350" lon="-17.8708920">
        <ele>830.9</ele>
        <time>2020-11-17T09:11:14Z</time>
      </trkpt>
      <trkpt lat="28.6169080" lon="-17.8708730">
        <ele>831.2</ele>
        <time>2020-11-17T09:11:15Z</time>
      </trkpt>
      <trkpt lat="28.6169080" lon="-17.8708730">
        <ele>831.2</ele>
        <time>2020-11-17T09:11:16Z</time>
      </trkpt>
      <trkpt lat="28.6168920" lon="-17.8708480">
        <ele>831.4</ele>
        <time>2020-11-17T09:11:17Z</time>
      </trkpt>
      <trkpt lat="28.6168780" lon="-17.8708320">
        <ele>831.6</ele>
        <time>2020-11-17T09:11:18Z</time>
      </trkpt>
      <trkpt lat="28.6168780" lon="-17.8708320">
        <ele>831.6</ele>
        <time>2020-11-17T09:11:19Z</time>
      </trkpt>
      <trkpt lat="28.6168570" lon="-17.8708000">
        <ele>831.9</ele>
        <time>2020-11-17T09:11:20Z</time>
      </trkpt>
      <trkpt lat="28.6168570" lon="-17.8708000">
        <ele>831.9</ele>
        <time>2020-11-17T09:11:21Z</time>
      </trkpt>
      <trkpt lat="28.6168320" lon="-17.8707730">
        <ele>832.1</ele>
        <time>2020-11-17T09:11:22Z</time>
      </trkpt>
      <trkpt lat="28.6168170" lon="-17.8707580">
        <ele>832.3</ele>
        <time>2020-11-17T09:11:23Z</time>
      </trkpt>
      <trkpt lat="28.6168170" lon="-17.8707580">
        <ele>832.3</ele>
        <time>2020-11-17T09:11:24Z</time>
      </trkpt>
      <trkpt lat="28.6167970" lon="-17.8707300">
        <ele>832.5</ele>
        <time>2020-11-17T09:11:25Z</time>
      </trkpt>
      <trkpt lat="28.6167970" lon="-17.8707300">
        <ele>832.5</ele>
        <time>2020-11-17T09:11:26Z</time>
      </trkpt>
      <trkpt lat="28.6167720" lon="-17.8707020">
        <ele>832.8</ele>
        <time>2020-11-17T09:11:27Z</time>
      </trkpt>
      <trkpt lat="28.6167720" lon="-17.8707020">
        <ele>832.8</ele>
        <time>2020-11-17T09:11:28Z</time>
      </trkpt>
      <trkpt lat="28.6167530" lon="-17.8706800">
        <ele>833.0</ele>
        <time>2020-11-17T09:11:29Z</time>
      </trkpt>
      <trkpt lat="28.6167420" lon="-17.8706670">
        <ele>833.1</ele>
        <time>2020-11-17T09:11:30Z</time>
      </trkpt>
      <trkpt lat="28.6167420" lon="-17.8706670">
        <ele>833.1</ele>
        <time>2020-11-17T09:11:31Z</time>
      </trkpt>
      <trkpt lat="28.6167220" lon="-17.8706400">
        <ele>833.3</ele>
        <time>2020-11-17T09:11:32Z</time>
      </trkpt>
      <trkpt lat="28.6167220" lon="-17.8706400">
        <ele>833.3</ele>
        <time>2020-11-17T09:11:33Z</time>
      </trkpt>
      <trkpt lat="28.6166970" lon="-17.8706100">
        <ele>833.6</ele>
        <time>2020-11-17T09:11:34Z</time>
      </trkpt>
      <trkpt lat="28.6166970" lon="-17.8706100">
        <ele>833.6</ele>
        <time>2020-11-17T09:11:35Z</time>
      </trkpt>
      <trkpt lat="28.6166730" lon="-17.8705830">
        <ele>833.9</ele>
        <time>2020-11-17T09:11:36Z</time>
      </trkpt>
      <trkpt lat="28.6166730" lon="-17.8705830">
        <ele>833.9</ele>
        <time>2020-11-17T09:11:37Z</time>
      </trkpt>
      <trkpt lat="28.6166480" lon="-17.8705570">
        <ele>834.1</ele>
        <time>2020-11-17T09:11:38Z</time>
      </trkpt>
      <trkpt lat="28.6166280" lon="-17.8705370">
        <ele>834.3</ele>
        <time>2020-11-17T09:11:39Z</time>
      </trkpt>
      <trkpt lat="28.6166180" lon="-17.8705230">
        <ele>834.4</ele>
        <time>2020-11-17T09:11:40Z</time>
      </trkpt>
      <trkpt lat="28.6166020" lon="-17.8705030">
        <ele>834.6</ele>
        <time>2020-11-17T09:11:41Z</time>
      </trkpt>
      <trkpt lat="28.6166020" lon="-17.8705030">
        <ele>834.6</ele>
        <time>2020-11-17T09:11:42Z</time>
      </trkpt>
      <trkpt lat="28.6165780" lon="-17.8704780">
        <ele>834.9</ele>
        <time>2020-11-17T09:11:43Z</time>
      </trkpt>
      <trkpt lat="28.6165700" lon="-17.8704670">
        <ele>835.0</ele>
        <time>2020-11-17T09:11:44Z</time>
      </trkpt>
      <trkpt lat="28.6165570" lon="-17.8704550">
        <ele>835.1</ele>
        <time>2020-11-17T09:11:45Z</time>
      </trkpt>
      <trkpt lat="28.6165570" lon="-17.8704550">
        <ele>835.1</ele>
        <time>2020-11-17T09:11:46Z</time>
      </trkpt>
      <trkpt lat="28.6165270" lon="-17.8704350">
        <ele>835.4</ele>
        <time>2020-11-17T09:11:47Z</time>
      </trkpt>
      <trkpt lat="28.6165170" lon="-17.8704320">
        <ele>835.4</ele>
        <time>2020-11-17T09:11:48Z</time>
      </trkpt>
      <trkpt lat="28.6165170" lon="-17.8704320">
        <ele>835.4</ele>
        <time>2020-11-17T09:11:49Z</time>
      </trkpt>
      <trkpt lat="28.6164930" lon="-17.8704020">
        <ele>835.7</ele>
        <time>2020-11-17T09:11:50Z</time>
      </trkpt>
      <trkpt lat="28.6164930" lon="-17.8704020">
        <ele>835.7</ele>
        <time>2020-11-17T09:11:51Z</time>
      </trkpt>
      <trkpt lat="28.6164680" lon="-17.8703680">
        <ele>836.0</ele>
        <time>2020-11-17T09:11:52Z</time>
      </trkpt>
      <trkpt lat="28.6164680" lon="-17.8703680">
        <ele>836.0</ele>
        <time>2020-11-17T09:11:53Z</time>
      </trkpt>
      <trkpt lat="28.6164350" lon="-17.8703330">
        <ele>836.4</ele>
        <time>2020-11-17T09:11:54Z</time>
      </trkpt>
      <trkpt lat="28.6164350" lon="-17.8703330">
        <ele>836.4</ele>
        <time>2020-11-17T09:11:55Z</time>
      </trkpt>
      <trkpt lat="28.6164070" lon="-17.8703020">
        <ele>836.7</ele>
        <time>2020-11-17T09:11:56Z</time>
      </trkpt>
      <trkpt lat="28.6163880" lon="-17.8702830">
        <ele>836.9</ele>
        <time>2020-11-17T09:11:57Z</time>
      </trkpt>
      <trkpt lat="28.6163880" lon="-17.8702830">
        <ele>836.9</ele>
        <time>2020-11-17T09:11:58Z</time>
      </trkpt>
      <trkpt lat="28.6163620" lon="-17.8702730">
        <ele>837.1</ele>
        <time>2020-11-17T09:11:59Z</time>
      </trkpt>
      <trkpt lat="28.6163520" lon="-17.8702670">
        <ele>837.2</ele>
        <time>2020-11-17T09:12:00Z</time>
      </trkpt>
      <trkpt lat="28.6163300" lon="-17.8702450">
        <ele>837.4</ele>
        <time>2020-11-17T09:12:01Z</time>
      </trkpt>
      <trkpt lat="28.6163300" lon="-17.8702450">
        <ele>837.4</ele>
        <time>2020-11-17T09:12:02Z</time>
      </trkpt>
      <trkpt lat="28.6162980" lon="-17.8702200">
        <ele>837.7</ele>
        <time>2020-11-17T09:12:03Z</time>
      </trkpt>
      <trkpt lat="28.6162870" lon="-17.8702100">
        <ele>837.8</ele>
        <time>2020-11-17T09:12:04Z</time>
      </trkpt>
      <trkpt lat="28.6162870" lon="-17.8702100">
        <ele>837.8</ele>
        <time>2020-11-17T09:12:05Z</time>
      </trkpt>
      <trkpt lat="28.6162470" lon="-17.8701830">
        <ele>838.2</ele>
        <time>2020-11-17T09:12:06Z</time>
      </trkpt>
      <trkpt lat="28.6162250" lon="-17.8701720">
        <ele>838.4</ele>
        <time>2020-11-17T09:12:07Z</time>
      </trkpt>
      <trkpt lat="28.6162250" lon="-17.8701720">
        <ele>838.4</ele>
        <time>2020-11-17T09:12:08Z</time>
      </trkpt>
      <trkpt lat="28.6161830" lon="-17.8701620">
        <ele>838.7</ele>
        <time>2020-11-17T09:12:09Z</time>
      </trkpt>
      <trkpt lat="28.6161650" lon="-17.8701530">
        <ele>838.9</ele>
        <time>2020-11-17T09:12:10Z</time>
      </trkpt>
      <trkpt lat="28.6161650" lon="-17.8701530">
        <ele>838.9</ele>
        <time>2020-11-17T09:12:11Z</time>
      </trkpt>
      <trkpt lat="28.6161270" lon="-17.8701470">
        <ele>839.2</ele>
        <time>2020-11-17T09:12:12Z</time>
      </trkpt>
      <trkpt lat="28.6161270" lon="-17.8701470">
        <ele>839.2</ele>
        <time>2020-11-17T09:12:13Z</time>
      </trkpt>
      <trkpt lat="28.6160880" lon="-17.8701400">
        <ele>839.5</ele>
        <time>2020-11-17T09:12:14Z</time>
      </trkpt>
      <trkpt lat="28.6160880" lon="-17.8701400">
        <ele>839.5</ele>
        <time>2020-11-17T09:12:15Z</time>
      </trkpt>
      <trkpt lat="28.6160520" lon="-17.8701280">
        <ele>839.9</ele>
        <time>2020-11-17T09:12:16Z</time>
      </trkpt>
      <trkpt lat="28.6160370" lon="-17.8701220">
        <ele>840.0</ele>
        <time>2020-11-17T09:12:17Z</time>
      </trkpt>
      <trkpt lat="28.6160370" lon="-17.8701220">
        <ele>840.0</ele>
        <time>2020-11-17T09:12:18Z</time>
      </trkpt>
      <trkpt lat="28.6160030" lon="-17.8701220">
        <ele>840.3</ele>
        <time>2020-11-17T09:12:19Z</time>
      </trkpt>
      <trkpt lat="28.6160030" lon="-17.8701220">
        <ele>840.3</ele>
        <time>2020-11-17T09:12:20Z</time>
      </trkpt>
      <trkpt lat="28.6159670" lon="-17.8701230">
        <ele>840.6</ele>
        <time>2020-11-17T09:12:21Z</time>
      </trkpt>
      <trkpt lat="28.6159670" lon="-17.8701230">
        <ele>840.6</ele>
        <time>2020-11-17T09:12:22Z</time>
      </trkpt>
      <trkpt lat="28.6159370" lon="-17.8701150">
        <ele>840.9</ele>
        <time>2020-11-17T09:12:23Z</time>
      </trkpt>
      <trkpt lat="28.6159200" lon="-17.8701100">
        <ele>841.1</ele>
        <time>2020-11-17T09:12:24Z</time>
      </trkpt>
      <trkpt lat="28.6159200" lon="-17.8701100">
        <ele>841.1</ele>
        <time>2020-11-17T09:12:25Z</time>
      </trkpt>
      <trkpt lat="28.6158880" lon="-17.8701050">
        <ele>841.4</ele>
        <time>2020-11-17T09:12:26Z</time>
      </trkpt>
      <trkpt lat="28.6158700" lon="-17.8701020">
        <ele>841.5</ele>
        <time>2020-11-17T09:12:27Z</time>
      </trkpt>
      <trkpt lat="28.6158700" lon="-17.8701020">
        <ele>841.5</ele>
        <time>2020-11-17T09:12:28Z</time>
      </trkpt>
      <trkpt lat="28.6158300" lon="-17.8700950">
        <ele>842.0</ele>
        <time>2020-11-17T09:12:29Z</time>
      </trkpt>
      <trkpt lat="28.6158300" lon="-17.8700950">
        <ele>842.0</ele>
        <time>2020-11-17T09:12:30Z</time>
      </trkpt>
      <trkpt lat="28.6157900" lon="-17.8700900">
        <ele>842.4</ele>
        <time>2020-11-17T09:12:31Z</time>
      </trkpt>
      <trkpt lat="28.6157900" lon="-17.8700900">
        <ele>842.4</ele>
        <time>2020-11-17T09:12:32Z</time>
      </trkpt>
      <trkpt lat="28.6157520" lon="-17.8700880">
        <ele>842.8</ele>
        <time>2020-11-17T09:12:33Z</time>
      </trkpt>
      <trkpt lat="28.6157520" lon="-17.8700880">
        <ele>842.8</ele>
        <time>2020-11-17T09:12:34Z</time>
      </trkpt>
      <trkpt lat="28.6157180" lon="-17.8700850">
        <ele>843.3</ele>
        <time>2020-11-17T09:12:35Z</time>
      </trkpt>
      <trkpt lat="28.6157000" lon="-17.8700850">
        <ele>843.5</ele>
        <time>2020-11-17T09:12:36Z</time>
      </trkpt>
      <trkpt lat="28.6157000" lon="-17.8700850">
        <ele>843.5</ele>
        <time>2020-11-17T09:12:37Z</time>
      </trkpt>
      <trkpt lat="28.6156670" lon="-17.8700870">
        <ele>843.9</ele>
        <time>2020-11-17T09:12:38Z</time>
      </trkpt>
      <trkpt lat="28.6156470" lon="-17.8700880">
        <ele>844.2</ele>
        <time>2020-11-17T09:12:39Z</time>
      </trkpt>
      <trkpt lat="28.6156470" lon="-17.8700880">
        <ele>844.2</ele>
        <time>2020-11-17T09:12:40Z</time>
      </trkpt>
      <trkpt lat="28.6156070" lon="-17.8700870">
        <ele>844.7</ele>
        <time>2020-11-17T09:12:41Z</time>
      </trkpt>
      <trkpt lat="28.6156070" lon="-17.8700870">
        <ele>844.7</ele>
        <time>2020-11-17T09:12:42Z</time>
      </trkpt>
      <trkpt lat="28.6155680" lon="-17.8700830">
        <ele>845.2</ele>
        <time>2020-11-17T09:12:43Z</time>
      </trkpt>
      <trkpt lat="28.6155680" lon="-17.8700830">
        <ele>845.2</ele>
        <time>2020-11-17T09:12:44Z</time>
      </trkpt>
      <trkpt lat="28.6155330" lon="-17.8700770">
        <ele>845.7</ele>
        <time>2020-11-17T09:12:45Z</time>
      </trkpt>
      <trkpt lat="28.6155330" lon="-17.8700770">
        <ele>845.7</ele>
        <time>2020-11-17T09:12:46Z</time>
      </trkpt>
      <trkpt lat="28.6155030" lon="-17.8700620">
        <ele>846.1</ele>
        <time>2020-11-17T09:12:47Z</time>
      </trkpt>
      <trkpt lat="28.6154880" lon="-17.8700530">
        <ele>846.3</ele>
        <time>2020-11-17T09:12:48Z</time>
      </trkpt>
      <trkpt lat="28.6154880" lon="-17.8700530">
        <ele>846.3</ele>
        <time>2020-11-17T09:12:49Z</time>
      </trkpt>
      <trkpt lat="28.6154650" lon="-17.8700430">
        <ele>846.6</ele>
        <time>2020-11-17T09:12:50Z</time>
      </trkpt>
      <trkpt lat="28.6154530" lon="-17.8700350">
        <ele>846.7</ele>
        <time>2020-11-17T09:12:51Z</time>
      </trkpt>
      <trkpt lat="28.6154530" lon="-17.8700350">
        <ele>846.7</ele>
        <time>2020-11-17T09:12:52Z</time>
      </trkpt>
      <trkpt lat="28.6154280" lon="-17.8700150">
        <ele>847.0</ele>
        <time>2020-11-17T09:12:53Z</time>
      </trkpt>
      <trkpt lat="28.6154170" lon="-17.8700050">
        <ele>847.2</ele>
        <time>2020-11-17T09:12:54Z</time>
      </trkpt>
      <trkpt lat="28.6154170" lon="-17.8700050">
        <ele>847.2</ele>
        <time>2020-11-17T09:12:55Z</time>
      </trkpt>
      <trkpt lat="28.6153950" lon="-17.8699930">
        <ele>847.4</ele>
        <time>2020-11-17T09:12:56Z</time>
      </trkpt>
      <trkpt lat="28.6153950" lon="-17.8699930">
        <ele>847.4</ele>
        <time>2020-11-17T09:12:57Z</time>
      </trkpt>
      <trkpt lat="28.6153650" lon="-17.8699720">
        <ele>847.7</ele>
        <time>2020-11-17T09:12:58Z</time>
      </trkpt>
      <trkpt lat="28.6153570" lon="-17.8699670">
        <ele>847.8</ele>
        <time>2020-11-17T09:12:59Z</time>
      </trkpt>
      <trkpt lat="28.6153350" lon="-17.8699600">
        <ele>848.0</ele>
        <time>2020-11-17T09:13:00Z</time>
      </trkpt>
      <trkpt lat="28.6153350" lon="-17.8699600">
        <ele>848.0</ele>
        <time>2020-11-17T09:13:01Z</time>
      </trkpt>
      <trkpt lat="28.6153000" lon="-17.8699470">
        <ele>848.3</ele>
        <time>2020-11-17T09:13:02Z</time>
      </trkpt>
      <trkpt lat="28.6153000" lon="-17.8699470">
        <ele>848.3</ele>
        <time>2020-11-17T09:13:03Z</time>
      </trkpt>
      <trkpt lat="28.6152670" lon="-17.8699270">
        <ele>848.5</ele>
        <time>2020-11-17T09:13:04Z</time>
      </trkpt>
      <trkpt lat="28.6152670" lon="-17.8699270">
        <ele>848.5</ele>
        <time>2020-11-17T09:13:05Z</time>
      </trkpt>
      <trkpt lat="28.6152350" lon="-17.8699050">
        <ele>848.8</ele>
        <time>2020-11-17T09:13:06Z</time>
      </trkpt>
      <trkpt lat="28.6152350" lon="-17.8699050">
        <ele>848.8</ele>
        <time>2020-11-17T09:13:07Z</time>
      </trkpt>
      <trkpt lat="28.6152030" lon="-17.8698780">
        <ele>849.1</ele>
        <time>2020-11-17T09:13:08Z</time>
      </trkpt>
      <trkpt lat="28.6152030" lon="-17.8698780">
        <ele>849.1</ele>
        <time>2020-11-17T09:13:09Z</time>
      </trkpt>
      <trkpt lat="28.6151720" lon="-17.8698570">
        <ele>849.3</ele>
        <time>2020-11-17T09:13:10Z</time>
      </trkpt>
      <trkpt lat="28.6151720" lon="-17.8698570">
        <ele>849.3</ele>
        <time>2020-11-17T09:13:11Z</time>
      </trkpt>
      <trkpt lat="28.6151470" lon="-17.8698250">
        <ele>849.5</ele>
        <time>2020-11-17T09:13:12Z</time>
      </trkpt>
      <trkpt lat="28.6151470" lon="-17.8698250">
        <ele>849.5</ele>
        <time>2020-11-17T09:13:13Z</time>
      </trkpt>
      <trkpt lat="28.6151220" lon="-17.8697870">
        <ele>849.7</ele>
        <time>2020-11-17T09:13:14Z</time>
      </trkpt>
      <trkpt lat="28.6151070" lon="-17.8697620">
        <ele>849.9</ele>
        <time>2020-11-17T09:13:15Z</time>
      </trkpt>
      <trkpt lat="28.6151070" lon="-17.8697620">
        <ele>849.9</ele>
        <time>2020-11-17T09:13:16Z</time>
      </trkpt>
      <trkpt lat="28.6150730" lon="-17.8697120">
        <ele>850.1</ele>
        <time>2020-11-17T09:13:17Z</time>
      </trkpt>
      <trkpt lat="28.6150730" lon="-17.8697120">
        <ele>850.1</ele>
        <time>2020-11-17T09:13:18Z</time>
      </trkpt>
      <trkpt lat="28.6150450" lon="-17.8696650">
        <ele>850.4</ele>
        <time>2020-11-17T09:13:19Z</time>
      </trkpt>
      <trkpt lat="28.6150280" lon="-17.8696420">
        <ele>850.5</ele>
        <time>2020-11-17T09:13:20Z</time>
      </trkpt>
      <trkpt lat="28.6150120" lon="-17.8696220">
        <ele>850.6</ele>
        <time>2020-11-17T09:13:21Z</time>
      </trkpt>
      <trkpt lat="28.6150120" lon="-17.8696220">
        <ele>850.6</ele>
        <time>2020-11-17T09:13:22Z</time>
      </trkpt>
      <trkpt lat="28.6149830" lon="-17.8695850">
        <ele>850.8</ele>
        <time>2020-11-17T09:13:23Z</time>
      </trkpt>
      <trkpt lat="28.6149670" lon="-17.8695680">
        <ele>850.9</ele>
        <time>2020-11-17T09:13:24Z</time>
      </trkpt>
      <trkpt lat="28.6149670" lon="-17.8695680">
        <ele>850.9</ele>
        <time>2020-11-17T09:13:25Z</time>
      </trkpt>
      <trkpt lat="28.6149380" lon="-17.8695350">
        <ele>851.1</ele>
        <time>2020-11-17T09:13:26Z</time>
      </trkpt>
      <trkpt lat="28.6149380" lon="-17.8695350">
        <ele>851.1</ele>
        <time>2020-11-17T09:13:27Z</time>
      </trkpt>
      <trkpt lat="28.6149000" lon="-17.8694970">
        <ele>851.3</ele>
        <time>2020-11-17T09:13:28Z</time>
      </trkpt>
      <trkpt lat="28.6149000" lon="-17.8694970">
        <ele>851.3</ele>
        <time>2020-11-17T09:13:29Z</time>
      </trkpt>
      <trkpt lat="28.6148630" lon="-17.8694500">
        <ele>851.6</ele>
        <time>2020-11-17T09:13:30Z</time>
      </trkpt>
      <trkpt lat="28.6148630" lon="-17.8694500">
        <ele>851.6</ele>
        <time>2020-11-17T09:13:31Z</time>
      </trkpt>
      <trkpt lat="28.6148270" lon="-17.8694050">
        <ele>851.7</ele>
        <time>2020-11-17T09:13:32Z</time>
      </trkpt>
      <trkpt lat="28.6148270" lon="-17.8694050">
        <ele>851.7</ele>
        <time>2020-11-17T09:13:33Z</time>
      </trkpt>
      <trkpt lat="28.6147880" lon="-17.8693600">
        <ele>851.9</ele>
        <time>2020-11-17T09:13:34Z</time>
      </trkpt>
      <trkpt lat="28.6147880" lon="-17.8693600">
        <ele>851.9</ele>
        <time>2020-11-17T09:13:35Z</time>
      </trkpt>
      <trkpt lat="28.6147550" lon="-17.8693130">
        <ele>852.0</ele>
        <time>2020-11-17T09:13:36Z</time>
      </trkpt>
      <trkpt lat="28.6147550" lon="-17.8693130">
        <ele>852.0</ele>
        <time>2020-11-17T09:13:37Z</time>
      </trkpt>
      <trkpt lat="28.6147180" lon="-17.8692720">
        <ele>852.0</ele>
        <time>2020-11-17T09:13:38Z</time>
      </trkpt>
      <trkpt lat="28.6146980" lon="-17.8692470">
        <ele>852.0</ele>
        <time>2020-11-17T09:13:39Z</time>
      </trkpt>
      <trkpt lat="28.6146980" lon="-17.8692470">
        <ele>852.0</ele>
        <time>2020-11-17T09:13:40Z</time>
      </trkpt>
      <trkpt lat="28.6146450" lon="-17.8691930">
        <ele>852.0</ele>
        <time>2020-11-17T09:13:41Z</time>
      </trkpt>
      <trkpt lat="28.6146450" lon="-17.8691930">
        <ele>852.0</ele>
        <time>2020-11-17T09:13:42Z</time>
      </trkpt>
      <trkpt lat="28.6145850" lon="-17.8691400">
        <ele>851.9</ele>
        <time>2020-11-17T09:13:43Z</time>
      </trkpt>
      <trkpt lat="28.6145850" lon="-17.8691400">
        <ele>851.9</ele>
        <time>2020-11-17T09:13:44Z</time>
      </trkpt>
      <trkpt lat="28.6145200" lon="-17.8690950">
        <ele>851.7</ele>
        <time>2020-11-17T09:13:45Z</time>
      </trkpt>
      <trkpt lat="28.6145200" lon="-17.8690950">
        <ele>851.7</ele>
        <time>2020-11-17T09:13:46Z</time>
      </trkpt>
      <trkpt lat="28.6144450" lon="-17.8690520">
        <ele>851.4</ele>
        <time>2020-11-17T09:13:47Z</time>
      </trkpt>
      <trkpt lat="28.6144450" lon="-17.8690520">
        <ele>851.4</ele>
        <time>2020-11-17T09:13:48Z</time>
      </trkpt>
      <trkpt lat="28.6143670" lon="-17.8689950">
        <ele>851.0</ele>
        <time>2020-11-17T09:13:49Z</time>
      </trkpt>
      <trkpt lat="28.6143670" lon="-17.8689950">
        <ele>851.0</ele>
        <time>2020-11-17T09:13:50Z</time>
      </trkpt>
      <trkpt lat="28.6142870" lon="-17.8689250">
        <ele>850.6</ele>
        <time>2020-11-17T09:13:51Z</time>
      </trkpt>
      <trkpt lat="28.6142870" lon="-17.8689250">
        <ele>850.6</ele>
        <time>2020-11-17T09:13:52Z</time>
      </trkpt>
      <trkpt lat="28.6142020" lon="-17.8688620">
        <ele>850.3</ele>
        <time>2020-11-17T09:13:53Z</time>
      </trkpt>
      <trkpt lat="28.6142020" lon="-17.8688620">
        <ele>850.3</ele>
        <time>2020-11-17T09:13:54Z</time>
      </trkpt>
      <trkpt lat="28.6141250" lon="-17.8688100">
        <ele>850.1</ele>
        <time>2020-11-17T09:13:55Z</time>
      </trkpt>
      <trkpt lat="28.6140900" lon="-17.8687930">
        <ele>850.0</ele>
        <time>2020-11-17T09:13:56Z</time>
      </trkpt>
      <trkpt lat="28.6140900" lon="-17.8687930">
        <ele>850.0</ele>
        <time>2020-11-17T09:13:57Z</time>
      </trkpt>
      <trkpt lat="28.6140170" lon="-17.8688050">
        <ele>849.9</ele>
        <time>2020-11-17T09:13:58Z</time>
      </trkpt>
      <trkpt lat="28.6140170" lon="-17.8688050">
        <ele>849.9</ele>
        <time>2020-11-17T09:13:59Z</time>
      </trkpt>
      <trkpt lat="28.6139800" lon="-17.8688830">
        <ele>849.9</ele>
        <time>2020-11-17T09:14:00Z</time>
      </trkpt>
      <trkpt lat="28.6139800" lon="-17.8688830">
        <ele>849.9</ele>
        <time>2020-11-17T09:14:01Z</time>
      </trkpt>
      <trkpt lat="28.6139700" lon="-17.8689870">
        <ele>849.9</ele>
        <time>2020-11-17T09:14:02Z</time>
      </trkpt>
      <trkpt lat="28.6139620" lon="-17.8690470">
        <ele>849.9</ele>
        <time>2020-11-17T09:14:03Z</time>
      </trkpt>
      <trkpt lat="28.6139620" lon="-17.8690470">
        <ele>849.9</ele>
        <time>2020-11-17T09:14:04Z</time>
      </trkpt>
      <trkpt lat="28.6139170" lon="-17.8691500">
        <ele>850.0</ele>
        <time>2020-11-17T09:14:05Z</time>
      </trkpt>
      <trkpt lat="28.6139170" lon="-17.8691500">
        <ele>850.0</ele>
        <time>2020-11-17T09:14:06Z</time>
      </trkpt>
      <trkpt lat="28.6138530" lon="-17.8692180">
        <ele>850.2</ele>
        <time>2020-11-17T09:14:07Z</time>
      </trkpt>
      <trkpt lat="28.6138220" lon="-17.8692450">
        <ele>850.3</ele>
        <time>2020-11-17T09:14:08Z</time>
      </trkpt>
      <trkpt lat="28.6138220" lon="-17.8692450">
        <ele>850.3</ele>
        <time>2020-11-17T09:14:09Z</time>
      </trkpt>
      <trkpt lat="28.6137650" lon="-17.8692870">
        <ele>850.6</ele>
        <time>2020-11-17T09:14:10Z</time>
      </trkpt>
      <trkpt lat="28.6137400" lon="-17.8693070">
        <ele>850.7</ele>
        <time>2020-11-17T09:14:11Z</time>
      </trkpt>
      <trkpt lat="28.6137170" lon="-17.8693300">
        <ele>850.8</ele>
        <time>2020-11-17T09:14:12Z</time>
      </trkpt>
      <trkpt lat="28.6137170" lon="-17.8693300">
        <ele>850.8</ele>
        <time>2020-11-17T09:14:13Z</time>
      </trkpt>
      <trkpt lat="28.6136530" lon="-17.8693520">
        <ele>851.2</ele>
        <time>2020-11-17T09:14:14Z</time>
      </trkpt>
      <trkpt lat="28.6136530" lon="-17.8693520">
        <ele>851.2</ele>
        <time>2020-11-17T09:14:15Z</time>
      </trkpt>
      <trkpt lat="28.6135820" lon="-17.8693670">
        <ele>851.5</ele>
        <time>2020-11-17T09:14:16Z</time>
      </trkpt>
      <trkpt lat="28.6135820" lon="-17.8693670">
        <ele>851.5</ele>
        <time>2020-11-17T09:14:17Z</time>
      </trkpt>
      <trkpt lat="28.6135230" lon="-17.8693870">
        <ele>851.9</ele>
        <time>2020-11-17T09:14:18Z</time>
      </trkpt>
      <trkpt lat="28.6135230" lon="-17.8693870">
        <ele>851.9</ele>
        <time>2020-11-17T09:14:19Z</time>
      </trkpt>
      <trkpt lat="28.6135100" lon="-17.8693970">
        <ele>852.0</ele>
        <time>2020-11-17T09:14:20Z</time>
      </trkpt>
      <trkpt lat="28.6135100" lon="-17.8693970">
        <ele>852.0</ele>
        <time>2020-11-17T09:14:21Z</time>
      </trkpt>
      <trkpt lat="28.6134820" lon="-17.8694120">
        <ele>852.3</ele>
        <time>2020-11-17T09:14:22Z</time>
      </trkpt>
      <trkpt lat="28.6134820" lon="-17.8694120">
        <ele>852.3</ele>
        <time>2020-11-17T09:14:23Z</time>
      </trkpt>
      <trkpt lat="28.6134470" lon="-17.8694400">
        <ele>852.6</ele>
        <time>2020-11-17T09:14:24Z</time>
      </trkpt>
      <trkpt lat="28.6134470" lon="-17.8694400">
        <ele>852.6</ele>
        <time>2020-11-17T09:14:25Z</time>
      </trkpt>
      <trkpt lat="28.6134150" lon="-17.8694820">
        <ele>853.0</ele>
        <time>2020-11-17T09:14:26Z</time>
      </trkpt>
      <trkpt lat="28.6134150" lon="-17.8694820">
        <ele>853.0</ele>
        <time>2020-11-17T09:14:27Z</time>
      </trkpt>
      <trkpt lat="28.6133780" lon="-17.8695150">
        <ele>853.4</ele>
        <time>2020-11-17T09:14:28Z</time>
      </trkpt>
      <trkpt lat="28.6133780" lon="-17.8695150">
        <ele>853.4</ele>
        <time>2020-11-17T09:14:29Z</time>
      </trkpt>
      <trkpt lat="28.6133480" lon="-17.8695530">
        <ele>853.8</ele>
        <time>2020-11-17T09:14:30Z</time>
      </trkpt>
      <trkpt lat="28.6133480" lon="-17.8695530">
        <ele>853.8</ele>
        <time>2020-11-17T09:14:31Z</time>
      </trkpt>
      <trkpt lat="28.6133150" lon="-17.8695870">
        <ele>854.1</ele>
        <time>2020-11-17T09:14:32Z</time>
      </trkpt>
      <trkpt lat="28.6133150" lon="-17.8695870">
        <ele>854.1</ele>
        <time>2020-11-17T09:14:33Z</time>
      </trkpt>
      <trkpt lat="28.6132770" lon="-17.8696120">
        <ele>854.5</ele>
        <time>2020-11-17T09:14:34Z</time>
      </trkpt>
      <trkpt lat="28.6132550" lon="-17.8696200">
        <ele>854.7</ele>
        <time>2020-11-17T09:14:35Z</time>
      </trkpt>
      <trkpt lat="28.6132330" lon="-17.8696220">
        <ele>854.9</ele>
        <time>2020-11-17T09:14:36Z</time>
      </trkpt>
      <trkpt lat="28.6132330" lon="-17.8696220">
        <ele>854.9</ele>
        <time>2020-11-17T09:14:37Z</time>
      </trkpt>
      <trkpt lat="28.6131980" lon="-17.8696070">
        <ele>855.2</ele>
        <time>2020-11-17T09:14:38Z</time>
      </trkpt>
      <trkpt lat="28.6131820" lon="-17.8695900">
        <ele>855.4</ele>
        <time>2020-11-17T09:14:39Z</time>
      </trkpt>
      <trkpt lat="28.6131650" lon="-17.8695730">
        <ele>855.5</ele>
        <time>2020-11-17T09:14:40Z</time>
      </trkpt>
      <trkpt lat="28.6131650" lon="-17.8695730">
        <ele>855.5</ele>
        <time>2020-11-17T09:14:41Z</time>
      </trkpt>
      <trkpt lat="28.6131320" lon="-17.8695430">
        <ele>855.7</ele>
        <time>2020-11-17T09:14:42Z</time>
      </trkpt>
      <trkpt lat="28.6131320" lon="-17.8695430">
        <ele>855.7</ele>
        <time>2020-11-17T09:14:43Z</time>
      </trkpt>
      <trkpt lat="28.6131130" lon="-17.8695030">
        <ele>856.0</ele>
        <time>2020-11-17T09:14:44Z</time>
      </trkpt>
      <trkpt lat="28.6131130" lon="-17.8695030">
        <ele>856.0</ele>
        <time>2020-11-17T09:14:45Z</time>
      </trkpt>
      <trkpt lat="28.6130950" lon="-17.8694670">
        <ele>856.2</ele>
        <time>2020-11-17T09:14:46Z</time>
      </trkpt>
      <trkpt lat="28.6130950" lon="-17.8694670">
        <ele>856.2</ele>
        <time>2020-11-17T09:14:47Z</time>
      </trkpt>
      <trkpt lat="28.6130530" lon="-17.8694270">
        <ele>856.6</ele>
        <time>2020-11-17T09:14:48Z</time>
      </trkpt>
      <trkpt lat="28.6130530" lon="-17.8694270">
        <ele>856.6</ele>
        <time>2020-11-17T09:14:49Z</time>
      </trkpt>
      <trkpt lat="28.6130180" lon="-17.8693920">
        <ele>856.9</ele>
        <time>2020-11-17T09:14:50Z</time>
      </trkpt>
      <trkpt lat="28.6130020" lon="-17.8693750">
        <ele>857.0</ele>
        <time>2020-11-17T09:14:51Z</time>
      </trkpt>
      <trkpt lat="28.6130020" lon="-17.8693750">
        <ele>857.0</ele>
        <time>2020-11-17T09:14:52Z</time>
      </trkpt>
      <trkpt lat="28.6129670" lon="-17.8693330">
        <ele>857.4</ele>
        <time>2020-11-17T09:14:53Z</time>
      </trkpt>
      <trkpt lat="28.6129470" lon="-17.8693120">
        <ele>857.6</ele>
        <time>2020-11-17T09:14:54Z</time>
      </trkpt>
      <trkpt lat="28.6129470" lon="-17.8693120">
        <ele>857.6</ele>
        <time>2020-11-17T09:14:55Z</time>
      </trkpt>
      <trkpt lat="28.6129170" lon="-17.8692730">
        <ele>857.9</ele>
        <time>2020-11-17T09:14:56Z</time>
      </trkpt>
      <trkpt lat="28.6129170" lon="-17.8692730">
        <ele>857.9</ele>
        <time>2020-11-17T09:14:57Z</time>
      </trkpt>
      <trkpt lat="28.6128870" lon="-17.8692500">
        <ele>858.2</ele>
        <time>2020-11-17T09:14:58Z</time>
      </trkpt>
      <trkpt lat="28.6128870" lon="-17.8692500">
        <ele>858.2</ele>
        <time>2020-11-17T09:14:59Z</time>
      </trkpt>
      <trkpt lat="28.6128570" lon="-17.8692300">
        <ele>858.4</ele>
        <time>2020-11-17T09:15:00Z</time>
      </trkpt>
      <trkpt lat="28.6128570" lon="-17.8692300">
        <ele>858.4</ele>
        <time>2020-11-17T09:15:01Z</time>
      </trkpt>
      <trkpt lat="28.6128200" lon="-17.8692250">
        <ele>858.7</ele>
        <time>2020-11-17T09:15:02Z</time>
      </trkpt>
      <trkpt lat="28.6128200" lon="-17.8692250">
        <ele>858.7</ele>
        <time>2020-11-17T09:15:03Z</time>
      </trkpt>
      <trkpt lat="28.6127750" lon="-17.8692200">
        <ele>859.1</ele>
        <time>2020-11-17T09:15:04Z</time>
      </trkpt>
      <trkpt lat="28.6127750" lon="-17.8692200">
        <ele>859.1</ele>
        <time>2020-11-17T09:15:05Z</time>
      </trkpt>
      <trkpt lat="28.6127370" lon="-17.8692200">
        <ele>859.4</ele>
        <time>2020-11-17T09:15:06Z</time>
      </trkpt>
      <trkpt lat="28.6127370" lon="-17.8692200">
        <ele>859.4</ele>
        <time>2020-11-17T09:15:07Z</time>
      </trkpt>
      <trkpt lat="28.6127000" lon="-17.8692130">
        <ele>859.8</ele>
        <time>2020-11-17T09:15:08Z</time>
      </trkpt>
      <trkpt lat="28.6126830" lon="-17.8692100">
        <ele>859.9</ele>
        <time>2020-11-17T09:15:09Z</time>
      </trkpt>
      <trkpt lat="28.6126830" lon="-17.8692100">
        <ele>859.9</ele>
        <time>2020-11-17T09:15:10Z</time>
      </trkpt>
      <trkpt lat="28.6126550" lon="-17.8691980">
        <ele>860.2</ele>
        <time>2020-11-17T09:15:11Z</time>
      </trkpt>
      <trkpt lat="28.6126380" lon="-17.8691900">
        <ele>860.3</ele>
        <time>2020-11-17T09:15:12Z</time>
      </trkpt>
      <trkpt lat="28.6126230" lon="-17.8691850">
        <ele>860.5</ele>
        <time>2020-11-17T09:15:13Z</time>
      </trkpt>
      <trkpt lat="28.6126230" lon="-17.8691850">
        <ele>860.5</ele>
        <time>2020-11-17T09:15:14Z</time>
      </trkpt>
      <trkpt lat="28.6126030" lon="-17.8691800">
        <ele>860.6</ele>
        <time>2020-11-17T09:15:15Z</time>
      </trkpt>
      <trkpt lat="28.6125900" lon="-17.8691750">
        <ele>860.8</ele>
        <time>2020-11-17T09:15:16Z</time>
      </trkpt>
      <trkpt lat="28.6125900" lon="-17.8691750">
        <ele>860.8</ele>
        <time>2020-11-17T09:15:17Z</time>
      </trkpt>
      <trkpt lat="28.6125670" lon="-17.8691670">
        <ele>861.0</ele>
        <time>2020-11-17T09:15:18Z</time>
      </trkpt>
      <trkpt lat="28.6125670" lon="-17.8691670">
        <ele>861.0</ele>
        <time>2020-11-17T09:15:19Z</time>
      </trkpt>
      <trkpt lat="28.6125630" lon="-17.8691670">
        <ele>861.0</ele>
        <time>2020-11-17T09:15:20Z</time>
      </trkpt>
      <trkpt lat="28.6125580" lon="-17.8691670">
        <ele>861.0</ele>
        <time>2020-11-17T09:15:21Z</time>
      </trkpt>
      <trkpt lat="28.6125580" lon="-17.8691670">
        <ele>861.0</ele>
        <time>2020-11-17T09:15:22Z</time>
      </trkpt>
      <trkpt lat="28.6125580" lon="-17.8691670">
        <ele>861.0</ele>
        <time>2020-11-17T09:16:23Z</time>
      </trkpt>
      <trkpt lat="28.6125070" lon="-17.8691380">
        <ele>861.6</ele>
        <time>2020-11-17T09:16:24Z</time>
      </trkpt>
      <trkpt lat="28.6125070" lon="-17.8691380">
        <ele>861.6</ele>
        <time>2020-11-17T09:16:25Z</time>
      </trkpt>
      <trkpt lat="28.6124870" lon="-17.8691480">
        <ele>861.8</ele>
        <time>2020-11-17T09:16:26Z</time>
      </trkpt>
      <trkpt lat="28.6124870" lon="-17.8691480">
        <ele>861.8</ele>
        <time>2020-11-17T09:16:27Z</time>
      </trkpt>
      <trkpt lat="28.6124520" lon="-17.8691600">
        <ele>862.1</ele>
        <time>2020-11-17T09:16:28Z</time>
      </trkpt>
      <trkpt lat="28.6124370" lon="-17.8691600">
        <ele>862.3</ele>
        <time>2020-11-17T09:16:29Z</time>
      </trkpt>
      <trkpt lat="28.6124370" lon="-17.8691600">
        <ele>862.3</ele>
        <time>2020-11-17T09:16:30Z</time>
      </trkpt>
      <trkpt lat="28.6124100" lon="-17.8691730">
        <ele>862.6</ele>
        <time>2020-11-17T09:16:31Z</time>
      </trkpt>
      <trkpt lat="28.6124100" lon="-17.8691730">
        <ele>862.6</ele>
        <time>2020-11-17T09:16:32Z</time>
      </trkpt>
      <trkpt lat="28.6123780" lon="-17.8691930">
        <ele>863.0</ele>
        <time>2020-11-17T09:16:33Z</time>
      </trkpt>
      <trkpt lat="28.6123780" lon="-17.8691930">
        <ele>863.0</ele>
        <time>2020-11-17T09:16:34Z</time>
      </trkpt>
      <trkpt lat="28.6123370" lon="-17.8692120">
        <ele>863.5</ele>
        <time>2020-11-17T09:16:35Z</time>
      </trkpt>
      <trkpt lat="28.6123130" lon="-17.8692170">
        <ele>863.8</ele>
        <time>2020-11-17T09:16:36Z</time>
      </trkpt>
      <trkpt lat="28.6123130" lon="-17.8692170">
        <ele>863.8</ele>
        <time>2020-11-17T09:16:37Z</time>
      </trkpt>
      <trkpt lat="28.6122880" lon="-17.8692330">
        <ele>864.1</ele>
        <time>2020-11-17T09:16:38Z</time>
      </trkpt>
      <trkpt lat="28.6122780" lon="-17.8692500">
        <ele>864.3</ele>
        <time>2020-11-17T09:16:39Z</time>
      </trkpt>
      <trkpt lat="28.6122780" lon="-17.8692500">
        <ele>864.3</ele>
        <time>2020-11-17T09:16:40Z</time>
      </trkpt>
      <trkpt lat="28.6122400" lon="-17.8692730">
        <ele>864.9</ele>
        <time>2020-11-17T09:16:41Z</time>
      </trkpt>
      <trkpt lat="28.6122400" lon="-17.8692730">
        <ele>864.9</ele>
        <time>2020-11-17T09:16:42Z</time>
      </trkpt>
      <trkpt lat="28.6121980" lon="-17.8692850">
        <ele>865.4</ele>
        <time>2020-11-17T09:16:43Z</time>
      </trkpt>
      <trkpt lat="28.6121980" lon="-17.8692850">
        <ele>865.4</ele>
        <time>2020-11-17T09:16:44Z</time>
      </trkpt>
      <trkpt lat="28.6121520" lon="-17.8692920">
        <ele>866.0</ele>
        <time>2020-11-17T09:16:45Z</time>
      </trkpt>
      <trkpt lat="28.6121520" lon="-17.8692920">
        <ele>866.0</ele>
        <time>2020-11-17T09:16:46Z</time>
      </trkpt>
      <trkpt lat="28.6121080" lon="-17.8692820">
        <ele>866.5</ele>
        <time>2020-11-17T09:16:47Z</time>
      </trkpt>
      <trkpt lat="28.6121080" lon="-17.8692820">
        <ele>866.5</ele>
        <time>2020-11-17T09:16:48Z</time>
      </trkpt>
      <trkpt lat="28.6120770" lon="-17.8692650">
        <ele>866.9</ele>
        <time>2020-11-17T09:16:49Z</time>
      </trkpt>
      <trkpt lat="28.6120770" lon="-17.8692650">
        <ele>866.9</ele>
        <time>2020-11-17T09:16:50Z</time>
      </trkpt>
      <trkpt lat="28.6120480" lon="-17.8692370">
        <ele>867.3</ele>
        <time>2020-11-17T09:16:51Z</time>
      </trkpt>
      <trkpt lat="28.6120380" lon="-17.8692220">
        <ele>867.4</ele>
        <time>2020-11-17T09:16:52Z</time>
      </trkpt>
      <trkpt lat="28.6120380" lon="-17.8692220">
        <ele>867.4</ele>
        <time>2020-11-17T09:16:53Z</time>
      </trkpt>
      <trkpt lat="28.6120100" lon="-17.8691820">
        <ele>867.8</ele>
        <time>2020-11-17T09:16:54Z</time>
      </trkpt>
      <trkpt lat="28.6120100" lon="-17.8691820">
        <ele>867.8</ele>
        <time>2020-11-17T09:16:55Z</time>
      </trkpt>
      <trkpt lat="28.6119830" lon="-17.8691470">
        <ele>868.2</ele>
        <time>2020-11-17T09:16:56Z</time>
      </trkpt>
      <trkpt lat="28.6119830" lon="-17.8691470">
        <ele>868.2</ele>
        <time>2020-11-17T09:16:57Z</time>
      </trkpt>
      <trkpt lat="28.6119550" lon="-17.8691120">
        <ele>868.5</ele>
        <time>2020-11-17T09:16:58Z</time>
      </trkpt>
      <trkpt lat="28.6119250" lon="-17.8690900">
        <ele>868.7</ele>
        <time>2020-11-17T09:16:59Z</time>
      </trkpt>
      <trkpt lat="28.6119080" lon="-17.8690780">
        <ele>868.9</ele>
        <time>2020-11-17T09:17:00Z</time>
      </trkpt>
      <trkpt lat="28.6119080" lon="-17.8690780">
        <ele>868.9</ele>
        <time>2020-11-17T09:17:01Z</time>
      </trkpt>
      <trkpt lat="28.6118800" lon="-17.8690470">
        <ele>869.2</ele>
        <time>2020-11-17T09:17:02Z</time>
      </trkpt>
      <trkpt lat="28.6118670" lon="-17.8690250">
        <ele>869.3</ele>
        <time>2020-11-17T09:17:03Z</time>
      </trkpt>
      <trkpt lat="28.6118670" lon="-17.8690250">
        <ele>869.3</ele>
        <time>2020-11-17T09:17:04Z</time>
      </trkpt>
      <trkpt lat="28.6118300" lon="-17.8689750">
        <ele>869.7</ele>
        <time>2020-11-17T09:17:05Z</time>
      </trkpt>
      <trkpt lat="28.6118120" lon="-17.8689570">
        <ele>869.9</ele>
        <time>2020-11-17T09:17:06Z</time>
      </trkpt>
      <trkpt lat="28.6118120" lon="-17.8689570">
        <ele>869.9</ele>
        <time>2020-11-17T09:17:07Z</time>
      </trkpt>
      <trkpt lat="28.6117870" lon="-17.8689230">
        <ele>870.1</ele>
        <time>2020-11-17T09:17:08Z</time>
      </trkpt>
      <trkpt lat="28.6117870" lon="-17.8689230">
        <ele>870.1</ele>
        <time>2020-11-17T09:17:09Z</time>
      </trkpt>
      <trkpt lat="28.6117580" lon="-17.8688970">
        <ele>870.4</ele>
        <time>2020-11-17T09:17:10Z</time>
      </trkpt>
      <trkpt lat="28.6117580" lon="-17.8688970">
        <ele>870.4</ele>
        <time>2020-11-17T09:17:11Z</time>
      </trkpt>
      <trkpt lat="28.6117330" lon="-17.8688780">
        <ele>870.6</ele>
        <time>2020-11-17T09:17:12Z</time>
      </trkpt>
      <trkpt lat="28.6117180" lon="-17.8688670">
        <ele>870.7</ele>
        <time>2020-11-17T09:17:13Z</time>
      </trkpt>
      <trkpt lat="28.6117180" lon="-17.8688670">
        <ele>870.7</ele>
        <time>2020-11-17T09:17:14Z</time>
      </trkpt>
      <trkpt lat="28.6116930" lon="-17.8688430">
        <ele>870.9</ele>
        <time>2020-11-17T09:17:15Z</time>
      </trkpt>
      <trkpt lat="28.6116930" lon="-17.8688430">
        <ele>870.9</ele>
        <time>2020-11-17T09:17:16Z</time>
      </trkpt>
      <trkpt lat="28.6116620" lon="-17.8688220">
        <ele>871.2</ele>
        <time>2020-11-17T09:17:17Z</time>
      </trkpt>
      <trkpt lat="28.6116480" lon="-17.8688150">
        <ele>871.3</ele>
        <time>2020-11-17T09:17:18Z</time>
      </trkpt>
      <trkpt lat="28.6116480" lon="-17.8688150">
        <ele>871.3</ele>
        <time>2020-11-17T09:17:19Z</time>
      </trkpt>
      <trkpt lat="28.6116080" lon="-17.8688000">
        <ele>871.6</ele>
        <time>2020-11-17T09:17:20Z</time>
      </trkpt>
      <trkpt lat="28.6115900" lon="-17.8687930">
        <ele>871.7</ele>
        <time>2020-11-17T09:17:21Z</time>
      </trkpt>
      <trkpt lat="28.6115900" lon="-17.8687930">
        <ele>871.7</ele>
        <time>2020-11-17T09:17:22Z</time>
      </trkpt>
      <trkpt lat="28.6115570" lon="-17.8688000">
        <ele>872.0</ele>
        <time>2020-11-17T09:17:23Z</time>
      </trkpt>
      <trkpt lat="28.6115370" lon="-17.8688080">
        <ele>872.1</ele>
        <time>2020-11-17T09:17:24Z</time>
      </trkpt>
      <trkpt lat="28.6115370" lon="-17.8688080">
        <ele>872.1</ele>
        <time>2020-11-17T09:17:25Z</time>
      </trkpt>
      <trkpt lat="28.6115000" lon="-17.8688230">
        <ele>872.5</ele>
        <time>2020-11-17T09:17:26Z</time>
      </trkpt>
      <trkpt lat="28.6114820" lon="-17.8688270">
        <ele>872.6</ele>
        <time>2020-11-17T09:17:27Z</time>
      </trkpt>
      <trkpt lat="28.6114820" lon="-17.8688270">
        <ele>872.6</ele>
        <time>2020-11-17T09:17:28Z</time>
      </trkpt>
      <trkpt lat="28.6114420" lon="-17.8688320">
        <ele>872.9</ele>
        <time>2020-11-17T09:17:29Z</time>
      </trkpt>
      <trkpt lat="28.6114420" lon="-17.8688320">
        <ele>872.9</ele>
        <time>2020-11-17T09:17:30Z</time>
      </trkpt>
      <trkpt lat="28.6113880" lon="-17.8688450">
        <ele>873.4</ele>
        <time>2020-11-17T09:17:31Z</time>
      </trkpt>
      <trkpt lat="28.6113880" lon="-17.8688450">
        <ele>873.4</ele>
        <time>2020-11-17T09:17:32Z</time>
      </trkpt>
      <trkpt lat="28.6113530" lon="-17.8688570">
        <ele>873.7</ele>
        <time>2020-11-17T09:17:33Z</time>
      </trkpt>
      <trkpt lat="28.6113400" lon="-17.8688630">
        <ele>873.9</ele>
        <time>2020-11-17T09:17:34Z</time>
      </trkpt>
      <trkpt lat="28.6113220" lon="-17.8688630">
        <ele>874.0</ele>
        <time>2020-11-17T09:17:35Z</time>
      </trkpt>
      <trkpt lat="28.6113220" lon="-17.8688630">
        <ele>874.0</ele>
        <time>2020-11-17T09:17:36Z</time>
      </trkpt>
      <trkpt lat="28.6112850" lon="-17.8688650">
        <ele>874.3</ele>
        <time>2020-11-17T09:17:37Z</time>
      </trkpt>
      <trkpt lat="28.6112850" lon="-17.8688650">
        <ele>874.3</ele>
        <time>2020-11-17T09:17:38Z</time>
      </trkpt>
      <trkpt lat="28.6112430" lon="-17.8688720">
        <ele>874.7</ele>
        <time>2020-11-17T09:17:39Z</time>
      </trkpt>
      <trkpt lat="28.6112430" lon="-17.8688720">
        <ele>874.7</ele>
        <time>2020-11-17T09:17:40Z</time>
      </trkpt>
      <trkpt lat="28.6112050" lon="-17.8688700">
        <ele>875.0</ele>
        <time>2020-11-17T09:17:41Z</time>
      </trkpt>
      <trkpt lat="28.6111870" lon="-17.8688700">
        <ele>875.2</ele>
        <time>2020-11-17T09:17:42Z</time>
      </trkpt>
      <trkpt lat="28.6111870" lon="-17.8688700">
        <ele>875.2</ele>
        <time>2020-11-17T09:17:43Z</time>
      </trkpt>
      <trkpt lat="28.6111480" lon="-17.8688680">
        <ele>875.5</ele>
        <time>2020-11-17T09:17:44Z</time>
      </trkpt>
      <trkpt lat="28.6111330" lon="-17.8688650">
        <ele>875.6</ele>
        <time>2020-11-17T09:17:45Z</time>
      </trkpt>
      <trkpt lat="28.6111330" lon="-17.8688650">
        <ele>875.6</ele>
        <time>2020-11-17T09:17:46Z</time>
      </trkpt>
      <trkpt lat="28.6111030" lon="-17.8688580">
        <ele>875.9</ele>
        <time>2020-11-17T09:17:47Z</time>
      </trkpt>
      <trkpt lat="28.6111030" lon="-17.8688580">
        <ele>875.9</ele>
        <time>2020-11-17T09:17:48Z</time>
      </trkpt>
      <trkpt lat="28.6110630" lon="-17.8688480">
        <ele>876.2</ele>
        <time>2020-11-17T09:17:49Z</time>
      </trkpt>
      <trkpt lat="28.6110630" lon="-17.8688480">
        <ele>876.2</ele>
        <time>2020-11-17T09:17:50Z</time>
      </trkpt>
      <trkpt lat="28.6110320" lon="-17.8688370">
        <ele>876.5</ele>
        <time>2020-11-17T09:17:51Z</time>
      </trkpt>
      <trkpt lat="28.6110320" lon="-17.8688370">
        <ele>876.5</ele>
        <time>2020-11-17T09:17:52Z</time>
      </trkpt>
      <trkpt lat="28.6110000" lon="-17.8688230">
        <ele>876.8</ele>
        <time>2020-11-17T09:17:53Z</time>
      </trkpt>
      <trkpt lat="28.6110000" lon="-17.8688230">
        <ele>876.8</ele>
        <time>2020-11-17T09:17:54Z</time>
      </trkpt>
      <trkpt lat="28.6109700" lon="-17.8688150">
        <ele>877.1</ele>
        <time>2020-11-17T09:17:55Z</time>
      </trkpt>
      <trkpt lat="28.6109580" lon="-17.8688100">
        <ele>877.2</ele>
        <time>2020-11-17T09:17:56Z</time>
      </trkpt>
      <trkpt lat="28.6109580" lon="-17.8688100">
        <ele>877.2</ele>
        <time>2020-11-17T09:17:57Z</time>
      </trkpt>
      <trkpt lat="28.6109320" lon="-17.8687880">
        <ele>877.5</ele>
        <time>2020-11-17T09:17:58Z</time>
      </trkpt>
      <trkpt lat="28.6109320" lon="-17.8687880">
        <ele>877.5</ele>
        <time>2020-11-17T09:17:59Z</time>
      </trkpt>
      <trkpt lat="28.6109030" lon="-17.8687520">
        <ele>877.9</ele>
        <time>2020-11-17T09:18:00Z</time>
      </trkpt>
      <trkpt lat="28.6109030" lon="-17.8687520">
        <ele>877.9</ele>
        <time>2020-11-17T09:18:01Z</time>
      </trkpt>
      <trkpt lat="28.6108670" lon="-17.8687200">
        <ele>878.2</ele>
        <time>2020-11-17T09:18:02Z</time>
      </trkpt>
      <trkpt lat="28.6108520" lon="-17.8687030">
        <ele>878.4</ele>
        <time>2020-11-17T09:18:03Z</time>
      </trkpt>
      <trkpt lat="28.6108520" lon="-17.8687030">
        <ele>878.4</ele>
        <time>2020-11-17T09:18:04Z</time>
      </trkpt>
      <trkpt lat="28.6108120" lon="-17.8686670">
        <ele>878.8</ele>
        <time>2020-11-17T09:18:05Z</time>
      </trkpt>
      <trkpt lat="28.6107970" lon="-17.8686530">
        <ele>879.0</ele>
        <time>2020-11-17T09:18:06Z</time>
      </trkpt>
      <trkpt lat="28.6107850" lon="-17.8686380">
        <ele>879.1</ele>
        <time>2020-11-17T09:18:07Z</time>
      </trkpt>
      <trkpt lat="28.6107850" lon="-17.8686380">
        <ele>879.1</ele>
        <time>2020-11-17T09:18:08Z</time>
      </trkpt>
      <trkpt lat="28.6107580" lon="-17.8686130">
        <ele>879.4</ele>
        <time>2020-11-17T09:18:09Z</time>
      </trkpt>
      <trkpt lat="28.6107580" lon="-17.8686130">
        <ele>879.4</ele>
        <time>2020-11-17T09:18:10Z</time>
      </trkpt>
      <trkpt lat="28.6107370" lon="-17.8685870">
        <ele>879.6</ele>
        <time>2020-11-17T09:18:11Z</time>
      </trkpt>
      <trkpt lat="28.6107220" lon="-17.8685750">
        <ele>879.8</ele>
        <time>2020-11-17T09:18:12Z</time>
      </trkpt>
      <trkpt lat="28.6107220" lon="-17.8685750">
        <ele>879.8</ele>
        <time>2020-11-17T09:18:13Z</time>
      </trkpt>
      <trkpt lat="28.6107020" lon="-17.8685530">
        <ele>880.0</ele>
        <time>2020-11-17T09:18:14Z</time>
      </trkpt>
      <trkpt lat="28.6107020" lon="-17.8685530">
        <ele>880.0</ele>
        <time>2020-11-17T09:18:15Z</time>
      </trkpt>
      <trkpt lat="28.6106800" lon="-17.8685370">
        <ele>880.2</ele>
        <time>2020-11-17T09:18:16Z</time>
      </trkpt>
      <trkpt lat="28.6106730" lon="-17.8685250">
        <ele>880.3</ele>
        <time>2020-11-17T09:18:17Z</time>
      </trkpt>
      <trkpt lat="28.6106730" lon="-17.8685250">
        <ele>880.3</ele>
        <time>2020-11-17T09:18:18Z</time>
      </trkpt>
      <trkpt lat="28.6106530" lon="-17.8684980">
        <ele>880.6</ele>
        <time>2020-11-17T09:18:19Z</time>
      </trkpt>
      <trkpt lat="28.6106530" lon="-17.8684980">
        <ele>880.6</ele>
        <time>2020-11-17T09:18:20Z</time>
      </trkpt>
      <trkpt lat="28.6106300" lon="-17.8684700">
        <ele>880.8</ele>
        <time>2020-11-17T09:18:21Z</time>
      </trkpt>
      <trkpt lat="28.6106220" lon="-17.8684550">
        <ele>880.9</ele>
        <time>2020-11-17T09:18:22Z</time>
      </trkpt>
      <trkpt lat="28.6106220" lon="-17.8684550">
        <ele>880.9</ele>
        <time>2020-11-17T09:18:23Z</time>
      </trkpt>
      <trkpt lat="28.6106080" lon="-17.8684380">
        <ele>881.1</ele>
        <time>2020-11-17T09:18:24Z</time>
      </trkpt>
      <trkpt lat="28.6106020" lon="-17.8684280">
        <ele>881.2</ele>
        <time>2020-11-17T09:18:25Z</time>
      </trkpt>
      <trkpt lat="28.6106020" lon="-17.8684280">
        <ele>881.2</ele>
        <time>2020-11-17T09:18:26Z</time>
      </trkpt>
      <trkpt lat="28.6105820" lon="-17.8684080">
        <ele>881.4</ele>
        <time>2020-11-17T09:18:27Z</time>
      </trkpt>
      <trkpt lat="28.6105700" lon="-17.8683970">
        <ele>881.5</ele>
        <time>2020-11-17T09:18:28Z</time>
      </trkpt>
      <trkpt lat="28.6105700" lon="-17.8683970">
        <ele>881.5</ele>
        <time>2020-11-17T09:18:29Z</time>
      </trkpt>
      <trkpt lat="28.6105230" lon="-17.8683500">
        <ele>882.0</ele>
        <time>2020-11-17T09:18:30Z</time>
      </trkpt>
      <trkpt lat="28.6105230" lon="-17.8683500">
        <ele>882.0</ele>
        <time>2020-11-17T09:18:31Z</time>
      </trkpt>
      <trkpt lat="28.6104780" lon="-17.8683180">
        <ele>882.4</ele>
        <time>2020-11-17T09:18:32Z</time>
      </trkpt>
      <trkpt lat="28.6104570" lon="-17.8683030">
        <ele>882.6</ele>
        <time>2020-11-17T09:18:33Z</time>
      </trkpt>
      <trkpt lat="28.6104570" lon="-17.8683030">
        <ele>882.6</ele>
        <time>2020-11-17T09:18:34Z</time>
      </trkpt>
      <trkpt lat="28.6104230" lon="-17.8682970">
        <ele>882.9</ele>
        <time>2020-11-17T09:18:35Z</time>
      </trkpt>
      <trkpt lat="28.6104230" lon="-17.8682970">
        <ele>882.9</ele>
        <time>2020-11-17T09:18:36Z</time>
      </trkpt>
      <trkpt lat="28.6103900" lon="-17.8682950">
        <ele>883.1</ele>
        <time>2020-11-17T09:18:37Z</time>
      </trkpt>
      <trkpt lat="28.6103900" lon="-17.8682950">
        <ele>883.1</ele>
        <time>2020-11-17T09:18:38Z</time>
      </trkpt>
      <trkpt lat="28.6103550" lon="-17.8682930">
        <ele>883.4</ele>
        <time>2020-11-17T09:18:39Z</time>
      </trkpt>
      <trkpt lat="28.6103550" lon="-17.8682930">
        <ele>883.4</ele>
        <time>2020-11-17T09:18:40Z</time>
      </trkpt>
      <trkpt lat="28.6103270" lon="-17.8682950">
        <ele>883.6</ele>
        <time>2020-11-17T09:18:41Z</time>
      </trkpt>
      <trkpt lat="28.6103270" lon="-17.8682950">
        <ele>883.6</ele>
        <time>2020-11-17T09:18:42Z</time>
      </trkpt>
      <trkpt lat="28.6102930" lon="-17.8682930">
        <ele>883.8</ele>
        <time>2020-11-17T09:18:43Z</time>
      </trkpt>
      <trkpt lat="28.6102750" lon="-17.8682930">
        <ele>884.0</ele>
        <time>2020-11-17T09:18:44Z</time>
      </trkpt>
      <trkpt lat="28.6102750" lon="-17.8682930">
        <ele>884.0</ele>
        <time>2020-11-17T09:18:45Z</time>
      </trkpt>
      <trkpt lat="28.6102400" lon="-17.8682820">
        <ele>884.2</ele>
        <time>2020-11-17T09:18:46Z</time>
      </trkpt>
      <trkpt lat="28.6102400" lon="-17.8682820">
        <ele>884.2</ele>
        <time>2020-11-17T09:18:47Z</time>
      </trkpt>
      <trkpt lat="28.6102050" lon="-17.8682770">
        <ele>884.4</ele>
        <time>2020-11-17T09:18:48Z</time>
      </trkpt>
      <trkpt lat="28.6102050" lon="-17.8682770">
        <ele>884.4</ele>
        <time>2020-11-17T09:18:49Z</time>
      </trkpt>
      <trkpt lat="28.6101680" lon="-17.8682620">
        <ele>884.7</ele>
        <time>2020-11-17T09:18:50Z</time>
      </trkpt>
      <trkpt lat="28.6101520" lon="-17.8682550">
        <ele>884.8</ele>
        <time>2020-11-17T09:18:51Z</time>
      </trkpt>
      <trkpt lat="28.6101520" lon="-17.8682550">
        <ele>884.8</ele>
        <time>2020-11-17T09:18:52Z</time>
      </trkpt>
      <trkpt lat="28.6101050" lon="-17.8682370">
        <ele>885.2</ele>
        <time>2020-11-17T09:18:53Z</time>
      </trkpt>
      <trkpt lat="28.6100820" lon="-17.8682270">
        <ele>885.3</ele>
        <time>2020-11-17T09:18:54Z</time>
      </trkpt>
      <trkpt lat="28.6100820" lon="-17.8682270">
        <ele>885.3</ele>
        <time>2020-11-17T09:18:55Z</time>
      </trkpt>
      <trkpt lat="28.6100380" lon="-17.8682020">
        <ele>885.6</ele>
        <time>2020-11-17T09:18:56Z</time>
      </trkpt>
      <trkpt lat="28.6100380" lon="-17.8682020">
        <ele>885.6</ele>
        <time>2020-11-17T09:18:57Z</time>
      </trkpt>
      <trkpt lat="28.6100250" lon="-17.8681900">
        <ele>885.7</ele>
        <time>2020-11-17T09:18:58Z</time>
      </trkpt>
      <trkpt lat="28.6099930" lon="-17.8681580">
        <ele>886.0</ele>
        <time>2020-11-17T09:18:59Z</time>
      </trkpt>
      <trkpt lat="28.6099730" lon="-17.8681380">
        <ele>886.2</ele>
        <time>2020-11-17T09:19:00Z</time>
      </trkpt>
      <trkpt lat="28.6099730" lon="-17.8681380">
        <ele>886.2</ele>
        <time>2020-11-17T09:19:01Z</time>
      </trkpt>
      <trkpt lat="28.6099400" lon="-17.8681030">
        <ele>886.5</ele>
        <time>2020-11-17T09:19:02Z</time>
      </trkpt>
      <trkpt lat="28.6099400" lon="-17.8681030">
        <ele>886.5</ele>
        <time>2020-11-17T09:19:03Z</time>
      </trkpt>
      <trkpt lat="28.6099020" lon="-17.8680730">
        <ele>886.8</ele>
        <time>2020-11-17T09:19:04Z</time>
      </trkpt>
      <trkpt lat="28.6099020" lon="-17.8680730">
        <ele>886.8</ele>
        <time>2020-11-17T09:19:05Z</time>
      </trkpt>
      <trkpt lat="28.6098700" lon="-17.8680370">
        <ele>887.1</ele>
        <time>2020-11-17T09:19:06Z</time>
      </trkpt>
      <trkpt lat="28.6098570" lon="-17.8680180">
        <ele>887.2</ele>
        <time>2020-11-17T09:19:07Z</time>
      </trkpt>
      <trkpt lat="28.6098570" lon="-17.8680180">
        <ele>887.2</ele>
        <time>2020-11-17T09:19:08Z</time>
      </trkpt>
      <trkpt lat="28.6098320" lon="-17.8679800">
        <ele>887.5</ele>
        <time>2020-11-17T09:19:09Z</time>
      </trkpt>
      <trkpt lat="28.6098220" lon="-17.8679620">
        <ele>887.6</ele>
        <time>2020-11-17T09:19:10Z</time>
      </trkpt>
      <trkpt lat="28.6098080" lon="-17.8679430">
        <ele>887.8</ele>
        <time>2020-11-17T09:19:11Z</time>
      </trkpt>
      <trkpt lat="28.6098080" lon="-17.8679430">
        <ele>887.8</ele>
        <time>2020-11-17T09:19:12Z</time>
      </trkpt>
      <trkpt lat="28.6097850" lon="-17.8679020">
        <ele>888.1</ele>
        <time>2020-11-17T09:19:13Z</time>
      </trkpt>
      <trkpt lat="28.6097780" lon="-17.8678820">
        <ele>888.3</ele>
        <time>2020-11-17T09:19:14Z</time>
      </trkpt>
      <trkpt lat="28.6097780" lon="-17.8678820">
        <ele>888.3</ele>
        <time>2020-11-17T09:19:15Z</time>
      </trkpt>
      <trkpt lat="28.6097630" lon="-17.8678380">
        <ele>888.6</ele>
        <time>2020-11-17T09:19:16Z</time>
      </trkpt>
      <trkpt lat="28.6097630" lon="-17.8678380">
        <ele>888.6</ele>
        <time>2020-11-17T09:19:17Z</time>
      </trkpt>
      <trkpt lat="28.6097450" lon="-17.8677980">
        <ele>888.9</ele>
        <time>2020-11-17T09:19:18Z</time>
      </trkpt>
      <trkpt lat="28.6097450" lon="-17.8677980">
        <ele>888.9</ele>
        <time>2020-11-17T09:19:19Z</time>
      </trkpt>
      <trkpt lat="28.6097170" lon="-17.8677670">
        <ele>889.2</ele>
        <time>2020-11-17T09:19:20Z</time>
      </trkpt>
      <trkpt lat="28.6097170" lon="-17.8677670">
        <ele>889.2</ele>
        <time>2020-11-17T09:19:21Z</time>
      </trkpt>
      <trkpt lat="28.6096870" lon="-17.8677320">
        <ele>889.5</ele>
        <time>2020-11-17T09:19:22Z</time>
      </trkpt>
      <trkpt lat="28.6096750" lon="-17.8677170">
        <ele>889.7</ele>
        <time>2020-11-17T09:19:23Z</time>
      </trkpt>
      <trkpt lat="28.6096620" lon="-17.8677030">
        <ele>889.8</ele>
        <time>2020-11-17T09:19:24Z</time>
      </trkpt>
      <trkpt lat="28.6096450" lon="-17.8676880">
        <ele>889.9</ele>
        <time>2020-11-17T09:19:25Z</time>
      </trkpt>
      <trkpt lat="28.6096450" lon="-17.8676880">
        <ele>889.9</ele>
        <time>2020-11-17T09:19:26Z</time>
      </trkpt>
      <trkpt lat="28.6096070" lon="-17.8676580">
        <ele>890.3</ele>
        <time>2020-11-17T09:19:27Z</time>
      </trkpt>
      <trkpt lat="28.6096070" lon="-17.8676580">
        <ele>890.3</ele>
        <time>2020-11-17T09:19:28Z</time>
      </trkpt>
      <trkpt lat="28.6095720" lon="-17.8676370">
        <ele>890.5</ele>
        <time>2020-11-17T09:19:29Z</time>
      </trkpt>
      <trkpt lat="28.6095520" lon="-17.8676270">
        <ele>890.7</ele>
        <time>2020-11-17T09:19:30Z</time>
      </trkpt>
      <trkpt lat="28.6095520" lon="-17.8676270">
        <ele>890.7</ele>
        <time>2020-11-17T09:19:31Z</time>
      </trkpt>
      <trkpt lat="28.6095100" lon="-17.8676120">
        <ele>891.0</ele>
        <time>2020-11-17T09:19:32Z</time>
      </trkpt>
      <trkpt lat="28.6095100" lon="-17.8676120">
        <ele>891.0</ele>
        <time>2020-11-17T09:19:33Z</time>
      </trkpt>
      <trkpt lat="28.6094680" lon="-17.8676000">
        <ele>891.3</ele>
        <time>2020-11-17T09:19:34Z</time>
      </trkpt>
      <trkpt lat="28.6094680" lon="-17.8676000">
        <ele>891.3</ele>
        <time>2020-11-17T09:19:35Z</time>
      </trkpt>
      <trkpt lat="28.6094400" lon="-17.8675870">
        <ele>891.5</ele>
        <time>2020-11-17T09:19:36Z</time>
      </trkpt>
      <trkpt lat="28.6094400" lon="-17.8675870">
        <ele>891.5</ele>
        <time>2020-11-17T09:19:37Z</time>
      </trkpt>
      <trkpt lat="28.6094080" lon="-17.8675800">
        <ele>891.8</ele>
        <time>2020-11-17T09:19:38Z</time>
      </trkpt>
      <trkpt lat="28.6094080" lon="-17.8675800">
        <ele>891.8</ele>
        <time>2020-11-17T09:19:39Z</time>
      </trkpt>
      <trkpt lat="28.6093650" lon="-17.8675750">
        <ele>892.1</ele>
        <time>2020-11-17T09:19:40Z</time>
      </trkpt>
      <trkpt lat="28.6093650" lon="-17.8675750">
        <ele>892.1</ele>
        <time>2020-11-17T09:19:41Z</time>
      </trkpt>
      <trkpt lat="28.6093320" lon="-17.8675730">
        <ele>892.3</ele>
        <time>2020-11-17T09:19:42Z</time>
      </trkpt>
      <trkpt lat="28.6093150" lon="-17.8675730">
        <ele>892.4</ele>
        <time>2020-11-17T09:19:43Z</time>
      </trkpt>
      <trkpt lat="28.6093150" lon="-17.8675730">
        <ele>892.4</ele>
        <time>2020-11-17T09:19:44Z</time>
      </trkpt>
      <trkpt lat="28.6092680" lon="-17.8675730">
        <ele>892.8</ele>
        <time>2020-11-17T09:19:45Z</time>
      </trkpt>
      <trkpt lat="28.6092680" lon="-17.8675730">
        <ele>892.8</ele>
        <time>2020-11-17T09:19:46Z</time>
      </trkpt>
      <trkpt lat="28.6092320" lon="-17.8675850">
        <ele>893.1</ele>
        <time>2020-11-17T09:19:47Z</time>
      </trkpt>
      <trkpt lat="28.6092120" lon="-17.8675920">
        <ele>893.3</ele>
        <time>2020-11-17T09:19:48Z</time>
      </trkpt>
      <trkpt lat="28.6092120" lon="-17.8675920">
        <ele>893.3</ele>
        <time>2020-11-17T09:19:49Z</time>
      </trkpt>
      <trkpt lat="28.6091700" lon="-17.8676050">
        <ele>893.7</ele>
        <time>2020-11-17T09:19:50Z</time>
      </trkpt>
      <trkpt lat="28.6091700" lon="-17.8676050">
        <ele>893.7</ele>
        <time>2020-11-17T09:19:51Z</time>
      </trkpt>
      <trkpt lat="28.6091300" lon="-17.8676100">
        <ele>894.1</ele>
        <time>2020-11-17T09:19:52Z</time>
      </trkpt>
      <trkpt lat="28.6091300" lon="-17.8676100">
        <ele>894.1</ele>
        <time>2020-11-17T09:19:53Z</time>
      </trkpt>
      <trkpt lat="28.6090970" lon="-17.8676230">
        <ele>894.5</ele>
        <time>2020-11-17T09:19:54Z</time>
      </trkpt>
      <trkpt lat="28.6090970" lon="-17.8676230">
        <ele>894.5</ele>
        <time>2020-11-17T09:19:55Z</time>
      </trkpt>
      <trkpt lat="28.6090670" lon="-17.8676320">
        <ele>894.8</ele>
        <time>2020-11-17T09:19:56Z</time>
      </trkpt>
      <trkpt lat="28.6090470" lon="-17.8676330">
        <ele>895.0</ele>
        <time>2020-11-17T09:19:57Z</time>
      </trkpt>
      <trkpt lat="28.6090470" lon="-17.8676330">
        <ele>895.0</ele>
        <time>2020-11-17T09:19:58Z</time>
      </trkpt>
      <trkpt lat="28.6090080" lon="-17.8676380">
        <ele>895.4</ele>
        <time>2020-11-17T09:19:59Z</time>
      </trkpt>
      <trkpt lat="28.6090080" lon="-17.8676380">
        <ele>895.4</ele>
        <time>2020-11-17T09:20:00Z</time>
      </trkpt>
      <trkpt lat="28.6089700" lon="-17.8676430">
        <ele>895.9</ele>
        <time>2020-11-17T09:20:01Z</time>
      </trkpt>
      <trkpt lat="28.6089530" lon="-17.8676420">
        <ele>896.1</ele>
        <time>2020-11-17T09:20:02Z</time>
      </trkpt>
      <trkpt lat="28.6089370" lon="-17.8676400">
        <ele>896.3</ele>
        <time>2020-11-17T09:20:03Z</time>
      </trkpt>
      <trkpt lat="28.6089170" lon="-17.8676400">
        <ele>896.5</ele>
        <time>2020-11-17T09:20:04Z</time>
      </trkpt>
      <trkpt lat="28.6089170" lon="-17.8676400">
        <ele>896.5</ele>
        <time>2020-11-17T09:20:05Z</time>
      </trkpt>
      <trkpt lat="28.6088670" lon="-17.8676330">
        <ele>897.1</ele>
        <time>2020-11-17T09:20:06Z</time>
      </trkpt>
      <trkpt lat="28.6088480" lon="-17.8676320">
        <ele>897.4</ele>
        <time>2020-11-17T09:20:07Z</time>
      </trkpt>
      <trkpt lat="28.6088480" lon="-17.8676320">
        <ele>897.4</ele>
        <time>2020-11-17T09:20:08Z</time>
      </trkpt>
      <trkpt lat="28.6088480" lon="-17.8676320">
        <ele>897.4</ele>
        <time>2020-11-17T09:20:09Z</time>
      </trkpt>
      <trkpt lat="28.6087970" lon="-17.8676250">
        <ele>898.0</ele>
        <time>2020-11-17T09:20:10Z</time>
      </trkpt>
      <trkpt lat="28.6087970" lon="-17.8676250">
        <ele>898.0</ele>
        <time>2020-11-17T09:20:11Z</time>
      </trkpt>
      <trkpt lat="28.6087580" lon="-17.8676270">
        <ele>898.5</ele>
        <time>2020-11-17T09:20:12Z</time>
      </trkpt>
      <trkpt lat="28.6087400" lon="-17.8676250">
        <ele>898.7</ele>
        <time>2020-11-17T09:20:13Z</time>
      </trkpt>
      <trkpt lat="28.6087400" lon="-17.8676250">
        <ele>898.7</ele>
        <time>2020-11-17T09:20:14Z</time>
      </trkpt>
      <trkpt lat="28.6087130" lon="-17.8676220">
        <ele>899.0</ele>
        <time>2020-11-17T09:20:15Z</time>
      </trkpt>
      <trkpt lat="28.6087130" lon="-17.8676220">
        <ele>899.0</ele>
        <time>2020-11-17T09:20:16Z</time>
      </trkpt>
      <trkpt lat="28.6086780" lon="-17.8676180">
        <ele>899.4</ele>
        <time>2020-11-17T09:20:17Z</time>
      </trkpt>
      <trkpt lat="28.6086780" lon="-17.8676180">
        <ele>899.4</ele>
        <time>2020-11-17T09:20:18Z</time>
      </trkpt>
      <trkpt lat="28.6086430" lon="-17.8676020">
        <ele>899.8</ele>
        <time>2020-11-17T09:20:19Z</time>
      </trkpt>
      <trkpt lat="28.6086430" lon="-17.8676020">
        <ele>899.8</ele>
        <time>2020-11-17T09:20:20Z</time>
      </trkpt>
      <trkpt lat="28.6086120" lon="-17.8675800">
        <ele>900.1</ele>
        <time>2020-11-17T09:20:21Z</time>
      </trkpt>
      <trkpt lat="28.6086120" lon="-17.8675800">
        <ele>900.1</ele>
        <time>2020-11-17T09:20:22Z</time>
      </trkpt>
      <trkpt lat="28.6085850" lon="-17.8675530">
        <ele>900.5</ele>
        <time>2020-11-17T09:20:23Z</time>
      </trkpt>
      <trkpt lat="28.6085700" lon="-17.8675400">
        <ele>900.7</ele>
        <time>2020-11-17T09:20:24Z</time>
      </trkpt>
      <trkpt lat="28.6085700" lon="-17.8675400">
        <ele>900.7</ele>
        <time>2020-11-17T09:20:25Z</time>
      </trkpt>
      <trkpt lat="28.6085420" lon="-17.8675180">
        <ele>901.0</ele>
        <time>2020-11-17T09:20:26Z</time>
      </trkpt>
      <trkpt lat="28.6085420" lon="-17.8675180">
        <ele>901.0</ele>
        <time>2020-11-17T09:20:27Z</time>
      </trkpt>
      <trkpt lat="28.6085120" lon="-17.8674930">
        <ele>901.4</ele>
        <time>2020-11-17T09:20:28Z</time>
      </trkpt>
      <trkpt lat="28.6084980" lon="-17.8674780">
        <ele>901.6</ele>
        <time>2020-11-17T09:20:29Z</time>
      </trkpt>
      <trkpt lat="28.6084830" lon="-17.8674630">
        <ele>901.8</ele>
        <time>2020-11-17T09:20:30Z</time>
      </trkpt>
      <trkpt lat="28.6084830" lon="-17.8674630">
        <ele>901.8</ele>
        <time>2020-11-17T09:20:31Z</time>
      </trkpt>
      <trkpt lat="28.6084500" lon="-17.8674420">
        <ele>902.0</ele>
        <time>2020-11-17T09:20:32Z</time>
      </trkpt>
      <trkpt lat="28.6084320" lon="-17.8674320">
        <ele>902.1</ele>
        <time>2020-11-17T09:20:33Z</time>
      </trkpt>
      <trkpt lat="28.6084320" lon="-17.8674320">
        <ele>902.1</ele>
        <time>2020-11-17T09:20:34Z</time>
      </trkpt>
      <trkpt lat="28.6083930" lon="-17.8674200">
        <ele>902.4</ele>
        <time>2020-11-17T09:20:35Z</time>
      </trkpt>
      <trkpt lat="28.6083680" lon="-17.8674180">
        <ele>902.6</ele>
        <time>2020-11-17T09:20:36Z</time>
      </trkpt>
      <trkpt lat="28.6083680" lon="-17.8674180">
        <ele>902.6</ele>
        <time>2020-11-17T09:20:37Z</time>
      </trkpt>
      <trkpt lat="28.6083280" lon="-17.8674130">
        <ele>902.9</ele>
        <time>2020-11-17T09:20:38Z</time>
      </trkpt>
      <trkpt lat="28.6083120" lon="-17.8674120">
        <ele>903.0</ele>
        <time>2020-11-17T09:20:39Z</time>
      </trkpt>
      <trkpt lat="28.6083120" lon="-17.8674120">
        <ele>903.0</ele>
        <time>2020-11-17T09:20:40Z</time>
      </trkpt>
      <trkpt lat="28.6082600" lon="-17.8674070">
        <ele>903.3</ele>
        <time>2020-11-17T09:20:41Z</time>
      </trkpt>
      <trkpt lat="28.6082330" lon="-17.8674080">
        <ele>903.5</ele>
        <time>2020-11-17T09:20:42Z</time>
      </trkpt>
      <trkpt lat="28.6082330" lon="-17.8674080">
        <ele>903.5</ele>
        <time>2020-11-17T09:20:43Z</time>
      </trkpt>
      <trkpt lat="28.6081820" lon="-17.8674100">
        <ele>903.8</ele>
        <time>2020-11-17T09:20:44Z</time>
      </trkpt>
      <trkpt lat="28.6081820" lon="-17.8674100">
        <ele>903.8</ele>
        <time>2020-11-17T09:20:45Z</time>
      </trkpt>
      <trkpt lat="28.6081330" lon="-17.8674050">
        <ele>904.0</ele>
        <time>2020-11-17T09:20:46Z</time>
      </trkpt>
      <trkpt lat="28.6081100" lon="-17.8674020">
        <ele>904.2</ele>
        <time>2020-11-17T09:20:47Z</time>
      </trkpt>
      <trkpt lat="28.6081100" lon="-17.8674020">
        <ele>904.2</ele>
        <time>2020-11-17T09:20:48Z</time>
      </trkpt>
      <trkpt lat="28.6080680" lon="-17.8673920">
        <ele>904.4</ele>
        <time>2020-11-17T09:20:49Z</time>
      </trkpt>
      <trkpt lat="28.6080680" lon="-17.8673920">
        <ele>904.4</ele>
        <time>2020-11-17T09:20:50Z</time>
      </trkpt>
      <trkpt lat="28.6080220" lon="-17.8673800">
        <ele>904.7</ele>
        <time>2020-11-17T09:20:51Z</time>
      </trkpt>
      <trkpt lat="28.6080020" lon="-17.8673720">
        <ele>904.8</ele>
        <time>2020-11-17T09:20:52Z</time>
      </trkpt>
      <trkpt lat="28.6080020" lon="-17.8673720">
        <ele>904.8</ele>
        <time>2020-11-17T09:20:53Z</time>
      </trkpt>
      <trkpt lat="28.6079530" lon="-17.8673470">
        <ele>905.1</ele>
        <time>2020-11-17T09:20:54Z</time>
      </trkpt>
      <trkpt lat="28.6079530" lon="-17.8673470">
        <ele>905.1</ele>
        <time>2020-11-17T09:20:55Z</time>
      </trkpt>
      <trkpt lat="28.6079100" lon="-17.8673180">
        <ele>905.5</ele>
        <time>2020-11-17T09:20:56Z</time>
      </trkpt>
      <trkpt lat="28.6079100" lon="-17.8673180">
        <ele>905.5</ele>
        <time>2020-11-17T09:20:57Z</time>
      </trkpt>
      <trkpt lat="28.6078630" lon="-17.8672800">
        <ele>905.7</ele>
        <time>2020-11-17T09:20:58Z</time>
      </trkpt>
      <trkpt lat="28.6078430" lon="-17.8672600">
        <ele>905.9</ele>
        <time>2020-11-17T09:20:59Z</time>
      </trkpt>
      <trkpt lat="28.6078430" lon="-17.8672600">
        <ele>905.9</ele>
        <time>2020-11-17T09:21:00Z</time>
      </trkpt>
      <trkpt lat="28.6078070" lon="-17.8672230">
        <ele>906.1</ele>
        <time>2020-11-17T09:21:01Z</time>
      </trkpt>
      <trkpt lat="28.6078070" lon="-17.8672230">
        <ele>906.1</ele>
        <time>2020-11-17T09:21:02Z</time>
      </trkpt>
      <trkpt lat="28.6077650" lon="-17.8671870">
        <ele>906.3</ele>
        <time>2020-11-17T09:21:03Z</time>
      </trkpt>
      <trkpt lat="28.6077650" lon="-17.8671870">
        <ele>906.3</ele>
        <time>2020-11-17T09:21:04Z</time>
      </trkpt>
      <trkpt lat="28.6077300" lon="-17.8671480">
        <ele>906.5</ele>
        <time>2020-11-17T09:21:05Z</time>
      </trkpt>
      <trkpt lat="28.6077130" lon="-17.8671320">
        <ele>906.5</ele>
        <time>2020-11-17T09:21:06Z</time>
      </trkpt>
      <trkpt lat="28.6077130" lon="-17.8671320">
        <ele>906.5</ele>
        <time>2020-11-17T09:21:07Z</time>
      </trkpt>
      <trkpt lat="28.6076830" lon="-17.8671020">
        <ele>906.7</ele>
        <time>2020-11-17T09:21:08Z</time>
      </trkpt>
      <trkpt lat="28.6076830" lon="-17.8671020">
        <ele>906.7</ele>
        <time>2020-11-17T09:21:09Z</time>
      </trkpt>
      <trkpt lat="28.6076520" lon="-17.8670750">
        <ele>906.9</ele>
        <time>2020-11-17T09:21:10Z</time>
      </trkpt>
      <trkpt lat="28.6076520" lon="-17.8670750">
        <ele>906.9</ele>
        <time>2020-11-17T09:21:11Z</time>
      </trkpt>
      <trkpt lat="28.6076280" lon="-17.8670520">
        <ele>907.1</ele>
        <time>2020-11-17T09:21:12Z</time>
      </trkpt>
      <trkpt lat="28.6076280" lon="-17.8670520">
        <ele>907.1</ele>
        <time>2020-11-17T09:21:13Z</time>
      </trkpt>
      <trkpt lat="28.6076080" lon="-17.8670270">
        <ele>907.4</ele>
        <time>2020-11-17T09:21:14Z</time>
      </trkpt>
      <trkpt lat="28.6076080" lon="-17.8670270">
        <ele>907.4</ele>
        <time>2020-11-17T09:21:15Z</time>
      </trkpt>
      <trkpt lat="28.6075870" lon="-17.8670000">
        <ele>907.7</ele>
        <time>2020-11-17T09:21:16Z</time>
      </trkpt>
      <trkpt lat="28.6075780" lon="-17.8669820">
        <ele>907.9</ele>
        <time>2020-11-17T09:21:17Z</time>
      </trkpt>
      <trkpt lat="28.6075780" lon="-17.8669820">
        <ele>907.9</ele>
        <time>2020-11-17T09:21:18Z</time>
      </trkpt>
      <trkpt lat="28.6075550" lon="-17.8669430">
        <ele>908.3</ele>
        <time>2020-11-17T09:21:19Z</time>
      </trkpt>
      <trkpt lat="28.6075550" lon="-17.8669430">
        <ele>908.3</ele>
        <time>2020-11-17T09:21:20Z</time>
      </trkpt>
      <trkpt lat="28.6075350" lon="-17.8669130">
        <ele>908.7</ele>
        <time>2020-11-17T09:21:21Z</time>
      </trkpt>
      <trkpt lat="28.6075350" lon="-17.8669130">
        <ele>908.7</ele>
        <time>2020-11-17T09:21:22Z</time>
      </trkpt>
      <trkpt lat="28.6075180" lon="-17.8668780">
        <ele>909.1</ele>
        <time>2020-11-17T09:21:23Z</time>
      </trkpt>
      <trkpt lat="28.6075130" lon="-17.8668600">
        <ele>909.2</ele>
        <time>2020-11-17T09:21:24Z</time>
      </trkpt>
      <trkpt lat="28.6075130" lon="-17.8668600">
        <ele>909.2</ele>
        <time>2020-11-17T09:21:25Z</time>
      </trkpt>
      <trkpt lat="28.6075050" lon="-17.8668270">
        <ele>909.5</ele>
        <time>2020-11-17T09:21:26Z</time>
      </trkpt>
      <trkpt lat="28.6075050" lon="-17.8668270">
        <ele>909.5</ele>
        <time>2020-11-17T09:21:27Z</time>
      </trkpt>
      <trkpt lat="28.6074920" lon="-17.8667930">
        <ele>909.8</ele>
        <time>2020-11-17T09:21:28Z</time>
      </trkpt>
      <trkpt lat="28.6074850" lon="-17.8667750">
        <ele>910.0</ele>
        <time>2020-11-17T09:21:29Z</time>
      </trkpt>
      <trkpt lat="28.6074850" lon="-17.8667750">
        <ele>910.0</ele>
        <time>2020-11-17T09:21:30Z</time>
      </trkpt>
      <trkpt lat="28.6074780" lon="-17.8667380">
        <ele>910.4</ele>
        <time>2020-11-17T09:21:31Z</time>
      </trkpt>
      <trkpt lat="28.6074780" lon="-17.8667380">
        <ele>910.4</ele>
        <time>2020-11-17T09:21:32Z</time>
      </trkpt>
      <trkpt lat="28.6074780" lon="-17.8667030">
        <ele>910.7</ele>
        <time>2020-11-17T09:21:33Z</time>
      </trkpt>
      <trkpt lat="28.6074780" lon="-17.8667030">
        <ele>910.7</ele>
        <time>2020-11-17T09:21:34Z</time>
      </trkpt>
      <trkpt lat="28.6074700" lon="-17.8666720">
        <ele>911.0</ele>
        <time>2020-11-17T09:21:35Z</time>
      </trkpt>
      <trkpt lat="28.6074630" lon="-17.8666570">
        <ele>911.2</ele>
        <time>2020-11-17T09:21:36Z</time>
      </trkpt>
      <trkpt lat="28.6074630" lon="-17.8666570">
        <ele>911.2</ele>
        <time>2020-11-17T09:21:37Z</time>
      </trkpt>
      <trkpt lat="28.6074480" lon="-17.8666280">
        <ele>911.5</ele>
        <time>2020-11-17T09:21:38Z</time>
      </trkpt>
      <trkpt lat="28.6074480" lon="-17.8666280">
        <ele>911.5</ele>
        <time>2020-11-17T09:21:39Z</time>
      </trkpt>
      <trkpt lat="28.6074350" lon="-17.8666020">
        <ele>911.8</ele>
        <time>2020-11-17T09:21:40Z</time>
      </trkpt>
      <trkpt lat="28.6074350" lon="-17.8666020">
        <ele>911.8</ele>
        <time>2020-11-17T09:21:41Z</time>
      </trkpt>
      <trkpt lat="28.6074180" lon="-17.8665700">
        <ele>912.2</ele>
        <time>2020-11-17T09:21:42Z</time>
      </trkpt>
      <trkpt lat="28.6074180" lon="-17.8665700">
        <ele>912.2</ele>
        <time>2020-11-17T09:21:43Z</time>
      </trkpt>
      <trkpt lat="28.6073970" lon="-17.8665470">
        <ele>912.5</ele>
        <time>2020-11-17T09:21:44Z</time>
      </trkpt>
      <trkpt lat="28.6073970" lon="-17.8665470">
        <ele>912.5</ele>
        <time>2020-11-17T09:21:45Z</time>
      </trkpt>
      <trkpt lat="28.6073780" lon="-17.8665220">
        <ele>912.8</ele>
        <time>2020-11-17T09:21:46Z</time>
      </trkpt>
      <trkpt lat="28.6073780" lon="-17.8665220">
        <ele>912.8</ele>
        <time>2020-11-17T09:21:47Z</time>
      </trkpt>
      <trkpt lat="28.6073620" lon="-17.8664950">
        <ele>913.2</ele>
        <time>2020-11-17T09:21:48Z</time>
      </trkpt>
      <trkpt lat="28.6073620" lon="-17.8664950">
        <ele>913.2</ele>
        <time>2020-11-17T09:21:49Z</time>
      </trkpt>
      <trkpt lat="28.6073420" lon="-17.8664720">
        <ele>913.5</ele>
        <time>2020-11-17T09:21:50Z</time>
      </trkpt>
      <trkpt lat="28.6073300" lon="-17.8664630">
        <ele>913.7</ele>
        <time>2020-11-17T09:21:51Z</time>
      </trkpt>
      <trkpt lat="28.6073300" lon="-17.8664630">
        <ele>913.7</ele>
        <time>2020-11-17T09:21:52Z</time>
      </trkpt>
      <trkpt lat="28.6073070" lon="-17.8664420">
        <ele>914.1</ele>
        <time>2020-11-17T09:21:53Z</time>
      </trkpt>
      <trkpt lat="28.6072980" lon="-17.8664330">
        <ele>914.2</ele>
        <time>2020-11-17T09:21:54Z</time>
      </trkpt>
      <trkpt lat="28.6072980" lon="-17.8664330">
        <ele>914.2</ele>
        <time>2020-11-17T09:21:55Z</time>
      </trkpt>
      <trkpt lat="28.6072820" lon="-17.8663980">
        <ele>914.7</ele>
        <time>2020-11-17T09:21:56Z</time>
      </trkpt>
      <trkpt lat="28.6072820" lon="-17.8663980">
        <ele>914.7</ele>
        <time>2020-11-17T09:21:57Z</time>
      </trkpt>
      <trkpt lat="28.6072650" lon="-17.8663630">
        <ele>915.2</ele>
        <time>2020-11-17T09:21:58Z</time>
      </trkpt>
      <trkpt lat="28.6072650" lon="-17.8663630">
        <ele>915.2</ele>
        <time>2020-11-17T09:21:59Z</time>
      </trkpt>
      <trkpt lat="28.6072550" lon="-17.8663280">
        <ele>915.7</ele>
        <time>2020-11-17T09:22:00Z</time>
      </trkpt>
      <trkpt lat="28.6072550" lon="-17.8663280">
        <ele>915.7</ele>
        <time>2020-11-17T09:22:01Z</time>
      </trkpt>
      <trkpt lat="28.6072470" lon="-17.8663000">
        <ele>916.0</ele>
        <time>2020-11-17T09:22:02Z</time>
      </trkpt>
      <trkpt lat="28.6072400" lon="-17.8662880">
        <ele>916.2</ele>
        <time>2020-11-17T09:22:03Z</time>
      </trkpt>
      <trkpt lat="28.6072400" lon="-17.8662880">
        <ele>916.2</ele>
        <time>2020-11-17T09:22:04Z</time>
      </trkpt>
      <trkpt lat="28.6072200" lon="-17.8662600">
        <ele>916.7</ele>
        <time>2020-11-17T09:22:05Z</time>
      </trkpt>
      <trkpt lat="28.6072120" lon="-17.8662480">
        <ele>916.9</ele>
        <time>2020-11-17T09:22:06Z</time>
      </trkpt>
      <trkpt lat="28.6072120" lon="-17.8662480">
        <ele>916.9</ele>
        <time>2020-11-17T09:22:07Z</time>
      </trkpt>
      <trkpt lat="28.6072030" lon="-17.8662230">
        <ele>917.3</ele>
        <time>2020-11-17T09:22:08Z</time>
      </trkpt>
      <trkpt lat="28.6072000" lon="-17.8662100">
        <ele>917.5</ele>
        <time>2020-11-17T09:22:09Z</time>
      </trkpt>
      <trkpt lat="28.6071950" lon="-17.8661930">
        <ele>917.7</ele>
        <time>2020-11-17T09:22:10Z</time>
      </trkpt>
      <trkpt lat="28.6071950" lon="-17.8661930">
        <ele>917.7</ele>
        <time>2020-11-17T09:22:11Z</time>
      </trkpt>
      <trkpt lat="28.6071770" lon="-17.8661670">
        <ele>918.2</ele>
        <time>2020-11-17T09:22:12Z</time>
      </trkpt>
      <trkpt lat="28.6071770" lon="-17.8661670">
        <ele>918.2</ele>
        <time>2020-11-17T09:22:13Z</time>
      </trkpt>
      <trkpt lat="28.6071680" lon="-17.8661420">
        <ele>918.6</ele>
        <time>2020-11-17T09:22:14Z</time>
      </trkpt>
      <trkpt lat="28.6071630" lon="-17.8661250">
        <ele>918.8</ele>
        <time>2020-11-17T09:22:15Z</time>
      </trkpt>
      <trkpt lat="28.6071630" lon="-17.8661250">
        <ele>918.8</ele>
        <time>2020-11-17T09:22:16Z</time>
      </trkpt>
      <trkpt lat="28.6071450" lon="-17.8660870">
        <ele>919.4</ele>
        <time>2020-11-17T09:22:17Z</time>
      </trkpt>
      <trkpt lat="28.6071330" lon="-17.8660680">
        <ele>919.7</ele>
        <time>2020-11-17T09:22:18Z</time>
      </trkpt>
      <trkpt lat="28.6071330" lon="-17.8660680">
        <ele>919.7</ele>
        <time>2020-11-17T09:22:19Z</time>
      </trkpt>
      <trkpt lat="28.6071220" lon="-17.8660430">
        <ele>920.1</ele>
        <time>2020-11-17T09:22:20Z</time>
      </trkpt>
      <trkpt lat="28.6071220" lon="-17.8660430">
        <ele>920.1</ele>
        <time>2020-11-17T09:22:21Z</time>
      </trkpt>
      <trkpt lat="28.6071050" lon="-17.8660130">
        <ele>920.6</ele>
        <time>2020-11-17T09:22:22Z</time>
      </trkpt>
      <trkpt lat="28.6070980" lon="-17.8659980">
        <ele>920.8</ele>
        <time>2020-11-17T09:22:23Z</time>
      </trkpt>
      <trkpt lat="28.6070980" lon="-17.8659980">
        <ele>920.8</ele>
        <time>2020-11-17T09:22:24Z</time>
      </trkpt>
      <trkpt lat="28.6070820" lon="-17.8659650">
        <ele>921.2</ele>
        <time>2020-11-17T09:22:25Z</time>
      </trkpt>
      <trkpt lat="28.6070820" lon="-17.8659650">
        <ele>921.2</ele>
        <time>2020-11-17T09:22:26Z</time>
      </trkpt>
      <trkpt lat="28.6070700" lon="-17.8659380">
        <ele>921.5</ele>
        <time>2020-11-17T09:22:27Z</time>
      </trkpt>
      <trkpt lat="28.6070700" lon="-17.8659380">
        <ele>921.5</ele>
        <time>2020-11-17T09:22:28Z</time>
      </trkpt>
      <trkpt lat="28.6070530" lon="-17.8659130">
        <ele>921.8</ele>
        <time>2020-11-17T09:22:29Z</time>
      </trkpt>
      <trkpt lat="28.6070480" lon="-17.8658970">
        <ele>922.0</ele>
        <time>2020-11-17T09:22:30Z</time>
      </trkpt>
      <trkpt lat="28.6070480" lon="-17.8658970">
        <ele>922.0</ele>
        <time>2020-11-17T09:22:31Z</time>
      </trkpt>
      <trkpt lat="28.6070350" lon="-17.8658630">
        <ele>922.3</ele>
        <time>2020-11-17T09:22:32Z</time>
      </trkpt>
      <trkpt lat="28.6070270" lon="-17.8658450">
        <ele>922.5</ele>
        <time>2020-11-17T09:22:33Z</time>
      </trkpt>
      <trkpt lat="28.6070270" lon="-17.8658450">
        <ele>922.5</ele>
        <time>2020-11-17T09:22:34Z</time>
      </trkpt>
      <trkpt lat="28.6070070" lon="-17.8658170">
        <ele>922.8</ele>
        <time>2020-11-17T09:22:35Z</time>
      </trkpt>
      <trkpt lat="28.6070070" lon="-17.8658170">
        <ele>922.8</ele>
        <time>2020-11-17T09:22:36Z</time>
      </trkpt>
      <trkpt lat="28.6069830" lon="-17.8657970">
        <ele>923.0</ele>
        <time>2020-11-17T09:22:37Z</time>
      </trkpt>
      <trkpt lat="28.6069830" lon="-17.8657970">
        <ele>923.0</ele>
        <time>2020-11-17T09:22:38Z</time>
      </trkpt>
      <trkpt lat="28.6069620" lon="-17.8657730">
        <ele>923.3</ele>
        <time>2020-11-17T09:22:39Z</time>
      </trkpt>
      <trkpt lat="28.6069620" lon="-17.8657730">
        <ele>923.3</ele>
        <time>2020-11-17T09:22:40Z</time>
      </trkpt>
      <trkpt lat="28.6069400" lon="-17.8657500">
        <ele>923.5</ele>
        <time>2020-11-17T09:22:41Z</time>
      </trkpt>
      <trkpt lat="28.6069300" lon="-17.8657380">
        <ele>923.6</ele>
        <time>2020-11-17T09:22:42Z</time>
      </trkpt>
      <trkpt lat="28.6069300" lon="-17.8657380">
        <ele>923.6</ele>
        <time>2020-11-17T09:22:43Z</time>
      </trkpt>
      <trkpt lat="28.6069030" lon="-17.8657320">
        <ele>923.9</ele>
        <time>2020-11-17T09:22:44Z</time>
      </trkpt>
      <trkpt lat="28.6069030" lon="-17.8657320">
        <ele>923.9</ele>
        <time>2020-11-17T09:22:45Z</time>
      </trkpt>
      <trkpt lat="28.6068700" lon="-17.8657180">
        <ele>924.1</ele>
        <time>2020-11-17T09:22:46Z</time>
      </trkpt>
      <trkpt lat="28.6068700" lon="-17.8657180">
        <ele>924.1</ele>
        <time>2020-11-17T09:22:47Z</time>
      </trkpt>
      <trkpt lat="28.6068380" lon="-17.8657070">
        <ele>924.3</ele>
        <time>2020-11-17T09:22:48Z</time>
      </trkpt>
      <trkpt lat="28.6068270" lon="-17.8657000">
        <ele>924.4</ele>
        <time>2020-11-17T09:22:49Z</time>
      </trkpt>
      <trkpt lat="28.6068270" lon="-17.8657000">
        <ele>924.4</ele>
        <time>2020-11-17T09:22:50Z</time>
      </trkpt>
      <trkpt lat="28.6067900" lon="-17.8656830">
        <ele>924.7</ele>
        <time>2020-11-17T09:22:51Z</time>
      </trkpt>
      <trkpt lat="28.6067900" lon="-17.8656830">
        <ele>924.7</ele>
        <time>2020-11-17T09:22:52Z</time>
      </trkpt>
      <trkpt lat="28.6067520" lon="-17.8656780">
        <ele>925.0</ele>
        <time>2020-11-17T09:22:53Z</time>
      </trkpt>
      <trkpt lat="28.6067520" lon="-17.8656780">
        <ele>925.0</ele>
        <time>2020-11-17T09:22:54Z</time>
      </trkpt>
      <trkpt lat="28.6067200" lon="-17.8656720">
        <ele>925.3</ele>
        <time>2020-11-17T09:22:55Z</time>
      </trkpt>
      <trkpt lat="28.6067200" lon="-17.8656720">
        <ele>925.3</ele>
        <time>2020-11-17T09:22:56Z</time>
      </trkpt>
      <trkpt lat="28.6066920" lon="-17.8656530">
        <ele>925.5</ele>
        <time>2020-11-17T09:22:57Z</time>
      </trkpt>
      <trkpt lat="28.6066820" lon="-17.8656420">
        <ele>925.7</ele>
        <time>2020-11-17T09:22:58Z</time>
      </trkpt>
      <trkpt lat="28.6066730" lon="-17.8656270">
        <ele>925.8</ele>
        <time>2020-11-17T09:22:59Z</time>
      </trkpt>
      <trkpt lat="28.6066750" lon="-17.8656080">
        <ele>925.9</ele>
        <time>2020-11-17T09:23:00Z</time>
      </trkpt>
      <trkpt lat="28.6066750" lon="-17.8656080">
        <ele>925.9</ele>
        <time>2020-11-17T09:23:01Z</time>
      </trkpt>
      <trkpt lat="28.6066770" lon="-17.8655670">
        <ele>926.2</ele>
        <time>2020-11-17T09:23:02Z</time>
      </trkpt>
      <trkpt lat="28.6066770" lon="-17.8655670">
        <ele>926.2</ele>
        <time>2020-11-17T09:23:03Z</time>
      </trkpt>
      <trkpt lat="28.6066930" lon="-17.8655380">
        <ele>926.5</ele>
        <time>2020-11-17T09:23:04Z</time>
      </trkpt>
      <trkpt lat="28.6067070" lon="-17.8655320">
        <ele>926.6</ele>
        <time>2020-11-17T09:23:05Z</time>
      </trkpt>
      <trkpt lat="28.6067220" lon="-17.8655270">
        <ele>926.8</ele>
        <time>2020-11-17T09:23:06Z</time>
      </trkpt>
      <trkpt lat="28.6067220" lon="-17.8655270">
        <ele>926.8</ele>
        <time>2020-11-17T09:23:07Z</time>
      </trkpt>
      <trkpt lat="28.6067570" lon="-17.8655200">
        <ele>927.1</ele>
        <time>2020-11-17T09:23:08Z</time>
      </trkpt>
      <trkpt lat="28.6067730" lon="-17.8655220">
        <ele>927.2</ele>
        <time>2020-11-17T09:23:09Z</time>
      </trkpt>
      <trkpt lat="28.6067730" lon="-17.8655220">
        <ele>927.2</ele>
        <time>2020-11-17T09:23:10Z</time>
      </trkpt>
      <trkpt lat="28.6068050" lon="-17.8655330">
        <ele>927.5</ele>
        <time>2020-11-17T09:23:11Z</time>
      </trkpt>
      <trkpt lat="28.6068050" lon="-17.8655330">
        <ele>927.5</ele>
        <time>2020-11-17T09:23:12Z</time>
      </trkpt>
      <trkpt lat="28.6068330" lon="-17.8655380">
        <ele>927.7</ele>
        <time>2020-11-17T09:23:13Z</time>
      </trkpt>
      <trkpt lat="28.6068330" lon="-17.8655380">
        <ele>927.7</ele>
        <time>2020-11-17T09:23:14Z</time>
      </trkpt>
      <trkpt lat="28.6068650" lon="-17.8655470">
        <ele>928.0</ele>
        <time>2020-11-17T09:23:15Z</time>
      </trkpt>
      <trkpt lat="28.6068820" lon="-17.8655520">
        <ele>928.2</ele>
        <time>2020-11-17T09:23:16Z</time>
      </trkpt>
      <trkpt lat="28.6068820" lon="-17.8655520">
        <ele>928.2</ele>
        <time>2020-11-17T09:23:17Z</time>
      </trkpt>
      <trkpt lat="28.6069100" lon="-17.8655580">
        <ele>928.5</ele>
        <time>2020-11-17T09:23:18Z</time>
      </trkpt>
      <trkpt lat="28.6069180" lon="-17.8655620">
        <ele>928.6</ele>
        <time>2020-11-17T09:23:19Z</time>
      </trkpt>
      <trkpt lat="28.6069180" lon="-17.8655620">
        <ele>928.6</ele>
        <time>2020-11-17T09:23:20Z</time>
      </trkpt>
      <trkpt lat="28.6069470" lon="-17.8655800">
        <ele>928.9</ele>
        <time>2020-11-17T09:23:21Z</time>
      </trkpt>
      <trkpt lat="28.6069470" lon="-17.8655800">
        <ele>928.9</ele>
        <time>2020-11-17T09:23:22Z</time>
      </trkpt>
      <trkpt lat="28.6069770" lon="-17.8655880">
        <ele>929.2</ele>
        <time>2020-11-17T09:23:23Z</time>
      </trkpt>
      <trkpt lat="28.6069770" lon="-17.8655880">
        <ele>929.2</ele>
        <time>2020-11-17T09:23:24Z</time>
      </trkpt>
      <trkpt lat="28.6070020" lon="-17.8655930">
        <ele>929.5</ele>
        <time>2020-11-17T09:23:25Z</time>
      </trkpt>
      <trkpt lat="28.6070020" lon="-17.8655930">
        <ele>929.5</ele>
        <time>2020-11-17T09:23:26Z</time>
      </trkpt>
      <trkpt lat="28.6070320" lon="-17.8656000">
        <ele>929.8</ele>
        <time>2020-11-17T09:23:27Z</time>
      </trkpt>
      <trkpt lat="28.6070320" lon="-17.8656000">
        <ele>929.8</ele>
        <time>2020-11-17T09:23:28Z</time>
      </trkpt>
      <trkpt lat="28.6070600" lon="-17.8656100">
        <ele>930.2</ele>
        <time>2020-11-17T09:23:29Z</time>
      </trkpt>
      <trkpt lat="28.6070750" lon="-17.8656150">
        <ele>930.3</ele>
        <time>2020-11-17T09:23:30Z</time>
      </trkpt>
      <trkpt lat="28.6070750" lon="-17.8656150">
        <ele>930.3</ele>
        <time>2020-11-17T09:23:31Z</time>
      </trkpt>
      <trkpt lat="28.6071130" lon="-17.8656280">
        <ele>930.8</ele>
        <time>2020-11-17T09:23:32Z</time>
      </trkpt>
      <trkpt lat="28.6071130" lon="-17.8656280">
        <ele>930.8</ele>
        <time>2020-11-17T09:23:33Z</time>
      </trkpt>
      <trkpt lat="28.6071450" lon="-17.8656320">
        <ele>931.1</ele>
        <time>2020-11-17T09:23:34Z</time>
      </trkpt>
      <trkpt lat="28.6071450" lon="-17.8656320">
        <ele>931.1</ele>
        <time>2020-11-17T09:23:35Z</time>
      </trkpt>
      <trkpt lat="28.6071750" lon="-17.8656370">
        <ele>931.4</ele>
        <time>2020-11-17T09:23:36Z</time>
      </trkpt>
      <trkpt lat="28.6071750" lon="-17.8656370">
        <ele>931.4</ele>
        <time>2020-11-17T09:23:37Z</time>
      </trkpt>
      <trkpt lat="28.6072080" lon="-17.8656500">
        <ele>931.7</ele>
        <time>2020-11-17T09:23:38Z</time>
      </trkpt>
      <trkpt lat="28.6072250" lon="-17.8656530">
        <ele>931.9</ele>
        <time>2020-11-17T09:23:39Z</time>
      </trkpt>
      <trkpt lat="28.6072250" lon="-17.8656530">
        <ele>931.9</ele>
        <time>2020-11-17T09:23:40Z</time>
      </trkpt>
      <trkpt lat="28.6072650" lon="-17.8656600">
        <ele>932.2</ele>
        <time>2020-11-17T09:23:41Z</time>
      </trkpt>
      <trkpt lat="28.6072650" lon="-17.8656600">
        <ele>932.2</ele>
        <time>2020-11-17T09:23:42Z</time>
      </trkpt>
      <trkpt lat="28.6073000" lon="-17.8656500">
        <ele>932.5</ele>
        <time>2020-11-17T09:23:43Z</time>
      </trkpt>
      <trkpt lat="28.6073000" lon="-17.8656500">
        <ele>932.5</ele>
        <time>2020-11-17T09:23:44Z</time>
      </trkpt>
      <trkpt lat="28.6073420" lon="-17.8656630">
        <ele>932.8</ele>
        <time>2020-11-17T09:23:45Z</time>
      </trkpt>
      <trkpt lat="28.6073620" lon="-17.8656720">
        <ele>933.0</ele>
        <time>2020-11-17T09:23:46Z</time>
      </trkpt>
      <trkpt lat="28.6073620" lon="-17.8656720">
        <ele>933.0</ele>
        <time>2020-11-17T09:23:47Z</time>
      </trkpt>
      <trkpt lat="28.6074000" lon="-17.8656870">
        <ele>933.3</ele>
        <time>2020-11-17T09:23:48Z</time>
      </trkpt>
      <trkpt lat="28.6074000" lon="-17.8656870">
        <ele>933.3</ele>
        <time>2020-11-17T09:23:49Z</time>
      </trkpt>
      <trkpt lat="28.6074350" lon="-17.8656970">
        <ele>933.5</ele>
        <time>2020-11-17T09:23:50Z</time>
      </trkpt>
      <trkpt lat="28.6074500" lon="-17.8657020">
        <ele>933.7</ele>
        <time>2020-11-17T09:23:51Z</time>
      </trkpt>
      <trkpt lat="28.6074500" lon="-17.8657020">
        <ele>933.7</ele>
        <time>2020-11-17T09:23:52Z</time>
      </trkpt>
      <trkpt lat="28.6074820" lon="-17.8657120">
        <ele>933.9</ele>
        <time>2020-11-17T09:23:53Z</time>
      </trkpt>
      <trkpt lat="28.6074980" lon="-17.8657170">
        <ele>934.1</ele>
        <time>2020-11-17T09:23:54Z</time>
      </trkpt>
      <trkpt lat="28.6074980" lon="-17.8657170">
        <ele>934.1</ele>
        <time>2020-11-17T09:23:55Z</time>
      </trkpt>
      <trkpt lat="28.6075320" lon="-17.8657280">
        <ele>934.4</ele>
        <time>2020-11-17T09:23:56Z</time>
      </trkpt>
      <trkpt lat="28.6075500" lon="-17.8657400">
        <ele>934.6</ele>
        <time>2020-11-17T09:23:57Z</time>
      </trkpt>
      <trkpt lat="28.6075500" lon="-17.8657400">
        <ele>934.6</ele>
        <time>2020-11-17T09:23:58Z</time>
      </trkpt>
      <trkpt lat="28.6075830" lon="-17.8657480">
        <ele>934.9</ele>
        <time>2020-11-17T09:23:59Z</time>
      </trkpt>
      <trkpt lat="28.6075830" lon="-17.8657480">
        <ele>934.9</ele>
        <time>2020-11-17T09:24:00Z</time>
      </trkpt>
      <trkpt lat="28.6076180" lon="-17.8657580">
        <ele>935.2</ele>
        <time>2020-11-17T09:24:01Z</time>
      </trkpt>
      <trkpt lat="28.6076180" lon="-17.8657580">
        <ele>935.2</ele>
        <time>2020-11-17T09:24:02Z</time>
      </trkpt>
      <trkpt lat="28.6076520" lon="-17.8657650">
        <ele>935.6</ele>
        <time>2020-11-17T09:24:03Z</time>
      </trkpt>
      <trkpt lat="28.6076520" lon="-17.8657650">
        <ele>935.6</ele>
        <time>2020-11-17T09:24:04Z</time>
      </trkpt>
      <trkpt lat="28.6076850" lon="-17.8657770">
        <ele>935.9</ele>
        <time>2020-11-17T09:24:05Z</time>
      </trkpt>
      <trkpt lat="28.6077000" lon="-17.8657800">
        <ele>936.1</ele>
        <time>2020-11-17T09:24:06Z</time>
      </trkpt>
      <trkpt lat="28.6077000" lon="-17.8657800">
        <ele>936.1</ele>
        <time>2020-11-17T09:24:07Z</time>
      </trkpt>
      <trkpt lat="28.6077270" lon="-17.8657820">
        <ele>936.4</ele>
        <time>2020-11-17T09:24:08Z</time>
      </trkpt>
      <trkpt lat="28.6077270" lon="-17.8657820">
        <ele>936.4</ele>
        <time>2020-11-17T09:24:09Z</time>
      </trkpt>
      <trkpt lat="28.6077570" lon="-17.8657850">
        <ele>936.7</ele>
        <time>2020-11-17T09:24:10Z</time>
      </trkpt>
      <trkpt lat="28.6077570" lon="-17.8657850">
        <ele>936.7</ele>
        <time>2020-11-17T09:24:11Z</time>
      </trkpt>
      <trkpt lat="28.6077930" lon="-17.8657880">
        <ele>937.1</ele>
        <time>2020-11-17T09:24:12Z</time>
      </trkpt>
      <trkpt lat="28.6078100" lon="-17.8657770">
        <ele>937.3</ele>
        <time>2020-11-17T09:24:13Z</time>
      </trkpt>
      <trkpt lat="28.6078100" lon="-17.8657770">
        <ele>937.3</ele>
        <time>2020-11-17T09:24:14Z</time>
      </trkpt>
      <trkpt lat="28.6078470" lon="-17.8657780">
        <ele>937.7</ele>
        <time>2020-11-17T09:24:15Z</time>
      </trkpt>
      <trkpt lat="28.6078470" lon="-17.8657780">
        <ele>937.7</ele>
        <time>2020-11-17T09:24:16Z</time>
      </trkpt>
      <trkpt lat="28.6078780" lon="-17.8657750">
        <ele>938.1</ele>
        <time>2020-11-17T09:24:17Z</time>
      </trkpt>
      <trkpt lat="28.6078900" lon="-17.8657750">
        <ele>938.2</ele>
        <time>2020-11-17T09:24:18Z</time>
      </trkpt>
      <trkpt lat="28.6078900" lon="-17.8657750">
        <ele>938.2</ele>
        <time>2020-11-17T09:24:19Z</time>
      </trkpt>
      <trkpt lat="28.6079200" lon="-17.8657730">
        <ele>938.6</ele>
        <time>2020-11-17T09:24:20Z</time>
      </trkpt>
      <trkpt lat="28.6079200" lon="-17.8657730">
        <ele>938.6</ele>
        <time>2020-11-17T09:24:21Z</time>
      </trkpt>
      <trkpt lat="28.6079500" lon="-17.8657700">
        <ele>938.9</ele>
        <time>2020-11-17T09:24:22Z</time>
      </trkpt>
      <trkpt lat="28.6079500" lon="-17.8657700">
        <ele>938.9</ele>
        <time>2020-11-17T09:24:23Z</time>
      </trkpt>
      <trkpt lat="28.6079780" lon="-17.8657550">
        <ele>939.2</ele>
        <time>2020-11-17T09:24:24Z</time>
      </trkpt>
      <trkpt lat="28.6079780" lon="-17.8657550">
        <ele>939.2</ele>
        <time>2020-11-17T09:24:25Z</time>
      </trkpt>
      <trkpt lat="28.6080070" lon="-17.8657300">
        <ele>939.9</ele>
        <time>2020-11-17T09:24:26Z</time>
      </trkpt>
      <trkpt lat="28.6080230" lon="-17.8657220">
        <ele>940.2</ele>
        <time>2020-11-17T09:24:27Z</time>
      </trkpt>
      <trkpt lat="28.6080230" lon="-17.8657220">
        <ele>940.2</ele>
        <time>2020-11-17T09:24:28Z</time>
      </trkpt>
      <trkpt lat="28.6080570" lon="-17.8656980">
        <ele>941.0</ele>
        <time>2020-11-17T09:24:29Z</time>
      </trkpt>
      <trkpt lat="28.6080650" lon="-17.8656830">
        <ele>941.3</ele>
        <time>2020-11-17T09:24:30Z</time>
      </trkpt>
      <trkpt lat="28.6080650" lon="-17.8656830">
        <ele>941.3</ele>
        <time>2020-11-17T09:24:31Z</time>
      </trkpt>
      <trkpt lat="28.6080730" lon="-17.8656570">
        <ele>941.6</ele>
        <time>2020-11-17T09:24:32Z</time>
      </trkpt>
      <trkpt lat="28.6080670" lon="-17.8656450">
        <ele>941.8</ele>
        <time>2020-11-17T09:24:33Z</time>
      </trkpt>
      <trkpt lat="28.6080670" lon="-17.8656450">
        <ele>941.8</ele>
        <time>2020-11-17T09:24:34Z</time>
      </trkpt>
      <trkpt lat="28.6080480" lon="-17.8656200">
        <ele>942.3</ele>
        <time>2020-11-17T09:24:35Z</time>
      </trkpt>
      <trkpt lat="28.6080400" lon="-17.8656050">
        <ele>942.6</ele>
        <time>2020-11-17T09:24:36Z</time>
      </trkpt>
      <trkpt lat="28.6080400" lon="-17.8656050">
        <ele>942.6</ele>
        <time>2020-11-17T09:24:37Z</time>
      </trkpt>
      <trkpt lat="28.6080320" lon="-17.8655820">
        <ele>942.9</ele>
        <time>2020-11-17T09:24:38Z</time>
      </trkpt>
      <trkpt lat="28.6080320" lon="-17.8655820">
        <ele>942.9</ele>
        <time>2020-11-17T09:24:39Z</time>
      </trkpt>
      <trkpt lat="28.6080250" lon="-17.8655500">
        <ele>943.4</ele>
        <time>2020-11-17T09:24:40Z</time>
      </trkpt>
      <trkpt lat="28.6080250" lon="-17.8655500">
        <ele>943.4</ele>
        <time>2020-11-17T09:24:41Z</time>
      </trkpt>
      <trkpt lat="28.6080200" lon="-17.8655080">
        <ele>943.9</ele>
        <time>2020-11-17T09:24:42Z</time>
      </trkpt>
      <trkpt lat="28.6080200" lon="-17.8655080">
        <ele>943.9</ele>
        <time>2020-11-17T09:24:43Z</time>
      </trkpt>
      <trkpt lat="28.6080020" lon="-17.8654730">
        <ele>944.5</ele>
        <time>2020-11-17T09:24:44Z</time>
      </trkpt>
      <trkpt lat="28.6079930" lon="-17.8654600">
        <ele>944.7</ele>
        <time>2020-11-17T09:24:45Z</time>
      </trkpt>
      <trkpt lat="28.6079930" lon="-17.8654600">
        <ele>944.7</ele>
        <time>2020-11-17T09:24:46Z</time>
      </trkpt>
      <trkpt lat="28.6079680" lon="-17.8654280">
        <ele>945.2</ele>
        <time>2020-11-17T09:24:47Z</time>
      </trkpt>
      <trkpt lat="28.6079680" lon="-17.8654280">
        <ele>945.2</ele>
        <time>2020-11-17T09:24:48Z</time>
      </trkpt>
      <trkpt lat="28.6079470" lon="-17.8653950">
        <ele>945.6</ele>
        <time>2020-11-17T09:24:49Z</time>
      </trkpt>
      <trkpt lat="28.6079470" lon="-17.8653950">
        <ele>945.6</ele>
        <time>2020-11-17T09:24:50Z</time>
      </trkpt>
      <trkpt lat="28.6079370" lon="-17.8653750">
        <ele>945.8</ele>
        <time>2020-11-17T09:24:51Z</time>
      </trkpt>
      <trkpt lat="28.6079320" lon="-17.8653630">
        <ele>946.0</ele>
        <time>2020-11-17T09:24:52Z</time>
      </trkpt>
      <trkpt lat="28.6079320" lon="-17.8653630">
        <ele>946.0</ele>
        <time>2020-11-17T09:24:53Z</time>
      </trkpt>
      <trkpt lat="28.6079100" lon="-17.8653500">
        <ele>946.3</ele>
        <time>2020-11-17T09:24:54Z</time>
      </trkpt>
      <trkpt lat="28.6079100" lon="-17.8653500">
        <ele>946.3</ele>
        <time>2020-11-17T09:24:55Z</time>
      </trkpt>
      <trkpt lat="28.6078870" lon="-17.8653480">
        <ele>946.5</ele>
        <time>2020-11-17T09:24:56Z</time>
      </trkpt>
      <trkpt lat="28.6078870" lon="-17.8653480">
        <ele>946.5</ele>
        <time>2020-11-17T09:24:57Z</time>
      </trkpt>
      <trkpt lat="28.6078620" lon="-17.8653400">
        <ele>946.8</ele>
        <time>2020-11-17T09:24:58Z</time>
      </trkpt>
      <trkpt lat="28.6078480" lon="-17.8653400">
        <ele>946.9</ele>
        <time>2020-11-17T09:24:59Z</time>
      </trkpt>
      <trkpt lat="28.6078320" lon="-17.8653350">
        <ele>947.1</ele>
        <time>2020-11-17T09:25:00Z</time>
      </trkpt>
      <trkpt lat="28.6078320" lon="-17.8653350">
        <ele>947.1</ele>
        <time>2020-11-17T09:25:01Z</time>
      </trkpt>
      <trkpt lat="28.6078070" lon="-17.8653280">
        <ele>947.3</ele>
        <time>2020-11-17T09:25:02Z</time>
      </trkpt>
      <trkpt lat="28.6077950" lon="-17.8653280">
        <ele>947.4</ele>
        <time>2020-11-17T09:25:03Z</time>
      </trkpt>
      <trkpt lat="28.6077950" lon="-17.8653280">
        <ele>947.4</ele>
        <time>2020-11-17T09:25:04Z</time>
      </trkpt>
      <trkpt lat="28.6077600" lon="-17.8653250">
        <ele>947.7</ele>
        <time>2020-11-17T09:25:05Z</time>
      </trkpt>
      <trkpt lat="28.6077430" lon="-17.8653270">
        <ele>947.9</ele>
        <time>2020-11-17T09:25:06Z</time>
      </trkpt>
      <trkpt lat="28.6077430" lon="-17.8653270">
        <ele>947.9</ele>
        <time>2020-11-17T09:25:07Z</time>
      </trkpt>
      <trkpt lat="28.6077100" lon="-17.8653220">
        <ele>948.2</ele>
        <time>2020-11-17T09:25:08Z</time>
      </trkpt>
      <trkpt lat="28.6077100" lon="-17.8653220">
        <ele>948.2</ele>
        <time>2020-11-17T09:25:09Z</time>
      </trkpt>
      <trkpt lat="28.6076770" lon="-17.8653080">
        <ele>948.5</ele>
        <time>2020-11-17T09:25:10Z</time>
      </trkpt>
      <trkpt lat="28.6076770" lon="-17.8653080">
        <ele>948.5</ele>
        <time>2020-11-17T09:25:11Z</time>
      </trkpt>
      <trkpt lat="28.6076430" lon="-17.8652930">
        <ele>948.8</ele>
        <time>2020-11-17T09:25:12Z</time>
      </trkpt>
      <trkpt lat="28.6076430" lon="-17.8652930">
        <ele>948.8</ele>
        <time>2020-11-17T09:25:13Z</time>
      </trkpt>
      <trkpt lat="28.6076130" lon="-17.8652730">
        <ele>949.2</ele>
        <time>2020-11-17T09:25:14Z</time>
      </trkpt>
      <trkpt lat="28.6076130" lon="-17.8652730">
        <ele>949.2</ele>
        <time>2020-11-17T09:25:15Z</time>
      </trkpt>
      <trkpt lat="28.6075820" lon="-17.8652550">
        <ele>949.5</ele>
        <time>2020-11-17T09:25:16Z</time>
      </trkpt>
      <trkpt lat="28.6075820" lon="-17.8652550">
        <ele>949.5</ele>
        <time>2020-11-17T09:25:17Z</time>
      </trkpt>
      <trkpt lat="28.6075670" lon="-17.8652280">
        <ele>949.7</ele>
        <time>2020-11-17T09:25:18Z</time>
      </trkpt>
      <trkpt lat="28.6075670" lon="-17.8652280">
        <ele>949.7</ele>
        <time>2020-11-17T09:25:19Z</time>
      </trkpt>
      <trkpt lat="28.6075500" lon="-17.8651900">
        <ele>950.1</ele>
        <time>2020-11-17T09:25:20Z</time>
      </trkpt>
      <trkpt lat="28.6075400" lon="-17.8651680">
        <ele>950.3</ele>
        <time>2020-11-17T09:25:21Z</time>
      </trkpt>
      <trkpt lat="28.6075400" lon="-17.8651680">
        <ele>950.3</ele>
        <time>2020-11-17T09:25:22Z</time>
      </trkpt>
      <trkpt lat="28.6075270" lon="-17.8651420">
        <ele>950.6</ele>
        <time>2020-11-17T09:25:23Z</time>
      </trkpt>
      <trkpt lat="28.6075150" lon="-17.8651250">
        <ele>950.8</ele>
        <time>2020-11-17T09:25:24Z</time>
      </trkpt>
      <trkpt lat="28.6075150" lon="-17.8651250">
        <ele>950.8</ele>
        <time>2020-11-17T09:25:25Z</time>
      </trkpt>
      <trkpt lat="28.6074930" lon="-17.8650920">
        <ele>951.2</ele>
        <time>2020-11-17T09:25:26Z</time>
      </trkpt>
      <trkpt lat="28.6074930" lon="-17.8650920">
        <ele>951.2</ele>
        <time>2020-11-17T09:25:27Z</time>
      </trkpt>
      <trkpt lat="28.6074680" lon="-17.8650600">
        <ele>951.6</ele>
        <time>2020-11-17T09:25:28Z</time>
      </trkpt>
      <trkpt lat="28.6074680" lon="-17.8650600">
        <ele>951.6</ele>
        <time>2020-11-17T09:25:29Z</time>
      </trkpt>
      <trkpt lat="28.6074370" lon="-17.8650370">
        <ele>952.0</ele>
        <time>2020-11-17T09:25:30Z</time>
      </trkpt>
      <trkpt lat="28.6074220" lon="-17.8650250">
        <ele>952.2</ele>
        <time>2020-11-17T09:25:31Z</time>
      </trkpt>
      <trkpt lat="28.6074220" lon="-17.8650250">
        <ele>952.2</ele>
        <time>2020-11-17T09:25:32Z</time>
      </trkpt>
      <trkpt lat="28.6073780" lon="-17.8649980">
        <ele>952.8</ele>
        <time>2020-11-17T09:25:33Z</time>
      </trkpt>
      <trkpt lat="28.6073780" lon="-17.8649980">
        <ele>952.8</ele>
        <time>2020-11-17T09:25:34Z</time>
      </trkpt>
      <trkpt lat="28.6073520" lon="-17.8649770">
        <ele>953.1</ele>
        <time>2020-11-17T09:25:35Z</time>
      </trkpt>
      <trkpt lat="28.6073520" lon="-17.8649770">
        <ele>953.1</ele>
        <time>2020-11-17T09:25:36Z</time>
      </trkpt>
      <trkpt lat="28.6073200" lon="-17.8649530">
        <ele>953.5</ele>
        <time>2020-11-17T09:25:37Z</time>
      </trkpt>
      <trkpt lat="28.6073070" lon="-17.8649400">
        <ele>953.6</ele>
        <time>2020-11-17T09:25:38Z</time>
      </trkpt>
      <trkpt lat="28.6073070" lon="-17.8649400">
        <ele>953.6</ele>
        <time>2020-11-17T09:25:39Z</time>
      </trkpt>
      <trkpt lat="28.6072820" lon="-17.8649120">
        <ele>953.9</ele>
        <time>2020-11-17T09:25:40Z</time>
      </trkpt>
      <trkpt lat="28.6072820" lon="-17.8649120">
        <ele>953.9</ele>
        <time>2020-11-17T09:25:41Z</time>
      </trkpt>
      <trkpt lat="28.6072580" lon="-17.8648870">
        <ele>954.2</ele>
        <time>2020-11-17T09:25:42Z</time>
      </trkpt>
      <trkpt lat="28.6072580" lon="-17.8648870">
        <ele>954.2</ele>
        <time>2020-11-17T09:25:43Z</time>
      </trkpt>
      <trkpt lat="28.6072400" lon="-17.8648570">
        <ele>954.5</ele>
        <time>2020-11-17T09:25:44Z</time>
      </trkpt>
      <trkpt lat="28.6072400" lon="-17.8648570">
        <ele>954.5</ele>
        <time>2020-11-17T09:25:45Z</time>
      </trkpt>
      <trkpt lat="28.6072120" lon="-17.8648280">
        <ele>954.9</ele>
        <time>2020-11-17T09:25:46Z</time>
      </trkpt>
      <trkpt lat="28.6072020" lon="-17.8648130">
        <ele>955.0</ele>
        <time>2020-11-17T09:25:47Z</time>
      </trkpt>
      <trkpt lat="28.6071900" lon="-17.8648000">
        <ele>955.2</ele>
        <time>2020-11-17T09:25:48Z</time>
      </trkpt>
      <trkpt lat="28.6071900" lon="-17.8648000">
        <ele>955.2</ele>
        <time>2020-11-17T09:25:49Z</time>
      </trkpt>
      <trkpt lat="28.6071720" lon="-17.8647770">
        <ele>955.5</ele>
        <time>2020-11-17T09:25:50Z</time>
      </trkpt>
      <trkpt lat="28.6071620" lon="-17.8647630">
        <ele>955.6</ele>
        <time>2020-11-17T09:25:51Z</time>
      </trkpt>
      <trkpt lat="28.6071620" lon="-17.8647630">
        <ele>955.6</ele>
        <time>2020-11-17T09:25:52Z</time>
      </trkpt>
      <trkpt lat="28.6071450" lon="-17.8647350">
        <ele>955.9</ele>
        <time>2020-11-17T09:25:53Z</time>
      </trkpt>
      <trkpt lat="28.6071370" lon="-17.8647220">
        <ele>956.1</ele>
        <time>2020-11-17T09:25:54Z</time>
      </trkpt>
      <trkpt lat="28.6071370" lon="-17.8647220">
        <ele>956.1</ele>
        <time>2020-11-17T09:25:55Z</time>
      </trkpt>
      <trkpt lat="28.6071200" lon="-17.8646830">
        <ele>956.6</ele>
        <time>2020-11-17T09:25:56Z</time>
      </trkpt>
      <trkpt lat="28.6071200" lon="-17.8646830">
        <ele>956.6</ele>
        <time>2020-11-17T09:25:57Z</time>
      </trkpt>
      <trkpt lat="28.6071080" lon="-17.8646580">
        <ele>956.9</ele>
        <time>2020-11-17T09:25:58Z</time>
      </trkpt>
      <trkpt lat="28.6070970" lon="-17.8646400">
        <ele>957.2</ele>
        <time>2020-11-17T09:25:59Z</time>
      </trkpt>
      <trkpt lat="28.6070880" lon="-17.8646220">
        <ele>957.5</ele>
        <time>2020-11-17T09:26:00Z</time>
      </trkpt>
      <trkpt lat="28.6070880" lon="-17.8646220">
        <ele>957.5</ele>
        <time>2020-11-17T09:26:01Z</time>
      </trkpt>
      <trkpt lat="28.6070870" lon="-17.8645900">
        <ele>957.9</ele>
        <time>2020-11-17T09:26:02Z</time>
      </trkpt>
      <trkpt lat="28.6070900" lon="-17.8645750">
        <ele>958.1</ele>
        <time>2020-11-17T09:26:03Z</time>
      </trkpt>
      <trkpt lat="28.6070800" lon="-17.8645580">
        <ele>958.5</ele>
        <time>2020-11-17T09:26:04Z</time>
      </trkpt>
      <trkpt lat="28.6070800" lon="-17.8645580">
        <ele>958.5</ele>
        <time>2020-11-17T09:26:05Z</time>
      </trkpt>
      <trkpt lat="28.6070630" lon="-17.8645320">
        <ele>959.0</ele>
        <time>2020-11-17T09:26:06Z</time>
      </trkpt>
      <trkpt lat="28.6070550" lon="-17.8645200">
        <ele>959.2</ele>
        <time>2020-11-17T09:26:07Z</time>
      </trkpt>
      <trkpt lat="28.6070550" lon="-17.8645200">
        <ele>959.2</ele>
        <time>2020-11-17T09:26:08Z</time>
      </trkpt>
      <trkpt lat="28.6070420" lon="-17.8644870">
        <ele>959.8</ele>
        <time>2020-11-17T09:26:09Z</time>
      </trkpt>
      <trkpt lat="28.6070370" lon="-17.8644630">
        <ele>960.3</ele>
        <time>2020-11-17T09:26:10Z</time>
      </trkpt>
      <trkpt lat="28.6070370" lon="-17.8644630">
        <ele>960.3</ele>
        <time>2020-11-17T09:26:11Z</time>
      </trkpt>
      <trkpt lat="28.6070250" lon="-17.8644370">
        <ele>960.8</ele>
        <time>2020-11-17T09:26:12Z</time>
      </trkpt>
      <trkpt lat="28.6070250" lon="-17.8644370">
        <ele>960.8</ele>
        <time>2020-11-17T09:26:13Z</time>
      </trkpt>
      <trkpt lat="28.6070250" lon="-17.8644080">
        <ele>961.3</ele>
        <time>2020-11-17T09:26:14Z</time>
      </trkpt>
      <trkpt lat="28.6070220" lon="-17.8643980">
        <ele>961.5</ele>
        <time>2020-11-17T09:26:15Z</time>
      </trkpt>
      <trkpt lat="28.6070200" lon="-17.8643870">
        <ele>961.7</ele>
        <time>2020-11-17T09:26:16Z</time>
      </trkpt>
      <trkpt lat="28.6070200" lon="-17.8643870">
        <ele>961.7</ele>
        <time>2020-11-17T09:26:17Z</time>
      </trkpt>
      <trkpt lat="28.6070170" lon="-17.8643550">
        <ele>962.2</ele>
        <time>2020-11-17T09:26:18Z</time>
      </trkpt>
      <trkpt lat="28.6070170" lon="-17.8643550">
        <ele>962.2</ele>
        <time>2020-11-17T09:26:19Z</time>
      </trkpt>
      <trkpt lat="28.6070150" lon="-17.8643220">
        <ele>962.8</ele>
        <time>2020-11-17T09:26:20Z</time>
      </trkpt>
      <trkpt lat="28.6070150" lon="-17.8643220">
        <ele>962.8</ele>
        <time>2020-11-17T09:26:21Z</time>
      </trkpt>
      <trkpt lat="28.6070130" lon="-17.8642970">
        <ele>963.2</ele>
        <time>2020-11-17T09:26:22Z</time>
      </trkpt>
      <trkpt lat="28.6070130" lon="-17.8642820">
        <ele>963.5</ele>
        <time>2020-11-17T09:26:23Z</time>
      </trkpt>
      <trkpt lat="28.6070130" lon="-17.8642820">
        <ele>963.5</ele>
        <time>2020-11-17T09:26:24Z</time>
      </trkpt>
      <trkpt lat="28.6070120" lon="-17.8642480">
        <ele>964.0</ele>
        <time>2020-11-17T09:26:25Z</time>
      </trkpt>
      <trkpt lat="28.6070100" lon="-17.8642330">
        <ele>964.2</ele>
        <time>2020-11-17T09:26:26Z</time>
      </trkpt>
      <trkpt lat="28.6070070" lon="-17.8642170">
        <ele>964.5</ele>
        <time>2020-11-17T09:26:27Z</time>
      </trkpt>
      <trkpt lat="28.6070070" lon="-17.8642170">
        <ele>964.5</ele>
        <time>2020-11-17T09:26:28Z</time>
      </trkpt>
      <trkpt lat="28.6070070" lon="-17.8641850">
        <ele>965.0</ele>
        <time>2020-11-17T09:26:29Z</time>
      </trkpt>
      <trkpt lat="28.6070100" lon="-17.8641700">
        <ele>965.2</ele>
        <time>2020-11-17T09:26:30Z</time>
      </trkpt>
      <trkpt lat="28.6070100" lon="-17.8641700">
        <ele>965.2</ele>
        <time>2020-11-17T09:26:31Z</time>
      </trkpt>
      <trkpt lat="28.6070070" lon="-17.8641370">
        <ele>965.8</ele>
        <time>2020-11-17T09:26:32Z</time>
      </trkpt>
      <trkpt lat="28.6070000" lon="-17.8641180">
        <ele>966.1</ele>
        <time>2020-11-17T09:26:33Z</time>
      </trkpt>
      <trkpt lat="28.6069970" lon="-17.8641030">
        <ele>966.3</ele>
        <time>2020-11-17T09:26:34Z</time>
      </trkpt>
      <trkpt lat="28.6069900" lon="-17.8640880">
        <ele>966.6</ele>
        <time>2020-11-17T09:26:35Z</time>
      </trkpt>
      <trkpt lat="28.6069900" lon="-17.8640880">
        <ele>966.6</ele>
        <time>2020-11-17T09:26:36Z</time>
      </trkpt>
      <trkpt lat="28.6069820" lon="-17.8640580">
        <ele>967.0</ele>
        <time>2020-11-17T09:26:37Z</time>
      </trkpt>
      <trkpt lat="28.6069820" lon="-17.8640580">
        <ele>967.0</ele>
        <time>2020-11-17T09:26:38Z</time>
      </trkpt>
      <trkpt lat="28.6069750" lon="-17.8640250">
        <ele>967.5</ele>
        <time>2020-11-17T09:26:39Z</time>
      </trkpt>
      <trkpt lat="28.6069750" lon="-17.8640250">
        <ele>967.5</ele>
        <time>2020-11-17T09:26:40Z</time>
      </trkpt>
      <trkpt lat="28.6069620" lon="-17.8640030">
        <ele>967.9</ele>
        <time>2020-11-17T09:26:41Z</time>
      </trkpt>
      <trkpt lat="28.6069530" lon="-17.8639950">
        <ele>968.1</ele>
        <time>2020-11-17T09:26:42Z</time>
      </trkpt>
      <trkpt lat="28.6069530" lon="-17.8639950">
        <ele>968.1</ele>
        <time>2020-11-17T09:26:43Z</time>
      </trkpt>
      <trkpt lat="28.6069400" lon="-17.8639650">
        <ele>968.6</ele>
        <time>2020-11-17T09:26:44Z</time>
      </trkpt>
      <trkpt lat="28.6069400" lon="-17.8639650">
        <ele>968.6</ele>
        <time>2020-11-17T09:26:45Z</time>
      </trkpt>
      <trkpt lat="28.6069250" lon="-17.8639380">
        <ele>969.1</ele>
        <time>2020-11-17T09:26:46Z</time>
      </trkpt>
      <trkpt lat="28.6069250" lon="-17.8639380">
        <ele>969.1</ele>
        <time>2020-11-17T09:26:47Z</time>
      </trkpt>
      <trkpt lat="28.6069080" lon="-17.8639120">
        <ele>969.6</ele>
        <time>2020-11-17T09:26:48Z</time>
      </trkpt>
      <trkpt lat="28.6069080" lon="-17.8639120">
        <ele>969.6</ele>
        <time>2020-11-17T09:26:49Z</time>
      </trkpt>
      <trkpt lat="28.6068970" lon="-17.8638800">
        <ele>970.1</ele>
        <time>2020-11-17T09:26:50Z</time>
      </trkpt>
      <trkpt lat="28.6068870" lon="-17.8638620">
        <ele>970.4</ele>
        <time>2020-11-17T09:26:51Z</time>
      </trkpt>
      <trkpt lat="28.6068870" lon="-17.8638620">
        <ele>970.4</ele>
        <time>2020-11-17T09:26:52Z</time>
      </trkpt>
      <trkpt lat="28.6068850" lon="-17.8638350">
        <ele>970.8</ele>
        <time>2020-11-17T09:26:53Z</time>
      </trkpt>
      <trkpt lat="28.6068800" lon="-17.8638170">
        <ele>971.1</ele>
        <time>2020-11-17T09:26:54Z</time>
      </trkpt>
      <trkpt lat="28.6068800" lon="-17.8638170">
        <ele>971.1</ele>
        <time>2020-11-17T09:26:55Z</time>
      </trkpt>
      <trkpt lat="28.6068680" lon="-17.8637980">
        <ele>971.5</ele>
        <time>2020-11-17T09:26:56Z</time>
      </trkpt>
      <trkpt lat="28.6068680" lon="-17.8637980">
        <ele>971.5</ele>
        <time>2020-11-17T09:26:57Z</time>
      </trkpt>
      <trkpt lat="28.6068500" lon="-17.8637750">
        <ele>971.9</ele>
        <time>2020-11-17T09:26:58Z</time>
      </trkpt>
      <trkpt lat="28.6068500" lon="-17.8637750">
        <ele>971.9</ele>
        <time>2020-11-17T09:26:59Z</time>
      </trkpt>
      <trkpt lat="28.6068420" lon="-17.8637550">
        <ele>972.2</ele>
        <time>2020-11-17T09:27:00Z</time>
      </trkpt>
      <trkpt lat="28.6068420" lon="-17.8637550">
        <ele>972.2</ele>
        <time>2020-11-17T09:27:01Z</time>
      </trkpt>
      <trkpt lat="28.6068270" lon="-17.8637250">
        <ele>972.7</ele>
        <time>2020-11-17T09:27:02Z</time>
      </trkpt>
      <trkpt lat="28.6068270" lon="-17.8637250">
        <ele>972.7</ele>
        <time>2020-11-17T09:27:03Z</time>
      </trkpt>
      <trkpt lat="28.6068150" lon="-17.8637000">
        <ele>973.1</ele>
        <time>2020-11-17T09:27:04Z</time>
      </trkpt>
      <trkpt lat="28.6068150" lon="-17.8637000">
        <ele>973.1</ele>
        <time>2020-11-17T09:27:05Z</time>
      </trkpt>
      <trkpt lat="28.6067980" lon="-17.8636750">
        <ele>973.5</ele>
        <time>2020-11-17T09:27:06Z</time>
      </trkpt>
      <trkpt lat="28.6067980" lon="-17.8636750">
        <ele>973.5</ele>
        <time>2020-11-17T09:27:07Z</time>
      </trkpt>
      <trkpt lat="28.6067870" lon="-17.8636520">
        <ele>973.8</ele>
        <time>2020-11-17T09:27:08Z</time>
      </trkpt>
      <trkpt lat="28.6067700" lon="-17.8636350">
        <ele>974.1</ele>
        <time>2020-11-17T09:27:09Z</time>
      </trkpt>
      <trkpt lat="28.6067700" lon="-17.8636350">
        <ele>974.1</ele>
        <time>2020-11-17T09:27:10Z</time>
      </trkpt>
      <trkpt lat="28.6067580" lon="-17.8636070">
        <ele>974.4</ele>
        <time>2020-11-17T09:27:11Z</time>
      </trkpt>
      <trkpt lat="28.6067580" lon="-17.8636070">
        <ele>974.4</ele>
        <time>2020-11-17T09:27:12Z</time>
      </trkpt>
      <trkpt lat="28.6067400" lon="-17.8635750">
        <ele>974.9</ele>
        <time>2020-11-17T09:27:13Z</time>
      </trkpt>
      <trkpt lat="28.6067400" lon="-17.8635750">
        <ele>974.9</ele>
        <time>2020-11-17T09:27:14Z</time>
      </trkpt>
      <trkpt lat="28.6067430" lon="-17.8635470">
        <ele>975.2</ele>
        <time>2020-11-17T09:27:15Z</time>
      </trkpt>
      <trkpt lat="28.6067430" lon="-17.8635470">
        <ele>975.2</ele>
        <time>2020-11-17T09:27:16Z</time>
      </trkpt>
      <trkpt lat="28.6067480" lon="-17.8635070">
        <ele>975.7</ele>
        <time>2020-11-17T09:27:17Z</time>
      </trkpt>
      <trkpt lat="28.6067520" lon="-17.8634800">
        <ele>976.0</ele>
        <time>2020-11-17T09:27:18Z</time>
      </trkpt>
      <trkpt lat="28.6067520" lon="-17.8634800">
        <ele>976.0</ele>
        <time>2020-11-17T09:27:19Z</time>
      </trkpt>
      <trkpt lat="28.6067450" lon="-17.8634230">
        <ele>976.9</ele>
        <time>2020-11-17T09:27:20Z</time>
      </trkpt>
      <trkpt lat="28.6067450" lon="-17.8634230">
        <ele>976.9</ele>
        <time>2020-11-17T09:27:21Z</time>
      </trkpt>
      <trkpt lat="28.6067620" lon="-17.8634120">
        <ele>977.2</ele>
        <time>2020-11-17T09:27:22Z</time>
      </trkpt>
      <trkpt lat="28.6067620" lon="-17.8634120">
        <ele>977.2</ele>
        <time>2020-11-17T09:27:23Z</time>
      </trkpt>
      <trkpt lat="28.6067850" lon="-17.8633870">
        <ele>977.7</ele>
        <time>2020-11-17T09:27:24Z</time>
      </trkpt>
      <trkpt lat="28.6067850" lon="-17.8633870">
        <ele>977.7</ele>
        <time>2020-11-17T09:27:25Z</time>
      </trkpt>
      <trkpt lat="28.6067970" lon="-17.8633850">
        <ele>978.0</ele>
        <time>2020-11-17T09:27:26Z</time>
      </trkpt>
      <trkpt lat="28.6068080" lon="-17.8633880">
        <ele>978.3</ele>
        <time>2020-11-17T09:27:27Z</time>
      </trkpt>
      <trkpt lat="28.6068080" lon="-17.8633880">
        <ele>978.3</ele>
        <time>2020-11-17T09:27:28Z</time>
      </trkpt>
      <trkpt lat="28.6068320" lon="-17.8633830">
        <ele>978.3</ele>
        <time>2020-11-17T09:27:29Z</time>
      </trkpt>
      <trkpt lat="28.6068320" lon="-17.8633830">
        <ele>978.3</ele>
        <time>2020-11-17T09:27:30Z</time>
      </trkpt>
      <trkpt lat="28.6068500" lon="-17.8633700">
        <ele>978.3</ele>
        <time>2020-11-17T09:27:31Z</time>
      </trkpt>
      <trkpt lat="28.6068650" lon="-17.8633730">
        <ele>978.3</ele>
        <time>2020-11-17T09:27:32Z</time>
      </trkpt>
      <trkpt lat="28.6068650" lon="-17.8633730">
        <ele>978.3</ele>
        <time>2020-11-17T09:27:33Z</time>
      </trkpt>
      <trkpt lat="28.6068920" lon="-17.8633850">
        <ele>978.4</ele>
        <time>2020-11-17T09:27:34Z</time>
      </trkpt>
      <trkpt lat="28.6068920" lon="-17.8633850">
        <ele>978.9</ele>
        <time>2020-11-17T09:27:35Z</time>
      </trkpt>
      <trkpt lat="28.6069180" lon="-17.8634000">
        <ele>979.3</ele>
        <time>2020-11-17T09:27:36Z</time>
      </trkpt>
      <trkpt lat="28.6069180" lon="-17.8634000">
        <ele>979.3</ele>
        <time>2020-11-17T09:27:37Z</time>
      </trkpt>
      <trkpt lat="28.6069450" lon="-17.8634270">
        <ele>979.8</ele>
        <time>2020-11-17T09:27:38Z</time>
      </trkpt>
      <trkpt lat="28.6069450" lon="-17.8634270">
        <ele>979.8</ele>
        <time>2020-11-17T09:27:39Z</time>
      </trkpt>
      <trkpt lat="28.6069670" lon="-17.8634570">
        <ele>980.3</ele>
        <time>2020-11-17T09:27:40Z</time>
      </trkpt>
      <trkpt lat="28.6069750" lon="-17.8634720">
        <ele>980.5</ele>
        <time>2020-11-17T09:27:41Z</time>
      </trkpt>
      <trkpt lat="28.6069750" lon="-17.8634720">
        <ele>980.5</ele>
        <time>2020-11-17T09:27:42Z</time>
      </trkpt>
      <trkpt lat="28.6069930" lon="-17.8634980">
        <ele>980.8</ele>
        <time>2020-11-17T09:27:43Z</time>
      </trkpt>
      <trkpt lat="28.6069980" lon="-17.8635100">
        <ele>980.9</ele>
        <time>2020-11-17T09:27:44Z</time>
      </trkpt>
      <trkpt lat="28.6069980" lon="-17.8635100">
        <ele>980.9</ele>
        <time>2020-11-17T09:27:45Z</time>
      </trkpt>
      <trkpt lat="28.6070070" lon="-17.8635380">
        <ele>981.2</ele>
        <time>2020-11-17T09:27:46Z</time>
      </trkpt>
      <trkpt lat="28.6070070" lon="-17.8635380">
        <ele>981.2</ele>
        <time>2020-11-17T09:27:47Z</time>
      </trkpt>
      <trkpt lat="28.6070280" lon="-17.8635670">
        <ele>981.7</ele>
        <time>2020-11-17T09:27:48Z</time>
      </trkpt>
      <trkpt lat="28.6070280" lon="-17.8635670">
        <ele>981.7</ele>
        <time>2020-11-17T09:27:49Z</time>
      </trkpt>
      <trkpt lat="28.6070520" lon="-17.8635870">
        <ele>982.0</ele>
        <time>2020-11-17T09:27:50Z</time>
      </trkpt>
      <trkpt lat="28.6070680" lon="-17.8635950">
        <ele>982.2</ele>
        <time>2020-11-17T09:27:51Z</time>
      </trkpt>
      <trkpt lat="28.6070680" lon="-17.8635950">
        <ele>982.2</ele>
        <time>2020-11-17T09:27:52Z</time>
      </trkpt>
      <trkpt lat="28.6070930" lon="-17.8636230">
        <ele>982.5</ele>
        <time>2020-11-17T09:27:53Z</time>
      </trkpt>
      <trkpt lat="28.6070930" lon="-17.8636230">
        <ele>982.5</ele>
        <time>2020-11-17T09:27:54Z</time>
      </trkpt>
      <trkpt lat="28.6071180" lon="-17.8636480">
        <ele>982.8</ele>
        <time>2020-11-17T09:27:55Z</time>
      </trkpt>
      <trkpt lat="28.6071180" lon="-17.8636480">
        <ele>982.8</ele>
        <time>2020-11-17T09:27:56Z</time>
      </trkpt>
      <trkpt lat="28.6071450" lon="-17.8636800">
        <ele>983.1</ele>
        <time>2020-11-17T09:27:57Z</time>
      </trkpt>
      <trkpt lat="28.6071570" lon="-17.8636950">
        <ele>983.2</ele>
        <time>2020-11-17T09:27:58Z</time>
      </trkpt>
      <trkpt lat="28.6071570" lon="-17.8636950">
        <ele>983.2</ele>
        <time>2020-11-17T09:27:59Z</time>
      </trkpt>
      <trkpt lat="28.6071880" lon="-17.8637230">
        <ele>983.5</ele>
        <time>2020-11-17T09:28:00Z</time>
      </trkpt>
      <trkpt lat="28.6071880" lon="-17.8637230">
        <ele>983.5</ele>
        <time>2020-11-17T09:28:01Z</time>
      </trkpt>
      <trkpt lat="28.6072230" lon="-17.8637480">
        <ele>983.7</ele>
        <time>2020-11-17T09:28:02Z</time>
      </trkpt>
      <trkpt lat="28.6072230" lon="-17.8637480">
        <ele>983.7</ele>
        <time>2020-11-17T09:28:03Z</time>
      </trkpt>
      <trkpt lat="28.6072520" lon="-17.8637670">
        <ele>983.9</ele>
        <time>2020-11-17T09:28:04Z</time>
      </trkpt>
      <trkpt lat="28.6072680" lon="-17.8637770">
        <ele>984.0</ele>
        <time>2020-11-17T09:28:05Z</time>
      </trkpt>
      <trkpt lat="28.6072680" lon="-17.8637770">
        <ele>984.0</ele>
        <time>2020-11-17T09:28:06Z</time>
      </trkpt>
      <trkpt lat="28.6072970" lon="-17.8638030">
        <ele>984.2</ele>
        <time>2020-11-17T09:28:07Z</time>
      </trkpt>
      <trkpt lat="28.6072970" lon="-17.8638030">
        <ele>984.2</ele>
        <time>2020-11-17T09:28:08Z</time>
      </trkpt>
      <trkpt lat="28.6073250" lon="-17.8638220">
        <ele>984.3</ele>
        <time>2020-11-17T09:28:09Z</time>
      </trkpt>
      <trkpt lat="28.6073250" lon="-17.8638220">
        <ele>984.3</ele>
        <time>2020-11-17T09:28:10Z</time>
      </trkpt>
      <trkpt lat="28.6073600" lon="-17.8638380">
        <ele>984.5</ele>
        <time>2020-11-17T09:28:11Z</time>
      </trkpt>
      <trkpt lat="28.6073770" lon="-17.8638470">
        <ele>984.6</ele>
        <time>2020-11-17T09:28:12Z</time>
      </trkpt>
      <trkpt lat="28.6073770" lon="-17.8638470">
        <ele>984.6</ele>
        <time>2020-11-17T09:28:13Z</time>
      </trkpt>
      <trkpt lat="28.6074080" lon="-17.8638600">
        <ele>984.8</ele>
        <time>2020-11-17T09:28:14Z</time>
      </trkpt>
      <trkpt lat="28.6074250" lon="-17.8638680">
        <ele>984.9</ele>
        <time>2020-11-17T09:28:15Z</time>
      </trkpt>
      <trkpt lat="28.6074250" lon="-17.8638680">
        <ele>984.9</ele>
        <time>2020-11-17T09:28:16Z</time>
      </trkpt>
      <trkpt lat="28.6074620" lon="-17.8638850">
        <ele>985.1</ele>
        <time>2020-11-17T09:28:17Z</time>
      </trkpt>
      <trkpt lat="28.6074730" lon="-17.8638850">
        <ele>985.1</ele>
        <time>2020-11-17T09:28:18Z</time>
      </trkpt>
      <trkpt lat="28.6074730" lon="-17.8638850">
        <ele>985.1</ele>
        <time>2020-11-17T09:28:19Z</time>
      </trkpt>
      <trkpt lat="28.6075050" lon="-17.8638720">
        <ele>985.3</ele>
        <time>2020-11-17T09:28:20Z</time>
      </trkpt>
      <trkpt lat="28.6075080" lon="-17.8638520">
        <ele>985.5</ele>
        <time>2020-11-17T09:28:21Z</time>
      </trkpt>
      <trkpt lat="28.6075080" lon="-17.8638520">
        <ele>985.5</ele>
        <time>2020-11-17T09:28:22Z</time>
      </trkpt>
      <trkpt lat="28.6075430" lon="-17.8638330">
        <ele>985.7</ele>
        <time>2020-11-17T09:28:23Z</time>
      </trkpt>
      <trkpt lat="28.6075630" lon="-17.8638320">
        <ele>985.9</ele>
        <time>2020-11-17T09:28:24Z</time>
      </trkpt>
      <trkpt lat="28.6075630" lon="-17.8638320">
        <ele>985.9</ele>
        <time>2020-11-17T09:28:25Z</time>
      </trkpt>
      <trkpt lat="28.6076020" lon="-17.8638230">
        <ele>986.2</ele>
        <time>2020-11-17T09:28:26Z</time>
      </trkpt>
      <trkpt lat="28.6076020" lon="-17.8638230">
        <ele>986.2</ele>
        <time>2020-11-17T09:28:27Z</time>
      </trkpt>
      <trkpt lat="28.6076450" lon="-17.8638230">
        <ele>986.5</ele>
        <time>2020-11-17T09:28:28Z</time>
      </trkpt>
      <trkpt lat="28.6076720" lon="-17.8638330">
        <ele>986.7</ele>
        <time>2020-11-17T09:28:29Z</time>
      </trkpt>
      <trkpt lat="28.6076720" lon="-17.8638330">
        <ele>986.7</ele>
        <time>2020-11-17T09:28:30Z</time>
      </trkpt>
      <trkpt lat="28.6077100" lon="-17.8638520">
        <ele>987.1</ele>
        <time>2020-11-17T09:28:31Z</time>
      </trkpt>
      <trkpt lat="28.6077100" lon="-17.8638520">
        <ele>987.1</ele>
        <time>2020-11-17T09:28:32Z</time>
      </trkpt>
      <trkpt lat="28.6077420" lon="-17.8638730">
        <ele>987.4</ele>
        <time>2020-11-17T09:28:33Z</time>
      </trkpt>
      <trkpt lat="28.6077550" lon="-17.8638850">
        <ele>987.5</ele>
        <time>2020-11-17T09:28:34Z</time>
      </trkpt>
      <trkpt lat="28.6077550" lon="-17.8638850">
        <ele>987.5</ele>
        <time>2020-11-17T09:28:35Z</time>
      </trkpt>
      <trkpt lat="28.6077820" lon="-17.8639120">
        <ele>987.8</ele>
        <time>2020-11-17T09:28:36Z</time>
      </trkpt>
      <trkpt lat="28.6077820" lon="-17.8639120">
        <ele>987.8</ele>
        <time>2020-11-17T09:28:37Z</time>
      </trkpt>
      <trkpt lat="28.6078130" lon="-17.8639280">
        <ele>988.1</ele>
        <time>2020-11-17T09:28:38Z</time>
      </trkpt>
      <trkpt lat="28.6078300" lon="-17.8639350">
        <ele>988.3</ele>
        <time>2020-11-17T09:28:39Z</time>
      </trkpt>
      <trkpt lat="28.6078300" lon="-17.8639350">
        <ele>988.3</ele>
        <time>2020-11-17T09:28:40Z</time>
      </trkpt>
      <trkpt lat="28.6078630" lon="-17.8639500">
        <ele>988.5</ele>
        <time>2020-11-17T09:28:41Z</time>
      </trkpt>
      <trkpt lat="28.6078820" lon="-17.8639580">
        <ele>988.7</ele>
        <time>2020-11-17T09:28:42Z</time>
      </trkpt>
      <trkpt lat="28.6078820" lon="-17.8639580">
        <ele>988.7</ele>
        <time>2020-11-17T09:28:43Z</time>
      </trkpt>
      <trkpt lat="28.6079120" lon="-17.8639670">
        <ele>988.9</ele>
        <time>2020-11-17T09:28:44Z</time>
      </trkpt>
      <trkpt lat="28.6079280" lon="-17.8639680">
        <ele>989.1</ele>
        <time>2020-11-17T09:28:45Z</time>
      </trkpt>
      <trkpt lat="28.6079280" lon="-17.8639680">
        <ele>989.1</ele>
        <time>2020-11-17T09:28:46Z</time>
      </trkpt>
      <trkpt lat="28.6079570" lon="-17.8639680">
        <ele>989.3</ele>
        <time>2020-11-17T09:28:47Z</time>
      </trkpt>
      <trkpt lat="28.6079570" lon="-17.8639680">
        <ele>989.3</ele>
        <time>2020-11-17T09:28:48Z</time>
      </trkpt>
      <trkpt lat="28.6079900" lon="-17.8639570">
        <ele>989.5</ele>
        <time>2020-11-17T09:28:49Z</time>
      </trkpt>
      <trkpt lat="28.6079900" lon="-17.8639570">
        <ele>989.5</ele>
        <time>2020-11-17T09:28:50Z</time>
      </trkpt>
      <trkpt lat="28.6080170" lon="-17.8639450">
        <ele>989.7</ele>
        <time>2020-11-17T09:28:51Z</time>
      </trkpt>
      <trkpt lat="28.6080300" lon="-17.8639270">
        <ele>989.8</ele>
        <time>2020-11-17T09:28:52Z</time>
      </trkpt>
      <trkpt lat="28.6080300" lon="-17.8639270">
        <ele>989.8</ele>
        <time>2020-11-17T09:28:53Z</time>
      </trkpt>
      <trkpt lat="28.6080720" lon="-17.8638970">
        <ele>990.2</ele>
        <time>2020-11-17T09:28:54Z</time>
      </trkpt>
      <trkpt lat="28.6080720" lon="-17.8638970">
        <ele>990.2</ele>
        <time>2020-11-17T09:28:55Z</time>
      </trkpt>
      <trkpt lat="28.6081100" lon="-17.8638920">
        <ele>990.4</ele>
        <time>2020-11-17T09:28:56Z</time>
      </trkpt>
      <trkpt lat="28.6081100" lon="-17.8638920">
        <ele>990.4</ele>
        <time>2020-11-17T09:28:57Z</time>
      </trkpt>
      <trkpt lat="28.6081300" lon="-17.8638700">
        <ele>990.6</ele>
        <time>2020-11-17T09:28:58Z</time>
      </trkpt>
      <trkpt lat="28.6081300" lon="-17.8638700">
        <ele>990.6</ele>
        <time>2020-11-17T09:28:59Z</time>
      </trkpt>
      <trkpt lat="28.6081600" lon="-17.8638600">
        <ele>990.8</ele>
        <time>2020-11-17T09:29:00Z</time>
      </trkpt>
      <trkpt lat="28.6081600" lon="-17.8638600">
        <ele>990.8</ele>
        <time>2020-11-17T09:29:01Z</time>
      </trkpt>
      <trkpt lat="28.6081980" lon="-17.8638570">
        <ele>991.1</ele>
        <time>2020-11-17T09:29:02Z</time>
      </trkpt>
      <trkpt lat="28.6082170" lon="-17.8638520">
        <ele>991.2</ele>
        <time>2020-11-17T09:29:03Z</time>
      </trkpt>
      <trkpt lat="28.6082170" lon="-17.8638520">
        <ele>991.2</ele>
        <time>2020-11-17T09:29:04Z</time>
      </trkpt>
      <trkpt lat="28.6082530" lon="-17.8638420">
        <ele>991.4</ele>
        <time>2020-11-17T09:29:05Z</time>
      </trkpt>
      <trkpt lat="28.6082700" lon="-17.8638420">
        <ele>991.5</ele>
        <time>2020-11-17T09:29:06Z</time>
      </trkpt>
      <trkpt lat="28.6082700" lon="-17.8638420">
        <ele>991.5</ele>
        <time>2020-11-17T09:29:07Z</time>
      </trkpt>
      <trkpt lat="28.6083030" lon="-17.8638450">
        <ele>991.8</ele>
        <time>2020-11-17T09:29:08Z</time>
      </trkpt>
      <trkpt lat="28.6083030" lon="-17.8638450">
        <ele>991.8</ele>
        <time>2020-11-17T09:29:09Z</time>
      </trkpt>
      <trkpt lat="28.6083430" lon="-17.8638400">
        <ele>992.1</ele>
        <time>2020-11-17T09:29:10Z</time>
      </trkpt>
      <trkpt lat="28.6083430" lon="-17.8638400">
        <ele>992.1</ele>
        <time>2020-11-17T09:29:11Z</time>
      </trkpt>
      <trkpt lat="28.6083730" lon="-17.8638300">
        <ele>992.3</ele>
        <time>2020-11-17T09:29:12Z</time>
      </trkpt>
      <trkpt lat="28.6083730" lon="-17.8638300">
        <ele>992.3</ele>
        <time>2020-11-17T09:29:13Z</time>
      </trkpt>
      <trkpt lat="28.6084070" lon="-17.8638230">
        <ele>992.6</ele>
        <time>2020-11-17T09:29:14Z</time>
      </trkpt>
      <trkpt lat="28.6084070" lon="-17.8638230">
        <ele>992.6</ele>
        <time>2020-11-17T09:29:15Z</time>
      </trkpt>
      <trkpt lat="28.6084450" lon="-17.8638170">
        <ele>993.0</ele>
        <time>2020-11-17T09:29:16Z</time>
      </trkpt>
      <trkpt lat="28.6084620" lon="-17.8638050">
        <ele>993.2</ele>
        <time>2020-11-17T09:29:17Z</time>
      </trkpt>
      <trkpt lat="28.6084620" lon="-17.8638050">
        <ele>993.2</ele>
        <time>2020-11-17T09:29:18Z</time>
      </trkpt>
      <trkpt lat="28.6084950" lon="-17.8638050">
        <ele>993.5</ele>
        <time>2020-11-17T09:29:19Z</time>
      </trkpt>
      <trkpt lat="28.6084950" lon="-17.8638050">
        <ele>993.5</ele>
        <time>2020-11-17T09:29:20Z</time>
      </trkpt>
      <trkpt lat="28.6085300" lon="-17.8638180">
        <ele>993.9</ele>
        <time>2020-11-17T09:29:21Z</time>
      </trkpt>
      <trkpt lat="28.6085300" lon="-17.8638180">
        <ele>993.9</ele>
        <time>2020-11-17T09:29:22Z</time>
      </trkpt>
      <trkpt lat="28.6085700" lon="-17.8638070">
        <ele>994.3</ele>
        <time>2020-11-17T09:29:23Z</time>
      </trkpt>
      <trkpt lat="28.6085880" lon="-17.8638030">
        <ele>994.5</ele>
        <time>2020-11-17T09:29:24Z</time>
      </trkpt>
      <trkpt lat="28.6085880" lon="-17.8638030">
        <ele>994.5</ele>
        <time>2020-11-17T09:29:25Z</time>
      </trkpt>
      <trkpt lat="28.6086300" lon="-17.8638080">
        <ele>995.0</ele>
        <time>2020-11-17T09:29:26Z</time>
      </trkpt>
      <trkpt lat="28.6086300" lon="-17.8638080">
        <ele>995.0</ele>
        <time>2020-11-17T09:29:27Z</time>
      </trkpt>
      <trkpt lat="28.6086580" lon="-17.8638130">
        <ele>995.3</ele>
        <time>2020-11-17T09:29:28Z</time>
      </trkpt>
      <trkpt lat="28.6086580" lon="-17.8638130">
        <ele>995.3</ele>
        <time>2020-11-17T09:29:29Z</time>
      </trkpt>
      <trkpt lat="28.6086950" lon="-17.8638130">
        <ele>995.7</ele>
        <time>2020-11-17T09:29:30Z</time>
      </trkpt>
      <trkpt lat="28.6086950" lon="-17.8638130">
        <ele>995.7</ele>
        <time>2020-11-17T09:29:31Z</time>
      </trkpt>
      <trkpt lat="28.6087270" lon="-17.8638070">
        <ele>996.0</ele>
        <time>2020-11-17T09:29:32Z</time>
      </trkpt>
      <trkpt lat="28.6087270" lon="-17.8638070">
        <ele>996.0</ele>
        <time>2020-11-17T09:29:33Z</time>
      </trkpt>
      <trkpt lat="28.6087600" lon="-17.8638050">
        <ele>996.3</ele>
        <time>2020-11-17T09:29:34Z</time>
      </trkpt>
      <trkpt lat="28.6087600" lon="-17.8638050">
        <ele>996.3</ele>
        <time>2020-11-17T09:29:35Z</time>
      </trkpt>
      <trkpt lat="28.6087950" lon="-17.8638020">
        <ele>996.6</ele>
        <time>2020-11-17T09:29:36Z</time>
      </trkpt>
      <trkpt lat="28.6087950" lon="-17.8638020">
        <ele>996.6</ele>
        <time>2020-11-17T09:29:37Z</time>
      </trkpt>
      <trkpt lat="28.6088320" lon="-17.8638020">
        <ele>996.9</ele>
        <time>2020-11-17T09:29:38Z</time>
      </trkpt>
      <trkpt lat="28.6088320" lon="-17.8638020">
        <ele>996.9</ele>
        <time>2020-11-17T09:29:39Z</time>
      </trkpt>
      <trkpt lat="28.6088680" lon="-17.8638170">
        <ele>997.1</ele>
        <time>2020-11-17T09:29:40Z</time>
      </trkpt>
      <trkpt lat="28.6088680" lon="-17.8638170">
        <ele>997.1</ele>
        <time>2020-11-17T09:29:41Z</time>
      </trkpt>
      <trkpt lat="28.6089070" lon="-17.8638320">
        <ele>997.4</ele>
        <time>2020-11-17T09:29:42Z</time>
      </trkpt>
      <trkpt lat="28.6089070" lon="-17.8638320">
        <ele>997.4</ele>
        <time>2020-11-17T09:29:43Z</time>
      </trkpt>
      <trkpt lat="28.6089430" lon="-17.8638400">
        <ele>997.6</ele>
        <time>2020-11-17T09:29:44Z</time>
      </trkpt>
      <trkpt lat="28.6089430" lon="-17.8638400">
        <ele>997.6</ele>
        <time>2020-11-17T09:29:45Z</time>
      </trkpt>
      <trkpt lat="28.6089800" lon="-17.8638530">
        <ele>997.8</ele>
        <time>2020-11-17T09:29:46Z</time>
      </trkpt>
      <trkpt lat="28.6089800" lon="-17.8638530">
        <ele>997.8</ele>
        <time>2020-11-17T09:29:47Z</time>
      </trkpt>
      <trkpt lat="28.6090130" lon="-17.8638470">
        <ele>998.0</ele>
        <time>2020-11-17T09:29:48Z</time>
      </trkpt>
      <trkpt lat="28.6090130" lon="-17.8638470">
        <ele>998.0</ele>
        <time>2020-11-17T09:29:49Z</time>
      </trkpt>
      <trkpt lat="28.6090480" lon="-17.8638370">
        <ele>998.2</ele>
        <time>2020-11-17T09:29:50Z</time>
      </trkpt>
      <trkpt lat="28.6090630" lon="-17.8638330">
        <ele>998.3</ele>
        <time>2020-11-17T09:29:51Z</time>
      </trkpt>
      <trkpt lat="28.6090630" lon="-17.8638330">
        <ele>998.3</ele>
        <time>2020-11-17T09:29:52Z</time>
      </trkpt>
      <trkpt lat="28.6090970" lon="-17.8638130">
        <ele>998.5</ele>
        <time>2020-11-17T09:29:53Z</time>
      </trkpt>
      <trkpt lat="28.6090970" lon="-17.8638130">
        <ele>998.5</ele>
        <time>2020-11-17T09:29:54Z</time>
      </trkpt>
      <trkpt lat="28.6091330" lon="-17.8637700">
        <ele>998.8</ele>
        <time>2020-11-17T09:29:55Z</time>
      </trkpt>
      <trkpt lat="28.6091530" lon="-17.8637630">
        <ele>998.9</ele>
        <time>2020-11-17T09:29:56Z</time>
      </trkpt>
      <trkpt lat="28.6091530" lon="-17.8637630">
        <ele>998.9</ele>
        <time>2020-11-17T09:29:57Z</time>
      </trkpt>
      <trkpt lat="28.6092080" lon="-17.8637530">
        <ele>999.2</ele>
        <time>2020-11-17T09:29:58Z</time>
      </trkpt>
      <trkpt lat="28.6092080" lon="-17.8637530">
        <ele>999.2</ele>
        <time>2020-11-17T09:29:59Z</time>
      </trkpt>
      <trkpt lat="28.6092520" lon="-17.8637650">
        <ele>999.4</ele>
        <time>2020-11-17T09:30:00Z</time>
      </trkpt>
      <trkpt lat="28.6092520" lon="-17.8637650">
        <ele>999.4</ele>
        <time>2020-11-17T09:30:01Z</time>
      </trkpt>
      <trkpt lat="28.6092930" lon="-17.8637820">
        <ele>999.7</ele>
        <time>2020-11-17T09:30:02Z</time>
      </trkpt>
      <trkpt lat="28.6093150" lon="-17.8637950">
        <ele>999.9</ele>
        <time>2020-11-17T09:30:03Z</time>
      </trkpt>
      <trkpt lat="28.6093150" lon="-17.8637950">
        <ele>999.9</ele>
        <time>2020-11-17T09:30:04Z</time>
      </trkpt>
      <trkpt lat="28.6093530" lon="-17.8638130">
        <ele>1000.1</ele>
        <time>2020-11-17T09:30:05Z</time>
      </trkpt>
      <trkpt lat="28.6093530" lon="-17.8638130">
        <ele>1000.1</ele>
        <time>2020-11-17T09:30:06Z</time>
      </trkpt>
      <trkpt lat="28.6093880" lon="-17.8638400">
        <ele>1000.4</ele>
        <time>2020-11-17T09:30:07Z</time>
      </trkpt>
      <trkpt lat="28.6093880" lon="-17.8638400">
        <ele>1000.4</ele>
        <time>2020-11-17T09:30:08Z</time>
      </trkpt>
      <trkpt lat="28.6094220" lon="-17.8638680">
        <ele>1000.7</ele>
        <time>2020-11-17T09:30:09Z</time>
      </trkpt>
      <trkpt lat="28.6094400" lon="-17.8638850">
        <ele>1000.8</ele>
        <time>2020-11-17T09:30:10Z</time>
      </trkpt>
      <trkpt lat="28.6094400" lon="-17.8638850">
        <ele>1000.8</ele>
        <time>2020-11-17T09:30:11Z</time>
      </trkpt>
      <trkpt lat="28.6094730" lon="-17.8639030">
        <ele>1001.1</ele>
        <time>2020-11-17T09:30:12Z</time>
      </trkpt>
      <trkpt lat="28.6094730" lon="-17.8639030">
        <ele>1001.1</ele>
        <time>2020-11-17T09:30:13Z</time>
      </trkpt>
      <trkpt lat="28.6095100" lon="-17.8639270">
        <ele>1001.3</ele>
        <time>2020-11-17T09:30:14Z</time>
      </trkpt>
      <trkpt lat="28.6095100" lon="-17.8639270">
        <ele>1001.3</ele>
        <time>2020-11-17T09:30:15Z</time>
      </trkpt>
      <trkpt lat="28.6095380" lon="-17.8639320">
        <ele>1001.5</ele>
        <time>2020-11-17T09:30:16Z</time>
      </trkpt>
      <trkpt lat="28.6095380" lon="-17.8639320">
        <ele>1001.5</ele>
        <time>2020-11-17T09:30:17Z</time>
      </trkpt>
      <trkpt lat="28.6095430" lon="-17.8639250">
        <ele>1001.6</ele>
        <time>2020-11-17T09:30:18Z</time>
      </trkpt>
      <trkpt lat="28.6095430" lon="-17.8639250">
        <ele>1001.6</ele>
        <time>2020-11-17T09:30:19Z</time>
      </trkpt>
      <trkpt lat="28.6095400" lon="-17.8639200">
        <ele>1001.6</ele>
        <time>2020-11-17T09:30:20Z</time>
      </trkpt>
      <trkpt lat="28.6095400" lon="-17.8639200">
        <ele>1001.6</ele>
        <time>2020-11-17T09:30:21Z</time>
      </trkpt>
      <trkpt lat="28.6095400" lon="-17.8639200">
        <ele>1001.6</ele>
        <time>2020-11-17T09:30:37Z</time>
      </trkpt>
      <trkpt lat="28.6096100" lon="-17.8639230">
        <ele>1002.1</ele>
        <time>2020-11-17T09:30:38Z</time>
      </trkpt>
      <trkpt lat="28.6096230" lon="-17.8639270">
        <ele>1002.2</ele>
        <time>2020-11-17T09:30:39Z</time>
      </trkpt>
      <trkpt lat="28.6096430" lon="-17.8639350">
        <ele>1002.3</ele>
        <time>2020-11-17T09:30:40Z</time>
      </trkpt>
      <trkpt lat="28.6096430" lon="-17.8639350">
        <ele>1002.3</ele>
        <time>2020-11-17T09:30:41Z</time>
      </trkpt>
      <trkpt lat="28.6096800" lon="-17.8639470">
        <ele>1002.6</ele>
        <time>2020-11-17T09:30:42Z</time>
      </trkpt>
      <trkpt lat="28.6096800" lon="-17.8639470">
        <ele>1002.6</ele>
        <time>2020-11-17T09:30:43Z</time>
      </trkpt>
      <trkpt lat="28.6097170" lon="-17.8639700">
        <ele>1002.9</ele>
        <time>2020-11-17T09:30:44Z</time>
      </trkpt>
      <trkpt lat="28.6097170" lon="-17.8639700">
        <ele>1002.9</ele>
        <time>2020-11-17T09:30:45Z</time>
      </trkpt>
      <trkpt lat="28.6097570" lon="-17.8639830">
        <ele>1003.2</ele>
        <time>2020-11-17T09:30:46Z</time>
      </trkpt>
      <trkpt lat="28.6097570" lon="-17.8639830">
        <ele>1003.2</ele>
        <time>2020-11-17T09:30:47Z</time>
      </trkpt>
      <trkpt lat="28.6098030" lon="-17.8639920">
        <ele>1003.5</ele>
        <time>2020-11-17T09:30:48Z</time>
      </trkpt>
      <trkpt lat="28.6098300" lon="-17.8639980">
        <ele>1003.7</ele>
        <time>2020-11-17T09:30:49Z</time>
      </trkpt>
      <trkpt lat="28.6098300" lon="-17.8639980">
        <ele>1003.7</ele>
        <time>2020-11-17T09:30:50Z</time>
      </trkpt>
      <trkpt lat="28.6098720" lon="-17.8640170">
        <ele>1004.1</ele>
        <time>2020-11-17T09:30:51Z</time>
      </trkpt>
      <trkpt lat="28.6098720" lon="-17.8640170">
        <ele>1004.1</ele>
        <time>2020-11-17T09:30:52Z</time>
      </trkpt>
      <trkpt lat="28.6099100" lon="-17.8640400">
        <ele>1004.4</ele>
        <time>2020-11-17T09:30:53Z</time>
      </trkpt>
      <trkpt lat="28.6099100" lon="-17.8640400">
        <ele>1004.4</ele>
        <time>2020-11-17T09:30:54Z</time>
      </trkpt>
      <trkpt lat="28.6099420" lon="-17.8640650">
        <ele>1004.8</ele>
        <time>2020-11-17T09:30:55Z</time>
      </trkpt>
      <trkpt lat="28.6099420" lon="-17.8640650">
        <ele>1004.8</ele>
        <time>2020-11-17T09:30:56Z</time>
      </trkpt>
      <trkpt lat="28.6099600" lon="-17.8640880">
        <ele>1005.0</ele>
        <time>2020-11-17T09:30:57Z</time>
      </trkpt>
      <trkpt lat="28.6099600" lon="-17.8640880">
        <ele>1005.0</ele>
        <time>2020-11-17T09:30:58Z</time>
      </trkpt>
      <trkpt lat="28.6099700" lon="-17.8641120">
        <ele>1005.2</ele>
        <time>2020-11-17T09:30:59Z</time>
      </trkpt>
      <trkpt lat="28.6099800" lon="-17.8641230">
        <ele>1005.3</ele>
        <time>2020-11-17T09:31:00Z</time>
      </trkpt>
      <trkpt lat="28.6099800" lon="-17.8641230">
        <ele>1005.3</ele>
        <time>2020-11-17T09:31:01Z</time>
      </trkpt>
      <trkpt lat="28.6100020" lon="-17.8641520">
        <ele>1005.6</ele>
        <time>2020-11-17T09:31:02Z</time>
      </trkpt>
      <trkpt lat="28.6100120" lon="-17.8641650">
        <ele>1005.7</ele>
        <time>2020-11-17T09:31:03Z</time>
      </trkpt>
      <trkpt lat="28.6100120" lon="-17.8641650">
        <ele>1005.7</ele>
        <time>2020-11-17T09:31:04Z</time>
      </trkpt>
      <trkpt lat="28.6100250" lon="-17.8642050">
        <ele>1006.0</ele>
        <time>2020-11-17T09:31:05Z</time>
      </trkpt>
      <trkpt lat="28.6100320" lon="-17.8642270">
        <ele>1006.2</ele>
        <time>2020-11-17T09:31:06Z</time>
      </trkpt>
      <trkpt lat="28.6100320" lon="-17.8642270">
        <ele>1006.2</ele>
        <time>2020-11-17T09:31:07Z</time>
      </trkpt>
      <trkpt lat="28.6100530" lon="-17.8642580">
        <ele>1006.5</ele>
        <time>2020-11-17T09:31:08Z</time>
      </trkpt>
      <trkpt lat="28.6100620" lon="-17.8642720">
        <ele>1006.6</ele>
        <time>2020-11-17T09:31:09Z</time>
      </trkpt>
      <trkpt lat="28.6100620" lon="-17.8642720">
        <ele>1006.6</ele>
        <time>2020-11-17T09:31:10Z</time>
      </trkpt>
      <trkpt lat="28.6100950" lon="-17.8642900">
        <ele>1007.0</ele>
        <time>2020-11-17T09:31:11Z</time>
      </trkpt>
      <trkpt lat="28.6101050" lon="-17.8642970">
        <ele>1007.1</ele>
        <time>2020-11-17T09:31:12Z</time>
      </trkpt>
      <trkpt lat="28.6101050" lon="-17.8642970">
        <ele>1007.1</ele>
        <time>2020-11-17T09:31:13Z</time>
      </trkpt>
      <trkpt lat="28.6101400" lon="-17.8643170">
        <ele>1007.1</ele>
        <time>2020-11-17T09:31:14Z</time>
      </trkpt>
      <trkpt lat="28.6101570" lon="-17.8643230">
        <ele>1007.2</ele>
        <time>2020-11-17T09:31:15Z</time>
      </trkpt>
      <trkpt lat="28.6101570" lon="-17.8643230">
        <ele>1007.2</ele>
        <time>2020-11-17T09:31:16Z</time>
      </trkpt>
      <trkpt lat="28.6101920" lon="-17.8643220">
        <ele>1007.4</ele>
        <time>2020-11-17T09:31:17Z</time>
      </trkpt>
      <trkpt lat="28.6102100" lon="-17.8643200">
        <ele>1007.5</ele>
        <time>2020-11-17T09:31:18Z</time>
      </trkpt>
      <trkpt lat="28.6102100" lon="-17.8643200">
        <ele>1007.5</ele>
        <time>2020-11-17T09:31:19Z</time>
      </trkpt>
      <trkpt lat="28.6102520" lon="-17.8643200">
        <ele>1007.7</ele>
        <time>2020-11-17T09:31:20Z</time>
      </trkpt>
      <trkpt lat="28.6102520" lon="-17.8643200">
        <ele>1007.7</ele>
        <time>2020-11-17T09:31:21Z</time>
      </trkpt>
      <trkpt lat="28.6102820" lon="-17.8643120">
        <ele>1007.9</ele>
        <time>2020-11-17T09:31:22Z</time>
      </trkpt>
      <trkpt lat="28.6102820" lon="-17.8643120">
        <ele>1007.9</ele>
        <time>2020-11-17T09:31:23Z</time>
      </trkpt>
      <trkpt lat="28.6103130" lon="-17.8643030">
        <ele>1008.1</ele>
        <time>2020-11-17T09:31:24Z</time>
      </trkpt>
      <trkpt lat="28.6103320" lon="-17.8642980">
        <ele>1008.2</ele>
        <time>2020-11-17T09:31:25Z</time>
      </trkpt>
      <trkpt lat="28.6103320" lon="-17.8642980">
        <ele>1008.2</ele>
        <time>2020-11-17T09:31:26Z</time>
      </trkpt>
      <trkpt lat="28.6103700" lon="-17.8642950">
        <ele>1008.4</ele>
        <time>2020-11-17T09:31:27Z</time>
      </trkpt>
      <trkpt lat="28.6103880" lon="-17.8642880">
        <ele>1008.5</ele>
        <time>2020-11-17T09:31:28Z</time>
      </trkpt>
      <trkpt lat="28.6103880" lon="-17.8642880">
        <ele>1008.5</ele>
        <time>2020-11-17T09:31:29Z</time>
      </trkpt>
      <trkpt lat="28.6104220" lon="-17.8642730">
        <ele>1008.7</ele>
        <time>2020-11-17T09:31:30Z</time>
      </trkpt>
      <trkpt lat="28.6104220" lon="-17.8642730">
        <ele>1008.7</ele>
        <time>2020-11-17T09:31:31Z</time>
      </trkpt>
      <trkpt lat="28.6104500" lon="-17.8642620">
        <ele>1008.9</ele>
        <time>2020-11-17T09:31:32Z</time>
      </trkpt>
      <trkpt lat="28.6104500" lon="-17.8642620">
        <ele>1008.9</ele>
        <time>2020-11-17T09:31:33Z</time>
      </trkpt>
      <trkpt lat="28.6104770" lon="-17.8642520">
        <ele>1009.1</ele>
        <time>2020-11-17T09:31:34Z</time>
      </trkpt>
      <trkpt lat="28.6104770" lon="-17.8642520">
        <ele>1009.1</ele>
        <time>2020-11-17T09:31:35Z</time>
      </trkpt>
      <trkpt lat="28.6105050" lon="-17.8642400">
        <ele>1009.3</ele>
        <time>2020-11-17T09:31:36Z</time>
      </trkpt>
      <trkpt lat="28.6105050" lon="-17.8642400">
        <ele>1009.3</ele>
        <time>2020-11-17T09:31:37Z</time>
      </trkpt>
      <trkpt lat="28.6105350" lon="-17.8642350">
        <ele>1009.5</ele>
        <time>2020-11-17T09:31:38Z</time>
      </trkpt>
      <trkpt lat="28.6105350" lon="-17.8642350">
        <ele>1009.5</ele>
        <time>2020-11-17T09:31:39Z</time>
      </trkpt>
      <trkpt lat="28.6105670" lon="-17.8642230">
        <ele>1009.8</ele>
        <time>2020-11-17T09:31:40Z</time>
      </trkpt>
      <trkpt lat="28.6105800" lon="-17.8642220">
        <ele>1009.9</ele>
        <time>2020-11-17T09:31:41Z</time>
      </trkpt>
      <trkpt lat="28.6105950" lon="-17.8642170">
        <ele>1010.0</ele>
        <time>2020-11-17T09:31:42Z</time>
      </trkpt>
      <trkpt lat="28.6105950" lon="-17.8642170">
        <ele>1010.0</ele>
        <time>2020-11-17T09:31:43Z</time>
      </trkpt>
      <trkpt lat="28.6106200" lon="-17.8641950">
        <ele>1010.3</ele>
        <time>2020-11-17T09:31:44Z</time>
      </trkpt>
      <trkpt lat="28.6106330" lon="-17.8641830">
        <ele>1010.4</ele>
        <time>2020-11-17T09:31:45Z</time>
      </trkpt>
      <trkpt lat="28.6106330" lon="-17.8641830">
        <ele>1010.4</ele>
        <time>2020-11-17T09:31:46Z</time>
      </trkpt>
      <trkpt lat="28.6106670" lon="-17.8641650">
        <ele>1010.8</ele>
        <time>2020-11-17T09:31:47Z</time>
      </trkpt>
      <trkpt lat="28.6106800" lon="-17.8641520">
        <ele>1010.9</ele>
        <time>2020-11-17T09:31:48Z</time>
      </trkpt>
      <trkpt lat="28.6106950" lon="-17.8641430">
        <ele>1011.0</ele>
        <time>2020-11-17T09:31:49Z</time>
      </trkpt>
      <trkpt lat="28.6106950" lon="-17.8641430">
        <ele>1011.0</ele>
        <time>2020-11-17T09:31:50Z</time>
      </trkpt>
      <trkpt lat="28.6107280" lon="-17.8641200">
        <ele>1011.3</ele>
        <time>2020-11-17T09:31:51Z</time>
      </trkpt>
      <trkpt lat="28.6107470" lon="-17.8641120">
        <ele>1011.4</ele>
        <time>2020-11-17T09:31:52Z</time>
      </trkpt>
      <trkpt lat="28.6107650" lon="-17.8641100">
        <ele>1011.6</ele>
        <time>2020-11-17T09:31:53Z</time>
      </trkpt>
      <trkpt lat="28.6107650" lon="-17.8641100">
        <ele>1011.6</ele>
        <time>2020-11-17T09:31:54Z</time>
      </trkpt>
      <trkpt lat="28.6107950" lon="-17.8641030">
        <ele>1011.8</ele>
        <time>2020-11-17T09:31:55Z</time>
      </trkpt>
      <trkpt lat="28.6107950" lon="-17.8641030">
        <ele>1011.8</ele>
        <time>2020-11-17T09:31:56Z</time>
      </trkpt>
      <trkpt lat="28.6108120" lon="-17.8641050">
        <ele>1011.9</ele>
        <time>2020-11-17T09:31:57Z</time>
      </trkpt>
      <trkpt lat="28.6108500" lon="-17.8641180">
        <ele>1012.2</ele>
        <time>2020-11-17T09:31:58Z</time>
      </trkpt>
      <trkpt lat="28.6108700" lon="-17.8641220">
        <ele>1012.3</ele>
        <time>2020-11-17T09:31:59Z</time>
      </trkpt>
      <trkpt lat="28.6108700" lon="-17.8641220">
        <ele>1012.3</ele>
        <time>2020-11-17T09:32:00Z</time>
      </trkpt>
      <trkpt lat="28.6109080" lon="-17.8641320">
        <ele>1012.6</ele>
        <time>2020-11-17T09:32:01Z</time>
      </trkpt>
      <trkpt lat="28.6109080" lon="-17.8641320">
        <ele>1012.6</ele>
        <time>2020-11-17T09:32:02Z</time>
      </trkpt>
      <trkpt lat="28.6109370" lon="-17.8641580">
        <ele>1012.9</ele>
        <time>2020-11-17T09:32:03Z</time>
      </trkpt>
      <trkpt lat="28.6109530" lon="-17.8641680">
        <ele>1013.0</ele>
        <time>2020-11-17T09:32:04Z</time>
      </trkpt>
      <trkpt lat="28.6109530" lon="-17.8641680">
        <ele>1013.0</ele>
        <time>2020-11-17T09:32:05Z</time>
      </trkpt>
      <trkpt lat="28.6109830" lon="-17.8641770">
        <ele>1013.3</ele>
        <time>2020-11-17T09:32:06Z</time>
      </trkpt>
      <trkpt lat="28.6109830" lon="-17.8641770">
        <ele>1013.3</ele>
        <time>2020-11-17T09:32:07Z</time>
      </trkpt>
      <trkpt lat="28.6110100" lon="-17.8641630">
        <ele>1013.5</ele>
        <time>2020-11-17T09:32:08Z</time>
      </trkpt>
      <trkpt lat="28.6110230" lon="-17.8641600">
        <ele>1013.7</ele>
        <time>2020-11-17T09:32:09Z</time>
      </trkpt>
      <trkpt lat="28.6110230" lon="-17.8641600">
        <ele>1013.7</ele>
        <time>2020-11-17T09:32:10Z</time>
      </trkpt>
      <trkpt lat="28.6110520" lon="-17.8641400">
        <ele>1013.9</ele>
        <time>2020-11-17T09:32:11Z</time>
      </trkpt>
      <trkpt lat="28.6110700" lon="-17.8641370">
        <ele>1014.1</ele>
        <time>2020-11-17T09:32:12Z</time>
      </trkpt>
      <trkpt lat="28.6110700" lon="-17.8641370">
        <ele>1014.1</ele>
        <time>2020-11-17T09:32:13Z</time>
      </trkpt>
      <trkpt lat="28.6110930" lon="-17.8641220">
        <ele>1014.3</ele>
        <time>2020-11-17T09:32:14Z</time>
      </trkpt>
      <trkpt lat="28.6110930" lon="-17.8641220">
        <ele>1014.3</ele>
        <time>2020-11-17T09:32:15Z</time>
      </trkpt>
      <trkpt lat="28.6111180" lon="-17.8641020">
        <ele>1014.6</ele>
        <time>2020-11-17T09:32:16Z</time>
      </trkpt>
      <trkpt lat="28.6111350" lon="-17.8640980">
        <ele>1014.7</ele>
        <time>2020-11-17T09:32:17Z</time>
      </trkpt>
      <trkpt lat="28.6111350" lon="-17.8640980">
        <ele>1014.7</ele>
        <time>2020-11-17T09:32:18Z</time>
      </trkpt>
      <trkpt lat="28.6111680" lon="-17.8640920">
        <ele>1015.0</ele>
        <time>2020-11-17T09:32:19Z</time>
      </trkpt>
      <trkpt lat="28.6111680" lon="-17.8640920">
        <ele>1015.0</ele>
        <time>2020-11-17T09:32:20Z</time>
      </trkpt>
      <trkpt lat="28.6112020" lon="-17.8640850">
        <ele>1015.3</ele>
        <time>2020-11-17T09:32:21Z</time>
      </trkpt>
      <trkpt lat="28.6112020" lon="-17.8640850">
        <ele>1015.3</ele>
        <time>2020-11-17T09:32:22Z</time>
      </trkpt>
      <trkpt lat="28.6112320" lon="-17.8640670">
        <ele>1015.6</ele>
        <time>2020-11-17T09:32:23Z</time>
      </trkpt>
      <trkpt lat="28.6112320" lon="-17.8640670">
        <ele>1015.6</ele>
        <time>2020-11-17T09:32:24Z</time>
      </trkpt>
      <trkpt lat="28.6112530" lon="-17.8640470">
        <ele>1015.8</ele>
        <time>2020-11-17T09:32:25Z</time>
      </trkpt>
      <trkpt lat="28.6112530" lon="-17.8640470">
        <ele>1015.8</ele>
        <time>2020-11-17T09:32:26Z</time>
      </trkpt>
      <trkpt lat="28.6112820" lon="-17.8640370">
        <ele>1016.1</ele>
        <time>2020-11-17T09:32:27Z</time>
      </trkpt>
      <trkpt lat="28.6112980" lon="-17.8640320">
        <ele>1016.3</ele>
        <time>2020-11-17T09:32:28Z</time>
      </trkpt>
      <trkpt lat="28.6112980" lon="-17.8640320">
        <ele>1016.3</ele>
        <time>2020-11-17T09:32:29Z</time>
      </trkpt>
      <trkpt lat="28.6113320" lon="-17.8640180">
        <ele>1016.6</ele>
        <time>2020-11-17T09:32:30Z</time>
      </trkpt>
      <trkpt lat="28.6113320" lon="-17.8640180">
        <ele>1016.6</ele>
        <time>2020-11-17T09:32:31Z</time>
      </trkpt>
      <trkpt lat="28.6113680" lon="-17.8640100">
        <ele>1016.9</ele>
        <time>2020-11-17T09:32:32Z</time>
      </trkpt>
      <trkpt lat="28.6113850" lon="-17.8640100">
        <ele>1017.0</ele>
        <time>2020-11-17T09:32:33Z</time>
      </trkpt>
      <trkpt lat="28.6113850" lon="-17.8640100">
        <ele>1017.0</ele>
        <time>2020-11-17T09:32:34Z</time>
      </trkpt>
      <trkpt lat="28.6114230" lon="-17.8640130">
        <ele>1017.3</ele>
        <time>2020-11-17T09:32:35Z</time>
      </trkpt>
      <trkpt lat="28.6114400" lon="-17.8640230">
        <ele>1017.4</ele>
        <time>2020-11-17T09:32:36Z</time>
      </trkpt>
      <trkpt lat="28.6114400" lon="-17.8640230">
        <ele>1017.4</ele>
        <time>2020-11-17T09:32:37Z</time>
      </trkpt>
      <trkpt lat="28.6114780" lon="-17.8640530">
        <ele>1017.8</ele>
        <time>2020-11-17T09:32:38Z</time>
      </trkpt>
      <trkpt lat="28.6114780" lon="-17.8640530">
        <ele>1017.8</ele>
        <time>2020-11-17T09:32:39Z</time>
      </trkpt>
      <trkpt lat="28.6115050" lon="-17.8640730">
        <ele>1018.0</ele>
        <time>2020-11-17T09:32:40Z</time>
      </trkpt>
      <trkpt lat="28.6115050" lon="-17.8640730">
        <ele>1018.0</ele>
        <time>2020-11-17T09:32:41Z</time>
      </trkpt>
      <trkpt lat="28.6115150" lon="-17.8640700">
        <ele>1018.1</ele>
        <time>2020-11-17T09:32:42Z</time>
      </trkpt>
      <trkpt lat="28.6115280" lon="-17.8640730">
        <ele>1018.1</ele>
        <time>2020-11-17T09:32:43Z</time>
      </trkpt>
      <trkpt lat="28.6115280" lon="-17.8640730">
        <ele>1018.1</ele>
        <time>2020-11-17T09:32:44Z</time>
      </trkpt>
      <trkpt lat="28.6115580" lon="-17.8640720">
        <ele>1018.3</ele>
        <time>2020-11-17T09:32:45Z</time>
      </trkpt>
      <trkpt lat="28.6115580" lon="-17.8640720">
        <ele>1018.3</ele>
        <time>2020-11-17T09:32:46Z</time>
      </trkpt>
      <trkpt lat="28.6115980" lon="-17.8640780">
        <ele>1018.6</ele>
        <time>2020-11-17T09:32:47Z</time>
      </trkpt>
      <trkpt lat="28.6115980" lon="-17.8640780">
        <ele>1018.6</ele>
        <time>2020-11-17T09:32:48Z</time>
      </trkpt>
      <trkpt lat="28.6116430" lon="-17.8640830">
        <ele>1018.9</ele>
        <time>2020-11-17T09:32:49Z</time>
      </trkpt>
      <trkpt lat="28.6116430" lon="-17.8640830">
        <ele>1018.9</ele>
        <time>2020-11-17T09:32:50Z</time>
      </trkpt>
      <trkpt lat="28.6116830" lon="-17.8640900">
        <ele>1019.2</ele>
        <time>2020-11-17T09:32:51Z</time>
      </trkpt>
      <trkpt lat="28.6117030" lon="-17.8640970">
        <ele>1019.3</ele>
        <time>2020-11-17T09:32:52Z</time>
      </trkpt>
      <trkpt lat="28.6117030" lon="-17.8640970">
        <ele>1019.3</ele>
        <time>2020-11-17T09:32:53Z</time>
      </trkpt>
      <trkpt lat="28.6117420" lon="-17.8641130">
        <ele>1019.6</ele>
        <time>2020-11-17T09:32:54Z</time>
      </trkpt>
      <trkpt lat="28.6117420" lon="-17.8641130">
        <ele>1019.6</ele>
        <time>2020-11-17T09:32:55Z</time>
      </trkpt>
      <trkpt lat="28.6117750" lon="-17.8641320">
        <ele>1019.8</ele>
        <time>2020-11-17T09:32:56Z</time>
      </trkpt>
      <trkpt lat="28.6117750" lon="-17.8641320">
        <ele>1019.8</ele>
        <time>2020-11-17T09:32:57Z</time>
      </trkpt>
      <trkpt lat="28.6118020" lon="-17.8641550">
        <ele>1020.1</ele>
        <time>2020-11-17T09:32:58Z</time>
      </trkpt>
      <trkpt lat="28.6118150" lon="-17.8641580">
        <ele>1020.2</ele>
        <time>2020-11-17T09:32:59Z</time>
      </trkpt>
      <trkpt lat="28.6118280" lon="-17.8641630">
        <ele>1020.2</ele>
        <time>2020-11-17T09:33:00Z</time>
      </trkpt>
      <trkpt lat="28.6118280" lon="-17.8641630">
        <ele>1020.2</ele>
        <time>2020-11-17T09:33:01Z</time>
      </trkpt>
      <trkpt lat="28.6118580" lon="-17.8641750">
        <ele>1020.5</ele>
        <time>2020-11-17T09:33:02Z</time>
      </trkpt>
      <trkpt lat="28.6118750" lon="-17.8641870">
        <ele>1020.6</ele>
        <time>2020-11-17T09:33:03Z</time>
      </trkpt>
      <trkpt lat="28.6118750" lon="-17.8641870">
        <ele>1020.6</ele>
        <time>2020-11-17T09:33:04Z</time>
      </trkpt>
      <trkpt lat="28.6119150" lon="-17.8642050">
        <ele>1021.0</ele>
        <time>2020-11-17T09:33:05Z</time>
      </trkpt>
      <trkpt lat="28.6119330" lon="-17.8642150">
        <ele>1021.2</ele>
        <time>2020-11-17T09:33:06Z</time>
      </trkpt>
      <trkpt lat="28.6119330" lon="-17.8642150">
        <ele>1021.2</ele>
        <time>2020-11-17T09:33:07Z</time>
      </trkpt>
      <trkpt lat="28.6119600" lon="-17.8642370">
        <ele>1021.5</ele>
        <time>2020-11-17T09:33:08Z</time>
      </trkpt>
      <trkpt lat="28.6119600" lon="-17.8642370">
        <ele>1021.5</ele>
        <time>2020-11-17T09:33:09Z</time>
      </trkpt>
      <trkpt lat="28.6119800" lon="-17.8642450">
        <ele>1021.7</ele>
        <time>2020-11-17T09:33:10Z</time>
      </trkpt>
      <trkpt lat="28.6119800" lon="-17.8642450">
        <ele>1021.7</ele>
        <time>2020-11-17T09:33:11Z</time>
      </trkpt>
      <trkpt lat="28.6120080" lon="-17.8642480">
        <ele>1022.0</ele>
        <time>2020-11-17T09:33:12Z</time>
      </trkpt>
      <trkpt lat="28.6120080" lon="-17.8642480">
        <ele>1022.0</ele>
        <time>2020-11-17T09:33:13Z</time>
      </trkpt>
      <trkpt lat="28.6120330" lon="-17.8642570">
        <ele>1022.3</ele>
        <time>2020-11-17T09:33:14Z</time>
      </trkpt>
      <trkpt lat="28.6120330" lon="-17.8642570">
        <ele>1022.3</ele>
        <time>2020-11-17T09:33:15Z</time>
      </trkpt>
      <trkpt lat="28.6120720" lon="-17.8642670">
        <ele>1022.6</ele>
        <time>2020-11-17T09:33:16Z</time>
      </trkpt>
      <trkpt lat="28.6120920" lon="-17.8642620">
        <ele>1022.8</ele>
        <time>2020-11-17T09:33:17Z</time>
      </trkpt>
      <trkpt lat="28.6120920" lon="-17.8642620">
        <ele>1022.8</ele>
        <time>2020-11-17T09:33:18Z</time>
      </trkpt>
      <trkpt lat="28.6121250" lon="-17.8642530">
        <ele>1023.3</ele>
        <time>2020-11-17T09:33:19Z</time>
      </trkpt>
      <trkpt lat="28.6121250" lon="-17.8642530">
        <ele>1023.3</ele>
        <time>2020-11-17T09:33:20Z</time>
      </trkpt>
      <trkpt lat="28.6121600" lon="-17.8642330">
        <ele>1023.7</ele>
        <time>2020-11-17T09:33:21Z</time>
      </trkpt>
      <trkpt lat="28.6121600" lon="-17.8642330">
        <ele>1023.7</ele>
        <time>2020-11-17T09:33:22Z</time>
      </trkpt>
      <trkpt lat="28.6121880" lon="-17.8642070">
        <ele>1024.2</ele>
        <time>2020-11-17T09:33:23Z</time>
      </trkpt>
      <trkpt lat="28.6122030" lon="-17.8641950">
        <ele>1024.4</ele>
        <time>2020-11-17T09:33:24Z</time>
      </trkpt>
      <trkpt lat="28.6122030" lon="-17.8641950">
        <ele>1024.4</ele>
        <time>2020-11-17T09:33:25Z</time>
      </trkpt>
      <trkpt lat="28.6122300" lon="-17.8641730">
        <ele>1024.8</ele>
        <time>2020-11-17T09:33:26Z</time>
      </trkpt>
      <trkpt lat="28.6122450" lon="-17.8641620">
        <ele>1025.0</ele>
        <time>2020-11-17T09:33:27Z</time>
      </trkpt>
      <trkpt lat="28.6122630" lon="-17.8641570">
        <ele>1025.2</ele>
        <time>2020-11-17T09:33:28Z</time>
      </trkpt>
      <trkpt lat="28.6122630" lon="-17.8641570">
        <ele>1025.2</ele>
        <time>2020-11-17T09:33:29Z</time>
      </trkpt>
      <trkpt lat="28.6122980" lon="-17.8641420">
        <ele>1025.6</ele>
        <time>2020-11-17T09:33:30Z</time>
      </trkpt>
      <trkpt lat="28.6123150" lon="-17.8641350">
        <ele>1025.8</ele>
        <time>2020-11-17T09:33:31Z</time>
      </trkpt>
      <trkpt lat="28.6123150" lon="-17.8641350">
        <ele>1025.8</ele>
        <time>2020-11-17T09:33:32Z</time>
      </trkpt>
      <trkpt lat="28.6123450" lon="-17.8641200">
        <ele>1026.1</ele>
        <time>2020-11-17T09:33:33Z</time>
      </trkpt>
      <trkpt lat="28.6123450" lon="-17.8641200">
        <ele>1026.1</ele>
        <time>2020-11-17T09:33:34Z</time>
      </trkpt>
      <trkpt lat="28.6123670" lon="-17.8641020">
        <ele>1026.4</ele>
        <time>2020-11-17T09:33:35Z</time>
      </trkpt>
      <trkpt lat="28.6123670" lon="-17.8641020">
        <ele>1026.4</ele>
        <time>2020-11-17T09:33:36Z</time>
      </trkpt>
      <trkpt lat="28.6123830" lon="-17.8640830">
        <ele>1026.7</ele>
        <time>2020-11-17T09:33:37Z</time>
      </trkpt>
      <trkpt lat="28.6123930" lon="-17.8640720">
        <ele>1026.8</ele>
        <time>2020-11-17T09:33:38Z</time>
      </trkpt>
      <trkpt lat="28.6124050" lon="-17.8640600">
        <ele>1027.0</ele>
        <time>2020-11-17T09:33:39Z</time>
      </trkpt>
      <trkpt lat="28.6124050" lon="-17.8640600">
        <ele>1027.0</ele>
        <time>2020-11-17T09:33:40Z</time>
      </trkpt>
      <trkpt lat="28.6124200" lon="-17.8640280">
        <ele>1027.3</ele>
        <time>2020-11-17T09:33:41Z</time>
      </trkpt>
      <trkpt lat="28.6124200" lon="-17.8640280">
        <ele>1027.3</ele>
        <time>2020-11-17T09:33:42Z</time>
      </trkpt>
      <trkpt lat="28.6124270" lon="-17.8639880">
        <ele>1027.6</ele>
        <time>2020-11-17T09:33:43Z</time>
      </trkpt>
      <trkpt lat="28.6124230" lon="-17.8639650">
        <ele>1027.8</ele>
        <time>2020-11-17T09:33:44Z</time>
      </trkpt>
      <trkpt lat="28.6124230" lon="-17.8639650">
        <ele>1027.8</ele>
        <time>2020-11-17T09:33:45Z</time>
      </trkpt>
      <trkpt lat="28.6124170" lon="-17.8639250">
        <ele>1028.2</ele>
        <time>2020-11-17T09:33:46Z</time>
      </trkpt>
      <trkpt lat="28.6124170" lon="-17.8639250">
        <ele>1028.2</ele>
        <time>2020-11-17T09:33:47Z</time>
      </trkpt>
      <trkpt lat="28.6124150" lon="-17.8638880">
        <ele>1028.5</ele>
        <time>2020-11-17T09:33:48Z</time>
      </trkpt>
      <trkpt lat="28.6124150" lon="-17.8638880">
        <ele>1028.5</ele>
        <time>2020-11-17T09:33:49Z</time>
      </trkpt>
      <trkpt lat="28.6124180" lon="-17.8638520">
        <ele>1028.9</ele>
        <time>2020-11-17T09:33:50Z</time>
      </trkpt>
      <trkpt lat="28.6124170" lon="-17.8638330">
        <ele>1029.1</ele>
        <time>2020-11-17T09:33:51Z</time>
      </trkpt>
      <trkpt lat="28.6124170" lon="-17.8638330">
        <ele>1029.1</ele>
        <time>2020-11-17T09:33:52Z</time>
      </trkpt>
      <trkpt lat="28.6124030" lon="-17.8637930">
        <ele>1029.5</ele>
        <time>2020-11-17T09:33:53Z</time>
      </trkpt>
      <trkpt lat="28.6123970" lon="-17.8637730">
        <ele>1029.7</ele>
        <time>2020-11-17T09:33:54Z</time>
      </trkpt>
      <trkpt lat="28.6123970" lon="-17.8637730">
        <ele>1029.7</ele>
        <time>2020-11-17T09:33:55Z</time>
      </trkpt>
      <trkpt lat="28.6123870" lon="-17.8637320">
        <ele>1030.1</ele>
        <time>2020-11-17T09:33:56Z</time>
      </trkpt>
      <trkpt lat="28.6123870" lon="-17.8637320">
        <ele>1030.1</ele>
        <time>2020-11-17T09:33:57Z</time>
      </trkpt>
      <trkpt lat="28.6123800" lon="-17.8636930">
        <ele>1030.4</ele>
        <time>2020-11-17T09:33:58Z</time>
      </trkpt>
      <trkpt lat="28.6123780" lon="-17.8636730">
        <ele>1030.6</ele>
        <time>2020-11-17T09:33:59Z</time>
      </trkpt>
      <trkpt lat="28.6123780" lon="-17.8636580">
        <ele>1030.8</ele>
        <time>2020-11-17T09:34:00Z</time>
      </trkpt>
      <trkpt lat="28.6123780" lon="-17.8636580">
        <ele>1030.8</ele>
        <time>2020-11-17T09:34:01Z</time>
      </trkpt>
      <trkpt lat="28.6123770" lon="-17.8636220">
        <ele>1031.2</ele>
        <time>2020-11-17T09:34:02Z</time>
      </trkpt>
      <trkpt lat="28.6123770" lon="-17.8636030">
        <ele>1031.3</ele>
        <time>2020-11-17T09:34:03Z</time>
      </trkpt>
      <trkpt lat="28.6123770" lon="-17.8636030">
        <ele>1031.3</ele>
        <time>2020-11-17T09:34:04Z</time>
      </trkpt>
      <trkpt lat="28.6123730" lon="-17.8635670">
        <ele>1031.7</ele>
        <time>2020-11-17T09:34:05Z</time>
      </trkpt>
      <trkpt lat="28.6123700" lon="-17.8635470">
        <ele>1031.9</ele>
        <time>2020-11-17T09:34:06Z</time>
      </trkpt>
      <trkpt lat="28.6123700" lon="-17.8635470">
        <ele>1031.9</ele>
        <time>2020-11-17T09:34:07Z</time>
      </trkpt>
      <trkpt lat="28.6123670" lon="-17.8635070">
        <ele>1032.3</ele>
        <time>2020-11-17T09:34:08Z</time>
      </trkpt>
      <trkpt lat="28.6123670" lon="-17.8635070">
        <ele>1032.3</ele>
        <time>2020-11-17T09:34:09Z</time>
      </trkpt>
      <trkpt lat="28.6123680" lon="-17.8634650">
        <ele>1032.7</ele>
        <time>2020-11-17T09:34:10Z</time>
      </trkpt>
      <trkpt lat="28.6123720" lon="-17.8634430">
        <ele>1033.0</ele>
        <time>2020-11-17T09:34:11Z</time>
      </trkpt>
      <trkpt lat="28.6123720" lon="-17.8634430">
        <ele>1033.0</ele>
        <time>2020-11-17T09:34:12Z</time>
      </trkpt>
      <trkpt lat="28.6123770" lon="-17.8633980">
        <ele>1033.4</ele>
        <time>2020-11-17T09:34:13Z</time>
      </trkpt>
      <trkpt lat="28.6123770" lon="-17.8633980">
        <ele>1033.4</ele>
        <time>2020-11-17T09:34:14Z</time>
      </trkpt>
      <trkpt lat="28.6123820" lon="-17.8633600">
        <ele>1033.7</ele>
        <time>2020-11-17T09:34:15Z</time>
      </trkpt>
      <trkpt lat="28.6123820" lon="-17.8633600">
        <ele>1033.7</ele>
        <time>2020-11-17T09:34:16Z</time>
      </trkpt>
      <trkpt lat="28.6123800" lon="-17.8633320">
        <ele>1034.0</ele>
        <time>2020-11-17T09:34:17Z</time>
      </trkpt>
      <trkpt lat="28.6123800" lon="-17.8633320">
        <ele>1034.0</ele>
        <time>2020-11-17T09:34:18Z</time>
      </trkpt>
      <trkpt lat="28.6123850" lon="-17.8632950">
        <ele>1034.4</ele>
        <time>2020-11-17T09:34:19Z</time>
      </trkpt>
      <trkpt lat="28.6123850" lon="-17.8632950">
        <ele>1034.4</ele>
        <time>2020-11-17T09:34:20Z</time>
      </trkpt>
      <trkpt lat="28.6123880" lon="-17.8632580">
        <ele>1034.7</ele>
        <time>2020-11-17T09:34:21Z</time>
      </trkpt>
      <trkpt lat="28.6123880" lon="-17.8632580">
        <ele>1034.7</ele>
        <time>2020-11-17T09:34:22Z</time>
      </trkpt>
      <trkpt lat="28.6123920" lon="-17.8632250">
        <ele>1035.0</ele>
        <time>2020-11-17T09:34:23Z</time>
      </trkpt>
      <trkpt lat="28.6123920" lon="-17.8632250">
        <ele>1035.0</ele>
        <time>2020-11-17T09:34:24Z</time>
      </trkpt>
      <trkpt lat="28.6124000" lon="-17.8631930">
        <ele>1035.3</ele>
        <time>2020-11-17T09:34:25Z</time>
      </trkpt>
      <trkpt lat="28.6124000" lon="-17.8631930">
        <ele>1035.3</ele>
        <time>2020-11-17T09:34:26Z</time>
      </trkpt>
      <trkpt lat="28.6124130" lon="-17.8631620">
        <ele>1035.7</ele>
        <time>2020-11-17T09:34:27Z</time>
      </trkpt>
      <trkpt lat="28.6124150" lon="-17.8631480">
        <ele>1035.8</ele>
        <time>2020-11-17T09:34:28Z</time>
      </trkpt>
      <trkpt lat="28.6124150" lon="-17.8631480">
        <ele>1035.8</ele>
        <time>2020-11-17T09:34:29Z</time>
      </trkpt>
      <trkpt lat="28.6124220" lon="-17.8631130">
        <ele>1036.1</ele>
        <time>2020-11-17T09:34:30Z</time>
      </trkpt>
      <trkpt lat="28.6124250" lon="-17.8630970">
        <ele>1036.3</ele>
        <time>2020-11-17T09:34:31Z</time>
      </trkpt>
      <trkpt lat="28.6124250" lon="-17.8630970">
        <ele>1036.3</ele>
        <time>2020-11-17T09:34:32Z</time>
      </trkpt>
      <trkpt lat="28.6124300" lon="-17.8630620">
        <ele>1036.6</ele>
        <time>2020-11-17T09:34:33Z</time>
      </trkpt>
      <trkpt lat="28.6124300" lon="-17.8630620">
        <ele>1036.6</ele>
        <time>2020-11-17T09:34:34Z</time>
      </trkpt>
      <trkpt lat="28.6124330" lon="-17.8630250">
        <ele>1037.0</ele>
        <time>2020-11-17T09:34:35Z</time>
      </trkpt>
      <trkpt lat="28.6124330" lon="-17.8630250">
        <ele>1037.0</ele>
        <time>2020-11-17T09:34:36Z</time>
      </trkpt>
      <trkpt lat="28.6124380" lon="-17.8629920">
        <ele>1037.3</ele>
        <time>2020-11-17T09:34:37Z</time>
      </trkpt>
      <trkpt lat="28.6124380" lon="-17.8629920">
        <ele>1037.3</ele>
        <time>2020-11-17T09:34:38Z</time>
      </trkpt>
      <trkpt lat="28.6124430" lon="-17.8629580">
        <ele>1037.7</ele>
        <time>2020-11-17T09:34:39Z</time>
      </trkpt>
      <trkpt lat="28.6124430" lon="-17.8629580">
        <ele>1037.7</ele>
        <time>2020-11-17T09:34:40Z</time>
      </trkpt>
      <trkpt lat="28.6124500" lon="-17.8629230">
        <ele>1038.0</ele>
        <time>2020-11-17T09:34:41Z</time>
      </trkpt>
      <trkpt lat="28.6124530" lon="-17.8629050">
        <ele>1038.2</ele>
        <time>2020-11-17T09:34:42Z</time>
      </trkpt>
      <trkpt lat="28.6124530" lon="-17.8629050">
        <ele>1038.2</ele>
        <time>2020-11-17T09:34:43Z</time>
      </trkpt>
      <trkpt lat="28.6124570" lon="-17.8628680">
        <ele>1038.5</ele>
        <time>2020-11-17T09:34:44Z</time>
      </trkpt>
      <trkpt lat="28.6124570" lon="-17.8628680">
        <ele>1038.5</ele>
        <time>2020-11-17T09:34:45Z</time>
      </trkpt>
      <trkpt lat="28.6124480" lon="-17.8628280">
        <ele>1038.9</ele>
        <time>2020-11-17T09:34:46Z</time>
      </trkpt>
      <trkpt lat="28.6124480" lon="-17.8628280">
        <ele>1038.9</ele>
        <time>2020-11-17T09:34:47Z</time>
      </trkpt>
      <trkpt lat="28.6124450" lon="-17.8627870">
        <ele>1039.3</ele>
        <time>2020-11-17T09:34:48Z</time>
      </trkpt>
      <trkpt lat="28.6124450" lon="-17.8627870">
        <ele>1039.3</ele>
        <time>2020-11-17T09:34:49Z</time>
      </trkpt>
      <trkpt lat="28.6124450" lon="-17.8627520">
        <ele>1039.6</ele>
        <time>2020-11-17T09:34:50Z</time>
      </trkpt>
      <trkpt lat="28.6124450" lon="-17.8627520">
        <ele>1039.6</ele>
        <time>2020-11-17T09:34:51Z</time>
      </trkpt>
      <trkpt lat="28.6124530" lon="-17.8627170">
        <ele>1040.0</ele>
        <time>2020-11-17T09:34:52Z</time>
      </trkpt>
      <trkpt lat="28.6124550" lon="-17.8627000">
        <ele>1040.2</ele>
        <time>2020-11-17T09:34:53Z</time>
      </trkpt>
      <trkpt lat="28.6124550" lon="-17.8627000">
        <ele>1040.2</ele>
        <time>2020-11-17T09:34:54Z</time>
      </trkpt>
      <trkpt lat="28.6124550" lon="-17.8626680">
        <ele>1040.5</ele>
        <time>2020-11-17T09:34:55Z</time>
      </trkpt>
      <trkpt lat="28.6124550" lon="-17.8626680">
        <ele>1040.5</ele>
        <time>2020-11-17T09:34:56Z</time>
      </trkpt>
      <trkpt lat="28.6124550" lon="-17.8626350">
        <ele>1040.8</ele>
        <time>2020-11-17T09:34:57Z</time>
      </trkpt>
      <trkpt lat="28.6124550" lon="-17.8626350">
        <ele>1040.8</ele>
        <time>2020-11-17T09:34:58Z</time>
      </trkpt>
      <trkpt lat="28.6124630" lon="-17.8626030">
        <ele>1041.2</ele>
        <time>2020-11-17T09:34:59Z</time>
      </trkpt>
      <trkpt lat="28.6124630" lon="-17.8625870">
        <ele>1041.3</ele>
        <time>2020-11-17T09:35:00Z</time>
      </trkpt>
      <trkpt lat="28.6124630" lon="-17.8625870">
        <ele>1041.3</ele>
        <time>2020-11-17T09:35:01Z</time>
      </trkpt>
      <trkpt lat="28.6124680" lon="-17.8625530">
        <ele>1041.7</ele>
        <time>2020-11-17T09:35:02Z</time>
      </trkpt>
      <trkpt lat="28.6124680" lon="-17.8625530">
        <ele>1041.7</ele>
        <time>2020-11-17T09:35:03Z</time>
      </trkpt>
      <trkpt lat="28.6124800" lon="-17.8625130">
        <ele>1042.2</ele>
        <time>2020-11-17T09:35:04Z</time>
      </trkpt>
      <trkpt lat="28.6124800" lon="-17.8625130">
        <ele>1042.2</ele>
        <time>2020-11-17T09:35:05Z</time>
      </trkpt>
      <trkpt lat="28.6124950" lon="-17.8624700">
        <ele>1042.7</ele>
        <time>2020-11-17T09:35:06Z</time>
      </trkpt>
      <trkpt lat="28.6124950" lon="-17.8624700">
        <ele>1042.7</ele>
        <time>2020-11-17T09:35:07Z</time>
      </trkpt>
      <trkpt lat="28.6125130" lon="-17.8624400">
        <ele>1043.0</ele>
        <time>2020-11-17T09:35:08Z</time>
      </trkpt>
      <trkpt lat="28.6125250" lon="-17.8624270">
        <ele>1043.2</ele>
        <time>2020-11-17T09:35:09Z</time>
      </trkpt>
      <trkpt lat="28.6125250" lon="-17.8624270">
        <ele>1043.2</ele>
        <time>2020-11-17T09:35:10Z</time>
      </trkpt>
      <trkpt lat="28.6125450" lon="-17.8624000">
        <ele>1043.6</ele>
        <time>2020-11-17T09:35:11Z</time>
      </trkpt>
      <trkpt lat="28.6125600" lon="-17.8623870">
        <ele>1043.8</ele>
        <time>2020-11-17T09:35:12Z</time>
      </trkpt>
      <trkpt lat="28.6125600" lon="-17.8623870">
        <ele>1043.8</ele>
        <time>2020-11-17T09:35:13Z</time>
      </trkpt>
      <trkpt lat="28.6125800" lon="-17.8623580">
        <ele>1044.2</ele>
        <time>2020-11-17T09:35:14Z</time>
      </trkpt>
      <trkpt lat="28.6125800" lon="-17.8623580">
        <ele>1044.2</ele>
        <time>2020-11-17T09:35:15Z</time>
      </trkpt>
      <trkpt lat="28.6125970" lon="-17.8623370">
        <ele>1044.4</ele>
        <time>2020-11-17T09:35:16Z</time>
      </trkpt>
      <trkpt lat="28.6125970" lon="-17.8623270">
        <ele>1044.5</ele>
        <time>2020-11-17T09:35:17Z</time>
      </trkpt>
      <trkpt lat="28.6125970" lon="-17.8623270">
        <ele>1044.5</ele>
        <time>2020-11-17T09:35:18Z</time>
      </trkpt>
      <trkpt lat="28.6126170" lon="-17.8623050">
        <ele>1044.8</ele>
        <time>2020-11-17T09:35:19Z</time>
      </trkpt>
      <trkpt lat="28.6126170" lon="-17.8623050">
        <ele>1044.8</ele>
        <time>2020-11-17T09:35:20Z</time>
      </trkpt>
      <trkpt lat="28.6126380" lon="-17.8622850">
        <ele>1045.1</ele>
        <time>2020-11-17T09:35:21Z</time>
      </trkpt>
      <trkpt lat="28.6126380" lon="-17.8622850">
        <ele>1045.1</ele>
        <time>2020-11-17T09:35:22Z</time>
      </trkpt>
      <trkpt lat="28.6126670" lon="-17.8622670">
        <ele>1045.4</ele>
        <time>2020-11-17T09:35:23Z</time>
      </trkpt>
      <trkpt lat="28.6126670" lon="-17.8622670">
        <ele>1045.4</ele>
        <time>2020-11-17T09:35:24Z</time>
      </trkpt>
      <trkpt lat="28.6126930" lon="-17.8622480">
        <ele>1045.7</ele>
        <time>2020-11-17T09:35:25Z</time>
      </trkpt>
      <trkpt lat="28.6126930" lon="-17.8622480">
        <ele>1045.7</ele>
        <time>2020-11-17T09:35:26Z</time>
      </trkpt>
      <trkpt lat="28.6127200" lon="-17.8622330">
        <ele>1045.9</ele>
        <time>2020-11-17T09:35:27Z</time>
      </trkpt>
      <trkpt lat="28.6127200" lon="-17.8622330">
        <ele>1045.9</ele>
        <time>2020-11-17T09:35:28Z</time>
      </trkpt>
      <trkpt lat="28.6127520" lon="-17.8622180">
        <ele>1046.2</ele>
        <time>2020-11-17T09:35:29Z</time>
      </trkpt>
      <trkpt lat="28.6127650" lon="-17.8622100">
        <ele>1046.2</ele>
        <time>2020-11-17T09:35:30Z</time>
      </trkpt>
      <trkpt lat="28.6127650" lon="-17.8622100">
        <ele>1046.2</ele>
        <time>2020-11-17T09:35:31Z</time>
      </trkpt>
      <trkpt lat="28.6127950" lon="-17.8621980">
        <ele>1046.5</ele>
        <time>2020-11-17T09:35:32Z</time>
      </trkpt>
      <trkpt lat="28.6127950" lon="-17.8621980">
        <ele>1046.5</ele>
        <time>2020-11-17T09:35:33Z</time>
      </trkpt>
      <trkpt lat="28.6128280" lon="-17.8621880">
        <ele>1046.7</ele>
        <time>2020-11-17T09:35:34Z</time>
      </trkpt>
      <trkpt lat="28.6128280" lon="-17.8621880">
        <ele>1046.7</ele>
        <time>2020-11-17T09:35:35Z</time>
      </trkpt>
      <trkpt lat="28.6128620" lon="-17.8621870">
        <ele>1047.0</ele>
        <time>2020-11-17T09:35:36Z</time>
      </trkpt>
      <trkpt lat="28.6128620" lon="-17.8621870">
        <ele>1047.0</ele>
        <time>2020-11-17T09:35:37Z</time>
      </trkpt>
      <trkpt lat="28.6128920" lon="-17.8621830">
        <ele>1047.2</ele>
        <time>2020-11-17T09:35:38Z</time>
      </trkpt>
      <trkpt lat="28.6129050" lon="-17.8621770">
        <ele>1047.3</ele>
        <time>2020-11-17T09:35:39Z</time>
      </trkpt>
      <trkpt lat="28.6129050" lon="-17.8621770">
        <ele>1047.3</ele>
        <time>2020-11-17T09:35:40Z</time>
      </trkpt>
      <trkpt lat="28.6129350" lon="-17.8621670">
        <ele>1047.5</ele>
        <time>2020-11-17T09:35:41Z</time>
      </trkpt>
      <trkpt lat="28.6129350" lon="-17.8621670">
        <ele>1047.5</ele>
        <time>2020-11-17T09:35:42Z</time>
      </trkpt>
      <trkpt lat="28.6129670" lon="-17.8621570">
        <ele>1047.8</ele>
        <time>2020-11-17T09:35:43Z</time>
      </trkpt>
      <trkpt lat="28.6129670" lon="-17.8621570">
        <ele>1047.8</ele>
        <time>2020-11-17T09:35:44Z</time>
      </trkpt>
      <trkpt lat="28.6129970" lon="-17.8621430">
        <ele>1048.0</ele>
        <time>2020-11-17T09:35:45Z</time>
      </trkpt>
      <trkpt lat="28.6130150" lon="-17.8621400">
        <ele>1048.2</ele>
        <time>2020-11-17T09:35:46Z</time>
      </trkpt>
      <trkpt lat="28.6130150" lon="-17.8621400">
        <ele>1048.2</ele>
        <time>2020-11-17T09:35:47Z</time>
      </trkpt>
      <trkpt lat="28.6130520" lon="-17.8621280">
        <ele>1048.5</ele>
        <time>2020-11-17T09:35:48Z</time>
      </trkpt>
      <trkpt lat="28.6130520" lon="-17.8621280">
        <ele>1048.5</ele>
        <time>2020-11-17T09:35:49Z</time>
      </trkpt>
      <trkpt lat="28.6130900" lon="-17.8621250">
        <ele>1048.8</ele>
        <time>2020-11-17T09:35:50Z</time>
      </trkpt>
      <trkpt lat="28.6130900" lon="-17.8621250">
        <ele>1048.8</ele>
        <time>2020-11-17T09:35:51Z</time>
      </trkpt>
      <trkpt lat="28.6130900" lon="-17.8621250">
        <ele>1048.8</ele>
        <time>2020-11-17T09:35:52Z</time>
      </trkpt>
      <trkpt lat="28.6131270" lon="-17.8621320">
        <ele>1049.2</ele>
        <time>2020-11-17T09:35:53Z</time>
      </trkpt>
      <trkpt lat="28.6131630" lon="-17.8621430">
        <ele>1049.5</ele>
        <time>2020-11-17T09:35:54Z</time>
      </trkpt>
      <trkpt lat="28.6131630" lon="-17.8621430">
        <ele>1049.5</ele>
        <time>2020-11-17T09:35:55Z</time>
      </trkpt>
      <trkpt lat="28.6131980" lon="-17.8621650">
        <ele>1049.8</ele>
        <time>2020-11-17T09:35:56Z</time>
      </trkpt>
      <trkpt lat="28.6131980" lon="-17.8621650">
        <ele>1049.8</ele>
        <time>2020-11-17T09:35:57Z</time>
      </trkpt>
      <trkpt lat="28.6132350" lon="-17.8621750">
        <ele>1050.2</ele>
        <time>2020-11-17T09:35:58Z</time>
      </trkpt>
      <trkpt lat="28.6132350" lon="-17.8621750">
        <ele>1050.2</ele>
        <time>2020-11-17T09:35:59Z</time>
      </trkpt>
      <trkpt lat="28.6132670" lon="-17.8621730">
        <ele>1050.5</ele>
        <time>2020-11-17T09:36:00Z</time>
      </trkpt>
      <trkpt lat="28.6132670" lon="-17.8621730">
        <ele>1050.5</ele>
        <time>2020-11-17T09:36:01Z</time>
      </trkpt>
      <trkpt lat="28.6133000" lon="-17.8621680">
        <ele>1050.8</ele>
        <time>2020-11-17T09:36:02Z</time>
      </trkpt>
      <trkpt lat="28.6133000" lon="-17.8621680">
        <ele>1050.8</ele>
        <time>2020-11-17T09:36:03Z</time>
      </trkpt>
      <trkpt lat="28.6133350" lon="-17.8621530">
        <ele>1051.1</ele>
        <time>2020-11-17T09:36:04Z</time>
      </trkpt>
      <trkpt lat="28.6133350" lon="-17.8621530">
        <ele>1051.1</ele>
        <time>2020-11-17T09:36:05Z</time>
      </trkpt>
      <trkpt lat="28.6133650" lon="-17.8621280">
        <ele>1051.4</ele>
        <time>2020-11-17T09:36:06Z</time>
      </trkpt>
      <trkpt lat="28.6133650" lon="-17.8621280">
        <ele>1051.4</ele>
        <time>2020-11-17T09:36:07Z</time>
      </trkpt>
      <trkpt lat="28.6133780" lon="-17.8620930">
        <ele>1051.7</ele>
        <time>2020-11-17T09:36:08Z</time>
      </trkpt>
      <trkpt lat="28.6133780" lon="-17.8620930">
        <ele>1051.7</ele>
        <time>2020-11-17T09:36:09Z</time>
      </trkpt>
      <trkpt lat="28.6134020" lon="-17.8620670">
        <ele>1052.1</ele>
        <time>2020-11-17T09:36:10Z</time>
      </trkpt>
      <trkpt lat="28.6134020" lon="-17.8620670">
        <ele>1052.1</ele>
        <time>2020-11-17T09:36:11Z</time>
      </trkpt>
      <trkpt lat="28.6134230" lon="-17.8620350">
        <ele>1052.4</ele>
        <time>2020-11-17T09:36:12Z</time>
      </trkpt>
      <trkpt lat="28.6134230" lon="-17.8620350">
        <ele>1052.4</ele>
        <time>2020-11-17T09:36:13Z</time>
      </trkpt>
      <trkpt lat="28.6134530" lon="-17.8620120">
        <ele>1052.7</ele>
        <time>2020-11-17T09:36:14Z</time>
      </trkpt>
      <trkpt lat="28.6134700" lon="-17.8620030">
        <ele>1052.9</ele>
        <time>2020-11-17T09:36:15Z</time>
      </trkpt>
      <trkpt lat="28.6134700" lon="-17.8620030">
        <ele>1052.9</ele>
        <time>2020-11-17T09:36:16Z</time>
      </trkpt>
      <trkpt lat="28.6135050" lon="-17.8619930">
        <ele>1053.3</ele>
        <time>2020-11-17T09:36:17Z</time>
      </trkpt>
      <trkpt lat="28.6135220" lon="-17.8619970">
        <ele>1053.4</ele>
        <time>2020-11-17T09:36:18Z</time>
      </trkpt>
      <trkpt lat="28.6135220" lon="-17.8619970">
        <ele>1053.4</ele>
        <time>2020-11-17T09:36:19Z</time>
      </trkpt>
      <trkpt lat="28.6135500" lon="-17.8619920">
        <ele>1053.7</ele>
        <time>2020-11-17T09:36:20Z</time>
      </trkpt>
      <trkpt lat="28.6135500" lon="-17.8619920">
        <ele>1053.7</ele>
        <time>2020-11-17T09:36:21Z</time>
      </trkpt>
      <trkpt lat="28.6135830" lon="-17.8619880">
        <ele>1054.0</ele>
        <time>2020-11-17T09:36:22Z</time>
      </trkpt>
      <trkpt lat="28.6136020" lon="-17.8619850">
        <ele>1054.2</ele>
        <time>2020-11-17T09:36:23Z</time>
      </trkpt>
      <trkpt lat="28.6136020" lon="-17.8619850">
        <ele>1054.2</ele>
        <time>2020-11-17T09:36:24Z</time>
      </trkpt>
      <trkpt lat="28.6136180" lon="-17.8619900">
        <ele>1054.4</ele>
        <time>2020-11-17T09:36:25Z</time>
      </trkpt>
      <trkpt lat="28.6136480" lon="-17.8619900">
        <ele>1054.6</ele>
        <time>2020-11-17T09:36:26Z</time>
      </trkpt>
      <trkpt lat="28.6136650" lon="-17.8619920">
        <ele>1054.8</ele>
        <time>2020-11-17T09:36:27Z</time>
      </trkpt>
      <trkpt lat="28.6136650" lon="-17.8619920">
        <ele>1054.8</ele>
        <time>2020-11-17T09:36:28Z</time>
      </trkpt>
      <trkpt lat="28.6136950" lon="-17.8619750">
        <ele>1055.1</ele>
        <time>2020-11-17T09:36:29Z</time>
      </trkpt>
      <trkpt lat="28.6136950" lon="-17.8619750">
        <ele>1055.1</ele>
        <time>2020-11-17T09:36:30Z</time>
      </trkpt>
      <trkpt lat="28.6137230" lon="-17.8619480">
        <ele>1055.3</ele>
        <time>2020-11-17T09:36:31Z</time>
      </trkpt>
      <trkpt lat="28.6137230" lon="-17.8619480">
        <ele>1055.3</ele>
        <time>2020-11-17T09:36:32Z</time>
      </trkpt>
      <trkpt lat="28.6137520" lon="-17.8619300">
        <ele>1055.6</ele>
        <time>2020-11-17T09:36:33Z</time>
      </trkpt>
      <trkpt lat="28.6137720" lon="-17.8619180">
        <ele>1055.7</ele>
        <time>2020-11-17T09:36:34Z</time>
      </trkpt>
      <trkpt lat="28.6137720" lon="-17.8619180">
        <ele>1055.7</ele>
        <time>2020-11-17T09:36:35Z</time>
      </trkpt>
      <trkpt lat="28.6138070" lon="-17.8619030">
        <ele>1056.0</ele>
        <time>2020-11-17T09:36:36Z</time>
      </trkpt>
      <trkpt lat="28.6138070" lon="-17.8619030">
        <ele>1056.0</ele>
        <time>2020-11-17T09:36:37Z</time>
      </trkpt>
      <trkpt lat="28.6138400" lon="-17.8618820">
        <ele>1056.2</ele>
        <time>2020-11-17T09:36:38Z</time>
      </trkpt>
      <trkpt lat="28.6138530" lon="-17.8618750">
        <ele>1056.3</ele>
        <time>2020-11-17T09:36:39Z</time>
      </trkpt>
      <trkpt lat="28.6138650" lon="-17.8618670">
        <ele>1056.4</ele>
        <time>2020-11-17T09:36:40Z</time>
      </trkpt>
      <trkpt lat="28.6138650" lon="-17.8618670">
        <ele>1056.4</ele>
        <time>2020-11-17T09:36:41Z</time>
      </trkpt>
      <trkpt lat="28.6138880" lon="-17.8618430">
        <ele>1056.6</ele>
        <time>2020-11-17T09:36:42Z</time>
      </trkpt>
      <trkpt lat="28.6138880" lon="-17.8618430">
        <ele>1056.6</ele>
        <time>2020-11-17T09:36:43Z</time>
      </trkpt>
      <trkpt lat="28.6139070" lon="-17.8618320">
        <ele>1056.7</ele>
        <time>2020-11-17T09:36:44Z</time>
      </trkpt>
      <trkpt lat="28.6139170" lon="-17.8618200">
        <ele>1056.8</ele>
        <time>2020-11-17T09:36:45Z</time>
      </trkpt>
      <trkpt lat="28.6139170" lon="-17.8618200">
        <ele>1056.8</ele>
        <time>2020-11-17T09:36:46Z</time>
      </trkpt>
      <trkpt lat="28.6139420" lon="-17.8617930">
        <ele>1057.1</ele>
        <time>2020-11-17T09:36:47Z</time>
      </trkpt>
      <trkpt lat="28.6139420" lon="-17.8617930">
        <ele>1057.1</ele>
        <time>2020-11-17T09:36:48Z</time>
      </trkpt>
      <trkpt lat="28.6139730" lon="-17.8617620">
        <ele>1057.3</ele>
        <time>2020-11-17T09:36:49Z</time>
      </trkpt>
      <trkpt lat="28.6139730" lon="-17.8617620">
        <ele>1057.3</ele>
        <time>2020-11-17T09:36:50Z</time>
      </trkpt>
      <trkpt lat="28.6140070" lon="-17.8617250">
        <ele>1057.6</ele>
        <time>2020-11-17T09:36:51Z</time>
      </trkpt>
      <trkpt lat="28.6140230" lon="-17.8617170">
        <ele>1057.7</ele>
        <time>2020-11-17T09:36:52Z</time>
      </trkpt>
      <trkpt lat="28.6140230" lon="-17.8617170">
        <ele>1057.7</ele>
        <time>2020-11-17T09:36:53Z</time>
      </trkpt>
      <trkpt lat="28.6140600" lon="-17.8617020">
        <ele>1058.0</ele>
        <time>2020-11-17T09:36:54Z</time>
      </trkpt>
      <trkpt lat="28.6140750" lon="-17.8616920">
        <ele>1058.1</ele>
        <time>2020-11-17T09:36:55Z</time>
      </trkpt>
      <trkpt lat="28.6140750" lon="-17.8616920">
        <ele>1058.1</ele>
        <time>2020-11-17T09:36:56Z</time>
      </trkpt>
      <trkpt lat="28.6141030" lon="-17.8616650">
        <ele>1058.3</ele>
        <time>2020-11-17T09:36:57Z</time>
      </trkpt>
      <trkpt lat="28.6141030" lon="-17.8616650">
        <ele>1058.3</ele>
        <time>2020-11-17T09:36:58Z</time>
      </trkpt>
      <trkpt lat="28.6141230" lon="-17.8616370">
        <ele>1058.5</ele>
        <time>2020-11-17T09:36:59Z</time>
      </trkpt>
      <trkpt lat="28.6141330" lon="-17.8616200">
        <ele>1058.6</ele>
        <time>2020-11-17T09:37:00Z</time>
      </trkpt>
      <trkpt lat="28.6141330" lon="-17.8616200">
        <ele>1058.6</ele>
        <time>2020-11-17T09:37:01Z</time>
      </trkpt>
      <trkpt lat="28.6141550" lon="-17.8615920">
        <ele>1058.8</ele>
        <time>2020-11-17T09:37:02Z</time>
      </trkpt>
      <trkpt lat="28.6141550" lon="-17.8615920">
        <ele>1058.8</ele>
        <time>2020-11-17T09:37:03Z</time>
      </trkpt>
      <trkpt lat="28.6141680" lon="-17.8615820">
        <ele>1058.9</ele>
        <time>2020-11-17T09:37:04Z</time>
      </trkpt>
      <trkpt lat="28.6141680" lon="-17.8615820">
        <ele>1058.9</ele>
        <time>2020-11-17T09:37:05Z</time>
      </trkpt>
      <trkpt lat="28.6141800" lon="-17.8615770">
        <ele>1058.9</ele>
        <time>2020-11-17T09:37:06Z</time>
      </trkpt>
      <trkpt lat="28.6141800" lon="-17.8615770">
        <ele>1058.9</ele>
        <time>2020-11-17T09:37:07Z</time>
      </trkpt>
      <trkpt lat="28.6141930" lon="-17.8615700">
        <ele>1059.0</ele>
        <time>2020-11-17T09:37:08Z</time>
      </trkpt>
      <trkpt lat="28.6141970" lon="-17.8615670">
        <ele>1059.0</ele>
        <time>2020-11-17T09:37:09Z</time>
      </trkpt>
      <trkpt lat="28.6141970" lon="-17.8615670">
        <ele>1059.0</ele>
        <time>2020-11-17T09:37:10Z</time>
      </trkpt>
      <trkpt lat="28.6142030" lon="-17.8615680">
        <ele>1059.1</ele>
        <time>2020-11-17T09:37:11Z</time>
      </trkpt>
      <trkpt lat="28.6142030" lon="-17.8615680">
        <ele>1059.1</ele>
        <time>2020-11-17T09:37:12Z</time>
      </trkpt>
      <trkpt lat="28.6142030" lon="-17.8615680">
        <ele>1059.1</ele>
        <time>2020-11-17T09:37:13Z</time>
      </trkpt>
      <trkpt lat="28.6142030" lon="-17.8615680">
        <ele>1059.1</ele>
        <time>2020-11-17T09:37:14Z</time>
      </trkpt>
      <trkpt lat="28.6142030" lon="-17.8615680">
        <ele>1059.1</ele>
        <time>2020-11-17T09:37:15Z</time>
      </trkpt>
      <trkpt lat="28.6142030" lon="-17.8615680">
        <ele>1059.1</ele>
        <time>2020-11-17T09:38:44Z</time>
      </trkpt>
      <trkpt lat="28.6142020" lon="-17.8615220">
        <ele>1059.3</ele>
        <time>2020-11-17T09:38:45Z</time>
      </trkpt>
      <trkpt lat="28.6142020" lon="-17.8615220">
        <ele>1059.3</ele>
        <time>2020-11-17T09:38:46Z</time>
      </trkpt>
      <trkpt lat="28.6141950" lon="-17.8614850">
        <ele>1059.5</ele>
        <time>2020-11-17T09:38:47Z</time>
      </trkpt>
      <trkpt lat="28.6141980" lon="-17.8614650">
        <ele>1059.5</ele>
        <time>2020-11-17T09:38:48Z</time>
      </trkpt>
      <trkpt lat="28.6141980" lon="-17.8614650">
        <ele>1059.5</ele>
        <time>2020-11-17T09:38:49Z</time>
      </trkpt>
      <trkpt lat="28.6142020" lon="-17.8614180">
        <ele>1059.8</ele>
        <time>2020-11-17T09:38:50Z</time>
      </trkpt>
      <trkpt lat="28.6142050" lon="-17.8613930">
        <ele>1059.9</ele>
        <time>2020-11-17T09:38:51Z</time>
      </trkpt>
      <trkpt lat="28.6142050" lon="-17.8613930">
        <ele>1059.9</ele>
        <time>2020-11-17T09:38:52Z</time>
      </trkpt>
      <trkpt lat="28.6142130" lon="-17.8613480">
        <ele>1060.1</ele>
        <time>2020-11-17T09:38:53Z</time>
      </trkpt>
      <trkpt lat="28.6142030" lon="-17.8613200">
        <ele>1060.2</ele>
        <time>2020-11-17T09:38:54Z</time>
      </trkpt>
      <trkpt lat="28.6142030" lon="-17.8612970">
        <ele>1060.3</ele>
        <time>2020-11-17T09:38:55Z</time>
      </trkpt>
      <trkpt lat="28.6142030" lon="-17.8612970">
        <ele>1060.3</ele>
        <time>2020-11-17T09:38:56Z</time>
      </trkpt>
      <trkpt lat="28.6142270" lon="-17.8612520">
        <ele>1060.6</ele>
        <time>2020-11-17T09:38:57Z</time>
      </trkpt>
      <trkpt lat="28.6142420" lon="-17.8612330">
        <ele>1060.7</ele>
        <time>2020-11-17T09:38:58Z</time>
      </trkpt>
      <trkpt lat="28.6142420" lon="-17.8612330">
        <ele>1060.7</ele>
        <time>2020-11-17T09:38:59Z</time>
      </trkpt>
      <trkpt lat="28.6142800" lon="-17.8612030">
        <ele>1061.1</ele>
        <time>2020-11-17T09:39:00Z</time>
      </trkpt>
      <trkpt lat="28.6142800" lon="-17.8612030">
        <ele>1061.1</ele>
        <time>2020-11-17T09:39:01Z</time>
      </trkpt>
      <trkpt lat="28.6143230" lon="-17.8611870">
        <ele>1061.5</ele>
        <time>2020-11-17T09:39:02Z</time>
      </trkpt>
      <trkpt lat="28.6143230" lon="-17.8611870">
        <ele>1061.5</ele>
        <time>2020-11-17T09:39:03Z</time>
      </trkpt>
      <trkpt lat="28.6143600" lon="-17.8611700">
        <ele>1061.9</ele>
        <time>2020-11-17T09:39:04Z</time>
      </trkpt>
      <trkpt lat="28.6143770" lon="-17.8611600">
        <ele>1062.1</ele>
        <time>2020-11-17T09:39:05Z</time>
      </trkpt>
      <trkpt lat="28.6143770" lon="-17.8611600">
        <ele>1062.1</ele>
        <time>2020-11-17T09:39:06Z</time>
      </trkpt>
      <trkpt lat="28.6144030" lon="-17.8611480">
        <ele>1062.4</ele>
        <time>2020-11-17T09:39:07Z</time>
      </trkpt>
      <trkpt lat="28.6144030" lon="-17.8611480">
        <ele>1062.4</ele>
        <time>2020-11-17T09:39:08Z</time>
      </trkpt>
      <trkpt lat="28.6144320" lon="-17.8611320">
        <ele>1062.7</ele>
        <time>2020-11-17T09:39:09Z</time>
      </trkpt>
      <trkpt lat="28.6144320" lon="-17.8611320">
        <ele>1062.7</ele>
        <time>2020-11-17T09:39:10Z</time>
      </trkpt>
      <trkpt lat="28.6144570" lon="-17.8611100">
        <ele>1063.0</ele>
        <time>2020-11-17T09:39:11Z</time>
      </trkpt>
      <trkpt lat="28.6144570" lon="-17.8611100">
        <ele>1063.0</ele>
        <time>2020-11-17T09:39:12Z</time>
      </trkpt>
      <trkpt lat="28.6144830" lon="-17.8610850">
        <ele>1063.4</ele>
        <time>2020-11-17T09:39:13Z</time>
      </trkpt>
      <trkpt lat="28.6144830" lon="-17.8610850">
        <ele>1063.4</ele>
        <time>2020-11-17T09:39:14Z</time>
      </trkpt>
      <trkpt lat="28.6145200" lon="-17.8610620">
        <ele>1063.8</ele>
        <time>2020-11-17T09:39:15Z</time>
      </trkpt>
      <trkpt lat="28.6145420" lon="-17.8610620">
        <ele>1064.0</ele>
        <time>2020-11-17T09:39:16Z</time>
      </trkpt>
      <trkpt lat="28.6145420" lon="-17.8610620">
        <ele>1064.0</ele>
        <time>2020-11-17T09:39:17Z</time>
      </trkpt>
      <trkpt lat="28.6145880" lon="-17.8610750">
        <ele>1064.3</ele>
        <time>2020-11-17T09:39:18Z</time>
      </trkpt>
      <trkpt lat="28.6145880" lon="-17.8610750">
        <ele>1064.3</ele>
        <time>2020-11-17T09:39:19Z</time>
      </trkpt>
      <trkpt lat="28.6146300" lon="-17.8611000">
        <ele>1064.6</ele>
        <time>2020-11-17T09:39:20Z</time>
      </trkpt>
      <trkpt lat="28.6146300" lon="-17.8611000">
        <ele>1064.6</ele>
        <time>2020-11-17T09:39:21Z</time>
      </trkpt>
      <trkpt lat="28.6146700" lon="-17.8611270">
        <ele>1064.9</ele>
        <time>2020-11-17T09:39:22Z</time>
      </trkpt>
      <trkpt lat="28.6146880" lon="-17.8611400">
        <ele>1065.0</ele>
        <time>2020-11-17T09:39:23Z</time>
      </trkpt>
      <trkpt lat="28.6146880" lon="-17.8611400">
        <ele>1065.0</ele>
        <time>2020-11-17T09:39:24Z</time>
      </trkpt>
      <trkpt lat="28.6147230" lon="-17.8611630">
        <ele>1065.2</ele>
        <time>2020-11-17T09:39:25Z</time>
      </trkpt>
      <trkpt lat="28.6147230" lon="-17.8611630">
        <ele>1065.2</ele>
        <time>2020-11-17T09:39:26Z</time>
      </trkpt>
      <trkpt lat="28.6147580" lon="-17.8611880">
        <ele>1065.4</ele>
        <time>2020-11-17T09:39:27Z</time>
      </trkpt>
      <trkpt lat="28.6147580" lon="-17.8611880">
        <ele>1065.4</ele>
        <time>2020-11-17T09:39:28Z</time>
      </trkpt>
      <trkpt lat="28.6147920" lon="-17.8612180">
        <ele>1065.6</ele>
        <time>2020-11-17T09:39:29Z</time>
      </trkpt>
      <trkpt lat="28.6147920" lon="-17.8612180">
        <ele>1065.6</ele>
        <time>2020-11-17T09:39:30Z</time>
      </trkpt>
      <trkpt lat="28.6148200" lon="-17.8612500">
        <ele>1065.8</ele>
        <time>2020-11-17T09:39:31Z</time>
      </trkpt>
      <trkpt lat="28.6148320" lon="-17.8612670">
        <ele>1065.9</ele>
        <time>2020-11-17T09:39:32Z</time>
      </trkpt>
      <trkpt lat="28.6148320" lon="-17.8612670">
        <ele>1065.9</ele>
        <time>2020-11-17T09:39:33Z</time>
      </trkpt>
      <trkpt lat="28.6148600" lon="-17.8612930">
        <ele>1066.1</ele>
        <time>2020-11-17T09:39:34Z</time>
      </trkpt>
      <trkpt lat="28.6148750" lon="-17.8613070">
        <ele>1066.2</ele>
        <time>2020-11-17T09:39:35Z</time>
      </trkpt>
      <trkpt lat="28.6148750" lon="-17.8613070">
        <ele>1066.2</ele>
        <time>2020-11-17T09:39:36Z</time>
      </trkpt>
      <trkpt lat="28.6149050" lon="-17.8613330">
        <ele>1066.5</ele>
        <time>2020-11-17T09:39:37Z</time>
      </trkpt>
      <trkpt lat="28.6149050" lon="-17.8613330">
        <ele>1066.5</ele>
        <time>2020-11-17T09:39:38Z</time>
      </trkpt>
      <trkpt lat="28.6149420" lon="-17.8613380">
        <ele>1066.7</ele>
        <time>2020-11-17T09:39:39Z</time>
      </trkpt>
      <trkpt lat="28.6149420" lon="-17.8613380">
        <ele>1066.7</ele>
        <time>2020-11-17T09:39:40Z</time>
      </trkpt>
      <trkpt lat="28.6149730" lon="-17.8613330">
        <ele>1066.9</ele>
        <time>2020-11-17T09:39:41Z</time>
      </trkpt>
      <trkpt lat="28.6149730" lon="-17.8613330">
        <ele>1066.9</ele>
        <time>2020-11-17T09:39:42Z</time>
      </trkpt>
      <trkpt lat="28.6150070" lon="-17.8613230">
        <ele>1067.2</ele>
        <time>2020-11-17T09:39:43Z</time>
      </trkpt>
      <trkpt lat="28.6150070" lon="-17.8613230">
        <ele>1067.2</ele>
        <time>2020-11-17T09:39:44Z</time>
      </trkpt>
      <trkpt lat="28.6150150" lon="-17.8612880">
        <ele>1067.4</ele>
        <time>2020-11-17T09:39:45Z</time>
      </trkpt>
      <trkpt lat="28.6150150" lon="-17.8612880">
        <ele>1067.4</ele>
        <time>2020-11-17T09:39:46Z</time>
      </trkpt>
      <trkpt lat="28.6150180" lon="-17.8612430">
        <ele>1067.7</ele>
        <time>2020-11-17T09:39:47Z</time>
      </trkpt>
      <trkpt lat="28.6150200" lon="-17.8612220">
        <ele>1067.8</ele>
        <time>2020-11-17T09:39:48Z</time>
      </trkpt>
      <trkpt lat="28.6150200" lon="-17.8612220">
        <ele>1067.8</ele>
        <time>2020-11-17T09:39:49Z</time>
      </trkpt>
      <trkpt lat="28.6150270" lon="-17.8611770">
        <ele>1068.1</ele>
        <time>2020-11-17T09:39:50Z</time>
      </trkpt>
      <trkpt lat="28.6150270" lon="-17.8611770">
        <ele>1068.1</ele>
        <time>2020-11-17T09:39:51Z</time>
      </trkpt>
      <trkpt lat="28.6150250" lon="-17.8611330">
        <ele>1068.4</ele>
        <time>2020-11-17T09:39:52Z</time>
      </trkpt>
      <trkpt lat="28.6150250" lon="-17.8611330">
        <ele>1068.4</ele>
        <time>2020-11-17T09:39:53Z</time>
      </trkpt>
      <trkpt lat="28.6150250" lon="-17.8610920">
        <ele>1068.7</ele>
        <time>2020-11-17T09:39:54Z</time>
      </trkpt>
      <trkpt lat="28.6150250" lon="-17.8610920">
        <ele>1068.7</ele>
        <time>2020-11-17T09:39:55Z</time>
      </trkpt>
      <trkpt lat="28.6150230" lon="-17.8610470">
        <ele>1069.0</ele>
        <time>2020-11-17T09:39:56Z</time>
      </trkpt>
      <trkpt lat="28.6150230" lon="-17.8610470">
        <ele>1069.0</ele>
        <time>2020-11-17T09:39:57Z</time>
      </trkpt>
      <trkpt lat="28.6150320" lon="-17.8610070">
        <ele>1069.3</ele>
        <time>2020-11-17T09:39:58Z</time>
      </trkpt>
      <trkpt lat="28.6150320" lon="-17.8610070">
        <ele>1069.3</ele>
        <time>2020-11-17T09:39:59Z</time>
      </trkpt>
      <trkpt lat="28.6150530" lon="-17.8609670">
        <ele>1069.6</ele>
        <time>2020-11-17T09:40:00Z</time>
      </trkpt>
      <trkpt lat="28.6150530" lon="-17.8609670">
        <ele>1069.6</ele>
        <time>2020-11-17T09:40:01Z</time>
      </trkpt>
      <trkpt lat="28.6150920" lon="-17.8609480">
        <ele>1070.0</ele>
        <time>2020-11-17T09:40:02Z</time>
      </trkpt>
      <trkpt lat="28.6150920" lon="-17.8609480">
        <ele>1070.0</ele>
        <time>2020-11-17T09:40:03Z</time>
      </trkpt>
      <trkpt lat="28.6151370" lon="-17.8609400">
        <ele>1070.3</ele>
        <time>2020-11-17T09:40:04Z</time>
      </trkpt>
      <trkpt lat="28.6151370" lon="-17.8609400">
        <ele>1070.3</ele>
        <time>2020-11-17T09:40:05Z</time>
      </trkpt>
      <trkpt lat="28.6151770" lon="-17.8609580">
        <ele>1070.6</ele>
        <time>2020-11-17T09:40:06Z</time>
      </trkpt>
      <trkpt lat="28.6151770" lon="-17.8609580">
        <ele>1070.6</ele>
        <time>2020-11-17T09:40:07Z</time>
      </trkpt>
      <trkpt lat="28.6152170" lon="-17.8609880">
        <ele>1070.9</ele>
        <time>2020-11-17T09:40:08Z</time>
      </trkpt>
      <trkpt lat="28.6152350" lon="-17.8610080">
        <ele>1071.1</ele>
        <time>2020-11-17T09:40:09Z</time>
      </trkpt>
      <trkpt lat="28.6152350" lon="-17.8610080">
        <ele>1071.1</ele>
        <time>2020-11-17T09:40:10Z</time>
      </trkpt>
      <trkpt lat="28.6152680" lon="-17.8610370">
        <ele>1071.3</ele>
        <time>2020-11-17T09:40:11Z</time>
      </trkpt>
      <trkpt lat="28.6152680" lon="-17.8610370">
        <ele>1071.3</ele>
        <time>2020-11-17T09:40:12Z</time>
      </trkpt>
      <trkpt lat="28.6153050" lon="-17.8610630">
        <ele>1071.6</ele>
        <time>2020-11-17T09:40:13Z</time>
      </trkpt>
      <trkpt lat="28.6153230" lon="-17.8610750">
        <ele>1071.7</ele>
        <time>2020-11-17T09:40:14Z</time>
      </trkpt>
      <trkpt lat="28.6153230" lon="-17.8610750">
        <ele>1071.7</ele>
        <time>2020-11-17T09:40:15Z</time>
      </trkpt>
      <trkpt lat="28.6153600" lon="-17.8610980">
        <ele>1072.0</ele>
        <time>2020-11-17T09:40:16Z</time>
      </trkpt>
      <trkpt lat="28.6153770" lon="-17.8611070">
        <ele>1072.1</ele>
        <time>2020-11-17T09:40:17Z</time>
      </trkpt>
      <trkpt lat="28.6153770" lon="-17.8611070">
        <ele>1072.1</ele>
        <time>2020-11-17T09:40:18Z</time>
      </trkpt>
      <trkpt lat="28.6154130" lon="-17.8611020">
        <ele>1072.3</ele>
        <time>2020-11-17T09:40:19Z</time>
      </trkpt>
      <trkpt lat="28.6154130" lon="-17.8611020">
        <ele>1072.3</ele>
        <time>2020-11-17T09:40:20Z</time>
      </trkpt>
      <trkpt lat="28.6154380" lon="-17.8610620">
        <ele>1072.5</ele>
        <time>2020-11-17T09:40:21Z</time>
      </trkpt>
      <trkpt lat="28.6154380" lon="-17.8610620">
        <ele>1072.5</ele>
        <time>2020-11-17T09:40:22Z</time>
      </trkpt>
      <trkpt lat="28.6154430" lon="-17.8610120">
        <ele>1072.8</ele>
        <time>2020-11-17T09:40:23Z</time>
      </trkpt>
      <trkpt lat="28.6154430" lon="-17.8610120">
        <ele>1072.8</ele>
        <time>2020-11-17T09:40:24Z</time>
      </trkpt>
      <trkpt lat="28.6154470" lon="-17.8609650">
        <ele>1073.1</ele>
        <time>2020-11-17T09:40:25Z</time>
      </trkpt>
      <trkpt lat="28.6154470" lon="-17.8609650">
        <ele>1073.1</ele>
        <time>2020-11-17T09:40:26Z</time>
      </trkpt>
      <trkpt lat="28.6154450" lon="-17.8609170">
        <ele>1073.3</ele>
        <time>2020-11-17T09:40:27Z</time>
      </trkpt>
      <trkpt lat="28.6154450" lon="-17.8609170">
        <ele>1073.3</ele>
        <time>2020-11-17T09:40:28Z</time>
      </trkpt>
      <trkpt lat="28.6154550" lon="-17.8608770">
        <ele>1073.5</ele>
        <time>2020-11-17T09:40:29Z</time>
      </trkpt>
      <trkpt lat="28.6154580" lon="-17.8608550">
        <ele>1073.7</ele>
        <time>2020-11-17T09:40:30Z</time>
      </trkpt>
      <trkpt lat="28.6154620" lon="-17.8608350">
        <ele>1073.8</ele>
        <time>2020-11-17T09:40:31Z</time>
      </trkpt>
      <trkpt lat="28.6154620" lon="-17.8608350">
        <ele>1073.8</ele>
        <time>2020-11-17T09:40:32Z</time>
      </trkpt>
      <trkpt lat="28.6154730" lon="-17.8607930">
        <ele>1074.0</ele>
        <time>2020-11-17T09:40:33Z</time>
      </trkpt>
      <trkpt lat="28.6154770" lon="-17.8607730">
        <ele>1074.1</ele>
        <time>2020-11-17T09:40:34Z</time>
      </trkpt>
      <trkpt lat="28.6154770" lon="-17.8607730">
        <ele>1074.1</ele>
        <time>2020-11-17T09:40:35Z</time>
      </trkpt>
      <trkpt lat="28.6154830" lon="-17.8607280">
        <ele>1074.4</ele>
        <time>2020-11-17T09:40:36Z</time>
      </trkpt>
      <trkpt lat="28.6154830" lon="-17.8607280">
        <ele>1074.4</ele>
        <time>2020-11-17T09:40:37Z</time>
      </trkpt>
      <trkpt lat="28.6154920" lon="-17.8606880">
        <ele>1074.6</ele>
        <time>2020-11-17T09:40:38Z</time>
      </trkpt>
      <trkpt lat="28.6154920" lon="-17.8606880">
        <ele>1074.6</ele>
        <time>2020-11-17T09:40:39Z</time>
      </trkpt>
      <trkpt lat="28.6155000" lon="-17.8606450">
        <ele>1074.9</ele>
        <time>2020-11-17T09:40:40Z</time>
      </trkpt>
      <trkpt lat="28.6155050" lon="-17.8606220">
        <ele>1075.1</ele>
        <time>2020-11-17T09:40:41Z</time>
      </trkpt>
      <trkpt lat="28.6155050" lon="-17.8606220">
        <ele>1075.1</ele>
        <time>2020-11-17T09:40:42Z</time>
      </trkpt>
      <trkpt lat="28.6155300" lon="-17.8605850">
        <ele>1075.4</ele>
        <time>2020-11-17T09:40:43Z</time>
      </trkpt>
      <trkpt lat="28.6155300" lon="-17.8605850">
        <ele>1075.4</ele>
        <time>2020-11-17T09:40:44Z</time>
      </trkpt>
      <trkpt lat="28.6155450" lon="-17.8605480">
        <ele>1075.6</ele>
        <time>2020-11-17T09:40:45Z</time>
      </trkpt>
      <trkpt lat="28.6155450" lon="-17.8605480">
        <ele>1075.6</ele>
        <time>2020-11-17T09:40:46Z</time>
      </trkpt>
      <trkpt lat="28.6155620" lon="-17.8605100">
        <ele>1075.9</ele>
        <time>2020-11-17T09:40:47Z</time>
      </trkpt>
      <trkpt lat="28.6155620" lon="-17.8605100">
        <ele>1075.9</ele>
        <time>2020-11-17T09:40:48Z</time>
      </trkpt>
      <trkpt lat="28.6155800" lon="-17.8604730">
        <ele>1076.2</ele>
        <time>2020-11-17T09:40:49Z</time>
      </trkpt>
      <trkpt lat="28.6155800" lon="-17.8604730">
        <ele>1076.2</ele>
        <time>2020-11-17T09:40:50Z</time>
      </trkpt>
      <trkpt lat="28.6155970" lon="-17.8604350">
        <ele>1076.5</ele>
        <time>2020-11-17T09:40:51Z</time>
      </trkpt>
      <trkpt lat="28.6156030" lon="-17.8604180">
        <ele>1076.6</ele>
        <time>2020-11-17T09:40:52Z</time>
      </trkpt>
      <trkpt lat="28.6156030" lon="-17.8604180">
        <ele>1076.6</ele>
        <time>2020-11-17T09:40:53Z</time>
      </trkpt>
      <trkpt lat="28.6156170" lon="-17.8603880">
        <ele>1076.9</ele>
        <time>2020-11-17T09:40:54Z</time>
      </trkpt>
      <trkpt lat="28.6156270" lon="-17.8603730">
        <ele>1077.0</ele>
        <time>2020-11-17T09:40:55Z</time>
      </trkpt>
      <trkpt lat="28.6156270" lon="-17.8603730">
        <ele>1077.0</ele>
        <time>2020-11-17T09:40:56Z</time>
      </trkpt>
      <trkpt lat="28.6156520" lon="-17.8603330">
        <ele>1077.3</ele>
        <time>2020-11-17T09:40:57Z</time>
      </trkpt>
      <trkpt lat="28.6156520" lon="-17.8603150">
        <ele>1077.5</ele>
        <time>2020-11-17T09:40:58Z</time>
      </trkpt>
      <trkpt lat="28.6156520" lon="-17.8603150">
        <ele>1077.5</ele>
        <time>2020-11-17T09:40:59Z</time>
      </trkpt>
      <trkpt lat="28.6156770" lon="-17.8602800">
        <ele>1077.8</ele>
        <time>2020-11-17T09:41:00Z</time>
      </trkpt>
      <trkpt lat="28.6156930" lon="-17.8602670">
        <ele>1077.9</ele>
        <time>2020-11-17T09:41:01Z</time>
      </trkpt>
      <trkpt lat="28.6156930" lon="-17.8602670">
        <ele>1077.9</ele>
        <time>2020-11-17T09:41:02Z</time>
      </trkpt>
      <trkpt lat="28.6157230" lon="-17.8602520">
        <ele>1078.2</ele>
        <time>2020-11-17T09:41:03Z</time>
      </trkpt>
      <trkpt lat="28.6157230" lon="-17.8602520">
        <ele>1078.2</ele>
        <time>2020-11-17T09:41:04Z</time>
      </trkpt>
      <trkpt lat="28.6157620" lon="-17.8602370">
        <ele>1078.5</ele>
        <time>2020-11-17T09:41:05Z</time>
      </trkpt>
      <trkpt lat="28.6157780" lon="-17.8602320">
        <ele>1078.6</ele>
        <time>2020-11-17T09:41:06Z</time>
      </trkpt>
      <trkpt lat="28.6157780" lon="-17.8602320">
        <ele>1078.6</ele>
        <time>2020-11-17T09:41:07Z</time>
      </trkpt>
      <trkpt lat="28.6158070" lon="-17.8602320">
        <ele>1078.8</ele>
        <time>2020-11-17T09:41:08Z</time>
      </trkpt>
      <trkpt lat="28.6158250" lon="-17.8602300">
        <ele>1079.0</ele>
        <time>2020-11-17T09:41:09Z</time>
      </trkpt>
      <trkpt lat="28.6158480" lon="-17.8602330">
        <ele>1079.1</ele>
        <time>2020-11-17T09:41:10Z</time>
      </trkpt>
      <trkpt lat="28.6158480" lon="-17.8602330">
        <ele>1079.1</ele>
        <time>2020-11-17T09:41:11Z</time>
      </trkpt>
      <trkpt lat="28.6158850" lon="-17.8602470">
        <ele>1079.4</ele>
        <time>2020-11-17T09:41:12Z</time>
      </trkpt>
      <trkpt lat="28.6158850" lon="-17.8602470">
        <ele>1079.4</ele>
        <time>2020-11-17T09:41:13Z</time>
      </trkpt>
      <trkpt lat="28.6159280" lon="-17.8602630">
        <ele>1079.8</ele>
        <time>2020-11-17T09:41:14Z</time>
      </trkpt>
      <trkpt lat="28.6159480" lon="-17.8602670">
        <ele>1080.0</ele>
        <time>2020-11-17T09:41:15Z</time>
      </trkpt>
      <trkpt lat="28.6159480" lon="-17.8602670">
        <ele>1080.0</ele>
        <time>2020-11-17T09:41:16Z</time>
      </trkpt>
      <trkpt lat="28.6159870" lon="-17.8602680">
        <ele>1080.3</ele>
        <time>2020-11-17T09:41:17Z</time>
      </trkpt>
      <trkpt lat="28.6160050" lon="-17.8602670">
        <ele>1080.4</ele>
        <time>2020-11-17T09:41:18Z</time>
      </trkpt>
      <trkpt lat="28.6160250" lon="-17.8602580">
        <ele>1080.6</ele>
        <time>2020-11-17T09:41:19Z</time>
      </trkpt>
      <trkpt lat="28.6160250" lon="-17.8602580">
        <ele>1080.6</ele>
        <time>2020-11-17T09:41:20Z</time>
      </trkpt>
      <trkpt lat="28.6160630" lon="-17.8602430">
        <ele>1080.9</ele>
        <time>2020-11-17T09:41:21Z</time>
      </trkpt>
      <trkpt lat="28.6160830" lon="-17.8602300">
        <ele>1081.1</ele>
        <time>2020-11-17T09:41:22Z</time>
      </trkpt>
      <trkpt lat="28.6160830" lon="-17.8602300">
        <ele>1081.1</ele>
        <time>2020-11-17T09:41:23Z</time>
      </trkpt>
      <trkpt lat="28.6161170" lon="-17.8602070">
        <ele>1081.4</ele>
        <time>2020-11-17T09:41:24Z</time>
      </trkpt>
      <trkpt lat="28.6161170" lon="-17.8602070">
        <ele>1081.4</ele>
        <time>2020-11-17T09:41:25Z</time>
      </trkpt>
      <trkpt lat="28.6161520" lon="-17.8601900">
        <ele>1081.7</ele>
        <time>2020-11-17T09:41:26Z</time>
      </trkpt>
      <trkpt lat="28.6161520" lon="-17.8601900">
        <ele>1081.7</ele>
        <time>2020-11-17T09:41:27Z</time>
      </trkpt>
      <trkpt lat="28.6161830" lon="-17.8601680">
        <ele>1081.9</ele>
        <time>2020-11-17T09:41:28Z</time>
      </trkpt>
      <trkpt lat="28.6161830" lon="-17.8601680">
        <ele>1081.9</ele>
        <time>2020-11-17T09:41:29Z</time>
      </trkpt>
      <trkpt lat="28.6162070" lon="-17.8601350">
        <ele>1082.2</ele>
        <time>2020-11-17T09:41:30Z</time>
      </trkpt>
      <trkpt lat="28.6162070" lon="-17.8601350">
        <ele>1082.2</ele>
        <time>2020-11-17T09:41:31Z</time>
      </trkpt>
      <trkpt lat="28.6162450" lon="-17.8601000">
        <ele>1082.5</ele>
        <time>2020-11-17T09:41:32Z</time>
      </trkpt>
      <trkpt lat="28.6162450" lon="-17.8601000">
        <ele>1082.5</ele>
        <time>2020-11-17T09:41:33Z</time>
      </trkpt>
      <trkpt lat="28.6162650" lon="-17.8600670">
        <ele>1082.7</ele>
        <time>2020-11-17T09:41:34Z</time>
      </trkpt>
      <trkpt lat="28.6162820" lon="-17.8600580">
        <ele>1082.9</ele>
        <time>2020-11-17T09:41:35Z</time>
      </trkpt>
      <trkpt lat="28.6162820" lon="-17.8600580">
        <ele>1082.9</ele>
        <time>2020-11-17T09:41:36Z</time>
      </trkpt>
      <trkpt lat="28.6163250" lon="-17.8600330">
        <ele>1083.2</ele>
        <time>2020-11-17T09:41:37Z</time>
      </trkpt>
      <trkpt lat="28.6163250" lon="-17.8600330">
        <ele>1083.2</ele>
        <time>2020-11-17T09:41:38Z</time>
      </trkpt>
      <trkpt lat="28.6163670" lon="-17.8600170">
        <ele>1083.5</ele>
        <time>2020-11-17T09:41:39Z</time>
      </trkpt>
      <trkpt lat="28.6163850" lon="-17.8600050">
        <ele>1083.6</ele>
        <time>2020-11-17T09:41:40Z</time>
      </trkpt>
      <trkpt lat="28.6163850" lon="-17.8600050">
        <ele>1083.6</ele>
        <time>2020-11-17T09:41:41Z</time>
      </trkpt>
      <trkpt lat="28.6164230" lon="-17.8599800">
        <ele>1083.9</ele>
        <time>2020-11-17T09:41:42Z</time>
      </trkpt>
      <trkpt lat="28.6164230" lon="-17.8599800">
        <ele>1083.9</ele>
        <time>2020-11-17T09:41:43Z</time>
      </trkpt>
      <trkpt lat="28.6164580" lon="-17.8599570">
        <ele>1084.2</ele>
        <time>2020-11-17T09:41:44Z</time>
      </trkpt>
      <trkpt lat="28.6164580" lon="-17.8599570">
        <ele>1084.2</ele>
        <time>2020-11-17T09:41:45Z</time>
      </trkpt>
      <trkpt lat="28.6164870" lon="-17.8599270">
        <ele>1084.5</ele>
        <time>2020-11-17T09:41:46Z</time>
      </trkpt>
      <trkpt lat="28.6164870" lon="-17.8599270">
        <ele>1084.5</ele>
        <time>2020-11-17T09:41:47Z</time>
      </trkpt>
      <trkpt lat="28.6165200" lon="-17.8599070">
        <ele>1084.8</ele>
        <time>2020-11-17T09:41:48Z</time>
      </trkpt>
      <trkpt lat="28.6165200" lon="-17.8599070">
        <ele>1084.8</ele>
        <time>2020-11-17T09:41:49Z</time>
      </trkpt>
      <trkpt lat="28.6165470" lon="-17.8598880">
        <ele>1085.0</ele>
        <time>2020-11-17T09:41:50Z</time>
      </trkpt>
      <trkpt lat="28.6165580" lon="-17.8598800">
        <ele>1085.2</ele>
        <time>2020-11-17T09:41:51Z</time>
      </trkpt>
      <trkpt lat="28.6165580" lon="-17.8598800">
        <ele>1085.2</ele>
        <time>2020-11-17T09:41:52Z</time>
      </trkpt>
      <trkpt lat="28.6165830" lon="-17.8598650">
        <ele>1085.4</ele>
        <time>2020-11-17T09:41:53Z</time>
      </trkpt>
      <trkpt lat="28.6166000" lon="-17.8598620">
        <ele>1085.6</ele>
        <time>2020-11-17T09:41:54Z</time>
      </trkpt>
      <trkpt lat="28.6166000" lon="-17.8598620">
        <ele>1085.6</ele>
        <time>2020-11-17T09:41:55Z</time>
      </trkpt>
      <trkpt lat="28.6166350" lon="-17.8598480">
        <ele>1086.0</ele>
        <time>2020-11-17T09:41:56Z</time>
      </trkpt>
      <trkpt lat="28.6166350" lon="-17.8598480">
        <ele>1086.0</ele>
        <time>2020-11-17T09:41:57Z</time>
      </trkpt>
      <trkpt lat="28.6166670" lon="-17.8598320">
        <ele>1086.3</ele>
        <time>2020-11-17T09:41:58Z</time>
      </trkpt>
      <trkpt lat="28.6166670" lon="-17.8598320">
        <ele>1086.3</ele>
        <time>2020-11-17T09:41:59Z</time>
      </trkpt>
      <trkpt lat="28.6166980" lon="-17.8598130">
        <ele>1086.7</ele>
        <time>2020-11-17T09:42:00Z</time>
      </trkpt>
      <trkpt lat="28.6166980" lon="-17.8598130">
        <ele>1086.7</ele>
        <time>2020-11-17T09:42:01Z</time>
      </trkpt>
      <trkpt lat="28.6167330" lon="-17.8598030">
        <ele>1087.1</ele>
        <time>2020-11-17T09:42:02Z</time>
      </trkpt>
      <trkpt lat="28.6167330" lon="-17.8598030">
        <ele>1087.1</ele>
        <time>2020-11-17T09:42:03Z</time>
      </trkpt>
      <trkpt lat="28.6167750" lon="-17.8598000">
        <ele>1087.5</ele>
        <time>2020-11-17T09:42:04Z</time>
      </trkpt>
      <trkpt lat="28.6167950" lon="-17.8597970">
        <ele>1087.7</ele>
        <time>2020-11-17T09:42:05Z</time>
      </trkpt>
      <trkpt lat="28.6168130" lon="-17.8597950">
        <ele>1087.9</ele>
        <time>2020-11-17T09:42:06Z</time>
      </trkpt>
      <trkpt lat="28.6168300" lon="-17.8597900">
        <ele>1088.1</ele>
        <time>2020-11-17T09:42:07Z</time>
      </trkpt>
      <trkpt lat="28.6168300" lon="-17.8597900">
        <ele>1088.1</ele>
        <time>2020-11-17T09:42:08Z</time>
      </trkpt>
      <trkpt lat="28.6168650" lon="-17.8597800">
        <ele>1088.5</ele>
        <time>2020-11-17T09:42:09Z</time>
      </trkpt>
      <trkpt lat="28.6168900" lon="-17.8597720">
        <ele>1088.8</ele>
        <time>2020-11-17T09:42:10Z</time>
      </trkpt>
      <trkpt lat="28.6168900" lon="-17.8597720">
        <ele>1088.8</ele>
        <time>2020-11-17T09:42:11Z</time>
      </trkpt>
      <trkpt lat="28.6169350" lon="-17.8597750">
        <ele>1089.3</ele>
        <time>2020-11-17T09:42:12Z</time>
      </trkpt>
      <trkpt lat="28.6169350" lon="-17.8597750">
        <ele>1089.3</ele>
        <time>2020-11-17T09:42:13Z</time>
      </trkpt>
      <trkpt lat="28.6169750" lon="-17.8597850">
        <ele>1089.6</ele>
        <time>2020-11-17T09:42:14Z</time>
      </trkpt>
      <trkpt lat="28.6169750" lon="-17.8597850">
        <ele>1089.6</ele>
        <time>2020-11-17T09:42:15Z</time>
      </trkpt>
      <trkpt lat="28.6170150" lon="-17.8598100">
        <ele>1090.0</ele>
        <time>2020-11-17T09:42:16Z</time>
      </trkpt>
      <trkpt lat="28.6170150" lon="-17.8598100">
        <ele>1090.0</ele>
        <time>2020-11-17T09:42:17Z</time>
      </trkpt>
      <trkpt lat="28.6170600" lon="-17.8598180">
        <ele>1090.4</ele>
        <time>2020-11-17T09:42:18Z</time>
      </trkpt>
      <trkpt lat="28.6170830" lon="-17.8598170">
        <ele>1090.6</ele>
        <time>2020-11-17T09:42:19Z</time>
      </trkpt>
      <trkpt lat="28.6170830" lon="-17.8598170">
        <ele>1090.6</ele>
        <time>2020-11-17T09:42:20Z</time>
      </trkpt>
      <trkpt lat="28.6171230" lon="-17.8598120">
        <ele>1090.9</ele>
        <time>2020-11-17T09:42:21Z</time>
      </trkpt>
      <trkpt lat="28.6171230" lon="-17.8598120">
        <ele>1090.9</ele>
        <time>2020-11-17T09:42:22Z</time>
      </trkpt>
      <trkpt lat="28.6171650" lon="-17.8598000">
        <ele>1091.2</ele>
        <time>2020-11-17T09:42:23Z</time>
      </trkpt>
      <trkpt lat="28.6171650" lon="-17.8598000">
        <ele>1091.2</ele>
        <time>2020-11-17T09:42:24Z</time>
      </trkpt>
      <trkpt lat="28.6172030" lon="-17.8597850">
        <ele>1091.5</ele>
        <time>2020-11-17T09:42:25Z</time>
      </trkpt>
      <trkpt lat="28.6172030" lon="-17.8597850">
        <ele>1091.5</ele>
        <time>2020-11-17T09:42:26Z</time>
      </trkpt>
      <trkpt lat="28.6172350" lon="-17.8597700">
        <ele>1091.8</ele>
        <time>2020-11-17T09:42:27Z</time>
      </trkpt>
      <trkpt lat="28.6172500" lon="-17.8597580">
        <ele>1091.9</ele>
        <time>2020-11-17T09:42:28Z</time>
      </trkpt>
      <trkpt lat="28.6172500" lon="-17.8597580">
        <ele>1091.9</ele>
        <time>2020-11-17T09:42:29Z</time>
      </trkpt>
      <trkpt lat="28.6172730" lon="-17.8597300">
        <ele>1092.2</ele>
        <time>2020-11-17T09:42:30Z</time>
      </trkpt>
      <trkpt lat="28.6172730" lon="-17.8597300">
        <ele>1092.2</ele>
        <time>2020-11-17T09:42:31Z</time>
      </trkpt>
      <trkpt lat="28.6172970" lon="-17.8596900">
        <ele>1092.5</ele>
        <time>2020-11-17T09:42:32Z</time>
      </trkpt>
      <trkpt lat="28.6173200" lon="-17.8596800">
        <ele>1092.6</ele>
        <time>2020-11-17T09:42:33Z</time>
      </trkpt>
      <trkpt lat="28.6173420" lon="-17.8596680">
        <ele>1092.8</ele>
        <time>2020-11-17T09:42:34Z</time>
      </trkpt>
      <trkpt lat="28.6173420" lon="-17.8596680">
        <ele>1092.8</ele>
        <time>2020-11-17T09:42:35Z</time>
      </trkpt>
      <trkpt lat="28.6173870" lon="-17.8596350">
        <ele>1093.2</ele>
        <time>2020-11-17T09:42:36Z</time>
      </trkpt>
      <trkpt lat="28.6174070" lon="-17.8596270">
        <ele>1093.3</ele>
        <time>2020-11-17T09:42:37Z</time>
      </trkpt>
      <trkpt lat="28.6174070" lon="-17.8596270">
        <ele>1093.3</ele>
        <time>2020-11-17T09:42:38Z</time>
      </trkpt>
      <trkpt lat="28.6174450" lon="-17.8596080">
        <ele>1093.6</ele>
        <time>2020-11-17T09:42:39Z</time>
      </trkpt>
      <trkpt lat="28.6174450" lon="-17.8596080">
        <ele>1093.6</ele>
        <time>2020-11-17T09:42:40Z</time>
      </trkpt>
      <trkpt lat="28.6174780" lon="-17.8595920">
        <ele>1093.9</ele>
        <time>2020-11-17T09:42:41Z</time>
      </trkpt>
      <trkpt lat="28.6174950" lon="-17.8595850">
        <ele>1094.0</ele>
        <time>2020-11-17T09:42:42Z</time>
      </trkpt>
      <trkpt lat="28.6174950" lon="-17.8595850">
        <ele>1094.0</ele>
        <time>2020-11-17T09:42:43Z</time>
      </trkpt>
      <trkpt lat="28.6175320" lon="-17.8595770">
        <ele>1094.3</ele>
        <time>2020-11-17T09:42:44Z</time>
      </trkpt>
      <trkpt lat="28.6175320" lon="-17.8595770">
        <ele>1094.3</ele>
        <time>2020-11-17T09:42:45Z</time>
      </trkpt>
      <trkpt lat="28.6175680" lon="-17.8595720">
        <ele>1094.6</ele>
        <time>2020-11-17T09:42:46Z</time>
      </trkpt>
      <trkpt lat="28.6175680" lon="-17.8595720">
        <ele>1094.6</ele>
        <time>2020-11-17T09:42:47Z</time>
      </trkpt>
      <trkpt lat="28.6176070" lon="-17.8595620">
        <ele>1094.9</ele>
        <time>2020-11-17T09:42:48Z</time>
      </trkpt>
      <trkpt lat="28.6176070" lon="-17.8595620">
        <ele>1094.9</ele>
        <time>2020-11-17T09:42:49Z</time>
      </trkpt>
      <trkpt lat="28.6176350" lon="-17.8595550">
        <ele>1095.2</ele>
        <time>2020-11-17T09:42:50Z</time>
      </trkpt>
      <trkpt lat="28.6176350" lon="-17.8595550">
        <ele>1095.2</ele>
        <time>2020-11-17T09:42:51Z</time>
      </trkpt>
      <trkpt lat="28.6176620" lon="-17.8595370">
        <ele>1095.4</ele>
        <time>2020-11-17T09:42:52Z</time>
      </trkpt>
      <trkpt lat="28.6176780" lon="-17.8595300">
        <ele>1095.5</ele>
        <time>2020-11-17T09:42:53Z</time>
      </trkpt>
      <trkpt lat="28.6176780" lon="-17.8595300">
        <ele>1095.5</ele>
        <time>2020-11-17T09:42:54Z</time>
      </trkpt>
      <trkpt lat="28.6177130" lon="-17.8595170">
        <ele>1095.8</ele>
        <time>2020-11-17T09:42:55Z</time>
      </trkpt>
      <trkpt lat="28.6177130" lon="-17.8595170">
        <ele>1095.8</ele>
        <time>2020-11-17T09:42:56Z</time>
      </trkpt>
      <trkpt lat="28.6177470" lon="-17.8595000">
        <ele>1096.1</ele>
        <time>2020-11-17T09:42:57Z</time>
      </trkpt>
      <trkpt lat="28.6177620" lon="-17.8594950">
        <ele>1096.3</ele>
        <time>2020-11-17T09:42:58Z</time>
      </trkpt>
      <trkpt lat="28.6177620" lon="-17.8594950">
        <ele>1096.3</ele>
        <time>2020-11-17T09:42:59Z</time>
      </trkpt>
      <trkpt lat="28.6177950" lon="-17.8594820">
        <ele>1096.5</ele>
        <time>2020-11-17T09:43:00Z</time>
      </trkpt>
      <trkpt lat="28.6177950" lon="-17.8594820">
        <ele>1096.5</ele>
        <time>2020-11-17T09:43:01Z</time>
      </trkpt>
      <trkpt lat="28.6178320" lon="-17.8594570">
        <ele>1096.9</ele>
        <time>2020-11-17T09:43:02Z</time>
      </trkpt>
      <trkpt lat="28.6178320" lon="-17.8594570">
        <ele>1096.9</ele>
        <time>2020-11-17T09:43:03Z</time>
      </trkpt>
      <trkpt lat="28.6178680" lon="-17.8594330">
        <ele>1097.2</ele>
        <time>2020-11-17T09:43:04Z</time>
      </trkpt>
      <trkpt lat="28.6178680" lon="-17.8594330">
        <ele>1097.2</ele>
        <time>2020-11-17T09:43:05Z</time>
      </trkpt>
      <trkpt lat="28.6179000" lon="-17.8594180">
        <ele>1097.5</ele>
        <time>2020-11-17T09:43:06Z</time>
      </trkpt>
      <trkpt lat="28.6179000" lon="-17.8594180">
        <ele>1097.5</ele>
        <time>2020-11-17T09:43:07Z</time>
      </trkpt>
      <trkpt lat="28.6179350" lon="-17.8593970">
        <ele>1097.8</ele>
        <time>2020-11-17T09:43:08Z</time>
      </trkpt>
      <trkpt lat="28.6179550" lon="-17.8593880">
        <ele>1097.9</ele>
        <time>2020-11-17T09:43:09Z</time>
      </trkpt>
      <trkpt lat="28.6179550" lon="-17.8593880">
        <ele>1097.9</ele>
        <time>2020-11-17T09:43:10Z</time>
      </trkpt>
      <trkpt lat="28.6179950" lon="-17.8593670">
        <ele>1098.2</ele>
        <time>2020-11-17T09:43:11Z</time>
      </trkpt>
      <trkpt lat="28.6180120" lon="-17.8593570">
        <ele>1098.4</ele>
        <time>2020-11-17T09:43:12Z</time>
      </trkpt>
      <trkpt lat="28.6180120" lon="-17.8593570">
        <ele>1098.4</ele>
        <time>2020-11-17T09:43:13Z</time>
      </trkpt>
      <trkpt lat="28.6180470" lon="-17.8593330">
        <ele>1098.7</ele>
        <time>2020-11-17T09:43:14Z</time>
      </trkpt>
      <trkpt lat="28.6180470" lon="-17.8593330">
        <ele>1098.7</ele>
        <time>2020-11-17T09:43:15Z</time>
      </trkpt>
      <trkpt lat="28.6180850" lon="-17.8593080">
        <ele>1099.0</ele>
        <time>2020-11-17T09:43:16Z</time>
      </trkpt>
      <trkpt lat="28.6180850" lon="-17.8593080">
        <ele>1099.0</ele>
        <time>2020-11-17T09:43:17Z</time>
      </trkpt>
      <trkpt lat="28.6181250" lon="-17.8592970">
        <ele>1099.3</ele>
        <time>2020-11-17T09:43:18Z</time>
      </trkpt>
      <trkpt lat="28.6181250" lon="-17.8592970">
        <ele>1099.3</ele>
        <time>2020-11-17T09:43:19Z</time>
      </trkpt>
      <trkpt lat="28.6181630" lon="-17.8592880">
        <ele>1099.6</ele>
        <time>2020-11-17T09:43:20Z</time>
      </trkpt>
      <trkpt lat="28.6181820" lon="-17.8592850">
        <ele>1099.7</ele>
        <time>2020-11-17T09:43:21Z</time>
      </trkpt>
      <trkpt lat="28.6181820" lon="-17.8592850">
        <ele>1099.7</ele>
        <time>2020-11-17T09:43:22Z</time>
      </trkpt>
      <trkpt lat="28.6182180" lon="-17.8592700">
        <ele>1100.0</ele>
        <time>2020-11-17T09:43:23Z</time>
      </trkpt>
      <trkpt lat="28.6182350" lon="-17.8592580">
        <ele>1100.1</ele>
        <time>2020-11-17T09:43:24Z</time>
      </trkpt>
      <trkpt lat="28.6182520" lon="-17.8592450">
        <ele>1100.3</ele>
        <time>2020-11-17T09:43:25Z</time>
      </trkpt>
      <trkpt lat="28.6182520" lon="-17.8592450">
        <ele>1100.3</ele>
        <time>2020-11-17T09:43:26Z</time>
      </trkpt>
      <trkpt lat="28.6182870" lon="-17.8592130">
        <ele>1100.6</ele>
        <time>2020-11-17T09:43:27Z</time>
      </trkpt>
      <trkpt lat="28.6182870" lon="-17.8592130">
        <ele>1100.6</ele>
        <time>2020-11-17T09:43:28Z</time>
      </trkpt>
      <trkpt lat="28.6183230" lon="-17.8591750">
        <ele>1101.0</ele>
        <time>2020-11-17T09:43:29Z</time>
      </trkpt>
      <trkpt lat="28.6183420" lon="-17.8591600">
        <ele>1101.1</ele>
        <time>2020-11-17T09:43:30Z</time>
      </trkpt>
      <trkpt lat="28.6183420" lon="-17.8591600">
        <ele>1101.1</ele>
        <time>2020-11-17T09:43:31Z</time>
      </trkpt>
      <trkpt lat="28.6183680" lon="-17.8591250">
        <ele>1101.4</ele>
        <time>2020-11-17T09:43:32Z</time>
      </trkpt>
      <trkpt lat="28.6183680" lon="-17.8591250">
        <ele>1101.4</ele>
        <time>2020-11-17T09:43:33Z</time>
      </trkpt>
      <trkpt lat="28.6183950" lon="-17.8590700">
        <ele>1101.9</ele>
        <time>2020-11-17T09:43:34Z</time>
      </trkpt>
      <trkpt lat="28.6184070" lon="-17.8590480">
        <ele>1102.0</ele>
        <time>2020-11-17T09:43:35Z</time>
      </trkpt>
      <trkpt lat="28.6184070" lon="-17.8590480">
        <ele>1102.0</ele>
        <time>2020-11-17T09:43:36Z</time>
      </trkpt>
      <trkpt lat="28.6184350" lon="-17.8590180">
        <ele>1102.3</ele>
        <time>2020-11-17T09:43:37Z</time>
      </trkpt>
      <trkpt lat="28.6184350" lon="-17.8590180">
        <ele>1102.3</ele>
        <time>2020-11-17T09:43:38Z</time>
      </trkpt>
      <trkpt lat="28.6184600" lon="-17.8589930">
        <ele>1102.6</ele>
        <time>2020-11-17T09:43:39Z</time>
      </trkpt>
      <trkpt lat="28.6184600" lon="-17.8589930">
        <ele>1102.6</ele>
        <time>2020-11-17T09:43:40Z</time>
      </trkpt>
      <trkpt lat="28.6184850" lon="-17.8589680">
        <ele>1102.9</ele>
        <time>2020-11-17T09:43:41Z</time>
      </trkpt>
      <trkpt lat="28.6184980" lon="-17.8589520">
        <ele>1103.1</ele>
        <time>2020-11-17T09:43:42Z</time>
      </trkpt>
      <trkpt lat="28.6184980" lon="-17.8589520">
        <ele>1103.1</ele>
        <time>2020-11-17T09:43:43Z</time>
      </trkpt>
      <trkpt lat="28.6185230" lon="-17.8589230">
        <ele>1103.4</ele>
        <time>2020-11-17T09:43:44Z</time>
      </trkpt>
      <trkpt lat="28.6185230" lon="-17.8589230">
        <ele>1103.4</ele>
        <time>2020-11-17T09:43:45Z</time>
      </trkpt>
      <trkpt lat="28.6185480" lon="-17.8589000">
        <ele>1103.6</ele>
        <time>2020-11-17T09:43:46Z</time>
      </trkpt>
      <trkpt lat="28.6185580" lon="-17.8588830">
        <ele>1103.8</ele>
        <time>2020-11-17T09:43:47Z</time>
      </trkpt>
      <trkpt lat="28.6185580" lon="-17.8588830">
        <ele>1103.8</ele>
        <time>2020-11-17T09:43:48Z</time>
      </trkpt>
      <trkpt lat="28.6185930" lon="-17.8588580">
        <ele>1104.2</ele>
        <time>2020-11-17T09:43:49Z</time>
      </trkpt>
      <trkpt lat="28.6185930" lon="-17.8588580">
        <ele>1104.2</ele>
        <time>2020-11-17T09:43:50Z</time>
      </trkpt>
      <trkpt lat="28.6186220" lon="-17.8588400">
        <ele>1104.5</ele>
        <time>2020-11-17T09:43:51Z</time>
      </trkpt>
      <trkpt lat="28.6186220" lon="-17.8588400">
        <ele>1104.5</ele>
        <time>2020-11-17T09:43:52Z</time>
      </trkpt>
      <trkpt lat="28.6186470" lon="-17.8588130">
        <ele>1104.8</ele>
        <time>2020-11-17T09:43:53Z</time>
      </trkpt>
      <trkpt lat="28.6186470" lon="-17.8588130">
        <ele>1104.8</ele>
        <time>2020-11-17T09:43:54Z</time>
      </trkpt>
      <trkpt lat="28.6186830" lon="-17.8587980">
        <ele>1105.1</ele>
        <time>2020-11-17T09:43:55Z</time>
      </trkpt>
      <trkpt lat="28.6187020" lon="-17.8587880">
        <ele>1105.3</ele>
        <time>2020-11-17T09:43:56Z</time>
      </trkpt>
      <trkpt lat="28.6187170" lon="-17.8587780">
        <ele>1105.4</ele>
        <time>2020-11-17T09:43:57Z</time>
      </trkpt>
      <trkpt lat="28.6187170" lon="-17.8587780">
        <ele>1105.4</ele>
        <time>2020-11-17T09:43:58Z</time>
      </trkpt>
      <trkpt lat="28.6187600" lon="-17.8587670">
        <ele>1105.8</ele>
        <time>2020-11-17T09:43:59Z</time>
      </trkpt>
      <trkpt lat="28.6187600" lon="-17.8587670">
        <ele>1105.8</ele>
        <time>2020-11-17T09:44:00Z</time>
      </trkpt>
      <trkpt lat="28.6188020" lon="-17.8587580">
        <ele>1106.1</ele>
        <time>2020-11-17T09:44:01Z</time>
      </trkpt>
      <trkpt lat="28.6188220" lon="-17.8587620">
        <ele>1106.3</ele>
        <time>2020-11-17T09:44:02Z</time>
      </trkpt>
      <trkpt lat="28.6188220" lon="-17.8587620">
        <ele>1106.3</ele>
        <time>2020-11-17T09:44:03Z</time>
      </trkpt>
      <trkpt lat="28.6188830" lon="-17.8587700">
        <ele>1106.7</ele>
        <time>2020-11-17T09:44:04Z</time>
      </trkpt>
      <trkpt lat="28.6188830" lon="-17.8587700">
        <ele>1106.7</ele>
        <time>2020-11-17T09:44:05Z</time>
      </trkpt>
      <trkpt lat="28.6189300" lon="-17.8587820">
        <ele>1107.1</ele>
        <time>2020-11-17T09:44:06Z</time>
      </trkpt>
      <trkpt lat="28.6189300" lon="-17.8587820">
        <ele>1107.1</ele>
        <time>2020-11-17T09:44:07Z</time>
      </trkpt>
      <trkpt lat="28.6189750" lon="-17.8587800">
        <ele>1107.4</ele>
        <time>2020-11-17T09:44:08Z</time>
      </trkpt>
      <trkpt lat="28.6189750" lon="-17.8587800">
        <ele>1107.4</ele>
        <time>2020-11-17T09:44:09Z</time>
      </trkpt>
      <trkpt lat="28.6190180" lon="-17.8587870">
        <ele>1107.8</ele>
        <time>2020-11-17T09:44:10Z</time>
      </trkpt>
      <trkpt lat="28.6190180" lon="-17.8587870">
        <ele>1107.8</ele>
        <time>2020-11-17T09:44:11Z</time>
      </trkpt>
      <trkpt lat="28.6190580" lon="-17.8587970">
        <ele>1108.1</ele>
        <time>2020-11-17T09:44:12Z</time>
      </trkpt>
      <trkpt lat="28.6190770" lon="-17.8587930">
        <ele>1108.3</ele>
        <time>2020-11-17T09:44:13Z</time>
      </trkpt>
      <trkpt lat="28.6190770" lon="-17.8587930">
        <ele>1108.3</ele>
        <time>2020-11-17T09:44:14Z</time>
      </trkpt>
      <trkpt lat="28.6191200" lon="-17.8588000">
        <ele>1108.6</ele>
        <time>2020-11-17T09:44:15Z</time>
      </trkpt>
      <trkpt lat="28.6191200" lon="-17.8588000">
        <ele>1108.6</ele>
        <time>2020-11-17T09:44:16Z</time>
      </trkpt>
      <trkpt lat="28.6191550" lon="-17.8588020">
        <ele>1109.0</ele>
        <time>2020-11-17T09:44:17Z</time>
      </trkpt>
      <trkpt lat="28.6191720" lon="-17.8587980">
        <ele>1109.1</ele>
        <time>2020-11-17T09:44:18Z</time>
      </trkpt>
      <trkpt lat="28.6191720" lon="-17.8587980">
        <ele>1109.1</ele>
        <time>2020-11-17T09:44:19Z</time>
      </trkpt>
      <trkpt lat="28.6192070" lon="-17.8587930">
        <ele>1109.5</ele>
        <time>2020-11-17T09:44:20Z</time>
      </trkpt>
      <trkpt lat="28.6192070" lon="-17.8587930">
        <ele>1109.5</ele>
        <time>2020-11-17T09:44:21Z</time>
      </trkpt>
      <trkpt lat="28.6192350" lon="-17.8587770">
        <ele>1109.8</ele>
        <time>2020-11-17T09:44:22Z</time>
      </trkpt>
      <trkpt lat="28.6192520" lon="-17.8587670">
        <ele>1109.9</ele>
        <time>2020-11-17T09:44:23Z</time>
      </trkpt>
      <trkpt lat="28.6192670" lon="-17.8587530">
        <ele>1110.1</ele>
        <time>2020-11-17T09:44:24Z</time>
      </trkpt>
      <trkpt lat="28.6192670" lon="-17.8587530">
        <ele>1110.1</ele>
        <time>2020-11-17T09:44:25Z</time>
      </trkpt>
      <trkpt lat="28.6192970" lon="-17.8587230">
        <ele>1110.5</ele>
        <time>2020-11-17T09:44:26Z</time>
      </trkpt>
      <trkpt lat="28.6192970" lon="-17.8587230">
        <ele>1110.5</ele>
        <time>2020-11-17T09:44:27Z</time>
      </trkpt>
      <trkpt lat="28.6193280" lon="-17.8586920">
        <ele>1110.8</ele>
        <time>2020-11-17T09:44:28Z</time>
      </trkpt>
      <trkpt lat="28.6193450" lon="-17.8586770">
        <ele>1111.0</ele>
        <time>2020-11-17T09:44:29Z</time>
      </trkpt>
      <trkpt lat="28.6193450" lon="-17.8586770">
        <ele>1111.0</ele>
        <time>2020-11-17T09:44:30Z</time>
      </trkpt>
      <trkpt lat="28.6193780" lon="-17.8586730">
        <ele>1111.3</ele>
        <time>2020-11-17T09:44:31Z</time>
      </trkpt>
      <trkpt lat="28.6193780" lon="-17.8586730">
        <ele>1111.3</ele>
        <time>2020-11-17T09:44:32Z</time>
      </trkpt>
      <trkpt lat="28.6194020" lon="-17.8586620">
        <ele>1111.5</ele>
        <time>2020-11-17T09:44:33Z</time>
      </trkpt>
      <trkpt lat="28.6194170" lon="-17.8586530">
        <ele>1111.6</ele>
        <time>2020-11-17T09:44:34Z</time>
      </trkpt>
      <trkpt lat="28.6194170" lon="-17.8586530">
        <ele>1111.6</ele>
        <time>2020-11-17T09:44:35Z</time>
      </trkpt>
      <trkpt lat="28.6194530" lon="-17.8586420">
        <ele>1111.9</ele>
        <time>2020-11-17T09:44:36Z</time>
      </trkpt>
      <trkpt lat="28.6194530" lon="-17.8586420">
        <ele>1111.9</ele>
        <time>2020-11-17T09:44:37Z</time>
      </trkpt>
      <trkpt lat="28.6194800" lon="-17.8586350">
        <ele>1112.1</ele>
        <time>2020-11-17T09:44:38Z</time>
      </trkpt>
      <trkpt lat="28.6194980" lon="-17.8586270">
        <ele>1112.3</ele>
        <time>2020-11-17T09:44:39Z</time>
      </trkpt>
      <trkpt lat="28.6194980" lon="-17.8586270">
        <ele>1112.3</ele>
        <time>2020-11-17T09:44:40Z</time>
      </trkpt>
      <trkpt lat="28.6195350" lon="-17.8586070">
        <ele>1112.6</ele>
        <time>2020-11-17T09:44:41Z</time>
      </trkpt>
      <trkpt lat="28.6195550" lon="-17.8586000">
        <ele>1112.7</ele>
        <time>2020-11-17T09:44:42Z</time>
      </trkpt>
      <trkpt lat="28.6195550" lon="-17.8586000">
        <ele>1112.7</ele>
        <time>2020-11-17T09:44:43Z</time>
      </trkpt>
      <trkpt lat="28.6195980" lon="-17.8585930">
        <ele>1113.0</ele>
        <time>2020-11-17T09:44:44Z</time>
      </trkpt>
      <trkpt lat="28.6196150" lon="-17.8585880">
        <ele>1113.2</ele>
        <time>2020-11-17T09:44:45Z</time>
      </trkpt>
      <trkpt lat="28.6196150" lon="-17.8585880">
        <ele>1113.2</ele>
        <time>2020-11-17T09:44:46Z</time>
      </trkpt>
      <trkpt lat="28.6196450" lon="-17.8585670">
        <ele>1113.2</ele>
        <time>2020-11-17T09:44:47Z</time>
      </trkpt>
      <trkpt lat="28.6196450" lon="-17.8585670">
        <ele>1113.2</ele>
        <time>2020-11-17T09:44:48Z</time>
      </trkpt>
      <trkpt lat="28.6196830" lon="-17.8585430">
        <ele>1113.2</ele>
        <time>2020-11-17T09:44:49Z</time>
      </trkpt>
      <trkpt lat="28.6196830" lon="-17.8585430">
        <ele>1113.2</ele>
        <time>2020-11-17T09:44:50Z</time>
      </trkpt>
      <trkpt lat="28.6197020" lon="-17.8585120">
        <ele>1113.4</ele>
        <time>2020-11-17T09:44:51Z</time>
      </trkpt>
      <trkpt lat="28.6197150" lon="-17.8584970">
        <ele>1113.5</ele>
        <time>2020-11-17T09:44:52Z</time>
      </trkpt>
      <trkpt lat="28.6197150" lon="-17.8584970">
        <ele>1113.5</ele>
        <time>2020-11-17T09:44:53Z</time>
      </trkpt>
      <trkpt lat="28.6197430" lon="-17.8584630">
        <ele>1113.7</ele>
        <time>2020-11-17T09:44:54Z</time>
      </trkpt>
      <trkpt lat="28.6197430" lon="-17.8584630">
        <ele>1113.7</ele>
        <time>2020-11-17T09:44:55Z</time>
      </trkpt>
      <trkpt lat="28.6197680" lon="-17.8584330">
        <ele>1114.0</ele>
        <time>2020-11-17T09:44:56Z</time>
      </trkpt>
      <trkpt lat="28.6197680" lon="-17.8584330">
        <ele>1114.0</ele>
        <time>2020-11-17T09:44:57Z</time>
      </trkpt>
      <trkpt lat="28.6197980" lon="-17.8584020">
        <ele>1114.3</ele>
        <time>2020-11-17T09:44:58Z</time>
      </trkpt>
      <trkpt lat="28.6197980" lon="-17.8584020">
        <ele>1114.3</ele>
        <time>2020-11-17T09:44:59Z</time>
      </trkpt>
      <trkpt lat="28.6198170" lon="-17.8583670">
        <ele>1114.5</ele>
        <time>2020-11-17T09:45:00Z</time>
      </trkpt>
      <trkpt lat="28.6198250" lon="-17.8583500">
        <ele>1114.7</ele>
        <time>2020-11-17T09:45:01Z</time>
      </trkpt>
      <trkpt lat="28.6198250" lon="-17.8583500">
        <ele>1114.7</ele>
        <time>2020-11-17T09:45:02Z</time>
      </trkpt>
      <trkpt lat="28.6198470" lon="-17.8583180">
        <ele>1115.0</ele>
        <time>2020-11-17T09:45:03Z</time>
      </trkpt>
      <trkpt lat="28.6198470" lon="-17.8583180">
        <ele>1115.0</ele>
        <time>2020-11-17T09:45:04Z</time>
      </trkpt>
      <trkpt lat="28.6198680" lon="-17.8582900">
        <ele>1115.2</ele>
        <time>2020-11-17T09:45:05Z</time>
      </trkpt>
      <trkpt lat="28.6198680" lon="-17.8582900">
        <ele>1115.2</ele>
        <time>2020-11-17T09:45:06Z</time>
      </trkpt>
      <trkpt lat="28.6198920" lon="-17.8582650">
        <ele>1115.5</ele>
        <time>2020-11-17T09:45:07Z</time>
      </trkpt>
      <trkpt lat="28.6198920" lon="-17.8582650">
        <ele>1115.5</ele>
        <time>2020-11-17T09:45:08Z</time>
      </trkpt>
      <trkpt lat="28.6199170" lon="-17.8582370">
        <ele>1115.8</ele>
        <time>2020-11-17T09:45:09Z</time>
      </trkpt>
      <trkpt lat="28.6199170" lon="-17.8582370">
        <ele>1115.8</ele>
        <time>2020-11-17T09:45:10Z</time>
      </trkpt>
      <trkpt lat="28.6199300" lon="-17.8581970">
        <ele>1116.1</ele>
        <time>2020-11-17T09:45:11Z</time>
      </trkpt>
      <trkpt lat="28.6199300" lon="-17.8581970">
        <ele>1116.1</ele>
        <time>2020-11-17T09:45:12Z</time>
      </trkpt>
      <trkpt lat="28.6199450" lon="-17.8581680">
        <ele>1116.4</ele>
        <time>2020-11-17T09:45:13Z</time>
      </trkpt>
      <trkpt lat="28.6199450" lon="-17.8581680">
        <ele>1116.4</ele>
        <time>2020-11-17T09:45:14Z</time>
      </trkpt>
      <trkpt lat="28.6199700" lon="-17.8581450">
        <ele>1116.6</ele>
        <time>2020-11-17T09:45:15Z</time>
      </trkpt>
      <trkpt lat="28.6199700" lon="-17.8581450">
        <ele>1116.6</ele>
        <time>2020-11-17T09:45:16Z</time>
      </trkpt>
      <trkpt lat="28.6199930" lon="-17.8581280">
        <ele>1116.9</ele>
        <time>2020-11-17T09:45:17Z</time>
      </trkpt>
      <trkpt lat="28.6199930" lon="-17.8581280">
        <ele>1116.9</ele>
        <time>2020-11-17T09:45:18Z</time>
      </trkpt>
      <trkpt lat="28.6200230" lon="-17.8581150">
        <ele>1117.2</ele>
        <time>2020-11-17T09:45:19Z</time>
      </trkpt>
      <trkpt lat="28.6200230" lon="-17.8581150">
        <ele>1117.2</ele>
        <time>2020-11-17T09:45:20Z</time>
      </trkpt>
      <trkpt lat="28.6200600" lon="-17.8581020">
        <ele>1117.5</ele>
        <time>2020-11-17T09:45:21Z</time>
      </trkpt>
      <trkpt lat="28.6200600" lon="-17.8581020">
        <ele>1117.5</ele>
        <time>2020-11-17T09:45:22Z</time>
      </trkpt>
      <trkpt lat="28.6200980" lon="-17.8580880">
        <ele>1117.9</ele>
        <time>2020-11-17T09:45:23Z</time>
      </trkpt>
      <trkpt lat="28.6201170" lon="-17.8580850">
        <ele>1118.0</ele>
        <time>2020-11-17T09:45:24Z</time>
      </trkpt>
      <trkpt lat="28.6201170" lon="-17.8580850">
        <ele>1118.0</ele>
        <time>2020-11-17T09:45:25Z</time>
      </trkpt>
      <trkpt lat="28.6201480" lon="-17.8580780">
        <ele>1118.3</ele>
        <time>2020-11-17T09:45:26Z</time>
      </trkpt>
      <trkpt lat="28.6201480" lon="-17.8580780">
        <ele>1118.3</ele>
        <time>2020-11-17T09:45:27Z</time>
      </trkpt>
      <trkpt lat="28.6201750" lon="-17.8580670">
        <ele>1118.5</ele>
        <time>2020-11-17T09:45:28Z</time>
      </trkpt>
      <trkpt lat="28.6201750" lon="-17.8580670">
        <ele>1118.5</ele>
        <time>2020-11-17T09:45:29Z</time>
      </trkpt>
      <trkpt lat="28.6202080" lon="-17.8580520">
        <ele>1118.8</ele>
        <time>2020-11-17T09:45:30Z</time>
      </trkpt>
      <trkpt lat="28.6202080" lon="-17.8580520">
        <ele>1118.8</ele>
        <time>2020-11-17T09:45:31Z</time>
      </trkpt>
      <trkpt lat="28.6202430" lon="-17.8580350">
        <ele>1119.2</ele>
        <time>2020-11-17T09:45:32Z</time>
      </trkpt>
      <trkpt lat="28.6202580" lon="-17.8580270">
        <ele>1119.3</ele>
        <time>2020-11-17T09:45:33Z</time>
      </trkpt>
      <trkpt lat="28.6202580" lon="-17.8580270">
        <ele>1119.3</ele>
        <time>2020-11-17T09:45:34Z</time>
      </trkpt>
      <trkpt lat="28.6202850" lon="-17.8580100">
        <ele>1119.6</ele>
        <time>2020-11-17T09:45:35Z</time>
      </trkpt>
      <trkpt lat="28.6202850" lon="-17.8580100">
        <ele>1119.6</ele>
        <time>2020-11-17T09:45:36Z</time>
      </trkpt>
      <trkpt lat="28.6203130" lon="-17.8579870">
        <ele>1119.9</ele>
        <time>2020-11-17T09:45:37Z</time>
      </trkpt>
      <trkpt lat="28.6203130" lon="-17.8579870">
        <ele>1119.9</ele>
        <time>2020-11-17T09:45:38Z</time>
      </trkpt>
      <trkpt lat="28.6203430" lon="-17.8579480">
        <ele>1120.3</ele>
        <time>2020-11-17T09:45:39Z</time>
      </trkpt>
      <trkpt lat="28.6203430" lon="-17.8579480">
        <ele>1120.3</ele>
        <time>2020-11-17T09:45:40Z</time>
      </trkpt>
      <trkpt lat="28.6203730" lon="-17.8579400">
        <ele>1120.5</ele>
        <time>2020-11-17T09:45:41Z</time>
      </trkpt>
      <trkpt lat="28.6203730" lon="-17.8579400">
        <ele>1120.5</ele>
        <time>2020-11-17T09:45:42Z</time>
      </trkpt>
      <trkpt lat="28.6204020" lon="-17.8579250">
        <ele>1120.8</ele>
        <time>2020-11-17T09:45:43Z</time>
      </trkpt>
      <trkpt lat="28.6204020" lon="-17.8579250">
        <ele>1120.8</ele>
        <time>2020-11-17T09:45:44Z</time>
      </trkpt>
      <trkpt lat="28.6204270" lon="-17.8578970">
        <ele>1121.1</ele>
        <time>2020-11-17T09:45:45Z</time>
      </trkpt>
      <trkpt lat="28.6204270" lon="-17.8578970">
        <ele>1121.1</ele>
        <time>2020-11-17T09:45:46Z</time>
      </trkpt>
      <trkpt lat="28.6204430" lon="-17.8578720">
        <ele>1121.3</ele>
        <time>2020-11-17T09:45:47Z</time>
      </trkpt>
      <trkpt lat="28.6204430" lon="-17.8578720">
        <ele>1121.3</ele>
        <time>2020-11-17T09:45:48Z</time>
      </trkpt>
      <trkpt lat="28.6204620" lon="-17.8578250">
        <ele>1121.7</ele>
        <time>2020-11-17T09:45:49Z</time>
      </trkpt>
      <trkpt lat="28.6204620" lon="-17.8578250">
        <ele>1121.7</ele>
        <time>2020-11-17T09:45:50Z</time>
      </trkpt>
      <trkpt lat="28.6204850" lon="-17.8577820">
        <ele>1122.1</ele>
        <time>2020-11-17T09:45:51Z</time>
      </trkpt>
      <trkpt lat="28.6204850" lon="-17.8577820">
        <ele>1122.1</ele>
        <time>2020-11-17T09:45:52Z</time>
      </trkpt>
      <trkpt lat="28.6205070" lon="-17.8577500">
        <ele>1122.4</ele>
        <time>2020-11-17T09:45:53Z</time>
      </trkpt>
      <trkpt lat="28.6205200" lon="-17.8577330">
        <ele>1122.5</ele>
        <time>2020-11-17T09:45:54Z</time>
      </trkpt>
      <trkpt lat="28.6205200" lon="-17.8577330">
        <ele>1122.5</ele>
        <time>2020-11-17T09:45:55Z</time>
      </trkpt>
      <trkpt lat="28.6205500" lon="-17.8577050">
        <ele>1122.8</ele>
        <time>2020-11-17T09:45:56Z</time>
      </trkpt>
      <trkpt lat="28.6205500" lon="-17.8577050">
        <ele>1122.8</ele>
        <time>2020-11-17T09:45:57Z</time>
      </trkpt>
      <trkpt lat="28.6205820" lon="-17.8576870">
        <ele>1123.1</ele>
        <time>2020-11-17T09:45:58Z</time>
      </trkpt>
      <trkpt lat="28.6205820" lon="-17.8576870">
        <ele>1123.1</ele>
        <time>2020-11-17T09:45:59Z</time>
      </trkpt>
      <trkpt lat="28.6206180" lon="-17.8576780">
        <ele>1123.3</ele>
        <time>2020-11-17T09:46:00Z</time>
      </trkpt>
      <trkpt lat="28.6206380" lon="-17.8576800">
        <ele>1123.5</ele>
        <time>2020-11-17T09:46:01Z</time>
      </trkpt>
      <trkpt lat="28.6206380" lon="-17.8576800">
        <ele>1123.5</ele>
        <time>2020-11-17T09:46:02Z</time>
      </trkpt>
      <trkpt lat="28.6206720" lon="-17.8576720">
        <ele>1123.7</ele>
        <time>2020-11-17T09:46:03Z</time>
      </trkpt>
      <trkpt lat="28.6206720" lon="-17.8576720">
        <ele>1123.7</ele>
        <time>2020-11-17T09:46:04Z</time>
      </trkpt>
      <trkpt lat="28.6207080" lon="-17.8576600">
        <ele>1124.0</ele>
        <time>2020-11-17T09:46:05Z</time>
      </trkpt>
      <trkpt lat="28.6207280" lon="-17.8576580">
        <ele>1124.2</ele>
        <time>2020-11-17T09:46:06Z</time>
      </trkpt>
      <trkpt lat="28.6207280" lon="-17.8576580">
        <ele>1124.2</ele>
        <time>2020-11-17T09:46:07Z</time>
      </trkpt>
      <trkpt lat="28.6207680" lon="-17.8576470">
        <ele>1124.5</ele>
        <time>2020-11-17T09:46:08Z</time>
      </trkpt>
      <trkpt lat="28.6207680" lon="-17.8576470">
        <ele>1124.5</ele>
        <time>2020-11-17T09:46:09Z</time>
      </trkpt>
      <trkpt lat="28.6208070" lon="-17.8576350">
        <ele>1124.8</ele>
        <time>2020-11-17T09:46:10Z</time>
      </trkpt>
      <trkpt lat="28.6208070" lon="-17.8576350">
        <ele>1124.8</ele>
        <time>2020-11-17T09:46:11Z</time>
      </trkpt>
      <trkpt lat="28.6208470" lon="-17.8576320">
        <ele>1125.1</ele>
        <time>2020-11-17T09:46:12Z</time>
      </trkpt>
      <trkpt lat="28.6208470" lon="-17.8576320">
        <ele>1125.1</ele>
        <time>2020-11-17T09:46:13Z</time>
      </trkpt>
      <trkpt lat="28.6208800" lon="-17.8576420">
        <ele>1125.4</ele>
        <time>2020-11-17T09:46:14Z</time>
      </trkpt>
      <trkpt lat="28.6208800" lon="-17.8576420">
        <ele>1125.4</ele>
        <time>2020-11-17T09:46:15Z</time>
      </trkpt>
      <trkpt lat="28.6209120" lon="-17.8576500">
        <ele>1125.7</ele>
        <time>2020-11-17T09:46:16Z</time>
      </trkpt>
      <trkpt lat="28.6209120" lon="-17.8576500">
        <ele>1125.7</ele>
        <time>2020-11-17T09:46:17Z</time>
      </trkpt>
      <trkpt lat="28.6209470" lon="-17.8576470">
        <ele>1125.9</ele>
        <time>2020-11-17T09:46:18Z</time>
      </trkpt>
      <trkpt lat="28.6209630" lon="-17.8576450">
        <ele>1126.1</ele>
        <time>2020-11-17T09:46:19Z</time>
      </trkpt>
      <trkpt lat="28.6209630" lon="-17.8576450">
        <ele>1126.1</ele>
        <time>2020-11-17T09:46:20Z</time>
      </trkpt>
      <trkpt lat="28.6209850" lon="-17.8576330">
        <ele>1126.3</ele>
        <time>2020-11-17T09:46:21Z</time>
      </trkpt>
      <trkpt lat="28.6210030" lon="-17.8576280">
        <ele>1126.4</ele>
        <time>2020-11-17T09:46:22Z</time>
      </trkpt>
      <trkpt lat="28.6210030" lon="-17.8576280">
        <ele>1126.4</ele>
        <time>2020-11-17T09:46:23Z</time>
      </trkpt>
      <trkpt lat="28.6210330" lon="-17.8576020">
        <ele>1126.7</ele>
        <time>2020-11-17T09:46:24Z</time>
      </trkpt>
      <trkpt lat="28.6210330" lon="-17.8576020">
        <ele>1126.7</ele>
        <time>2020-11-17T09:46:25Z</time>
      </trkpt>
      <trkpt lat="28.6210700" lon="-17.8575780">
        <ele>1127.0</ele>
        <time>2020-11-17T09:46:26Z</time>
      </trkpt>
      <trkpt lat="28.6210700" lon="-17.8575780">
        <ele>1127.0</ele>
        <time>2020-11-17T09:46:27Z</time>
      </trkpt>
      <trkpt lat="28.6211030" lon="-17.8575570">
        <ele>1127.3</ele>
        <time>2020-11-17T09:46:28Z</time>
      </trkpt>
      <trkpt lat="28.6211030" lon="-17.8575570">
        <ele>1127.3</ele>
        <time>2020-11-17T09:46:29Z</time>
      </trkpt>
      <trkpt lat="28.6211350" lon="-17.8575250">
        <ele>1127.7</ele>
        <time>2020-11-17T09:46:30Z</time>
      </trkpt>
      <trkpt lat="28.6211350" lon="-17.8575250">
        <ele>1127.7</ele>
        <time>2020-11-17T09:46:31Z</time>
      </trkpt>
      <trkpt lat="28.6211670" lon="-17.8574930">
        <ele>1128.0</ele>
        <time>2020-11-17T09:46:32Z</time>
      </trkpt>
      <trkpt lat="28.6211670" lon="-17.8574930">
        <ele>1128.0</ele>
        <time>2020-11-17T09:46:33Z</time>
      </trkpt>
      <trkpt lat="28.6211920" lon="-17.8574570">
        <ele>1128.3</ele>
        <time>2020-11-17T09:46:34Z</time>
      </trkpt>
      <trkpt lat="28.6211920" lon="-17.8574570">
        <ele>1128.3</ele>
        <time>2020-11-17T09:46:35Z</time>
      </trkpt>
      <trkpt lat="28.6212220" lon="-17.8574170">
        <ele>1128.6</ele>
        <time>2020-11-17T09:46:36Z</time>
      </trkpt>
      <trkpt lat="28.6212380" lon="-17.8573980">
        <ele>1128.8</ele>
        <time>2020-11-17T09:46:37Z</time>
      </trkpt>
      <trkpt lat="28.6212380" lon="-17.8573980">
        <ele>1128.8</ele>
        <time>2020-11-17T09:46:38Z</time>
      </trkpt>
      <trkpt lat="28.6212730" lon="-17.8573600">
        <ele>1129.2</ele>
        <time>2020-11-17T09:46:39Z</time>
      </trkpt>
      <trkpt lat="28.6212730" lon="-17.8573600">
        <ele>1129.2</ele>
        <time>2020-11-17T09:46:40Z</time>
      </trkpt>
      <trkpt lat="28.6213020" lon="-17.8573370">
        <ele>1129.4</ele>
        <time>2020-11-17T09:46:41Z</time>
      </trkpt>
      <trkpt lat="28.6213220" lon="-17.8573280">
        <ele>1129.6</ele>
        <time>2020-11-17T09:46:42Z</time>
      </trkpt>
      <trkpt lat="28.6213220" lon="-17.8573280">
        <ele>1129.6</ele>
        <time>2020-11-17T09:46:43Z</time>
      </trkpt>
      <trkpt lat="28.6213570" lon="-17.8573270">
        <ele>1129.8</ele>
        <time>2020-11-17T09:46:44Z</time>
      </trkpt>
      <trkpt lat="28.6213750" lon="-17.8573280">
        <ele>1130.0</ele>
        <time>2020-11-17T09:46:45Z</time>
      </trkpt>
      <trkpt lat="28.6213750" lon="-17.8573280">
        <ele>1130.0</ele>
        <time>2020-11-17T09:46:46Z</time>
      </trkpt>
      <trkpt lat="28.6214120" lon="-17.8573330">
        <ele>1130.2</ele>
        <time>2020-11-17T09:46:47Z</time>
      </trkpt>
      <trkpt lat="28.6214120" lon="-17.8573330">
        <ele>1130.2</ele>
        <time>2020-11-17T09:46:48Z</time>
      </trkpt>
      <trkpt lat="28.6214420" lon="-17.8573320">
        <ele>1130.5</ele>
        <time>2020-11-17T09:46:49Z</time>
      </trkpt>
      <trkpt lat="28.6214420" lon="-17.8573320">
        <ele>1130.5</ele>
        <time>2020-11-17T09:46:50Z</time>
      </trkpt>
      <trkpt lat="28.6214770" lon="-17.8573400">
        <ele>1130.7</ele>
        <time>2020-11-17T09:46:51Z</time>
      </trkpt>
      <trkpt lat="28.6214770" lon="-17.8573400">
        <ele>1130.7</ele>
        <time>2020-11-17T09:46:52Z</time>
      </trkpt>
      <trkpt lat="28.6215120" lon="-17.8573400">
        <ele>1131.0</ele>
        <time>2020-11-17T09:46:53Z</time>
      </trkpt>
      <trkpt lat="28.6215120" lon="-17.8573400">
        <ele>1131.0</ele>
        <time>2020-11-17T09:46:54Z</time>
      </trkpt>
      <trkpt lat="28.6215370" lon="-17.8573400">
        <ele>1131.2</ele>
        <time>2020-11-17T09:46:55Z</time>
      </trkpt>
      <trkpt lat="28.6215370" lon="-17.8573400">
        <ele>1131.2</ele>
        <time>2020-11-17T09:46:56Z</time>
      </trkpt>
      <trkpt lat="28.6215670" lon="-17.8573320">
        <ele>1131.5</ele>
        <time>2020-11-17T09:46:57Z</time>
      </trkpt>
      <trkpt lat="28.6215820" lon="-17.8573180">
        <ele>1131.6</ele>
        <time>2020-11-17T09:46:58Z</time>
      </trkpt>
      <trkpt lat="28.6215980" lon="-17.8573030">
        <ele>1131.8</ele>
        <time>2020-11-17T09:46:59Z</time>
      </trkpt>
      <trkpt lat="28.6215980" lon="-17.8573030">
        <ele>1131.8</ele>
        <time>2020-11-17T09:47:00Z</time>
      </trkpt>
      <trkpt lat="28.6216200" lon="-17.8572680">
        <ele>1132.1</ele>
        <time>2020-11-17T09:47:01Z</time>
      </trkpt>
      <trkpt lat="28.6216270" lon="-17.8572520">
        <ele>1132.2</ele>
        <time>2020-11-17T09:47:02Z</time>
      </trkpt>
      <trkpt lat="28.6216270" lon="-17.8572520">
        <ele>1132.2</ele>
        <time>2020-11-17T09:47:03Z</time>
      </trkpt>
      <trkpt lat="28.6216430" lon="-17.8572120">
        <ele>1132.6</ele>
        <time>2020-11-17T09:47:04Z</time>
      </trkpt>
      <trkpt lat="28.6216430" lon="-17.8572120">
        <ele>1132.6</ele>
        <time>2020-11-17T09:47:05Z</time>
      </trkpt>
      <trkpt lat="28.6216620" lon="-17.8571670">
        <ele>1132.9</ele>
        <time>2020-11-17T09:47:06Z</time>
      </trkpt>
      <trkpt lat="28.6216620" lon="-17.8571670">
        <ele>1132.9</ele>
        <time>2020-11-17T09:47:07Z</time>
      </trkpt>
      <trkpt lat="28.6216820" lon="-17.8571230">
        <ele>1133.2</ele>
        <time>2020-11-17T09:47:08Z</time>
      </trkpt>
      <trkpt lat="28.6216820" lon="-17.8571230">
        <ele>1133.2</ele>
        <time>2020-11-17T09:47:09Z</time>
      </trkpt>
      <trkpt lat="28.6216980" lon="-17.8570800">
        <ele>1133.5</ele>
        <time>2020-11-17T09:47:10Z</time>
      </trkpt>
      <trkpt lat="28.6217120" lon="-17.8570620">
        <ele>1133.7</ele>
        <time>2020-11-17T09:47:11Z</time>
      </trkpt>
      <trkpt lat="28.6217120" lon="-17.8570620">
        <ele>1133.7</ele>
        <time>2020-11-17T09:47:12Z</time>
      </trkpt>
      <trkpt lat="28.6217400" lon="-17.8570470">
        <ele>1133.9</ele>
        <time>2020-11-17T09:47:13Z</time>
      </trkpt>
      <trkpt lat="28.6217400" lon="-17.8570470">
        <ele>1133.9</ele>
        <time>2020-11-17T09:47:14Z</time>
      </trkpt>
      <trkpt lat="28.6217700" lon="-17.8570370">
        <ele>1134.1</ele>
        <time>2020-11-17T09:47:15Z</time>
      </trkpt>
      <trkpt lat="28.6217700" lon="-17.8570370">
        <ele>1134.1</ele>
        <time>2020-11-17T09:47:16Z</time>
      </trkpt>
      <trkpt lat="28.6217970" lon="-17.8570180">
        <ele>1134.3</ele>
        <time>2020-11-17T09:47:17Z</time>
      </trkpt>
      <trkpt lat="28.6217970" lon="-17.8570180">
        <ele>1134.3</ele>
        <time>2020-11-17T09:47:18Z</time>
      </trkpt>
      <trkpt lat="28.6218300" lon="-17.8570220">
        <ele>1134.6</ele>
        <time>2020-11-17T09:47:19Z</time>
      </trkpt>
      <trkpt lat="28.6218300" lon="-17.8570220">
        <ele>1134.6</ele>
        <time>2020-11-17T09:47:20Z</time>
      </trkpt>
      <trkpt lat="28.6218580" lon="-17.8570220">
        <ele>1134.8</ele>
        <time>2020-11-17T09:47:21Z</time>
      </trkpt>
      <trkpt lat="28.6218580" lon="-17.8570220">
        <ele>1134.8</ele>
        <time>2020-11-17T09:47:22Z</time>
      </trkpt>
      <trkpt lat="28.6218880" lon="-17.8570180">
        <ele>1135.0</ele>
        <time>2020-11-17T09:47:23Z</time>
      </trkpt>
      <trkpt lat="28.6219050" lon="-17.8570150">
        <ele>1135.1</ele>
        <time>2020-11-17T09:47:24Z</time>
      </trkpt>
      <trkpt lat="28.6219050" lon="-17.8570150">
        <ele>1135.1</ele>
        <time>2020-11-17T09:47:25Z</time>
      </trkpt>
      <trkpt lat="28.6219380" lon="-17.8570070">
        <ele>1135.4</ele>
        <time>2020-11-17T09:47:26Z</time>
      </trkpt>
      <trkpt lat="28.6219500" lon="-17.8569930">
        <ele>1135.6</ele>
        <time>2020-11-17T09:47:27Z</time>
      </trkpt>
      <trkpt lat="28.6219500" lon="-17.8569930">
        <ele>1135.6</ele>
        <time>2020-11-17T09:47:28Z</time>
      </trkpt>
      <trkpt lat="28.6219720" lon="-17.8569620">
        <ele>1135.9</ele>
        <time>2020-11-17T09:47:29Z</time>
      </trkpt>
      <trkpt lat="28.6219820" lon="-17.8569380">
        <ele>1136.1</ele>
        <time>2020-11-17T09:47:30Z</time>
      </trkpt>
      <trkpt lat="28.6219820" lon="-17.8569380">
        <ele>1136.1</ele>
        <time>2020-11-17T09:47:31Z</time>
      </trkpt>
      <trkpt lat="28.6220020" lon="-17.8568980">
        <ele>1136.5</ele>
        <time>2020-11-17T09:47:32Z</time>
      </trkpt>
      <trkpt lat="28.6220130" lon="-17.8568770">
        <ele>1136.7</ele>
        <time>2020-11-17T09:47:33Z</time>
      </trkpt>
      <trkpt lat="28.6220130" lon="-17.8568770">
        <ele>1136.7</ele>
        <time>2020-11-17T09:47:34Z</time>
      </trkpt>
      <trkpt lat="28.6220400" lon="-17.8568430">
        <ele>1137.0</ele>
        <time>2020-11-17T09:47:35Z</time>
      </trkpt>
      <trkpt lat="28.6220550" lon="-17.8568230">
        <ele>1137.3</ele>
        <time>2020-11-17T09:47:36Z</time>
      </trkpt>
      <trkpt lat="28.6220550" lon="-17.8568230">
        <ele>1137.3</ele>
        <time>2020-11-17T09:47:37Z</time>
      </trkpt>
      <trkpt lat="28.6220770" lon="-17.8567920">
        <ele>1137.6</ele>
        <time>2020-11-17T09:47:38Z</time>
      </trkpt>
      <trkpt lat="28.6220770" lon="-17.8567920">
        <ele>1137.6</ele>
        <time>2020-11-17T09:47:39Z</time>
      </trkpt>
      <trkpt lat="28.6220980" lon="-17.8567650">
        <ele>1137.9</ele>
        <time>2020-11-17T09:47:40Z</time>
      </trkpt>
      <trkpt lat="28.6220980" lon="-17.8567650">
        <ele>1137.9</ele>
        <time>2020-11-17T09:47:41Z</time>
      </trkpt>
      <trkpt lat="28.6221080" lon="-17.8567480">
        <ele>1138.1</ele>
        <time>2020-11-17T09:47:42Z</time>
      </trkpt>
      <trkpt lat="28.6221080" lon="-17.8567480">
        <ele>1138.1</ele>
        <time>2020-11-17T09:47:43Z</time>
      </trkpt>
      <trkpt lat="28.6221180" lon="-17.8567020">
        <ele>1138.5</ele>
        <time>2020-11-17T09:47:44Z</time>
      </trkpt>
      <trkpt lat="28.6221180" lon="-17.8566780">
        <ele>1138.7</ele>
        <time>2020-11-17T09:47:45Z</time>
      </trkpt>
      <trkpt lat="28.6221150" lon="-17.8566520">
        <ele>1138.9</ele>
        <time>2020-11-17T09:47:46Z</time>
      </trkpt>
      <trkpt lat="28.6221150" lon="-17.8566520">
        <ele>1138.9</ele>
        <time>2020-11-17T09:47:47Z</time>
      </trkpt>
      <trkpt lat="28.6221120" lon="-17.8566020">
        <ele>1139.3</ele>
        <time>2020-11-17T09:47:48Z</time>
      </trkpt>
      <trkpt lat="28.6221120" lon="-17.8566020">
        <ele>1139.3</ele>
        <time>2020-11-17T09:47:49Z</time>
      </trkpt>
      <trkpt lat="28.6221100" lon="-17.8565530">
        <ele>1139.7</ele>
        <time>2020-11-17T09:47:50Z</time>
      </trkpt>
      <trkpt lat="28.6221100" lon="-17.8565530">
        <ele>1139.7</ele>
        <time>2020-11-17T09:47:51Z</time>
      </trkpt>
      <trkpt lat="28.6221200" lon="-17.8565030">
        <ele>1140.1</ele>
        <time>2020-11-17T09:47:52Z</time>
      </trkpt>
      <trkpt lat="28.6221200" lon="-17.8565030">
        <ele>1140.1</ele>
        <time>2020-11-17T09:47:53Z</time>
      </trkpt>
      <trkpt lat="28.6221450" lon="-17.8564580">
        <ele>1140.5</ele>
        <time>2020-11-17T09:47:54Z</time>
      </trkpt>
      <trkpt lat="28.6221450" lon="-17.8564580">
        <ele>1140.5</ele>
        <time>2020-11-17T09:47:55Z</time>
      </trkpt>
      <trkpt lat="28.6221730" lon="-17.8564250">
        <ele>1140.8</ele>
        <time>2020-11-17T09:47:56Z</time>
      </trkpt>
      <trkpt lat="28.6221730" lon="-17.8564250">
        <ele>1140.8</ele>
        <time>2020-11-17T09:47:57Z</time>
      </trkpt>
      <trkpt lat="28.6222080" lon="-17.8564050">
        <ele>1141.2</ele>
        <time>2020-11-17T09:47:58Z</time>
      </trkpt>
      <trkpt lat="28.6222280" lon="-17.8564030">
        <ele>1141.3</ele>
        <time>2020-11-17T09:47:59Z</time>
      </trkpt>
      <trkpt lat="28.6222480" lon="-17.8564070">
        <ele>1141.5</ele>
        <time>2020-11-17T09:48:00Z</time>
      </trkpt>
      <trkpt lat="28.6222480" lon="-17.8564070">
        <ele>1141.5</ele>
        <time>2020-11-17T09:48:01Z</time>
      </trkpt>
      <trkpt lat="28.6222830" lon="-17.8564180">
        <ele>1141.8</ele>
        <time>2020-11-17T09:48:02Z</time>
      </trkpt>
      <trkpt lat="28.6222830" lon="-17.8564180">
        <ele>1141.8</ele>
        <time>2020-11-17T09:48:03Z</time>
      </trkpt>
      <trkpt lat="28.6223170" lon="-17.8564350">
        <ele>1142.1</ele>
        <time>2020-11-17T09:48:04Z</time>
      </trkpt>
      <trkpt lat="28.6223170" lon="-17.8564350">
        <ele>1142.1</ele>
        <time>2020-11-17T09:48:05Z</time>
      </trkpt>
      <trkpt lat="28.6223480" lon="-17.8564400">
        <ele>1142.4</ele>
        <time>2020-11-17T09:48:06Z</time>
      </trkpt>
      <trkpt lat="28.6223480" lon="-17.8564400">
        <ele>1142.4</ele>
        <time>2020-11-17T09:48:07Z</time>
      </trkpt>
      <trkpt lat="28.6223750" lon="-17.8564350">
        <ele>1142.6</ele>
        <time>2020-11-17T09:48:08Z</time>
      </trkpt>
      <trkpt lat="28.6223750" lon="-17.8564350">
        <ele>1142.6</ele>
        <time>2020-11-17T09:48:09Z</time>
      </trkpt>
      <trkpt lat="28.6224030" lon="-17.8564120">
        <ele>1142.9</ele>
        <time>2020-11-17T09:48:10Z</time>
      </trkpt>
      <trkpt lat="28.6224030" lon="-17.8564120">
        <ele>1142.9</ele>
        <time>2020-11-17T09:48:11Z</time>
      </trkpt>
      <trkpt lat="28.6224220" lon="-17.8563600">
        <ele>1143.2</ele>
        <time>2020-11-17T09:48:12Z</time>
      </trkpt>
      <trkpt lat="28.6224220" lon="-17.8563600">
        <ele>1143.2</ele>
        <time>2020-11-17T09:48:13Z</time>
      </trkpt>
      <trkpt lat="28.6224520" lon="-17.8563120">
        <ele>1143.6</ele>
        <time>2020-11-17T09:48:14Z</time>
      </trkpt>
      <trkpt lat="28.6224630" lon="-17.8562970">
        <ele>1143.7</ele>
        <time>2020-11-17T09:48:15Z</time>
      </trkpt>
      <trkpt lat="28.6224630" lon="-17.8562970">
        <ele>1143.7</ele>
        <time>2020-11-17T09:48:16Z</time>
      </trkpt>
      <trkpt lat="28.6224970" lon="-17.8562830">
        <ele>1143.9</ele>
        <time>2020-11-17T09:48:17Z</time>
      </trkpt>
      <trkpt lat="28.6225170" lon="-17.8562880">
        <ele>1144.0</ele>
        <time>2020-11-17T09:48:18Z</time>
      </trkpt>
      <trkpt lat="28.6225170" lon="-17.8562880">
        <ele>1144.0</ele>
        <time>2020-11-17T09:48:19Z</time>
      </trkpt>
      <trkpt lat="28.6225580" lon="-17.8563180">
        <ele>1144.4</ele>
        <time>2020-11-17T09:48:20Z</time>
      </trkpt>
      <trkpt lat="28.6225580" lon="-17.8563180">
        <ele>1144.4</ele>
        <time>2020-11-17T09:48:21Z</time>
      </trkpt>
      <trkpt lat="28.6225970" lon="-17.8563400">
        <ele>1144.7</ele>
        <time>2020-11-17T09:48:22Z</time>
      </trkpt>
      <trkpt lat="28.6225970" lon="-17.8563400">
        <ele>1144.7</ele>
        <time>2020-11-17T09:48:23Z</time>
      </trkpt>
      <trkpt lat="28.6226280" lon="-17.8563330">
        <ele>1144.9</ele>
        <time>2020-11-17T09:48:24Z</time>
      </trkpt>
      <trkpt lat="28.6226280" lon="-17.8563330">
        <ele>1144.9</ele>
        <time>2020-11-17T09:48:25Z</time>
      </trkpt>
      <trkpt lat="28.6226500" lon="-17.8562980">
        <ele>1145.1</ele>
        <time>2020-11-17T09:48:26Z</time>
      </trkpt>
      <trkpt lat="28.6226500" lon="-17.8562980">
        <ele>1145.1</ele>
        <time>2020-11-17T09:48:27Z</time>
      </trkpt>
      <trkpt lat="28.6226700" lon="-17.8562550">
        <ele>1145.4</ele>
        <time>2020-11-17T09:48:28Z</time>
      </trkpt>
      <trkpt lat="28.6226700" lon="-17.8562550">
        <ele>1145.4</ele>
        <time>2020-11-17T09:48:29Z</time>
      </trkpt>
      <trkpt lat="28.6226830" lon="-17.8562130">
        <ele>1145.7</ele>
        <time>2020-11-17T09:48:30Z</time>
      </trkpt>
      <trkpt lat="28.6226830" lon="-17.8562130">
        <ele>1145.7</ele>
        <time>2020-11-17T09:48:31Z</time>
      </trkpt>
      <trkpt lat="28.6226970" lon="-17.8561700">
        <ele>1146.0</ele>
        <time>2020-11-17T09:48:32Z</time>
      </trkpt>
      <trkpt lat="28.6226970" lon="-17.8561700">
        <ele>1146.0</ele>
        <time>2020-11-17T09:48:33Z</time>
      </trkpt>
      <trkpt lat="28.6227070" lon="-17.8561250">
        <ele>1146.4</ele>
        <time>2020-11-17T09:48:34Z</time>
      </trkpt>
      <trkpt lat="28.6227070" lon="-17.8561250">
        <ele>1146.4</ele>
        <time>2020-11-17T09:48:35Z</time>
      </trkpt>
      <trkpt lat="28.6227150" lon="-17.8560800">
        <ele>1146.7</ele>
        <time>2020-11-17T09:48:36Z</time>
      </trkpt>
      <trkpt lat="28.6227150" lon="-17.8560800">
        <ele>1146.7</ele>
        <time>2020-11-17T09:48:37Z</time>
      </trkpt>
      <trkpt lat="28.6227170" lon="-17.8560380">
        <ele>1147.0</ele>
        <time>2020-11-17T09:48:38Z</time>
      </trkpt>
      <trkpt lat="28.6227170" lon="-17.8560380">
        <ele>1147.0</ele>
        <time>2020-11-17T09:48:39Z</time>
      </trkpt>
      <trkpt lat="28.6227170" lon="-17.8559900">
        <ele>1147.3</ele>
        <time>2020-11-17T09:48:40Z</time>
      </trkpt>
      <trkpt lat="28.6227170" lon="-17.8559900">
        <ele>1147.3</ele>
        <time>2020-11-17T09:48:41Z</time>
      </trkpt>
      <trkpt lat="28.6227100" lon="-17.8559400">
        <ele>1147.6</ele>
        <time>2020-11-17T09:48:42Z</time>
      </trkpt>
      <trkpt lat="28.6227100" lon="-17.8559400">
        <ele>1147.6</ele>
        <time>2020-11-17T09:48:43Z</time>
      </trkpt>
      <trkpt lat="28.6227070" lon="-17.8558950">
        <ele>1147.9</ele>
        <time>2020-11-17T09:48:44Z</time>
      </trkpt>
      <trkpt lat="28.6227100" lon="-17.8558720">
        <ele>1148.1</ele>
        <time>2020-11-17T09:48:45Z</time>
      </trkpt>
      <trkpt lat="28.6227100" lon="-17.8558720">
        <ele>1148.1</ele>
        <time>2020-11-17T09:48:46Z</time>
      </trkpt>
      <trkpt lat="28.6227150" lon="-17.8558250">
        <ele>1148.4</ele>
        <time>2020-11-17T09:48:47Z</time>
      </trkpt>
      <trkpt lat="28.6227150" lon="-17.8558250">
        <ele>1148.4</ele>
        <time>2020-11-17T09:48:48Z</time>
      </trkpt>
      <trkpt lat="28.6227130" lon="-17.8557770">
        <ele>1148.7</ele>
        <time>2020-11-17T09:48:49Z</time>
      </trkpt>
      <trkpt lat="28.6227180" lon="-17.8557520">
        <ele>1148.9</ele>
        <time>2020-11-17T09:48:50Z</time>
      </trkpt>
      <trkpt lat="28.6227180" lon="-17.8557520">
        <ele>1148.9</ele>
        <time>2020-11-17T09:48:51Z</time>
      </trkpt>
      <trkpt lat="28.6227150" lon="-17.8557130">
        <ele>1149.2</ele>
        <time>2020-11-17T09:48:52Z</time>
      </trkpt>
      <trkpt lat="28.6227150" lon="-17.8557130">
        <ele>1149.2</ele>
        <time>2020-11-17T09:48:53Z</time>
      </trkpt>
      <trkpt lat="28.6227050" lon="-17.8556720">
        <ele>1149.4</ele>
        <time>2020-11-17T09:48:54Z</time>
      </trkpt>
      <trkpt lat="28.6227000" lon="-17.8556500">
        <ele>1149.6</ele>
        <time>2020-11-17T09:48:55Z</time>
      </trkpt>
      <trkpt lat="28.6227000" lon="-17.8556500">
        <ele>1149.6</ele>
        <time>2020-11-17T09:48:56Z</time>
      </trkpt>
      <trkpt lat="28.6227000" lon="-17.8556070">
        <ele>1149.9</ele>
        <time>2020-11-17T09:48:57Z</time>
      </trkpt>
      <trkpt lat="28.6226950" lon="-17.8555850">
        <ele>1150.0</ele>
        <time>2020-11-17T09:48:58Z</time>
      </trkpt>
      <trkpt lat="28.6226950" lon="-17.8555850">
        <ele>1150.0</ele>
        <time>2020-11-17T09:48:59Z</time>
      </trkpt>
      <trkpt lat="28.6226880" lon="-17.8555500">
        <ele>1150.2</ele>
        <time>2020-11-17T09:49:00Z</time>
      </trkpt>
      <trkpt lat="28.6226880" lon="-17.8555500">
        <ele>1150.2</ele>
        <time>2020-11-17T09:49:01Z</time>
      </trkpt>
      <trkpt lat="28.6226820" lon="-17.8555070">
        <ele>1150.5</ele>
        <time>2020-11-17T09:49:02Z</time>
      </trkpt>
      <trkpt lat="28.6226820" lon="-17.8554750">
        <ele>1150.7</ele>
        <time>2020-11-17T09:49:03Z</time>
      </trkpt>
      <trkpt lat="28.6226820" lon="-17.8554750">
        <ele>1150.7</ele>
        <time>2020-11-17T09:49:04Z</time>
      </trkpt>
      <trkpt lat="28.6226980" lon="-17.8554320">
        <ele>1151.1</ele>
        <time>2020-11-17T09:49:05Z</time>
      </trkpt>
      <trkpt lat="28.6227120" lon="-17.8554120">
        <ele>1151.2</ele>
        <time>2020-11-17T09:49:06Z</time>
      </trkpt>
      <trkpt lat="28.6227170" lon="-17.8553930">
        <ele>1151.4</ele>
        <time>2020-11-17T09:49:07Z</time>
      </trkpt>
      <trkpt lat="28.6227170" lon="-17.8553930">
        <ele>1151.4</ele>
        <time>2020-11-17T09:49:08Z</time>
      </trkpt>
      <trkpt lat="28.6227480" lon="-17.8553750">
        <ele>1151.7</ele>
        <time>2020-11-17T09:49:09Z</time>
      </trkpt>
      <trkpt lat="28.6227630" lon="-17.8553770">
        <ele>1151.8</ele>
        <time>2020-11-17T09:49:10Z</time>
      </trkpt>
      <trkpt lat="28.6227630" lon="-17.8553770">
        <ele>1151.8</ele>
        <time>2020-11-17T09:49:11Z</time>
      </trkpt>
      <trkpt lat="28.6227950" lon="-17.8553820">
        <ele>1152.1</ele>
        <time>2020-11-17T09:49:12Z</time>
      </trkpt>
      <trkpt lat="28.6227950" lon="-17.8553820">
        <ele>1152.1</ele>
        <time>2020-11-17T09:49:13Z</time>
      </trkpt>
      <trkpt lat="28.6228300" lon="-17.8553870">
        <ele>1152.4</ele>
        <time>2020-11-17T09:49:14Z</time>
      </trkpt>
      <trkpt lat="28.6228300" lon="-17.8553870">
        <ele>1152.4</ele>
        <time>2020-11-17T09:49:15Z</time>
      </trkpt>
      <trkpt lat="28.6228700" lon="-17.8554030">
        <ele>1152.7</ele>
        <time>2020-11-17T09:49:16Z</time>
      </trkpt>
      <trkpt lat="28.6228700" lon="-17.8554030">
        <ele>1152.7</ele>
        <time>2020-11-17T09:49:17Z</time>
      </trkpt>
      <trkpt lat="28.6228980" lon="-17.8554300">
        <ele>1153.1</ele>
        <time>2020-11-17T09:49:18Z</time>
      </trkpt>
      <trkpt lat="28.6229220" lon="-17.8554430">
        <ele>1153.3</ele>
        <time>2020-11-17T09:49:19Z</time>
      </trkpt>
      <trkpt lat="28.6229220" lon="-17.8554430">
        <ele>1153.3</ele>
        <time>2020-11-17T09:49:20Z</time>
      </trkpt>
      <trkpt lat="28.6229500" lon="-17.8554670">
        <ele>1153.6</ele>
        <time>2020-11-17T09:49:21Z</time>
      </trkpt>
      <trkpt lat="28.6229600" lon="-17.8554680">
        <ele>1153.7</ele>
        <time>2020-11-17T09:49:22Z</time>
      </trkpt>
      <trkpt lat="28.6229600" lon="-17.8554680">
        <ele>1153.7</ele>
        <time>2020-11-17T09:49:23Z</time>
      </trkpt>
      <trkpt lat="28.6229920" lon="-17.8554730">
        <ele>1154.0</ele>
        <time>2020-11-17T09:49:24Z</time>
      </trkpt>
      <trkpt lat="28.6229920" lon="-17.8554730">
        <ele>1154.0</ele>
        <time>2020-11-17T09:49:25Z</time>
      </trkpt>
      <trkpt lat="28.6230270" lon="-17.8554820">
        <ele>1154.3</ele>
        <time>2020-11-17T09:49:26Z</time>
      </trkpt>
      <trkpt lat="28.6230270" lon="-17.8554820">
        <ele>1154.3</ele>
        <time>2020-11-17T09:49:27Z</time>
      </trkpt>
      <trkpt lat="28.6230620" lon="-17.8554870">
        <ele>1154.5</ele>
        <time>2020-11-17T09:49:28Z</time>
      </trkpt>
      <trkpt lat="28.6230620" lon="-17.8554870">
        <ele>1154.5</ele>
        <time>2020-11-17T09:49:29Z</time>
      </trkpt>
      <trkpt lat="28.6230980" lon="-17.8554850">
        <ele>1154.8</ele>
        <time>2020-11-17T09:49:30Z</time>
      </trkpt>
      <trkpt lat="28.6230980" lon="-17.8554850">
        <ele>1154.8</ele>
        <time>2020-11-17T09:49:31Z</time>
      </trkpt>
      <trkpt lat="28.6231230" lon="-17.8554670">
        <ele>1155.3</ele>
        <time>2020-11-17T09:49:32Z</time>
      </trkpt>
      <trkpt lat="28.6231300" lon="-17.8554570">
        <ele>1155.4</ele>
        <time>2020-11-17T09:49:33Z</time>
      </trkpt>
      <trkpt lat="28.6231300" lon="-17.8554570">
        <ele>1155.4</ele>
        <time>2020-11-17T09:49:34Z</time>
      </trkpt>
      <trkpt lat="28.6231480" lon="-17.8554220">
        <ele>1155.7</ele>
        <time>2020-11-17T09:49:35Z</time>
      </trkpt>
      <trkpt lat="28.6231480" lon="-17.8554220">
        <ele>1155.7</ele>
        <time>2020-11-17T09:49:36Z</time>
      </trkpt>
      <trkpt lat="28.6231550" lon="-17.8553850">
        <ele>1155.9</ele>
        <time>2020-11-17T09:49:37Z</time>
      </trkpt>
      <trkpt lat="28.6231520" lon="-17.8553650">
        <ele>1156.1</ele>
        <time>2020-11-17T09:49:38Z</time>
      </trkpt>
      <trkpt lat="28.6231520" lon="-17.8553650">
        <ele>1156.1</ele>
        <time>2020-11-17T09:49:39Z</time>
      </trkpt>
      <trkpt lat="28.6231500" lon="-17.8553300">
        <ele>1156.3</ele>
        <time>2020-11-17T09:49:40Z</time>
      </trkpt>
      <trkpt lat="28.6231500" lon="-17.8553300">
        <ele>1156.3</ele>
        <time>2020-11-17T09:49:41Z</time>
      </trkpt>
      <trkpt lat="28.6231330" lon="-17.8552950">
        <ele>1156.6</ele>
        <time>2020-11-17T09:49:42Z</time>
      </trkpt>
      <trkpt lat="28.6231330" lon="-17.8552950">
        <ele>1156.6</ele>
        <time>2020-11-17T09:49:43Z</time>
      </trkpt>
      <trkpt lat="28.6231170" lon="-17.8552750">
        <ele>1156.8</ele>
        <time>2020-11-17T09:49:44Z</time>
      </trkpt>
      <trkpt lat="28.6231170" lon="-17.8552750">
        <ele>1156.8</ele>
        <time>2020-11-17T09:49:45Z</time>
      </trkpt>
      <trkpt lat="28.6231030" lon="-17.8552400">
        <ele>1157.1</ele>
        <time>2020-11-17T09:49:46Z</time>
      </trkpt>
      <trkpt lat="28.6231030" lon="-17.8552400">
        <ele>1157.1</ele>
        <time>2020-11-17T09:49:47Z</time>
      </trkpt>
      <trkpt lat="28.6231000" lon="-17.8552100">
        <ele>1157.3</ele>
        <time>2020-11-17T09:49:48Z</time>
      </trkpt>
      <trkpt lat="28.6230950" lon="-17.8552020">
        <ele>1157.4</ele>
        <time>2020-11-17T09:49:49Z</time>
      </trkpt>
      <trkpt lat="28.6230950" lon="-17.8552020">
        <ele>1157.4</ele>
        <time>2020-11-17T09:49:50Z</time>
      </trkpt>
      <trkpt lat="28.6230820" lon="-17.8551670">
        <ele>1157.6</ele>
        <time>2020-11-17T09:49:51Z</time>
      </trkpt>
      <trkpt lat="28.6230820" lon="-17.8551670">
        <ele>1157.6</ele>
        <time>2020-11-17T09:49:52Z</time>
      </trkpt>
      <trkpt lat="28.6230700" lon="-17.8551380">
        <ele>1157.9</ele>
        <time>2020-11-17T09:49:53Z</time>
      </trkpt>
      <trkpt lat="28.6230600" lon="-17.8551280">
        <ele>1158.0</ele>
        <time>2020-11-17T09:49:54Z</time>
      </trkpt>
      <trkpt lat="28.6230600" lon="-17.8551280">
        <ele>1158.0</ele>
        <time>2020-11-17T09:49:55Z</time>
      </trkpt>
      <trkpt lat="28.6230370" lon="-17.8551050">
        <ele>1158.2</ele>
        <time>2020-11-17T09:49:56Z</time>
      </trkpt>
      <trkpt lat="28.6230370" lon="-17.8551050">
        <ele>1158.2</ele>
        <time>2020-11-17T09:49:57Z</time>
      </trkpt>
      <trkpt lat="28.6230200" lon="-17.8550900">
        <ele>1158.4</ele>
        <time>2020-11-17T09:49:58Z</time>
      </trkpt>
      <trkpt lat="28.6230200" lon="-17.8550900">
        <ele>1158.4</ele>
        <time>2020-11-17T09:49:59Z</time>
      </trkpt>
      <trkpt lat="28.6230030" lon="-17.8550700">
        <ele>1158.6</ele>
        <time>2020-11-17T09:50:00Z</time>
      </trkpt>
      <trkpt lat="28.6230030" lon="-17.8550700">
        <ele>1158.6</ele>
        <time>2020-11-17T09:50:01Z</time>
      </trkpt>
      <trkpt lat="28.6229970" lon="-17.8550480">
        <ele>1158.7</ele>
        <time>2020-11-17T09:50:02Z</time>
      </trkpt>
      <trkpt lat="28.6229970" lon="-17.8550480">
        <ele>1158.7</ele>
        <time>2020-11-17T09:50:03Z</time>
      </trkpt>
      <trkpt lat="28.6229780" lon="-17.8550220">
        <ele>1158.9</ele>
        <time>2020-11-17T09:50:04Z</time>
      </trkpt>
      <trkpt lat="28.6229700" lon="-17.8550170">
        <ele>1159.0</ele>
        <time>2020-11-17T09:50:05Z</time>
      </trkpt>
      <trkpt lat="28.6229550" lon="-17.8550050">
        <ele>1159.1</ele>
        <time>2020-11-17T09:50:06Z</time>
      </trkpt>
      <trkpt lat="28.6229550" lon="-17.8550050">
        <ele>1159.1</ele>
        <time>2020-11-17T09:50:07Z</time>
      </trkpt>
      <trkpt lat="28.6229280" lon="-17.8549830">
        <ele>1159.4</ele>
        <time>2020-11-17T09:50:08Z</time>
      </trkpt>
      <trkpt lat="28.6229100" lon="-17.8549700">
        <ele>1159.5</ele>
        <time>2020-11-17T09:50:09Z</time>
      </trkpt>
      <trkpt lat="28.6229100" lon="-17.8549700">
        <ele>1159.5</ele>
        <time>2020-11-17T09:50:10Z</time>
      </trkpt>
      <trkpt lat="28.6228800" lon="-17.8549420">
        <ele>1159.8</ele>
        <time>2020-11-17T09:50:11Z</time>
      </trkpt>
      <trkpt lat="28.6228720" lon="-17.8549270">
        <ele>1159.9</ele>
        <time>2020-11-17T09:50:12Z</time>
      </trkpt>
      <trkpt lat="28.6228720" lon="-17.8549270">
        <ele>1159.9</ele>
        <time>2020-11-17T09:50:13Z</time>
      </trkpt>
      <trkpt lat="28.6228450" lon="-17.8548900">
        <ele>1160.2</ele>
        <time>2020-11-17T09:50:14Z</time>
      </trkpt>
      <trkpt lat="28.6228350" lon="-17.8548770">
        <ele>1160.4</ele>
        <time>2020-11-17T09:50:15Z</time>
      </trkpt>
      <trkpt lat="28.6228120" lon="-17.8548470">
        <ele>1160.7</ele>
        <time>2020-11-17T09:50:16Z</time>
      </trkpt>
      <trkpt lat="28.6228120" lon="-17.8548470">
        <ele>1160.7</ele>
        <time>2020-11-17T09:50:17Z</time>
      </trkpt>
      <trkpt lat="28.6228000" lon="-17.8548180">
        <ele>1160.9</ele>
        <time>2020-11-17T09:50:18Z</time>
      </trkpt>
      <trkpt lat="28.6228000" lon="-17.8548180">
        <ele>1160.9</ele>
        <time>2020-11-17T09:50:19Z</time>
      </trkpt>
      <trkpt lat="28.6227880" lon="-17.8547870">
        <ele>1161.2</ele>
        <time>2020-11-17T09:50:20Z</time>
      </trkpt>
      <trkpt lat="28.6227880" lon="-17.8547870">
        <ele>1161.2</ele>
        <time>2020-11-17T09:50:21Z</time>
      </trkpt>
      <trkpt lat="28.6227700" lon="-17.8547500">
        <ele>1161.5</ele>
        <time>2020-11-17T09:50:22Z</time>
      </trkpt>
      <trkpt lat="28.6227620" lon="-17.8547320">
        <ele>1161.7</ele>
        <time>2020-11-17T09:50:23Z</time>
      </trkpt>
      <trkpt lat="28.6227620" lon="-17.8547320">
        <ele>1161.7</ele>
        <time>2020-11-17T09:50:24Z</time>
      </trkpt>
      <trkpt lat="28.6227430" lon="-17.8546970">
        <ele>1162.0</ele>
        <time>2020-11-17T09:50:25Z</time>
      </trkpt>
      <trkpt lat="28.6227380" lon="-17.8546800">
        <ele>1162.1</ele>
        <time>2020-11-17T09:50:26Z</time>
      </trkpt>
      <trkpt lat="28.6227320" lon="-17.8546630">
        <ele>1162.3</ele>
        <time>2020-11-17T09:50:27Z</time>
      </trkpt>
      <trkpt lat="28.6227320" lon="-17.8546630">
        <ele>1162.3</ele>
        <time>2020-11-17T09:50:28Z</time>
      </trkpt>
      <trkpt lat="28.6227120" lon="-17.8546370">
        <ele>1162.5</ele>
        <time>2020-11-17T09:50:29Z</time>
      </trkpt>
      <trkpt lat="28.6227070" lon="-17.8546250">
        <ele>1162.6</ele>
        <time>2020-11-17T09:50:30Z</time>
      </trkpt>
      <trkpt lat="28.6227070" lon="-17.8546250">
        <ele>1162.6</ele>
        <time>2020-11-17T09:50:31Z</time>
      </trkpt>
      <trkpt lat="28.6226820" lon="-17.8545900">
        <ele>1163.0</ele>
        <time>2020-11-17T09:50:32Z</time>
      </trkpt>
      <trkpt lat="28.6226750" lon="-17.8545770">
        <ele>1163.1</ele>
        <time>2020-11-17T09:50:33Z</time>
      </trkpt>
      <trkpt lat="28.6226680" lon="-17.8545650">
        <ele>1163.2</ele>
        <time>2020-11-17T09:50:34Z</time>
      </trkpt>
      <trkpt lat="28.6226680" lon="-17.8545650">
        <ele>1163.2</ele>
        <time>2020-11-17T09:50:35Z</time>
      </trkpt>
      <trkpt lat="28.6226550" lon="-17.8545380">
        <ele>1163.4</ele>
        <time>2020-11-17T09:50:36Z</time>
      </trkpt>
      <trkpt lat="28.6226550" lon="-17.8545380">
        <ele>1163.4</ele>
        <time>2020-11-17T09:50:37Z</time>
      </trkpt>
      <trkpt lat="28.6226400" lon="-17.8545070">
        <ele>1163.7</ele>
        <time>2020-11-17T09:50:38Z</time>
      </trkpt>
      <trkpt lat="28.6226320" lon="-17.8544950">
        <ele>1163.8</ele>
        <time>2020-11-17T09:50:39Z</time>
      </trkpt>
      <trkpt lat="28.6226320" lon="-17.8544950">
        <ele>1163.8</ele>
        <time>2020-11-17T09:50:40Z</time>
      </trkpt>
      <trkpt lat="28.6226150" lon="-17.8544680">
        <ele>1164.0</ele>
        <time>2020-11-17T09:50:41Z</time>
      </trkpt>
      <trkpt lat="28.6226020" lon="-17.8544470">
        <ele>1164.2</ele>
        <time>2020-11-17T09:50:42Z</time>
      </trkpt>
      <trkpt lat="28.6226020" lon="-17.8544470">
        <ele>1164.2</ele>
        <time>2020-11-17T09:50:43Z</time>
      </trkpt>
      <trkpt lat="28.6225780" lon="-17.8544200">
        <ele>1164.5</ele>
        <time>2020-11-17T09:50:44Z</time>
      </trkpt>
      <trkpt lat="28.6225780" lon="-17.8544200">
        <ele>1164.5</ele>
        <time>2020-11-17T09:50:45Z</time>
      </trkpt>
      <trkpt lat="28.6225730" lon="-17.8543930">
        <ele>1164.7</ele>
        <time>2020-11-17T09:50:46Z</time>
      </trkpt>
      <trkpt lat="28.6225730" lon="-17.8543930">
        <ele>1164.7</ele>
        <time>2020-11-17T09:50:47Z</time>
      </trkpt>
      <trkpt lat="28.6225580" lon="-17.8543700">
        <ele>1164.9</ele>
        <time>2020-11-17T09:50:48Z</time>
      </trkpt>
      <trkpt lat="28.6225580" lon="-17.8543700">
        <ele>1164.9</ele>
        <time>2020-11-17T09:50:49Z</time>
      </trkpt>
      <trkpt lat="28.6225550" lon="-17.8543550">
        <ele>1165.0</ele>
        <time>2020-11-17T09:50:50Z</time>
      </trkpt>
      <trkpt lat="28.6225550" lon="-17.8543550">
        <ele>1165.0</ele>
        <time>2020-11-17T09:50:51Z</time>
      </trkpt>
      <trkpt lat="28.6225430" lon="-17.8543300">
        <ele>1165.2</ele>
        <time>2020-11-17T09:50:52Z</time>
      </trkpt>
      <trkpt lat="28.6225420" lon="-17.8543180">
        <ele>1165.3</ele>
        <time>2020-11-17T09:50:53Z</time>
      </trkpt>
      <trkpt lat="28.6225420" lon="-17.8543180">
        <ele>1165.3</ele>
        <time>2020-11-17T09:50:54Z</time>
      </trkpt>
      <trkpt lat="28.6225320" lon="-17.8542900">
        <ele>1165.5</ele>
        <time>2020-11-17T09:50:55Z</time>
      </trkpt>
      <trkpt lat="28.6225320" lon="-17.8542900">
        <ele>1165.5</ele>
        <time>2020-11-17T09:50:56Z</time>
      </trkpt>
      <trkpt lat="28.6225170" lon="-17.8542400">
        <ele>1165.9</ele>
        <time>2020-11-17T09:50:57Z</time>
      </trkpt>
      <trkpt lat="28.6225170" lon="-17.8542400">
        <ele>1165.9</ele>
        <time>2020-11-17T09:50:58Z</time>
      </trkpt>
      <trkpt lat="28.6224770" lon="-17.8541850">
        <ele>1166.4</ele>
        <time>2020-11-17T09:50:59Z</time>
      </trkpt>
      <trkpt lat="28.6224800" lon="-17.8541650">
        <ele>1166.6</ele>
        <time>2020-11-17T09:51:00Z</time>
      </trkpt>
      <trkpt lat="28.6224800" lon="-17.8541650">
        <ele>1166.6</ele>
        <time>2020-11-17T09:51:01Z</time>
      </trkpt>
      <trkpt lat="28.6224970" lon="-17.8541150">
        <ele>1166.9</ele>
        <time>2020-11-17T09:51:02Z</time>
      </trkpt>
      <trkpt lat="28.6224980" lon="-17.8540870">
        <ele>1167.1</ele>
        <time>2020-11-17T09:51:03Z</time>
      </trkpt>
      <trkpt lat="28.6224950" lon="-17.8540650">
        <ele>1167.2</ele>
        <time>2020-11-17T09:51:04Z</time>
      </trkpt>
      <trkpt lat="28.6224950" lon="-17.8540650">
        <ele>1167.2</ele>
        <time>2020-11-17T09:51:05Z</time>
      </trkpt>
      <trkpt lat="28.6225020" lon="-17.8540280">
        <ele>1167.4</ele>
        <time>2020-11-17T09:51:06Z</time>
      </trkpt>
      <trkpt lat="28.6225020" lon="-17.8540280">
        <ele>1167.4</ele>
        <time>2020-11-17T09:51:07Z</time>
      </trkpt>
      <trkpt lat="28.6224980" lon="-17.8539870">
        <ele>1167.7</ele>
        <time>2020-11-17T09:51:08Z</time>
      </trkpt>
      <trkpt lat="28.6224970" lon="-17.8539650">
        <ele>1167.8</ele>
        <time>2020-11-17T09:51:09Z</time>
      </trkpt>
      <trkpt lat="28.6224970" lon="-17.8539650">
        <ele>1167.8</ele>
        <time>2020-11-17T09:51:10Z</time>
      </trkpt>
      <trkpt lat="28.6224900" lon="-17.8539300">
        <ele>1168.0</ele>
        <time>2020-11-17T09:51:11Z</time>
      </trkpt>
      <trkpt lat="28.6224900" lon="-17.8539300">
        <ele>1168.0</ele>
        <time>2020-11-17T09:51:12Z</time>
      </trkpt>
      <trkpt lat="28.6224830" lon="-17.8538780">
        <ele>1168.3</ele>
        <time>2020-11-17T09:51:13Z</time>
      </trkpt>
      <trkpt lat="28.6224870" lon="-17.8538530">
        <ele>1168.5</ele>
        <time>2020-11-17T09:51:14Z</time>
      </trkpt>
      <trkpt lat="28.6224870" lon="-17.8538530">
        <ele>1168.5</ele>
        <time>2020-11-17T09:51:15Z</time>
      </trkpt>
      <trkpt lat="28.6224970" lon="-17.8538280">
        <ele>1168.6</ele>
        <time>2020-11-17T09:51:16Z</time>
      </trkpt>
      <trkpt lat="28.6225000" lon="-17.8538150">
        <ele>1168.7</ele>
        <time>2020-11-17T09:51:17Z</time>
      </trkpt>
      <trkpt lat="28.6225000" lon="-17.8538150">
        <ele>1168.7</ele>
        <time>2020-11-17T09:51:18Z</time>
      </trkpt>
      <trkpt lat="28.6225100" lon="-17.8537980">
        <ele>1168.9</ele>
        <time>2020-11-17T09:51:19Z</time>
      </trkpt>
      <trkpt lat="28.6225070" lon="-17.8537980">
        <ele>1168.9</ele>
        <time>2020-11-17T09:51:20Z</time>
      </trkpt>
      <trkpt lat="28.6225070" lon="-17.8537980">
        <ele>1168.9</ele>
        <time>2020-11-17T09:51:21Z</time>
      </trkpt>
      <trkpt lat="28.6225030" lon="-17.8537970">
        <ele>1168.9</ele>
        <time>2020-11-17T09:51:22Z</time>
      </trkpt>
      <trkpt lat="28.6225030" lon="-17.8537970">
        <ele>1168.9</ele>
        <time>2020-11-17T09:51:23Z</time>
      </trkpt>
      <trkpt lat="28.6225050" lon="-17.8537870">
        <ele>1169.0</ele>
        <time>2020-11-17T09:52:51Z</time>
      </trkpt>
      <trkpt lat="28.6224780" lon="-17.8538200">
        <ele>1169.3</ele>
        <time>2020-11-17T09:52:52Z</time>
      </trkpt>
      <trkpt lat="28.6224780" lon="-17.8538200">
        <ele>1169.3</ele>
        <time>2020-11-17T09:52:53Z</time>
      </trkpt>
      <trkpt lat="28.6224880" lon="-17.8538130">
        <ele>1169.4</ele>
        <time>2020-11-17T09:52:54Z</time>
      </trkpt>
      <trkpt lat="28.6224880" lon="-17.8538130">
        <ele>1169.4</ele>
        <time>2020-11-17T09:52:55Z</time>
      </trkpt>
      <trkpt lat="28.6225000" lon="-17.8538070">
        <ele>1169.5</ele>
        <time>2020-11-17T09:52:56Z</time>
      </trkpt>
      <trkpt lat="28.6225000" lon="-17.8538070">
        <ele>1169.5</ele>
        <time>2020-11-17T09:53:00Z</time>
      </trkpt>
      <trkpt lat="28.6225530" lon="-17.8538130">
        <ele>1169.9</ele>
        <time>2020-11-17T09:53:01Z</time>
      </trkpt>
      <trkpt lat="28.6225530" lon="-17.8538130">
        <ele>1169.9</ele>
        <time>2020-11-17T09:53:02Z</time>
      </trkpt>
      <trkpt lat="28.6225970" lon="-17.8538270">
        <ele>1170.3</ele>
        <time>2020-11-17T09:53:03Z</time>
      </trkpt>
      <trkpt lat="28.6225970" lon="-17.8538270">
        <ele>1170.3</ele>
        <time>2020-11-17T09:53:04Z</time>
      </trkpt>
      <trkpt lat="28.6226330" lon="-17.8538370">
        <ele>1170.7</ele>
        <time>2020-11-17T09:53:05Z</time>
      </trkpt>
      <trkpt lat="28.6226330" lon="-17.8538370">
        <ele>1170.7</ele>
        <time>2020-11-17T09:53:06Z</time>
      </trkpt>
      <trkpt lat="28.6226670" lon="-17.8538450">
        <ele>1171.0</ele>
        <time>2020-11-17T09:53:07Z</time>
      </trkpt>
      <trkpt lat="28.6226670" lon="-17.8538450">
        <ele>1171.0</ele>
        <time>2020-11-17T09:53:08Z</time>
      </trkpt>
      <trkpt lat="28.6226930" lon="-17.8538570">
        <ele>1171.3</ele>
        <time>2020-11-17T09:53:09Z</time>
      </trkpt>
      <trkpt lat="28.6226930" lon="-17.8538570">
        <ele>1171.3</ele>
        <time>2020-11-17T09:53:10Z</time>
      </trkpt>
      <trkpt lat="28.6227180" lon="-17.8538600">
        <ele>1171.5</ele>
        <time>2020-11-17T09:53:11Z</time>
      </trkpt>
      <trkpt lat="28.6227330" lon="-17.8538650">
        <ele>1171.7</ele>
        <time>2020-11-17T09:53:12Z</time>
      </trkpt>
      <trkpt lat="28.6227330" lon="-17.8538650">
        <ele>1171.7</ele>
        <time>2020-11-17T09:53:13Z</time>
      </trkpt>
      <trkpt lat="28.6227620" lon="-17.8538770">
        <ele>1172.0</ele>
        <time>2020-11-17T09:53:14Z</time>
      </trkpt>
      <trkpt lat="28.6227720" lon="-17.8538870">
        <ele>1172.1</ele>
        <time>2020-11-17T09:53:15Z</time>
      </trkpt>
      <trkpt lat="28.6227720" lon="-17.8538870">
        <ele>1172.1</ele>
        <time>2020-11-17T09:53:16Z</time>
      </trkpt>
      <trkpt lat="28.6228000" lon="-17.8539050">
        <ele>1172.4</ele>
        <time>2020-11-17T09:53:17Z</time>
      </trkpt>
      <trkpt lat="28.6228000" lon="-17.8539050">
        <ele>1172.4</ele>
        <time>2020-11-17T09:53:18Z</time>
      </trkpt>
      <trkpt lat="28.6228280" lon="-17.8539150">
        <ele>1172.7</ele>
        <time>2020-11-17T09:53:19Z</time>
      </trkpt>
      <trkpt lat="28.6228280" lon="-17.8539150">
        <ele>1172.7</ele>
        <time>2020-11-17T09:53:20Z</time>
      </trkpt>
      <trkpt lat="28.6228570" lon="-17.8539350">
        <ele>1173.0</ele>
        <time>2020-11-17T09:53:21Z</time>
      </trkpt>
      <trkpt lat="28.6228570" lon="-17.8539350">
        <ele>1173.0</ele>
        <time>2020-11-17T09:53:22Z</time>
      </trkpt>
      <trkpt lat="28.6228830" lon="-17.8539500">
        <ele>1173.2</ele>
        <time>2020-11-17T09:53:23Z</time>
      </trkpt>
      <trkpt lat="28.6229120" lon="-17.8539600">
        <ele>1173.5</ele>
        <time>2020-11-17T09:53:24Z</time>
      </trkpt>
      <trkpt lat="28.6229120" lon="-17.8539600">
        <ele>1173.5</ele>
        <time>2020-11-17T09:53:25Z</time>
      </trkpt>
      <trkpt lat="28.6229480" lon="-17.8539730">
        <ele>1173.8</ele>
        <time>2020-11-17T09:53:26Z</time>
      </trkpt>
      <trkpt lat="28.6229480" lon="-17.8539730">
        <ele>1173.8</ele>
        <time>2020-11-17T09:53:27Z</time>
      </trkpt>
      <trkpt lat="28.6229780" lon="-17.8539680">
        <ele>1174.0</ele>
        <time>2020-11-17T09:53:28Z</time>
      </trkpt>
      <trkpt lat="28.6229780" lon="-17.8539680">
        <ele>1174.0</ele>
        <time>2020-11-17T09:53:29Z</time>
      </trkpt>
      <trkpt lat="28.6230150" lon="-17.8539750">
        <ele>1174.3</ele>
        <time>2020-11-17T09:53:30Z</time>
      </trkpt>
      <trkpt lat="28.6230370" lon="-17.8539700">
        <ele>1174.4</ele>
        <time>2020-11-17T09:53:31Z</time>
      </trkpt>
      <trkpt lat="28.6230370" lon="-17.8539700">
        <ele>1174.4</ele>
        <time>2020-11-17T09:53:32Z</time>
      </trkpt>
      <trkpt lat="28.6230770" lon="-17.8539600">
        <ele>1174.7</ele>
        <time>2020-11-17T09:53:33Z</time>
      </trkpt>
      <trkpt lat="28.6230770" lon="-17.8539600">
        <ele>1174.7</ele>
        <time>2020-11-17T09:53:34Z</time>
      </trkpt>
      <trkpt lat="28.6231070" lon="-17.8539350">
        <ele>1175.0</ele>
        <time>2020-11-17T09:53:35Z</time>
      </trkpt>
      <trkpt lat="28.6231180" lon="-17.8539220">
        <ele>1175.1</ele>
        <time>2020-11-17T09:53:36Z</time>
      </trkpt>
      <trkpt lat="28.6231320" lon="-17.8539080">
        <ele>1175.3</ele>
        <time>2020-11-17T09:53:37Z</time>
      </trkpt>
      <trkpt lat="28.6231320" lon="-17.8539080">
        <ele>1175.3</ele>
        <time>2020-11-17T09:53:38Z</time>
      </trkpt>
      <trkpt lat="28.6231470" lon="-17.8538770">
        <ele>1175.5</ele>
        <time>2020-11-17T09:53:39Z</time>
      </trkpt>
      <trkpt lat="28.6231550" lon="-17.8538550">
        <ele>1175.6</ele>
        <time>2020-11-17T09:53:40Z</time>
      </trkpt>
      <trkpt lat="28.6231550" lon="-17.8538550">
        <ele>1175.6</ele>
        <time>2020-11-17T09:53:41Z</time>
      </trkpt>
      <trkpt lat="28.6231750" lon="-17.8538100">
        <ele>1175.9</ele>
        <time>2020-11-17T09:53:42Z</time>
      </trkpt>
      <trkpt lat="28.6231750" lon="-17.8538100">
        <ele>1175.9</ele>
        <time>2020-11-17T09:53:43Z</time>
      </trkpt>
      <trkpt lat="28.6231850" lon="-17.8537630">
        <ele>1176.1</ele>
        <time>2020-11-17T09:53:44Z</time>
      </trkpt>
      <trkpt lat="28.6231850" lon="-17.8537630">
        <ele>1176.1</ele>
        <time>2020-11-17T09:53:45Z</time>
      </trkpt>
      <trkpt lat="28.6231920" lon="-17.8537150">
        <ele>1176.4</ele>
        <time>2020-11-17T09:53:46Z</time>
      </trkpt>
      <trkpt lat="28.6231930" lon="-17.8536930">
        <ele>1176.5</ele>
        <time>2020-11-17T09:53:47Z</time>
      </trkpt>
      <trkpt lat="28.6231930" lon="-17.8536930">
        <ele>1176.5</ele>
        <time>2020-11-17T09:53:48Z</time>
      </trkpt>
      <trkpt lat="28.6232030" lon="-17.8536470">
        <ele>1176.7</ele>
        <time>2020-11-17T09:53:49Z</time>
      </trkpt>
      <trkpt lat="28.6232030" lon="-17.8536470">
        <ele>1176.7</ele>
        <time>2020-11-17T09:53:50Z</time>
      </trkpt>
      <trkpt lat="28.6232150" lon="-17.8536070">
        <ele>1176.9</ele>
        <time>2020-11-17T09:53:51Z</time>
      </trkpt>
      <trkpt lat="28.6232150" lon="-17.8536070">
        <ele>1176.9</ele>
        <time>2020-11-17T09:53:52Z</time>
      </trkpt>
      <trkpt lat="28.6232230" lon="-17.8535630">
        <ele>1177.1</ele>
        <time>2020-11-17T09:53:53Z</time>
      </trkpt>
      <trkpt lat="28.6232230" lon="-17.8535630">
        <ele>1177.1</ele>
        <time>2020-11-17T09:53:54Z</time>
      </trkpt>
      <trkpt lat="28.6232300" lon="-17.8535230">
        <ele>1177.3</ele>
        <time>2020-11-17T09:53:55Z</time>
      </trkpt>
      <trkpt lat="28.6232380" lon="-17.8535020">
        <ele>1177.4</ele>
        <time>2020-11-17T09:53:56Z</time>
      </trkpt>
      <trkpt lat="28.6232380" lon="-17.8535020">
        <ele>1177.4</ele>
        <time>2020-11-17T09:53:57Z</time>
      </trkpt>
      <trkpt lat="28.6232570" lon="-17.8534620">
        <ele>1177.7</ele>
        <time>2020-11-17T09:53:58Z</time>
      </trkpt>
      <trkpt lat="28.6232570" lon="-17.8534620">
        <ele>1177.7</ele>
        <time>2020-11-17T09:53:59Z</time>
      </trkpt>
      <trkpt lat="28.6232750" lon="-17.8534170">
        <ele>1177.9</ele>
        <time>2020-11-17T09:54:00Z</time>
      </trkpt>
      <trkpt lat="28.6232750" lon="-17.8534170">
        <ele>1177.9</ele>
        <time>2020-11-17T09:54:01Z</time>
      </trkpt>
      <trkpt lat="28.6232980" lon="-17.8533820">
        <ele>1178.1</ele>
        <time>2020-11-17T09:54:02Z</time>
      </trkpt>
      <trkpt lat="28.6233130" lon="-17.8533650">
        <ele>1178.3</ele>
        <time>2020-11-17T09:54:03Z</time>
      </trkpt>
      <trkpt lat="28.6233130" lon="-17.8533650">
        <ele>1178.3</ele>
        <time>2020-11-17T09:54:04Z</time>
      </trkpt>
      <trkpt lat="28.6233470" lon="-17.8533330">
        <ele>1178.6</ele>
        <time>2020-11-17T09:54:05Z</time>
      </trkpt>
      <trkpt lat="28.6233470" lon="-17.8533330">
        <ele>1178.6</ele>
        <time>2020-11-17T09:54:06Z</time>
      </trkpt>
      <trkpt lat="28.6233730" lon="-17.8533020">
        <ele>1178.9</ele>
        <time>2020-11-17T09:54:07Z</time>
      </trkpt>
      <trkpt lat="28.6233730" lon="-17.8533020">
        <ele>1178.9</ele>
        <time>2020-11-17T09:54:08Z</time>
      </trkpt>
      <trkpt lat="28.6233850" lon="-17.8532630">
        <ele>1179.1</ele>
        <time>2020-11-17T09:54:09Z</time>
      </trkpt>
      <trkpt lat="28.6233850" lon="-17.8532630">
        <ele>1179.1</ele>
        <time>2020-11-17T09:54:10Z</time>
      </trkpt>
      <trkpt lat="28.6233820" lon="-17.8532180">
        <ele>1179.4</ele>
        <time>2020-11-17T09:54:11Z</time>
      </trkpt>
      <trkpt lat="28.6233750" lon="-17.8531950">
        <ele>1179.6</ele>
        <time>2020-11-17T09:54:12Z</time>
      </trkpt>
      <trkpt lat="28.6233750" lon="-17.8531950">
        <ele>1179.6</ele>
        <time>2020-11-17T09:54:13Z</time>
      </trkpt>
      <trkpt lat="28.6233530" lon="-17.8531520">
        <ele>1179.9</ele>
        <time>2020-11-17T09:54:14Z</time>
      </trkpt>
      <trkpt lat="28.6233530" lon="-17.8531520">
        <ele>1179.9</ele>
        <time>2020-11-17T09:54:15Z</time>
      </trkpt>
      <trkpt lat="28.6233280" lon="-17.8531130">
        <ele>1180.3</ele>
        <time>2020-11-17T09:54:16Z</time>
      </trkpt>
      <trkpt lat="28.6233280" lon="-17.8531130">
        <ele>1180.3</ele>
        <time>2020-11-17T09:54:17Z</time>
      </trkpt>
      <trkpt lat="28.6233050" lon="-17.8530800">
        <ele>1180.6</ele>
        <time>2020-11-17T09:54:18Z</time>
      </trkpt>
      <trkpt lat="28.6233050" lon="-17.8530800">
        <ele>1180.6</ele>
        <time>2020-11-17T09:54:19Z</time>
      </trkpt>
      <trkpt lat="28.6232770" lon="-17.8530550">
        <ele>1180.8</ele>
        <time>2020-11-17T09:54:20Z</time>
      </trkpt>
      <trkpt lat="28.6232770" lon="-17.8530550">
        <ele>1180.8</ele>
        <time>2020-11-17T09:54:21Z</time>
      </trkpt>
      <trkpt lat="28.6232530" lon="-17.8530250">
        <ele>1181.1</ele>
        <time>2020-11-17T09:54:22Z</time>
      </trkpt>
      <trkpt lat="28.6232530" lon="-17.8530250">
        <ele>1181.1</ele>
        <time>2020-11-17T09:54:23Z</time>
      </trkpt>
      <trkpt lat="28.6232280" lon="-17.8529920">
        <ele>1181.3</ele>
        <time>2020-11-17T09:54:24Z</time>
      </trkpt>
      <trkpt lat="28.6232280" lon="-17.8529920">
        <ele>1181.3</ele>
        <time>2020-11-17T09:54:25Z</time>
      </trkpt>
      <trkpt lat="28.6231980" lon="-17.8529620">
        <ele>1181.6</ele>
        <time>2020-11-17T09:54:26Z</time>
      </trkpt>
      <trkpt lat="28.6231980" lon="-17.8529620">
        <ele>1181.6</ele>
        <time>2020-11-17T09:54:27Z</time>
      </trkpt>
      <trkpt lat="28.6231630" lon="-17.8529380">
        <ele>1181.9</ele>
        <time>2020-11-17T09:54:28Z</time>
      </trkpt>
      <trkpt lat="28.6231630" lon="-17.8529380">
        <ele>1181.9</ele>
        <time>2020-11-17T09:54:29Z</time>
      </trkpt>
      <trkpt lat="28.6231330" lon="-17.8529130">
        <ele>1182.1</ele>
        <time>2020-11-17T09:54:30Z</time>
      </trkpt>
      <trkpt lat="28.6231330" lon="-17.8529130">
        <ele>1182.1</ele>
        <time>2020-11-17T09:54:31Z</time>
      </trkpt>
      <trkpt lat="28.6231080" lon="-17.8528830">
        <ele>1182.4</ele>
        <time>2020-11-17T09:54:32Z</time>
      </trkpt>
      <trkpt lat="28.6231080" lon="-17.8528830">
        <ele>1182.4</ele>
        <time>2020-11-17T09:54:33Z</time>
      </trkpt>
      <trkpt lat="28.6230830" lon="-17.8528570">
        <ele>1182.7</ele>
        <time>2020-11-17T09:54:34Z</time>
      </trkpt>
      <trkpt lat="28.6230700" lon="-17.8528420">
        <ele>1182.8</ele>
        <time>2020-11-17T09:54:35Z</time>
      </trkpt>
      <trkpt lat="28.6230700" lon="-17.8528420">
        <ele>1182.8</ele>
        <time>2020-11-17T09:54:36Z</time>
      </trkpt>
      <trkpt lat="28.6230450" lon="-17.8528120">
        <ele>1183.1</ele>
        <time>2020-11-17T09:54:37Z</time>
      </trkpt>
      <trkpt lat="28.6230450" lon="-17.8528120">
        <ele>1183.1</ele>
        <time>2020-11-17T09:54:38Z</time>
      </trkpt>
      <trkpt lat="28.6230180" lon="-17.8527850">
        <ele>1183.4</ele>
        <time>2020-11-17T09:54:39Z</time>
      </trkpt>
      <trkpt lat="28.6230180" lon="-17.8527850">
        <ele>1183.4</ele>
        <time>2020-11-17T09:54:40Z</time>
      </trkpt>
      <trkpt lat="28.6229930" lon="-17.8527620">
        <ele>1183.7</ele>
        <time>2020-11-17T09:54:41Z</time>
      </trkpt>
      <trkpt lat="28.6229930" lon="-17.8527620">
        <ele>1183.7</ele>
        <time>2020-11-17T09:54:42Z</time>
      </trkpt>
      <trkpt lat="28.6229650" lon="-17.8527500">
        <ele>1183.9</ele>
        <time>2020-11-17T09:54:43Z</time>
      </trkpt>
      <trkpt lat="28.6229650" lon="-17.8527500">
        <ele>1183.9</ele>
        <time>2020-11-17T09:54:44Z</time>
      </trkpt>
      <trkpt lat="28.6229370" lon="-17.8527430">
        <ele>1184.2</ele>
        <time>2020-11-17T09:54:45Z</time>
      </trkpt>
      <trkpt lat="28.6229170" lon="-17.8527420">
        <ele>1184.3</ele>
        <time>2020-11-17T09:54:46Z</time>
      </trkpt>
      <trkpt lat="28.6229170" lon="-17.8527420">
        <ele>1184.3</ele>
        <time>2020-11-17T09:54:47Z</time>
      </trkpt>
      <trkpt lat="28.6228870" lon="-17.8527280">
        <ele>1184.6</ele>
        <time>2020-11-17T09:54:48Z</time>
      </trkpt>
      <trkpt lat="28.6228870" lon="-17.8527280">
        <ele>1184.6</ele>
        <time>2020-11-17T09:54:49Z</time>
      </trkpt>
      <trkpt lat="28.6228670" lon="-17.8527120">
        <ele>1184.8</ele>
        <time>2020-11-17T09:54:50Z</time>
      </trkpt>
      <trkpt lat="28.6228570" lon="-17.8527020">
        <ele>1184.9</ele>
        <time>2020-11-17T09:54:51Z</time>
      </trkpt>
      <trkpt lat="28.6228570" lon="-17.8527020">
        <ele>1184.9</ele>
        <time>2020-11-17T09:54:52Z</time>
      </trkpt>
      <trkpt lat="28.6228400" lon="-17.8526750">
        <ele>1185.1</ele>
        <time>2020-11-17T09:54:53Z</time>
      </trkpt>
      <trkpt lat="28.6228400" lon="-17.8526750">
        <ele>1185.1</ele>
        <time>2020-11-17T09:54:54Z</time>
      </trkpt>
      <trkpt lat="28.6228270" lon="-17.8526300">
        <ele>1185.5</ele>
        <time>2020-11-17T09:54:55Z</time>
      </trkpt>
      <trkpt lat="28.6228270" lon="-17.8526300">
        <ele>1185.5</ele>
        <time>2020-11-17T09:54:56Z</time>
      </trkpt>
      <trkpt lat="28.6228150" lon="-17.8525930">
        <ele>1185.7</ele>
        <time>2020-11-17T09:54:57Z</time>
      </trkpt>
      <trkpt lat="28.6228150" lon="-17.8525930">
        <ele>1185.7</ele>
        <time>2020-11-17T09:54:58Z</time>
      </trkpt>
      <trkpt lat="28.6228070" lon="-17.8525630">
        <ele>1185.9</ele>
        <time>2020-11-17T09:54:59Z</time>
      </trkpt>
      <trkpt lat="28.6227970" lon="-17.8525520">
        <ele>1186.0</ele>
        <time>2020-11-17T09:55:00Z</time>
      </trkpt>
      <trkpt lat="28.6227970" lon="-17.8525520">
        <ele>1186.0</ele>
        <time>2020-11-17T09:55:01Z</time>
      </trkpt>
      <trkpt lat="28.6227870" lon="-17.8525220">
        <ele>1186.2</ele>
        <time>2020-11-17T09:55:02Z</time>
      </trkpt>
      <trkpt lat="28.6227870" lon="-17.8525220">
        <ele>1186.2</ele>
        <time>2020-11-17T09:55:03Z</time>
      </trkpt>
      <trkpt lat="28.6227750" lon="-17.8524830">
        <ele>1186.5</ele>
        <time>2020-11-17T09:55:04Z</time>
      </trkpt>
      <trkpt lat="28.6227750" lon="-17.8524830">
        <ele>1186.5</ele>
        <time>2020-11-17T09:55:05Z</time>
      </trkpt>
      <trkpt lat="28.6227700" lon="-17.8524520">
        <ele>1186.7</ele>
        <time>2020-11-17T09:55:06Z</time>
      </trkpt>
      <trkpt lat="28.6227700" lon="-17.8524520">
        <ele>1186.7</ele>
        <time>2020-11-17T09:55:07Z</time>
      </trkpt>
      <trkpt lat="28.6227570" lon="-17.8524200">
        <ele>1186.9</ele>
        <time>2020-11-17T09:55:08Z</time>
      </trkpt>
      <trkpt lat="28.6227570" lon="-17.8524200">
        <ele>1186.9</ele>
        <time>2020-11-17T09:55:09Z</time>
      </trkpt>
      <trkpt lat="28.6227480" lon="-17.8523930">
        <ele>1187.1</ele>
        <time>2020-11-17T09:55:10Z</time>
      </trkpt>
      <trkpt lat="28.6227480" lon="-17.8523930">
        <ele>1187.1</ele>
        <time>2020-11-17T09:55:11Z</time>
      </trkpt>
      <trkpt lat="28.6227330" lon="-17.8523670">
        <ele>1187.3</ele>
        <time>2020-11-17T09:55:12Z</time>
      </trkpt>
      <trkpt lat="28.6227280" lon="-17.8523520">
        <ele>1187.4</ele>
        <time>2020-11-17T09:55:13Z</time>
      </trkpt>
      <trkpt lat="28.6227280" lon="-17.8523520">
        <ele>1187.4</ele>
        <time>2020-11-17T09:55:14Z</time>
      </trkpt>
      <trkpt lat="28.6227150" lon="-17.8523170">
        <ele>1187.6</ele>
        <time>2020-11-17T09:55:15Z</time>
      </trkpt>
      <trkpt lat="28.6227150" lon="-17.8523170">
        <ele>1187.6</ele>
        <time>2020-11-17T09:55:16Z</time>
      </trkpt>
      <trkpt lat="28.6226930" lon="-17.8522830">
        <ele>1187.9</ele>
        <time>2020-11-17T09:55:17Z</time>
      </trkpt>
      <trkpt lat="28.6226730" lon="-17.8522550">
        <ele>1188.2</ele>
        <time>2020-11-17T09:55:18Z</time>
      </trkpt>
      <trkpt lat="28.6226730" lon="-17.8522550">
        <ele>1188.2</ele>
        <time>2020-11-17T09:55:19Z</time>
      </trkpt>
      <trkpt lat="28.6226550" lon="-17.8522180">
        <ele>1188.5</ele>
        <time>2020-11-17T09:55:20Z</time>
      </trkpt>
      <trkpt lat="28.6226550" lon="-17.8522180">
        <ele>1188.5</ele>
        <time>2020-11-17T09:55:21Z</time>
      </trkpt>
      <trkpt lat="28.6226470" lon="-17.8521930">
        <ele>1188.6</ele>
        <time>2020-11-17T09:55:22Z</time>
      </trkpt>
      <trkpt lat="28.6226450" lon="-17.8521780">
        <ele>1188.7</ele>
        <time>2020-11-17T09:55:23Z</time>
      </trkpt>
      <trkpt lat="28.6226450" lon="-17.8521780">
        <ele>1188.7</ele>
        <time>2020-11-17T09:55:24Z</time>
      </trkpt>
      <trkpt lat="28.6226320" lon="-17.8521400">
        <ele>1189.0</ele>
        <time>2020-11-17T09:55:25Z</time>
      </trkpt>
      <trkpt lat="28.6226320" lon="-17.8521400">
        <ele>1189.0</ele>
        <time>2020-11-17T09:55:26Z</time>
      </trkpt>
      <trkpt lat="28.6226120" lon="-17.8521070">
        <ele>1189.3</ele>
        <time>2020-11-17T09:55:27Z</time>
      </trkpt>
      <trkpt lat="28.6226120" lon="-17.8521070">
        <ele>1189.3</ele>
        <time>2020-11-17T09:55:28Z</time>
      </trkpt>
      <trkpt lat="28.6226030" lon="-17.8520630">
        <ele>1189.6</ele>
        <time>2020-11-17T09:55:29Z</time>
      </trkpt>
      <trkpt lat="28.6226030" lon="-17.8520630">
        <ele>1189.6</ele>
        <time>2020-11-17T09:55:30Z</time>
      </trkpt>
      <trkpt lat="28.6225900" lon="-17.8520280">
        <ele>1189.9</ele>
        <time>2020-11-17T09:55:31Z</time>
      </trkpt>
      <trkpt lat="28.6225850" lon="-17.8520120">
        <ele>1190.0</ele>
        <time>2020-11-17T09:55:32Z</time>
      </trkpt>
      <trkpt lat="28.6225850" lon="-17.8520120">
        <ele>1190.0</ele>
        <time>2020-11-17T09:55:33Z</time>
      </trkpt>
      <trkpt lat="28.6225830" lon="-17.8519820">
        <ele>1190.2</ele>
        <time>2020-11-17T09:55:34Z</time>
      </trkpt>
      <trkpt lat="28.6225830" lon="-17.8519820">
        <ele>1190.2</ele>
        <time>2020-11-17T09:55:35Z</time>
      </trkpt>
      <trkpt lat="28.6225830" lon="-17.8519400">
        <ele>1190.5</ele>
        <time>2020-11-17T09:55:36Z</time>
      </trkpt>
      <trkpt lat="28.6225830" lon="-17.8519400">
        <ele>1190.5</ele>
        <time>2020-11-17T09:55:37Z</time>
      </trkpt>
      <trkpt lat="28.6225930" lon="-17.8519000">
        <ele>1190.8</ele>
        <time>2020-11-17T09:55:38Z</time>
      </trkpt>
      <trkpt lat="28.6225930" lon="-17.8519000">
        <ele>1190.8</ele>
        <time>2020-11-17T09:55:39Z</time>
      </trkpt>
      <trkpt lat="28.6226080" lon="-17.8518600">
        <ele>1191.1</ele>
        <time>2020-11-17T09:55:40Z</time>
      </trkpt>
      <trkpt lat="28.6226170" lon="-17.8518370">
        <ele>1191.3</ele>
        <time>2020-11-17T09:55:41Z</time>
      </trkpt>
      <trkpt lat="28.6226170" lon="-17.8518370">
        <ele>1191.3</ele>
        <time>2020-11-17T09:55:42Z</time>
      </trkpt>
      <trkpt lat="28.6226320" lon="-17.8517950">
        <ele>1191.6</ele>
        <time>2020-11-17T09:55:43Z</time>
      </trkpt>
      <trkpt lat="28.6226320" lon="-17.8517950">
        <ele>1191.6</ele>
        <time>2020-11-17T09:55:44Z</time>
      </trkpt>
      <trkpt lat="28.6226470" lon="-17.8517580">
        <ele>1191.9</ele>
        <time>2020-11-17T09:55:45Z</time>
      </trkpt>
      <trkpt lat="28.6226470" lon="-17.8517580">
        <ele>1191.9</ele>
        <time>2020-11-17T09:55:46Z</time>
      </trkpt>
      <trkpt lat="28.6226550" lon="-17.8517120">
        <ele>1192.2</ele>
        <time>2020-11-17T09:55:47Z</time>
      </trkpt>
      <trkpt lat="28.6226570" lon="-17.8516900">
        <ele>1192.3</ele>
        <time>2020-11-17T09:55:48Z</time>
      </trkpt>
      <trkpt lat="28.6226570" lon="-17.8516900">
        <ele>1192.3</ele>
        <time>2020-11-17T09:55:49Z</time>
      </trkpt>
      <trkpt lat="28.6226670" lon="-17.8516350">
        <ele>1192.8</ele>
        <time>2020-11-17T09:55:50Z</time>
      </trkpt>
      <trkpt lat="28.6226670" lon="-17.8516350">
        <ele>1192.8</ele>
        <time>2020-11-17T09:55:51Z</time>
      </trkpt>
      <trkpt lat="28.6226780" lon="-17.8515950">
        <ele>1193.1</ele>
        <time>2020-11-17T09:55:52Z</time>
      </trkpt>
      <trkpt lat="28.6226780" lon="-17.8515950">
        <ele>1193.1</ele>
        <time>2020-11-17T09:55:53Z</time>
      </trkpt>
      <trkpt lat="28.6226770" lon="-17.8515580">
        <ele>1193.3</ele>
        <time>2020-11-17T09:55:54Z</time>
      </trkpt>
      <trkpt lat="28.6226680" lon="-17.8515400">
        <ele>1193.5</ele>
        <time>2020-11-17T09:55:55Z</time>
      </trkpt>
      <trkpt lat="28.6226680" lon="-17.8515400">
        <ele>1193.5</ele>
        <time>2020-11-17T09:55:56Z</time>
      </trkpt>
      <trkpt lat="28.6226470" lon="-17.8514980">
        <ele>1193.8</ele>
        <time>2020-11-17T09:55:57Z</time>
      </trkpt>
      <trkpt lat="28.6226470" lon="-17.8514980">
        <ele>1193.8</ele>
        <time>2020-11-17T09:55:58Z</time>
      </trkpt>
      <trkpt lat="28.6226200" lon="-17.8514580">
        <ele>1194.2</ele>
        <time>2020-11-17T09:55:59Z</time>
      </trkpt>
      <trkpt lat="28.6226200" lon="-17.8514580">
        <ele>1194.2</ele>
        <time>2020-11-17T09:56:00Z</time>
      </trkpt>
      <trkpt lat="28.6225950" lon="-17.8514270">
        <ele>1194.4</ele>
        <time>2020-11-17T09:56:01Z</time>
      </trkpt>
      <trkpt lat="28.6225950" lon="-17.8514270">
        <ele>1194.4</ele>
        <time>2020-11-17T09:56:02Z</time>
      </trkpt>
      <trkpt lat="28.6225700" lon="-17.8513970">
        <ele>1194.7</ele>
        <time>2020-11-17T09:56:03Z</time>
      </trkpt>
      <trkpt lat="28.6225700" lon="-17.8513970">
        <ele>1194.7</ele>
        <time>2020-11-17T09:56:04Z</time>
      </trkpt>
      <trkpt lat="28.6225400" lon="-17.8513730">
        <ele>1195.0</ele>
        <time>2020-11-17T09:56:05Z</time>
      </trkpt>
      <trkpt lat="28.6225400" lon="-17.8513730">
        <ele>1195.0</ele>
        <time>2020-11-17T09:56:06Z</time>
      </trkpt>
      <trkpt lat="28.6225170" lon="-17.8513500">
        <ele>1195.2</ele>
        <time>2020-11-17T09:56:07Z</time>
      </trkpt>
      <trkpt lat="28.6225170" lon="-17.8513500">
        <ele>1195.2</ele>
        <time>2020-11-17T09:56:08Z</time>
      </trkpt>
      <trkpt lat="28.6224970" lon="-17.8513300">
        <ele>1195.3</ele>
        <time>2020-11-17T09:56:09Z</time>
      </trkpt>
      <trkpt lat="28.6224830" lon="-17.8513150">
        <ele>1195.4</ele>
        <time>2020-11-17T09:56:10Z</time>
      </trkpt>
      <trkpt lat="28.6224830" lon="-17.8513150">
        <ele>1195.4</ele>
        <time>2020-11-17T09:56:11Z</time>
      </trkpt>
      <trkpt lat="28.6224580" lon="-17.8512770">
        <ele>1195.7</ele>
        <time>2020-11-17T09:56:12Z</time>
      </trkpt>
      <trkpt lat="28.6224580" lon="-17.8512770">
        <ele>1195.7</ele>
        <time>2020-11-17T09:56:13Z</time>
      </trkpt>
      <trkpt lat="28.6224350" lon="-17.8512350">
        <ele>1195.9</ele>
        <time>2020-11-17T09:56:14Z</time>
      </trkpt>
      <trkpt lat="28.6224350" lon="-17.8512350">
        <ele>1195.9</ele>
        <time>2020-11-17T09:56:15Z</time>
      </trkpt>
      <trkpt lat="28.6224180" lon="-17.8511920">
        <ele>1196.1</ele>
        <time>2020-11-17T09:56:16Z</time>
      </trkpt>
      <trkpt lat="28.6224120" lon="-17.8511650">
        <ele>1196.3</ele>
        <time>2020-11-17T09:56:17Z</time>
      </trkpt>
      <trkpt lat="28.6224030" lon="-17.8511380">
        <ele>1196.4</ele>
        <time>2020-11-17T09:56:18Z</time>
      </trkpt>
      <trkpt lat="28.6224030" lon="-17.8511380">
        <ele>1196.4</ele>
        <time>2020-11-17T09:56:19Z</time>
      </trkpt>
      <trkpt lat="28.6223900" lon="-17.8510800">
        <ele>1196.7</ele>
        <time>2020-11-17T09:56:20Z</time>
      </trkpt>
      <trkpt lat="28.6223900" lon="-17.8510800">
        <ele>1196.7</ele>
        <time>2020-11-17T09:56:21Z</time>
      </trkpt>
      <trkpt lat="28.6223820" lon="-17.8510200">
        <ele>1197.0</ele>
        <time>2020-11-17T09:56:22Z</time>
      </trkpt>
      <trkpt lat="28.6223730" lon="-17.8509880">
        <ele>1197.2</ele>
        <time>2020-11-17T09:56:23Z</time>
      </trkpt>
      <trkpt lat="28.6223580" lon="-17.8509530">
        <ele>1197.4</ele>
        <time>2020-11-17T09:56:24Z</time>
      </trkpt>
      <trkpt lat="28.6223580" lon="-17.8509530">
        <ele>1197.4</ele>
        <time>2020-11-17T09:56:25Z</time>
      </trkpt>
      <trkpt lat="28.6223180" lon="-17.8508950">
        <ele>1197.8</ele>
        <time>2020-11-17T09:56:26Z</time>
      </trkpt>
      <trkpt lat="28.6222920" lon="-17.8508650">
        <ele>1197.9</ele>
        <time>2020-11-17T09:56:27Z</time>
      </trkpt>
      <trkpt lat="28.6222920" lon="-17.8508650">
        <ele>1197.9</ele>
        <time>2020-11-17T09:56:28Z</time>
      </trkpt>
      <trkpt lat="28.6222420" lon="-17.8508100">
        <ele>1198.3</ele>
        <time>2020-11-17T09:56:29Z</time>
      </trkpt>
      <trkpt lat="28.6222230" lon="-17.8507770">
        <ele>1198.5</ele>
        <time>2020-11-17T09:56:30Z</time>
      </trkpt>
      <trkpt lat="28.6222230" lon="-17.8507770">
        <ele>1198.5</ele>
        <time>2020-11-17T09:56:31Z</time>
      </trkpt>
      <trkpt lat="28.6221980" lon="-17.8507050">
        <ele>1198.9</ele>
        <time>2020-11-17T09:56:32Z</time>
      </trkpt>
      <trkpt lat="28.6221980" lon="-17.8507050">
        <ele>1198.9</ele>
        <time>2020-11-17T09:56:33Z</time>
      </trkpt>
      <trkpt lat="28.6221930" lon="-17.8506350">
        <ele>1199.3</ele>
        <time>2020-11-17T09:56:34Z</time>
      </trkpt>
      <trkpt lat="28.6221930" lon="-17.8506350">
        <ele>1199.3</ele>
        <time>2020-11-17T09:56:35Z</time>
      </trkpt>
      <trkpt lat="28.6222030" lon="-17.8505650">
        <ele>1199.7</ele>
        <time>2020-11-17T09:56:36Z</time>
      </trkpt>
      <trkpt lat="28.6222030" lon="-17.8505650">
        <ele>1199.7</ele>
        <time>2020-11-17T09:56:37Z</time>
      </trkpt>
      <trkpt lat="28.6222300" lon="-17.8505030">
        <ele>1200.1</ele>
        <time>2020-11-17T09:56:38Z</time>
      </trkpt>
      <trkpt lat="28.6222300" lon="-17.8505030">
        <ele>1200.1</ele>
        <time>2020-11-17T09:56:39Z</time>
      </trkpt>
      <trkpt lat="28.6222480" lon="-17.8504550">
        <ele>1200.5</ele>
        <time>2020-11-17T09:56:40Z</time>
      </trkpt>
      <trkpt lat="28.6222480" lon="-17.8504550">
        <ele>1200.5</ele>
        <time>2020-11-17T09:56:41Z</time>
      </trkpt>
      <trkpt lat="28.6222650" lon="-17.8503920">
        <ele>1200.9</ele>
        <time>2020-11-17T09:56:42Z</time>
      </trkpt>
      <trkpt lat="28.6222730" lon="-17.8503550">
        <ele>1201.2</ele>
        <time>2020-11-17T09:56:43Z</time>
      </trkpt>
      <trkpt lat="28.6222730" lon="-17.8503550">
        <ele>1201.2</ele>
        <time>2020-11-17T09:56:44Z</time>
      </trkpt>
      <trkpt lat="28.6222920" lon="-17.8502700">
        <ele>1201.8</ele>
        <time>2020-11-17T09:56:45Z</time>
      </trkpt>
      <trkpt lat="28.6222920" lon="-17.8502700">
        <ele>1201.8</ele>
        <time>2020-11-17T09:56:46Z</time>
      </trkpt>
      <trkpt lat="28.6223020" lon="-17.8502170">
        <ele>1202.2</ele>
        <time>2020-11-17T09:56:47Z</time>
      </trkpt>
      <trkpt lat="28.6223020" lon="-17.8502170">
        <ele>1202.2</ele>
        <time>2020-11-17T09:56:48Z</time>
      </trkpt>
      <trkpt lat="28.6223050" lon="-17.8502100">
        <ele>1202.2</ele>
        <time>2020-11-17T09:56:49Z</time>
      </trkpt>
      <trkpt lat="28.6223050" lon="-17.8502100">
        <ele>1202.2</ele>
        <time>2020-11-17T09:56:50Z</time>
      </trkpt>
      <trkpt lat="28.6223070" lon="-17.8502070">
        <ele>1202.3</ele>
        <time>2020-11-17T09:56:51Z</time>
      </trkpt>
      <trkpt lat="28.6222880" lon="-17.8501800">
        <ele>1202.5</ele>
        <time>2020-11-17T09:58:48Z</time>
      </trkpt>
      <trkpt lat="28.6222880" lon="-17.8501800">
        <ele>1202.5</ele>
        <time>2020-11-17T09:58:49Z</time>
      </trkpt>
      <trkpt lat="28.6222870" lon="-17.8501800">
        <ele>1202.5</ele>
        <time>2020-11-17T09:58:50Z</time>
      </trkpt>
      <trkpt lat="28.6222600" lon="-17.8501200">
        <ele>1202.9</ele>
        <time>2020-11-17T09:58:57Z</time>
      </trkpt>
      <trkpt lat="28.6222600" lon="-17.8501200">
        <ele>1202.9</ele>
        <time>2020-11-17T09:58:58Z</time>
      </trkpt>
      <trkpt lat="28.6222580" lon="-17.8500830">
        <ele>1203.1</ele>
        <time>2020-11-17T09:58:59Z</time>
      </trkpt>
      <trkpt lat="28.6222570" lon="-17.8500600">
        <ele>1203.3</ele>
        <time>2020-11-17T09:59:00Z</time>
      </trkpt>
      <trkpt lat="28.6222570" lon="-17.8500600">
        <ele>1203.3</ele>
        <time>2020-11-17T09:59:01Z</time>
      </trkpt>
      <trkpt lat="28.6222570" lon="-17.8500070">
        <ele>1203.6</ele>
        <time>2020-11-17T09:59:02Z</time>
      </trkpt>
      <trkpt lat="28.6222570" lon="-17.8500070">
        <ele>1203.6</ele>
        <time>2020-11-17T09:59:03Z</time>
      </trkpt>
      <trkpt lat="28.6222550" lon="-17.8499530">
        <ele>1203.9</ele>
        <time>2020-11-17T09:59:04Z</time>
      </trkpt>
      <trkpt lat="28.6222550" lon="-17.8499270">
        <ele>1204.1</ele>
        <time>2020-11-17T09:59:05Z</time>
      </trkpt>
      <trkpt lat="28.6222550" lon="-17.8499270">
        <ele>1204.1</ele>
        <time>2020-11-17T09:59:06Z</time>
      </trkpt>
      <trkpt lat="28.6222570" lon="-17.8498750">
        <ele>1204.4</ele>
        <time>2020-11-17T09:59:07Z</time>
      </trkpt>
      <trkpt lat="28.6222570" lon="-17.8498750">
        <ele>1204.4</ele>
        <time>2020-11-17T09:59:08Z</time>
      </trkpt>
      <trkpt lat="28.6222600" lon="-17.8498250">
        <ele>1204.7</ele>
        <time>2020-11-17T09:59:09Z</time>
      </trkpt>
      <trkpt lat="28.6222600" lon="-17.8498250">
        <ele>1204.7</ele>
        <time>2020-11-17T09:59:10Z</time>
      </trkpt>
      <trkpt lat="28.6222630" lon="-17.8497780">
        <ele>1204.9</ele>
        <time>2020-11-17T09:59:11Z</time>
      </trkpt>
      <trkpt lat="28.6222630" lon="-17.8497780">
        <ele>1204.9</ele>
        <time>2020-11-17T09:59:12Z</time>
      </trkpt>
      <trkpt lat="28.6222630" lon="-17.8497780">
        <ele>1204.9</ele>
        <time>2020-11-17T09:59:13Z</time>
      </trkpt>
      <trkpt lat="28.6222720" lon="-17.8497070">
        <ele>1205.3</ele>
        <time>2020-11-17T09:59:14Z</time>
      </trkpt>
      <trkpt lat="28.6222720" lon="-17.8497070">
        <ele>1205.3</ele>
        <time>2020-11-17T09:59:15Z</time>
      </trkpt>
      <trkpt lat="28.6222800" lon="-17.8496600">
        <ele>1205.6</ele>
        <time>2020-11-17T09:59:16Z</time>
      </trkpt>
      <trkpt lat="28.6222800" lon="-17.8496600">
        <ele>1205.6</ele>
        <time>2020-11-17T09:59:17Z</time>
      </trkpt>
      <trkpt lat="28.6222850" lon="-17.8496100">
        <ele>1205.9</ele>
        <time>2020-11-17T09:59:18Z</time>
      </trkpt>
      <trkpt lat="28.6222850" lon="-17.8496100">
        <ele>1205.9</ele>
        <time>2020-11-17T09:59:19Z</time>
      </trkpt>
      <trkpt lat="28.6222900" lon="-17.8495600">
        <ele>1206.3</ele>
        <time>2020-11-17T09:59:20Z</time>
      </trkpt>
      <trkpt lat="28.6222900" lon="-17.8495600">
        <ele>1206.3</ele>
        <time>2020-11-17T09:59:21Z</time>
      </trkpt>
      <trkpt lat="28.6222950" lon="-17.8495100">
        <ele>1206.6</ele>
        <time>2020-11-17T09:59:22Z</time>
      </trkpt>
      <trkpt lat="28.6222950" lon="-17.8494830">
        <ele>1206.8</ele>
        <time>2020-11-17T09:59:23Z</time>
      </trkpt>
      <trkpt lat="28.6222950" lon="-17.8494830">
        <ele>1206.8</ele>
        <time>2020-11-17T09:59:24Z</time>
      </trkpt>
      <trkpt lat="28.6222900" lon="-17.8494250">
        <ele>1207.2</ele>
        <time>2020-11-17T09:59:25Z</time>
      </trkpt>
      <trkpt lat="28.6222900" lon="-17.8494250">
        <ele>1207.2</ele>
        <time>2020-11-17T09:59:26Z</time>
      </trkpt>
      <trkpt lat="28.6222800" lon="-17.8493720">
        <ele>1207.6</ele>
        <time>2020-11-17T09:59:27Z</time>
      </trkpt>
      <trkpt lat="28.6222800" lon="-17.8493720">
        <ele>1207.6</ele>
        <time>2020-11-17T09:59:28Z</time>
      </trkpt>
      <trkpt lat="28.6222720" lon="-17.8493230">
        <ele>1207.9</ele>
        <time>2020-11-17T09:59:29Z</time>
      </trkpt>
      <trkpt lat="28.6222670" lon="-17.8493020">
        <ele>1208.1</ele>
        <time>2020-11-17T09:59:30Z</time>
      </trkpt>
      <trkpt lat="28.6222670" lon="-17.8493020">
        <ele>1208.1</ele>
        <time>2020-11-17T09:59:31Z</time>
      </trkpt>
      <trkpt lat="28.6222520" lon="-17.8492570">
        <ele>1208.4</ele>
        <time>2020-11-17T09:59:32Z</time>
      </trkpt>
      <trkpt lat="28.6222520" lon="-17.8492570">
        <ele>1208.4</ele>
        <time>2020-11-17T09:59:33Z</time>
      </trkpt>
      <trkpt lat="28.6222370" lon="-17.8492130">
        <ele>1208.7</ele>
        <time>2020-11-17T09:59:34Z</time>
      </trkpt>
      <trkpt lat="28.6222370" lon="-17.8492130">
        <ele>1208.7</ele>
        <time>2020-11-17T09:59:35Z</time>
      </trkpt>
      <trkpt lat="28.6222220" lon="-17.8491720">
        <ele>1209.0</ele>
        <time>2020-11-17T09:59:36Z</time>
      </trkpt>
      <trkpt lat="28.6222220" lon="-17.8491720">
        <ele>1209.0</ele>
        <time>2020-11-17T09:59:37Z</time>
      </trkpt>
      <trkpt lat="28.6222100" lon="-17.8491250">
        <ele>1209.2</ele>
        <time>2020-11-17T09:59:38Z</time>
      </trkpt>
      <trkpt lat="28.6222070" lon="-17.8491000">
        <ele>1209.4</ele>
        <time>2020-11-17T09:59:39Z</time>
      </trkpt>
      <trkpt lat="28.6222070" lon="-17.8491000">
        <ele>1209.4</ele>
        <time>2020-11-17T09:59:40Z</time>
      </trkpt>
      <trkpt lat="28.6222000" lon="-17.8490450">
        <ele>1209.7</ele>
        <time>2020-11-17T09:59:41Z</time>
      </trkpt>
      <trkpt lat="28.6222000" lon="-17.8490450">
        <ele>1209.7</ele>
        <time>2020-11-17T09:59:42Z</time>
      </trkpt>
      <trkpt lat="28.6221980" lon="-17.8489970">
        <ele>1209.9</ele>
        <time>2020-11-17T09:59:43Z</time>
      </trkpt>
      <trkpt lat="28.6221980" lon="-17.8489970">
        <ele>1209.9</ele>
        <time>2020-11-17T09:59:44Z</time>
      </trkpt>
      <trkpt lat="28.6222050" lon="-17.8489480">
        <ele>1210.2</ele>
        <time>2020-11-17T09:59:45Z</time>
      </trkpt>
      <trkpt lat="28.6222050" lon="-17.8489480">
        <ele>1210.2</ele>
        <time>2020-11-17T09:59:46Z</time>
      </trkpt>
      <trkpt lat="28.6222150" lon="-17.8489030">
        <ele>1210.5</ele>
        <time>2020-11-17T09:59:47Z</time>
      </trkpt>
      <trkpt lat="28.6222180" lon="-17.8488850">
        <ele>1210.6</ele>
        <time>2020-11-17T09:59:48Z</time>
      </trkpt>
      <trkpt lat="28.6222180" lon="-17.8488850">
        <ele>1210.6</ele>
        <time>2020-11-17T09:59:49Z</time>
      </trkpt>
      <trkpt lat="28.6222170" lon="-17.8488650">
        <ele>1210.7</ele>
        <time>2020-11-17T09:59:50Z</time>
      </trkpt>
      <trkpt lat="28.6222170" lon="-17.8488650">
        <ele>1210.7</ele>
        <time>2020-11-17T09:59:51Z</time>
      </trkpt>
      <trkpt lat="28.6222170" lon="-17.8488650">
        <ele>1210.7</ele>
        <time>2020-11-17T09:59:52Z</time>
      </trkpt>
      <trkpt lat="28.6222170" lon="-17.8488650">
        <ele>1210.7</ele>
        <time>2020-11-17T09:59:53Z</time>
      </trkpt>
      <trkpt lat="28.6222170" lon="-17.8488650">
        <ele>1210.7</ele>
        <time>2020-11-17T10:01:15Z</time>
      </trkpt>
      <trkpt lat="28.6222120" lon="-17.8489220">
        <ele>1211.0</ele>
        <time>2020-11-17T10:01:16Z</time>
      </trkpt>
      <trkpt lat="28.6222120" lon="-17.8489330">
        <ele>1211.0</ele>
        <time>2020-11-17T10:01:17Z</time>
      </trkpt>
      <trkpt lat="28.6222120" lon="-17.8489330">
        <ele>1211.0</ele>
        <time>2020-11-17T10:01:18Z</time>
      </trkpt>
      <trkpt lat="28.6222170" lon="-17.8489530">
        <ele>1211.2</ele>
        <time>2020-11-17T10:01:19Z</time>
      </trkpt>
      <trkpt lat="28.6222170" lon="-17.8489530">
        <ele>1211.2</ele>
        <time>2020-11-17T10:01:20Z</time>
      </trkpt>
      <trkpt lat="28.6222220" lon="-17.8489600">
        <ele>1211.2</ele>
        <time>2020-11-17T10:01:21Z</time>
      </trkpt>
      <trkpt lat="28.6222220" lon="-17.8489600">
        <ele>1211.2</ele>
        <time>2020-11-17T10:01:22Z</time>
      </trkpt>
      <trkpt lat="28.6222220" lon="-17.8489600">
        <ele>1211.2</ele>
        <time>2020-11-17T10:01:23Z</time>
      </trkpt>
      <trkpt lat="28.6222120" lon="-17.8489050">
        <ele>1211.6</ele>
        <time>2020-11-17T10:01:30Z</time>
      </trkpt>
      <trkpt lat="28.6222120" lon="-17.8489050">
        <ele>1211.6</ele>
        <time>2020-11-17T10:01:31Z</time>
      </trkpt>
      <trkpt lat="28.6222170" lon="-17.8488680">
        <ele>1211.8</ele>
        <time>2020-11-17T10:01:32Z</time>
      </trkpt>
      <trkpt lat="28.6222200" lon="-17.8488480">
        <ele>1211.9</ele>
        <time>2020-11-17T10:01:33Z</time>
      </trkpt>
      <trkpt lat="28.6222200" lon="-17.8488480">
        <ele>1211.9</ele>
        <time>2020-11-17T10:01:34Z</time>
      </trkpt>
      <trkpt lat="28.6222280" lon="-17.8488100">
        <ele>1212.2</ele>
        <time>2020-11-17T10:01:35Z</time>
      </trkpt>
      <trkpt lat="28.6222330" lon="-17.8487920">
        <ele>1212.3</ele>
        <time>2020-11-17T10:01:36Z</time>
      </trkpt>
      <trkpt lat="28.6222330" lon="-17.8487920">
        <ele>1212.3</ele>
        <time>2020-11-17T10:01:37Z</time>
      </trkpt>
      <trkpt lat="28.6222450" lon="-17.8487570">
        <ele>1212.6</ele>
        <time>2020-11-17T10:01:38Z</time>
      </trkpt>
      <trkpt lat="28.6222500" lon="-17.8487380">
        <ele>1212.8</ele>
        <time>2020-11-17T10:01:39Z</time>
      </trkpt>
      <trkpt lat="28.6222550" lon="-17.8487180">
        <ele>1212.9</ele>
        <time>2020-11-17T10:01:40Z</time>
      </trkpt>
      <trkpt lat="28.6222550" lon="-17.8487180">
        <ele>1212.9</ele>
        <time>2020-11-17T10:01:41Z</time>
      </trkpt>
      <trkpt lat="28.6222620" lon="-17.8486800">
        <ele>1213.2</ele>
        <time>2020-11-17T10:01:42Z</time>
      </trkpt>
      <trkpt lat="28.6222620" lon="-17.8486800">
        <ele>1213.2</ele>
        <time>2020-11-17T10:01:43Z</time>
      </trkpt>
      <trkpt lat="28.6222700" lon="-17.8486420">
        <ele>1213.5</ele>
        <time>2020-11-17T10:01:44Z</time>
      </trkpt>
      <trkpt lat="28.6222700" lon="-17.8486420">
        <ele>1213.5</ele>
        <time>2020-11-17T10:01:45Z</time>
      </trkpt>
      <trkpt lat="28.6222800" lon="-17.8486180">
        <ele>1213.7</ele>
        <time>2020-11-17T10:01:46Z</time>
      </trkpt>
      <trkpt lat="28.6222820" lon="-17.8486170">
        <ele>1213.7</ele>
        <time>2020-11-17T10:01:47Z</time>
      </trkpt>
      <trkpt lat="28.6222820" lon="-17.8486170">
        <ele>1213.7</ele>
        <time>2020-11-17T10:01:48Z</time>
      </trkpt>
      <trkpt lat="28.6222830" lon="-17.8486150">
        <ele>1213.7</ele>
        <time>2020-11-17T10:01:49Z</time>
      </trkpt>
      <trkpt lat="28.6222830" lon="-17.8486150">
        <ele>1213.7</ele>
        <time>2020-11-17T10:01:50Z</time>
      </trkpt>
      <trkpt lat="28.6222930" lon="-17.8485820">
        <ele>1213.9</ele>
        <time>2020-11-17T10:02:48Z</time>
      </trkpt>
      <trkpt lat="28.6222930" lon="-17.8485820">
        <ele>1213.9</ele>
        <time>2020-11-17T10:02:49Z</time>
      </trkpt>
      <trkpt lat="28.6222930" lon="-17.8485430">
        <ele>1214.2</ele>
        <time>2020-11-17T10:02:50Z</time>
      </trkpt>
      <trkpt lat="28.6222930" lon="-17.8485430">
        <ele>1214.2</ele>
        <time>2020-11-17T10:02:51Z</time>
      </trkpt>
      <trkpt lat="28.6222900" lon="-17.8485020">
        <ele>1214.5</ele>
        <time>2020-11-17T10:02:52Z</time>
      </trkpt>
      <trkpt lat="28.6222900" lon="-17.8485020">
        <ele>1214.5</ele>
        <time>2020-11-17T10:02:53Z</time>
      </trkpt>
      <trkpt lat="28.6222830" lon="-17.8484550">
        <ele>1214.8</ele>
        <time>2020-11-17T10:02:54Z</time>
      </trkpt>
      <trkpt lat="28.6222830" lon="-17.8484550">
        <ele>1214.8</ele>
        <time>2020-11-17T10:02:55Z</time>
      </trkpt>
      <trkpt lat="28.6222800" lon="-17.8484080">
        <ele>1215.1</ele>
        <time>2020-11-17T10:02:56Z</time>
      </trkpt>
      <trkpt lat="28.6222800" lon="-17.8484080">
        <ele>1215.1</ele>
        <time>2020-11-17T10:02:57Z</time>
      </trkpt>
      <trkpt lat="28.6222720" lon="-17.8483600">
        <ele>1215.4</ele>
        <time>2020-11-17T10:02:58Z</time>
      </trkpt>
      <trkpt lat="28.6222720" lon="-17.8483600">
        <ele>1215.4</ele>
        <time>2020-11-17T10:02:59Z</time>
      </trkpt>
      <trkpt lat="28.6222600" lon="-17.8483100">
        <ele>1215.7</ele>
        <time>2020-11-17T10:03:00Z</time>
      </trkpt>
      <trkpt lat="28.6222600" lon="-17.8483100">
        <ele>1215.7</ele>
        <time>2020-11-17T10:03:01Z</time>
      </trkpt>
      <trkpt lat="28.6222470" lon="-17.8482620">
        <ele>1216.0</ele>
        <time>2020-11-17T10:03:02Z</time>
      </trkpt>
      <trkpt lat="28.6222420" lon="-17.8482380">
        <ele>1216.2</ele>
        <time>2020-11-17T10:03:03Z</time>
      </trkpt>
      <trkpt lat="28.6222350" lon="-17.8482170">
        <ele>1216.3</ele>
        <time>2020-11-17T10:03:04Z</time>
      </trkpt>
      <trkpt lat="28.6222350" lon="-17.8482170">
        <ele>1216.3</ele>
        <time>2020-11-17T10:03:05Z</time>
      </trkpt>
      <trkpt lat="28.6222270" lon="-17.8481680">
        <ele>1216.7</ele>
        <time>2020-11-17T10:03:06Z</time>
      </trkpt>
      <trkpt lat="28.6222270" lon="-17.8481680">
        <ele>1216.7</ele>
        <time>2020-11-17T10:03:07Z</time>
      </trkpt>
      <trkpt lat="28.6222220" lon="-17.8481220">
        <ele>1217.0</ele>
        <time>2020-11-17T10:03:08Z</time>
      </trkpt>
      <trkpt lat="28.6222180" lon="-17.8480980">
        <ele>1217.1</ele>
        <time>2020-11-17T10:03:09Z</time>
      </trkpt>
      <trkpt lat="28.6222180" lon="-17.8480980">
        <ele>1217.1</ele>
        <time>2020-11-17T10:03:10Z</time>
      </trkpt>
      <trkpt lat="28.6222150" lon="-17.8480530">
        <ele>1217.4</ele>
        <time>2020-11-17T10:03:11Z</time>
      </trkpt>
      <trkpt lat="28.6222150" lon="-17.8480530">
        <ele>1217.4</ele>
        <time>2020-11-17T10:03:12Z</time>
      </trkpt>
      <trkpt lat="28.6222100" lon="-17.8480100">
        <ele>1217.7</ele>
        <time>2020-11-17T10:03:13Z</time>
      </trkpt>
      <trkpt lat="28.6222080" lon="-17.8479880">
        <ele>1217.9</ele>
        <time>2020-11-17T10:03:14Z</time>
      </trkpt>
      <trkpt lat="28.6222080" lon="-17.8479880">
        <ele>1217.9</ele>
        <time>2020-11-17T10:03:15Z</time>
      </trkpt>
      <trkpt lat="28.6222050" lon="-17.8479430">
        <ele>1218.2</ele>
        <time>2020-11-17T10:03:16Z</time>
      </trkpt>
      <trkpt lat="28.6222020" lon="-17.8479230">
        <ele>1218.4</ele>
        <time>2020-11-17T10:03:17Z</time>
      </trkpt>
      <trkpt lat="28.6222020" lon="-17.8479230">
        <ele>1218.4</ele>
        <time>2020-11-17T10:03:18Z</time>
      </trkpt>
      <trkpt lat="28.6221930" lon="-17.8478770">
        <ele>1218.7</ele>
        <time>2020-11-17T10:03:19Z</time>
      </trkpt>
      <trkpt lat="28.6221920" lon="-17.8478570">
        <ele>1218.8</ele>
        <time>2020-11-17T10:03:20Z</time>
      </trkpt>
      <trkpt lat="28.6221920" lon="-17.8478570">
        <ele>1218.8</ele>
        <time>2020-11-17T10:03:21Z</time>
      </trkpt>
      <trkpt lat="28.6221870" lon="-17.8478150">
        <ele>1219.1</ele>
        <time>2020-11-17T10:03:22Z</time>
      </trkpt>
      <trkpt lat="28.6221820" lon="-17.8477930">
        <ele>1219.3</ele>
        <time>2020-11-17T10:03:23Z</time>
      </trkpt>
      <trkpt lat="28.6221820" lon="-17.8477930">
        <ele>1219.3</ele>
        <time>2020-11-17T10:03:24Z</time>
      </trkpt>
      <trkpt lat="28.6221730" lon="-17.8477450">
        <ele>1219.6</ele>
        <time>2020-11-17T10:03:25Z</time>
      </trkpt>
      <trkpt lat="28.6221730" lon="-17.8477450">
        <ele>1219.6</ele>
        <time>2020-11-17T10:03:26Z</time>
      </trkpt>
      <trkpt lat="28.6221620" lon="-17.8476950">
        <ele>1219.9</ele>
        <time>2020-11-17T10:03:27Z</time>
      </trkpt>
      <trkpt lat="28.6221620" lon="-17.8476950">
        <ele>1219.9</ele>
        <time>2020-11-17T10:03:28Z</time>
      </trkpt>
      <trkpt lat="28.6221420" lon="-17.8476520">
        <ele>1220.2</ele>
        <time>2020-11-17T10:03:29Z</time>
      </trkpt>
      <trkpt lat="28.6221370" lon="-17.8476300">
        <ele>1220.4</ele>
        <time>2020-11-17T10:03:30Z</time>
      </trkpt>
      <trkpt lat="28.6221370" lon="-17.8476300">
        <ele>1220.4</ele>
        <time>2020-11-17T10:03:31Z</time>
      </trkpt>
      <trkpt lat="28.6221270" lon="-17.8475880">
        <ele>1220.7</ele>
        <time>2020-11-17T10:03:32Z</time>
      </trkpt>
      <trkpt lat="28.6221200" lon="-17.8475670">
        <ele>1220.8</ele>
        <time>2020-11-17T10:03:33Z</time>
      </trkpt>
      <trkpt lat="28.6221200" lon="-17.8475670">
        <ele>1220.8</ele>
        <time>2020-11-17T10:03:34Z</time>
      </trkpt>
      <trkpt lat="28.6221100" lon="-17.8475220">
        <ele>1221.1</ele>
        <time>2020-11-17T10:03:35Z</time>
      </trkpt>
      <trkpt lat="28.6221070" lon="-17.8475000">
        <ele>1221.2</ele>
        <time>2020-11-17T10:03:36Z</time>
      </trkpt>
      <trkpt lat="28.6221070" lon="-17.8475000">
        <ele>1221.2</ele>
        <time>2020-11-17T10:03:37Z</time>
      </trkpt>
      <trkpt lat="28.6220980" lon="-17.8474520">
        <ele>1221.5</ele>
        <time>2020-11-17T10:03:38Z</time>
      </trkpt>
      <trkpt lat="28.6220970" lon="-17.8474250">
        <ele>1221.6</ele>
        <time>2020-11-17T10:03:39Z</time>
      </trkpt>
      <trkpt lat="28.6220970" lon="-17.8474250">
        <ele>1221.6</ele>
        <time>2020-11-17T10:03:40Z</time>
      </trkpt>
      <trkpt lat="28.6220920" lon="-17.8473770">
        <ele>1221.8</ele>
        <time>2020-11-17T10:03:41Z</time>
      </trkpt>
      <trkpt lat="28.6220870" lon="-17.8473530">
        <ele>1221.9</ele>
        <time>2020-11-17T10:03:42Z</time>
      </trkpt>
      <trkpt lat="28.6220830" lon="-17.8473280">
        <ele>1222.1</ele>
        <time>2020-11-17T10:03:43Z</time>
      </trkpt>
      <trkpt lat="28.6220830" lon="-17.8473280">
        <ele>1222.1</ele>
        <time>2020-11-17T10:03:44Z</time>
      </trkpt>
      <trkpt lat="28.6220780" lon="-17.8472780">
        <ele>1222.9</ele>
        <time>2020-11-17T10:03:45Z</time>
      </trkpt>
      <trkpt lat="28.6220780" lon="-17.8472780">
        <ele>1222.9</ele>
        <time>2020-11-17T10:03:46Z</time>
      </trkpt>
      <trkpt lat="28.6220800" lon="-17.8472330">
        <ele>1222.9</ele>
        <time>2020-11-17T10:03:47Z</time>
      </trkpt>
      <trkpt lat="28.6220850" lon="-17.8472150">
        <ele>1223.1</ele>
        <time>2020-11-17T10:03:48Z</time>
      </trkpt>
      <trkpt lat="28.6220850" lon="-17.8472150">
        <ele>1223.1</ele>
        <time>2020-11-17T10:03:49Z</time>
      </trkpt>
      <trkpt lat="28.6221000" lon="-17.8471880">
        <ele>1223.5</ele>
        <time>2020-11-17T10:03:50Z</time>
      </trkpt>
      <trkpt lat="28.6221200" lon="-17.8471830">
        <ele>1223.7</ele>
        <time>2020-11-17T10:03:51Z</time>
      </trkpt>
      <trkpt lat="28.6221200" lon="-17.8471830">
        <ele>1223.7</ele>
        <time>2020-11-17T10:03:52Z</time>
      </trkpt>
      <trkpt lat="28.6221630" lon="-17.8471930">
        <ele>1224.2</ele>
        <time>2020-11-17T10:03:53Z</time>
      </trkpt>
      <trkpt lat="28.6221900" lon="-17.8472030">
        <ele>1224.6</ele>
        <time>2020-11-17T10:03:54Z</time>
      </trkpt>
      <trkpt lat="28.6221900" lon="-17.8472030">
        <ele>1224.6</ele>
        <time>2020-11-17T10:03:55Z</time>
      </trkpt>
      <trkpt lat="28.6222580" lon="-17.8472080">
        <ele>1225.4</ele>
        <time>2020-11-17T10:03:56Z</time>
      </trkpt>
      <trkpt lat="28.6222950" lon="-17.8472030">
        <ele>1225.8</ele>
        <time>2020-11-17T10:03:57Z</time>
      </trkpt>
      <trkpt lat="28.6222950" lon="-17.8472030">
        <ele>1225.8</ele>
        <time>2020-11-17T10:03:58Z</time>
      </trkpt>
      <trkpt lat="28.6223670" lon="-17.8471870">
        <ele>1226.7</ele>
        <time>2020-11-17T10:03:59Z</time>
      </trkpt>
      <trkpt lat="28.6223670" lon="-17.8471870">
        <ele>1226.7</ele>
        <time>2020-11-17T10:04:00Z</time>
      </trkpt>
      <trkpt lat="28.6224180" lon="-17.8471630">
        <ele>1226.3</ele>
        <time>2020-11-17T10:04:01Z</time>
      </trkpt>
      <trkpt lat="28.6224330" lon="-17.8471680">
        <ele>1226.2</ele>
        <time>2020-11-17T10:04:02Z</time>
      </trkpt>
      <trkpt lat="28.6224330" lon="-17.8471680">
        <ele>1226.2</ele>
        <time>2020-11-17T10:04:03Z</time>
      </trkpt>
      <trkpt lat="28.6224370" lon="-17.8472030">
        <ele>1226.0</ele>
        <time>2020-11-17T10:04:04Z</time>
      </trkpt>
      <trkpt lat="28.6224300" lon="-17.8472200">
        <ele>1225.9</ele>
        <time>2020-11-17T10:04:05Z</time>
      </trkpt>
      <trkpt lat="28.6224300" lon="-17.8472200">
        <ele>1225.9</ele>
        <time>2020-11-17T10:04:06Z</time>
      </trkpt>
      <trkpt lat="28.6224050" lon="-17.8472400">
        <ele>1225.7</ele>
        <time>2020-11-17T10:04:07Z</time>
      </trkpt>
      <trkpt lat="28.6224050" lon="-17.8472400">
        <ele>1225.7</ele>
        <time>2020-11-17T10:04:08Z</time>
      </trkpt>
      <trkpt lat="28.6223880" lon="-17.8472430">
        <ele>1225.6</ele>
        <time>2020-11-17T10:04:09Z</time>
      </trkpt>
      <trkpt lat="28.6223470" lon="-17.8472350">
        <ele>1225.3</ele>
        <time>2020-11-17T10:04:10Z</time>
      </trkpt>
      <trkpt lat="28.6223270" lon="-17.8472270">
        <ele>1225.1</ele>
        <time>2020-11-17T10:04:11Z</time>
      </trkpt>
      <trkpt lat="28.6223050" lon="-17.8472180">
        <ele>1225.0</ele>
        <time>2020-11-17T10:04:12Z</time>
      </trkpt>
      <trkpt lat="28.6223050" lon="-17.8472180">
        <ele>1225.0</ele>
        <time>2020-11-17T10:04:13Z</time>
      </trkpt>
      <trkpt lat="28.6222580" lon="-17.8472170">
        <ele>1224.6</ele>
        <time>2020-11-17T10:04:14Z</time>
      </trkpt>
      <trkpt lat="28.6222350" lon="-17.8472180">
        <ele>1224.5</ele>
        <time>2020-11-17T10:04:15Z</time>
      </trkpt>
      <trkpt lat="28.6222350" lon="-17.8472180">
        <ele>1224.5</ele>
        <time>2020-11-17T10:04:16Z</time>
      </trkpt>
      <trkpt lat="28.6221900" lon="-17.8472220">
        <ele>1224.2</ele>
        <time>2020-11-17T10:04:17Z</time>
      </trkpt>
      <trkpt lat="28.6221680" lon="-17.8472200">
        <ele>1222.9</ele>
        <time>2020-11-17T10:04:18Z</time>
      </trkpt>
      <trkpt lat="28.6221680" lon="-17.8472200">
        <ele>1222.9</ele>
        <time>2020-11-17T10:04:19Z</time>
      </trkpt>
      <trkpt lat="28.6221330" lon="-17.8472050">
        <ele>1223.0</ele>
        <time>2020-11-17T10:04:20Z</time>
      </trkpt>
      <trkpt lat="28.6221330" lon="-17.8472050">
        <ele>1223.0</ele>
        <time>2020-11-17T10:04:21Z</time>
      </trkpt>
      <trkpt lat="28.6221100" lon="-17.8471820">
        <ele>1223.0</ele>
        <time>2020-11-17T10:04:22Z</time>
      </trkpt>
      <trkpt lat="28.6221030" lon="-17.8471680">
        <ele>1223.0</ele>
        <time>2020-11-17T10:04:23Z</time>
      </trkpt>
      <trkpt lat="28.6221030" lon="-17.8471680">
        <ele>1223.0</ele>
        <time>2020-11-17T10:04:24Z</time>
      </trkpt>
      <trkpt lat="28.6220930" lon="-17.8471280">
        <ele>1223.0</ele>
        <time>2020-11-17T10:04:25Z</time>
      </trkpt>
      <trkpt lat="28.6220880" lon="-17.8471050">
        <ele>1223.1</ele>
        <time>2020-11-17T10:04:26Z</time>
      </trkpt>
      <trkpt lat="28.6220880" lon="-17.8471050">
        <ele>1223.1</ele>
        <time>2020-11-17T10:04:27Z</time>
      </trkpt>
      <trkpt lat="28.6220750" lon="-17.8470470">
        <ele>1223.1</ele>
        <time>2020-11-17T10:04:28Z</time>
      </trkpt>
      <trkpt lat="28.6220750" lon="-17.8470120">
        <ele>1223.1</ele>
        <time>2020-11-17T10:04:29Z</time>
      </trkpt>
      <trkpt lat="28.6220750" lon="-17.8470120">
        <ele>1223.1</ele>
        <time>2020-11-17T10:04:30Z</time>
      </trkpt>
      <trkpt lat="28.6220720" lon="-17.8469500">
        <ele>1223.2</ele>
        <time>2020-11-17T10:04:31Z</time>
      </trkpt>
      <trkpt lat="28.6220720" lon="-17.8469500">
        <ele>1223.2</ele>
        <time>2020-11-17T10:04:32Z</time>
      </trkpt>
      <trkpt lat="28.6220720" lon="-17.8468880">
        <ele>1223.3</ele>
        <time>2020-11-17T10:04:33Z</time>
      </trkpt>
      <trkpt lat="28.6220730" lon="-17.8468570">
        <ele>1223.3</ele>
        <time>2020-11-17T10:04:34Z</time>
      </trkpt>
      <trkpt lat="28.6220730" lon="-17.8468570">
        <ele>1223.3</ele>
        <time>2020-11-17T10:04:35Z</time>
      </trkpt>
      <trkpt lat="28.6220830" lon="-17.8467970">
        <ele>1223.4</ele>
        <time>2020-11-17T10:04:36Z</time>
      </trkpt>
      <trkpt lat="28.6220830" lon="-17.8467970">
        <ele>1223.4</ele>
        <time>2020-11-17T10:04:37Z</time>
      </trkpt>
      <trkpt lat="28.6220970" lon="-17.8467380">
        <ele>1223.5</ele>
        <time>2020-11-17T10:04:38Z</time>
      </trkpt>
      <trkpt lat="28.6220970" lon="-17.8467380">
        <ele>1223.5</ele>
        <time>2020-11-17T10:04:39Z</time>
      </trkpt>
      <trkpt lat="28.6221120" lon="-17.8466780">
        <ele>1223.7</ele>
        <time>2020-11-17T10:04:40Z</time>
      </trkpt>
      <trkpt lat="28.6221120" lon="-17.8466780">
        <ele>1223.7</ele>
        <time>2020-11-17T10:04:41Z</time>
      </trkpt>
      <trkpt lat="28.6221120" lon="-17.8466780">
        <ele>1223.7</ele>
        <time>2020-11-17T10:04:42Z</time>
      </trkpt>
      <trkpt lat="28.6221280" lon="-17.8466170">
        <ele>1223.9</ele>
        <time>2020-11-17T10:04:43Z</time>
      </trkpt>
      <trkpt lat="28.6221420" lon="-17.8465600">
        <ele>1224.1</ele>
        <time>2020-11-17T10:04:44Z</time>
      </trkpt>
      <trkpt lat="28.6221500" lon="-17.8465300">
        <ele>1224.3</ele>
        <time>2020-11-17T10:04:45Z</time>
      </trkpt>
      <trkpt lat="28.6221500" lon="-17.8465300">
        <ele>1224.3</ele>
        <time>2020-11-17T10:04:46Z</time>
      </trkpt>
      <trkpt lat="28.6221630" lon="-17.8464730">
        <ele>1224.5</ele>
        <time>2020-11-17T10:04:47Z</time>
      </trkpt>
      <trkpt lat="28.6221630" lon="-17.8464730">
        <ele>1224.5</ele>
        <time>2020-11-17T10:04:48Z</time>
      </trkpt>
      <trkpt lat="28.6221730" lon="-17.8464270">
        <ele>1224.8</ele>
        <time>2020-11-17T10:04:49Z</time>
      </trkpt>
      <trkpt lat="28.6221750" lon="-17.8464070">
        <ele>1224.9</ele>
        <time>2020-11-17T10:04:50Z</time>
      </trkpt>
      <trkpt lat="28.6221750" lon="-17.8464070">
        <ele>1224.9</ele>
        <time>2020-11-17T10:04:51Z</time>
      </trkpt>
      <trkpt lat="28.6221880" lon="-17.8463670">
        <ele>1225.1</ele>
        <time>2020-11-17T10:04:52Z</time>
      </trkpt>
      <trkpt lat="28.6221880" lon="-17.8463670">
        <ele>1225.1</ele>
        <time>2020-11-17T10:04:53Z</time>
      </trkpt>
      <trkpt lat="28.6222100" lon="-17.8463280">
        <ele>1225.4</ele>
        <time>2020-11-17T10:04:54Z</time>
      </trkpt>
      <trkpt lat="28.6222100" lon="-17.8463280">
        <ele>1225.4</ele>
        <time>2020-11-17T10:04:55Z</time>
      </trkpt>
      <trkpt lat="28.6222330" lon="-17.8462850">
        <ele>1225.7</ele>
        <time>2020-11-17T10:04:56Z</time>
      </trkpt>
      <trkpt lat="28.6222330" lon="-17.8462850">
        <ele>1225.7</ele>
        <time>2020-11-17T10:04:57Z</time>
      </trkpt>
      <trkpt lat="28.6222580" lon="-17.8462450">
        <ele>1226.1</ele>
        <time>2020-11-17T10:04:58Z</time>
      </trkpt>
      <trkpt lat="28.6222580" lon="-17.8462450">
        <ele>1226.1</ele>
        <time>2020-11-17T10:04:59Z</time>
      </trkpt>
      <trkpt lat="28.6222850" lon="-17.8462100">
        <ele>1226.4</ele>
        <time>2020-11-17T10:05:00Z</time>
      </trkpt>
      <trkpt lat="28.6222970" lon="-17.8461920">
        <ele>1226.5</ele>
        <time>2020-11-17T10:05:01Z</time>
      </trkpt>
      <trkpt lat="28.6222970" lon="-17.8461920">
        <ele>1226.5</ele>
        <time>2020-11-17T10:05:02Z</time>
      </trkpt>
      <trkpt lat="28.6223230" lon="-17.8461620">
        <ele>1226.8</ele>
        <time>2020-11-17T10:05:03Z</time>
      </trkpt>
      <trkpt lat="28.6223230" lon="-17.8461620">
        <ele>1226.8</ele>
        <time>2020-11-17T10:05:04Z</time>
      </trkpt>
      <trkpt lat="28.6223480" lon="-17.8461370">
        <ele>1227.1</ele>
        <time>2020-11-17T10:05:05Z</time>
      </trkpt>
      <trkpt lat="28.6223620" lon="-17.8461220">
        <ele>1227.2</ele>
        <time>2020-11-17T10:05:06Z</time>
      </trkpt>
      <trkpt lat="28.6223620" lon="-17.8461220">
        <ele>1227.2</ele>
        <time>2020-11-17T10:05:07Z</time>
      </trkpt>
      <trkpt lat="28.6223830" lon="-17.8460920">
        <ele>1227.5</ele>
        <time>2020-11-17T10:05:08Z</time>
      </trkpt>
      <trkpt lat="28.6223830" lon="-17.8460920">
        <ele>1227.5</ele>
        <time>2020-11-17T10:05:09Z</time>
      </trkpt>
      <trkpt lat="28.6224080" lon="-17.8460700">
        <ele>1227.8</ele>
        <time>2020-11-17T10:05:10Z</time>
      </trkpt>
      <trkpt lat="28.6224080" lon="-17.8460700">
        <ele>1227.8</ele>
        <time>2020-11-17T10:05:11Z</time>
      </trkpt>
      <trkpt lat="28.6224370" lon="-17.8460520">
        <ele>1228.1</ele>
        <time>2020-11-17T10:05:12Z</time>
      </trkpt>
      <trkpt lat="28.6224370" lon="-17.8460520">
        <ele>1228.1</ele>
        <time>2020-11-17T10:05:13Z</time>
      </trkpt>
      <trkpt lat="28.6224680" lon="-17.8460350">
        <ele>1228.5</ele>
        <time>2020-11-17T10:05:14Z</time>
      </trkpt>
      <trkpt lat="28.6224680" lon="-17.8460350">
        <ele>1228.5</ele>
        <time>2020-11-17T10:05:15Z</time>
      </trkpt>
      <trkpt lat="28.6224930" lon="-17.8460200">
        <ele>1228.7</ele>
        <time>2020-11-17T10:05:16Z</time>
      </trkpt>
      <trkpt lat="28.6224930" lon="-17.8460200">
        <ele>1228.7</ele>
        <time>2020-11-17T10:05:17Z</time>
      </trkpt>
      <trkpt lat="28.6225220" lon="-17.8460030">
        <ele>1229.1</ele>
        <time>2020-11-17T10:05:18Z</time>
      </trkpt>
      <trkpt lat="28.6225330" lon="-17.8459920">
        <ele>1229.2</ele>
        <time>2020-11-17T10:05:19Z</time>
      </trkpt>
      <trkpt lat="28.6225330" lon="-17.8459920">
        <ele>1229.2</ele>
        <time>2020-11-17T10:05:20Z</time>
      </trkpt>
      <trkpt lat="28.6225580" lon="-17.8459700">
        <ele>1229.5</ele>
        <time>2020-11-17T10:05:21Z</time>
      </trkpt>
      <trkpt lat="28.6225720" lon="-17.8459550">
        <ele>1229.7</ele>
        <time>2020-11-17T10:05:22Z</time>
      </trkpt>
      <trkpt lat="28.6225720" lon="-17.8459550">
        <ele>1229.7</ele>
        <time>2020-11-17T10:05:23Z</time>
      </trkpt>
      <trkpt lat="28.6225900" lon="-17.8459250">
        <ele>1230.0</ele>
        <time>2020-11-17T10:05:24Z</time>
      </trkpt>
      <trkpt lat="28.6225900" lon="-17.8459250">
        <ele>1230.0</ele>
        <time>2020-11-17T10:05:25Z</time>
      </trkpt>
      <trkpt lat="28.6226050" lon="-17.8458880">
        <ele>1230.3</ele>
        <time>2020-11-17T10:05:26Z</time>
      </trkpt>
      <trkpt lat="28.6226050" lon="-17.8458880">
        <ele>1230.3</ele>
        <time>2020-11-17T10:05:27Z</time>
      </trkpt>
      <trkpt lat="28.6226130" lon="-17.8458450">
        <ele>1230.7</ele>
        <time>2020-11-17T10:05:28Z</time>
      </trkpt>
      <trkpt lat="28.6226170" lon="-17.8458220">
        <ele>1230.9</ele>
        <time>2020-11-17T10:05:29Z</time>
      </trkpt>
      <trkpt lat="28.6226220" lon="-17.8458000">
        <ele>1231.1</ele>
        <time>2020-11-17T10:05:30Z</time>
      </trkpt>
      <trkpt lat="28.6226220" lon="-17.8458000">
        <ele>1231.1</ele>
        <time>2020-11-17T10:05:31Z</time>
      </trkpt>
      <trkpt lat="28.6226330" lon="-17.8457550">
        <ele>1231.4</ele>
        <time>2020-11-17T10:05:32Z</time>
      </trkpt>
      <trkpt lat="28.6226380" lon="-17.8457350">
        <ele>1231.5</ele>
        <time>2020-11-17T10:05:33Z</time>
      </trkpt>
      <trkpt lat="28.6226380" lon="-17.8457350">
        <ele>1231.5</ele>
        <time>2020-11-17T10:05:34Z</time>
      </trkpt>
      <trkpt lat="28.6226580" lon="-17.8456950">
        <ele>1231.9</ele>
        <time>2020-11-17T10:05:35Z</time>
      </trkpt>
      <trkpt lat="28.6226580" lon="-17.8456950">
        <ele>1231.9</ele>
        <time>2020-11-17T10:05:36Z</time>
      </trkpt>
      <trkpt lat="28.6226880" lon="-17.8456600">
        <ele>1232.2</ele>
        <time>2020-11-17T10:05:37Z</time>
      </trkpt>
      <trkpt lat="28.6226880" lon="-17.8456600">
        <ele>1232.2</ele>
        <time>2020-11-17T10:05:38Z</time>
      </trkpt>
      <trkpt lat="28.6227220" lon="-17.8456320">
        <ele>1232.5</ele>
        <time>2020-11-17T10:05:39Z</time>
      </trkpt>
      <trkpt lat="28.6227220" lon="-17.8456320">
        <ele>1232.5</ele>
        <time>2020-11-17T10:05:40Z</time>
      </trkpt>
      <trkpt lat="28.6227570" lon="-17.8456030">
        <ele>1232.8</ele>
        <time>2020-11-17T10:05:41Z</time>
      </trkpt>
      <trkpt lat="28.6227700" lon="-17.8455920">
        <ele>1232.9</ele>
        <time>2020-11-17T10:05:42Z</time>
      </trkpt>
      <trkpt lat="28.6227700" lon="-17.8455920">
        <ele>1232.9</ele>
        <time>2020-11-17T10:05:43Z</time>
      </trkpt>
      <trkpt lat="28.6228030" lon="-17.8455700">
        <ele>1233.1</ele>
        <time>2020-11-17T10:05:44Z</time>
      </trkpt>
      <trkpt lat="28.6228030" lon="-17.8455700">
        <ele>1233.1</ele>
        <time>2020-11-17T10:05:45Z</time>
      </trkpt>
      <trkpt lat="28.6228030" lon="-17.8455700">
        <ele>1233.1</ele>
        <time>2020-11-17T10:05:46Z</time>
      </trkpt>
      <trkpt lat="28.6228580" lon="-17.8455450">
        <ele>1233.6</ele>
        <time>2020-11-17T10:05:47Z</time>
      </trkpt>
      <trkpt lat="28.6228750" lon="-17.8455380">
        <ele>1233.7</ele>
        <time>2020-11-17T10:05:48Z</time>
      </trkpt>
      <trkpt lat="28.6228750" lon="-17.8455380">
        <ele>1233.7</ele>
        <time>2020-11-17T10:05:49Z</time>
      </trkpt>
      <trkpt lat="28.6229100" lon="-17.8455230">
        <ele>1234.0</ele>
        <time>2020-11-17T10:05:50Z</time>
      </trkpt>
      <trkpt lat="28.6229280" lon="-17.8455120">
        <ele>1234.2</ele>
        <time>2020-11-17T10:05:51Z</time>
      </trkpt>
      <trkpt lat="28.6229280" lon="-17.8455120">
        <ele>1234.2</ele>
        <time>2020-11-17T10:05:52Z</time>
      </trkpt>
      <trkpt lat="28.6229620" lon="-17.8454900">
        <ele>1234.5</ele>
        <time>2020-11-17T10:05:53Z</time>
      </trkpt>
      <trkpt lat="28.6229770" lon="-17.8454800">
        <ele>1234.6</ele>
        <time>2020-11-17T10:05:54Z</time>
      </trkpt>
      <trkpt lat="28.6229770" lon="-17.8454800">
        <ele>1234.6</ele>
        <time>2020-11-17T10:05:55Z</time>
      </trkpt>
      <trkpt lat="28.6230050" lon="-17.8454570">
        <ele>1234.9</ele>
        <time>2020-11-17T10:05:56Z</time>
      </trkpt>
      <trkpt lat="28.6230050" lon="-17.8454570">
        <ele>1234.9</ele>
        <time>2020-11-17T10:05:57Z</time>
      </trkpt>
      <trkpt lat="28.6230250" lon="-17.8454230">
        <ele>1235.2</ele>
        <time>2020-11-17T10:05:58Z</time>
      </trkpt>
      <trkpt lat="28.6230370" lon="-17.8454050">
        <ele>1235.3</ele>
        <time>2020-11-17T10:05:59Z</time>
      </trkpt>
      <trkpt lat="28.6230480" lon="-17.8453880">
        <ele>1235.4</ele>
        <time>2020-11-17T10:06:00Z</time>
      </trkpt>
      <trkpt lat="28.6230480" lon="-17.8453880">
        <ele>1235.4</ele>
        <time>2020-11-17T10:06:01Z</time>
      </trkpt>
      <trkpt lat="28.6230670" lon="-17.8453380">
        <ele>1235.9</ele>
        <time>2020-11-17T10:06:02Z</time>
      </trkpt>
      <trkpt lat="28.6230670" lon="-17.8453380">
        <ele>1235.9</ele>
        <time>2020-11-17T10:06:03Z</time>
      </trkpt>
      <trkpt lat="28.6230730" lon="-17.8452880">
        <ele>1236.2</ele>
        <time>2020-11-17T10:06:04Z</time>
      </trkpt>
      <trkpt lat="28.6230750" lon="-17.8452680">
        <ele>1236.4</ele>
        <time>2020-11-17T10:06:05Z</time>
      </trkpt>
      <trkpt lat="28.6230750" lon="-17.8452680">
        <ele>1236.4</ele>
        <time>2020-11-17T10:06:06Z</time>
      </trkpt>
      <trkpt lat="28.6230770" lon="-17.8452200">
        <ele>1236.7</ele>
        <time>2020-11-17T10:06:07Z</time>
      </trkpt>
      <trkpt lat="28.6230770" lon="-17.8452200">
        <ele>1236.7</ele>
        <time>2020-11-17T10:06:08Z</time>
      </trkpt>
      <trkpt lat="28.6230720" lon="-17.8451750">
        <ele>1237.0</ele>
        <time>2020-11-17T10:06:09Z</time>
      </trkpt>
      <trkpt lat="28.6230720" lon="-17.8451750">
        <ele>1237.0</ele>
        <time>2020-11-17T10:06:10Z</time>
      </trkpt>
      <trkpt lat="28.6230650" lon="-17.8451320">
        <ele>1237.3</ele>
        <time>2020-11-17T10:06:11Z</time>
      </trkpt>
      <trkpt lat="28.6230620" lon="-17.8451080">
        <ele>1237.5</ele>
        <time>2020-11-17T10:06:12Z</time>
      </trkpt>
      <trkpt lat="28.6230620" lon="-17.8451080">
        <ele>1237.5</ele>
        <time>2020-11-17T10:06:13Z</time>
      </trkpt>
      <trkpt lat="28.6230550" lon="-17.8450670">
        <ele>1237.8</ele>
        <time>2020-11-17T10:06:14Z</time>
      </trkpt>
      <trkpt lat="28.6230550" lon="-17.8450670">
        <ele>1237.8</ele>
        <time>2020-11-17T10:06:15Z</time>
      </trkpt>
      <trkpt lat="28.6230430" lon="-17.8450280">
        <ele>1238.0</ele>
        <time>2020-11-17T10:06:16Z</time>
      </trkpt>
      <trkpt lat="28.6230430" lon="-17.8450280">
        <ele>1238.0</ele>
        <time>2020-11-17T10:06:17Z</time>
      </trkpt>
      <trkpt lat="28.6230320" lon="-17.8449900">
        <ele>1238.3</ele>
        <time>2020-11-17T10:06:18Z</time>
      </trkpt>
      <trkpt lat="28.6230320" lon="-17.8449900">
        <ele>1238.3</ele>
        <time>2020-11-17T10:06:19Z</time>
      </trkpt>
      <trkpt lat="28.6230130" lon="-17.8449550">
        <ele>1238.5</ele>
        <time>2020-11-17T10:06:20Z</time>
      </trkpt>
      <trkpt lat="28.6230030" lon="-17.8449330">
        <ele>1238.7</ele>
        <time>2020-11-17T10:06:21Z</time>
      </trkpt>
      <trkpt lat="28.6230030" lon="-17.8449330">
        <ele>1238.7</ele>
        <time>2020-11-17T10:06:22Z</time>
      </trkpt>
      <trkpt lat="28.6229820" lon="-17.8448930">
        <ele>1239.0</ele>
        <time>2020-11-17T10:06:23Z</time>
      </trkpt>
      <trkpt lat="28.6229680" lon="-17.8448750">
        <ele>1239.1</ele>
        <time>2020-11-17T10:06:24Z</time>
      </trkpt>
      <trkpt lat="28.6229680" lon="-17.8448750">
        <ele>1239.1</ele>
        <time>2020-11-17T10:06:25Z</time>
      </trkpt>
      <trkpt lat="28.6229470" lon="-17.8448300">
        <ele>1239.4</ele>
        <time>2020-11-17T10:06:26Z</time>
      </trkpt>
      <trkpt lat="28.6229470" lon="-17.8448300">
        <ele>1239.4</ele>
        <time>2020-11-17T10:06:27Z</time>
      </trkpt>
      <trkpt lat="28.6229180" lon="-17.8447780">
        <ele>1239.7</ele>
        <time>2020-11-17T10:06:28Z</time>
      </trkpt>
      <trkpt lat="28.6229080" lon="-17.8447500">
        <ele>1239.8</ele>
        <time>2020-11-17T10:06:29Z</time>
      </trkpt>
      <trkpt lat="28.6228970" lon="-17.8447220">
        <ele>1240.0</ele>
        <time>2020-11-17T10:06:30Z</time>
      </trkpt>
      <trkpt lat="28.6228970" lon="-17.8447220">
        <ele>1240.0</ele>
        <time>2020-11-17T10:06:31Z</time>
      </trkpt>
      <trkpt lat="28.6228680" lon="-17.8446720">
        <ele>1240.2</ele>
        <time>2020-11-17T10:06:32Z</time>
      </trkpt>
      <trkpt lat="28.6228550" lon="-17.8446480">
        <ele>1240.3</ele>
        <time>2020-11-17T10:06:33Z</time>
      </trkpt>
      <trkpt lat="28.6228430" lon="-17.8446250">
        <ele>1240.4</ele>
        <time>2020-11-17T10:06:34Z</time>
      </trkpt>
      <trkpt lat="28.6228430" lon="-17.8446250">
        <ele>1240.4</ele>
        <time>2020-11-17T10:06:35Z</time>
      </trkpt>
      <trkpt lat="28.6228180" lon="-17.8445720">
        <ele>1240.7</ele>
        <time>2020-11-17T10:06:36Z</time>
      </trkpt>
      <trkpt lat="28.6228180" lon="-17.8445720">
        <ele>1240.7</ele>
        <time>2020-11-17T10:06:37Z</time>
      </trkpt>
      <trkpt lat="28.6227950" lon="-17.8445220">
        <ele>1240.9</ele>
        <time>2020-11-17T10:06:38Z</time>
      </trkpt>
      <trkpt lat="28.6227950" lon="-17.8445220">
        <ele>1240.9</ele>
        <time>2020-11-17T10:06:39Z</time>
      </trkpt>
      <trkpt lat="28.6227700" lon="-17.8444830">
        <ele>1241.1</ele>
        <time>2020-11-17T10:06:40Z</time>
      </trkpt>
      <trkpt lat="28.6227700" lon="-17.8444830">
        <ele>1241.1</ele>
        <time>2020-11-17T10:06:41Z</time>
      </trkpt>
      <trkpt lat="28.6227400" lon="-17.8444430">
        <ele>1241.4</ele>
        <time>2020-11-17T10:06:42Z</time>
      </trkpt>
      <trkpt lat="28.6227400" lon="-17.8444430">
        <ele>1241.4</ele>
        <time>2020-11-17T10:06:43Z</time>
      </trkpt>
      <trkpt lat="28.6227070" lon="-17.8444030">
        <ele>1241.7</ele>
        <time>2020-11-17T10:06:44Z</time>
      </trkpt>
      <trkpt lat="28.6227070" lon="-17.8444030">
        <ele>1241.7</ele>
        <time>2020-11-17T10:06:45Z</time>
      </trkpt>
      <trkpt lat="28.6226800" lon="-17.8443650">
        <ele>1242.0</ele>
        <time>2020-11-17T10:06:46Z</time>
      </trkpt>
      <trkpt lat="28.6226800" lon="-17.8443650">
        <ele>1242.0</ele>
        <time>2020-11-17T10:06:47Z</time>
      </trkpt>
      <trkpt lat="28.6226520" lon="-17.8443250">
        <ele>1242.3</ele>
        <time>2020-11-17T10:06:48Z</time>
      </trkpt>
      <trkpt lat="28.6226520" lon="-17.8443250">
        <ele>1242.3</ele>
        <time>2020-11-17T10:06:49Z</time>
      </trkpt>
      <trkpt lat="28.6226300" lon="-17.8442850">
        <ele>1242.6</ele>
        <time>2020-11-17T10:06:50Z</time>
      </trkpt>
      <trkpt lat="28.6226200" lon="-17.8442680">
        <ele>1242.7</ele>
        <time>2020-11-17T10:06:51Z</time>
      </trkpt>
      <trkpt lat="28.6226200" lon="-17.8442680">
        <ele>1242.7</ele>
        <time>2020-11-17T10:06:52Z</time>
      </trkpt>
      <trkpt lat="28.6225980" lon="-17.8442370">
        <ele>1243.0</ele>
        <time>2020-11-17T10:06:53Z</time>
      </trkpt>
      <trkpt lat="28.6225880" lon="-17.8442170">
        <ele>1243.1</ele>
        <time>2020-11-17T10:06:54Z</time>
      </trkpt>
      <trkpt lat="28.6225880" lon="-17.8442170">
        <ele>1243.1</ele>
        <time>2020-11-17T10:06:55Z</time>
      </trkpt>
      <trkpt lat="28.6225680" lon="-17.8441820">
        <ele>1243.4</ele>
        <time>2020-11-17T10:06:56Z</time>
      </trkpt>
      <trkpt lat="28.6225680" lon="-17.8441820">
        <ele>1243.4</ele>
        <time>2020-11-17T10:06:57Z</time>
      </trkpt>
      <trkpt lat="28.6225500" lon="-17.8441420">
        <ele>1243.7</ele>
        <time>2020-11-17T10:06:58Z</time>
      </trkpt>
      <trkpt lat="28.6225420" lon="-17.8441200">
        <ele>1243.9</ele>
        <time>2020-11-17T10:06:59Z</time>
      </trkpt>
      <trkpt lat="28.6225330" lon="-17.8440980">
        <ele>1244.0</ele>
        <time>2020-11-17T10:07:00Z</time>
      </trkpt>
      <trkpt lat="28.6225330" lon="-17.8440980">
        <ele>1244.0</ele>
        <time>2020-11-17T10:07:01Z</time>
      </trkpt>
      <trkpt lat="28.6225170" lon="-17.8440550">
        <ele>1244.3</ele>
        <time>2020-11-17T10:07:02Z</time>
      </trkpt>
      <trkpt lat="28.6225170" lon="-17.8440550">
        <ele>1244.3</ele>
        <time>2020-11-17T10:07:03Z</time>
      </trkpt>
      <trkpt lat="28.6225020" lon="-17.8440080">
        <ele>1244.6</ele>
        <time>2020-11-17T10:07:04Z</time>
      </trkpt>
      <trkpt lat="28.6224950" lon="-17.8439800">
        <ele>1244.7</ele>
        <time>2020-11-17T10:07:05Z</time>
      </trkpt>
      <trkpt lat="28.6224870" lon="-17.8439550">
        <ele>1244.9</ele>
        <time>2020-11-17T10:07:06Z</time>
      </trkpt>
      <trkpt lat="28.6224870" lon="-17.8439550">
        <ele>1244.9</ele>
        <time>2020-11-17T10:07:07Z</time>
      </trkpt>
      <trkpt lat="28.6224720" lon="-17.8439050">
        <ele>1245.2</ele>
        <time>2020-11-17T10:07:08Z</time>
      </trkpt>
      <trkpt lat="28.6224650" lon="-17.8438780">
        <ele>1245.3</ele>
        <time>2020-11-17T10:07:09Z</time>
      </trkpt>
      <trkpt lat="28.6224580" lon="-17.8438530">
        <ele>1245.4</ele>
        <time>2020-11-17T10:07:10Z</time>
      </trkpt>
      <trkpt lat="28.6224500" lon="-17.8438270">
        <ele>1245.6</ele>
        <time>2020-11-17T10:07:11Z</time>
      </trkpt>
      <trkpt lat="28.6224500" lon="-17.8438270">
        <ele>1245.6</ele>
        <time>2020-11-17T10:07:12Z</time>
      </trkpt>
      <trkpt lat="28.6224320" lon="-17.8437780">
        <ele>1245.8</ele>
        <time>2020-11-17T10:07:13Z</time>
      </trkpt>
      <trkpt lat="28.6224200" lon="-17.8437570">
        <ele>1245.9</ele>
        <time>2020-11-17T10:07:14Z</time>
      </trkpt>
      <trkpt lat="28.6224100" lon="-17.8437350">
        <ele>1246.0</ele>
        <time>2020-11-17T10:07:15Z</time>
      </trkpt>
      <trkpt lat="28.6224100" lon="-17.8437350">
        <ele>1246.0</ele>
        <time>2020-11-17T10:07:16Z</time>
      </trkpt>
      <trkpt lat="28.6223870" lon="-17.8436900">
        <ele>1246.3</ele>
        <time>2020-11-17T10:07:17Z</time>
      </trkpt>
      <trkpt lat="28.6223750" lon="-17.8436700">
        <ele>1246.4</ele>
        <time>2020-11-17T10:07:18Z</time>
      </trkpt>
      <trkpt lat="28.6223750" lon="-17.8436700">
        <ele>1246.4</ele>
        <time>2020-11-17T10:07:19Z</time>
      </trkpt>
      <trkpt lat="28.6223480" lon="-17.8436220">
        <ele>1246.7</ele>
        <time>2020-11-17T10:07:20Z</time>
      </trkpt>
      <trkpt lat="28.6223330" lon="-17.8435980">
        <ele>1246.8</ele>
        <time>2020-11-17T10:07:21Z</time>
      </trkpt>
      <trkpt lat="28.6223330" lon="-17.8435980">
        <ele>1246.8</ele>
        <time>2020-11-17T10:07:22Z</time>
      </trkpt>
      <trkpt lat="28.6223050" lon="-17.8435550">
        <ele>1247.0</ele>
        <time>2020-11-17T10:07:23Z</time>
      </trkpt>
      <trkpt lat="28.6222950" lon="-17.8435350">
        <ele>1247.2</ele>
        <time>2020-11-17T10:07:24Z</time>
      </trkpt>
      <trkpt lat="28.6222950" lon="-17.8435350">
        <ele>1247.2</ele>
        <time>2020-11-17T10:07:25Z</time>
      </trkpt>
      <trkpt lat="28.6222720" lon="-17.8434930">
        <ele>1247.4</ele>
        <time>2020-11-17T10:07:26Z</time>
      </trkpt>
      <trkpt lat="28.6222720" lon="-17.8434930">
        <ele>1247.4</ele>
        <time>2020-11-17T10:07:27Z</time>
      </trkpt>
      <trkpt lat="28.6222450" lon="-17.8434500">
        <ele>1247.7</ele>
        <time>2020-11-17T10:07:28Z</time>
      </trkpt>
      <trkpt lat="28.6222450" lon="-17.8434500">
        <ele>1247.7</ele>
        <time>2020-11-17T10:07:29Z</time>
      </trkpt>
      <trkpt lat="28.6222120" lon="-17.8434130">
        <ele>1247.9</ele>
        <time>2020-11-17T10:07:30Z</time>
      </trkpt>
      <trkpt lat="28.6222120" lon="-17.8434130">
        <ele>1247.9</ele>
        <time>2020-11-17T10:07:31Z</time>
      </trkpt>
      <trkpt lat="28.6221820" lon="-17.8433800">
        <ele>1248.2</ele>
        <time>2020-11-17T10:07:32Z</time>
      </trkpt>
      <trkpt lat="28.6221820" lon="-17.8433800">
        <ele>1248.2</ele>
        <time>2020-11-17T10:07:33Z</time>
      </trkpt>
      <trkpt lat="28.6221470" lon="-17.8433470">
        <ele>1248.4</ele>
        <time>2020-11-17T10:07:34Z</time>
      </trkpt>
      <trkpt lat="28.6221470" lon="-17.8433470">
        <ele>1248.4</ele>
        <time>2020-11-17T10:07:35Z</time>
      </trkpt>
      <trkpt lat="28.6221200" lon="-17.8433080">
        <ele>1248.7</ele>
        <time>2020-11-17T10:07:36Z</time>
      </trkpt>
      <trkpt lat="28.6221200" lon="-17.8433080">
        <ele>1248.7</ele>
        <time>2020-11-17T10:07:37Z</time>
      </trkpt>
      <trkpt lat="28.6220930" lon="-17.8432670">
        <ele>1248.9</ele>
        <time>2020-11-17T10:07:38Z</time>
      </trkpt>
      <trkpt lat="28.6220930" lon="-17.8432670">
        <ele>1248.9</ele>
        <time>2020-11-17T10:07:39Z</time>
      </trkpt>
      <trkpt lat="28.6220670" lon="-17.8432270">
        <ele>1249.2</ele>
        <time>2020-11-17T10:07:40Z</time>
      </trkpt>
      <trkpt lat="28.6220530" lon="-17.8432120">
        <ele>1249.3</ele>
        <time>2020-11-17T10:07:41Z</time>
      </trkpt>
      <trkpt lat="28.6220530" lon="-17.8432120">
        <ele>1249.3</ele>
        <time>2020-11-17T10:07:42Z</time>
      </trkpt>
      <trkpt lat="28.6220230" lon="-17.8431720">
        <ele>1249.5</ele>
        <time>2020-11-17T10:07:43Z</time>
      </trkpt>
      <trkpt lat="28.6220100" lon="-17.8431530">
        <ele>1249.6</ele>
        <time>2020-11-17T10:07:44Z</time>
      </trkpt>
      <trkpt lat="28.6220100" lon="-17.8431530">
        <ele>1249.6</ele>
        <time>2020-11-17T10:07:45Z</time>
      </trkpt>
      <trkpt lat="28.6219800" lon="-17.8431200">
        <ele>1249.8</ele>
        <time>2020-11-17T10:07:46Z</time>
      </trkpt>
      <trkpt lat="28.6219800" lon="-17.8431200">
        <ele>1249.8</ele>
        <time>2020-11-17T10:07:47Z</time>
      </trkpt>
      <trkpt lat="28.6219520" lon="-17.8430850">
        <ele>1249.9</ele>
        <time>2020-11-17T10:07:48Z</time>
      </trkpt>
      <trkpt lat="28.6219520" lon="-17.8430850">
        <ele>1249.9</ele>
        <time>2020-11-17T10:07:49Z</time>
      </trkpt>
      <trkpt lat="28.6219270" lon="-17.8430420">
        <ele>1250.1</ele>
        <time>2020-11-17T10:07:50Z</time>
      </trkpt>
      <trkpt lat="28.6219270" lon="-17.8430420">
        <ele>1250.1</ele>
        <time>2020-11-17T10:07:51Z</time>
      </trkpt>
      <trkpt lat="28.6218950" lon="-17.8430070">
        <ele>1250.2</ele>
        <time>2020-11-17T10:07:52Z</time>
      </trkpt>
      <trkpt lat="28.6218950" lon="-17.8430070">
        <ele>1250.2</ele>
        <time>2020-11-17T10:07:53Z</time>
      </trkpt>
      <trkpt lat="28.6218620" lon="-17.8429770">
        <ele>1250.8</ele>
        <time>2020-11-17T10:07:54Z</time>
      </trkpt>
      <trkpt lat="28.6218620" lon="-17.8429770">
        <ele>1250.8</ele>
        <time>2020-11-17T10:07:55Z</time>
      </trkpt>
      <trkpt lat="28.6218230" lon="-17.8429470">
        <ele>1251.4</ele>
        <time>2020-11-17T10:07:56Z</time>
      </trkpt>
      <trkpt lat="28.6218230" lon="-17.8429470">
        <ele>1251.4</ele>
        <time>2020-11-17T10:07:57Z</time>
      </trkpt>
      <trkpt lat="28.6217880" lon="-17.8429150">
        <ele>1252.0</ele>
        <time>2020-11-17T10:07:58Z</time>
      </trkpt>
      <trkpt lat="28.6217680" lon="-17.8429030">
        <ele>1252.3</ele>
        <time>2020-11-17T10:07:59Z</time>
      </trkpt>
      <trkpt lat="28.6217450" lon="-17.8428920">
        <ele>1252.6</ele>
        <time>2020-11-17T10:08:00Z</time>
      </trkpt>
      <trkpt lat="28.6217450" lon="-17.8428920">
        <ele>1252.6</ele>
        <time>2020-11-17T10:08:01Z</time>
      </trkpt>
      <trkpt lat="28.6217450" lon="-17.8428920">
        <ele>1252.6</ele>
        <time>2020-11-17T10:08:02Z</time>
      </trkpt>
      <trkpt lat="28.6217000" lon="-17.8428750">
        <ele>1253.2</ele>
        <time>2020-11-17T10:08:03Z</time>
      </trkpt>
      <trkpt lat="28.6216570" lon="-17.8428480">
        <ele>1253.8</ele>
        <time>2020-11-17T10:08:04Z</time>
      </trkpt>
      <trkpt lat="28.6216570" lon="-17.8428480">
        <ele>1253.8</ele>
        <time>2020-11-17T10:08:05Z</time>
      </trkpt>
      <trkpt lat="28.6216120" lon="-17.8428130">
        <ele>1254.1</ele>
        <time>2020-11-17T10:08:06Z</time>
      </trkpt>
      <trkpt lat="28.6216120" lon="-17.8428130">
        <ele>1252.9</ele>
        <time>2020-11-17T10:08:07Z</time>
      </trkpt>
      <trkpt lat="28.6215650" lon="-17.8427800">
        <ele>1252.1</ele>
        <time>2020-11-17T10:08:08Z</time>
      </trkpt>
      <trkpt lat="28.6215450" lon="-17.8427630">
        <ele>1251.4</ele>
        <time>2020-11-17T10:08:09Z</time>
      </trkpt>
      <trkpt lat="28.6215270" lon="-17.8427500">
        <ele>1250.2</ele>
        <time>2020-11-17T10:08:10Z</time>
      </trkpt>
      <trkpt lat="28.6215270" lon="-17.8427500">
        <ele>1249.0</ele>
        <time>2020-11-17T10:08:11Z</time>
      </trkpt>
      <trkpt lat="28.6214830" lon="-17.8427420">
        <ele>1248.8</ele>
        <time>2020-11-17T10:08:12Z</time>
      </trkpt>
      <trkpt lat="28.6214830" lon="-17.8427420">
        <ele>1247.6</ele>
        <time>2020-11-17T10:08:13Z</time>
      </trkpt>
      <trkpt lat="28.6214330" lon="-17.8427470">
        <ele>1246.9</ele>
        <time>2020-11-17T10:08:14Z</time>
      </trkpt>
      <trkpt lat="28.6214070" lon="-17.8427470">
        <ele>1247.0</ele>
        <time>2020-11-17T10:08:15Z</time>
      </trkpt>
      <trkpt lat="28.6214070" lon="-17.8427470">
        <ele>1247.0</ele>
        <time>2020-11-17T10:08:16Z</time>
      </trkpt>
      <trkpt lat="28.6213620" lon="-17.8427500">
        <ele>1247.3</ele>
        <time>2020-11-17T10:08:17Z</time>
      </trkpt>
      <trkpt lat="28.6213380" lon="-17.8427520">
        <ele>1247.5</ele>
        <time>2020-11-17T10:08:18Z</time>
      </trkpt>
      <trkpt lat="28.6213380" lon="-17.8427520">
        <ele>1247.5</ele>
        <time>2020-11-17T10:08:19Z</time>
      </trkpt>
      <trkpt lat="28.6213080" lon="-17.8427550">
        <ele>1247.7</ele>
        <time>2020-11-17T10:08:20Z</time>
      </trkpt>
      <trkpt lat="28.6213080" lon="-17.8427550">
        <ele>1247.7</ele>
        <time>2020-11-17T10:08:21Z</time>
      </trkpt>
      <trkpt lat="28.6212750" lon="-17.8427450">
        <ele>1247.9</ele>
        <time>2020-11-17T10:08:22Z</time>
      </trkpt>
      <trkpt lat="28.6212750" lon="-17.8427450">
        <ele>1247.9</ele>
        <time>2020-11-17T10:08:23Z</time>
      </trkpt>
      <trkpt lat="28.6212400" lon="-17.8427430">
        <ele>1248.2</ele>
        <time>2020-11-17T10:08:24Z</time>
      </trkpt>
      <trkpt lat="28.6212400" lon="-17.8427430">
        <ele>1248.2</ele>
        <time>2020-11-17T10:08:25Z</time>
      </trkpt>
      <trkpt lat="28.6212100" lon="-17.8427320">
        <ele>1248.4</ele>
        <time>2020-11-17T10:08:26Z</time>
      </trkpt>
      <trkpt lat="28.6211930" lon="-17.8427220">
        <ele>1248.6</ele>
        <time>2020-11-17T10:08:27Z</time>
      </trkpt>
      <trkpt lat="28.6211930" lon="-17.8427220">
        <ele>1248.6</ele>
        <time>2020-11-17T10:08:28Z</time>
      </trkpt>
      <trkpt lat="28.6211700" lon="-17.8426820">
        <ele>1248.9</ele>
        <time>2020-11-17T10:08:29Z</time>
      </trkpt>
      <trkpt lat="28.6211700" lon="-17.8426820">
        <ele>1248.9</ele>
        <time>2020-11-17T10:08:30Z</time>
      </trkpt>
      <trkpt lat="28.6211450" lon="-17.8426450">
        <ele>1249.2</ele>
        <time>2020-11-17T10:08:31Z</time>
      </trkpt>
      <trkpt lat="28.6211450" lon="-17.8426450">
        <ele>1249.2</ele>
        <time>2020-11-17T10:08:32Z</time>
      </trkpt>
      <trkpt lat="28.6211280" lon="-17.8426080">
        <ele>1249.6</ele>
        <time>2020-11-17T10:08:33Z</time>
      </trkpt>
      <trkpt lat="28.6211170" lon="-17.8425870">
        <ele>1249.8</ele>
        <time>2020-11-17T10:08:34Z</time>
      </trkpt>
      <trkpt lat="28.6211170" lon="-17.8425870">
        <ele>1249.8</ele>
        <time>2020-11-17T10:08:35Z</time>
      </trkpt>
      <trkpt lat="28.6210920" lon="-17.8425380">
        <ele>1250.3</ele>
        <time>2020-11-17T10:08:36Z</time>
      </trkpt>
      <trkpt lat="28.6210920" lon="-17.8425380">
        <ele>1250.3</ele>
        <time>2020-11-17T10:08:37Z</time>
      </trkpt>
      <trkpt lat="28.6210750" lon="-17.8425050">
        <ele>1250.6</ele>
        <time>2020-11-17T10:08:38Z</time>
      </trkpt>
      <trkpt lat="28.6210750" lon="-17.8425050">
        <ele>1250.6</ele>
        <time>2020-11-17T10:08:39Z</time>
      </trkpt>
      <trkpt lat="28.6210550" lon="-17.8424720">
        <ele>1251.0</ele>
        <time>2020-11-17T10:08:40Z</time>
      </trkpt>
      <trkpt lat="28.6210550" lon="-17.8424720">
        <ele>1251.0</ele>
        <time>2020-11-17T10:08:41Z</time>
      </trkpt>
      <trkpt lat="28.6210400" lon="-17.8424330">
        <ele>1251.4</ele>
        <time>2020-11-17T10:08:42Z</time>
      </trkpt>
      <trkpt lat="28.6210300" lon="-17.8424120">
        <ele>1251.6</ele>
        <time>2020-11-17T10:08:43Z</time>
      </trkpt>
      <trkpt lat="28.6210300" lon="-17.8424120">
        <ele>1251.6</ele>
        <time>2020-11-17T10:08:44Z</time>
      </trkpt>
      <trkpt lat="28.6210170" lon="-17.8423730">
        <ele>1252.1</ele>
        <time>2020-11-17T10:08:45Z</time>
      </trkpt>
      <trkpt lat="28.6210170" lon="-17.8423730">
        <ele>1252.1</ele>
        <time>2020-11-17T10:08:46Z</time>
      </trkpt>
      <trkpt lat="28.6210020" lon="-17.8423320">
        <ele>1252.5</ele>
        <time>2020-11-17T10:08:47Z</time>
      </trkpt>
      <trkpt lat="28.6210020" lon="-17.8423320">
        <ele>1252.5</ele>
        <time>2020-11-17T10:08:48Z</time>
      </trkpt>
      <trkpt lat="28.6209880" lon="-17.8422870">
        <ele>1253.1</ele>
        <time>2020-11-17T10:08:49Z</time>
      </trkpt>
      <trkpt lat="28.6209880" lon="-17.8422870">
        <ele>1253.1</ele>
        <time>2020-11-17T10:08:50Z</time>
      </trkpt>
      <trkpt lat="28.6209620" lon="-17.8422350">
        <ele>1253.7</ele>
        <time>2020-11-17T10:08:51Z</time>
      </trkpt>
      <trkpt lat="28.6209550" lon="-17.8422100">
        <ele>1254.0</ele>
        <time>2020-11-17T10:08:52Z</time>
      </trkpt>
      <trkpt lat="28.6209550" lon="-17.8422100">
        <ele>1254.0</ele>
        <time>2020-11-17T10:08:53Z</time>
      </trkpt>
      <trkpt lat="28.6209500" lon="-17.8421900">
        <ele>1254.2</ele>
        <time>2020-11-17T10:08:54Z</time>
      </trkpt>
      <trkpt lat="28.6209500" lon="-17.8421900">
        <ele>1254.2</ele>
        <time>2020-11-17T10:08:55Z</time>
      </trkpt>
      <trkpt lat="28.6209400" lon="-17.8421520">
        <ele>1254.6</ele>
        <time>2020-11-17T10:08:56Z</time>
      </trkpt>
      <trkpt lat="28.6209400" lon="-17.8421330">
        <ele>1254.8</ele>
        <time>2020-11-17T10:08:57Z</time>
      </trkpt>
      <trkpt lat="28.6209400" lon="-17.8421330">
        <ele>1254.8</ele>
        <time>2020-11-17T10:08:58Z</time>
      </trkpt>
      <trkpt lat="28.6209530" lon="-17.8420920">
        <ele>1255.2</ele>
        <time>2020-11-17T10:08:59Z</time>
      </trkpt>
      <trkpt lat="28.6209580" lon="-17.8420730">
        <ele>1255.4</ele>
        <time>2020-11-17T10:09:00Z</time>
      </trkpt>
      <trkpt lat="28.6209580" lon="-17.8420730">
        <ele>1255.4</ele>
        <time>2020-11-17T10:09:01Z</time>
      </trkpt>
      <trkpt lat="28.6209780" lon="-17.8420350">
        <ele>1255.8</ele>
        <time>2020-11-17T10:09:02Z</time>
      </trkpt>
      <trkpt lat="28.6209870" lon="-17.8420180">
        <ele>1256.0</ele>
        <time>2020-11-17T10:09:03Z</time>
      </trkpt>
      <trkpt lat="28.6209870" lon="-17.8420180">
        <ele>1256.0</ele>
        <time>2020-11-17T10:09:04Z</time>
      </trkpt>
      <trkpt lat="28.6210100" lon="-17.8419950">
        <ele>1256.4</ele>
        <time>2020-11-17T10:09:05Z</time>
      </trkpt>
      <trkpt lat="28.6210100" lon="-17.8419950">
        <ele>1256.4</ele>
        <time>2020-11-17T10:09:06Z</time>
      </trkpt>
      <trkpt lat="28.6210320" lon="-17.8419670">
        <ele>1256.7</ele>
        <time>2020-11-17T10:09:07Z</time>
      </trkpt>
      <trkpt lat="28.6210420" lon="-17.8419550">
        <ele>1256.9</ele>
        <time>2020-11-17T10:09:08Z</time>
      </trkpt>
      <trkpt lat="28.6210420" lon="-17.8419550">
        <ele>1256.9</ele>
        <time>2020-11-17T10:09:09Z</time>
      </trkpt>
      <trkpt lat="28.6210630" lon="-17.8419230">
        <ele>1257.3</ele>
        <time>2020-11-17T10:09:10Z</time>
      </trkpt>
      <trkpt lat="28.6210630" lon="-17.8419230">
        <ele>1257.3</ele>
        <time>2020-11-17T10:09:11Z</time>
      </trkpt>
      <trkpt lat="28.6210770" lon="-17.8419000">
        <ele>1257.5</ele>
        <time>2020-11-17T10:09:12Z</time>
      </trkpt>
      <trkpt lat="28.6210770" lon="-17.8419000">
        <ele>1257.5</ele>
        <time>2020-11-17T10:09:13Z</time>
      </trkpt>
      <trkpt lat="28.6210880" lon="-17.8418700">
        <ele>1257.8</ele>
        <time>2020-11-17T10:09:14Z</time>
      </trkpt>
      <trkpt lat="28.6210930" lon="-17.8418520">
        <ele>1258.0</ele>
        <time>2020-11-17T10:09:15Z</time>
      </trkpt>
      <trkpt lat="28.6210930" lon="-17.8418520">
        <ele>1258.0</ele>
        <time>2020-11-17T10:09:16Z</time>
      </trkpt>
      <trkpt lat="28.6211050" lon="-17.8418220">
        <ele>1258.3</ele>
        <time>2020-11-17T10:09:17Z</time>
      </trkpt>
      <trkpt lat="28.6211100" lon="-17.8418070">
        <ele>1258.5</ele>
        <time>2020-11-17T10:09:18Z</time>
      </trkpt>
      <trkpt lat="28.6211100" lon="-17.8418070">
        <ele>1258.5</ele>
        <time>2020-11-17T10:09:19Z</time>
      </trkpt>
      <trkpt lat="28.6211150" lon="-17.8417720">
        <ele>1258.8</ele>
        <time>2020-11-17T10:09:20Z</time>
      </trkpt>
      <trkpt lat="28.6211130" lon="-17.8417470">
        <ele>1259.0</ele>
        <time>2020-11-17T10:09:21Z</time>
      </trkpt>
      <trkpt lat="28.6211130" lon="-17.8417470">
        <ele>1259.0</ele>
        <time>2020-11-17T10:09:22Z</time>
      </trkpt>
      <trkpt lat="28.6211150" lon="-17.8417080">
        <ele>1259.4</ele>
        <time>2020-11-17T10:09:23Z</time>
      </trkpt>
      <trkpt lat="28.6211170" lon="-17.8416920">
        <ele>1259.5</ele>
        <time>2020-11-17T10:09:24Z</time>
      </trkpt>
      <trkpt lat="28.6211170" lon="-17.8416920">
        <ele>1259.5</ele>
        <time>2020-11-17T10:09:25Z</time>
      </trkpt>
      <trkpt lat="28.6211130" lon="-17.8416600">
        <ele>1259.8</ele>
        <time>2020-11-17T10:09:26Z</time>
      </trkpt>
      <trkpt lat="28.6211130" lon="-17.8416600">
        <ele>1259.8</ele>
        <time>2020-11-17T10:09:27Z</time>
      </trkpt>
      <trkpt lat="28.6211120" lon="-17.8416270">
        <ele>1260.1</ele>
        <time>2020-11-17T10:09:28Z</time>
      </trkpt>
      <trkpt lat="28.6211080" lon="-17.8416120">
        <ele>1260.3</ele>
        <time>2020-11-17T10:09:29Z</time>
      </trkpt>
      <trkpt lat="28.6211080" lon="-17.8416120">
        <ele>1260.3</ele>
        <time>2020-11-17T10:09:30Z</time>
      </trkpt>
      <trkpt lat="28.6211070" lon="-17.8415850">
        <ele>1260.5</ele>
        <time>2020-11-17T10:09:31Z</time>
      </trkpt>
      <trkpt lat="28.6211070" lon="-17.8415850">
        <ele>1260.5</ele>
        <time>2020-11-17T10:09:32Z</time>
      </trkpt>
      <trkpt lat="28.6211000" lon="-17.8415500">
        <ele>1260.8</ele>
        <time>2020-11-17T10:09:33Z</time>
      </trkpt>
      <trkpt lat="28.6211000" lon="-17.8415500">
        <ele>1260.8</ele>
        <time>2020-11-17T10:09:34Z</time>
      </trkpt>
      <trkpt lat="28.6210930" lon="-17.8415150">
        <ele>1261.2</ele>
        <time>2020-11-17T10:09:35Z</time>
      </trkpt>
      <trkpt lat="28.6210930" lon="-17.8415150">
        <ele>1261.2</ele>
        <time>2020-11-17T10:09:36Z</time>
      </trkpt>
      <trkpt lat="28.6210830" lon="-17.8414730">
        <ele>1261.6</ele>
        <time>2020-11-17T10:09:37Z</time>
      </trkpt>
      <trkpt lat="28.6210830" lon="-17.8414730">
        <ele>1261.6</ele>
        <time>2020-11-17T10:09:38Z</time>
      </trkpt>
      <trkpt lat="28.6210730" lon="-17.8414420">
        <ele>1261.9</ele>
        <time>2020-11-17T10:09:39Z</time>
      </trkpt>
      <trkpt lat="28.6210680" lon="-17.8414250">
        <ele>1262.0</ele>
        <time>2020-11-17T10:09:40Z</time>
      </trkpt>
      <trkpt lat="28.6210680" lon="-17.8414250">
        <ele>1262.0</ele>
        <time>2020-11-17T10:09:41Z</time>
      </trkpt>
      <trkpt lat="28.6210650" lon="-17.8413920">
        <ele>1262.3</ele>
        <time>2020-11-17T10:09:42Z</time>
      </trkpt>
      <trkpt lat="28.6210650" lon="-17.8413920">
        <ele>1262.3</ele>
        <time>2020-11-17T10:09:43Z</time>
      </trkpt>
      <trkpt lat="28.6210670" lon="-17.8413500">
        <ele>1262.7</ele>
        <time>2020-11-17T10:09:44Z</time>
      </trkpt>
      <trkpt lat="28.6210670" lon="-17.8413500">
        <ele>1262.7</ele>
        <time>2020-11-17T10:09:45Z</time>
      </trkpt>
      <trkpt lat="28.6210600" lon="-17.8413150">
        <ele>1263.1</ele>
        <time>2020-11-17T10:09:46Z</time>
      </trkpt>
      <trkpt lat="28.6210600" lon="-17.8413020">
        <ele>1263.2</ele>
        <time>2020-11-17T10:09:47Z</time>
      </trkpt>
      <trkpt lat="28.6210600" lon="-17.8413020">
        <ele>1263.2</ele>
        <time>2020-11-17T10:09:48Z</time>
      </trkpt>
      <trkpt lat="28.6210570" lon="-17.8412730">
        <ele>1263.5</ele>
        <time>2020-11-17T10:09:49Z</time>
      </trkpt>
      <trkpt lat="28.6210530" lon="-17.8412530">
        <ele>1263.7</ele>
        <time>2020-11-17T10:09:50Z</time>
      </trkpt>
      <trkpt lat="28.6210520" lon="-17.8412330">
        <ele>1263.9</ele>
        <time>2020-11-17T10:09:51Z</time>
      </trkpt>
      <trkpt lat="28.6210520" lon="-17.8412330">
        <ele>1263.9</ele>
        <time>2020-11-17T10:09:52Z</time>
      </trkpt>
      <trkpt lat="28.6210320" lon="-17.8411870">
        <ele>1264.4</ele>
        <time>2020-11-17T10:09:53Z</time>
      </trkpt>
      <trkpt lat="28.6210250" lon="-17.8411680">
        <ele>1264.7</ele>
        <time>2020-11-17T10:09:54Z</time>
      </trkpt>
      <trkpt lat="28.6210250" lon="-17.8411680">
        <ele>1264.7</ele>
        <time>2020-11-17T10:09:55Z</time>
      </trkpt>
      <trkpt lat="28.6209930" lon="-17.8411520">
        <ele>1265.1</ele>
        <time>2020-11-17T10:09:56Z</time>
      </trkpt>
      <trkpt lat="28.6209730" lon="-17.8411450">
        <ele>1265.4</ele>
        <time>2020-11-17T10:09:57Z</time>
      </trkpt>
      <trkpt lat="28.6209730" lon="-17.8411450">
        <ele>1265.4</ele>
        <time>2020-11-17T10:09:58Z</time>
      </trkpt>
      <trkpt lat="28.6209420" lon="-17.8411520">
        <ele>1265.8</ele>
        <time>2020-11-17T10:09:59Z</time>
      </trkpt>
      <trkpt lat="28.6209280" lon="-17.8411580">
        <ele>1266.0</ele>
        <time>2020-11-17T10:10:00Z</time>
      </trkpt>
      <trkpt lat="28.6209280" lon="-17.8411580">
        <ele>1266.0</ele>
        <time>2020-11-17T10:10:01Z</time>
      </trkpt>
      <trkpt lat="28.6208950" lon="-17.8411750">
        <ele>1266.5</ele>
        <time>2020-11-17T10:10:02Z</time>
      </trkpt>
      <trkpt lat="28.6208800" lon="-17.8411830">
        <ele>1266.7</ele>
        <time>2020-11-17T10:10:03Z</time>
      </trkpt>
      <trkpt lat="28.6208800" lon="-17.8411830">
        <ele>1266.7</ele>
        <time>2020-11-17T10:10:04Z</time>
      </trkpt>
      <trkpt lat="28.6208530" lon="-17.8412080">
        <ele>1267.1</ele>
        <time>2020-11-17T10:10:05Z</time>
      </trkpt>
      <trkpt lat="28.6208420" lon="-17.8412200">
        <ele>1267.3</ele>
        <time>2020-11-17T10:10:06Z</time>
      </trkpt>
      <trkpt lat="28.6208420" lon="-17.8412200">
        <ele>1267.3</ele>
        <time>2020-11-17T10:10:07Z</time>
      </trkpt>
      <trkpt lat="28.6208220" lon="-17.8412330">
        <ele>1267.6</ele>
        <time>2020-11-17T10:10:08Z</time>
      </trkpt>
      <trkpt lat="28.6208220" lon="-17.8412330">
        <ele>1267.6</ele>
        <time>2020-11-17T10:10:09Z</time>
      </trkpt>
      <trkpt lat="28.6208100" lon="-17.8412570">
        <ele>1267.8</ele>
        <time>2020-11-17T10:10:10Z</time>
      </trkpt>
      <trkpt lat="28.6208050" lon="-17.8412670">
        <ele>1268.0</ele>
        <time>2020-11-17T10:10:11Z</time>
      </trkpt>
      <trkpt lat="28.6208020" lon="-17.8412780">
        <ele>1268.1</ele>
        <time>2020-11-17T10:10:12Z</time>
      </trkpt>
      <trkpt lat="28.6208020" lon="-17.8412780">
        <ele>1268.1</ele>
        <time>2020-11-17T10:10:13Z</time>
      </trkpt>
      <trkpt lat="28.6208070" lon="-17.8413170">
        <ele>1268.5</ele>
        <time>2020-11-17T10:10:14Z</time>
      </trkpt>
      <trkpt lat="28.6208070" lon="-17.8413170">
        <ele>1268.5</ele>
        <time>2020-11-17T10:10:15Z</time>
      </trkpt>
      <trkpt lat="28.6208050" lon="-17.8413450">
        <ele>1268.7</ele>
        <time>2020-11-17T10:10:16Z</time>
      </trkpt>
      <trkpt lat="28.6208050" lon="-17.8413450">
        <ele>1268.7</ele>
        <time>2020-11-17T10:10:17Z</time>
      </trkpt>
      <trkpt lat="28.6208000" lon="-17.8413750">
        <ele>1269.0</ele>
        <time>2020-11-17T10:10:18Z</time>
      </trkpt>
      <trkpt lat="28.6208000" lon="-17.8413750">
        <ele>1269.0</ele>
        <time>2020-11-17T10:10:19Z</time>
      </trkpt>
      <trkpt lat="28.6207970" lon="-17.8414130">
        <ele>1269.4</ele>
        <time>2020-11-17T10:10:20Z</time>
      </trkpt>
      <trkpt lat="28.6207970" lon="-17.8414130">
        <ele>1269.4</ele>
        <time>2020-11-17T10:10:21Z</time>
      </trkpt>
      <trkpt lat="28.6207850" lon="-17.8414430">
        <ele>1269.7</ele>
        <time>2020-11-17T10:10:22Z</time>
      </trkpt>
      <trkpt lat="28.6207770" lon="-17.8414550">
        <ele>1269.9</ele>
        <time>2020-11-17T10:10:23Z</time>
      </trkpt>
      <trkpt lat="28.6207770" lon="-17.8414550">
        <ele>1269.9</ele>
        <time>2020-11-17T10:10:24Z</time>
      </trkpt>
      <trkpt lat="28.6207700" lon="-17.8414830">
        <ele>1270.1</ele>
        <time>2020-11-17T10:10:25Z</time>
      </trkpt>
      <trkpt lat="28.6207630" lon="-17.8415020">
        <ele>1270.3</ele>
        <time>2020-11-17T10:10:26Z</time>
      </trkpt>
      <trkpt lat="28.6207630" lon="-17.8415020">
        <ele>1270.3</ele>
        <time>2020-11-17T10:10:27Z</time>
      </trkpt>
      <trkpt lat="28.6207430" lon="-17.8415300">
        <ele>1270.7</ele>
        <time>2020-11-17T10:10:28Z</time>
      </trkpt>
      <trkpt lat="28.6207430" lon="-17.8415300">
        <ele>1270.7</ele>
        <time>2020-11-17T10:10:29Z</time>
      </trkpt>
      <trkpt lat="28.6207220" lon="-17.8415530">
        <ele>1271.0</ele>
        <time>2020-11-17T10:10:30Z</time>
      </trkpt>
      <trkpt lat="28.6207220" lon="-17.8415530">
        <ele>1271.0</ele>
        <time>2020-11-17T10:10:31Z</time>
      </trkpt>
      <trkpt lat="28.6206870" lon="-17.8415730">
        <ele>1271.4</ele>
        <time>2020-11-17T10:10:32Z</time>
      </trkpt>
      <trkpt lat="28.6206730" lon="-17.8415880">
        <ele>1271.6</ele>
        <time>2020-11-17T10:10:33Z</time>
      </trkpt>
      <trkpt lat="28.6206650" lon="-17.8416050">
        <ele>1271.8</ele>
        <time>2020-11-17T10:10:34Z</time>
      </trkpt>
      <trkpt lat="28.6206650" lon="-17.8416050">
        <ele>1271.8</ele>
        <time>2020-11-17T10:10:35Z</time>
      </trkpt>
      <trkpt lat="28.6206450" lon="-17.8416370">
        <ele>1272.1</ele>
        <time>2020-11-17T10:10:36Z</time>
      </trkpt>
      <trkpt lat="28.6206350" lon="-17.8416530">
        <ele>1272.3</ele>
        <time>2020-11-17T10:10:37Z</time>
      </trkpt>
      <trkpt lat="28.6206350" lon="-17.8416530">
        <ele>1272.3</ele>
        <time>2020-11-17T10:10:38Z</time>
      </trkpt>
      <trkpt lat="28.6206070" lon="-17.8416750">
        <ele>1272.6</ele>
        <time>2020-11-17T10:10:39Z</time>
      </trkpt>
      <trkpt lat="28.6206070" lon="-17.8416750">
        <ele>1272.6</ele>
        <time>2020-11-17T10:10:40Z</time>
      </trkpt>
      <trkpt lat="28.6205780" lon="-17.8416900">
        <ele>1273.0</ele>
        <time>2020-11-17T10:10:41Z</time>
      </trkpt>
      <trkpt lat="28.6205650" lon="-17.8417000">
        <ele>1273.1</ele>
        <time>2020-11-17T10:10:42Z</time>
      </trkpt>
      <trkpt lat="28.6205650" lon="-17.8417000">
        <ele>1273.1</ele>
        <time>2020-11-17T10:10:43Z</time>
      </trkpt>
      <trkpt lat="28.6205380" lon="-17.8417170">
        <ele>1273.4</ele>
        <time>2020-11-17T10:10:44Z</time>
      </trkpt>
      <trkpt lat="28.6205380" lon="-17.8417170">
        <ele>1273.4</ele>
        <time>2020-11-17T10:10:45Z</time>
      </trkpt>
      <trkpt lat="28.6205100" lon="-17.8417280">
        <ele>1273.7</ele>
        <time>2020-11-17T10:10:46Z</time>
      </trkpt>
      <trkpt lat="28.6204970" lon="-17.8417330">
        <ele>1273.9</ele>
        <time>2020-11-17T10:10:47Z</time>
      </trkpt>
      <trkpt lat="28.6204870" lon="-17.8417400">
        <ele>1274.0</ele>
        <time>2020-11-17T10:10:48Z</time>
      </trkpt>
      <trkpt lat="28.6204870" lon="-17.8417400">
        <ele>1274.0</ele>
        <time>2020-11-17T10:10:49Z</time>
      </trkpt>
      <trkpt lat="28.6204670" lon="-17.8417530">
        <ele>1274.2</ele>
        <time>2020-11-17T10:10:50Z</time>
      </trkpt>
      <trkpt lat="28.6204480" lon="-17.8417600">
        <ele>1274.4</ele>
        <time>2020-11-17T10:10:51Z</time>
      </trkpt>
      <trkpt lat="28.6204480" lon="-17.8417600">
        <ele>1274.4</ele>
        <time>2020-11-17T10:10:52Z</time>
      </trkpt>
      <trkpt lat="28.6204170" lon="-17.8417680">
        <ele>1274.8</ele>
        <time>2020-11-17T10:10:53Z</time>
      </trkpt>
      <trkpt lat="28.6204170" lon="-17.8417680">
        <ele>1274.8</ele>
        <time>2020-11-17T10:10:54Z</time>
      </trkpt>
      <trkpt lat="28.6203850" lon="-17.8417830">
        <ele>1275.1</ele>
        <time>2020-11-17T10:10:55Z</time>
      </trkpt>
      <trkpt lat="28.6203850" lon="-17.8417830">
        <ele>1275.1</ele>
        <time>2020-11-17T10:10:56Z</time>
      </trkpt>
      <trkpt lat="28.6203570" lon="-17.8417920">
        <ele>1275.4</ele>
        <time>2020-11-17T10:10:57Z</time>
      </trkpt>
      <trkpt lat="28.6203570" lon="-17.8417920">
        <ele>1275.4</ele>
        <time>2020-11-17T10:10:58Z</time>
      </trkpt>
      <trkpt lat="28.6203330" lon="-17.8418020">
        <ele>1275.7</ele>
        <time>2020-11-17T10:10:59Z</time>
      </trkpt>
      <trkpt lat="28.6203220" lon="-17.8418050">
        <ele>1275.8</ele>
        <time>2020-11-17T10:11:00Z</time>
      </trkpt>
      <trkpt lat="28.6203220" lon="-17.8418050">
        <ele>1275.8</ele>
        <time>2020-11-17T10:11:01Z</time>
      </trkpt>
      <trkpt lat="28.6202930" lon="-17.8418180">
        <ele>1276.1</ele>
        <time>2020-11-17T10:11:02Z</time>
      </trkpt>
      <trkpt lat="28.6202930" lon="-17.8418180">
        <ele>1276.1</ele>
        <time>2020-11-17T10:11:03Z</time>
      </trkpt>
      <trkpt lat="28.6202600" lon="-17.8418230">
        <ele>1276.4</ele>
        <time>2020-11-17T10:11:04Z</time>
      </trkpt>
      <trkpt lat="28.6202600" lon="-17.8418230">
        <ele>1276.4</ele>
        <time>2020-11-17T10:11:05Z</time>
      </trkpt>
      <trkpt lat="28.6202230" lon="-17.8418320">
        <ele>1276.8</ele>
        <time>2020-11-17T10:11:06Z</time>
      </trkpt>
      <trkpt lat="28.6202230" lon="-17.8418320">
        <ele>1276.8</ele>
        <time>2020-11-17T10:11:07Z</time>
      </trkpt>
      <trkpt lat="28.6201870" lon="-17.8418380">
        <ele>1277.0</ele>
        <time>2020-11-17T10:11:08Z</time>
      </trkpt>
      <trkpt lat="28.6201680" lon="-17.8418480">
        <ele>1277.2</ele>
        <time>2020-11-17T10:11:09Z</time>
      </trkpt>
      <trkpt lat="28.6201680" lon="-17.8418480">
        <ele>1277.2</ele>
        <time>2020-11-17T10:11:10Z</time>
      </trkpt>
      <trkpt lat="28.6201420" lon="-17.8418730">
        <ele>1277.5</ele>
        <time>2020-11-17T10:11:11Z</time>
      </trkpt>
      <trkpt lat="28.6201420" lon="-17.8418730">
        <ele>1277.5</ele>
        <time>2020-11-17T10:11:12Z</time>
      </trkpt>
      <trkpt lat="28.6201130" lon="-17.8419000">
        <ele>1277.8</ele>
        <time>2020-11-17T10:11:13Z</time>
      </trkpt>
      <trkpt lat="28.6200980" lon="-17.8419150">
        <ele>1277.9</ele>
        <time>2020-11-17T10:11:14Z</time>
      </trkpt>
      <trkpt lat="28.6200980" lon="-17.8419150">
        <ele>1277.9</ele>
        <time>2020-11-17T10:11:15Z</time>
      </trkpt>
      <trkpt lat="28.6200780" lon="-17.8419480">
        <ele>1278.2</ele>
        <time>2020-11-17T10:11:16Z</time>
      </trkpt>
      <trkpt lat="28.6200780" lon="-17.8419480">
        <ele>1278.2</ele>
        <time>2020-11-17T10:11:17Z</time>
      </trkpt>
      <trkpt lat="28.6200720" lon="-17.8419880">
        <ele>1278.4</ele>
        <time>2020-11-17T10:11:18Z</time>
      </trkpt>
      <trkpt lat="28.6200720" lon="-17.8419880">
        <ele>1278.4</ele>
        <time>2020-11-17T10:11:19Z</time>
      </trkpt>
      <trkpt lat="28.6200720" lon="-17.8420320">
        <ele>1278.6</ele>
        <time>2020-11-17T10:11:20Z</time>
      </trkpt>
      <trkpt lat="28.6200700" lon="-17.8420500">
        <ele>1278.7</ele>
        <time>2020-11-17T10:11:21Z</time>
      </trkpt>
      <trkpt lat="28.6200700" lon="-17.8420720">
        <ele>1278.8</ele>
        <time>2020-11-17T10:11:22Z</time>
      </trkpt>
      <trkpt lat="28.6200700" lon="-17.8420720">
        <ele>1278.8</ele>
        <time>2020-11-17T10:11:23Z</time>
      </trkpt>
      <trkpt lat="28.6200750" lon="-17.8421150">
        <ele>1279.1</ele>
        <time>2020-11-17T10:11:24Z</time>
      </trkpt>
      <trkpt lat="28.6200750" lon="-17.8421150">
        <ele>1279.1</ele>
        <time>2020-11-17T10:11:25Z</time>
      </trkpt>
      <trkpt lat="28.6200830" lon="-17.8421650">
        <ele>1279.3</ele>
        <time>2020-11-17T10:11:26Z</time>
      </trkpt>
      <trkpt lat="28.6200850" lon="-17.8421870">
        <ele>1279.4</ele>
        <time>2020-11-17T10:11:27Z</time>
      </trkpt>
      <trkpt lat="28.6200850" lon="-17.8421870">
        <ele>1279.4</ele>
        <time>2020-11-17T10:11:28Z</time>
      </trkpt>
      <trkpt lat="28.6200930" lon="-17.8422330">
        <ele>1279.6</ele>
        <time>2020-11-17T10:11:29Z</time>
      </trkpt>
      <trkpt lat="28.6200930" lon="-17.8422330">
        <ele>1279.6</ele>
        <time>2020-11-17T10:11:30Z</time>
      </trkpt>
      <trkpt lat="28.6201020" lon="-17.8422780">
        <ele>1279.8</ele>
        <time>2020-11-17T10:11:31Z</time>
      </trkpt>
      <trkpt lat="28.6201020" lon="-17.8422780">
        <ele>1279.8</ele>
        <time>2020-11-17T10:11:32Z</time>
      </trkpt>
      <trkpt lat="28.6201070" lon="-17.8423230">
        <ele>1280.0</ele>
        <time>2020-11-17T10:11:33Z</time>
      </trkpt>
      <trkpt lat="28.6201080" lon="-17.8423450">
        <ele>1280.1</ele>
        <time>2020-11-17T10:11:34Z</time>
      </trkpt>
      <trkpt lat="28.6201080" lon="-17.8423450">
        <ele>1280.1</ele>
        <time>2020-11-17T10:11:35Z</time>
      </trkpt>
      <trkpt lat="28.6201070" lon="-17.8423880">
        <ele>1280.3</ele>
        <time>2020-11-17T10:11:36Z</time>
      </trkpt>
      <trkpt lat="28.6201070" lon="-17.8423880">
        <ele>1280.3</ele>
        <time>2020-11-17T10:11:37Z</time>
      </trkpt>
      <trkpt lat="28.6201050" lon="-17.8424350">
        <ele>1280.5</ele>
        <time>2020-11-17T10:11:38Z</time>
      </trkpt>
      <trkpt lat="28.6201050" lon="-17.8424350">
        <ele>1280.5</ele>
        <time>2020-11-17T10:11:39Z</time>
      </trkpt>
      <trkpt lat="28.6201080" lon="-17.8424830">
        <ele>1280.7</ele>
        <time>2020-11-17T10:11:40Z</time>
      </trkpt>
      <trkpt lat="28.6201130" lon="-17.8425080">
        <ele>1280.8</ele>
        <time>2020-11-17T10:11:41Z</time>
      </trkpt>
      <trkpt lat="28.6201150" lon="-17.8425320">
        <ele>1280.9</ele>
        <time>2020-11-17T10:11:42Z</time>
      </trkpt>
      <trkpt lat="28.6201150" lon="-17.8425320">
        <ele>1280.9</ele>
        <time>2020-11-17T10:11:43Z</time>
      </trkpt>
      <trkpt lat="28.6201150" lon="-17.8425800">
        <ele>1281.1</ele>
        <time>2020-11-17T10:11:44Z</time>
      </trkpt>
      <trkpt lat="28.6201150" lon="-17.8425800">
        <ele>1281.1</ele>
        <time>2020-11-17T10:11:45Z</time>
      </trkpt>
      <trkpt lat="28.6201170" lon="-17.8426270">
        <ele>1281.3</ele>
        <time>2020-11-17T10:11:46Z</time>
      </trkpt>
      <trkpt lat="28.6201170" lon="-17.8426270">
        <ele>1281.3</ele>
        <time>2020-11-17T10:11:47Z</time>
      </trkpt>
      <trkpt lat="28.6201100" lon="-17.8426670">
        <ele>1281.6</ele>
        <time>2020-11-17T10:11:48Z</time>
      </trkpt>
      <trkpt lat="28.6201100" lon="-17.8426670">
        <ele>1281.6</ele>
        <time>2020-11-17T10:11:49Z</time>
      </trkpt>
      <trkpt lat="28.6201080" lon="-17.8427050">
        <ele>1281.7</ele>
        <time>2020-11-17T10:11:50Z</time>
      </trkpt>
      <trkpt lat="28.6201070" lon="-17.8427250">
        <ele>1281.8</ele>
        <time>2020-11-17T10:11:51Z</time>
      </trkpt>
      <trkpt lat="28.6201070" lon="-17.8427250">
        <ele>1281.8</ele>
        <time>2020-11-17T10:11:52Z</time>
      </trkpt>
      <trkpt lat="28.6201020" lon="-17.8427680">
        <ele>1281.9</ele>
        <time>2020-11-17T10:11:53Z</time>
      </trkpt>
      <trkpt lat="28.6200970" lon="-17.8427870">
        <ele>1282.0</ele>
        <time>2020-11-17T10:11:54Z</time>
      </trkpt>
      <trkpt lat="28.6200970" lon="-17.8427870">
        <ele>1282.0</ele>
        <time>2020-11-17T10:11:55Z</time>
      </trkpt>
      <trkpt lat="28.6200950" lon="-17.8428320">
        <ele>1282.2</ele>
        <time>2020-11-17T10:11:56Z</time>
      </trkpt>
      <trkpt lat="28.6200930" lon="-17.8428570">
        <ele>1282.3</ele>
        <time>2020-11-17T10:11:57Z</time>
      </trkpt>
      <trkpt lat="28.6200930" lon="-17.8428570">
        <ele>1282.3</ele>
        <time>2020-11-17T10:11:58Z</time>
      </trkpt>
      <trkpt lat="28.6200920" lon="-17.8429070">
        <ele>1282.5</ele>
        <time>2020-11-17T10:11:59Z</time>
      </trkpt>
      <trkpt lat="28.6200920" lon="-17.8429070">
        <ele>1282.5</ele>
        <time>2020-11-17T10:12:00Z</time>
      </trkpt>
      <trkpt lat="28.6200900" lon="-17.8429480">
        <ele>1282.7</ele>
        <time>2020-11-17T10:12:01Z</time>
      </trkpt>
      <trkpt lat="28.6200900" lon="-17.8429480">
        <ele>1282.7</ele>
        <time>2020-11-17T10:12:02Z</time>
      </trkpt>
      <trkpt lat="28.6200920" lon="-17.8429850">
        <ele>1282.9</ele>
        <time>2020-11-17T10:12:03Z</time>
      </trkpt>
      <trkpt lat="28.6200950" lon="-17.8430050">
        <ele>1283.0</ele>
        <time>2020-11-17T10:12:04Z</time>
      </trkpt>
      <trkpt lat="28.6200950" lon="-17.8430050">
        <ele>1283.0</ele>
        <time>2020-11-17T10:12:05Z</time>
      </trkpt>
      <trkpt lat="28.6200970" lon="-17.8430450">
        <ele>1283.1</ele>
        <time>2020-11-17T10:12:06Z</time>
      </trkpt>
      <trkpt lat="28.6200970" lon="-17.8430450">
        <ele>1283.1</ele>
        <time>2020-11-17T10:12:07Z</time>
      </trkpt>
      <trkpt lat="28.6200900" lon="-17.8430800">
        <ele>1283.3</ele>
        <time>2020-11-17T10:12:08Z</time>
      </trkpt>
      <trkpt lat="28.6200900" lon="-17.8430800">
        <ele>1283.3</ele>
        <time>2020-11-17T10:12:09Z</time>
      </trkpt>
      <trkpt lat="28.6200820" lon="-17.8431170">
        <ele>1283.5</ele>
        <time>2020-11-17T10:12:10Z</time>
      </trkpt>
      <trkpt lat="28.6200820" lon="-17.8431370">
        <ele>1283.6</ele>
        <time>2020-11-17T10:12:11Z</time>
      </trkpt>
      <trkpt lat="28.6200820" lon="-17.8431370">
        <ele>1283.6</ele>
        <time>2020-11-17T10:12:12Z</time>
      </trkpt>
      <trkpt lat="28.6200780" lon="-17.8431770">
        <ele>1283.8</ele>
        <time>2020-11-17T10:12:13Z</time>
      </trkpt>
      <trkpt lat="28.6200750" lon="-17.8431950">
        <ele>1283.9</ele>
        <time>2020-11-17T10:12:14Z</time>
      </trkpt>
      <trkpt lat="28.6200750" lon="-17.8431950">
        <ele>1283.9</ele>
        <time>2020-11-17T10:12:15Z</time>
      </trkpt>
      <trkpt lat="28.6200630" lon="-17.8432320">
        <ele>1284.1</ele>
        <time>2020-11-17T10:12:16Z</time>
      </trkpt>
      <trkpt lat="28.6200570" lon="-17.8432480">
        <ele>1284.2</ele>
        <time>2020-11-17T10:12:17Z</time>
      </trkpt>
      <trkpt lat="28.6200570" lon="-17.8432480">
        <ele>1284.2</ele>
        <time>2020-11-17T10:12:18Z</time>
      </trkpt>
      <trkpt lat="28.6200470" lon="-17.8432870">
        <ele>1284.5</ele>
        <time>2020-11-17T10:12:19Z</time>
      </trkpt>
      <trkpt lat="28.6200420" lon="-17.8433070">
        <ele>1284.6</ele>
        <time>2020-11-17T10:12:20Z</time>
      </trkpt>
      <trkpt lat="28.6200420" lon="-17.8433070">
        <ele>1284.6</ele>
        <time>2020-11-17T10:12:21Z</time>
      </trkpt>
      <trkpt lat="28.6200280" lon="-17.8433420">
        <ele>1284.8</ele>
        <time>2020-11-17T10:12:22Z</time>
      </trkpt>
      <trkpt lat="28.6200280" lon="-17.8433420">
        <ele>1284.8</ele>
        <time>2020-11-17T10:12:23Z</time>
      </trkpt>
      <trkpt lat="28.6200130" lon="-17.8433800">
        <ele>1285.1</ele>
        <time>2020-11-17T10:12:24Z</time>
      </trkpt>
      <trkpt lat="28.6200130" lon="-17.8433800">
        <ele>1285.1</ele>
        <time>2020-11-17T10:12:25Z</time>
      </trkpt>
      <trkpt lat="28.6199970" lon="-17.8434150">
        <ele>1285.3</ele>
        <time>2020-11-17T10:12:26Z</time>
      </trkpt>
      <trkpt lat="28.6199970" lon="-17.8434150">
        <ele>1285.3</ele>
        <time>2020-11-17T10:12:27Z</time>
      </trkpt>
      <trkpt lat="28.6199900" lon="-17.8434530">
        <ele>1285.6</ele>
        <time>2020-11-17T10:12:28Z</time>
      </trkpt>
      <trkpt lat="28.6199900" lon="-17.8434530">
        <ele>1285.6</ele>
        <time>2020-11-17T10:12:29Z</time>
      </trkpt>
      <trkpt lat="28.6199830" lon="-17.8434930">
        <ele>1285.8</ele>
        <time>2020-11-17T10:12:30Z</time>
      </trkpt>
      <trkpt lat="28.6199830" lon="-17.8434930">
        <ele>1285.8</ele>
        <time>2020-11-17T10:12:31Z</time>
      </trkpt>
      <trkpt lat="28.6199750" lon="-17.8435300">
        <ele>1286.1</ele>
        <time>2020-11-17T10:12:32Z</time>
      </trkpt>
      <trkpt lat="28.6199700" lon="-17.8435450">
        <ele>1286.2</ele>
        <time>2020-11-17T10:12:33Z</time>
      </trkpt>
      <trkpt lat="28.6199700" lon="-17.8435450">
        <ele>1286.2</ele>
        <time>2020-11-17T10:12:34Z</time>
      </trkpt>
      <trkpt lat="28.6199550" lon="-17.8435750">
        <ele>1286.4</ele>
        <time>2020-11-17T10:12:35Z</time>
      </trkpt>
      <trkpt lat="28.6199470" lon="-17.8435930">
        <ele>1286.6</ele>
        <time>2020-11-17T10:12:36Z</time>
      </trkpt>
      <trkpt lat="28.6199470" lon="-17.8435930">
        <ele>1286.6</ele>
        <time>2020-11-17T10:12:37Z</time>
      </trkpt>
      <trkpt lat="28.6199430" lon="-17.8436330">
        <ele>1286.8</ele>
        <time>2020-11-17T10:12:38Z</time>
      </trkpt>
      <trkpt lat="28.6199430" lon="-17.8436330">
        <ele>1286.8</ele>
        <time>2020-11-17T10:12:39Z</time>
      </trkpt>
      <trkpt lat="28.6199330" lon="-17.8436650">
        <ele>1287.0</ele>
        <time>2020-11-17T10:12:40Z</time>
      </trkpt>
      <trkpt lat="28.6199330" lon="-17.8436650">
        <ele>1287.0</ele>
        <time>2020-11-17T10:12:41Z</time>
      </trkpt>
      <trkpt lat="28.6199100" lon="-17.8436930">
        <ele>1287.3</ele>
        <time>2020-11-17T10:12:42Z</time>
      </trkpt>
      <trkpt lat="28.6199020" lon="-17.8437100">
        <ele>1287.4</ele>
        <time>2020-11-17T10:12:43Z</time>
      </trkpt>
      <trkpt lat="28.6199020" lon="-17.8437100">
        <ele>1287.4</ele>
        <time>2020-11-17T10:12:44Z</time>
      </trkpt>
      <trkpt lat="28.6198830" lon="-17.8437420">
        <ele>1287.7</ele>
        <time>2020-11-17T10:12:45Z</time>
      </trkpt>
      <trkpt lat="28.6198830" lon="-17.8437420">
        <ele>1287.7</ele>
        <time>2020-11-17T10:12:46Z</time>
      </trkpt>
      <trkpt lat="28.6198600" lon="-17.8437720">
        <ele>1287.9</ele>
        <time>2020-11-17T10:12:47Z</time>
      </trkpt>
      <trkpt lat="28.6198500" lon="-17.8437880">
        <ele>1288.1</ele>
        <time>2020-11-17T10:12:48Z</time>
      </trkpt>
      <trkpt lat="28.6198420" lon="-17.8438050">
        <ele>1288.2</ele>
        <time>2020-11-17T10:12:49Z</time>
      </trkpt>
      <trkpt lat="28.6198420" lon="-17.8438050">
        <ele>1288.2</ele>
        <time>2020-11-17T10:12:50Z</time>
      </trkpt>
      <trkpt lat="28.6198250" lon="-17.8438370">
        <ele>1288.4</ele>
        <time>2020-11-17T10:12:51Z</time>
      </trkpt>
      <trkpt lat="28.6198170" lon="-17.8438530">
        <ele>1288.6</ele>
        <time>2020-11-17T10:12:52Z</time>
      </trkpt>
      <trkpt lat="28.6198170" lon="-17.8438530">
        <ele>1288.6</ele>
        <time>2020-11-17T10:12:53Z</time>
      </trkpt>
      <trkpt lat="28.6197980" lon="-17.8438780">
        <ele>1288.8</ele>
        <time>2020-11-17T10:12:54Z</time>
      </trkpt>
      <trkpt lat="28.6197980" lon="-17.8438780">
        <ele>1288.8</ele>
        <time>2020-11-17T10:12:55Z</time>
      </trkpt>
      <trkpt lat="28.6197730" lon="-17.8439030">
        <ele>1289.1</ele>
        <time>2020-11-17T10:12:56Z</time>
      </trkpt>
      <trkpt lat="28.6197730" lon="-17.8439030">
        <ele>1289.1</ele>
        <time>2020-11-17T10:12:57Z</time>
      </trkpt>
      <trkpt lat="28.6197420" lon="-17.8439250">
        <ele>1289.3</ele>
        <time>2020-11-17T10:12:58Z</time>
      </trkpt>
      <trkpt lat="28.6197270" lon="-17.8439350">
        <ele>1289.5</ele>
        <time>2020-11-17T10:12:59Z</time>
      </trkpt>
      <trkpt lat="28.6197270" lon="-17.8439350">
        <ele>1289.5</ele>
        <time>2020-11-17T10:13:00Z</time>
      </trkpt>
      <trkpt lat="28.6197030" lon="-17.8439600">
        <ele>1289.7</ele>
        <time>2020-11-17T10:13:01Z</time>
      </trkpt>
      <trkpt lat="28.6197030" lon="-17.8439600">
        <ele>1289.7</ele>
        <time>2020-11-17T10:13:02Z</time>
      </trkpt>
      <trkpt lat="28.6196780" lon="-17.8439830">
        <ele>1290.0</ele>
        <time>2020-11-17T10:13:03Z</time>
      </trkpt>
      <trkpt lat="28.6196780" lon="-17.8439830">
        <ele>1290.0</ele>
        <time>2020-11-17T10:13:04Z</time>
      </trkpt>
      <trkpt lat="28.6196480" lon="-17.8440080">
        <ele>1290.3</ele>
        <time>2020-11-17T10:13:05Z</time>
      </trkpt>
      <trkpt lat="28.6196350" lon="-17.8440200">
        <ele>1290.4</ele>
        <time>2020-11-17T10:13:06Z</time>
      </trkpt>
      <trkpt lat="28.6196350" lon="-17.8440200">
        <ele>1290.4</ele>
        <time>2020-11-17T10:13:07Z</time>
      </trkpt>
      <trkpt lat="28.6196020" lon="-17.8440400">
        <ele>1290.7</ele>
        <time>2020-11-17T10:13:08Z</time>
      </trkpt>
      <trkpt lat="28.6196020" lon="-17.8440400">
        <ele>1290.7</ele>
        <time>2020-11-17T10:13:09Z</time>
      </trkpt>
      <trkpt lat="28.6195670" lon="-17.8440520">
        <ele>1291.0</ele>
        <time>2020-11-17T10:13:10Z</time>
      </trkpt>
      <trkpt lat="28.6195670" lon="-17.8440520">
        <ele>1291.0</ele>
        <time>2020-11-17T10:13:11Z</time>
      </trkpt>
      <trkpt lat="28.6195350" lon="-17.8440630">
        <ele>1291.2</ele>
        <time>2020-11-17T10:13:12Z</time>
      </trkpt>
      <trkpt lat="28.6195350" lon="-17.8440630">
        <ele>1291.2</ele>
        <time>2020-11-17T10:13:13Z</time>
      </trkpt>
      <trkpt lat="28.6195180" lon="-17.8440670">
        <ele>1291.4</ele>
        <time>2020-11-17T10:13:14Z</time>
      </trkpt>
      <trkpt lat="28.6194880" lon="-17.8440820">
        <ele>1291.6</ele>
        <time>2020-11-17T10:13:15Z</time>
      </trkpt>
      <trkpt lat="28.6194880" lon="-17.8440820">
        <ele>1291.6</ele>
        <time>2020-11-17T10:13:16Z</time>
      </trkpt>
      <trkpt lat="28.6194550" lon="-17.8440950">
        <ele>1291.9</ele>
        <time>2020-11-17T10:13:17Z</time>
      </trkpt>
      <trkpt lat="28.6194370" lon="-17.8440980">
        <ele>1292.0</ele>
        <time>2020-11-17T10:13:18Z</time>
      </trkpt>
      <trkpt lat="28.6194370" lon="-17.8440980">
        <ele>1292.0</ele>
        <time>2020-11-17T10:13:19Z</time>
      </trkpt>
      <trkpt lat="28.6194070" lon="-17.8441070">
        <ele>1292.2</ele>
        <time>2020-11-17T10:13:20Z</time>
      </trkpt>
      <trkpt lat="28.6193930" lon="-17.8441120">
        <ele>1292.4</ele>
        <time>2020-11-17T10:13:21Z</time>
      </trkpt>
      <trkpt lat="28.6193930" lon="-17.8441120">
        <ele>1292.4</ele>
        <time>2020-11-17T10:13:22Z</time>
      </trkpt>
      <trkpt lat="28.6193620" lon="-17.8441250">
        <ele>1292.6</ele>
        <time>2020-11-17T10:13:23Z</time>
      </trkpt>
      <trkpt lat="28.6193470" lon="-17.8441320">
        <ele>1292.8</ele>
        <time>2020-11-17T10:13:24Z</time>
      </trkpt>
      <trkpt lat="28.6193470" lon="-17.8441320">
        <ele>1292.8</ele>
        <time>2020-11-17T10:13:25Z</time>
      </trkpt>
      <trkpt lat="28.6193180" lon="-17.8441550">
        <ele>1293.0</ele>
        <time>2020-11-17T10:13:26Z</time>
      </trkpt>
      <trkpt lat="28.6193030" lon="-17.8441650">
        <ele>1293.2</ele>
        <time>2020-11-17T10:13:27Z</time>
      </trkpt>
      <trkpt lat="28.6192880" lon="-17.8441750">
        <ele>1293.3</ele>
        <time>2020-11-17T10:13:28Z</time>
      </trkpt>
      <trkpt lat="28.6192880" lon="-17.8441750">
        <ele>1293.3</ele>
        <time>2020-11-17T10:13:29Z</time>
      </trkpt>
      <trkpt lat="28.6192600" lon="-17.8441920">
        <ele>1293.6</ele>
        <time>2020-11-17T10:13:30Z</time>
      </trkpt>
      <trkpt lat="28.6192470" lon="-17.8441980">
        <ele>1293.7</ele>
        <time>2020-11-17T10:13:31Z</time>
      </trkpt>
      <trkpt lat="28.6192470" lon="-17.8441980">
        <ele>1293.7</ele>
        <time>2020-11-17T10:13:32Z</time>
      </trkpt>
      <trkpt lat="28.6192230" lon="-17.8442220">
        <ele>1294.0</ele>
        <time>2020-11-17T10:13:33Z</time>
      </trkpt>
      <trkpt lat="28.6192230" lon="-17.8442220">
        <ele>1294.0</ele>
        <time>2020-11-17T10:13:34Z</time>
      </trkpt>
      <trkpt lat="28.6192020" lon="-17.8442450">
        <ele>1294.2</ele>
        <time>2020-11-17T10:13:35Z</time>
      </trkpt>
      <trkpt lat="28.6192020" lon="-17.8442450">
        <ele>1294.2</ele>
        <time>2020-11-17T10:13:36Z</time>
      </trkpt>
      <trkpt lat="28.6191820" lon="-17.8442720">
        <ele>1294.5</ele>
        <time>2020-11-17T10:13:37Z</time>
      </trkpt>
      <trkpt lat="28.6191820" lon="-17.8442720">
        <ele>1294.5</ele>
        <time>2020-11-17T10:13:38Z</time>
      </trkpt>
      <trkpt lat="28.6191580" lon="-17.8443050">
        <ele>1294.8</ele>
        <time>2020-11-17T10:13:39Z</time>
      </trkpt>
      <trkpt lat="28.6191480" lon="-17.8443220">
        <ele>1294.9</ele>
        <time>2020-11-17T10:13:40Z</time>
      </trkpt>
      <trkpt lat="28.6191480" lon="-17.8443220">
        <ele>1294.9</ele>
        <time>2020-11-17T10:13:41Z</time>
      </trkpt>
      <trkpt lat="28.6191300" lon="-17.8443530">
        <ele>1295.2</ele>
        <time>2020-11-17T10:13:42Z</time>
      </trkpt>
      <trkpt lat="28.6191300" lon="-17.8443530">
        <ele>1295.2</ele>
        <time>2020-11-17T10:13:43Z</time>
      </trkpt>
      <trkpt lat="28.6191130" lon="-17.8443830">
        <ele>1295.4</ele>
        <time>2020-11-17T10:13:44Z</time>
      </trkpt>
      <trkpt lat="28.6191130" lon="-17.8443830">
        <ele>1295.4</ele>
        <time>2020-11-17T10:13:45Z</time>
      </trkpt>
      <trkpt lat="28.6190970" lon="-17.8444150">
        <ele>1295.7</ele>
        <time>2020-11-17T10:13:46Z</time>
      </trkpt>
      <trkpt lat="28.6190880" lon="-17.8444320">
        <ele>1295.9</ele>
        <time>2020-11-17T10:13:47Z</time>
      </trkpt>
      <trkpt lat="28.6190880" lon="-17.8444320">
        <ele>1295.9</ele>
        <time>2020-11-17T10:13:48Z</time>
      </trkpt>
      <trkpt lat="28.6190720" lon="-17.8444650">
        <ele>1296.2</ele>
        <time>2020-11-17T10:13:49Z</time>
      </trkpt>
      <trkpt lat="28.6190720" lon="-17.8444650">
        <ele>1296.2</ele>
        <time>2020-11-17T10:13:50Z</time>
      </trkpt>
      <trkpt lat="28.6190530" lon="-17.8444980">
        <ele>1296.5</ele>
        <time>2020-11-17T10:13:51Z</time>
      </trkpt>
      <trkpt lat="28.6190530" lon="-17.8444980">
        <ele>1296.5</ele>
        <time>2020-11-17T10:13:52Z</time>
      </trkpt>
      <trkpt lat="28.6190430" lon="-17.8445320">
        <ele>1296.8</ele>
        <time>2020-11-17T10:13:53Z</time>
      </trkpt>
      <trkpt lat="28.6190430" lon="-17.8445320">
        <ele>1296.8</ele>
        <time>2020-11-17T10:13:54Z</time>
      </trkpt>
      <trkpt lat="28.6190280" lon="-17.8445650">
        <ele>1297.1</ele>
        <time>2020-11-17T10:13:55Z</time>
      </trkpt>
      <trkpt lat="28.6190180" lon="-17.8445820">
        <ele>1297.2</ele>
        <time>2020-11-17T10:13:56Z</time>
      </trkpt>
      <trkpt lat="28.6190180" lon="-17.8445820">
        <ele>1297.2</ele>
        <time>2020-11-17T10:13:57Z</time>
      </trkpt>
      <trkpt lat="28.6190020" lon="-17.8446150">
        <ele>1297.5</ele>
        <time>2020-11-17T10:13:58Z</time>
      </trkpt>
      <trkpt lat="28.6189950" lon="-17.8446320">
        <ele>1297.7</ele>
        <time>2020-11-17T10:13:59Z</time>
      </trkpt>
      <trkpt lat="28.6189950" lon="-17.8446320">
        <ele>1297.7</ele>
        <time>2020-11-17T10:14:00Z</time>
      </trkpt>
      <trkpt lat="28.6189820" lon="-17.8446670">
        <ele>1298.0</ele>
        <time>2020-11-17T10:14:01Z</time>
      </trkpt>
      <trkpt lat="28.6189770" lon="-17.8446850">
        <ele>1298.1</ele>
        <time>2020-11-17T10:14:02Z</time>
      </trkpt>
      <trkpt lat="28.6189700" lon="-17.8447020">
        <ele>1298.3</ele>
        <time>2020-11-17T10:14:03Z</time>
      </trkpt>
      <trkpt lat="28.6189700" lon="-17.8447020">
        <ele>1298.3</ele>
        <time>2020-11-17T10:14:04Z</time>
      </trkpt>
      <trkpt lat="28.6189550" lon="-17.8447350">
        <ele>1298.6</ele>
        <time>2020-11-17T10:14:05Z</time>
      </trkpt>
      <trkpt lat="28.6189470" lon="-17.8447500">
        <ele>1298.7</ele>
        <time>2020-11-17T10:14:06Z</time>
      </trkpt>
      <trkpt lat="28.6189380" lon="-17.8447700">
        <ele>1298.9</ele>
        <time>2020-11-17T10:14:07Z</time>
      </trkpt>
      <trkpt lat="28.6189380" lon="-17.8447700">
        <ele>1298.9</ele>
        <time>2020-11-17T10:14:08Z</time>
      </trkpt>
      <trkpt lat="28.6189250" lon="-17.8448080">
        <ele>1299.2</ele>
        <time>2020-11-17T10:14:09Z</time>
      </trkpt>
      <trkpt lat="28.6189250" lon="-17.8448080">
        <ele>1299.2</ele>
        <time>2020-11-17T10:14:10Z</time>
      </trkpt>
      <trkpt lat="28.6189100" lon="-17.8448470">
        <ele>1299.5</ele>
        <time>2020-11-17T10:14:11Z</time>
      </trkpt>
      <trkpt lat="28.6189050" lon="-17.8448650">
        <ele>1299.7</ele>
        <time>2020-11-17T10:14:12Z</time>
      </trkpt>
      <trkpt lat="28.6189050" lon="-17.8448650">
        <ele>1299.7</ele>
        <time>2020-11-17T10:14:13Z</time>
      </trkpt>
      <trkpt lat="28.6188900" lon="-17.8448950">
        <ele>1300.0</ele>
        <time>2020-11-17T10:14:14Z</time>
      </trkpt>
      <trkpt lat="28.6188900" lon="-17.8448950">
        <ele>1300.0</ele>
        <time>2020-11-17T10:14:15Z</time>
      </trkpt>
      <trkpt lat="28.6188800" lon="-17.8449270">
        <ele>1300.2</ele>
        <time>2020-11-17T10:14:16Z</time>
      </trkpt>
      <trkpt lat="28.6188800" lon="-17.8449270">
        <ele>1300.2</ele>
        <time>2020-11-17T10:14:17Z</time>
      </trkpt>
      <trkpt lat="28.6188720" lon="-17.8449580">
        <ele>1300.5</ele>
        <time>2020-11-17T10:14:18Z</time>
      </trkpt>
      <trkpt lat="28.6188630" lon="-17.8449730">
        <ele>1300.6</ele>
        <time>2020-11-17T10:14:19Z</time>
      </trkpt>
      <trkpt lat="28.6188630" lon="-17.8449730">
        <ele>1300.6</ele>
        <time>2020-11-17T10:14:20Z</time>
      </trkpt>
      <trkpt lat="28.6188550" lon="-17.8450070">
        <ele>1300.9</ele>
        <time>2020-11-17T10:14:21Z</time>
      </trkpt>
      <trkpt lat="28.6188520" lon="-17.8450230">
        <ele>1301.0</ele>
        <time>2020-11-17T10:14:22Z</time>
      </trkpt>
      <trkpt lat="28.6188480" lon="-17.8450420">
        <ele>1301.2</ele>
        <time>2020-11-17T10:14:23Z</time>
      </trkpt>
      <trkpt lat="28.6188480" lon="-17.8450420">
        <ele>1301.2</ele>
        <time>2020-11-17T10:14:24Z</time>
      </trkpt>
      <trkpt lat="28.6188400" lon="-17.8450730">
        <ele>1301.4</ele>
        <time>2020-11-17T10:14:25Z</time>
      </trkpt>
      <trkpt lat="28.6188380" lon="-17.8450900">
        <ele>1301.5</ele>
        <time>2020-11-17T10:14:26Z</time>
      </trkpt>
      <trkpt lat="28.6188380" lon="-17.8450900">
        <ele>1301.5</ele>
        <time>2020-11-17T10:14:27Z</time>
      </trkpt>
      <trkpt lat="28.6188430" lon="-17.8451270">
        <ele>1301.8</ele>
        <time>2020-11-17T10:14:28Z</time>
      </trkpt>
      <trkpt lat="28.6188430" lon="-17.8451270">
        <ele>1301.8</ele>
        <time>2020-11-17T10:14:29Z</time>
      </trkpt>
      <trkpt lat="28.6188450" lon="-17.8451600">
        <ele>1302.1</ele>
        <time>2020-11-17T10:14:30Z</time>
      </trkpt>
      <trkpt lat="28.6188450" lon="-17.8451770">
        <ele>1302.3</ele>
        <time>2020-11-17T10:14:31Z</time>
      </trkpt>
      <trkpt lat="28.6188450" lon="-17.8451770">
        <ele>1302.3</ele>
        <time>2020-11-17T10:14:32Z</time>
      </trkpt>
      <trkpt lat="28.6188470" lon="-17.8452100">
        <ele>1302.5</ele>
        <time>2020-11-17T10:14:33Z</time>
      </trkpt>
      <trkpt lat="28.6188480" lon="-17.8452280">
        <ele>1302.7</ele>
        <time>2020-11-17T10:14:34Z</time>
      </trkpt>
      <trkpt lat="28.6188480" lon="-17.8452280">
        <ele>1302.7</ele>
        <time>2020-11-17T10:14:35Z</time>
      </trkpt>
      <trkpt lat="28.6188600" lon="-17.8452670">
        <ele>1303.0</ele>
        <time>2020-11-17T10:14:36Z</time>
      </trkpt>
      <trkpt lat="28.6188600" lon="-17.8452670">
        <ele>1303.0</ele>
        <time>2020-11-17T10:14:37Z</time>
      </trkpt>
      <trkpt lat="28.6188650" lon="-17.8453050">
        <ele>1303.3</ele>
        <time>2020-11-17T10:14:38Z</time>
      </trkpt>
      <trkpt lat="28.6188720" lon="-17.8453230">
        <ele>1303.4</ele>
        <time>2020-11-17T10:14:39Z</time>
      </trkpt>
      <trkpt lat="28.6188720" lon="-17.8453230">
        <ele>1303.4</ele>
        <time>2020-11-17T10:14:40Z</time>
      </trkpt>
      <trkpt lat="28.6188870" lon="-17.8453570">
        <ele>1303.7</ele>
        <time>2020-11-17T10:14:41Z</time>
      </trkpt>
      <trkpt lat="28.6188920" lon="-17.8453750">
        <ele>1303.8</ele>
        <time>2020-11-17T10:14:42Z</time>
      </trkpt>
      <trkpt lat="28.6188920" lon="-17.8453750">
        <ele>1303.8</ele>
        <time>2020-11-17T10:14:43Z</time>
      </trkpt>
      <trkpt lat="28.6188970" lon="-17.8454150">
        <ele>1304.0</ele>
        <time>2020-11-17T10:14:44Z</time>
      </trkpt>
      <trkpt lat="28.6188950" lon="-17.8454370">
        <ele>1304.2</ele>
        <time>2020-11-17T10:14:45Z</time>
      </trkpt>
      <trkpt lat="28.6188930" lon="-17.8454580">
        <ele>1304.3</ele>
        <time>2020-11-17T10:14:46Z</time>
      </trkpt>
      <trkpt lat="28.6188930" lon="-17.8454580">
        <ele>1304.3</ele>
        <time>2020-11-17T10:14:47Z</time>
      </trkpt>
      <trkpt lat="28.6188830" lon="-17.8455030">
        <ele>1304.5</ele>
        <time>2020-11-17T10:14:48Z</time>
      </trkpt>
      <trkpt lat="28.6188770" lon="-17.8455250">
        <ele>1304.7</ele>
        <time>2020-11-17T10:14:49Z</time>
      </trkpt>
      <trkpt lat="28.6188770" lon="-17.8455250">
        <ele>1304.7</ele>
        <time>2020-11-17T10:14:50Z</time>
      </trkpt>
      <trkpt lat="28.6188570" lon="-17.8455670">
        <ele>1304.9</ele>
        <time>2020-11-17T10:14:51Z</time>
      </trkpt>
      <trkpt lat="28.6188570" lon="-17.8455670">
        <ele>1304.9</ele>
        <time>2020-11-17T10:14:52Z</time>
      </trkpt>
      <trkpt lat="28.6188320" lon="-17.8456050">
        <ele>1305.1</ele>
        <time>2020-11-17T10:14:53Z</time>
      </trkpt>
      <trkpt lat="28.6188180" lon="-17.8456250">
        <ele>1305.2</ele>
        <time>2020-11-17T10:14:54Z</time>
      </trkpt>
      <trkpt lat="28.6188180" lon="-17.8456250">
        <ele>1305.2</ele>
        <time>2020-11-17T10:14:55Z</time>
      </trkpt>
      <trkpt lat="28.6187850" lon="-17.8456600">
        <ele>1305.4</ele>
        <time>2020-11-17T10:14:56Z</time>
      </trkpt>
      <trkpt lat="28.6187850" lon="-17.8456600">
        <ele>1305.4</ele>
        <time>2020-11-17T10:14:57Z</time>
      </trkpt>
      <trkpt lat="28.6187600" lon="-17.8456920">
        <ele>1305.6</ele>
        <time>2020-11-17T10:14:58Z</time>
      </trkpt>
      <trkpt lat="28.6187600" lon="-17.8456920">
        <ele>1305.6</ele>
        <time>2020-11-17T10:14:59Z</time>
      </trkpt>
      <trkpt lat="28.6187400" lon="-17.8457280">
        <ele>1305.8</ele>
        <time>2020-11-17T10:15:00Z</time>
      </trkpt>
      <trkpt lat="28.6187400" lon="-17.8457280">
        <ele>1305.8</ele>
        <time>2020-11-17T10:15:01Z</time>
      </trkpt>
      <trkpt lat="28.6187180" lon="-17.8457720">
        <ele>1306.0</ele>
        <time>2020-11-17T10:15:02Z</time>
      </trkpt>
      <trkpt lat="28.6187180" lon="-17.8457720">
        <ele>1306.0</ele>
        <time>2020-11-17T10:15:03Z</time>
      </trkpt>
      <trkpt lat="28.6187080" lon="-17.8458130">
        <ele>1306.2</ele>
        <time>2020-11-17T10:15:04Z</time>
      </trkpt>
      <trkpt lat="28.6187070" lon="-17.8458350">
        <ele>1306.3</ele>
        <time>2020-11-17T10:15:05Z</time>
      </trkpt>
      <trkpt lat="28.6187070" lon="-17.8458350">
        <ele>1306.3</ele>
        <time>2020-11-17T10:15:06Z</time>
      </trkpt>
      <trkpt lat="28.6186980" lon="-17.8458730">
        <ele>1306.5</ele>
        <time>2020-11-17T10:15:07Z</time>
      </trkpt>
      <trkpt lat="28.6186970" lon="-17.8458920">
        <ele>1306.6</ele>
        <time>2020-11-17T10:15:08Z</time>
      </trkpt>
      <trkpt lat="28.6186970" lon="-17.8458920">
        <ele>1306.6</ele>
        <time>2020-11-17T10:15:09Z</time>
      </trkpt>
      <trkpt lat="28.6186920" lon="-17.8459330">
        <ele>1306.8</ele>
        <time>2020-11-17T10:15:10Z</time>
      </trkpt>
      <trkpt lat="28.6186920" lon="-17.8459330">
        <ele>1306.8</ele>
        <time>2020-11-17T10:15:11Z</time>
      </trkpt>
      <trkpt lat="28.6186920" lon="-17.8459770">
        <ele>1307.0</ele>
        <time>2020-11-17T10:15:12Z</time>
      </trkpt>
      <trkpt lat="28.6186920" lon="-17.8459770">
        <ele>1307.0</ele>
        <time>2020-11-17T10:15:13Z</time>
      </trkpt>
      <trkpt lat="28.6187000" lon="-17.8460220">
        <ele>1307.3</ele>
        <time>2020-11-17T10:15:14Z</time>
      </trkpt>
      <trkpt lat="28.6187000" lon="-17.8460220">
        <ele>1307.3</ele>
        <time>2020-11-17T10:15:15Z</time>
      </trkpt>
      <trkpt lat="28.6187050" lon="-17.8460600">
        <ele>1307.5</ele>
        <time>2020-11-17T10:15:16Z</time>
      </trkpt>
      <trkpt lat="28.6187050" lon="-17.8460600">
        <ele>1307.5</ele>
        <time>2020-11-17T10:15:17Z</time>
      </trkpt>
      <trkpt lat="28.6187120" lon="-17.8461050">
        <ele>1307.8</ele>
        <time>2020-11-17T10:15:18Z</time>
      </trkpt>
      <trkpt lat="28.6187120" lon="-17.8461050">
        <ele>1307.8</ele>
        <time>2020-11-17T10:15:19Z</time>
      </trkpt>
      <trkpt lat="28.6187080" lon="-17.8461470">
        <ele>1308.0</ele>
        <time>2020-11-17T10:15:20Z</time>
      </trkpt>
      <trkpt lat="28.6187080" lon="-17.8461470">
        <ele>1308.0</ele>
        <time>2020-11-17T10:15:21Z</time>
      </trkpt>
      <trkpt lat="28.6187080" lon="-17.8461900">
        <ele>1308.3</ele>
        <time>2020-11-17T10:15:22Z</time>
      </trkpt>
      <trkpt lat="28.6187100" lon="-17.8462080">
        <ele>1308.4</ele>
        <time>2020-11-17T10:15:23Z</time>
      </trkpt>
      <trkpt lat="28.6187120" lon="-17.8462280">
        <ele>1308.5</ele>
        <time>2020-11-17T10:15:24Z</time>
      </trkpt>
      <trkpt lat="28.6187120" lon="-17.8462280">
        <ele>1308.5</ele>
        <time>2020-11-17T10:15:25Z</time>
      </trkpt>
      <trkpt lat="28.6187150" lon="-17.8462670">
        <ele>1308.7</ele>
        <time>2020-11-17T10:15:26Z</time>
      </trkpt>
      <trkpt lat="28.6187180" lon="-17.8462870">
        <ele>1308.8</ele>
        <time>2020-11-17T10:15:27Z</time>
      </trkpt>
      <trkpt lat="28.6187230" lon="-17.8463070">
        <ele>1309.0</ele>
        <time>2020-11-17T10:15:28Z</time>
      </trkpt>
      <trkpt lat="28.6187250" lon="-17.8463280">
        <ele>1309.1</ele>
        <time>2020-11-17T10:15:29Z</time>
      </trkpt>
      <trkpt lat="28.6187250" lon="-17.8463280">
        <ele>1309.1</ele>
        <time>2020-11-17T10:15:30Z</time>
      </trkpt>
      <trkpt lat="28.6187230" lon="-17.8463700">
        <ele>1309.4</ele>
        <time>2020-11-17T10:15:31Z</time>
      </trkpt>
      <trkpt lat="28.6187250" lon="-17.8463900">
        <ele>1309.5</ele>
        <time>2020-11-17T10:15:32Z</time>
      </trkpt>
      <trkpt lat="28.6187250" lon="-17.8463900">
        <ele>1309.5</ele>
        <time>2020-11-17T10:15:33Z</time>
      </trkpt>
      <trkpt lat="28.6187270" lon="-17.8464300">
        <ele>1309.7</ele>
        <time>2020-11-17T10:15:34Z</time>
      </trkpt>
      <trkpt lat="28.6187270" lon="-17.8464300">
        <ele>1309.7</ele>
        <time>2020-11-17T10:15:35Z</time>
      </trkpt>
      <trkpt lat="28.6187270" lon="-17.8464720">
        <ele>1310.0</ele>
        <time>2020-11-17T10:15:36Z</time>
      </trkpt>
      <trkpt lat="28.6187270" lon="-17.8464720">
        <ele>1310.0</ele>
        <time>2020-11-17T10:15:37Z</time>
      </trkpt>
      <trkpt lat="28.6187220" lon="-17.8465130">
        <ele>1310.3</ele>
        <time>2020-11-17T10:15:38Z</time>
      </trkpt>
      <trkpt lat="28.6187220" lon="-17.8465130">
        <ele>1310.3</ele>
        <time>2020-11-17T10:15:39Z</time>
      </trkpt>
      <trkpt lat="28.6187220" lon="-17.8465570">
        <ele>1310.6</ele>
        <time>2020-11-17T10:15:40Z</time>
      </trkpt>
      <trkpt lat="28.6187220" lon="-17.8465770">
        <ele>1310.8</ele>
        <time>2020-11-17T10:15:41Z</time>
      </trkpt>
      <trkpt lat="28.6187220" lon="-17.8465770">
        <ele>1310.8</ele>
        <time>2020-11-17T10:15:42Z</time>
      </trkpt>
      <trkpt lat="28.6187250" lon="-17.8466180">
        <ele>1311.0</ele>
        <time>2020-11-17T10:15:43Z</time>
      </trkpt>
      <trkpt lat="28.6187250" lon="-17.8466180">
        <ele>1311.0</ele>
        <time>2020-11-17T10:15:44Z</time>
      </trkpt>
      <trkpt lat="28.6187280" lon="-17.8466580">
        <ele>1311.3</ele>
        <time>2020-11-17T10:15:45Z</time>
      </trkpt>
      <trkpt lat="28.6187280" lon="-17.8466580">
        <ele>1311.3</ele>
        <time>2020-11-17T10:15:46Z</time>
      </trkpt>
      <trkpt lat="28.6187200" lon="-17.8467000">
        <ele>1311.6</ele>
        <time>2020-11-17T10:15:47Z</time>
      </trkpt>
      <trkpt lat="28.6187180" lon="-17.8467200">
        <ele>1311.7</ele>
        <time>2020-11-17T10:15:48Z</time>
      </trkpt>
      <trkpt lat="28.6187180" lon="-17.8467200">
        <ele>1311.7</ele>
        <time>2020-11-17T10:15:49Z</time>
      </trkpt>
      <trkpt lat="28.6187230" lon="-17.8467670">
        <ele>1312.1</ele>
        <time>2020-11-17T10:15:50Z</time>
      </trkpt>
      <trkpt lat="28.6187230" lon="-17.8467670">
        <ele>1312.1</ele>
        <time>2020-11-17T10:15:51Z</time>
      </trkpt>
      <trkpt lat="28.6187220" lon="-17.8468100">
        <ele>1312.4</ele>
        <time>2020-11-17T10:15:52Z</time>
      </trkpt>
      <trkpt lat="28.6187220" lon="-17.8468100">
        <ele>1312.4</ele>
        <time>2020-11-17T10:15:53Z</time>
      </trkpt>
      <trkpt lat="28.6187130" lon="-17.8468530">
        <ele>1312.6</ele>
        <time>2020-11-17T10:15:54Z</time>
      </trkpt>
      <trkpt lat="28.6187130" lon="-17.8468530">
        <ele>1312.6</ele>
        <time>2020-11-17T10:15:55Z</time>
      </trkpt>
      <trkpt lat="28.6186970" lon="-17.8468930">
        <ele>1312.9</ele>
        <time>2020-11-17T10:15:56Z</time>
      </trkpt>
      <trkpt lat="28.6186970" lon="-17.8468930">
        <ele>1312.9</ele>
        <time>2020-11-17T10:15:57Z</time>
      </trkpt>
      <trkpt lat="28.6186700" lon="-17.8469250">
        <ele>1313.2</ele>
        <time>2020-11-17T10:15:58Z</time>
      </trkpt>
      <trkpt lat="28.6186550" lon="-17.8469380">
        <ele>1313.3</ele>
        <time>2020-11-17T10:15:59Z</time>
      </trkpt>
      <trkpt lat="28.6186550" lon="-17.8469380">
        <ele>1313.3</ele>
        <time>2020-11-17T10:16:00Z</time>
      </trkpt>
      <trkpt lat="28.6186250" lon="-17.8469630">
        <ele>1313.5</ele>
        <time>2020-11-17T10:16:01Z</time>
      </trkpt>
      <trkpt lat="28.6186250" lon="-17.8469630">
        <ele>1313.5</ele>
        <time>2020-11-17T10:16:02Z</time>
      </trkpt>
      <trkpt lat="28.6185920" lon="-17.8469830">
        <ele>1313.7</ele>
        <time>2020-11-17T10:16:03Z</time>
      </trkpt>
      <trkpt lat="28.6185700" lon="-17.8469930">
        <ele>1313.9</ele>
        <time>2020-11-17T10:16:04Z</time>
      </trkpt>
      <trkpt lat="28.6185700" lon="-17.8469930">
        <ele>1313.9</ele>
        <time>2020-11-17T10:16:05Z</time>
      </trkpt>
      <trkpt lat="28.6185300" lon="-17.8470080">
        <ele>1314.1</ele>
        <time>2020-11-17T10:16:06Z</time>
      </trkpt>
      <trkpt lat="28.6185080" lon="-17.8470150">
        <ele>1314.2</ele>
        <time>2020-11-17T10:16:07Z</time>
      </trkpt>
      <trkpt lat="28.6185080" lon="-17.8470150">
        <ele>1314.2</ele>
        <time>2020-11-17T10:16:08Z</time>
      </trkpt>
      <trkpt lat="28.6184680" lon="-17.8470300">
        <ele>1314.5</ele>
        <time>2020-11-17T10:16:09Z</time>
      </trkpt>
      <trkpt lat="28.6184500" lon="-17.8470330">
        <ele>1314.6</ele>
        <time>2020-11-17T10:16:10Z</time>
      </trkpt>
      <trkpt lat="28.6184500" lon="-17.8470330">
        <ele>1314.6</ele>
        <time>2020-11-17T10:16:11Z</time>
      </trkpt>
      <trkpt lat="28.6184050" lon="-17.8470380">
        <ele>1314.9</ele>
        <time>2020-11-17T10:16:12Z</time>
      </trkpt>
      <trkpt lat="28.6184050" lon="-17.8470380">
        <ele>1314.9</ele>
        <time>2020-11-17T10:16:13Z</time>
      </trkpt>
      <trkpt lat="28.6183680" lon="-17.8470620">
        <ele>1315.2</ele>
        <time>2020-11-17T10:16:14Z</time>
      </trkpt>
      <trkpt lat="28.6183680" lon="-17.8470620">
        <ele>1315.2</ele>
        <time>2020-11-17T10:16:15Z</time>
      </trkpt>
      <trkpt lat="28.6183450" lon="-17.8471000">
        <ele>1315.4</ele>
        <time>2020-11-17T10:16:16Z</time>
      </trkpt>
      <trkpt lat="28.6183350" lon="-17.8471230">
        <ele>1315.6</ele>
        <time>2020-11-17T10:16:17Z</time>
      </trkpt>
      <trkpt lat="28.6183270" lon="-17.8471470">
        <ele>1315.8</ele>
        <time>2020-11-17T10:16:18Z</time>
      </trkpt>
      <trkpt lat="28.6183270" lon="-17.8471470">
        <ele>1315.8</ele>
        <time>2020-11-17T10:16:19Z</time>
      </trkpt>
      <trkpt lat="28.6183100" lon="-17.8471930">
        <ele>1316.1</ele>
        <time>2020-11-17T10:16:20Z</time>
      </trkpt>
      <trkpt lat="28.6183100" lon="-17.8471930">
        <ele>1316.1</ele>
        <time>2020-11-17T10:16:21Z</time>
      </trkpt>
      <trkpt lat="28.6183070" lon="-17.8472400">
        <ele>1316.4</ele>
        <time>2020-11-17T10:16:22Z</time>
      </trkpt>
      <trkpt lat="28.6183070" lon="-17.8472400">
        <ele>1316.4</ele>
        <time>2020-11-17T10:16:23Z</time>
      </trkpt>
      <trkpt lat="28.6182980" lon="-17.8472820">
        <ele>1316.7</ele>
        <time>2020-11-17T10:16:24Z</time>
      </trkpt>
      <trkpt lat="28.6182980" lon="-17.8472820">
        <ele>1316.7</ele>
        <time>2020-11-17T10:16:25Z</time>
      </trkpt>
      <trkpt lat="28.6182880" lon="-17.8473250">
        <ele>1317.0</ele>
        <time>2020-11-17T10:16:26Z</time>
      </trkpt>
      <trkpt lat="28.6182850" lon="-17.8473430">
        <ele>1317.2</ele>
        <time>2020-11-17T10:16:27Z</time>
      </trkpt>
      <trkpt lat="28.6182850" lon="-17.8473430">
        <ele>1317.2</ele>
        <time>2020-11-17T10:16:28Z</time>
      </trkpt>
      <trkpt lat="28.6182770" lon="-17.8473820">
        <ele>1317.5</ele>
        <time>2020-11-17T10:16:29Z</time>
      </trkpt>
      <trkpt lat="28.6182770" lon="-17.8473820">
        <ele>1317.5</ele>
        <time>2020-11-17T10:16:30Z</time>
      </trkpt>
      <trkpt lat="28.6182680" lon="-17.8474220">
        <ele>1317.8</ele>
        <time>2020-11-17T10:16:31Z</time>
      </trkpt>
      <trkpt lat="28.6182680" lon="-17.8474220">
        <ele>1317.8</ele>
        <time>2020-11-17T10:16:32Z</time>
      </trkpt>
      <trkpt lat="28.6182580" lon="-17.8474620">
        <ele>1318.1</ele>
        <time>2020-11-17T10:16:33Z</time>
      </trkpt>
      <trkpt lat="28.6182580" lon="-17.8474620">
        <ele>1318.1</ele>
        <time>2020-11-17T10:16:34Z</time>
      </trkpt>
      <trkpt lat="28.6182470" lon="-17.8475020">
        <ele>1318.4</ele>
        <time>2020-11-17T10:16:35Z</time>
      </trkpt>
      <trkpt lat="28.6182420" lon="-17.8475250">
        <ele>1318.6</ele>
        <time>2020-11-17T10:16:36Z</time>
      </trkpt>
      <trkpt lat="28.6182420" lon="-17.8475250">
        <ele>1318.6</ele>
        <time>2020-11-17T10:16:37Z</time>
      </trkpt>
      <trkpt lat="28.6182300" lon="-17.8475620">
        <ele>1318.9</ele>
        <time>2020-11-17T10:16:38Z</time>
      </trkpt>
      <trkpt lat="28.6182300" lon="-17.8475620">
        <ele>1318.9</ele>
        <time>2020-11-17T10:16:39Z</time>
      </trkpt>
      <trkpt lat="28.6182130" lon="-17.8475970">
        <ele>1319.2</ele>
        <time>2020-11-17T10:16:40Z</time>
      </trkpt>
      <trkpt lat="28.6182130" lon="-17.8475970">
        <ele>1319.2</ele>
        <time>2020-11-17T10:16:41Z</time>
      </trkpt>
      <trkpt lat="28.6181970" lon="-17.8476330">
        <ele>1319.5</ele>
        <time>2020-11-17T10:16:42Z</time>
      </trkpt>
      <trkpt lat="28.6181970" lon="-17.8476330">
        <ele>1319.5</ele>
        <time>2020-11-17T10:16:43Z</time>
      </trkpt>
      <trkpt lat="28.6181770" lon="-17.8476780">
        <ele>1319.8</ele>
        <time>2020-11-17T10:16:44Z</time>
      </trkpt>
      <trkpt lat="28.6181770" lon="-17.8476780">
        <ele>1319.8</ele>
        <time>2020-11-17T10:16:45Z</time>
      </trkpt>
      <trkpt lat="28.6181520" lon="-17.8477200">
        <ele>1320.2</ele>
        <time>2020-11-17T10:16:46Z</time>
      </trkpt>
      <trkpt lat="28.6181380" lon="-17.8477380">
        <ele>1320.3</ele>
        <time>2020-11-17T10:16:47Z</time>
      </trkpt>
      <trkpt lat="28.6181380" lon="-17.8477380">
        <ele>1320.3</ele>
        <time>2020-11-17T10:16:48Z</time>
      </trkpt>
      <trkpt lat="28.6181130" lon="-17.8477720">
        <ele>1320.6</ele>
        <time>2020-11-17T10:16:49Z</time>
      </trkpt>
      <trkpt lat="28.6181130" lon="-17.8477720">
        <ele>1320.6</ele>
        <time>2020-11-17T10:16:50Z</time>
      </trkpt>
      <trkpt lat="28.6180880" lon="-17.8478070">
        <ele>1320.9</ele>
        <time>2020-11-17T10:16:51Z</time>
      </trkpt>
      <trkpt lat="28.6180880" lon="-17.8478070">
        <ele>1320.9</ele>
        <time>2020-11-17T10:16:52Z</time>
      </trkpt>
      <trkpt lat="28.6180630" lon="-17.8478400">
        <ele>1321.2</ele>
        <time>2020-11-17T10:16:53Z</time>
      </trkpt>
      <trkpt lat="28.6180500" lon="-17.8478570">
        <ele>1321.4</ele>
        <time>2020-11-17T10:16:54Z</time>
      </trkpt>
      <trkpt lat="28.6180500" lon="-17.8478570">
        <ele>1321.4</ele>
        <time>2020-11-17T10:16:55Z</time>
      </trkpt>
      <trkpt lat="28.6180220" lon="-17.8478900">
        <ele>1321.7</ele>
        <time>2020-11-17T10:16:56Z</time>
      </trkpt>
      <trkpt lat="28.6180220" lon="-17.8478900">
        <ele>1321.7</ele>
        <time>2020-11-17T10:16:57Z</time>
      </trkpt>
      <trkpt lat="28.6179920" lon="-17.8479180">
        <ele>1321.9</ele>
        <time>2020-11-17T10:16:58Z</time>
      </trkpt>
      <trkpt lat="28.6179770" lon="-17.8479330">
        <ele>1322.1</ele>
        <time>2020-11-17T10:16:59Z</time>
      </trkpt>
      <trkpt lat="28.6179770" lon="-17.8479330">
        <ele>1322.1</ele>
        <time>2020-11-17T10:17:00Z</time>
      </trkpt>
      <trkpt lat="28.6179480" lon="-17.8479650">
        <ele>1322.4</ele>
        <time>2020-11-17T10:17:01Z</time>
      </trkpt>
      <trkpt lat="28.6179480" lon="-17.8479650">
        <ele>1322.4</ele>
        <time>2020-11-17T10:17:02Z</time>
      </trkpt>
      <trkpt lat="28.6179250" lon="-17.8480000">
        <ele>1322.7</ele>
        <time>2020-11-17T10:17:03Z</time>
      </trkpt>
      <trkpt lat="28.6179250" lon="-17.8480000">
        <ele>1322.7</ele>
        <time>2020-11-17T10:17:04Z</time>
      </trkpt>
      <trkpt lat="28.6178970" lon="-17.8480280">
        <ele>1323.0</ele>
        <time>2020-11-17T10:17:05Z</time>
      </trkpt>
      <trkpt lat="28.6178970" lon="-17.8480280">
        <ele>1323.0</ele>
        <time>2020-11-17T10:17:06Z</time>
      </trkpt>
      <trkpt lat="28.6178650" lon="-17.8480550">
        <ele>1323.3</ele>
        <time>2020-11-17T10:17:07Z</time>
      </trkpt>
      <trkpt lat="28.6178500" lon="-17.8480680">
        <ele>1323.4</ele>
        <time>2020-11-17T10:17:08Z</time>
      </trkpt>
      <trkpt lat="28.6178500" lon="-17.8480680">
        <ele>1323.4</ele>
        <time>2020-11-17T10:17:09Z</time>
      </trkpt>
      <trkpt lat="28.6178220" lon="-17.8481050">
        <ele>1323.8</ele>
        <time>2020-11-17T10:17:10Z</time>
      </trkpt>
      <trkpt lat="28.6178220" lon="-17.8481050">
        <ele>1323.8</ele>
        <time>2020-11-17T10:17:11Z</time>
      </trkpt>
      <trkpt lat="28.6177930" lon="-17.8481380">
        <ele>1324.1</ele>
        <time>2020-11-17T10:17:12Z</time>
      </trkpt>
      <trkpt lat="28.6177930" lon="-17.8481380">
        <ele>1324.1</ele>
        <time>2020-11-17T10:17:13Z</time>
      </trkpt>
      <trkpt lat="28.6177620" lon="-17.8481700">
        <ele>1324.5</ele>
        <time>2020-11-17T10:17:14Z</time>
      </trkpt>
      <trkpt lat="28.6177620" lon="-17.8481700">
        <ele>1324.5</ele>
        <time>2020-11-17T10:17:15Z</time>
      </trkpt>
      <trkpt lat="28.6177300" lon="-17.8481970">
        <ele>1324.8</ele>
        <time>2020-11-17T10:17:16Z</time>
      </trkpt>
      <trkpt lat="28.6177300" lon="-17.8481970">
        <ele>1324.8</ele>
        <time>2020-11-17T10:17:17Z</time>
      </trkpt>
      <trkpt lat="28.6176970" lon="-17.8482230">
        <ele>1325.1</ele>
        <time>2020-11-17T10:17:18Z</time>
      </trkpt>
      <trkpt lat="28.6176970" lon="-17.8482230">
        <ele>1325.1</ele>
        <time>2020-11-17T10:17:19Z</time>
      </trkpt>
      <trkpt lat="28.6176670" lon="-17.8482500">
        <ele>1325.5</ele>
        <time>2020-11-17T10:17:20Z</time>
      </trkpt>
      <trkpt lat="28.6176520" lon="-17.8482620">
        <ele>1325.6</ele>
        <time>2020-11-17T10:17:21Z</time>
      </trkpt>
      <trkpt lat="28.6176520" lon="-17.8482620">
        <ele>1325.6</ele>
        <time>2020-11-17T10:17:22Z</time>
      </trkpt>
      <trkpt lat="28.6176230" lon="-17.8482900">
        <ele>1326.0</ele>
        <time>2020-11-17T10:17:23Z</time>
      </trkpt>
      <trkpt lat="28.6176100" lon="-17.8483020">
        <ele>1326.1</ele>
        <time>2020-11-17T10:17:24Z</time>
      </trkpt>
      <trkpt lat="28.6176100" lon="-17.8483020">
        <ele>1326.1</ele>
        <time>2020-11-17T10:17:25Z</time>
      </trkpt>
      <trkpt lat="28.6175850" lon="-17.8483200">
        <ele>1326.4</ele>
        <time>2020-11-17T10:17:26Z</time>
      </trkpt>
      <trkpt lat="28.6175850" lon="-17.8483200">
        <ele>1326.4</ele>
        <time>2020-11-17T10:17:27Z</time>
      </trkpt>
      <trkpt lat="28.6175500" lon="-17.8483370">
        <ele>1326.8</ele>
        <time>2020-11-17T10:17:28Z</time>
      </trkpt>
      <trkpt lat="28.6175500" lon="-17.8483370">
        <ele>1326.8</ele>
        <time>2020-11-17T10:17:29Z</time>
      </trkpt>
      <trkpt lat="28.6175200" lon="-17.8483580">
        <ele>1327.1</ele>
        <time>2020-11-17T10:17:30Z</time>
      </trkpt>
      <trkpt lat="28.6175200" lon="-17.8483580">
        <ele>1327.1</ele>
        <time>2020-11-17T10:17:31Z</time>
      </trkpt>
      <trkpt lat="28.6174920" lon="-17.8483780">
        <ele>1327.4</ele>
        <time>2020-11-17T10:17:32Z</time>
      </trkpt>
      <trkpt lat="28.6174920" lon="-17.8483780">
        <ele>1327.4</ele>
        <time>2020-11-17T10:17:33Z</time>
      </trkpt>
      <trkpt lat="28.6174600" lon="-17.8483920">
        <ele>1327.7</ele>
        <time>2020-11-17T10:17:34Z</time>
      </trkpt>
      <trkpt lat="28.6174600" lon="-17.8483920">
        <ele>1327.7</ele>
        <time>2020-11-17T10:17:35Z</time>
      </trkpt>
      <trkpt lat="28.6174250" lon="-17.8484050">
        <ele>1328.1</ele>
        <time>2020-11-17T10:17:36Z</time>
      </trkpt>
      <trkpt lat="28.6174250" lon="-17.8484050">
        <ele>1328.1</ele>
        <time>2020-11-17T10:17:37Z</time>
      </trkpt>
      <trkpt lat="28.6173870" lon="-17.8484150">
        <ele>1328.4</ele>
        <time>2020-11-17T10:17:38Z</time>
      </trkpt>
      <trkpt lat="28.6173700" lon="-17.8484200">
        <ele>1337.5</ele>
        <time>2020-11-17T10:17:39Z</time>
      </trkpt>
      <trkpt lat="28.6173700" lon="-17.8484200">
        <ele>1337.5</ele>
        <time>2020-11-17T10:17:40Z</time>
      </trkpt>
      <trkpt lat="28.6173370" lon="-17.8484380">
        <ele>1337.5</ele>
        <time>2020-11-17T10:17:41Z</time>
      </trkpt>
      <trkpt lat="28.6173200" lon="-17.8484480">
        <ele>1337.4</ele>
        <time>2020-11-17T10:17:42Z</time>
      </trkpt>
      <trkpt lat="28.6173200" lon="-17.8484480">
        <ele>1337.4</ele>
        <time>2020-11-17T10:17:43Z</time>
      </trkpt>
      <trkpt lat="28.6172830" lon="-17.8484770">
        <ele>1337.1</ele>
        <time>2020-11-17T10:17:44Z</time>
      </trkpt>
      <trkpt lat="28.6172830" lon="-17.8484770">
        <ele>1337.1</ele>
        <time>2020-11-17T10:17:45Z</time>
      </trkpt>
      <trkpt lat="28.6172480" lon="-17.8485030">
        <ele>1336.9</ele>
        <time>2020-11-17T10:17:46Z</time>
      </trkpt>
      <trkpt lat="28.6172350" lon="-17.8485180">
        <ele>1336.8</ele>
        <time>2020-11-17T10:17:47Z</time>
      </trkpt>
      <trkpt lat="28.6172350" lon="-17.8485180">
        <ele>1336.8</ele>
        <time>2020-11-17T10:17:48Z</time>
      </trkpt>
      <trkpt lat="28.6172030" lon="-17.8485520">
        <ele>1336.6</ele>
        <time>2020-11-17T10:17:49Z</time>
      </trkpt>
      <trkpt lat="28.6172030" lon="-17.8485520">
        <ele>1336.6</ele>
        <time>2020-11-17T10:17:50Z</time>
      </trkpt>
      <trkpt lat="28.6171650" lon="-17.8485830">
        <ele>1336.3</ele>
        <time>2020-11-17T10:17:51Z</time>
      </trkpt>
      <trkpt lat="28.6171650" lon="-17.8485830">
        <ele>1336.3</ele>
        <time>2020-11-17T10:17:52Z</time>
      </trkpt>
      <trkpt lat="28.6171280" lon="-17.8486200">
        <ele>1336.3</ele>
        <time>2020-11-17T10:17:53Z</time>
      </trkpt>
      <trkpt lat="28.6171080" lon="-17.8486370">
        <ele>1336.4</ele>
        <time>2020-11-17T10:17:54Z</time>
      </trkpt>
      <trkpt lat="28.6171080" lon="-17.8486370">
        <ele>1336.4</ele>
        <time>2020-11-17T10:17:55Z</time>
      </trkpt>
      <trkpt lat="28.6170650" lon="-17.8486680">
        <ele>1336.6</ele>
        <time>2020-11-17T10:17:56Z</time>
      </trkpt>
      <trkpt lat="28.6170650" lon="-17.8486680">
        <ele>1336.6</ele>
        <time>2020-11-17T10:17:57Z</time>
      </trkpt>
      <trkpt lat="28.6170220" lon="-17.8487000">
        <ele>1336.8</ele>
        <time>2020-11-17T10:17:58Z</time>
      </trkpt>
      <trkpt lat="28.6170220" lon="-17.8487000">
        <ele>1336.8</ele>
        <time>2020-11-17T10:17:59Z</time>
      </trkpt>
      <trkpt lat="28.6169850" lon="-17.8487400">
        <ele>1337.0</ele>
        <time>2020-11-17T10:18:00Z</time>
      </trkpt>
      <trkpt lat="28.6169850" lon="-17.8487400">
        <ele>1337.0</ele>
        <time>2020-11-17T10:18:01Z</time>
      </trkpt>
      <trkpt lat="28.6169430" lon="-17.8487750">
        <ele>1337.2</ele>
        <time>2020-11-17T10:18:02Z</time>
      </trkpt>
      <trkpt lat="28.6169230" lon="-17.8487930">
        <ele>1337.3</ele>
        <time>2020-11-17T10:18:03Z</time>
      </trkpt>
      <trkpt lat="28.6169230" lon="-17.8487930">
        <ele>1337.3</ele>
        <time>2020-11-17T10:18:04Z</time>
      </trkpt>
      <trkpt lat="28.6168850" lon="-17.8488280">
        <ele>1337.5</ele>
        <time>2020-11-17T10:18:05Z</time>
      </trkpt>
      <trkpt lat="28.6168850" lon="-17.8488280">
        <ele>1337.5</ele>
        <time>2020-11-17T10:18:06Z</time>
      </trkpt>
      <trkpt lat="28.6168430" lon="-17.8488650">
        <ele>1337.8</ele>
        <time>2020-11-17T10:18:07Z</time>
      </trkpt>
      <trkpt lat="28.6168430" lon="-17.8488650">
        <ele>1337.8</ele>
        <time>2020-11-17T10:18:08Z</time>
      </trkpt>
      <trkpt lat="28.6168050" lon="-17.8489070">
        <ele>1338.0</ele>
        <time>2020-11-17T10:18:09Z</time>
      </trkpt>
      <trkpt lat="28.6168050" lon="-17.8489070">
        <ele>1338.0</ele>
        <time>2020-11-17T10:18:10Z</time>
      </trkpt>
      <trkpt lat="28.6167580" lon="-17.8489420">
        <ele>1338.3</ele>
        <time>2020-11-17T10:18:11Z</time>
      </trkpt>
      <trkpt lat="28.6167350" lon="-17.8489620">
        <ele>1338.4</ele>
        <time>2020-11-17T10:18:12Z</time>
      </trkpt>
      <trkpt lat="28.6167350" lon="-17.8489620">
        <ele>1338.4</ele>
        <time>2020-11-17T10:18:13Z</time>
      </trkpt>
      <trkpt lat="28.6166870" lon="-17.8489900">
        <ele>1338.7</ele>
        <time>2020-11-17T10:18:14Z</time>
      </trkpt>
      <trkpt lat="28.6166870" lon="-17.8489900">
        <ele>1338.7</ele>
        <time>2020-11-17T10:18:15Z</time>
      </trkpt>
      <trkpt lat="28.6166400" lon="-17.8490050">
        <ele>1338.8</ele>
        <time>2020-11-17T10:18:16Z</time>
      </trkpt>
      <trkpt lat="28.6166400" lon="-17.8490050">
        <ele>1338.8</ele>
        <time>2020-11-17T10:18:17Z</time>
      </trkpt>
      <trkpt lat="28.6166400" lon="-17.8490050">
        <ele>1338.8</ele>
        <time>2020-11-17T10:18:18Z</time>
      </trkpt>
      <trkpt lat="28.6165650" lon="-17.8490000">
        <ele>1339.1</ele>
        <time>2020-11-17T10:18:19Z</time>
      </trkpt>
      <trkpt lat="28.6165380" lon="-17.8489930">
        <ele>1339.1</ele>
        <time>2020-11-17T10:18:20Z</time>
      </trkpt>
      <trkpt lat="28.6165380" lon="-17.8489930">
        <ele>1339.1</ele>
        <time>2020-11-17T10:18:21Z</time>
      </trkpt>
      <trkpt lat="28.6164850" lon="-17.8489770">
        <ele>1339.3</ele>
        <time>2020-11-17T10:18:22Z</time>
      </trkpt>
      <trkpt lat="28.6164580" lon="-17.8489670">
        <ele>1339.3</ele>
        <time>2020-11-17T10:18:23Z</time>
      </trkpt>
      <trkpt lat="28.6164580" lon="-17.8489670">
        <ele>1339.3</ele>
        <time>2020-11-17T10:18:24Z</time>
      </trkpt>
      <trkpt lat="28.6164030" lon="-17.8489450">
        <ele>1339.4</ele>
        <time>2020-11-17T10:18:25Z</time>
      </trkpt>
      <trkpt lat="28.6164030" lon="-17.8489450">
        <ele>1339.4</ele>
        <time>2020-11-17T10:18:26Z</time>
      </trkpt>
      <trkpt lat="28.6163500" lon="-17.8489180">
        <ele>1339.5</ele>
        <time>2020-11-17T10:18:27Z</time>
      </trkpt>
      <trkpt lat="28.6163200" lon="-17.8489070">
        <ele>1339.5</ele>
        <time>2020-11-17T10:18:28Z</time>
      </trkpt>
      <trkpt lat="28.6163200" lon="-17.8489070">
        <ele>1339.5</ele>
        <time>2020-11-17T10:18:29Z</time>
      </trkpt>
      <trkpt lat="28.6162570" lon="-17.8488920">
        <ele>1339.6</ele>
        <time>2020-11-17T10:18:30Z</time>
      </trkpt>
      <trkpt lat="28.6162570" lon="-17.8488920">
        <ele>1339.6</ele>
        <time>2020-11-17T10:18:31Z</time>
      </trkpt>
      <trkpt lat="28.6161920" lon="-17.8488850">
        <ele>1339.7</ele>
        <time>2020-11-17T10:18:32Z</time>
      </trkpt>
      <trkpt lat="28.6161920" lon="-17.8488850">
        <ele>1339.7</ele>
        <time>2020-11-17T10:18:33Z</time>
      </trkpt>
      <trkpt lat="28.6161300" lon="-17.8489020">
        <ele>1339.7</ele>
        <time>2020-11-17T10:18:34Z</time>
      </trkpt>
      <trkpt lat="28.6161300" lon="-17.8489020">
        <ele>1339.7</ele>
        <time>2020-11-17T10:18:35Z</time>
      </trkpt>
      <trkpt lat="28.6160750" lon="-17.8489330">
        <ele>1339.8</ele>
        <time>2020-11-17T10:18:36Z</time>
      </trkpt>
      <trkpt lat="28.6160750" lon="-17.8489330">
        <ele>1339.8</ele>
        <time>2020-11-17T10:18:37Z</time>
      </trkpt>
      <trkpt lat="28.6160230" lon="-17.8489680">
        <ele>1339.9</ele>
        <time>2020-11-17T10:18:38Z</time>
      </trkpt>
      <trkpt lat="28.6160030" lon="-17.8489920">
        <ele>1340.0</ele>
        <time>2020-11-17T10:18:39Z</time>
      </trkpt>
      <trkpt lat="28.6160030" lon="-17.8489920">
        <ele>1340.0</ele>
        <time>2020-11-17T10:18:40Z</time>
      </trkpt>
      <trkpt lat="28.6159620" lon="-17.8490450">
        <ele>1340.1</ele>
        <time>2020-11-17T10:18:41Z</time>
      </trkpt>
      <trkpt lat="28.6159620" lon="-17.8490450">
        <ele>1340.1</ele>
        <time>2020-11-17T10:18:42Z</time>
      </trkpt>
      <trkpt lat="28.6159230" lon="-17.8491130">
        <ele>1340.3</ele>
        <time>2020-11-17T10:18:43Z</time>
      </trkpt>
      <trkpt lat="28.6159230" lon="-17.8491130">
        <ele>1340.3</ele>
        <time>2020-11-17T10:18:44Z</time>
      </trkpt>
      <trkpt lat="28.6158900" lon="-17.8491720">
        <ele>1340.4</ele>
        <time>2020-11-17T10:18:45Z</time>
      </trkpt>
      <trkpt lat="28.6158730" lon="-17.8491980">
        <ele>1340.4</ele>
        <time>2020-11-17T10:18:46Z</time>
      </trkpt>
      <trkpt lat="28.6158730" lon="-17.8491980">
        <ele>1340.4</ele>
        <time>2020-11-17T10:18:47Z</time>
      </trkpt>
      <trkpt lat="28.6158470" lon="-17.8492620">
        <ele>1340.5</ele>
        <time>2020-11-17T10:18:48Z</time>
      </trkpt>
      <trkpt lat="28.6158470" lon="-17.8492620">
        <ele>1340.5</ele>
        <time>2020-11-17T10:18:49Z</time>
      </trkpt>
      <trkpt lat="28.6158150" lon="-17.8493300">
        <ele>1340.6</ele>
        <time>2020-11-17T10:18:50Z</time>
      </trkpt>
      <trkpt lat="28.6158020" lon="-17.8493620">
        <ele>1340.6</ele>
        <time>2020-11-17T10:18:51Z</time>
      </trkpt>
      <trkpt lat="28.6158020" lon="-17.8493620">
        <ele>1340.6</ele>
        <time>2020-11-17T10:18:52Z</time>
      </trkpt>
      <trkpt lat="28.6157770" lon="-17.8494270">
        <ele>1340.5</ele>
        <time>2020-11-17T10:18:53Z</time>
      </trkpt>
      <trkpt lat="28.6157770" lon="-17.8494270">
        <ele>1340.5</ele>
        <time>2020-11-17T10:18:54Z</time>
      </trkpt>
      <trkpt lat="28.6157480" lon="-17.8494880">
        <ele>1340.5</ele>
        <time>2020-11-17T10:18:55Z</time>
      </trkpt>
      <trkpt lat="28.6157350" lon="-17.8495220">
        <ele>1340.5</ele>
        <time>2020-11-17T10:18:56Z</time>
      </trkpt>
      <trkpt lat="28.6157350" lon="-17.8495220">
        <ele>1340.5</ele>
        <time>2020-11-17T10:18:57Z</time>
      </trkpt>
      <trkpt lat="28.6157020" lon="-17.8495780">
        <ele>1340.3</ele>
        <time>2020-11-17T10:18:58Z</time>
      </trkpt>
      <trkpt lat="28.6157020" lon="-17.8495780">
        <ele>1340.3</ele>
        <time>2020-11-17T10:18:59Z</time>
      </trkpt>
      <trkpt lat="28.6156620" lon="-17.8496370">
        <ele>1340.1</ele>
        <time>2020-11-17T10:19:00Z</time>
      </trkpt>
      <trkpt lat="28.6156620" lon="-17.8496370">
        <ele>1340.1</ele>
        <time>2020-11-17T10:19:01Z</time>
      </trkpt>
      <trkpt lat="28.6156250" lon="-17.8497080">
        <ele>1339.8</ele>
        <time>2020-11-17T10:19:02Z</time>
      </trkpt>
      <trkpt lat="28.6156250" lon="-17.8497080">
        <ele>1339.8</ele>
        <time>2020-11-17T10:19:03Z</time>
      </trkpt>
      <trkpt lat="28.6155900" lon="-17.8497930">
        <ele>1339.6</ele>
        <time>2020-11-17T10:19:04Z</time>
      </trkpt>
      <trkpt lat="28.6155700" lon="-17.8498330">
        <ele>1339.5</ele>
        <time>2020-11-17T10:19:05Z</time>
      </trkpt>
      <trkpt lat="28.6155700" lon="-17.8498330">
        <ele>1339.5</ele>
        <time>2020-11-17T10:19:06Z</time>
      </trkpt>
      <trkpt lat="28.6155200" lon="-17.8499070">
        <ele>1339.3</ele>
        <time>2020-11-17T10:19:07Z</time>
      </trkpt>
      <trkpt lat="28.6155200" lon="-17.8499070">
        <ele>1339.3</ele>
        <time>2020-11-17T10:19:08Z</time>
      </trkpt>
      <trkpt lat="28.6154620" lon="-17.8499720">
        <ele>1339.1</ele>
        <time>2020-11-17T10:19:09Z</time>
      </trkpt>
      <trkpt lat="28.6154620" lon="-17.8499720">
        <ele>1339.1</ele>
        <time>2020-11-17T10:19:10Z</time>
      </trkpt>
      <trkpt lat="28.6153930" lon="-17.8500350">
        <ele>1338.9</ele>
        <time>2020-11-17T10:19:11Z</time>
      </trkpt>
      <trkpt lat="28.6153630" lon="-17.8500600">
        <ele>1338.9</ele>
        <time>2020-11-17T10:19:12Z</time>
      </trkpt>
      <trkpt lat="28.6153630" lon="-17.8500600">
        <ele>1338.9</ele>
        <time>2020-11-17T10:19:13Z</time>
      </trkpt>
      <trkpt lat="28.6153000" lon="-17.8501050">
        <ele>1338.9</ele>
        <time>2020-11-17T10:19:14Z</time>
      </trkpt>
      <trkpt lat="28.6152700" lon="-17.8501200">
        <ele>1338.9</ele>
        <time>2020-11-17T10:19:15Z</time>
      </trkpt>
      <trkpt lat="28.6152700" lon="-17.8501200">
        <ele>1338.9</ele>
        <time>2020-11-17T10:19:16Z</time>
      </trkpt>
      <trkpt lat="28.6152070" lon="-17.8501430">
        <ele>1338.9</ele>
        <time>2020-11-17T10:19:17Z</time>
      </trkpt>
      <trkpt lat="28.6151720" lon="-17.8501530">
        <ele>1338.9</ele>
        <time>2020-11-17T10:19:18Z</time>
      </trkpt>
      <trkpt lat="28.6151720" lon="-17.8501530">
        <ele>1338.9</ele>
        <time>2020-11-17T10:19:19Z</time>
      </trkpt>
      <trkpt lat="28.6151070" lon="-17.8501850">
        <ele>1338.9</ele>
        <time>2020-11-17T10:19:20Z</time>
      </trkpt>
      <trkpt lat="28.6150720" lon="-17.8502030">
        <ele>1339.0</ele>
        <time>2020-11-17T10:19:21Z</time>
      </trkpt>
      <trkpt lat="28.6150720" lon="-17.8502030">
        <ele>1339.0</ele>
        <time>2020-11-17T10:19:22Z</time>
      </trkpt>
      <trkpt lat="28.6150070" lon="-17.8502470">
        <ele>1338.9</ele>
        <time>2020-11-17T10:19:23Z</time>
      </trkpt>
      <trkpt lat="28.6150070" lon="-17.8502470">
        <ele>1338.9</ele>
        <time>2020-11-17T10:19:24Z</time>
      </trkpt>
      <trkpt lat="28.6149470" lon="-17.8503050">
        <ele>1338.9</ele>
        <time>2020-11-17T10:19:25Z</time>
      </trkpt>
      <trkpt lat="28.6149470" lon="-17.8503050">
        <ele>1338.9</ele>
        <time>2020-11-17T10:19:26Z</time>
      </trkpt>
      <trkpt lat="28.6149000" lon="-17.8503780">
        <ele>1338.8</ele>
        <time>2020-11-17T10:19:27Z</time>
      </trkpt>
      <trkpt lat="28.6148830" lon="-17.8504150">
        <ele>1338.8</ele>
        <time>2020-11-17T10:19:28Z</time>
      </trkpt>
      <trkpt lat="28.6148830" lon="-17.8504150">
        <ele>1338.8</ele>
        <time>2020-11-17T10:19:29Z</time>
      </trkpt>
      <trkpt lat="28.6148420" lon="-17.8504770">
        <ele>1338.8</ele>
        <time>2020-11-17T10:19:30Z</time>
      </trkpt>
      <trkpt lat="28.6148420" lon="-17.8504770">
        <ele>1338.8</ele>
        <time>2020-11-17T10:19:31Z</time>
      </trkpt>
      <trkpt lat="28.6147950" lon="-17.8505370">
        <ele>1338.8</ele>
        <time>2020-11-17T10:19:32Z</time>
      </trkpt>
      <trkpt lat="28.6147950" lon="-17.8505370">
        <ele>1338.8</ele>
        <time>2020-11-17T10:19:33Z</time>
      </trkpt>
      <trkpt lat="28.6147450" lon="-17.8505870">
        <ele>1338.8</ele>
        <time>2020-11-17T10:19:34Z</time>
      </trkpt>
      <trkpt lat="28.6147150" lon="-17.8506130">
        <ele>1338.8</ele>
        <time>2020-11-17T10:19:35Z</time>
      </trkpt>
      <trkpt lat="28.6146820" lon="-17.8506300">
        <ele>1338.8</ele>
        <time>2020-11-17T10:19:36Z</time>
      </trkpt>
      <trkpt lat="28.6146820" lon="-17.8506300">
        <ele>1338.8</ele>
        <time>2020-11-17T10:19:37Z</time>
      </trkpt>
      <trkpt lat="28.6146100" lon="-17.8506550">
        <ele>1338.8</ele>
        <time>2020-11-17T10:19:38Z</time>
      </trkpt>
      <trkpt lat="28.6145780" lon="-17.8506650">
        <ele>1338.8</ele>
        <time>2020-11-17T10:19:39Z</time>
      </trkpt>
      <trkpt lat="28.6145780" lon="-17.8506650">
        <ele>1338.8</ele>
        <time>2020-11-17T10:19:40Z</time>
      </trkpt>
      <trkpt lat="28.6145170" lon="-17.8506870">
        <ele>1338.7</ele>
        <time>2020-11-17T10:19:41Z</time>
      </trkpt>
      <trkpt lat="28.6144820" lon="-17.8506900">
        <ele>1338.7</ele>
        <time>2020-11-17T10:19:42Z</time>
      </trkpt>
      <trkpt lat="28.6144820" lon="-17.8506900">
        <ele>1338.7</ele>
        <time>2020-11-17T10:19:43Z</time>
      </trkpt>
      <trkpt lat="28.6144120" lon="-17.8506820">
        <ele>1338.6</ele>
        <time>2020-11-17T10:19:44Z</time>
      </trkpt>
      <trkpt lat="28.6143770" lon="-17.8506850">
        <ele>1338.6</ele>
        <time>2020-11-17T10:19:45Z</time>
      </trkpt>
      <trkpt lat="28.6143770" lon="-17.8506850">
        <ele>1338.6</ele>
        <time>2020-11-17T10:19:46Z</time>
      </trkpt>
      <trkpt lat="28.6143030" lon="-17.8506730">
        <ele>1338.5</ele>
        <time>2020-11-17T10:19:47Z</time>
      </trkpt>
      <trkpt lat="28.6142650" lon="-17.8506770">
        <ele>1338.5</ele>
        <time>2020-11-17T10:19:48Z</time>
      </trkpt>
      <trkpt lat="28.6142650" lon="-17.8506770">
        <ele>1338.5</ele>
        <time>2020-11-17T10:19:49Z</time>
      </trkpt>
      <trkpt lat="28.6141770" lon="-17.8506820">
        <ele>1338.4</ele>
        <time>2020-11-17T10:19:50Z</time>
      </trkpt>
      <trkpt lat="28.6141770" lon="-17.8506820">
        <ele>1338.4</ele>
        <time>2020-11-17T10:19:51Z</time>
      </trkpt>
      <trkpt lat="28.6140980" lon="-17.8506880">
        <ele>1338.3</ele>
        <time>2020-11-17T10:19:52Z</time>
      </trkpt>
      <trkpt lat="28.6140980" lon="-17.8506880">
        <ele>1338.3</ele>
        <time>2020-11-17T10:19:53Z</time>
      </trkpt>
      <trkpt lat="28.6140170" lon="-17.8507070">
        <ele>1338.3</ele>
        <time>2020-11-17T10:19:54Z</time>
      </trkpt>
      <trkpt lat="28.6140170" lon="-17.8507070">
        <ele>1338.3</ele>
        <time>2020-11-17T10:19:55Z</time>
      </trkpt>
      <trkpt lat="28.6139370" lon="-17.8507450">
        <ele>1338.2</ele>
        <time>2020-11-17T10:19:56Z</time>
      </trkpt>
      <trkpt lat="28.6139370" lon="-17.8507450">
        <ele>1338.2</ele>
        <time>2020-11-17T10:19:57Z</time>
      </trkpt>
      <trkpt lat="28.6138620" lon="-17.8507970">
        <ele>1338.1</ele>
        <time>2020-11-17T10:19:58Z</time>
      </trkpt>
      <trkpt lat="28.6138620" lon="-17.8507970">
        <ele>1338.1</ele>
        <time>2020-11-17T10:19:59Z</time>
      </trkpt>
      <trkpt lat="28.6137880" lon="-17.8508630">
        <ele>1337.8</ele>
        <time>2020-11-17T10:20:00Z</time>
      </trkpt>
      <trkpt lat="28.6137550" lon="-17.8509020">
        <ele>1337.7</ele>
        <time>2020-11-17T10:20:01Z</time>
      </trkpt>
      <trkpt lat="28.6137550" lon="-17.8509020">
        <ele>1337.7</ele>
        <time>2020-11-17T10:20:02Z</time>
      </trkpt>
      <trkpt lat="28.6136920" lon="-17.8509850">
        <ele>1337.5</ele>
        <time>2020-11-17T10:20:03Z</time>
      </trkpt>
      <trkpt lat="28.6136650" lon="-17.8510330">
        <ele>1337.5</ele>
        <time>2020-11-17T10:20:04Z</time>
      </trkpt>
      <trkpt lat="28.6136650" lon="-17.8510330">
        <ele>1337.5</ele>
        <time>2020-11-17T10:20:05Z</time>
      </trkpt>
      <trkpt lat="28.6136330" lon="-17.8511500">
        <ele>1337.4</ele>
        <time>2020-11-17T10:20:06Z</time>
      </trkpt>
      <trkpt lat="28.6136330" lon="-17.8511500">
        <ele>1337.4</ele>
        <time>2020-11-17T10:20:07Z</time>
      </trkpt>
      <trkpt lat="28.6135830" lon="-17.8512420">
        <ele>1337.4</ele>
        <time>2020-11-17T10:20:08Z</time>
      </trkpt>
      <trkpt lat="28.6135830" lon="-17.8512420">
        <ele>1337.4</ele>
        <time>2020-11-17T10:20:09Z</time>
      </trkpt>
      <trkpt lat="28.6135270" lon="-17.8513270">
        <ele>1337.3</ele>
        <time>2020-11-17T10:20:10Z</time>
      </trkpt>
      <trkpt lat="28.6134920" lon="-17.8513650">
        <ele>1337.3</ele>
        <time>2020-11-17T10:20:11Z</time>
      </trkpt>
      <trkpt lat="28.6134920" lon="-17.8513650">
        <ele>1337.3</ele>
        <time>2020-11-17T10:20:12Z</time>
      </trkpt>
      <trkpt lat="28.6133980" lon="-17.8514220">
        <ele>1337.2</ele>
        <time>2020-11-17T10:20:13Z</time>
      </trkpt>
      <trkpt lat="28.6133980" lon="-17.8514220">
        <ele>1337.2</ele>
        <time>2020-11-17T10:20:14Z</time>
      </trkpt>
      <trkpt lat="28.6133000" lon="-17.8514750">
        <ele>1337.1</ele>
        <time>2020-11-17T10:20:15Z</time>
      </trkpt>
      <trkpt lat="28.6132500" lon="-17.8515020">
        <ele>1337.1</ele>
        <time>2020-11-17T10:20:16Z</time>
      </trkpt>
      <trkpt lat="28.6132000" lon="-17.8515270">
        <ele>1337.1</ele>
        <time>2020-11-17T10:20:17Z</time>
      </trkpt>
      <trkpt lat="28.6131480" lon="-17.8515570">
        <ele>1337.1</ele>
        <time>2020-11-17T10:20:18Z</time>
      </trkpt>
      <trkpt lat="28.6131480" lon="-17.8515570">
        <ele>1337.1</ele>
        <time>2020-11-17T10:20:19Z</time>
      </trkpt>
      <trkpt lat="28.6130650" lon="-17.8516320">
        <ele>1337.3</ele>
        <time>2020-11-17T10:20:20Z</time>
      </trkpt>
      <trkpt lat="28.6130320" lon="-17.8516680">
        <ele>1337.4</ele>
        <time>2020-11-17T10:20:21Z</time>
      </trkpt>
      <trkpt lat="28.6130320" lon="-17.8516680">
        <ele>1337.4</ele>
        <time>2020-11-17T10:20:22Z</time>
      </trkpt>
      <trkpt lat="28.6129600" lon="-17.8517070">
        <ele>1337.5</ele>
        <time>2020-11-17T10:20:23Z</time>
      </trkpt>
      <trkpt lat="28.6129230" lon="-17.8517180">
        <ele>1337.6</ele>
        <time>2020-11-17T10:20:24Z</time>
      </trkpt>
      <trkpt lat="28.6129230" lon="-17.8517180">
        <ele>1337.6</ele>
        <time>2020-11-17T10:20:25Z</time>
      </trkpt>
      <trkpt lat="28.6128470" lon="-17.8517400">
        <ele>1337.8</ele>
        <time>2020-11-17T10:20:26Z</time>
      </trkpt>
      <trkpt lat="28.6128470" lon="-17.8517400">
        <ele>1337.8</ele>
        <time>2020-11-17T10:20:27Z</time>
      </trkpt>
      <trkpt lat="28.6127750" lon="-17.8517470">
        <ele>1338.0</ele>
        <time>2020-11-17T10:20:28Z</time>
      </trkpt>
      <trkpt lat="28.6127520" lon="-17.8517580">
        <ele>1338.1</ele>
        <time>2020-11-17T10:20:29Z</time>
      </trkpt>
      <trkpt lat="28.6127270" lon="-17.8517700">
        <ele>1338.1</ele>
        <time>2020-11-17T10:20:30Z</time>
      </trkpt>
      <trkpt lat="28.6127270" lon="-17.8517700">
        <ele>1338.1</ele>
        <time>2020-11-17T10:20:31Z</time>
      </trkpt>
      <trkpt lat="28.6127000" lon="-17.8517950">
        <ele>1338.2</ele>
        <time>2020-11-17T10:20:32Z</time>
      </trkpt>
      <trkpt lat="28.6126930" lon="-17.8517970">
        <ele>1338.2</ele>
        <time>2020-11-17T10:20:33Z</time>
      </trkpt>
      <trkpt lat="28.6126930" lon="-17.8517970">
        <ele>1338.2</ele>
        <time>2020-11-17T10:20:34Z</time>
      </trkpt>
      <trkpt lat="28.6126920" lon="-17.8517980">
        <ele>1338.2</ele>
        <time>2020-11-17T10:20:35Z</time>
      </trkpt>
      <trkpt lat="28.6126900" lon="-17.8518000">
        <ele>1338.3</ele>
        <time>2020-11-17T10:20:36Z</time>
      </trkpt>
      <trkpt lat="28.6126900" lon="-17.8518000">
        <ele>1338.3</ele>
        <time>2020-11-17T10:22:04Z</time>
      </trkpt>
      <trkpt lat="28.6126220" lon="-17.8518580">
        <ele>1338.5</ele>
        <time>2020-11-17T10:22:05Z</time>
      </trkpt>
      <trkpt lat="28.6126220" lon="-17.8518580">
        <ele>1338.5</ele>
        <time>2020-11-17T10:22:06Z</time>
      </trkpt>
      <trkpt lat="28.6125850" lon="-17.8518820">
        <ele>1338.6</ele>
        <time>2020-11-17T10:22:07Z</time>
      </trkpt>
      <trkpt lat="28.6125850" lon="-17.8518820">
        <ele>1338.6</ele>
        <time>2020-11-17T10:22:08Z</time>
      </trkpt>
      <trkpt lat="28.6125500" lon="-17.8519080">
        <ele>1338.7</ele>
        <time>2020-11-17T10:22:09Z</time>
      </trkpt>
      <trkpt lat="28.6125500" lon="-17.8519080">
        <ele>1338.7</ele>
        <time>2020-11-17T10:22:10Z</time>
      </trkpt>
      <trkpt lat="28.6125080" lon="-17.8519420">
        <ele>1338.8</ele>
        <time>2020-11-17T10:22:11Z</time>
      </trkpt>
      <trkpt lat="28.6124880" lon="-17.8519650">
        <ele>1338.8</ele>
        <time>2020-11-17T10:22:12Z</time>
      </trkpt>
      <trkpt lat="28.6124880" lon="-17.8519650">
        <ele>1338.8</ele>
        <time>2020-11-17T10:22:13Z</time>
      </trkpt>
      <trkpt lat="28.6124530" lon="-17.8520030">
        <ele>1338.9</ele>
        <time>2020-11-17T10:22:14Z</time>
      </trkpt>
      <trkpt lat="28.6124530" lon="-17.8520030">
        <ele>1338.9</ele>
        <time>2020-11-17T10:22:15Z</time>
      </trkpt>
      <trkpt lat="28.6124280" lon="-17.8520380">
        <ele>1339.0</ele>
        <time>2020-11-17T10:22:16Z</time>
      </trkpt>
      <trkpt lat="28.6124280" lon="-17.8520380">
        <ele>1339.0</ele>
        <time>2020-11-17T10:22:17Z</time>
      </trkpt>
      <trkpt lat="28.6123930" lon="-17.8520950">
        <ele>1339.0</ele>
        <time>2020-11-17T10:22:18Z</time>
      </trkpt>
      <trkpt lat="28.6123730" lon="-17.8521230">
        <ele>1339.0</ele>
        <time>2020-11-17T10:22:19Z</time>
      </trkpt>
      <trkpt lat="28.6123730" lon="-17.8521230">
        <ele>1339.0</ele>
        <time>2020-11-17T10:22:20Z</time>
      </trkpt>
      <trkpt lat="28.6123250" lon="-17.8521820">
        <ele>1338.9</ele>
        <time>2020-11-17T10:22:21Z</time>
      </trkpt>
      <trkpt lat="28.6123250" lon="-17.8521820">
        <ele>1338.9</ele>
        <time>2020-11-17T10:22:22Z</time>
      </trkpt>
      <trkpt lat="28.6122780" lon="-17.8522400">
        <ele>1338.8</ele>
        <time>2020-11-17T10:22:23Z</time>
      </trkpt>
      <trkpt lat="28.6122530" lon="-17.8522700">
        <ele>1338.8</ele>
        <time>2020-11-17T10:22:24Z</time>
      </trkpt>
      <trkpt lat="28.6122530" lon="-17.8522700">
        <ele>1338.8</ele>
        <time>2020-11-17T10:22:25Z</time>
      </trkpt>
      <trkpt lat="28.6121950" lon="-17.8523180">
        <ele>1338.7</ele>
        <time>2020-11-17T10:22:26Z</time>
      </trkpt>
      <trkpt lat="28.6121600" lon="-17.8523300">
        <ele>1338.6</ele>
        <time>2020-11-17T10:22:27Z</time>
      </trkpt>
      <trkpt lat="28.6121600" lon="-17.8523300">
        <ele>1338.6</ele>
        <time>2020-11-17T10:22:28Z</time>
      </trkpt>
      <trkpt lat="28.6120950" lon="-17.8523570">
        <ele>1338.6</ele>
        <time>2020-11-17T10:22:29Z</time>
      </trkpt>
      <trkpt lat="28.6120570" lon="-17.8523600">
        <ele>1338.7</ele>
        <time>2020-11-17T10:22:30Z</time>
      </trkpt>
      <trkpt lat="28.6120570" lon="-17.8523600">
        <ele>1338.7</ele>
        <time>2020-11-17T10:22:31Z</time>
      </trkpt>
      <trkpt lat="28.6119930" lon="-17.8523900">
        <ele>1338.8</ele>
        <time>2020-11-17T10:22:32Z</time>
      </trkpt>
      <trkpt lat="28.6119930" lon="-17.8523900">
        <ele>1338.8</ele>
        <time>2020-11-17T10:22:33Z</time>
      </trkpt>
      <trkpt lat="28.6119320" lon="-17.8524180">
        <ele>1339.0</ele>
        <time>2020-11-17T10:22:34Z</time>
      </trkpt>
      <trkpt lat="28.6119030" lon="-17.8524230">
        <ele>1339.1</ele>
        <time>2020-11-17T10:22:35Z</time>
      </trkpt>
      <trkpt lat="28.6119030" lon="-17.8524230">
        <ele>1339.1</ele>
        <time>2020-11-17T10:22:36Z</time>
      </trkpt>
      <trkpt lat="28.6118570" lon="-17.8524220">
        <ele>1339.3</ele>
        <time>2020-11-17T10:22:37Z</time>
      </trkpt>
      <trkpt lat="28.6118570" lon="-17.8524220">
        <ele>1339.3</ele>
        <time>2020-11-17T10:22:38Z</time>
      </trkpt>
      <trkpt lat="28.6118170" lon="-17.8524270">
        <ele>1339.5</ele>
        <time>2020-11-17T10:22:39Z</time>
      </trkpt>
      <trkpt lat="28.6117980" lon="-17.8524220">
        <ele>1339.5</ele>
        <time>2020-11-17T10:22:40Z</time>
      </trkpt>
      <trkpt lat="28.6117770" lon="-17.8524230">
        <ele>1339.6</ele>
        <time>2020-11-17T10:22:41Z</time>
      </trkpt>
      <trkpt lat="28.6117770" lon="-17.8524230">
        <ele>1339.6</ele>
        <time>2020-11-17T10:22:42Z</time>
      </trkpt>
      <trkpt lat="28.6117420" lon="-17.8524180">
        <ele>1339.8</ele>
        <time>2020-11-17T10:22:43Z</time>
      </trkpt>
      <trkpt lat="28.6117250" lon="-17.8524120">
        <ele>1339.9</ele>
        <time>2020-11-17T10:22:44Z</time>
      </trkpt>
      <trkpt lat="28.6117250" lon="-17.8524120">
        <ele>1339.9</ele>
        <time>2020-11-17T10:22:45Z</time>
      </trkpt>
      <trkpt lat="28.6116850" lon="-17.8524080">
        <ele>1340.1</ele>
        <time>2020-11-17T10:22:46Z</time>
      </trkpt>
      <trkpt lat="28.6116850" lon="-17.8524080">
        <ele>1340.1</ele>
        <time>2020-11-17T10:22:47Z</time>
      </trkpt>
      <trkpt lat="28.6116500" lon="-17.8523970">
        <ele>1340.2</ele>
        <time>2020-11-17T10:22:48Z</time>
      </trkpt>
      <trkpt lat="28.6116500" lon="-17.8523970">
        <ele>1340.2</ele>
        <time>2020-11-17T10:22:49Z</time>
      </trkpt>
      <trkpt lat="28.6116120" lon="-17.8523880">
        <ele>1340.4</ele>
        <time>2020-11-17T10:22:50Z</time>
      </trkpt>
      <trkpt lat="28.6115930" lon="-17.8523830">
        <ele>1340.5</ele>
        <time>2020-11-17T10:22:51Z</time>
      </trkpt>
      <trkpt lat="28.6115800" lon="-17.8523830">
        <ele>1340.6</ele>
        <time>2020-11-17T10:22:52Z</time>
      </trkpt>
      <trkpt lat="28.6115800" lon="-17.8523830">
        <ele>1340.6</ele>
        <time>2020-11-17T10:22:53Z</time>
      </trkpt>
      <trkpt lat="28.6115350" lon="-17.8523770">
        <ele>1340.8</ele>
        <time>2020-11-17T10:22:54Z</time>
      </trkpt>
      <trkpt lat="28.6115350" lon="-17.8523770">
        <ele>1340.8</ele>
        <time>2020-11-17T10:22:55Z</time>
      </trkpt>
      <trkpt lat="28.6114930" lon="-17.8523750">
        <ele>1341.0</ele>
        <time>2020-11-17T10:22:56Z</time>
      </trkpt>
      <trkpt lat="28.6114720" lon="-17.8523670">
        <ele>1341.1</ele>
        <time>2020-11-17T10:22:57Z</time>
      </trkpt>
      <trkpt lat="28.6114720" lon="-17.8523670">
        <ele>1341.1</ele>
        <time>2020-11-17T10:22:58Z</time>
      </trkpt>
      <trkpt lat="28.6114330" lon="-17.8523580">
        <ele>1341.4</ele>
        <time>2020-11-17T10:22:59Z</time>
      </trkpt>
      <trkpt lat="28.6114120" lon="-17.8523580">
        <ele>1341.5</ele>
        <time>2020-11-17T10:23:00Z</time>
      </trkpt>
      <trkpt lat="28.6114120" lon="-17.8523580">
        <ele>1341.5</ele>
        <time>2020-11-17T10:23:01Z</time>
      </trkpt>
      <trkpt lat="28.6113770" lon="-17.8523630">
        <ele>1341.7</ele>
        <time>2020-11-17T10:23:02Z</time>
      </trkpt>
      <trkpt lat="28.6113770" lon="-17.8523630">
        <ele>1341.7</ele>
        <time>2020-11-17T10:23:03Z</time>
      </trkpt>
      <trkpt lat="28.6113530" lon="-17.8523550">
        <ele>1341.9</ele>
        <time>2020-11-17T10:23:04Z</time>
      </trkpt>
      <trkpt lat="28.6113530" lon="-17.8523550">
        <ele>1341.9</ele>
        <time>2020-11-17T10:23:05Z</time>
      </trkpt>
      <trkpt lat="28.6113250" lon="-17.8523470">
        <ele>1342.1</ele>
        <time>2020-11-17T10:23:06Z</time>
      </trkpt>
      <trkpt lat="28.6113020" lon="-17.8523270">
        <ele>1342.4</ele>
        <time>2020-11-17T10:23:07Z</time>
      </trkpt>
      <trkpt lat="28.6113020" lon="-17.8523270">
        <ele>1342.4</ele>
        <time>2020-11-17T10:23:08Z</time>
      </trkpt>
      <trkpt lat="28.6112630" lon="-17.8523220">
        <ele>1342.7</ele>
        <time>2020-11-17T10:23:09Z</time>
      </trkpt>
      <trkpt lat="28.6112630" lon="-17.8523220">
        <ele>1342.7</ele>
        <time>2020-11-17T10:23:10Z</time>
      </trkpt>
      <trkpt lat="28.6112180" lon="-17.8523020">
        <ele>1343.1</ele>
        <time>2020-11-17T10:23:11Z</time>
      </trkpt>
      <trkpt lat="28.6111980" lon="-17.8522880">
        <ele>1343.3</ele>
        <time>2020-11-17T10:23:12Z</time>
      </trkpt>
      <trkpt lat="28.6111980" lon="-17.8522880">
        <ele>1343.3</ele>
        <time>2020-11-17T10:23:13Z</time>
      </trkpt>
      <trkpt lat="28.6111620" lon="-17.8522750">
        <ele>1343.6</ele>
        <time>2020-11-17T10:23:14Z</time>
      </trkpt>
      <trkpt lat="28.6111400" lon="-17.8522730">
        <ele>1343.9</ele>
        <time>2020-11-17T10:23:15Z</time>
      </trkpt>
      <trkpt lat="28.6111400" lon="-17.8522730">
        <ele>1343.9</ele>
        <time>2020-11-17T10:23:16Z</time>
      </trkpt>
      <trkpt lat="28.6111050" lon="-17.8522670">
        <ele>1344.2</ele>
        <time>2020-11-17T10:23:17Z</time>
      </trkpt>
      <trkpt lat="28.6110920" lon="-17.8522600">
        <ele>1344.4</ele>
        <time>2020-11-17T10:23:18Z</time>
      </trkpt>
      <trkpt lat="28.6110920" lon="-17.8522600">
        <ele>1344.4</ele>
        <time>2020-11-17T10:23:19Z</time>
      </trkpt>
      <trkpt lat="28.6110770" lon="-17.8522600">
        <ele>1344.5</ele>
        <time>2020-11-17T10:23:20Z</time>
      </trkpt>
      <trkpt lat="28.6110770" lon="-17.8522600">
        <ele>1344.5</ele>
        <time>2020-11-17T10:23:21Z</time>
      </trkpt>
      <trkpt lat="28.6109800" lon="-17.8522130">
        <ele>1345.7</ele>
        <time>2020-11-17T10:24:04Z</time>
      </trkpt>
      <trkpt lat="28.6109800" lon="-17.8522130">
        <ele>1345.7</ele>
        <time>2020-11-17T10:24:05Z</time>
      </trkpt>
      <trkpt lat="28.6109620" lon="-17.8522020">
        <ele>1345.9</ele>
        <time>2020-11-17T10:24:06Z</time>
      </trkpt>
      <trkpt lat="28.6109620" lon="-17.8522020">
        <ele>1345.9</ele>
        <time>2020-11-17T10:24:07Z</time>
      </trkpt>
      <trkpt lat="28.6109480" lon="-17.8522000">
        <ele>1346.1</ele>
        <time>2020-11-17T10:24:08Z</time>
      </trkpt>
      <trkpt lat="28.6109480" lon="-17.8522000">
        <ele>1346.1</ele>
        <time>2020-11-17T10:24:09Z</time>
      </trkpt>
      <trkpt lat="28.6109230" lon="-17.8521920">
        <ele>1346.4</ele>
        <time>2020-11-17T10:24:10Z</time>
      </trkpt>
      <trkpt lat="28.6109080" lon="-17.8521830">
        <ele>1346.5</ele>
        <time>2020-11-17T10:24:11Z</time>
      </trkpt>
      <trkpt lat="28.6109080" lon="-17.8521830">
        <ele>1346.5</ele>
        <time>2020-11-17T10:24:12Z</time>
      </trkpt>
      <trkpt lat="28.6108770" lon="-17.8521630">
        <ele>1346.9</ele>
        <time>2020-11-17T10:24:13Z</time>
      </trkpt>
      <trkpt lat="28.6108620" lon="-17.8521520">
        <ele>1347.1</ele>
        <time>2020-11-17T10:24:14Z</time>
      </trkpt>
      <trkpt lat="28.6108620" lon="-17.8521520">
        <ele>1347.1</ele>
        <time>2020-11-17T10:24:15Z</time>
      </trkpt>
      <trkpt lat="28.6108430" lon="-17.8521180">
        <ele>1347.5</ele>
        <time>2020-11-17T10:24:16Z</time>
      </trkpt>
      <trkpt lat="28.6108330" lon="-17.8521050">
        <ele>1347.6</ele>
        <time>2020-11-17T10:24:17Z</time>
      </trkpt>
      <trkpt lat="28.6108330" lon="-17.8521050">
        <ele>1347.6</ele>
        <time>2020-11-17T10:24:18Z</time>
      </trkpt>
      <trkpt lat="28.6108120" lon="-17.8520730">
        <ele>1348.0</ele>
        <time>2020-11-17T10:24:19Z</time>
      </trkpt>
      <trkpt lat="28.6108120" lon="-17.8520730">
        <ele>1348.0</ele>
        <time>2020-11-17T10:24:20Z</time>
      </trkpt>
      <trkpt lat="28.6107880" lon="-17.8520430">
        <ele>1348.3</ele>
        <time>2020-11-17T10:24:21Z</time>
      </trkpt>
      <trkpt lat="28.6107800" lon="-17.8520280">
        <ele>1348.5</ele>
        <time>2020-11-17T10:24:22Z</time>
      </trkpt>
      <trkpt lat="28.6107800" lon="-17.8520280">
        <ele>1348.5</ele>
        <time>2020-11-17T10:24:23Z</time>
      </trkpt>
      <trkpt lat="28.6107630" lon="-17.8519900">
        <ele>1348.9</ele>
        <time>2020-11-17T10:24:24Z</time>
      </trkpt>
      <trkpt lat="28.6107630" lon="-17.8519900">
        <ele>1348.9</ele>
        <time>2020-11-17T10:24:25Z</time>
      </trkpt>
      <trkpt lat="28.6107420" lon="-17.8519600">
        <ele>1349.2</ele>
        <time>2020-11-17T10:24:26Z</time>
      </trkpt>
      <trkpt lat="28.6107320" lon="-17.8519430">
        <ele>1349.3</ele>
        <time>2020-11-17T10:24:27Z</time>
      </trkpt>
      <trkpt lat="28.6107320" lon="-17.8519430">
        <ele>1349.3</ele>
        <time>2020-11-17T10:24:28Z</time>
      </trkpt>
      <trkpt lat="28.6107100" lon="-17.8519130">
        <ele>1349.6</ele>
        <time>2020-11-17T10:24:29Z</time>
      </trkpt>
      <trkpt lat="28.6107000" lon="-17.8519020">
        <ele>1349.7</ele>
        <time>2020-11-17T10:24:30Z</time>
      </trkpt>
      <trkpt lat="28.6107000" lon="-17.8519020">
        <ele>1349.7</ele>
        <time>2020-11-17T10:24:31Z</time>
      </trkpt>
      <trkpt lat="28.6106720" lon="-17.8518700">
        <ele>1350.1</ele>
        <time>2020-11-17T10:24:32Z</time>
      </trkpt>
      <trkpt lat="28.6106600" lon="-17.8518530">
        <ele>1350.2</ele>
        <time>2020-11-17T10:24:33Z</time>
      </trkpt>
      <trkpt lat="28.6106600" lon="-17.8518530">
        <ele>1350.2</ele>
        <time>2020-11-17T10:24:34Z</time>
      </trkpt>
      <trkpt lat="28.6106350" lon="-17.8518200">
        <ele>1350.5</ele>
        <time>2020-11-17T10:24:35Z</time>
      </trkpt>
      <trkpt lat="28.6106230" lon="-17.8518020">
        <ele>1350.6</ele>
        <time>2020-11-17T10:24:36Z</time>
      </trkpt>
      <trkpt lat="28.6106230" lon="-17.8518020">
        <ele>1350.6</ele>
        <time>2020-11-17T10:24:37Z</time>
      </trkpt>
      <trkpt lat="28.6106020" lon="-17.8517650">
        <ele>1350.9</ele>
        <time>2020-11-17T10:24:38Z</time>
      </trkpt>
      <trkpt lat="28.6106020" lon="-17.8517650">
        <ele>1350.9</ele>
        <time>2020-11-17T10:24:39Z</time>
      </trkpt>
      <trkpt lat="28.6105770" lon="-17.8517450">
        <ele>1351.0</ele>
        <time>2020-11-17T10:24:40Z</time>
      </trkpt>
      <trkpt lat="28.6105770" lon="-17.8517450">
        <ele>1351.0</ele>
        <time>2020-11-17T10:24:41Z</time>
      </trkpt>
      <trkpt lat="28.6105500" lon="-17.8516980">
        <ele>1351.3</ele>
        <time>2020-11-17T10:24:42Z</time>
      </trkpt>
      <trkpt lat="28.6105500" lon="-17.8516980">
        <ele>1351.3</ele>
        <time>2020-11-17T10:24:43Z</time>
      </trkpt>
      <trkpt lat="28.6105220" lon="-17.8516480">
        <ele>1351.4</ele>
        <time>2020-11-17T10:24:44Z</time>
      </trkpt>
      <trkpt lat="28.6105070" lon="-17.8516270">
        <ele>1351.5</ele>
        <time>2020-11-17T10:24:45Z</time>
      </trkpt>
      <trkpt lat="28.6105070" lon="-17.8516270">
        <ele>1351.5</ele>
        <time>2020-11-17T10:24:46Z</time>
      </trkpt>
      <trkpt lat="28.6104700" lon="-17.8515780">
        <ele>1351.6</ele>
        <time>2020-11-17T10:24:47Z</time>
      </trkpt>
      <trkpt lat="28.6104520" lon="-17.8515600">
        <ele>1351.6</ele>
        <time>2020-11-17T10:24:48Z</time>
      </trkpt>
      <trkpt lat="28.6104520" lon="-17.8515600">
        <ele>1351.6</ele>
        <time>2020-11-17T10:24:49Z</time>
      </trkpt>
      <trkpt lat="28.6104050" lon="-17.8515280">
        <ele>1351.6</ele>
        <time>2020-11-17T10:24:50Z</time>
      </trkpt>
      <trkpt lat="28.6104050" lon="-17.8515280">
        <ele>1351.6</ele>
        <time>2020-11-17T10:24:51Z</time>
      </trkpt>
      <trkpt lat="28.6103500" lon="-17.8515030">
        <ele>1351.6</ele>
        <time>2020-11-17T10:24:52Z</time>
      </trkpt>
      <trkpt lat="28.6103500" lon="-17.8515030">
        <ele>1351.6</ele>
        <time>2020-11-17T10:24:53Z</time>
      </trkpt>
      <trkpt lat="28.6102880" lon="-17.8515080">
        <ele>1351.6</ele>
        <time>2020-11-17T10:24:54Z</time>
      </trkpt>
      <trkpt lat="28.6102880" lon="-17.8515080">
        <ele>1351.6</ele>
        <time>2020-11-17T10:24:55Z</time>
      </trkpt>
      <trkpt lat="28.6102200" lon="-17.8515250">
        <ele>1351.4</ele>
        <time>2020-11-17T10:24:56Z</time>
      </trkpt>
      <trkpt lat="28.6102200" lon="-17.8515250">
        <ele>1351.4</ele>
        <time>2020-11-17T10:24:57Z</time>
      </trkpt>
      <trkpt lat="28.6101430" lon="-17.8515600">
        <ele>1351.3</ele>
        <time>2020-11-17T10:24:58Z</time>
      </trkpt>
      <trkpt lat="28.6101430" lon="-17.8515600">
        <ele>1351.3</ele>
        <time>2020-11-17T10:24:59Z</time>
      </trkpt>
      <trkpt lat="28.6100650" lon="-17.8516200">
        <ele>1351.1</ele>
        <time>2020-11-17T10:25:00Z</time>
      </trkpt>
      <trkpt lat="28.6100650" lon="-17.8516200">
        <ele>1351.1</ele>
        <time>2020-11-17T10:25:01Z</time>
      </trkpt>
      <trkpt lat="28.6099980" lon="-17.8516900">
        <ele>1351.0</ele>
        <time>2020-11-17T10:25:02Z</time>
      </trkpt>
      <trkpt lat="28.6099980" lon="-17.8516900">
        <ele>1351.0</ele>
        <time>2020-11-17T10:25:03Z</time>
      </trkpt>
      <trkpt lat="28.6099270" lon="-17.8517570">
        <ele>1351.0</ele>
        <time>2020-11-17T10:25:04Z</time>
      </trkpt>
      <trkpt lat="28.6099000" lon="-17.8517920">
        <ele>1351.0</ele>
        <time>2020-11-17T10:25:05Z</time>
      </trkpt>
      <trkpt lat="28.6099000" lon="-17.8517920">
        <ele>1351.0</ele>
        <time>2020-11-17T10:25:06Z</time>
      </trkpt>
      <trkpt lat="28.6098430" lon="-17.8518630">
        <ele>1351.1</ele>
        <time>2020-11-17T10:25:07Z</time>
      </trkpt>
      <trkpt lat="28.6098250" lon="-17.8519030">
        <ele>1351.1</ele>
        <time>2020-11-17T10:25:08Z</time>
      </trkpt>
      <trkpt lat="28.6098250" lon="-17.8519030">
        <ele>1351.1</ele>
        <time>2020-11-17T10:25:09Z</time>
      </trkpt>
      <trkpt lat="28.6097420" lon="-17.8520380">
        <ele>1351.0</ele>
        <time>2020-11-17T10:25:10Z</time>
      </trkpt>
      <trkpt lat="28.6097180" lon="-17.8521020">
        <ele>1350.8</ele>
        <time>2020-11-17T10:25:11Z</time>
      </trkpt>
      <trkpt lat="28.6097180" lon="-17.8521020">
        <ele>1350.8</ele>
        <time>2020-11-17T10:25:12Z</time>
      </trkpt>
      <trkpt lat="28.6096530" lon="-17.8522170">
        <ele>1350.3</ele>
        <time>2020-11-17T10:25:13Z</time>
      </trkpt>
      <trkpt lat="28.6096530" lon="-17.8522170">
        <ele>1350.3</ele>
        <time>2020-11-17T10:25:14Z</time>
      </trkpt>
      <trkpt lat="28.6095870" lon="-17.8523480">
        <ele>1349.4</ele>
        <time>2020-11-17T10:25:15Z</time>
      </trkpt>
      <trkpt lat="28.6095870" lon="-17.8523480">
        <ele>1349.4</ele>
        <time>2020-11-17T10:25:16Z</time>
      </trkpt>
      <trkpt lat="28.6095050" lon="-17.8524930">
        <ele>1348.2</ele>
        <time>2020-11-17T10:25:17Z</time>
      </trkpt>
      <trkpt lat="28.6095050" lon="-17.8524930">
        <ele>1348.2</ele>
        <time>2020-11-17T10:25:18Z</time>
      </trkpt>
      <trkpt lat="28.6094120" lon="-17.8526480">
        <ele>1347.0</ele>
        <time>2020-11-17T10:25:19Z</time>
      </trkpt>
      <trkpt lat="28.6093680" lon="-17.8527220">
        <ele>1346.6</ele>
        <time>2020-11-17T10:25:20Z</time>
      </trkpt>
      <trkpt lat="28.6093680" lon="-17.8527220">
        <ele>1346.6</ele>
        <time>2020-11-17T10:25:21Z</time>
      </trkpt>
      <trkpt lat="28.6092970" lon="-17.8528950">
        <ele>1345.6</ele>
        <time>2020-11-17T10:25:22Z</time>
      </trkpt>
      <trkpt lat="28.6092650" lon="-17.8529900">
        <ele>1345.1</ele>
        <time>2020-11-17T10:25:23Z</time>
      </trkpt>
      <trkpt lat="28.6092380" lon="-17.8531030">
        <ele>1344.5</ele>
        <time>2020-11-17T10:25:24Z</time>
      </trkpt>
      <trkpt lat="28.6092380" lon="-17.8531030">
        <ele>1344.5</ele>
        <time>2020-11-17T10:25:25Z</time>
      </trkpt>
      <trkpt lat="28.6091920" lon="-17.8532950">
        <ele>1343.7</ele>
        <time>2020-11-17T10:25:26Z</time>
      </trkpt>
      <trkpt lat="28.6091920" lon="-17.8532950">
        <ele>1343.7</ele>
        <time>2020-11-17T10:25:27Z</time>
      </trkpt>
      <trkpt lat="28.6091320" lon="-17.8534350">
        <ele>1343.3</ele>
        <time>2020-11-17T10:25:28Z</time>
      </trkpt>
      <trkpt lat="28.6091320" lon="-17.8534350">
        <ele>1343.3</ele>
        <time>2020-11-17T10:25:29Z</time>
      </trkpt>
      <trkpt lat="28.6090530" lon="-17.8535550">
        <ele>1343.2</ele>
        <time>2020-11-17T10:25:30Z</time>
      </trkpt>
      <trkpt lat="28.6090530" lon="-17.8535550">
        <ele>1343.2</ele>
        <time>2020-11-17T10:25:31Z</time>
      </trkpt>
      <trkpt lat="28.6089470" lon="-17.8536500">
        <ele>1343.1</ele>
        <time>2020-11-17T10:25:32Z</time>
      </trkpt>
      <trkpt lat="28.6088880" lon="-17.8536670">
        <ele>1343.1</ele>
        <time>2020-11-17T10:25:33Z</time>
      </trkpt>
      <trkpt lat="28.6088880" lon="-17.8536670">
        <ele>1343.1</ele>
        <time>2020-11-17T10:25:34Z</time>
      </trkpt>
      <trkpt lat="28.6087570" lon="-17.8536850">
        <ele>1343.1</ele>
        <time>2020-11-17T10:25:35Z</time>
      </trkpt>
      <trkpt lat="28.6086950" lon="-17.8537050">
        <ele>1343.2</ele>
        <time>2020-11-17T10:25:36Z</time>
      </trkpt>
      <trkpt lat="28.6086950" lon="-17.8537050">
        <ele>1343.2</ele>
        <time>2020-11-17T10:25:37Z</time>
      </trkpt>
      <trkpt lat="28.6086350" lon="-17.8537280">
        <ele>1343.3</ele>
        <time>2020-11-17T10:25:38Z</time>
      </trkpt>
      <trkpt lat="28.6085220" lon="-17.8538020">
        <ele>1343.1</ele>
        <time>2020-11-17T10:25:39Z</time>
      </trkpt>
      <trkpt lat="28.6085220" lon="-17.8538020">
        <ele>1343.1</ele>
        <time>2020-11-17T10:25:40Z</time>
      </trkpt>
      <trkpt lat="28.6083950" lon="-17.8538680">
        <ele>1342.9</ele>
        <time>2020-11-17T10:25:41Z</time>
      </trkpt>
      <trkpt lat="28.6083320" lon="-17.8538820">
        <ele>1342.7</ele>
        <time>2020-11-17T10:25:42Z</time>
      </trkpt>
      <trkpt lat="28.6083320" lon="-17.8538820">
        <ele>1342.7</ele>
        <time>2020-11-17T10:25:43Z</time>
      </trkpt>
      <trkpt lat="28.6082170" lon="-17.8538430">
        <ele>1342.3</ele>
        <time>2020-11-17T10:25:44Z</time>
      </trkpt>
      <trkpt lat="28.6081570" lon="-17.8538250">
        <ele>1342.1</ele>
        <time>2020-11-17T10:25:45Z</time>
      </trkpt>
      <trkpt lat="28.6081570" lon="-17.8538250">
        <ele>1342.1</ele>
        <time>2020-11-17T10:25:46Z</time>
      </trkpt>
      <trkpt lat="28.6080250" lon="-17.8538100">
        <ele>1341.8</ele>
        <time>2020-11-17T10:25:47Z</time>
      </trkpt>
      <trkpt lat="28.6080250" lon="-17.8538100">
        <ele>1341.8</ele>
        <time>2020-11-17T10:25:48Z</time>
      </trkpt>
      <trkpt lat="28.6079200" lon="-17.8538500">
        <ele>1341.5</ele>
        <time>2020-11-17T10:25:49Z</time>
      </trkpt>
      <trkpt lat="28.6079200" lon="-17.8538500">
        <ele>1341.5</ele>
        <time>2020-11-17T10:25:50Z</time>
      </trkpt>
      <trkpt lat="28.6078130" lon="-17.8539020">
        <ele>1341.2</ele>
        <time>2020-11-17T10:25:51Z</time>
      </trkpt>
      <trkpt lat="28.6078130" lon="-17.8539020">
        <ele>1341.2</ele>
        <time>2020-11-17T10:25:52Z</time>
      </trkpt>
      <trkpt lat="28.6076920" lon="-17.8539550">
        <ele>1340.8</ele>
        <time>2020-11-17T10:25:53Z</time>
      </trkpt>
      <trkpt lat="28.6076920" lon="-17.8539550">
        <ele>1340.8</ele>
        <time>2020-11-17T10:25:54Z</time>
      </trkpt>
      <trkpt lat="28.6075630" lon="-17.8539950">
        <ele>1340.4</ele>
        <time>2020-11-17T10:25:55Z</time>
      </trkpt>
      <trkpt lat="28.6075630" lon="-17.8539950">
        <ele>1340.4</ele>
        <time>2020-11-17T10:25:56Z</time>
      </trkpt>
      <trkpt lat="28.6074380" lon="-17.8540370">
        <ele>1340.0</ele>
        <time>2020-11-17T10:25:57Z</time>
      </trkpt>
      <trkpt lat="28.6073750" lon="-17.8540570">
        <ele>1339.8</ele>
        <time>2020-11-17T10:25:58Z</time>
      </trkpt>
      <trkpt lat="28.6073750" lon="-17.8540570">
        <ele>1339.8</ele>
        <time>2020-11-17T10:25:59Z</time>
      </trkpt>
      <trkpt lat="28.6072520" lon="-17.8540820">
        <ele>1339.5</ele>
        <time>2020-11-17T10:26:00Z</time>
      </trkpt>
      <trkpt lat="28.6072520" lon="-17.8540820">
        <ele>1339.5</ele>
        <time>2020-11-17T10:26:01Z</time>
      </trkpt>
      <trkpt lat="28.6071330" lon="-17.8541320">
        <ele>1339.3</ele>
        <time>2020-11-17T10:26:02Z</time>
      </trkpt>
      <trkpt lat="28.6070700" lon="-17.8541480">
        <ele>1339.2</ele>
        <time>2020-11-17T10:26:03Z</time>
      </trkpt>
      <trkpt lat="28.6070700" lon="-17.8541480">
        <ele>1339.2</ele>
        <time>2020-11-17T10:26:04Z</time>
      </trkpt>
      <trkpt lat="28.6069300" lon="-17.8541750">
        <ele>1339.1</ele>
        <time>2020-11-17T10:26:05Z</time>
      </trkpt>
      <trkpt lat="28.6069300" lon="-17.8541750">
        <ele>1339.1</ele>
        <time>2020-11-17T10:26:06Z</time>
      </trkpt>
      <trkpt lat="28.6067920" lon="-17.8542180">
        <ele>1339.1</ele>
        <time>2020-11-17T10:26:07Z</time>
      </trkpt>
      <trkpt lat="28.6067920" lon="-17.8542180">
        <ele>1339.1</ele>
        <time>2020-11-17T10:26:08Z</time>
      </trkpt>
      <trkpt lat="28.6066700" lon="-17.8542720">
        <ele>1339.2</ele>
        <time>2020-11-17T10:26:09Z</time>
      </trkpt>
      <trkpt lat="28.6066700" lon="-17.8542720">
        <ele>1339.2</ele>
        <time>2020-11-17T10:26:10Z</time>
      </trkpt>
      <trkpt lat="28.6065480" lon="-17.8542950">
        <ele>1339.4</ele>
        <time>2020-11-17T10:26:11Z</time>
      </trkpt>
      <trkpt lat="28.6064930" lon="-17.8543020">
        <ele>1339.5</ele>
        <time>2020-11-17T10:26:12Z</time>
      </trkpt>
      <trkpt lat="28.6064930" lon="-17.8543020">
        <ele>1339.5</ele>
        <time>2020-11-17T10:26:13Z</time>
      </trkpt>
      <trkpt lat="28.6063770" lon="-17.8543150">
        <ele>1339.7</ele>
        <time>2020-11-17T10:26:14Z</time>
      </trkpt>
      <trkpt lat="28.6063770" lon="-17.8543150">
        <ele>1339.7</ele>
        <time>2020-11-17T10:26:15Z</time>
      </trkpt>
      <trkpt lat="28.6062620" lon="-17.8543100">
        <ele>1339.8</ele>
        <time>2020-11-17T10:26:16Z</time>
      </trkpt>
      <trkpt lat="28.6062620" lon="-17.8543100">
        <ele>1339.8</ele>
        <time>2020-11-17T10:26:17Z</time>
      </trkpt>
      <trkpt lat="28.6061580" lon="-17.8542770">
        <ele>1340.0</ele>
        <time>2020-11-17T10:26:18Z</time>
      </trkpt>
      <trkpt lat="28.6061070" lon="-17.8542570">
        <ele>1340.1</ele>
        <time>2020-11-17T10:26:19Z</time>
      </trkpt>
      <trkpt lat="28.6061070" lon="-17.8542570">
        <ele>1340.1</ele>
        <time>2020-11-17T10:26:20Z</time>
      </trkpt>
      <trkpt lat="28.6060000" lon="-17.8542420">
        <ele>1340.3</ele>
        <time>2020-11-17T10:26:21Z</time>
      </trkpt>
      <trkpt lat="28.6060000" lon="-17.8542420">
        <ele>1340.3</ele>
        <time>2020-11-17T10:26:22Z</time>
      </trkpt>
      <trkpt lat="28.6058870" lon="-17.8542600">
        <ele>1340.4</ele>
        <time>2020-11-17T10:26:23Z</time>
      </trkpt>
      <trkpt lat="28.6058230" lon="-17.8542700">
        <ele>1340.4</ele>
        <time>2020-11-17T10:26:24Z</time>
      </trkpt>
      <trkpt lat="28.6057630" lon="-17.8542770">
        <ele>1340.4</ele>
        <time>2020-11-17T10:26:25Z</time>
      </trkpt>
      <trkpt lat="28.6057630" lon="-17.8542770">
        <ele>1340.4</ele>
        <time>2020-11-17T10:26:26Z</time>
      </trkpt>
      <trkpt lat="28.6056520" lon="-17.8542670">
        <ele>1340.5</ele>
        <time>2020-11-17T10:26:27Z</time>
      </trkpt>
      <trkpt lat="28.6056520" lon="-17.8542670">
        <ele>1340.5</ele>
        <time>2020-11-17T10:26:28Z</time>
      </trkpt>
      <trkpt lat="28.6055400" lon="-17.8542450">
        <ele>1340.5</ele>
        <time>2020-11-17T10:26:29Z</time>
      </trkpt>
      <trkpt lat="28.6054880" lon="-17.8542350">
        <ele>1340.5</ele>
        <time>2020-11-17T10:26:30Z</time>
      </trkpt>
      <trkpt lat="28.6054880" lon="-17.8542350">
        <ele>1340.5</ele>
        <time>2020-11-17T10:26:31Z</time>
      </trkpt>
      <trkpt lat="28.6053870" lon="-17.8542250">
        <ele>1340.5</ele>
        <time>2020-11-17T10:26:32Z</time>
      </trkpt>
      <trkpt lat="28.6053870" lon="-17.8542250">
        <ele>1340.5</ele>
        <time>2020-11-17T10:26:33Z</time>
      </trkpt>
      <trkpt lat="28.6052780" lon="-17.8542130">
        <ele>1340.3</ele>
        <time>2020-11-17T10:26:34Z</time>
      </trkpt>
      <trkpt lat="28.6052780" lon="-17.8542130">
        <ele>1340.3</ele>
        <time>2020-11-17T10:26:35Z</time>
      </trkpt>
      <trkpt lat="28.6051680" lon="-17.8541870">
        <ele>1340.2</ele>
        <time>2020-11-17T10:26:36Z</time>
      </trkpt>
      <trkpt lat="28.6051680" lon="-17.8541870">
        <ele>1340.2</ele>
        <time>2020-11-17T10:26:37Z</time>
      </trkpt>
      <trkpt lat="28.6050600" lon="-17.8541420">
        <ele>1340.1</ele>
        <time>2020-11-17T10:26:38Z</time>
      </trkpt>
      <trkpt lat="28.6050120" lon="-17.8541220">
        <ele>1340.0</ele>
        <time>2020-11-17T10:26:39Z</time>
      </trkpt>
      <trkpt lat="28.6050120" lon="-17.8541220">
        <ele>1340.0</ele>
        <time>2020-11-17T10:26:40Z</time>
      </trkpt>
      <trkpt lat="28.6049080" lon="-17.8540930">
        <ele>1339.9</ele>
        <time>2020-11-17T10:26:41Z</time>
      </trkpt>
      <trkpt lat="28.6049080" lon="-17.8540930">
        <ele>1339.9</ele>
        <time>2020-11-17T10:26:42Z</time>
      </trkpt>
      <trkpt lat="28.6047950" lon="-17.8540530">
        <ele>1339.6</ele>
        <time>2020-11-17T10:26:43Z</time>
      </trkpt>
      <trkpt lat="28.6047950" lon="-17.8540530">
        <ele>1339.6</ele>
        <time>2020-11-17T10:26:44Z</time>
      </trkpt>
      <trkpt lat="28.6046750" lon="-17.8539950">
        <ele>1339.4</ele>
        <time>2020-11-17T10:26:45Z</time>
      </trkpt>
      <trkpt lat="28.6046150" lon="-17.8539720">
        <ele>1339.3</ele>
        <time>2020-11-17T10:26:46Z</time>
      </trkpt>
      <trkpt lat="28.6046150" lon="-17.8539720">
        <ele>1339.3</ele>
        <time>2020-11-17T10:26:47Z</time>
      </trkpt>
      <trkpt lat="28.6045000" lon="-17.8539230">
        <ele>1339.2</ele>
        <time>2020-11-17T10:26:48Z</time>
      </trkpt>
      <trkpt lat="28.6045000" lon="-17.8539230">
        <ele>1339.2</ele>
        <time>2020-11-17T10:26:49Z</time>
      </trkpt>
      <trkpt lat="28.6043900" lon="-17.8538650">
        <ele>1339.0</ele>
        <time>2020-11-17T10:26:50Z</time>
      </trkpt>
      <trkpt lat="28.6043350" lon="-17.8538380">
        <ele>1339.0</ele>
        <time>2020-11-17T10:26:51Z</time>
      </trkpt>
      <trkpt lat="28.6043350" lon="-17.8538380">
        <ele>1339.0</ele>
        <time>2020-11-17T10:26:52Z</time>
      </trkpt>
      <trkpt lat="28.6042250" lon="-17.8537950">
        <ele>1338.9</ele>
        <time>2020-11-17T10:26:53Z</time>
      </trkpt>
      <trkpt lat="28.6042250" lon="-17.8537950">
        <ele>1338.9</ele>
        <time>2020-11-17T10:26:54Z</time>
      </trkpt>
      <trkpt lat="28.6041200" lon="-17.8537550">
        <ele>1338.9</ele>
        <time>2020-11-17T10:26:55Z</time>
      </trkpt>
      <trkpt lat="28.6041200" lon="-17.8537550">
        <ele>1338.9</ele>
        <time>2020-11-17T10:26:56Z</time>
      </trkpt>
      <trkpt lat="28.6040370" lon="-17.8537030">
        <ele>1338.8</ele>
        <time>2020-11-17T10:26:57Z</time>
      </trkpt>
      <trkpt lat="28.6040370" lon="-17.8537030">
        <ele>1338.8</ele>
        <time>2020-11-17T10:26:58Z</time>
      </trkpt>
      <trkpt lat="28.6039550" lon="-17.8536400">
        <ele>1338.6</ele>
        <time>2020-11-17T10:26:59Z</time>
      </trkpt>
      <trkpt lat="28.6039150" lon="-17.8536070">
        <ele>1338.4</ele>
        <time>2020-11-17T10:27:00Z</time>
      </trkpt>
      <trkpt lat="28.6039150" lon="-17.8536070">
        <ele>1338.4</ele>
        <time>2020-11-17T10:27:01Z</time>
      </trkpt>
      <trkpt lat="28.6038330" lon="-17.8535350">
        <ele>1338.1</ele>
        <time>2020-11-17T10:27:02Z</time>
      </trkpt>
      <trkpt lat="28.6038330" lon="-17.8535350">
        <ele>1338.1</ele>
        <time>2020-11-17T10:27:03Z</time>
      </trkpt>
      <trkpt lat="28.6037500" lon="-17.8534680">
        <ele>1337.8</ele>
        <time>2020-11-17T10:27:04Z</time>
      </trkpt>
      <trkpt lat="28.6037500" lon="-17.8534680">
        <ele>1337.8</ele>
        <time>2020-11-17T10:27:05Z</time>
      </trkpt>
      <trkpt lat="28.6036500" lon="-17.8534070">
        <ele>1337.4</ele>
        <time>2020-11-17T10:27:06Z</time>
      </trkpt>
      <trkpt lat="28.6035970" lon="-17.8533820">
        <ele>1337.2</ele>
        <time>2020-11-17T10:27:07Z</time>
      </trkpt>
      <trkpt lat="28.6035970" lon="-17.8533820">
        <ele>1337.2</ele>
        <time>2020-11-17T10:27:08Z</time>
      </trkpt>
      <trkpt lat="28.6034930" lon="-17.8533270">
        <ele>1336.8</ele>
        <time>2020-11-17T10:27:09Z</time>
      </trkpt>
      <trkpt lat="28.6034930" lon="-17.8533270">
        <ele>1336.8</ele>
        <time>2020-11-17T10:27:10Z</time>
      </trkpt>
      <trkpt lat="28.6033800" lon="-17.8533080">
        <ele>1336.5</ele>
        <time>2020-11-17T10:27:11Z</time>
      </trkpt>
      <trkpt lat="28.6033800" lon="-17.8533080">
        <ele>1336.5</ele>
        <time>2020-11-17T10:27:12Z</time>
      </trkpt>
      <trkpt lat="28.6032700" lon="-17.8533570">
        <ele>1336.2</ele>
        <time>2020-11-17T10:27:13Z</time>
      </trkpt>
      <trkpt lat="28.6032700" lon="-17.8533570">
        <ele>1336.2</ele>
        <time>2020-11-17T10:27:14Z</time>
      </trkpt>
      <trkpt lat="28.6031570" lon="-17.8533880">
        <ele>1335.9</ele>
        <time>2020-11-17T10:27:15Z</time>
      </trkpt>
      <trkpt lat="28.6031570" lon="-17.8533880">
        <ele>1335.9</ele>
        <time>2020-11-17T10:27:16Z</time>
      </trkpt>
      <trkpt lat="28.6030480" lon="-17.8533620">
        <ele>1335.7</ele>
        <time>2020-11-17T10:27:17Z</time>
      </trkpt>
      <trkpt lat="28.6029980" lon="-17.8533530">
        <ele>1335.6</ele>
        <time>2020-11-17T10:27:18Z</time>
      </trkpt>
      <trkpt lat="28.6029980" lon="-17.8533530">
        <ele>1335.6</ele>
        <time>2020-11-17T10:27:19Z</time>
      </trkpt>
      <trkpt lat="28.6028900" lon="-17.8533270">
        <ele>1335.5</ele>
        <time>2020-11-17T10:27:20Z</time>
      </trkpt>
      <trkpt lat="28.6028900" lon="-17.8533270">
        <ele>1335.5</ele>
        <time>2020-11-17T10:27:21Z</time>
      </trkpt>
      <trkpt lat="28.6027870" lon="-17.8533220">
        <ele>1335.4</ele>
        <time>2020-11-17T10:27:22Z</time>
      </trkpt>
      <trkpt lat="28.6027270" lon="-17.8533200">
        <ele>1335.3</ele>
        <time>2020-11-17T10:27:23Z</time>
      </trkpt>
      <trkpt lat="28.6027270" lon="-17.8533200">
        <ele>1335.3</ele>
        <time>2020-11-17T10:27:24Z</time>
      </trkpt>
      <trkpt lat="28.6026070" lon="-17.8533180">
        <ele>1335.1</ele>
        <time>2020-11-17T10:27:25Z</time>
      </trkpt>
      <trkpt lat="28.6026070" lon="-17.8533180">
        <ele>1335.1</ele>
        <time>2020-11-17T10:27:26Z</time>
      </trkpt>
      <trkpt lat="28.6024830" lon="-17.8533150">
        <ele>1335.0</ele>
        <time>2020-11-17T10:27:27Z</time>
      </trkpt>
      <trkpt lat="28.6024280" lon="-17.8533120">
        <ele>1334.9</ele>
        <time>2020-11-17T10:27:28Z</time>
      </trkpt>
      <trkpt lat="28.6023720" lon="-17.8533070">
        <ele>1334.9</ele>
        <time>2020-11-17T10:27:29Z</time>
      </trkpt>
      <trkpt lat="28.6023720" lon="-17.8533070">
        <ele>1334.9</ele>
        <time>2020-11-17T10:27:30Z</time>
      </trkpt>
      <trkpt lat="28.6022730" lon="-17.8532880">
        <ele>1334.7</ele>
        <time>2020-11-17T10:27:31Z</time>
      </trkpt>
      <trkpt lat="28.6022730" lon="-17.8532880">
        <ele>1334.7</ele>
        <time>2020-11-17T10:27:32Z</time>
      </trkpt>
      <trkpt lat="28.6021850" lon="-17.8532430">
        <ele>1334.5</ele>
        <time>2020-11-17T10:27:33Z</time>
      </trkpt>
      <trkpt lat="28.6021850" lon="-17.8532430">
        <ele>1334.5</ele>
        <time>2020-11-17T10:27:34Z</time>
      </trkpt>
      <trkpt lat="28.6020900" lon="-17.8531720">
        <ele>1334.1</ele>
        <time>2020-11-17T10:27:35Z</time>
      </trkpt>
      <trkpt lat="28.6020420" lon="-17.8531430">
        <ele>1333.9</ele>
        <time>2020-11-17T10:27:36Z</time>
      </trkpt>
      <trkpt lat="28.6020420" lon="-17.8531430">
        <ele>1333.9</ele>
        <time>2020-11-17T10:27:37Z</time>
      </trkpt>
      <trkpt lat="28.6019400" lon="-17.8531030">
        <ele>1333.6</ele>
        <time>2020-11-17T10:27:38Z</time>
      </trkpt>
      <trkpt lat="28.6019400" lon="-17.8531030">
        <ele>1333.6</ele>
        <time>2020-11-17T10:27:39Z</time>
      </trkpt>
      <trkpt lat="28.6018320" lon="-17.8530870">
        <ele>1333.2</ele>
        <time>2020-11-17T10:27:40Z</time>
      </trkpt>
      <trkpt lat="28.6018320" lon="-17.8530870">
        <ele>1333.2</ele>
        <time>2020-11-17T10:27:41Z</time>
      </trkpt>
      <trkpt lat="28.6017230" lon="-17.8530900">
        <ele>1332.9</ele>
        <time>2020-11-17T10:27:42Z</time>
      </trkpt>
      <trkpt lat="28.6017230" lon="-17.8530900">
        <ele>1332.9</ele>
        <time>2020-11-17T10:27:43Z</time>
      </trkpt>
      <trkpt lat="28.6016100" lon="-17.8530970">
        <ele>1332.3</ele>
        <time>2020-11-17T10:27:44Z</time>
      </trkpt>
      <trkpt lat="28.6015480" lon="-17.8530950">
        <ele>1332.0</ele>
        <time>2020-11-17T10:27:45Z</time>
      </trkpt>
      <trkpt lat="28.6015480" lon="-17.8530950">
        <ele>1332.0</ele>
        <time>2020-11-17T10:27:46Z</time>
      </trkpt>
      <trkpt lat="28.6014250" lon="-17.8531120">
        <ele>1331.1</ele>
        <time>2020-11-17T10:27:47Z</time>
      </trkpt>
      <trkpt lat="28.6013600" lon="-17.8531280">
        <ele>1330.6</ele>
        <time>2020-11-17T10:27:48Z</time>
      </trkpt>
      <trkpt lat="28.6013600" lon="-17.8531280">
        <ele>1330.6</ele>
        <time>2020-11-17T10:27:49Z</time>
      </trkpt>
      <trkpt lat="28.6012380" lon="-17.8531780">
        <ele>1329.5</ele>
        <time>2020-11-17T10:27:50Z</time>
      </trkpt>
      <trkpt lat="28.6012380" lon="-17.8531780">
        <ele>1329.5</ele>
        <time>2020-11-17T10:27:51Z</time>
      </trkpt>
      <trkpt lat="28.6011120" lon="-17.8532500">
        <ele>1328.1</ele>
        <time>2020-11-17T10:27:52Z</time>
      </trkpt>
      <trkpt lat="28.6010450" lon="-17.8532780">
        <ele>1327.4</ele>
        <time>2020-11-17T10:27:53Z</time>
      </trkpt>
      <trkpt lat="28.6010450" lon="-17.8532780">
        <ele>1327.4</ele>
        <time>2020-11-17T10:27:54Z</time>
      </trkpt>
      <trkpt lat="28.6009180" lon="-17.8533280">
        <ele>1326.3</ele>
        <time>2020-11-17T10:27:55Z</time>
      </trkpt>
      <trkpt lat="28.6008650" lon="-17.8533530">
        <ele>1325.8</ele>
        <time>2020-11-17T10:27:56Z</time>
      </trkpt>
      <trkpt lat="28.6008120" lon="-17.8533680">
        <ele>1325.4</ele>
        <time>2020-11-17T10:27:57Z</time>
      </trkpt>
      <trkpt lat="28.6008120" lon="-17.8533680">
        <ele>1325.4</ele>
        <time>2020-11-17T10:27:58Z</time>
      </trkpt>
      <trkpt lat="28.6007120" lon="-17.8533700">
        <ele>1324.6</ele>
        <time>2020-11-17T10:27:59Z</time>
      </trkpt>
      <trkpt lat="28.6006700" lon="-17.8533550">
        <ele>1324.3</ele>
        <time>2020-11-17T10:28:00Z</time>
      </trkpt>
      <trkpt lat="28.6006230" lon="-17.8533380">
        <ele>1324.0</ele>
        <time>2020-11-17T10:28:01Z</time>
      </trkpt>
      <trkpt lat="28.6006230" lon="-17.8533380">
        <ele>1324.0</ele>
        <time>2020-11-17T10:28:02Z</time>
      </trkpt>
      <trkpt lat="28.6005320" lon="-17.8533000">
        <ele>1323.3</ele>
        <time>2020-11-17T10:28:03Z</time>
      </trkpt>
      <trkpt lat="28.6004820" lon="-17.8532880">
        <ele>1323.0</ele>
        <time>2020-11-17T10:28:04Z</time>
      </trkpt>
      <trkpt lat="28.6004820" lon="-17.8532880">
        <ele>1323.0</ele>
        <time>2020-11-17T10:28:05Z</time>
      </trkpt>
      <trkpt lat="28.6003850" lon="-17.8532700">
        <ele>1322.4</ele>
        <time>2020-11-17T10:28:06Z</time>
      </trkpt>
      <trkpt lat="28.6003850" lon="-17.8532700">
        <ele>1322.4</ele>
        <time>2020-11-17T10:28:07Z</time>
      </trkpt>
      <trkpt lat="28.6002680" lon="-17.8532650">
        <ele>1321.8</ele>
        <time>2020-11-17T10:28:08Z</time>
      </trkpt>
      <trkpt lat="28.6002680" lon="-17.8532650">
        <ele>1321.8</ele>
        <time>2020-11-17T10:28:09Z</time>
      </trkpt>
      <trkpt lat="28.6001350" lon="-17.8532770">
        <ele>1320.8</ele>
        <time>2020-11-17T10:28:10Z</time>
      </trkpt>
      <trkpt lat="28.6000650" lon="-17.8532820">
        <ele>1320.3</ele>
        <time>2020-11-17T10:28:11Z</time>
      </trkpt>
      <trkpt lat="28.6000650" lon="-17.8532820">
        <ele>1320.3</ele>
        <time>2020-11-17T10:28:12Z</time>
      </trkpt>
      <trkpt lat="28.5998980" lon="-17.8532870">
        <ele>1319.1</ele>
        <time>2020-11-17T10:28:13Z</time>
      </trkpt>
      <trkpt lat="28.5998980" lon="-17.8532870">
        <ele>1319.1</ele>
        <time>2020-11-17T10:28:14Z</time>
      </trkpt>
      <trkpt lat="28.5997220" lon="-17.8533100">
        <ele>1318.0</ele>
        <time>2020-11-17T10:28:15Z</time>
      </trkpt>
      <trkpt lat="28.5997220" lon="-17.8533100">
        <ele>1318.0</ele>
        <time>2020-11-17T10:28:16Z</time>
      </trkpt>
      <trkpt lat="28.5995620" lon="-17.8533270">
        <ele>1317.1</ele>
        <time>2020-11-17T10:28:17Z</time>
      </trkpt>
      <trkpt lat="28.5995620" lon="-17.8533270">
        <ele>1317.1</ele>
        <time>2020-11-17T10:28:18Z</time>
      </trkpt>
      <trkpt lat="28.5993870" lon="-17.8533300">
        <ele>1316.1</ele>
        <time>2020-11-17T10:28:19Z</time>
      </trkpt>
      <trkpt lat="28.5993870" lon="-17.8533300">
        <ele>1316.1</ele>
        <time>2020-11-17T10:28:20Z</time>
      </trkpt>
      <trkpt lat="28.5992520" lon="-17.8533400">
        <ele>1315.6</ele>
        <time>2020-11-17T10:28:21Z</time>
      </trkpt>
      <trkpt lat="28.5992520" lon="-17.8533400">
        <ele>1315.6</ele>
        <time>2020-11-17T10:28:22Z</time>
      </trkpt>
      <trkpt lat="28.5991200" lon="-17.8533420">
        <ele>1315.2</ele>
        <time>2020-11-17T10:28:23Z</time>
      </trkpt>
      <trkpt lat="28.5990570" lon="-17.8533420">
        <ele>1314.9</ele>
        <time>2020-11-17T10:28:24Z</time>
      </trkpt>
      <trkpt lat="28.5990570" lon="-17.8533420">
        <ele>1314.9</ele>
        <time>2020-11-17T10:28:25Z</time>
      </trkpt>
      <trkpt lat="28.5989370" lon="-17.8533100">
        <ele>1314.6</ele>
        <time>2020-11-17T10:28:26Z</time>
      </trkpt>
      <trkpt lat="28.5989370" lon="-17.8533100">
        <ele>1314.6</ele>
        <time>2020-11-17T10:28:27Z</time>
      </trkpt>
      <trkpt lat="28.5988420" lon="-17.8532370">
        <ele>1314.3</ele>
        <time>2020-11-17T10:28:28Z</time>
      </trkpt>
      <trkpt lat="28.5988420" lon="-17.8532370">
        <ele>1314.3</ele>
        <time>2020-11-17T10:28:29Z</time>
      </trkpt>
      <trkpt lat="28.5987770" lon="-17.8531500">
        <ele>1313.9</ele>
        <time>2020-11-17T10:28:30Z</time>
      </trkpt>
      <trkpt lat="28.5987770" lon="-17.8531500">
        <ele>1313.9</ele>
        <time>2020-11-17T10:28:31Z</time>
      </trkpt>
      <trkpt lat="28.5987070" lon="-17.8530620">
        <ele>1313.4</ele>
        <time>2020-11-17T10:28:32Z</time>
      </trkpt>
      <trkpt lat="28.5986600" lon="-17.8530220">
        <ele>1313.2</ele>
        <time>2020-11-17T10:28:33Z</time>
      </trkpt>
      <trkpt lat="28.5986600" lon="-17.8530220">
        <ele>1313.2</ele>
        <time>2020-11-17T10:28:34Z</time>
      </trkpt>
      <trkpt lat="28.5985500" lon="-17.8529330">
        <ele>1312.9</ele>
        <time>2020-11-17T10:28:35Z</time>
      </trkpt>
      <trkpt lat="28.5984980" lon="-17.8528820">
        <ele>1312.8</ele>
        <time>2020-11-17T10:28:36Z</time>
      </trkpt>
      <trkpt lat="28.5984980" lon="-17.8528820">
        <ele>1312.8</ele>
        <time>2020-11-17T10:28:37Z</time>
      </trkpt>
      <trkpt lat="28.5984120" lon="-17.8527800">
        <ele>1312.5</ele>
        <time>2020-11-17T10:28:38Z</time>
      </trkpt>
      <trkpt lat="28.5984120" lon="-17.8527800">
        <ele>1312.5</ele>
        <time>2020-11-17T10:28:39Z</time>
      </trkpt>
      <trkpt lat="28.5983370" lon="-17.8527420">
        <ele>1312.3</ele>
        <time>2020-11-17T10:28:40Z</time>
      </trkpt>
      <trkpt lat="28.5983370" lon="-17.8527420">
        <ele>1312.3</ele>
        <time>2020-11-17T10:28:41Z</time>
      </trkpt>
      <trkpt lat="28.5982380" lon="-17.8527570">
        <ele>1311.9</ele>
        <time>2020-11-17T10:28:42Z</time>
      </trkpt>
      <trkpt lat="28.5981950" lon="-17.8527800">
        <ele>1311.7</ele>
        <time>2020-11-17T10:28:43Z</time>
      </trkpt>
      <trkpt lat="28.5981950" lon="-17.8527800">
        <ele>1311.7</ele>
        <time>2020-11-17T10:28:44Z</time>
      </trkpt>
      <trkpt lat="28.5981430" lon="-17.8528700">
        <ele>1311.3</ele>
        <time>2020-11-17T10:28:45Z</time>
      </trkpt>
      <trkpt lat="28.5981430" lon="-17.8528700">
        <ele>1311.3</ele>
        <time>2020-11-17T10:28:46Z</time>
      </trkpt>
      <trkpt lat="28.5981150" lon="-17.8529880">
        <ele>1310.8</ele>
        <time>2020-11-17T10:28:47Z</time>
      </trkpt>
      <trkpt lat="28.5981000" lon="-17.8530670">
        <ele>1310.6</ele>
        <time>2020-11-17T10:28:48Z</time>
      </trkpt>
      <trkpt lat="28.5980770" lon="-17.8531170">
        <ele>1310.5</ele>
        <time>2020-11-17T10:28:49Z</time>
      </trkpt>
      <trkpt lat="28.5980770" lon="-17.8531170">
        <ele>1310.5</ele>
        <time>2020-11-17T10:28:50Z</time>
      </trkpt>
      <trkpt lat="28.5980320" lon="-17.8532200">
        <ele>1310.4</ele>
        <time>2020-11-17T10:28:51Z</time>
      </trkpt>
      <trkpt lat="28.5980320" lon="-17.8532200">
        <ele>1310.4</ele>
        <time>2020-11-17T10:28:52Z</time>
      </trkpt>
      <trkpt lat="28.5979770" lon="-17.8533300">
        <ele>1310.1</ele>
        <time>2020-11-17T10:28:53Z</time>
      </trkpt>
      <trkpt lat="28.5979480" lon="-17.8533920">
        <ele>1309.9</ele>
        <time>2020-11-17T10:28:54Z</time>
      </trkpt>
      <trkpt lat="28.5979480" lon="-17.8533920">
        <ele>1309.9</ele>
        <time>2020-11-17T10:28:55Z</time>
      </trkpt>
      <trkpt lat="28.5979170" lon="-17.8535250">
        <ele>1309.4</ele>
        <time>2020-11-17T10:28:56Z</time>
      </trkpt>
      <trkpt lat="28.5979170" lon="-17.8535250">
        <ele>1309.4</ele>
        <time>2020-11-17T10:28:57Z</time>
      </trkpt>
      <trkpt lat="28.5978870" lon="-17.8536730">
        <ele>1308.9</ele>
        <time>2020-11-17T10:28:58Z</time>
      </trkpt>
      <trkpt lat="28.5978700" lon="-17.8537480">
        <ele>1308.6</ele>
        <time>2020-11-17T10:28:59Z</time>
      </trkpt>
      <trkpt lat="28.5978700" lon="-17.8537480">
        <ele>1308.6</ele>
        <time>2020-11-17T10:29:00Z</time>
      </trkpt>
      <trkpt lat="28.5978100" lon="-17.8538720">
        <ele>1307.9</ele>
        <time>2020-11-17T10:29:01Z</time>
      </trkpt>
      <trkpt lat="28.5978100" lon="-17.8538720">
        <ele>1307.9</ele>
        <time>2020-11-17T10:29:02Z</time>
      </trkpt>
      <trkpt lat="28.5977070" lon="-17.8539650">
        <ele>1307.0</ele>
        <time>2020-11-17T10:29:03Z</time>
      </trkpt>
      <trkpt lat="28.5977070" lon="-17.8539650">
        <ele>1307.0</ele>
        <time>2020-11-17T10:29:04Z</time>
      </trkpt>
      <trkpt lat="28.5975780" lon="-17.8540280">
        <ele>1306.2</ele>
        <time>2020-11-17T10:29:05Z</time>
      </trkpt>
      <trkpt lat="28.5975780" lon="-17.8540280">
        <ele>1306.2</ele>
        <time>2020-11-17T10:29:06Z</time>
      </trkpt>
      <trkpt lat="28.5974580" lon="-17.8540920">
        <ele>1305.4</ele>
        <time>2020-11-17T10:29:07Z</time>
      </trkpt>
      <trkpt lat="28.5974580" lon="-17.8540920">
        <ele>1305.4</ele>
        <time>2020-11-17T10:29:08Z</time>
      </trkpt>
      <trkpt lat="28.5973450" lon="-17.8541930">
        <ele>1304.4</ele>
        <time>2020-11-17T10:29:09Z</time>
      </trkpt>
      <trkpt lat="28.5973450" lon="-17.8541930">
        <ele>1304.4</ele>
        <time>2020-11-17T10:29:10Z</time>
      </trkpt>
      <trkpt lat="28.5972500" lon="-17.8543030">
        <ele>1303.5</ele>
        <time>2020-11-17T10:29:11Z</time>
      </trkpt>
      <trkpt lat="28.5972050" lon="-17.8543550">
        <ele>1303.1</ele>
        <time>2020-11-17T10:29:12Z</time>
      </trkpt>
      <trkpt lat="28.5972050" lon="-17.8543550">
        <ele>1303.1</ele>
        <time>2020-11-17T10:29:13Z</time>
      </trkpt>
      <trkpt lat="28.5971230" lon="-17.8544650">
        <ele>1302.4</ele>
        <time>2020-11-17T10:29:14Z</time>
      </trkpt>
      <trkpt lat="28.5970880" lon="-17.8545250">
        <ele>1302.0</ele>
        <time>2020-11-17T10:29:15Z</time>
      </trkpt>
      <trkpt lat="28.5970880" lon="-17.8545250">
        <ele>1302.0</ele>
        <time>2020-11-17T10:29:16Z</time>
      </trkpt>
      <trkpt lat="28.5970280" lon="-17.8546620">
        <ele>1301.3</ele>
        <time>2020-11-17T10:29:17Z</time>
      </trkpt>
      <trkpt lat="28.5970000" lon="-17.8547300">
        <ele>1301.0</ele>
        <time>2020-11-17T10:29:18Z</time>
      </trkpt>
      <trkpt lat="28.5970000" lon="-17.8547300">
        <ele>1301.0</ele>
        <time>2020-11-17T10:29:19Z</time>
      </trkpt>
      <trkpt lat="28.5969450" lon="-17.8548700">
        <ele>1300.4</ele>
        <time>2020-11-17T10:29:20Z</time>
      </trkpt>
      <trkpt lat="28.5969280" lon="-17.8549400">
        <ele>1300.1</ele>
        <time>2020-11-17T10:29:21Z</time>
      </trkpt>
      <trkpt lat="28.5969280" lon="-17.8549400">
        <ele>1300.1</ele>
        <time>2020-11-17T10:29:22Z</time>
      </trkpt>
      <trkpt lat="28.5968900" lon="-17.8550800">
        <ele>1299.6</ele>
        <time>2020-11-17T10:29:23Z</time>
      </trkpt>
      <trkpt lat="28.5968680" lon="-17.8551570">
        <ele>1299.4</ele>
        <time>2020-11-17T10:29:24Z</time>
      </trkpt>
      <trkpt lat="28.5968680" lon="-17.8551570">
        <ele>1299.4</ele>
        <time>2020-11-17T10:29:25Z</time>
      </trkpt>
      <trkpt lat="28.5968050" lon="-17.8553070">
        <ele>1299.0</ele>
        <time>2020-11-17T10:29:26Z</time>
      </trkpt>
      <trkpt lat="28.5968050" lon="-17.8553070">
        <ele>1299.0</ele>
        <time>2020-11-17T10:29:27Z</time>
      </trkpt>
      <trkpt lat="28.5967400" lon="-17.8554500">
        <ele>1298.8</ele>
        <time>2020-11-17T10:29:28Z</time>
      </trkpt>
      <trkpt lat="28.5967400" lon="-17.8554500">
        <ele>1298.8</ele>
        <time>2020-11-17T10:29:29Z</time>
      </trkpt>
      <trkpt lat="28.5966620" lon="-17.8555650">
        <ele>1298.5</ele>
        <time>2020-11-17T10:29:30Z</time>
      </trkpt>
      <trkpt lat="28.5966620" lon="-17.8555650">
        <ele>1298.5</ele>
        <time>2020-11-17T10:29:31Z</time>
      </trkpt>
      <trkpt lat="28.5965580" lon="-17.8556270">
        <ele>1298.2</ele>
        <time>2020-11-17T10:29:32Z</time>
      </trkpt>
      <trkpt lat="28.5965580" lon="-17.8556270">
        <ele>1298.2</ele>
        <time>2020-11-17T10:29:33Z</time>
      </trkpt>
      <trkpt lat="28.5964550" lon="-17.8555920">
        <ele>1297.7</ele>
        <time>2020-11-17T10:29:34Z</time>
      </trkpt>
      <trkpt lat="28.5964550" lon="-17.8555920">
        <ele>1297.7</ele>
        <time>2020-11-17T10:29:35Z</time>
      </trkpt>
      <trkpt lat="28.5963670" lon="-17.8555270">
        <ele>1296.9</ele>
        <time>2020-11-17T10:29:36Z</time>
      </trkpt>
      <trkpt lat="28.5963230" lon="-17.8554870">
        <ele>1296.5</ele>
        <time>2020-11-17T10:29:37Z</time>
      </trkpt>
      <trkpt lat="28.5963230" lon="-17.8554870">
        <ele>1296.5</ele>
        <time>2020-11-17T10:29:38Z</time>
      </trkpt>
      <trkpt lat="28.5962230" lon="-17.8554680">
        <ele>1295.7</ele>
        <time>2020-11-17T10:29:39Z</time>
      </trkpt>
      <trkpt lat="28.5961630" lon="-17.8554900">
        <ele>1295.1</ele>
        <time>2020-11-17T10:29:40Z</time>
      </trkpt>
      <trkpt lat="28.5961630" lon="-17.8554900">
        <ele>1295.1</ele>
        <time>2020-11-17T10:29:41Z</time>
      </trkpt>
      <trkpt lat="28.5960470" lon="-17.8555680">
        <ele>1294.0</ele>
        <time>2020-11-17T10:29:42Z</time>
      </trkpt>
      <trkpt lat="28.5960470" lon="-17.8555680">
        <ele>1294.0</ele>
        <time>2020-11-17T10:29:43Z</time>
      </trkpt>
      <trkpt lat="28.5959370" lon="-17.8556830">
        <ele>1292.8</ele>
        <time>2020-11-17T10:29:44Z</time>
      </trkpt>
      <trkpt lat="28.5959370" lon="-17.8556830">
        <ele>1292.8</ele>
        <time>2020-11-17T10:29:45Z</time>
      </trkpt>
      <trkpt lat="28.5958300" lon="-17.8558030">
        <ele>1291.7</ele>
        <time>2020-11-17T10:29:46Z</time>
      </trkpt>
      <trkpt lat="28.5957830" lon="-17.8558600">
        <ele>1291.2</ele>
        <time>2020-11-17T10:29:47Z</time>
      </trkpt>
      <trkpt lat="28.5957830" lon="-17.8558600">
        <ele>1291.2</ele>
        <time>2020-11-17T10:29:48Z</time>
      </trkpt>
      <trkpt lat="28.5957020" lon="-17.8559680">
        <ele>1290.4</ele>
        <time>2020-11-17T10:29:49Z</time>
      </trkpt>
      <trkpt lat="28.5957020" lon="-17.8559680">
        <ele>1290.4</ele>
        <time>2020-11-17T10:29:50Z</time>
      </trkpt>
      <trkpt lat="28.5956320" lon="-17.8561050">
        <ele>1289.9</ele>
        <time>2020-11-17T10:29:51Z</time>
      </trkpt>
      <trkpt lat="28.5955930" lon="-17.8561830">
        <ele>1289.7</ele>
        <time>2020-11-17T10:29:52Z</time>
      </trkpt>
      <trkpt lat="28.5955620" lon="-17.8562550">
        <ele>1289.7</ele>
        <time>2020-11-17T10:29:53Z</time>
      </trkpt>
      <trkpt lat="28.5955620" lon="-17.8562550">
        <ele>1289.7</ele>
        <time>2020-11-17T10:29:54Z</time>
      </trkpt>
      <trkpt lat="28.5955200" lon="-17.8564020">
        <ele>1290.0</ele>
        <time>2020-11-17T10:29:55Z</time>
      </trkpt>
      <trkpt lat="28.5955200" lon="-17.8564020">
        <ele>1290.0</ele>
        <time>2020-11-17T10:29:56Z</time>
      </trkpt>
      <trkpt lat="28.5955080" lon="-17.8565520">
        <ele>1290.6</ele>
        <time>2020-11-17T10:29:57Z</time>
      </trkpt>
      <trkpt lat="28.5955080" lon="-17.8565520">
        <ele>1290.6</ele>
        <time>2020-11-17T10:29:58Z</time>
      </trkpt>
      <trkpt lat="28.5955200" lon="-17.8566500">
        <ele>1291.1</ele>
        <time>2020-11-17T10:29:59Z</time>
      </trkpt>
      <trkpt lat="28.5955420" lon="-17.8566970">
        <ele>1291.4</ele>
        <time>2020-11-17T10:30:00Z</time>
      </trkpt>
      <trkpt lat="28.5955420" lon="-17.8566970">
        <ele>1291.4</ele>
        <time>2020-11-17T10:30:01Z</time>
      </trkpt>
      <trkpt lat="28.5955850" lon="-17.8567780">
        <ele>1291.8</ele>
        <time>2020-11-17T10:30:02Z</time>
      </trkpt>
      <trkpt lat="28.5956120" lon="-17.8568270">
        <ele>1292.0</ele>
        <time>2020-11-17T10:30:03Z</time>
      </trkpt>
      <trkpt lat="28.5956400" lon="-17.8568830">
        <ele>1292.0</ele>
        <time>2020-11-17T10:30:04Z</time>
      </trkpt>
      <trkpt lat="28.5956670" lon="-17.8569400">
        <ele>1292.0</ele>
        <time>2020-11-17T10:30:05Z</time>
      </trkpt>
      <trkpt lat="28.5956670" lon="-17.8569400">
        <ele>1292.0</ele>
        <time>2020-11-17T10:30:06Z</time>
      </trkpt>
      <trkpt lat="28.5957120" lon="-17.8570450">
        <ele>1291.9</ele>
        <time>2020-11-17T10:30:07Z</time>
      </trkpt>
      <trkpt lat="28.5957450" lon="-17.8570930">
        <ele>1291.7</ele>
        <time>2020-11-17T10:30:08Z</time>
      </trkpt>
      <trkpt lat="28.5957450" lon="-17.8570930">
        <ele>1291.7</ele>
        <time>2020-11-17T10:30:09Z</time>
      </trkpt>
      <trkpt lat="28.5958180" lon="-17.8571970">
        <ele>1291.4</ele>
        <time>2020-11-17T10:30:10Z</time>
      </trkpt>
      <trkpt lat="28.5958520" lon="-17.8572520">
        <ele>1291.1</ele>
        <time>2020-11-17T10:30:11Z</time>
      </trkpt>
      <trkpt lat="28.5958770" lon="-17.8573220">
        <ele>1290.9</ele>
        <time>2020-11-17T10:30:12Z</time>
      </trkpt>
      <trkpt lat="28.5958770" lon="-17.8573220">
        <ele>1290.9</ele>
        <time>2020-11-17T10:30:13Z</time>
      </trkpt>
      <trkpt lat="28.5959420" lon="-17.8574280">
        <ele>1290.4</ele>
        <time>2020-11-17T10:30:14Z</time>
      </trkpt>
      <trkpt lat="28.5959420" lon="-17.8574280">
        <ele>1290.4</ele>
        <time>2020-11-17T10:30:15Z</time>
      </trkpt>
      <trkpt lat="28.5960320" lon="-17.8574820">
        <ele>1290.0</ele>
        <time>2020-11-17T10:30:16Z</time>
      </trkpt>
      <trkpt lat="28.5960320" lon="-17.8574820">
        <ele>1290.0</ele>
        <time>2020-11-17T10:30:17Z</time>
      </trkpt>
      <trkpt lat="28.5961050" lon="-17.8574300">
        <ele>1289.7</ele>
        <time>2020-11-17T10:30:18Z</time>
      </trkpt>
      <trkpt lat="28.5961180" lon="-17.8573730">
        <ele>1289.5</ele>
        <time>2020-11-17T10:30:19Z</time>
      </trkpt>
      <trkpt lat="28.5961180" lon="-17.8573730">
        <ele>1289.5</ele>
        <time>2020-11-17T10:30:20Z</time>
      </trkpt>
      <trkpt lat="28.5961470" lon="-17.8572580">
        <ele>1289.3</ele>
        <time>2020-11-17T10:30:21Z</time>
      </trkpt>
      <trkpt lat="28.5961470" lon="-17.8572580">
        <ele>1289.3</ele>
        <time>2020-11-17T10:30:22Z</time>
      </trkpt>
      <trkpt lat="28.5962000" lon="-17.8571520">
        <ele>1289.0</ele>
        <time>2020-11-17T10:30:23Z</time>
      </trkpt>
      <trkpt lat="28.5962000" lon="-17.8571520">
        <ele>1289.0</ele>
        <time>2020-11-17T10:30:24Z</time>
      </trkpt>
      <trkpt lat="28.5962650" lon="-17.8570550">
        <ele>1288.9</ele>
        <time>2020-11-17T10:30:25Z</time>
      </trkpt>
      <trkpt lat="28.5962980" lon="-17.8570180">
        <ele>1288.9</ele>
        <time>2020-11-17T10:30:26Z</time>
      </trkpt>
      <trkpt lat="28.5962980" lon="-17.8570180">
        <ele>1288.9</ele>
        <time>2020-11-17T10:30:27Z</time>
      </trkpt>
      <trkpt lat="28.5963900" lon="-17.8569750">
        <ele>1288.8</ele>
        <time>2020-11-17T10:30:28Z</time>
      </trkpt>
      <trkpt lat="28.5963900" lon="-17.8569750">
        <ele>1288.8</ele>
        <time>2020-11-17T10:30:29Z</time>
      </trkpt>
      <trkpt lat="28.5964820" lon="-17.8569550">
        <ele>1288.7</ele>
        <time>2020-11-17T10:30:30Z</time>
      </trkpt>
      <trkpt lat="28.5964820" lon="-17.8569550">
        <ele>1288.7</ele>
        <time>2020-11-17T10:30:31Z</time>
      </trkpt>
      <trkpt lat="28.5965730" lon="-17.8569180">
        <ele>1288.6</ele>
        <time>2020-11-17T10:30:32Z</time>
      </trkpt>
      <trkpt lat="28.5965730" lon="-17.8569180">
        <ele>1288.6</ele>
        <time>2020-11-17T10:30:33Z</time>
      </trkpt>
      <trkpt lat="28.5966320" lon="-17.8568330">
        <ele>1288.4</ele>
        <time>2020-11-17T10:30:34Z</time>
      </trkpt>
      <trkpt lat="28.5966420" lon="-17.8567800">
        <ele>1288.3</ele>
        <time>2020-11-17T10:30:35Z</time>
      </trkpt>
      <trkpt lat="28.5966450" lon="-17.8567220">
        <ele>1288.2</ele>
        <time>2020-11-17T10:30:36Z</time>
      </trkpt>
      <trkpt lat="28.5966450" lon="-17.8567220">
        <ele>1288.2</ele>
        <time>2020-11-17T10:30:37Z</time>
      </trkpt>
      <trkpt lat="28.5966450" lon="-17.8566050">
        <ele>1287.8</ele>
        <time>2020-11-17T10:30:38Z</time>
      </trkpt>
      <trkpt lat="28.5966370" lon="-17.8565500">
        <ele>1287.6</ele>
        <time>2020-11-17T10:30:39Z</time>
      </trkpt>
      <trkpt lat="28.5966370" lon="-17.8565500">
        <ele>1287.6</ele>
        <time>2020-11-17T10:30:40Z</time>
      </trkpt>
      <trkpt lat="28.5965870" lon="-17.8564480">
        <ele>1287.2</ele>
        <time>2020-11-17T10:30:41Z</time>
      </trkpt>
      <trkpt lat="28.5965550" lon="-17.8564050">
        <ele>1287.0</ele>
        <time>2020-11-17T10:30:42Z</time>
      </trkpt>
      <trkpt lat="28.5965550" lon="-17.8564050">
        <ele>1287.0</ele>
        <time>2020-11-17T10:30:43Z</time>
      </trkpt>
      <trkpt lat="28.5965370" lon="-17.8563000">
        <ele>1286.6</ele>
        <time>2020-11-17T10:30:44Z</time>
      </trkpt>
      <trkpt lat="28.5965370" lon="-17.8563000">
        <ele>1286.6</ele>
        <time>2020-11-17T10:30:45Z</time>
      </trkpt>
      <trkpt lat="28.5965780" lon="-17.8561970">
        <ele>1285.9</ele>
        <time>2020-11-17T10:30:46Z</time>
      </trkpt>
      <trkpt lat="28.5965780" lon="-17.8561970">
        <ele>1285.9</ele>
        <time>2020-11-17T10:30:47Z</time>
      </trkpt>
      <trkpt lat="28.5966770" lon="-17.8561550">
        <ele>1284.7</ele>
        <time>2020-11-17T10:30:48Z</time>
      </trkpt>
      <trkpt lat="28.5966770" lon="-17.8561550">
        <ele>1284.7</ele>
        <time>2020-11-17T10:30:49Z</time>
      </trkpt>
      <trkpt lat="28.5967680" lon="-17.8561120">
        <ele>1283.6</ele>
        <time>2020-11-17T10:30:50Z</time>
      </trkpt>
      <trkpt lat="28.5968330" lon="-17.8560800">
        <ele>1282.7</ele>
        <time>2020-11-17T10:30:51Z</time>
      </trkpt>
      <trkpt lat="28.5968330" lon="-17.8560800">
        <ele>1282.7</ele>
        <time>2020-11-17T10:30:52Z</time>
      </trkpt>
      <trkpt lat="28.5969300" lon="-17.8559870">
        <ele>1281.3</ele>
        <time>2020-11-17T10:30:53Z</time>
      </trkpt>
      <trkpt lat="28.5969300" lon="-17.8559870">
        <ele>1281.3</ele>
        <time>2020-11-17T10:30:54Z</time>
      </trkpt>
      <trkpt lat="28.5970220" lon="-17.8559020">
        <ele>1279.9</ele>
        <time>2020-11-17T10:30:55Z</time>
      </trkpt>
      <trkpt lat="28.5970650" lon="-17.8558580">
        <ele>1279.3</ele>
        <time>2020-11-17T10:30:56Z</time>
      </trkpt>
      <trkpt lat="28.5970650" lon="-17.8558580">
        <ele>1279.3</ele>
        <time>2020-11-17T10:30:57Z</time>
      </trkpt>
      <trkpt lat="28.5971570" lon="-17.8557500">
        <ele>1277.8</ele>
        <time>2020-11-17T10:30:58Z</time>
      </trkpt>
      <trkpt lat="28.5971570" lon="-17.8557500">
        <ele>1277.8</ele>
        <time>2020-11-17T10:30:59Z</time>
      </trkpt>
      <trkpt lat="28.5972480" lon="-17.8556500">
        <ele>1276.4</ele>
        <time>2020-11-17T10:31:00Z</time>
      </trkpt>
      <trkpt lat="28.5972480" lon="-17.8556500">
        <ele>1276.4</ele>
        <time>2020-11-17T10:31:01Z</time>
      </trkpt>
      <trkpt lat="28.5973470" lon="-17.8555450">
        <ele>1275.0</ele>
        <time>2020-11-17T10:31:02Z</time>
      </trkpt>
      <trkpt lat="28.5973470" lon="-17.8555450">
        <ele>1275.0</ele>
        <time>2020-11-17T10:31:03Z</time>
      </trkpt>
      <trkpt lat="28.5974350" lon="-17.8554430">
        <ele>1273.6</ele>
        <time>2020-11-17T10:31:04Z</time>
      </trkpt>
      <trkpt lat="28.5974350" lon="-17.8554430">
        <ele>1273.6</ele>
        <time>2020-11-17T10:31:05Z</time>
      </trkpt>
      <trkpt lat="28.5974950" lon="-17.8553300">
        <ele>1272.6</ele>
        <time>2020-11-17T10:31:06Z</time>
      </trkpt>
      <trkpt lat="28.5974950" lon="-17.8553300">
        <ele>1272.6</ele>
        <time>2020-11-17T10:31:07Z</time>
      </trkpt>
      <trkpt lat="28.5975880" lon="-17.8552350">
        <ele>1271.5</ele>
        <time>2020-11-17T10:31:08Z</time>
      </trkpt>
      <trkpt lat="28.5975880" lon="-17.8552350">
        <ele>1271.5</ele>
        <time>2020-11-17T10:31:09Z</time>
      </trkpt>
      <trkpt lat="28.5977070" lon="-17.8551830">
        <ele>1270.5</ele>
        <time>2020-11-17T10:31:10Z</time>
      </trkpt>
      <trkpt lat="28.5977070" lon="-17.8551830">
        <ele>1270.5</ele>
        <time>2020-11-17T10:31:11Z</time>
      </trkpt>
      <trkpt lat="28.5978220" lon="-17.8551300">
        <ele>1269.6</ele>
        <time>2020-11-17T10:31:12Z</time>
      </trkpt>
      <trkpt lat="28.5978770" lon="-17.8551080">
        <ele>1269.1</ele>
        <time>2020-11-17T10:31:13Z</time>
      </trkpt>
      <trkpt lat="28.5978770" lon="-17.8551080">
        <ele>1269.1</ele>
        <time>2020-11-17T10:31:14Z</time>
      </trkpt>
      <trkpt lat="28.5980020" lon="-17.8551070">
        <ele>1268.3</ele>
        <time>2020-11-17T10:31:15Z</time>
      </trkpt>
      <trkpt lat="28.5980630" lon="-17.8551230">
        <ele>1267.9</ele>
        <time>2020-11-17T10:31:16Z</time>
      </trkpt>
      <trkpt lat="28.5980630" lon="-17.8551230">
        <ele>1267.9</ele>
        <time>2020-11-17T10:31:17Z</time>
      </trkpt>
      <trkpt lat="28.5981700" lon="-17.8551730">
        <ele>1267.2</ele>
        <time>2020-11-17T10:31:18Z</time>
      </trkpt>
      <trkpt lat="28.5981700" lon="-17.8551730">
        <ele>1267.2</ele>
        <time>2020-11-17T10:31:19Z</time>
      </trkpt>
      <trkpt lat="28.5982720" lon="-17.8552030">
        <ele>1266.6</ele>
        <time>2020-11-17T10:31:20Z</time>
      </trkpt>
      <trkpt lat="28.5982720" lon="-17.8552030">
        <ele>1266.6</ele>
        <time>2020-11-17T10:31:21Z</time>
      </trkpt>
      <trkpt lat="28.5983350" lon="-17.8552400">
        <ele>1266.1</ele>
        <time>2020-11-17T10:31:22Z</time>
      </trkpt>
      <trkpt lat="28.5983380" lon="-17.8552770">
        <ele>1265.8</ele>
        <time>2020-11-17T10:31:23Z</time>
      </trkpt>
      <trkpt lat="28.5983380" lon="-17.8552770">
        <ele>1265.8</ele>
        <time>2020-11-17T10:31:24Z</time>
      </trkpt>
      <trkpt lat="28.5983100" lon="-17.8553350">
        <ele>1265.2</ele>
        <time>2020-11-17T10:31:25Z</time>
      </trkpt>
      <trkpt lat="28.5983100" lon="-17.8553350">
        <ele>1265.2</ele>
        <time>2020-11-17T10:31:26Z</time>
      </trkpt>
      <trkpt lat="28.5982550" lon="-17.8553630">
        <ele>1264.5</ele>
        <time>2020-11-17T10:31:27Z</time>
      </trkpt>
      <trkpt lat="28.5982550" lon="-17.8553630">
        <ele>1264.5</ele>
        <time>2020-11-17T10:31:28Z</time>
      </trkpt>
      <trkpt lat="28.5981850" lon="-17.8553580">
        <ele>1263.6</ele>
        <time>2020-11-17T10:31:29Z</time>
      </trkpt>
      <trkpt lat="28.5981530" lon="-17.8553470">
        <ele>1263.1</ele>
        <time>2020-11-17T10:31:30Z</time>
      </trkpt>
      <trkpt lat="28.5981530" lon="-17.8553470">
        <ele>1263.1</ele>
        <time>2020-11-17T10:31:31Z</time>
      </trkpt>
      <trkpt lat="28.5981000" lon="-17.8552950">
        <ele>1262.2</ele>
        <time>2020-11-17T10:31:32Z</time>
      </trkpt>
      <trkpt lat="28.5981000" lon="-17.8552950">
        <ele>1262.2</ele>
        <time>2020-11-17T10:31:33Z</time>
      </trkpt>
      <trkpt lat="28.5980350" lon="-17.8552470">
        <ele>1261.3</ele>
        <time>2020-11-17T10:31:34Z</time>
      </trkpt>
      <trkpt lat="28.5980350" lon="-17.8552470">
        <ele>1261.3</ele>
        <time>2020-11-17T10:31:35Z</time>
      </trkpt>
      <trkpt lat="28.5979870" lon="-17.8552280">
        <ele>1260.6</ele>
        <time>2020-11-17T10:31:36Z</time>
      </trkpt>
      <trkpt lat="28.5979870" lon="-17.8552280">
        <ele>1260.6</ele>
        <time>2020-11-17T10:31:37Z</time>
      </trkpt>
      <trkpt lat="28.5979750" lon="-17.8552220">
        <ele>1260.5</ele>
        <time>2020-11-17T10:31:38Z</time>
      </trkpt>
      <trkpt lat="28.5979750" lon="-17.8552180">
        <ele>1260.5</ele>
        <time>2020-11-17T10:31:39Z</time>
      </trkpt>
      <trkpt lat="28.5979750" lon="-17.8552180">
        <ele>1260.5</ele>
        <time>2020-11-17T10:31:40Z</time>
      </trkpt>
      <trkpt lat="28.5979720" lon="-17.8552130">
        <ele>1260.4</ele>
        <time>2020-11-17T10:31:41Z</time>
      </trkpt>
      <trkpt lat="28.5979000" lon="-17.8552130">
        <ele>1259.6</ele>
        <time>2020-11-17T10:32:16Z</time>
      </trkpt>
      <trkpt lat="28.5978830" lon="-17.8552230">
        <ele>1259.4</ele>
        <time>2020-11-17T10:32:17Z</time>
      </trkpt>
      <trkpt lat="28.5978830" lon="-17.8552230">
        <ele>1259.4</ele>
        <time>2020-11-17T10:32:18Z</time>
      </trkpt>
      <trkpt lat="28.5978250" lon="-17.8552730">
        <ele>1258.7</ele>
        <time>2020-11-17T10:32:19Z</time>
      </trkpt>
      <trkpt lat="28.5978250" lon="-17.8552730">
        <ele>1258.7</ele>
        <time>2020-11-17T10:32:20Z</time>
      </trkpt>
      <trkpt lat="28.5977730" lon="-17.8553180">
        <ele>1258.1</ele>
        <time>2020-11-17T10:32:21Z</time>
      </trkpt>
      <trkpt lat="28.5977480" lon="-17.8553480">
        <ele>1257.8</ele>
        <time>2020-11-17T10:32:22Z</time>
      </trkpt>
      <trkpt lat="28.5977480" lon="-17.8553480">
        <ele>1257.8</ele>
        <time>2020-11-17T10:32:23Z</time>
      </trkpt>
      <trkpt lat="28.5976830" lon="-17.8554100">
        <ele>1257.0</ele>
        <time>2020-11-17T10:32:24Z</time>
      </trkpt>
      <trkpt lat="28.5976830" lon="-17.8554100">
        <ele>1257.0</ele>
        <time>2020-11-17T10:32:25Z</time>
      </trkpt>
      <trkpt lat="28.5976170" lon="-17.8554850">
        <ele>1256.2</ele>
        <time>2020-11-17T10:32:26Z</time>
      </trkpt>
      <trkpt lat="28.5976170" lon="-17.8554850">
        <ele>1256.2</ele>
        <time>2020-11-17T10:32:27Z</time>
      </trkpt>
      <trkpt lat="28.5975720" lon="-17.8555830">
        <ele>1255.3</ele>
        <time>2020-11-17T10:32:28Z</time>
      </trkpt>
      <trkpt lat="28.5975470" lon="-17.8556300">
        <ele>1254.8</ele>
        <time>2020-11-17T10:32:29Z</time>
      </trkpt>
      <trkpt lat="28.5975470" lon="-17.8556300">
        <ele>1254.8</ele>
        <time>2020-11-17T10:32:30Z</time>
      </trkpt>
      <trkpt lat="28.5974880" lon="-17.8557270">
        <ele>1253.8</ele>
        <time>2020-11-17T10:32:31Z</time>
      </trkpt>
      <trkpt lat="28.5974550" lon="-17.8557730">
        <ele>1253.2</ele>
        <time>2020-11-17T10:32:32Z</time>
      </trkpt>
      <trkpt lat="28.5974550" lon="-17.8557730">
        <ele>1253.2</ele>
        <time>2020-11-17T10:32:33Z</time>
      </trkpt>
      <trkpt lat="28.5973870" lon="-17.8558750">
        <ele>1252.1</ele>
        <time>2020-11-17T10:32:34Z</time>
      </trkpt>
      <trkpt lat="28.5973870" lon="-17.8558750">
        <ele>1252.1</ele>
        <time>2020-11-17T10:32:35Z</time>
      </trkpt>
      <trkpt lat="28.5973180" lon="-17.8559780">
        <ele>1251.1</ele>
        <time>2020-11-17T10:32:36Z</time>
      </trkpt>
      <trkpt lat="28.5973180" lon="-17.8559780">
        <ele>1251.1</ele>
        <time>2020-11-17T10:32:37Z</time>
      </trkpt>
      <trkpt lat="28.5972530" lon="-17.8560820">
        <ele>1250.1</ele>
        <time>2020-11-17T10:32:38Z</time>
      </trkpt>
      <trkpt lat="28.5972530" lon="-17.8560820">
        <ele>1250.1</ele>
        <time>2020-11-17T10:32:39Z</time>
      </trkpt>
      <trkpt lat="28.5971900" lon="-17.8561770">
        <ele>1249.0</ele>
        <time>2020-11-17T10:32:40Z</time>
      </trkpt>
      <trkpt lat="28.5971900" lon="-17.8561770">
        <ele>1249.0</ele>
        <time>2020-11-17T10:32:41Z</time>
      </trkpt>
      <trkpt lat="28.5971530" lon="-17.8562800">
        <ele>1247.8</ele>
        <time>2020-11-17T10:32:42Z</time>
      </trkpt>
      <trkpt lat="28.5971530" lon="-17.8562800">
        <ele>1247.8</ele>
        <time>2020-11-17T10:32:43Z</time>
      </trkpt>
      <trkpt lat="28.5971470" lon="-17.8563850">
        <ele>1246.7</ele>
        <time>2020-11-17T10:32:44Z</time>
      </trkpt>
      <trkpt lat="28.5971500" lon="-17.8564370">
        <ele>1246.2</ele>
        <time>2020-11-17T10:32:45Z</time>
      </trkpt>
      <trkpt lat="28.5971500" lon="-17.8564370">
        <ele>1246.2</ele>
        <time>2020-11-17T10:32:46Z</time>
      </trkpt>
      <trkpt lat="28.5971700" lon="-17.8565570">
        <ele>1245.0</ele>
        <time>2020-11-17T10:32:47Z</time>
      </trkpt>
      <trkpt lat="28.5971820" lon="-17.8566180">
        <ele>1244.4</ele>
        <time>2020-11-17T10:32:48Z</time>
      </trkpt>
      <trkpt lat="28.5971820" lon="-17.8566180">
        <ele>1244.4</ele>
        <time>2020-11-17T10:32:49Z</time>
      </trkpt>
      <trkpt lat="28.5972080" lon="-17.8567650">
        <ele>1242.9</ele>
        <time>2020-11-17T10:32:50Z</time>
      </trkpt>
      <trkpt lat="28.5972080" lon="-17.8567650">
        <ele>1242.9</ele>
        <time>2020-11-17T10:32:51Z</time>
      </trkpt>
      <trkpt lat="28.5972470" lon="-17.8568880">
        <ele>1241.7</ele>
        <time>2020-11-17T10:32:52Z</time>
      </trkpt>
      <trkpt lat="28.5972470" lon="-17.8568880">
        <ele>1241.7</ele>
        <time>2020-11-17T10:32:53Z</time>
      </trkpt>
      <trkpt lat="28.5973000" lon="-17.8570270">
        <ele>1240.2</ele>
        <time>2020-11-17T10:32:54Z</time>
      </trkpt>
      <trkpt lat="28.5973000" lon="-17.8570270">
        <ele>1240.2</ele>
        <time>2020-11-17T10:32:55Z</time>
      </trkpt>
      <trkpt lat="28.5973330" lon="-17.8571470">
        <ele>1239.0</ele>
        <time>2020-11-17T10:32:56Z</time>
      </trkpt>
      <trkpt lat="28.5973330" lon="-17.8571470">
        <ele>1239.0</ele>
        <time>2020-11-17T10:32:57Z</time>
      </trkpt>
      <trkpt lat="28.5973620" lon="-17.8572670">
        <ele>1237.8</ele>
        <time>2020-11-17T10:32:58Z</time>
      </trkpt>
      <trkpt lat="28.5973750" lon="-17.8573270">
        <ele>1237.2</ele>
        <time>2020-11-17T10:32:59Z</time>
      </trkpt>
      <trkpt lat="28.5973750" lon="-17.8573270">
        <ele>1237.2</ele>
        <time>2020-11-17T10:33:00Z</time>
      </trkpt>
      <trkpt lat="28.5973930" lon="-17.8574330">
        <ele>1236.1</ele>
        <time>2020-11-17T10:33:01Z</time>
      </trkpt>
      <trkpt lat="28.5973930" lon="-17.8574330">
        <ele>1236.1</ele>
        <time>2020-11-17T10:33:02Z</time>
      </trkpt>
      <trkpt lat="28.5974020" lon="-17.8575470">
        <ele>1235.0</ele>
        <time>2020-11-17T10:33:03Z</time>
      </trkpt>
      <trkpt lat="28.5974020" lon="-17.8575470">
        <ele>1235.0</ele>
        <time>2020-11-17T10:33:04Z</time>
      </trkpt>
      <trkpt lat="28.5973880" lon="-17.8576570">
        <ele>1233.9</ele>
        <time>2020-11-17T10:33:05Z</time>
      </trkpt>
      <trkpt lat="28.5973880" lon="-17.8576570">
        <ele>1233.9</ele>
        <time>2020-11-17T10:33:06Z</time>
      </trkpt>
      <trkpt lat="28.5973400" lon="-17.8577670">
        <ele>1232.8</ele>
        <time>2020-11-17T10:33:07Z</time>
      </trkpt>
      <trkpt lat="28.5973080" lon="-17.8578150">
        <ele>1232.2</ele>
        <time>2020-11-17T10:33:08Z</time>
      </trkpt>
      <trkpt lat="28.5973080" lon="-17.8578150">
        <ele>1232.2</ele>
        <time>2020-11-17T10:33:09Z</time>
      </trkpt>
      <trkpt lat="28.5972400" lon="-17.8578970">
        <ele>1231.3</ele>
        <time>2020-11-17T10:33:10Z</time>
      </trkpt>
      <trkpt lat="28.5972400" lon="-17.8578970">
        <ele>1231.3</ele>
        <time>2020-11-17T10:33:11Z</time>
      </trkpt>
      <trkpt lat="28.5971620" lon="-17.8579580">
        <ele>1230.3</ele>
        <time>2020-11-17T10:33:12Z</time>
      </trkpt>
      <trkpt lat="28.5971620" lon="-17.8579580">
        <ele>1230.3</ele>
        <time>2020-11-17T10:33:13Z</time>
      </trkpt>
      <trkpt lat="28.5970850" lon="-17.8579900">
        <ele>1229.5</ele>
        <time>2020-11-17T10:33:14Z</time>
      </trkpt>
      <trkpt lat="28.5970850" lon="-17.8579900">
        <ele>1229.5</ele>
        <time>2020-11-17T10:33:15Z</time>
      </trkpt>
      <trkpt lat="28.5970120" lon="-17.8580130">
        <ele>1228.7</ele>
        <time>2020-11-17T10:33:16Z</time>
      </trkpt>
      <trkpt lat="28.5969750" lon="-17.8580280">
        <ele>1228.3</ele>
        <time>2020-11-17T10:33:17Z</time>
      </trkpt>
      <trkpt lat="28.5969750" lon="-17.8580280">
        <ele>1228.3</ele>
        <time>2020-11-17T10:33:18Z</time>
      </trkpt>
      <trkpt lat="28.5969430" lon="-17.8580920">
        <ele>1227.7</ele>
        <time>2020-11-17T10:33:19Z</time>
      </trkpt>
      <trkpt lat="28.5969430" lon="-17.8580920">
        <ele>1227.7</ele>
        <time>2020-11-17T10:33:20Z</time>
      </trkpt>
      <trkpt lat="28.5969530" lon="-17.8581830">
        <ele>1226.9</ele>
        <time>2020-11-17T10:33:21Z</time>
      </trkpt>
      <trkpt lat="28.5969530" lon="-17.8581830">
        <ele>1226.9</ele>
        <time>2020-11-17T10:33:22Z</time>
      </trkpt>
      <trkpt lat="28.5969700" lon="-17.8582780">
        <ele>1226.1</ele>
        <time>2020-11-17T10:33:23Z</time>
      </trkpt>
      <trkpt lat="28.5969780" lon="-17.8583170">
        <ele>1225.9</ele>
        <time>2020-11-17T10:33:24Z</time>
      </trkpt>
      <trkpt lat="28.5969780" lon="-17.8583170">
        <ele>1225.9</ele>
        <time>2020-11-17T10:33:25Z</time>
      </trkpt>
      <trkpt lat="28.5970220" lon="-17.8583920">
        <ele>1225.3</ele>
        <time>2020-11-17T10:33:26Z</time>
      </trkpt>
      <trkpt lat="28.5970400" lon="-17.8584430">
        <ele>1224.9</ele>
        <time>2020-11-17T10:33:27Z</time>
      </trkpt>
      <trkpt lat="28.5970600" lon="-17.8585150">
        <ele>1224.4</ele>
        <time>2020-11-17T10:33:28Z</time>
      </trkpt>
      <trkpt lat="28.5970600" lon="-17.8585150">
        <ele>1224.4</ele>
        <time>2020-11-17T10:33:29Z</time>
      </trkpt>
      <trkpt lat="28.5970300" lon="-17.8586300">
        <ele>1223.7</ele>
        <time>2020-11-17T10:33:30Z</time>
      </trkpt>
      <trkpt lat="28.5970020" lon="-17.8586650">
        <ele>1223.4</ele>
        <time>2020-11-17T10:33:31Z</time>
      </trkpt>
      <trkpt lat="28.5970020" lon="-17.8586650">
        <ele>1223.4</ele>
        <time>2020-11-17T10:33:32Z</time>
      </trkpt>
      <trkpt lat="28.5969450" lon="-17.8587200">
        <ele>1222.8</ele>
        <time>2020-11-17T10:33:33Z</time>
      </trkpt>
      <trkpt lat="28.5969450" lon="-17.8587200">
        <ele>1222.8</ele>
        <time>2020-11-17T10:33:34Z</time>
      </trkpt>
      <trkpt lat="28.5968750" lon="-17.8587630">
        <ele>1222.2</ele>
        <time>2020-11-17T10:33:35Z</time>
      </trkpt>
      <trkpt lat="28.5968370" lon="-17.8587930">
        <ele>1221.8</ele>
        <time>2020-11-17T10:33:36Z</time>
      </trkpt>
      <trkpt lat="28.5968370" lon="-17.8587930">
        <ele>1221.8</ele>
        <time>2020-11-17T10:33:37Z</time>
      </trkpt>
      <trkpt lat="28.5967580" lon="-17.8588650">
        <ele>1220.9</ele>
        <time>2020-11-17T10:33:38Z</time>
      </trkpt>
      <trkpt lat="28.5967580" lon="-17.8588650">
        <ele>1220.9</ele>
        <time>2020-11-17T10:33:39Z</time>
      </trkpt>
      <trkpt lat="28.5966750" lon="-17.8589420">
        <ele>1219.9</ele>
        <time>2020-11-17T10:33:40Z</time>
      </trkpt>
      <trkpt lat="28.5966450" lon="-17.8589870">
        <ele>1219.4</ele>
        <time>2020-11-17T10:33:41Z</time>
      </trkpt>
      <trkpt lat="28.5966170" lon="-17.8590280">
        <ele>1219.1</ele>
        <time>2020-11-17T10:33:42Z</time>
      </trkpt>
      <trkpt lat="28.5966170" lon="-17.8590280">
        <ele>1219.1</ele>
        <time>2020-11-17T10:33:43Z</time>
      </trkpt>
      <trkpt lat="28.5965530" lon="-17.8591030">
        <ele>1218.3</ele>
        <time>2020-11-17T10:33:44Z</time>
      </trkpt>
      <trkpt lat="28.5965530" lon="-17.8591030">
        <ele>1218.3</ele>
        <time>2020-11-17T10:33:45Z</time>
      </trkpt>
      <trkpt lat="28.5964730" lon="-17.8591380">
        <ele>1217.5</ele>
        <time>2020-11-17T10:33:46Z</time>
      </trkpt>
      <trkpt lat="28.5964350" lon="-17.8591350">
        <ele>1217.1</ele>
        <time>2020-11-17T10:33:47Z</time>
      </trkpt>
      <trkpt lat="28.5964350" lon="-17.8591350">
        <ele>1217.1</ele>
        <time>2020-11-17T10:33:48Z</time>
      </trkpt>
      <trkpt lat="28.5963680" lon="-17.8590900">
        <ele>1216.3</ele>
        <time>2020-11-17T10:33:49Z</time>
      </trkpt>
      <trkpt lat="28.5963680" lon="-17.8590900">
        <ele>1216.3</ele>
        <time>2020-11-17T10:33:50Z</time>
      </trkpt>
      <trkpt lat="28.5962930" lon="-17.8590070">
        <ele>1215.2</ele>
        <time>2020-11-17T10:33:51Z</time>
      </trkpt>
      <trkpt lat="28.5962930" lon="-17.8590070">
        <ele>1215.2</ele>
        <time>2020-11-17T10:33:52Z</time>
      </trkpt>
      <trkpt lat="28.5962220" lon="-17.8589370">
        <ele>1214.2</ele>
        <time>2020-11-17T10:33:53Z</time>
      </trkpt>
      <trkpt lat="28.5962220" lon="-17.8589370">
        <ele>1214.2</ele>
        <time>2020-11-17T10:33:54Z</time>
      </trkpt>
      <trkpt lat="28.5961330" lon="-17.8589000">
        <ele>1213.3</ele>
        <time>2020-11-17T10:33:55Z</time>
      </trkpt>
      <trkpt lat="28.5961330" lon="-17.8589000">
        <ele>1213.3</ele>
        <time>2020-11-17T10:33:56Z</time>
      </trkpt>
      <trkpt lat="28.5960330" lon="-17.8588870">
        <ele>1212.2</ele>
        <time>2020-11-17T10:33:57Z</time>
      </trkpt>
      <trkpt lat="28.5959770" lon="-17.8588770">
        <ele>1211.7</ele>
        <time>2020-11-17T10:33:58Z</time>
      </trkpt>
      <trkpt lat="28.5959770" lon="-17.8588770">
        <ele>1211.7</ele>
        <time>2020-11-17T10:33:59Z</time>
      </trkpt>
      <trkpt lat="28.5958580" lon="-17.8588550">
        <ele>1210.5</ele>
        <time>2020-11-17T10:34:00Z</time>
      </trkpt>
      <trkpt lat="28.5958580" lon="-17.8588550">
        <ele>1210.5</ele>
        <time>2020-11-17T10:34:01Z</time>
      </trkpt>
      <trkpt lat="28.5957380" lon="-17.8588120">
        <ele>1209.4</ele>
        <time>2020-11-17T10:34:02Z</time>
      </trkpt>
      <trkpt lat="28.5957380" lon="-17.8588120">
        <ele>1209.4</ele>
        <time>2020-11-17T10:34:03Z</time>
      </trkpt>
      <trkpt lat="28.5956280" lon="-17.8587670">
        <ele>1208.5</ele>
        <time>2020-11-17T10:34:04Z</time>
      </trkpt>
      <trkpt lat="28.5955700" lon="-17.8587530">
        <ele>1208.1</ele>
        <time>2020-11-17T10:34:05Z</time>
      </trkpt>
      <trkpt lat="28.5955700" lon="-17.8587530">
        <ele>1208.1</ele>
        <time>2020-11-17T10:34:06Z</time>
      </trkpt>
      <trkpt lat="28.5954570" lon="-17.8587620">
        <ele>1207.3</ele>
        <time>2020-11-17T10:34:07Z</time>
      </trkpt>
      <trkpt lat="28.5954570" lon="-17.8587620">
        <ele>1207.3</ele>
        <time>2020-11-17T10:34:08Z</time>
      </trkpt>
      <trkpt lat="28.5953600" lon="-17.8588000">
        <ele>1206.5</ele>
        <time>2020-11-17T10:34:09Z</time>
      </trkpt>
      <trkpt lat="28.5953600" lon="-17.8588000">
        <ele>1206.5</ele>
        <time>2020-11-17T10:34:10Z</time>
      </trkpt>
      <trkpt lat="28.5952780" lon="-17.8588320">
        <ele>1205.8</ele>
        <time>2020-11-17T10:34:11Z</time>
      </trkpt>
      <trkpt lat="28.5952780" lon="-17.8588320">
        <ele>1205.8</ele>
        <time>2020-11-17T10:34:12Z</time>
      </trkpt>
      <trkpt lat="28.5951720" lon="-17.8588630">
        <ele>1204.9</ele>
        <time>2020-11-17T10:34:13Z</time>
      </trkpt>
      <trkpt lat="28.5951170" lon="-17.8588630">
        <ele>1204.4</ele>
        <time>2020-11-17T10:34:14Z</time>
      </trkpt>
      <trkpt lat="28.5951170" lon="-17.8588630">
        <ele>1204.4</ele>
        <time>2020-11-17T10:34:15Z</time>
      </trkpt>
      <trkpt lat="28.5950320" lon="-17.8588220">
        <ele>1203.7</ele>
        <time>2020-11-17T10:34:16Z</time>
      </trkpt>
      <trkpt lat="28.5949980" lon="-17.8587880">
        <ele>1203.3</ele>
        <time>2020-11-17T10:34:17Z</time>
      </trkpt>
      <trkpt lat="28.5949980" lon="-17.8587880">
        <ele>1203.3</ele>
        <time>2020-11-17T10:34:18Z</time>
      </trkpt>
      <trkpt lat="28.5949350" lon="-17.8587100">
        <ele>1202.7</ele>
        <time>2020-11-17T10:34:19Z</time>
      </trkpt>
      <trkpt lat="28.5949350" lon="-17.8587100">
        <ele>1202.7</ele>
        <time>2020-11-17T10:34:20Z</time>
      </trkpt>
      <trkpt lat="28.5949280" lon="-17.8586050">
        <ele>1202.2</ele>
        <time>2020-11-17T10:34:21Z</time>
      </trkpt>
      <trkpt lat="28.5949280" lon="-17.8586050">
        <ele>1202.2</ele>
        <time>2020-11-17T10:34:22Z</time>
      </trkpt>
      <trkpt lat="28.5949150" lon="-17.8585080">
        <ele>1201.7</ele>
        <time>2020-11-17T10:34:23Z</time>
      </trkpt>
      <trkpt lat="28.5948880" lon="-17.8584770">
        <ele>1201.5</ele>
        <time>2020-11-17T10:34:24Z</time>
      </trkpt>
      <trkpt lat="28.5948400" lon="-17.8584630">
        <ele>1201.1</ele>
        <time>2020-11-17T10:34:25Z</time>
      </trkpt>
      <trkpt lat="28.5948400" lon="-17.8584630">
        <ele>1201.1</ele>
        <time>2020-11-17T10:34:26Z</time>
      </trkpt>
      <trkpt lat="28.5947470" lon="-17.8584820">
        <ele>1200.6</ele>
        <time>2020-11-17T10:34:27Z</time>
      </trkpt>
      <trkpt lat="28.5947470" lon="-17.8584820">
        <ele>1200.6</ele>
        <time>2020-11-17T10:34:28Z</time>
      </trkpt>
      <trkpt lat="28.5946580" lon="-17.8585270">
        <ele>1200.0</ele>
        <time>2020-11-17T10:34:29Z</time>
      </trkpt>
      <trkpt lat="28.5946080" lon="-17.8585250">
        <ele>1199.7</ele>
        <time>2020-11-17T10:34:30Z</time>
      </trkpt>
      <trkpt lat="28.5946080" lon="-17.8585250">
        <ele>1199.7</ele>
        <time>2020-11-17T10:34:31Z</time>
      </trkpt>
      <trkpt lat="28.5945350" lon="-17.8584720">
        <ele>1199.2</ele>
        <time>2020-11-17T10:34:32Z</time>
      </trkpt>
      <trkpt lat="28.5945170" lon="-17.8584300">
        <ele>1199.0</ele>
        <time>2020-11-17T10:34:33Z</time>
      </trkpt>
      <trkpt lat="28.5945170" lon="-17.8584300">
        <ele>1199.0</ele>
        <time>2020-11-17T10:34:34Z</time>
      </trkpt>
      <trkpt lat="28.5945030" lon="-17.8583430">
        <ele>1198.7</ele>
        <time>2020-11-17T10:34:35Z</time>
      </trkpt>
      <trkpt lat="28.5945030" lon="-17.8583430">
        <ele>1198.7</ele>
        <time>2020-11-17T10:34:36Z</time>
      </trkpt>
      <trkpt lat="28.5944830" lon="-17.8582500">
        <ele>1198.4</ele>
        <time>2020-11-17T10:34:37Z</time>
      </trkpt>
      <trkpt lat="28.5944830" lon="-17.8582500">
        <ele>1198.4</ele>
        <time>2020-11-17T10:34:38Z</time>
      </trkpt>
      <trkpt lat="28.5944100" lon="-17.8582020">
        <ele>1198.0</ele>
        <time>2020-11-17T10:34:39Z</time>
      </trkpt>
      <trkpt lat="28.5944100" lon="-17.8582020">
        <ele>1198.0</ele>
        <time>2020-11-17T10:34:40Z</time>
      </trkpt>
      <trkpt lat="28.5943420" lon="-17.8581980">
        <ele>1197.6</ele>
        <time>2020-11-17T10:34:41Z</time>
      </trkpt>
      <trkpt lat="28.5943420" lon="-17.8581980">
        <ele>1197.6</ele>
        <time>2020-11-17T10:34:42Z</time>
      </trkpt>
      <trkpt lat="28.5942870" lon="-17.8581770">
        <ele>1197.3</ele>
        <time>2020-11-17T10:34:43Z</time>
      </trkpt>
      <trkpt lat="28.5942870" lon="-17.8581770">
        <ele>1197.3</ele>
        <time>2020-11-17T10:34:44Z</time>
      </trkpt>
      <trkpt lat="28.5942650" lon="-17.8581030">
        <ele>1196.9</ele>
        <time>2020-11-17T10:34:45Z</time>
      </trkpt>
      <trkpt lat="28.5942650" lon="-17.8581030">
        <ele>1196.9</ele>
        <time>2020-11-17T10:34:46Z</time>
      </trkpt>
      <trkpt lat="28.5942480" lon="-17.8580130">
        <ele>1196.3</ele>
        <time>2020-11-17T10:34:47Z</time>
      </trkpt>
      <trkpt lat="28.5942280" lon="-17.8579700">
        <ele>1196.1</ele>
        <time>2020-11-17T10:34:48Z</time>
      </trkpt>
      <trkpt lat="28.5942280" lon="-17.8579700">
        <ele>1196.1</ele>
        <time>2020-11-17T10:34:49Z</time>
      </trkpt>
      <trkpt lat="28.5941420" lon="-17.8579220">
        <ele>1195.5</ele>
        <time>2020-11-17T10:34:50Z</time>
      </trkpt>
      <trkpt lat="28.5940900" lon="-17.8579250">
        <ele>1195.2</ele>
        <time>2020-11-17T10:34:51Z</time>
      </trkpt>
      <trkpt lat="28.5940900" lon="-17.8579250">
        <ele>1195.2</ele>
        <time>2020-11-17T10:34:52Z</time>
      </trkpt>
      <trkpt lat="28.5939920" lon="-17.8579320">
        <ele>1194.7</ele>
        <time>2020-11-17T10:34:53Z</time>
      </trkpt>
      <trkpt lat="28.5939920" lon="-17.8579320">
        <ele>1194.7</ele>
        <time>2020-11-17T10:34:54Z</time>
      </trkpt>
      <trkpt lat="28.5939000" lon="-17.8579430">
        <ele>1194.3</ele>
        <time>2020-11-17T10:34:55Z</time>
      </trkpt>
      <trkpt lat="28.5939000" lon="-17.8579430">
        <ele>1194.3</ele>
        <time>2020-11-17T10:34:56Z</time>
      </trkpt>
      <trkpt lat="28.5938030" lon="-17.8579780">
        <ele>1194.1</ele>
        <time>2020-11-17T10:34:57Z</time>
      </trkpt>
      <trkpt lat="28.5938030" lon="-17.8579780">
        <ele>1194.1</ele>
        <time>2020-11-17T10:34:58Z</time>
      </trkpt>
      <trkpt lat="28.5937430" lon="-17.8580180">
        <ele>1194.4</ele>
        <time>2020-11-17T10:34:59Z</time>
      </trkpt>
      <trkpt lat="28.5937430" lon="-17.8580180">
        <ele>1194.4</ele>
        <time>2020-11-17T10:35:00Z</time>
      </trkpt>
      <trkpt lat="28.5936980" lon="-17.8580730">
        <ele>1194.9</ele>
        <time>2020-11-17T10:35:01Z</time>
      </trkpt>
      <trkpt lat="28.5936830" lon="-17.8580970">
        <ele>1195.1</ele>
        <time>2020-11-17T10:35:02Z</time>
      </trkpt>
      <trkpt lat="28.5936830" lon="-17.8580970">
        <ele>1195.1</ele>
        <time>2020-11-17T10:35:03Z</time>
      </trkpt>
      <trkpt lat="28.5936600" lon="-17.8581320">
        <ele>1195.4</ele>
        <time>2020-11-17T10:35:04Z</time>
      </trkpt>
      <trkpt lat="28.5936600" lon="-17.8581320">
        <ele>1195.4</ele>
        <time>2020-11-17T10:35:05Z</time>
      </trkpt>
      <trkpt lat="28.5936380" lon="-17.8581600">
        <ele>1195.7</ele>
        <time>2020-11-17T10:35:06Z</time>
      </trkpt>
      <trkpt lat="28.5936380" lon="-17.8581600">
        <ele>1195.7</ele>
        <time>2020-11-17T10:35:07Z</time>
      </trkpt>
      <trkpt lat="28.5936150" lon="-17.8581880">
        <ele>1196.0</ele>
        <time>2020-11-17T10:35:08Z</time>
      </trkpt>
      <trkpt lat="28.5936000" lon="-17.8581980">
        <ele>1196.1</ele>
        <time>2020-11-17T10:35:09Z</time>
      </trkpt>
      <trkpt lat="28.5936000" lon="-17.8581980">
        <ele>1196.1</ele>
        <time>2020-11-17T10:35:10Z</time>
      </trkpt>
      <trkpt lat="28.5935730" lon="-17.8582230">
        <ele>1196.4</ele>
        <time>2020-11-17T10:35:11Z</time>
      </trkpt>
      <trkpt lat="28.5935730" lon="-17.8582230">
        <ele>1196.4</ele>
        <time>2020-11-17T10:35:12Z</time>
      </trkpt>
      <trkpt lat="28.5935430" lon="-17.8582380">
        <ele>1196.8</ele>
        <time>2020-11-17T10:35:13Z</time>
      </trkpt>
      <trkpt lat="28.5935430" lon="-17.8582380">
        <ele>1196.8</ele>
        <time>2020-11-17T10:35:14Z</time>
      </trkpt>
      <trkpt lat="28.5935170" lon="-17.8582520">
        <ele>1197.0</ele>
        <time>2020-11-17T10:35:15Z</time>
      </trkpt>
      <trkpt lat="28.5935170" lon="-17.8582520">
        <ele>1197.0</ele>
        <time>2020-11-17T10:35:16Z</time>
      </trkpt>
      <trkpt lat="28.5934830" lon="-17.8582630">
        <ele>1197.3</ele>
        <time>2020-11-17T10:35:17Z</time>
      </trkpt>
      <trkpt lat="28.5934670" lon="-17.8582680">
        <ele>1197.5</ele>
        <time>2020-11-17T10:35:18Z</time>
      </trkpt>
      <trkpt lat="28.5934670" lon="-17.8582680">
        <ele>1197.5</ele>
        <time>2020-11-17T10:35:19Z</time>
      </trkpt>
      <trkpt lat="28.5934320" lon="-17.8582800">
        <ele>1197.8</ele>
        <time>2020-11-17T10:35:20Z</time>
      </trkpt>
      <trkpt lat="28.5934150" lon="-17.8582880">
        <ele>1198.0</ele>
        <time>2020-11-17T10:35:21Z</time>
      </trkpt>
      <trkpt lat="28.5934150" lon="-17.8582880">
        <ele>1198.0</ele>
        <time>2020-11-17T10:35:22Z</time>
      </trkpt>
      <trkpt lat="28.5933800" lon="-17.8582970">
        <ele>1198.3</ele>
        <time>2020-11-17T10:35:23Z</time>
      </trkpt>
      <trkpt lat="28.5933800" lon="-17.8582970">
        <ele>1198.3</ele>
        <time>2020-11-17T10:35:24Z</time>
      </trkpt>
      <trkpt lat="28.5933420" lon="-17.8583020">
        <ele>1198.6</ele>
        <time>2020-11-17T10:35:25Z</time>
      </trkpt>
      <trkpt lat="28.5933420" lon="-17.8583020">
        <ele>1198.6</ele>
        <time>2020-11-17T10:35:26Z</time>
      </trkpt>
      <trkpt lat="28.5933080" lon="-17.8583150">
        <ele>1199.0</ele>
        <time>2020-11-17T10:35:27Z</time>
      </trkpt>
      <trkpt lat="28.5932950" lon="-17.8583200">
        <ele>1199.1</ele>
        <time>2020-11-17T10:35:28Z</time>
      </trkpt>
      <trkpt lat="28.5932850" lon="-17.8583230">
        <ele>1199.2</ele>
        <time>2020-11-17T10:35:29Z</time>
      </trkpt>
      <trkpt lat="28.5932850" lon="-17.8583230">
        <ele>1199.2</ele>
        <time>2020-11-17T10:35:30Z</time>
      </trkpt>
      <trkpt lat="28.5932670" lon="-17.8583350">
        <ele>1199.4</ele>
        <time>2020-11-17T10:35:31Z</time>
      </trkpt>
      <trkpt lat="28.5932580" lon="-17.8583370">
        <ele>1199.5</ele>
        <time>2020-11-17T10:35:32Z</time>
      </trkpt>
      <trkpt lat="28.5932580" lon="-17.8583370">
        <ele>1199.5</ele>
        <time>2020-11-17T10:35:33Z</time>
      </trkpt>
      <trkpt lat="28.5932320" lon="-17.8583270">
        <ele>1199.7</ele>
        <time>2020-11-17T10:35:34Z</time>
      </trkpt>
      <trkpt lat="28.5932320" lon="-17.8583270">
        <ele>1199.7</ele>
        <time>2020-11-17T10:35:35Z</time>
      </trkpt>
      <trkpt lat="28.5931950" lon="-17.8583320">
        <ele>1200.0</ele>
        <time>2020-11-17T10:35:36Z</time>
      </trkpt>
      <trkpt lat="28.5931950" lon="-17.8583320">
        <ele>1200.0</ele>
        <time>2020-11-17T10:35:37Z</time>
      </trkpt>
      <trkpt lat="28.5931620" lon="-17.8583480">
        <ele>1200.4</ele>
        <time>2020-11-17T10:35:38Z</time>
      </trkpt>
      <trkpt lat="28.5931480" lon="-17.8583530">
        <ele>1200.5</ele>
        <time>2020-11-17T10:35:39Z</time>
      </trkpt>
      <trkpt lat="28.5931400" lon="-17.8583630">
        <ele>1200.6</ele>
        <time>2020-11-17T10:35:40Z</time>
      </trkpt>
      <trkpt lat="28.5931400" lon="-17.8583630">
        <ele>1200.6</ele>
        <time>2020-11-17T10:35:41Z</time>
      </trkpt>
      <trkpt lat="28.5931080" lon="-17.8583970">
        <ele>1201.0</ele>
        <time>2020-11-17T10:35:42Z</time>
      </trkpt>
      <trkpt lat="28.5931080" lon="-17.8583970">
        <ele>1201.0</ele>
        <time>2020-11-17T10:35:43Z</time>
      </trkpt>
      <trkpt lat="28.5930900" lon="-17.8584330">
        <ele>1201.3</ele>
        <time>2020-11-17T10:35:44Z</time>
      </trkpt>
      <trkpt lat="28.5930900" lon="-17.8584330">
        <ele>1201.3</ele>
        <time>2020-11-17T10:35:45Z</time>
      </trkpt>
      <trkpt lat="28.5930620" lon="-17.8584580">
        <ele>1201.6</ele>
        <time>2020-11-17T10:35:46Z</time>
      </trkpt>
      <trkpt lat="28.5930470" lon="-17.8584650">
        <ele>1201.8</ele>
        <time>2020-11-17T10:35:47Z</time>
      </trkpt>
      <trkpt lat="28.5930370" lon="-17.8584800">
        <ele>1201.9</ele>
        <time>2020-11-17T10:35:48Z</time>
      </trkpt>
      <trkpt lat="28.5930370" lon="-17.8584800">
        <ele>1201.9</ele>
        <time>2020-11-17T10:35:49Z</time>
      </trkpt>
      <trkpt lat="28.5930100" lon="-17.8585000">
        <ele>1202.1</ele>
        <time>2020-11-17T10:35:50Z</time>
      </trkpt>
      <trkpt lat="28.5929970" lon="-17.8585080">
        <ele>1202.2</ele>
        <time>2020-11-17T10:35:51Z</time>
      </trkpt>
      <trkpt lat="28.5929800" lon="-17.8585130">
        <ele>1202.4</ele>
        <time>2020-11-17T10:35:52Z</time>
      </trkpt>
      <trkpt lat="28.5929800" lon="-17.8585130">
        <ele>1202.4</ele>
        <time>2020-11-17T10:35:53Z</time>
      </trkpt>
      <trkpt lat="28.5929520" lon="-17.8585220">
        <ele>1202.6</ele>
        <time>2020-11-17T10:35:54Z</time>
      </trkpt>
      <trkpt lat="28.5929520" lon="-17.8585220">
        <ele>1202.6</ele>
        <time>2020-11-17T10:35:55Z</time>
      </trkpt>
      <trkpt lat="28.5929100" lon="-17.8585380">
        <ele>1202.9</ele>
        <time>2020-11-17T10:35:56Z</time>
      </trkpt>
      <trkpt lat="28.5928900" lon="-17.8585380">
        <ele>1203.0</ele>
        <time>2020-11-17T10:35:57Z</time>
      </trkpt>
      <trkpt lat="28.5928900" lon="-17.8585380">
        <ele>1203.0</ele>
        <time>2020-11-17T10:35:58Z</time>
      </trkpt>
      <trkpt lat="28.5928580" lon="-17.8585380">
        <ele>1203.3</ele>
        <time>2020-11-17T10:35:59Z</time>
      </trkpt>
      <trkpt lat="28.5928580" lon="-17.8585380">
        <ele>1203.3</ele>
        <time>2020-11-17T10:36:00Z</time>
      </trkpt>
      <trkpt lat="28.5928330" lon="-17.8585430">
        <ele>1203.5</ele>
        <time>2020-11-17T10:36:01Z</time>
      </trkpt>
      <trkpt lat="28.5928330" lon="-17.8585430">
        <ele>1203.5</ele>
        <time>2020-11-17T10:36:02Z</time>
      </trkpt>
      <trkpt lat="28.5928080" lon="-17.8585400">
        <ele>1203.6</ele>
        <time>2020-11-17T10:36:03Z</time>
      </trkpt>
      <trkpt lat="28.5927970" lon="-17.8585330">
        <ele>1203.7</ele>
        <time>2020-11-17T10:36:04Z</time>
      </trkpt>
      <trkpt lat="28.5927970" lon="-17.8585330">
        <ele>1203.7</ele>
        <time>2020-11-17T10:36:05Z</time>
      </trkpt>
      <trkpt lat="28.5927730" lon="-17.8585300">
        <ele>1203.9</ele>
        <time>2020-11-17T10:36:06Z</time>
      </trkpt>
      <trkpt lat="28.5927630" lon="-17.8585300">
        <ele>1204.0</ele>
        <time>2020-11-17T10:36:07Z</time>
      </trkpt>
      <trkpt lat="28.5927630" lon="-17.8585300">
        <ele>1204.0</ele>
        <time>2020-11-17T10:36:08Z</time>
      </trkpt>
      <trkpt lat="28.5927370" lon="-17.8585300">
        <ele>1204.2</ele>
        <time>2020-11-17T10:36:09Z</time>
      </trkpt>
      <trkpt lat="28.5927230" lon="-17.8585280">
        <ele>1204.3</ele>
        <time>2020-11-17T10:36:10Z</time>
      </trkpt>
      <trkpt lat="28.5927070" lon="-17.8585320">
        <ele>1204.5</ele>
        <time>2020-11-17T10:36:11Z</time>
      </trkpt>
      <trkpt lat="28.5926900" lon="-17.8585330">
        <ele>1204.6</ele>
        <time>2020-11-17T10:36:12Z</time>
      </trkpt>
      <trkpt lat="28.5926900" lon="-17.8585330">
        <ele>1204.6</ele>
        <time>2020-11-17T10:36:13Z</time>
      </trkpt>
      <trkpt lat="28.5926530" lon="-17.8585470">
        <ele>1205.0</ele>
        <time>2020-11-17T10:36:14Z</time>
      </trkpt>
      <trkpt lat="28.5926530" lon="-17.8585470">
        <ele>1205.0</ele>
        <time>2020-11-17T10:36:15Z</time>
      </trkpt>
      <trkpt lat="28.5926250" lon="-17.8585580">
        <ele>1205.3</ele>
        <time>2020-11-17T10:36:16Z</time>
      </trkpt>
      <trkpt lat="28.5926120" lon="-17.8585680">
        <ele>1205.5</ele>
        <time>2020-11-17T10:36:17Z</time>
      </trkpt>
      <trkpt lat="28.5926120" lon="-17.8585680">
        <ele>1205.5</ele>
        <time>2020-11-17T10:36:18Z</time>
      </trkpt>
      <trkpt lat="28.5925800" lon="-17.8585870">
        <ele>1205.8</ele>
        <time>2020-11-17T10:36:19Z</time>
      </trkpt>
      <trkpt lat="28.5925800" lon="-17.8585870">
        <ele>1205.8</ele>
        <time>2020-11-17T10:36:20Z</time>
      </trkpt>
      <trkpt lat="28.5925470" lon="-17.8586020">
        <ele>1206.2</ele>
        <time>2020-11-17T10:36:21Z</time>
      </trkpt>
      <trkpt lat="28.5925300" lon="-17.8586080">
        <ele>1206.3</ele>
        <time>2020-11-17T10:36:22Z</time>
      </trkpt>
      <trkpt lat="28.5925150" lon="-17.8586170">
        <ele>1206.5</ele>
        <time>2020-11-17T10:36:23Z</time>
      </trkpt>
      <trkpt lat="28.5925150" lon="-17.8586170">
        <ele>1206.5</ele>
        <time>2020-11-17T10:36:24Z</time>
      </trkpt>
      <trkpt lat="28.5924880" lon="-17.8586430">
        <ele>1206.9</ele>
        <time>2020-11-17T10:36:25Z</time>
      </trkpt>
      <trkpt lat="28.5924880" lon="-17.8586430">
        <ele>1206.9</ele>
        <time>2020-11-17T10:36:26Z</time>
      </trkpt>
      <trkpt lat="28.5924450" lon="-17.8586680">
        <ele>1207.3</ele>
        <time>2020-11-17T10:36:27Z</time>
      </trkpt>
      <trkpt lat="28.5924300" lon="-17.8586750">
        <ele>1207.5</ele>
        <time>2020-11-17T10:36:28Z</time>
      </trkpt>
      <trkpt lat="28.5924120" lon="-17.8586780">
        <ele>1207.7</ele>
        <time>2020-11-17T10:36:29Z</time>
      </trkpt>
      <trkpt lat="28.5924120" lon="-17.8586780">
        <ele>1207.7</ele>
        <time>2020-11-17T10:36:30Z</time>
      </trkpt>
      <trkpt lat="28.5923700" lon="-17.8586880">
        <ele>1208.1</ele>
        <time>2020-11-17T10:36:31Z</time>
      </trkpt>
      <trkpt lat="28.5923700" lon="-17.8586880">
        <ele>1208.1</ele>
        <time>2020-11-17T10:36:32Z</time>
      </trkpt>
      <trkpt lat="28.5923420" lon="-17.8586980">
        <ele>1208.3</ele>
        <time>2020-11-17T10:36:33Z</time>
      </trkpt>
      <trkpt lat="28.5923420" lon="-17.8586980">
        <ele>1208.3</ele>
        <time>2020-11-17T10:36:34Z</time>
      </trkpt>
      <trkpt lat="28.5923200" lon="-17.8587170">
        <ele>1208.6</ele>
        <time>2020-11-17T10:36:35Z</time>
      </trkpt>
      <trkpt lat="28.5923080" lon="-17.8587230">
        <ele>1208.7</ele>
        <time>2020-11-17T10:36:36Z</time>
      </trkpt>
      <trkpt lat="28.5923080" lon="-17.8587230">
        <ele>1208.7</ele>
        <time>2020-11-17T10:36:37Z</time>
      </trkpt>
      <trkpt lat="28.5922780" lon="-17.8587270">
        <ele>1208.9</ele>
        <time>2020-11-17T10:36:38Z</time>
      </trkpt>
      <trkpt lat="28.5922780" lon="-17.8587270">
        <ele>1208.9</ele>
        <time>2020-11-17T10:36:39Z</time>
      </trkpt>
      <trkpt lat="28.5922520" lon="-17.8587320">
        <ele>1209.2</ele>
        <time>2020-11-17T10:36:40Z</time>
      </trkpt>
      <trkpt lat="28.5922520" lon="-17.8587320">
        <ele>1209.2</ele>
        <time>2020-11-17T10:36:41Z</time>
      </trkpt>
      <trkpt lat="28.5922220" lon="-17.8587330">
        <ele>1209.5</ele>
        <time>2020-11-17T10:36:42Z</time>
      </trkpt>
      <trkpt lat="28.5922220" lon="-17.8587330">
        <ele>1209.5</ele>
        <time>2020-11-17T10:36:43Z</time>
      </trkpt>
      <trkpt lat="28.5921970" lon="-17.8587480">
        <ele>1209.7</ele>
        <time>2020-11-17T10:36:44Z</time>
      </trkpt>
      <trkpt lat="28.5921830" lon="-17.8587550">
        <ele>1209.9</ele>
        <time>2020-11-17T10:36:45Z</time>
      </trkpt>
      <trkpt lat="28.5921830" lon="-17.8587550">
        <ele>1209.9</ele>
        <time>2020-11-17T10:36:46Z</time>
      </trkpt>
      <trkpt lat="28.5921570" lon="-17.8587630">
        <ele>1210.2</ele>
        <time>2020-11-17T10:36:47Z</time>
      </trkpt>
      <trkpt lat="28.5921570" lon="-17.8587630">
        <ele>1210.2</ele>
        <time>2020-11-17T10:36:48Z</time>
      </trkpt>
      <trkpt lat="28.5921250" lon="-17.8587770">
        <ele>1210.5</ele>
        <time>2020-11-17T10:36:49Z</time>
      </trkpt>
      <trkpt lat="28.5921250" lon="-17.8587770">
        <ele>1210.5</ele>
        <time>2020-11-17T10:36:50Z</time>
      </trkpt>
      <trkpt lat="28.5920980" lon="-17.8587950">
        <ele>1210.8</ele>
        <time>2020-11-17T10:36:51Z</time>
      </trkpt>
      <trkpt lat="28.5920980" lon="-17.8587950">
        <ele>1210.8</ele>
        <time>2020-11-17T10:36:52Z</time>
      </trkpt>
      <trkpt lat="28.5920700" lon="-17.8588070">
        <ele>1211.1</ele>
        <time>2020-11-17T10:36:53Z</time>
      </trkpt>
      <trkpt lat="28.5920550" lon="-17.8588120">
        <ele>1211.2</ele>
        <time>2020-11-17T10:36:54Z</time>
      </trkpt>
      <trkpt lat="28.5920550" lon="-17.8588120">
        <ele>1211.2</ele>
        <time>2020-11-17T10:36:55Z</time>
      </trkpt>
      <trkpt lat="28.5920300" lon="-17.8588270">
        <ele>1211.5</ele>
        <time>2020-11-17T10:36:56Z</time>
      </trkpt>
      <trkpt lat="28.5920300" lon="-17.8588270">
        <ele>1211.5</ele>
        <time>2020-11-17T10:36:57Z</time>
      </trkpt>
      <trkpt lat="28.5919970" lon="-17.8588470">
        <ele>1211.9</ele>
        <time>2020-11-17T10:36:58Z</time>
      </trkpt>
      <trkpt lat="28.5919770" lon="-17.8588530">
        <ele>1212.1</ele>
        <time>2020-11-17T10:36:59Z</time>
      </trkpt>
      <trkpt lat="28.5919600" lon="-17.8588650">
        <ele>1212.3</ele>
        <time>2020-11-17T10:37:00Z</time>
      </trkpt>
      <trkpt lat="28.5919600" lon="-17.8588650">
        <ele>1212.3</ele>
        <time>2020-11-17T10:37:01Z</time>
      </trkpt>
      <trkpt lat="28.5919300" lon="-17.8588850">
        <ele>1212.6</ele>
        <time>2020-11-17T10:37:02Z</time>
      </trkpt>
      <trkpt lat="28.5919300" lon="-17.8588850">
        <ele>1212.6</ele>
        <time>2020-11-17T10:37:03Z</time>
      </trkpt>
      <trkpt lat="28.5918980" lon="-17.8589070">
        <ele>1213.0</ele>
        <time>2020-11-17T10:37:04Z</time>
      </trkpt>
      <trkpt lat="28.5918820" lon="-17.8589130">
        <ele>1213.2</ele>
        <time>2020-11-17T10:37:05Z</time>
      </trkpt>
      <trkpt lat="28.5918820" lon="-17.8589130">
        <ele>1213.2</ele>
        <time>2020-11-17T10:37:06Z</time>
      </trkpt>
      <trkpt lat="28.5918500" lon="-17.8589280">
        <ele>1213.7</ele>
        <time>2020-11-17T10:37:07Z</time>
      </trkpt>
      <trkpt lat="28.5918370" lon="-17.8589350">
        <ele>1213.8</ele>
        <time>2020-11-17T10:37:08Z</time>
      </trkpt>
      <trkpt lat="28.5918370" lon="-17.8589350">
        <ele>1213.8</ele>
        <time>2020-11-17T10:37:09Z</time>
      </trkpt>
      <trkpt lat="28.5918120" lon="-17.8589430">
        <ele>1214.1</ele>
        <time>2020-11-17T10:37:10Z</time>
      </trkpt>
      <trkpt lat="28.5918120" lon="-17.8589430">
        <ele>1214.1</ele>
        <time>2020-11-17T10:37:11Z</time>
      </trkpt>
      <trkpt lat="28.5917830" lon="-17.8589500">
        <ele>1214.5</ele>
        <time>2020-11-17T10:37:12Z</time>
      </trkpt>
      <trkpt lat="28.5917830" lon="-17.8589500">
        <ele>1214.5</ele>
        <time>2020-11-17T10:37:13Z</time>
      </trkpt>
      <trkpt lat="28.5917530" lon="-17.8589500">
        <ele>1214.8</ele>
        <time>2020-11-17T10:37:14Z</time>
      </trkpt>
      <trkpt lat="28.5917530" lon="-17.8589500">
        <ele>1214.8</ele>
        <time>2020-11-17T10:37:15Z</time>
      </trkpt>
      <trkpt lat="28.5917220" lon="-17.8589430">
        <ele>1215.2</ele>
        <time>2020-11-17T10:37:16Z</time>
      </trkpt>
      <trkpt lat="28.5917100" lon="-17.8589420">
        <ele>1215.3</ele>
        <time>2020-11-17T10:37:17Z</time>
      </trkpt>
      <trkpt lat="28.5917100" lon="-17.8589420">
        <ele>1215.3</ele>
        <time>2020-11-17T10:37:18Z</time>
      </trkpt>
      <trkpt lat="28.5916900" lon="-17.8589450">
        <ele>1215.5</ele>
        <time>2020-11-17T10:37:19Z</time>
      </trkpt>
      <trkpt lat="28.5916900" lon="-17.8589450">
        <ele>1215.5</ele>
        <time>2020-11-17T10:37:20Z</time>
      </trkpt>
      <trkpt lat="28.5916630" lon="-17.8589450">
        <ele>1215.8</ele>
        <time>2020-11-17T10:37:21Z</time>
      </trkpt>
      <trkpt lat="28.5916630" lon="-17.8589450">
        <ele>1215.8</ele>
        <time>2020-11-17T10:37:22Z</time>
      </trkpt>
      <trkpt lat="28.5916380" lon="-17.8589350">
        <ele>1216.1</ele>
        <time>2020-11-17T10:37:23Z</time>
      </trkpt>
      <trkpt lat="28.5916280" lon="-17.8589270">
        <ele>1216.2</ele>
        <time>2020-11-17T10:37:24Z</time>
      </trkpt>
      <trkpt lat="28.5916280" lon="-17.8589270">
        <ele>1216.2</ele>
        <time>2020-11-17T10:37:25Z</time>
      </trkpt>
      <trkpt lat="28.5916050" lon="-17.8589200">
        <ele>1216.4</ele>
        <time>2020-11-17T10:37:26Z</time>
      </trkpt>
      <trkpt lat="28.5916050" lon="-17.8589200">
        <ele>1216.4</ele>
        <time>2020-11-17T10:37:27Z</time>
      </trkpt>
      <trkpt lat="28.5915700" lon="-17.8589220">
        <ele>1216.8</ele>
        <time>2020-11-17T10:37:28Z</time>
      </trkpt>
      <trkpt lat="28.5915700" lon="-17.8589220">
        <ele>1216.8</ele>
        <time>2020-11-17T10:37:29Z</time>
      </trkpt>
      <trkpt lat="28.5915370" lon="-17.8589120">
        <ele>1217.1</ele>
        <time>2020-11-17T10:37:30Z</time>
      </trkpt>
      <trkpt lat="28.5915370" lon="-17.8589120">
        <ele>1217.1</ele>
        <time>2020-11-17T10:37:31Z</time>
      </trkpt>
      <trkpt lat="28.5915170" lon="-17.8589050">
        <ele>1217.3</ele>
        <time>2020-11-17T10:37:32Z</time>
      </trkpt>
      <trkpt lat="28.5915170" lon="-17.8589050">
        <ele>1217.3</ele>
        <time>2020-11-17T10:37:33Z</time>
      </trkpt>
      <trkpt lat="28.5914880" lon="-17.8589080">
        <ele>1217.6</ele>
        <time>2020-11-17T10:37:34Z</time>
      </trkpt>
      <trkpt lat="28.5914730" lon="-17.8589170">
        <ele>1217.8</ele>
        <time>2020-11-17T10:37:35Z</time>
      </trkpt>
      <trkpt lat="28.5914730" lon="-17.8589170">
        <ele>1217.8</ele>
        <time>2020-11-17T10:37:36Z</time>
      </trkpt>
      <trkpt lat="28.5914480" lon="-17.8589220">
        <ele>1218.0</ele>
        <time>2020-11-17T10:37:37Z</time>
      </trkpt>
      <trkpt lat="28.5914370" lon="-17.8589250">
        <ele>1218.1</ele>
        <time>2020-11-17T10:37:38Z</time>
      </trkpt>
      <trkpt lat="28.5914370" lon="-17.8589250">
        <ele>1218.1</ele>
        <time>2020-11-17T10:37:39Z</time>
      </trkpt>
      <trkpt lat="28.5914120" lon="-17.8589330">
        <ele>1218.4</ele>
        <time>2020-11-17T10:37:40Z</time>
      </trkpt>
      <trkpt lat="28.5914120" lon="-17.8589330">
        <ele>1218.4</ele>
        <time>2020-11-17T10:37:41Z</time>
      </trkpt>
      <trkpt lat="28.5913750" lon="-17.8589370">
        <ele>1218.8</ele>
        <time>2020-11-17T10:37:42Z</time>
      </trkpt>
      <trkpt lat="28.5913750" lon="-17.8589370">
        <ele>1218.8</ele>
        <time>2020-11-17T10:37:43Z</time>
      </trkpt>
      <trkpt lat="28.5913370" lon="-17.8589280">
        <ele>1219.1</ele>
        <time>2020-11-17T10:37:44Z</time>
      </trkpt>
      <trkpt lat="28.5913370" lon="-17.8589280">
        <ele>1219.1</ele>
        <time>2020-11-17T10:37:45Z</time>
      </trkpt>
      <trkpt lat="28.5913000" lon="-17.8589320">
        <ele>1219.5</ele>
        <time>2020-11-17T10:37:46Z</time>
      </trkpt>
      <trkpt lat="28.5913000" lon="-17.8589320">
        <ele>1219.5</ele>
        <time>2020-11-17T10:37:47Z</time>
      </trkpt>
      <trkpt lat="28.5912670" lon="-17.8589220">
        <ele>1219.8</ele>
        <time>2020-11-17T10:37:48Z</time>
      </trkpt>
      <trkpt lat="28.5912530" lon="-17.8589150">
        <ele>1220.0</ele>
        <time>2020-11-17T10:37:49Z</time>
      </trkpt>
      <trkpt lat="28.5912530" lon="-17.8589150">
        <ele>1220.0</ele>
        <time>2020-11-17T10:37:50Z</time>
      </trkpt>
      <trkpt lat="28.5912280" lon="-17.8589000">
        <ele>1220.2</ele>
        <time>2020-11-17T10:37:51Z</time>
      </trkpt>
      <trkpt lat="28.5912280" lon="-17.8589000">
        <ele>1220.2</ele>
        <time>2020-11-17T10:37:52Z</time>
      </trkpt>
      <trkpt lat="28.5911950" lon="-17.8588850">
        <ele>1220.5</ele>
        <time>2020-11-17T10:37:53Z</time>
      </trkpt>
      <trkpt lat="28.5911950" lon="-17.8588850">
        <ele>1220.5</ele>
        <time>2020-11-17T10:37:54Z</time>
      </trkpt>
      <trkpt lat="28.5911620" lon="-17.8588730">
        <ele>1220.8</ele>
        <time>2020-11-17T10:37:55Z</time>
      </trkpt>
      <trkpt lat="28.5911470" lon="-17.8588730">
        <ele>1220.9</ele>
        <time>2020-11-17T10:37:56Z</time>
      </trkpt>
      <trkpt lat="28.5911470" lon="-17.8588730">
        <ele>1220.9</ele>
        <time>2020-11-17T10:37:57Z</time>
      </trkpt>
      <trkpt lat="28.5911180" lon="-17.8588700">
        <ele>1221.1</ele>
        <time>2020-11-17T10:37:58Z</time>
      </trkpt>
      <trkpt lat="28.5911180" lon="-17.8588700">
        <ele>1221.1</ele>
        <time>2020-11-17T10:37:59Z</time>
      </trkpt>
      <trkpt lat="28.5910750" lon="-17.8588620">
        <ele>1221.4</ele>
        <time>2020-11-17T10:38:00Z</time>
      </trkpt>
      <trkpt lat="28.5910750" lon="-17.8588620">
        <ele>1221.4</ele>
        <time>2020-11-17T10:38:01Z</time>
      </trkpt>
      <trkpt lat="28.5910320" lon="-17.8588730">
        <ele>1221.7</ele>
        <time>2020-11-17T10:38:02Z</time>
      </trkpt>
      <trkpt lat="28.5910130" lon="-17.8588850">
        <ele>1221.8</ele>
        <time>2020-11-17T10:38:03Z</time>
      </trkpt>
      <trkpt lat="28.5910130" lon="-17.8588850">
        <ele>1221.8</ele>
        <time>2020-11-17T10:38:04Z</time>
      </trkpt>
      <trkpt lat="28.5909730" lon="-17.8589080">
        <ele>1222.0</ele>
        <time>2020-11-17T10:38:05Z</time>
      </trkpt>
      <trkpt lat="28.5909570" lon="-17.8589230">
        <ele>1222.1</ele>
        <time>2020-11-17T10:38:06Z</time>
      </trkpt>
      <trkpt lat="28.5909570" lon="-17.8589230">
        <ele>1222.1</ele>
        <time>2020-11-17T10:38:07Z</time>
      </trkpt>
      <trkpt lat="28.5909220" lon="-17.8589650">
        <ele>1222.3</ele>
        <time>2020-11-17T10:38:08Z</time>
      </trkpt>
      <trkpt lat="28.5909030" lon="-17.8589800">
        <ele>1222.4</ele>
        <time>2020-11-17T10:38:09Z</time>
      </trkpt>
      <trkpt lat="28.5909030" lon="-17.8589800">
        <ele>1222.4</ele>
        <time>2020-11-17T10:38:10Z</time>
      </trkpt>
      <trkpt lat="28.5908700" lon="-17.8590100">
        <ele>1222.5</ele>
        <time>2020-11-17T10:38:11Z</time>
      </trkpt>
      <trkpt lat="28.5908550" lon="-17.8590230">
        <ele>1222.6</ele>
        <time>2020-11-17T10:38:12Z</time>
      </trkpt>
      <trkpt lat="28.5908550" lon="-17.8590230">
        <ele>1222.6</ele>
        <time>2020-11-17T10:38:13Z</time>
      </trkpt>
      <trkpt lat="28.5908200" lon="-17.8590550">
        <ele>1222.7</ele>
        <time>2020-11-17T10:38:14Z</time>
      </trkpt>
      <trkpt lat="28.5908200" lon="-17.8590550">
        <ele>1222.7</ele>
        <time>2020-11-17T10:38:15Z</time>
      </trkpt>
      <trkpt lat="28.5907820" lon="-17.8590820">
        <ele>1222.8</ele>
        <time>2020-11-17T10:38:16Z</time>
      </trkpt>
      <trkpt lat="28.5907820" lon="-17.8590820">
        <ele>1222.8</ele>
        <time>2020-11-17T10:38:17Z</time>
      </trkpt>
      <trkpt lat="28.5907380" lon="-17.8591050">
        <ele>1222.9</ele>
        <time>2020-11-17T10:38:18Z</time>
      </trkpt>
      <trkpt lat="28.5907380" lon="-17.8591050">
        <ele>1222.9</ele>
        <time>2020-11-17T10:38:19Z</time>
      </trkpt>
      <trkpt lat="28.5906930" lon="-17.8591300">
        <ele>1223.0</ele>
        <time>2020-11-17T10:38:20Z</time>
      </trkpt>
      <trkpt lat="28.5906930" lon="-17.8591300">
        <ele>1223.0</ele>
        <time>2020-11-17T10:38:21Z</time>
      </trkpt>
      <trkpt lat="28.5906550" lon="-17.8591520">
        <ele>1223.1</ele>
        <time>2020-11-17T10:38:22Z</time>
      </trkpt>
      <trkpt lat="28.5906550" lon="-17.8591520">
        <ele>1223.1</ele>
        <time>2020-11-17T10:38:23Z</time>
      </trkpt>
      <trkpt lat="28.5906100" lon="-17.8591650">
        <ele>1223.2</ele>
        <time>2020-11-17T10:38:24Z</time>
      </trkpt>
      <trkpt lat="28.5906100" lon="-17.8591650">
        <ele>1223.2</ele>
        <time>2020-11-17T10:38:25Z</time>
      </trkpt>
      <trkpt lat="28.5905680" lon="-17.8591650">
        <ele>1223.3</ele>
        <time>2020-11-17T10:38:26Z</time>
      </trkpt>
      <trkpt lat="28.5905680" lon="-17.8591650">
        <ele>1223.3</ele>
        <time>2020-11-17T10:38:27Z</time>
      </trkpt>
      <trkpt lat="28.5905320" lon="-17.8591470">
        <ele>1223.4</ele>
        <time>2020-11-17T10:38:28Z</time>
      </trkpt>
      <trkpt lat="28.5905320" lon="-17.8591470">
        <ele>1223.4</ele>
        <time>2020-11-17T10:38:29Z</time>
      </trkpt>
      <trkpt lat="28.5904970" lon="-17.8591170">
        <ele>1223.4</ele>
        <time>2020-11-17T10:38:30Z</time>
      </trkpt>
      <trkpt lat="28.5904970" lon="-17.8591170">
        <ele>1223.4</ele>
        <time>2020-11-17T10:38:31Z</time>
      </trkpt>
      <trkpt lat="28.5904620" lon="-17.8590830">
        <ele>1223.5</ele>
        <time>2020-11-17T10:38:32Z</time>
      </trkpt>
      <trkpt lat="28.5904620" lon="-17.8590830">
        <ele>1223.5</ele>
        <time>2020-11-17T10:38:33Z</time>
      </trkpt>
      <trkpt lat="28.5904280" lon="-17.8590550">
        <ele>1223.6</ele>
        <time>2020-11-17T10:38:34Z</time>
      </trkpt>
      <trkpt lat="28.5904280" lon="-17.8590550">
        <ele>1223.6</ele>
        <time>2020-11-17T10:38:35Z</time>
      </trkpt>
      <trkpt lat="28.5903980" lon="-17.8590230">
        <ele>1223.8</ele>
        <time>2020-11-17T10:38:36Z</time>
      </trkpt>
      <trkpt lat="28.5903980" lon="-17.8590230">
        <ele>1223.8</ele>
        <time>2020-11-17T10:38:37Z</time>
      </trkpt>
      <trkpt lat="28.5903700" lon="-17.8589920">
        <ele>1224.1</ele>
        <time>2020-11-17T10:38:38Z</time>
      </trkpt>
      <trkpt lat="28.5903700" lon="-17.8589920">
        <ele>1224.1</ele>
        <time>2020-11-17T10:38:39Z</time>
      </trkpt>
      <trkpt lat="28.5903400" lon="-17.8589570">
        <ele>1224.5</ele>
        <time>2020-11-17T10:38:40Z</time>
      </trkpt>
      <trkpt lat="28.5903400" lon="-17.8589570">
        <ele>1224.5</ele>
        <time>2020-11-17T10:38:41Z</time>
      </trkpt>
      <trkpt lat="28.5903130" lon="-17.8589300">
        <ele>1224.8</ele>
        <time>2020-11-17T10:38:42Z</time>
      </trkpt>
      <trkpt lat="28.5903130" lon="-17.8589300">
        <ele>1224.8</ele>
        <time>2020-11-17T10:38:43Z</time>
      </trkpt>
      <trkpt lat="28.5902920" lon="-17.8589020">
        <ele>1225.1</ele>
        <time>2020-11-17T10:38:44Z</time>
      </trkpt>
      <trkpt lat="28.5902920" lon="-17.8589020">
        <ele>1225.1</ele>
        <time>2020-11-17T10:38:45Z</time>
      </trkpt>
      <trkpt lat="28.5902700" lon="-17.8588730">
        <ele>1225.4</ele>
        <time>2020-11-17T10:38:46Z</time>
      </trkpt>
      <trkpt lat="28.5902700" lon="-17.8588730">
        <ele>1225.4</ele>
        <time>2020-11-17T10:38:47Z</time>
      </trkpt>
      <trkpt lat="28.5902580" lon="-17.8588520">
        <ele>1225.6</ele>
        <time>2020-11-17T10:38:48Z</time>
      </trkpt>
      <trkpt lat="28.5902580" lon="-17.8588520">
        <ele>1225.6</ele>
        <time>2020-11-17T10:38:49Z</time>
      </trkpt>
      <trkpt lat="28.5902500" lon="-17.8588330">
        <ele>1225.8</ele>
        <time>2020-11-17T10:38:50Z</time>
      </trkpt>
      <trkpt lat="28.5902470" lon="-17.8588320">
        <ele>1225.8</ele>
        <time>2020-11-17T10:38:51Z</time>
      </trkpt>
      <trkpt lat="28.5902470" lon="-17.8588320">
        <ele>1225.8</ele>
        <time>2020-11-17T10:40:04Z</time>
      </trkpt>
      <trkpt lat="28.5902670" lon="-17.8588550">
        <ele>1226.2</ele>
        <time>2020-11-17T10:40:05Z</time>
      </trkpt>
      <trkpt lat="28.5902670" lon="-17.8588550">
        <ele>1226.2</ele>
        <time>2020-11-17T10:40:06Z</time>
      </trkpt>
      <trkpt lat="28.5902770" lon="-17.8588470">
        <ele>1226.3</ele>
        <time>2020-11-17T10:40:07Z</time>
      </trkpt>
      <trkpt lat="28.5902800" lon="-17.8588470">
        <ele>1226.3</ele>
        <time>2020-11-17T10:40:08Z</time>
      </trkpt>
      <trkpt lat="28.5902800" lon="-17.8588470">
        <ele>1226.3</ele>
        <time>2020-11-17T10:40:09Z</time>
      </trkpt>
      <trkpt lat="28.5902800" lon="-17.8588470">
        <ele>1226.3</ele>
        <time>2020-11-17T10:40:10Z</time>
      </trkpt>
      <trkpt lat="28.5902800" lon="-17.8588470">
        <ele>1226.3</ele>
        <time>2020-11-17T10:40:11Z</time>
      </trkpt>
      <trkpt lat="28.5902820" lon="-17.8588480">
        <ele>1226.4</ele>
        <time>2020-11-17T10:40:12Z</time>
      </trkpt>
      <trkpt lat="28.5902170" lon="-17.8588400">
        <ele>1227.2</ele>
        <time>2020-11-17T10:46:54Z</time>
      </trkpt>
      <trkpt lat="28.5902170" lon="-17.8588400">
        <ele>1227.2</ele>
        <time>2020-11-17T10:46:55Z</time>
      </trkpt>
      <trkpt lat="28.5901980" lon="-17.8588130">
        <ele>1227.6</ele>
        <time>2020-11-17T10:46:56Z</time>
      </trkpt>
      <trkpt lat="28.5901980" lon="-17.8588130">
        <ele>1227.6</ele>
        <time>2020-11-17T10:46:57Z</time>
      </trkpt>
      <trkpt lat="28.5901930" lon="-17.8587900">
        <ele>1227.8</ele>
        <time>2020-11-17T10:46:58Z</time>
      </trkpt>
      <trkpt lat="28.5901930" lon="-17.8587900">
        <ele>1227.8</ele>
        <time>2020-11-17T10:46:59Z</time>
      </trkpt>
      <trkpt lat="28.5901750" lon="-17.8587620">
        <ele>1228.2</ele>
        <time>2020-11-17T10:47:00Z</time>
      </trkpt>
      <trkpt lat="28.5901750" lon="-17.8587620">
        <ele>1228.2</ele>
        <time>2020-11-17T10:47:01Z</time>
      </trkpt>
      <trkpt lat="28.5901480" lon="-17.8587180">
        <ele>1228.9</ele>
        <time>2020-11-17T10:47:02Z</time>
      </trkpt>
      <trkpt lat="28.5901480" lon="-17.8587180">
        <ele>1228.9</ele>
        <time>2020-11-17T10:47:03Z</time>
      </trkpt>
      <trkpt lat="28.5901350" lon="-17.8586830">
        <ele>1229.4</ele>
        <time>2020-11-17T10:47:04Z</time>
      </trkpt>
      <trkpt lat="28.5901350" lon="-17.8586830">
        <ele>1229.4</ele>
        <time>2020-11-17T10:47:05Z</time>
      </trkpt>
      <trkpt lat="28.5901170" lon="-17.8586580">
        <ele>1229.8</ele>
        <time>2020-11-17T10:47:06Z</time>
      </trkpt>
      <trkpt lat="28.5901170" lon="-17.8586580">
        <ele>1229.8</ele>
        <time>2020-11-17T10:47:07Z</time>
      </trkpt>
      <trkpt lat="28.5900850" lon="-17.8586120">
        <ele>1230.5</ele>
        <time>2020-11-17T10:47:08Z</time>
      </trkpt>
      <trkpt lat="28.5900720" lon="-17.8585930">
        <ele>1230.8</ele>
        <time>2020-11-17T10:47:09Z</time>
      </trkpt>
      <trkpt lat="28.5900720" lon="-17.8585930">
        <ele>1230.8</ele>
        <time>2020-11-17T10:47:10Z</time>
      </trkpt>
      <trkpt lat="28.5900500" lon="-17.8585620">
        <ele>1231.4</ele>
        <time>2020-11-17T10:47:11Z</time>
      </trkpt>
      <trkpt lat="28.5900500" lon="-17.8585620">
        <ele>1231.4</ele>
        <time>2020-11-17T10:47:12Z</time>
      </trkpt>
      <trkpt lat="28.5900270" lon="-17.8585330">
        <ele>1231.9</ele>
        <time>2020-11-17T10:47:13Z</time>
      </trkpt>
      <trkpt lat="28.5900270" lon="-17.8585330">
        <ele>1231.9</ele>
        <time>2020-11-17T10:47:14Z</time>
      </trkpt>
      <trkpt lat="28.5900100" lon="-17.8585130">
        <ele>1232.3</ele>
        <time>2020-11-17T10:47:15Z</time>
      </trkpt>
      <trkpt lat="28.5900100" lon="-17.8585130">
        <ele>1232.3</ele>
        <time>2020-11-17T10:47:16Z</time>
      </trkpt>
      <trkpt lat="28.5899900" lon="-17.8584950">
        <ele>1232.7</ele>
        <time>2020-11-17T10:47:17Z</time>
      </trkpt>
      <trkpt lat="28.5899830" lon="-17.8584870">
        <ele>1232.8</ele>
        <time>2020-11-17T10:47:18Z</time>
      </trkpt>
      <trkpt lat="28.5899830" lon="-17.8584870">
        <ele>1232.8</ele>
        <time>2020-11-17T10:47:19Z</time>
      </trkpt>
      <trkpt lat="28.5899650" lon="-17.8584720">
        <ele>1233.2</ele>
        <time>2020-11-17T10:47:20Z</time>
      </trkpt>
      <trkpt lat="28.5899550" lon="-17.8584600">
        <ele>1233.4</ele>
        <time>2020-11-17T10:47:21Z</time>
      </trkpt>
      <trkpt lat="28.5899550" lon="-17.8584600">
        <ele>1233.4</ele>
        <time>2020-11-17T10:47:22Z</time>
      </trkpt>
      <trkpt lat="28.5899300" lon="-17.8584420">
        <ele>1233.8</ele>
        <time>2020-11-17T10:47:23Z</time>
      </trkpt>
      <trkpt lat="28.5899170" lon="-17.8584350">
        <ele>1234.0</ele>
        <time>2020-11-17T10:47:24Z</time>
      </trkpt>
      <trkpt lat="28.5899170" lon="-17.8584350">
        <ele>1234.0</ele>
        <time>2020-11-17T10:47:25Z</time>
      </trkpt>
      <trkpt lat="28.5898970" lon="-17.8584220">
        <ele>1234.3</ele>
        <time>2020-11-17T10:47:26Z</time>
      </trkpt>
      <trkpt lat="28.5898820" lon="-17.8584180">
        <ele>1234.5</ele>
        <time>2020-11-17T10:47:27Z</time>
      </trkpt>
      <trkpt lat="28.5898820" lon="-17.8584180">
        <ele>1234.5</ele>
        <time>2020-11-17T10:47:28Z</time>
      </trkpt>
      <trkpt lat="28.5898500" lon="-17.8584100">
        <ele>1234.9</ele>
        <time>2020-11-17T10:47:29Z</time>
      </trkpt>
      <trkpt lat="28.5898320" lon="-17.8584100">
        <ele>1235.1</ele>
        <time>2020-11-17T10:47:30Z</time>
      </trkpt>
      <trkpt lat="28.5898320" lon="-17.8584100">
        <ele>1235.1</ele>
        <time>2020-11-17T10:47:31Z</time>
      </trkpt>
      <trkpt lat="28.5898000" lon="-17.8584080">
        <ele>1235.5</ele>
        <time>2020-11-17T10:47:32Z</time>
      </trkpt>
      <trkpt lat="28.5898000" lon="-17.8584080">
        <ele>1235.5</ele>
        <time>2020-11-17T10:47:33Z</time>
      </trkpt>
      <trkpt lat="28.5897680" lon="-17.8584020">
        <ele>1235.9</ele>
        <time>2020-11-17T10:47:34Z</time>
      </trkpt>
      <trkpt lat="28.5897680" lon="-17.8584020">
        <ele>1235.9</ele>
        <time>2020-11-17T10:47:35Z</time>
      </trkpt>
      <trkpt lat="28.5897300" lon="-17.8583980">
        <ele>1236.3</ele>
        <time>2020-11-17T10:47:36Z</time>
      </trkpt>
      <trkpt lat="28.5897300" lon="-17.8583980">
        <ele>1236.3</ele>
        <time>2020-11-17T10:47:37Z</time>
      </trkpt>
      <trkpt lat="28.5896980" lon="-17.8584000">
        <ele>1236.7</ele>
        <time>2020-11-17T10:47:38Z</time>
      </trkpt>
      <trkpt lat="28.5896980" lon="-17.8584000">
        <ele>1236.7</ele>
        <time>2020-11-17T10:47:39Z</time>
      </trkpt>
      <trkpt lat="28.5896620" lon="-17.8584070">
        <ele>1237.2</ele>
        <time>2020-11-17T10:47:40Z</time>
      </trkpt>
      <trkpt lat="28.5896620" lon="-17.8584070">
        <ele>1237.2</ele>
        <time>2020-11-17T10:47:41Z</time>
      </trkpt>
      <trkpt lat="28.5896300" lon="-17.8584080">
        <ele>1237.5</ele>
        <time>2020-11-17T10:47:42Z</time>
      </trkpt>
      <trkpt lat="28.5896300" lon="-17.8584080">
        <ele>1237.5</ele>
        <time>2020-11-17T10:47:43Z</time>
      </trkpt>
      <trkpt lat="28.5896100" lon="-17.8584200">
        <ele>1237.7</ele>
        <time>2020-11-17T10:47:44Z</time>
      </trkpt>
      <trkpt lat="28.5896100" lon="-17.8584200">
        <ele>1237.7</ele>
        <time>2020-11-17T10:47:45Z</time>
      </trkpt>
      <trkpt lat="28.5896030" lon="-17.8584370">
        <ele>1237.9</ele>
        <time>2020-11-17T10:47:46Z</time>
      </trkpt>
      <trkpt lat="28.5896030" lon="-17.8584370">
        <ele>1237.9</ele>
        <time>2020-11-17T10:47:47Z</time>
      </trkpt>
      <trkpt lat="28.5895950" lon="-17.8584470">
        <ele>1238.0</ele>
        <time>2020-11-17T10:47:48Z</time>
      </trkpt>
      <trkpt lat="28.5895950" lon="-17.8584470">
        <ele>1238.0</ele>
        <time>2020-11-17T10:47:49Z</time>
      </trkpt>
      <trkpt lat="28.5895750" lon="-17.8584500">
        <ele>1238.2</ele>
        <time>2020-11-17T10:47:50Z</time>
      </trkpt>
      <trkpt lat="28.5895750" lon="-17.8584500">
        <ele>1238.2</ele>
        <time>2020-11-17T10:47:51Z</time>
      </trkpt>
      <trkpt lat="28.5895480" lon="-17.8584520">
        <ele>1238.4</ele>
        <time>2020-11-17T10:47:52Z</time>
      </trkpt>
      <trkpt lat="28.5895480" lon="-17.8584520">
        <ele>1238.4</ele>
        <time>2020-11-17T10:47:53Z</time>
      </trkpt>
      <trkpt lat="28.5895200" lon="-17.8584450">
        <ele>1238.7</ele>
        <time>2020-11-17T10:47:54Z</time>
      </trkpt>
      <trkpt lat="28.5895200" lon="-17.8584450">
        <ele>1238.7</ele>
        <time>2020-11-17T10:47:55Z</time>
      </trkpt>
      <trkpt lat="28.5894980" lon="-17.8584350">
        <ele>1239.0</ele>
        <time>2020-11-17T10:47:56Z</time>
      </trkpt>
      <trkpt lat="28.5894900" lon="-17.8584270">
        <ele>1239.1</ele>
        <time>2020-11-17T10:47:57Z</time>
      </trkpt>
      <trkpt lat="28.5894900" lon="-17.8584270">
        <ele>1239.1</ele>
        <time>2020-11-17T10:47:58Z</time>
      </trkpt>
      <trkpt lat="28.5894670" lon="-17.8584170">
        <ele>1239.3</ele>
        <time>2020-11-17T10:47:59Z</time>
      </trkpt>
      <trkpt lat="28.5894550" lon="-17.8584070">
        <ele>1239.5</ele>
        <time>2020-11-17T10:48:00Z</time>
      </trkpt>
      <trkpt lat="28.5894550" lon="-17.8584070">
        <ele>1239.5</ele>
        <time>2020-11-17T10:48:01Z</time>
      </trkpt>
      <trkpt lat="28.5894350" lon="-17.8583820">
        <ele>1239.7</ele>
        <time>2020-11-17T10:48:02Z</time>
      </trkpt>
      <trkpt lat="28.5894350" lon="-17.8583820">
        <ele>1239.7</ele>
        <time>2020-11-17T10:48:03Z</time>
      </trkpt>
      <trkpt lat="28.5894150" lon="-17.8583600">
        <ele>1240.0</ele>
        <time>2020-11-17T10:48:04Z</time>
      </trkpt>
      <trkpt lat="28.5894150" lon="-17.8583600">
        <ele>1240.0</ele>
        <time>2020-11-17T10:48:05Z</time>
      </trkpt>
      <trkpt lat="28.5893850" lon="-17.8583350">
        <ele>1240.4</ele>
        <time>2020-11-17T10:48:06Z</time>
      </trkpt>
      <trkpt lat="28.5893850" lon="-17.8583350">
        <ele>1240.4</ele>
        <time>2020-11-17T10:48:07Z</time>
      </trkpt>
      <trkpt lat="28.5893580" lon="-17.8583200">
        <ele>1240.7</ele>
        <time>2020-11-17T10:48:08Z</time>
      </trkpt>
      <trkpt lat="28.5893580" lon="-17.8583200">
        <ele>1240.7</ele>
        <time>2020-11-17T10:48:09Z</time>
      </trkpt>
      <trkpt lat="28.5893220" lon="-17.8583020">
        <ele>1241.2</ele>
        <time>2020-11-17T10:48:10Z</time>
      </trkpt>
      <trkpt lat="28.5893030" lon="-17.8582950">
        <ele>1241.4</ele>
        <time>2020-11-17T10:48:11Z</time>
      </trkpt>
      <trkpt lat="28.5892850" lon="-17.8582950">
        <ele>1241.6</ele>
        <time>2020-11-17T10:48:12Z</time>
      </trkpt>
      <trkpt lat="28.5892850" lon="-17.8582950">
        <ele>1241.6</ele>
        <time>2020-11-17T10:48:13Z</time>
      </trkpt>
      <trkpt lat="28.5892500" lon="-17.8583070">
        <ele>1242.1</ele>
        <time>2020-11-17T10:48:14Z</time>
      </trkpt>
      <trkpt lat="28.5892500" lon="-17.8583070">
        <ele>1242.1</ele>
        <time>2020-11-17T10:48:15Z</time>
      </trkpt>
      <trkpt lat="28.5892200" lon="-17.8583120">
        <ele>1242.4</ele>
        <time>2020-11-17T10:48:16Z</time>
      </trkpt>
      <trkpt lat="28.5892200" lon="-17.8583120">
        <ele>1242.4</ele>
        <time>2020-11-17T10:48:17Z</time>
      </trkpt>
      <trkpt lat="28.5891880" lon="-17.8583030">
        <ele>1242.8</ele>
        <time>2020-11-17T10:48:18Z</time>
      </trkpt>
      <trkpt lat="28.5891880" lon="-17.8583030">
        <ele>1242.8</ele>
        <time>2020-11-17T10:48:19Z</time>
      </trkpt>
      <trkpt lat="28.5891650" lon="-17.8582850">
        <ele>1243.2</ele>
        <time>2020-11-17T10:48:20Z</time>
      </trkpt>
      <trkpt lat="28.5891500" lon="-17.8582730">
        <ele>1243.4</ele>
        <time>2020-11-17T10:48:21Z</time>
      </trkpt>
      <trkpt lat="28.5891500" lon="-17.8582730">
        <ele>1243.4</ele>
        <time>2020-11-17T10:48:22Z</time>
      </trkpt>
      <trkpt lat="28.5891280" lon="-17.8582430">
        <ele>1243.8</ele>
        <time>2020-11-17T10:48:23Z</time>
      </trkpt>
      <trkpt lat="28.5891200" lon="-17.8582300">
        <ele>1244.0</ele>
        <time>2020-11-17T10:48:24Z</time>
      </trkpt>
      <trkpt lat="28.5891200" lon="-17.8582300">
        <ele>1244.0</ele>
        <time>2020-11-17T10:48:25Z</time>
      </trkpt>
      <trkpt lat="28.5891050" lon="-17.8582100">
        <ele>1244.2</ele>
        <time>2020-11-17T10:48:26Z</time>
      </trkpt>
      <trkpt lat="28.5891050" lon="-17.8582100">
        <ele>1244.2</ele>
        <time>2020-11-17T10:48:27Z</time>
      </trkpt>
      <trkpt lat="28.5890930" lon="-17.8581930">
        <ele>1244.5</ele>
        <time>2020-11-17T10:48:28Z</time>
      </trkpt>
      <trkpt lat="28.5890820" lon="-17.8581870">
        <ele>1244.6</ele>
        <time>2020-11-17T10:48:29Z</time>
      </trkpt>
      <trkpt lat="28.5890720" lon="-17.8581800">
        <ele>1244.7</ele>
        <time>2020-11-17T10:48:30Z</time>
      </trkpt>
      <trkpt lat="28.5890720" lon="-17.8581800">
        <ele>1244.7</ele>
        <time>2020-11-17T10:48:31Z</time>
      </trkpt>
      <trkpt lat="28.5890600" lon="-17.8581630">
        <ele>1244.9</ele>
        <time>2020-11-17T10:48:32Z</time>
      </trkpt>
      <trkpt lat="28.5890600" lon="-17.8581630">
        <ele>1244.9</ele>
        <time>2020-11-17T10:48:33Z</time>
      </trkpt>
      <trkpt lat="28.5890430" lon="-17.8581520">
        <ele>1245.2</ele>
        <time>2020-11-17T10:48:34Z</time>
      </trkpt>
      <trkpt lat="28.5890350" lon="-17.8581500">
        <ele>1245.2</ele>
        <time>2020-11-17T10:48:35Z</time>
      </trkpt>
      <trkpt lat="28.5890270" lon="-17.8581430">
        <ele>1245.4</ele>
        <time>2020-11-17T10:48:36Z</time>
      </trkpt>
      <trkpt lat="28.5890270" lon="-17.8581430">
        <ele>1245.4</ele>
        <time>2020-11-17T10:48:37Z</time>
      </trkpt>
      <trkpt lat="28.5890000" lon="-17.8581300">
        <ele>1245.7</ele>
        <time>2020-11-17T10:48:38Z</time>
      </trkpt>
      <trkpt lat="28.5889830" lon="-17.8581280">
        <ele>1245.8</ele>
        <time>2020-11-17T10:48:39Z</time>
      </trkpt>
      <trkpt lat="28.5889830" lon="-17.8581280">
        <ele>1245.8</ele>
        <time>2020-11-17T10:48:40Z</time>
      </trkpt>
      <trkpt lat="28.5889350" lon="-17.8581170">
        <ele>1246.3</ele>
        <time>2020-11-17T10:48:41Z</time>
      </trkpt>
      <trkpt lat="28.5889100" lon="-17.8581050">
        <ele>1246.5</ele>
        <time>2020-11-17T10:48:42Z</time>
      </trkpt>
      <trkpt lat="28.5889100" lon="-17.8581050">
        <ele>1246.5</ele>
        <time>2020-11-17T10:48:43Z</time>
      </trkpt>
      <trkpt lat="28.5888820" lon="-17.8580930">
        <ele>1246.8</ele>
        <time>2020-11-17T10:48:44Z</time>
      </trkpt>
      <trkpt lat="28.5888630" lon="-17.8580800">
        <ele>1246.9</ele>
        <time>2020-11-17T10:48:45Z</time>
      </trkpt>
      <trkpt lat="28.5888630" lon="-17.8580800">
        <ele>1246.9</ele>
        <time>2020-11-17T10:48:46Z</time>
      </trkpt>
      <trkpt lat="28.5888230" lon="-17.8580670">
        <ele>1247.2</ele>
        <time>2020-11-17T10:48:47Z</time>
      </trkpt>
      <trkpt lat="28.5888080" lon="-17.8580620">
        <ele>1247.3</ele>
        <time>2020-11-17T10:48:48Z</time>
      </trkpt>
      <trkpt lat="28.5888080" lon="-17.8580620">
        <ele>1247.3</ele>
        <time>2020-11-17T10:48:49Z</time>
      </trkpt>
      <trkpt lat="28.5887780" lon="-17.8580530">
        <ele>1247.6</ele>
        <time>2020-11-17T10:48:50Z</time>
      </trkpt>
      <trkpt lat="28.5887780" lon="-17.8580530">
        <ele>1247.6</ele>
        <time>2020-11-17T10:48:51Z</time>
      </trkpt>
      <trkpt lat="28.5887520" lon="-17.8580530">
        <ele>1247.7</ele>
        <time>2020-11-17T10:48:52Z</time>
      </trkpt>
      <trkpt lat="28.5887520" lon="-17.8580530">
        <ele>1247.7</ele>
        <time>2020-11-17T10:48:53Z</time>
      </trkpt>
      <trkpt lat="28.5887350" lon="-17.8580430">
        <ele>1247.9</ele>
        <time>2020-11-17T10:48:54Z</time>
      </trkpt>
      <trkpt lat="28.5887350" lon="-17.8580430">
        <ele>1247.9</ele>
        <time>2020-11-17T10:48:55Z</time>
      </trkpt>
      <trkpt lat="28.5886980" lon="-17.8580380">
        <ele>1248.1</ele>
        <time>2020-11-17T10:48:56Z</time>
      </trkpt>
      <trkpt lat="28.5886980" lon="-17.8580380">
        <ele>1248.1</ele>
        <time>2020-11-17T10:48:57Z</time>
      </trkpt>
      <trkpt lat="28.5886550" lon="-17.8580180">
        <ele>1248.4</ele>
        <time>2020-11-17T10:48:58Z</time>
      </trkpt>
      <trkpt lat="28.5886550" lon="-17.8580180">
        <ele>1248.4</ele>
        <time>2020-11-17T10:48:59Z</time>
      </trkpt>
      <trkpt lat="28.5886170" lon="-17.8580050">
        <ele>1248.7</ele>
        <time>2020-11-17T10:49:00Z</time>
      </trkpt>
      <trkpt lat="28.5886170" lon="-17.8580050">
        <ele>1248.7</ele>
        <time>2020-11-17T10:49:01Z</time>
      </trkpt>
      <trkpt lat="28.5885920" lon="-17.8579900">
        <ele>1248.9</ele>
        <time>2020-11-17T10:49:02Z</time>
      </trkpt>
      <trkpt lat="28.5885920" lon="-17.8579900">
        <ele>1248.9</ele>
        <time>2020-11-17T10:49:03Z</time>
      </trkpt>
      <trkpt lat="28.5885620" lon="-17.8579870">
        <ele>1249.2</ele>
        <time>2020-11-17T10:49:04Z</time>
      </trkpt>
      <trkpt lat="28.5885620" lon="-17.8579870">
        <ele>1249.2</ele>
        <time>2020-11-17T10:49:05Z</time>
      </trkpt>
      <trkpt lat="28.5885320" lon="-17.8579730">
        <ele>1249.4</ele>
        <time>2020-11-17T10:49:06Z</time>
      </trkpt>
      <trkpt lat="28.5885320" lon="-17.8579730">
        <ele>1249.4</ele>
        <time>2020-11-17T10:49:07Z</time>
      </trkpt>
      <trkpt lat="28.5885050" lon="-17.8579670">
        <ele>1249.7</ele>
        <time>2020-11-17T10:49:08Z</time>
      </trkpt>
      <trkpt lat="28.5885050" lon="-17.8579670">
        <ele>1249.7</ele>
        <time>2020-11-17T10:49:09Z</time>
      </trkpt>
      <trkpt lat="28.5884730" lon="-17.8579670">
        <ele>1250.0</ele>
        <time>2020-11-17T10:49:10Z</time>
      </trkpt>
      <trkpt lat="28.5884550" lon="-17.8579620">
        <ele>1250.1</ele>
        <time>2020-11-17T10:49:11Z</time>
      </trkpt>
      <trkpt lat="28.5884120" lon="-17.8579600">
        <ele>1250.6</ele>
        <time>2020-11-17T10:49:12Z</time>
      </trkpt>
      <trkpt lat="28.5884120" lon="-17.8579600">
        <ele>1250.6</ele>
        <time>2020-11-17T10:49:13Z</time>
      </trkpt>
      <trkpt lat="28.5883670" lon="-17.8579670">
        <ele>1251.0</ele>
        <time>2020-11-17T10:49:14Z</time>
      </trkpt>
      <trkpt lat="28.5883670" lon="-17.8579670">
        <ele>1251.0</ele>
        <time>2020-11-17T10:49:15Z</time>
      </trkpt>
      <trkpt lat="28.5883200" lon="-17.8579800">
        <ele>1251.5</ele>
        <time>2020-11-17T10:49:16Z</time>
      </trkpt>
      <trkpt lat="28.5883050" lon="-17.8579830">
        <ele>1251.7</ele>
        <time>2020-11-17T10:49:17Z</time>
      </trkpt>
      <trkpt lat="28.5883050" lon="-17.8579830">
        <ele>1251.7</ele>
        <time>2020-11-17T10:49:18Z</time>
      </trkpt>
      <trkpt lat="28.5882770" lon="-17.8579930">
        <ele>1252.0</ele>
        <time>2020-11-17T10:49:19Z</time>
      </trkpt>
      <trkpt lat="28.5882770" lon="-17.8579930">
        <ele>1252.0</ele>
        <time>2020-11-17T10:49:20Z</time>
      </trkpt>
      <trkpt lat="28.5882530" lon="-17.8580030">
        <ele>1252.3</ele>
        <time>2020-11-17T10:49:21Z</time>
      </trkpt>
      <trkpt lat="28.5882530" lon="-17.8580030">
        <ele>1252.3</ele>
        <time>2020-11-17T10:49:22Z</time>
      </trkpt>
      <trkpt lat="28.5882250" lon="-17.8580130">
        <ele>1252.6</ele>
        <time>2020-11-17T10:49:23Z</time>
      </trkpt>
      <trkpt lat="28.5882150" lon="-17.8580130">
        <ele>1252.7</ele>
        <time>2020-11-17T10:49:24Z</time>
      </trkpt>
      <trkpt lat="28.5882150" lon="-17.8580130">
        <ele>1252.7</ele>
        <time>2020-11-17T10:49:25Z</time>
      </trkpt>
      <trkpt lat="28.5882000" lon="-17.8580450">
        <ele>1252.9</ele>
        <time>2020-11-17T10:49:26Z</time>
      </trkpt>
      <trkpt lat="28.5882000" lon="-17.8580450">
        <ele>1252.9</ele>
        <time>2020-11-17T10:49:27Z</time>
      </trkpt>
      <trkpt lat="28.5881780" lon="-17.8580680">
        <ele>1253.2</ele>
        <time>2020-11-17T10:49:28Z</time>
      </trkpt>
      <trkpt lat="28.5881780" lon="-17.8580680">
        <ele>1253.2</ele>
        <time>2020-11-17T10:49:29Z</time>
      </trkpt>
      <trkpt lat="28.5881480" lon="-17.8581100">
        <ele>1253.6</ele>
        <time>2020-11-17T10:49:30Z</time>
      </trkpt>
      <trkpt lat="28.5881480" lon="-17.8581100">
        <ele>1253.6</ele>
        <time>2020-11-17T10:49:31Z</time>
      </trkpt>
      <trkpt lat="28.5881180" lon="-17.8581500">
        <ele>1253.8</ele>
        <time>2020-11-17T10:49:32Z</time>
      </trkpt>
      <trkpt lat="28.5880970" lon="-17.8581770">
        <ele>1254.0</ele>
        <time>2020-11-17T10:49:33Z</time>
      </trkpt>
      <trkpt lat="28.5880970" lon="-17.8581770">
        <ele>1254.0</ele>
        <time>2020-11-17T10:49:34Z</time>
      </trkpt>
      <trkpt lat="28.5880700" lon="-17.8582150">
        <ele>1254.2</ele>
        <time>2020-11-17T10:49:35Z</time>
      </trkpt>
      <trkpt lat="28.5880700" lon="-17.8582150">
        <ele>1254.2</ele>
        <time>2020-11-17T10:49:36Z</time>
      </trkpt>
      <trkpt lat="28.5880370" lon="-17.8582530">
        <ele>1254.5</ele>
        <time>2020-11-17T10:49:37Z</time>
      </trkpt>
      <trkpt lat="28.5880150" lon="-17.8582700">
        <ele>1254.6</ele>
        <time>2020-11-17T10:49:38Z</time>
      </trkpt>
      <trkpt lat="28.5880150" lon="-17.8582700">
        <ele>1254.6</ele>
        <time>2020-11-17T10:49:39Z</time>
      </trkpt>
      <trkpt lat="28.5879730" lon="-17.8583020">
        <ele>1254.9</ele>
        <time>2020-11-17T10:49:40Z</time>
      </trkpt>
      <trkpt lat="28.5879730" lon="-17.8583020">
        <ele>1254.9</ele>
        <time>2020-11-17T10:49:41Z</time>
      </trkpt>
      <trkpt lat="28.5879430" lon="-17.8583200">
        <ele>1255.1</ele>
        <time>2020-11-17T10:49:42Z</time>
      </trkpt>
      <trkpt lat="28.5879430" lon="-17.8583200">
        <ele>1255.1</ele>
        <time>2020-11-17T10:49:43Z</time>
      </trkpt>
      <trkpt lat="28.5879280" lon="-17.8583370">
        <ele>1255.2</ele>
        <time>2020-11-17T10:49:44Z</time>
      </trkpt>
      <trkpt lat="28.5879270" lon="-17.8583430">
        <ele>1255.2</ele>
        <time>2020-11-17T10:49:45Z</time>
      </trkpt>
      <trkpt lat="28.5879220" lon="-17.8583420">
        <ele>1255.3</ele>
        <time>2020-11-17T10:49:46Z</time>
      </trkpt>
      <trkpt lat="28.5879220" lon="-17.8583420">
        <ele>1255.3</ele>
        <time>2020-11-17T10:49:47Z</time>
      </trkpt>
      <trkpt lat="28.5878970" lon="-17.8583280">
        <ele>1255.4</ele>
        <time>2020-11-17T10:49:48Z</time>
      </trkpt>
      <trkpt lat="28.5878830" lon="-17.8583230">
        <ele>1255.5</ele>
        <time>2020-11-17T10:49:49Z</time>
      </trkpt>
      <trkpt lat="28.5878830" lon="-17.8583230">
        <ele>1255.5</ele>
        <time>2020-11-17T10:49:50Z</time>
      </trkpt>
      <trkpt lat="28.5878570" lon="-17.8583100">
        <ele>1255.8</ele>
        <time>2020-11-17T10:49:51Z</time>
      </trkpt>
      <trkpt lat="28.5878420" lon="-17.8583050">
        <ele>1255.9</ele>
        <time>2020-11-17T10:49:52Z</time>
      </trkpt>
      <trkpt lat="28.5878420" lon="-17.8583050">
        <ele>1255.9</ele>
        <time>2020-11-17T10:49:53Z</time>
      </trkpt>
      <trkpt lat="28.5878100" lon="-17.8582970">
        <ele>1256.2</ele>
        <time>2020-11-17T10:49:54Z</time>
      </trkpt>
      <trkpt lat="28.5878100" lon="-17.8582970">
        <ele>1256.2</ele>
        <time>2020-11-17T10:49:55Z</time>
      </trkpt>
      <trkpt lat="28.5877750" lon="-17.8583020">
        <ele>1256.5</ele>
        <time>2020-11-17T10:49:56Z</time>
      </trkpt>
      <trkpt lat="28.5877750" lon="-17.8583020">
        <ele>1256.5</ele>
        <time>2020-11-17T10:49:57Z</time>
      </trkpt>
      <trkpt lat="28.5877450" lon="-17.8583150">
        <ele>1256.9</ele>
        <time>2020-11-17T10:49:58Z</time>
      </trkpt>
      <trkpt lat="28.5877450" lon="-17.8583150">
        <ele>1256.9</ele>
        <time>2020-11-17T10:49:59Z</time>
      </trkpt>
      <trkpt lat="28.5877320" lon="-17.8583350">
        <ele>1257.1</ele>
        <time>2020-11-17T10:50:00Z</time>
      </trkpt>
      <trkpt lat="28.5877320" lon="-17.8583350">
        <ele>1257.1</ele>
        <time>2020-11-17T10:50:01Z</time>
      </trkpt>
      <trkpt lat="28.5877130" lon="-17.8583550">
        <ele>1257.4</ele>
        <time>2020-11-17T10:50:02Z</time>
      </trkpt>
      <trkpt lat="28.5877030" lon="-17.8583630">
        <ele>1257.5</ele>
        <time>2020-11-17T10:50:03Z</time>
      </trkpt>
      <trkpt lat="28.5877030" lon="-17.8583630">
        <ele>1257.5</ele>
        <time>2020-11-17T10:50:04Z</time>
      </trkpt>
      <trkpt lat="28.5876750" lon="-17.8583800">
        <ele>1257.9</ele>
        <time>2020-11-17T10:50:05Z</time>
      </trkpt>
      <trkpt lat="28.5876750" lon="-17.8583800">
        <ele>1257.9</ele>
        <time>2020-11-17T10:50:06Z</time>
      </trkpt>
      <trkpt lat="28.5876430" lon="-17.8583870">
        <ele>1258.3</ele>
        <time>2020-11-17T10:50:07Z</time>
      </trkpt>
      <trkpt lat="28.5876430" lon="-17.8583870">
        <ele>1258.3</ele>
        <time>2020-11-17T10:50:08Z</time>
      </trkpt>
      <trkpt lat="28.5876100" lon="-17.8583920">
        <ele>1258.6</ele>
        <time>2020-11-17T10:50:09Z</time>
      </trkpt>
      <trkpt lat="28.5876100" lon="-17.8583920">
        <ele>1258.6</ele>
        <time>2020-11-17T10:50:10Z</time>
      </trkpt>
      <trkpt lat="28.5875850" lon="-17.8583850">
        <ele>1258.9</ele>
        <time>2020-11-17T10:50:11Z</time>
      </trkpt>
      <trkpt lat="28.5875730" lon="-17.8583770">
        <ele>1259.1</ele>
        <time>2020-11-17T10:50:12Z</time>
      </trkpt>
      <trkpt lat="28.5875730" lon="-17.8583770">
        <ele>1259.1</ele>
        <time>2020-11-17T10:50:13Z</time>
      </trkpt>
      <trkpt lat="28.5875480" lon="-17.8583700">
        <ele>1259.4</ele>
        <time>2020-11-17T10:50:14Z</time>
      </trkpt>
      <trkpt lat="28.5875480" lon="-17.8583700">
        <ele>1259.4</ele>
        <time>2020-11-17T10:50:15Z</time>
      </trkpt>
      <trkpt lat="28.5875270" lon="-17.8583530">
        <ele>1259.6</ele>
        <time>2020-11-17T10:50:16Z</time>
      </trkpt>
      <trkpt lat="28.5875270" lon="-17.8583530">
        <ele>1259.6</ele>
        <time>2020-11-17T10:50:17Z</time>
      </trkpt>
      <trkpt lat="28.5875100" lon="-17.8583320">
        <ele>1259.9</ele>
        <time>2020-11-17T10:50:18Z</time>
      </trkpt>
      <trkpt lat="28.5875100" lon="-17.8583320">
        <ele>1259.9</ele>
        <time>2020-11-17T10:50:19Z</time>
      </trkpt>
      <trkpt lat="28.5874830" lon="-17.8583150">
        <ele>1260.2</ele>
        <time>2020-11-17T10:50:20Z</time>
      </trkpt>
      <trkpt lat="28.5874680" lon="-17.8583080">
        <ele>1260.4</ele>
        <time>2020-11-17T10:50:21Z</time>
      </trkpt>
      <trkpt lat="28.5874680" lon="-17.8583080">
        <ele>1260.4</ele>
        <time>2020-11-17T10:50:22Z</time>
      </trkpt>
      <trkpt lat="28.5874320" lon="-17.8583030">
        <ele>1260.7</ele>
        <time>2020-11-17T10:50:23Z</time>
      </trkpt>
      <trkpt lat="28.5874170" lon="-17.8583070">
        <ele>1260.9</ele>
        <time>2020-11-17T10:50:24Z</time>
      </trkpt>
      <trkpt lat="28.5874170" lon="-17.8583070">
        <ele>1260.9</ele>
        <time>2020-11-17T10:50:25Z</time>
      </trkpt>
      <trkpt lat="28.5873920" lon="-17.8583170">
        <ele>1261.1</ele>
        <time>2020-11-17T10:50:26Z</time>
      </trkpt>
      <trkpt lat="28.5873830" lon="-17.8583250">
        <ele>1261.2</ele>
        <time>2020-11-17T10:50:27Z</time>
      </trkpt>
      <trkpt lat="28.5873770" lon="-17.8583370">
        <ele>1261.3</ele>
        <time>2020-11-17T10:50:28Z</time>
      </trkpt>
      <trkpt lat="28.5873770" lon="-17.8583370">
        <ele>1261.3</ele>
        <time>2020-11-17T10:50:29Z</time>
      </trkpt>
      <trkpt lat="28.5873680" lon="-17.8583620">
        <ele>1261.5</ele>
        <time>2020-11-17T10:50:30Z</time>
      </trkpt>
      <trkpt lat="28.5873680" lon="-17.8583620">
        <ele>1261.5</ele>
        <time>2020-11-17T10:50:31Z</time>
      </trkpt>
      <trkpt lat="28.5873570" lon="-17.8583970">
        <ele>1261.8</ele>
        <time>2020-11-17T10:50:32Z</time>
      </trkpt>
      <trkpt lat="28.5873450" lon="-17.8584180">
        <ele>1262.0</ele>
        <time>2020-11-17T10:50:33Z</time>
      </trkpt>
      <trkpt lat="28.5873450" lon="-17.8584180">
        <ele>1262.0</ele>
        <time>2020-11-17T10:50:34Z</time>
      </trkpt>
      <trkpt lat="28.5873100" lon="-17.8584670">
        <ele>1262.5</ele>
        <time>2020-11-17T10:50:35Z</time>
      </trkpt>
      <trkpt lat="28.5872880" lon="-17.8584880">
        <ele>1262.7</ele>
        <time>2020-11-17T10:50:36Z</time>
      </trkpt>
      <trkpt lat="28.5872880" lon="-17.8584880">
        <ele>1262.7</ele>
        <time>2020-11-17T10:50:37Z</time>
      </trkpt>
      <trkpt lat="28.5872470" lon="-17.8585250">
        <ele>1263.0</ele>
        <time>2020-11-17T10:50:38Z</time>
      </trkpt>
      <trkpt lat="28.5872270" lon="-17.8585350">
        <ele>1263.2</ele>
        <time>2020-11-17T10:50:39Z</time>
      </trkpt>
      <trkpt lat="28.5872270" lon="-17.8585350">
        <ele>1263.2</ele>
        <time>2020-11-17T10:50:40Z</time>
      </trkpt>
      <trkpt lat="28.5871900" lon="-17.8585400">
        <ele>1263.4</ele>
        <time>2020-11-17T10:50:41Z</time>
      </trkpt>
      <trkpt lat="28.5871900" lon="-17.8585400">
        <ele>1263.4</ele>
        <time>2020-11-17T10:50:42Z</time>
      </trkpt>
      <trkpt lat="28.5871530" lon="-17.8585370">
        <ele>1263.7</ele>
        <time>2020-11-17T10:50:43Z</time>
      </trkpt>
      <trkpt lat="28.5871380" lon="-17.8585320">
        <ele>1263.8</ele>
        <time>2020-11-17T10:50:44Z</time>
      </trkpt>
      <trkpt lat="28.5871380" lon="-17.8585320">
        <ele>1263.8</ele>
        <time>2020-11-17T10:50:45Z</time>
      </trkpt>
      <trkpt lat="28.5871000" lon="-17.8585020">
        <ele>1264.1</ele>
        <time>2020-11-17T10:50:46Z</time>
      </trkpt>
      <trkpt lat="28.5871000" lon="-17.8585020">
        <ele>1264.1</ele>
        <time>2020-11-17T10:50:47Z</time>
      </trkpt>
      <trkpt lat="28.5870630" lon="-17.8584780">
        <ele>1264.4</ele>
        <time>2020-11-17T10:50:48Z</time>
      </trkpt>
      <trkpt lat="28.5870630" lon="-17.8584780">
        <ele>1264.4</ele>
        <time>2020-11-17T10:50:49Z</time>
      </trkpt>
      <trkpt lat="28.5870350" lon="-17.8584500">
        <ele>1264.7</ele>
        <time>2020-11-17T10:50:50Z</time>
      </trkpt>
      <trkpt lat="28.5870350" lon="-17.8584500">
        <ele>1264.7</ele>
        <time>2020-11-17T10:50:51Z</time>
      </trkpt>
      <trkpt lat="28.5870020" lon="-17.8584380">
        <ele>1264.9</ele>
        <time>2020-11-17T10:50:52Z</time>
      </trkpt>
      <trkpt lat="28.5869880" lon="-17.8584280">
        <ele>1265.0</ele>
        <time>2020-11-17T10:50:53Z</time>
      </trkpt>
      <trkpt lat="28.5869880" lon="-17.8584280">
        <ele>1265.0</ele>
        <time>2020-11-17T10:50:54Z</time>
      </trkpt>
      <trkpt lat="28.5869680" lon="-17.8584030">
        <ele>1265.3</ele>
        <time>2020-11-17T10:50:55Z</time>
      </trkpt>
      <trkpt lat="28.5869550" lon="-17.8583930">
        <ele>1265.4</ele>
        <time>2020-11-17T10:50:56Z</time>
      </trkpt>
      <trkpt lat="28.5869550" lon="-17.8583930">
        <ele>1265.4</ele>
        <time>2020-11-17T10:50:57Z</time>
      </trkpt>
      <trkpt lat="28.5869300" lon="-17.8583650">
        <ele>1265.7</ele>
        <time>2020-11-17T10:50:58Z</time>
      </trkpt>
      <trkpt lat="28.5869300" lon="-17.8583650">
        <ele>1265.7</ele>
        <time>2020-11-17T10:50:59Z</time>
      </trkpt>
      <trkpt lat="28.5869070" lon="-17.8583420">
        <ele>1266.0</ele>
        <time>2020-11-17T10:51:00Z</time>
      </trkpt>
      <trkpt lat="28.5869070" lon="-17.8583420">
        <ele>1266.0</ele>
        <time>2020-11-17T10:51:01Z</time>
      </trkpt>
      <trkpt lat="28.5868780" lon="-17.8583280">
        <ele>1266.2</ele>
        <time>2020-11-17T10:51:02Z</time>
      </trkpt>
      <trkpt lat="28.5868780" lon="-17.8583280">
        <ele>1266.2</ele>
        <time>2020-11-17T10:51:03Z</time>
      </trkpt>
      <trkpt lat="28.5868530" lon="-17.8583120">
        <ele>1266.5</ele>
        <time>2020-11-17T10:51:04Z</time>
      </trkpt>
      <trkpt lat="28.5868530" lon="-17.8583120">
        <ele>1266.5</ele>
        <time>2020-11-17T10:51:05Z</time>
      </trkpt>
      <trkpt lat="28.5868280" lon="-17.8583050">
        <ele>1266.7</ele>
        <time>2020-11-17T10:51:06Z</time>
      </trkpt>
      <trkpt lat="28.5868280" lon="-17.8583050">
        <ele>1266.7</ele>
        <time>2020-11-17T10:51:07Z</time>
      </trkpt>
      <trkpt lat="28.5867950" lon="-17.8583020">
        <ele>1267.1</ele>
        <time>2020-11-17T10:51:08Z</time>
      </trkpt>
      <trkpt lat="28.5867780" lon="-17.8582980">
        <ele>1267.2</ele>
        <time>2020-11-17T10:51:09Z</time>
      </trkpt>
      <trkpt lat="28.5867780" lon="-17.8582980">
        <ele>1267.2</ele>
        <time>2020-11-17T10:51:10Z</time>
      </trkpt>
      <trkpt lat="28.5867470" lon="-17.8583000">
        <ele>1267.5</ele>
        <time>2020-11-17T10:51:11Z</time>
      </trkpt>
      <trkpt lat="28.5867320" lon="-17.8583020">
        <ele>1267.7</ele>
        <time>2020-11-17T10:51:12Z</time>
      </trkpt>
      <trkpt lat="28.5867320" lon="-17.8583020">
        <ele>1267.7</ele>
        <time>2020-11-17T10:51:13Z</time>
      </trkpt>
      <trkpt lat="28.5867050" lon="-17.8583080">
        <ele>1268.0</ele>
        <time>2020-11-17T10:51:14Z</time>
      </trkpt>
      <trkpt lat="28.5867050" lon="-17.8583080">
        <ele>1268.0</ele>
        <time>2020-11-17T10:51:15Z</time>
      </trkpt>
      <trkpt lat="28.5866700" lon="-17.8582880">
        <ele>1268.5</ele>
        <time>2020-11-17T10:51:16Z</time>
      </trkpt>
      <trkpt lat="28.5866700" lon="-17.8582880">
        <ele>1268.5</ele>
        <time>2020-11-17T10:51:17Z</time>
      </trkpt>
      <trkpt lat="28.5866400" lon="-17.8582720">
        <ele>1268.9</ele>
        <time>2020-11-17T10:51:18Z</time>
      </trkpt>
      <trkpt lat="28.5866400" lon="-17.8582720">
        <ele>1268.9</ele>
        <time>2020-11-17T10:51:19Z</time>
      </trkpt>
      <trkpt lat="28.5866050" lon="-17.8582400">
        <ele>1269.4</ele>
        <time>2020-11-17T10:51:20Z</time>
      </trkpt>
      <trkpt lat="28.5866050" lon="-17.8582400">
        <ele>1269.4</ele>
        <time>2020-11-17T10:51:21Z</time>
      </trkpt>
      <trkpt lat="28.5865750" lon="-17.8582130">
        <ele>1269.9</ele>
        <time>2020-11-17T10:51:22Z</time>
      </trkpt>
      <trkpt lat="28.5865600" lon="-17.8582020">
        <ele>1270.1</ele>
        <time>2020-11-17T10:51:23Z</time>
      </trkpt>
      <trkpt lat="28.5865600" lon="-17.8582020">
        <ele>1270.1</ele>
        <time>2020-11-17T10:51:24Z</time>
      </trkpt>
      <trkpt lat="28.5865330" lon="-17.8581750">
        <ele>1270.6</ele>
        <time>2020-11-17T10:51:25Z</time>
      </trkpt>
      <trkpt lat="28.5865330" lon="-17.8581750">
        <ele>1270.6</ele>
        <time>2020-11-17T10:51:26Z</time>
      </trkpt>
      <trkpt lat="28.5865150" lon="-17.8581470">
        <ele>1270.9</ele>
        <time>2020-11-17T10:51:27Z</time>
      </trkpt>
      <trkpt lat="28.5865070" lon="-17.8581400">
        <ele>1271.0</ele>
        <time>2020-11-17T10:51:28Z</time>
      </trkpt>
      <trkpt lat="28.5865070" lon="-17.8581400">
        <ele>1271.0</ele>
        <time>2020-11-17T10:51:29Z</time>
      </trkpt>
      <trkpt lat="28.5864870" lon="-17.8581100">
        <ele>1271.4</ele>
        <time>2020-11-17T10:51:30Z</time>
      </trkpt>
      <trkpt lat="28.5864870" lon="-17.8581100">
        <ele>1271.4</ele>
        <time>2020-11-17T10:51:31Z</time>
      </trkpt>
      <trkpt lat="28.5864720" lon="-17.8580780">
        <ele>1271.7</ele>
        <time>2020-11-17T10:51:32Z</time>
      </trkpt>
      <trkpt lat="28.5864720" lon="-17.8580780">
        <ele>1271.7</ele>
        <time>2020-11-17T10:51:33Z</time>
      </trkpt>
      <trkpt lat="28.5864470" lon="-17.8580450">
        <ele>1272.1</ele>
        <time>2020-11-17T10:51:34Z</time>
      </trkpt>
      <trkpt lat="28.5864470" lon="-17.8580450">
        <ele>1272.1</ele>
        <time>2020-11-17T10:51:35Z</time>
      </trkpt>
      <trkpt lat="28.5864200" lon="-17.8580220">
        <ele>1272.4</ele>
        <time>2020-11-17T10:51:36Z</time>
      </trkpt>
      <trkpt lat="28.5864200" lon="-17.8580220">
        <ele>1272.4</ele>
        <time>2020-11-17T10:51:37Z</time>
      </trkpt>
      <trkpt lat="28.5863970" lon="-17.8580000">
        <ele>1272.7</ele>
        <time>2020-11-17T10:51:38Z</time>
      </trkpt>
      <trkpt lat="28.5863830" lon="-17.8579880">
        <ele>1272.9</ele>
        <time>2020-11-17T10:51:39Z</time>
      </trkpt>
      <trkpt lat="28.5863830" lon="-17.8579880">
        <ele>1272.9</ele>
        <time>2020-11-17T10:51:40Z</time>
      </trkpt>
      <trkpt lat="28.5863600" lon="-17.8579650">
        <ele>1273.1</ele>
        <time>2020-11-17T10:51:41Z</time>
      </trkpt>
      <trkpt lat="28.5863600" lon="-17.8579650">
        <ele>1273.1</ele>
        <time>2020-11-17T10:51:42Z</time>
      </trkpt>
      <trkpt lat="28.5863350" lon="-17.8579500">
        <ele>1273.4</ele>
        <time>2020-11-17T10:51:43Z</time>
      </trkpt>
      <trkpt lat="28.5863350" lon="-17.8579500">
        <ele>1273.4</ele>
        <time>2020-11-17T10:51:44Z</time>
      </trkpt>
      <trkpt lat="28.5863050" lon="-17.8579350">
        <ele>1273.7</ele>
        <time>2020-11-17T10:51:45Z</time>
      </trkpt>
      <trkpt lat="28.5863050" lon="-17.8579350">
        <ele>1273.7</ele>
        <time>2020-11-17T10:51:46Z</time>
      </trkpt>
      <trkpt lat="28.5862680" lon="-17.8579170">
        <ele>1274.0</ele>
        <time>2020-11-17T10:51:47Z</time>
      </trkpt>
      <trkpt lat="28.5862680" lon="-17.8579170">
        <ele>1274.0</ele>
        <time>2020-11-17T10:51:48Z</time>
      </trkpt>
      <trkpt lat="28.5862280" lon="-17.8578820">
        <ele>1274.4</ele>
        <time>2020-11-17T10:51:49Z</time>
      </trkpt>
      <trkpt lat="28.5862100" lon="-17.8578620">
        <ele>1274.6</ele>
        <time>2020-11-17T10:51:50Z</time>
      </trkpt>
      <trkpt lat="28.5862100" lon="-17.8578620">
        <ele>1274.6</ele>
        <time>2020-11-17T10:51:51Z</time>
      </trkpt>
      <trkpt lat="28.5861770" lon="-17.8578420">
        <ele>1274.9</ele>
        <time>2020-11-17T10:51:52Z</time>
      </trkpt>
      <trkpt lat="28.5861770" lon="-17.8578420">
        <ele>1274.9</ele>
        <time>2020-11-17T10:51:53Z</time>
      </trkpt>
      <trkpt lat="28.5861480" lon="-17.8578300">
        <ele>1275.1</ele>
        <time>2020-11-17T10:51:54Z</time>
      </trkpt>
      <trkpt lat="28.5861480" lon="-17.8578300">
        <ele>1275.1</ele>
        <time>2020-11-17T10:51:55Z</time>
      </trkpt>
      <trkpt lat="28.5861070" lon="-17.8578120">
        <ele>1275.3</ele>
        <time>2020-11-17T10:51:56Z</time>
      </trkpt>
      <trkpt lat="28.5860850" lon="-17.8578030">
        <ele>1275.5</ele>
        <time>2020-11-17T10:51:57Z</time>
      </trkpt>
      <trkpt lat="28.5860850" lon="-17.8578030">
        <ele>1275.5</ele>
        <time>2020-11-17T10:51:58Z</time>
      </trkpt>
      <trkpt lat="28.5860520" lon="-17.8577770">
        <ele>1275.7</ele>
        <time>2020-11-17T10:51:59Z</time>
      </trkpt>
      <trkpt lat="28.5860380" lon="-17.8577630">
        <ele>1275.8</ele>
        <time>2020-11-17T10:52:00Z</time>
      </trkpt>
      <trkpt lat="28.5860380" lon="-17.8577630">
        <ele>1275.8</ele>
        <time>2020-11-17T10:52:01Z</time>
      </trkpt>
      <trkpt lat="28.5860130" lon="-17.8577250">
        <ele>1276.0</ele>
        <time>2020-11-17T10:52:02Z</time>
      </trkpt>
      <trkpt lat="28.5860020" lon="-17.8577050">
        <ele>1276.1</ele>
        <time>2020-11-17T10:52:03Z</time>
      </trkpt>
      <trkpt lat="28.5859930" lon="-17.8576870">
        <ele>1276.2</ele>
        <time>2020-11-17T10:52:04Z</time>
      </trkpt>
      <trkpt lat="28.5859930" lon="-17.8576870">
        <ele>1276.2</ele>
        <time>2020-11-17T10:52:05Z</time>
      </trkpt>
      <trkpt lat="28.5859680" lon="-17.8576550">
        <ele>1276.3</ele>
        <time>2020-11-17T10:52:06Z</time>
      </trkpt>
      <trkpt lat="28.5859680" lon="-17.8576550">
        <ele>1276.3</ele>
        <time>2020-11-17T10:52:07Z</time>
      </trkpt>
      <trkpt lat="28.5859480" lon="-17.8576270">
        <ele>1276.4</ele>
        <time>2020-11-17T10:52:08Z</time>
      </trkpt>
      <trkpt lat="28.5859370" lon="-17.8576070">
        <ele>1276.5</ele>
        <time>2020-11-17T10:52:09Z</time>
      </trkpt>
      <trkpt lat="28.5859370" lon="-17.8576070">
        <ele>1276.5</ele>
        <time>2020-11-17T10:52:10Z</time>
      </trkpt>
      <trkpt lat="28.5859070" lon="-17.8575700">
        <ele>1276.7</ele>
        <time>2020-11-17T10:52:11Z</time>
      </trkpt>
      <trkpt lat="28.5858870" lon="-17.8575520">
        <ele>1276.8</ele>
        <time>2020-11-17T10:52:12Z</time>
      </trkpt>
      <trkpt lat="28.5858870" lon="-17.8575520">
        <ele>1276.8</ele>
        <time>2020-11-17T10:52:13Z</time>
      </trkpt>
      <trkpt lat="28.5858620" lon="-17.8575100">
        <ele>1277.1</ele>
        <time>2020-11-17T10:52:14Z</time>
      </trkpt>
      <trkpt lat="28.5858370" lon="-17.8574850">
        <ele>1277.2</ele>
        <time>2020-11-17T10:52:15Z</time>
      </trkpt>
      <trkpt lat="28.5858370" lon="-17.8574850">
        <ele>1277.2</ele>
        <time>2020-11-17T10:52:16Z</time>
      </trkpt>
      <trkpt lat="28.5857930" lon="-17.8574450">
        <ele>1277.6</ele>
        <time>2020-11-17T10:52:17Z</time>
      </trkpt>
      <trkpt lat="28.5857520" lon="-17.8573930">
        <ele>1278.0</ele>
        <time>2020-11-17T10:52:18Z</time>
      </trkpt>
      <trkpt lat="28.5857520" lon="-17.8573930">
        <ele>1278.0</ele>
        <time>2020-11-17T10:52:19Z</time>
      </trkpt>
      <trkpt lat="28.5857030" lon="-17.8573650">
        <ele>1278.4</ele>
        <time>2020-11-17T10:52:20Z</time>
      </trkpt>
      <trkpt lat="28.5857030" lon="-17.8573650">
        <ele>1278.4</ele>
        <time>2020-11-17T10:52:21Z</time>
      </trkpt>
      <trkpt lat="28.5856600" lon="-17.8573450">
        <ele>1278.8</ele>
        <time>2020-11-17T10:52:22Z</time>
      </trkpt>
      <trkpt lat="28.5856600" lon="-17.8573450">
        <ele>1278.8</ele>
        <time>2020-11-17T10:52:23Z</time>
      </trkpt>
      <trkpt lat="28.5856280" lon="-17.8573350">
        <ele>1279.0</ele>
        <time>2020-11-17T10:52:24Z</time>
      </trkpt>
      <trkpt lat="28.5856280" lon="-17.8573350">
        <ele>1279.0</ele>
        <time>2020-11-17T10:52:25Z</time>
      </trkpt>
      <trkpt lat="28.5855970" lon="-17.8573270">
        <ele>1279.3</ele>
        <time>2020-11-17T10:52:26Z</time>
      </trkpt>
      <trkpt lat="28.5855970" lon="-17.8573270">
        <ele>1279.3</ele>
        <time>2020-11-17T10:52:27Z</time>
      </trkpt>
      <trkpt lat="28.5855550" lon="-17.8573070">
        <ele>1279.7</ele>
        <time>2020-11-17T10:52:28Z</time>
      </trkpt>
      <trkpt lat="28.5855350" lon="-17.8572970">
        <ele>1279.9</ele>
        <time>2020-11-17T10:52:29Z</time>
      </trkpt>
      <trkpt lat="28.5855350" lon="-17.8572970">
        <ele>1279.9</ele>
        <time>2020-11-17T10:52:30Z</time>
      </trkpt>
      <trkpt lat="28.5854920" lon="-17.8572920">
        <ele>1280.4</ele>
        <time>2020-11-17T10:52:31Z</time>
      </trkpt>
      <trkpt lat="28.5854920" lon="-17.8572920">
        <ele>1280.4</ele>
        <time>2020-11-17T10:52:32Z</time>
      </trkpt>
      <trkpt lat="28.5854480" lon="-17.8572820">
        <ele>1280.8</ele>
        <time>2020-11-17T10:52:33Z</time>
      </trkpt>
      <trkpt lat="28.5854280" lon="-17.8572770">
        <ele>1281.0</ele>
        <time>2020-11-17T10:52:34Z</time>
      </trkpt>
      <trkpt lat="28.5854280" lon="-17.8572770">
        <ele>1281.0</ele>
        <time>2020-11-17T10:52:35Z</time>
      </trkpt>
      <trkpt lat="28.5853870" lon="-17.8572650">
        <ele>1281.4</ele>
        <time>2020-11-17T10:52:36Z</time>
      </trkpt>
      <trkpt lat="28.5853870" lon="-17.8572650">
        <ele>1281.4</ele>
        <time>2020-11-17T10:52:37Z</time>
      </trkpt>
      <trkpt lat="28.5853400" lon="-17.8572480">
        <ele>1281.8</ele>
        <time>2020-11-17T10:52:38Z</time>
      </trkpt>
      <trkpt lat="28.5853200" lon="-17.8572420">
        <ele>1282.0</ele>
        <time>2020-11-17T10:52:39Z</time>
      </trkpt>
      <trkpt lat="28.5852900" lon="-17.8572470">
        <ele>1282.2</ele>
        <time>2020-11-17T10:52:40Z</time>
      </trkpt>
      <trkpt lat="28.5852900" lon="-17.8572470">
        <ele>1282.2</ele>
        <time>2020-11-17T10:52:41Z</time>
      </trkpt>
      <trkpt lat="28.5852350" lon="-17.8572430">
        <ele>1282.6</ele>
        <time>2020-11-17T10:52:42Z</time>
      </trkpt>
      <trkpt lat="28.5852350" lon="-17.8572430">
        <ele>1282.6</ele>
        <time>2020-11-17T10:52:43Z</time>
      </trkpt>
      <trkpt lat="28.5851800" lon="-17.8572420">
        <ele>1283.0</ele>
        <time>2020-11-17T10:52:44Z</time>
      </trkpt>
      <trkpt lat="28.5851520" lon="-17.8572430">
        <ele>1283.1</ele>
        <time>2020-11-17T10:52:45Z</time>
      </trkpt>
      <trkpt lat="28.5851520" lon="-17.8572430">
        <ele>1283.1</ele>
        <time>2020-11-17T10:52:46Z</time>
      </trkpt>
      <trkpt lat="28.5851050" lon="-17.8572320">
        <ele>1283.4</ele>
        <time>2020-11-17T10:52:47Z</time>
      </trkpt>
      <trkpt lat="28.5851050" lon="-17.8572320">
        <ele>1283.4</ele>
        <time>2020-11-17T10:52:48Z</time>
      </trkpt>
      <trkpt lat="28.5850580" lon="-17.8572020">
        <ele>1283.7</ele>
        <time>2020-11-17T10:52:49Z</time>
      </trkpt>
      <trkpt lat="28.5850580" lon="-17.8572020">
        <ele>1283.7</ele>
        <time>2020-11-17T10:52:50Z</time>
      </trkpt>
      <trkpt lat="28.5850180" lon="-17.8571700">
        <ele>1284.1</ele>
        <time>2020-11-17T10:52:51Z</time>
      </trkpt>
      <trkpt lat="28.5850180" lon="-17.8571700">
        <ele>1284.1</ele>
        <time>2020-11-17T10:52:52Z</time>
      </trkpt>
      <trkpt lat="28.5849830" lon="-17.8571320">
        <ele>1284.0</ele>
        <time>2020-11-17T10:52:53Z</time>
      </trkpt>
      <trkpt lat="28.5849830" lon="-17.8571320">
        <ele>1284.0</ele>
        <time>2020-11-17T10:52:54Z</time>
      </trkpt>
      <trkpt lat="28.5849470" lon="-17.8570830">
        <ele>1283.9</ele>
        <time>2020-11-17T10:52:55Z</time>
      </trkpt>
      <trkpt lat="28.5849270" lon="-17.8570580">
        <ele>1283.9</ele>
        <time>2020-11-17T10:52:56Z</time>
      </trkpt>
      <trkpt lat="28.5849270" lon="-17.8570580">
        <ele>1283.9</ele>
        <time>2020-11-17T10:52:57Z</time>
      </trkpt>
      <trkpt lat="28.5848830" lon="-17.8570230">
        <ele>1283.7</ele>
        <time>2020-11-17T10:52:58Z</time>
      </trkpt>
      <trkpt lat="28.5848830" lon="-17.8570230">
        <ele>1283.7</ele>
        <time>2020-11-17T10:52:59Z</time>
      </trkpt>
      <trkpt lat="28.5848300" lon="-17.8570030">
        <ele>1283.6</ele>
        <time>2020-11-17T10:53:00Z</time>
      </trkpt>
      <trkpt lat="28.5847880" lon="-17.8570030">
        <ele>1283.5</ele>
        <time>2020-11-17T10:53:01Z</time>
      </trkpt>
      <trkpt lat="28.5847880" lon="-17.8570030">
        <ele>1283.5</ele>
        <time>2020-11-17T10:53:02Z</time>
      </trkpt>
      <trkpt lat="28.5847250" lon="-17.8570330">
        <ele>1283.4</ele>
        <time>2020-11-17T10:53:03Z</time>
      </trkpt>
      <trkpt lat="28.5847030" lon="-17.8570600">
        <ele>1283.4</ele>
        <time>2020-11-17T10:53:04Z</time>
      </trkpt>
      <trkpt lat="28.5847030" lon="-17.8570600">
        <ele>1283.4</ele>
        <time>2020-11-17T10:53:05Z</time>
      </trkpt>
      <trkpt lat="28.5846550" lon="-17.8571120">
        <ele>1283.4</ele>
        <time>2020-11-17T10:53:06Z</time>
      </trkpt>
      <trkpt lat="28.5846270" lon="-17.8571350">
        <ele>1283.4</ele>
        <time>2020-11-17T10:53:07Z</time>
      </trkpt>
      <trkpt lat="28.5846270" lon="-17.8571350">
        <ele>1283.4</ele>
        <time>2020-11-17T10:53:08Z</time>
      </trkpt>
      <trkpt lat="28.5845770" lon="-17.8571570">
        <ele>1283.5</ele>
        <time>2020-11-17T10:53:09Z</time>
      </trkpt>
      <trkpt lat="28.5845580" lon="-17.8571620">
        <ele>1283.5</ele>
        <time>2020-11-17T10:53:10Z</time>
      </trkpt>
      <trkpt lat="28.5845580" lon="-17.8571620">
        <ele>1283.5</ele>
        <time>2020-11-17T10:53:11Z</time>
      </trkpt>
      <trkpt lat="28.5845200" lon="-17.8571670">
        <ele>1283.7</ele>
        <time>2020-11-17T10:53:12Z</time>
      </trkpt>
      <trkpt lat="28.5845200" lon="-17.8571670">
        <ele>1283.7</ele>
        <time>2020-11-17T10:53:13Z</time>
      </trkpt>
      <trkpt lat="28.5844770" lon="-17.8571770">
        <ele>1283.8</ele>
        <time>2020-11-17T10:53:14Z</time>
      </trkpt>
      <trkpt lat="28.5844770" lon="-17.8571770">
        <ele>1283.8</ele>
        <time>2020-11-17T10:53:15Z</time>
      </trkpt>
      <trkpt lat="28.5844320" lon="-17.8571850">
        <ele>1284.0</ele>
        <time>2020-11-17T10:53:16Z</time>
      </trkpt>
      <trkpt lat="28.5844320" lon="-17.8571850">
        <ele>1284.0</ele>
        <time>2020-11-17T10:53:17Z</time>
      </trkpt>
      <trkpt lat="28.5843800" lon="-17.8572030">
        <ele>1284.3</ele>
        <time>2020-11-17T10:53:18Z</time>
      </trkpt>
      <trkpt lat="28.5843800" lon="-17.8572030">
        <ele>1284.3</ele>
        <time>2020-11-17T10:53:19Z</time>
      </trkpt>
      <trkpt lat="28.5843230" lon="-17.8572120">
        <ele>1284.6</ele>
        <time>2020-11-17T10:53:20Z</time>
      </trkpt>
      <trkpt lat="28.5842970" lon="-17.8572250">
        <ele>1284.7</ele>
        <time>2020-11-17T10:53:21Z</time>
      </trkpt>
      <trkpt lat="28.5842970" lon="-17.8572250">
        <ele>1284.7</ele>
        <time>2020-11-17T10:53:22Z</time>
      </trkpt>
      <trkpt lat="28.5842500" lon="-17.8572350">
        <ele>1285.0</ele>
        <time>2020-11-17T10:53:23Z</time>
      </trkpt>
      <trkpt lat="28.5842300" lon="-17.8572420">
        <ele>1285.1</ele>
        <time>2020-11-17T10:53:24Z</time>
      </trkpt>
      <trkpt lat="28.5842300" lon="-17.8572420">
        <ele>1285.1</ele>
        <time>2020-11-17T10:53:25Z</time>
      </trkpt>
      <trkpt lat="28.5841930" lon="-17.8572500">
        <ele>1285.3</ele>
        <time>2020-11-17T10:53:26Z</time>
      </trkpt>
      <trkpt lat="28.5841930" lon="-17.8572500">
        <ele>1285.3</ele>
        <time>2020-11-17T10:53:27Z</time>
      </trkpt>
      <trkpt lat="28.5841480" lon="-17.8572480">
        <ele>1285.5</ele>
        <time>2020-11-17T10:53:28Z</time>
      </trkpt>
      <trkpt lat="28.5841270" lon="-17.8572470">
        <ele>1285.6</ele>
        <time>2020-11-17T10:53:29Z</time>
      </trkpt>
      <trkpt lat="28.5841070" lon="-17.8572380">
        <ele>1285.7</ele>
        <time>2020-11-17T10:53:30Z</time>
      </trkpt>
      <trkpt lat="28.5841070" lon="-17.8572380">
        <ele>1285.7</ele>
        <time>2020-11-17T10:53:31Z</time>
      </trkpt>
      <trkpt lat="28.5840670" lon="-17.8572270">
        <ele>1285.9</ele>
        <time>2020-11-17T10:53:32Z</time>
      </trkpt>
      <trkpt lat="28.5840670" lon="-17.8572270">
        <ele>1285.9</ele>
        <time>2020-11-17T10:53:33Z</time>
      </trkpt>
      <trkpt lat="28.5840280" lon="-17.8572050">
        <ele>1286.0</ele>
        <time>2020-11-17T10:53:34Z</time>
      </trkpt>
      <trkpt lat="28.5840280" lon="-17.8572050">
        <ele>1286.0</ele>
        <time>2020-11-17T10:53:35Z</time>
      </trkpt>
      <trkpt lat="28.5839880" lon="-17.8571730">
        <ele>1286.2</ele>
        <time>2020-11-17T10:53:36Z</time>
      </trkpt>
      <trkpt lat="28.5839880" lon="-17.8571730">
        <ele>1286.2</ele>
        <time>2020-11-17T10:53:37Z</time>
      </trkpt>
      <trkpt lat="28.5839380" lon="-17.8571550">
        <ele>1286.3</ele>
        <time>2020-11-17T10:53:38Z</time>
      </trkpt>
      <trkpt lat="28.5839380" lon="-17.8571550">
        <ele>1286.3</ele>
        <time>2020-11-17T10:53:39Z</time>
      </trkpt>
      <trkpt lat="28.5838820" lon="-17.8571430">
        <ele>1286.5</ele>
        <time>2020-11-17T10:53:40Z</time>
      </trkpt>
      <trkpt lat="28.5838820" lon="-17.8571430">
        <ele>1286.5</ele>
        <time>2020-11-17T10:53:41Z</time>
      </trkpt>
      <trkpt lat="28.5838350" lon="-17.8571400">
        <ele>1286.6</ele>
        <time>2020-11-17T10:53:42Z</time>
      </trkpt>
      <trkpt lat="28.5838350" lon="-17.8571400">
        <ele>1286.6</ele>
        <time>2020-11-17T10:53:43Z</time>
      </trkpt>
      <trkpt lat="28.5837850" lon="-17.8571450">
        <ele>1286.7</ele>
        <time>2020-11-17T10:53:44Z</time>
      </trkpt>
      <trkpt lat="28.5837850" lon="-17.8571450">
        <ele>1286.7</ele>
        <time>2020-11-17T10:53:45Z</time>
      </trkpt>
      <trkpt lat="28.5837370" lon="-17.8571470">
        <ele>1286.9</ele>
        <time>2020-11-17T10:53:46Z</time>
      </trkpt>
      <trkpt lat="28.5837130" lon="-17.8571500">
        <ele>1286.9</ele>
        <time>2020-11-17T10:53:47Z</time>
      </trkpt>
      <trkpt lat="28.5837130" lon="-17.8571500">
        <ele>1286.9</ele>
        <time>2020-11-17T10:53:48Z</time>
      </trkpt>
      <trkpt lat="28.5836720" lon="-17.8571530">
        <ele>1287.1</ele>
        <time>2020-11-17T10:53:49Z</time>
      </trkpt>
      <trkpt lat="28.5836500" lon="-17.8571520">
        <ele>1287.2</ele>
        <time>2020-11-17T10:53:50Z</time>
      </trkpt>
      <trkpt lat="28.5836500" lon="-17.8571520">
        <ele>1287.2</ele>
        <time>2020-11-17T10:53:51Z</time>
      </trkpt>
      <trkpt lat="28.5836120" lon="-17.8571550">
        <ele>1287.3</ele>
        <time>2020-11-17T10:53:52Z</time>
      </trkpt>
      <trkpt lat="28.5836120" lon="-17.8571550">
        <ele>1287.3</ele>
        <time>2020-11-17T10:53:53Z</time>
      </trkpt>
      <trkpt lat="28.5835650" lon="-17.8571620">
        <ele>1287.5</ele>
        <time>2020-11-17T10:53:54Z</time>
      </trkpt>
      <trkpt lat="28.5835650" lon="-17.8571620">
        <ele>1287.5</ele>
        <time>2020-11-17T10:53:55Z</time>
      </trkpt>
      <trkpt lat="28.5835320" lon="-17.8571600">
        <ele>1287.7</ele>
        <time>2020-11-17T10:53:56Z</time>
      </trkpt>
      <trkpt lat="28.5835320" lon="-17.8571600">
        <ele>1287.7</ele>
        <time>2020-11-17T10:53:57Z</time>
      </trkpt>
      <trkpt lat="28.5834930" lon="-17.8571570">
        <ele>1287.9</ele>
        <time>2020-11-17T10:53:58Z</time>
      </trkpt>
      <trkpt lat="28.5834930" lon="-17.8571570">
        <ele>1287.9</ele>
        <time>2020-11-17T10:53:59Z</time>
      </trkpt>
      <trkpt lat="28.5834580" lon="-17.8571450">
        <ele>1288.2</ele>
        <time>2020-11-17T10:54:00Z</time>
      </trkpt>
      <trkpt lat="28.5834580" lon="-17.8571450">
        <ele>1288.2</ele>
        <time>2020-11-17T10:54:01Z</time>
      </trkpt>
      <trkpt lat="28.5834200" lon="-17.8571320">
        <ele>1288.4</ele>
        <time>2020-11-17T10:54:02Z</time>
      </trkpt>
      <trkpt lat="28.5834200" lon="-17.8571320">
        <ele>1288.4</ele>
        <time>2020-11-17T10:54:03Z</time>
      </trkpt>
      <trkpt lat="28.5833870" lon="-17.8571080">
        <ele>1288.7</ele>
        <time>2020-11-17T10:54:04Z</time>
      </trkpt>
      <trkpt lat="28.5833730" lon="-17.8570980">
        <ele>1288.8</ele>
        <time>2020-11-17T10:54:05Z</time>
      </trkpt>
      <trkpt lat="28.5833730" lon="-17.8570980">
        <ele>1288.8</ele>
        <time>2020-11-17T10:54:06Z</time>
      </trkpt>
      <trkpt lat="28.5833480" lon="-17.8570720">
        <ele>1289.1</ele>
        <time>2020-11-17T10:54:07Z</time>
      </trkpt>
      <trkpt lat="28.5833480" lon="-17.8570720">
        <ele>1289.1</ele>
        <time>2020-11-17T10:54:08Z</time>
      </trkpt>
      <trkpt lat="28.5833250" lon="-17.8570470">
        <ele>1289.3</ele>
        <time>2020-11-17T10:54:09Z</time>
      </trkpt>
      <trkpt lat="28.5833250" lon="-17.8570470">
        <ele>1289.3</ele>
        <time>2020-11-17T10:54:10Z</time>
      </trkpt>
      <trkpt lat="28.5832980" lon="-17.8570150">
        <ele>1289.6</ele>
        <time>2020-11-17T10:54:11Z</time>
      </trkpt>
      <trkpt lat="28.5832870" lon="-17.8569970">
        <ele>1289.8</ele>
        <time>2020-11-17T10:54:12Z</time>
      </trkpt>
      <trkpt lat="28.5832870" lon="-17.8569970">
        <ele>1289.8</ele>
        <time>2020-11-17T10:54:13Z</time>
      </trkpt>
      <trkpt lat="28.5832620" lon="-17.8569620">
        <ele>1290.1</ele>
        <time>2020-11-17T10:54:14Z</time>
      </trkpt>
      <trkpt lat="28.5832620" lon="-17.8569620">
        <ele>1290.1</ele>
        <time>2020-11-17T10:54:15Z</time>
      </trkpt>
      <trkpt lat="28.5832380" lon="-17.8569250">
        <ele>1290.4</ele>
        <time>2020-11-17T10:54:16Z</time>
      </trkpt>
      <trkpt lat="28.5832380" lon="-17.8569250">
        <ele>1290.4</ele>
        <time>2020-11-17T10:54:17Z</time>
      </trkpt>
      <trkpt lat="28.5832100" lon="-17.8568970">
        <ele>1290.7</ele>
        <time>2020-11-17T10:54:18Z</time>
      </trkpt>
      <trkpt lat="28.5832100" lon="-17.8568970">
        <ele>1290.7</ele>
        <time>2020-11-17T10:54:19Z</time>
      </trkpt>
      <trkpt lat="28.5831770" lon="-17.8568700">
        <ele>1291.0</ele>
        <time>2020-11-17T10:54:20Z</time>
      </trkpt>
      <trkpt lat="28.5831600" lon="-17.8568630">
        <ele>1291.1</ele>
        <time>2020-11-17T10:54:21Z</time>
      </trkpt>
      <trkpt lat="28.5831600" lon="-17.8568630">
        <ele>1291.1</ele>
        <time>2020-11-17T10:54:22Z</time>
      </trkpt>
      <trkpt lat="28.5831220" lon="-17.8568630">
        <ele>1291.4</ele>
        <time>2020-11-17T10:54:23Z</time>
      </trkpt>
      <trkpt lat="28.5830970" lon="-17.8568750">
        <ele>1291.5</ele>
        <time>2020-11-17T10:54:24Z</time>
      </trkpt>
      <trkpt lat="28.5830970" lon="-17.8568750">
        <ele>1291.5</ele>
        <time>2020-11-17T10:54:25Z</time>
      </trkpt>
      <trkpt lat="28.5830620" lon="-17.8569030">
        <ele>1291.8</ele>
        <time>2020-11-17T10:54:26Z</time>
      </trkpt>
      <trkpt lat="28.5830620" lon="-17.8569030">
        <ele>1291.8</ele>
        <time>2020-11-17T10:54:27Z</time>
      </trkpt>
      <trkpt lat="28.5830300" lon="-17.8569380">
        <ele>1292.1</ele>
        <time>2020-11-17T10:54:28Z</time>
      </trkpt>
      <trkpt lat="28.5830300" lon="-17.8569380">
        <ele>1292.1</ele>
        <time>2020-11-17T10:54:29Z</time>
      </trkpt>
      <trkpt lat="28.5830150" lon="-17.8569680">
        <ele>1292.2</ele>
        <time>2020-11-17T10:54:30Z</time>
      </trkpt>
      <trkpt lat="28.5830150" lon="-17.8569680">
        <ele>1292.2</ele>
        <time>2020-11-17T10:54:31Z</time>
      </trkpt>
      <trkpt lat="28.5829950" lon="-17.8570050">
        <ele>1292.4</ele>
        <time>2020-11-17T10:54:32Z</time>
      </trkpt>
      <trkpt lat="28.5829950" lon="-17.8570050">
        <ele>1292.4</ele>
        <time>2020-11-17T10:54:33Z</time>
      </trkpt>
      <trkpt lat="28.5829820" lon="-17.8570500">
        <ele>1292.5</ele>
        <time>2020-11-17T10:54:34Z</time>
      </trkpt>
      <trkpt lat="28.5829820" lon="-17.8570500">
        <ele>1292.5</ele>
        <time>2020-11-17T10:54:35Z</time>
      </trkpt>
      <trkpt lat="28.5829680" lon="-17.8570850">
        <ele>1292.6</ele>
        <time>2020-11-17T10:54:36Z</time>
      </trkpt>
      <trkpt lat="28.5829680" lon="-17.8570850">
        <ele>1292.6</ele>
        <time>2020-11-17T10:54:37Z</time>
      </trkpt>
      <trkpt lat="28.5829580" lon="-17.8571270">
        <ele>1292.7</ele>
        <time>2020-11-17T10:54:38Z</time>
      </trkpt>
      <trkpt lat="28.5829580" lon="-17.8571270">
        <ele>1292.7</ele>
        <time>2020-11-17T10:54:39Z</time>
      </trkpt>
      <trkpt lat="28.5829400" lon="-17.8571780">
        <ele>1292.8</ele>
        <time>2020-11-17T10:54:40Z</time>
      </trkpt>
      <trkpt lat="28.5829400" lon="-17.8571780">
        <ele>1292.8</ele>
        <time>2020-11-17T10:54:41Z</time>
      </trkpt>
      <trkpt lat="28.5829320" lon="-17.8572350">
        <ele>1292.9</ele>
        <time>2020-11-17T10:54:42Z</time>
      </trkpt>
      <trkpt lat="28.5829320" lon="-17.8572350">
        <ele>1292.9</ele>
        <time>2020-11-17T10:54:43Z</time>
      </trkpt>
      <trkpt lat="28.5829200" lon="-17.8572930">
        <ele>1293.0</ele>
        <time>2020-11-17T10:54:44Z</time>
      </trkpt>
      <trkpt lat="28.5829200" lon="-17.8572930">
        <ele>1293.0</ele>
        <time>2020-11-17T10:54:45Z</time>
      </trkpt>
      <trkpt lat="28.5829100" lon="-17.8573550">
        <ele>1293.0</ele>
        <time>2020-11-17T10:54:46Z</time>
      </trkpt>
      <trkpt lat="28.5829100" lon="-17.8573550">
        <ele>1293.0</ele>
        <time>2020-11-17T10:54:47Z</time>
      </trkpt>
      <trkpt lat="28.5828920" lon="-17.8574120">
        <ele>1293.1</ele>
        <time>2020-11-17T10:54:48Z</time>
      </trkpt>
      <trkpt lat="28.5828920" lon="-17.8574120">
        <ele>1293.1</ele>
        <time>2020-11-17T10:54:49Z</time>
      </trkpt>
      <trkpt lat="28.5828720" lon="-17.8574750">
        <ele>1293.1</ele>
        <time>2020-11-17T10:54:50Z</time>
      </trkpt>
      <trkpt lat="28.5828720" lon="-17.8574750">
        <ele>1293.1</ele>
        <time>2020-11-17T10:54:51Z</time>
      </trkpt>
      <trkpt lat="28.5828320" lon="-17.8575300">
        <ele>1293.1</ele>
        <time>2020-11-17T10:54:52Z</time>
      </trkpt>
      <trkpt lat="28.5828030" lon="-17.8575630">
        <ele>1293.1</ele>
        <time>2020-11-17T10:54:53Z</time>
      </trkpt>
      <trkpt lat="28.5828030" lon="-17.8575630">
        <ele>1293.1</ele>
        <time>2020-11-17T10:54:54Z</time>
      </trkpt>
      <trkpt lat="28.5827370" lon="-17.8575870">
        <ele>1293.1</ele>
        <time>2020-11-17T10:54:55Z</time>
      </trkpt>
      <trkpt lat="28.5827370" lon="-17.8575870">
        <ele>1293.1</ele>
        <time>2020-11-17T10:54:56Z</time>
      </trkpt>
      <trkpt lat="28.5826800" lon="-17.8575730">
        <ele>1293.2</ele>
        <time>2020-11-17T10:54:57Z</time>
      </trkpt>
      <trkpt lat="28.5826570" lon="-17.8575580">
        <ele>1293.2</ele>
        <time>2020-11-17T10:54:58Z</time>
      </trkpt>
      <trkpt lat="28.5826570" lon="-17.8575580">
        <ele>1293.2</ele>
        <time>2020-11-17T10:54:59Z</time>
      </trkpt>
      <trkpt lat="28.5826200" lon="-17.8575180">
        <ele>1293.3</ele>
        <time>2020-11-17T10:55:00Z</time>
      </trkpt>
      <trkpt lat="28.5826200" lon="-17.8575180">
        <ele>1293.3</ele>
        <time>2020-11-17T10:55:01Z</time>
      </trkpt>
      <trkpt lat="28.5826200" lon="-17.8575180">
        <ele>1293.3</ele>
        <time>2020-11-17T10:55:02Z</time>
      </trkpt>
      <trkpt lat="28.5825970" lon="-17.8574730">
        <ele>1293.4</ele>
        <time>2020-11-17T10:55:03Z</time>
      </trkpt>
      <trkpt lat="28.5825700" lon="-17.8574250">
        <ele>1293.5</ele>
        <time>2020-11-17T10:55:04Z</time>
      </trkpt>
      <trkpt lat="28.5825700" lon="-17.8574250">
        <ele>1293.5</ele>
        <time>2020-11-17T10:55:05Z</time>
      </trkpt>
      <trkpt lat="28.5825520" lon="-17.8573800">
        <ele>1293.6</ele>
        <time>2020-11-17T10:55:06Z</time>
      </trkpt>
      <trkpt lat="28.5825520" lon="-17.8573800">
        <ele>1293.6</ele>
        <time>2020-11-17T10:55:07Z</time>
      </trkpt>
      <trkpt lat="28.5825280" lon="-17.8573350">
        <ele>1293.8</ele>
        <time>2020-11-17T10:55:08Z</time>
      </trkpt>
      <trkpt lat="28.5825180" lon="-17.8573130">
        <ele>1293.9</ele>
        <time>2020-11-17T10:55:09Z</time>
      </trkpt>
      <trkpt lat="28.5825180" lon="-17.8573130">
        <ele>1293.9</ele>
        <time>2020-11-17T10:55:10Z</time>
      </trkpt>
      <trkpt lat="28.5825000" lon="-17.8572720">
        <ele>1294.0</ele>
        <time>2020-11-17T10:55:11Z</time>
      </trkpt>
      <trkpt lat="28.5824880" lon="-17.8572530">
        <ele>1294.1</ele>
        <time>2020-11-17T10:55:12Z</time>
      </trkpt>
      <trkpt lat="28.5824880" lon="-17.8572530">
        <ele>1294.1</ele>
        <time>2020-11-17T10:55:13Z</time>
      </trkpt>
      <trkpt lat="28.5824700" lon="-17.8572150">
        <ele>1294.3</ele>
        <time>2020-11-17T10:55:14Z</time>
      </trkpt>
      <trkpt lat="28.5824700" lon="-17.8572150">
        <ele>1294.3</ele>
        <time>2020-11-17T10:55:15Z</time>
      </trkpt>
      <trkpt lat="28.5824530" lon="-17.8571850">
        <ele>1294.4</ele>
        <time>2020-11-17T10:55:16Z</time>
      </trkpt>
      <trkpt lat="28.5824530" lon="-17.8571850">
        <ele>1294.4</ele>
        <time>2020-11-17T10:55:17Z</time>
      </trkpt>
      <trkpt lat="28.5824350" lon="-17.8571530">
        <ele>1294.6</ele>
        <time>2020-11-17T10:55:18Z</time>
      </trkpt>
      <trkpt lat="28.5824350" lon="-17.8571530">
        <ele>1294.6</ele>
        <time>2020-11-17T10:55:19Z</time>
      </trkpt>
      <trkpt lat="28.5824150" lon="-17.8571230">
        <ele>1294.7</ele>
        <time>2020-11-17T10:55:20Z</time>
      </trkpt>
      <trkpt lat="28.5824150" lon="-17.8571230">
        <ele>1294.7</ele>
        <time>2020-11-17T10:55:21Z</time>
      </trkpt>
      <trkpt lat="28.5823870" lon="-17.8571020">
        <ele>1294.9</ele>
        <time>2020-11-17T10:55:22Z</time>
      </trkpt>
      <trkpt lat="28.5823870" lon="-17.8571020">
        <ele>1294.9</ele>
        <time>2020-11-17T10:55:23Z</time>
      </trkpt>
      <trkpt lat="28.5823570" lon="-17.8570870">
        <ele>1295.1</ele>
        <time>2020-11-17T10:55:24Z</time>
      </trkpt>
      <trkpt lat="28.5823570" lon="-17.8570870">
        <ele>1295.1</ele>
        <time>2020-11-17T10:55:25Z</time>
      </trkpt>
      <trkpt lat="28.5823330" lon="-17.8570750">
        <ele>1295.2</ele>
        <time>2020-11-17T10:55:26Z</time>
      </trkpt>
      <trkpt lat="28.5823150" lon="-17.8570720">
        <ele>1295.3</ele>
        <time>2020-11-17T10:55:27Z</time>
      </trkpt>
      <trkpt lat="28.5823150" lon="-17.8570720">
        <ele>1295.3</ele>
        <time>2020-11-17T10:55:28Z</time>
      </trkpt>
      <trkpt lat="28.5822770" lon="-17.8570550">
        <ele>1295.5</ele>
        <time>2020-11-17T10:55:29Z</time>
      </trkpt>
      <trkpt lat="28.5822570" lon="-17.8570480">
        <ele>1295.6</ele>
        <time>2020-11-17T10:55:30Z</time>
      </trkpt>
      <trkpt lat="28.5822570" lon="-17.8570480">
        <ele>1295.6</ele>
        <time>2020-11-17T10:55:31Z</time>
      </trkpt>
      <trkpt lat="28.5822180" lon="-17.8570300">
        <ele>1296.2</ele>
        <time>2020-11-17T10:55:32Z</time>
      </trkpt>
      <trkpt lat="28.5822020" lon="-17.8570180">
        <ele>1296.3</ele>
        <time>2020-11-17T10:55:33Z</time>
      </trkpt>
      <trkpt lat="28.5822020" lon="-17.8570180">
        <ele>1296.3</ele>
        <time>2020-11-17T10:55:34Z</time>
      </trkpt>
      <trkpt lat="28.5821750" lon="-17.8569950">
        <ele>1296.4</ele>
        <time>2020-11-17T10:55:35Z</time>
      </trkpt>
      <trkpt lat="28.5821630" lon="-17.8569780">
        <ele>1296.5</ele>
        <time>2020-11-17T10:55:36Z</time>
      </trkpt>
      <trkpt lat="28.5821630" lon="-17.8569780">
        <ele>1296.5</ele>
        <time>2020-11-17T10:55:37Z</time>
      </trkpt>
      <trkpt lat="28.5821280" lon="-17.8569470">
        <ele>1296.6</ele>
        <time>2020-11-17T10:55:38Z</time>
      </trkpt>
      <trkpt lat="28.5821280" lon="-17.8569470">
        <ele>1296.6</ele>
        <time>2020-11-17T10:55:39Z</time>
      </trkpt>
      <trkpt lat="28.5820980" lon="-17.8569150">
        <ele>1296.7</ele>
        <time>2020-11-17T10:55:40Z</time>
      </trkpt>
      <trkpt lat="28.5820830" lon="-17.8569020">
        <ele>1296.7</ele>
        <time>2020-11-17T10:55:41Z</time>
      </trkpt>
      <trkpt lat="28.5820830" lon="-17.8569020">
        <ele>1296.7</ele>
        <time>2020-11-17T10:55:42Z</time>
      </trkpt>
      <trkpt lat="28.5820520" lon="-17.8568720">
        <ele>1296.9</ele>
        <time>2020-11-17T10:55:43Z</time>
      </trkpt>
      <trkpt lat="28.5820520" lon="-17.8568720">
        <ele>1296.9</ele>
        <time>2020-11-17T10:55:44Z</time>
      </trkpt>
      <trkpt lat="28.5820220" lon="-17.8568480">
        <ele>1297.0</ele>
        <time>2020-11-17T10:55:45Z</time>
      </trkpt>
      <trkpt lat="28.5820220" lon="-17.8568480">
        <ele>1297.0</ele>
        <time>2020-11-17T10:55:46Z</time>
      </trkpt>
      <trkpt lat="28.5819950" lon="-17.8568230">
        <ele>1297.2</ele>
        <time>2020-11-17T10:55:47Z</time>
      </trkpt>
      <trkpt lat="28.5819830" lon="-17.8568100">
        <ele>1297.2</ele>
        <time>2020-11-17T10:55:48Z</time>
      </trkpt>
      <trkpt lat="28.5819830" lon="-17.8568100">
        <ele>1297.2</ele>
        <time>2020-11-17T10:55:49Z</time>
      </trkpt>
      <trkpt lat="28.5819630" lon="-17.8567870">
        <ele>1297.4</ele>
        <time>2020-11-17T10:55:50Z</time>
      </trkpt>
      <trkpt lat="28.5819630" lon="-17.8567870">
        <ele>1297.4</ele>
        <time>2020-11-17T10:55:51Z</time>
      </trkpt>
      <trkpt lat="28.5819350" lon="-17.8567670">
        <ele>1297.5</ele>
        <time>2020-11-17T10:55:52Z</time>
      </trkpt>
      <trkpt lat="28.5819350" lon="-17.8567670">
        <ele>1297.5</ele>
        <time>2020-11-17T10:55:53Z</time>
      </trkpt>
      <trkpt lat="28.5818980" lon="-17.8567530">
        <ele>1297.7</ele>
        <time>2020-11-17T10:55:54Z</time>
      </trkpt>
      <trkpt lat="28.5818670" lon="-17.8567480">
        <ele>1297.9</ele>
        <time>2020-11-17T10:55:55Z</time>
      </trkpt>
      <trkpt lat="28.5818670" lon="-17.8567480">
        <ele>1297.9</ele>
        <time>2020-11-17T10:55:56Z</time>
      </trkpt>
      <trkpt lat="28.5818200" lon="-17.8567500">
        <ele>1298.1</ele>
        <time>2020-11-17T10:55:57Z</time>
      </trkpt>
      <trkpt lat="28.5818200" lon="-17.8567500">
        <ele>1298.1</ele>
        <time>2020-11-17T10:55:58Z</time>
      </trkpt>
      <trkpt lat="28.5817730" lon="-17.8567670">
        <ele>1298.3</ele>
        <time>2020-11-17T10:55:59Z</time>
      </trkpt>
      <trkpt lat="28.5817730" lon="-17.8567670">
        <ele>1298.3</ele>
        <time>2020-11-17T10:56:00Z</time>
      </trkpt>
      <trkpt lat="28.5817420" lon="-17.8567920">
        <ele>1298.5</ele>
        <time>2020-11-17T10:56:01Z</time>
      </trkpt>
      <trkpt lat="28.5817300" lon="-17.8568030">
        <ele>1298.6</ele>
        <time>2020-11-17T10:56:02Z</time>
      </trkpt>
      <trkpt lat="28.5817300" lon="-17.8568030">
        <ele>1298.6</ele>
        <time>2020-11-17T10:56:03Z</time>
      </trkpt>
      <trkpt lat="28.5817100" lon="-17.8568330">
        <ele>1298.7</ele>
        <time>2020-11-17T10:56:04Z</time>
      </trkpt>
      <trkpt lat="28.5817100" lon="-17.8568330">
        <ele>1298.7</ele>
        <time>2020-11-17T10:56:05Z</time>
      </trkpt>
      <trkpt lat="28.5816900" lon="-17.8568630">
        <ele>1298.8</ele>
        <time>2020-11-17T10:56:06Z</time>
      </trkpt>
      <trkpt lat="28.5816900" lon="-17.8568630">
        <ele>1298.8</ele>
        <time>2020-11-17T10:56:07Z</time>
      </trkpt>
      <trkpt lat="28.5816730" lon="-17.8568920">
        <ele>1298.9</ele>
        <time>2020-11-17T10:56:08Z</time>
      </trkpt>
      <trkpt lat="28.5816730" lon="-17.8568920">
        <ele>1298.9</ele>
        <time>2020-11-17T10:56:09Z</time>
      </trkpt>
      <trkpt lat="28.5816550" lon="-17.8569300">
        <ele>1299.0</ele>
        <time>2020-11-17T10:56:10Z</time>
      </trkpt>
      <trkpt lat="28.5816550" lon="-17.8569300">
        <ele>1299.0</ele>
        <time>2020-11-17T10:56:11Z</time>
      </trkpt>
      <trkpt lat="28.5816420" lon="-17.8569650">
        <ele>1299.1</ele>
        <time>2020-11-17T10:56:12Z</time>
      </trkpt>
      <trkpt lat="28.5816420" lon="-17.8569650">
        <ele>1299.1</ele>
        <time>2020-11-17T10:56:13Z</time>
      </trkpt>
      <trkpt lat="28.5816280" lon="-17.8569950">
        <ele>1299.2</ele>
        <time>2020-11-17T10:56:14Z</time>
      </trkpt>
      <trkpt lat="28.5816280" lon="-17.8569950">
        <ele>1299.2</ele>
        <time>2020-11-17T10:56:15Z</time>
      </trkpt>
      <trkpt lat="28.5816170" lon="-17.8570250">
        <ele>1299.3</ele>
        <time>2020-11-17T10:56:16Z</time>
      </trkpt>
      <trkpt lat="28.5816170" lon="-17.8570250">
        <ele>1299.3</ele>
        <time>2020-11-17T10:56:17Z</time>
      </trkpt>
      <trkpt lat="28.5816020" lon="-17.8570530">
        <ele>1299.4</ele>
        <time>2020-11-17T10:56:18Z</time>
      </trkpt>
      <trkpt lat="28.5816020" lon="-17.8570530">
        <ele>1299.4</ele>
        <time>2020-11-17T10:56:19Z</time>
      </trkpt>
      <trkpt lat="28.5815820" lon="-17.8570800">
        <ele>1299.5</ele>
        <time>2020-11-17T10:56:20Z</time>
      </trkpt>
      <trkpt lat="28.5815820" lon="-17.8570800">
        <ele>1299.5</ele>
        <time>2020-11-17T10:56:21Z</time>
      </trkpt>
      <trkpt lat="28.5815620" lon="-17.8571100">
        <ele>1299.6</ele>
        <time>2020-11-17T10:56:22Z</time>
      </trkpt>
      <trkpt lat="28.5815620" lon="-17.8571100">
        <ele>1299.6</ele>
        <time>2020-11-17T10:56:23Z</time>
      </trkpt>
      <trkpt lat="28.5815380" lon="-17.8571450">
        <ele>1299.7</ele>
        <time>2020-11-17T10:56:24Z</time>
      </trkpt>
      <trkpt lat="28.5815380" lon="-17.8571450">
        <ele>1299.7</ele>
        <time>2020-11-17T10:56:25Z</time>
      </trkpt>
      <trkpt lat="28.5815130" lon="-17.8571820">
        <ele>1299.8</ele>
        <time>2020-11-17T10:56:26Z</time>
      </trkpt>
      <trkpt lat="28.5815130" lon="-17.8571820">
        <ele>1299.8</ele>
        <time>2020-11-17T10:56:27Z</time>
      </trkpt>
      <trkpt lat="28.5814880" lon="-17.8572120">
        <ele>1299.9</ele>
        <time>2020-11-17T10:56:28Z</time>
      </trkpt>
      <trkpt lat="28.5814770" lon="-17.8572170">
        <ele>1299.9</ele>
        <time>2020-11-17T10:56:29Z</time>
      </trkpt>
      <trkpt lat="28.5814770" lon="-17.8572170">
        <ele>1299.9</ele>
        <time>2020-11-17T10:56:30Z</time>
      </trkpt>
      <trkpt lat="28.5814470" lon="-17.8572250">
        <ele>1300.0</ele>
        <time>2020-11-17T10:56:31Z</time>
      </trkpt>
      <trkpt lat="28.5814470" lon="-17.8572250">
        <ele>1300.0</ele>
        <time>2020-11-17T10:56:32Z</time>
      </trkpt>
      <trkpt lat="28.5814200" lon="-17.8572400">
        <ele>1300.2</ele>
        <time>2020-11-17T10:56:33Z</time>
      </trkpt>
      <trkpt lat="28.5814200" lon="-17.8572400">
        <ele>1300.2</ele>
        <time>2020-11-17T10:56:34Z</time>
      </trkpt>
      <trkpt lat="28.5813870" lon="-17.8572500">
        <ele>1300.4</ele>
        <time>2020-11-17T10:56:35Z</time>
      </trkpt>
      <trkpt lat="28.5813680" lon="-17.8572520">
        <ele>1300.5</ele>
        <time>2020-11-17T10:56:36Z</time>
      </trkpt>
      <trkpt lat="28.5813680" lon="-17.8572520">
        <ele>1300.5</ele>
        <time>2020-11-17T10:56:37Z</time>
      </trkpt>
      <trkpt lat="28.5813350" lon="-17.8572520">
        <ele>1300.7</ele>
        <time>2020-11-17T10:56:38Z</time>
      </trkpt>
      <trkpt lat="28.5813170" lon="-17.8572550">
        <ele>1300.8</ele>
        <time>2020-11-17T10:56:39Z</time>
      </trkpt>
      <trkpt lat="28.5813170" lon="-17.8572550">
        <ele>1300.8</ele>
        <time>2020-11-17T10:56:40Z</time>
      </trkpt>
      <trkpt lat="28.5812780" lon="-17.8572620">
        <ele>1301.1</ele>
        <time>2020-11-17T10:56:41Z</time>
      </trkpt>
      <trkpt lat="28.5812580" lon="-17.8572630">
        <ele>1301.2</ele>
        <time>2020-11-17T10:56:42Z</time>
      </trkpt>
      <trkpt lat="28.5812580" lon="-17.8572630">
        <ele>1301.2</ele>
        <time>2020-11-17T10:56:43Z</time>
      </trkpt>
      <trkpt lat="28.5812170" lon="-17.8572630">
        <ele>1301.5</ele>
        <time>2020-11-17T10:56:44Z</time>
      </trkpt>
      <trkpt lat="28.5811950" lon="-17.8572700">
        <ele>1301.6</ele>
        <time>2020-11-17T10:56:45Z</time>
      </trkpt>
      <trkpt lat="28.5811950" lon="-17.8572700">
        <ele>1301.6</ele>
        <time>2020-11-17T10:56:46Z</time>
      </trkpt>
      <trkpt lat="28.5811530" lon="-17.8572820">
        <ele>1301.9</ele>
        <time>2020-11-17T10:56:47Z</time>
      </trkpt>
      <trkpt lat="28.5811330" lon="-17.8572900">
        <ele>1302.0</ele>
        <time>2020-11-17T10:56:48Z</time>
      </trkpt>
      <trkpt lat="28.5811150" lon="-17.8572930">
        <ele>1302.2</ele>
        <time>2020-11-17T10:56:49Z</time>
      </trkpt>
      <trkpt lat="28.5811150" lon="-17.8572930">
        <ele>1302.2</ele>
        <time>2020-11-17T10:56:50Z</time>
      </trkpt>
      <trkpt lat="28.5810820" lon="-17.8573030">
        <ele>1302.4</ele>
        <time>2020-11-17T10:56:51Z</time>
      </trkpt>
      <trkpt lat="28.5810650" lon="-17.8573100">
        <ele>1302.5</ele>
        <time>2020-11-17T10:56:52Z</time>
      </trkpt>
      <trkpt lat="28.5810650" lon="-17.8573100">
        <ele>1302.5</ele>
        <time>2020-11-17T10:56:53Z</time>
      </trkpt>
      <trkpt lat="28.5810650" lon="-17.8573100">
        <ele>1302.5</ele>
        <time>2020-11-17T10:56:54Z</time>
      </trkpt>
      <trkpt lat="28.5810350" lon="-17.8573220">
        <ele>1302.8</ele>
        <time>2020-11-17T10:56:55Z</time>
      </trkpt>
      <trkpt lat="28.5810030" lon="-17.8573380">
        <ele>1303.0</ele>
        <time>2020-11-17T10:56:56Z</time>
      </trkpt>
      <trkpt lat="28.5810030" lon="-17.8573380">
        <ele>1303.0</ele>
        <time>2020-11-17T10:56:57Z</time>
      </trkpt>
      <trkpt lat="28.5809670" lon="-17.8573500">
        <ele>1303.3</ele>
        <time>2020-11-17T10:56:58Z</time>
      </trkpt>
      <trkpt lat="28.5809670" lon="-17.8573500">
        <ele>1303.3</ele>
        <time>2020-11-17T10:56:59Z</time>
      </trkpt>
      <trkpt lat="28.5809350" lon="-17.8573600">
        <ele>1303.5</ele>
        <time>2020-11-17T10:57:00Z</time>
      </trkpt>
      <trkpt lat="28.5809180" lon="-17.8573630">
        <ele>1303.6</ele>
        <time>2020-11-17T10:57:01Z</time>
      </trkpt>
      <trkpt lat="28.5809180" lon="-17.8573630">
        <ele>1303.6</ele>
        <time>2020-11-17T10:57:02Z</time>
      </trkpt>
      <trkpt lat="28.5808830" lon="-17.8573700">
        <ele>1303.9</ele>
        <time>2020-11-17T10:57:03Z</time>
      </trkpt>
      <trkpt lat="28.5808830" lon="-17.8573700">
        <ele>1303.9</ele>
        <time>2020-11-17T10:57:04Z</time>
      </trkpt>
      <trkpt lat="28.5808520" lon="-17.8573670">
        <ele>1304.1</ele>
        <time>2020-11-17T10:57:05Z</time>
      </trkpt>
      <trkpt lat="28.5808520" lon="-17.8573670">
        <ele>1304.1</ele>
        <time>2020-11-17T10:57:06Z</time>
      </trkpt>
      <trkpt lat="28.5808130" lon="-17.8573550">
        <ele>1304.3</ele>
        <time>2020-11-17T10:57:07Z</time>
      </trkpt>
      <trkpt lat="28.5807950" lon="-17.8573480">
        <ele>1304.4</ele>
        <time>2020-11-17T10:57:08Z</time>
      </trkpt>
      <trkpt lat="28.5807950" lon="-17.8573480">
        <ele>1304.4</ele>
        <time>2020-11-17T10:57:09Z</time>
      </trkpt>
      <trkpt lat="28.5807530" lon="-17.8573370">
        <ele>1304.7</ele>
        <time>2020-11-17T10:57:10Z</time>
      </trkpt>
      <trkpt lat="28.5807350" lon="-17.8573300">
        <ele>1304.8</ele>
        <time>2020-11-17T10:57:11Z</time>
      </trkpt>
      <trkpt lat="28.5807180" lon="-17.8573200">
        <ele>1305.0</ele>
        <time>2020-11-17T10:57:12Z</time>
      </trkpt>
      <trkpt lat="28.5807180" lon="-17.8573200">
        <ele>1305.0</ele>
        <time>2020-11-17T10:57:13Z</time>
      </trkpt>
      <trkpt lat="28.5806780" lon="-17.8573030">
        <ele>1305.2</ele>
        <time>2020-11-17T10:57:14Z</time>
      </trkpt>
      <trkpt lat="28.5806780" lon="-17.8573030">
        <ele>1305.2</ele>
        <time>2020-11-17T10:57:15Z</time>
      </trkpt>
      <trkpt lat="28.5806470" lon="-17.8572820">
        <ele>1305.5</ele>
        <time>2020-11-17T10:57:16Z</time>
      </trkpt>
      <trkpt lat="28.5806470" lon="-17.8572820">
        <ele>1305.5</ele>
        <time>2020-11-17T10:57:17Z</time>
      </trkpt>
      <trkpt lat="28.5806120" lon="-17.8572670">
        <ele>1305.7</ele>
        <time>2020-11-17T10:57:18Z</time>
      </trkpt>
      <trkpt lat="28.5806120" lon="-17.8572670">
        <ele>1305.7</ele>
        <time>2020-11-17T10:57:19Z</time>
      </trkpt>
      <trkpt lat="28.5805770" lon="-17.8572580">
        <ele>1306.0</ele>
        <time>2020-11-17T10:57:20Z</time>
      </trkpt>
      <trkpt lat="28.5805770" lon="-17.8572580">
        <ele>1306.0</ele>
        <time>2020-11-17T10:57:21Z</time>
      </trkpt>
      <trkpt lat="28.5805470" lon="-17.8572570">
        <ele>1306.2</ele>
        <time>2020-11-17T10:57:22Z</time>
      </trkpt>
      <trkpt lat="28.5805470" lon="-17.8572570">
        <ele>1306.2</ele>
        <time>2020-11-17T10:57:23Z</time>
      </trkpt>
      <trkpt lat="28.5805170" lon="-17.8572620">
        <ele>1306.5</ele>
        <time>2020-11-17T10:57:24Z</time>
      </trkpt>
      <trkpt lat="28.5805170" lon="-17.8572620">
        <ele>1306.5</ele>
        <time>2020-11-17T10:57:25Z</time>
      </trkpt>
      <trkpt lat="28.5804830" lon="-17.8572680">
        <ele>1306.7</ele>
        <time>2020-11-17T10:57:26Z</time>
      </trkpt>
      <trkpt lat="28.5804650" lon="-17.8572800">
        <ele>1306.9</ele>
        <time>2020-11-17T10:57:27Z</time>
      </trkpt>
      <trkpt lat="28.5804500" lon="-17.8572900">
        <ele>1307.1</ele>
        <time>2020-11-17T10:57:28Z</time>
      </trkpt>
      <trkpt lat="28.5804500" lon="-17.8572900">
        <ele>1307.1</ele>
        <time>2020-11-17T10:57:29Z</time>
      </trkpt>
      <trkpt lat="28.5804280" lon="-17.8573220">
        <ele>1307.3</ele>
        <time>2020-11-17T10:57:30Z</time>
      </trkpt>
      <trkpt lat="28.5804280" lon="-17.8573220">
        <ele>1307.3</ele>
        <time>2020-11-17T10:57:31Z</time>
      </trkpt>
      <trkpt lat="28.5804020" lon="-17.8573430">
        <ele>1307.6</ele>
        <time>2020-11-17T10:57:32Z</time>
      </trkpt>
      <trkpt lat="28.5804020" lon="-17.8573430">
        <ele>1307.6</ele>
        <time>2020-11-17T10:57:33Z</time>
      </trkpt>
      <trkpt lat="28.5803720" lon="-17.8573630">
        <ele>1307.9</ele>
        <time>2020-11-17T10:57:34Z</time>
      </trkpt>
      <trkpt lat="28.5803520" lon="-17.8573680">
        <ele>1308.0</ele>
        <time>2020-11-17T10:57:35Z</time>
      </trkpt>
      <trkpt lat="28.5803300" lon="-17.8573720">
        <ele>1308.2</ele>
        <time>2020-11-17T10:57:36Z</time>
      </trkpt>
      <trkpt lat="28.5803300" lon="-17.8573720">
        <ele>1308.2</ele>
        <time>2020-11-17T10:57:37Z</time>
      </trkpt>
      <trkpt lat="28.5802900" lon="-17.8573680">
        <ele>1308.5</ele>
        <time>2020-11-17T10:57:38Z</time>
      </trkpt>
      <trkpt lat="28.5802900" lon="-17.8573680">
        <ele>1308.5</ele>
        <time>2020-11-17T10:57:39Z</time>
      </trkpt>
      <trkpt lat="28.5802550" lon="-17.8573520">
        <ele>1308.8</ele>
        <time>2020-11-17T10:57:40Z</time>
      </trkpt>
      <trkpt lat="28.5802550" lon="-17.8573520">
        <ele>1308.8</ele>
        <time>2020-11-17T10:57:41Z</time>
      </trkpt>
      <trkpt lat="28.5802220" lon="-17.8573320">
        <ele>1309.0</ele>
        <time>2020-11-17T10:57:42Z</time>
      </trkpt>
      <trkpt lat="28.5802220" lon="-17.8573320">
        <ele>1309.0</ele>
        <time>2020-11-17T10:57:43Z</time>
      </trkpt>
      <trkpt lat="28.5801920" lon="-17.8573100">
        <ele>1309.3</ele>
        <time>2020-11-17T10:57:44Z</time>
      </trkpt>
      <trkpt lat="28.5801920" lon="-17.8573100">
        <ele>1309.3</ele>
        <time>2020-11-17T10:57:45Z</time>
      </trkpt>
      <trkpt lat="28.5801700" lon="-17.8572880">
        <ele>1309.4</ele>
        <time>2020-11-17T10:57:46Z</time>
      </trkpt>
      <trkpt lat="28.5801580" lon="-17.8572780">
        <ele>1309.5</ele>
        <time>2020-11-17T10:57:47Z</time>
      </trkpt>
      <trkpt lat="28.5801580" lon="-17.8572780">
        <ele>1309.5</ele>
        <time>2020-11-17T10:57:48Z</time>
      </trkpt>
      <trkpt lat="28.5801280" lon="-17.8572620">
        <ele>1309.8</ele>
        <time>2020-11-17T10:57:49Z</time>
      </trkpt>
      <trkpt lat="28.5801280" lon="-17.8572620">
        <ele>1309.8</ele>
        <time>2020-11-17T10:57:50Z</time>
      </trkpt>
      <trkpt lat="28.5800980" lon="-17.8572530">
        <ele>1309.9</ele>
        <time>2020-11-17T10:57:51Z</time>
      </trkpt>
      <trkpt lat="28.5800830" lon="-17.8572550">
        <ele>1310.0</ele>
        <time>2020-11-17T10:57:52Z</time>
      </trkpt>
      <trkpt lat="28.5800730" lon="-17.8572580">
        <ele>1310.1</ele>
        <time>2020-11-17T10:57:53Z</time>
      </trkpt>
      <trkpt lat="28.5800730" lon="-17.8572580">
        <ele>1310.1</ele>
        <time>2020-11-17T10:57:54Z</time>
      </trkpt>
      <trkpt lat="28.5800470" lon="-17.8572700">
        <ele>1310.3</ele>
        <time>2020-11-17T10:57:55Z</time>
      </trkpt>
      <trkpt lat="28.5800470" lon="-17.8572700">
        <ele>1310.3</ele>
        <time>2020-11-17T10:57:56Z</time>
      </trkpt>
      <trkpt lat="28.5800150" lon="-17.8572830">
        <ele>1310.5</ele>
        <time>2020-11-17T10:57:57Z</time>
      </trkpt>
      <trkpt lat="28.5800050" lon="-17.8572920">
        <ele>1310.5</ele>
        <time>2020-11-17T10:57:58Z</time>
      </trkpt>
      <trkpt lat="28.5800050" lon="-17.8572920">
        <ele>1310.5</ele>
        <time>2020-11-17T10:57:59Z</time>
      </trkpt>
      <trkpt lat="28.5799730" lon="-17.8573050">
        <ele>1310.7</ele>
        <time>2020-11-17T10:58:00Z</time>
      </trkpt>
      <trkpt lat="28.5799730" lon="-17.8573050">
        <ele>1310.7</ele>
        <time>2020-11-17T10:58:01Z</time>
      </trkpt>
      <trkpt lat="28.5799370" lon="-17.8573300">
        <ele>1310.9</ele>
        <time>2020-11-17T10:58:02Z</time>
      </trkpt>
      <trkpt lat="28.5799180" lon="-17.8573350">
        <ele>1311.0</ele>
        <time>2020-11-17T10:58:03Z</time>
      </trkpt>
      <trkpt lat="28.5799000" lon="-17.8573380">
        <ele>1311.1</ele>
        <time>2020-11-17T10:58:04Z</time>
      </trkpt>
      <trkpt lat="28.5799000" lon="-17.8573380">
        <ele>1311.1</ele>
        <time>2020-11-17T10:58:05Z</time>
      </trkpt>
      <trkpt lat="28.5798580" lon="-17.8573470">
        <ele>1311.2</ele>
        <time>2020-11-17T10:58:06Z</time>
      </trkpt>
      <trkpt lat="28.5798580" lon="-17.8573470">
        <ele>1311.2</ele>
        <time>2020-11-17T10:58:07Z</time>
      </trkpt>
      <trkpt lat="28.5798170" lon="-17.8573350">
        <ele>1311.3</ele>
        <time>2020-11-17T10:58:08Z</time>
      </trkpt>
      <trkpt lat="28.5798170" lon="-17.8573350">
        <ele>1311.3</ele>
        <time>2020-11-17T10:58:09Z</time>
      </trkpt>
      <trkpt lat="28.5797720" lon="-17.8573270">
        <ele>1311.4</ele>
        <time>2020-11-17T10:58:10Z</time>
      </trkpt>
      <trkpt lat="28.5797720" lon="-17.8573270">
        <ele>1311.4</ele>
        <time>2020-11-17T10:58:11Z</time>
      </trkpt>
      <trkpt lat="28.5797300" lon="-17.8573020">
        <ele>1311.4</ele>
        <time>2020-11-17T10:58:12Z</time>
      </trkpt>
      <trkpt lat="28.5797300" lon="-17.8573020">
        <ele>1311.4</ele>
        <time>2020-11-17T10:58:13Z</time>
      </trkpt>
      <trkpt lat="28.5796800" lon="-17.8572780">
        <ele>1311.4</ele>
        <time>2020-11-17T10:58:14Z</time>
      </trkpt>
      <trkpt lat="28.5796800" lon="-17.8572780">
        <ele>1311.4</ele>
        <time>2020-11-17T10:58:15Z</time>
      </trkpt>
      <trkpt lat="28.5796320" lon="-17.8572470">
        <ele>1311.3</ele>
        <time>2020-11-17T10:58:16Z</time>
      </trkpt>
      <trkpt lat="28.5796320" lon="-17.8572470">
        <ele>1311.3</ele>
        <time>2020-11-17T10:58:17Z</time>
      </trkpt>
      <trkpt lat="28.5795730" lon="-17.8572170">
        <ele>1311.2</ele>
        <time>2020-11-17T10:58:18Z</time>
      </trkpt>
      <trkpt lat="28.5795730" lon="-17.8572170">
        <ele>1311.2</ele>
        <time>2020-11-17T10:58:19Z</time>
      </trkpt>
      <trkpt lat="28.5795070" lon="-17.8571850">
        <ele>1311.1</ele>
        <time>2020-11-17T10:58:20Z</time>
      </trkpt>
      <trkpt lat="28.5794750" lon="-17.8571650">
        <ele>1311.1</ele>
        <time>2020-11-17T10:58:21Z</time>
      </trkpt>
      <trkpt lat="28.5794750" lon="-17.8571650">
        <ele>1311.1</ele>
        <time>2020-11-17T10:58:22Z</time>
      </trkpt>
      <trkpt lat="28.5794120" lon="-17.8571280">
        <ele>1311.0</ele>
        <time>2020-11-17T10:58:23Z</time>
      </trkpt>
      <trkpt lat="28.5793820" lon="-17.8571100">
        <ele>1311.0</ele>
        <time>2020-11-17T10:58:24Z</time>
      </trkpt>
      <trkpt lat="28.5793820" lon="-17.8571100">
        <ele>1311.0</ele>
        <time>2020-11-17T10:58:25Z</time>
      </trkpt>
      <trkpt lat="28.5793250" lon="-17.8570820">
        <ele>1311.0</ele>
        <time>2020-11-17T10:58:26Z</time>
      </trkpt>
      <trkpt lat="28.5793250" lon="-17.8570820">
        <ele>1311.0</ele>
        <time>2020-11-17T10:58:27Z</time>
      </trkpt>
      <trkpt lat="28.5792650" lon="-17.8570830">
        <ele>1311.0</ele>
        <time>2020-11-17T10:58:28Z</time>
      </trkpt>
      <trkpt lat="28.5792650" lon="-17.8570830">
        <ele>1311.0</ele>
        <time>2020-11-17T10:58:29Z</time>
      </trkpt>
      <trkpt lat="28.5792180" lon="-17.8571100">
        <ele>1311.1</ele>
        <time>2020-11-17T10:58:30Z</time>
      </trkpt>
      <trkpt lat="28.5792180" lon="-17.8571100">
        <ele>1311.1</ele>
        <time>2020-11-17T10:58:31Z</time>
      </trkpt>
      <trkpt lat="28.5792000" lon="-17.8571620">
        <ele>1311.1</ele>
        <time>2020-11-17T10:58:32Z</time>
      </trkpt>
      <trkpt lat="28.5792000" lon="-17.8571620">
        <ele>1311.1</ele>
        <time>2020-11-17T10:58:33Z</time>
      </trkpt>
      <trkpt lat="28.5791900" lon="-17.8572280">
        <ele>1311.1</ele>
        <time>2020-11-17T10:58:34Z</time>
      </trkpt>
      <trkpt lat="28.5791900" lon="-17.8572280">
        <ele>1311.1</ele>
        <time>2020-11-17T10:58:35Z</time>
      </trkpt>
      <trkpt lat="28.5791750" lon="-17.8572880">
        <ele>1311.1</ele>
        <time>2020-11-17T10:58:36Z</time>
      </trkpt>
      <trkpt lat="28.5791650" lon="-17.8573130">
        <ele>1311.1</ele>
        <time>2020-11-17T10:58:37Z</time>
      </trkpt>
      <trkpt lat="28.5791650" lon="-17.8573130">
        <ele>1311.1</ele>
        <time>2020-11-17T10:58:38Z</time>
      </trkpt>
      <trkpt lat="28.5791370" lon="-17.8573750">
        <ele>1311.1</ele>
        <time>2020-11-17T10:58:39Z</time>
      </trkpt>
      <trkpt lat="28.5791370" lon="-17.8573750">
        <ele>1311.1</ele>
        <time>2020-11-17T10:58:40Z</time>
      </trkpt>
      <trkpt lat="28.5790950" lon="-17.8574370">
        <ele>1311.1</ele>
        <time>2020-11-17T10:58:41Z</time>
      </trkpt>
      <trkpt lat="28.5790630" lon="-17.8574580">
        <ele>1311.0</ele>
        <time>2020-11-17T10:58:42Z</time>
      </trkpt>
      <trkpt lat="28.5790630" lon="-17.8574580">
        <ele>1311.0</ele>
        <time>2020-11-17T10:58:43Z</time>
      </trkpt>
      <trkpt lat="28.5789920" lon="-17.8574880">
        <ele>1310.8</ele>
        <time>2020-11-17T10:58:44Z</time>
      </trkpt>
      <trkpt lat="28.5789550" lon="-17.8574930">
        <ele>1310.7</ele>
        <time>2020-11-17T10:58:45Z</time>
      </trkpt>
      <trkpt lat="28.5789550" lon="-17.8574930">
        <ele>1310.7</ele>
        <time>2020-11-17T10:58:46Z</time>
      </trkpt>
      <trkpt lat="28.5788930" lon="-17.8574620">
        <ele>1310.4</ele>
        <time>2020-11-17T10:58:47Z</time>
      </trkpt>
      <trkpt lat="28.5788630" lon="-17.8574370">
        <ele>1310.3</ele>
        <time>2020-11-17T10:58:48Z</time>
      </trkpt>
      <trkpt lat="28.5788630" lon="-17.8574370">
        <ele>1310.3</ele>
        <time>2020-11-17T10:58:49Z</time>
      </trkpt>
      <trkpt lat="28.5787950" lon="-17.8573850">
        <ele>1309.9</ele>
        <time>2020-11-17T10:58:50Z</time>
      </trkpt>
      <trkpt lat="28.5787950" lon="-17.8573850">
        <ele>1309.9</ele>
        <time>2020-11-17T10:58:51Z</time>
      </trkpt>
      <trkpt lat="28.5787170" lon="-17.8573450">
        <ele>1309.6</ele>
        <time>2020-11-17T10:58:52Z</time>
      </trkpt>
      <trkpt lat="28.5786770" lon="-17.8573320">
        <ele>1309.4</ele>
        <time>2020-11-17T10:58:53Z</time>
      </trkpt>
      <trkpt lat="28.5786770" lon="-17.8573320">
        <ele>1309.4</ele>
        <time>2020-11-17T10:58:54Z</time>
      </trkpt>
      <trkpt lat="28.5785780" lon="-17.8573300">
        <ele>1309.1</ele>
        <time>2020-11-17T10:58:55Z</time>
      </trkpt>
      <trkpt lat="28.5785330" lon="-17.8573380">
        <ele>1309.0</ele>
        <time>2020-11-17T10:58:56Z</time>
      </trkpt>
      <trkpt lat="28.5784930" lon="-17.8573480">
        <ele>1308.9</ele>
        <time>2020-11-17T10:58:57Z</time>
      </trkpt>
      <trkpt lat="28.5784930" lon="-17.8573480">
        <ele>1308.9</ele>
        <time>2020-11-17T10:58:58Z</time>
      </trkpt>
      <trkpt lat="28.5784250" lon="-17.8573630">
        <ele>1308.8</ele>
        <time>2020-11-17T10:58:59Z</time>
      </trkpt>
      <trkpt lat="28.5783920" lon="-17.8573750">
        <ele>1308.8</ele>
        <time>2020-11-17T10:59:00Z</time>
      </trkpt>
      <trkpt lat="28.5783920" lon="-17.8573750">
        <ele>1308.8</ele>
        <time>2020-11-17T10:59:01Z</time>
      </trkpt>
      <trkpt lat="28.5783100" lon="-17.8574180">
        <ele>1308.6</ele>
        <time>2020-11-17T10:59:02Z</time>
      </trkpt>
      <trkpt lat="28.5783100" lon="-17.8574180">
        <ele>1308.6</ele>
        <time>2020-11-17T10:59:03Z</time>
      </trkpt>
      <trkpt lat="28.5782280" lon="-17.8574730">
        <ele>1308.4</ele>
        <time>2020-11-17T10:59:04Z</time>
      </trkpt>
      <trkpt lat="28.5782280" lon="-17.8574730">
        <ele>1308.4</ele>
        <time>2020-11-17T10:59:05Z</time>
      </trkpt>
      <trkpt lat="28.5781520" lon="-17.8575430">
        <ele>1308.2</ele>
        <time>2020-11-17T10:59:06Z</time>
      </trkpt>
      <trkpt lat="28.5781520" lon="-17.8575430">
        <ele>1308.2</ele>
        <time>2020-11-17T10:59:07Z</time>
      </trkpt>
      <trkpt lat="28.5780680" lon="-17.8575920">
        <ele>1307.9</ele>
        <time>2020-11-17T10:59:08Z</time>
      </trkpt>
      <trkpt lat="28.5780250" lon="-17.8575980">
        <ele>1307.8</ele>
        <time>2020-11-17T10:59:09Z</time>
      </trkpt>
      <trkpt lat="28.5780250" lon="-17.8575980">
        <ele>1307.8</ele>
        <time>2020-11-17T10:59:10Z</time>
      </trkpt>
      <trkpt lat="28.5779520" lon="-17.8575730">
        <ele>1307.6</ele>
        <time>2020-11-17T10:59:11Z</time>
      </trkpt>
      <trkpt lat="28.5779520" lon="-17.8575730">
        <ele>1307.6</ele>
        <time>2020-11-17T10:59:12Z</time>
      </trkpt>
      <trkpt lat="28.5778850" lon="-17.8575280">
        <ele>1307.4</ele>
        <time>2020-11-17T10:59:13Z</time>
      </trkpt>
      <trkpt lat="28.5778850" lon="-17.8575280">
        <ele>1307.4</ele>
        <time>2020-11-17T10:59:14Z</time>
      </trkpt>
      <trkpt lat="28.5778070" lon="-17.8574630">
        <ele>1307.0</ele>
        <time>2020-11-17T10:59:15Z</time>
      </trkpt>
      <trkpt lat="28.5777670" lon="-17.8574380">
        <ele>1306.9</ele>
        <time>2020-11-17T10:59:16Z</time>
      </trkpt>
      <trkpt lat="28.5777670" lon="-17.8574380">
        <ele>1306.9</ele>
        <time>2020-11-17T10:59:17Z</time>
      </trkpt>
      <trkpt lat="28.5776850" lon="-17.8573630">
        <ele>1306.5</ele>
        <time>2020-11-17T10:59:18Z</time>
      </trkpt>
      <trkpt lat="28.5776850" lon="-17.8573630">
        <ele>1306.5</ele>
        <time>2020-11-17T10:59:19Z</time>
      </trkpt>
      <trkpt lat="28.5776050" lon="-17.8572880">
        <ele>1306.3</ele>
        <time>2020-11-17T10:59:20Z</time>
      </trkpt>
      <trkpt lat="28.5776050" lon="-17.8572880">
        <ele>1306.3</ele>
        <time>2020-11-17T10:59:21Z</time>
      </trkpt>
      <trkpt lat="28.5775250" lon="-17.8572270">
        <ele>1306.1</ele>
        <time>2020-11-17T10:59:22Z</time>
      </trkpt>
      <trkpt lat="28.5775250" lon="-17.8572270">
        <ele>1306.1</ele>
        <time>2020-11-17T10:59:23Z</time>
      </trkpt>
      <trkpt lat="28.5774520" lon="-17.8571630">
        <ele>1306.0</ele>
        <time>2020-11-17T10:59:24Z</time>
      </trkpt>
      <trkpt lat="28.5774520" lon="-17.8571630">
        <ele>1306.0</ele>
        <time>2020-11-17T10:59:25Z</time>
      </trkpt>
      <trkpt lat="28.5773950" lon="-17.8570870">
        <ele>1306.0</ele>
        <time>2020-11-17T10:59:26Z</time>
      </trkpt>
      <trkpt lat="28.5773950" lon="-17.8570870">
        <ele>1306.0</ele>
        <time>2020-11-17T10:59:27Z</time>
      </trkpt>
      <trkpt lat="28.5773500" lon="-17.8570120">
        <ele>1305.9</ele>
        <time>2020-11-17T10:59:28Z</time>
      </trkpt>
      <trkpt lat="28.5773500" lon="-17.8570120">
        <ele>1305.9</ele>
        <time>2020-11-17T10:59:29Z</time>
      </trkpt>
      <trkpt lat="28.5772880" lon="-17.8569770">
        <ele>1305.9</ele>
        <time>2020-11-17T10:59:30Z</time>
      </trkpt>
      <trkpt lat="28.5772880" lon="-17.8569770">
        <ele>1305.9</ele>
        <time>2020-11-17T10:59:31Z</time>
      </trkpt>
      <trkpt lat="28.5772300" lon="-17.8570000">
        <ele>1305.9</ele>
        <time>2020-11-17T10:59:32Z</time>
      </trkpt>
      <trkpt lat="28.5772300" lon="-17.8570000">
        <ele>1305.9</ele>
        <time>2020-11-17T10:59:33Z</time>
      </trkpt>
      <trkpt lat="28.5771650" lon="-17.8570270">
        <ele>1305.9</ele>
        <time>2020-11-17T10:59:34Z</time>
      </trkpt>
      <trkpt lat="28.5771650" lon="-17.8570270">
        <ele>1305.9</ele>
        <time>2020-11-17T10:59:35Z</time>
      </trkpt>
      <trkpt lat="28.5770880" lon="-17.8570800">
        <ele>1306.1</ele>
        <time>2020-11-17T10:59:36Z</time>
      </trkpt>
      <trkpt lat="28.5770880" lon="-17.8570800">
        <ele>1306.1</ele>
        <time>2020-11-17T10:59:37Z</time>
      </trkpt>
      <trkpt lat="28.5770120" lon="-17.8571180">
        <ele>1306.3</ele>
        <time>2020-11-17T10:59:38Z</time>
      </trkpt>
      <trkpt lat="28.5770120" lon="-17.8571180">
        <ele>1306.3</ele>
        <time>2020-11-17T10:59:39Z</time>
      </trkpt>
      <trkpt lat="28.5769380" lon="-17.8571700">
        <ele>1306.5</ele>
        <time>2020-11-17T10:59:40Z</time>
      </trkpt>
      <trkpt lat="28.5769050" lon="-17.8572000">
        <ele>1306.6</ele>
        <time>2020-11-17T10:59:41Z</time>
      </trkpt>
      <trkpt lat="28.5769050" lon="-17.8572000">
        <ele>1306.6</ele>
        <time>2020-11-17T10:59:42Z</time>
      </trkpt>
      <trkpt lat="28.5768420" lon="-17.8572570">
        <ele>1306.8</ele>
        <time>2020-11-17T10:59:43Z</time>
      </trkpt>
      <trkpt lat="28.5768420" lon="-17.8572570">
        <ele>1306.8</ele>
        <time>2020-11-17T10:59:44Z</time>
      </trkpt>
      <trkpt lat="28.5767780" lon="-17.8572820">
        <ele>1306.8</ele>
        <time>2020-11-17T10:59:45Z</time>
      </trkpt>
      <trkpt lat="28.5767780" lon="-17.8572820">
        <ele>1306.8</ele>
        <time>2020-11-17T10:59:46Z</time>
      </trkpt>
      <trkpt lat="28.5767180" lon="-17.8572700">
        <ele>1306.7</ele>
        <time>2020-11-17T10:59:47Z</time>
      </trkpt>
      <trkpt lat="28.5766880" lon="-17.8572550">
        <ele>1306.6</ele>
        <time>2020-11-17T10:59:48Z</time>
      </trkpt>
      <trkpt lat="28.5766880" lon="-17.8572550">
        <ele>1306.6</ele>
        <time>2020-11-17T10:59:49Z</time>
      </trkpt>
      <trkpt lat="28.5766470" lon="-17.8572150">
        <ele>1306.5</ele>
        <time>2020-11-17T10:59:50Z</time>
      </trkpt>
      <trkpt lat="28.5766470" lon="-17.8572150">
        <ele>1306.5</ele>
        <time>2020-11-17T10:59:51Z</time>
      </trkpt>
      <trkpt lat="28.5766070" lon="-17.8571780">
        <ele>1306.4</ele>
        <time>2020-11-17T10:59:52Z</time>
      </trkpt>
      <trkpt lat="28.5766070" lon="-17.8571780">
        <ele>1306.4</ele>
        <time>2020-11-17T10:59:53Z</time>
      </trkpt>
      <trkpt lat="28.5765680" lon="-17.8571680">
        <ele>1306.3</ele>
        <time>2020-11-17T10:59:54Z</time>
      </trkpt>
      <trkpt lat="28.5765680" lon="-17.8571680">
        <ele>1306.3</ele>
        <time>2020-11-17T10:59:55Z</time>
      </trkpt>
      <trkpt lat="28.5765200" lon="-17.8571820">
        <ele>1306.2</ele>
        <time>2020-11-17T10:59:56Z</time>
      </trkpt>
      <trkpt lat="28.5764930" lon="-17.8571920">
        <ele>1306.2</ele>
        <time>2020-11-17T10:59:57Z</time>
      </trkpt>
      <trkpt lat="28.5764930" lon="-17.8571920">
        <ele>1306.2</ele>
        <time>2020-11-17T10:59:58Z</time>
      </trkpt>
      <trkpt lat="28.5764330" lon="-17.8572270">
        <ele>1306.1</ele>
        <time>2020-11-17T10:59:59Z</time>
      </trkpt>
      <trkpt lat="28.5764070" lon="-17.8572470">
        <ele>1306.0</ele>
        <time>2020-11-17T11:00:00Z</time>
      </trkpt>
      <trkpt lat="28.5764070" lon="-17.8572470">
        <ele>1306.0</ele>
        <time>2020-11-17T11:00:01Z</time>
      </trkpt>
      <trkpt lat="28.5763450" lon="-17.8572920">
        <ele>1305.9</ele>
        <time>2020-11-17T11:00:02Z</time>
      </trkpt>
      <trkpt lat="28.5763450" lon="-17.8572920">
        <ele>1305.9</ele>
        <time>2020-11-17T11:00:03Z</time>
      </trkpt>
      <trkpt lat="28.5762750" lon="-17.8573270">
        <ele>1305.8</ele>
        <time>2020-11-17T11:00:04Z</time>
      </trkpt>
      <trkpt lat="28.5762750" lon="-17.8573270">
        <ele>1305.8</ele>
        <time>2020-11-17T11:00:05Z</time>
      </trkpt>
      <trkpt lat="28.5762100" lon="-17.8573380">
        <ele>1305.6</ele>
        <time>2020-11-17T11:00:06Z</time>
      </trkpt>
      <trkpt lat="28.5762100" lon="-17.8573380">
        <ele>1305.6</ele>
        <time>2020-11-17T11:00:07Z</time>
      </trkpt>
      <trkpt lat="28.5761450" lon="-17.8573270">
        <ele>1305.4</ele>
        <time>2020-11-17T11:00:08Z</time>
      </trkpt>
      <trkpt lat="28.5761170" lon="-17.8573080">
        <ele>1305.3</ele>
        <time>2020-11-17T11:00:09Z</time>
      </trkpt>
      <trkpt lat="28.5761170" lon="-17.8573080">
        <ele>1305.3</ele>
        <time>2020-11-17T11:00:10Z</time>
      </trkpt>
      <trkpt lat="28.5760530" lon="-17.8572730">
        <ele>1305.1</ele>
        <time>2020-11-17T11:00:11Z</time>
      </trkpt>
      <trkpt lat="28.5760130" lon="-17.8572670">
        <ele>1304.9</ele>
        <time>2020-11-17T11:00:12Z</time>
      </trkpt>
      <trkpt lat="28.5760130" lon="-17.8572670">
        <ele>1304.9</ele>
        <time>2020-11-17T11:00:13Z</time>
      </trkpt>
      <trkpt lat="28.5759300" lon="-17.8572820">
        <ele>1304.5</ele>
        <time>2020-11-17T11:00:14Z</time>
      </trkpt>
      <trkpt lat="28.5758900" lon="-17.8572980">
        <ele>1304.3</ele>
        <time>2020-11-17T11:00:15Z</time>
      </trkpt>
      <trkpt lat="28.5758900" lon="-17.8572980">
        <ele>1304.3</ele>
        <time>2020-11-17T11:00:16Z</time>
      </trkpt>
      <trkpt lat="28.5758170" lon="-17.8573670">
        <ele>1303.7</ele>
        <time>2020-11-17T11:00:17Z</time>
      </trkpt>
      <trkpt lat="28.5758170" lon="-17.8573670">
        <ele>1303.7</ele>
        <time>2020-11-17T11:00:18Z</time>
      </trkpt>
      <trkpt lat="28.5757550" lon="-17.8574580">
        <ele>1302.9</ele>
        <time>2020-11-17T11:00:19Z</time>
      </trkpt>
      <trkpt lat="28.5757280" lon="-17.8575030">
        <ele>1302.6</ele>
        <time>2020-11-17T11:00:20Z</time>
      </trkpt>
      <trkpt lat="28.5757280" lon="-17.8575030">
        <ele>1302.6</ele>
        <time>2020-11-17T11:00:21Z</time>
      </trkpt>
      <trkpt lat="28.5756750" lon="-17.8575900">
        <ele>1301.9</ele>
        <time>2020-11-17T11:00:22Z</time>
      </trkpt>
      <trkpt lat="28.5756750" lon="-17.8575900">
        <ele>1301.9</ele>
        <time>2020-11-17T11:00:23Z</time>
      </trkpt>
      <trkpt lat="28.5755970" lon="-17.8576550">
        <ele>1301.2</ele>
        <time>2020-11-17T11:00:24Z</time>
      </trkpt>
      <trkpt lat="28.5755970" lon="-17.8576550">
        <ele>1301.2</ele>
        <time>2020-11-17T11:00:25Z</time>
      </trkpt>
      <trkpt lat="28.5754920" lon="-17.8576880">
        <ele>1300.5</ele>
        <time>2020-11-17T11:00:26Z</time>
      </trkpt>
      <trkpt lat="28.5754920" lon="-17.8576880">
        <ele>1300.5</ele>
        <time>2020-11-17T11:00:27Z</time>
      </trkpt>
      <trkpt lat="28.5753920" lon="-17.8576920">
        <ele>1299.8</ele>
        <time>2020-11-17T11:00:28Z</time>
      </trkpt>
      <trkpt lat="28.5753920" lon="-17.8576920">
        <ele>1299.8</ele>
        <time>2020-11-17T11:00:29Z</time>
      </trkpt>
      <trkpt lat="28.5752870" lon="-17.8576770">
        <ele>1299.2</ele>
        <time>2020-11-17T11:00:30Z</time>
      </trkpt>
      <trkpt lat="28.5752870" lon="-17.8576770">
        <ele>1299.2</ele>
        <time>2020-11-17T11:00:31Z</time>
      </trkpt>
      <trkpt lat="28.5751700" lon="-17.8576420">
        <ele>1298.6</ele>
        <time>2020-11-17T11:00:32Z</time>
      </trkpt>
      <trkpt lat="28.5751070" lon="-17.8576230">
        <ele>1298.4</ele>
        <time>2020-11-17T11:00:33Z</time>
      </trkpt>
      <trkpt lat="28.5750420" lon="-17.8576250">
        <ele>1298.2</ele>
        <time>2020-11-17T11:00:34Z</time>
      </trkpt>
      <trkpt lat="28.5750420" lon="-17.8576250">
        <ele>1298.2</ele>
        <time>2020-11-17T11:00:35Z</time>
      </trkpt>
      <trkpt lat="28.5749400" lon="-17.8576600">
        <ele>1297.9</ele>
        <time>2020-11-17T11:00:36Z</time>
      </trkpt>
      <trkpt lat="28.5749400" lon="-17.8576600">
        <ele>1297.9</ele>
        <time>2020-11-17T11:00:37Z</time>
      </trkpt>
      <trkpt lat="28.5748470" lon="-17.8577100">
        <ele>1297.8</ele>
        <time>2020-11-17T11:00:38Z</time>
      </trkpt>
      <trkpt lat="28.5748470" lon="-17.8577100">
        <ele>1297.8</ele>
        <time>2020-11-17T11:00:39Z</time>
      </trkpt>
      <trkpt lat="28.5747650" lon="-17.8577650">
        <ele>1297.7</ele>
        <time>2020-11-17T11:00:40Z</time>
      </trkpt>
      <trkpt lat="28.5747270" lon="-17.8577850">
        <ele>1297.6</ele>
        <time>2020-11-17T11:00:41Z</time>
      </trkpt>
      <trkpt lat="28.5747270" lon="-17.8577850">
        <ele>1297.6</ele>
        <time>2020-11-17T11:00:42Z</time>
      </trkpt>
      <trkpt lat="28.5746500" lon="-17.8577950">
        <ele>1297.5</ele>
        <time>2020-11-17T11:00:43Z</time>
      </trkpt>
      <trkpt lat="28.5746500" lon="-17.8577950">
        <ele>1297.5</ele>
        <time>2020-11-17T11:00:44Z</time>
      </trkpt>
      <trkpt lat="28.5745880" lon="-17.8577720">
        <ele>1297.4</ele>
        <time>2020-11-17T11:00:45Z</time>
      </trkpt>
      <trkpt lat="28.5745880" lon="-17.8577720">
        <ele>1297.4</ele>
        <time>2020-11-17T11:00:46Z</time>
      </trkpt>
      <trkpt lat="28.5745180" lon="-17.8577320">
        <ele>1297.2</ele>
        <time>2020-11-17T11:00:47Z</time>
      </trkpt>
      <trkpt lat="28.5745180" lon="-17.8577320">
        <ele>1297.2</ele>
        <time>2020-11-17T11:00:48Z</time>
      </trkpt>
      <trkpt lat="28.5744600" lon="-17.8576700">
        <ele>1297.0</ele>
        <time>2020-11-17T11:00:49Z</time>
      </trkpt>
      <trkpt lat="28.5744600" lon="-17.8576700">
        <ele>1297.0</ele>
        <time>2020-11-17T11:00:50Z</time>
      </trkpt>
      <trkpt lat="28.5744030" lon="-17.8576080">
        <ele>1296.8</ele>
        <time>2020-11-17T11:00:51Z</time>
      </trkpt>
      <trkpt lat="28.5743750" lon="-17.8575820">
        <ele>1296.7</ele>
        <time>2020-11-17T11:00:52Z</time>
      </trkpt>
      <trkpt lat="28.5743750" lon="-17.8575820">
        <ele>1296.7</ele>
        <time>2020-11-17T11:00:53Z</time>
      </trkpt>
      <trkpt lat="28.5743180" lon="-17.8575200">
        <ele>1296.5</ele>
        <time>2020-11-17T11:00:54Z</time>
      </trkpt>
      <trkpt lat="28.5743180" lon="-17.8575200">
        <ele>1296.5</ele>
        <time>2020-11-17T11:00:55Z</time>
      </trkpt>
      <trkpt lat="28.5742430" lon="-17.8574480">
        <ele>1296.2</ele>
        <time>2020-11-17T11:00:56Z</time>
      </trkpt>
      <trkpt lat="28.5742030" lon="-17.8574030">
        <ele>1296.1</ele>
        <time>2020-11-17T11:00:57Z</time>
      </trkpt>
      <trkpt lat="28.5742030" lon="-17.8574030">
        <ele>1296.1</ele>
        <time>2020-11-17T11:00:58Z</time>
      </trkpt>
      <trkpt lat="28.5741330" lon="-17.8573150">
        <ele>1295.8</ele>
        <time>2020-11-17T11:00:59Z</time>
      </trkpt>
      <trkpt lat="28.5741030" lon="-17.8572780">
        <ele>1295.7</ele>
        <time>2020-11-17T11:01:00Z</time>
      </trkpt>
      <trkpt lat="28.5740730" lon="-17.8572420">
        <ele>1295.7</ele>
        <time>2020-11-17T11:01:01Z</time>
      </trkpt>
      <trkpt lat="28.5740730" lon="-17.8572420">
        <ele>1295.7</ele>
        <time>2020-11-17T11:01:02Z</time>
      </trkpt>
      <trkpt lat="28.5740170" lon="-17.8571780">
        <ele>1295.6</ele>
        <time>2020-11-17T11:01:03Z</time>
      </trkpt>
      <trkpt lat="28.5739930" lon="-17.8571470">
        <ele>1295.6</ele>
        <time>2020-11-17T11:01:04Z</time>
      </trkpt>
      <trkpt lat="28.5739930" lon="-17.8571470">
        <ele>1295.6</ele>
        <time>2020-11-17T11:01:05Z</time>
      </trkpt>
      <trkpt lat="28.5739400" lon="-17.8570650">
        <ele>1295.5</ele>
        <time>2020-11-17T11:01:06Z</time>
      </trkpt>
      <trkpt lat="28.5739400" lon="-17.8570650">
        <ele>1295.5</ele>
        <time>2020-11-17T11:01:07Z</time>
      </trkpt>
      <trkpt lat="28.5738730" lon="-17.8570230">
        <ele>1295.5</ele>
        <time>2020-11-17T11:01:08Z</time>
      </trkpt>
      <trkpt lat="28.5738730" lon="-17.8570230">
        <ele>1295.5</ele>
        <time>2020-11-17T11:01:09Z</time>
      </trkpt>
      <trkpt lat="28.5737950" lon="-17.8570270">
        <ele>1295.4</ele>
        <time>2020-11-17T11:01:10Z</time>
      </trkpt>
      <trkpt lat="28.5737950" lon="-17.8570270">
        <ele>1295.4</ele>
        <time>2020-11-17T11:01:11Z</time>
      </trkpt>
      <trkpt lat="28.5737170" lon="-17.8570430">
        <ele>1295.2</ele>
        <time>2020-11-17T11:01:12Z</time>
      </trkpt>
      <trkpt lat="28.5737170" lon="-17.8570430">
        <ele>1295.2</ele>
        <time>2020-11-17T11:01:13Z</time>
      </trkpt>
      <trkpt lat="28.5736320" lon="-17.8570880">
        <ele>1294.9</ele>
        <time>2020-11-17T11:01:14Z</time>
      </trkpt>
      <trkpt lat="28.5735950" lon="-17.8571130">
        <ele>1294.8</ele>
        <time>2020-11-17T11:01:15Z</time>
      </trkpt>
      <trkpt lat="28.5735950" lon="-17.8571130">
        <ele>1294.8</ele>
        <time>2020-11-17T11:01:16Z</time>
      </trkpt>
      <trkpt lat="28.5735250" lon="-17.8571720">
        <ele>1294.5</ele>
        <time>2020-11-17T11:01:17Z</time>
      </trkpt>
      <trkpt lat="28.5735250" lon="-17.8571720">
        <ele>1294.5</ele>
        <time>2020-11-17T11:01:18Z</time>
      </trkpt>
      <trkpt lat="28.5734500" lon="-17.8572550">
        <ele>1294.2</ele>
        <time>2020-11-17T11:01:19Z</time>
      </trkpt>
      <trkpt lat="28.5734500" lon="-17.8572550">
        <ele>1294.2</ele>
        <time>2020-11-17T11:01:20Z</time>
      </trkpt>
      <trkpt lat="28.5733820" lon="-17.8573470">
        <ele>1293.9</ele>
        <time>2020-11-17T11:01:21Z</time>
      </trkpt>
      <trkpt lat="28.5733820" lon="-17.8573470">
        <ele>1293.9</ele>
        <time>2020-11-17T11:01:22Z</time>
      </trkpt>
      <trkpt lat="28.5733050" lon="-17.8574270">
        <ele>1293.6</ele>
        <time>2020-11-17T11:01:23Z</time>
      </trkpt>
      <trkpt lat="28.5732600" lon="-17.8574620">
        <ele>1293.4</ele>
        <time>2020-11-17T11:01:24Z</time>
      </trkpt>
      <trkpt lat="28.5732600" lon="-17.8574620">
        <ele>1293.4</ele>
        <time>2020-11-17T11:01:25Z</time>
      </trkpt>
      <trkpt lat="28.5731680" lon="-17.8575180">
        <ele>1293.0</ele>
        <time>2020-11-17T11:01:26Z</time>
      </trkpt>
      <trkpt lat="28.5731680" lon="-17.8575180">
        <ele>1293.0</ele>
        <time>2020-11-17T11:01:27Z</time>
      </trkpt>
      <trkpt lat="28.5730700" lon="-17.8575430">
        <ele>1292.6</ele>
        <time>2020-11-17T11:01:28Z</time>
      </trkpt>
      <trkpt lat="28.5730180" lon="-17.8575420">
        <ele>1292.4</ele>
        <time>2020-11-17T11:01:29Z</time>
      </trkpt>
      <trkpt lat="28.5730180" lon="-17.8575420">
        <ele>1292.4</ele>
        <time>2020-11-17T11:01:30Z</time>
      </trkpt>
      <trkpt lat="28.5729220" lon="-17.8575300">
        <ele>1292.1</ele>
        <time>2020-11-17T11:01:31Z</time>
      </trkpt>
      <trkpt lat="28.5729220" lon="-17.8575300">
        <ele>1292.1</ele>
        <time>2020-11-17T11:01:32Z</time>
      </trkpt>
      <trkpt lat="28.5728170" lon="-17.8575230">
        <ele>1291.8</ele>
        <time>2020-11-17T11:01:33Z</time>
      </trkpt>
      <trkpt lat="28.5727680" lon="-17.8575270">
        <ele>1291.7</ele>
        <time>2020-11-17T11:01:34Z</time>
      </trkpt>
      <trkpt lat="28.5727680" lon="-17.8575270">
        <ele>1291.7</ele>
        <time>2020-11-17T11:01:35Z</time>
      </trkpt>
      <trkpt lat="28.5726720" lon="-17.8575480">
        <ele>1291.3</ele>
        <time>2020-11-17T11:01:36Z</time>
      </trkpt>
      <trkpt lat="28.5726720" lon="-17.8575480">
        <ele>1291.3</ele>
        <time>2020-11-17T11:01:37Z</time>
      </trkpt>
      <trkpt lat="28.5725630" lon="-17.8576150">
        <ele>1290.9</ele>
        <time>2020-11-17T11:01:38Z</time>
      </trkpt>
      <trkpt lat="28.5725630" lon="-17.8576150">
        <ele>1290.9</ele>
        <time>2020-11-17T11:01:39Z</time>
      </trkpt>
      <trkpt lat="28.5724630" lon="-17.8576930">
        <ele>1290.5</ele>
        <time>2020-11-17T11:01:40Z</time>
      </trkpt>
      <trkpt lat="28.5724630" lon="-17.8576930">
        <ele>1290.5</ele>
        <time>2020-11-17T11:01:41Z</time>
      </trkpt>
      <trkpt lat="28.5723700" lon="-17.8577780">
        <ele>1290.2</ele>
        <time>2020-11-17T11:01:42Z</time>
      </trkpt>
      <trkpt lat="28.5723700" lon="-17.8577780">
        <ele>1290.2</ele>
        <time>2020-11-17T11:01:43Z</time>
      </trkpt>
      <trkpt lat="28.5722750" lon="-17.8578570">
        <ele>1289.8</ele>
        <time>2020-11-17T11:01:44Z</time>
      </trkpt>
      <trkpt lat="28.5722300" lon="-17.8578880">
        <ele>1289.7</ele>
        <time>2020-11-17T11:01:45Z</time>
      </trkpt>
      <trkpt lat="28.5722300" lon="-17.8578880">
        <ele>1289.7</ele>
        <time>2020-11-17T11:01:46Z</time>
      </trkpt>
      <trkpt lat="28.5721330" lon="-17.8579280">
        <ele>1289.3</ele>
        <time>2020-11-17T11:01:47Z</time>
      </trkpt>
      <trkpt lat="28.5720880" lon="-17.8579250">
        <ele>1289.2</ele>
        <time>2020-11-17T11:01:48Z</time>
      </trkpt>
      <trkpt lat="28.5720880" lon="-17.8579250">
        <ele>1289.2</ele>
        <time>2020-11-17T11:01:49Z</time>
      </trkpt>
      <trkpt lat="28.5720100" lon="-17.8578780">
        <ele>1288.8</ele>
        <time>2020-11-17T11:01:50Z</time>
      </trkpt>
      <trkpt lat="28.5719770" lon="-17.8578470">
        <ele>1288.6</ele>
        <time>2020-11-17T11:01:51Z</time>
      </trkpt>
      <trkpt lat="28.5719770" lon="-17.8578470">
        <ele>1288.6</ele>
        <time>2020-11-17T11:01:52Z</time>
      </trkpt>
      <trkpt lat="28.5719120" lon="-17.8577680">
        <ele>1288.2</ele>
        <time>2020-11-17T11:01:53Z</time>
      </trkpt>
      <trkpt lat="28.5719120" lon="-17.8577680">
        <ele>1288.2</ele>
        <time>2020-11-17T11:01:54Z</time>
      </trkpt>
      <trkpt lat="28.5718280" lon="-17.8577270">
        <ele>1287.9</ele>
        <time>2020-11-17T11:01:55Z</time>
      </trkpt>
      <trkpt lat="28.5718280" lon="-17.8577270">
        <ele>1287.9</ele>
        <time>2020-11-17T11:01:56Z</time>
      </trkpt>
      <trkpt lat="28.5717420" lon="-17.8577050">
        <ele>1287.6</ele>
        <time>2020-11-17T11:01:57Z</time>
      </trkpt>
      <trkpt lat="28.5717050" lon="-17.8576920">
        <ele>1287.5</ele>
        <time>2020-11-17T11:01:58Z</time>
      </trkpt>
      <trkpt lat="28.5717050" lon="-17.8576920">
        <ele>1287.5</ele>
        <time>2020-11-17T11:01:59Z</time>
      </trkpt>
      <trkpt lat="28.5716300" lon="-17.8577070">
        <ele>1287.2</ele>
        <time>2020-11-17T11:02:00Z</time>
      </trkpt>
      <trkpt lat="28.5716300" lon="-17.8577070">
        <ele>1287.2</ele>
        <time>2020-11-17T11:02:01Z</time>
      </trkpt>
      <trkpt lat="28.5715930" lon="-17.8577820">
        <ele>1287.0</ele>
        <time>2020-11-17T11:02:02Z</time>
      </trkpt>
      <trkpt lat="28.5715930" lon="-17.8577820">
        <ele>1287.0</ele>
        <time>2020-11-17T11:02:03Z</time>
      </trkpt>
      <trkpt lat="28.5715850" lon="-17.8578600">
        <ele>1286.8</ele>
        <time>2020-11-17T11:02:04Z</time>
      </trkpt>
      <trkpt lat="28.5715850" lon="-17.8578600">
        <ele>1286.8</ele>
        <time>2020-11-17T11:02:05Z</time>
      </trkpt>
      <trkpt lat="28.5715770" lon="-17.8579520">
        <ele>1286.6</ele>
        <time>2020-11-17T11:02:06Z</time>
      </trkpt>
      <trkpt lat="28.5715770" lon="-17.8579520">
        <ele>1286.6</ele>
        <time>2020-11-17T11:02:07Z</time>
      </trkpt>
      <trkpt lat="28.5715180" lon="-17.8580370">
        <ele>1286.4</ele>
        <time>2020-11-17T11:02:08Z</time>
      </trkpt>
      <trkpt lat="28.5714850" lon="-17.8580630">
        <ele>1286.4</ele>
        <time>2020-11-17T11:02:09Z</time>
      </trkpt>
      <trkpt lat="28.5714850" lon="-17.8580630">
        <ele>1286.4</ele>
        <time>2020-11-17T11:02:10Z</time>
      </trkpt>
      <trkpt lat="28.5714130" lon="-17.8580670">
        <ele>1286.2</ele>
        <time>2020-11-17T11:02:11Z</time>
      </trkpt>
      <trkpt lat="28.5713800" lon="-17.8580620">
        <ele>1286.1</ele>
        <time>2020-11-17T11:02:12Z</time>
      </trkpt>
      <trkpt lat="28.5713800" lon="-17.8580620">
        <ele>1286.1</ele>
        <time>2020-11-17T11:02:13Z</time>
      </trkpt>
      <trkpt lat="28.5712950" lon="-17.8580550">
        <ele>1285.9</ele>
        <time>2020-11-17T11:02:14Z</time>
      </trkpt>
      <trkpt lat="28.5712950" lon="-17.8580550">
        <ele>1285.9</ele>
        <time>2020-11-17T11:02:15Z</time>
      </trkpt>
      <trkpt lat="28.5712030" lon="-17.8580800">
        <ele>1285.6</ele>
        <time>2020-11-17T11:02:16Z</time>
      </trkpt>
      <trkpt lat="28.5711530" lon="-17.8580930">
        <ele>1285.4</ele>
        <time>2020-11-17T11:02:17Z</time>
      </trkpt>
      <trkpt lat="28.5711530" lon="-17.8580930">
        <ele>1285.4</ele>
        <time>2020-11-17T11:02:18Z</time>
      </trkpt>
      <trkpt lat="28.5710620" lon="-17.8580920">
        <ele>1285.2</ele>
        <time>2020-11-17T11:02:19Z</time>
      </trkpt>
      <trkpt lat="28.5710620" lon="-17.8580920">
        <ele>1285.2</ele>
        <time>2020-11-17T11:02:20Z</time>
      </trkpt>
      <trkpt lat="28.5709870" lon="-17.8580580">
        <ele>1284.9</ele>
        <time>2020-11-17T11:02:21Z</time>
      </trkpt>
      <trkpt lat="28.5709870" lon="-17.8580580">
        <ele>1284.9</ele>
        <time>2020-11-17T11:02:22Z</time>
      </trkpt>
      <trkpt lat="28.5709230" lon="-17.8580070">
        <ele>1284.6</ele>
        <time>2020-11-17T11:02:23Z</time>
      </trkpt>
      <trkpt lat="28.5708970" lon="-17.8579730">
        <ele>1284.5</ele>
        <time>2020-11-17T11:02:24Z</time>
      </trkpt>
      <trkpt lat="28.5708730" lon="-17.8579330">
        <ele>1284.3</ele>
        <time>2020-11-17T11:02:25Z</time>
      </trkpt>
      <trkpt lat="28.5708730" lon="-17.8579330">
        <ele>1284.3</ele>
        <time>2020-11-17T11:02:26Z</time>
      </trkpt>
      <trkpt lat="28.5708280" lon="-17.8578450">
        <ele>1284.0</ele>
        <time>2020-11-17T11:02:27Z</time>
      </trkpt>
      <trkpt lat="28.5708130" lon="-17.8577950">
        <ele>1283.8</ele>
        <time>2020-11-17T11:02:28Z</time>
      </trkpt>
      <trkpt lat="28.5708130" lon="-17.8577950">
        <ele>1283.8</ele>
        <time>2020-11-17T11:02:29Z</time>
      </trkpt>
      <trkpt lat="28.5707750" lon="-17.8576920">
        <ele>1283.3</ele>
        <time>2020-11-17T11:02:30Z</time>
      </trkpt>
      <trkpt lat="28.5707750" lon="-17.8576920">
        <ele>1283.3</ele>
        <time>2020-11-17T11:02:31Z</time>
      </trkpt>
      <trkpt lat="28.5707130" lon="-17.8576320">
        <ele>1282.9</ele>
        <time>2020-11-17T11:02:32Z</time>
      </trkpt>
      <trkpt lat="28.5706720" lon="-17.8576030">
        <ele>1282.7</ele>
        <time>2020-11-17T11:02:33Z</time>
      </trkpt>
      <trkpt lat="28.5706370" lon="-17.8575650">
        <ele>1282.5</ele>
        <time>2020-11-17T11:02:34Z</time>
      </trkpt>
      <trkpt lat="28.5706370" lon="-17.8575650">
        <ele>1282.5</ele>
        <time>2020-11-17T11:02:35Z</time>
      </trkpt>
      <trkpt lat="28.5705880" lon="-17.8574620">
        <ele>1282.0</ele>
        <time>2020-11-17T11:02:36Z</time>
      </trkpt>
      <trkpt lat="28.5705880" lon="-17.8574620">
        <ele>1282.0</ele>
        <time>2020-11-17T11:02:37Z</time>
      </trkpt>
      <trkpt lat="28.5705470" lon="-17.8573600">
        <ele>1281.5</ele>
        <time>2020-11-17T11:02:38Z</time>
      </trkpt>
      <trkpt lat="28.5705470" lon="-17.8573600">
        <ele>1281.5</ele>
        <time>2020-11-17T11:02:39Z</time>
      </trkpt>
      <trkpt lat="28.5704900" lon="-17.8572920">
        <ele>1281.1</ele>
        <time>2020-11-17T11:02:40Z</time>
      </trkpt>
      <trkpt lat="28.5704900" lon="-17.8572920">
        <ele>1281.1</ele>
        <time>2020-11-17T11:02:41Z</time>
      </trkpt>
      <trkpt lat="28.5704200" lon="-17.8572220">
        <ele>1280.6</ele>
        <time>2020-11-17T11:02:42Z</time>
      </trkpt>
      <trkpt lat="28.5704200" lon="-17.8572220">
        <ele>1280.6</ele>
        <time>2020-11-17T11:02:43Z</time>
      </trkpt>
      <trkpt lat="28.5703230" lon="-17.8571380">
        <ele>1279.9</ele>
        <time>2020-11-17T11:02:44Z</time>
      </trkpt>
      <trkpt lat="28.5703230" lon="-17.8571380">
        <ele>1279.9</ele>
        <time>2020-11-17T11:02:45Z</time>
      </trkpt>
      <trkpt lat="28.5702220" lon="-17.8570380">
        <ele>1279.3</ele>
        <time>2020-11-17T11:02:46Z</time>
      </trkpt>
      <trkpt lat="28.5702220" lon="-17.8570380">
        <ele>1279.3</ele>
        <time>2020-11-17T11:02:47Z</time>
      </trkpt>
      <trkpt lat="28.5701330" lon="-17.8569320">
        <ele>1278.8</ele>
        <time>2020-11-17T11:02:48Z</time>
      </trkpt>
      <trkpt lat="28.5701330" lon="-17.8569320">
        <ele>1278.8</ele>
        <time>2020-11-17T11:02:49Z</time>
      </trkpt>
      <trkpt lat="28.5700670" lon="-17.8568520">
        <ele>1278.5</ele>
        <time>2020-11-17T11:02:50Z</time>
      </trkpt>
      <trkpt lat="28.5700250" lon="-17.8568380">
        <ele>1278.4</ele>
        <time>2020-11-17T11:02:51Z</time>
      </trkpt>
      <trkpt lat="28.5700250" lon="-17.8568380">
        <ele>1278.4</ele>
        <time>2020-11-17T11:02:52Z</time>
      </trkpt>
      <trkpt lat="28.5699430" lon="-17.8568380">
        <ele>1278.1</ele>
        <time>2020-11-17T11:02:53Z</time>
      </trkpt>
      <trkpt lat="28.5699030" lon="-17.8568430">
        <ele>1278.0</ele>
        <time>2020-11-17T11:02:54Z</time>
      </trkpt>
      <trkpt lat="28.5699030" lon="-17.8568430">
        <ele>1278.0</ele>
        <time>2020-11-17T11:02:55Z</time>
      </trkpt>
      <trkpt lat="28.5698150" lon="-17.8568380">
        <ele>1277.8</ele>
        <time>2020-11-17T11:02:56Z</time>
      </trkpt>
      <trkpt lat="28.5697730" lon="-17.8568320">
        <ele>1277.7</ele>
        <time>2020-11-17T11:02:57Z</time>
      </trkpt>
      <trkpt lat="28.5697730" lon="-17.8568320">
        <ele>1277.7</ele>
        <time>2020-11-17T11:02:58Z</time>
      </trkpt>
      <trkpt lat="28.5696770" lon="-17.8568280">
        <ele>1277.6</ele>
        <time>2020-11-17T11:02:59Z</time>
      </trkpt>
      <trkpt lat="28.5696250" lon="-17.8568270">
        <ele>1277.6</ele>
        <time>2020-11-17T11:03:00Z</time>
      </trkpt>
      <trkpt lat="28.5696250" lon="-17.8568270">
        <ele>1277.6</ele>
        <time>2020-11-17T11:03:01Z</time>
      </trkpt>
      <trkpt lat="28.5695350" lon="-17.8567980">
        <ele>1277.6</ele>
        <time>2020-11-17T11:03:02Z</time>
      </trkpt>
      <trkpt lat="28.5695350" lon="-17.8567980">
        <ele>1277.6</ele>
        <time>2020-11-17T11:03:03Z</time>
      </trkpt>
      <trkpt lat="28.5694600" lon="-17.8567580">
        <ele>1277.8</ele>
        <time>2020-11-17T11:03:04Z</time>
      </trkpt>
      <trkpt lat="28.5694600" lon="-17.8567580">
        <ele>1277.8</ele>
        <time>2020-11-17T11:03:05Z</time>
      </trkpt>
      <trkpt lat="28.5693850" lon="-17.8567250">
        <ele>1278.0</ele>
        <time>2020-11-17T11:03:06Z</time>
      </trkpt>
      <trkpt lat="28.5693850" lon="-17.8567250">
        <ele>1278.0</ele>
        <time>2020-11-17T11:03:07Z</time>
      </trkpt>
      <trkpt lat="28.5693250" lon="-17.8566750">
        <ele>1278.2</ele>
        <time>2020-11-17T11:03:08Z</time>
      </trkpt>
      <trkpt lat="28.5693250" lon="-17.8566750">
        <ele>1278.2</ele>
        <time>2020-11-17T11:03:09Z</time>
      </trkpt>
      <trkpt lat="28.5692600" lon="-17.8566230">
        <ele>1278.5</ele>
        <time>2020-11-17T11:03:10Z</time>
      </trkpt>
      <trkpt lat="28.5692600" lon="-17.8566230">
        <ele>1278.5</ele>
        <time>2020-11-17T11:03:11Z</time>
      </trkpt>
      <trkpt lat="28.5692130" lon="-17.8565820">
        <ele>1278.7</ele>
        <time>2020-11-17T11:03:12Z</time>
      </trkpt>
      <trkpt lat="28.5692130" lon="-17.8565820">
        <ele>1278.7</ele>
        <time>2020-11-17T11:03:13Z</time>
      </trkpt>
      <trkpt lat="28.5691730" lon="-17.8565480">
        <ele>1278.9</ele>
        <time>2020-11-17T11:03:14Z</time>
      </trkpt>
      <trkpt lat="28.5691550" lon="-17.8565250">
        <ele>1279.0</ele>
        <time>2020-11-17T11:03:15Z</time>
      </trkpt>
      <trkpt lat="28.5691400" lon="-17.8565030">
        <ele>1279.1</ele>
        <time>2020-11-17T11:03:16Z</time>
      </trkpt>
      <trkpt lat="28.5691400" lon="-17.8565030">
        <ele>1279.1</ele>
        <time>2020-11-17T11:03:17Z</time>
      </trkpt>
      <trkpt lat="28.5691030" lon="-17.8564600">
        <ele>1279.4</ele>
        <time>2020-11-17T11:03:18Z</time>
      </trkpt>
      <trkpt lat="28.5691030" lon="-17.8564600">
        <ele>1279.4</ele>
        <time>2020-11-17T11:03:19Z</time>
      </trkpt>
      <trkpt lat="28.5690770" lon="-17.8564320">
        <ele>1279.5</ele>
        <time>2020-11-17T11:03:20Z</time>
      </trkpt>
      <trkpt lat="28.5690650" lon="-17.8564200">
        <ele>1279.6</ele>
        <time>2020-11-17T11:03:21Z</time>
      </trkpt>
      <trkpt lat="28.5690650" lon="-17.8564200">
        <ele>1279.6</ele>
        <time>2020-11-17T11:03:22Z</time>
      </trkpt>
      <trkpt lat="28.5690330" lon="-17.8563870">
        <ele>1279.9</ele>
        <time>2020-11-17T11:03:23Z</time>
      </trkpt>
      <trkpt lat="28.5690230" lon="-17.8563720">
        <ele>1280.0</ele>
        <time>2020-11-17T11:03:24Z</time>
      </trkpt>
      <trkpt lat="28.5690230" lon="-17.8563720">
        <ele>1280.0</ele>
        <time>2020-11-17T11:03:25Z</time>
      </trkpt>
      <trkpt lat="28.5689870" lon="-17.8563270">
        <ele>1280.3</ele>
        <time>2020-11-17T11:03:26Z</time>
      </trkpt>
      <trkpt lat="28.5689870" lon="-17.8563270">
        <ele>1280.3</ele>
        <time>2020-11-17T11:03:27Z</time>
      </trkpt>
      <trkpt lat="28.5689520" lon="-17.8562920">
        <ele>1280.6</ele>
        <time>2020-11-17T11:03:28Z</time>
      </trkpt>
      <trkpt lat="28.5689520" lon="-17.8562920">
        <ele>1280.6</ele>
        <time>2020-11-17T11:03:29Z</time>
      </trkpt>
      <trkpt lat="28.5689170" lon="-17.8562500">
        <ele>1280.9</ele>
        <time>2020-11-17T11:03:30Z</time>
      </trkpt>
      <trkpt lat="28.5689000" lon="-17.8562330">
        <ele>1281.0</ele>
        <time>2020-11-17T11:03:31Z</time>
      </trkpt>
      <trkpt lat="28.5689000" lon="-17.8562330">
        <ele>1281.0</ele>
        <time>2020-11-17T11:03:32Z</time>
      </trkpt>
      <trkpt lat="28.5688830" lon="-17.8561920">
        <ele>1281.3</ele>
        <time>2020-11-17T11:03:33Z</time>
      </trkpt>
      <trkpt lat="28.5688750" lon="-17.8561720">
        <ele>1281.4</ele>
        <time>2020-11-17T11:03:34Z</time>
      </trkpt>
      <trkpt lat="28.5688750" lon="-17.8561720">
        <ele>1281.4</ele>
        <time>2020-11-17T11:03:35Z</time>
      </trkpt>
      <trkpt lat="28.5688570" lon="-17.8561270">
        <ele>1281.7</ele>
        <time>2020-11-17T11:03:36Z</time>
      </trkpt>
      <trkpt lat="28.5688570" lon="-17.8561270">
        <ele>1281.7</ele>
        <time>2020-11-17T11:03:37Z</time>
      </trkpt>
      <trkpt lat="28.5688380" lon="-17.8560920">
        <ele>1281.9</ele>
        <time>2020-11-17T11:03:38Z</time>
      </trkpt>
      <trkpt lat="28.5688380" lon="-17.8560920">
        <ele>1281.9</ele>
        <time>2020-11-17T11:03:39Z</time>
      </trkpt>
      <trkpt lat="28.5688080" lon="-17.8560430">
        <ele>1282.2</ele>
        <time>2020-11-17T11:03:40Z</time>
      </trkpt>
      <trkpt lat="28.5688080" lon="-17.8560430">
        <ele>1282.2</ele>
        <time>2020-11-17T11:03:41Z</time>
      </trkpt>
      <trkpt lat="28.5688000" lon="-17.8559900">
        <ele>1282.5</ele>
        <time>2020-11-17T11:03:42Z</time>
      </trkpt>
      <trkpt lat="28.5688000" lon="-17.8559900">
        <ele>1282.5</ele>
        <time>2020-11-17T11:03:43Z</time>
      </trkpt>
      <trkpt lat="28.5687920" lon="-17.8559470">
        <ele>1282.8</ele>
        <time>2020-11-17T11:03:44Z</time>
      </trkpt>
      <trkpt lat="28.5687920" lon="-17.8559470">
        <ele>1282.8</ele>
        <time>2020-11-17T11:03:45Z</time>
      </trkpt>
      <trkpt lat="28.5687750" lon="-17.8559070">
        <ele>1283.0</ele>
        <time>2020-11-17T11:03:46Z</time>
      </trkpt>
      <trkpt lat="28.5687750" lon="-17.8559070">
        <ele>1283.0</ele>
        <time>2020-11-17T11:03:47Z</time>
      </trkpt>
      <trkpt lat="28.5687650" lon="-17.8558650">
        <ele>1283.3</ele>
        <time>2020-11-17T11:03:48Z</time>
      </trkpt>
      <trkpt lat="28.5687650" lon="-17.8558650">
        <ele>1283.3</ele>
        <time>2020-11-17T11:03:49Z</time>
      </trkpt>
      <trkpt lat="28.5687530" lon="-17.8558200">
        <ele>1283.5</ele>
        <time>2020-11-17T11:03:50Z</time>
      </trkpt>
      <trkpt lat="28.5687480" lon="-17.8557970">
        <ele>1283.6</ele>
        <time>2020-11-17T11:03:51Z</time>
      </trkpt>
      <trkpt lat="28.5687480" lon="-17.8557970">
        <ele>1283.6</ele>
        <time>2020-11-17T11:03:52Z</time>
      </trkpt>
      <trkpt lat="28.5687370" lon="-17.8557500">
        <ele>1283.8</ele>
        <time>2020-11-17T11:03:53Z</time>
      </trkpt>
      <trkpt lat="28.5687320" lon="-17.8557280">
        <ele>1283.9</ele>
        <time>2020-11-17T11:03:54Z</time>
      </trkpt>
      <trkpt lat="28.5687320" lon="-17.8557280">
        <ele>1283.9</ele>
        <time>2020-11-17T11:03:55Z</time>
      </trkpt>
      <trkpt lat="28.5687150" lon="-17.8556920">
        <ele>1284.0</ele>
        <time>2020-11-17T11:03:56Z</time>
      </trkpt>
      <trkpt lat="28.5687050" lon="-17.8556750">
        <ele>1284.1</ele>
        <time>2020-11-17T11:03:57Z</time>
      </trkpt>
      <trkpt lat="28.5687050" lon="-17.8556750">
        <ele>1284.1</ele>
        <time>2020-11-17T11:03:58Z</time>
      </trkpt>
      <trkpt lat="28.5686930" lon="-17.8556400">
        <ele>1284.2</ele>
        <time>2020-11-17T11:03:59Z</time>
      </trkpt>
      <trkpt lat="28.5686930" lon="-17.8556400">
        <ele>1284.2</ele>
        <time>2020-11-17T11:04:00Z</time>
      </trkpt>
      <trkpt lat="28.5686750" lon="-17.8556220">
        <ele>1284.3</ele>
        <time>2020-11-17T11:04:01Z</time>
      </trkpt>
      <trkpt lat="28.5686750" lon="-17.8556220">
        <ele>1284.3</ele>
        <time>2020-11-17T11:04:02Z</time>
      </trkpt>
      <trkpt lat="28.5686650" lon="-17.8556170">
        <ele>1284.3</ele>
        <time>2020-11-17T11:04:03Z</time>
      </trkpt>
      <trkpt lat="28.5686650" lon="-17.8556170">
        <ele>1284.3</ele>
        <time>2020-11-17T11:04:04Z</time>
      </trkpt>
      <trkpt lat="28.5686450" lon="-17.8556220">
        <ele>1284.4</ele>
        <time>2020-11-17T11:04:05Z</time>
      </trkpt>
      <trkpt lat="28.5686350" lon="-17.8556220">
        <ele>1284.4</ele>
        <time>2020-11-17T11:04:06Z</time>
      </trkpt>
      <trkpt lat="28.5686350" lon="-17.8556220">
        <ele>1284.4</ele>
        <time>2020-11-17T11:04:07Z</time>
      </trkpt>
      <trkpt lat="28.5686180" lon="-17.8556130">
        <ele>1284.5</ele>
        <time>2020-11-17T11:04:08Z</time>
      </trkpt>
      <trkpt lat="28.5686180" lon="-17.8556130">
        <ele>1284.5</ele>
        <time>2020-11-17T11:04:09Z</time>
      </trkpt>
      <trkpt lat="28.5685980" lon="-17.8556030">
        <ele>1284.6</ele>
        <time>2020-11-17T11:04:10Z</time>
      </trkpt>
      <trkpt lat="28.5685980" lon="-17.8556030">
        <ele>1284.6</ele>
        <time>2020-11-17T11:04:11Z</time>
      </trkpt>
      <trkpt lat="28.5685730" lon="-17.8555850">
        <ele>1284.7</ele>
        <time>2020-11-17T11:04:12Z</time>
      </trkpt>
      <trkpt lat="28.5685730" lon="-17.8555850">
        <ele>1284.7</ele>
        <time>2020-11-17T11:04:13Z</time>
      </trkpt>
      <trkpt lat="28.5685480" lon="-17.8555780">
        <ele>1284.8</ele>
        <time>2020-11-17T11:04:14Z</time>
      </trkpt>
      <trkpt lat="28.5685480" lon="-17.8555780">
        <ele>1284.8</ele>
        <time>2020-11-17T11:04:15Z</time>
      </trkpt>
      <trkpt lat="28.5685170" lon="-17.8555700">
        <ele>1284.9</ele>
        <time>2020-11-17T11:04:16Z</time>
      </trkpt>
      <trkpt lat="28.5684970" lon="-17.8555650">
        <ele>1285.0</ele>
        <time>2020-11-17T11:04:17Z</time>
      </trkpt>
      <trkpt lat="28.5684970" lon="-17.8555650">
        <ele>1285.0</ele>
        <time>2020-11-17T11:04:18Z</time>
      </trkpt>
      <trkpt lat="28.5684570" lon="-17.8555630">
        <ele>1285.2</ele>
        <time>2020-11-17T11:04:19Z</time>
      </trkpt>
      <trkpt lat="28.5684430" lon="-17.8555650">
        <ele>1285.3</ele>
        <time>2020-11-17T11:04:20Z</time>
      </trkpt>
      <trkpt lat="28.5684430" lon="-17.8555650">
        <ele>1285.3</ele>
        <time>2020-11-17T11:04:21Z</time>
      </trkpt>
      <trkpt lat="28.5684030" lon="-17.8555780">
        <ele>1285.5</ele>
        <time>2020-11-17T11:04:22Z</time>
      </trkpt>
      <trkpt lat="28.5684030" lon="-17.8555780">
        <ele>1285.5</ele>
        <time>2020-11-17T11:04:23Z</time>
      </trkpt>
      <trkpt lat="28.5683620" lon="-17.8555920">
        <ele>1285.7</ele>
        <time>2020-11-17T11:04:24Z</time>
      </trkpt>
      <trkpt lat="28.5683400" lon="-17.8555930">
        <ele>1285.8</ele>
        <time>2020-11-17T11:04:25Z</time>
      </trkpt>
      <trkpt lat="28.5683400" lon="-17.8555930">
        <ele>1285.8</ele>
        <time>2020-11-17T11:04:26Z</time>
      </trkpt>
      <trkpt lat="28.5683000" lon="-17.8555820">
        <ele>1286.0</ele>
        <time>2020-11-17T11:04:27Z</time>
      </trkpt>
      <trkpt lat="28.5682830" lon="-17.8555670">
        <ele>1286.1</ele>
        <time>2020-11-17T11:04:28Z</time>
      </trkpt>
      <trkpt lat="28.5682620" lon="-17.8555570">
        <ele>1286.2</ele>
        <time>2020-11-17T11:04:29Z</time>
      </trkpt>
      <trkpt lat="28.5682620" lon="-17.8555570">
        <ele>1286.2</ele>
        <time>2020-11-17T11:04:30Z</time>
      </trkpt>
      <trkpt lat="28.5682220" lon="-17.8555180">
        <ele>1286.4</ele>
        <time>2020-11-17T11:04:31Z</time>
      </trkpt>
      <trkpt lat="28.5682070" lon="-17.8554920">
        <ele>1286.5</ele>
        <time>2020-11-17T11:04:32Z</time>
      </trkpt>
      <trkpt lat="28.5682070" lon="-17.8554920">
        <ele>1286.5</ele>
        <time>2020-11-17T11:04:33Z</time>
      </trkpt>
      <trkpt lat="28.5681780" lon="-17.8554380">
        <ele>1286.7</ele>
        <time>2020-11-17T11:04:34Z</time>
      </trkpt>
      <trkpt lat="28.5681670" lon="-17.8554130">
        <ele>1286.7</ele>
        <time>2020-11-17T11:04:35Z</time>
      </trkpt>
      <trkpt lat="28.5681670" lon="-17.8554130">
        <ele>1286.7</ele>
        <time>2020-11-17T11:04:36Z</time>
      </trkpt>
      <trkpt lat="28.5681400" lon="-17.8553630">
        <ele>1286.8</ele>
        <time>2020-11-17T11:04:37Z</time>
      </trkpt>
      <trkpt lat="28.5681280" lon="-17.8553430">
        <ele>1286.9</ele>
        <time>2020-11-17T11:04:38Z</time>
      </trkpt>
      <trkpt lat="28.5681280" lon="-17.8553430">
        <ele>1286.9</ele>
        <time>2020-11-17T11:04:39Z</time>
      </trkpt>
      <trkpt lat="28.5680930" lon="-17.8553150">
        <ele>1287.0</ele>
        <time>2020-11-17T11:04:40Z</time>
      </trkpt>
      <trkpt lat="28.5680930" lon="-17.8553150">
        <ele>1287.0</ele>
        <time>2020-11-17T11:04:41Z</time>
      </trkpt>
      <trkpt lat="28.5680420" lon="-17.8553000">
        <ele>1287.2</ele>
        <time>2020-11-17T11:04:42Z</time>
      </trkpt>
      <trkpt lat="28.5680420" lon="-17.8553000">
        <ele>1287.2</ele>
        <time>2020-11-17T11:04:43Z</time>
      </trkpt>
      <trkpt lat="28.5679900" lon="-17.8552680">
        <ele>1287.4</ele>
        <time>2020-11-17T11:04:44Z</time>
      </trkpt>
      <trkpt lat="28.5679900" lon="-17.8552680">
        <ele>1287.4</ele>
        <time>2020-11-17T11:04:45Z</time>
      </trkpt>
      <trkpt lat="28.5679430" lon="-17.8552250">
        <ele>1287.6</ele>
        <time>2020-11-17T11:04:46Z</time>
      </trkpt>
      <trkpt lat="28.5679430" lon="-17.8552250">
        <ele>1287.6</ele>
        <time>2020-11-17T11:04:47Z</time>
      </trkpt>
      <trkpt lat="28.5678970" lon="-17.8551900">
        <ele>1287.7</ele>
        <time>2020-11-17T11:04:48Z</time>
      </trkpt>
      <trkpt lat="28.5678970" lon="-17.8551900">
        <ele>1287.7</ele>
        <time>2020-11-17T11:04:49Z</time>
      </trkpt>
      <trkpt lat="28.5678530" lon="-17.8551500">
        <ele>1287.9</ele>
        <time>2020-11-17T11:04:50Z</time>
      </trkpt>
      <trkpt lat="28.5678380" lon="-17.8551270">
        <ele>1288.0</ele>
        <time>2020-11-17T11:04:51Z</time>
      </trkpt>
      <trkpt lat="28.5678250" lon="-17.8550980">
        <ele>1288.2</ele>
        <time>2020-11-17T11:04:52Z</time>
      </trkpt>
      <trkpt lat="28.5678250" lon="-17.8550980">
        <ele>1288.2</ele>
        <time>2020-11-17T11:04:53Z</time>
      </trkpt>
      <trkpt lat="28.5678120" lon="-17.8550420">
        <ele>1288.4</ele>
        <time>2020-11-17T11:04:54Z</time>
      </trkpt>
      <trkpt lat="28.5678120" lon="-17.8550420">
        <ele>1288.4</ele>
        <time>2020-11-17T11:04:55Z</time>
      </trkpt>
      <trkpt lat="28.5678020" lon="-17.8549870">
        <ele>1288.5</ele>
        <time>2020-11-17T11:04:56Z</time>
      </trkpt>
      <trkpt lat="28.5677970" lon="-17.8549570">
        <ele>1288.6</ele>
        <time>2020-11-17T11:04:57Z</time>
      </trkpt>
      <trkpt lat="28.5677970" lon="-17.8549570">
        <ele>1288.6</ele>
        <time>2020-11-17T11:04:58Z</time>
      </trkpt>
      <trkpt lat="28.5677850" lon="-17.8549070">
        <ele>1288.8</ele>
        <time>2020-11-17T11:04:59Z</time>
      </trkpt>
      <trkpt lat="28.5677850" lon="-17.8549070">
        <ele>1288.8</ele>
        <time>2020-11-17T11:05:00Z</time>
      </trkpt>
      <trkpt lat="28.5677700" lon="-17.8548580">
        <ele>1288.9</ele>
        <time>2020-11-17T11:05:01Z</time>
      </trkpt>
      <trkpt lat="28.5677700" lon="-17.8548580">
        <ele>1288.9</ele>
        <time>2020-11-17T11:05:02Z</time>
      </trkpt>
      <trkpt lat="28.5677520" lon="-17.8548170">
        <ele>1289.0</ele>
        <time>2020-11-17T11:05:03Z</time>
      </trkpt>
      <trkpt lat="28.5677520" lon="-17.8548170">
        <ele>1289.0</ele>
        <time>2020-11-17T11:05:04Z</time>
      </trkpt>
      <trkpt lat="28.5677170" lon="-17.8547880">
        <ele>1289.1</ele>
        <time>2020-11-17T11:05:05Z</time>
      </trkpt>
      <trkpt lat="28.5677170" lon="-17.8547880">
        <ele>1289.1</ele>
        <time>2020-11-17T11:05:06Z</time>
      </trkpt>
      <trkpt lat="28.5676750" lon="-17.8547820">
        <ele>1289.1</ele>
        <time>2020-11-17T11:05:07Z</time>
      </trkpt>
      <trkpt lat="28.5676750" lon="-17.8547820">
        <ele>1289.1</ele>
        <time>2020-11-17T11:05:08Z</time>
      </trkpt>
      <trkpt lat="28.5676370" lon="-17.8547930">
        <ele>1289.2</ele>
        <time>2020-11-17T11:05:09Z</time>
      </trkpt>
      <trkpt lat="28.5676200" lon="-17.8548020">
        <ele>1289.2</ele>
        <time>2020-11-17T11:05:10Z</time>
      </trkpt>
      <trkpt lat="28.5675970" lon="-17.8548120">
        <ele>1289.2</ele>
        <time>2020-11-17T11:05:11Z</time>
      </trkpt>
      <trkpt lat="28.5675970" lon="-17.8548120">
        <ele>1289.2</ele>
        <time>2020-11-17T11:05:12Z</time>
      </trkpt>
      <trkpt lat="28.5675470" lon="-17.8548170">
        <ele>1289.2</ele>
        <time>2020-11-17T11:05:13Z</time>
      </trkpt>
      <trkpt lat="28.5675470" lon="-17.8548170">
        <ele>1289.2</ele>
        <time>2020-11-17T11:05:14Z</time>
      </trkpt>
      <trkpt lat="28.5675000" lon="-17.8548050">
        <ele>1289.1</ele>
        <time>2020-11-17T11:05:15Z</time>
      </trkpt>
      <trkpt lat="28.5675000" lon="-17.8548050">
        <ele>1289.1</ele>
        <time>2020-11-17T11:05:16Z</time>
      </trkpt>
      <trkpt lat="28.5674400" lon="-17.8547950">
        <ele>1288.9</ele>
        <time>2020-11-17T11:05:17Z</time>
      </trkpt>
      <trkpt lat="28.5674050" lon="-17.8547900">
        <ele>1288.7</ele>
        <time>2020-11-17T11:05:18Z</time>
      </trkpt>
      <trkpt lat="28.5674050" lon="-17.8547900">
        <ele>1288.7</ele>
        <time>2020-11-17T11:05:19Z</time>
      </trkpt>
      <trkpt lat="28.5673280" lon="-17.8547880">
        <ele>1288.3</ele>
        <time>2020-11-17T11:05:20Z</time>
      </trkpt>
      <trkpt lat="28.5672850" lon="-17.8547880">
        <ele>1288.0</ele>
        <time>2020-11-17T11:05:21Z</time>
      </trkpt>
      <trkpt lat="28.5672850" lon="-17.8547880">
        <ele>1288.0</ele>
        <time>2020-11-17T11:05:22Z</time>
      </trkpt>
      <trkpt lat="28.5672020" lon="-17.8548000">
        <ele>1287.5</ele>
        <time>2020-11-17T11:05:23Z</time>
      </trkpt>
      <trkpt lat="28.5671680" lon="-17.8548050">
        <ele>1287.3</ele>
        <time>2020-11-17T11:05:24Z</time>
      </trkpt>
      <trkpt lat="28.5671680" lon="-17.8548050">
        <ele>1287.3</ele>
        <time>2020-11-17T11:05:25Z</time>
      </trkpt>
      <trkpt lat="28.5670980" lon="-17.8547950">
        <ele>1286.8</ele>
        <time>2020-11-17T11:05:26Z</time>
      </trkpt>
      <trkpt lat="28.5670980" lon="-17.8547950">
        <ele>1286.8</ele>
        <time>2020-11-17T11:05:27Z</time>
      </trkpt>
      <trkpt lat="28.5670270" lon="-17.8547970">
        <ele>1286.4</ele>
        <time>2020-11-17T11:05:28Z</time>
      </trkpt>
      <trkpt lat="28.5670270" lon="-17.8547970">
        <ele>1286.4</ele>
        <time>2020-11-17T11:05:29Z</time>
      </trkpt>
      <trkpt lat="28.5669670" lon="-17.8547970">
        <ele>1286.1</ele>
        <time>2020-11-17T11:05:30Z</time>
      </trkpt>
      <trkpt lat="28.5669670" lon="-17.8547970">
        <ele>1286.1</ele>
        <time>2020-11-17T11:05:31Z</time>
      </trkpt>
      <trkpt lat="28.5669130" lon="-17.8547720">
        <ele>1285.8</ele>
        <time>2020-11-17T11:05:32Z</time>
      </trkpt>
      <trkpt lat="28.5669130" lon="-17.8547720">
        <ele>1285.8</ele>
        <time>2020-11-17T11:05:33Z</time>
      </trkpt>
      <trkpt lat="28.5668650" lon="-17.8547300">
        <ele>1285.5</ele>
        <time>2020-11-17T11:05:34Z</time>
      </trkpt>
      <trkpt lat="28.5668430" lon="-17.8547000">
        <ele>1285.3</ele>
        <time>2020-11-17T11:05:35Z</time>
      </trkpt>
      <trkpt lat="28.5668430" lon="-17.8547000">
        <ele>1285.3</ele>
        <time>2020-11-17T11:05:36Z</time>
      </trkpt>
      <trkpt lat="28.5667970" lon="-17.8546370">
        <ele>1285.0</ele>
        <time>2020-11-17T11:05:37Z</time>
      </trkpt>
      <trkpt lat="28.5667970" lon="-17.8546370">
        <ele>1285.0</ele>
        <time>2020-11-17T11:05:38Z</time>
      </trkpt>
      <trkpt lat="28.5667700" lon="-17.8545630">
        <ele>1284.7</ele>
        <time>2020-11-17T11:05:39Z</time>
      </trkpt>
      <trkpt lat="28.5667700" lon="-17.8545630">
        <ele>1284.7</ele>
        <time>2020-11-17T11:05:40Z</time>
      </trkpt>
      <trkpt lat="28.5667630" lon="-17.8545220">
        <ele>1284.5</ele>
        <time>2020-11-17T11:05:41Z</time>
      </trkpt>
      <trkpt lat="28.5667370" lon="-17.8544370">
        <ele>1284.1</ele>
        <time>2020-11-17T11:05:42Z</time>
      </trkpt>
      <trkpt lat="28.5667370" lon="-17.8544370">
        <ele>1284.1</ele>
        <time>2020-11-17T11:05:43Z</time>
      </trkpt>
      <trkpt lat="28.5666970" lon="-17.8543670">
        <ele>1283.8</ele>
        <time>2020-11-17T11:05:44Z</time>
      </trkpt>
      <trkpt lat="28.5666970" lon="-17.8543670">
        <ele>1283.8</ele>
        <time>2020-11-17T11:05:45Z</time>
      </trkpt>
      <trkpt lat="28.5666450" lon="-17.8543080">
        <ele>1283.4</ele>
        <time>2020-11-17T11:05:46Z</time>
      </trkpt>
      <trkpt lat="28.5666120" lon="-17.8543020">
        <ele>1283.3</ele>
        <time>2020-11-17T11:05:47Z</time>
      </trkpt>
      <trkpt lat="28.5665770" lon="-17.8543070">
        <ele>1283.1</ele>
        <time>2020-11-17T11:05:48Z</time>
      </trkpt>
      <trkpt lat="28.5665770" lon="-17.8543070">
        <ele>1283.1</ele>
        <time>2020-11-17T11:05:49Z</time>
      </trkpt>
      <trkpt lat="28.5665170" lon="-17.8543320">
        <ele>1282.8</ele>
        <time>2020-11-17T11:05:50Z</time>
      </trkpt>
      <trkpt lat="28.5665170" lon="-17.8543320">
        <ele>1282.8</ele>
        <time>2020-11-17T11:05:51Z</time>
      </trkpt>
      <trkpt lat="28.5664520" lon="-17.8543550">
        <ele>1282.4</ele>
        <time>2020-11-17T11:05:52Z</time>
      </trkpt>
      <trkpt lat="28.5664520" lon="-17.8543550">
        <ele>1282.4</ele>
        <time>2020-11-17T11:05:53Z</time>
      </trkpt>
      <trkpt lat="28.5663770" lon="-17.8543620">
        <ele>1282.1</ele>
        <time>2020-11-17T11:05:54Z</time>
      </trkpt>
      <trkpt lat="28.5663770" lon="-17.8543620">
        <ele>1282.1</ele>
        <time>2020-11-17T11:05:55Z</time>
      </trkpt>
      <trkpt lat="28.5663200" lon="-17.8543370">
        <ele>1281.8</ele>
        <time>2020-11-17T11:05:56Z</time>
      </trkpt>
      <trkpt lat="28.5663200" lon="-17.8543370">
        <ele>1281.8</ele>
        <time>2020-11-17T11:05:57Z</time>
      </trkpt>
      <trkpt lat="28.5662780" lon="-17.8542830">
        <ele>1281.7</ele>
        <time>2020-11-17T11:05:58Z</time>
      </trkpt>
      <trkpt lat="28.5662580" lon="-17.8542570">
        <ele>1281.6</ele>
        <time>2020-11-17T11:05:59Z</time>
      </trkpt>
      <trkpt lat="28.5662420" lon="-17.8542350">
        <ele>1281.6</ele>
        <time>2020-11-17T11:06:00Z</time>
      </trkpt>
      <trkpt lat="28.5662420" lon="-17.8542350">
        <ele>1281.6</ele>
        <time>2020-11-17T11:06:01Z</time>
      </trkpt>
      <trkpt lat="28.5661970" lon="-17.8542020">
        <ele>1281.6</ele>
        <time>2020-11-17T11:06:02Z</time>
      </trkpt>
      <trkpt lat="28.5661770" lon="-17.8541830">
        <ele>1281.6</ele>
        <time>2020-11-17T11:06:03Z</time>
      </trkpt>
      <trkpt lat="28.5661770" lon="-17.8541830">
        <ele>1281.6</ele>
        <time>2020-11-17T11:06:04Z</time>
      </trkpt>
      <trkpt lat="28.5661420" lon="-17.8541530">
        <ele>1281.6</ele>
        <time>2020-11-17T11:06:05Z</time>
      </trkpt>
      <trkpt lat="28.5661420" lon="-17.8541530">
        <ele>1281.6</ele>
        <time>2020-11-17T11:06:06Z</time>
      </trkpt>
      <trkpt lat="28.5661120" lon="-17.8541180">
        <ele>1281.6</ele>
        <time>2020-11-17T11:06:07Z</time>
      </trkpt>
      <trkpt lat="28.5661120" lon="-17.8541180">
        <ele>1281.6</ele>
        <time>2020-11-17T11:06:08Z</time>
      </trkpt>
      <trkpt lat="28.5660670" lon="-17.8540830">
        <ele>1281.7</ele>
        <time>2020-11-17T11:06:09Z</time>
      </trkpt>
      <trkpt lat="28.5660670" lon="-17.8540830">
        <ele>1281.7</ele>
        <time>2020-11-17T11:06:10Z</time>
      </trkpt>
      <trkpt lat="28.5660050" lon="-17.8540500">
        <ele>1281.8</ele>
        <time>2020-11-17T11:06:11Z</time>
      </trkpt>
      <trkpt lat="28.5659730" lon="-17.8540350">
        <ele>1281.8</ele>
        <time>2020-11-17T11:06:12Z</time>
      </trkpt>
      <trkpt lat="28.5659730" lon="-17.8540350">
        <ele>1281.8</ele>
        <time>2020-11-17T11:06:13Z</time>
      </trkpt>
      <trkpt lat="28.5659050" lon="-17.8539970">
        <ele>1281.8</ele>
        <time>2020-11-17T11:06:14Z</time>
      </trkpt>
      <trkpt lat="28.5659050" lon="-17.8539970">
        <ele>1281.8</ele>
        <time>2020-11-17T11:06:15Z</time>
      </trkpt>
      <trkpt lat="28.5658380" lon="-17.8539280">
        <ele>1281.8</ele>
        <time>2020-11-17T11:06:16Z</time>
      </trkpt>
      <trkpt lat="28.5658380" lon="-17.8539280">
        <ele>1281.8</ele>
        <time>2020-11-17T11:06:17Z</time>
      </trkpt>
      <trkpt lat="28.5657870" lon="-17.8538930">
        <ele>1281.7</ele>
        <time>2020-11-17T11:06:18Z</time>
      </trkpt>
      <trkpt lat="28.5657870" lon="-17.8538930">
        <ele>1281.7</ele>
        <time>2020-11-17T11:06:19Z</time>
      </trkpt>
      <trkpt lat="28.5657200" lon="-17.8538770">
        <ele>1281.5</ele>
        <time>2020-11-17T11:06:20Z</time>
      </trkpt>
      <trkpt lat="28.5656820" lon="-17.8538700">
        <ele>1281.4</ele>
        <time>2020-11-17T11:06:21Z</time>
      </trkpt>
      <trkpt lat="28.5656820" lon="-17.8538700">
        <ele>1281.4</ele>
        <time>2020-11-17T11:06:22Z</time>
      </trkpt>
      <trkpt lat="28.5656030" lon="-17.8538600">
        <ele>1281.1</ele>
        <time>2020-11-17T11:06:23Z</time>
      </trkpt>
      <trkpt lat="28.5655630" lon="-17.8538580">
        <ele>1280.9</ele>
        <time>2020-11-17T11:06:24Z</time>
      </trkpt>
      <trkpt lat="28.5655630" lon="-17.8538580">
        <ele>1280.9</ele>
        <time>2020-11-17T11:06:25Z</time>
      </trkpt>
      <trkpt lat="28.5654780" lon="-17.8538350">
        <ele>1280.5</ele>
        <time>2020-11-17T11:06:26Z</time>
      </trkpt>
      <trkpt lat="28.5654780" lon="-17.8538350">
        <ele>1280.5</ele>
        <time>2020-11-17T11:06:27Z</time>
      </trkpt>
      <trkpt lat="28.5653970" lon="-17.8538050">
        <ele>1280.1</ele>
        <time>2020-11-17T11:06:28Z</time>
      </trkpt>
      <trkpt lat="28.5653970" lon="-17.8538050">
        <ele>1280.1</ele>
        <time>2020-11-17T11:06:29Z</time>
      </trkpt>
      <trkpt lat="28.5653370" lon="-17.8537600">
        <ele>1279.8</ele>
        <time>2020-11-17T11:06:30Z</time>
      </trkpt>
      <trkpt lat="28.5653370" lon="-17.8537600">
        <ele>1279.8</ele>
        <time>2020-11-17T11:06:31Z</time>
      </trkpt>
      <trkpt lat="28.5652670" lon="-17.8537330">
        <ele>1279.6</ele>
        <time>2020-11-17T11:06:32Z</time>
      </trkpt>
      <trkpt lat="28.5652670" lon="-17.8537330">
        <ele>1279.6</ele>
        <time>2020-11-17T11:06:33Z</time>
      </trkpt>
      <trkpt lat="28.5652130" lon="-17.8537220">
        <ele>1279.4</ele>
        <time>2020-11-17T11:06:34Z</time>
      </trkpt>
      <trkpt lat="28.5651870" lon="-17.8537230">
        <ele>1279.4</ele>
        <time>2020-11-17T11:06:35Z</time>
      </trkpt>
      <trkpt lat="28.5651870" lon="-17.8537230">
        <ele>1279.4</ele>
        <time>2020-11-17T11:06:36Z</time>
      </trkpt>
      <trkpt lat="28.5651320" lon="-17.8537420">
        <ele>1279.2</ele>
        <time>2020-11-17T11:06:37Z</time>
      </trkpt>
      <trkpt lat="28.5651320" lon="-17.8537420">
        <ele>1279.2</ele>
        <time>2020-11-17T11:06:38Z</time>
      </trkpt>
      <trkpt lat="28.5650780" lon="-17.8537880">
        <ele>1279.0</ele>
        <time>2020-11-17T11:06:39Z</time>
      </trkpt>
      <trkpt lat="28.5650780" lon="-17.8537880">
        <ele>1279.0</ele>
        <time>2020-11-17T11:06:40Z</time>
      </trkpt>
      <trkpt lat="28.5650220" lon="-17.8538420">
        <ele>1278.8</ele>
        <time>2020-11-17T11:06:41Z</time>
      </trkpt>
      <trkpt lat="28.5649850" lon="-17.8538580">
        <ele>1278.7</ele>
        <time>2020-11-17T11:06:42Z</time>
      </trkpt>
      <trkpt lat="28.5649850" lon="-17.8538580">
        <ele>1278.7</ele>
        <time>2020-11-17T11:06:43Z</time>
      </trkpt>
      <trkpt lat="28.5649150" lon="-17.8538580">
        <ele>1278.4</ele>
        <time>2020-11-17T11:06:44Z</time>
      </trkpt>
      <trkpt lat="28.5649150" lon="-17.8538580">
        <ele>1278.4</ele>
        <time>2020-11-17T11:06:45Z</time>
      </trkpt>
      <trkpt lat="28.5648450" lon="-17.8538380">
        <ele>1278.2</ele>
        <time>2020-11-17T11:06:46Z</time>
      </trkpt>
      <trkpt lat="28.5648130" lon="-17.8538250">
        <ele>1278.0</ele>
        <time>2020-11-17T11:06:47Z</time>
      </trkpt>
      <trkpt lat="28.5647770" lon="-17.8538150">
        <ele>1277.9</ele>
        <time>2020-11-17T11:06:48Z</time>
      </trkpt>
      <trkpt lat="28.5647770" lon="-17.8538150">
        <ele>1277.9</ele>
        <time>2020-11-17T11:06:49Z</time>
      </trkpt>
      <trkpt lat="28.5647150" lon="-17.8538000">
        <ele>1277.7</ele>
        <time>2020-11-17T11:06:50Z</time>
      </trkpt>
      <trkpt lat="28.5647150" lon="-17.8538000">
        <ele>1277.7</ele>
        <time>2020-11-17T11:06:51Z</time>
      </trkpt>
      <trkpt lat="28.5646550" lon="-17.8537850">
        <ele>1277.4</ele>
        <time>2020-11-17T11:06:52Z</time>
      </trkpt>
      <trkpt lat="28.5646120" lon="-17.8537850">
        <ele>1277.2</ele>
        <time>2020-11-17T11:06:53Z</time>
      </trkpt>
      <trkpt lat="28.5646120" lon="-17.8537850">
        <ele>1277.2</ele>
        <time>2020-11-17T11:06:54Z</time>
      </trkpt>
      <trkpt lat="28.5645100" lon="-17.8538030">
        <ele>1276.8</ele>
        <time>2020-11-17T11:06:55Z</time>
      </trkpt>
      <trkpt lat="28.5645100" lon="-17.8538030">
        <ele>1276.8</ele>
        <time>2020-11-17T11:06:56Z</time>
      </trkpt>
      <trkpt lat="28.5644180" lon="-17.8538330">
        <ele>1276.4</ele>
        <time>2020-11-17T11:06:57Z</time>
      </trkpt>
      <trkpt lat="28.5644180" lon="-17.8538330">
        <ele>1276.4</ele>
        <time>2020-11-17T11:06:58Z</time>
      </trkpt>
      <trkpt lat="28.5643320" lon="-17.8538630">
        <ele>1276.1</ele>
        <time>2020-11-17T11:06:59Z</time>
      </trkpt>
      <trkpt lat="28.5642880" lon="-17.8538620">
        <ele>1276.0</ele>
        <time>2020-11-17T11:07:00Z</time>
      </trkpt>
      <trkpt lat="28.5642880" lon="-17.8538620">
        <ele>1276.0</ele>
        <time>2020-11-17T11:07:01Z</time>
      </trkpt>
      <trkpt lat="28.5641950" lon="-17.8538550">
        <ele>1275.6</ele>
        <time>2020-11-17T11:07:02Z</time>
      </trkpt>
      <trkpt lat="28.5641950" lon="-17.8538550">
        <ele>1275.6</ele>
        <time>2020-11-17T11:07:03Z</time>
      </trkpt>
      <trkpt lat="28.5641000" lon="-17.8538530">
        <ele>1275.2</ele>
        <time>2020-11-17T11:07:04Z</time>
      </trkpt>
      <trkpt lat="28.5641000" lon="-17.8538530">
        <ele>1275.2</ele>
        <time>2020-11-17T11:07:05Z</time>
      </trkpt>
      <trkpt lat="28.5640130" lon="-17.8538650">
        <ele>1274.8</ele>
        <time>2020-11-17T11:07:06Z</time>
      </trkpt>
      <trkpt lat="28.5640130" lon="-17.8538650">
        <ele>1274.8</ele>
        <time>2020-11-17T11:07:07Z</time>
      </trkpt>
      <trkpt lat="28.5639370" lon="-17.8539000">
        <ele>1274.4</ele>
        <time>2020-11-17T11:07:08Z</time>
      </trkpt>
      <trkpt lat="28.5639370" lon="-17.8539000">
        <ele>1274.4</ele>
        <time>2020-11-17T11:07:09Z</time>
      </trkpt>
      <trkpt lat="28.5638700" lon="-17.8539320">
        <ele>1273.9</ele>
        <time>2020-11-17T11:07:10Z</time>
      </trkpt>
      <trkpt lat="28.5638330" lon="-17.8539370">
        <ele>1273.7</ele>
        <time>2020-11-17T11:07:11Z</time>
      </trkpt>
      <trkpt lat="28.5638330" lon="-17.8539370">
        <ele>1273.7</ele>
        <time>2020-11-17T11:07:12Z</time>
      </trkpt>
      <trkpt lat="28.5637680" lon="-17.8539330">
        <ele>1273.3</ele>
        <time>2020-11-17T11:07:13Z</time>
      </trkpt>
      <trkpt lat="28.5637680" lon="-17.8539330">
        <ele>1273.3</ele>
        <time>2020-11-17T11:07:14Z</time>
      </trkpt>
      <trkpt lat="28.5637170" lon="-17.8539250">
        <ele>1273.1</ele>
        <time>2020-11-17T11:07:15Z</time>
      </trkpt>
      <trkpt lat="28.5636930" lon="-17.8539300">
        <ele>1272.9</ele>
        <time>2020-11-17T11:07:16Z</time>
      </trkpt>
      <trkpt lat="28.5636730" lon="-17.8539320">
        <ele>1272.8</ele>
        <time>2020-11-17T11:07:17Z</time>
      </trkpt>
      <trkpt lat="28.5636430" lon="-17.8539480">
        <ele>1272.6</ele>
        <time>2020-11-17T11:07:18Z</time>
      </trkpt>
      <trkpt lat="28.5636430" lon="-17.8539480">
        <ele>1272.6</ele>
        <time>2020-11-17T11:07:19Z</time>
      </trkpt>
      <trkpt lat="28.5635930" lon="-17.8539950">
        <ele>1272.3</ele>
        <time>2020-11-17T11:07:20Z</time>
      </trkpt>
      <trkpt lat="28.5635700" lon="-17.8540170">
        <ele>1272.1</ele>
        <time>2020-11-17T11:07:21Z</time>
      </trkpt>
      <trkpt lat="28.5635700" lon="-17.8540170">
        <ele>1272.1</ele>
        <time>2020-11-17T11:07:22Z</time>
      </trkpt>
      <trkpt lat="28.5635270" lon="-17.8540450">
        <ele>1271.8</ele>
        <time>2020-11-17T11:07:23Z</time>
      </trkpt>
      <trkpt lat="28.5635270" lon="-17.8540450">
        <ele>1271.8</ele>
        <time>2020-11-17T11:07:24Z</time>
      </trkpt>
      <trkpt lat="28.5634680" lon="-17.8540350">
        <ele>1271.5</ele>
        <time>2020-11-17T11:07:25Z</time>
      </trkpt>
      <trkpt lat="28.5634680" lon="-17.8540350">
        <ele>1271.5</ele>
        <time>2020-11-17T11:07:26Z</time>
      </trkpt>
      <trkpt lat="28.5634080" lon="-17.8540080">
        <ele>1271.1</ele>
        <time>2020-11-17T11:07:27Z</time>
      </trkpt>
      <trkpt lat="28.5633880" lon="-17.8539950">
        <ele>1271.0</ele>
        <time>2020-11-17T11:07:28Z</time>
      </trkpt>
      <trkpt lat="28.5633720" lon="-17.8539820">
        <ele>1270.9</ele>
        <time>2020-11-17T11:07:29Z</time>
      </trkpt>
      <trkpt lat="28.5633720" lon="-17.8539820">
        <ele>1270.9</ele>
        <time>2020-11-17T11:07:30Z</time>
      </trkpt>
      <trkpt lat="28.5633320" lon="-17.8539600">
        <ele>1270.8</ele>
        <time>2020-11-17T11:07:31Z</time>
      </trkpt>
      <trkpt lat="28.5633320" lon="-17.8539600">
        <ele>1270.8</ele>
        <time>2020-11-17T11:07:32Z</time>
      </trkpt>
      <trkpt lat="28.5632920" lon="-17.8539300">
        <ele>1270.7</ele>
        <time>2020-11-17T11:07:33Z</time>
      </trkpt>
      <trkpt lat="28.5632700" lon="-17.8539170">
        <ele>1270.6</ele>
        <time>2020-11-17T11:07:34Z</time>
      </trkpt>
      <trkpt lat="28.5632700" lon="-17.8539170">
        <ele>1270.6</ele>
        <time>2020-11-17T11:07:35Z</time>
      </trkpt>
      <trkpt lat="28.5632230" lon="-17.8538820">
        <ele>1270.6</ele>
        <time>2020-11-17T11:07:36Z</time>
      </trkpt>
      <trkpt lat="28.5632230" lon="-17.8538820">
        <ele>1270.6</ele>
        <time>2020-11-17T11:07:37Z</time>
      </trkpt>
      <trkpt lat="28.5631730" lon="-17.8538550">
        <ele>1270.6</ele>
        <time>2020-11-17T11:07:38Z</time>
      </trkpt>
      <trkpt lat="28.5631530" lon="-17.8538420">
        <ele>1270.6</ele>
        <time>2020-11-17T11:07:39Z</time>
      </trkpt>
      <trkpt lat="28.5631530" lon="-17.8538420">
        <ele>1270.6</ele>
        <time>2020-11-17T11:07:40Z</time>
      </trkpt>
      <trkpt lat="28.5631130" lon="-17.8538080">
        <ele>1270.6</ele>
        <time>2020-11-17T11:07:41Z</time>
      </trkpt>
      <trkpt lat="28.5631130" lon="-17.8538080">
        <ele>1270.6</ele>
        <time>2020-11-17T11:07:42Z</time>
      </trkpt>
      <trkpt lat="28.5630620" lon="-17.8537720">
        <ele>1270.7</ele>
        <time>2020-11-17T11:07:43Z</time>
      </trkpt>
      <trkpt lat="28.5630350" lon="-17.8537500">
        <ele>1270.7</ele>
        <time>2020-11-17T11:07:44Z</time>
      </trkpt>
      <trkpt lat="28.5630350" lon="-17.8537500">
        <ele>1270.7</ele>
        <time>2020-11-17T11:07:45Z</time>
      </trkpt>
      <trkpt lat="28.5629780" lon="-17.8536970">
        <ele>1270.7</ele>
        <time>2020-11-17T11:07:46Z</time>
      </trkpt>
      <trkpt lat="28.5629780" lon="-17.8536970">
        <ele>1270.7</ele>
        <time>2020-11-17T11:07:47Z</time>
      </trkpt>
      <trkpt lat="28.5629170" lon="-17.8536480">
        <ele>1270.8</ele>
        <time>2020-11-17T11:07:48Z</time>
      </trkpt>
      <trkpt lat="28.5629170" lon="-17.8536480">
        <ele>1270.8</ele>
        <time>2020-11-17T11:07:49Z</time>
      </trkpt>
      <trkpt lat="28.5628370" lon="-17.8536320">
        <ele>1270.8</ele>
        <time>2020-11-17T11:07:50Z</time>
      </trkpt>
      <trkpt lat="28.5628370" lon="-17.8536320">
        <ele>1270.8</ele>
        <time>2020-11-17T11:07:51Z</time>
      </trkpt>
      <trkpt lat="28.5627770" lon="-17.8536300">
        <ele>1270.7</ele>
        <time>2020-11-17T11:07:52Z</time>
      </trkpt>
      <trkpt lat="28.5627770" lon="-17.8536300">
        <ele>1270.7</ele>
        <time>2020-11-17T11:07:53Z</time>
      </trkpt>
      <trkpt lat="28.5627020" lon="-17.8536280">
        <ele>1270.6</ele>
        <time>2020-11-17T11:07:54Z</time>
      </trkpt>
      <trkpt lat="28.5626630" lon="-17.8536380">
        <ele>1270.5</ele>
        <time>2020-11-17T11:07:55Z</time>
      </trkpt>
      <trkpt lat="28.5626630" lon="-17.8536380">
        <ele>1270.5</ele>
        <time>2020-11-17T11:07:56Z</time>
      </trkpt>
      <trkpt lat="28.5625830" lon="-17.8536870">
        <ele>1270.2</ele>
        <time>2020-11-17T11:07:57Z</time>
      </trkpt>
      <trkpt lat="28.5625830" lon="-17.8536870">
        <ele>1270.2</ele>
        <time>2020-11-17T11:07:58Z</time>
      </trkpt>
      <trkpt lat="28.5625130" lon="-17.8537280">
        <ele>1269.8</ele>
        <time>2020-11-17T11:07:59Z</time>
      </trkpt>
      <trkpt lat="28.5624820" lon="-17.8537480">
        <ele>1269.7</ele>
        <time>2020-11-17T11:08:00Z</time>
      </trkpt>
      <trkpt lat="28.5624820" lon="-17.8537480">
        <ele>1269.7</ele>
        <time>2020-11-17T11:08:01Z</time>
      </trkpt>
      <trkpt lat="28.5624230" lon="-17.8537780">
        <ele>1269.3</ele>
        <time>2020-11-17T11:08:02Z</time>
      </trkpt>
      <trkpt lat="28.5623970" lon="-17.8537930">
        <ele>1268.9</ele>
        <time>2020-11-17T11:08:03Z</time>
      </trkpt>
      <trkpt lat="28.5623970" lon="-17.8537930">
        <ele>1268.9</ele>
        <time>2020-11-17T11:08:04Z</time>
      </trkpt>
      <trkpt lat="28.5623450" lon="-17.8538170">
        <ele>1263.2</ele>
        <time>2020-11-17T11:08:05Z</time>
      </trkpt>
      <trkpt lat="28.5623230" lon="-17.8538250">
        <ele>1260.8</ele>
        <time>2020-11-17T11:08:06Z</time>
      </trkpt>
      <trkpt lat="28.5623230" lon="-17.8538250">
        <ele>1260.8</ele>
        <time>2020-11-17T11:08:07Z</time>
      </trkpt>
      <trkpt lat="28.5622850" lon="-17.8538480">
        <ele>1258.7</ele>
        <time>2020-11-17T11:08:08Z</time>
      </trkpt>
      <trkpt lat="28.5622850" lon="-17.8538480">
        <ele>1258.7</ele>
        <time>2020-11-17T11:08:09Z</time>
      </trkpt>
      <trkpt lat="28.5622550" lon="-17.8538620">
        <ele>1258.7</ele>
        <time>2020-11-17T11:08:10Z</time>
      </trkpt>
      <trkpt lat="28.5622380" lon="-17.8538700">
        <ele>1258.6</ele>
        <time>2020-11-17T11:08:11Z</time>
      </trkpt>
      <trkpt lat="28.5622220" lon="-17.8538820">
        <ele>1258.6</ele>
        <time>2020-11-17T11:08:12Z</time>
      </trkpt>
      <trkpt lat="28.5622220" lon="-17.8538820">
        <ele>1258.6</ele>
        <time>2020-11-17T11:08:13Z</time>
      </trkpt>
      <trkpt lat="28.5621920" lon="-17.8538970">
        <ele>1258.5</ele>
        <time>2020-11-17T11:08:14Z</time>
      </trkpt>
      <trkpt lat="28.5621920" lon="-17.8538970">
        <ele>1258.5</ele>
        <time>2020-11-17T11:08:15Z</time>
      </trkpt>
      <trkpt lat="28.5621630" lon="-17.8539200">
        <ele>1258.5</ele>
        <time>2020-11-17T11:08:16Z</time>
      </trkpt>
      <trkpt lat="28.5621630" lon="-17.8539200">
        <ele>1258.5</ele>
        <time>2020-11-17T11:08:17Z</time>
      </trkpt>
      <trkpt lat="28.5621280" lon="-17.8539480">
        <ele>1258.4</ele>
        <time>2020-11-17T11:08:18Z</time>
      </trkpt>
      <trkpt lat="28.5621030" lon="-17.8539620">
        <ele>1258.3</ele>
        <time>2020-11-17T11:08:19Z</time>
      </trkpt>
      <trkpt lat="28.5621030" lon="-17.8539620">
        <ele>1258.3</ele>
        <time>2020-11-17T11:08:20Z</time>
      </trkpt>
      <trkpt lat="28.5620620" lon="-17.8540170">
        <ele>1258.2</ele>
        <time>2020-11-17T11:08:21Z</time>
      </trkpt>
      <trkpt lat="28.5620620" lon="-17.8540170">
        <ele>1258.2</ele>
        <time>2020-11-17T11:08:22Z</time>
      </trkpt>
      <trkpt lat="28.5620250" lon="-17.8540720">
        <ele>1258.0</ele>
        <time>2020-11-17T11:08:23Z</time>
      </trkpt>
      <trkpt lat="28.5620070" lon="-17.8541080">
        <ele>1257.9</ele>
        <time>2020-11-17T11:08:24Z</time>
      </trkpt>
      <trkpt lat="28.5620070" lon="-17.8541080">
        <ele>1257.9</ele>
        <time>2020-11-17T11:08:25Z</time>
      </trkpt>
      <trkpt lat="28.5619680" lon="-17.8541770">
        <ele>1257.7</ele>
        <time>2020-11-17T11:08:26Z</time>
      </trkpt>
      <trkpt lat="28.5619680" lon="-17.8541770">
        <ele>1257.7</ele>
        <time>2020-11-17T11:08:27Z</time>
      </trkpt>
      <trkpt lat="28.5619100" lon="-17.8542230">
        <ele>1257.4</ele>
        <time>2020-11-17T11:08:28Z</time>
      </trkpt>
      <trkpt lat="28.5618730" lon="-17.8542380">
        <ele>1257.3</ele>
        <time>2020-11-17T11:08:29Z</time>
      </trkpt>
      <trkpt lat="28.5618380" lon="-17.8542520">
        <ele>1257.2</ele>
        <time>2020-11-17T11:08:30Z</time>
      </trkpt>
      <trkpt lat="28.5618380" lon="-17.8542520">
        <ele>1257.2</ele>
        <time>2020-11-17T11:08:31Z</time>
      </trkpt>
      <trkpt lat="28.5617570" lon="-17.8542670">
        <ele>1256.8</ele>
        <time>2020-11-17T11:08:32Z</time>
      </trkpt>
      <trkpt lat="28.5617570" lon="-17.8542670">
        <ele>1256.8</ele>
        <time>2020-11-17T11:08:33Z</time>
      </trkpt>
      <trkpt lat="28.5616700" lon="-17.8542750">
        <ele>1256.4</ele>
        <time>2020-11-17T11:08:34Z</time>
      </trkpt>
      <trkpt lat="28.5616250" lon="-17.8542780">
        <ele>1256.2</ele>
        <time>2020-11-17T11:08:35Z</time>
      </trkpt>
      <trkpt lat="28.5616250" lon="-17.8542780">
        <ele>1256.2</ele>
        <time>2020-11-17T11:08:36Z</time>
      </trkpt>
      <trkpt lat="28.5615330" lon="-17.8543150">
        <ele>1255.8</ele>
        <time>2020-11-17T11:08:37Z</time>
      </trkpt>
      <trkpt lat="28.5614920" lon="-17.8543370">
        <ele>1255.6</ele>
        <time>2020-11-17T11:08:38Z</time>
      </trkpt>
      <trkpt lat="28.5614920" lon="-17.8543370">
        <ele>1255.6</ele>
        <time>2020-11-17T11:08:39Z</time>
      </trkpt>
      <trkpt lat="28.5614100" lon="-17.8543670">
        <ele>1255.2</ele>
        <time>2020-11-17T11:08:40Z</time>
      </trkpt>
      <trkpt lat="28.5614100" lon="-17.8543670">
        <ele>1255.2</ele>
        <time>2020-11-17T11:08:41Z</time>
      </trkpt>
      <trkpt lat="28.5613230" lon="-17.8543770">
        <ele>1254.8</ele>
        <time>2020-11-17T11:08:42Z</time>
      </trkpt>
      <trkpt lat="28.5613230" lon="-17.8543770">
        <ele>1254.8</ele>
        <time>2020-11-17T11:08:43Z</time>
      </trkpt>
      <trkpt lat="28.5612370" lon="-17.8543900">
        <ele>1254.2</ele>
        <time>2020-11-17T11:08:44Z</time>
      </trkpt>
      <trkpt lat="28.5611920" lon="-17.8543880">
        <ele>1253.9</ele>
        <time>2020-11-17T11:08:45Z</time>
      </trkpt>
      <trkpt lat="28.5611920" lon="-17.8543880">
        <ele>1253.9</ele>
        <time>2020-11-17T11:08:46Z</time>
      </trkpt>
      <trkpt lat="28.5611150" lon="-17.8543600">
        <ele>1253.3</ele>
        <time>2020-11-17T11:08:47Z</time>
      </trkpt>
      <trkpt lat="28.5611150" lon="-17.8543600">
        <ele>1253.3</ele>
        <time>2020-11-17T11:08:48Z</time>
      </trkpt>
      <trkpt lat="28.5610520" lon="-17.8543000">
        <ele>1252.7</ele>
        <time>2020-11-17T11:08:49Z</time>
      </trkpt>
      <trkpt lat="28.5610520" lon="-17.8543000">
        <ele>1252.7</ele>
        <time>2020-11-17T11:08:50Z</time>
      </trkpt>
      <trkpt lat="28.5609670" lon="-17.8542430">
        <ele>1252.1</ele>
        <time>2020-11-17T11:08:51Z</time>
      </trkpt>
      <trkpt lat="28.5609670" lon="-17.8542430">
        <ele>1252.1</ele>
        <time>2020-11-17T11:08:52Z</time>
      </trkpt>
      <trkpt lat="28.5608480" lon="-17.8542250">
        <ele>1251.4</ele>
        <time>2020-11-17T11:08:53Z</time>
      </trkpt>
      <trkpt lat="28.5607970" lon="-17.8542150">
        <ele>1251.1</ele>
        <time>2020-11-17T11:08:54Z</time>
      </trkpt>
      <trkpt lat="28.5607970" lon="-17.8542150">
        <ele>1251.1</ele>
        <time>2020-11-17T11:08:55Z</time>
      </trkpt>
      <trkpt lat="28.5606920" lon="-17.8541680">
        <ele>1250.7</ele>
        <time>2020-11-17T11:08:56Z</time>
      </trkpt>
      <trkpt lat="28.5606920" lon="-17.8541680">
        <ele>1250.7</ele>
        <time>2020-11-17T11:08:57Z</time>
      </trkpt>
      <trkpt lat="28.5606050" lon="-17.8540770">
        <ele>1250.4</ele>
        <time>2020-11-17T11:08:58Z</time>
      </trkpt>
      <trkpt lat="28.5606050" lon="-17.8540770">
        <ele>1250.4</ele>
        <time>2020-11-17T11:08:59Z</time>
      </trkpt>
      <trkpt lat="28.5605480" lon="-17.8539780">
        <ele>1250.2</ele>
        <time>2020-11-17T11:09:00Z</time>
      </trkpt>
      <trkpt lat="28.5605170" lon="-17.8539320">
        <ele>1250.2</ele>
        <time>2020-11-17T11:09:01Z</time>
      </trkpt>
      <trkpt lat="28.5605170" lon="-17.8539320">
        <ele>1250.2</ele>
        <time>2020-11-17T11:09:02Z</time>
      </trkpt>
      <trkpt lat="28.5604370" lon="-17.8538550">
        <ele>1250.0</ele>
        <time>2020-11-17T11:09:03Z</time>
      </trkpt>
      <trkpt lat="28.5604370" lon="-17.8538550">
        <ele>1250.0</ele>
        <time>2020-11-17T11:09:04Z</time>
      </trkpt>
      <trkpt lat="28.5603430" lon="-17.8537930">
        <ele>1249.9</ele>
        <time>2020-11-17T11:09:05Z</time>
      </trkpt>
      <trkpt lat="28.5603130" lon="-17.8537430">
        <ele>1249.8</ele>
        <time>2020-11-17T11:09:06Z</time>
      </trkpt>
      <trkpt lat="28.5603130" lon="-17.8537430">
        <ele>1249.8</ele>
        <time>2020-11-17T11:09:07Z</time>
      </trkpt>
      <trkpt lat="28.5602630" lon="-17.8536430">
        <ele>1249.6</ele>
        <time>2020-11-17T11:09:08Z</time>
      </trkpt>
      <trkpt lat="28.5602630" lon="-17.8536430">
        <ele>1249.6</ele>
        <time>2020-11-17T11:09:09Z</time>
      </trkpt>
      <trkpt lat="28.5601770" lon="-17.8535920">
        <ele>1249.3</ele>
        <time>2020-11-17T11:09:10Z</time>
      </trkpt>
      <trkpt lat="28.5601770" lon="-17.8535920">
        <ele>1249.3</ele>
        <time>2020-11-17T11:09:11Z</time>
      </trkpt>
      <trkpt lat="28.5600730" lon="-17.8535870">
        <ele>1248.7</ele>
        <time>2020-11-17T11:09:12Z</time>
      </trkpt>
      <trkpt lat="28.5600730" lon="-17.8535870">
        <ele>1248.7</ele>
        <time>2020-11-17T11:09:13Z</time>
      </trkpt>
      <trkpt lat="28.5599530" lon="-17.8535970">
        <ele>1248.0</ele>
        <time>2020-11-17T11:09:14Z</time>
      </trkpt>
      <trkpt lat="28.5599530" lon="-17.8535970">
        <ele>1248.0</ele>
        <time>2020-11-17T11:09:15Z</time>
      </trkpt>
      <trkpt lat="28.5598230" lon="-17.8536230">
        <ele>1247.4</ele>
        <time>2020-11-17T11:09:16Z</time>
      </trkpt>
      <trkpt lat="28.5597570" lon="-17.8536520">
        <ele>1247.0</ele>
        <time>2020-11-17T11:09:17Z</time>
      </trkpt>
      <trkpt lat="28.5597570" lon="-17.8536520">
        <ele>1247.0</ele>
        <time>2020-11-17T11:09:18Z</time>
      </trkpt>
      <trkpt lat="28.5596330" lon="-17.8537130">
        <ele>1246.4</ele>
        <time>2020-11-17T11:09:19Z</time>
      </trkpt>
      <trkpt lat="28.5596330" lon="-17.8537130">
        <ele>1246.4</ele>
        <time>2020-11-17T11:09:20Z</time>
      </trkpt>
      <trkpt lat="28.5595200" lon="-17.8536930">
        <ele>1246.0</ele>
        <time>2020-11-17T11:09:21Z</time>
      </trkpt>
      <trkpt lat="28.5595200" lon="-17.8536930">
        <ele>1246.0</ele>
        <time>2020-11-17T11:09:22Z</time>
      </trkpt>
      <trkpt lat="28.5594520" lon="-17.8536120">
        <ele>1245.7</ele>
        <time>2020-11-17T11:09:23Z</time>
      </trkpt>
      <trkpt lat="28.5594520" lon="-17.8536120">
        <ele>1245.7</ele>
        <time>2020-11-17T11:09:24Z</time>
      </trkpt>
      <trkpt lat="28.5593780" lon="-17.8535430">
        <ele>1245.4</ele>
        <time>2020-11-17T11:09:25Z</time>
      </trkpt>
      <trkpt lat="28.5593350" lon="-17.8535350">
        <ele>1245.3</ele>
        <time>2020-11-17T11:09:26Z</time>
      </trkpt>
      <trkpt lat="28.5593350" lon="-17.8535350">
        <ele>1245.3</ele>
        <time>2020-11-17T11:09:27Z</time>
      </trkpt>
      <trkpt lat="28.5592570" lon="-17.8535570">
        <ele>1245.1</ele>
        <time>2020-11-17T11:09:28Z</time>
      </trkpt>
      <trkpt lat="28.5592570" lon="-17.8535570">
        <ele>1245.1</ele>
        <time>2020-11-17T11:09:29Z</time>
      </trkpt>
      <trkpt lat="28.5591750" lon="-17.8535670">
        <ele>1244.9</ele>
        <time>2020-11-17T11:09:30Z</time>
      </trkpt>
      <trkpt lat="28.5591750" lon="-17.8535670">
        <ele>1244.9</ele>
        <time>2020-11-17T11:09:31Z</time>
      </trkpt>
      <trkpt lat="28.5590950" lon="-17.8535470">
        <ele>1244.8</ele>
        <time>2020-11-17T11:09:32Z</time>
      </trkpt>
      <trkpt lat="28.5590650" lon="-17.8535230">
        <ele>1244.7</ele>
        <time>2020-11-17T11:09:33Z</time>
      </trkpt>
      <trkpt lat="28.5590650" lon="-17.8535230">
        <ele>1244.7</ele>
        <time>2020-11-17T11:09:34Z</time>
      </trkpt>
      <trkpt lat="28.5590050" lon="-17.8534980">
        <ele>1244.6</ele>
        <time>2020-11-17T11:09:35Z</time>
      </trkpt>
      <trkpt lat="28.5590050" lon="-17.8534980">
        <ele>1244.6</ele>
        <time>2020-11-17T11:09:36Z</time>
      </trkpt>
      <trkpt lat="28.5589530" lon="-17.8534980">
        <ele>1244.9</ele>
        <time>2020-11-17T11:09:37Z</time>
      </trkpt>
      <trkpt lat="28.5589530" lon="-17.8534980">
        <ele>1244.9</ele>
        <time>2020-11-17T11:09:38Z</time>
      </trkpt>
      <trkpt lat="28.5589130" lon="-17.8534950">
        <ele>1245.1</ele>
        <time>2020-11-17T11:09:39Z</time>
      </trkpt>
      <trkpt lat="28.5589130" lon="-17.8534950">
        <ele>1245.1</ele>
        <time>2020-11-17T11:09:40Z</time>
      </trkpt>
      <trkpt lat="28.5588730" lon="-17.8534930">
        <ele>1245.3</ele>
        <time>2020-11-17T11:09:41Z</time>
      </trkpt>
      <trkpt lat="28.5588550" lon="-17.8535030">
        <ele>1245.4</ele>
        <time>2020-11-17T11:09:42Z</time>
      </trkpt>
      <trkpt lat="28.5588550" lon="-17.8535030">
        <ele>1245.4</ele>
        <time>2020-11-17T11:09:43Z</time>
      </trkpt>
      <trkpt lat="28.5588170" lon="-17.8535170">
        <ele>1245.5</ele>
        <time>2020-11-17T11:09:44Z</time>
      </trkpt>
      <trkpt lat="28.5588170" lon="-17.8535170">
        <ele>1245.5</ele>
        <time>2020-11-17T11:09:45Z</time>
      </trkpt>
      <trkpt lat="28.5587770" lon="-17.8535150">
        <ele>1245.7</ele>
        <time>2020-11-17T11:09:46Z</time>
      </trkpt>
      <trkpt lat="28.5587770" lon="-17.8535150">
        <ele>1245.7</ele>
        <time>2020-11-17T11:09:47Z</time>
      </trkpt>
      <trkpt lat="28.5587470" lon="-17.8535100">
        <ele>1245.9</ele>
        <time>2020-11-17T11:09:48Z</time>
      </trkpt>
      <trkpt lat="28.5587470" lon="-17.8535100">
        <ele>1245.9</ele>
        <time>2020-11-17T11:09:49Z</time>
      </trkpt>
      <trkpt lat="28.5587170" lon="-17.8535030">
        <ele>1246.0</ele>
        <time>2020-11-17T11:09:50Z</time>
      </trkpt>
      <trkpt lat="28.5587170" lon="-17.8535030">
        <ele>1246.0</ele>
        <time>2020-11-17T11:09:51Z</time>
      </trkpt>
      <trkpt lat="28.5586800" lon="-17.8534870">
        <ele>1246.2</ele>
        <time>2020-11-17T11:09:52Z</time>
      </trkpt>
      <trkpt lat="28.5586680" lon="-17.8534870">
        <ele>1246.2</ele>
        <time>2020-11-17T11:09:53Z</time>
      </trkpt>
      <trkpt lat="28.5586680" lon="-17.8534870">
        <ele>1246.2</ele>
        <time>2020-11-17T11:09:54Z</time>
      </trkpt>
      <trkpt lat="28.5586380" lon="-17.8534880">
        <ele>1246.4</ele>
        <time>2020-11-17T11:09:55Z</time>
      </trkpt>
      <trkpt lat="28.5586380" lon="-17.8534880">
        <ele>1246.4</ele>
        <time>2020-11-17T11:09:56Z</time>
      </trkpt>
      <trkpt lat="28.5586320" lon="-17.8534900">
        <ele>1246.4</ele>
        <time>2020-11-17T11:09:57Z</time>
      </trkpt>
      <trkpt lat="28.5586320" lon="-17.8534850">
        <ele>1246.4</ele>
        <time>2020-11-17T11:11:11Z</time>
      </trkpt>
      <trkpt lat="28.5586320" lon="-17.8534850">
        <ele>1246.4</ele>
        <time>2020-11-17T11:11:12Z</time>
      </trkpt>
      <trkpt lat="28.5585500" lon="-17.8534100">
        <ele>1247.0</ele>
        <time>2020-11-17T11:11:13Z</time>
      </trkpt>
      <trkpt lat="28.5585330" lon="-17.8534000">
        <ele>1247.1</ele>
        <time>2020-11-17T11:11:14Z</time>
      </trkpt>
      <trkpt lat="28.5585330" lon="-17.8534000">
        <ele>1247.1</ele>
        <time>2020-11-17T11:11:15Z</time>
      </trkpt>
      <trkpt lat="28.5584920" lon="-17.8533530">
        <ele>1247.4</ele>
        <time>2020-11-17T11:11:16Z</time>
      </trkpt>
      <trkpt lat="28.5584920" lon="-17.8533530">
        <ele>1247.4</ele>
        <time>2020-11-17T11:11:17Z</time>
      </trkpt>
      <trkpt lat="28.5584400" lon="-17.8532970">
        <ele>1247.8</ele>
        <time>2020-11-17T11:11:18Z</time>
      </trkpt>
      <trkpt lat="28.5584400" lon="-17.8532970">
        <ele>1247.8</ele>
        <time>2020-11-17T11:11:19Z</time>
      </trkpt>
      <trkpt lat="28.5583950" lon="-17.8532480">
        <ele>1248.2</ele>
        <time>2020-11-17T11:11:20Z</time>
      </trkpt>
      <trkpt lat="28.5583950" lon="-17.8532480">
        <ele>1248.2</ele>
        <time>2020-11-17T11:11:21Z</time>
      </trkpt>
      <trkpt lat="28.5583520" lon="-17.8532030">
        <ele>1248.6</ele>
        <time>2020-11-17T11:11:22Z</time>
      </trkpt>
      <trkpt lat="28.5583520" lon="-17.8532030">
        <ele>1248.6</ele>
        <time>2020-11-17T11:11:23Z</time>
      </trkpt>
      <trkpt lat="28.5583100" lon="-17.8531570">
        <ele>1249.0</ele>
        <time>2020-11-17T11:11:24Z</time>
      </trkpt>
      <trkpt lat="28.5582850" lon="-17.8531330">
        <ele>1249.3</ele>
        <time>2020-11-17T11:11:25Z</time>
      </trkpt>
      <trkpt lat="28.5582850" lon="-17.8531330">
        <ele>1249.3</ele>
        <time>2020-11-17T11:11:26Z</time>
      </trkpt>
      <trkpt lat="28.5582400" lon="-17.8530900">
        <ele>1249.8</ele>
        <time>2020-11-17T11:11:27Z</time>
      </trkpt>
      <trkpt lat="28.5582220" lon="-17.8530680">
        <ele>1250.1</ele>
        <time>2020-11-17T11:11:28Z</time>
      </trkpt>
      <trkpt lat="28.5582220" lon="-17.8530680">
        <ele>1250.1</ele>
        <time>2020-11-17T11:11:29Z</time>
      </trkpt>
      <trkpt lat="28.5581850" lon="-17.8530300">
        <ele>1250.5</ele>
        <time>2020-11-17T11:11:30Z</time>
      </trkpt>
      <trkpt lat="28.5581850" lon="-17.8530300">
        <ele>1250.5</ele>
        <time>2020-11-17T11:11:31Z</time>
      </trkpt>
      <trkpt lat="28.5581270" lon="-17.8530030">
        <ele>1251.1</ele>
        <time>2020-11-17T11:11:32Z</time>
      </trkpt>
      <trkpt lat="28.5581000" lon="-17.8529930">
        <ele>1251.3</ele>
        <time>2020-11-17T11:11:33Z</time>
      </trkpt>
      <trkpt lat="28.5580750" lon="-17.8529820">
        <ele>1251.6</ele>
        <time>2020-11-17T11:11:34Z</time>
      </trkpt>
      <trkpt lat="28.5580750" lon="-17.8529820">
        <ele>1251.6</ele>
        <time>2020-11-17T11:11:35Z</time>
      </trkpt>
      <trkpt lat="28.5580220" lon="-17.8529770">
        <ele>1252.1</ele>
        <time>2020-11-17T11:11:36Z</time>
      </trkpt>
      <trkpt lat="28.5580220" lon="-17.8529770">
        <ele>1252.1</ele>
        <time>2020-11-17T11:11:37Z</time>
      </trkpt>
      <trkpt lat="28.5579670" lon="-17.8529720">
        <ele>1252.6</ele>
        <time>2020-11-17T11:11:38Z</time>
      </trkpt>
      <trkpt lat="28.5579380" lon="-17.8529730">
        <ele>1252.8</ele>
        <time>2020-11-17T11:11:39Z</time>
      </trkpt>
      <trkpt lat="28.5579380" lon="-17.8529730">
        <ele>1252.8</ele>
        <time>2020-11-17T11:11:40Z</time>
      </trkpt>
      <trkpt lat="28.5578820" lon="-17.8529750">
        <ele>1253.3</ele>
        <time>2020-11-17T11:11:41Z</time>
      </trkpt>
      <trkpt lat="28.5578820" lon="-17.8529750">
        <ele>1253.3</ele>
        <time>2020-11-17T11:11:42Z</time>
      </trkpt>
      <trkpt lat="28.5578200" lon="-17.8529680">
        <ele>1253.8</ele>
        <time>2020-11-17T11:11:43Z</time>
      </trkpt>
      <trkpt lat="28.5577870" lon="-17.8529570">
        <ele>1254.1</ele>
        <time>2020-11-17T11:11:44Z</time>
      </trkpt>
      <trkpt lat="28.5577320" lon="-17.8529480">
        <ele>1254.5</ele>
        <time>2020-11-17T11:11:45Z</time>
      </trkpt>
      <trkpt lat="28.5577320" lon="-17.8529480">
        <ele>1254.5</ele>
        <time>2020-11-17T11:11:46Z</time>
      </trkpt>
      <trkpt lat="28.5576180" lon="-17.8529320">
        <ele>1255.3</ele>
        <time>2020-11-17T11:11:47Z</time>
      </trkpt>
      <trkpt lat="28.5576180" lon="-17.8529320">
        <ele>1255.3</ele>
        <time>2020-11-17T11:11:48Z</time>
      </trkpt>
      <trkpt lat="28.5575380" lon="-17.8528750">
        <ele>1255.4</ele>
        <time>2020-11-17T11:11:49Z</time>
      </trkpt>
      <trkpt lat="28.5575080" lon="-17.8528430">
        <ele>1255.3</ele>
        <time>2020-11-17T11:11:50Z</time>
      </trkpt>
      <trkpt lat="28.5575080" lon="-17.8528430">
        <ele>1255.3</ele>
        <time>2020-11-17T11:11:51Z</time>
      </trkpt>
      <trkpt lat="28.5574600" lon="-17.8527800">
        <ele>1255.0</ele>
        <time>2020-11-17T11:11:52Z</time>
      </trkpt>
      <trkpt lat="28.5574600" lon="-17.8527800">
        <ele>1255.0</ele>
        <time>2020-11-17T11:11:53Z</time>
      </trkpt>
      <trkpt lat="28.5574030" lon="-17.8527320">
        <ele>1254.8</ele>
        <time>2020-11-17T11:11:54Z</time>
      </trkpt>
      <trkpt lat="28.5574030" lon="-17.8527320">
        <ele>1254.8</ele>
        <time>2020-11-17T11:11:55Z</time>
      </trkpt>
      <trkpt lat="28.5573180" lon="-17.8527220">
        <ele>1254.6</ele>
        <time>2020-11-17T11:11:56Z</time>
      </trkpt>
      <trkpt lat="28.5573180" lon="-17.8527220">
        <ele>1254.6</ele>
        <time>2020-11-17T11:11:57Z</time>
      </trkpt>
      <trkpt lat="28.5572450" lon="-17.8527520">
        <ele>1254.5</ele>
        <time>2020-11-17T11:11:58Z</time>
      </trkpt>
      <trkpt lat="28.5572450" lon="-17.8527520">
        <ele>1254.5</ele>
        <time>2020-11-17T11:11:59Z</time>
      </trkpt>
      <trkpt lat="28.5571670" lon="-17.8527780">
        <ele>1254.2</ele>
        <time>2020-11-17T11:12:00Z</time>
      </trkpt>
      <trkpt lat="28.5571670" lon="-17.8527780">
        <ele>1254.2</ele>
        <time>2020-11-17T11:12:01Z</time>
      </trkpt>
      <trkpt lat="28.5570950" lon="-17.8527920">
        <ele>1254.0</ele>
        <time>2020-11-17T11:12:02Z</time>
      </trkpt>
      <trkpt lat="28.5570620" lon="-17.8527850">
        <ele>1253.9</ele>
        <time>2020-11-17T11:12:03Z</time>
      </trkpt>
      <trkpt lat="28.5570620" lon="-17.8527850">
        <ele>1253.9</ele>
        <time>2020-11-17T11:12:04Z</time>
      </trkpt>
      <trkpt lat="28.5569920" lon="-17.8527520">
        <ele>1253.6</ele>
        <time>2020-11-17T11:12:05Z</time>
      </trkpt>
      <trkpt lat="28.5569550" lon="-17.8527350">
        <ele>1253.5</ele>
        <time>2020-11-17T11:12:06Z</time>
      </trkpt>
      <trkpt lat="28.5569550" lon="-17.8527350">
        <ele>1253.5</ele>
        <time>2020-11-17T11:12:07Z</time>
      </trkpt>
      <trkpt lat="28.5568870" lon="-17.8527020">
        <ele>1253.2</ele>
        <time>2020-11-17T11:12:08Z</time>
      </trkpt>
      <trkpt lat="28.5568870" lon="-17.8527020">
        <ele>1253.2</ele>
        <time>2020-11-17T11:12:09Z</time>
      </trkpt>
      <trkpt lat="28.5568100" lon="-17.8526630">
        <ele>1252.9</ele>
        <time>2020-11-17T11:12:10Z</time>
      </trkpt>
      <trkpt lat="28.5567720" lon="-17.8526400">
        <ele>1252.8</ele>
        <time>2020-11-17T11:12:11Z</time>
      </trkpt>
      <trkpt lat="28.5567720" lon="-17.8526400">
        <ele>1252.8</ele>
        <time>2020-11-17T11:12:12Z</time>
      </trkpt>
      <trkpt lat="28.5567120" lon="-17.8525830">
        <ele>1252.5</ele>
        <time>2020-11-17T11:12:13Z</time>
      </trkpt>
      <trkpt lat="28.5566930" lon="-17.8525500">
        <ele>1252.4</ele>
        <time>2020-11-17T11:12:14Z</time>
      </trkpt>
      <trkpt lat="28.5566930" lon="-17.8525500">
        <ele>1252.4</ele>
        <time>2020-11-17T11:12:15Z</time>
      </trkpt>
      <trkpt lat="28.5566480" lon="-17.8524850">
        <ele>1252.1</ele>
        <time>2020-11-17T11:12:16Z</time>
      </trkpt>
      <trkpt lat="28.5566480" lon="-17.8524850">
        <ele>1252.1</ele>
        <time>2020-11-17T11:12:17Z</time>
      </trkpt>
      <trkpt lat="28.5565920" lon="-17.8524570">
        <ele>1251.9</ele>
        <time>2020-11-17T11:12:18Z</time>
      </trkpt>
      <trkpt lat="28.5565920" lon="-17.8524570">
        <ele>1251.9</ele>
        <time>2020-11-17T11:12:19Z</time>
      </trkpt>
      <trkpt lat="28.5565180" lon="-17.8524770">
        <ele>1251.6</ele>
        <time>2020-11-17T11:12:20Z</time>
      </trkpt>
      <trkpt lat="28.5565180" lon="-17.8524770">
        <ele>1251.6</ele>
        <time>2020-11-17T11:12:21Z</time>
      </trkpt>
      <trkpt lat="28.5564520" lon="-17.8525150">
        <ele>1251.2</ele>
        <time>2020-11-17T11:12:22Z</time>
      </trkpt>
      <trkpt lat="28.5564520" lon="-17.8525150">
        <ele>1251.2</ele>
        <time>2020-11-17T11:12:23Z</time>
      </trkpt>
      <trkpt lat="28.5563800" lon="-17.8525580">
        <ele>1250.8</ele>
        <time>2020-11-17T11:12:24Z</time>
      </trkpt>
      <trkpt lat="28.5563800" lon="-17.8525580">
        <ele>1250.8</ele>
        <time>2020-11-17T11:12:25Z</time>
      </trkpt>
      <trkpt lat="28.5563000" lon="-17.8525930">
        <ele>1250.5</ele>
        <time>2020-11-17T11:12:26Z</time>
      </trkpt>
      <trkpt lat="28.5563000" lon="-17.8525930">
        <ele>1250.5</ele>
        <time>2020-11-17T11:12:27Z</time>
      </trkpt>
      <trkpt lat="28.5562200" lon="-17.8526280">
        <ele>1250.1</ele>
        <time>2020-11-17T11:12:28Z</time>
      </trkpt>
      <trkpt lat="28.5561830" lon="-17.8526480">
        <ele>1249.9</ele>
        <time>2020-11-17T11:12:29Z</time>
      </trkpt>
      <trkpt lat="28.5561830" lon="-17.8526480">
        <ele>1249.9</ele>
        <time>2020-11-17T11:12:30Z</time>
      </trkpt>
      <trkpt lat="28.5560970" lon="-17.8526820">
        <ele>1249.5</ele>
        <time>2020-11-17T11:12:31Z</time>
      </trkpt>
      <trkpt lat="28.5560970" lon="-17.8526820">
        <ele>1249.5</ele>
        <time>2020-11-17T11:12:32Z</time>
      </trkpt>
      <trkpt lat="28.5560130" lon="-17.8526780">
        <ele>1249.2</ele>
        <time>2020-11-17T11:12:33Z</time>
      </trkpt>
      <trkpt lat="28.5559820" lon="-17.8526550">
        <ele>1249.0</ele>
        <time>2020-11-17T11:12:34Z</time>
      </trkpt>
      <trkpt lat="28.5559820" lon="-17.8526550">
        <ele>1249.0</ele>
        <time>2020-11-17T11:12:35Z</time>
      </trkpt>
      <trkpt lat="28.5559630" lon="-17.8525870">
        <ele>1248.8</ele>
        <time>2020-11-17T11:12:36Z</time>
      </trkpt>
      <trkpt lat="28.5559630" lon="-17.8525870">
        <ele>1248.8</ele>
        <time>2020-11-17T11:12:37Z</time>
      </trkpt>
      <trkpt lat="28.5559830" lon="-17.8525080">
        <ele>1248.5</ele>
        <time>2020-11-17T11:12:38Z</time>
      </trkpt>
      <trkpt lat="28.5559930" lon="-17.8524700">
        <ele>1248.4</ele>
        <time>2020-11-17T11:12:39Z</time>
      </trkpt>
      <trkpt lat="28.5559930" lon="-17.8524700">
        <ele>1248.4</ele>
        <time>2020-11-17T11:12:40Z</time>
      </trkpt>
      <trkpt lat="28.5560070" lon="-17.8523880">
        <ele>1248.1</ele>
        <time>2020-11-17T11:12:41Z</time>
      </trkpt>
      <trkpt lat="28.5560020" lon="-17.8523470">
        <ele>1248.0</ele>
        <time>2020-11-17T11:12:42Z</time>
      </trkpt>
      <trkpt lat="28.5560020" lon="-17.8523470">
        <ele>1248.0</ele>
        <time>2020-11-17T11:12:43Z</time>
      </trkpt>
      <trkpt lat="28.5559730" lon="-17.8522700">
        <ele>1247.8</ele>
        <time>2020-11-17T11:12:44Z</time>
      </trkpt>
      <trkpt lat="28.5559480" lon="-17.8522470">
        <ele>1247.8</ele>
        <time>2020-11-17T11:12:45Z</time>
      </trkpt>
      <trkpt lat="28.5559480" lon="-17.8522470">
        <ele>1247.8</ele>
        <time>2020-11-17T11:12:46Z</time>
      </trkpt>
      <trkpt lat="28.5558780" lon="-17.8522280">
        <ele>1247.5</ele>
        <time>2020-11-17T11:12:47Z</time>
      </trkpt>
      <trkpt lat="28.5558400" lon="-17.8522280">
        <ele>1247.3</ele>
        <time>2020-11-17T11:12:48Z</time>
      </trkpt>
      <trkpt lat="28.5557980" lon="-17.8522280">
        <ele>1247.1</ele>
        <time>2020-11-17T11:12:49Z</time>
      </trkpt>
      <trkpt lat="28.5557980" lon="-17.8522280">
        <ele>1247.1</ele>
        <time>2020-11-17T11:12:50Z</time>
      </trkpt>
      <trkpt lat="28.5557130" lon="-17.8522000">
        <ele>1246.7</ele>
        <time>2020-11-17T11:12:51Z</time>
      </trkpt>
      <trkpt lat="28.5557130" lon="-17.8522000">
        <ele>1246.7</ele>
        <time>2020-11-17T11:12:52Z</time>
      </trkpt>
      <trkpt lat="28.5556350" lon="-17.8521530">
        <ele>1246.3</ele>
        <time>2020-11-17T11:12:53Z</time>
      </trkpt>
      <trkpt lat="28.5555980" lon="-17.8521280">
        <ele>1246.1</ele>
        <time>2020-11-17T11:12:54Z</time>
      </trkpt>
      <trkpt lat="28.5555980" lon="-17.8521280">
        <ele>1246.1</ele>
        <time>2020-11-17T11:12:55Z</time>
      </trkpt>
      <trkpt lat="28.5555270" lon="-17.8520770">
        <ele>1245.7</ele>
        <time>2020-11-17T11:12:56Z</time>
      </trkpt>
      <trkpt lat="28.5555270" lon="-17.8520770">
        <ele>1245.7</ele>
        <time>2020-11-17T11:12:57Z</time>
      </trkpt>
      <trkpt lat="28.5554470" lon="-17.8520370">
        <ele>1245.3</ele>
        <time>2020-11-17T11:12:58Z</time>
      </trkpt>
      <trkpt lat="28.5554470" lon="-17.8520370">
        <ele>1245.3</ele>
        <time>2020-11-17T11:12:59Z</time>
      </trkpt>
      <trkpt lat="28.5553630" lon="-17.8520030">
        <ele>1245.0</ele>
        <time>2020-11-17T11:13:00Z</time>
      </trkpt>
      <trkpt lat="28.5553630" lon="-17.8520030">
        <ele>1245.0</ele>
        <time>2020-11-17T11:13:01Z</time>
      </trkpt>
      <trkpt lat="28.5552770" lon="-17.8519800">
        <ele>1244.7</ele>
        <time>2020-11-17T11:13:02Z</time>
      </trkpt>
      <trkpt lat="28.5552770" lon="-17.8519800">
        <ele>1244.7</ele>
        <time>2020-11-17T11:13:03Z</time>
      </trkpt>
      <trkpt lat="28.5551920" lon="-17.8519470">
        <ele>1244.3</ele>
        <time>2020-11-17T11:13:04Z</time>
      </trkpt>
      <trkpt lat="28.5551920" lon="-17.8519470">
        <ele>1244.3</ele>
        <time>2020-11-17T11:13:05Z</time>
      </trkpt>
      <trkpt lat="28.5551070" lon="-17.8519080">
        <ele>1244.0</ele>
        <time>2020-11-17T11:13:06Z</time>
      </trkpt>
      <trkpt lat="28.5551070" lon="-17.8519080">
        <ele>1244.0</ele>
        <time>2020-11-17T11:13:07Z</time>
      </trkpt>
      <trkpt lat="28.5550270" lon="-17.8518870">
        <ele>1243.7</ele>
        <time>2020-11-17T11:13:08Z</time>
      </trkpt>
      <trkpt lat="28.5549830" lon="-17.8518730">
        <ele>1243.5</ele>
        <time>2020-11-17T11:13:09Z</time>
      </trkpt>
      <trkpt lat="28.5549420" lon="-17.8518580">
        <ele>1243.3</ele>
        <time>2020-11-17T11:13:10Z</time>
      </trkpt>
      <trkpt lat="28.5549420" lon="-17.8518580">
        <ele>1243.3</ele>
        <time>2020-11-17T11:13:11Z</time>
      </trkpt>
      <trkpt lat="28.5548570" lon="-17.8518400">
        <ele>1242.9</ele>
        <time>2020-11-17T11:13:12Z</time>
      </trkpt>
      <trkpt lat="28.5548570" lon="-17.8518400">
        <ele>1242.9</ele>
        <time>2020-11-17T11:13:13Z</time>
      </trkpt>
      <trkpt lat="28.5547670" lon="-17.8518500">
        <ele>1242.4</ele>
        <time>2020-11-17T11:13:14Z</time>
      </trkpt>
      <trkpt lat="28.5547180" lon="-17.8518600">
        <ele>1242.2</ele>
        <time>2020-11-17T11:13:15Z</time>
      </trkpt>
      <trkpt lat="28.5547180" lon="-17.8518600">
        <ele>1242.2</ele>
        <time>2020-11-17T11:13:16Z</time>
      </trkpt>
      <trkpt lat="28.5546180" lon="-17.8518720">
        <ele>1241.7</ele>
        <time>2020-11-17T11:13:17Z</time>
      </trkpt>
      <trkpt lat="28.5546180" lon="-17.8518720">
        <ele>1241.7</ele>
        <time>2020-11-17T11:13:18Z</time>
      </trkpt>
      <trkpt lat="28.5545130" lon="-17.8518530">
        <ele>1241.2</ele>
        <time>2020-11-17T11:13:19Z</time>
      </trkpt>
      <trkpt lat="28.5545130" lon="-17.8518530">
        <ele>1241.2</ele>
        <time>2020-11-17T11:13:20Z</time>
      </trkpt>
      <trkpt lat="28.5544180" lon="-17.8518350">
        <ele>1240.9</ele>
        <time>2020-11-17T11:13:21Z</time>
      </trkpt>
      <trkpt lat="28.5543680" lon="-17.8518280">
        <ele>1240.7</ele>
        <time>2020-11-17T11:13:22Z</time>
      </trkpt>
      <trkpt lat="28.5543180" lon="-17.8518270">
        <ele>1240.6</ele>
        <time>2020-11-17T11:13:23Z</time>
      </trkpt>
      <trkpt lat="28.5543180" lon="-17.8518270">
        <ele>1240.6</ele>
        <time>2020-11-17T11:13:24Z</time>
      </trkpt>
      <trkpt lat="28.5542220" lon="-17.8518250">
        <ele>1240.3</ele>
        <time>2020-11-17T11:13:25Z</time>
      </trkpt>
      <trkpt lat="28.5541730" lon="-17.8518200">
        <ele>1240.2</ele>
        <time>2020-11-17T11:13:26Z</time>
      </trkpt>
      <trkpt lat="28.5541730" lon="-17.8518200">
        <ele>1240.2</ele>
        <time>2020-11-17T11:13:27Z</time>
      </trkpt>
      <trkpt lat="28.5540780" lon="-17.8518120">
        <ele>1240.0</ele>
        <time>2020-11-17T11:13:28Z</time>
      </trkpt>
      <trkpt lat="28.5540780" lon="-17.8518120">
        <ele>1240.0</ele>
        <time>2020-11-17T11:13:29Z</time>
      </trkpt>
      <trkpt lat="28.5539980" lon="-17.8518050">
        <ele>1239.8</ele>
        <time>2020-11-17T11:13:30Z</time>
      </trkpt>
      <trkpt lat="28.5539980" lon="-17.8518050">
        <ele>1239.8</ele>
        <time>2020-11-17T11:13:31Z</time>
      </trkpt>
      <trkpt lat="28.5539250" lon="-17.8518000">
        <ele>1239.7</ele>
        <time>2020-11-17T11:13:32Z</time>
      </trkpt>
      <trkpt lat="28.5538880" lon="-17.8517950">
        <ele>1239.7</ele>
        <time>2020-11-17T11:13:33Z</time>
      </trkpt>
      <trkpt lat="28.5538880" lon="-17.8517950">
        <ele>1239.7</ele>
        <time>2020-11-17T11:13:34Z</time>
      </trkpt>
      <trkpt lat="28.5538170" lon="-17.8517730">
        <ele>1239.6</ele>
        <time>2020-11-17T11:13:35Z</time>
      </trkpt>
      <trkpt lat="28.5538170" lon="-17.8517730">
        <ele>1239.6</ele>
        <time>2020-11-17T11:13:36Z</time>
      </trkpt>
      <trkpt lat="28.5537450" lon="-17.8517480">
        <ele>1239.5</ele>
        <time>2020-11-17T11:13:37Z</time>
      </trkpt>
      <trkpt lat="28.5537450" lon="-17.8517480">
        <ele>1239.5</ele>
        <time>2020-11-17T11:13:38Z</time>
      </trkpt>
      <trkpt lat="28.5536900" lon="-17.8517470">
        <ele>1239.4</ele>
        <time>2020-11-17T11:13:39Z</time>
      </trkpt>
      <trkpt lat="28.5536670" lon="-17.8517530">
        <ele>1239.3</ele>
        <time>2020-11-17T11:13:40Z</time>
      </trkpt>
      <trkpt lat="28.5536670" lon="-17.8517530">
        <ele>1239.3</ele>
        <time>2020-11-17T11:13:41Z</time>
      </trkpt>
      <trkpt lat="28.5536180" lon="-17.8517600">
        <ele>1239.3</ele>
        <time>2020-11-17T11:13:42Z</time>
      </trkpt>
      <trkpt lat="28.5536180" lon="-17.8517600">
        <ele>1239.3</ele>
        <time>2020-11-17T11:13:43Z</time>
      </trkpt>
      <trkpt lat="28.5535650" lon="-17.8517680">
        <ele>1239.1</ele>
        <time>2020-11-17T11:13:44Z</time>
      </trkpt>
      <trkpt lat="28.5535650" lon="-17.8517680">
        <ele>1239.1</ele>
        <time>2020-11-17T11:13:45Z</time>
      </trkpt>
      <trkpt lat="28.5535120" lon="-17.8517670">
        <ele>1239.0</ele>
        <time>2020-11-17T11:13:46Z</time>
      </trkpt>
      <trkpt lat="28.5535120" lon="-17.8517670">
        <ele>1239.0</ele>
        <time>2020-11-17T11:13:47Z</time>
      </trkpt>
      <trkpt lat="28.5534550" lon="-17.8517580">
        <ele>1238.9</ele>
        <time>2020-11-17T11:13:48Z</time>
      </trkpt>
      <trkpt lat="28.5534550" lon="-17.8517580">
        <ele>1238.9</ele>
        <time>2020-11-17T11:13:49Z</time>
      </trkpt>
      <trkpt lat="28.5533980" lon="-17.8517470">
        <ele>1238.7</ele>
        <time>2020-11-17T11:13:50Z</time>
      </trkpt>
      <trkpt lat="28.5533980" lon="-17.8517470">
        <ele>1238.7</ele>
        <time>2020-11-17T11:13:51Z</time>
      </trkpt>
      <trkpt lat="28.5533350" lon="-17.8517430">
        <ele>1238.5</ele>
        <time>2020-11-17T11:13:52Z</time>
      </trkpt>
      <trkpt lat="28.5532980" lon="-17.8517520">
        <ele>1238.3</ele>
        <time>2020-11-17T11:13:53Z</time>
      </trkpt>
      <trkpt lat="28.5532980" lon="-17.8517520">
        <ele>1238.3</ele>
        <time>2020-11-17T11:13:54Z</time>
      </trkpt>
      <trkpt lat="28.5532300" lon="-17.8517720">
        <ele>1238.1</ele>
        <time>2020-11-17T11:13:55Z</time>
      </trkpt>
      <trkpt lat="28.5532300" lon="-17.8517720">
        <ele>1238.1</ele>
        <time>2020-11-17T11:13:56Z</time>
      </trkpt>
      <trkpt lat="28.5531630" lon="-17.8517980">
        <ele>1237.7</ele>
        <time>2020-11-17T11:13:57Z</time>
      </trkpt>
      <trkpt lat="28.5531300" lon="-17.8518180">
        <ele>1237.5</ele>
        <time>2020-11-17T11:13:58Z</time>
      </trkpt>
      <trkpt lat="28.5531300" lon="-17.8518180">
        <ele>1237.5</ele>
        <time>2020-11-17T11:13:59Z</time>
      </trkpt>
      <trkpt lat="28.5530650" lon="-17.8518650">
        <ele>1237.1</ele>
        <time>2020-11-17T11:14:00Z</time>
      </trkpt>
      <trkpt lat="28.5530650" lon="-17.8518650">
        <ele>1237.1</ele>
        <time>2020-11-17T11:14:01Z</time>
      </trkpt>
      <trkpt lat="28.5530070" lon="-17.8519250">
        <ele>1236.7</ele>
        <time>2020-11-17T11:14:02Z</time>
      </trkpt>
      <trkpt lat="28.5530070" lon="-17.8519250">
        <ele>1236.7</ele>
        <time>2020-11-17T11:14:03Z</time>
      </trkpt>
      <trkpt lat="28.5529620" lon="-17.8519750">
        <ele>1236.3</ele>
        <time>2020-11-17T11:14:04Z</time>
      </trkpt>
      <trkpt lat="28.5529620" lon="-17.8519750">
        <ele>1236.3</ele>
        <time>2020-11-17T11:14:05Z</time>
      </trkpt>
      <trkpt lat="28.5529350" lon="-17.8520080">
        <ele>1236.0</ele>
        <time>2020-11-17T11:14:06Z</time>
      </trkpt>
      <trkpt lat="28.5529350" lon="-17.8520080">
        <ele>1236.0</ele>
        <time>2020-11-17T11:14:07Z</time>
      </trkpt>
      <trkpt lat="28.5529350" lon="-17.8520130">
        <ele>1236.0</ele>
        <time>2020-11-17T11:14:08Z</time>
      </trkpt>
      <trkpt lat="28.5529350" lon="-17.8520130">
        <ele>1236.0</ele>
        <time>2020-11-17T11:14:09Z</time>
      </trkpt>
      <trkpt lat="28.5529120" lon="-17.8520170">
        <ele>1235.8</ele>
        <time>2020-11-17T11:14:27Z</time>
      </trkpt>
      <trkpt lat="28.5529120" lon="-17.8520170">
        <ele>1235.8</ele>
        <time>2020-11-17T11:14:28Z</time>
      </trkpt>
      <trkpt lat="28.5528670" lon="-17.8520320">
        <ele>1235.5</ele>
        <time>2020-11-17T11:14:29Z</time>
      </trkpt>
      <trkpt lat="28.5528400" lon="-17.8520430">
        <ele>1235.3</ele>
        <time>2020-11-17T11:14:30Z</time>
      </trkpt>
      <trkpt lat="28.5528400" lon="-17.8520430">
        <ele>1235.3</ele>
        <time>2020-11-17T11:14:31Z</time>
      </trkpt>
      <trkpt lat="28.5527830" lon="-17.8520750">
        <ele>1234.9</ele>
        <time>2020-11-17T11:14:32Z</time>
      </trkpt>
      <trkpt lat="28.5527830" lon="-17.8520750">
        <ele>1234.9</ele>
        <time>2020-11-17T11:14:33Z</time>
      </trkpt>
      <trkpt lat="28.5527170" lon="-17.8521120">
        <ele>1235.3</ele>
        <time>2020-11-17T11:14:34Z</time>
      </trkpt>
      <trkpt lat="28.5526780" lon="-17.8521280">
        <ele>1235.6</ele>
        <time>2020-11-17T11:14:35Z</time>
      </trkpt>
      <trkpt lat="28.5526780" lon="-17.8521280">
        <ele>1235.6</ele>
        <time>2020-11-17T11:14:36Z</time>
      </trkpt>
      <trkpt lat="28.5525930" lon="-17.8521520">
        <ele>1236.3</ele>
        <time>2020-11-17T11:14:37Z</time>
      </trkpt>
      <trkpt lat="28.5525930" lon="-17.8521520">
        <ele>1236.3</ele>
        <time>2020-11-17T11:14:38Z</time>
      </trkpt>
      <trkpt lat="28.5525020" lon="-17.8521600">
        <ele>1237.1</ele>
        <time>2020-11-17T11:14:39Z</time>
      </trkpt>
      <trkpt lat="28.5524580" lon="-17.8521520">
        <ele>1237.5</ele>
        <time>2020-11-17T11:14:40Z</time>
      </trkpt>
      <trkpt lat="28.5524580" lon="-17.8521520">
        <ele>1237.5</ele>
        <time>2020-11-17T11:14:41Z</time>
      </trkpt>
      <trkpt lat="28.5523880" lon="-17.8521130">
        <ele>1238.2</ele>
        <time>2020-11-17T11:14:42Z</time>
      </trkpt>
      <trkpt lat="28.5523880" lon="-17.8521130">
        <ele>1238.2</ele>
        <time>2020-11-17T11:14:43Z</time>
      </trkpt>
      <trkpt lat="28.5523400" lon="-17.8520650">
        <ele>1238.8</ele>
        <time>2020-11-17T11:14:44Z</time>
      </trkpt>
      <trkpt lat="28.5523180" lon="-17.8520400">
        <ele>1239.1</ele>
        <time>2020-11-17T11:14:45Z</time>
      </trkpt>
      <trkpt lat="28.5522920" lon="-17.8520200">
        <ele>1239.4</ele>
        <time>2020-11-17T11:14:46Z</time>
      </trkpt>
      <trkpt lat="28.5522920" lon="-17.8520200">
        <ele>1239.4</ele>
        <time>2020-11-17T11:14:47Z</time>
      </trkpt>
      <trkpt lat="28.5522320" lon="-17.8519920">
        <ele>1240.0</ele>
        <time>2020-11-17T11:14:48Z</time>
      </trkpt>
      <trkpt lat="28.5522320" lon="-17.8519920">
        <ele>1240.0</ele>
        <time>2020-11-17T11:14:49Z</time>
      </trkpt>
      <trkpt lat="28.5521630" lon="-17.8519850">
        <ele>1240.6</ele>
        <time>2020-11-17T11:14:50Z</time>
      </trkpt>
      <trkpt lat="28.5521280" lon="-17.8519870">
        <ele>1240.9</ele>
        <time>2020-11-17T11:14:51Z</time>
      </trkpt>
      <trkpt lat="28.5521280" lon="-17.8519870">
        <ele>1240.9</ele>
        <time>2020-11-17T11:14:52Z</time>
      </trkpt>
      <trkpt lat="28.5520580" lon="-17.8519920">
        <ele>1241.5</ele>
        <time>2020-11-17T11:14:53Z</time>
      </trkpt>
      <trkpt lat="28.5520580" lon="-17.8519920">
        <ele>1241.5</ele>
        <time>2020-11-17T11:14:54Z</time>
      </trkpt>
      <trkpt lat="28.5519830" lon="-17.8519920">
        <ele>1242.2</ele>
        <time>2020-11-17T11:14:55Z</time>
      </trkpt>
      <trkpt lat="28.5519830" lon="-17.8519920">
        <ele>1242.2</ele>
        <time>2020-11-17T11:14:56Z</time>
      </trkpt>
      <trkpt lat="28.5519150" lon="-17.8519830">
        <ele>1242.9</ele>
        <time>2020-11-17T11:14:57Z</time>
      </trkpt>
      <trkpt lat="28.5519150" lon="-17.8519830">
        <ele>1242.9</ele>
        <time>2020-11-17T11:14:58Z</time>
      </trkpt>
      <trkpt lat="28.5518400" lon="-17.8519750">
        <ele>1243.7</ele>
        <time>2020-11-17T11:14:59Z</time>
      </trkpt>
      <trkpt lat="28.5518400" lon="-17.8519750">
        <ele>1243.7</ele>
        <time>2020-11-17T11:15:00Z</time>
      </trkpt>
      <trkpt lat="28.5517630" lon="-17.8519670">
        <ele>1244.6</ele>
        <time>2020-11-17T11:15:01Z</time>
      </trkpt>
      <trkpt lat="28.5517280" lon="-17.8519550">
        <ele>1245.0</ele>
        <time>2020-11-17T11:15:02Z</time>
      </trkpt>
      <trkpt lat="28.5517280" lon="-17.8519550">
        <ele>1245.0</ele>
        <time>2020-11-17T11:15:03Z</time>
      </trkpt>
      <trkpt lat="28.5516750" lon="-17.8519480">
        <ele>1245.6</ele>
        <time>2020-11-17T11:15:04Z</time>
      </trkpt>
      <trkpt lat="28.5516750" lon="-17.8519480">
        <ele>1245.6</ele>
        <time>2020-11-17T11:15:05Z</time>
      </trkpt>
      <trkpt lat="28.5516400" lon="-17.8519580">
        <ele>1246.0</ele>
        <time>2020-11-17T11:15:06Z</time>
      </trkpt>
      <trkpt lat="28.5516400" lon="-17.8519580">
        <ele>1246.0</ele>
        <time>2020-11-17T11:15:07Z</time>
      </trkpt>
      <trkpt lat="28.5516380" lon="-17.8519620">
        <ele>1246.0</ele>
        <time>2020-11-17T11:15:08Z</time>
      </trkpt>
      <trkpt lat="28.5516380" lon="-17.8519620">
        <ele>1246.0</ele>
        <time>2020-11-17T11:15:09Z</time>
      </trkpt>
      <trkpt lat="28.5516400" lon="-17.8519620">
        <ele>1246.0</ele>
        <time>2020-11-17T11:15:10Z</time>
      </trkpt>
      <trkpt lat="28.5516030" lon="-17.8519920">
        <ele>1246.5</ele>
        <time>2020-11-17T11:15:26Z</time>
      </trkpt>
      <trkpt lat="28.5515850" lon="-17.8520000">
        <ele>1246.7</ele>
        <time>2020-11-17T11:15:27Z</time>
      </trkpt>
      <trkpt lat="28.5515850" lon="-17.8520000">
        <ele>1246.7</ele>
        <time>2020-11-17T11:15:28Z</time>
      </trkpt>
      <trkpt lat="28.5515430" lon="-17.8520250">
        <ele>1247.2</ele>
        <time>2020-11-17T11:15:29Z</time>
      </trkpt>
      <trkpt lat="28.5515230" lon="-17.8520380">
        <ele>1247.4</ele>
        <time>2020-11-17T11:15:30Z</time>
      </trkpt>
      <trkpt lat="28.5515230" lon="-17.8520380">
        <ele>1247.4</ele>
        <time>2020-11-17T11:15:31Z</time>
      </trkpt>
      <trkpt lat="28.5514730" lon="-17.8520620">
        <ele>1248.0</ele>
        <time>2020-11-17T11:15:32Z</time>
      </trkpt>
      <trkpt lat="28.5514480" lon="-17.8520720">
        <ele>1248.2</ele>
        <time>2020-11-17T11:15:33Z</time>
      </trkpt>
      <trkpt lat="28.5514220" lon="-17.8520770">
        <ele>1248.5</ele>
        <time>2020-11-17T11:15:34Z</time>
      </trkpt>
      <trkpt lat="28.5514220" lon="-17.8520770">
        <ele>1248.5</ele>
        <time>2020-11-17T11:15:35Z</time>
      </trkpt>
      <trkpt lat="28.5513580" lon="-17.8520850">
        <ele>1249.1</ele>
        <time>2020-11-17T11:15:36Z</time>
      </trkpt>
      <trkpt lat="28.5513580" lon="-17.8520850">
        <ele>1249.1</ele>
        <time>2020-11-17T11:15:37Z</time>
      </trkpt>
      <trkpt lat="28.5512850" lon="-17.8520870">
        <ele>1249.5</ele>
        <time>2020-11-17T11:15:38Z</time>
      </trkpt>
      <trkpt lat="28.5512850" lon="-17.8520870">
        <ele>1249.5</ele>
        <time>2020-11-17T11:15:39Z</time>
      </trkpt>
      <trkpt lat="28.5512070" lon="-17.8520830">
        <ele>1249.4</ele>
        <time>2020-11-17T11:15:40Z</time>
      </trkpt>
      <trkpt lat="28.5511630" lon="-17.8520780">
        <ele>1249.3</ele>
        <time>2020-11-17T11:15:41Z</time>
      </trkpt>
      <trkpt lat="28.5511630" lon="-17.8520780">
        <ele>1249.3</ele>
        <time>2020-11-17T11:15:42Z</time>
      </trkpt>
      <trkpt lat="28.5510930" lon="-17.8520570">
        <ele>1249.3</ele>
        <time>2020-11-17T11:15:43Z</time>
      </trkpt>
      <trkpt lat="28.5510930" lon="-17.8520570">
        <ele>1249.3</ele>
        <time>2020-11-17T11:15:44Z</time>
      </trkpt>
      <trkpt lat="28.5510180" lon="-17.8520420">
        <ele>1249.2</ele>
        <time>2020-11-17T11:15:45Z</time>
      </trkpt>
      <trkpt lat="28.5510180" lon="-17.8520420">
        <ele>1249.2</ele>
        <time>2020-11-17T11:15:46Z</time>
      </trkpt>
      <trkpt lat="28.5509470" lon="-17.8520380">
        <ele>1249.0</ele>
        <time>2020-11-17T11:15:47Z</time>
      </trkpt>
      <trkpt lat="28.5509470" lon="-17.8520380">
        <ele>1249.0</ele>
        <time>2020-11-17T11:15:48Z</time>
      </trkpt>
      <trkpt lat="28.5508800" lon="-17.8520420">
        <ele>1248.9</ele>
        <time>2020-11-17T11:15:49Z</time>
      </trkpt>
      <trkpt lat="28.5508800" lon="-17.8520420">
        <ele>1248.9</ele>
        <time>2020-11-17T11:15:50Z</time>
      </trkpt>
      <trkpt lat="28.5508020" lon="-17.8520500">
        <ele>1248.7</ele>
        <time>2020-11-17T11:15:51Z</time>
      </trkpt>
      <trkpt lat="28.5508020" lon="-17.8520500">
        <ele>1248.7</ele>
        <time>2020-11-17T11:15:52Z</time>
      </trkpt>
      <trkpt lat="28.5507230" lon="-17.8520620">
        <ele>1248.4</ele>
        <time>2020-11-17T11:15:53Z</time>
      </trkpt>
      <trkpt lat="28.5506800" lon="-17.8520680">
        <ele>1248.3</ele>
        <time>2020-11-17T11:15:54Z</time>
      </trkpt>
      <trkpt lat="28.5506800" lon="-17.8520680">
        <ele>1248.3</ele>
        <time>2020-11-17T11:15:55Z</time>
      </trkpt>
      <trkpt lat="28.5505820" lon="-17.8520720">
        <ele>1248.0</ele>
        <time>2020-11-17T11:15:56Z</time>
      </trkpt>
      <trkpt lat="28.5505270" lon="-17.8520720">
        <ele>1247.9</ele>
        <time>2020-11-17T11:15:57Z</time>
      </trkpt>
      <trkpt lat="28.5505270" lon="-17.8520720">
        <ele>1247.9</ele>
        <time>2020-11-17T11:15:58Z</time>
      </trkpt>
      <trkpt lat="28.5504230" lon="-17.8520730">
        <ele>1247.6</ele>
        <time>2020-11-17T11:15:59Z</time>
      </trkpt>
      <trkpt lat="28.5504230" lon="-17.8520730">
        <ele>1247.6</ele>
        <time>2020-11-17T11:16:00Z</time>
      </trkpt>
      <trkpt lat="28.5503330" lon="-17.8520830">
        <ele>1247.4</ele>
        <time>2020-11-17T11:16:01Z</time>
      </trkpt>
      <trkpt lat="28.5503330" lon="-17.8520830">
        <ele>1247.4</ele>
        <time>2020-11-17T11:16:02Z</time>
      </trkpt>
      <trkpt lat="28.5502600" lon="-17.8521130">
        <ele>1247.2</ele>
        <time>2020-11-17T11:16:03Z</time>
      </trkpt>
      <trkpt lat="28.5502600" lon="-17.8521130">
        <ele>1247.2</ele>
        <time>2020-11-17T11:16:04Z</time>
      </trkpt>
      <trkpt lat="28.5501870" lon="-17.8521680">
        <ele>1246.9</ele>
        <time>2020-11-17T11:16:05Z</time>
      </trkpt>
      <trkpt lat="28.5501500" lon="-17.8522020">
        <ele>1246.8</ele>
        <time>2020-11-17T11:16:06Z</time>
      </trkpt>
      <trkpt lat="28.5501500" lon="-17.8522020">
        <ele>1246.8</ele>
        <time>2020-11-17T11:16:07Z</time>
      </trkpt>
      <trkpt lat="28.5500670" lon="-17.8522670">
        <ele>1246.6</ele>
        <time>2020-11-17T11:16:08Z</time>
      </trkpt>
      <trkpt lat="28.5500670" lon="-17.8522670">
        <ele>1246.6</ele>
        <time>2020-11-17T11:16:09Z</time>
      </trkpt>
      <trkpt lat="28.5499720" lon="-17.8523220">
        <ele>1246.3</ele>
        <time>2020-11-17T11:16:10Z</time>
      </trkpt>
      <trkpt lat="28.5499720" lon="-17.8523220">
        <ele>1246.3</ele>
        <time>2020-11-17T11:16:11Z</time>
      </trkpt>
      <trkpt lat="28.5498820" lon="-17.8523630">
        <ele>1246.1</ele>
        <time>2020-11-17T11:16:12Z</time>
      </trkpt>
      <trkpt lat="28.5498820" lon="-17.8523630">
        <ele>1246.1</ele>
        <time>2020-11-17T11:16:13Z</time>
      </trkpt>
      <trkpt lat="28.5497930" lon="-17.8524000">
        <ele>1245.9</ele>
        <time>2020-11-17T11:16:14Z</time>
      </trkpt>
      <trkpt lat="28.5497930" lon="-17.8524000">
        <ele>1245.9</ele>
        <time>2020-11-17T11:16:15Z</time>
      </trkpt>
      <trkpt lat="28.5497050" lon="-17.8524570">
        <ele>1245.7</ele>
        <time>2020-11-17T11:16:16Z</time>
      </trkpt>
      <trkpt lat="28.5497050" lon="-17.8524570">
        <ele>1245.7</ele>
        <time>2020-11-17T11:16:17Z</time>
      </trkpt>
      <trkpt lat="28.5496230" lon="-17.8525370">
        <ele>1245.6</ele>
        <time>2020-11-17T11:16:18Z</time>
      </trkpt>
      <trkpt lat="28.5496230" lon="-17.8525370">
        <ele>1245.6</ele>
        <time>2020-11-17T11:16:19Z</time>
      </trkpt>
      <trkpt lat="28.5495450" lon="-17.8526130">
        <ele>1245.5</ele>
        <time>2020-11-17T11:16:20Z</time>
      </trkpt>
      <trkpt lat="28.5495450" lon="-17.8526130">
        <ele>1245.5</ele>
        <time>2020-11-17T11:16:21Z</time>
      </trkpt>
      <trkpt lat="28.5494600" lon="-17.8526820">
        <ele>1245.4</ele>
        <time>2020-11-17T11:16:22Z</time>
      </trkpt>
      <trkpt lat="28.5494600" lon="-17.8526820">
        <ele>1245.4</ele>
        <time>2020-11-17T11:16:23Z</time>
      </trkpt>
      <trkpt lat="28.5493730" lon="-17.8527380">
        <ele>1245.3</ele>
        <time>2020-11-17T11:16:24Z</time>
      </trkpt>
      <trkpt lat="28.5493730" lon="-17.8527380">
        <ele>1245.3</ele>
        <time>2020-11-17T11:16:25Z</time>
      </trkpt>
      <trkpt lat="28.5492780" lon="-17.8527670">
        <ele>1245.1</ele>
        <time>2020-11-17T11:16:26Z</time>
      </trkpt>
      <trkpt lat="28.5492320" lon="-17.8527670">
        <ele>1245.1</ele>
        <time>2020-11-17T11:16:27Z</time>
      </trkpt>
      <trkpt lat="28.5492320" lon="-17.8527670">
        <ele>1245.1</ele>
        <time>2020-11-17T11:16:28Z</time>
      </trkpt>
      <trkpt lat="28.5491400" lon="-17.8527650">
        <ele>1244.9</ele>
        <time>2020-11-17T11:16:29Z</time>
      </trkpt>
      <trkpt lat="28.5490930" lon="-17.8527620">
        <ele>1244.8</ele>
        <time>2020-11-17T11:16:30Z</time>
      </trkpt>
      <trkpt lat="28.5490930" lon="-17.8527620">
        <ele>1244.8</ele>
        <time>2020-11-17T11:16:31Z</time>
      </trkpt>
      <trkpt lat="28.5489900" lon="-17.8527470">
        <ele>1244.5</ele>
        <time>2020-11-17T11:16:32Z</time>
      </trkpt>
      <trkpt lat="28.5489380" lon="-17.8527400">
        <ele>1244.3</ele>
        <time>2020-11-17T11:16:33Z</time>
      </trkpt>
      <trkpt lat="28.5488770" lon="-17.8527420">
        <ele>1244.1</ele>
        <time>2020-11-17T11:16:34Z</time>
      </trkpt>
      <trkpt lat="28.5488180" lon="-17.8527450">
        <ele>1243.9</ele>
        <time>2020-11-17T11:16:35Z</time>
      </trkpt>
      <trkpt lat="28.5488180" lon="-17.8527450">
        <ele>1243.9</ele>
        <time>2020-11-17T11:16:36Z</time>
      </trkpt>
      <trkpt lat="28.5487080" lon="-17.8527680">
        <ele>1243.4</ele>
        <time>2020-11-17T11:16:37Z</time>
      </trkpt>
      <trkpt lat="28.5486520" lon="-17.8527870">
        <ele>1243.2</ele>
        <time>2020-11-17T11:16:38Z</time>
      </trkpt>
      <trkpt lat="28.5486520" lon="-17.8527870">
        <ele>1243.2</ele>
        <time>2020-11-17T11:16:39Z</time>
      </trkpt>
      <trkpt lat="28.5485480" lon="-17.8528350">
        <ele>1242.7</ele>
        <time>2020-11-17T11:16:40Z</time>
      </trkpt>
      <trkpt lat="28.5485480" lon="-17.8528350">
        <ele>1242.7</ele>
        <time>2020-11-17T11:16:41Z</time>
      </trkpt>
      <trkpt lat="28.5484470" lon="-17.8529030">
        <ele>1242.2</ele>
        <time>2020-11-17T11:16:42Z</time>
      </trkpt>
      <trkpt lat="28.5484470" lon="-17.8529030">
        <ele>1242.2</ele>
        <time>2020-11-17T11:16:43Z</time>
      </trkpt>
      <trkpt lat="28.5483370" lon="-17.8529750">
        <ele>1241.5</ele>
        <time>2020-11-17T11:16:44Z</time>
      </trkpt>
      <trkpt lat="28.5482870" lon="-17.8530070">
        <ele>1241.2</ele>
        <time>2020-11-17T11:16:45Z</time>
      </trkpt>
      <trkpt lat="28.5482870" lon="-17.8530070">
        <ele>1241.2</ele>
        <time>2020-11-17T11:16:46Z</time>
      </trkpt>
      <trkpt lat="28.5481930" lon="-17.8530830">
        <ele>1240.7</ele>
        <time>2020-11-17T11:16:47Z</time>
      </trkpt>
      <trkpt lat="28.5481500" lon="-17.8531270">
        <ele>1240.4</ele>
        <time>2020-11-17T11:16:48Z</time>
      </trkpt>
      <trkpt lat="28.5481500" lon="-17.8531270">
        <ele>1240.4</ele>
        <time>2020-11-17T11:16:49Z</time>
      </trkpt>
      <trkpt lat="28.5480550" lon="-17.8532080">
        <ele>1240.0</ele>
        <time>2020-11-17T11:16:50Z</time>
      </trkpt>
      <trkpt lat="28.5480550" lon="-17.8532080">
        <ele>1240.0</ele>
        <time>2020-11-17T11:16:51Z</time>
      </trkpt>
      <trkpt lat="28.5479380" lon="-17.8532680">
        <ele>1239.6</ele>
        <time>2020-11-17T11:16:52Z</time>
      </trkpt>
      <trkpt lat="28.5479380" lon="-17.8532680">
        <ele>1239.6</ele>
        <time>2020-11-17T11:16:53Z</time>
      </trkpt>
      <trkpt lat="28.5478320" lon="-17.8533270">
        <ele>1239.5</ele>
        <time>2020-11-17T11:16:54Z</time>
      </trkpt>
      <trkpt lat="28.5478320" lon="-17.8533270">
        <ele>1239.5</ele>
        <time>2020-11-17T11:16:55Z</time>
      </trkpt>
      <trkpt lat="28.5477480" lon="-17.8533120">
        <ele>1239.4</ele>
        <time>2020-11-17T11:16:56Z</time>
      </trkpt>
      <trkpt lat="28.5477480" lon="-17.8533120">
        <ele>1239.4</ele>
        <time>2020-11-17T11:16:57Z</time>
      </trkpt>
      <trkpt lat="28.5476980" lon="-17.8532530">
        <ele>1239.4</ele>
        <time>2020-11-17T11:16:58Z</time>
      </trkpt>
      <trkpt lat="28.5476980" lon="-17.8532530">
        <ele>1239.4</ele>
        <time>2020-11-17T11:16:59Z</time>
      </trkpt>
      <trkpt lat="28.5476620" lon="-17.8531700">
        <ele>1239.3</ele>
        <time>2020-11-17T11:17:00Z</time>
      </trkpt>
      <trkpt lat="28.5476620" lon="-17.8531700">
        <ele>1239.3</ele>
        <time>2020-11-17T11:17:01Z</time>
      </trkpt>
      <trkpt lat="28.5476050" lon="-17.8531250">
        <ele>1239.4</ele>
        <time>2020-11-17T11:17:02Z</time>
      </trkpt>
      <trkpt lat="28.5475750" lon="-17.8531250">
        <ele>1239.4</ele>
        <time>2020-11-17T11:17:03Z</time>
      </trkpt>
      <trkpt lat="28.5475450" lon="-17.8531370">
        <ele>1239.4</ele>
        <time>2020-11-17T11:17:04Z</time>
      </trkpt>
      <trkpt lat="28.5475450" lon="-17.8531370">
        <ele>1239.4</ele>
        <time>2020-11-17T11:17:05Z</time>
      </trkpt>
      <trkpt lat="28.5474770" lon="-17.8531620">
        <ele>1239.6</ele>
        <time>2020-11-17T11:17:06Z</time>
      </trkpt>
      <trkpt lat="28.5474770" lon="-17.8531620">
        <ele>1239.6</ele>
        <time>2020-11-17T11:17:07Z</time>
      </trkpt>
      <trkpt lat="28.5474130" lon="-17.8532200">
        <ele>1239.8</ele>
        <time>2020-11-17T11:17:08Z</time>
      </trkpt>
      <trkpt lat="28.5473870" lon="-17.8532520">
        <ele>1239.9</ele>
        <time>2020-11-17T11:17:09Z</time>
      </trkpt>
      <trkpt lat="28.5473870" lon="-17.8532520">
        <ele>1239.9</ele>
        <time>2020-11-17T11:17:10Z</time>
      </trkpt>
      <trkpt lat="28.5473300" lon="-17.8532970">
        <ele>1240.2</ele>
        <time>2020-11-17T11:17:11Z</time>
      </trkpt>
      <trkpt lat="28.5472980" lon="-17.8533120">
        <ele>1240.4</ele>
        <time>2020-11-17T11:17:12Z</time>
      </trkpt>
      <trkpt lat="28.5472980" lon="-17.8533120">
        <ele>1240.4</ele>
        <time>2020-11-17T11:17:13Z</time>
      </trkpt>
      <trkpt lat="28.5472330" lon="-17.8533130">
        <ele>1240.6</ele>
        <time>2020-11-17T11:17:14Z</time>
      </trkpt>
      <trkpt lat="28.5472330" lon="-17.8533130">
        <ele>1240.6</ele>
        <time>2020-11-17T11:17:15Z</time>
      </trkpt>
      <trkpt lat="28.5471650" lon="-17.8532880">
        <ele>1240.9</ele>
        <time>2020-11-17T11:17:16Z</time>
      </trkpt>
      <trkpt lat="28.5471370" lon="-17.8532670">
        <ele>1241.0</ele>
        <time>2020-11-17T11:17:17Z</time>
      </trkpt>
      <trkpt lat="28.5471370" lon="-17.8532670">
        <ele>1241.0</ele>
        <time>2020-11-17T11:17:18Z</time>
      </trkpt>
      <trkpt lat="28.5470930" lon="-17.8531970">
        <ele>1241.2</ele>
        <time>2020-11-17T11:17:19Z</time>
      </trkpt>
      <trkpt lat="28.5470820" lon="-17.8531570">
        <ele>1241.4</ele>
        <time>2020-11-17T11:17:20Z</time>
      </trkpt>
      <trkpt lat="28.5470820" lon="-17.8531570">
        <ele>1241.4</ele>
        <time>2020-11-17T11:17:21Z</time>
      </trkpt>
      <trkpt lat="28.5470600" lon="-17.8530730">
        <ele>1241.6</ele>
        <time>2020-11-17T11:17:22Z</time>
      </trkpt>
      <trkpt lat="28.5470600" lon="-17.8530730">
        <ele>1241.6</ele>
        <time>2020-11-17T11:17:23Z</time>
      </trkpt>
      <trkpt lat="28.5470330" lon="-17.8530000">
        <ele>1241.8</ele>
        <time>2020-11-17T11:17:24Z</time>
      </trkpt>
      <trkpt lat="28.5470330" lon="-17.8530000">
        <ele>1241.8</ele>
        <time>2020-11-17T11:17:25Z</time>
      </trkpt>
      <trkpt lat="28.5470080" lon="-17.8529370">
        <ele>1241.9</ele>
        <time>2020-11-17T11:17:26Z</time>
      </trkpt>
      <trkpt lat="28.5470080" lon="-17.8529370">
        <ele>1241.9</ele>
        <time>2020-11-17T11:17:27Z</time>
      </trkpt>
      <trkpt lat="28.5469750" lon="-17.8528730">
        <ele>1242.1</ele>
        <time>2020-11-17T11:17:28Z</time>
      </trkpt>
      <trkpt lat="28.5469530" lon="-17.8528430">
        <ele>1242.2</ele>
        <time>2020-11-17T11:17:29Z</time>
      </trkpt>
      <trkpt lat="28.5469530" lon="-17.8528430">
        <ele>1242.2</ele>
        <time>2020-11-17T11:17:30Z</time>
      </trkpt>
      <trkpt lat="28.5469170" lon="-17.8527850">
        <ele>1242.3</ele>
        <time>2020-11-17T11:17:31Z</time>
      </trkpt>
      <trkpt lat="28.5468850" lon="-17.8527650">
        <ele>1242.4</ele>
        <time>2020-11-17T11:17:32Z</time>
      </trkpt>
      <trkpt lat="28.5468600" lon="-17.8527470">
        <ele>1242.5</ele>
        <time>2020-11-17T11:17:33Z</time>
      </trkpt>
      <trkpt lat="28.5468600" lon="-17.8527470">
        <ele>1242.5</ele>
        <time>2020-11-17T11:17:34Z</time>
      </trkpt>
      <trkpt lat="28.5467970" lon="-17.8527300">
        <ele>1242.7</ele>
        <time>2020-11-17T11:17:35Z</time>
      </trkpt>
      <trkpt lat="28.5467680" lon="-17.8527250">
        <ele>1242.7</ele>
        <time>2020-11-17T11:17:36Z</time>
      </trkpt>
      <trkpt lat="28.5467680" lon="-17.8527250">
        <ele>1242.7</ele>
        <time>2020-11-17T11:17:37Z</time>
      </trkpt>
      <trkpt lat="28.5467680" lon="-17.8527250">
        <ele>1242.7</ele>
        <time>2020-11-17T11:17:38Z</time>
      </trkpt>
      <trkpt lat="28.5467120" lon="-17.8527170">
        <ele>1242.8</ele>
        <time>2020-11-17T11:17:39Z</time>
      </trkpt>
      <trkpt lat="28.5466670" lon="-17.8527130">
        <ele>1242.8</ele>
        <time>2020-11-17T11:17:40Z</time>
      </trkpt>
      <trkpt lat="28.5466670" lon="-17.8527130">
        <ele>1242.8</ele>
        <time>2020-11-17T11:17:41Z</time>
      </trkpt>
      <trkpt lat="28.5466170" lon="-17.8527220">
        <ele>1242.9</ele>
        <time>2020-11-17T11:17:42Z</time>
      </trkpt>
      <trkpt lat="28.5466170" lon="-17.8527220">
        <ele>1242.9</ele>
        <time>2020-11-17T11:17:43Z</time>
      </trkpt>
      <trkpt lat="28.5465530" lon="-17.8527330">
        <ele>1242.9</ele>
        <time>2020-11-17T11:17:44Z</time>
      </trkpt>
      <trkpt lat="28.5465530" lon="-17.8527330">
        <ele>1242.9</ele>
        <time>2020-11-17T11:17:45Z</time>
      </trkpt>
      <trkpt lat="28.5464900" lon="-17.8527580">
        <ele>1242.9</ele>
        <time>2020-11-17T11:17:46Z</time>
      </trkpt>
      <trkpt lat="28.5464900" lon="-17.8527580">
        <ele>1242.9</ele>
        <time>2020-11-17T11:17:47Z</time>
      </trkpt>
      <trkpt lat="28.5464300" lon="-17.8528000">
        <ele>1242.9</ele>
        <time>2020-11-17T11:17:48Z</time>
      </trkpt>
      <trkpt lat="28.5464300" lon="-17.8528000">
        <ele>1242.9</ele>
        <time>2020-11-17T11:17:49Z</time>
      </trkpt>
      <trkpt lat="28.5463680" lon="-17.8528570">
        <ele>1242.9</ele>
        <time>2020-11-17T11:17:50Z</time>
      </trkpt>
      <trkpt lat="28.5463680" lon="-17.8528570">
        <ele>1242.9</ele>
        <time>2020-11-17T11:17:51Z</time>
      </trkpt>
      <trkpt lat="28.5463180" lon="-17.8529270">
        <ele>1242.8</ele>
        <time>2020-11-17T11:17:52Z</time>
      </trkpt>
      <trkpt lat="28.5463180" lon="-17.8529270">
        <ele>1242.8</ele>
        <time>2020-11-17T11:17:53Z</time>
      </trkpt>
      <trkpt lat="28.5462630" lon="-17.8530020">
        <ele>1242.8</ele>
        <time>2020-11-17T11:17:54Z</time>
      </trkpt>
      <trkpt lat="28.5462630" lon="-17.8530020">
        <ele>1242.8</ele>
        <time>2020-11-17T11:17:55Z</time>
      </trkpt>
      <trkpt lat="28.5461970" lon="-17.8530830">
        <ele>1242.7</ele>
        <time>2020-11-17T11:17:56Z</time>
      </trkpt>
      <trkpt lat="28.5461630" lon="-17.8531150">
        <ele>1242.7</ele>
        <time>2020-11-17T11:17:57Z</time>
      </trkpt>
      <trkpt lat="28.5461630" lon="-17.8531150">
        <ele>1242.7</ele>
        <time>2020-11-17T11:17:58Z</time>
      </trkpt>
      <trkpt lat="28.5460780" lon="-17.8531670">
        <ele>1242.8</ele>
        <time>2020-11-17T11:17:59Z</time>
      </trkpt>
      <trkpt lat="28.5460380" lon="-17.8531750">
        <ele>1242.8</ele>
        <time>2020-11-17T11:18:00Z</time>
      </trkpt>
      <trkpt lat="28.5460380" lon="-17.8531750">
        <ele>1242.8</ele>
        <time>2020-11-17T11:18:01Z</time>
      </trkpt>
      <trkpt lat="28.5459620" lon="-17.8531700">
        <ele>1242.8</ele>
        <time>2020-11-17T11:18:02Z</time>
      </trkpt>
      <trkpt lat="28.5459300" lon="-17.8531520">
        <ele>1242.8</ele>
        <time>2020-11-17T11:18:03Z</time>
      </trkpt>
      <trkpt lat="28.5459300" lon="-17.8531520">
        <ele>1242.8</ele>
        <time>2020-11-17T11:18:04Z</time>
      </trkpt>
      <trkpt lat="28.5458530" lon="-17.8531130">
        <ele>1242.8</ele>
        <time>2020-11-17T11:18:05Z</time>
      </trkpt>
      <trkpt lat="28.5458530" lon="-17.8531130">
        <ele>1242.8</ele>
        <time>2020-11-17T11:18:06Z</time>
      </trkpt>
      <trkpt lat="28.5457930" lon="-17.8530520">
        <ele>1242.9</ele>
        <time>2020-11-17T11:18:07Z</time>
      </trkpt>
      <trkpt lat="28.5457930" lon="-17.8530520">
        <ele>1242.9</ele>
        <time>2020-11-17T11:18:08Z</time>
      </trkpt>
      <trkpt lat="28.5457370" lon="-17.8529930">
        <ele>1242.9</ele>
        <time>2020-11-17T11:18:09Z</time>
      </trkpt>
      <trkpt lat="28.5457370" lon="-17.8529930">
        <ele>1242.9</ele>
        <time>2020-11-17T11:18:10Z</time>
      </trkpt>
      <trkpt lat="28.5456780" lon="-17.8529530">
        <ele>1242.9</ele>
        <time>2020-11-17T11:18:11Z</time>
      </trkpt>
      <trkpt lat="28.5456780" lon="-17.8529530">
        <ele>1242.9</ele>
        <time>2020-11-17T11:18:12Z</time>
      </trkpt>
      <trkpt lat="28.5456220" lon="-17.8529230">
        <ele>1242.9</ele>
        <time>2020-11-17T11:18:13Z</time>
      </trkpt>
      <trkpt lat="28.5456220" lon="-17.8529230">
        <ele>1242.9</ele>
        <time>2020-11-17T11:18:14Z</time>
      </trkpt>
      <trkpt lat="28.5455800" lon="-17.8529130">
        <ele>1242.9</ele>
        <time>2020-11-17T11:18:15Z</time>
      </trkpt>
      <trkpt lat="28.5455800" lon="-17.8529130">
        <ele>1242.9</ele>
        <time>2020-11-17T11:18:16Z</time>
      </trkpt>
      <trkpt lat="28.5455170" lon="-17.8529220">
        <ele>1242.9</ele>
        <time>2020-11-17T11:18:17Z</time>
      </trkpt>
      <trkpt lat="28.5454700" lon="-17.8529380">
        <ele>1242.9</ele>
        <time>2020-11-17T11:18:18Z</time>
      </trkpt>
      <trkpt lat="28.5454700" lon="-17.8529380">
        <ele>1242.9</ele>
        <time>2020-11-17T11:18:19Z</time>
      </trkpt>
      <trkpt lat="28.5453950" lon="-17.8529670">
        <ele>1242.9</ele>
        <time>2020-11-17T11:18:20Z</time>
      </trkpt>
      <trkpt lat="28.5453550" lon="-17.8529800">
        <ele>1242.9</ele>
        <time>2020-11-17T11:18:21Z</time>
      </trkpt>
      <trkpt lat="28.5453550" lon="-17.8529800">
        <ele>1242.9</ele>
        <time>2020-11-17T11:18:22Z</time>
      </trkpt>
      <trkpt lat="28.5452800" lon="-17.8530050">
        <ele>1243.0</ele>
        <time>2020-11-17T11:18:23Z</time>
      </trkpt>
      <trkpt lat="28.5452430" lon="-17.8530130">
        <ele>1243.0</ele>
        <time>2020-11-17T11:18:24Z</time>
      </trkpt>
      <trkpt lat="28.5452430" lon="-17.8530130">
        <ele>1243.0</ele>
        <time>2020-11-17T11:18:25Z</time>
      </trkpt>
      <trkpt lat="28.5451720" lon="-17.8530150">
        <ele>1243.1</ele>
        <time>2020-11-17T11:18:26Z</time>
      </trkpt>
      <trkpt lat="28.5451720" lon="-17.8530150">
        <ele>1243.1</ele>
        <time>2020-11-17T11:18:27Z</time>
      </trkpt>
      <trkpt lat="28.5450980" lon="-17.8530050">
        <ele>1243.1</ele>
        <time>2020-11-17T11:18:28Z</time>
      </trkpt>
      <trkpt lat="28.5450980" lon="-17.8530050">
        <ele>1243.1</ele>
        <time>2020-11-17T11:18:29Z</time>
      </trkpt>
      <trkpt lat="28.5450130" lon="-17.8529970">
        <ele>1243.0</ele>
        <time>2020-11-17T11:18:30Z</time>
      </trkpt>
      <trkpt lat="28.5450130" lon="-17.8529970">
        <ele>1243.0</ele>
        <time>2020-11-17T11:18:31Z</time>
      </trkpt>
      <trkpt lat="28.5449430" lon="-17.8529850">
        <ele>1243.0</ele>
        <time>2020-11-17T11:18:32Z</time>
      </trkpt>
      <trkpt lat="28.5448980" lon="-17.8529930">
        <ele>1243.0</ele>
        <time>2020-11-17T11:18:33Z</time>
      </trkpt>
      <trkpt lat="28.5448600" lon="-17.8529930">
        <ele>1242.9</ele>
        <time>2020-11-17T11:18:34Z</time>
      </trkpt>
      <trkpt lat="28.5448600" lon="-17.8529930">
        <ele>1242.9</ele>
        <time>2020-11-17T11:18:35Z</time>
      </trkpt>
      <trkpt lat="28.5447880" lon="-17.8529930">
        <ele>1242.9</ele>
        <time>2020-11-17T11:18:36Z</time>
      </trkpt>
      <trkpt lat="28.5447580" lon="-17.8529920">
        <ele>1242.8</ele>
        <time>2020-11-17T11:18:37Z</time>
      </trkpt>
      <trkpt lat="28.5447580" lon="-17.8529920">
        <ele>1242.8</ele>
        <time>2020-11-17T11:18:38Z</time>
      </trkpt>
      <trkpt lat="28.5446820" lon="-17.8529770">
        <ele>1242.8</ele>
        <time>2020-11-17T11:18:39Z</time>
      </trkpt>
      <trkpt lat="28.5446820" lon="-17.8529770">
        <ele>1242.8</ele>
        <time>2020-11-17T11:18:40Z</time>
      </trkpt>
      <trkpt lat="28.5446050" lon="-17.8529320">
        <ele>1242.8</ele>
        <time>2020-11-17T11:18:41Z</time>
      </trkpt>
      <trkpt lat="28.5446050" lon="-17.8529320">
        <ele>1242.8</ele>
        <time>2020-11-17T11:18:42Z</time>
      </trkpt>
      <trkpt lat="28.5445300" lon="-17.8528830">
        <ele>1242.8</ele>
        <time>2020-11-17T11:18:43Z</time>
      </trkpt>
      <trkpt lat="28.5445300" lon="-17.8528830">
        <ele>1242.8</ele>
        <time>2020-11-17T11:18:44Z</time>
      </trkpt>
      <trkpt lat="28.5444470" lon="-17.8528750">
        <ele>1242.8</ele>
        <time>2020-11-17T11:18:45Z</time>
      </trkpt>
      <trkpt lat="28.5444100" lon="-17.8528900">
        <ele>1242.8</ele>
        <time>2020-11-17T11:18:46Z</time>
      </trkpt>
      <trkpt lat="28.5444100" lon="-17.8528900">
        <ele>1242.8</ele>
        <time>2020-11-17T11:18:47Z</time>
      </trkpt>
      <trkpt lat="28.5443430" lon="-17.8529070">
        <ele>1242.9</ele>
        <time>2020-11-17T11:18:48Z</time>
      </trkpt>
      <trkpt lat="28.5443430" lon="-17.8529070">
        <ele>1242.9</ele>
        <time>2020-11-17T11:18:49Z</time>
      </trkpt>
      <trkpt lat="28.5442780" lon="-17.8529200">
        <ele>1242.9</ele>
        <time>2020-11-17T11:18:50Z</time>
      </trkpt>
      <trkpt lat="28.5442400" lon="-17.8529220">
        <ele>1243.0</ele>
        <time>2020-11-17T11:18:51Z</time>
      </trkpt>
      <trkpt lat="28.5442400" lon="-17.8529220">
        <ele>1243.0</ele>
        <time>2020-11-17T11:18:52Z</time>
      </trkpt>
      <trkpt lat="28.5441730" lon="-17.8529080">
        <ele>1243.0</ele>
        <time>2020-11-17T11:18:53Z</time>
      </trkpt>
      <trkpt lat="28.5441730" lon="-17.8529080">
        <ele>1243.0</ele>
        <time>2020-11-17T11:18:54Z</time>
      </trkpt>
      <trkpt lat="28.5440980" lon="-17.8528730">
        <ele>1243.1</ele>
        <time>2020-11-17T11:18:55Z</time>
      </trkpt>
      <trkpt lat="28.5440980" lon="-17.8528730">
        <ele>1243.1</ele>
        <time>2020-11-17T11:18:56Z</time>
      </trkpt>
      <trkpt lat="28.5440320" lon="-17.8528230">
        <ele>1243.1</ele>
        <time>2020-11-17T11:18:57Z</time>
      </trkpt>
      <trkpt lat="28.5440000" lon="-17.8528000">
        <ele>1243.2</ele>
        <time>2020-11-17T11:18:58Z</time>
      </trkpt>
      <trkpt lat="28.5440000" lon="-17.8528000">
        <ele>1243.2</ele>
        <time>2020-11-17T11:18:59Z</time>
      </trkpt>
      <trkpt lat="28.5439280" lon="-17.8527550">
        <ele>1243.2</ele>
        <time>2020-11-17T11:19:00Z</time>
      </trkpt>
      <trkpt lat="28.5439280" lon="-17.8527550">
        <ele>1243.2</ele>
        <time>2020-11-17T11:19:01Z</time>
      </trkpt>
      <trkpt lat="28.5438550" lon="-17.8527130">
        <ele>1243.3</ele>
        <time>2020-11-17T11:19:02Z</time>
      </trkpt>
      <trkpt lat="28.5438550" lon="-17.8527130">
        <ele>1243.3</ele>
        <time>2020-11-17T11:19:03Z</time>
      </trkpt>
      <trkpt lat="28.5437920" lon="-17.8526730">
        <ele>1243.3</ele>
        <time>2020-11-17T11:19:04Z</time>
      </trkpt>
      <trkpt lat="28.5437920" lon="-17.8526730">
        <ele>1243.3</ele>
        <time>2020-11-17T11:19:05Z</time>
      </trkpt>
      <trkpt lat="28.5437220" lon="-17.8526430">
        <ele>1243.4</ele>
        <time>2020-11-17T11:19:06Z</time>
      </trkpt>
      <trkpt lat="28.5437220" lon="-17.8526430">
        <ele>1243.4</ele>
        <time>2020-11-17T11:19:07Z</time>
      </trkpt>
      <trkpt lat="28.5436470" lon="-17.8526230">
        <ele>1243.5</ele>
        <time>2020-11-17T11:19:08Z</time>
      </trkpt>
      <trkpt lat="28.5436130" lon="-17.8526100">
        <ele>1243.6</ele>
        <time>2020-11-17T11:19:09Z</time>
      </trkpt>
      <trkpt lat="28.5436130" lon="-17.8526100">
        <ele>1243.6</ele>
        <time>2020-11-17T11:19:10Z</time>
      </trkpt>
      <trkpt lat="28.5435400" lon="-17.8525930">
        <ele>1243.8</ele>
        <time>2020-11-17T11:19:11Z</time>
      </trkpt>
      <trkpt lat="28.5435070" lon="-17.8525870">
        <ele>1244.0</ele>
        <time>2020-11-17T11:19:12Z</time>
      </trkpt>
      <trkpt lat="28.5435070" lon="-17.8525870">
        <ele>1244.0</ele>
        <time>2020-11-17T11:19:13Z</time>
      </trkpt>
      <trkpt lat="28.5434380" lon="-17.8525830">
        <ele>1244.3</ele>
        <time>2020-11-17T11:19:14Z</time>
      </trkpt>
      <trkpt lat="28.5434050" lon="-17.8525820">
        <ele>1244.4</ele>
        <time>2020-11-17T11:19:15Z</time>
      </trkpt>
      <trkpt lat="28.5434050" lon="-17.8525820">
        <ele>1244.4</ele>
        <time>2020-11-17T11:19:16Z</time>
      </trkpt>
      <trkpt lat="28.5433370" lon="-17.8525680">
        <ele>1244.7</ele>
        <time>2020-11-17T11:19:17Z</time>
      </trkpt>
      <trkpt lat="28.5433050" lon="-17.8525520">
        <ele>1244.8</ele>
        <time>2020-11-17T11:19:18Z</time>
      </trkpt>
      <trkpt lat="28.5433050" lon="-17.8525520">
        <ele>1244.8</ele>
        <time>2020-11-17T11:19:19Z</time>
      </trkpt>
      <trkpt lat="28.5432580" lon="-17.8524880">
        <ele>1245.0</ele>
        <time>2020-11-17T11:19:20Z</time>
      </trkpt>
      <trkpt lat="28.5432580" lon="-17.8524880">
        <ele>1245.0</ele>
        <time>2020-11-17T11:19:21Z</time>
      </trkpt>
      <trkpt lat="28.5432330" lon="-17.8524170">
        <ele>1245.1</ele>
        <time>2020-11-17T11:19:22Z</time>
      </trkpt>
      <trkpt lat="28.5432330" lon="-17.8524170">
        <ele>1245.1</ele>
        <time>2020-11-17T11:19:23Z</time>
      </trkpt>
      <trkpt lat="28.5432030" lon="-17.8523430">
        <ele>1245.3</ele>
        <time>2020-11-17T11:19:24Z</time>
      </trkpt>
      <trkpt lat="28.5432030" lon="-17.8523430">
        <ele>1245.3</ele>
        <time>2020-11-17T11:19:25Z</time>
      </trkpt>
      <trkpt lat="28.5431620" lon="-17.8522570">
        <ele>1245.4</ele>
        <time>2020-11-17T11:19:26Z</time>
      </trkpt>
      <trkpt lat="28.5431370" lon="-17.8522120">
        <ele>1245.5</ele>
        <time>2020-11-17T11:19:27Z</time>
      </trkpt>
      <trkpt lat="28.5431370" lon="-17.8522120">
        <ele>1245.5</ele>
        <time>2020-11-17T11:19:28Z</time>
      </trkpt>
      <trkpt lat="28.5430880" lon="-17.8521430">
        <ele>1245.7</ele>
        <time>2020-11-17T11:19:29Z</time>
      </trkpt>
      <trkpt lat="28.5430630" lon="-17.8521120">
        <ele>1245.8</ele>
        <time>2020-11-17T11:19:30Z</time>
      </trkpt>
      <trkpt lat="28.5430630" lon="-17.8521120">
        <ele>1245.8</ele>
        <time>2020-11-17T11:19:31Z</time>
      </trkpt>
      <trkpt lat="28.5430080" lon="-17.8520520">
        <ele>1246.1</ele>
        <time>2020-11-17T11:19:32Z</time>
      </trkpt>
      <trkpt lat="28.5429820" lon="-17.8520170">
        <ele>1246.2</ele>
        <time>2020-11-17T11:19:33Z</time>
      </trkpt>
      <trkpt lat="28.5429580" lon="-17.8519770">
        <ele>1246.4</ele>
        <time>2020-11-17T11:19:34Z</time>
      </trkpt>
      <trkpt lat="28.5429580" lon="-17.8519770">
        <ele>1246.4</ele>
        <time>2020-11-17T11:19:35Z</time>
      </trkpt>
      <trkpt lat="28.5429180" lon="-17.8519030">
        <ele>1246.7</ele>
        <time>2020-11-17T11:19:36Z</time>
      </trkpt>
      <trkpt lat="28.5429180" lon="-17.8519030">
        <ele>1246.7</ele>
        <time>2020-11-17T11:19:37Z</time>
      </trkpt>
      <trkpt lat="28.5428820" lon="-17.8518270">
        <ele>1247.0</ele>
        <time>2020-11-17T11:19:38Z</time>
      </trkpt>
      <trkpt lat="28.5428630" lon="-17.8517970">
        <ele>1247.2</ele>
        <time>2020-11-17T11:19:39Z</time>
      </trkpt>
      <trkpt lat="28.5428630" lon="-17.8517970">
        <ele>1247.2</ele>
        <time>2020-11-17T11:19:40Z</time>
      </trkpt>
      <trkpt lat="28.5428420" lon="-17.8517300">
        <ele>1247.5</ele>
        <time>2020-11-17T11:19:41Z</time>
      </trkpt>
      <trkpt lat="28.5428420" lon="-17.8517300">
        <ele>1247.5</ele>
        <time>2020-11-17T11:19:42Z</time>
      </trkpt>
      <trkpt lat="28.5428420" lon="-17.8517300">
        <ele>1247.5</ele>
        <time>2020-11-17T11:19:43Z</time>
      </trkpt>
      <trkpt lat="28.5428230" lon="-17.8516650">
        <ele>1247.8</ele>
        <time>2020-11-17T11:19:44Z</time>
      </trkpt>
      <trkpt lat="28.5427980" lon="-17.8515900">
        <ele>1248.2</ele>
        <time>2020-11-17T11:19:45Z</time>
      </trkpt>
      <trkpt lat="28.5427880" lon="-17.8515520">
        <ele>1248.3</ele>
        <time>2020-11-17T11:19:46Z</time>
      </trkpt>
      <trkpt lat="28.5427750" lon="-17.8515170">
        <ele>1248.5</ele>
        <time>2020-11-17T11:19:47Z</time>
      </trkpt>
      <trkpt lat="28.5427750" lon="-17.8515170">
        <ele>1248.5</ele>
        <time>2020-11-17T11:19:48Z</time>
      </trkpt>
      <trkpt lat="28.5427520" lon="-17.8514630">
        <ele>1248.9</ele>
        <time>2020-11-17T11:19:49Z</time>
      </trkpt>
      <trkpt lat="28.5427370" lon="-17.8514420">
        <ele>1249.0</ele>
        <time>2020-11-17T11:19:50Z</time>
      </trkpt>
      <trkpt lat="28.5427370" lon="-17.8514420">
        <ele>1249.0</ele>
        <time>2020-11-17T11:19:51Z</time>
      </trkpt>
      <trkpt lat="28.5427080" lon="-17.8514030">
        <ele>1249.3</ele>
        <time>2020-11-17T11:19:52Z</time>
      </trkpt>
      <trkpt lat="28.5427080" lon="-17.8514030">
        <ele>1249.3</ele>
        <time>2020-11-17T11:19:53Z</time>
      </trkpt>
      <trkpt lat="28.5426750" lon="-17.8513630">
        <ele>1249.7</ele>
        <time>2020-11-17T11:19:54Z</time>
      </trkpt>
      <trkpt lat="28.5426750" lon="-17.8513630">
        <ele>1249.7</ele>
        <time>2020-11-17T11:19:55Z</time>
      </trkpt>
      <trkpt lat="28.5426420" lon="-17.8513250">
        <ele>1250.0</ele>
        <time>2020-11-17T11:19:56Z</time>
      </trkpt>
      <trkpt lat="28.5426250" lon="-17.8513070">
        <ele>1250.2</ele>
        <time>2020-11-17T11:19:57Z</time>
      </trkpt>
      <trkpt lat="28.5426250" lon="-17.8513070">
        <ele>1250.2</ele>
        <time>2020-11-17T11:19:58Z</time>
      </trkpt>
      <trkpt lat="28.5425800" lon="-17.8512600">
        <ele>1250.7</ele>
        <time>2020-11-17T11:19:59Z</time>
      </trkpt>
      <trkpt lat="28.5425580" lon="-17.8512370">
        <ele>1250.9</ele>
        <time>2020-11-17T11:20:00Z</time>
      </trkpt>
      <trkpt lat="28.5425580" lon="-17.8512370">
        <ele>1250.9</ele>
        <time>2020-11-17T11:20:01Z</time>
      </trkpt>
      <trkpt lat="28.5425200" lon="-17.8511970">
        <ele>1251.3</ele>
        <time>2020-11-17T11:20:02Z</time>
      </trkpt>
      <trkpt lat="28.5425200" lon="-17.8511970">
        <ele>1251.3</ele>
        <time>2020-11-17T11:20:03Z</time>
      </trkpt>
      <trkpt lat="28.5424570" lon="-17.8511530">
        <ele>1251.8</ele>
        <time>2020-11-17T11:20:04Z</time>
      </trkpt>
      <trkpt lat="28.5424570" lon="-17.8511530">
        <ele>1251.8</ele>
        <time>2020-11-17T11:20:05Z</time>
      </trkpt>
      <trkpt lat="28.5424100" lon="-17.8511220">
        <ele>1252.2</ele>
        <time>2020-11-17T11:20:06Z</time>
      </trkpt>
      <trkpt lat="28.5424100" lon="-17.8511220">
        <ele>1252.2</ele>
        <time>2020-11-17T11:20:07Z</time>
      </trkpt>
      <trkpt lat="28.5423680" lon="-17.8510920">
        <ele>1252.5</ele>
        <time>2020-11-17T11:20:08Z</time>
      </trkpt>
      <trkpt lat="28.5423680" lon="-17.8510920">
        <ele>1252.5</ele>
        <time>2020-11-17T11:20:09Z</time>
      </trkpt>
      <trkpt lat="28.5423170" lon="-17.8510800">
        <ele>1252.8</ele>
        <time>2020-11-17T11:20:10Z</time>
      </trkpt>
      <trkpt lat="28.5422900" lon="-17.8510680">
        <ele>1253.0</ele>
        <time>2020-11-17T11:20:11Z</time>
      </trkpt>
      <trkpt lat="28.5422900" lon="-17.8510680">
        <ele>1253.0</ele>
        <time>2020-11-17T11:20:12Z</time>
      </trkpt>
      <trkpt lat="28.5422430" lon="-17.8510380">
        <ele>1253.3</ele>
        <time>2020-11-17T11:20:13Z</time>
      </trkpt>
      <trkpt lat="28.5422430" lon="-17.8510380">
        <ele>1253.3</ele>
        <time>2020-11-17T11:20:14Z</time>
      </trkpt>
      <trkpt lat="28.5421900" lon="-17.8510230">
        <ele>1253.6</ele>
        <time>2020-11-17T11:20:15Z</time>
      </trkpt>
      <trkpt lat="28.5421900" lon="-17.8510230">
        <ele>1253.6</ele>
        <time>2020-11-17T11:20:16Z</time>
      </trkpt>
      <trkpt lat="28.5421370" lon="-17.8510120">
        <ele>1253.8</ele>
        <time>2020-11-17T11:20:17Z</time>
      </trkpt>
      <trkpt lat="28.5421370" lon="-17.8510120">
        <ele>1253.8</ele>
        <time>2020-11-17T11:20:18Z</time>
      </trkpt>
      <trkpt lat="28.5420880" lon="-17.8510130">
        <ele>1254.1</ele>
        <time>2020-11-17T11:20:19Z</time>
      </trkpt>
      <trkpt lat="28.5420880" lon="-17.8510130">
        <ele>1254.1</ele>
        <time>2020-11-17T11:20:20Z</time>
      </trkpt>
      <trkpt lat="28.5420450" lon="-17.8510020">
        <ele>1254.3</ele>
        <time>2020-11-17T11:20:21Z</time>
      </trkpt>
      <trkpt lat="28.5420250" lon="-17.8509980">
        <ele>1254.4</ele>
        <time>2020-11-17T11:20:22Z</time>
      </trkpt>
      <trkpt lat="28.5420250" lon="-17.8509980">
        <ele>1254.4</ele>
        <time>2020-11-17T11:20:23Z</time>
      </trkpt>
      <trkpt lat="28.5419600" lon="-17.8510000">
        <ele>1254.7</ele>
        <time>2020-11-17T11:20:24Z</time>
      </trkpt>
      <trkpt lat="28.5419600" lon="-17.8510000">
        <ele>1254.7</ele>
        <time>2020-11-17T11:20:25Z</time>
      </trkpt>
      <trkpt lat="28.5419130" lon="-17.8510000">
        <ele>1254.9</ele>
        <time>2020-11-17T11:20:26Z</time>
      </trkpt>
      <trkpt lat="28.5419130" lon="-17.8510000">
        <ele>1254.9</ele>
        <time>2020-11-17T11:20:27Z</time>
      </trkpt>
      <trkpt lat="28.5418730" lon="-17.8509950">
        <ele>1255.1</ele>
        <time>2020-11-17T11:20:28Z</time>
      </trkpt>
      <trkpt lat="28.5418430" lon="-17.8509930">
        <ele>1255.3</ele>
        <time>2020-11-17T11:20:29Z</time>
      </trkpt>
      <trkpt lat="28.5418130" lon="-17.8509920">
        <ele>1255.4</ele>
        <time>2020-11-17T11:20:30Z</time>
      </trkpt>
      <trkpt lat="28.5418130" lon="-17.8509920">
        <ele>1255.4</ele>
        <time>2020-11-17T11:20:31Z</time>
      </trkpt>
      <trkpt lat="28.5417550" lon="-17.8510000">
        <ele>1255.7</ele>
        <time>2020-11-17T11:20:32Z</time>
      </trkpt>
      <trkpt lat="28.5417550" lon="-17.8510000">
        <ele>1255.7</ele>
        <time>2020-11-17T11:20:33Z</time>
      </trkpt>
      <trkpt lat="28.5416880" lon="-17.8510000">
        <ele>1256.0</ele>
        <time>2020-11-17T11:20:34Z</time>
      </trkpt>
      <trkpt lat="28.5416480" lon="-17.8510030">
        <ele>1256.2</ele>
        <time>2020-11-17T11:20:35Z</time>
      </trkpt>
      <trkpt lat="28.5416480" lon="-17.8510030">
        <ele>1256.2</ele>
        <time>2020-11-17T11:20:36Z</time>
      </trkpt>
      <trkpt lat="28.5415870" lon="-17.8510130">
        <ele>1256.4</ele>
        <time>2020-11-17T11:20:37Z</time>
      </trkpt>
      <trkpt lat="28.5415550" lon="-17.8510130">
        <ele>1256.6</ele>
        <time>2020-11-17T11:20:38Z</time>
      </trkpt>
      <trkpt lat="28.5415550" lon="-17.8510130">
        <ele>1256.6</ele>
        <time>2020-11-17T11:20:39Z</time>
      </trkpt>
      <trkpt lat="28.5415000" lon="-17.8510030">
        <ele>1256.9</ele>
        <time>2020-11-17T11:20:40Z</time>
      </trkpt>
      <trkpt lat="28.5415000" lon="-17.8510030">
        <ele>1256.9</ele>
        <time>2020-11-17T11:20:41Z</time>
      </trkpt>
      <trkpt lat="28.5414600" lon="-17.8509970">
        <ele>1257.1</ele>
        <time>2020-11-17T11:20:42Z</time>
      </trkpt>
      <trkpt lat="28.5414600" lon="-17.8509970">
        <ele>1257.1</ele>
        <time>2020-11-17T11:20:43Z</time>
      </trkpt>
      <trkpt lat="28.5414120" lon="-17.8509950">
        <ele>1257.3</ele>
        <time>2020-11-17T11:20:44Z</time>
      </trkpt>
      <trkpt lat="28.5413850" lon="-17.8509950">
        <ele>1257.4</ele>
        <time>2020-11-17T11:20:45Z</time>
      </trkpt>
      <trkpt lat="28.5413850" lon="-17.8509950">
        <ele>1257.4</ele>
        <time>2020-11-17T11:20:46Z</time>
      </trkpt>
      <trkpt lat="28.5413150" lon="-17.8510080">
        <ele>1257.8</ele>
        <time>2020-11-17T11:20:47Z</time>
      </trkpt>
      <trkpt lat="28.5413150" lon="-17.8510080">
        <ele>1257.8</ele>
        <time>2020-11-17T11:20:48Z</time>
      </trkpt>
      <trkpt lat="28.5412570" lon="-17.8510170">
        <ele>1258.0</ele>
        <time>2020-11-17T11:20:49Z</time>
      </trkpt>
      <trkpt lat="28.5412570" lon="-17.8510170">
        <ele>1258.0</ele>
        <time>2020-11-17T11:20:50Z</time>
      </trkpt>
      <trkpt lat="28.5411920" lon="-17.8510300">
        <ele>1258.3</ele>
        <time>2020-11-17T11:20:51Z</time>
      </trkpt>
      <trkpt lat="28.5411580" lon="-17.8510320">
        <ele>1258.5</ele>
        <time>2020-11-17T11:20:52Z</time>
      </trkpt>
      <trkpt lat="28.5411580" lon="-17.8510320">
        <ele>1258.5</ele>
        <time>2020-11-17T11:20:53Z</time>
      </trkpt>
      <trkpt lat="28.5411070" lon="-17.8510350">
        <ele>1258.8</ele>
        <time>2020-11-17T11:20:54Z</time>
      </trkpt>
      <trkpt lat="28.5411070" lon="-17.8510350">
        <ele>1258.8</ele>
        <time>2020-11-17T11:20:55Z</time>
      </trkpt>
      <trkpt lat="28.5410530" lon="-17.8510470">
        <ele>1259.0</ele>
        <time>2020-11-17T11:20:56Z</time>
      </trkpt>
      <trkpt lat="28.5410530" lon="-17.8510470">
        <ele>1259.0</ele>
        <time>2020-11-17T11:20:57Z</time>
      </trkpt>
      <trkpt lat="28.5409970" lon="-17.8510470">
        <ele>1259.3</ele>
        <time>2020-11-17T11:20:58Z</time>
      </trkpt>
      <trkpt lat="28.5409700" lon="-17.8510470">
        <ele>1259.4</ele>
        <time>2020-11-17T11:20:59Z</time>
      </trkpt>
      <trkpt lat="28.5409700" lon="-17.8510470">
        <ele>1259.4</ele>
        <time>2020-11-17T11:21:00Z</time>
      </trkpt>
      <trkpt lat="28.5409130" lon="-17.8510430">
        <ele>1259.7</ele>
        <time>2020-11-17T11:21:01Z</time>
      </trkpt>
      <trkpt lat="28.5409130" lon="-17.8510430">
        <ele>1259.7</ele>
        <time>2020-11-17T11:21:02Z</time>
      </trkpt>
      <trkpt lat="28.5408350" lon="-17.8510570">
        <ele>1260.1</ele>
        <time>2020-11-17T11:21:03Z</time>
      </trkpt>
      <trkpt lat="28.5408020" lon="-17.8510530">
        <ele>1260.2</ele>
        <time>2020-11-17T11:21:04Z</time>
      </trkpt>
      <trkpt lat="28.5407530" lon="-17.8510430">
        <ele>1260.5</ele>
        <time>2020-11-17T11:21:05Z</time>
      </trkpt>
      <trkpt lat="28.5407530" lon="-17.8510430">
        <ele>1260.5</ele>
        <time>2020-11-17T11:21:06Z</time>
      </trkpt>
      <trkpt lat="28.5406730" lon="-17.8510570">
        <ele>1260.9</ele>
        <time>2020-11-17T11:21:07Z</time>
      </trkpt>
      <trkpt lat="28.5406730" lon="-17.8510570">
        <ele>1260.9</ele>
        <time>2020-11-17T11:21:08Z</time>
      </trkpt>
      <trkpt lat="28.5406070" lon="-17.8510370">
        <ele>1261.2</ele>
        <time>2020-11-17T11:21:09Z</time>
      </trkpt>
      <trkpt lat="28.5406070" lon="-17.8510370">
        <ele>1261.2</ele>
        <time>2020-11-17T11:21:10Z</time>
      </trkpt>
      <trkpt lat="28.5405500" lon="-17.8510100">
        <ele>1261.5</ele>
        <time>2020-11-17T11:21:11Z</time>
      </trkpt>
      <trkpt lat="28.5405180" lon="-17.8509950">
        <ele>1261.7</ele>
        <time>2020-11-17T11:21:12Z</time>
      </trkpt>
      <trkpt lat="28.5405180" lon="-17.8509950">
        <ele>1261.7</ele>
        <time>2020-11-17T11:21:13Z</time>
      </trkpt>
      <trkpt lat="28.5404620" lon="-17.8509650">
        <ele>1262.0</ele>
        <time>2020-11-17T11:21:14Z</time>
      </trkpt>
      <trkpt lat="28.5404350" lon="-17.8509570">
        <ele>1262.1</ele>
        <time>2020-11-17T11:21:15Z</time>
      </trkpt>
      <trkpt lat="28.5404350" lon="-17.8509570">
        <ele>1262.1</ele>
        <time>2020-11-17T11:21:16Z</time>
      </trkpt>
      <trkpt lat="28.5403880" lon="-17.8509370">
        <ele>1262.4</ele>
        <time>2020-11-17T11:21:17Z</time>
      </trkpt>
      <trkpt lat="28.5403580" lon="-17.8509150">
        <ele>1262.6</ele>
        <time>2020-11-17T11:21:18Z</time>
      </trkpt>
      <trkpt lat="28.5403580" lon="-17.8509150">
        <ele>1262.6</ele>
        <time>2020-11-17T11:21:19Z</time>
      </trkpt>
      <trkpt lat="28.5403100" lon="-17.8508850">
        <ele>1262.9</ele>
        <time>2020-11-17T11:21:20Z</time>
      </trkpt>
      <trkpt lat="28.5403100" lon="-17.8508850">
        <ele>1262.9</ele>
        <time>2020-11-17T11:21:21Z</time>
      </trkpt>
      <trkpt lat="28.5402520" lon="-17.8508570">
        <ele>1263.3</ele>
        <time>2020-11-17T11:21:22Z</time>
      </trkpt>
      <trkpt lat="28.5402180" lon="-17.8508450">
        <ele>1263.5</ele>
        <time>2020-11-17T11:21:23Z</time>
      </trkpt>
      <trkpt lat="28.5401850" lon="-17.8508320">
        <ele>1263.7</ele>
        <time>2020-11-17T11:21:24Z</time>
      </trkpt>
      <trkpt lat="28.5401850" lon="-17.8508320">
        <ele>1263.7</ele>
        <time>2020-11-17T11:21:25Z</time>
      </trkpt>
      <trkpt lat="28.5401220" lon="-17.8508150">
        <ele>1264.0</ele>
        <time>2020-11-17T11:21:26Z</time>
      </trkpt>
      <trkpt lat="28.5401220" lon="-17.8508150">
        <ele>1264.0</ele>
        <time>2020-11-17T11:21:27Z</time>
      </trkpt>
      <trkpt lat="28.5400550" lon="-17.8508000">
        <ele>1264.3</ele>
        <time>2020-11-17T11:21:28Z</time>
      </trkpt>
      <trkpt lat="28.5400550" lon="-17.8508000">
        <ele>1264.3</ele>
        <time>2020-11-17T11:21:29Z</time>
      </trkpt>
      <trkpt lat="28.5399750" lon="-17.8507830">
        <ele>1264.6</ele>
        <time>2020-11-17T11:21:30Z</time>
      </trkpt>
      <trkpt lat="28.5399750" lon="-17.8507830">
        <ele>1264.6</ele>
        <time>2020-11-17T11:21:31Z</time>
      </trkpt>
      <trkpt lat="28.5399000" lon="-17.8507630">
        <ele>1264.9</ele>
        <time>2020-11-17T11:21:32Z</time>
      </trkpt>
      <trkpt lat="28.5399000" lon="-17.8507630">
        <ele>1264.9</ele>
        <time>2020-11-17T11:21:33Z</time>
      </trkpt>
      <trkpt lat="28.5398300" lon="-17.8507380">
        <ele>1265.2</ele>
        <time>2020-11-17T11:21:34Z</time>
      </trkpt>
      <trkpt lat="28.5397880" lon="-17.8507330">
        <ele>1265.4</ele>
        <time>2020-11-17T11:21:35Z</time>
      </trkpt>
      <trkpt lat="28.5397880" lon="-17.8507330">
        <ele>1265.4</ele>
        <time>2020-11-17T11:21:36Z</time>
      </trkpt>
      <trkpt lat="28.5397150" lon="-17.8507320">
        <ele>1265.7</ele>
        <time>2020-11-17T11:21:37Z</time>
      </trkpt>
      <trkpt lat="28.5397150" lon="-17.8507320">
        <ele>1265.7</ele>
        <time>2020-11-17T11:21:38Z</time>
      </trkpt>
      <trkpt lat="28.5396650" lon="-17.8507100">
        <ele>1265.9</ele>
        <time>2020-11-17T11:21:39Z</time>
      </trkpt>
      <trkpt lat="28.5396650" lon="-17.8507100">
        <ele>1265.9</ele>
        <time>2020-11-17T11:21:40Z</time>
      </trkpt>
      <trkpt lat="28.5396050" lon="-17.8506930">
        <ele>1266.2</ele>
        <time>2020-11-17T11:21:41Z</time>
      </trkpt>
      <trkpt lat="28.5395700" lon="-17.8506850">
        <ele>1266.4</ele>
        <time>2020-11-17T11:21:42Z</time>
      </trkpt>
      <trkpt lat="28.5395700" lon="-17.8506850">
        <ele>1266.4</ele>
        <time>2020-11-17T11:21:43Z</time>
      </trkpt>
      <trkpt lat="28.5394900" lon="-17.8506800">
        <ele>1266.7</ele>
        <time>2020-11-17T11:21:44Z</time>
      </trkpt>
      <trkpt lat="28.5394900" lon="-17.8506800">
        <ele>1266.7</ele>
        <time>2020-11-17T11:21:45Z</time>
      </trkpt>
      <trkpt lat="28.5394130" lon="-17.8506680">
        <ele>1266.9</ele>
        <time>2020-11-17T11:21:46Z</time>
      </trkpt>
      <trkpt lat="28.5393820" lon="-17.8506580">
        <ele>1267.1</ele>
        <time>2020-11-17T11:21:47Z</time>
      </trkpt>
      <trkpt lat="28.5393820" lon="-17.8506580">
        <ele>1267.1</ele>
        <time>2020-11-17T11:21:48Z</time>
      </trkpt>
      <trkpt lat="28.5393170" lon="-17.8506280">
        <ele>1267.3</ele>
        <time>2020-11-17T11:21:49Z</time>
      </trkpt>
      <trkpt lat="28.5393170" lon="-17.8506280">
        <ele>1267.3</ele>
        <time>2020-11-17T11:21:50Z</time>
      </trkpt>
      <trkpt lat="28.5392570" lon="-17.8506120">
        <ele>1267.6</ele>
        <time>2020-11-17T11:21:51Z</time>
      </trkpt>
      <trkpt lat="28.5392250" lon="-17.8506030">
        <ele>1267.7</ele>
        <time>2020-11-17T11:21:52Z</time>
      </trkpt>
      <trkpt lat="28.5392250" lon="-17.8506030">
        <ele>1267.7</ele>
        <time>2020-11-17T11:21:53Z</time>
      </trkpt>
      <trkpt lat="28.5391570" lon="-17.8505920">
        <ele>1268.0</ele>
        <time>2020-11-17T11:21:54Z</time>
      </trkpt>
      <trkpt lat="28.5391570" lon="-17.8505920">
        <ele>1268.0</ele>
        <time>2020-11-17T11:21:55Z</time>
      </trkpt>
      <trkpt lat="28.5390920" lon="-17.8505900">
        <ele>1268.2</ele>
        <time>2020-11-17T11:21:56Z</time>
      </trkpt>
      <trkpt lat="28.5390630" lon="-17.8505920">
        <ele>1268.4</ele>
        <time>2020-11-17T11:21:57Z</time>
      </trkpt>
      <trkpt lat="28.5390270" lon="-17.8505950">
        <ele>1268.5</ele>
        <time>2020-11-17T11:21:58Z</time>
      </trkpt>
      <trkpt lat="28.5390270" lon="-17.8505950">
        <ele>1268.5</ele>
        <time>2020-11-17T11:21:59Z</time>
      </trkpt>
      <trkpt lat="28.5389570" lon="-17.8505930">
        <ele>1268.8</ele>
        <time>2020-11-17T11:22:00Z</time>
      </trkpt>
      <trkpt lat="28.5389570" lon="-17.8505930">
        <ele>1268.8</ele>
        <time>2020-11-17T11:22:01Z</time>
      </trkpt>
      <trkpt lat="28.5388800" lon="-17.8505920">
        <ele>1269.0</ele>
        <time>2020-11-17T11:22:02Z</time>
      </trkpt>
      <trkpt lat="28.5388450" lon="-17.8505970">
        <ele>1269.1</ele>
        <time>2020-11-17T11:22:03Z</time>
      </trkpt>
      <trkpt lat="28.5388450" lon="-17.8505970">
        <ele>1269.1</ele>
        <time>2020-11-17T11:22:04Z</time>
      </trkpt>
      <trkpt lat="28.5387670" lon="-17.8506080">
        <ele>1269.3</ele>
        <time>2020-11-17T11:22:05Z</time>
      </trkpt>
      <trkpt lat="28.5387320" lon="-17.8506120">
        <ele>1269.3</ele>
        <time>2020-11-17T11:22:06Z</time>
      </trkpt>
      <trkpt lat="28.5387320" lon="-17.8506120">
        <ele>1269.3</ele>
        <time>2020-11-17T11:22:07Z</time>
      </trkpt>
      <trkpt lat="28.5386430" lon="-17.8506300">
        <ele>1269.3</ele>
        <time>2020-11-17T11:22:08Z</time>
      </trkpt>
      <trkpt lat="28.5386020" lon="-17.8506330">
        <ele>1269.3</ele>
        <time>2020-11-17T11:22:09Z</time>
      </trkpt>
      <trkpt lat="28.5385630" lon="-17.8506380">
        <ele>1269.3</ele>
        <time>2020-11-17T11:22:10Z</time>
      </trkpt>
      <trkpt lat="28.5385630" lon="-17.8506380">
        <ele>1269.3</ele>
        <time>2020-11-17T11:22:11Z</time>
      </trkpt>
      <trkpt lat="28.5384920" lon="-17.8506600">
        <ele>1269.3</ele>
        <time>2020-11-17T11:22:12Z</time>
      </trkpt>
      <trkpt lat="28.5384600" lon="-17.8506700">
        <ele>1269.3</ele>
        <time>2020-11-17T11:22:13Z</time>
      </trkpt>
      <trkpt lat="28.5384280" lon="-17.8506750">
        <ele>1269.3</ele>
        <time>2020-11-17T11:22:14Z</time>
      </trkpt>
      <trkpt lat="28.5384280" lon="-17.8506750">
        <ele>1269.3</ele>
        <time>2020-11-17T11:22:15Z</time>
      </trkpt>
      <trkpt lat="28.5383570" lon="-17.8506830">
        <ele>1269.4</ele>
        <time>2020-11-17T11:22:16Z</time>
      </trkpt>
      <trkpt lat="28.5383320" lon="-17.8506830">
        <ele>1269.4</ele>
        <time>2020-11-17T11:22:17Z</time>
      </trkpt>
      <trkpt lat="28.5383320" lon="-17.8506830">
        <ele>1269.4</ele>
        <time>2020-11-17T11:22:18Z</time>
      </trkpt>
      <trkpt lat="28.5382820" lon="-17.8507020">
        <ele>1269.6</ele>
        <time>2020-11-17T11:22:19Z</time>
      </trkpt>
      <trkpt lat="28.5382820" lon="-17.8507020">
        <ele>1269.6</ele>
        <time>2020-11-17T11:22:20Z</time>
      </trkpt>
      <trkpt lat="28.5382250" lon="-17.8507250">
        <ele>1269.7</ele>
        <time>2020-11-17T11:22:21Z</time>
      </trkpt>
      <trkpt lat="28.5382250" lon="-17.8507250">
        <ele>1269.7</ele>
        <time>2020-11-17T11:22:22Z</time>
      </trkpt>
      <trkpt lat="28.5381770" lon="-17.8507430">
        <ele>1269.9</ele>
        <time>2020-11-17T11:22:23Z</time>
      </trkpt>
      <trkpt lat="28.5381770" lon="-17.8507430">
        <ele>1269.9</ele>
        <time>2020-11-17T11:22:24Z</time>
      </trkpt>
      <trkpt lat="28.5381230" lon="-17.8507720">
        <ele>1270.1</ele>
        <time>2020-11-17T11:22:25Z</time>
      </trkpt>
      <trkpt lat="28.5380980" lon="-17.8507870">
        <ele>1270.3</ele>
        <time>2020-11-17T11:22:26Z</time>
      </trkpt>
      <trkpt lat="28.5380980" lon="-17.8507870">
        <ele>1270.3</ele>
        <time>2020-11-17T11:22:27Z</time>
      </trkpt>
      <trkpt lat="28.5380570" lon="-17.8508050">
        <ele>1270.4</ele>
        <time>2020-11-17T11:22:28Z</time>
      </trkpt>
      <trkpt lat="28.5380570" lon="-17.8508050">
        <ele>1270.4</ele>
        <time>2020-11-17T11:22:29Z</time>
      </trkpt>
      <trkpt lat="28.5380220" lon="-17.8508130">
        <ele>1270.6</ele>
        <time>2020-11-17T11:22:30Z</time>
      </trkpt>
      <trkpt lat="28.5380220" lon="-17.8508130">
        <ele>1270.6</ele>
        <time>2020-11-17T11:22:31Z</time>
      </trkpt>
      <trkpt lat="28.5379850" lon="-17.8508280">
        <ele>1270.8</ele>
        <time>2020-11-17T11:22:32Z</time>
      </trkpt>
      <trkpt lat="28.5379850" lon="-17.8508280">
        <ele>1270.8</ele>
        <time>2020-11-17T11:22:33Z</time>
      </trkpt>
      <trkpt lat="28.5379420" lon="-17.8508430">
        <ele>1271.0</ele>
        <time>2020-11-17T11:22:34Z</time>
      </trkpt>
      <trkpt lat="28.5379420" lon="-17.8508430">
        <ele>1271.0</ele>
        <time>2020-11-17T11:22:35Z</time>
      </trkpt>
      <trkpt lat="28.5379000" lon="-17.8508600">
        <ele>1271.2</ele>
        <time>2020-11-17T11:22:36Z</time>
      </trkpt>
      <trkpt lat="28.5379000" lon="-17.8508600">
        <ele>1271.2</ele>
        <time>2020-11-17T11:22:37Z</time>
      </trkpt>
      <trkpt lat="28.5378520" lon="-17.8508830">
        <ele>1271.4</ele>
        <time>2020-11-17T11:22:38Z</time>
      </trkpt>
      <trkpt lat="28.5378520" lon="-17.8508830">
        <ele>1271.4</ele>
        <time>2020-11-17T11:22:39Z</time>
      </trkpt>
      <trkpt lat="28.5378050" lon="-17.8509000">
        <ele>1271.6</ele>
        <time>2020-11-17T11:22:40Z</time>
      </trkpt>
      <trkpt lat="28.5377820" lon="-17.8509020">
        <ele>1271.7</ele>
        <time>2020-11-17T11:22:41Z</time>
      </trkpt>
      <trkpt lat="28.5377820" lon="-17.8509020">
        <ele>1271.7</ele>
        <time>2020-11-17T11:22:42Z</time>
      </trkpt>
      <trkpt lat="28.5377500" lon="-17.8509020">
        <ele>1271.9</ele>
        <time>2020-11-17T11:22:43Z</time>
      </trkpt>
      <trkpt lat="28.5377500" lon="-17.8509020">
        <ele>1271.9</ele>
        <time>2020-11-17T11:22:44Z</time>
      </trkpt>
      <trkpt lat="28.5377220" lon="-17.8508930">
        <ele>1272.0</ele>
        <time>2020-11-17T11:22:45Z</time>
      </trkpt>
      <trkpt lat="28.5377030" lon="-17.8508880">
        <ele>1272.1</ele>
        <time>2020-11-17T11:22:46Z</time>
      </trkpt>
      <trkpt lat="28.5377030" lon="-17.8508880">
        <ele>1272.1</ele>
        <time>2020-11-17T11:22:47Z</time>
      </trkpt>
      <trkpt lat="28.5376650" lon="-17.8508780">
        <ele>1272.2</ele>
        <time>2020-11-17T11:22:48Z</time>
      </trkpt>
      <trkpt lat="28.5376450" lon="-17.8508750">
        <ele>1272.3</ele>
        <time>2020-11-17T11:22:49Z</time>
      </trkpt>
      <trkpt lat="28.5376450" lon="-17.8508750">
        <ele>1272.3</ele>
        <time>2020-11-17T11:22:50Z</time>
      </trkpt>
      <trkpt lat="28.5376050" lon="-17.8508770">
        <ele>1272.5</ele>
        <time>2020-11-17T11:22:51Z</time>
      </trkpt>
      <trkpt lat="28.5376050" lon="-17.8508770">
        <ele>1272.5</ele>
        <time>2020-11-17T11:22:52Z</time>
      </trkpt>
      <trkpt lat="28.5375600" lon="-17.8508680">
        <ele>1272.6</ele>
        <time>2020-11-17T11:22:53Z</time>
      </trkpt>
      <trkpt lat="28.5375600" lon="-17.8508680">
        <ele>1272.6</ele>
        <time>2020-11-17T11:22:54Z</time>
      </trkpt>
      <trkpt lat="28.5375120" lon="-17.8508630">
        <ele>1272.8</ele>
        <time>2020-11-17T11:22:55Z</time>
      </trkpt>
      <trkpt lat="28.5374900" lon="-17.8508570">
        <ele>1272.9</ele>
        <time>2020-11-17T11:22:56Z</time>
      </trkpt>
      <trkpt lat="28.5374900" lon="-17.8508570">
        <ele>1272.9</ele>
        <time>2020-11-17T11:22:57Z</time>
      </trkpt>
      <trkpt lat="28.5374570" lon="-17.8508500">
        <ele>1273.0</ele>
        <time>2020-11-17T11:22:58Z</time>
      </trkpt>
      <trkpt lat="28.5374420" lon="-17.8508450">
        <ele>1273.0</ele>
        <time>2020-11-17T11:22:59Z</time>
      </trkpt>
      <trkpt lat="28.5374420" lon="-17.8508450">
        <ele>1273.0</ele>
        <time>2020-11-17T11:23:00Z</time>
      </trkpt>
      <trkpt lat="28.5374100" lon="-17.8508430">
        <ele>1273.1</ele>
        <time>2020-11-17T11:23:01Z</time>
      </trkpt>
      <trkpt lat="28.5374000" lon="-17.8508450">
        <ele>1273.2</ele>
        <time>2020-11-17T11:23:02Z</time>
      </trkpt>
      <trkpt lat="28.5374000" lon="-17.8508450">
        <ele>1273.2</ele>
        <time>2020-11-17T11:23:03Z</time>
      </trkpt>
      <trkpt lat="28.5373820" lon="-17.8508480">
        <ele>1273.2</ele>
        <time>2020-11-17T11:23:04Z</time>
      </trkpt>
      <trkpt lat="28.5373820" lon="-17.8508480">
        <ele>1273.2</ele>
        <time>2020-11-17T11:23:05Z</time>
      </trkpt>
      <trkpt lat="28.5373730" lon="-17.8508480">
        <ele>1273.3</ele>
        <time>2020-11-17T11:23:06Z</time>
      </trkpt>
      <trkpt lat="28.5373730" lon="-17.8508480">
        <ele>1273.3</ele>
        <time>2020-11-17T11:23:07Z</time>
      </trkpt>
      <trkpt lat="28.5373730" lon="-17.8508480">
        <ele>1273.3</ele>
        <time>2020-11-17T11:23:12Z</time>
      </trkpt>
      <trkpt lat="28.5373730" lon="-17.8508480">
        <ele>1273.3</ele>
        <time>2020-11-17T11:23:13Z</time>
      </trkpt>
      <trkpt lat="28.5372870" lon="-17.8508330">
        <ele>1273.6</ele>
        <time>2020-11-17T11:23:14Z</time>
      </trkpt>
      <trkpt lat="28.5372870" lon="-17.8508330">
        <ele>1273.6</ele>
        <time>2020-11-17T11:23:15Z</time>
      </trkpt>
      <trkpt lat="28.5372600" lon="-17.8508170">
        <ele>1273.7</ele>
        <time>2020-11-17T11:23:16Z</time>
      </trkpt>
      <trkpt lat="28.5372530" lon="-17.8508100">
        <ele>1273.7</ele>
        <time>2020-11-17T11:23:17Z</time>
      </trkpt>
      <trkpt lat="28.5372450" lon="-17.8508030">
        <ele>1273.8</ele>
        <time>2020-11-17T11:23:18Z</time>
      </trkpt>
      <trkpt lat="28.5372450" lon="-17.8508030">
        <ele>1273.8</ele>
        <time>2020-11-17T11:23:19Z</time>
      </trkpt>
      <trkpt lat="28.5372500" lon="-17.8508130">
        <ele>1273.8</ele>
        <time>2020-11-17T11:23:20Z</time>
      </trkpt>
      <trkpt lat="28.5372500" lon="-17.8508130">
        <ele>1273.8</ele>
        <time>2020-11-17T11:23:21Z</time>
      </trkpt>
      <trkpt lat="28.5372500" lon="-17.8508180">
        <ele>1273.8</ele>
        <time>2020-11-17T11:23:22Z</time>
      </trkpt>
      <trkpt lat="28.5372500" lon="-17.8508180">
        <ele>1273.8</ele>
        <time>2020-11-17T11:23:31Z</time>
      </trkpt>
      <trkpt lat="28.5371180" lon="-17.8507970">
        <ele>1274.3</ele>
        <time>2020-11-17T11:23:32Z</time>
      </trkpt>
      <trkpt lat="28.5371000" lon="-17.8507920">
        <ele>1274.4</ele>
        <time>2020-11-17T11:23:33Z</time>
      </trkpt>
      <trkpt lat="28.5370830" lon="-17.8507880">
        <ele>1274.5</ele>
        <time>2020-11-17T11:23:34Z</time>
      </trkpt>
      <trkpt lat="28.5370830" lon="-17.8507880">
        <ele>1274.5</ele>
        <time>2020-11-17T11:23:35Z</time>
      </trkpt>
      <trkpt lat="28.5370500" lon="-17.8507820">
        <ele>1274.6</ele>
        <time>2020-11-17T11:23:36Z</time>
      </trkpt>
      <trkpt lat="28.5370500" lon="-17.8507820">
        <ele>1274.6</ele>
        <time>2020-11-17T11:23:37Z</time>
      </trkpt>
      <trkpt lat="28.5370150" lon="-17.8507870">
        <ele>1274.7</ele>
        <time>2020-11-17T11:23:38Z</time>
      </trkpt>
      <trkpt lat="28.5369980" lon="-17.8507880">
        <ele>1274.8</ele>
        <time>2020-11-17T11:23:39Z</time>
      </trkpt>
      <trkpt lat="28.5369980" lon="-17.8507880">
        <ele>1274.8</ele>
        <time>2020-11-17T11:23:40Z</time>
      </trkpt>
      <trkpt lat="28.5369620" lon="-17.8507880">
        <ele>1275.0</ele>
        <time>2020-11-17T11:23:41Z</time>
      </trkpt>
      <trkpt lat="28.5369620" lon="-17.8507880">
        <ele>1275.0</ele>
        <time>2020-11-17T11:23:42Z</time>
      </trkpt>
      <trkpt lat="28.5369200" lon="-17.8507870">
        <ele>1275.1</ele>
        <time>2020-11-17T11:23:43Z</time>
      </trkpt>
      <trkpt lat="28.5369200" lon="-17.8507870">
        <ele>1275.1</ele>
        <time>2020-11-17T11:23:44Z</time>
      </trkpt>
      <trkpt lat="28.5368780" lon="-17.8507800">
        <ele>1275.3</ele>
        <time>2020-11-17T11:23:45Z</time>
      </trkpt>
      <trkpt lat="28.5368620" lon="-17.8507800">
        <ele>1275.3</ele>
        <time>2020-11-17T11:23:46Z</time>
      </trkpt>
      <trkpt lat="28.5368620" lon="-17.8507800">
        <ele>1275.3</ele>
        <time>2020-11-17T11:23:47Z</time>
      </trkpt>
      <trkpt lat="28.5368330" lon="-17.8507830">
        <ele>1275.4</ele>
        <time>2020-11-17T11:23:48Z</time>
      </trkpt>
      <trkpt lat="28.5368330" lon="-17.8507830">
        <ele>1275.4</ele>
        <time>2020-11-17T11:23:49Z</time>
      </trkpt>
      <trkpt lat="28.5368170" lon="-17.8507850">
        <ele>1275.5</ele>
        <time>2020-11-17T11:23:50Z</time>
      </trkpt>
      <trkpt lat="28.5368170" lon="-17.8507850">
        <ele>1275.5</ele>
        <time>2020-11-17T11:23:51Z</time>
      </trkpt>
      <trkpt lat="28.5367920" lon="-17.8507820">
        <ele>1275.6</ele>
        <time>2020-11-17T11:23:52Z</time>
      </trkpt>
      <trkpt lat="28.5367920" lon="-17.8507820">
        <ele>1275.6</ele>
        <time>2020-11-17T11:23:53Z</time>
      </trkpt>
      <trkpt lat="28.5367550" lon="-17.8507770">
        <ele>1275.7</ele>
        <time>2020-11-17T11:23:54Z</time>
      </trkpt>
      <trkpt lat="28.5367550" lon="-17.8507770">
        <ele>1275.7</ele>
        <time>2020-11-17T11:23:55Z</time>
      </trkpt>
      <trkpt lat="28.5367150" lon="-17.8507700">
        <ele>1275.8</ele>
        <time>2020-11-17T11:23:56Z</time>
      </trkpt>
      <trkpt lat="28.5367150" lon="-17.8507700">
        <ele>1275.8</ele>
        <time>2020-11-17T11:23:57Z</time>
      </trkpt>
      <trkpt lat="28.5366770" lon="-17.8507700">
        <ele>1275.9</ele>
        <time>2020-11-17T11:23:58Z</time>
      </trkpt>
      <trkpt lat="28.5366620" lon="-17.8507720">
        <ele>1275.9</ele>
        <time>2020-11-17T11:23:59Z</time>
      </trkpt>
      <trkpt lat="28.5366450" lon="-17.8507720">
        <ele>1276.0</ele>
        <time>2020-11-17T11:24:00Z</time>
      </trkpt>
      <trkpt lat="28.5366270" lon="-17.8507720">
        <ele>1276.0</ele>
        <time>2020-11-17T11:24:01Z</time>
      </trkpt>
      <trkpt lat="28.5366270" lon="-17.8507720">
        <ele>1276.0</ele>
        <time>2020-11-17T11:24:02Z</time>
      </trkpt>
      <trkpt lat="28.5365920" lon="-17.8507770">
        <ele>1276.2</ele>
        <time>2020-11-17T11:24:03Z</time>
      </trkpt>
      <trkpt lat="28.5365920" lon="-17.8507770">
        <ele>1276.2</ele>
        <time>2020-11-17T11:24:04Z</time>
      </trkpt>
      <trkpt lat="28.5365530" lon="-17.8507820">
        <ele>1276.3</ele>
        <time>2020-11-17T11:24:05Z</time>
      </trkpt>
      <trkpt lat="28.5365300" lon="-17.8507900">
        <ele>1276.4</ele>
        <time>2020-11-17T11:24:06Z</time>
      </trkpt>
      <trkpt lat="28.5365300" lon="-17.8507900">
        <ele>1276.4</ele>
        <time>2020-11-17T11:24:07Z</time>
      </trkpt>
      <trkpt lat="28.5364920" lon="-17.8508030">
        <ele>1276.5</ele>
        <time>2020-11-17T11:24:08Z</time>
      </trkpt>
      <trkpt lat="28.5364920" lon="-17.8508030">
        <ele>1276.5</ele>
        <time>2020-11-17T11:24:09Z</time>
      </trkpt>
      <trkpt lat="28.5364620" lon="-17.8508100">
        <ele>1276.7</ele>
        <time>2020-11-17T11:24:10Z</time>
      </trkpt>
      <trkpt lat="28.5364620" lon="-17.8508100">
        <ele>1276.7</ele>
        <time>2020-11-17T11:24:11Z</time>
      </trkpt>
      <trkpt lat="28.5364170" lon="-17.8508200">
        <ele>1276.8</ele>
        <time>2020-11-17T11:24:12Z</time>
      </trkpt>
      <trkpt lat="28.5364170" lon="-17.8508200">
        <ele>1276.8</ele>
        <time>2020-11-17T11:24:13Z</time>
      </trkpt>
      <trkpt lat="28.5363430" lon="-17.8508380">
        <ele>1277.2</ele>
        <time>2020-11-17T11:24:14Z</time>
      </trkpt>
      <trkpt lat="28.5363430" lon="-17.8508380">
        <ele>1277.2</ele>
        <time>2020-11-17T11:24:15Z</time>
      </trkpt>
      <trkpt lat="28.5363000" lon="-17.8508330">
        <ele>1277.4</ele>
        <time>2020-11-17T11:24:16Z</time>
      </trkpt>
      <trkpt lat="28.5363000" lon="-17.8508330">
        <ele>1277.4</ele>
        <time>2020-11-17T11:24:17Z</time>
      </trkpt>
      <trkpt lat="28.5362650" lon="-17.8508330">
        <ele>1277.5</ele>
        <time>2020-11-17T11:24:18Z</time>
      </trkpt>
      <trkpt lat="28.5362650" lon="-17.8508330">
        <ele>1277.5</ele>
        <time>2020-11-17T11:24:19Z</time>
      </trkpt>
      <trkpt lat="28.5362350" lon="-17.8508230">
        <ele>1277.7</ele>
        <time>2020-11-17T11:24:20Z</time>
      </trkpt>
      <trkpt lat="28.5362100" lon="-17.8508300">
        <ele>1277.8</ele>
        <time>2020-11-17T11:24:21Z</time>
      </trkpt>
      <trkpt lat="28.5362100" lon="-17.8508300">
        <ele>1277.8</ele>
        <time>2020-11-17T11:24:22Z</time>
      </trkpt>
      <trkpt lat="28.5361650" lon="-17.8508250">
        <ele>1278.0</ele>
        <time>2020-11-17T11:24:23Z</time>
      </trkpt>
      <trkpt lat="28.5361420" lon="-17.8508230">
        <ele>1278.0</ele>
        <time>2020-11-17T11:24:24Z</time>
      </trkpt>
      <trkpt lat="28.5361420" lon="-17.8508230">
        <ele>1278.0</ele>
        <time>2020-11-17T11:24:25Z</time>
      </trkpt>
      <trkpt lat="28.5361050" lon="-17.8508130">
        <ele>1278.2</ele>
        <time>2020-11-17T11:24:26Z</time>
      </trkpt>
      <trkpt lat="28.5360850" lon="-17.8508070">
        <ele>1278.2</ele>
        <time>2020-11-17T11:24:27Z</time>
      </trkpt>
      <trkpt lat="28.5360670" lon="-17.8507980">
        <ele>1278.3</ele>
        <time>2020-11-17T11:24:28Z</time>
      </trkpt>
      <trkpt lat="28.5360670" lon="-17.8507980">
        <ele>1278.3</ele>
        <time>2020-11-17T11:24:29Z</time>
      </trkpt>
      <trkpt lat="28.5360250" lon="-17.8507780">
        <ele>1278.4</ele>
        <time>2020-11-17T11:24:30Z</time>
      </trkpt>
      <trkpt lat="28.5360250" lon="-17.8507780">
        <ele>1278.4</ele>
        <time>2020-11-17T11:24:31Z</time>
      </trkpt>
      <trkpt lat="28.5359730" lon="-17.8507650">
        <ele>1278.5</ele>
        <time>2020-11-17T11:24:32Z</time>
      </trkpt>
      <trkpt lat="28.5359520" lon="-17.8507550">
        <ele>1278.6</ele>
        <time>2020-11-17T11:24:33Z</time>
      </trkpt>
      <trkpt lat="28.5359520" lon="-17.8507550">
        <ele>1278.6</ele>
        <time>2020-11-17T11:24:34Z</time>
      </trkpt>
      <trkpt lat="28.5359120" lon="-17.8507330">
        <ele>1278.7</ele>
        <time>2020-11-17T11:24:35Z</time>
      </trkpt>
      <trkpt lat="28.5359120" lon="-17.8507330">
        <ele>1278.7</ele>
        <time>2020-11-17T11:24:36Z</time>
      </trkpt>
      <trkpt lat="28.5358570" lon="-17.8507080">
        <ele>1278.8</ele>
        <time>2020-11-17T11:24:37Z</time>
      </trkpt>
      <trkpt lat="28.5358320" lon="-17.8506920">
        <ele>1278.9</ele>
        <time>2020-11-17T11:24:38Z</time>
      </trkpt>
      <trkpt lat="28.5358320" lon="-17.8506920">
        <ele>1278.9</ele>
        <time>2020-11-17T11:24:39Z</time>
      </trkpt>
      <trkpt lat="28.5357730" lon="-17.8506830">
        <ele>1279.0</ele>
        <time>2020-11-17T11:24:40Z</time>
      </trkpt>
      <trkpt lat="28.5357730" lon="-17.8506830">
        <ele>1279.0</ele>
        <time>2020-11-17T11:24:41Z</time>
      </trkpt>
      <trkpt lat="28.5357280" lon="-17.8506680">
        <ele>1279.1</ele>
        <time>2020-11-17T11:24:42Z</time>
      </trkpt>
      <trkpt lat="28.5357000" lon="-17.8506600">
        <ele>1279.1</ele>
        <time>2020-11-17T11:24:43Z</time>
      </trkpt>
      <trkpt lat="28.5357000" lon="-17.8506600">
        <ele>1279.1</ele>
        <time>2020-11-17T11:24:44Z</time>
      </trkpt>
      <trkpt lat="28.5356350" lon="-17.8506380">
        <ele>1279.2</ele>
        <time>2020-11-17T11:24:45Z</time>
      </trkpt>
      <trkpt lat="28.5356350" lon="-17.8506380">
        <ele>1279.2</ele>
        <time>2020-11-17T11:24:46Z</time>
      </trkpt>
      <trkpt lat="28.5355650" lon="-17.8506320">
        <ele>1279.3</ele>
        <time>2020-11-17T11:24:47Z</time>
      </trkpt>
      <trkpt lat="28.5355400" lon="-17.8506280">
        <ele>1279.3</ele>
        <time>2020-11-17T11:24:48Z</time>
      </trkpt>
      <trkpt lat="28.5355220" lon="-17.8506270">
        <ele>1279.3</ele>
        <time>2020-11-17T11:24:49Z</time>
      </trkpt>
      <trkpt lat="28.5355220" lon="-17.8506270">
        <ele>1279.3</ele>
        <time>2020-11-17T11:24:50Z</time>
      </trkpt>
      <trkpt lat="28.5354820" lon="-17.8506230">
        <ele>1279.3</ele>
        <time>2020-11-17T11:24:51Z</time>
      </trkpt>
      <trkpt lat="28.5354630" lon="-17.8506220">
        <ele>1279.3</ele>
        <time>2020-11-17T11:24:52Z</time>
      </trkpt>
      <trkpt lat="28.5354400" lon="-17.8506130">
        <ele>1279.3</ele>
        <time>2020-11-17T11:24:53Z</time>
      </trkpt>
      <trkpt lat="28.5354120" lon="-17.8506150">
        <ele>1279.3</ele>
        <time>2020-11-17T11:24:54Z</time>
      </trkpt>
      <trkpt lat="28.5354120" lon="-17.8506150">
        <ele>1279.3</ele>
        <time>2020-11-17T11:24:55Z</time>
      </trkpt>
      <trkpt lat="28.5353420" lon="-17.8506230">
        <ele>1279.3</ele>
        <time>2020-11-17T11:24:56Z</time>
      </trkpt>
      <trkpt lat="28.5353420" lon="-17.8506230">
        <ele>1279.3</ele>
        <time>2020-11-17T11:24:57Z</time>
      </trkpt>
      <trkpt lat="28.5352930" lon="-17.8506170">
        <ele>1279.3</ele>
        <time>2020-11-17T11:24:58Z</time>
      </trkpt>
      <trkpt lat="28.5352700" lon="-17.8506200">
        <ele>1279.3</ele>
        <time>2020-11-17T11:24:59Z</time>
      </trkpt>
      <trkpt lat="28.5352700" lon="-17.8506200">
        <ele>1279.3</ele>
        <time>2020-11-17T11:25:00Z</time>
      </trkpt>
      <trkpt lat="28.5351970" lon="-17.8506430">
        <ele>1279.3</ele>
        <time>2020-11-17T11:25:01Z</time>
      </trkpt>
      <trkpt lat="28.5351970" lon="-17.8506430">
        <ele>1279.3</ele>
        <time>2020-11-17T11:25:02Z</time>
      </trkpt>
      <trkpt lat="28.5351320" lon="-17.8506570">
        <ele>1279.3</ele>
        <time>2020-11-17T11:25:03Z</time>
      </trkpt>
      <trkpt lat="28.5351320" lon="-17.8506570">
        <ele>1279.3</ele>
        <time>2020-11-17T11:25:04Z</time>
      </trkpt>
      <trkpt lat="28.5350600" lon="-17.8506620">
        <ele>1279.3</ele>
        <time>2020-11-17T11:25:05Z</time>
      </trkpt>
      <trkpt lat="28.5350600" lon="-17.8506620">
        <ele>1279.3</ele>
        <time>2020-11-17T11:25:06Z</time>
      </trkpt>
      <trkpt lat="28.5349770" lon="-17.8506580">
        <ele>1279.2</ele>
        <time>2020-11-17T11:25:07Z</time>
      </trkpt>
      <trkpt lat="28.5349770" lon="-17.8506580">
        <ele>1279.2</ele>
        <time>2020-11-17T11:25:08Z</time>
      </trkpt>
      <trkpt lat="28.5348800" lon="-17.8506380">
        <ele>1279.0</ele>
        <time>2020-11-17T11:25:09Z</time>
      </trkpt>
      <trkpt lat="28.5348480" lon="-17.8506150">
        <ele>1278.9</ele>
        <time>2020-11-17T11:25:10Z</time>
      </trkpt>
      <trkpt lat="28.5348480" lon="-17.8506150">
        <ele>1278.9</ele>
        <time>2020-11-17T11:25:11Z</time>
      </trkpt>
      <trkpt lat="28.5348120" lon="-17.8505850">
        <ele>1278.7</ele>
        <time>2020-11-17T11:25:12Z</time>
      </trkpt>
      <trkpt lat="28.5348120" lon="-17.8505850">
        <ele>1278.7</ele>
        <time>2020-11-17T11:25:13Z</time>
      </trkpt>
      <trkpt lat="28.5347920" lon="-17.8505520">
        <ele>1278.5</ele>
        <time>2020-11-17T11:25:14Z</time>
      </trkpt>
      <trkpt lat="28.5347920" lon="-17.8505520">
        <ele>1278.5</ele>
        <time>2020-11-17T11:25:15Z</time>
      </trkpt>
      <trkpt lat="28.5347580" lon="-17.8504980">
        <ele>1278.2</ele>
        <time>2020-11-17T11:25:16Z</time>
      </trkpt>
      <trkpt lat="28.5347580" lon="-17.8504980">
        <ele>1278.2</ele>
        <time>2020-11-17T11:25:17Z</time>
      </trkpt>
      <trkpt lat="28.5347620" lon="-17.8504170">
        <ele>1277.9</ele>
        <time>2020-11-17T11:25:18Z</time>
      </trkpt>
      <trkpt lat="28.5347620" lon="-17.8504170">
        <ele>1277.9</ele>
        <time>2020-11-17T11:25:19Z</time>
      </trkpt>
      <trkpt lat="28.5347550" lon="-17.8503120">
        <ele>1277.4</ele>
        <time>2020-11-17T11:25:20Z</time>
      </trkpt>
      <trkpt lat="28.5347380" lon="-17.8502570">
        <ele>1277.2</ele>
        <time>2020-11-17T11:25:21Z</time>
      </trkpt>
      <trkpt lat="28.5347380" lon="-17.8502570">
        <ele>1277.2</ele>
        <time>2020-11-17T11:25:22Z</time>
      </trkpt>
      <trkpt lat="28.5346680" lon="-17.8501880">
        <ele>1276.7</ele>
        <time>2020-11-17T11:25:23Z</time>
      </trkpt>
      <trkpt lat="28.5346680" lon="-17.8501880">
        <ele>1276.7</ele>
        <time>2020-11-17T11:25:24Z</time>
      </trkpt>
      <trkpt lat="28.5345700" lon="-17.8501580">
        <ele>1276.1</ele>
        <time>2020-11-17T11:25:25Z</time>
      </trkpt>
      <trkpt lat="28.5345180" lon="-17.8501520">
        <ele>1275.8</ele>
        <time>2020-11-17T11:25:26Z</time>
      </trkpt>
      <trkpt lat="28.5345180" lon="-17.8501520">
        <ele>1275.8</ele>
        <time>2020-11-17T11:25:27Z</time>
      </trkpt>
      <trkpt lat="28.5344180" lon="-17.8501630">
        <ele>1275.2</ele>
        <time>2020-11-17T11:25:28Z</time>
      </trkpt>
      <trkpt lat="28.5344180" lon="-17.8501630">
        <ele>1275.2</ele>
        <time>2020-11-17T11:25:29Z</time>
      </trkpt>
      <trkpt lat="28.5343220" lon="-17.8501970">
        <ele>1274.7</ele>
        <time>2020-11-17T11:25:30Z</time>
      </trkpt>
      <trkpt lat="28.5343220" lon="-17.8501970">
        <ele>1274.7</ele>
        <time>2020-11-17T11:25:31Z</time>
      </trkpt>
      <trkpt lat="28.5342170" lon="-17.8502530">
        <ele>1274.1</ele>
        <time>2020-11-17T11:25:32Z</time>
      </trkpt>
      <trkpt lat="28.5342170" lon="-17.8502530">
        <ele>1274.1</ele>
        <time>2020-11-17T11:25:33Z</time>
      </trkpt>
      <trkpt lat="28.5341200" lon="-17.8503320">
        <ele>1273.6</ele>
        <time>2020-11-17T11:25:34Z</time>
      </trkpt>
      <trkpt lat="28.5341200" lon="-17.8503320">
        <ele>1273.6</ele>
        <time>2020-11-17T11:25:35Z</time>
      </trkpt>
      <trkpt lat="28.5340350" lon="-17.8504120">
        <ele>1273.0</ele>
        <time>2020-11-17T11:25:36Z</time>
      </trkpt>
      <trkpt lat="28.5340350" lon="-17.8504120">
        <ele>1273.0</ele>
        <time>2020-11-17T11:25:37Z</time>
      </trkpt>
      <trkpt lat="28.5339350" lon="-17.8504430">
        <ele>1272.8</ele>
        <time>2020-11-17T11:25:38Z</time>
      </trkpt>
      <trkpt lat="28.5338870" lon="-17.8504330">
        <ele>1272.7</ele>
        <time>2020-11-17T11:25:39Z</time>
      </trkpt>
      <trkpt lat="28.5338870" lon="-17.8504330">
        <ele>1272.7</ele>
        <time>2020-11-17T11:25:40Z</time>
      </trkpt>
      <trkpt lat="28.5337850" lon="-17.8503680">
        <ele>1272.4</ele>
        <time>2020-11-17T11:25:41Z</time>
      </trkpt>
      <trkpt lat="28.5337370" lon="-17.8503370">
        <ele>1272.3</ele>
        <time>2020-11-17T11:25:42Z</time>
      </trkpt>
      <trkpt lat="28.5337370" lon="-17.8503370">
        <ele>1272.3</ele>
        <time>2020-11-17T11:25:43Z</time>
      </trkpt>
      <trkpt lat="28.5336820" lon="-17.8503170">
        <ele>1272.2</ele>
        <time>2020-11-17T11:25:44Z</time>
      </trkpt>
      <trkpt lat="28.5336820" lon="-17.8503170">
        <ele>1272.2</ele>
        <time>2020-11-17T11:25:45Z</time>
      </trkpt>
      <trkpt lat="28.5336230" lon="-17.8502850">
        <ele>1272.2</ele>
        <time>2020-11-17T11:25:46Z</time>
      </trkpt>
      <trkpt lat="28.5335850" lon="-17.8502650">
        <ele>1272.2</ele>
        <time>2020-11-17T11:25:47Z</time>
      </trkpt>
      <trkpt lat="28.5335850" lon="-17.8502650">
        <ele>1272.2</ele>
        <time>2020-11-17T11:25:48Z</time>
      </trkpt>
      <trkpt lat="28.5335050" lon="-17.8502200">
        <ele>1272.2</ele>
        <time>2020-11-17T11:25:49Z</time>
      </trkpt>
      <trkpt lat="28.5335050" lon="-17.8502200">
        <ele>1272.2</ele>
        <time>2020-11-17T11:25:50Z</time>
      </trkpt>
      <trkpt lat="28.5334100" lon="-17.8502130">
        <ele>1272.2</ele>
        <time>2020-11-17T11:25:51Z</time>
      </trkpt>
      <trkpt lat="28.5334100" lon="-17.8502130">
        <ele>1272.2</ele>
        <time>2020-11-17T11:25:52Z</time>
      </trkpt>
      <trkpt lat="28.5333350" lon="-17.8502100">
        <ele>1272.2</ele>
        <time>2020-11-17T11:25:53Z</time>
      </trkpt>
      <trkpt lat="28.5332950" lon="-17.8502180">
        <ele>1272.1</ele>
        <time>2020-11-17T11:25:54Z</time>
      </trkpt>
      <trkpt lat="28.5332950" lon="-17.8502180">
        <ele>1272.1</ele>
        <time>2020-11-17T11:25:55Z</time>
      </trkpt>
      <trkpt lat="28.5332100" lon="-17.8502370">
        <ele>1272.1</ele>
        <time>2020-11-17T11:25:56Z</time>
      </trkpt>
      <trkpt lat="28.5331670" lon="-17.8502480">
        <ele>1272.1</ele>
        <time>2020-11-17T11:25:57Z</time>
      </trkpt>
      <trkpt lat="28.5331670" lon="-17.8502480">
        <ele>1272.1</ele>
        <time>2020-11-17T11:25:58Z</time>
      </trkpt>
      <trkpt lat="28.5330770" lon="-17.8502620">
        <ele>1272.2</ele>
        <time>2020-11-17T11:25:59Z</time>
      </trkpt>
      <trkpt lat="28.5330770" lon="-17.8502620">
        <ele>1272.2</ele>
        <time>2020-11-17T11:26:00Z</time>
      </trkpt>
      <trkpt lat="28.5329970" lon="-17.8502730">
        <ele>1272.4</ele>
        <time>2020-11-17T11:26:01Z</time>
      </trkpt>
      <trkpt lat="28.5329970" lon="-17.8502730">
        <ele>1272.4</ele>
        <time>2020-11-17T11:26:02Z</time>
      </trkpt>
      <trkpt lat="28.5329130" lon="-17.8502870">
        <ele>1272.5</ele>
        <time>2020-11-17T11:26:03Z</time>
      </trkpt>
      <trkpt lat="28.5329130" lon="-17.8502870">
        <ele>1272.5</ele>
        <time>2020-11-17T11:26:04Z</time>
      </trkpt>
      <trkpt lat="28.5328170" lon="-17.8503220">
        <ele>1272.7</ele>
        <time>2020-11-17T11:26:05Z</time>
      </trkpt>
      <trkpt lat="28.5328170" lon="-17.8503220">
        <ele>1272.7</ele>
        <time>2020-11-17T11:26:06Z</time>
      </trkpt>
      <trkpt lat="28.5327200" lon="-17.8503680">
        <ele>1272.8</ele>
        <time>2020-11-17T11:26:07Z</time>
      </trkpt>
      <trkpt lat="28.5327200" lon="-17.8503680">
        <ele>1272.8</ele>
        <time>2020-11-17T11:26:08Z</time>
      </trkpt>
      <trkpt lat="28.5326280" lon="-17.8504270">
        <ele>1272.9</ele>
        <time>2020-11-17T11:26:09Z</time>
      </trkpt>
      <trkpt lat="28.5326280" lon="-17.8504270">
        <ele>1272.9</ele>
        <time>2020-11-17T11:26:10Z</time>
      </trkpt>
      <trkpt lat="28.5325350" lon="-17.8504830">
        <ele>1272.4</ele>
        <time>2020-11-17T11:26:11Z</time>
      </trkpt>
      <trkpt lat="28.5325350" lon="-17.8504830">
        <ele>1272.4</ele>
        <time>2020-11-17T11:26:12Z</time>
      </trkpt>
      <trkpt lat="28.5324330" lon="-17.8505620">
        <ele>1271.1</ele>
        <time>2020-11-17T11:26:13Z</time>
      </trkpt>
      <trkpt lat="28.5324330" lon="-17.8505620">
        <ele>1271.1</ele>
        <time>2020-11-17T11:26:14Z</time>
      </trkpt>
      <trkpt lat="28.5323220" lon="-17.8506420">
        <ele>1269.7</ele>
        <time>2020-11-17T11:26:15Z</time>
      </trkpt>
      <trkpt lat="28.5322680" lon="-17.8506770">
        <ele>1269.1</ele>
        <time>2020-11-17T11:26:16Z</time>
      </trkpt>
      <trkpt lat="28.5322680" lon="-17.8506770">
        <ele>1269.1</ele>
        <time>2020-11-17T11:26:17Z</time>
      </trkpt>
      <trkpt lat="28.5321420" lon="-17.8507720">
        <ele>1267.5</ele>
        <time>2020-11-17T11:26:18Z</time>
      </trkpt>
      <trkpt lat="28.5321420" lon="-17.8507720">
        <ele>1267.5</ele>
        <time>2020-11-17T11:26:19Z</time>
      </trkpt>
      <trkpt lat="28.5320370" lon="-17.8508530">
        <ele>1266.2</ele>
        <time>2020-11-17T11:26:20Z</time>
      </trkpt>
      <trkpt lat="28.5319950" lon="-17.8508920">
        <ele>1265.6</ele>
        <time>2020-11-17T11:26:21Z</time>
      </trkpt>
      <trkpt lat="28.5319950" lon="-17.8508920">
        <ele>1265.6</ele>
        <time>2020-11-17T11:26:22Z</time>
      </trkpt>
      <trkpt lat="28.5319280" lon="-17.8509970">
        <ele>1264.4</ele>
        <time>2020-11-17T11:26:23Z</time>
      </trkpt>
      <trkpt lat="28.5319280" lon="-17.8509970">
        <ele>1264.4</ele>
        <time>2020-11-17T11:26:24Z</time>
      </trkpt>
      <trkpt lat="28.5318680" lon="-17.8511000">
        <ele>1263.3</ele>
        <time>2020-11-17T11:26:25Z</time>
      </trkpt>
      <trkpt lat="28.5318680" lon="-17.8511000">
        <ele>1263.3</ele>
        <time>2020-11-17T11:26:26Z</time>
      </trkpt>
      <trkpt lat="28.5318030" lon="-17.8511680">
        <ele>1262.4</ele>
        <time>2020-11-17T11:26:27Z</time>
      </trkpt>
      <trkpt lat="28.5318030" lon="-17.8511680">
        <ele>1262.4</ele>
        <time>2020-11-17T11:26:28Z</time>
      </trkpt>
      <trkpt lat="28.5316920" lon="-17.8511730">
        <ele>1261.2</ele>
        <time>2020-11-17T11:26:29Z</time>
      </trkpt>
      <trkpt lat="28.5316920" lon="-17.8511730">
        <ele>1261.2</ele>
        <time>2020-11-17T11:26:30Z</time>
      </trkpt>
      <trkpt lat="28.5315730" lon="-17.8511180">
        <ele>1259.9</ele>
        <time>2020-11-17T11:26:31Z</time>
      </trkpt>
      <trkpt lat="28.5315200" lon="-17.8510950">
        <ele>1259.3</ele>
        <time>2020-11-17T11:26:32Z</time>
      </trkpt>
      <trkpt lat="28.5315200" lon="-17.8510950">
        <ele>1259.3</ele>
        <time>2020-11-17T11:26:33Z</time>
      </trkpt>
      <trkpt lat="28.5314220" lon="-17.8510380">
        <ele>1258.1</ele>
        <time>2020-11-17T11:26:34Z</time>
      </trkpt>
      <trkpt lat="28.5313730" lon="-17.8510130">
        <ele>1257.6</ele>
        <time>2020-11-17T11:26:35Z</time>
      </trkpt>
      <trkpt lat="28.5313730" lon="-17.8510130">
        <ele>1257.6</ele>
        <time>2020-11-17T11:26:36Z</time>
      </trkpt>
      <trkpt lat="28.5312780" lon="-17.8509630">
        <ele>1256.5</ele>
        <time>2020-11-17T11:26:37Z</time>
      </trkpt>
      <trkpt lat="28.5312780" lon="-17.8509630">
        <ele>1256.5</ele>
        <time>2020-11-17T11:26:38Z</time>
      </trkpt>
      <trkpt lat="28.5311880" lon="-17.8509230">
        <ele>1255.4</ele>
        <time>2020-11-17T11:26:39Z</time>
      </trkpt>
      <trkpt lat="28.5311880" lon="-17.8509230">
        <ele>1255.4</ele>
        <time>2020-11-17T11:26:40Z</time>
      </trkpt>
      <trkpt lat="28.5310970" lon="-17.8508880">
        <ele>1254.4</ele>
        <time>2020-11-17T11:26:41Z</time>
      </trkpt>
      <trkpt lat="28.5310970" lon="-17.8508880">
        <ele>1254.4</ele>
        <time>2020-11-17T11:26:42Z</time>
      </trkpt>
      <trkpt lat="28.5310000" lon="-17.8508830">
        <ele>1253.4</ele>
        <time>2020-11-17T11:26:43Z</time>
      </trkpt>
      <trkpt lat="28.5310000" lon="-17.8508830">
        <ele>1253.4</ele>
        <time>2020-11-17T11:26:44Z</time>
      </trkpt>
      <trkpt lat="28.5309080" lon="-17.8508880">
        <ele>1252.5</ele>
        <time>2020-11-17T11:26:45Z</time>
      </trkpt>
      <trkpt lat="28.5308650" lon="-17.8508880">
        <ele>1252.0</ele>
        <time>2020-11-17T11:26:46Z</time>
      </trkpt>
      <trkpt lat="28.5308650" lon="-17.8508880">
        <ele>1252.0</ele>
        <time>2020-11-17T11:26:47Z</time>
      </trkpt>
      <trkpt lat="28.5307820" lon="-17.8508730">
        <ele>1251.1</ele>
        <time>2020-11-17T11:26:48Z</time>
      </trkpt>
      <trkpt lat="28.5307820" lon="-17.8508730">
        <ele>1251.1</ele>
        <time>2020-11-17T11:26:49Z</time>
      </trkpt>
      <trkpt lat="28.5307000" lon="-17.8508380">
        <ele>1250.2</ele>
        <time>2020-11-17T11:26:50Z</time>
      </trkpt>
      <trkpt lat="28.5306630" lon="-17.8508120">
        <ele>1249.8</ele>
        <time>2020-11-17T11:26:51Z</time>
      </trkpt>
      <trkpt lat="28.5306630" lon="-17.8508120">
        <ele>1249.8</ele>
        <time>2020-11-17T11:26:52Z</time>
      </trkpt>
      <trkpt lat="28.5305880" lon="-17.8507820">
        <ele>1248.9</ele>
        <time>2020-11-17T11:26:53Z</time>
      </trkpt>
      <trkpt lat="28.5305880" lon="-17.8507820">
        <ele>1248.9</ele>
        <time>2020-11-17T11:26:54Z</time>
      </trkpt>
      <trkpt lat="28.5305220" lon="-17.8507470">
        <ele>1248.2</ele>
        <time>2020-11-17T11:26:55Z</time>
      </trkpt>
      <trkpt lat="28.5305220" lon="-17.8507470">
        <ele>1248.2</ele>
        <time>2020-11-17T11:26:56Z</time>
      </trkpt>
      <trkpt lat="28.5304530" lon="-17.8507170">
        <ele>1247.4</ele>
        <time>2020-11-17T11:26:57Z</time>
      </trkpt>
      <trkpt lat="28.5304530" lon="-17.8507170">
        <ele>1247.4</ele>
        <time>2020-11-17T11:26:58Z</time>
      </trkpt>
      <trkpt lat="28.5303900" lon="-17.8506900">
        <ele>1246.7</ele>
        <time>2020-11-17T11:26:59Z</time>
      </trkpt>
      <trkpt lat="28.5303900" lon="-17.8506900">
        <ele>1246.7</ele>
        <time>2020-11-17T11:27:00Z</time>
      </trkpt>
      <trkpt lat="28.5303080" lon="-17.8506850">
        <ele>1245.8</ele>
        <time>2020-11-17T11:27:01Z</time>
      </trkpt>
      <trkpt lat="28.5302600" lon="-17.8506900">
        <ele>1245.3</ele>
        <time>2020-11-17T11:27:02Z</time>
      </trkpt>
      <trkpt lat="28.5302600" lon="-17.8506900">
        <ele>1245.3</ele>
        <time>2020-11-17T11:27:03Z</time>
      </trkpt>
      <trkpt lat="28.5301620" lon="-17.8506930">
        <ele>1244.3</ele>
        <time>2020-11-17T11:27:04Z</time>
      </trkpt>
      <trkpt lat="28.5301620" lon="-17.8506930">
        <ele>1244.3</ele>
        <time>2020-11-17T11:27:05Z</time>
      </trkpt>
      <trkpt lat="28.5300820" lon="-17.8506970">
        <ele>1243.5</ele>
        <time>2020-11-17T11:27:06Z</time>
      </trkpt>
      <trkpt lat="28.5300330" lon="-17.8507020">
        <ele>1243.0</ele>
        <time>2020-11-17T11:27:07Z</time>
      </trkpt>
      <trkpt lat="28.5300330" lon="-17.8507020">
        <ele>1243.0</ele>
        <time>2020-11-17T11:27:08Z</time>
      </trkpt>
      <trkpt lat="28.5299420" lon="-17.8507100">
        <ele>1242.0</ele>
        <time>2020-11-17T11:27:09Z</time>
      </trkpt>
      <trkpt lat="28.5299420" lon="-17.8507100">
        <ele>1242.0</ele>
        <time>2020-11-17T11:27:10Z</time>
      </trkpt>
      <trkpt lat="28.5298530" lon="-17.8507070">
        <ele>1241.1</ele>
        <time>2020-11-17T11:27:11Z</time>
      </trkpt>
      <trkpt lat="28.5298100" lon="-17.8506950">
        <ele>1240.6</ele>
        <time>2020-11-17T11:27:12Z</time>
      </trkpt>
      <trkpt lat="28.5298100" lon="-17.8506950">
        <ele>1240.6</ele>
        <time>2020-11-17T11:27:13Z</time>
      </trkpt>
      <trkpt lat="28.5297230" lon="-17.8506550">
        <ele>1239.6</ele>
        <time>2020-11-17T11:27:14Z</time>
      </trkpt>
      <trkpt lat="28.5296730" lon="-17.8506320">
        <ele>1239.1</ele>
        <time>2020-11-17T11:27:15Z</time>
      </trkpt>
      <trkpt lat="28.5296730" lon="-17.8506320">
        <ele>1239.1</ele>
        <time>2020-11-17T11:27:16Z</time>
      </trkpt>
      <trkpt lat="28.5295800" lon="-17.8505870">
        <ele>1238.0</ele>
        <time>2020-11-17T11:27:17Z</time>
      </trkpt>
      <trkpt lat="28.5295800" lon="-17.8505870">
        <ele>1238.0</ele>
        <time>2020-11-17T11:27:18Z</time>
      </trkpt>
      <trkpt lat="28.5295050" lon="-17.8505530">
        <ele>1237.2</ele>
        <time>2020-11-17T11:27:19Z</time>
      </trkpt>
      <trkpt lat="28.5294650" lon="-17.8505470">
        <ele>1236.8</ele>
        <time>2020-11-17T11:27:20Z</time>
      </trkpt>
      <trkpt lat="28.5294650" lon="-17.8505470">
        <ele>1236.8</ele>
        <time>2020-11-17T11:27:21Z</time>
      </trkpt>
      <trkpt lat="28.5293920" lon="-17.8505220">
        <ele>1236.0</ele>
        <time>2020-11-17T11:27:22Z</time>
      </trkpt>
      <trkpt lat="28.5293920" lon="-17.8505220">
        <ele>1236.0</ele>
        <time>2020-11-17T11:27:23Z</time>
      </trkpt>
      <trkpt lat="28.5293030" lon="-17.8505280">
        <ele>1235.0</ele>
        <time>2020-11-17T11:27:24Z</time>
      </trkpt>
      <trkpt lat="28.5293030" lon="-17.8505280">
        <ele>1235.0</ele>
        <time>2020-11-17T11:27:25Z</time>
      </trkpt>
      <trkpt lat="28.5292180" lon="-17.8505350">
        <ele>1234.1</ele>
        <time>2020-11-17T11:27:26Z</time>
      </trkpt>
      <trkpt lat="28.5292180" lon="-17.8505350">
        <ele>1234.1</ele>
        <time>2020-11-17T11:27:27Z</time>
      </trkpt>
      <trkpt lat="28.5291350" lon="-17.8505430">
        <ele>1233.3</ele>
        <time>2020-11-17T11:27:28Z</time>
      </trkpt>
      <trkpt lat="28.5290970" lon="-17.8505420">
        <ele>1232.9</ele>
        <time>2020-11-17T11:27:29Z</time>
      </trkpt>
      <trkpt lat="28.5290970" lon="-17.8505420">
        <ele>1232.9</ele>
        <time>2020-11-17T11:27:30Z</time>
      </trkpt>
      <trkpt lat="28.5290200" lon="-17.8505170">
        <ele>1232.0</ele>
        <time>2020-11-17T11:27:31Z</time>
      </trkpt>
      <trkpt lat="28.5289800" lon="-17.8504980">
        <ele>1231.6</ele>
        <time>2020-11-17T11:27:32Z</time>
      </trkpt>
      <trkpt lat="28.5289420" lon="-17.8504780">
        <ele>1231.1</ele>
        <time>2020-11-17T11:27:33Z</time>
      </trkpt>
      <trkpt lat="28.5289420" lon="-17.8504780">
        <ele>1231.1</ele>
        <time>2020-11-17T11:27:34Z</time>
      </trkpt>
      <trkpt lat="28.5288700" lon="-17.8504330">
        <ele>1230.3</ele>
        <time>2020-11-17T11:27:35Z</time>
      </trkpt>
      <trkpt lat="28.5288400" lon="-17.8504080">
        <ele>1229.9</ele>
        <time>2020-11-17T11:27:36Z</time>
      </trkpt>
      <trkpt lat="28.5288400" lon="-17.8504080">
        <ele>1229.9</ele>
        <time>2020-11-17T11:27:37Z</time>
      </trkpt>
      <trkpt lat="28.5287830" lon="-17.8503530">
        <ele>1229.1</ele>
        <time>2020-11-17T11:27:38Z</time>
      </trkpt>
      <trkpt lat="28.5287550" lon="-17.8503150">
        <ele>1228.7</ele>
        <time>2020-11-17T11:27:39Z</time>
      </trkpt>
      <trkpt lat="28.5287550" lon="-17.8503150">
        <ele>1228.7</ele>
        <time>2020-11-17T11:27:40Z</time>
      </trkpt>
      <trkpt lat="28.5287070" lon="-17.8502430">
        <ele>1227.8</ele>
        <time>2020-11-17T11:27:41Z</time>
      </trkpt>
      <trkpt lat="28.5286830" lon="-17.8502130">
        <ele>1227.5</ele>
        <time>2020-11-17T11:27:42Z</time>
      </trkpt>
      <trkpt lat="28.5286830" lon="-17.8502130">
        <ele>1227.5</ele>
        <time>2020-11-17T11:27:43Z</time>
      </trkpt>
      <trkpt lat="28.5286400" lon="-17.8501480">
        <ele>1226.7</ele>
        <time>2020-11-17T11:27:44Z</time>
      </trkpt>
      <trkpt lat="28.5286400" lon="-17.8501480">
        <ele>1226.7</ele>
        <time>2020-11-17T11:27:45Z</time>
      </trkpt>
      <trkpt lat="28.5285930" lon="-17.8500820">
        <ele>1225.9</ele>
        <time>2020-11-17T11:27:46Z</time>
      </trkpt>
      <trkpt lat="28.5285930" lon="-17.8500820">
        <ele>1225.9</ele>
        <time>2020-11-17T11:27:47Z</time>
      </trkpt>
      <trkpt lat="28.5285370" lon="-17.8500050">
        <ele>1225.0</ele>
        <time>2020-11-17T11:27:48Z</time>
      </trkpt>
      <trkpt lat="28.5285370" lon="-17.8500050">
        <ele>1225.0</ele>
        <time>2020-11-17T11:27:49Z</time>
      </trkpt>
      <trkpt lat="28.5284600" lon="-17.8498970">
        <ele>1223.7</ele>
        <time>2020-11-17T11:27:50Z</time>
      </trkpt>
      <trkpt lat="28.5284600" lon="-17.8498970">
        <ele>1223.7</ele>
        <time>2020-11-17T11:27:51Z</time>
      </trkpt>
      <trkpt lat="28.5283620" lon="-17.8497900">
        <ele>1222.3</ele>
        <time>2020-11-17T11:27:52Z</time>
      </trkpt>
      <trkpt lat="28.5283070" lon="-17.8497380">
        <ele>1221.6</ele>
        <time>2020-11-17T11:27:53Z</time>
      </trkpt>
      <trkpt lat="28.5283070" lon="-17.8497380">
        <ele>1221.6</ele>
        <time>2020-11-17T11:27:54Z</time>
      </trkpt>
      <trkpt lat="28.5282050" lon="-17.8496320">
        <ele>1220.1</ele>
        <time>2020-11-17T11:27:55Z</time>
      </trkpt>
      <trkpt lat="28.5282050" lon="-17.8496320">
        <ele>1220.1</ele>
        <time>2020-11-17T11:27:56Z</time>
      </trkpt>
      <trkpt lat="28.5280980" lon="-17.8495350">
        <ele>1218.7</ele>
        <time>2020-11-17T11:27:57Z</time>
      </trkpt>
      <trkpt lat="28.5280980" lon="-17.8495350">
        <ele>1218.7</ele>
        <time>2020-11-17T11:27:58Z</time>
      </trkpt>
      <trkpt lat="28.5279970" lon="-17.8494400">
        <ele>1217.3</ele>
        <time>2020-11-17T11:27:59Z</time>
      </trkpt>
      <trkpt lat="28.5279450" lon="-17.8493880">
        <ele>1216.6</ele>
        <time>2020-11-17T11:28:00Z</time>
      </trkpt>
      <trkpt lat="28.5279450" lon="-17.8493880">
        <ele>1216.6</ele>
        <time>2020-11-17T11:28:01Z</time>
      </trkpt>
      <trkpt lat="28.5278450" lon="-17.8492830">
        <ele>1215.2</ele>
        <time>2020-11-17T11:28:02Z</time>
      </trkpt>
      <trkpt lat="28.5277970" lon="-17.8492330">
        <ele>1214.5</ele>
        <time>2020-11-17T11:28:03Z</time>
      </trkpt>
      <trkpt lat="28.5277480" lon="-17.8491900">
        <ele>1213.9</ele>
        <time>2020-11-17T11:28:04Z</time>
      </trkpt>
      <trkpt lat="28.5277480" lon="-17.8491900">
        <ele>1213.9</ele>
        <time>2020-11-17T11:28:05Z</time>
      </trkpt>
      <trkpt lat="28.5276580" lon="-17.8491120">
        <ele>1212.7</ele>
        <time>2020-11-17T11:28:06Z</time>
      </trkpt>
      <trkpt lat="28.5276580" lon="-17.8491120">
        <ele>1212.7</ele>
        <time>2020-11-17T11:28:07Z</time>
      </trkpt>
      <trkpt lat="28.5275720" lon="-17.8490200">
        <ele>1211.4</ele>
        <time>2020-11-17T11:28:08Z</time>
      </trkpt>
      <trkpt lat="28.5275720" lon="-17.8490200">
        <ele>1211.4</ele>
        <time>2020-11-17T11:28:09Z</time>
      </trkpt>
      <trkpt lat="28.5274830" lon="-17.8489250">
        <ele>1210.2</ele>
        <time>2020-11-17T11:28:10Z</time>
      </trkpt>
      <trkpt lat="28.5274380" lon="-17.8488820">
        <ele>1209.6</ele>
        <time>2020-11-17T11:28:11Z</time>
      </trkpt>
      <trkpt lat="28.5274380" lon="-17.8488820">
        <ele>1209.6</ele>
        <time>2020-11-17T11:28:12Z</time>
      </trkpt>
      <trkpt lat="28.5273500" lon="-17.8488100">
        <ele>1208.4</ele>
        <time>2020-11-17T11:28:13Z</time>
      </trkpt>
      <trkpt lat="28.5273120" lon="-17.8487820">
        <ele>1207.9</ele>
        <time>2020-11-17T11:28:14Z</time>
      </trkpt>
      <trkpt lat="28.5273120" lon="-17.8487820">
        <ele>1207.9</ele>
        <time>2020-11-17T11:28:15Z</time>
      </trkpt>
      <trkpt lat="28.5272320" lon="-17.8487370">
        <ele>1207.0</ele>
        <time>2020-11-17T11:28:16Z</time>
      </trkpt>
      <trkpt lat="28.5272320" lon="-17.8487370">
        <ele>1207.0</ele>
        <time>2020-11-17T11:28:17Z</time>
      </trkpt>
      <trkpt lat="28.5271430" lon="-17.8487070">
        <ele>1206.0</ele>
        <time>2020-11-17T11:28:18Z</time>
      </trkpt>
      <trkpt lat="28.5271430" lon="-17.8487070">
        <ele>1206.0</ele>
        <time>2020-11-17T11:28:19Z</time>
      </trkpt>
      <trkpt lat="28.5270480" lon="-17.8486900">
        <ele>1205.0</ele>
        <time>2020-11-17T11:28:20Z</time>
      </trkpt>
      <trkpt lat="28.5269950" lon="-17.8486920">
        <ele>1204.5</ele>
        <time>2020-11-17T11:28:21Z</time>
      </trkpt>
      <trkpt lat="28.5269950" lon="-17.8486920">
        <ele>1204.5</ele>
        <time>2020-11-17T11:28:22Z</time>
      </trkpt>
      <trkpt lat="28.5269020" lon="-17.8486800">
        <ele>1203.5</ele>
        <time>2020-11-17T11:28:23Z</time>
      </trkpt>
      <trkpt lat="28.5268550" lon="-17.8486700">
        <ele>1203.0</ele>
        <time>2020-11-17T11:28:24Z</time>
      </trkpt>
      <trkpt lat="28.5268550" lon="-17.8486700">
        <ele>1203.0</ele>
        <time>2020-11-17T11:28:25Z</time>
      </trkpt>
      <trkpt lat="28.5267620" lon="-17.8486530">
        <ele>1202.0</ele>
        <time>2020-11-17T11:28:26Z</time>
      </trkpt>
      <trkpt lat="28.5267620" lon="-17.8486530">
        <ele>1202.0</ele>
        <time>2020-11-17T11:28:27Z</time>
      </trkpt>
      <trkpt lat="28.5266570" lon="-17.8486430">
        <ele>1200.9</ele>
        <time>2020-11-17T11:28:28Z</time>
      </trkpt>
      <trkpt lat="28.5266570" lon="-17.8486430">
        <ele>1200.9</ele>
        <time>2020-11-17T11:28:29Z</time>
      </trkpt>
      <trkpt lat="28.5265580" lon="-17.8486320">
        <ele>1199.9</ele>
        <time>2020-11-17T11:28:30Z</time>
      </trkpt>
      <trkpt lat="28.5265580" lon="-17.8486320">
        <ele>1199.9</ele>
        <time>2020-11-17T11:28:31Z</time>
      </trkpt>
      <trkpt lat="28.5264680" lon="-17.8486280">
        <ele>1198.9</ele>
        <time>2020-11-17T11:28:32Z</time>
      </trkpt>
      <trkpt lat="28.5264200" lon="-17.8486370">
        <ele>1198.4</ele>
        <time>2020-11-17T11:28:33Z</time>
      </trkpt>
      <trkpt lat="28.5264200" lon="-17.8486370">
        <ele>1198.4</ele>
        <time>2020-11-17T11:28:34Z</time>
      </trkpt>
      <trkpt lat="28.5263250" lon="-17.8486500">
        <ele>1197.4</ele>
        <time>2020-11-17T11:28:35Z</time>
      </trkpt>
      <trkpt lat="28.5262780" lon="-17.8486520">
        <ele>1196.9</ele>
        <time>2020-11-17T11:28:36Z</time>
      </trkpt>
      <trkpt lat="28.5262780" lon="-17.8486520">
        <ele>1196.9</ele>
        <time>2020-11-17T11:28:37Z</time>
      </trkpt>
      <trkpt lat="28.5261900" lon="-17.8486780">
        <ele>1196.0</ele>
        <time>2020-11-17T11:28:38Z</time>
      </trkpt>
      <trkpt lat="28.5261900" lon="-17.8486780">
        <ele>1196.0</ele>
        <time>2020-11-17T11:28:39Z</time>
      </trkpt>
      <trkpt lat="28.5260900" lon="-17.8487280">
        <ele>1194.9</ele>
        <time>2020-11-17T11:28:40Z</time>
      </trkpt>
      <trkpt lat="28.5260900" lon="-17.8487280">
        <ele>1194.9</ele>
        <time>2020-11-17T11:28:41Z</time>
      </trkpt>
      <trkpt lat="28.5259880" lon="-17.8487870">
        <ele>1193.7</ele>
        <time>2020-11-17T11:28:42Z</time>
      </trkpt>
      <trkpt lat="28.5259880" lon="-17.8487870">
        <ele>1193.7</ele>
        <time>2020-11-17T11:28:43Z</time>
      </trkpt>
      <trkpt lat="28.5258920" lon="-17.8488420">
        <ele>1192.5</ele>
        <time>2020-11-17T11:28:44Z</time>
      </trkpt>
      <trkpt lat="28.5258470" lon="-17.8488700">
        <ele>1192.0</ele>
        <time>2020-11-17T11:28:45Z</time>
      </trkpt>
      <trkpt lat="28.5258470" lon="-17.8488700">
        <ele>1192.0</ele>
        <time>2020-11-17T11:28:46Z</time>
      </trkpt>
      <trkpt lat="28.5257530" lon="-17.8489080">
        <ele>1191.0</ele>
        <time>2020-11-17T11:28:47Z</time>
      </trkpt>
      <trkpt lat="28.5257070" lon="-17.8489130">
        <ele>1190.5</ele>
        <time>2020-11-17T11:28:48Z</time>
      </trkpt>
      <trkpt lat="28.5257070" lon="-17.8489130">
        <ele>1190.5</ele>
        <time>2020-11-17T11:28:49Z</time>
      </trkpt>
      <trkpt lat="28.5256150" lon="-17.8489170">
        <ele>1189.5</ele>
        <time>2020-11-17T11:28:50Z</time>
      </trkpt>
      <trkpt lat="28.5255650" lon="-17.8489200">
        <ele>1189.0</ele>
        <time>2020-11-17T11:28:51Z</time>
      </trkpt>
      <trkpt lat="28.5255650" lon="-17.8489200">
        <ele>1189.0</ele>
        <time>2020-11-17T11:28:52Z</time>
      </trkpt>
      <trkpt lat="28.5254850" lon="-17.8489230">
        <ele>1188.2</ele>
        <time>2020-11-17T11:28:53Z</time>
      </trkpt>
      <trkpt lat="28.5254400" lon="-17.8489330">
        <ele>1187.7</ele>
        <time>2020-11-17T11:28:54Z</time>
      </trkpt>
      <trkpt lat="28.5254400" lon="-17.8489330">
        <ele>1187.7</ele>
        <time>2020-11-17T11:28:55Z</time>
      </trkpt>
      <trkpt lat="28.5253570" lon="-17.8489580">
        <ele>1186.8</ele>
        <time>2020-11-17T11:28:56Z</time>
      </trkpt>
      <trkpt lat="28.5253570" lon="-17.8489580">
        <ele>1186.8</ele>
        <time>2020-11-17T11:28:57Z</time>
      </trkpt>
      <trkpt lat="28.5253050" lon="-17.8489720">
        <ele>1186.2</ele>
        <time>2020-11-17T11:28:58Z</time>
      </trkpt>
      <trkpt lat="28.5253050" lon="-17.8489720">
        <ele>1186.2</ele>
        <time>2020-11-17T11:28:59Z</time>
      </trkpt>
      <trkpt lat="28.5252370" lon="-17.8489900">
        <ele>1185.5</ele>
        <time>2020-11-17T11:29:00Z</time>
      </trkpt>
      <trkpt lat="28.5252370" lon="-17.8489900">
        <ele>1185.5</ele>
        <time>2020-11-17T11:29:01Z</time>
      </trkpt>
      <trkpt lat="28.5251530" lon="-17.8490070">
        <ele>1184.6</ele>
        <time>2020-11-17T11:29:02Z</time>
      </trkpt>
      <trkpt lat="28.5251130" lon="-17.8490180">
        <ele>1184.2</ele>
        <time>2020-11-17T11:29:03Z</time>
      </trkpt>
      <trkpt lat="28.5251130" lon="-17.8490180">
        <ele>1184.2</ele>
        <time>2020-11-17T11:29:04Z</time>
      </trkpt>
      <trkpt lat="28.5250420" lon="-17.8490480">
        <ele>1183.4</ele>
        <time>2020-11-17T11:29:05Z</time>
      </trkpt>
      <trkpt lat="28.5250100" lon="-17.8490620">
        <ele>1183.0</ele>
        <time>2020-11-17T11:29:06Z</time>
      </trkpt>
      <trkpt lat="28.5250100" lon="-17.8490620">
        <ele>1183.0</ele>
        <time>2020-11-17T11:29:07Z</time>
      </trkpt>
      <trkpt lat="28.5249480" lon="-17.8490680">
        <ele>1182.4</ele>
        <time>2020-11-17T11:29:08Z</time>
      </trkpt>
      <trkpt lat="28.5249480" lon="-17.8490680">
        <ele>1182.4</ele>
        <time>2020-11-17T11:29:09Z</time>
      </trkpt>
      <trkpt lat="28.5248800" lon="-17.8490370">
        <ele>1181.6</ele>
        <time>2020-11-17T11:29:10Z</time>
      </trkpt>
      <trkpt lat="28.5248800" lon="-17.8490370">
        <ele>1181.6</ele>
        <time>2020-11-17T11:29:11Z</time>
      </trkpt>
      <trkpt lat="28.5248070" lon="-17.8489830">
        <ele>1180.7</ele>
        <time>2020-11-17T11:29:12Z</time>
      </trkpt>
      <trkpt lat="28.5248070" lon="-17.8489830">
        <ele>1180.7</ele>
        <time>2020-11-17T11:29:13Z</time>
      </trkpt>
      <trkpt lat="28.5247200" lon="-17.8489620">
        <ele>1183.9</ele>
        <time>2020-11-17T11:29:14Z</time>
      </trkpt>
      <trkpt lat="28.5247200" lon="-17.8489620">
        <ele>1183.9</ele>
        <time>2020-11-17T11:29:15Z</time>
      </trkpt>
      <trkpt lat="28.5246550" lon="-17.8489530">
        <ele>1186.2</ele>
        <time>2020-11-17T11:29:16Z</time>
      </trkpt>
      <trkpt lat="28.5246330" lon="-17.8489550">
        <ele>1186.9</ele>
        <time>2020-11-17T11:29:17Z</time>
      </trkpt>
      <trkpt lat="28.5246330" lon="-17.8489550">
        <ele>1186.9</ele>
        <time>2020-11-17T11:29:18Z</time>
      </trkpt>
      <trkpt lat="28.5246070" lon="-17.8489650">
        <ele>1187.9</ele>
        <time>2020-11-17T11:29:19Z</time>
      </trkpt>
      <trkpt lat="28.5246070" lon="-17.8489650">
        <ele>1187.9</ele>
        <time>2020-11-17T11:29:20Z</time>
      </trkpt>
      <trkpt lat="28.5246020" lon="-17.8489630">
        <ele>1188.1</ele>
        <time>2020-11-17T11:29:21Z</time>
      </trkpt>
      <trkpt lat="28.5246020" lon="-17.8489630">
        <ele>1188.1</ele>
        <time>2020-11-17T11:29:22Z</time>
      </trkpt>
      <trkpt lat="28.5246000" lon="-17.8489620">
        <ele>1188.1</ele>
        <time>2020-11-17T11:29:23Z</time>
      </trkpt>
      <trkpt lat="28.5246000" lon="-17.8489620">
        <ele>1188.1</ele>
        <time>2020-11-17T11:30:39Z</time>
      </trkpt>
      <trkpt lat="28.5245580" lon="-17.8489150">
        <ele>1190.7</ele>
        <time>2020-11-17T11:30:40Z</time>
      </trkpt>
      <trkpt lat="28.5245580" lon="-17.8489150">
        <ele>1190.7</ele>
        <time>2020-11-17T11:30:41Z</time>
      </trkpt>
      <trkpt lat="28.5245580" lon="-17.8489150">
        <ele>1190.7</ele>
        <time>2020-11-17T11:30:54Z</time>
      </trkpt>
      <trkpt lat="28.5245400" lon="-17.8488730">
        <ele>1190.9</ele>
        <time>2020-11-17T11:30:55Z</time>
      </trkpt>
      <trkpt lat="28.5245400" lon="-17.8488730">
        <ele>1190.9</ele>
        <time>2020-11-17T11:30:56Z</time>
      </trkpt>
      <trkpt lat="28.5245350" lon="-17.8488630">
        <ele>1190.9</ele>
        <time>2020-11-17T11:30:57Z</time>
      </trkpt>
      <trkpt lat="28.5245350" lon="-17.8488630">
        <ele>1190.9</ele>
        <time>2020-11-17T11:30:58Z</time>
      </trkpt>
      <trkpt lat="28.5245370" lon="-17.8488600">
        <ele>1190.9</ele>
        <time>2020-11-17T11:30:59Z</time>
      </trkpt>
      <trkpt lat="28.5245370" lon="-17.8488600">
        <ele>1190.9</ele>
        <time>2020-11-17T11:31:07Z</time>
      </trkpt>
      <trkpt lat="28.5244470" lon="-17.8487870">
        <ele>1191.3</ele>
        <time>2020-11-17T11:31:08Z</time>
      </trkpt>
      <trkpt lat="28.5244470" lon="-17.8487870">
        <ele>1191.3</ele>
        <time>2020-11-17T11:31:09Z</time>
      </trkpt>
      <trkpt lat="28.5243980" lon="-17.8487770">
        <ele>1191.4</ele>
        <time>2020-11-17T11:31:10Z</time>
      </trkpt>
      <trkpt lat="28.5243870" lon="-17.8487650">
        <ele>1191.5</ele>
        <time>2020-11-17T11:31:11Z</time>
      </trkpt>
      <trkpt lat="28.5243870" lon="-17.8487650">
        <ele>1191.5</ele>
        <time>2020-11-17T11:31:12Z</time>
      </trkpt>
      <trkpt lat="28.5243580" lon="-17.8487550">
        <ele>1191.6</ele>
        <time>2020-11-17T11:31:13Z</time>
      </trkpt>
      <trkpt lat="28.5243580" lon="-17.8487550">
        <ele>1191.6</ele>
        <time>2020-11-17T11:31:14Z</time>
      </trkpt>
      <trkpt lat="28.5243300" lon="-17.8487430">
        <ele>1191.7</ele>
        <time>2020-11-17T11:31:15Z</time>
      </trkpt>
      <trkpt lat="28.5243300" lon="-17.8487430">
        <ele>1191.7</ele>
        <time>2020-11-17T11:31:16Z</time>
      </trkpt>
      <trkpt lat="28.5242980" lon="-17.8487300">
        <ele>1191.8</ele>
        <time>2020-11-17T11:31:17Z</time>
      </trkpt>
      <trkpt lat="28.5242830" lon="-17.8487230">
        <ele>1191.8</ele>
        <time>2020-11-17T11:31:18Z</time>
      </trkpt>
      <trkpt lat="28.5242830" lon="-17.8487230">
        <ele>1191.8</ele>
        <time>2020-11-17T11:31:19Z</time>
      </trkpt>
      <trkpt lat="28.5242580" lon="-17.8487150">
        <ele>1191.9</ele>
        <time>2020-11-17T11:31:20Z</time>
      </trkpt>
      <trkpt lat="28.5242580" lon="-17.8487150">
        <ele>1191.9</ele>
        <time>2020-11-17T11:31:21Z</time>
      </trkpt>
      <trkpt lat="28.5242470" lon="-17.8487100">
        <ele>1192.0</ele>
        <time>2020-11-17T11:31:22Z</time>
      </trkpt>
      <trkpt lat="28.5242420" lon="-17.8487050">
        <ele>1192.0</ele>
        <time>2020-11-17T11:31:23Z</time>
      </trkpt>
      <trkpt lat="28.5242420" lon="-17.8487050">
        <ele>1192.0</ele>
        <time>2020-11-17T11:31:24Z</time>
      </trkpt>
      <trkpt lat="28.5242220" lon="-17.8487020">
        <ele>1192.1</ele>
        <time>2020-11-17T11:31:25Z</time>
      </trkpt>
      <trkpt lat="28.5242220" lon="-17.8487020">
        <ele>1192.1</ele>
        <time>2020-11-17T11:31:26Z</time>
      </trkpt>
      <trkpt lat="28.5241930" lon="-17.8487020">
        <ele>1192.2</ele>
        <time>2020-11-17T11:31:27Z</time>
      </trkpt>
      <trkpt lat="28.5241930" lon="-17.8487020">
        <ele>1192.2</ele>
        <time>2020-11-17T11:31:28Z</time>
      </trkpt>
      <trkpt lat="28.5241620" lon="-17.8486970">
        <ele>1192.4</ele>
        <time>2020-11-17T11:31:29Z</time>
      </trkpt>
      <trkpt lat="28.5241430" lon="-17.8486900">
        <ele>1192.5</ele>
        <time>2020-11-17T11:31:30Z</time>
      </trkpt>
      <trkpt lat="28.5241430" lon="-17.8486900">
        <ele>1192.5</ele>
        <time>2020-11-17T11:31:31Z</time>
      </trkpt>
      <trkpt lat="28.5241000" lon="-17.8486630">
        <ele>1192.9</ele>
        <time>2020-11-17T11:31:32Z</time>
      </trkpt>
      <trkpt lat="28.5240780" lon="-17.8486600">
        <ele>1193.0</ele>
        <time>2020-11-17T11:31:33Z</time>
      </trkpt>
      <trkpt lat="28.5240570" lon="-17.8486570">
        <ele>1193.2</ele>
        <time>2020-11-17T11:31:34Z</time>
      </trkpt>
      <trkpt lat="28.5240570" lon="-17.8486570">
        <ele>1193.2</ele>
        <time>2020-11-17T11:31:35Z</time>
      </trkpt>
      <trkpt lat="28.5240230" lon="-17.8486500">
        <ele>1193.5</ele>
        <time>2020-11-17T11:31:36Z</time>
      </trkpt>
      <trkpt lat="28.5240230" lon="-17.8486500">
        <ele>1193.5</ele>
        <time>2020-11-17T11:31:37Z</time>
      </trkpt>
      <trkpt lat="28.5239920" lon="-17.8486420">
        <ele>1193.8</ele>
        <time>2020-11-17T11:31:38Z</time>
      </trkpt>
      <trkpt lat="28.5239920" lon="-17.8486420">
        <ele>1193.8</ele>
        <time>2020-11-17T11:31:39Z</time>
      </trkpt>
      <trkpt lat="28.5239730" lon="-17.8486330">
        <ele>1194.0</ele>
        <time>2020-11-17T11:31:40Z</time>
      </trkpt>
      <trkpt lat="28.5239650" lon="-17.8486300">
        <ele>1194.1</ele>
        <time>2020-11-17T11:31:41Z</time>
      </trkpt>
      <trkpt lat="28.5239650" lon="-17.8486300">
        <ele>1194.1</ele>
        <time>2020-11-17T11:31:42Z</time>
      </trkpt>
      <trkpt lat="28.5239430" lon="-17.8486180">
        <ele>1194.3</ele>
        <time>2020-11-17T11:31:43Z</time>
      </trkpt>
      <trkpt lat="28.5239270" lon="-17.8486180">
        <ele>1194.5</ele>
        <time>2020-11-17T11:31:44Z</time>
      </trkpt>
      <trkpt lat="28.5239150" lon="-17.8486130">
        <ele>1194.6</ele>
        <time>2020-11-17T11:31:45Z</time>
      </trkpt>
      <trkpt lat="28.5239150" lon="-17.8486130">
        <ele>1194.6</ele>
        <time>2020-11-17T11:31:46Z</time>
      </trkpt>
      <trkpt lat="28.5238850" lon="-17.8486100">
        <ele>1194.9</ele>
        <time>2020-11-17T11:31:47Z</time>
      </trkpt>
      <trkpt lat="28.5238700" lon="-17.8486100">
        <ele>1195.0</ele>
        <time>2020-11-17T11:31:48Z</time>
      </trkpt>
      <trkpt lat="28.5238700" lon="-17.8486100">
        <ele>1195.0</ele>
        <time>2020-11-17T11:31:49Z</time>
      </trkpt>
      <trkpt lat="28.5238380" lon="-17.8486070">
        <ele>1195.3</ele>
        <time>2020-11-17T11:31:50Z</time>
      </trkpt>
      <trkpt lat="28.5238380" lon="-17.8486070">
        <ele>1195.3</ele>
        <time>2020-11-17T11:31:51Z</time>
      </trkpt>
      <trkpt lat="28.5238120" lon="-17.8485930">
        <ele>1195.6</ele>
        <time>2020-11-17T11:31:52Z</time>
      </trkpt>
      <trkpt lat="28.5238120" lon="-17.8485930">
        <ele>1195.6</ele>
        <time>2020-11-17T11:31:53Z</time>
      </trkpt>
      <trkpt lat="28.5237820" lon="-17.8485850">
        <ele>1195.9</ele>
        <time>2020-11-17T11:31:54Z</time>
      </trkpt>
      <trkpt lat="28.5237820" lon="-17.8485850">
        <ele>1195.9</ele>
        <time>2020-11-17T11:31:55Z</time>
      </trkpt>
      <trkpt lat="28.5237500" lon="-17.8485750">
        <ele>1196.1</ele>
        <time>2020-11-17T11:31:56Z</time>
      </trkpt>
      <trkpt lat="28.5237500" lon="-17.8485750">
        <ele>1196.1</ele>
        <time>2020-11-17T11:31:57Z</time>
      </trkpt>
      <trkpt lat="28.5237220" lon="-17.8485620">
        <ele>1196.4</ele>
        <time>2020-11-17T11:31:58Z</time>
      </trkpt>
      <trkpt lat="28.5236950" lon="-17.8485650">
        <ele>1196.6</ele>
        <time>2020-11-17T11:31:59Z</time>
      </trkpt>
      <trkpt lat="28.5236950" lon="-17.8485650">
        <ele>1196.6</ele>
        <time>2020-11-17T11:32:00Z</time>
      </trkpt>
      <trkpt lat="28.5236550" lon="-17.8485550">
        <ele>1196.9</ele>
        <time>2020-11-17T11:32:01Z</time>
      </trkpt>
      <trkpt lat="28.5236550" lon="-17.8485550">
        <ele>1196.9</ele>
        <time>2020-11-17T11:32:02Z</time>
      </trkpt>
      <trkpt lat="28.5236350" lon="-17.8485370">
        <ele>1197.0</ele>
        <time>2020-11-17T11:32:03Z</time>
      </trkpt>
      <trkpt lat="28.5236350" lon="-17.8485370">
        <ele>1197.0</ele>
        <time>2020-11-17T11:32:04Z</time>
      </trkpt>
      <trkpt lat="28.5235900" lon="-17.8485430">
        <ele>1197.3</ele>
        <time>2020-11-17T11:32:05Z</time>
      </trkpt>
      <trkpt lat="28.5235670" lon="-17.8485430">
        <ele>1197.5</ele>
        <time>2020-11-17T11:32:06Z</time>
      </trkpt>
      <trkpt lat="28.5235670" lon="-17.8485430">
        <ele>1197.5</ele>
        <time>2020-11-17T11:32:07Z</time>
      </trkpt>
      <trkpt lat="28.5235500" lon="-17.8485300">
        <ele>1197.6</ele>
        <time>2020-11-17T11:32:08Z</time>
      </trkpt>
      <trkpt lat="28.5235500" lon="-17.8485300">
        <ele>1197.6</ele>
        <time>2020-11-17T11:32:09Z</time>
      </trkpt>
      <trkpt lat="28.5235270" lon="-17.8485180">
        <ele>1197.8</ele>
        <time>2020-11-17T11:32:10Z</time>
      </trkpt>
      <trkpt lat="28.5235100" lon="-17.8485120">
        <ele>1197.9</ele>
        <time>2020-11-17T11:32:11Z</time>
      </trkpt>
      <trkpt lat="28.5235100" lon="-17.8485120">
        <ele>1197.9</ele>
        <time>2020-11-17T11:32:12Z</time>
      </trkpt>
      <trkpt lat="28.5234750" lon="-17.8484950">
        <ele>1198.2</ele>
        <time>2020-11-17T11:32:13Z</time>
      </trkpt>
      <trkpt lat="28.5234750" lon="-17.8484950">
        <ele>1198.2</ele>
        <time>2020-11-17T11:32:14Z</time>
      </trkpt>
      <trkpt lat="28.5234380" lon="-17.8484770">
        <ele>1198.5</ele>
        <time>2020-11-17T11:32:15Z</time>
      </trkpt>
      <trkpt lat="28.5234380" lon="-17.8484770">
        <ele>1198.5</ele>
        <time>2020-11-17T11:32:16Z</time>
      </trkpt>
      <trkpt lat="28.5233850" lon="-17.8484780">
        <ele>1198.8</ele>
        <time>2020-11-17T11:32:17Z</time>
      </trkpt>
      <trkpt lat="28.5233600" lon="-17.8484800">
        <ele>1199.0</ele>
        <time>2020-11-17T11:32:18Z</time>
      </trkpt>
      <trkpt lat="28.5233600" lon="-17.8484800">
        <ele>1199.0</ele>
        <time>2020-11-17T11:32:19Z</time>
      </trkpt>
      <trkpt lat="28.5233250" lon="-17.8484770">
        <ele>1199.1</ele>
        <time>2020-11-17T11:32:20Z</time>
      </trkpt>
      <trkpt lat="28.5233250" lon="-17.8484770">
        <ele>1199.1</ele>
        <time>2020-11-17T11:32:21Z</time>
      </trkpt>
      <trkpt lat="28.5232870" lon="-17.8484680">
        <ele>1199.2</ele>
        <time>2020-11-17T11:32:22Z</time>
      </trkpt>
      <trkpt lat="28.5232870" lon="-17.8484680">
        <ele>1199.2</ele>
        <time>2020-11-17T11:32:23Z</time>
      </trkpt>
      <trkpt lat="28.5232420" lon="-17.8484630">
        <ele>1199.3</ele>
        <time>2020-11-17T11:32:24Z</time>
      </trkpt>
      <trkpt lat="28.5232420" lon="-17.8484630">
        <ele>1199.3</ele>
        <time>2020-11-17T11:32:25Z</time>
      </trkpt>
      <trkpt lat="28.5232000" lon="-17.8484600">
        <ele>1199.2</ele>
        <time>2020-11-17T11:32:26Z</time>
      </trkpt>
      <trkpt lat="28.5231820" lon="-17.8484620">
        <ele>1199.2</ele>
        <time>2020-11-17T11:32:27Z</time>
      </trkpt>
      <trkpt lat="28.5231820" lon="-17.8484620">
        <ele>1199.2</ele>
        <time>2020-11-17T11:32:28Z</time>
      </trkpt>
      <trkpt lat="28.5231350" lon="-17.8484630">
        <ele>1199.1</ele>
        <time>2020-11-17T11:32:29Z</time>
      </trkpt>
      <trkpt lat="28.5231350" lon="-17.8484630">
        <ele>1199.1</ele>
        <time>2020-11-17T11:32:30Z</time>
      </trkpt>
      <trkpt lat="28.5230770" lon="-17.8484450">
        <ele>1198.8</ele>
        <time>2020-11-17T11:32:31Z</time>
      </trkpt>
      <trkpt lat="28.5230770" lon="-17.8484450">
        <ele>1198.8</ele>
        <time>2020-11-17T11:32:32Z</time>
      </trkpt>
      <trkpt lat="28.5230080" lon="-17.8484250">
        <ele>1198.4</ele>
        <time>2020-11-17T11:32:33Z</time>
      </trkpt>
      <trkpt lat="28.5230080" lon="-17.8484250">
        <ele>1198.4</ele>
        <time>2020-11-17T11:32:34Z</time>
      </trkpt>
      <trkpt lat="28.5229470" lon="-17.8483900">
        <ele>1197.9</ele>
        <time>2020-11-17T11:32:35Z</time>
      </trkpt>
      <trkpt lat="28.5229470" lon="-17.8483900">
        <ele>1197.9</ele>
        <time>2020-11-17T11:32:36Z</time>
      </trkpt>
      <trkpt lat="28.5228770" lon="-17.8483720">
        <ele>1197.4</ele>
        <time>2020-11-17T11:32:37Z</time>
      </trkpt>
      <trkpt lat="28.5228430" lon="-17.8483600">
        <ele>1197.1</ele>
        <time>2020-11-17T11:32:38Z</time>
      </trkpt>
      <trkpt lat="28.5228430" lon="-17.8483600">
        <ele>1197.1</ele>
        <time>2020-11-17T11:32:39Z</time>
      </trkpt>
      <trkpt lat="28.5227750" lon="-17.8483300">
        <ele>1196.6</ele>
        <time>2020-11-17T11:32:40Z</time>
      </trkpt>
      <trkpt lat="28.5227380" lon="-17.8483200">
        <ele>1196.3</ele>
        <time>2020-11-17T11:32:41Z</time>
      </trkpt>
      <trkpt lat="28.5227000" lon="-17.8483050">
        <ele>1196.0</ele>
        <time>2020-11-17T11:32:42Z</time>
      </trkpt>
      <trkpt lat="28.5227000" lon="-17.8483050">
        <ele>1196.0</ele>
        <time>2020-11-17T11:32:43Z</time>
      </trkpt>
      <trkpt lat="28.5226270" lon="-17.8482750">
        <ele>1195.5</ele>
        <time>2020-11-17T11:32:44Z</time>
      </trkpt>
      <trkpt lat="28.5225880" lon="-17.8482630">
        <ele>1195.2</ele>
        <time>2020-11-17T11:32:45Z</time>
      </trkpt>
      <trkpt lat="28.5225880" lon="-17.8482630">
        <ele>1195.2</ele>
        <time>2020-11-17T11:32:46Z</time>
      </trkpt>
      <trkpt lat="28.5225220" lon="-17.8482400">
        <ele>1194.7</ele>
        <time>2020-11-17T11:32:47Z</time>
      </trkpt>
      <trkpt lat="28.5224880" lon="-17.8482330">
        <ele>1194.5</ele>
        <time>2020-11-17T11:32:48Z</time>
      </trkpt>
      <trkpt lat="28.5224880" lon="-17.8482330">
        <ele>1194.5</ele>
        <time>2020-11-17T11:32:49Z</time>
      </trkpt>
      <trkpt lat="28.5224220" lon="-17.8482230">
        <ele>1194.0</ele>
        <time>2020-11-17T11:32:50Z</time>
      </trkpt>
      <trkpt lat="28.5224220" lon="-17.8482230">
        <ele>1194.0</ele>
        <time>2020-11-17T11:32:51Z</time>
      </trkpt>
      <trkpt lat="28.5223650" lon="-17.8482170">
        <ele>1193.6</ele>
        <time>2020-11-17T11:32:52Z</time>
      </trkpt>
      <trkpt lat="28.5223650" lon="-17.8482170">
        <ele>1193.6</ele>
        <time>2020-11-17T11:32:53Z</time>
      </trkpt>
      <trkpt lat="28.5223130" lon="-17.8481930">
        <ele>1193.1</ele>
        <time>2020-11-17T11:32:54Z</time>
      </trkpt>
      <trkpt lat="28.5223130" lon="-17.8481930">
        <ele>1193.1</ele>
        <time>2020-11-17T11:32:55Z</time>
      </trkpt>
      <trkpt lat="28.5222600" lon="-17.8481750">
        <ele>1192.6</ele>
        <time>2020-11-17T11:32:56Z</time>
      </trkpt>
      <trkpt lat="28.5222600" lon="-17.8481750">
        <ele>1192.6</ele>
        <time>2020-11-17T11:32:57Z</time>
      </trkpt>
      <trkpt lat="28.5221970" lon="-17.8481580">
        <ele>1192.1</ele>
        <time>2020-11-17T11:32:58Z</time>
      </trkpt>
      <trkpt lat="28.5221700" lon="-17.8481500">
        <ele>1191.8</ele>
        <time>2020-11-17T11:32:59Z</time>
      </trkpt>
      <trkpt lat="28.5221700" lon="-17.8481500">
        <ele>1191.8</ele>
        <time>2020-11-17T11:33:00Z</time>
      </trkpt>
      <trkpt lat="28.5221180" lon="-17.8481420">
        <ele>1191.4</ele>
        <time>2020-11-17T11:33:01Z</time>
      </trkpt>
      <trkpt lat="28.5221180" lon="-17.8481420">
        <ele>1191.4</ele>
        <time>2020-11-17T11:33:02Z</time>
      </trkpt>
      <trkpt lat="28.5220470" lon="-17.8481230">
        <ele>1190.8</ele>
        <time>2020-11-17T11:33:03Z</time>
      </trkpt>
      <trkpt lat="28.5220470" lon="-17.8481230">
        <ele>1190.8</ele>
        <time>2020-11-17T11:33:04Z</time>
      </trkpt>
      <trkpt lat="28.5219770" lon="-17.8481030">
        <ele>1190.2</ele>
        <time>2020-11-17T11:33:05Z</time>
      </trkpt>
      <trkpt lat="28.5219430" lon="-17.8480900">
        <ele>1190.0</ele>
        <time>2020-11-17T11:33:06Z</time>
      </trkpt>
      <trkpt lat="28.5219430" lon="-17.8480900">
        <ele>1190.0</ele>
        <time>2020-11-17T11:33:07Z</time>
      </trkpt>
      <trkpt lat="28.5218830" lon="-17.8480530">
        <ele>1189.5</ele>
        <time>2020-11-17T11:33:08Z</time>
      </trkpt>
      <trkpt lat="28.5218830" lon="-17.8480530">
        <ele>1189.5</ele>
        <time>2020-11-17T11:33:09Z</time>
      </trkpt>
      <trkpt lat="28.5218200" lon="-17.8480170">
        <ele>1189.1</ele>
        <time>2020-11-17T11:33:10Z</time>
      </trkpt>
      <trkpt lat="28.5217920" lon="-17.8479930">
        <ele>1188.9</ele>
        <time>2020-11-17T11:33:11Z</time>
      </trkpt>
      <trkpt lat="28.5217670" lon="-17.8479670">
        <ele>1188.8</ele>
        <time>2020-11-17T11:33:12Z</time>
      </trkpt>
      <trkpt lat="28.5217670" lon="-17.8479670">
        <ele>1188.8</ele>
        <time>2020-11-17T11:33:13Z</time>
      </trkpt>
      <trkpt lat="28.5217200" lon="-17.8479200">
        <ele>1188.5</ele>
        <time>2020-11-17T11:33:14Z</time>
      </trkpt>
      <trkpt lat="28.5217200" lon="-17.8479200">
        <ele>1188.5</ele>
        <time>2020-11-17T11:33:15Z</time>
      </trkpt>
      <trkpt lat="28.5216730" lon="-17.8478600">
        <ele>1188.3</ele>
        <time>2020-11-17T11:33:16Z</time>
      </trkpt>
      <trkpt lat="28.5216730" lon="-17.8478600">
        <ele>1188.3</ele>
        <time>2020-11-17T11:33:17Z</time>
      </trkpt>
      <trkpt lat="28.5216070" lon="-17.8477970">
        <ele>1188.1</ele>
        <time>2020-11-17T11:33:18Z</time>
      </trkpt>
      <trkpt lat="28.5216070" lon="-17.8477970">
        <ele>1188.1</ele>
        <time>2020-11-17T11:33:19Z</time>
      </trkpt>
      <trkpt lat="28.5215450" lon="-17.8477380">
        <ele>1187.9</ele>
        <time>2020-11-17T11:33:20Z</time>
      </trkpt>
      <trkpt lat="28.5215450" lon="-17.8477380">
        <ele>1187.9</ele>
        <time>2020-11-17T11:33:21Z</time>
      </trkpt>
      <trkpt lat="28.5214800" lon="-17.8476830">
        <ele>1187.7</ele>
        <time>2020-11-17T11:33:22Z</time>
      </trkpt>
      <trkpt lat="28.5214800" lon="-17.8476830">
        <ele>1187.7</ele>
        <time>2020-11-17T11:33:23Z</time>
      </trkpt>
      <trkpt lat="28.5214100" lon="-17.8476080">
        <ele>1187.4</ele>
        <time>2020-11-17T11:33:24Z</time>
      </trkpt>
      <trkpt lat="28.5214100" lon="-17.8476080">
        <ele>1187.4</ele>
        <time>2020-11-17T11:33:25Z</time>
      </trkpt>
      <trkpt lat="28.5213580" lon="-17.8475430">
        <ele>1187.2</ele>
        <time>2020-11-17T11:33:26Z</time>
      </trkpt>
      <trkpt lat="28.5213580" lon="-17.8475430">
        <ele>1187.2</ele>
        <time>2020-11-17T11:33:27Z</time>
      </trkpt>
      <trkpt lat="28.5212970" lon="-17.8475080">
        <ele>1187.0</ele>
        <time>2020-11-17T11:33:28Z</time>
      </trkpt>
      <trkpt lat="28.5212970" lon="-17.8475080">
        <ele>1187.0</ele>
        <time>2020-11-17T11:33:29Z</time>
      </trkpt>
      <trkpt lat="28.5212220" lon="-17.8475000">
        <ele>1186.9</ele>
        <time>2020-11-17T11:33:30Z</time>
      </trkpt>
      <trkpt lat="28.5212220" lon="-17.8475000">
        <ele>1186.9</ele>
        <time>2020-11-17T11:33:31Z</time>
      </trkpt>
      <trkpt lat="28.5211300" lon="-17.8474970">
        <ele>1186.8</ele>
        <time>2020-11-17T11:33:32Z</time>
      </trkpt>
      <trkpt lat="28.5210930" lon="-17.8474950">
        <ele>1186.7</ele>
        <time>2020-11-17T11:33:33Z</time>
      </trkpt>
      <trkpt lat="28.5210930" lon="-17.8474950">
        <ele>1186.7</ele>
        <time>2020-11-17T11:33:34Z</time>
      </trkpt>
      <trkpt lat="28.5210320" lon="-17.8474830">
        <ele>1186.7</ele>
        <time>2020-11-17T11:33:35Z</time>
      </trkpt>
      <trkpt lat="28.5210320" lon="-17.8474830">
        <ele>1186.7</ele>
        <time>2020-11-17T11:33:36Z</time>
      </trkpt>
      <trkpt lat="28.5209600" lon="-17.8474650">
        <ele>1186.5</ele>
        <time>2020-11-17T11:33:37Z</time>
      </trkpt>
      <trkpt lat="28.5209270" lon="-17.8474470">
        <ele>1186.5</ele>
        <time>2020-11-17T11:33:38Z</time>
      </trkpt>
      <trkpt lat="28.5209270" lon="-17.8474470">
        <ele>1186.5</ele>
        <time>2020-11-17T11:33:39Z</time>
      </trkpt>
      <trkpt lat="28.5208580" lon="-17.8474050">
        <ele>1186.3</ele>
        <time>2020-11-17T11:33:40Z</time>
      </trkpt>
      <trkpt lat="28.5208220" lon="-17.8473770">
        <ele>1186.2</ele>
        <time>2020-11-17T11:33:41Z</time>
      </trkpt>
      <trkpt lat="28.5207880" lon="-17.8473550">
        <ele>1186.1</ele>
        <time>2020-11-17T11:33:42Z</time>
      </trkpt>
      <trkpt lat="28.5207880" lon="-17.8473550">
        <ele>1186.1</ele>
        <time>2020-11-17T11:33:43Z</time>
      </trkpt>
      <trkpt lat="28.5207230" lon="-17.8473080">
        <ele>1185.9</ele>
        <time>2020-11-17T11:33:44Z</time>
      </trkpt>
      <trkpt lat="28.5207230" lon="-17.8473080">
        <ele>1185.9</ele>
        <time>2020-11-17T11:33:45Z</time>
      </trkpt>
      <trkpt lat="28.5206620" lon="-17.8472630">
        <ele>1185.8</ele>
        <time>2020-11-17T11:33:46Z</time>
      </trkpt>
      <trkpt lat="28.5206620" lon="-17.8472630">
        <ele>1185.8</ele>
        <time>2020-11-17T11:33:47Z</time>
      </trkpt>
      <trkpt lat="28.5206050" lon="-17.8472130">
        <ele>1185.5</ele>
        <time>2020-11-17T11:33:48Z</time>
      </trkpt>
      <trkpt lat="28.5205780" lon="-17.8471870">
        <ele>1185.4</ele>
        <time>2020-11-17T11:33:49Z</time>
      </trkpt>
      <trkpt lat="28.5205780" lon="-17.8471870">
        <ele>1185.4</ele>
        <time>2020-11-17T11:33:50Z</time>
      </trkpt>
      <trkpt lat="28.5205230" lon="-17.8471270">
        <ele>1185.0</ele>
        <time>2020-11-17T11:33:51Z</time>
      </trkpt>
      <trkpt lat="28.5205230" lon="-17.8471270">
        <ele>1185.0</ele>
        <time>2020-11-17T11:33:52Z</time>
      </trkpt>
      <trkpt lat="28.5204780" lon="-17.8470680">
        <ele>1184.6</ele>
        <time>2020-11-17T11:33:53Z</time>
      </trkpt>
      <trkpt lat="28.5204530" lon="-17.8470470">
        <ele>1184.5</ele>
        <time>2020-11-17T11:33:54Z</time>
      </trkpt>
      <trkpt lat="28.5204530" lon="-17.8470470">
        <ele>1184.5</ele>
        <time>2020-11-17T11:33:55Z</time>
      </trkpt>
      <trkpt lat="28.5204130" lon="-17.8470080">
        <ele>1184.2</ele>
        <time>2020-11-17T11:33:56Z</time>
      </trkpt>
      <trkpt lat="28.5204130" lon="-17.8470080">
        <ele>1184.2</ele>
        <time>2020-11-17T11:33:57Z</time>
      </trkpt>
      <trkpt lat="28.5203750" lon="-17.8469730">
        <ele>1183.9</ele>
        <time>2020-11-17T11:33:58Z</time>
      </trkpt>
      <trkpt lat="28.5203750" lon="-17.8469730">
        <ele>1183.9</ele>
        <time>2020-11-17T11:33:59Z</time>
      </trkpt>
      <trkpt lat="28.5203370" lon="-17.8469450">
        <ele>1183.7</ele>
        <time>2020-11-17T11:34:00Z</time>
      </trkpt>
      <trkpt lat="28.5203370" lon="-17.8469450">
        <ele>1183.7</ele>
        <time>2020-11-17T11:34:01Z</time>
      </trkpt>
      <trkpt lat="28.5203030" lon="-17.8469200">
        <ele>1183.5</ele>
        <time>2020-11-17T11:34:02Z</time>
      </trkpt>
      <trkpt lat="28.5203030" lon="-17.8469200">
        <ele>1183.5</ele>
        <time>2020-11-17T11:34:03Z</time>
      </trkpt>
      <trkpt lat="28.5202380" lon="-17.8468750">
        <ele>1183.0</ele>
        <time>2020-11-17T11:34:04Z</time>
      </trkpt>
      <trkpt lat="28.5202380" lon="-17.8468750">
        <ele>1183.0</ele>
        <time>2020-11-17T11:34:05Z</time>
      </trkpt>
      <trkpt lat="28.5201880" lon="-17.8468200">
        <ele>1182.6</ele>
        <time>2020-11-17T11:34:06Z</time>
      </trkpt>
      <trkpt lat="28.5201880" lon="-17.8468200">
        <ele>1182.6</ele>
        <time>2020-11-17T11:34:07Z</time>
      </trkpt>
      <trkpt lat="28.5201420" lon="-17.8467620">
        <ele>1182.2</ele>
        <time>2020-11-17T11:34:08Z</time>
      </trkpt>
      <trkpt lat="28.5201420" lon="-17.8467620">
        <ele>1182.2</ele>
        <time>2020-11-17T11:34:09Z</time>
      </trkpt>
      <trkpt lat="28.5201100" lon="-17.8467000">
        <ele>1181.8</ele>
        <time>2020-11-17T11:34:10Z</time>
      </trkpt>
      <trkpt lat="28.5201070" lon="-17.8466680">
        <ele>1181.7</ele>
        <time>2020-11-17T11:34:11Z</time>
      </trkpt>
      <trkpt lat="28.5201070" lon="-17.8466680">
        <ele>1181.7</ele>
        <time>2020-11-17T11:34:12Z</time>
      </trkpt>
      <trkpt lat="28.5201020" lon="-17.8465930">
        <ele>1181.3</ele>
        <time>2020-11-17T11:34:13Z</time>
      </trkpt>
      <trkpt lat="28.5201020" lon="-17.8465930">
        <ele>1181.3</ele>
        <time>2020-11-17T11:34:14Z</time>
      </trkpt>
      <trkpt lat="28.5201080" lon="-17.8465170">
        <ele>1180.9</ele>
        <time>2020-11-17T11:34:15Z</time>
      </trkpt>
      <trkpt lat="28.5201170" lon="-17.8464820">
        <ele>1180.7</ele>
        <time>2020-11-17T11:34:16Z</time>
      </trkpt>
      <trkpt lat="28.5201170" lon="-17.8464820">
        <ele>1180.7</ele>
        <time>2020-11-17T11:34:17Z</time>
      </trkpt>
      <trkpt lat="28.5201380" lon="-17.8464120">
        <ele>1180.4</ele>
        <time>2020-11-17T11:34:18Z</time>
      </trkpt>
      <trkpt lat="28.5201380" lon="-17.8464120">
        <ele>1180.4</ele>
        <time>2020-11-17T11:34:19Z</time>
      </trkpt>
      <trkpt lat="28.5201650" lon="-17.8463480">
        <ele>1180.2</ele>
        <time>2020-11-17T11:34:20Z</time>
      </trkpt>
      <trkpt lat="28.5201650" lon="-17.8463480">
        <ele>1180.2</ele>
        <time>2020-11-17T11:34:21Z</time>
      </trkpt>
      <trkpt lat="28.5201970" lon="-17.8462820">
        <ele>1180.0</ele>
        <time>2020-11-17T11:34:22Z</time>
      </trkpt>
      <trkpt lat="28.5201970" lon="-17.8462820">
        <ele>1180.0</ele>
        <time>2020-11-17T11:34:23Z</time>
      </trkpt>
      <trkpt lat="28.5202280" lon="-17.8462120">
        <ele>1179.8</ele>
        <time>2020-11-17T11:34:24Z</time>
      </trkpt>
      <trkpt lat="28.5202280" lon="-17.8462120">
        <ele>1179.8</ele>
        <time>2020-11-17T11:34:25Z</time>
      </trkpt>
      <trkpt lat="28.5202670" lon="-17.8461500">
        <ele>1179.5</ele>
        <time>2020-11-17T11:34:26Z</time>
      </trkpt>
      <trkpt lat="28.5202820" lon="-17.8461220">
        <ele>1179.4</ele>
        <time>2020-11-17T11:34:27Z</time>
      </trkpt>
      <trkpt lat="28.5202820" lon="-17.8461220">
        <ele>1179.4</ele>
        <time>2020-11-17T11:34:28Z</time>
      </trkpt>
      <trkpt lat="28.5203130" lon="-17.8460570">
        <ele>1179.2</ele>
        <time>2020-11-17T11:34:29Z</time>
      </trkpt>
      <trkpt lat="28.5203250" lon="-17.8460200">
        <ele>1179.1</ele>
        <time>2020-11-17T11:34:30Z</time>
      </trkpt>
      <trkpt lat="28.5203250" lon="-17.8460200">
        <ele>1179.1</ele>
        <time>2020-11-17T11:34:31Z</time>
      </trkpt>
      <trkpt lat="28.5203480" lon="-17.8459420">
        <ele>1178.8</ele>
        <time>2020-11-17T11:34:32Z</time>
      </trkpt>
      <trkpt lat="28.5203600" lon="-17.8459020">
        <ele>1178.7</ele>
        <time>2020-11-17T11:34:33Z</time>
      </trkpt>
      <trkpt lat="28.5203600" lon="-17.8459020">
        <ele>1178.7</ele>
        <time>2020-11-17T11:34:34Z</time>
      </trkpt>
      <trkpt lat="28.5203730" lon="-17.8458200">
        <ele>1178.6</ele>
        <time>2020-11-17T11:34:35Z</time>
      </trkpt>
      <trkpt lat="28.5203820" lon="-17.8457750">
        <ele>1178.6</ele>
        <time>2020-11-17T11:34:36Z</time>
      </trkpt>
      <trkpt lat="28.5203850" lon="-17.8457300">
        <ele>1178.5</ele>
        <time>2020-11-17T11:34:37Z</time>
      </trkpt>
      <trkpt lat="28.5203850" lon="-17.8457300">
        <ele>1178.5</ele>
        <time>2020-11-17T11:34:38Z</time>
      </trkpt>
      <trkpt lat="28.5203850" lon="-17.8456350">
        <ele>1178.4</ele>
        <time>2020-11-17T11:34:39Z</time>
      </trkpt>
      <trkpt lat="28.5203850" lon="-17.8456350">
        <ele>1178.4</ele>
        <time>2020-11-17T11:34:40Z</time>
      </trkpt>
      <trkpt lat="28.5203920" lon="-17.8455320">
        <ele>1178.2</ele>
        <time>2020-11-17T11:34:41Z</time>
      </trkpt>
      <trkpt lat="28.5203920" lon="-17.8455320">
        <ele>1178.2</ele>
        <time>2020-11-17T11:34:42Z</time>
      </trkpt>
      <trkpt lat="28.5204070" lon="-17.8454350">
        <ele>1178.1</ele>
        <time>2020-11-17T11:34:43Z</time>
      </trkpt>
      <trkpt lat="28.5204070" lon="-17.8454350">
        <ele>1178.1</ele>
        <time>2020-11-17T11:34:44Z</time>
      </trkpt>
      <trkpt lat="28.5204100" lon="-17.8453620">
        <ele>1178.0</ele>
        <time>2020-11-17T11:34:45Z</time>
      </trkpt>
      <trkpt lat="28.5204100" lon="-17.8453620">
        <ele>1178.0</ele>
        <time>2020-11-17T11:34:46Z</time>
      </trkpt>
      <trkpt lat="28.5203930" lon="-17.8452870">
        <ele>1177.9</ele>
        <time>2020-11-17T11:34:47Z</time>
      </trkpt>
      <trkpt lat="28.5203800" lon="-17.8452530">
        <ele>1177.9</ele>
        <time>2020-11-17T11:34:48Z</time>
      </trkpt>
      <trkpt lat="28.5203800" lon="-17.8452530">
        <ele>1177.9</ele>
        <time>2020-11-17T11:34:49Z</time>
      </trkpt>
      <trkpt lat="28.5203380" lon="-17.8451900">
        <ele>1177.8</ele>
        <time>2020-11-17T11:34:50Z</time>
      </trkpt>
      <trkpt lat="28.5203380" lon="-17.8451900">
        <ele>1177.8</ele>
        <time>2020-11-17T11:34:51Z</time>
      </trkpt>
      <trkpt lat="28.5202930" lon="-17.8451330">
        <ele>1177.7</ele>
        <time>2020-11-17T11:34:52Z</time>
      </trkpt>
      <trkpt lat="28.5202700" lon="-17.8451080">
        <ele>1177.7</ele>
        <time>2020-11-17T11:34:53Z</time>
      </trkpt>
      <trkpt lat="28.5202430" lon="-17.8450850">
        <ele>1177.6</ele>
        <time>2020-11-17T11:34:54Z</time>
      </trkpt>
      <trkpt lat="28.5202430" lon="-17.8450850">
        <ele>1177.6</ele>
        <time>2020-11-17T11:34:55Z</time>
      </trkpt>
      <trkpt lat="28.5201920" lon="-17.8450180">
        <ele>1177.6</ele>
        <time>2020-11-17T11:34:56Z</time>
      </trkpt>
      <trkpt lat="28.5201780" lon="-17.8449930">
        <ele>1177.6</ele>
        <time>2020-11-17T11:34:57Z</time>
      </trkpt>
      <trkpt lat="28.5201780" lon="-17.8449930">
        <ele>1177.6</ele>
        <time>2020-11-17T11:34:58Z</time>
      </trkpt>
      <trkpt lat="28.5201550" lon="-17.8449370">
        <ele>1177.6</ele>
        <time>2020-11-17T11:34:59Z</time>
      </trkpt>
      <trkpt lat="28.5201470" lon="-17.8449100">
        <ele>1177.7</ele>
        <time>2020-11-17T11:35:00Z</time>
      </trkpt>
      <trkpt lat="28.5201470" lon="-17.8449100">
        <ele>1177.7</ele>
        <time>2020-11-17T11:35:01Z</time>
      </trkpt>
      <trkpt lat="28.5201370" lon="-17.8448520">
        <ele>1177.8</ele>
        <time>2020-11-17T11:35:02Z</time>
      </trkpt>
      <trkpt lat="28.5201350" lon="-17.8448270">
        <ele>1177.9</ele>
        <time>2020-11-17T11:35:03Z</time>
      </trkpt>
      <trkpt lat="28.5201350" lon="-17.8448270">
        <ele>1177.9</ele>
        <time>2020-11-17T11:35:04Z</time>
      </trkpt>
      <trkpt lat="28.5201230" lon="-17.8447830">
        <ele>1178.1</ele>
        <time>2020-11-17T11:35:05Z</time>
      </trkpt>
      <trkpt lat="28.5201170" lon="-17.8447570">
        <ele>1178.1</ele>
        <time>2020-11-17T11:35:06Z</time>
      </trkpt>
      <trkpt lat="28.5201170" lon="-17.8447570">
        <ele>1178.1</ele>
        <time>2020-11-17T11:35:07Z</time>
      </trkpt>
      <trkpt lat="28.5201000" lon="-17.8447030">
        <ele>1178.3</ele>
        <time>2020-11-17T11:35:08Z</time>
      </trkpt>
      <trkpt lat="28.5200900" lon="-17.8446720">
        <ele>1178.5</ele>
        <time>2020-11-17T11:35:09Z</time>
      </trkpt>
      <trkpt lat="28.5200900" lon="-17.8446400">
        <ele>1178.6</ele>
        <time>2020-11-17T11:35:10Z</time>
      </trkpt>
      <trkpt lat="28.5200900" lon="-17.8446400">
        <ele>1178.6</ele>
        <time>2020-11-17T11:35:11Z</time>
      </trkpt>
      <trkpt lat="28.5200780" lon="-17.8445970">
        <ele>1178.7</ele>
        <time>2020-11-17T11:35:12Z</time>
      </trkpt>
      <trkpt lat="28.5200750" lon="-17.8445770">
        <ele>1178.8</ele>
        <time>2020-11-17T11:35:13Z</time>
      </trkpt>
      <trkpt lat="28.5200750" lon="-17.8445770">
        <ele>1178.8</ele>
        <time>2020-11-17T11:35:14Z</time>
      </trkpt>
      <trkpt lat="28.5200670" lon="-17.8445430">
        <ele>1178.9</ele>
        <time>2020-11-17T11:35:15Z</time>
      </trkpt>
      <trkpt lat="28.5200670" lon="-17.8445430">
        <ele>1178.9</ele>
        <time>2020-11-17T11:35:16Z</time>
      </trkpt>
      <trkpt lat="28.5200700" lon="-17.8445070">
        <ele>1179.1</ele>
        <time>2020-11-17T11:35:17Z</time>
      </trkpt>
      <trkpt lat="28.5200750" lon="-17.8444870">
        <ele>1179.1</ele>
        <time>2020-11-17T11:35:18Z</time>
      </trkpt>
      <trkpt lat="28.5200750" lon="-17.8444870">
        <ele>1179.1</ele>
        <time>2020-11-17T11:35:19Z</time>
      </trkpt>
      <trkpt lat="28.5200920" lon="-17.8444480">
        <ele>1179.3</ele>
        <time>2020-11-17T11:35:20Z</time>
      </trkpt>
      <trkpt lat="28.5200980" lon="-17.8444320">
        <ele>1179.4</ele>
        <time>2020-11-17T11:35:21Z</time>
      </trkpt>
      <trkpt lat="28.5200980" lon="-17.8444320">
        <ele>1179.4</ele>
        <time>2020-11-17T11:35:22Z</time>
      </trkpt>
      <trkpt lat="28.5201130" lon="-17.8443920">
        <ele>1179.5</ele>
        <time>2020-11-17T11:35:23Z</time>
      </trkpt>
      <trkpt lat="28.5201250" lon="-17.8443730">
        <ele>1179.7</ele>
        <time>2020-11-17T11:35:24Z</time>
      </trkpt>
      <trkpt lat="28.5201250" lon="-17.8443730">
        <ele>1179.7</ele>
        <time>2020-11-17T11:35:25Z</time>
      </trkpt>
      <trkpt lat="28.5201400" lon="-17.8443420">
        <ele>1179.8</ele>
        <time>2020-11-17T11:35:26Z</time>
      </trkpt>
      <trkpt lat="28.5201400" lon="-17.8443420">
        <ele>1179.8</ele>
        <time>2020-11-17T11:35:27Z</time>
      </trkpt>
      <trkpt lat="28.5201580" lon="-17.8443100">
        <ele>1180.0</ele>
        <time>2020-11-17T11:35:28Z</time>
      </trkpt>
      <trkpt lat="28.5201580" lon="-17.8443100">
        <ele>1180.0</ele>
        <time>2020-11-17T11:35:29Z</time>
      </trkpt>
      <trkpt lat="28.5201670" lon="-17.8442850">
        <ele>1180.1</ele>
        <time>2020-11-17T11:35:30Z</time>
      </trkpt>
      <trkpt lat="28.5201670" lon="-17.8442850">
        <ele>1180.1</ele>
        <time>2020-11-17T11:35:31Z</time>
      </trkpt>
      <trkpt lat="28.5201830" lon="-17.8442600">
        <ele>1180.2</ele>
        <time>2020-11-17T11:35:32Z</time>
      </trkpt>
      <trkpt lat="28.5201830" lon="-17.8442600">
        <ele>1180.2</ele>
        <time>2020-11-17T11:35:33Z</time>
      </trkpt>
      <trkpt lat="28.5202050" lon="-17.8442250">
        <ele>1180.4</ele>
        <time>2020-11-17T11:35:34Z</time>
      </trkpt>
      <trkpt lat="28.5202050" lon="-17.8442250">
        <ele>1180.4</ele>
        <time>2020-11-17T11:35:35Z</time>
      </trkpt>
      <trkpt lat="28.5202330" lon="-17.8441920">
        <ele>1180.6</ele>
        <time>2020-11-17T11:35:36Z</time>
      </trkpt>
      <trkpt lat="28.5202330" lon="-17.8441920">
        <ele>1180.6</ele>
        <time>2020-11-17T11:35:37Z</time>
      </trkpt>
      <trkpt lat="28.5202600" lon="-17.8441470">
        <ele>1180.8</ele>
        <time>2020-11-17T11:35:38Z</time>
      </trkpt>
      <trkpt lat="28.5202600" lon="-17.8441470">
        <ele>1180.8</ele>
        <time>2020-11-17T11:35:39Z</time>
      </trkpt>
      <trkpt lat="28.5202830" lon="-17.8441070">
        <ele>1180.9</ele>
        <time>2020-11-17T11:35:40Z</time>
      </trkpt>
      <trkpt lat="28.5202920" lon="-17.8440880">
        <ele>1181.0</ele>
        <time>2020-11-17T11:35:41Z</time>
      </trkpt>
      <trkpt lat="28.5202920" lon="-17.8440880">
        <ele>1181.0</ele>
        <time>2020-11-17T11:35:42Z</time>
      </trkpt>
      <trkpt lat="28.5203180" lon="-17.8440450">
        <ele>1181.1</ele>
        <time>2020-11-17T11:35:43Z</time>
      </trkpt>
      <trkpt lat="28.5203330" lon="-17.8440250">
        <ele>1181.2</ele>
        <time>2020-11-17T11:35:44Z</time>
      </trkpt>
      <trkpt lat="28.5203330" lon="-17.8440250">
        <ele>1181.2</ele>
        <time>2020-11-17T11:35:45Z</time>
      </trkpt>
      <trkpt lat="28.5203600" lon="-17.8439700">
        <ele>1181.4</ele>
        <time>2020-11-17T11:35:46Z</time>
      </trkpt>
      <trkpt lat="28.5203720" lon="-17.8439500">
        <ele>1181.5</ele>
        <time>2020-11-17T11:35:47Z</time>
      </trkpt>
      <trkpt lat="28.5203720" lon="-17.8439500">
        <ele>1181.5</ele>
        <time>2020-11-17T11:35:48Z</time>
      </trkpt>
      <trkpt lat="28.5203920" lon="-17.8439120">
        <ele>1181.6</ele>
        <time>2020-11-17T11:35:49Z</time>
      </trkpt>
      <trkpt lat="28.5203920" lon="-17.8439120">
        <ele>1181.6</ele>
        <time>2020-11-17T11:35:50Z</time>
      </trkpt>
      <trkpt lat="28.5204200" lon="-17.8438570">
        <ele>1181.8</ele>
        <time>2020-11-17T11:35:51Z</time>
      </trkpt>
      <trkpt lat="28.5204370" lon="-17.8438250">
        <ele>1181.9</ele>
        <time>2020-11-17T11:35:52Z</time>
      </trkpt>
      <trkpt lat="28.5204370" lon="-17.8438250">
        <ele>1181.9</ele>
        <time>2020-11-17T11:35:53Z</time>
      </trkpt>
      <trkpt lat="28.5204670" lon="-17.8437770">
        <ele>1182.1</ele>
        <time>2020-11-17T11:35:54Z</time>
      </trkpt>
      <trkpt lat="28.5204670" lon="-17.8437770">
        <ele>1182.1</ele>
        <time>2020-11-17T11:35:55Z</time>
      </trkpt>
      <trkpt lat="28.5204950" lon="-17.8437220">
        <ele>1182.2</ele>
        <time>2020-11-17T11:35:56Z</time>
      </trkpt>
      <trkpt lat="28.5205070" lon="-17.8436970">
        <ele>1182.3</ele>
        <time>2020-11-17T11:35:57Z</time>
      </trkpt>
      <trkpt lat="28.5205070" lon="-17.8436970">
        <ele>1182.3</ele>
        <time>2020-11-17T11:35:58Z</time>
      </trkpt>
      <trkpt lat="28.5205430" lon="-17.8436570">
        <ele>1182.4</ele>
        <time>2020-11-17T11:35:59Z</time>
      </trkpt>
      <trkpt lat="28.5205600" lon="-17.8436350">
        <ele>1182.5</ele>
        <time>2020-11-17T11:36:00Z</time>
      </trkpt>
      <trkpt lat="28.5205600" lon="-17.8436350">
        <ele>1182.5</ele>
        <time>2020-11-17T11:36:01Z</time>
      </trkpt>
      <trkpt lat="28.5205820" lon="-17.8435770">
        <ele>1182.6</ele>
        <time>2020-11-17T11:36:02Z</time>
      </trkpt>
      <trkpt lat="28.5205870" lon="-17.8435450">
        <ele>1182.7</ele>
        <time>2020-11-17T11:36:03Z</time>
      </trkpt>
      <trkpt lat="28.5205870" lon="-17.8435450">
        <ele>1182.7</ele>
        <time>2020-11-17T11:36:04Z</time>
      </trkpt>
      <trkpt lat="28.5205880" lon="-17.8434850">
        <ele>1182.8</ele>
        <time>2020-11-17T11:36:05Z</time>
      </trkpt>
      <trkpt lat="28.5205820" lon="-17.8434570">
        <ele>1182.9</ele>
        <time>2020-11-17T11:36:06Z</time>
      </trkpt>
      <trkpt lat="28.5205820" lon="-17.8434570">
        <ele>1182.9</ele>
        <time>2020-11-17T11:36:07Z</time>
      </trkpt>
      <trkpt lat="28.5205780" lon="-17.8433920">
        <ele>1183.2</ele>
        <time>2020-11-17T11:36:08Z</time>
      </trkpt>
      <trkpt lat="28.5205780" lon="-17.8433920">
        <ele>1183.2</ele>
        <time>2020-11-17T11:36:09Z</time>
      </trkpt>
      <trkpt lat="28.5205530" lon="-17.8433350">
        <ele>1183.5</ele>
        <time>2020-11-17T11:36:10Z</time>
      </trkpt>
      <trkpt lat="28.5205530" lon="-17.8433350">
        <ele>1183.5</ele>
        <time>2020-11-17T11:36:11Z</time>
      </trkpt>
      <trkpt lat="28.5205320" lon="-17.8432830">
        <ele>1183.8</ele>
        <time>2020-11-17T11:36:12Z</time>
      </trkpt>
      <trkpt lat="28.5205320" lon="-17.8432830">
        <ele>1183.8</ele>
        <time>2020-11-17T11:36:13Z</time>
      </trkpt>
      <trkpt lat="28.5205070" lon="-17.8432330">
        <ele>1184.1</ele>
        <time>2020-11-17T11:36:14Z</time>
      </trkpt>
      <trkpt lat="28.5205070" lon="-17.8432330">
        <ele>1184.1</ele>
        <time>2020-11-17T11:36:15Z</time>
      </trkpt>
      <trkpt lat="28.5204770" lon="-17.8431870">
        <ele>1184.4</ele>
        <time>2020-11-17T11:36:16Z</time>
      </trkpt>
      <trkpt lat="28.5204770" lon="-17.8431870">
        <ele>1184.4</ele>
        <time>2020-11-17T11:36:17Z</time>
      </trkpt>
      <trkpt lat="28.5204380" lon="-17.8431480">
        <ele>1184.7</ele>
        <time>2020-11-17T11:36:18Z</time>
      </trkpt>
      <trkpt lat="28.5204380" lon="-17.8431480">
        <ele>1184.7</ele>
        <time>2020-11-17T11:36:19Z</time>
      </trkpt>
      <trkpt lat="28.5204070" lon="-17.8431220">
        <ele>1184.9</ele>
        <time>2020-11-17T11:36:20Z</time>
      </trkpt>
      <trkpt lat="28.5204070" lon="-17.8431220">
        <ele>1184.9</ele>
        <time>2020-11-17T11:36:21Z</time>
      </trkpt>
      <trkpt lat="28.5203770" lon="-17.8430800">
        <ele>1185.3</ele>
        <time>2020-11-17T11:36:22Z</time>
      </trkpt>
      <trkpt lat="28.5203650" lon="-17.8430620">
        <ele>1185.4</ele>
        <time>2020-11-17T11:36:23Z</time>
      </trkpt>
      <trkpt lat="28.5203550" lon="-17.8430420">
        <ele>1185.6</ele>
        <time>2020-11-17T11:36:24Z</time>
      </trkpt>
      <trkpt lat="28.5203550" lon="-17.8430420">
        <ele>1185.6</ele>
        <time>2020-11-17T11:36:25Z</time>
      </trkpt>
      <trkpt lat="28.5203270" lon="-17.8430050">
        <ele>1185.9</ele>
        <time>2020-11-17T11:36:26Z</time>
      </trkpt>
      <trkpt lat="28.5203270" lon="-17.8430050">
        <ele>1185.9</ele>
        <time>2020-11-17T11:36:27Z</time>
      </trkpt>
      <trkpt lat="28.5202920" lon="-17.8429780">
        <ele>1186.3</ele>
        <time>2020-11-17T11:36:28Z</time>
      </trkpt>
      <trkpt lat="28.5202920" lon="-17.8429780">
        <ele>1186.3</ele>
        <time>2020-11-17T11:36:29Z</time>
      </trkpt>
      <trkpt lat="28.5202550" lon="-17.8429470">
        <ele>1186.6</ele>
        <time>2020-11-17T11:36:30Z</time>
      </trkpt>
      <trkpt lat="28.5202550" lon="-17.8429470">
        <ele>1186.6</ele>
        <time>2020-11-17T11:36:31Z</time>
      </trkpt>
      <trkpt lat="28.5202230" lon="-17.8429220">
        <ele>1186.9</ele>
        <time>2020-11-17T11:36:32Z</time>
      </trkpt>
      <trkpt lat="28.5202100" lon="-17.8429070">
        <ele>1187.0</ele>
        <time>2020-11-17T11:36:33Z</time>
      </trkpt>
      <trkpt lat="28.5202100" lon="-17.8429070">
        <ele>1187.0</ele>
        <time>2020-11-17T11:36:34Z</time>
      </trkpt>
      <trkpt lat="28.5201930" lon="-17.8428720">
        <ele>1187.2</ele>
        <time>2020-11-17T11:36:35Z</time>
      </trkpt>
      <trkpt lat="28.5201930" lon="-17.8428720">
        <ele>1187.2</ele>
        <time>2020-11-17T11:36:36Z</time>
      </trkpt>
      <trkpt lat="28.5201730" lon="-17.8428380">
        <ele>1187.3</ele>
        <time>2020-11-17T11:36:37Z</time>
      </trkpt>
      <trkpt lat="28.5201650" lon="-17.8428130">
        <ele>1187.4</ele>
        <time>2020-11-17T11:36:38Z</time>
      </trkpt>
      <trkpt lat="28.5201650" lon="-17.8428130">
        <ele>1187.4</ele>
        <time>2020-11-17T11:36:39Z</time>
      </trkpt>
      <trkpt lat="28.5201430" lon="-17.8427730">
        <ele>1187.5</ele>
        <time>2020-11-17T11:36:40Z</time>
      </trkpt>
      <trkpt lat="28.5201380" lon="-17.8427500">
        <ele>1187.5</ele>
        <time>2020-11-17T11:36:41Z</time>
      </trkpt>
      <trkpt lat="28.5201220" lon="-17.8427330">
        <ele>1187.6</ele>
        <time>2020-11-17T11:36:42Z</time>
      </trkpt>
      <trkpt lat="28.5201220" lon="-17.8427330">
        <ele>1187.6</ele>
        <time>2020-11-17T11:36:43Z</time>
      </trkpt>
      <trkpt lat="28.5200850" lon="-17.8426920">
        <ele>1187.6</ele>
        <time>2020-11-17T11:36:44Z</time>
      </trkpt>
      <trkpt lat="28.5200620" lon="-17.8426700">
        <ele>1187.5</ele>
        <time>2020-11-17T11:36:45Z</time>
      </trkpt>
      <trkpt lat="28.5200620" lon="-17.8426700">
        <ele>1187.5</ele>
        <time>2020-11-17T11:36:46Z</time>
      </trkpt>
      <trkpt lat="28.5200080" lon="-17.8426280">
        <ele>1187.4</ele>
        <time>2020-11-17T11:36:47Z</time>
      </trkpt>
      <trkpt lat="28.5200080" lon="-17.8426280">
        <ele>1187.4</ele>
        <time>2020-11-17T11:36:48Z</time>
      </trkpt>
      <trkpt lat="28.5199550" lon="-17.8425780">
        <ele>1187.3</ele>
        <time>2020-11-17T11:36:49Z</time>
      </trkpt>
      <trkpt lat="28.5199350" lon="-17.8425500">
        <ele>1187.2</ele>
        <time>2020-11-17T11:36:50Z</time>
      </trkpt>
      <trkpt lat="28.5199350" lon="-17.8425500">
        <ele>1187.2</ele>
        <time>2020-11-17T11:36:51Z</time>
      </trkpt>
      <trkpt lat="28.5199070" lon="-17.8424920">
        <ele>1187.0</ele>
        <time>2020-11-17T11:36:52Z</time>
      </trkpt>
      <trkpt lat="28.5199070" lon="-17.8424920">
        <ele>1187.0</ele>
        <time>2020-11-17T11:36:53Z</time>
      </trkpt>
      <trkpt lat="28.5199120" lon="-17.8424450">
        <ele>1186.9</ele>
        <time>2020-11-17T11:36:54Z</time>
      </trkpt>
      <trkpt lat="28.5199120" lon="-17.8424450">
        <ele>1186.9</ele>
        <time>2020-11-17T11:36:55Z</time>
      </trkpt>
      <trkpt lat="28.5199230" lon="-17.8423900">
        <ele>1186.7</ele>
        <time>2020-11-17T11:36:56Z</time>
      </trkpt>
      <trkpt lat="28.5199230" lon="-17.8423900">
        <ele>1186.7</ele>
        <time>2020-11-17T11:36:57Z</time>
      </trkpt>
      <trkpt lat="28.5199270" lon="-17.8423200">
        <ele>1186.5</ele>
        <time>2020-11-17T11:36:58Z</time>
      </trkpt>
      <trkpt lat="28.5199270" lon="-17.8423200">
        <ele>1186.5</ele>
        <time>2020-11-17T11:36:59Z</time>
      </trkpt>
      <trkpt lat="28.5199250" lon="-17.8422570">
        <ele>1186.4</ele>
        <time>2020-11-17T11:37:00Z</time>
      </trkpt>
      <trkpt lat="28.5199250" lon="-17.8422570">
        <ele>1186.4</ele>
        <time>2020-11-17T11:37:01Z</time>
      </trkpt>
      <trkpt lat="28.5199050" lon="-17.8422180">
        <ele>1186.3</ele>
        <time>2020-11-17T11:37:02Z</time>
      </trkpt>
      <trkpt lat="28.5199050" lon="-17.8422180">
        <ele>1186.3</ele>
        <time>2020-11-17T11:37:03Z</time>
      </trkpt>
      <trkpt lat="28.5198880" lon="-17.8421820">
        <ele>1186.2</ele>
        <time>2020-11-17T11:37:04Z</time>
      </trkpt>
      <trkpt lat="28.5198830" lon="-17.8421620">
        <ele>1186.1</ele>
        <time>2020-11-17T11:37:05Z</time>
      </trkpt>
      <trkpt lat="28.5198830" lon="-17.8421620">
        <ele>1186.1</ele>
        <time>2020-11-17T11:37:06Z</time>
      </trkpt>
      <trkpt lat="28.5198650" lon="-17.8421120">
        <ele>1186.0</ele>
        <time>2020-11-17T11:37:07Z</time>
      </trkpt>
      <trkpt lat="28.5198650" lon="-17.8421120">
        <ele>1186.0</ele>
        <time>2020-11-17T11:37:08Z</time>
      </trkpt>
      <trkpt lat="28.5198300" lon="-17.8420550">
        <ele>1185.9</ele>
        <time>2020-11-17T11:37:09Z</time>
      </trkpt>
      <trkpt lat="28.5198300" lon="-17.8420550">
        <ele>1185.9</ele>
        <time>2020-11-17T11:37:10Z</time>
      </trkpt>
      <trkpt lat="28.5197770" lon="-17.8420020">
        <ele>1185.8</ele>
        <time>2020-11-17T11:37:11Z</time>
      </trkpt>
      <trkpt lat="28.5197370" lon="-17.8419880">
        <ele>1185.7</ele>
        <time>2020-11-17T11:37:12Z</time>
      </trkpt>
      <trkpt lat="28.5197370" lon="-17.8419880">
        <ele>1185.7</ele>
        <time>2020-11-17T11:37:13Z</time>
      </trkpt>
      <trkpt lat="28.5196680" lon="-17.8419730">
        <ele>1185.6</ele>
        <time>2020-11-17T11:37:14Z</time>
      </trkpt>
      <trkpt lat="28.5196320" lon="-17.8419680">
        <ele>1185.6</ele>
        <time>2020-11-17T11:37:15Z</time>
      </trkpt>
      <trkpt lat="28.5196320" lon="-17.8419680">
        <ele>1185.6</ele>
        <time>2020-11-17T11:37:16Z</time>
      </trkpt>
      <trkpt lat="28.5195720" lon="-17.8419380">
        <ele>1185.4</ele>
        <time>2020-11-17T11:37:17Z</time>
      </trkpt>
      <trkpt lat="28.5195400" lon="-17.8419200">
        <ele>1185.4</ele>
        <time>2020-11-17T11:37:18Z</time>
      </trkpt>
      <trkpt lat="28.5195400" lon="-17.8419200">
        <ele>1185.4</ele>
        <time>2020-11-17T11:37:19Z</time>
      </trkpt>
      <trkpt lat="28.5194780" lon="-17.8418850">
        <ele>1185.2</ele>
        <time>2020-11-17T11:37:20Z</time>
      </trkpt>
      <trkpt lat="28.5194470" lon="-17.8418670">
        <ele>1185.2</ele>
        <time>2020-11-17T11:37:21Z</time>
      </trkpt>
      <trkpt lat="28.5194170" lon="-17.8418470">
        <ele>1185.1</ele>
        <time>2020-11-17T11:37:22Z</time>
      </trkpt>
      <trkpt lat="28.5194170" lon="-17.8418470">
        <ele>1185.1</ele>
        <time>2020-11-17T11:37:23Z</time>
      </trkpt>
      <trkpt lat="28.5193580" lon="-17.8418000">
        <ele>1185.0</ele>
        <time>2020-11-17T11:37:24Z</time>
      </trkpt>
      <trkpt lat="28.5193580" lon="-17.8418000">
        <ele>1185.0</ele>
        <time>2020-11-17T11:37:25Z</time>
      </trkpt>
      <trkpt lat="28.5192900" lon="-17.8417550">
        <ele>1184.8</ele>
        <time>2020-11-17T11:37:26Z</time>
      </trkpt>
      <trkpt lat="28.5192580" lon="-17.8417300">
        <ele>1184.7</ele>
        <time>2020-11-17T11:37:27Z</time>
      </trkpt>
      <trkpt lat="28.5192300" lon="-17.8416970">
        <ele>1184.6</ele>
        <time>2020-11-17T11:37:28Z</time>
      </trkpt>
      <trkpt lat="28.5192300" lon="-17.8416970">
        <ele>1184.6</ele>
        <time>2020-11-17T11:37:29Z</time>
      </trkpt>
      <trkpt lat="28.5191930" lon="-17.8416300">
        <ele>1184.4</ele>
        <time>2020-11-17T11:37:30Z</time>
      </trkpt>
      <trkpt lat="28.5191930" lon="-17.8416300">
        <ele>1184.4</ele>
        <time>2020-11-17T11:37:31Z</time>
      </trkpt>
      <trkpt lat="28.5191920" lon="-17.8415550">
        <ele>1184.2</ele>
        <time>2020-11-17T11:37:32Z</time>
      </trkpt>
      <trkpt lat="28.5191980" lon="-17.8415170">
        <ele>1184.1</ele>
        <time>2020-11-17T11:37:33Z</time>
      </trkpt>
      <trkpt lat="28.5191980" lon="-17.8415170">
        <ele>1184.1</ele>
        <time>2020-11-17T11:37:34Z</time>
      </trkpt>
      <trkpt lat="28.5192200" lon="-17.8414400">
        <ele>1183.9</ele>
        <time>2020-11-17T11:37:35Z</time>
      </trkpt>
      <trkpt lat="28.5192200" lon="-17.8414400">
        <ele>1183.9</ele>
        <time>2020-11-17T11:37:36Z</time>
      </trkpt>
      <trkpt lat="28.5192400" lon="-17.8413600">
        <ele>1183.8</ele>
        <time>2020-11-17T11:37:37Z</time>
      </trkpt>
      <trkpt lat="28.5192400" lon="-17.8413600">
        <ele>1183.8</ele>
        <time>2020-11-17T11:37:38Z</time>
      </trkpt>
      <trkpt lat="28.5192580" lon="-17.8412930">
        <ele>1183.7</ele>
        <time>2020-11-17T11:37:39Z</time>
      </trkpt>
      <trkpt lat="28.5192580" lon="-17.8412930">
        <ele>1183.7</ele>
        <time>2020-11-17T11:37:40Z</time>
      </trkpt>
      <trkpt lat="28.5192770" lon="-17.8412320">
        <ele>1183.6</ele>
        <time>2020-11-17T11:37:41Z</time>
      </trkpt>
      <trkpt lat="28.5192800" lon="-17.8412000">
        <ele>1183.6</ele>
        <time>2020-11-17T11:37:42Z</time>
      </trkpt>
      <trkpt lat="28.5192800" lon="-17.8412000">
        <ele>1183.6</ele>
        <time>2020-11-17T11:37:43Z</time>
      </trkpt>
      <trkpt lat="28.5192850" lon="-17.8411300">
        <ele>1183.5</ele>
        <time>2020-11-17T11:37:44Z</time>
      </trkpt>
      <trkpt lat="28.5192850" lon="-17.8411300">
        <ele>1183.5</ele>
        <time>2020-11-17T11:37:45Z</time>
      </trkpt>
      <trkpt lat="28.5192800" lon="-17.8410500">
        <ele>1183.5</ele>
        <time>2020-11-17T11:37:46Z</time>
      </trkpt>
      <trkpt lat="28.5192730" lon="-17.8410150">
        <ele>1183.4</ele>
        <time>2020-11-17T11:37:47Z</time>
      </trkpt>
      <trkpt lat="28.5192730" lon="-17.8410150">
        <ele>1183.4</ele>
        <time>2020-11-17T11:37:48Z</time>
      </trkpt>
      <trkpt lat="28.5192550" lon="-17.8409470">
        <ele>1183.4</ele>
        <time>2020-11-17T11:37:49Z</time>
      </trkpt>
      <trkpt lat="28.5192550" lon="-17.8409470">
        <ele>1183.4</ele>
        <time>2020-11-17T11:37:50Z</time>
      </trkpt>
      <trkpt lat="28.5192220" lon="-17.8408830">
        <ele>1183.3</ele>
        <time>2020-11-17T11:37:51Z</time>
      </trkpt>
      <trkpt lat="28.5192220" lon="-17.8408830">
        <ele>1183.3</ele>
        <time>2020-11-17T11:37:52Z</time>
      </trkpt>
      <trkpt lat="28.5191770" lon="-17.8408270">
        <ele>1183.3</ele>
        <time>2020-11-17T11:37:53Z</time>
      </trkpt>
      <trkpt lat="28.5191500" lon="-17.8408020">
        <ele>1183.3</ele>
        <time>2020-11-17T11:37:54Z</time>
      </trkpt>
      <trkpt lat="28.5191220" lon="-17.8407800">
        <ele>1183.3</ele>
        <time>2020-11-17T11:37:55Z</time>
      </trkpt>
      <trkpt lat="28.5191220" lon="-17.8407800">
        <ele>1183.3</ele>
        <time>2020-11-17T11:37:56Z</time>
      </trkpt>
      <trkpt lat="28.5190600" lon="-17.8407350">
        <ele>1183.2</ele>
        <time>2020-11-17T11:37:57Z</time>
      </trkpt>
      <trkpt lat="28.5190280" lon="-17.8407120">
        <ele>1183.1</ele>
        <time>2020-11-17T11:37:58Z</time>
      </trkpt>
      <trkpt lat="28.5190280" lon="-17.8407120">
        <ele>1183.1</ele>
        <time>2020-11-17T11:37:59Z</time>
      </trkpt>
      <trkpt lat="28.5189700" lon="-17.8406530">
        <ele>1183.0</ele>
        <time>2020-11-17T11:38:00Z</time>
      </trkpt>
      <trkpt lat="28.5189700" lon="-17.8406530">
        <ele>1183.0</ele>
        <time>2020-11-17T11:38:01Z</time>
      </trkpt>
      <trkpt lat="28.5189100" lon="-17.8405980">
        <ele>1182.8</ele>
        <time>2020-11-17T11:38:02Z</time>
      </trkpt>
      <trkpt lat="28.5189100" lon="-17.8405980">
        <ele>1182.8</ele>
        <time>2020-11-17T11:38:03Z</time>
      </trkpt>
      <trkpt lat="28.5188500" lon="-17.8405430">
        <ele>1182.7</ele>
        <time>2020-11-17T11:38:04Z</time>
      </trkpt>
      <trkpt lat="28.5188180" lon="-17.8405150">
        <ele>1182.6</ele>
        <time>2020-11-17T11:38:05Z</time>
      </trkpt>
      <trkpt lat="28.5188180" lon="-17.8405150">
        <ele>1182.6</ele>
        <time>2020-11-17T11:38:06Z</time>
      </trkpt>
      <trkpt lat="28.5187620" lon="-17.8404600">
        <ele>1182.5</ele>
        <time>2020-11-17T11:38:07Z</time>
      </trkpt>
      <trkpt lat="28.5187620" lon="-17.8404600">
        <ele>1182.5</ele>
        <time>2020-11-17T11:38:08Z</time>
      </trkpt>
      <trkpt lat="28.5187270" lon="-17.8403920">
        <ele>1182.3</ele>
        <time>2020-11-17T11:38:09Z</time>
      </trkpt>
      <trkpt lat="28.5187270" lon="-17.8403920">
        <ele>1182.3</ele>
        <time>2020-11-17T11:38:10Z</time>
      </trkpt>
      <trkpt lat="28.5187150" lon="-17.8403180">
        <ele>1182.2</ele>
        <time>2020-11-17T11:38:11Z</time>
      </trkpt>
      <trkpt lat="28.5187200" lon="-17.8402830">
        <ele>1182.2</ele>
        <time>2020-11-17T11:38:12Z</time>
      </trkpt>
      <trkpt lat="28.5187200" lon="-17.8402830">
        <ele>1182.2</ele>
        <time>2020-11-17T11:38:13Z</time>
      </trkpt>
      <trkpt lat="28.5187480" lon="-17.8402120">
        <ele>1182.1</ele>
        <time>2020-11-17T11:38:14Z</time>
      </trkpt>
      <trkpt lat="28.5187480" lon="-17.8402120">
        <ele>1182.1</ele>
        <time>2020-11-17T11:38:15Z</time>
      </trkpt>
      <trkpt lat="28.5187580" lon="-17.8401450">
        <ele>1182.1</ele>
        <time>2020-11-17T11:38:16Z</time>
      </trkpt>
      <trkpt lat="28.5187580" lon="-17.8401450">
        <ele>1182.1</ele>
        <time>2020-11-17T11:38:17Z</time>
      </trkpt>
      <trkpt lat="28.5187430" lon="-17.8400880">
        <ele>1182.2</ele>
        <time>2020-11-17T11:38:18Z</time>
      </trkpt>
      <trkpt lat="28.5187270" lon="-17.8400580">
        <ele>1182.2</ele>
        <time>2020-11-17T11:38:19Z</time>
      </trkpt>
      <trkpt lat="28.5187270" lon="-17.8400580">
        <ele>1182.2</ele>
        <time>2020-11-17T11:38:20Z</time>
      </trkpt>
      <trkpt lat="28.5186900" lon="-17.8400030">
        <ele>1182.3</ele>
        <time>2020-11-17T11:38:21Z</time>
      </trkpt>
      <trkpt lat="28.5186900" lon="-17.8400030">
        <ele>1182.3</ele>
        <time>2020-11-17T11:38:22Z</time>
      </trkpt>
      <trkpt lat="28.5186470" lon="-17.8399500">
        <ele>1182.4</ele>
        <time>2020-11-17T11:38:23Z</time>
      </trkpt>
      <trkpt lat="28.5186280" lon="-17.8399220">
        <ele>1182.4</ele>
        <time>2020-11-17T11:38:24Z</time>
      </trkpt>
      <trkpt lat="28.5186130" lon="-17.8398930">
        <ele>1182.5</ele>
        <time>2020-11-17T11:38:25Z</time>
      </trkpt>
      <trkpt lat="28.5186130" lon="-17.8398930">
        <ele>1182.5</ele>
        <time>2020-11-17T11:38:26Z</time>
      </trkpt>
      <trkpt lat="28.5185870" lon="-17.8398220">
        <ele>1182.5</ele>
        <time>2020-11-17T11:38:27Z</time>
      </trkpt>
      <trkpt lat="28.5185870" lon="-17.8398220">
        <ele>1182.5</ele>
        <time>2020-11-17T11:38:28Z</time>
      </trkpt>
      <trkpt lat="28.5185770" lon="-17.8397550">
        <ele>1182.6</ele>
        <time>2020-11-17T11:38:29Z</time>
      </trkpt>
      <trkpt lat="28.5185780" lon="-17.8397250">
        <ele>1182.6</ele>
        <time>2020-11-17T11:38:30Z</time>
      </trkpt>
      <trkpt lat="28.5185780" lon="-17.8397250">
        <ele>1182.6</ele>
        <time>2020-11-17T11:38:31Z</time>
      </trkpt>
      <trkpt lat="28.5185830" lon="-17.8396750">
        <ele>1182.6</ele>
        <time>2020-11-17T11:38:32Z</time>
      </trkpt>
      <trkpt lat="28.5185830" lon="-17.8396750">
        <ele>1182.6</ele>
        <time>2020-11-17T11:38:33Z</time>
      </trkpt>
      <trkpt lat="28.5185820" lon="-17.8396170">
        <ele>1182.7</ele>
        <time>2020-11-17T11:38:34Z</time>
      </trkpt>
      <trkpt lat="28.5185820" lon="-17.8396170">
        <ele>1182.7</ele>
        <time>2020-11-17T11:38:35Z</time>
      </trkpt>
      <trkpt lat="28.5185780" lon="-17.8395600">
        <ele>1182.7</ele>
        <time>2020-11-17T11:38:36Z</time>
      </trkpt>
      <trkpt lat="28.5185780" lon="-17.8395600">
        <ele>1182.7</ele>
        <time>2020-11-17T11:38:37Z</time>
      </trkpt>
      <trkpt lat="28.5185850" lon="-17.8395080">
        <ele>1182.8</ele>
        <time>2020-11-17T11:38:38Z</time>
      </trkpt>
      <trkpt lat="28.5185850" lon="-17.8395080">
        <ele>1182.8</ele>
        <time>2020-11-17T11:38:39Z</time>
      </trkpt>
      <trkpt lat="28.5185980" lon="-17.8394720">
        <ele>1182.9</ele>
        <time>2020-11-17T11:38:40Z</time>
      </trkpt>
      <trkpt lat="28.5186050" lon="-17.8394550">
        <ele>1182.9</ele>
        <time>2020-11-17T11:38:41Z</time>
      </trkpt>
      <trkpt lat="28.5186050" lon="-17.8394550">
        <ele>1182.9</ele>
        <time>2020-11-17T11:38:42Z</time>
      </trkpt>
      <trkpt lat="28.5186080" lon="-17.8394220">
        <ele>1182.9</ele>
        <time>2020-11-17T11:38:43Z</time>
      </trkpt>
      <trkpt lat="28.5186080" lon="-17.8394220">
        <ele>1182.9</ele>
        <time>2020-11-17T11:38:44Z</time>
      </trkpt>
      <trkpt lat="28.5186170" lon="-17.8394000">
        <ele>1182.9</ele>
        <time>2020-11-17T11:38:45Z</time>
      </trkpt>
      <trkpt lat="28.5186220" lon="-17.8393880">
        <ele>1182.9</ele>
        <time>2020-11-17T11:38:46Z</time>
      </trkpt>
      <trkpt lat="28.5186220" lon="-17.8393880">
        <ele>1182.9</ele>
        <time>2020-11-17T11:38:47Z</time>
      </trkpt>
      <trkpt lat="28.5186400" lon="-17.8393650">
        <ele>1183.0</ele>
        <time>2020-11-17T11:38:48Z</time>
      </trkpt>
      <trkpt lat="28.5186400" lon="-17.8393650">
        <ele>1183.0</ele>
        <time>2020-11-17T11:38:49Z</time>
      </trkpt>
      <trkpt lat="28.5186480" lon="-17.8393300">
        <ele>1182.8</ele>
        <time>2020-11-17T11:38:50Z</time>
      </trkpt>
      <trkpt lat="28.5186400" lon="-17.8393100">
        <ele>1182.7</ele>
        <time>2020-11-17T11:38:51Z</time>
      </trkpt>
      <trkpt lat="28.5186400" lon="-17.8393100">
        <ele>1182.7</ele>
        <time>2020-11-17T11:38:52Z</time>
      </trkpt>
      <trkpt lat="28.5185980" lon="-17.8392770">
        <ele>1182.4</ele>
        <time>2020-11-17T11:38:53Z</time>
      </trkpt>
      <trkpt lat="28.5185980" lon="-17.8392770">
        <ele>1182.4</ele>
        <time>2020-11-17T11:38:54Z</time>
      </trkpt>
      <trkpt lat="28.5185700" lon="-17.8392600">
        <ele>1182.1</ele>
        <time>2020-11-17T11:38:55Z</time>
      </trkpt>
      <trkpt lat="28.5185700" lon="-17.8392600">
        <ele>1182.1</ele>
        <time>2020-11-17T11:38:56Z</time>
      </trkpt>
      <trkpt lat="28.5185550" lon="-17.8392550">
        <ele>1182.0</ele>
        <time>2020-11-17T11:38:57Z</time>
      </trkpt>
      <trkpt lat="28.5185550" lon="-17.8392550">
        <ele>1182.0</ele>
        <time>2020-11-17T11:38:58Z</time>
      </trkpt>
      <trkpt lat="28.5185380" lon="-17.8392330">
        <ele>1181.8</ele>
        <time>2020-11-17T11:38:59Z</time>
      </trkpt>
      <trkpt lat="28.5185380" lon="-17.8392330">
        <ele>1181.8</ele>
        <time>2020-11-17T11:39:00Z</time>
      </trkpt>
      <trkpt lat="28.5185180" lon="-17.8391880">
        <ele>1181.4</ele>
        <time>2020-11-17T11:39:01Z</time>
      </trkpt>
      <trkpt lat="28.5185180" lon="-17.8391880">
        <ele>1181.4</ele>
        <time>2020-11-17T11:39:02Z</time>
      </trkpt>
      <trkpt lat="28.5184980" lon="-17.8391300">
        <ele>1181.0</ele>
        <time>2020-11-17T11:39:03Z</time>
      </trkpt>
      <trkpt lat="28.5184920" lon="-17.8390930">
        <ele>1180.7</ele>
        <time>2020-11-17T11:39:04Z</time>
      </trkpt>
      <trkpt lat="28.5184920" lon="-17.8390930">
        <ele>1180.7</ele>
        <time>2020-11-17T11:39:05Z</time>
      </trkpt>
      <trkpt lat="28.5184770" lon="-17.8390180">
        <ele>1180.1</ele>
        <time>2020-11-17T11:39:06Z</time>
      </trkpt>
      <trkpt lat="28.5184770" lon="-17.8390180">
        <ele>1180.1</ele>
        <time>2020-11-17T11:39:07Z</time>
      </trkpt>
      <trkpt lat="28.5184500" lon="-17.8389480">
        <ele>1179.6</ele>
        <time>2020-11-17T11:39:08Z</time>
      </trkpt>
      <trkpt lat="28.5184300" lon="-17.8389080">
        <ele>1179.3</ele>
        <time>2020-11-17T11:39:09Z</time>
      </trkpt>
      <trkpt lat="28.5184300" lon="-17.8389080">
        <ele>1179.3</ele>
        <time>2020-11-17T11:39:10Z</time>
      </trkpt>
      <trkpt lat="28.5183980" lon="-17.8388280">
        <ele>1178.8</ele>
        <time>2020-11-17T11:39:11Z</time>
      </trkpt>
      <trkpt lat="28.5183780" lon="-17.8387880">
        <ele>1178.5</ele>
        <time>2020-11-17T11:39:12Z</time>
      </trkpt>
      <trkpt lat="28.5183780" lon="-17.8387880">
        <ele>1178.5</ele>
        <time>2020-11-17T11:39:13Z</time>
      </trkpt>
      <trkpt lat="28.5183300" lon="-17.8387200">
        <ele>1178.0</ele>
        <time>2020-11-17T11:39:14Z</time>
      </trkpt>
      <trkpt lat="28.5183050" lon="-17.8386930">
        <ele>1177.8</ele>
        <time>2020-11-17T11:39:15Z</time>
      </trkpt>
      <trkpt lat="28.5183050" lon="-17.8386930">
        <ele>1177.8</ele>
        <time>2020-11-17T11:39:16Z</time>
      </trkpt>
      <trkpt lat="28.5182800" lon="-17.8386630">
        <ele>1177.7</ele>
        <time>2020-11-17T11:39:17Z</time>
      </trkpt>
      <trkpt lat="28.5182720" lon="-17.8386400">
        <ele>1177.5</ele>
        <time>2020-11-17T11:39:18Z</time>
      </trkpt>
      <trkpt lat="28.5182720" lon="-17.8386400">
        <ele>1177.5</ele>
        <time>2020-11-17T11:39:19Z</time>
      </trkpt>
      <trkpt lat="28.5182670" lon="-17.8385880">
        <ele>1177.3</ele>
        <time>2020-11-17T11:39:20Z</time>
      </trkpt>
      <trkpt lat="28.5182670" lon="-17.8385880">
        <ele>1177.3</ele>
        <time>2020-11-17T11:39:21Z</time>
      </trkpt>
      <trkpt lat="28.5182550" lon="-17.8385330">
        <ele>1177.2</ele>
        <time>2020-11-17T11:39:22Z</time>
      </trkpt>
      <trkpt lat="28.5182450" lon="-17.8384980">
        <ele>1177.1</ele>
        <time>2020-11-17T11:39:23Z</time>
      </trkpt>
      <trkpt lat="28.5182450" lon="-17.8384980">
        <ele>1177.1</ele>
        <time>2020-11-17T11:39:24Z</time>
      </trkpt>
      <trkpt lat="28.5182280" lon="-17.8384270">
        <ele>1177.0</ele>
        <time>2020-11-17T11:39:25Z</time>
      </trkpt>
      <trkpt lat="28.5182280" lon="-17.8384270">
        <ele>1177.0</ele>
        <time>2020-11-17T11:39:26Z</time>
      </trkpt>
      <trkpt lat="28.5182280" lon="-17.8383650">
        <ele>1176.9</ele>
        <time>2020-11-17T11:39:27Z</time>
      </trkpt>
      <trkpt lat="28.5182280" lon="-17.8383400">
        <ele>1176.9</ele>
        <time>2020-11-17T11:39:28Z</time>
      </trkpt>
      <trkpt lat="28.5182280" lon="-17.8383400">
        <ele>1176.9</ele>
        <time>2020-11-17T11:39:29Z</time>
      </trkpt>
      <trkpt lat="28.5182300" lon="-17.8382730">
        <ele>1176.9</ele>
        <time>2020-11-17T11:39:30Z</time>
      </trkpt>
      <trkpt lat="28.5182300" lon="-17.8382730">
        <ele>1176.9</ele>
        <time>2020-11-17T11:39:31Z</time>
      </trkpt>
      <trkpt lat="28.5182250" lon="-17.8381950">
        <ele>1176.9</ele>
        <time>2020-11-17T11:39:32Z</time>
      </trkpt>
      <trkpt lat="28.5182180" lon="-17.8381530">
        <ele>1176.9</ele>
        <time>2020-11-17T11:39:33Z</time>
      </trkpt>
      <trkpt lat="28.5182080" lon="-17.8381120">
        <ele>1176.9</ele>
        <time>2020-11-17T11:39:34Z</time>
      </trkpt>
      <trkpt lat="28.5182080" lon="-17.8381120">
        <ele>1176.9</ele>
        <time>2020-11-17T11:39:35Z</time>
      </trkpt>
      <trkpt lat="28.5181970" lon="-17.8380120">
        <ele>1176.9</ele>
        <time>2020-11-17T11:39:36Z</time>
      </trkpt>
      <trkpt lat="28.5181970" lon="-17.8380120">
        <ele>1176.9</ele>
        <time>2020-11-17T11:39:37Z</time>
      </trkpt>
      <trkpt lat="28.5181780" lon="-17.8379180">
        <ele>1176.8</ele>
        <time>2020-11-17T11:39:38Z</time>
      </trkpt>
      <trkpt lat="28.5181780" lon="-17.8379180">
        <ele>1176.8</ele>
        <time>2020-11-17T11:39:39Z</time>
      </trkpt>
      <trkpt lat="28.5181630" lon="-17.8378420">
        <ele>1176.8</ele>
        <time>2020-11-17T11:39:40Z</time>
      </trkpt>
      <trkpt lat="28.5181480" lon="-17.8378080">
        <ele>1176.8</ele>
        <time>2020-11-17T11:39:41Z</time>
      </trkpt>
      <trkpt lat="28.5181480" lon="-17.8378080">
        <ele>1176.8</ele>
        <time>2020-11-17T11:39:42Z</time>
      </trkpt>
      <trkpt lat="28.5181430" lon="-17.8377380">
        <ele>1176.9</ele>
        <time>2020-11-17T11:39:43Z</time>
      </trkpt>
      <trkpt lat="28.5181430" lon="-17.8377380">
        <ele>1176.9</ele>
        <time>2020-11-17T11:39:44Z</time>
      </trkpt>
      <trkpt lat="28.5181420" lon="-17.8376600">
        <ele>1177.0</ele>
        <time>2020-11-17T11:39:45Z</time>
      </trkpt>
      <trkpt lat="28.5181420" lon="-17.8376600">
        <ele>1177.0</ele>
        <time>2020-11-17T11:39:46Z</time>
      </trkpt>
      <trkpt lat="28.5181420" lon="-17.8375850">
        <ele>1177.1</ele>
        <time>2020-11-17T11:39:47Z</time>
      </trkpt>
      <trkpt lat="28.5181280" lon="-17.8375420">
        <ele>1177.1</ele>
        <time>2020-11-17T11:39:48Z</time>
      </trkpt>
      <trkpt lat="28.5181280" lon="-17.8375420">
        <ele>1177.1</ele>
        <time>2020-11-17T11:39:49Z</time>
      </trkpt>
      <trkpt lat="28.5180920" lon="-17.8374720">
        <ele>1177.0</ele>
        <time>2020-11-17T11:39:50Z</time>
      </trkpt>
      <trkpt lat="28.5180920" lon="-17.8374720">
        <ele>1177.0</ele>
        <time>2020-11-17T11:39:51Z</time>
      </trkpt>
      <trkpt lat="28.5180620" lon="-17.8373950">
        <ele>1176.7</ele>
        <time>2020-11-17T11:39:52Z</time>
      </trkpt>
      <trkpt lat="28.5180620" lon="-17.8373950">
        <ele>1176.7</ele>
        <time>2020-11-17T11:39:53Z</time>
      </trkpt>
      <trkpt lat="28.5180380" lon="-17.8373150">
        <ele>1176.3</ele>
        <time>2020-11-17T11:39:54Z</time>
      </trkpt>
      <trkpt lat="28.5180380" lon="-17.8373150">
        <ele>1176.3</ele>
        <time>2020-11-17T11:39:55Z</time>
      </trkpt>
      <trkpt lat="28.5180170" lon="-17.8372230">
        <ele>1176.0</ele>
        <time>2020-11-17T11:39:56Z</time>
      </trkpt>
      <trkpt lat="28.5180170" lon="-17.8372230">
        <ele>1176.0</ele>
        <time>2020-11-17T11:39:57Z</time>
      </trkpt>
      <trkpt lat="28.5179980" lon="-17.8371300">
        <ele>1175.8</ele>
        <time>2020-11-17T11:39:58Z</time>
      </trkpt>
      <trkpt lat="28.5179980" lon="-17.8371300">
        <ele>1175.8</ele>
        <time>2020-11-17T11:39:59Z</time>
      </trkpt>
      <trkpt lat="28.5179850" lon="-17.8370520">
        <ele>1175.7</ele>
        <time>2020-11-17T11:40:00Z</time>
      </trkpt>
      <trkpt lat="28.5179850" lon="-17.8370520">
        <ele>1175.7</ele>
        <time>2020-11-17T11:40:01Z</time>
      </trkpt>
      <trkpt lat="28.5179670" lon="-17.8369770">
        <ele>1175.6</ele>
        <time>2020-11-17T11:40:02Z</time>
      </trkpt>
      <trkpt lat="28.5179580" lon="-17.8369370">
        <ele>1175.6</ele>
        <time>2020-11-17T11:40:03Z</time>
      </trkpt>
      <trkpt lat="28.5179580" lon="-17.8369370">
        <ele>1175.6</ele>
        <time>2020-11-17T11:40:04Z</time>
      </trkpt>
      <trkpt lat="28.5179420" lon="-17.8368520">
        <ele>1175.4</ele>
        <time>2020-11-17T11:40:05Z</time>
      </trkpt>
      <trkpt lat="28.5179300" lon="-17.8368130">
        <ele>1175.3</ele>
        <time>2020-11-17T11:40:06Z</time>
      </trkpt>
      <trkpt lat="28.5179300" lon="-17.8368130">
        <ele>1175.3</ele>
        <time>2020-11-17T11:40:07Z</time>
      </trkpt>
      <trkpt lat="28.5179170" lon="-17.8367450">
        <ele>1175.2</ele>
        <time>2020-11-17T11:40:08Z</time>
      </trkpt>
      <trkpt lat="28.5179170" lon="-17.8367450">
        <ele>1175.2</ele>
        <time>2020-11-17T11:40:09Z</time>
      </trkpt>
      <trkpt lat="28.5179120" lon="-17.8367080">
        <ele>1175.1</ele>
        <time>2020-11-17T11:40:10Z</time>
      </trkpt>
      <trkpt lat="28.5179080" lon="-17.8367020">
        <ele>1175.1</ele>
        <time>2020-11-17T11:40:11Z</time>
      </trkpt>
      <trkpt lat="28.5179080" lon="-17.8367020">
        <ele>1175.1</ele>
        <time>2020-11-17T11:40:12Z</time>
      </trkpt>
      <trkpt lat="28.5179050" lon="-17.8366900">
        <ele>1175.1</ele>
        <time>2020-11-17T11:40:13Z</time>
      </trkpt>
      <trkpt lat="28.5179050" lon="-17.8366900">
        <ele>1175.1</ele>
        <time>2020-11-17T11:40:14Z</time>
      </trkpt>
      <trkpt lat="28.5178930" lon="-17.8366600">
        <ele>1175.0</ele>
        <time>2020-11-17T11:40:15Z</time>
      </trkpt>
      <trkpt lat="28.5178930" lon="-17.8366600">
        <ele>1175.0</ele>
        <time>2020-11-17T11:40:16Z</time>
      </trkpt>
      <trkpt lat="28.5178830" lon="-17.8366200">
        <ele>1174.9</ele>
        <time>2020-11-17T11:40:17Z</time>
      </trkpt>
      <trkpt lat="28.5178830" lon="-17.8366200">
        <ele>1174.9</ele>
        <time>2020-11-17T11:40:18Z</time>
      </trkpt>
      <trkpt lat="28.5178670" lon="-17.8365670">
        <ele>1175.0</ele>
        <time>2020-11-17T11:40:19Z</time>
      </trkpt>
      <trkpt lat="28.5178670" lon="-17.8365670">
        <ele>1175.0</ele>
        <time>2020-11-17T11:40:20Z</time>
      </trkpt>
      <trkpt lat="28.5178570" lon="-17.8365270">
        <ele>1175.2</ele>
        <time>2020-11-17T11:40:21Z</time>
      </trkpt>
      <trkpt lat="28.5178570" lon="-17.8365270">
        <ele>1175.2</ele>
        <time>2020-11-17T11:40:22Z</time>
      </trkpt>
      <trkpt lat="28.5178500" lon="-17.8364930">
        <ele>1175.3</ele>
        <time>2020-11-17T11:40:23Z</time>
      </trkpt>
      <trkpt lat="28.5178450" lon="-17.8364700">
        <ele>1175.4</ele>
        <time>2020-11-17T11:40:24Z</time>
      </trkpt>
      <trkpt lat="28.5178450" lon="-17.8364700">
        <ele>1175.4</ele>
        <time>2020-11-17T11:40:25Z</time>
      </trkpt>
      <trkpt lat="28.5178330" lon="-17.8363980">
        <ele>1175.5</ele>
        <time>2020-11-17T11:40:26Z</time>
      </trkpt>
      <trkpt lat="28.5178320" lon="-17.8363670">
        <ele>1175.6</ele>
        <time>2020-11-17T11:40:27Z</time>
      </trkpt>
      <trkpt lat="28.5178320" lon="-17.8363670">
        <ele>1175.6</ele>
        <time>2020-11-17T11:40:28Z</time>
      </trkpt>
      <trkpt lat="28.5178470" lon="-17.8363250">
        <ele>1175.6</ele>
        <time>2020-11-17T11:40:29Z</time>
      </trkpt>
      <trkpt lat="28.5178470" lon="-17.8363250">
        <ele>1175.6</ele>
        <time>2020-11-17T11:40:30Z</time>
      </trkpt>
      <trkpt lat="28.5178620" lon="-17.8363050">
        <ele>1175.7</ele>
        <time>2020-11-17T11:40:31Z</time>
      </trkpt>
      <trkpt lat="28.5178620" lon="-17.8363050">
        <ele>1175.7</ele>
        <time>2020-11-17T11:40:32Z</time>
      </trkpt>
      <trkpt lat="28.5178650" lon="-17.8363000">
        <ele>1175.7</ele>
        <time>2020-11-17T11:40:33Z</time>
      </trkpt>
      <trkpt lat="28.5178650" lon="-17.8363000">
        <ele>1175.7</ele>
        <time>2020-11-17T11:41:13Z</time>
      </trkpt>
      <trkpt lat="28.5178830" lon="-17.8362380">
        <ele>1176.0</ele>
        <time>2020-11-17T11:41:14Z</time>
      </trkpt>
      <trkpt lat="28.5178830" lon="-17.8362380">
        <ele>1176.0</ele>
        <time>2020-11-17T11:41:15Z</time>
      </trkpt>
      <trkpt lat="28.5179020" lon="-17.8362180">
        <ele>1176.1</ele>
        <time>2020-11-17T11:41:16Z</time>
      </trkpt>
      <trkpt lat="28.5179130" lon="-17.8362050">
        <ele>1176.2</ele>
        <time>2020-11-17T11:41:17Z</time>
      </trkpt>
      <trkpt lat="28.5179130" lon="-17.8362050">
        <ele>1176.2</ele>
        <time>2020-11-17T11:41:18Z</time>
      </trkpt>
      <trkpt lat="28.5179380" lon="-17.8361670">
        <ele>1176.4</ele>
        <time>2020-11-17T11:41:19Z</time>
      </trkpt>
      <trkpt lat="28.5179380" lon="-17.8361670">
        <ele>1176.4</ele>
        <time>2020-11-17T11:41:20Z</time>
      </trkpt>
      <trkpt lat="28.5179550" lon="-17.8361420">
        <ele>1176.6</ele>
        <time>2020-11-17T11:41:21Z</time>
      </trkpt>
      <trkpt lat="28.5179550" lon="-17.8361420">
        <ele>1176.6</ele>
        <time>2020-11-17T11:41:22Z</time>
      </trkpt>
      <trkpt lat="28.5179670" lon="-17.8361070">
        <ele>1176.7</ele>
        <time>2020-11-17T11:41:23Z</time>
      </trkpt>
      <trkpt lat="28.5179670" lon="-17.8361070">
        <ele>1176.7</ele>
        <time>2020-11-17T11:41:24Z</time>
      </trkpt>
      <trkpt lat="28.5179730" lon="-17.8360600">
        <ele>1176.9</ele>
        <time>2020-11-17T11:41:25Z</time>
      </trkpt>
      <trkpt lat="28.5179730" lon="-17.8360600">
        <ele>1176.9</ele>
        <time>2020-11-17T11:41:26Z</time>
      </trkpt>
      <trkpt lat="28.5179950" lon="-17.8359880">
        <ele>1177.1</ele>
        <time>2020-11-17T11:41:27Z</time>
      </trkpt>
      <trkpt lat="28.5180050" lon="-17.8359550">
        <ele>1177.2</ele>
        <time>2020-11-17T11:41:28Z</time>
      </trkpt>
      <trkpt lat="28.5180050" lon="-17.8359550">
        <ele>1177.2</ele>
        <time>2020-11-17T11:41:29Z</time>
      </trkpt>
      <trkpt lat="28.5180350" lon="-17.8358980">
        <ele>1177.3</ele>
        <time>2020-11-17T11:41:30Z</time>
      </trkpt>
      <trkpt lat="28.5180350" lon="-17.8358980">
        <ele>1177.3</ele>
        <time>2020-11-17T11:41:31Z</time>
      </trkpt>
      <trkpt lat="28.5180730" lon="-17.8358520">
        <ele>1177.4</ele>
        <time>2020-11-17T11:41:32Z</time>
      </trkpt>
      <trkpt lat="28.5180900" lon="-17.8358230">
        <ele>1177.5</ele>
        <time>2020-11-17T11:41:33Z</time>
      </trkpt>
      <trkpt lat="28.5180900" lon="-17.8358230">
        <ele>1177.5</ele>
        <time>2020-11-17T11:41:34Z</time>
      </trkpt>
      <trkpt lat="28.5181200" lon="-17.8357580">
        <ele>1177.6</ele>
        <time>2020-11-17T11:41:35Z</time>
      </trkpt>
      <trkpt lat="28.5181400" lon="-17.8357280">
        <ele>1177.6</ele>
        <time>2020-11-17T11:41:36Z</time>
      </trkpt>
      <trkpt lat="28.5181400" lon="-17.8357280">
        <ele>1177.6</ele>
        <time>2020-11-17T11:41:37Z</time>
      </trkpt>
      <trkpt lat="28.5181720" lon="-17.8356820">
        <ele>1177.7</ele>
        <time>2020-11-17T11:41:38Z</time>
      </trkpt>
      <trkpt lat="28.5181850" lon="-17.8356570">
        <ele>1177.7</ele>
        <time>2020-11-17T11:41:39Z</time>
      </trkpt>
      <trkpt lat="28.5181850" lon="-17.8356570">
        <ele>1177.7</ele>
        <time>2020-11-17T11:41:40Z</time>
      </trkpt>
      <trkpt lat="28.5182130" lon="-17.8356080">
        <ele>1177.8</ele>
        <time>2020-11-17T11:41:41Z</time>
      </trkpt>
      <trkpt lat="28.5182270" lon="-17.8355800">
        <ele>1177.8</ele>
        <time>2020-11-17T11:41:42Z</time>
      </trkpt>
      <trkpt lat="28.5182270" lon="-17.8355800">
        <ele>1177.8</ele>
        <time>2020-11-17T11:41:43Z</time>
      </trkpt>
      <trkpt lat="28.5182580" lon="-17.8355250">
        <ele>1177.9</ele>
        <time>2020-11-17T11:41:44Z</time>
      </trkpt>
      <trkpt lat="28.5182580" lon="-17.8355250">
        <ele>1177.9</ele>
        <time>2020-11-17T11:41:45Z</time>
      </trkpt>
      <trkpt lat="28.5182950" lon="-17.8354670">
        <ele>1177.9</ele>
        <time>2020-11-17T11:41:46Z</time>
      </trkpt>
      <trkpt lat="28.5182950" lon="-17.8354670">
        <ele>1177.9</ele>
        <time>2020-11-17T11:41:47Z</time>
      </trkpt>
      <trkpt lat="28.5183320" lon="-17.8354050">
        <ele>1177.9</ele>
        <time>2020-11-17T11:41:48Z</time>
      </trkpt>
      <trkpt lat="28.5183450" lon="-17.8353730">
        <ele>1177.9</ele>
        <time>2020-11-17T11:41:49Z</time>
      </trkpt>
      <trkpt lat="28.5183450" lon="-17.8353730">
        <ele>1177.9</ele>
        <time>2020-11-17T11:41:50Z</time>
      </trkpt>
      <trkpt lat="28.5183770" lon="-17.8353080">
        <ele>1177.9</ele>
        <time>2020-11-17T11:41:51Z</time>
      </trkpt>
      <trkpt lat="28.5183770" lon="-17.8353080">
        <ele>1177.9</ele>
        <time>2020-11-17T11:41:52Z</time>
      </trkpt>
      <trkpt lat="28.5184120" lon="-17.8352420">
        <ele>1177.9</ele>
        <time>2020-11-17T11:41:53Z</time>
      </trkpt>
      <trkpt lat="28.5184280" lon="-17.8352100">
        <ele>1177.9</ele>
        <time>2020-11-17T11:41:54Z</time>
      </trkpt>
      <trkpt lat="28.5184280" lon="-17.8352100">
        <ele>1177.9</ele>
        <time>2020-11-17T11:41:55Z</time>
      </trkpt>
      <trkpt lat="28.5184630" lon="-17.8351450">
        <ele>1177.8</ele>
        <time>2020-11-17T11:41:56Z</time>
      </trkpt>
      <trkpt lat="28.5184780" lon="-17.8351120">
        <ele>1177.8</ele>
        <time>2020-11-17T11:41:57Z</time>
      </trkpt>
      <trkpt lat="28.5184780" lon="-17.8351120">
        <ele>1177.8</ele>
        <time>2020-11-17T11:41:58Z</time>
      </trkpt>
      <trkpt lat="28.5185100" lon="-17.8350320">
        <ele>1177.6</ele>
        <time>2020-11-17T11:41:59Z</time>
      </trkpt>
      <trkpt lat="28.5185300" lon="-17.8349930">
        <ele>1177.6</ele>
        <time>2020-11-17T11:42:00Z</time>
      </trkpt>
      <trkpt lat="28.5185300" lon="-17.8349930">
        <ele>1177.6</ele>
        <time>2020-11-17T11:42:01Z</time>
      </trkpt>
      <trkpt lat="28.5185620" lon="-17.8349130">
        <ele>1177.5</ele>
        <time>2020-11-17T11:42:02Z</time>
      </trkpt>
      <trkpt lat="28.5185850" lon="-17.8348770">
        <ele>1177.5</ele>
        <time>2020-11-17T11:42:03Z</time>
      </trkpt>
      <trkpt lat="28.5185850" lon="-17.8348770">
        <ele>1177.5</ele>
        <time>2020-11-17T11:42:04Z</time>
      </trkpt>
      <trkpt lat="28.5186320" lon="-17.8348130">
        <ele>1177.7</ele>
        <time>2020-11-17T11:42:05Z</time>
      </trkpt>
      <trkpt lat="28.5186470" lon="-17.8347770">
        <ele>1178.0</ele>
        <time>2020-11-17T11:42:06Z</time>
      </trkpt>
      <trkpt lat="28.5186470" lon="-17.8347770">
        <ele>1178.0</ele>
        <time>2020-11-17T11:42:07Z</time>
      </trkpt>
      <trkpt lat="28.5186770" lon="-17.8347080">
        <ele>1178.6</ele>
        <time>2020-11-17T11:42:08Z</time>
      </trkpt>
      <trkpt lat="28.5186770" lon="-17.8347080">
        <ele>1178.6</ele>
        <time>2020-11-17T11:42:09Z</time>
      </trkpt>
      <trkpt lat="28.5187030" lon="-17.8346680">
        <ele>1179.1</ele>
        <time>2020-11-17T11:42:10Z</time>
      </trkpt>
      <trkpt lat="28.5187130" lon="-17.8346570">
        <ele>1179.3</ele>
        <time>2020-11-17T11:42:11Z</time>
      </trkpt>
      <trkpt lat="28.5187130" lon="-17.8346570">
        <ele>1179.3</ele>
        <time>2020-11-17T11:42:12Z</time>
      </trkpt>
      <trkpt lat="28.5187180" lon="-17.8346350">
        <ele>1179.6</ele>
        <time>2020-11-17T11:42:13Z</time>
      </trkpt>
      <trkpt lat="28.5187150" lon="-17.8346300">
        <ele>1179.7</ele>
        <time>2020-11-17T11:42:14Z</time>
      </trkpt>
      <trkpt lat="28.5187150" lon="-17.8346300">
        <ele>1179.7</ele>
        <time>2020-11-17T11:42:15Z</time>
      </trkpt>
      <trkpt lat="28.5187120" lon="-17.8346250">
        <ele>1179.7</ele>
        <time>2020-11-17T11:42:46Z</time>
      </trkpt>
      <trkpt lat="28.5187120" lon="-17.8346250">
        <ele>1179.7</ele>
        <time>2020-11-17T11:42:47Z</time>
      </trkpt>
      <trkpt lat="28.5187120" lon="-17.8346250">
        <ele>1179.7</ele>
        <time>2020-11-17T11:43:05Z</time>
      </trkpt>
      <trkpt lat="28.5187370" lon="-17.8345820">
        <ele>1178.8</ele>
        <time>2020-11-17T11:43:06Z</time>
      </trkpt>
      <trkpt lat="28.5187370" lon="-17.8345820">
        <ele>1178.8</ele>
        <time>2020-11-17T11:43:07Z</time>
      </trkpt>
      <trkpt lat="28.5187550" lon="-17.8345820">
        <ele>1178.4</ele>
        <time>2020-11-17T11:43:08Z</time>
      </trkpt>
      <trkpt lat="28.5187550" lon="-17.8345820">
        <ele>1178.4</ele>
        <time>2020-11-17T11:43:09Z</time>
      </trkpt>
      <trkpt lat="28.5187720" lon="-17.8345800">
        <ele>1178.0</ele>
        <time>2020-11-17T11:43:10Z</time>
      </trkpt>
      <trkpt lat="28.5187820" lon="-17.8345820">
        <ele>1177.7</ele>
        <time>2020-11-17T11:43:11Z</time>
      </trkpt>
      <trkpt lat="28.5187820" lon="-17.8345820">
        <ele>1177.7</ele>
        <time>2020-11-17T11:43:12Z</time>
      </trkpt>
      <trkpt lat="28.5187950" lon="-17.8345700">
        <ele>1177.3</ele>
        <time>2020-11-17T11:43:13Z</time>
      </trkpt>
      <trkpt lat="28.5187950" lon="-17.8345700">
        <ele>1177.3</ele>
        <time>2020-11-17T11:43:14Z</time>
      </trkpt>
      <trkpt lat="28.5188080" lon="-17.8345530">
        <ele>1176.8</ele>
        <time>2020-11-17T11:43:15Z</time>
      </trkpt>
      <trkpt lat="28.5188080" lon="-17.8345530">
        <ele>1176.8</ele>
        <time>2020-11-17T11:43:16Z</time>
      </trkpt>
      <trkpt lat="28.5188170" lon="-17.8345320">
        <ele>1176.2</ele>
        <time>2020-11-17T11:43:17Z</time>
      </trkpt>
      <trkpt lat="28.5188200" lon="-17.8345170">
        <ele>1175.9</ele>
        <time>2020-11-17T11:43:18Z</time>
      </trkpt>
      <trkpt lat="28.5188200" lon="-17.8345170">
        <ele>1175.9</ele>
        <time>2020-11-17T11:43:19Z</time>
      </trkpt>
      <trkpt lat="28.5188320" lon="-17.8345000">
        <ele>1175.3</ele>
        <time>2020-11-17T11:43:20Z</time>
      </trkpt>
      <trkpt lat="28.5188320" lon="-17.8345000">
        <ele>1175.3</ele>
        <time>2020-11-17T11:43:21Z</time>
      </trkpt>
      <trkpt lat="28.5188470" lon="-17.8344930">
        <ele>1174.9</ele>
        <time>2020-11-17T11:43:22Z</time>
      </trkpt>
      <trkpt lat="28.5188470" lon="-17.8344930">
        <ele>1174.9</ele>
        <time>2020-11-17T11:43:23Z</time>
      </trkpt>
      <trkpt lat="28.5188650" lon="-17.8344930">
        <ele>1174.3</ele>
        <time>2020-11-17T11:43:24Z</time>
      </trkpt>
      <trkpt lat="28.5188650" lon="-17.8344930">
        <ele>1174.3</ele>
        <time>2020-11-17T11:43:25Z</time>
      </trkpt>
      <trkpt lat="28.5188730" lon="-17.8344980">
        <ele>1174.1</ele>
        <time>2020-11-17T11:43:26Z</time>
      </trkpt>
      <trkpt lat="28.5188730" lon="-17.8344980">
        <ele>1174.1</ele>
        <time>2020-11-17T11:43:37Z</time>
      </trkpt>
      <trkpt lat="28.5188850" lon="-17.8344620">
        <ele>1173.0</ele>
        <time>2020-11-17T11:43:38Z</time>
      </trkpt>
      <trkpt lat="28.5188850" lon="-17.8344620">
        <ele>1173.0</ele>
        <time>2020-11-17T11:43:54Z</time>
      </trkpt>
      <trkpt lat="28.5188850" lon="-17.8344620">
        <ele>1173.0</ele>
        <time>2020-11-17T11:43:55Z</time>
      </trkpt>
      <trkpt lat="28.5189500" lon="-17.8344200">
        <ele>1170.6</ele>
        <time>2020-11-17T11:43:56Z</time>
      </trkpt>
      <trkpt lat="28.5189500" lon="-17.8344200">
        <ele>1170.6</ele>
        <time>2020-11-17T11:43:57Z</time>
      </trkpt>
      <trkpt lat="28.5189570" lon="-17.8344130">
        <ele>1170.2</ele>
        <time>2020-11-17T11:43:58Z</time>
      </trkpt>
      <trkpt lat="28.5189570" lon="-17.8344130">
        <ele>1170.2</ele>
        <time>2020-11-17T11:43:59Z</time>
      </trkpt>
      <trkpt lat="28.5190050" lon="-17.8343820">
        <ele>1168.4</ele>
        <time>2020-11-17T11:44:08Z</time>
      </trkpt>
      <trkpt lat="28.5190050" lon="-17.8343820">
        <ele>1168.4</ele>
        <time>2020-11-17T11:44:09Z</time>
      </trkpt>
      <trkpt lat="28.5190380" lon="-17.8343480">
        <ele>1167.0</ele>
        <time>2020-11-17T11:44:10Z</time>
      </trkpt>
      <trkpt lat="28.5190570" lon="-17.8343280">
        <ele>1166.2</ele>
        <time>2020-11-17T11:44:11Z</time>
      </trkpt>
      <trkpt lat="28.5190570" lon="-17.8343280">
        <ele>1166.2</ele>
        <time>2020-11-17T11:44:12Z</time>
      </trkpt>
      <trkpt lat="28.5190920" lon="-17.8342880">
        <ele>1164.6</ele>
        <time>2020-11-17T11:44:13Z</time>
      </trkpt>
      <trkpt lat="28.5190920" lon="-17.8342880">
        <ele>1164.6</ele>
        <time>2020-11-17T11:44:14Z</time>
      </trkpt>
      <trkpt lat="28.5191170" lon="-17.8342480">
        <ele>1163.2</ele>
        <time>2020-11-17T11:44:15Z</time>
      </trkpt>
      <trkpt lat="28.5191170" lon="-17.8342480">
        <ele>1163.2</ele>
        <time>2020-11-17T11:44:16Z</time>
      </trkpt>
      <trkpt lat="28.5191420" lon="-17.8342130">
        <ele>1161.9</ele>
        <time>2020-11-17T11:44:17Z</time>
      </trkpt>
      <trkpt lat="28.5191530" lon="-17.8341980">
        <ele>1161.3</ele>
        <time>2020-11-17T11:44:18Z</time>
      </trkpt>
      <trkpt lat="28.5191530" lon="-17.8341980">
        <ele>1161.3</ele>
        <time>2020-11-17T11:44:19Z</time>
      </trkpt>
      <trkpt lat="28.5191670" lon="-17.8341520">
        <ele>1159.9</ele>
        <time>2020-11-17T11:44:20Z</time>
      </trkpt>
      <trkpt lat="28.5191670" lon="-17.8341520">
        <ele>1159.9</ele>
        <time>2020-11-17T11:44:21Z</time>
      </trkpt>
      <trkpt lat="28.5191820" lon="-17.8341080">
        <ele>1158.6</ele>
        <time>2020-11-17T11:44:22Z</time>
      </trkpt>
      <trkpt lat="28.5191880" lon="-17.8340920">
        <ele>1158.1</ele>
        <time>2020-11-17T11:44:23Z</time>
      </trkpt>
      <trkpt lat="28.5191920" lon="-17.8340800">
        <ele>1157.7</ele>
        <time>2020-11-17T11:44:24Z</time>
      </trkpt>
      <trkpt lat="28.5191920" lon="-17.8340800">
        <ele>1157.7</ele>
        <time>2020-11-17T11:44:25Z</time>
      </trkpt>
      <trkpt lat="28.5191970" lon="-17.8340680">
        <ele>1157.3</ele>
        <time>2020-11-17T11:44:26Z</time>
      </trkpt>
      <trkpt lat="28.5192050" lon="-17.8340630">
        <ele>1157.0</ele>
        <time>2020-11-17T11:44:27Z</time>
      </trkpt>
      <trkpt lat="28.5192050" lon="-17.8340630">
        <ele>1157.0</ele>
        <time>2020-11-17T11:44:28Z</time>
      </trkpt>
      <trkpt lat="28.5192100" lon="-17.8340570">
        <ele>1156.8</ele>
        <time>2020-11-17T11:44:29Z</time>
      </trkpt>
      <trkpt lat="28.5192100" lon="-17.8340570">
        <ele>1156.8</ele>
        <time>2020-11-17T11:44:34Z</time>
      </trkpt>
      <trkpt lat="28.5192100" lon="-17.8340570">
        <ele>1156.8</ele>
        <time>2020-11-17T11:44:35Z</time>
      </trkpt>
      <trkpt lat="28.5191400" lon="-17.8340300">
        <ele>1154.4</ele>
        <time>2020-11-17T11:44:36Z</time>
      </trkpt>
      <trkpt lat="28.5191400" lon="-17.8340300">
        <ele>1154.4</ele>
        <time>2020-11-17T11:44:37Z</time>
      </trkpt>
      <trkpt lat="28.5191070" lon="-17.8340150">
        <ele>1153.3</ele>
        <time>2020-11-17T11:44:38Z</time>
      </trkpt>
      <trkpt lat="28.5191070" lon="-17.8340150">
        <ele>1153.3</ele>
        <time>2020-11-17T11:44:39Z</time>
      </trkpt>
      <trkpt lat="28.5190870" lon="-17.8340080">
        <ele>1152.7</ele>
        <time>2020-11-17T11:44:40Z</time>
      </trkpt>
      <trkpt lat="28.5190870" lon="-17.8340080">
        <ele>1152.7</ele>
        <time>2020-11-17T11:44:41Z</time>
      </trkpt>
      <trkpt lat="28.5190850" lon="-17.8339950">
        <ele>1152.3</ele>
        <time>2020-11-17T11:44:42Z</time>
      </trkpt>
      <trkpt lat="28.5190850" lon="-17.8339950">
        <ele>1152.3</ele>
        <time>2020-11-17T11:44:51Z</time>
      </trkpt>
      <trkpt lat="28.5190850" lon="-17.8339950">
        <ele>1152.3</ele>
        <time>2020-11-17T11:44:52Z</time>
      </trkpt>
      <trkpt lat="28.5190970" lon="-17.8338730">
        <ele>1149.1</ele>
        <time>2020-11-17T11:44:53Z</time>
      </trkpt>
      <trkpt lat="28.5190970" lon="-17.8338730">
        <ele>1149.1</ele>
        <time>2020-11-17T11:44:54Z</time>
      </trkpt>
      <trkpt lat="28.5190970" lon="-17.8338470">
        <ele>1148.3</ele>
        <time>2020-11-17T11:44:55Z</time>
      </trkpt>
      <trkpt lat="28.5190970" lon="-17.8338350">
        <ele>1148.0</ele>
        <time>2020-11-17T11:44:56Z</time>
      </trkpt>
      <trkpt lat="28.5190970" lon="-17.8338350">
        <ele>1148.0</ele>
        <time>2020-11-17T11:44:57Z</time>
      </trkpt>
      <trkpt lat="28.5190930" lon="-17.8338180">
        <ele>1147.5</ele>
        <time>2020-11-17T11:44:58Z</time>
      </trkpt>
      <trkpt lat="28.5190900" lon="-17.8338130">
        <ele>1147.3</ele>
        <time>2020-11-17T11:44:59Z</time>
      </trkpt>
      <trkpt lat="28.5190900" lon="-17.8338130">
        <ele>1147.3</ele>
        <time>2020-11-17T11:45:00Z</time>
      </trkpt>
      <trkpt lat="28.5190920" lon="-17.8338120">
        <ele>1147.2</ele>
        <time>2020-11-17T11:45:01Z</time>
      </trkpt>
      <trkpt lat="28.5190920" lon="-17.8338120">
        <ele>1147.2</ele>
        <time>2020-11-17T11:45:02Z</time>
      </trkpt>
      <trkpt lat="28.5191050" lon="-17.8338230">
        <ele>1146.6</ele>
        <time>2020-11-17T11:45:07Z</time>
      </trkpt>
      <trkpt lat="28.5191280" lon="-17.8337720">
        <ele>1144.8</ele>
        <time>2020-11-17T11:45:08Z</time>
      </trkpt>
      <trkpt lat="28.5191280" lon="-17.8337720">
        <ele>1144.8</ele>
        <time>2020-11-17T11:45:09Z</time>
      </trkpt>
      <trkpt lat="28.5191520" lon="-17.8337180">
        <ele>1142.9</ele>
        <time>2020-11-17T11:45:10Z</time>
      </trkpt>
      <trkpt lat="28.5191520" lon="-17.8337180">
        <ele>1142.9</ele>
        <time>2020-11-17T11:45:11Z</time>
      </trkpt>
      <trkpt lat="28.5191820" lon="-17.8336620">
        <ele>1140.9</ele>
        <time>2020-11-17T11:45:12Z</time>
      </trkpt>
      <trkpt lat="28.5191820" lon="-17.8336620">
        <ele>1140.9</ele>
        <time>2020-11-17T11:45:13Z</time>
      </trkpt>
      <trkpt lat="28.5192070" lon="-17.8336180">
        <ele>1139.5</ele>
        <time>2020-11-17T11:45:14Z</time>
      </trkpt>
      <trkpt lat="28.5192070" lon="-17.8336180">
        <ele>1139.5</ele>
        <time>2020-11-17T11:45:15Z</time>
      </trkpt>
      <trkpt lat="28.5192370" lon="-17.8335900">
        <ele>1138.5</ele>
        <time>2020-11-17T11:45:16Z</time>
      </trkpt>
      <trkpt lat="28.5192500" lon="-17.8335820">
        <ele>1138.2</ele>
        <time>2020-11-17T11:45:17Z</time>
      </trkpt>
      <trkpt lat="28.5192500" lon="-17.8335820">
        <ele>1138.2</ele>
        <time>2020-11-17T11:45:18Z</time>
      </trkpt>
      <trkpt lat="28.5192600" lon="-17.8335850">
        <ele>1137.9</ele>
        <time>2020-11-17T11:45:19Z</time>
      </trkpt>
      <trkpt lat="28.5192600" lon="-17.8335850">
        <ele>1137.9</ele>
        <time>2020-11-17T11:45:20Z</time>
      </trkpt>
      <trkpt lat="28.5192550" lon="-17.8335900">
        <ele>1137.7</ele>
        <time>2020-11-17T11:45:21Z</time>
      </trkpt>
      <trkpt lat="28.5192550" lon="-17.8335900">
        <ele>1137.7</ele>
        <time>2020-11-17T11:45:22Z</time>
      </trkpt>
      <trkpt lat="28.5192570" lon="-17.8335920">
        <ele>1137.7</ele>
        <time>2020-11-17T11:45:23Z</time>
      </trkpt>
      <trkpt lat="28.5192570" lon="-17.8335920">
        <ele>1137.7</ele>
        <time>2020-11-17T11:45:30Z</time>
      </trkpt>
      <trkpt lat="28.5192570" lon="-17.8335920">
        <ele>1137.7</ele>
        <time>2020-11-17T11:45:31Z</time>
      </trkpt>
      <trkpt lat="28.5192980" lon="-17.8335320">
        <ele>1136.2</ele>
        <time>2020-11-17T11:45:32Z</time>
      </trkpt>
      <trkpt lat="28.5193000" lon="-17.8335270">
        <ele>1136.1</ele>
        <time>2020-11-17T11:45:33Z</time>
      </trkpt>
      <trkpt lat="28.5193000" lon="-17.8335270">
        <ele>1136.1</ele>
        <time>2020-11-17T11:45:34Z</time>
      </trkpt>
      <trkpt lat="28.5193080" lon="-17.8335170">
        <ele>1135.8</ele>
        <time>2020-11-17T11:45:35Z</time>
      </trkpt>
      <trkpt lat="28.5193080" lon="-17.8335170">
        <ele>1135.8</ele>
        <time>2020-11-17T11:45:36Z</time>
      </trkpt>
      <trkpt lat="28.5193080" lon="-17.8334970">
        <ele>1135.5</ele>
        <time>2020-11-17T11:45:37Z</time>
      </trkpt>
      <trkpt lat="28.5193080" lon="-17.8334970">
        <ele>1135.5</ele>
        <time>2020-11-17T11:45:38Z</time>
      </trkpt>
      <trkpt lat="28.5193050" lon="-17.8334830">
        <ele>1135.2</ele>
        <time>2020-11-17T11:45:39Z</time>
      </trkpt>
      <trkpt lat="28.5193050" lon="-17.8334830">
        <ele>1135.2</ele>
        <time>2020-11-17T11:45:40Z</time>
      </trkpt>
      <trkpt lat="28.5193080" lon="-17.8334650">
        <ele>1134.8</ele>
        <time>2020-11-17T11:45:41Z</time>
      </trkpt>
      <trkpt lat="28.5193100" lon="-17.8334530">
        <ele>1134.6</ele>
        <time>2020-11-17T11:45:42Z</time>
      </trkpt>
      <trkpt lat="28.5193100" lon="-17.8334530">
        <ele>1134.6</ele>
        <time>2020-11-17T11:45:43Z</time>
      </trkpt>
      <trkpt lat="28.5193180" lon="-17.8334270">
        <ele>1134.1</ele>
        <time>2020-11-17T11:45:44Z</time>
      </trkpt>
      <trkpt lat="28.5193180" lon="-17.8334270">
        <ele>1134.1</ele>
        <time>2020-11-17T11:45:45Z</time>
      </trkpt>
      <trkpt lat="28.5193320" lon="-17.8334030">
        <ele>1133.5</ele>
        <time>2020-11-17T11:45:46Z</time>
      </trkpt>
      <trkpt lat="28.5193380" lon="-17.8333920">
        <ele>1133.3</ele>
        <time>2020-11-17T11:45:47Z</time>
      </trkpt>
      <trkpt lat="28.5193380" lon="-17.8333920">
        <ele>1133.3</ele>
        <time>2020-11-17T11:45:48Z</time>
      </trkpt>
      <trkpt lat="28.5193570" lon="-17.8333670">
        <ele>1132.7</ele>
        <time>2020-11-17T11:45:49Z</time>
      </trkpt>
      <trkpt lat="28.5193570" lon="-17.8333670">
        <ele>1132.7</ele>
        <time>2020-11-17T11:45:50Z</time>
      </trkpt>
      <trkpt lat="28.5193670" lon="-17.8333350">
        <ele>1132.0</ele>
        <time>2020-11-17T11:45:51Z</time>
      </trkpt>
      <trkpt lat="28.5193670" lon="-17.8333350">
        <ele>1132.0</ele>
        <time>2020-11-17T11:45:52Z</time>
      </trkpt>
      <trkpt lat="28.5193750" lon="-17.8333100">
        <ele>1131.5</ele>
        <time>2020-11-17T11:45:53Z</time>
      </trkpt>
      <trkpt lat="28.5193730" lon="-17.8333070">
        <ele>1131.5</ele>
        <time>2020-11-17T11:45:54Z</time>
      </trkpt>
      <trkpt lat="28.5193730" lon="-17.8333070">
        <ele>1131.5</ele>
        <time>2020-11-17T11:45:55Z</time>
      </trkpt>
      <trkpt lat="28.5193800" lon="-17.8332870">
        <ele>1131.0</ele>
        <time>2020-11-17T11:45:56Z</time>
      </trkpt>
      <trkpt lat="28.5193800" lon="-17.8332870">
        <ele>1131.0</ele>
        <time>2020-11-17T11:45:57Z</time>
      </trkpt>
      <trkpt lat="28.5193950" lon="-17.8332820">
        <ele>1130.7</ele>
        <time>2020-11-17T11:45:58Z</time>
      </trkpt>
      <trkpt lat="28.5194050" lon="-17.8332730">
        <ele>1130.4</ele>
        <time>2020-11-17T11:45:59Z</time>
      </trkpt>
      <trkpt lat="28.5194050" lon="-17.8332730">
        <ele>1130.4</ele>
        <time>2020-11-17T11:46:00Z</time>
      </trkpt>
      <trkpt lat="28.5194180" lon="-17.8332520">
        <ele>1129.9</ele>
        <time>2020-11-17T11:46:01Z</time>
      </trkpt>
      <trkpt lat="28.5194180" lon="-17.8332520">
        <ele>1129.9</ele>
        <time>2020-11-17T11:46:02Z</time>
      </trkpt>
      <trkpt lat="28.5194230" lon="-17.8332250">
        <ele>1129.4</ele>
        <time>2020-11-17T11:46:03Z</time>
      </trkpt>
      <trkpt lat="28.5194270" lon="-17.8332150">
        <ele>1129.2</ele>
        <time>2020-11-17T11:46:04Z</time>
      </trkpt>
      <trkpt lat="28.5194270" lon="-17.8332150">
        <ele>1129.2</ele>
        <time>2020-11-17T11:46:05Z</time>
      </trkpt>
      <trkpt lat="28.5194300" lon="-17.8332070">
        <ele>1129.0</ele>
        <time>2020-11-17T11:46:15Z</time>
      </trkpt>
      <trkpt lat="28.5193800" lon="-17.8331550">
        <ele>1127.5</ele>
        <time>2020-11-17T11:46:16Z</time>
      </trkpt>
      <trkpt lat="28.5193800" lon="-17.8331550">
        <ele>1127.5</ele>
        <time>2020-11-17T11:46:17Z</time>
      </trkpt>
      <trkpt lat="28.5193670" lon="-17.8331370">
        <ele>1127.0</ele>
        <time>2020-11-17T11:46:18Z</time>
      </trkpt>
      <trkpt lat="28.5193670" lon="-17.8331370">
        <ele>1127.0</ele>
        <time>2020-11-17T11:46:19Z</time>
      </trkpt>
      <trkpt lat="28.5193550" lon="-17.8331330">
        <ele>1126.8</ele>
        <time>2020-11-17T11:46:20Z</time>
      </trkpt>
      <trkpt lat="28.5193550" lon="-17.8331330">
        <ele>1126.8</ele>
        <time>2020-11-17T11:46:21Z</time>
      </trkpt>
      <trkpt lat="28.5193470" lon="-17.8331280">
        <ele>1126.6</ele>
        <time>2020-11-17T11:46:33Z</time>
      </trkpt>
      <trkpt lat="28.5193170" lon="-17.8331220">
        <ele>1125.9</ele>
        <time>2020-11-17T11:46:34Z</time>
      </trkpt>
      <trkpt lat="28.5193170" lon="-17.8331220">
        <ele>1125.9</ele>
        <time>2020-11-17T11:46:35Z</time>
      </trkpt>
      <trkpt lat="28.5193050" lon="-17.8331220">
        <ele>1125.1</ele>
        <time>2020-11-17T11:46:36Z</time>
      </trkpt>
      <trkpt lat="28.5193050" lon="-17.8331220">
        <ele>1125.1</ele>
        <time>2020-11-17T11:46:37Z</time>
      </trkpt>
      <trkpt lat="28.5193050" lon="-17.8331220">
        <ele>1125.1</ele>
        <time>2020-11-17T11:49:42Z</time>
      </trkpt>
      <trkpt lat="28.5193050" lon="-17.8331220">
        <ele>1125.1</ele>
        <time>2020-11-17T11:49:43Z</time>
      </trkpt>
      <trkpt lat="28.5193470" lon="-17.8331300">
        <ele>1125.0</ele>
        <time>2020-11-17T11:49:44Z</time>
      </trkpt>
      <trkpt lat="28.5193470" lon="-17.8331300">
        <ele>1125.0</ele>
        <time>2020-11-17T11:49:45Z</time>
      </trkpt>
      <trkpt lat="28.5193550" lon="-17.8331030">
        <ele>1124.9</ele>
        <time>2020-11-17T11:49:46Z</time>
      </trkpt>
      <trkpt lat="28.5193550" lon="-17.8331030">
        <ele>1124.9</ele>
        <time>2020-11-17T11:49:47Z</time>
      </trkpt>
      <trkpt lat="28.5193630" lon="-17.8330680">
        <ele>1124.8</ele>
        <time>2020-11-17T11:49:48Z</time>
      </trkpt>
      <trkpt lat="28.5193630" lon="-17.8330680">
        <ele>1124.8</ele>
        <time>2020-11-17T11:49:49Z</time>
      </trkpt>
      <trkpt lat="28.5193800" lon="-17.8330370">
        <ele>1124.7</ele>
        <time>2020-11-17T11:49:50Z</time>
      </trkpt>
      <trkpt lat="28.5193800" lon="-17.8330370">
        <ele>1124.7</ele>
        <time>2020-11-17T11:49:51Z</time>
      </trkpt>
      <trkpt lat="28.5193830" lon="-17.8330070">
        <ele>1124.5</ele>
        <time>2020-11-17T11:49:52Z</time>
      </trkpt>
      <trkpt lat="28.5193830" lon="-17.8330070">
        <ele>1124.5</ele>
        <time>2020-11-17T11:49:53Z</time>
      </trkpt>
      <trkpt lat="28.5193900" lon="-17.8329870">
        <ele>1124.4</ele>
        <time>2020-11-17T11:49:54Z</time>
      </trkpt>
      <trkpt lat="28.5193900" lon="-17.8329870">
        <ele>1124.4</ele>
        <time>2020-11-17T11:49:55Z</time>
      </trkpt>
      <trkpt lat="28.5193930" lon="-17.8329900">
        <ele>1124.4</ele>
        <time>2020-11-17T11:49:56Z</time>
      </trkpt>
      <trkpt lat="28.5193930" lon="-17.8329920">
        <ele>1124.4</ele>
        <time>2020-11-17T11:49:57Z</time>
      </trkpt>
      <trkpt lat="28.5193930" lon="-17.8329950">
        <ele>1124.3</ele>
        <time>2020-11-17T11:49:58Z</time>
      </trkpt>
      <trkpt lat="28.5193930" lon="-17.8329950">
        <ele>1124.3</ele>
        <time>2020-11-17T11:49:59Z</time>
      </trkpt>
      <trkpt lat="28.5193930" lon="-17.8329950">
        <ele>1124.3</ele>
        <time>2020-11-17T11:50:18Z</time>
      </trkpt>
      <trkpt lat="28.5194230" lon="-17.8329700">
        <ele>1124.1</ele>
        <time>2020-11-17T11:50:19Z</time>
      </trkpt>
      <trkpt lat="28.5194370" lon="-17.8329430">
        <ele>1123.9</ele>
        <time>2020-11-17T11:50:20Z</time>
      </trkpt>
      <trkpt lat="28.5194370" lon="-17.8329430">
        <ele>1123.9</ele>
        <time>2020-11-17T11:50:21Z</time>
      </trkpt>
      <trkpt lat="28.5194550" lon="-17.8328720">
        <ele>1123.4</ele>
        <time>2020-11-17T11:50:22Z</time>
      </trkpt>
      <trkpt lat="28.5194550" lon="-17.8328720">
        <ele>1123.4</ele>
        <time>2020-11-17T11:50:23Z</time>
      </trkpt>
      <trkpt lat="28.5194700" lon="-17.8328080">
        <ele>1123.1</ele>
        <time>2020-11-17T11:50:24Z</time>
      </trkpt>
      <trkpt lat="28.5194800" lon="-17.8327770">
        <ele>1122.9</ele>
        <time>2020-11-17T11:50:25Z</time>
      </trkpt>
      <trkpt lat="28.5194800" lon="-17.8327770">
        <ele>1122.9</ele>
        <time>2020-11-17T11:50:26Z</time>
      </trkpt>
      <trkpt lat="28.5195100" lon="-17.8327170">
        <ele>1122.5</ele>
        <time>2020-11-17T11:50:27Z</time>
      </trkpt>
      <trkpt lat="28.5195100" lon="-17.8327170">
        <ele>1122.5</ele>
        <time>2020-11-17T11:50:28Z</time>
      </trkpt>
      <trkpt lat="28.5195500" lon="-17.8326600">
        <ele>1122.2</ele>
        <time>2020-11-17T11:50:29Z</time>
      </trkpt>
      <trkpt lat="28.5195720" lon="-17.8326330">
        <ele>1122.0</ele>
        <time>2020-11-17T11:50:30Z</time>
      </trkpt>
      <trkpt lat="28.5195720" lon="-17.8326330">
        <ele>1122.0</ele>
        <time>2020-11-17T11:50:31Z</time>
      </trkpt>
      <trkpt lat="28.5196220" lon="-17.8325830">
        <ele>1121.6</ele>
        <time>2020-11-17T11:50:32Z</time>
      </trkpt>
      <trkpt lat="28.5196220" lon="-17.8325830">
        <ele>1121.6</ele>
        <time>2020-11-17T11:50:33Z</time>
      </trkpt>
      <trkpt lat="28.5196820" lon="-17.8325330">
        <ele>1121.1</ele>
        <time>2020-11-17T11:50:34Z</time>
      </trkpt>
      <trkpt lat="28.5197100" lon="-17.8325080">
        <ele>1120.9</ele>
        <time>2020-11-17T11:50:35Z</time>
      </trkpt>
      <trkpt lat="28.5197400" lon="-17.8324880">
        <ele>1120.7</ele>
        <time>2020-11-17T11:50:36Z</time>
      </trkpt>
      <trkpt lat="28.5197400" lon="-17.8324880">
        <ele>1120.7</ele>
        <time>2020-11-17T11:50:37Z</time>
      </trkpt>
      <trkpt lat="28.5198070" lon="-17.8324380">
        <ele>1120.1</ele>
        <time>2020-11-17T11:50:38Z</time>
      </trkpt>
      <trkpt lat="28.5198070" lon="-17.8324380">
        <ele>1120.1</ele>
        <time>2020-11-17T11:50:39Z</time>
      </trkpt>
      <trkpt lat="28.5198680" lon="-17.8323670">
        <ele>1119.6</ele>
        <time>2020-11-17T11:50:40Z</time>
      </trkpt>
      <trkpt lat="28.5198950" lon="-17.8323330">
        <ele>1119.3</ele>
        <time>2020-11-17T11:50:41Z</time>
      </trkpt>
      <trkpt lat="28.5198950" lon="-17.8323330">
        <ele>1119.3</ele>
        <time>2020-11-17T11:50:42Z</time>
      </trkpt>
      <trkpt lat="28.5199450" lon="-17.8322550">
        <ele>1118.8</ele>
        <time>2020-11-17T11:50:43Z</time>
      </trkpt>
      <trkpt lat="28.5199680" lon="-17.8322120">
        <ele>1118.5</ele>
        <time>2020-11-17T11:50:44Z</time>
      </trkpt>
      <trkpt lat="28.5199680" lon="-17.8322120">
        <ele>1118.5</ele>
        <time>2020-11-17T11:50:45Z</time>
      </trkpt>
      <trkpt lat="28.5200300" lon="-17.8321230">
        <ele>1117.9</ele>
        <time>2020-11-17T11:50:46Z</time>
      </trkpt>
      <trkpt lat="28.5200300" lon="-17.8321230">
        <ele>1117.9</ele>
        <time>2020-11-17T11:50:47Z</time>
      </trkpt>
      <trkpt lat="28.5200900" lon="-17.8320300">
        <ele>1117.3</ele>
        <time>2020-11-17T11:50:48Z</time>
      </trkpt>
      <trkpt lat="28.5200900" lon="-17.8320300">
        <ele>1117.3</ele>
        <time>2020-11-17T11:50:49Z</time>
      </trkpt>
      <trkpt lat="28.5201680" lon="-17.8319480">
        <ele>1116.7</ele>
        <time>2020-11-17T11:50:50Z</time>
      </trkpt>
      <trkpt lat="28.5202170" lon="-17.8319130">
        <ele>1116.3</ele>
        <time>2020-11-17T11:50:51Z</time>
      </trkpt>
      <trkpt lat="28.5202170" lon="-17.8319130">
        <ele>1116.3</ele>
        <time>2020-11-17T11:50:52Z</time>
      </trkpt>
      <trkpt lat="28.5203150" lon="-17.8318470">
        <ele>1115.6</ele>
        <time>2020-11-17T11:50:53Z</time>
      </trkpt>
      <trkpt lat="28.5203680" lon="-17.8318150">
        <ele>1115.2</ele>
        <time>2020-11-17T11:50:54Z</time>
      </trkpt>
      <trkpt lat="28.5203680" lon="-17.8318150">
        <ele>1115.2</ele>
        <time>2020-11-17T11:50:55Z</time>
      </trkpt>
      <trkpt lat="28.5204620" lon="-17.8317480">
        <ele>1114.7</ele>
        <time>2020-11-17T11:50:56Z</time>
      </trkpt>
      <trkpt lat="28.5205080" lon="-17.8317150">
        <ele>1114.4</ele>
        <time>2020-11-17T11:50:57Z</time>
      </trkpt>
      <trkpt lat="28.5205080" lon="-17.8317150">
        <ele>1114.4</ele>
        <time>2020-11-17T11:50:58Z</time>
      </trkpt>
      <trkpt lat="28.5206070" lon="-17.8316500">
        <ele>1113.9</ele>
        <time>2020-11-17T11:50:59Z</time>
      </trkpt>
      <trkpt lat="28.5206500" lon="-17.8316200">
        <ele>1113.7</ele>
        <time>2020-11-17T11:51:00Z</time>
      </trkpt>
      <trkpt lat="28.5206500" lon="-17.8316200">
        <ele>1113.7</ele>
        <time>2020-11-17T11:51:01Z</time>
      </trkpt>
      <trkpt lat="28.5207380" lon="-17.8315580">
        <ele>1113.3</ele>
        <time>2020-11-17T11:51:02Z</time>
      </trkpt>
      <trkpt lat="28.5207380" lon="-17.8315580">
        <ele>1113.3</ele>
        <time>2020-11-17T11:51:03Z</time>
      </trkpt>
      <trkpt lat="28.5208200" lon="-17.8314930">
        <ele>1112.7</ele>
        <time>2020-11-17T11:51:04Z</time>
      </trkpt>
      <trkpt lat="28.5208200" lon="-17.8314930">
        <ele>1112.7</ele>
        <time>2020-11-17T11:51:05Z</time>
      </trkpt>
      <trkpt lat="28.5209000" lon="-17.8314300">
        <ele>1112.0</ele>
        <time>2020-11-17T11:51:06Z</time>
      </trkpt>
      <trkpt lat="28.5209000" lon="-17.8314300">
        <ele>1112.0</ele>
        <time>2020-11-17T11:51:07Z</time>
      </trkpt>
      <trkpt lat="28.5209680" lon="-17.8313720">
        <ele>1111.3</ele>
        <time>2020-11-17T11:51:08Z</time>
      </trkpt>
      <trkpt lat="28.5210050" lon="-17.8313500">
        <ele>1111.0</ele>
        <time>2020-11-17T11:51:09Z</time>
      </trkpt>
      <trkpt lat="28.5210050" lon="-17.8313500">
        <ele>1111.0</ele>
        <time>2020-11-17T11:51:10Z</time>
      </trkpt>
      <trkpt lat="28.5210730" lon="-17.8312970">
        <ele>1110.5</ele>
        <time>2020-11-17T11:51:11Z</time>
      </trkpt>
      <trkpt lat="28.5210950" lon="-17.8312650">
        <ele>1110.3</ele>
        <time>2020-11-17T11:51:12Z</time>
      </trkpt>
      <trkpt lat="28.5210950" lon="-17.8312650">
        <ele>1110.3</ele>
        <time>2020-11-17T11:51:13Z</time>
      </trkpt>
      <trkpt lat="28.5211380" lon="-17.8312000">
        <ele>1110.0</ele>
        <time>2020-11-17T11:51:14Z</time>
      </trkpt>
      <trkpt lat="28.5211380" lon="-17.8312000">
        <ele>1110.0</ele>
        <time>2020-11-17T11:51:15Z</time>
      </trkpt>
      <trkpt lat="28.5211930" lon="-17.8311220">
        <ele>1109.8</ele>
        <time>2020-11-17T11:51:16Z</time>
      </trkpt>
      <trkpt lat="28.5211930" lon="-17.8311220">
        <ele>1109.8</ele>
        <time>2020-11-17T11:51:17Z</time>
      </trkpt>
      <trkpt lat="28.5212450" lon="-17.8310500">
        <ele>1109.5</ele>
        <time>2020-11-17T11:51:18Z</time>
      </trkpt>
      <trkpt lat="28.5212450" lon="-17.8310500">
        <ele>1109.5</ele>
        <time>2020-11-17T11:51:19Z</time>
      </trkpt>
      <trkpt lat="28.5212980" lon="-17.8309820">
        <ele>1109.2</ele>
        <time>2020-11-17T11:51:20Z</time>
      </trkpt>
      <trkpt lat="28.5212980" lon="-17.8309820">
        <ele>1109.2</ele>
        <time>2020-11-17T11:51:21Z</time>
      </trkpt>
      <trkpt lat="28.5213680" lon="-17.8309270">
        <ele>1108.8</ele>
        <time>2020-11-17T11:51:22Z</time>
      </trkpt>
      <trkpt lat="28.5214130" lon="-17.8308970">
        <ele>1108.5</ele>
        <time>2020-11-17T11:51:23Z</time>
      </trkpt>
      <trkpt lat="28.5214650" lon="-17.8308930">
        <ele>1108.2</ele>
        <time>2020-11-17T11:51:24Z</time>
      </trkpt>
      <trkpt lat="28.5214650" lon="-17.8308930">
        <ele>1108.2</ele>
        <time>2020-11-17T11:51:25Z</time>
      </trkpt>
      <trkpt lat="28.5215620" lon="-17.8308980">
        <ele>1107.9</ele>
        <time>2020-11-17T11:51:26Z</time>
      </trkpt>
      <trkpt lat="28.5216070" lon="-17.8308980">
        <ele>1107.8</ele>
        <time>2020-11-17T11:51:27Z</time>
      </trkpt>
      <trkpt lat="28.5216070" lon="-17.8308980">
        <ele>1107.8</ele>
        <time>2020-11-17T11:51:28Z</time>
      </trkpt>
      <trkpt lat="28.5217020" lon="-17.8309050">
        <ele>1107.5</ele>
        <time>2020-11-17T11:51:29Z</time>
      </trkpt>
      <trkpt lat="28.5217020" lon="-17.8309050">
        <ele>1107.5</ele>
        <time>2020-11-17T11:51:30Z</time>
      </trkpt>
      <trkpt lat="28.5217880" lon="-17.8308870">
        <ele>1107.2</ele>
        <time>2020-11-17T11:51:31Z</time>
      </trkpt>
      <trkpt lat="28.5217880" lon="-17.8308870">
        <ele>1107.2</ele>
        <time>2020-11-17T11:51:32Z</time>
      </trkpt>
      <trkpt lat="28.5218850" lon="-17.8308680">
        <ele>1106.8</ele>
        <time>2020-11-17T11:51:33Z</time>
      </trkpt>
      <trkpt lat="28.5218850" lon="-17.8308680">
        <ele>1106.8</ele>
        <time>2020-11-17T11:51:34Z</time>
      </trkpt>
      <trkpt lat="28.5219870" lon="-17.8308270">
        <ele>1106.3</ele>
        <time>2020-11-17T11:51:35Z</time>
      </trkpt>
      <trkpt lat="28.5220320" lon="-17.8307950">
        <ele>1106.1</ele>
        <time>2020-11-17T11:51:36Z</time>
      </trkpt>
      <trkpt lat="28.5220320" lon="-17.8307950">
        <ele>1106.1</ele>
        <time>2020-11-17T11:51:37Z</time>
      </trkpt>
      <trkpt lat="28.5221100" lon="-17.8307150">
        <ele>1105.6</ele>
        <time>2020-11-17T11:51:38Z</time>
      </trkpt>
      <trkpt lat="28.5221420" lon="-17.8306680">
        <ele>1105.4</ele>
        <time>2020-11-17T11:51:39Z</time>
      </trkpt>
      <trkpt lat="28.5221420" lon="-17.8306680">
        <ele>1105.4</ele>
        <time>2020-11-17T11:51:40Z</time>
      </trkpt>
      <trkpt lat="28.5221900" lon="-17.8305700">
        <ele>1105.0</ele>
        <time>2020-11-17T11:51:41Z</time>
      </trkpt>
      <trkpt lat="28.5221900" lon="-17.8305700">
        <ele>1105.0</ele>
        <time>2020-11-17T11:51:42Z</time>
      </trkpt>
      <trkpt lat="28.5222550" lon="-17.8305000">
        <ele>1104.5</ele>
        <time>2020-11-17T11:51:43Z</time>
      </trkpt>
      <trkpt lat="28.5222950" lon="-17.8304780">
        <ele>1104.3</ele>
        <time>2020-11-17T11:51:44Z</time>
      </trkpt>
      <trkpt lat="28.5223380" lon="-17.8304720">
        <ele>1104.0</ele>
        <time>2020-11-17T11:51:45Z</time>
      </trkpt>
      <trkpt lat="28.5223380" lon="-17.8304720">
        <ele>1104.0</ele>
        <time>2020-11-17T11:51:46Z</time>
      </trkpt>
      <trkpt lat="28.5224180" lon="-17.8304800">
        <ele>1103.5</ele>
        <time>2020-11-17T11:51:47Z</time>
      </trkpt>
      <trkpt lat="28.5224580" lon="-17.8304880">
        <ele>1103.2</ele>
        <time>2020-11-17T11:51:48Z</time>
      </trkpt>
      <trkpt lat="28.5224580" lon="-17.8304880">
        <ele>1103.2</ele>
        <time>2020-11-17T11:51:49Z</time>
      </trkpt>
      <trkpt lat="28.5225370" lon="-17.8304920">
        <ele>1102.7</ele>
        <time>2020-11-17T11:51:50Z</time>
      </trkpt>
      <trkpt lat="28.5225750" lon="-17.8304880">
        <ele>1102.4</ele>
        <time>2020-11-17T11:51:51Z</time>
      </trkpt>
      <trkpt lat="28.5225750" lon="-17.8304880">
        <ele>1102.4</ele>
        <time>2020-11-17T11:51:52Z</time>
      </trkpt>
      <trkpt lat="28.5226480" lon="-17.8304880">
        <ele>1101.8</ele>
        <time>2020-11-17T11:51:53Z</time>
      </trkpt>
      <trkpt lat="28.5226870" lon="-17.8304780">
        <ele>1101.6</ele>
        <time>2020-11-17T11:51:54Z</time>
      </trkpt>
      <trkpt lat="28.5226870" lon="-17.8304780">
        <ele>1101.6</ele>
        <time>2020-11-17T11:51:55Z</time>
      </trkpt>
      <trkpt lat="28.5227570" lon="-17.8304380">
        <ele>1101.3</ele>
        <time>2020-11-17T11:51:56Z</time>
      </trkpt>
      <trkpt lat="28.5227930" lon="-17.8304270">
        <ele>1101.1</ele>
        <time>2020-11-17T11:51:57Z</time>
      </trkpt>
      <trkpt lat="28.5228230" lon="-17.8304130">
        <ele>1101.1</ele>
        <time>2020-11-17T11:51:58Z</time>
      </trkpt>
      <trkpt lat="28.5228230" lon="-17.8304130">
        <ele>1101.1</ele>
        <time>2020-11-17T11:51:59Z</time>
      </trkpt>
      <trkpt lat="28.5228730" lon="-17.8304000">
        <ele>1100.9</ele>
        <time>2020-11-17T11:52:00Z</time>
      </trkpt>
      <trkpt lat="28.5228730" lon="-17.8304000">
        <ele>1100.9</ele>
        <time>2020-11-17T11:52:01Z</time>
      </trkpt>
      <trkpt lat="28.5229100" lon="-17.8303800">
        <ele>1101.0</ele>
        <time>2020-11-17T11:52:02Z</time>
      </trkpt>
      <trkpt lat="28.5229280" lon="-17.8303800">
        <ele>1101.1</ele>
        <time>2020-11-17T11:52:03Z</time>
      </trkpt>
      <trkpt lat="28.5229280" lon="-17.8303800">
        <ele>1101.1</ele>
        <time>2020-11-17T11:52:04Z</time>
      </trkpt>
      <trkpt lat="28.5229630" lon="-17.8303750">
        <ele>1101.4</ele>
        <time>2020-11-17T11:52:05Z</time>
      </trkpt>
      <trkpt lat="28.5229850" lon="-17.8303730">
        <ele>1101.5</ele>
        <time>2020-11-17T11:52:06Z</time>
      </trkpt>
      <trkpt lat="28.5229850" lon="-17.8303730">
        <ele>1101.5</ele>
        <time>2020-11-17T11:52:07Z</time>
      </trkpt>
      <trkpt lat="28.5230250" lon="-17.8303750">
        <ele>1101.8</ele>
        <time>2020-11-17T11:52:08Z</time>
      </trkpt>
      <trkpt lat="28.5230420" lon="-17.8303700">
        <ele>1102.0</ele>
        <time>2020-11-17T11:52:09Z</time>
      </trkpt>
      <trkpt lat="28.5230420" lon="-17.8303700">
        <ele>1102.0</ele>
        <time>2020-11-17T11:52:10Z</time>
      </trkpt>
      <trkpt lat="28.5230800" lon="-17.8303520">
        <ele>1102.3</ele>
        <time>2020-11-17T11:52:11Z</time>
      </trkpt>
      <trkpt lat="28.5231020" lon="-17.8303470">
        <ele>1102.4</ele>
        <time>2020-11-17T11:52:12Z</time>
      </trkpt>
      <trkpt lat="28.5231020" lon="-17.8303470">
        <ele>1102.4</ele>
        <time>2020-11-17T11:52:13Z</time>
      </trkpt>
      <trkpt lat="28.5231350" lon="-17.8303170">
        <ele>1102.8</ele>
        <time>2020-11-17T11:52:14Z</time>
      </trkpt>
      <trkpt lat="28.5231430" lon="-17.8302950">
        <ele>1102.9</ele>
        <time>2020-11-17T11:52:15Z</time>
      </trkpt>
      <trkpt lat="28.5231430" lon="-17.8302950">
        <ele>1102.9</ele>
        <time>2020-11-17T11:52:16Z</time>
      </trkpt>
      <trkpt lat="28.5231620" lon="-17.8302600">
        <ele>1103.2</ele>
        <time>2020-11-17T11:52:17Z</time>
      </trkpt>
      <trkpt lat="28.5231730" lon="-17.8302470">
        <ele>1103.3</ele>
        <time>2020-11-17T11:52:18Z</time>
      </trkpt>
      <trkpt lat="28.5231730" lon="-17.8302470">
        <ele>1103.3</ele>
        <time>2020-11-17T11:52:19Z</time>
      </trkpt>
      <trkpt lat="28.5232050" lon="-17.8302250">
        <ele>1103.6</ele>
        <time>2020-11-17T11:52:20Z</time>
      </trkpt>
      <trkpt lat="28.5232050" lon="-17.8302250">
        <ele>1103.6</ele>
        <time>2020-11-17T11:52:21Z</time>
      </trkpt>
      <trkpt lat="28.5232500" lon="-17.8301970">
        <ele>1104.0</ele>
        <time>2020-11-17T11:52:22Z</time>
      </trkpt>
      <trkpt lat="28.5232500" lon="-17.8301970">
        <ele>1104.0</ele>
        <time>2020-11-17T11:52:23Z</time>
      </trkpt>
      <trkpt lat="28.5232970" lon="-17.8301820">
        <ele>1104.3</ele>
        <time>2020-11-17T11:52:24Z</time>
      </trkpt>
      <trkpt lat="28.5232970" lon="-17.8301820">
        <ele>1104.3</ele>
        <time>2020-11-17T11:52:25Z</time>
      </trkpt>
      <trkpt lat="28.5233420" lon="-17.8301730">
        <ele>1104.6</ele>
        <time>2020-11-17T11:52:26Z</time>
      </trkpt>
      <trkpt lat="28.5233420" lon="-17.8301730">
        <ele>1104.6</ele>
        <time>2020-11-17T11:52:27Z</time>
      </trkpt>
      <trkpt lat="28.5233830" lon="-17.8301730">
        <ele>1104.8</ele>
        <time>2020-11-17T11:52:28Z</time>
      </trkpt>
      <trkpt lat="28.5234070" lon="-17.8301780">
        <ele>1105.0</ele>
        <time>2020-11-17T11:52:29Z</time>
      </trkpt>
      <trkpt lat="28.5234250" lon="-17.8301780">
        <ele>1105.2</ele>
        <time>2020-11-17T11:52:30Z</time>
      </trkpt>
      <trkpt lat="28.5234250" lon="-17.8301780">
        <ele>1105.2</ele>
        <time>2020-11-17T11:52:31Z</time>
      </trkpt>
      <trkpt lat="28.5234650" lon="-17.8301820">
        <ele>1105.3</ele>
        <time>2020-11-17T11:52:32Z</time>
      </trkpt>
      <trkpt lat="28.5234650" lon="-17.8301820">
        <ele>1105.3</ele>
        <time>2020-11-17T11:52:33Z</time>
      </trkpt>
      <trkpt lat="28.5235070" lon="-17.8301920">
        <ele>1105.4</ele>
        <time>2020-11-17T11:52:34Z</time>
      </trkpt>
      <trkpt lat="28.5235280" lon="-17.8301920">
        <ele>1105.5</ele>
        <time>2020-11-17T11:52:35Z</time>
      </trkpt>
      <trkpt lat="28.5235480" lon="-17.8301920">
        <ele>1105.6</ele>
        <time>2020-11-17T11:52:36Z</time>
      </trkpt>
      <trkpt lat="28.5235480" lon="-17.8301920">
        <ele>1105.6</ele>
        <time>2020-11-17T11:52:37Z</time>
      </trkpt>
      <trkpt lat="28.5235900" lon="-17.8301850">
        <ele>1105.7</ele>
        <time>2020-11-17T11:52:38Z</time>
      </trkpt>
      <trkpt lat="28.5236120" lon="-17.8301870">
        <ele>1105.8</ele>
        <time>2020-11-17T11:52:39Z</time>
      </trkpt>
      <trkpt lat="28.5236120" lon="-17.8301870">
        <ele>1105.8</ele>
        <time>2020-11-17T11:52:40Z</time>
      </trkpt>
      <trkpt lat="28.5236520" lon="-17.8301900">
        <ele>1106.0</ele>
        <time>2020-11-17T11:52:41Z</time>
      </trkpt>
      <trkpt lat="28.5236720" lon="-17.8301900">
        <ele>1106.1</ele>
        <time>2020-11-17T11:52:42Z</time>
      </trkpt>
      <trkpt lat="28.5236720" lon="-17.8301900">
        <ele>1106.1</ele>
        <time>2020-11-17T11:52:43Z</time>
      </trkpt>
      <trkpt lat="28.5237130" lon="-17.8301970">
        <ele>1106.3</ele>
        <time>2020-11-17T11:52:44Z</time>
      </trkpt>
      <trkpt lat="28.5237330" lon="-17.8302000">
        <ele>1106.4</ele>
        <time>2020-11-17T11:52:45Z</time>
      </trkpt>
      <trkpt lat="28.5237330" lon="-17.8302000">
        <ele>1106.4</ele>
        <time>2020-11-17T11:52:46Z</time>
      </trkpt>
      <trkpt lat="28.5237700" lon="-17.8302100">
        <ele>1106.6</ele>
        <time>2020-11-17T11:52:47Z</time>
      </trkpt>
      <trkpt lat="28.5237870" lon="-17.8302130">
        <ele>1106.8</ele>
        <time>2020-11-17T11:52:48Z</time>
      </trkpt>
      <trkpt lat="28.5237870" lon="-17.8302130">
        <ele>1106.8</ele>
        <time>2020-11-17T11:52:49Z</time>
      </trkpt>
      <trkpt lat="28.5238220" lon="-17.8302180">
        <ele>1107.0</ele>
        <time>2020-11-17T11:52:50Z</time>
      </trkpt>
      <trkpt lat="28.5238420" lon="-17.8302170">
        <ele>1107.1</ele>
        <time>2020-11-17T11:52:51Z</time>
      </trkpt>
      <trkpt lat="28.5238420" lon="-17.8302170">
        <ele>1107.1</ele>
        <time>2020-11-17T11:52:52Z</time>
      </trkpt>
      <trkpt lat="28.5238830" lon="-17.8302180">
        <ele>1107.3</ele>
        <time>2020-11-17T11:52:53Z</time>
      </trkpt>
      <trkpt lat="28.5239030" lon="-17.8302250">
        <ele>1107.5</ele>
        <time>2020-11-17T11:52:54Z</time>
      </trkpt>
      <trkpt lat="28.5239030" lon="-17.8302250">
        <ele>1107.5</ele>
        <time>2020-11-17T11:52:55Z</time>
      </trkpt>
      <trkpt lat="28.5239450" lon="-17.8302330">
        <ele>1107.7</ele>
        <time>2020-11-17T11:52:56Z</time>
      </trkpt>
      <trkpt lat="28.5239450" lon="-17.8302330">
        <ele>1107.7</ele>
        <time>2020-11-17T11:52:57Z</time>
      </trkpt>
      <trkpt lat="28.5239850" lon="-17.8302370">
        <ele>1108.0</ele>
        <time>2020-11-17T11:52:58Z</time>
      </trkpt>
      <trkpt lat="28.5239850" lon="-17.8302370">
        <ele>1108.0</ele>
        <time>2020-11-17T11:52:59Z</time>
      </trkpt>
      <trkpt lat="28.5240230" lon="-17.8302430">
        <ele>1108.3</ele>
        <time>2020-11-17T11:53:00Z</time>
      </trkpt>
      <trkpt lat="28.5240230" lon="-17.8302430">
        <ele>1108.3</ele>
        <time>2020-11-17T11:53:01Z</time>
      </trkpt>
      <trkpt lat="28.5240650" lon="-17.8302530">
        <ele>1108.6</ele>
        <time>2020-11-17T11:53:02Z</time>
      </trkpt>
      <trkpt lat="28.5240870" lon="-17.8302580">
        <ele>1108.8</ele>
        <time>2020-11-17T11:53:03Z</time>
      </trkpt>
      <trkpt lat="28.5240870" lon="-17.8302580">
        <ele>1108.8</ele>
        <time>2020-11-17T11:53:04Z</time>
      </trkpt>
      <trkpt lat="28.5241220" lon="-17.8302650">
        <ele>1109.1</ele>
        <time>2020-11-17T11:53:05Z</time>
      </trkpt>
      <trkpt lat="28.5241220" lon="-17.8302650">
        <ele>1109.1</ele>
        <time>2020-11-17T11:53:06Z</time>
      </trkpt>
      <trkpt lat="28.5241580" lon="-17.8302680">
        <ele>1109.4</ele>
        <time>2020-11-17T11:53:07Z</time>
      </trkpt>
      <trkpt lat="28.5241580" lon="-17.8302680">
        <ele>1109.4</ele>
        <time>2020-11-17T11:53:08Z</time>
      </trkpt>
      <trkpt lat="28.5241970" lon="-17.8302730">
        <ele>1109.7</ele>
        <time>2020-11-17T11:53:09Z</time>
      </trkpt>
      <trkpt lat="28.5241970" lon="-17.8302730">
        <ele>1109.7</ele>
        <time>2020-11-17T11:53:10Z</time>
      </trkpt>
      <trkpt lat="28.5242300" lon="-17.8302820">
        <ele>1110.0</ele>
        <time>2020-11-17T11:53:11Z</time>
      </trkpt>
      <trkpt lat="28.5242450" lon="-17.8302850">
        <ele>1110.1</ele>
        <time>2020-11-17T11:53:12Z</time>
      </trkpt>
      <trkpt lat="28.5242450" lon="-17.8302850">
        <ele>1110.1</ele>
        <time>2020-11-17T11:53:13Z</time>
      </trkpt>
      <trkpt lat="28.5242750" lon="-17.8302880">
        <ele>1110.4</ele>
        <time>2020-11-17T11:53:14Z</time>
      </trkpt>
      <trkpt lat="28.5242880" lon="-17.8302930">
        <ele>1110.5</ele>
        <time>2020-11-17T11:53:15Z</time>
      </trkpt>
      <trkpt lat="28.5242880" lon="-17.8302930">
        <ele>1110.5</ele>
        <time>2020-11-17T11:53:16Z</time>
      </trkpt>
      <trkpt lat="28.5243150" lon="-17.8302970">
        <ele>1110.8</ele>
        <time>2020-11-17T11:53:17Z</time>
      </trkpt>
      <trkpt lat="28.5243220" lon="-17.8302970">
        <ele>1110.9</ele>
        <time>2020-11-17T11:53:18Z</time>
      </trkpt>
      <trkpt lat="28.5243220" lon="-17.8302970">
        <ele>1110.9</ele>
        <time>2020-11-17T11:53:19Z</time>
      </trkpt>
      <trkpt lat="28.5243330" lon="-17.8303000">
        <ele>1111.0</ele>
        <time>2020-11-17T11:53:20Z</time>
      </trkpt>
      <trkpt lat="28.5243400" lon="-17.8303030">
        <ele>1111.0</ele>
        <time>2020-11-17T11:53:21Z</time>
      </trkpt>
      <trkpt lat="28.5243400" lon="-17.8303030">
        <ele>1111.0</ele>
        <time>2020-11-17T11:53:22Z</time>
      </trkpt>
      <trkpt lat="28.5243570" lon="-17.8303100">
        <ele>1111.2</ele>
        <time>2020-11-17T11:53:23Z</time>
      </trkpt>
      <trkpt lat="28.5243680" lon="-17.8303120">
        <ele>1111.3</ele>
        <time>2020-11-17T11:53:24Z</time>
      </trkpt>
      <trkpt lat="28.5243680" lon="-17.8303120">
        <ele>1111.3</ele>
        <time>2020-11-17T11:53:25Z</time>
      </trkpt>
      <trkpt lat="28.5244030" lon="-17.8303180">
        <ele>1111.7</ele>
        <time>2020-11-17T11:53:26Z</time>
      </trkpt>
      <trkpt lat="28.5244030" lon="-17.8303180">
        <ele>1111.7</ele>
        <time>2020-11-17T11:53:27Z</time>
      </trkpt>
      <trkpt lat="28.5244420" lon="-17.8303320">
        <ele>1112.1</ele>
        <time>2020-11-17T11:53:28Z</time>
      </trkpt>
      <trkpt lat="28.5244420" lon="-17.8303320">
        <ele>1112.1</ele>
        <time>2020-11-17T11:53:29Z</time>
      </trkpt>
      <trkpt lat="28.5244750" lon="-17.8303500">
        <ele>1112.5</ele>
        <time>2020-11-17T11:53:30Z</time>
      </trkpt>
      <trkpt lat="28.5244750" lon="-17.8303500">
        <ele>1112.5</ele>
        <time>2020-11-17T11:53:31Z</time>
      </trkpt>
      <trkpt lat="28.5245050" lon="-17.8303600">
        <ele>1112.8</ele>
        <time>2020-11-17T11:53:32Z</time>
      </trkpt>
      <trkpt lat="28.5245220" lon="-17.8303650">
        <ele>1113.0</ele>
        <time>2020-11-17T11:53:33Z</time>
      </trkpt>
      <trkpt lat="28.5245220" lon="-17.8303650">
        <ele>1113.0</ele>
        <time>2020-11-17T11:53:34Z</time>
      </trkpt>
      <trkpt lat="28.5245520" lon="-17.8303730">
        <ele>1113.3</ele>
        <time>2020-11-17T11:53:35Z</time>
      </trkpt>
      <trkpt lat="28.5245650" lon="-17.8303720">
        <ele>1113.5</ele>
        <time>2020-11-17T11:53:36Z</time>
      </trkpt>
      <trkpt lat="28.5245650" lon="-17.8303720">
        <ele>1113.5</ele>
        <time>2020-11-17T11:53:37Z</time>
      </trkpt>
      <trkpt lat="28.5245880" lon="-17.8303500">
        <ele>1113.8</ele>
        <time>2020-11-17T11:53:38Z</time>
      </trkpt>
      <trkpt lat="28.5245880" lon="-17.8303500">
        <ele>1113.8</ele>
        <time>2020-11-17T11:53:39Z</time>
      </trkpt>
      <trkpt lat="28.5246220" lon="-17.8303370">
        <ele>1114.1</ele>
        <time>2020-11-17T11:53:40Z</time>
      </trkpt>
      <trkpt lat="28.5246220" lon="-17.8303370">
        <ele>1114.1</ele>
        <time>2020-11-17T11:53:41Z</time>
      </trkpt>
      <trkpt lat="28.5246500" lon="-17.8303230">
        <ele>1114.3</ele>
        <time>2020-11-17T11:53:42Z</time>
      </trkpt>
      <trkpt lat="28.5246500" lon="-17.8303230">
        <ele>1114.3</ele>
        <time>2020-11-17T11:53:43Z</time>
      </trkpt>
      <trkpt lat="28.5246700" lon="-17.8302950">
        <ele>1114.5</ele>
        <time>2020-11-17T11:53:44Z</time>
      </trkpt>
      <trkpt lat="28.5246700" lon="-17.8302950">
        <ele>1114.5</ele>
        <time>2020-11-17T11:53:45Z</time>
      </trkpt>
      <trkpt lat="28.5246920" lon="-17.8302670">
        <ele>1114.7</ele>
        <time>2020-11-17T11:53:46Z</time>
      </trkpt>
      <trkpt lat="28.5246920" lon="-17.8302670">
        <ele>1114.7</ele>
        <time>2020-11-17T11:53:47Z</time>
      </trkpt>
      <trkpt lat="28.5247150" lon="-17.8302480">
        <ele>1114.8</ele>
        <time>2020-11-17T11:53:48Z</time>
      </trkpt>
      <trkpt lat="28.5247150" lon="-17.8302480">
        <ele>1114.8</ele>
        <time>2020-11-17T11:53:49Z</time>
      </trkpt>
      <trkpt lat="28.5247430" lon="-17.8302370">
        <ele>1114.9</ele>
        <time>2020-11-17T11:53:50Z</time>
      </trkpt>
      <trkpt lat="28.5247600" lon="-17.8302350">
        <ele>1115.0</ele>
        <time>2020-11-17T11:53:51Z</time>
      </trkpt>
      <trkpt lat="28.5247600" lon="-17.8302350">
        <ele>1115.0</ele>
        <time>2020-11-17T11:53:52Z</time>
      </trkpt>
      <trkpt lat="28.5247920" lon="-17.8302330">
        <ele>1115.1</ele>
        <time>2020-11-17T11:53:53Z</time>
      </trkpt>
      <trkpt lat="28.5248100" lon="-17.8302320">
        <ele>1115.1</ele>
        <time>2020-11-17T11:53:54Z</time>
      </trkpt>
      <trkpt lat="28.5248100" lon="-17.8302320">
        <ele>1115.1</ele>
        <time>2020-11-17T11:53:55Z</time>
      </trkpt>
      <trkpt lat="28.5248400" lon="-17.8302200">
        <ele>1115.2</ele>
        <time>2020-11-17T11:53:56Z</time>
      </trkpt>
      <trkpt lat="28.5248400" lon="-17.8302200">
        <ele>1115.2</ele>
        <time>2020-11-17T11:53:57Z</time>
      </trkpt>
      <trkpt lat="28.5248700" lon="-17.8302130">
        <ele>1115.3</ele>
        <time>2020-11-17T11:53:58Z</time>
      </trkpt>
      <trkpt lat="28.5248830" lon="-17.8302100">
        <ele>1115.4</ele>
        <time>2020-11-17T11:53:59Z</time>
      </trkpt>
      <trkpt lat="28.5248980" lon="-17.8302070">
        <ele>1115.4</ele>
        <time>2020-11-17T11:54:00Z</time>
      </trkpt>
      <trkpt lat="28.5248980" lon="-17.8302070">
        <ele>1115.4</ele>
        <time>2020-11-17T11:54:01Z</time>
      </trkpt>
      <trkpt lat="28.5249230" lon="-17.8302020">
        <ele>1115.5</ele>
        <time>2020-11-17T11:54:02Z</time>
      </trkpt>
      <trkpt lat="28.5249230" lon="-17.8302020">
        <ele>1115.5</ele>
        <time>2020-11-17T11:54:03Z</time>
      </trkpt>
      <trkpt lat="28.5249450" lon="-17.8302000">
        <ele>1115.6</ele>
        <time>2020-11-17T11:54:04Z</time>
      </trkpt>
      <trkpt lat="28.5249420" lon="-17.8302030">
        <ele>1115.6</ele>
        <time>2020-11-17T11:54:05Z</time>
      </trkpt>
      <trkpt lat="28.5249480" lon="-17.8302030">
        <ele>1115.6</ele>
        <time>2020-11-17T11:54:06Z</time>
      </trkpt>
      <trkpt lat="28.5249480" lon="-17.8302030">
        <ele>1115.6</ele>
        <time>2020-11-17T11:54:07Z</time>
      </trkpt>
      <trkpt lat="28.5249480" lon="-17.8302030">
        <ele>1115.6</ele>
        <time>2020-11-17T11:54:13Z</time>
      </trkpt>
      <trkpt lat="28.5250450" lon="-17.8302130">
        <ele>1115.9</ele>
        <time>2020-11-17T11:54:14Z</time>
      </trkpt>
      <trkpt lat="28.5250450" lon="-17.8302130">
        <ele>1115.9</ele>
        <time>2020-11-17T11:54:15Z</time>
      </trkpt>
      <trkpt lat="28.5250800" lon="-17.8302180">
        <ele>1116.1</ele>
        <time>2020-11-17T11:54:16Z</time>
      </trkpt>
      <trkpt lat="28.5250970" lon="-17.8302220">
        <ele>1116.1</ele>
        <time>2020-11-17T11:54:17Z</time>
      </trkpt>
      <trkpt lat="28.5250970" lon="-17.8302220">
        <ele>1116.1</ele>
        <time>2020-11-17T11:54:18Z</time>
      </trkpt>
      <trkpt lat="28.5251300" lon="-17.8302300">
        <ele>1116.2</ele>
        <time>2020-11-17T11:54:19Z</time>
      </trkpt>
      <trkpt lat="28.5251300" lon="-17.8302300">
        <ele>1116.2</ele>
        <time>2020-11-17T11:54:20Z</time>
      </trkpt>
      <trkpt lat="28.5251650" lon="-17.8302420">
        <ele>1116.3</ele>
        <time>2020-11-17T11:54:21Z</time>
      </trkpt>
      <trkpt lat="28.5251650" lon="-17.8302420">
        <ele>1116.3</ele>
        <time>2020-11-17T11:54:22Z</time>
      </trkpt>
      <trkpt lat="28.5252100" lon="-17.8302480">
        <ele>1116.5</ele>
        <time>2020-11-17T11:54:23Z</time>
      </trkpt>
      <trkpt lat="28.5252300" lon="-17.8302530">
        <ele>1116.5</ele>
        <time>2020-11-17T11:54:24Z</time>
      </trkpt>
      <trkpt lat="28.5252300" lon="-17.8302530">
        <ele>1116.5</ele>
        <time>2020-11-17T11:54:25Z</time>
      </trkpt>
      <trkpt lat="28.5252680" lon="-17.8302620">
        <ele>1116.7</ele>
        <time>2020-11-17T11:54:26Z</time>
      </trkpt>
      <trkpt lat="28.5252880" lon="-17.8302630">
        <ele>1116.7</ele>
        <time>2020-11-17T11:54:27Z</time>
      </trkpt>
      <trkpt lat="28.5253080" lon="-17.8302650">
        <ele>1116.8</ele>
        <time>2020-11-17T11:54:28Z</time>
      </trkpt>
      <trkpt lat="28.5253080" lon="-17.8302650">
        <ele>1116.8</ele>
        <time>2020-11-17T11:54:29Z</time>
      </trkpt>
      <trkpt lat="28.5253450" lon="-17.8302650">
        <ele>1117.0</ele>
        <time>2020-11-17T11:54:30Z</time>
      </trkpt>
      <trkpt lat="28.5253450" lon="-17.8302650">
        <ele>1117.0</ele>
        <time>2020-11-17T11:54:31Z</time>
      </trkpt>
      <trkpt lat="28.5253780" lon="-17.8302620">
        <ele>1117.1</ele>
        <time>2020-11-17T11:54:32Z</time>
      </trkpt>
      <trkpt lat="28.5253780" lon="-17.8302620">
        <ele>1117.1</ele>
        <time>2020-11-17T11:54:33Z</time>
      </trkpt>
      <trkpt lat="28.5254050" lon="-17.8302620">
        <ele>1117.2</ele>
        <time>2020-11-17T11:54:34Z</time>
      </trkpt>
      <trkpt lat="28.5254050" lon="-17.8302620">
        <ele>1117.2</ele>
        <time>2020-11-17T11:54:35Z</time>
      </trkpt>
      <trkpt lat="28.5254350" lon="-17.8302750">
        <ele>1117.3</ele>
        <time>2020-11-17T11:54:36Z</time>
      </trkpt>
      <trkpt lat="28.5254350" lon="-17.8302750">
        <ele>1117.3</ele>
        <time>2020-11-17T11:54:37Z</time>
      </trkpt>
      <trkpt lat="28.5254700" lon="-17.8302750">
        <ele>1117.4</ele>
        <time>2020-11-17T11:54:38Z</time>
      </trkpt>
      <trkpt lat="28.5254830" lon="-17.8302730">
        <ele>1117.5</ele>
        <time>2020-11-17T11:54:39Z</time>
      </trkpt>
      <trkpt lat="28.5254830" lon="-17.8302730">
        <ele>1117.5</ele>
        <time>2020-11-17T11:54:40Z</time>
      </trkpt>
      <trkpt lat="28.5255220" lon="-17.8302820">
        <ele>1117.6</ele>
        <time>2020-11-17T11:54:41Z</time>
      </trkpt>
      <trkpt lat="28.5255420" lon="-17.8302830">
        <ele>1117.7</ele>
        <time>2020-11-17T11:54:42Z</time>
      </trkpt>
      <trkpt lat="28.5255420" lon="-17.8302830">
        <ele>1117.7</ele>
        <time>2020-11-17T11:54:43Z</time>
      </trkpt>
      <trkpt lat="28.5255780" lon="-17.8302950">
        <ele>1117.9</ele>
        <time>2020-11-17T11:54:44Z</time>
      </trkpt>
      <trkpt lat="28.5255950" lon="-17.8303020">
        <ele>1118.0</ele>
        <time>2020-11-17T11:54:45Z</time>
      </trkpt>
      <trkpt lat="28.5256120" lon="-17.8303030">
        <ele>1118.0</ele>
        <time>2020-11-17T11:54:46Z</time>
      </trkpt>
      <trkpt lat="28.5256120" lon="-17.8303030">
        <ele>1118.0</ele>
        <time>2020-11-17T11:54:47Z</time>
      </trkpt>
      <trkpt lat="28.5256470" lon="-17.8303070">
        <ele>1118.2</ele>
        <time>2020-11-17T11:54:48Z</time>
      </trkpt>
      <trkpt lat="28.5256470" lon="-17.8303070">
        <ele>1118.2</ele>
        <time>2020-11-17T11:54:49Z</time>
      </trkpt>
      <trkpt lat="28.5256800" lon="-17.8303170">
        <ele>1118.4</ele>
        <time>2020-11-17T11:54:50Z</time>
      </trkpt>
      <trkpt lat="28.5256980" lon="-17.8303170">
        <ele>1118.5</ele>
        <time>2020-11-17T11:54:51Z</time>
      </trkpt>
      <trkpt lat="28.5256980" lon="-17.8303170">
        <ele>1118.5</ele>
        <time>2020-11-17T11:54:52Z</time>
      </trkpt>
      <trkpt lat="28.5257380" lon="-17.8303200">
        <ele>1118.7</ele>
        <time>2020-11-17T11:54:53Z</time>
      </trkpt>
      <trkpt lat="28.5257570" lon="-17.8303250">
        <ele>1118.8</ele>
        <time>2020-11-17T11:54:54Z</time>
      </trkpt>
      <trkpt lat="28.5257570" lon="-17.8303250">
        <ele>1118.8</ele>
        <time>2020-11-17T11:54:55Z</time>
      </trkpt>
      <trkpt lat="28.5257950" lon="-17.8303250">
        <ele>1119.0</ele>
        <time>2020-11-17T11:54:56Z</time>
      </trkpt>
      <trkpt lat="28.5258150" lon="-17.8303230">
        <ele>1119.1</ele>
        <time>2020-11-17T11:54:57Z</time>
      </trkpt>
      <trkpt lat="28.5258150" lon="-17.8303230">
        <ele>1119.1</ele>
        <time>2020-11-17T11:54:58Z</time>
      </trkpt>
      <trkpt lat="28.5258470" lon="-17.8303280">
        <ele>1119.3</ele>
        <time>2020-11-17T11:54:59Z</time>
      </trkpt>
      <trkpt lat="28.5258650" lon="-17.8303320">
        <ele>1119.4</ele>
        <time>2020-11-17T11:55:00Z</time>
      </trkpt>
      <trkpt lat="28.5258650" lon="-17.8303320">
        <ele>1119.4</ele>
        <time>2020-11-17T11:55:01Z</time>
      </trkpt>
      <trkpt lat="28.5259000" lon="-17.8303420">
        <ele>1119.6</ele>
        <time>2020-11-17T11:55:02Z</time>
      </trkpt>
      <trkpt lat="28.5259180" lon="-17.8303450">
        <ele>1119.7</ele>
        <time>2020-11-17T11:55:03Z</time>
      </trkpt>
      <trkpt lat="28.5259370" lon="-17.8303480">
        <ele>1119.8</ele>
        <time>2020-11-17T11:55:04Z</time>
      </trkpt>
      <trkpt lat="28.5259370" lon="-17.8303480">
        <ele>1119.8</ele>
        <time>2020-11-17T11:55:05Z</time>
      </trkpt>
      <trkpt lat="28.5259730" lon="-17.8303470">
        <ele>1120.0</ele>
        <time>2020-11-17T11:55:06Z</time>
      </trkpt>
      <trkpt lat="28.5259730" lon="-17.8303470">
        <ele>1120.0</ele>
        <time>2020-11-17T11:55:07Z</time>
      </trkpt>
      <trkpt lat="28.5260100" lon="-17.8303420">
        <ele>1120.2</ele>
        <time>2020-11-17T11:55:08Z</time>
      </trkpt>
      <trkpt lat="28.5260280" lon="-17.8303420">
        <ele>1120.4</ele>
        <time>2020-11-17T11:55:09Z</time>
      </trkpt>
      <trkpt lat="28.5260280" lon="-17.8303420">
        <ele>1120.4</ele>
        <time>2020-11-17T11:55:10Z</time>
      </trkpt>
      <trkpt lat="28.5260580" lon="-17.8303380">
        <ele>1120.5</ele>
        <time>2020-11-17T11:55:11Z</time>
      </trkpt>
      <trkpt lat="28.5260580" lon="-17.8303380">
        <ele>1120.5</ele>
        <time>2020-11-17T11:55:12Z</time>
      </trkpt>
      <trkpt lat="28.5260920" lon="-17.8303300">
        <ele>1120.8</ele>
        <time>2020-11-17T11:55:13Z</time>
      </trkpt>
      <trkpt lat="28.5260920" lon="-17.8303300">
        <ele>1120.8</ele>
        <time>2020-11-17T11:55:14Z</time>
      </trkpt>
      <trkpt lat="28.5261230" lon="-17.8303220">
        <ele>1121.0</ele>
        <time>2020-11-17T11:55:15Z</time>
      </trkpt>
      <trkpt lat="28.5261380" lon="-17.8303170">
        <ele>1121.1</ele>
        <time>2020-11-17T11:55:16Z</time>
      </trkpt>
      <trkpt lat="28.5261380" lon="-17.8303170">
        <ele>1121.1</ele>
        <time>2020-11-17T11:55:17Z</time>
      </trkpt>
      <trkpt lat="28.5261680" lon="-17.8303050">
        <ele>1121.3</ele>
        <time>2020-11-17T11:55:18Z</time>
      </trkpt>
      <trkpt lat="28.5261680" lon="-17.8303050">
        <ele>1121.3</ele>
        <time>2020-11-17T11:55:19Z</time>
      </trkpt>
      <trkpt lat="28.5262000" lon="-17.8302880">
        <ele>1121.5</ele>
        <time>2020-11-17T11:55:20Z</time>
      </trkpt>
      <trkpt lat="28.5262000" lon="-17.8302880">
        <ele>1121.5</ele>
        <time>2020-11-17T11:55:21Z</time>
      </trkpt>
      <trkpt lat="28.5262300" lon="-17.8302720">
        <ele>1121.7</ele>
        <time>2020-11-17T11:55:22Z</time>
      </trkpt>
      <trkpt lat="28.5262300" lon="-17.8302720">
        <ele>1121.7</ele>
        <time>2020-11-17T11:55:23Z</time>
      </trkpt>
      <trkpt lat="28.5262600" lon="-17.8302550">
        <ele>1122.0</ele>
        <time>2020-11-17T11:55:24Z</time>
      </trkpt>
      <trkpt lat="28.5262600" lon="-17.8302550">
        <ele>1122.0</ele>
        <time>2020-11-17T11:55:25Z</time>
      </trkpt>
      <trkpt lat="28.5262900" lon="-17.8302380">
        <ele>1122.2</ele>
        <time>2020-11-17T11:55:26Z</time>
      </trkpt>
      <trkpt lat="28.5262900" lon="-17.8302380">
        <ele>1122.2</ele>
        <time>2020-11-17T11:55:27Z</time>
      </trkpt>
      <trkpt lat="28.5263250" lon="-17.8302170">
        <ele>1122.5</ele>
        <time>2020-11-17T11:55:28Z</time>
      </trkpt>
      <trkpt lat="28.5263250" lon="-17.8302170">
        <ele>1122.5</ele>
        <time>2020-11-17T11:55:29Z</time>
      </trkpt>
      <trkpt lat="28.5263570" lon="-17.8301930">
        <ele>1122.8</ele>
        <time>2020-11-17T11:55:30Z</time>
      </trkpt>
      <trkpt lat="28.5263570" lon="-17.8301930">
        <ele>1122.8</ele>
        <time>2020-11-17T11:55:31Z</time>
      </trkpt>
      <trkpt lat="28.5263880" lon="-17.8301730">
        <ele>1123.1</ele>
        <time>2020-11-17T11:55:32Z</time>
      </trkpt>
      <trkpt lat="28.5263880" lon="-17.8301730">
        <ele>1123.1</ele>
        <time>2020-11-17T11:55:33Z</time>
      </trkpt>
      <trkpt lat="28.5264120" lon="-17.8301580">
        <ele>1123.3</ele>
        <time>2020-11-17T11:55:34Z</time>
      </trkpt>
      <trkpt lat="28.5264120" lon="-17.8301580">
        <ele>1123.3</ele>
        <time>2020-11-17T11:55:35Z</time>
      </trkpt>
      <trkpt lat="28.5264380" lon="-17.8301520">
        <ele>1123.5</ele>
        <time>2020-11-17T11:55:36Z</time>
      </trkpt>
      <trkpt lat="28.5264380" lon="-17.8301520">
        <ele>1123.5</ele>
        <time>2020-11-17T11:55:37Z</time>
      </trkpt>
      <trkpt lat="28.5264650" lon="-17.8301470">
        <ele>1123.7</ele>
        <time>2020-11-17T11:55:38Z</time>
      </trkpt>
      <trkpt lat="28.5264820" lon="-17.8301450">
        <ele>1123.8</ele>
        <time>2020-11-17T11:55:39Z</time>
      </trkpt>
      <trkpt lat="28.5264820" lon="-17.8301450">
        <ele>1123.8</ele>
        <time>2020-11-17T11:55:40Z</time>
      </trkpt>
      <trkpt lat="28.5265170" lon="-17.8301470">
        <ele>1124.0</ele>
        <time>2020-11-17T11:55:41Z</time>
      </trkpt>
      <trkpt lat="28.5265330" lon="-17.8301520">
        <ele>1124.1</ele>
        <time>2020-11-17T11:55:42Z</time>
      </trkpt>
      <trkpt lat="28.5265330" lon="-17.8301520">
        <ele>1124.1</ele>
        <time>2020-11-17T11:55:43Z</time>
      </trkpt>
      <trkpt lat="28.5265670" lon="-17.8301670">
        <ele>1124.3</ele>
        <time>2020-11-17T11:55:44Z</time>
      </trkpt>
      <trkpt lat="28.5265830" lon="-17.8301730">
        <ele>1124.4</ele>
        <time>2020-11-17T11:55:45Z</time>
      </trkpt>
      <trkpt lat="28.5265830" lon="-17.8301730">
        <ele>1124.4</ele>
        <time>2020-11-17T11:55:46Z</time>
      </trkpt>
      <trkpt lat="28.5266150" lon="-17.8301880">
        <ele>1124.6</ele>
        <time>2020-11-17T11:55:47Z</time>
      </trkpt>
      <trkpt lat="28.5266300" lon="-17.8301920">
        <ele>1124.7</ele>
        <time>2020-11-17T11:55:48Z</time>
      </trkpt>
      <trkpt lat="28.5266300" lon="-17.8301920">
        <ele>1124.7</ele>
        <time>2020-11-17T11:55:49Z</time>
      </trkpt>
      <trkpt lat="28.5266570" lon="-17.8302070">
        <ele>1124.8</ele>
        <time>2020-11-17T11:55:50Z</time>
      </trkpt>
      <trkpt lat="28.5266570" lon="-17.8302070">
        <ele>1124.8</ele>
        <time>2020-11-17T11:55:51Z</time>
      </trkpt>
      <trkpt lat="28.5266850" lon="-17.8302130">
        <ele>1125.0</ele>
        <time>2020-11-17T11:55:52Z</time>
      </trkpt>
      <trkpt lat="28.5267000" lon="-17.8302180">
        <ele>1125.1</ele>
        <time>2020-11-17T11:55:53Z</time>
      </trkpt>
      <trkpt lat="28.5267150" lon="-17.8302250">
        <ele>1125.2</ele>
        <time>2020-11-17T11:55:54Z</time>
      </trkpt>
      <trkpt lat="28.5267150" lon="-17.8302250">
        <ele>1125.2</ele>
        <time>2020-11-17T11:55:55Z</time>
      </trkpt>
      <trkpt lat="28.5267450" lon="-17.8302400">
        <ele>1125.4</ele>
        <time>2020-11-17T11:55:56Z</time>
      </trkpt>
      <trkpt lat="28.5267600" lon="-17.8302480">
        <ele>1125.5</ele>
        <time>2020-11-17T11:55:57Z</time>
      </trkpt>
      <trkpt lat="28.5267600" lon="-17.8302480">
        <ele>1125.5</ele>
        <time>2020-11-17T11:55:58Z</time>
      </trkpt>
      <trkpt lat="28.5267900" lon="-17.8302570">
        <ele>1125.7</ele>
        <time>2020-11-17T11:55:59Z</time>
      </trkpt>
      <trkpt lat="28.5268070" lon="-17.8302620">
        <ele>1125.8</ele>
        <time>2020-11-17T11:56:00Z</time>
      </trkpt>
      <trkpt lat="28.5268070" lon="-17.8302620">
        <ele>1125.8</ele>
        <time>2020-11-17T11:56:01Z</time>
      </trkpt>
      <trkpt lat="28.5268370" lon="-17.8302750">
        <ele>1126.0</ele>
        <time>2020-11-17T11:56:02Z</time>
      </trkpt>
      <trkpt lat="28.5268500" lon="-17.8302780">
        <ele>1126.1</ele>
        <time>2020-11-17T11:56:03Z</time>
      </trkpt>
      <trkpt lat="28.5268500" lon="-17.8302780">
        <ele>1126.1</ele>
        <time>2020-11-17T11:56:04Z</time>
      </trkpt>
      <trkpt lat="28.5268800" lon="-17.8302880">
        <ele>1126.2</ele>
        <time>2020-11-17T11:56:05Z</time>
      </trkpt>
      <trkpt lat="28.5268800" lon="-17.8302880">
        <ele>1126.2</ele>
        <time>2020-11-17T11:56:06Z</time>
      </trkpt>
      <trkpt lat="28.5269100" lon="-17.8303020">
        <ele>1126.4</ele>
        <time>2020-11-17T11:56:07Z</time>
      </trkpt>
      <trkpt lat="28.5269100" lon="-17.8303020">
        <ele>1126.4</ele>
        <time>2020-11-17T11:56:08Z</time>
      </trkpt>
      <trkpt lat="28.5269380" lon="-17.8303200">
        <ele>1126.6</ele>
        <time>2020-11-17T11:56:09Z</time>
      </trkpt>
      <trkpt lat="28.5269380" lon="-17.8303200">
        <ele>1126.6</ele>
        <time>2020-11-17T11:56:10Z</time>
      </trkpt>
      <trkpt lat="28.5269670" lon="-17.8303380">
        <ele>1126.8</ele>
        <time>2020-11-17T11:56:11Z</time>
      </trkpt>
      <trkpt lat="28.5269820" lon="-17.8303470">
        <ele>1126.9</ele>
        <time>2020-11-17T11:56:12Z</time>
      </trkpt>
      <trkpt lat="28.5269820" lon="-17.8303470">
        <ele>1126.9</ele>
        <time>2020-11-17T11:56:13Z</time>
      </trkpt>
      <trkpt lat="28.5270100" lon="-17.8303700">
        <ele>1127.0</ele>
        <time>2020-11-17T11:56:14Z</time>
      </trkpt>
      <trkpt lat="28.5270220" lon="-17.8303870">
        <ele>1127.1</ele>
        <time>2020-11-17T11:56:15Z</time>
      </trkpt>
      <trkpt lat="28.5270220" lon="-17.8303870">
        <ele>1127.1</ele>
        <time>2020-11-17T11:56:16Z</time>
      </trkpt>
      <trkpt lat="28.5270500" lon="-17.8304100">
        <ele>1127.3</ele>
        <time>2020-11-17T11:56:17Z</time>
      </trkpt>
      <trkpt lat="28.5270500" lon="-17.8304100">
        <ele>1127.3</ele>
        <time>2020-11-17T11:56:18Z</time>
      </trkpt>
      <trkpt lat="28.5270780" lon="-17.8304370">
        <ele>1127.5</ele>
        <time>2020-11-17T11:56:19Z</time>
      </trkpt>
      <trkpt lat="28.5270780" lon="-17.8304370">
        <ele>1127.5</ele>
        <time>2020-11-17T11:56:20Z</time>
      </trkpt>
      <trkpt lat="28.5271000" lon="-17.8304670">
        <ele>1127.8</ele>
        <time>2020-11-17T11:56:21Z</time>
      </trkpt>
      <trkpt lat="28.5271000" lon="-17.8304670">
        <ele>1127.8</ele>
        <time>2020-11-17T11:56:22Z</time>
      </trkpt>
      <trkpt lat="28.5271250" lon="-17.8304880">
        <ele>1128.0</ele>
        <time>2020-11-17T11:56:23Z</time>
      </trkpt>
      <trkpt lat="28.5271370" lon="-17.8305020">
        <ele>1128.1</ele>
        <time>2020-11-17T11:56:24Z</time>
      </trkpt>
      <trkpt lat="28.5271370" lon="-17.8305020">
        <ele>1128.1</ele>
        <time>2020-11-17T11:56:25Z</time>
      </trkpt>
      <trkpt lat="28.5271620" lon="-17.8305270">
        <ele>1128.3</ele>
        <time>2020-11-17T11:56:26Z</time>
      </trkpt>
      <trkpt lat="28.5271750" lon="-17.8305370">
        <ele>1128.4</ele>
        <time>2020-11-17T11:56:27Z</time>
      </trkpt>
      <trkpt lat="28.5271750" lon="-17.8305370">
        <ele>1128.4</ele>
        <time>2020-11-17T11:56:28Z</time>
      </trkpt>
      <trkpt lat="28.5272020" lon="-17.8305580">
        <ele>1128.7</ele>
        <time>2020-11-17T11:56:29Z</time>
      </trkpt>
      <trkpt lat="28.5272020" lon="-17.8305580">
        <ele>1128.7</ele>
        <time>2020-11-17T11:56:30Z</time>
      </trkpt>
      <trkpt lat="28.5272250" lon="-17.8305800">
        <ele>1128.9</ele>
        <time>2020-11-17T11:56:31Z</time>
      </trkpt>
      <trkpt lat="28.5272250" lon="-17.8305800">
        <ele>1128.9</ele>
        <time>2020-11-17T11:56:32Z</time>
      </trkpt>
      <trkpt lat="28.5272500" lon="-17.8305970">
        <ele>1129.2</ele>
        <time>2020-11-17T11:56:33Z</time>
      </trkpt>
      <trkpt lat="28.5272500" lon="-17.8305970">
        <ele>1129.2</ele>
        <time>2020-11-17T11:56:34Z</time>
      </trkpt>
      <trkpt lat="28.5272680" lon="-17.8306170">
        <ele>1129.4</ele>
        <time>2020-11-17T11:56:35Z</time>
      </trkpt>
      <trkpt lat="28.5272770" lon="-17.8306280">
        <ele>1129.5</ele>
        <time>2020-11-17T11:56:36Z</time>
      </trkpt>
      <trkpt lat="28.5272770" lon="-17.8306280">
        <ele>1129.5</ele>
        <time>2020-11-17T11:56:37Z</time>
      </trkpt>
      <trkpt lat="28.5272970" lon="-17.8306480">
        <ele>1129.7</ele>
        <time>2020-11-17T11:56:38Z</time>
      </trkpt>
      <trkpt lat="28.5272970" lon="-17.8306480">
        <ele>1129.7</ele>
        <time>2020-11-17T11:56:39Z</time>
      </trkpt>
      <trkpt lat="28.5273250" lon="-17.8306680">
        <ele>1130.0</ele>
        <time>2020-11-17T11:56:40Z</time>
      </trkpt>
      <trkpt lat="28.5273250" lon="-17.8306680">
        <ele>1130.0</ele>
        <time>2020-11-17T11:56:41Z</time>
      </trkpt>
      <trkpt lat="28.5273480" lon="-17.8306970">
        <ele>1130.3</ele>
        <time>2020-11-17T11:56:42Z</time>
      </trkpt>
      <trkpt lat="28.5273480" lon="-17.8306970">
        <ele>1130.3</ele>
        <time>2020-11-17T11:56:43Z</time>
      </trkpt>
      <trkpt lat="28.5273720" lon="-17.8307220">
        <ele>1130.7</ele>
        <time>2020-11-17T11:56:44Z</time>
      </trkpt>
      <trkpt lat="28.5273720" lon="-17.8307220">
        <ele>1130.7</ele>
        <time>2020-11-17T11:56:45Z</time>
      </trkpt>
      <trkpt lat="28.5273980" lon="-17.8307370">
        <ele>1130.9</ele>
        <time>2020-11-17T11:56:46Z</time>
      </trkpt>
      <trkpt lat="28.5273980" lon="-17.8307370">
        <ele>1130.9</ele>
        <time>2020-11-17T11:56:47Z</time>
      </trkpt>
      <trkpt lat="28.5274230" lon="-17.8307520">
        <ele>1131.2</ele>
        <time>2020-11-17T11:56:48Z</time>
      </trkpt>
      <trkpt lat="28.5274230" lon="-17.8307520">
        <ele>1131.2</ele>
        <time>2020-11-17T11:56:49Z</time>
      </trkpt>
      <trkpt lat="28.5274450" lon="-17.8307650">
        <ele>1131.5</ele>
        <time>2020-11-17T11:56:50Z</time>
      </trkpt>
      <trkpt lat="28.5274600" lon="-17.8307670">
        <ele>1131.6</ele>
        <time>2020-11-17T11:56:51Z</time>
      </trkpt>
      <trkpt lat="28.5274600" lon="-17.8307670">
        <ele>1131.6</ele>
        <time>2020-11-17T11:56:52Z</time>
      </trkpt>
      <trkpt lat="28.5274900" lon="-17.8307700">
        <ele>1131.9</ele>
        <time>2020-11-17T11:56:53Z</time>
      </trkpt>
      <trkpt lat="28.5275050" lon="-17.8307670">
        <ele>1132.1</ele>
        <time>2020-11-17T11:56:54Z</time>
      </trkpt>
      <trkpt lat="28.5275050" lon="-17.8307670">
        <ele>1132.1</ele>
        <time>2020-11-17T11:56:55Z</time>
      </trkpt>
      <trkpt lat="28.5275380" lon="-17.8307530">
        <ele>1132.4</ele>
        <time>2020-11-17T11:56:56Z</time>
      </trkpt>
      <trkpt lat="28.5275380" lon="-17.8307530">
        <ele>1132.4</ele>
        <time>2020-11-17T11:56:57Z</time>
      </trkpt>
      <trkpt lat="28.5275770" lon="-17.8307330">
        <ele>1132.8</ele>
        <time>2020-11-17T11:56:58Z</time>
      </trkpt>
      <trkpt lat="28.5275770" lon="-17.8307330">
        <ele>1132.8</ele>
        <time>2020-11-17T11:56:59Z</time>
      </trkpt>
      <trkpt lat="28.5276180" lon="-17.8307070">
        <ele>1133.2</ele>
        <time>2020-11-17T11:57:00Z</time>
      </trkpt>
      <trkpt lat="28.5276180" lon="-17.8307070">
        <ele>1133.2</ele>
        <time>2020-11-17T11:57:01Z</time>
      </trkpt>
      <trkpt lat="28.5276520" lon="-17.8307030">
        <ele>1133.4</ele>
        <time>2020-11-17T11:57:02Z</time>
      </trkpt>
      <trkpt lat="28.5276520" lon="-17.8307030">
        <ele>1133.4</ele>
        <time>2020-11-17T11:57:03Z</time>
      </trkpt>
      <trkpt lat="28.5276800" lon="-17.8306980">
        <ele>1133.6</ele>
        <time>2020-11-17T11:57:04Z</time>
      </trkpt>
      <trkpt lat="28.5276920" lon="-17.8306970">
        <ele>1133.7</ele>
        <time>2020-11-17T11:57:05Z</time>
      </trkpt>
      <trkpt lat="28.5276920" lon="-17.8306970">
        <ele>1133.7</ele>
        <time>2020-11-17T11:57:06Z</time>
      </trkpt>
      <trkpt lat="28.5277200" lon="-17.8307130">
        <ele>1133.9</ele>
        <time>2020-11-17T11:57:07Z</time>
      </trkpt>
      <trkpt lat="28.5277200" lon="-17.8307130">
        <ele>1133.9</ele>
        <time>2020-11-17T11:57:08Z</time>
      </trkpt>
      <trkpt lat="28.5277500" lon="-17.8307320">
        <ele>1134.2</ele>
        <time>2020-11-17T11:57:09Z</time>
      </trkpt>
      <trkpt lat="28.5277630" lon="-17.8307430">
        <ele>1134.3</ele>
        <time>2020-11-17T11:57:10Z</time>
      </trkpt>
      <trkpt lat="28.5277630" lon="-17.8307430">
        <ele>1134.3</ele>
        <time>2020-11-17T11:57:11Z</time>
      </trkpt>
      <trkpt lat="28.5277920" lon="-17.8307570">
        <ele>1134.5</ele>
        <time>2020-11-17T11:57:12Z</time>
      </trkpt>
      <trkpt lat="28.5277920" lon="-17.8307570">
        <ele>1134.5</ele>
        <time>2020-11-17T11:57:13Z</time>
      </trkpt>
      <trkpt lat="28.5278170" lon="-17.8307780">
        <ele>1134.7</ele>
        <time>2020-11-17T11:57:14Z</time>
      </trkpt>
      <trkpt lat="28.5278300" lon="-17.8307870">
        <ele>1134.8</ele>
        <time>2020-11-17T11:57:15Z</time>
      </trkpt>
      <trkpt lat="28.5278300" lon="-17.8307870">
        <ele>1134.8</ele>
        <time>2020-11-17T11:57:16Z</time>
      </trkpt>
      <trkpt lat="28.5278570" lon="-17.8308000">
        <ele>1135.0</ele>
        <time>2020-11-17T11:57:17Z</time>
      </trkpt>
      <trkpt lat="28.5278720" lon="-17.8308070">
        <ele>1135.1</ele>
        <time>2020-11-17T11:57:18Z</time>
      </trkpt>
      <trkpt lat="28.5278720" lon="-17.8308070">
        <ele>1135.1</ele>
        <time>2020-11-17T11:57:19Z</time>
      </trkpt>
      <trkpt lat="28.5278970" lon="-17.8308170">
        <ele>1135.2</ele>
        <time>2020-11-17T11:57:20Z</time>
      </trkpt>
      <trkpt lat="28.5279100" lon="-17.8308200">
        <ele>1135.3</ele>
        <time>2020-11-17T11:57:21Z</time>
      </trkpt>
      <trkpt lat="28.5279100" lon="-17.8308200">
        <ele>1135.3</ele>
        <time>2020-11-17T11:57:22Z</time>
      </trkpt>
      <trkpt lat="28.5279380" lon="-17.8308270">
        <ele>1135.5</ele>
        <time>2020-11-17T11:57:23Z</time>
      </trkpt>
      <trkpt lat="28.5279530" lon="-17.8308270">
        <ele>1135.6</ele>
        <time>2020-11-17T11:57:24Z</time>
      </trkpt>
      <trkpt lat="28.5279530" lon="-17.8308270">
        <ele>1135.6</ele>
        <time>2020-11-17T11:57:25Z</time>
      </trkpt>
      <trkpt lat="28.5279870" lon="-17.8308230">
        <ele>1135.8</ele>
        <time>2020-11-17T11:57:26Z</time>
      </trkpt>
      <trkpt lat="28.5279870" lon="-17.8308230">
        <ele>1135.8</ele>
        <time>2020-11-17T11:57:27Z</time>
      </trkpt>
      <trkpt lat="28.5280120" lon="-17.8308020">
        <ele>1136.0</ele>
        <time>2020-11-17T11:57:28Z</time>
      </trkpt>
      <trkpt lat="28.5280120" lon="-17.8308020">
        <ele>1136.0</ele>
        <time>2020-11-17T11:57:29Z</time>
      </trkpt>
      <trkpt lat="28.5280400" lon="-17.8307850">
        <ele>1136.1</ele>
        <time>2020-11-17T11:57:30Z</time>
      </trkpt>
      <trkpt lat="28.5280400" lon="-17.8307850">
        <ele>1136.1</ele>
        <time>2020-11-17T11:57:31Z</time>
      </trkpt>
      <trkpt lat="28.5280730" lon="-17.8307770">
        <ele>1136.3</ele>
        <time>2020-11-17T11:57:32Z</time>
      </trkpt>
      <trkpt lat="28.5280880" lon="-17.8307730">
        <ele>1136.3</ele>
        <time>2020-11-17T11:57:33Z</time>
      </trkpt>
      <trkpt lat="28.5280880" lon="-17.8307730">
        <ele>1136.3</ele>
        <time>2020-11-17T11:57:34Z</time>
      </trkpt>
      <trkpt lat="28.5281220" lon="-17.8307770">
        <ele>1136.5</ele>
        <time>2020-11-17T11:57:35Z</time>
      </trkpt>
      <trkpt lat="28.5281220" lon="-17.8307770">
        <ele>1136.5</ele>
        <time>2020-11-17T11:57:36Z</time>
      </trkpt>
      <trkpt lat="28.5281530" lon="-17.8307780">
        <ele>1136.6</ele>
        <time>2020-11-17T11:57:37Z</time>
      </trkpt>
      <trkpt lat="28.5281530" lon="-17.8307780">
        <ele>1136.6</ele>
        <time>2020-11-17T11:57:38Z</time>
      </trkpt>
      <trkpt lat="28.5281880" lon="-17.8307880">
        <ele>1136.7</ele>
        <time>2020-11-17T11:57:39Z</time>
      </trkpt>
      <trkpt lat="28.5281880" lon="-17.8307880">
        <ele>1136.7</ele>
        <time>2020-11-17T11:57:40Z</time>
      </trkpt>
      <trkpt lat="28.5282280" lon="-17.8307980">
        <ele>1136.9</ele>
        <time>2020-11-17T11:57:41Z</time>
      </trkpt>
      <trkpt lat="28.5282280" lon="-17.8307980">
        <ele>1136.9</ele>
        <time>2020-11-17T11:57:42Z</time>
      </trkpt>
      <trkpt lat="28.5282600" lon="-17.8308150">
        <ele>1137.0</ele>
        <time>2020-11-17T11:57:43Z</time>
      </trkpt>
      <trkpt lat="28.5282750" lon="-17.8308250">
        <ele>1137.1</ele>
        <time>2020-11-17T11:57:44Z</time>
      </trkpt>
      <trkpt lat="28.5282750" lon="-17.8308250">
        <ele>1137.1</ele>
        <time>2020-11-17T11:57:45Z</time>
      </trkpt>
      <trkpt lat="28.5283080" lon="-17.8308420">
        <ele>1137.3</ele>
        <time>2020-11-17T11:57:46Z</time>
      </trkpt>
      <trkpt lat="28.5283080" lon="-17.8308420">
        <ele>1137.3</ele>
        <time>2020-11-17T11:57:47Z</time>
      </trkpt>
      <trkpt lat="28.5283350" lon="-17.8308650">
        <ele>1137.4</ele>
        <time>2020-11-17T11:57:48Z</time>
      </trkpt>
      <trkpt lat="28.5283350" lon="-17.8308650">
        <ele>1137.4</ele>
        <time>2020-11-17T11:57:49Z</time>
      </trkpt>
      <trkpt lat="28.5283620" lon="-17.8308920">
        <ele>1137.7</ele>
        <time>2020-11-17T11:57:50Z</time>
      </trkpt>
      <trkpt lat="28.5283620" lon="-17.8308920">
        <ele>1137.7</ele>
        <time>2020-11-17T11:57:51Z</time>
      </trkpt>
      <trkpt lat="28.5283880" lon="-17.8309180">
        <ele>1137.9</ele>
        <time>2020-11-17T11:57:52Z</time>
      </trkpt>
      <trkpt lat="28.5284020" lon="-17.8309300">
        <ele>1138.0</ele>
        <time>2020-11-17T11:57:53Z</time>
      </trkpt>
      <trkpt lat="28.5284130" lon="-17.8309450">
        <ele>1138.1</ele>
        <time>2020-11-17T11:57:54Z</time>
      </trkpt>
      <trkpt lat="28.5284130" lon="-17.8309450">
        <ele>1138.1</ele>
        <time>2020-11-17T11:57:55Z</time>
      </trkpt>
      <trkpt lat="28.5284350" lon="-17.8309750">
        <ele>1138.3</ele>
        <time>2020-11-17T11:57:56Z</time>
      </trkpt>
      <trkpt lat="28.5284350" lon="-17.8309750">
        <ele>1138.3</ele>
        <time>2020-11-17T11:57:57Z</time>
      </trkpt>
      <trkpt lat="28.5284520" lon="-17.8310080">
        <ele>1138.5</ele>
        <time>2020-11-17T11:57:58Z</time>
      </trkpt>
      <trkpt lat="28.5284600" lon="-17.8310250">
        <ele>1138.6</ele>
        <time>2020-11-17T11:57:59Z</time>
      </trkpt>
      <trkpt lat="28.5284700" lon="-17.8310420">
        <ele>1138.7</ele>
        <time>2020-11-17T11:58:00Z</time>
      </trkpt>
      <trkpt lat="28.5284700" lon="-17.8310420">
        <ele>1138.7</ele>
        <time>2020-11-17T11:58:01Z</time>
      </trkpt>
      <trkpt lat="28.5284870" lon="-17.8310780">
        <ele>1139.0</ele>
        <time>2020-11-17T11:58:02Z</time>
      </trkpt>
      <trkpt lat="28.5284920" lon="-17.8311000">
        <ele>1139.1</ele>
        <time>2020-11-17T11:58:03Z</time>
      </trkpt>
      <trkpt lat="28.5284920" lon="-17.8311000">
        <ele>1139.1</ele>
        <time>2020-11-17T11:58:04Z</time>
      </trkpt>
      <trkpt lat="28.5285120" lon="-17.8311430">
        <ele>1139.4</ele>
        <time>2020-11-17T11:58:05Z</time>
      </trkpt>
      <trkpt lat="28.5285200" lon="-17.8311620">
        <ele>1139.5</ele>
        <time>2020-11-17T11:58:06Z</time>
      </trkpt>
      <trkpt lat="28.5285200" lon="-17.8311620">
        <ele>1139.5</ele>
        <time>2020-11-17T11:58:07Z</time>
      </trkpt>
      <trkpt lat="28.5285420" lon="-17.8311970">
        <ele>1139.8</ele>
        <time>2020-11-17T11:58:08Z</time>
      </trkpt>
      <trkpt lat="28.5285530" lon="-17.8312100">
        <ele>1139.9</ele>
        <time>2020-11-17T11:58:09Z</time>
      </trkpt>
      <trkpt lat="28.5285530" lon="-17.8312100">
        <ele>1139.9</ele>
        <time>2020-11-17T11:58:10Z</time>
      </trkpt>
      <trkpt lat="28.5285780" lon="-17.8312420">
        <ele>1140.2</ele>
        <time>2020-11-17T11:58:11Z</time>
      </trkpt>
      <trkpt lat="28.5285780" lon="-17.8312420">
        <ele>1140.2</ele>
        <time>2020-11-17T11:58:12Z</time>
      </trkpt>
      <trkpt lat="28.5286000" lon="-17.8312720">
        <ele>1140.4</ele>
        <time>2020-11-17T11:58:13Z</time>
      </trkpt>
      <trkpt lat="28.5286000" lon="-17.8312720">
        <ele>1140.4</ele>
        <time>2020-11-17T11:58:14Z</time>
      </trkpt>
      <trkpt lat="28.5286220" lon="-17.8313070">
        <ele>1140.6</ele>
        <time>2020-11-17T11:58:15Z</time>
      </trkpt>
      <trkpt lat="28.5286330" lon="-17.8313250">
        <ele>1140.7</ele>
        <time>2020-11-17T11:58:16Z</time>
      </trkpt>
      <trkpt lat="28.5286330" lon="-17.8313250">
        <ele>1140.7</ele>
        <time>2020-11-17T11:58:17Z</time>
      </trkpt>
      <trkpt lat="28.5286550" lon="-17.8313570">
        <ele>1140.9</ele>
        <time>2020-11-17T11:58:18Z</time>
      </trkpt>
      <trkpt lat="28.5286550" lon="-17.8313570">
        <ele>1140.9</ele>
        <time>2020-11-17T11:58:19Z</time>
      </trkpt>
      <trkpt lat="28.5286830" lon="-17.8313830">
        <ele>1141.0</ele>
        <time>2020-11-17T11:58:20Z</time>
      </trkpt>
      <trkpt lat="28.5286970" lon="-17.8313930">
        <ele>1141.1</ele>
        <time>2020-11-17T11:58:21Z</time>
      </trkpt>
      <trkpt lat="28.5287080" lon="-17.8314050">
        <ele>1141.2</ele>
        <time>2020-11-17T11:58:22Z</time>
      </trkpt>
      <trkpt lat="28.5287080" lon="-17.8314050">
        <ele>1141.2</ele>
        <time>2020-11-17T11:58:23Z</time>
      </trkpt>
      <trkpt lat="28.5287430" lon="-17.8314230">
        <ele>1141.4</ele>
        <time>2020-11-17T11:58:24Z</time>
      </trkpt>
      <trkpt lat="28.5287430" lon="-17.8314230">
        <ele>1141.4</ele>
        <time>2020-11-17T11:58:25Z</time>
      </trkpt>
      <trkpt lat="28.5287780" lon="-17.8314380">
        <ele>1141.6</ele>
        <time>2020-11-17T11:58:26Z</time>
      </trkpt>
      <trkpt lat="28.5287980" lon="-17.8314430">
        <ele>1141.7</ele>
        <time>2020-11-17T11:58:27Z</time>
      </trkpt>
      <trkpt lat="28.5287980" lon="-17.8314430">
        <ele>1141.7</ele>
        <time>2020-11-17T11:58:28Z</time>
      </trkpt>
      <trkpt lat="28.5288330" lon="-17.8314520">
        <ele>1141.8</ele>
        <time>2020-11-17T11:58:29Z</time>
      </trkpt>
      <trkpt lat="28.5288500" lon="-17.8314550">
        <ele>1141.9</ele>
        <time>2020-11-17T11:58:30Z</time>
      </trkpt>
      <trkpt lat="28.5288500" lon="-17.8314550">
        <ele>1141.9</ele>
        <time>2020-11-17T11:58:31Z</time>
      </trkpt>
      <trkpt lat="28.5288800" lon="-17.8314720">
        <ele>1142.1</ele>
        <time>2020-11-17T11:58:32Z</time>
      </trkpt>
      <trkpt lat="28.5288800" lon="-17.8314720">
        <ele>1142.1</ele>
        <time>2020-11-17T11:58:33Z</time>
      </trkpt>
      <trkpt lat="28.5289080" lon="-17.8314830">
        <ele>1142.3</ele>
        <time>2020-11-17T11:58:34Z</time>
      </trkpt>
      <trkpt lat="28.5289170" lon="-17.8314880">
        <ele>1142.3</ele>
        <time>2020-11-17T11:58:35Z</time>
      </trkpt>
      <trkpt lat="28.5289320" lon="-17.8314970">
        <ele>1142.4</ele>
        <time>2020-11-17T11:58:36Z</time>
      </trkpt>
      <trkpt lat="28.5289320" lon="-17.8314970">
        <ele>1142.4</ele>
        <time>2020-11-17T11:58:37Z</time>
      </trkpt>
      <trkpt lat="28.5289650" lon="-17.8315170">
        <ele>1142.6</ele>
        <time>2020-11-17T11:58:38Z</time>
      </trkpt>
      <trkpt lat="28.5289820" lon="-17.8315270">
        <ele>1142.7</ele>
        <time>2020-11-17T11:58:39Z</time>
      </trkpt>
      <trkpt lat="28.5289820" lon="-17.8315270">
        <ele>1142.7</ele>
        <time>2020-11-17T11:58:40Z</time>
      </trkpt>
      <trkpt lat="28.5290100" lon="-17.8315430">
        <ele>1142.9</ele>
        <time>2020-11-17T11:58:41Z</time>
      </trkpt>
      <trkpt lat="28.5290250" lon="-17.8315500">
        <ele>1142.9</ele>
        <time>2020-11-17T11:58:42Z</time>
      </trkpt>
      <trkpt lat="28.5290250" lon="-17.8315500">
        <ele>1142.9</ele>
        <time>2020-11-17T11:58:43Z</time>
      </trkpt>
      <trkpt lat="28.5290580" lon="-17.8315550">
        <ele>1143.1</ele>
        <time>2020-11-17T11:58:44Z</time>
      </trkpt>
      <trkpt lat="28.5290720" lon="-17.8315520">
        <ele>1143.2</ele>
        <time>2020-11-17T11:58:45Z</time>
      </trkpt>
      <trkpt lat="28.5290720" lon="-17.8315520">
        <ele>1143.2</ele>
        <time>2020-11-17T11:58:46Z</time>
      </trkpt>
      <trkpt lat="28.5290970" lon="-17.8315320">
        <ele>1143.3</ele>
        <time>2020-11-17T11:58:47Z</time>
      </trkpt>
      <trkpt lat="28.5291080" lon="-17.8315200">
        <ele>1143.4</ele>
        <time>2020-11-17T11:58:48Z</time>
      </trkpt>
      <trkpt lat="28.5291080" lon="-17.8315200">
        <ele>1143.4</ele>
        <time>2020-11-17T11:58:49Z</time>
      </trkpt>
      <trkpt lat="28.5291300" lon="-17.8314870">
        <ele>1143.5</ele>
        <time>2020-11-17T11:58:50Z</time>
      </trkpt>
      <trkpt lat="28.5291300" lon="-17.8314870">
        <ele>1143.5</ele>
        <time>2020-11-17T11:58:51Z</time>
      </trkpt>
      <trkpt lat="28.5291630" lon="-17.8314550">
        <ele>1143.7</ele>
        <time>2020-11-17T11:58:52Z</time>
      </trkpt>
      <trkpt lat="28.5291630" lon="-17.8314550">
        <ele>1143.7</ele>
        <time>2020-11-17T11:58:53Z</time>
      </trkpt>
      <trkpt lat="28.5291930" lon="-17.8314250">
        <ele>1143.8</ele>
        <time>2020-11-17T11:58:54Z</time>
      </trkpt>
      <trkpt lat="28.5291930" lon="-17.8314250">
        <ele>1143.8</ele>
        <time>2020-11-17T11:58:55Z</time>
      </trkpt>
      <trkpt lat="28.5292230" lon="-17.8314020">
        <ele>1143.9</ele>
        <time>2020-11-17T11:58:56Z</time>
      </trkpt>
      <trkpt lat="28.5292380" lon="-17.8313880">
        <ele>1144.0</ele>
        <time>2020-11-17T11:58:57Z</time>
      </trkpt>
      <trkpt lat="28.5292380" lon="-17.8313880">
        <ele>1144.0</ele>
        <time>2020-11-17T11:58:58Z</time>
      </trkpt>
      <trkpt lat="28.5292670" lon="-17.8313720">
        <ele>1144.1</ele>
        <time>2020-11-17T11:58:59Z</time>
      </trkpt>
      <trkpt lat="28.5292820" lon="-17.8313620">
        <ele>1144.2</ele>
        <time>2020-11-17T11:59:00Z</time>
      </trkpt>
      <trkpt lat="28.5292820" lon="-17.8313620">
        <ele>1144.2</ele>
        <time>2020-11-17T11:59:01Z</time>
      </trkpt>
      <trkpt lat="28.5293130" lon="-17.8313450">
        <ele>1144.3</ele>
        <time>2020-11-17T11:59:02Z</time>
      </trkpt>
      <trkpt lat="28.5293130" lon="-17.8313450">
        <ele>1144.3</ele>
        <time>2020-11-17T11:59:03Z</time>
      </trkpt>
      <trkpt lat="28.5293470" lon="-17.8313300">
        <ele>1144.4</ele>
        <time>2020-11-17T11:59:04Z</time>
      </trkpt>
      <trkpt lat="28.5293470" lon="-17.8313300">
        <ele>1144.4</ele>
        <time>2020-11-17T11:59:05Z</time>
      </trkpt>
      <trkpt lat="28.5293770" lon="-17.8313100">
        <ele>1144.6</ele>
        <time>2020-11-17T11:59:06Z</time>
      </trkpt>
      <trkpt lat="28.5293770" lon="-17.8313100">
        <ele>1144.6</ele>
        <time>2020-11-17T11:59:07Z</time>
      </trkpt>
      <trkpt lat="28.5294030" lon="-17.8312800">
        <ele>1144.7</ele>
        <time>2020-11-17T11:59:08Z</time>
      </trkpt>
      <trkpt lat="28.5294180" lon="-17.8312630">
        <ele>1144.8</ele>
        <time>2020-11-17T11:59:09Z</time>
      </trkpt>
      <trkpt lat="28.5294180" lon="-17.8312630">
        <ele>1144.8</ele>
        <time>2020-11-17T11:59:10Z</time>
      </trkpt>
      <trkpt lat="28.5294470" lon="-17.8312300">
        <ele>1145.0</ele>
        <time>2020-11-17T11:59:11Z</time>
      </trkpt>
      <trkpt lat="28.5294580" lon="-17.8312120">
        <ele>1145.1</ele>
        <time>2020-11-17T11:59:12Z</time>
      </trkpt>
      <trkpt lat="28.5294580" lon="-17.8312120">
        <ele>1145.1</ele>
        <time>2020-11-17T11:59:13Z</time>
      </trkpt>
      <trkpt lat="28.5294870" lon="-17.8311920">
        <ele>1145.3</ele>
        <time>2020-11-17T11:59:14Z</time>
      </trkpt>
      <trkpt lat="28.5295030" lon="-17.8311870">
        <ele>1145.4</ele>
        <time>2020-11-17T11:59:15Z</time>
      </trkpt>
      <trkpt lat="28.5295030" lon="-17.8311870">
        <ele>1145.4</ele>
        <time>2020-11-17T11:59:16Z</time>
      </trkpt>
      <trkpt lat="28.5295320" lon="-17.8311630">
        <ele>1145.6</ele>
        <time>2020-11-17T11:59:17Z</time>
      </trkpt>
      <trkpt lat="28.5295450" lon="-17.8311520">
        <ele>1145.8</ele>
        <time>2020-11-17T11:59:18Z</time>
      </trkpt>
      <trkpt lat="28.5295450" lon="-17.8311520">
        <ele>1145.8</ele>
        <time>2020-11-17T11:59:19Z</time>
      </trkpt>
      <trkpt lat="28.5295650" lon="-17.8311280">
        <ele>1145.9</ele>
        <time>2020-11-17T11:59:20Z</time>
      </trkpt>
      <trkpt lat="28.5295650" lon="-17.8311280">
        <ele>1145.9</ele>
        <time>2020-11-17T11:59:21Z</time>
      </trkpt>
      <trkpt lat="28.5295680" lon="-17.8311250">
        <ele>1146.0</ele>
        <time>2020-11-17T11:59:22Z</time>
      </trkpt>
      <trkpt lat="28.5295680" lon="-17.8311250">
        <ele>1146.0</ele>
        <time>2020-11-17T11:59:23Z</time>
      </trkpt>
      <trkpt lat="28.5295780" lon="-17.8311250">
        <ele>1146.1</ele>
        <time>2020-11-17T11:59:24Z</time>
      </trkpt>
      <trkpt lat="28.5295780" lon="-17.8311220">
        <ele>1146.1</ele>
        <time>2020-11-17T11:59:25Z</time>
      </trkpt>
      <trkpt lat="28.5295780" lon="-17.8311220">
        <ele>1146.1</ele>
        <time>2020-11-17T11:59:26Z</time>
      </trkpt>
      <trkpt lat="28.5295850" lon="-17.8311180">
        <ele>1146.1</ele>
        <time>2020-11-17T11:59:27Z</time>
      </trkpt>
      <trkpt lat="28.5295850" lon="-17.8311180">
        <ele>1146.1</ele>
        <time>2020-11-17T11:59:28Z</time>
      </trkpt>
      <trkpt lat="28.5295870" lon="-17.8310880">
        <ele>1146.3</ele>
        <time>2020-11-17T11:59:29Z</time>
      </trkpt>
      <trkpt lat="28.5295870" lon="-17.8310880">
        <ele>1146.3</ele>
        <time>2020-11-17T11:59:30Z</time>
      </trkpt>
      <trkpt lat="28.5296020" lon="-17.8310680">
        <ele>1146.5</ele>
        <time>2020-11-17T11:59:31Z</time>
      </trkpt>
      <trkpt lat="28.5296020" lon="-17.8310680">
        <ele>1146.5</ele>
        <time>2020-11-17T11:59:32Z</time>
      </trkpt>
      <trkpt lat="28.5295980" lon="-17.8310480">
        <ele>1146.7</ele>
        <time>2020-11-17T11:59:33Z</time>
      </trkpt>
      <trkpt lat="28.5296030" lon="-17.8310430">
        <ele>1146.7</ele>
        <time>2020-11-17T11:59:34Z</time>
      </trkpt>
      <trkpt lat="28.5296030" lon="-17.8310430">
        <ele>1146.7</ele>
        <time>2020-11-17T11:59:35Z</time>
      </trkpt>
      <trkpt lat="28.5296080" lon="-17.8310430">
        <ele>1146.7</ele>
        <time>2020-11-17T11:59:36Z</time>
      </trkpt>
      <trkpt lat="28.5296080" lon="-17.8310430">
        <ele>1146.7</ele>
        <time>2020-11-17T11:59:37Z</time>
      </trkpt>
      <trkpt lat="28.5296120" lon="-17.8310470">
        <ele>1146.8</ele>
        <time>2020-11-17T11:59:38Z</time>
      </trkpt>
      <trkpt lat="28.5296120" lon="-17.8310470">
        <ele>1146.8</ele>
        <time>2020-11-17T11:59:39Z</time>
      </trkpt>
      <trkpt lat="28.5296120" lon="-17.8310470">
        <ele>1146.8</ele>
        <time>2020-11-17T12:01:14Z</time>
      </trkpt>
      <trkpt lat="28.5296120" lon="-17.8310470">
        <ele>1146.8</ele>
        <time>2020-11-17T12:01:15Z</time>
      </trkpt>
      <trkpt lat="28.5296270" lon="-17.8310250">
        <ele>1147.0</ele>
        <time>2020-11-17T12:01:16Z</time>
      </trkpt>
      <trkpt lat="28.5296270" lon="-17.8310250">
        <ele>1147.0</ele>
        <time>2020-11-17T12:01:17Z</time>
      </trkpt>
      <trkpt lat="28.5296320" lon="-17.8310170">
        <ele>1147.1</ele>
        <time>2020-11-17T12:01:18Z</time>
      </trkpt>
      <trkpt lat="28.5296320" lon="-17.8310170">
        <ele>1147.1</ele>
        <time>2020-11-17T12:01:19Z</time>
      </trkpt>
      <trkpt lat="28.5296300" lon="-17.8310180">
        <ele>1147.1</ele>
        <time>2020-11-17T12:01:20Z</time>
      </trkpt>
      <trkpt lat="28.5296280" lon="-17.8310200">
        <ele>1147.2</ele>
        <time>2020-11-17T12:01:21Z</time>
      </trkpt>
      <trkpt lat="28.5296280" lon="-17.8310200">
        <ele>1147.2</ele>
        <time>2020-11-17T12:01:22Z</time>
      </trkpt>
      <trkpt lat="28.5296470" lon="-17.8310080">
        <ele>1147.4</ele>
        <time>2020-11-17T12:01:40Z</time>
      </trkpt>
      <trkpt lat="28.5296470" lon="-17.8310080">
        <ele>1147.4</ele>
        <time>2020-11-17T12:01:41Z</time>
      </trkpt>
      <trkpt lat="28.5296670" lon="-17.8309800">
        <ele>1147.7</ele>
        <time>2020-11-17T12:01:42Z</time>
      </trkpt>
      <trkpt lat="28.5296670" lon="-17.8309800">
        <ele>1147.7</ele>
        <time>2020-11-17T12:01:43Z</time>
      </trkpt>
      <trkpt lat="28.5296900" lon="-17.8309520">
        <ele>1148.0</ele>
        <time>2020-11-17T12:01:44Z</time>
      </trkpt>
      <trkpt lat="28.5296900" lon="-17.8309520">
        <ele>1148.0</ele>
        <time>2020-11-17T12:01:45Z</time>
      </trkpt>
      <trkpt lat="28.5297220" lon="-17.8309230">
        <ele>1148.4</ele>
        <time>2020-11-17T12:01:46Z</time>
      </trkpt>
      <trkpt lat="28.5297220" lon="-17.8309230">
        <ele>1148.4</ele>
        <time>2020-11-17T12:01:47Z</time>
      </trkpt>
      <trkpt lat="28.5297350" lon="-17.8308770">
        <ele>1148.9</ele>
        <time>2020-11-17T12:01:48Z</time>
      </trkpt>
      <trkpt lat="28.5297350" lon="-17.8308770">
        <ele>1148.9</ele>
        <time>2020-11-17T12:01:49Z</time>
      </trkpt>
      <trkpt lat="28.5297480" lon="-17.8308400">
        <ele>1149.3</ele>
        <time>2020-11-17T12:01:50Z</time>
      </trkpt>
      <trkpt lat="28.5297480" lon="-17.8308400">
        <ele>1149.3</ele>
        <time>2020-11-17T12:01:51Z</time>
      </trkpt>
      <trkpt lat="28.5297620" lon="-17.8307970">
        <ele>1149.7</ele>
        <time>2020-11-17T12:01:52Z</time>
      </trkpt>
      <trkpt lat="28.5297620" lon="-17.8307970">
        <ele>1149.7</ele>
        <time>2020-11-17T12:01:53Z</time>
      </trkpt>
      <trkpt lat="28.5297730" lon="-17.8307600">
        <ele>1150.1</ele>
        <time>2020-11-17T12:01:54Z</time>
      </trkpt>
      <trkpt lat="28.5297730" lon="-17.8307600">
        <ele>1150.1</ele>
        <time>2020-11-17T12:01:55Z</time>
      </trkpt>
      <trkpt lat="28.5297850" lon="-17.8307250">
        <ele>1150.5</ele>
        <time>2020-11-17T12:01:56Z</time>
      </trkpt>
      <trkpt lat="28.5297850" lon="-17.8307250">
        <ele>1150.5</ele>
        <time>2020-11-17T12:01:57Z</time>
      </trkpt>
      <trkpt lat="28.5297980" lon="-17.8306970">
        <ele>1150.9</ele>
        <time>2020-11-17T12:01:58Z</time>
      </trkpt>
      <trkpt lat="28.5297980" lon="-17.8306970">
        <ele>1150.9</ele>
        <time>2020-11-17T12:01:59Z</time>
      </trkpt>
      <trkpt lat="28.5298120" lon="-17.8306700">
        <ele>1151.2</ele>
        <time>2020-11-17T12:02:00Z</time>
      </trkpt>
      <trkpt lat="28.5298120" lon="-17.8306700">
        <ele>1151.2</ele>
        <time>2020-11-17T12:02:01Z</time>
      </trkpt>
      <trkpt lat="28.5298150" lon="-17.8306700">
        <ele>1151.2</ele>
        <time>2020-11-17T12:02:02Z</time>
      </trkpt>
      <trkpt lat="28.5298170" lon="-17.8306670">
        <ele>1151.3</ele>
        <time>2020-11-17T12:02:03Z</time>
      </trkpt>
      <trkpt lat="28.5298170" lon="-17.8306670">
        <ele>1151.3</ele>
        <time>2020-11-17T12:02:04Z</time>
      </trkpt>
      <trkpt lat="28.5298300" lon="-17.8306580">
        <ele>1151.5</ele>
        <time>2020-11-17T12:02:05Z</time>
      </trkpt>
      <trkpt lat="28.5298300" lon="-17.8306580">
        <ele>1151.5</ele>
        <time>2020-11-17T12:02:06Z</time>
      </trkpt>
      <trkpt lat="28.5298470" lon="-17.8306470">
        <ele>1151.7</ele>
        <time>2020-11-17T12:02:07Z</time>
      </trkpt>
      <trkpt lat="28.5298470" lon="-17.8306470">
        <ele>1151.7</ele>
        <time>2020-11-17T12:02:08Z</time>
      </trkpt>
      <trkpt lat="28.5298670" lon="-17.8306320">
        <ele>1152.0</ele>
        <time>2020-11-17T12:02:09Z</time>
      </trkpt>
      <trkpt lat="28.5298670" lon="-17.8306320">
        <ele>1152.0</ele>
        <time>2020-11-17T12:02:10Z</time>
      </trkpt>
      <trkpt lat="28.5298850" lon="-17.8306170">
        <ele>1152.3</ele>
        <time>2020-11-17T12:02:11Z</time>
      </trkpt>
      <trkpt lat="28.5298920" lon="-17.8306120">
        <ele>1152.4</ele>
        <time>2020-11-17T12:02:12Z</time>
      </trkpt>
      <trkpt lat="28.5298920" lon="-17.8306120">
        <ele>1152.4</ele>
        <time>2020-11-17T12:02:13Z</time>
      </trkpt>
      <trkpt lat="28.5299130" lon="-17.8306050">
        <ele>1152.6</ele>
        <time>2020-11-17T12:02:14Z</time>
      </trkpt>
      <trkpt lat="28.5299130" lon="-17.8306050">
        <ele>1152.6</ele>
        <time>2020-11-17T12:02:15Z</time>
      </trkpt>
      <trkpt lat="28.5299350" lon="-17.8305970">
        <ele>1152.9</ele>
        <time>2020-11-17T12:02:16Z</time>
      </trkpt>
      <trkpt lat="28.5299350" lon="-17.8305970">
        <ele>1152.9</ele>
        <time>2020-11-17T12:02:17Z</time>
      </trkpt>
      <trkpt lat="28.5299530" lon="-17.8305870">
        <ele>1153.1</ele>
        <time>2020-11-17T12:02:18Z</time>
      </trkpt>
      <trkpt lat="28.5299620" lon="-17.8305780">
        <ele>1153.2</ele>
        <time>2020-11-17T12:02:19Z</time>
      </trkpt>
      <trkpt lat="28.5299620" lon="-17.8305780">
        <ele>1153.2</ele>
        <time>2020-11-17T12:02:20Z</time>
      </trkpt>
      <trkpt lat="28.5299780" lon="-17.8305680">
        <ele>1153.4</ele>
        <time>2020-11-17T12:02:21Z</time>
      </trkpt>
      <trkpt lat="28.5299780" lon="-17.8305680">
        <ele>1153.4</ele>
        <time>2020-11-17T12:02:22Z</time>
      </trkpt>
      <trkpt lat="28.5299970" lon="-17.8305620">
        <ele>1153.6</ele>
        <time>2020-11-17T12:02:23Z</time>
      </trkpt>
      <trkpt lat="28.5299970" lon="-17.8305620">
        <ele>1153.6</ele>
        <time>2020-11-17T12:02:24Z</time>
      </trkpt>
      <trkpt lat="28.5300100" lon="-17.8305520">
        <ele>1153.7</ele>
        <time>2020-11-17T12:02:25Z</time>
      </trkpt>
      <trkpt lat="28.5300100" lon="-17.8305520">
        <ele>1153.7</ele>
        <time>2020-11-17T12:02:26Z</time>
      </trkpt>
      <trkpt lat="28.5300070" lon="-17.8305580">
        <ele>1153.8</ele>
        <time>2020-11-17T12:02:27Z</time>
      </trkpt>
      <trkpt lat="28.5300070" lon="-17.8305580">
        <ele>1153.8</ele>
        <time>2020-11-17T12:02:28Z</time>
      </trkpt>
      <trkpt lat="28.5300220" lon="-17.8305680">
        <ele>1153.9</ele>
        <time>2020-11-17T12:02:29Z</time>
      </trkpt>
      <trkpt lat="28.5300330" lon="-17.8305800">
        <ele>1154.1</ele>
        <time>2020-11-17T12:02:30Z</time>
      </trkpt>
      <trkpt lat="28.5300330" lon="-17.8305800">
        <ele>1154.1</ele>
        <time>2020-11-17T12:02:31Z</time>
      </trkpt>
      <trkpt lat="28.5300580" lon="-17.8306150">
        <ele>1154.4</ele>
        <time>2020-11-17T12:02:32Z</time>
      </trkpt>
      <trkpt lat="28.5300580" lon="-17.8306150">
        <ele>1154.4</ele>
        <time>2020-11-17T12:02:33Z</time>
      </trkpt>
      <trkpt lat="28.5300900" lon="-17.8306520">
        <ele>1154.7</ele>
        <time>2020-11-17T12:02:34Z</time>
      </trkpt>
      <trkpt lat="28.5300900" lon="-17.8306520">
        <ele>1154.7</ele>
        <time>2020-11-17T12:02:35Z</time>
      </trkpt>
      <trkpt lat="28.5301230" lon="-17.8306830">
        <ele>1155.0</ele>
        <time>2020-11-17T12:02:36Z</time>
      </trkpt>
      <trkpt lat="28.5301230" lon="-17.8306830">
        <ele>1155.0</ele>
        <time>2020-11-17T12:02:37Z</time>
      </trkpt>
      <trkpt lat="28.5301550" lon="-17.8307180">
        <ele>1155.3</ele>
        <time>2020-11-17T12:02:38Z</time>
      </trkpt>
      <trkpt lat="28.5301550" lon="-17.8307180">
        <ele>1155.3</ele>
        <time>2020-11-17T12:02:39Z</time>
      </trkpt>
      <trkpt lat="28.5301980" lon="-17.8307450">
        <ele>1155.6</ele>
        <time>2020-11-17T12:02:40Z</time>
      </trkpt>
      <trkpt lat="28.5302220" lon="-17.8307530">
        <ele>1155.8</ele>
        <time>2020-11-17T12:02:41Z</time>
      </trkpt>
      <trkpt lat="28.5302500" lon="-17.8307550">
        <ele>1156.0</ele>
        <time>2020-11-17T12:02:42Z</time>
      </trkpt>
      <trkpt lat="28.5302500" lon="-17.8307550">
        <ele>1156.0</ele>
        <time>2020-11-17T12:02:43Z</time>
      </trkpt>
      <trkpt lat="28.5302830" lon="-17.8307580">
        <ele>1156.2</ele>
        <time>2020-11-17T12:02:44Z</time>
      </trkpt>
      <trkpt lat="28.5302830" lon="-17.8307580">
        <ele>1156.2</ele>
        <time>2020-11-17T12:02:45Z</time>
      </trkpt>
      <trkpt lat="28.5303120" lon="-17.8307580">
        <ele>1156.4</ele>
        <time>2020-11-17T12:02:46Z</time>
      </trkpt>
      <trkpt lat="28.5303120" lon="-17.8307580">
        <ele>1156.4</ele>
        <time>2020-11-17T12:02:47Z</time>
      </trkpt>
      <trkpt lat="28.5303470" lon="-17.8307580">
        <ele>1156.7</ele>
        <time>2020-11-17T12:02:48Z</time>
      </trkpt>
      <trkpt lat="28.5303470" lon="-17.8307580">
        <ele>1156.7</ele>
        <time>2020-11-17T12:02:49Z</time>
      </trkpt>
      <trkpt lat="28.5303800" lon="-17.8307480">
        <ele>1157.0</ele>
        <time>2020-11-17T12:02:50Z</time>
      </trkpt>
      <trkpt lat="28.5303950" lon="-17.8307370">
        <ele>1157.2</ele>
        <time>2020-11-17T12:02:51Z</time>
      </trkpt>
      <trkpt lat="28.5304120" lon="-17.8307220">
        <ele>1157.4</ele>
        <time>2020-11-17T12:02:52Z</time>
      </trkpt>
      <trkpt lat="28.5304120" lon="-17.8307220">
        <ele>1157.4</ele>
        <time>2020-11-17T12:02:53Z</time>
      </trkpt>
      <trkpt lat="28.5304480" lon="-17.8306930">
        <ele>1157.8</ele>
        <time>2020-11-17T12:02:54Z</time>
      </trkpt>
      <trkpt lat="28.5304480" lon="-17.8306930">
        <ele>1157.8</ele>
        <time>2020-11-17T12:02:55Z</time>
      </trkpt>
      <trkpt lat="28.5304820" lon="-17.8306580">
        <ele>1158.2</ele>
        <time>2020-11-17T12:02:56Z</time>
      </trkpt>
      <trkpt lat="28.5305030" lon="-17.8306370">
        <ele>1158.4</ele>
        <time>2020-11-17T12:02:57Z</time>
      </trkpt>
      <trkpt lat="28.5305030" lon="-17.8306370">
        <ele>1158.4</ele>
        <time>2020-11-17T12:02:58Z</time>
      </trkpt>
      <trkpt lat="28.5305330" lon="-17.8305930">
        <ele>1158.9</ele>
        <time>2020-11-17T12:02:59Z</time>
      </trkpt>
      <trkpt lat="28.5305480" lon="-17.8305720">
        <ele>1159.1</ele>
        <time>2020-11-17T12:03:00Z</time>
      </trkpt>
      <trkpt lat="28.5305480" lon="-17.8305720">
        <ele>1159.1</ele>
        <time>2020-11-17T12:03:01Z</time>
      </trkpt>
      <trkpt lat="28.5305730" lon="-17.8305330">
        <ele>1159.5</ele>
        <time>2020-11-17T12:03:02Z</time>
      </trkpt>
      <trkpt lat="28.5305730" lon="-17.8305330">
        <ele>1159.5</ele>
        <time>2020-11-17T12:03:03Z</time>
      </trkpt>
      <trkpt lat="28.5306000" lon="-17.8305050">
        <ele>1159.8</ele>
        <time>2020-11-17T12:03:04Z</time>
      </trkpt>
      <trkpt lat="28.5306000" lon="-17.8305050">
        <ele>1159.8</ele>
        <time>2020-11-17T12:03:05Z</time>
      </trkpt>
      <trkpt lat="28.5306320" lon="-17.8304930">
        <ele>1160.1</ele>
        <time>2020-11-17T12:03:06Z</time>
      </trkpt>
      <trkpt lat="28.5306520" lon="-17.8304870">
        <ele>1160.3</ele>
        <time>2020-11-17T12:03:07Z</time>
      </trkpt>
      <trkpt lat="28.5306520" lon="-17.8304870">
        <ele>1160.3</ele>
        <time>2020-11-17T12:03:08Z</time>
      </trkpt>
      <trkpt lat="28.5307020" lon="-17.8304900">
        <ele>1160.7</ele>
        <time>2020-11-17T12:03:09Z</time>
      </trkpt>
      <trkpt lat="28.5307020" lon="-17.8304900">
        <ele>1160.7</ele>
        <time>2020-11-17T12:03:10Z</time>
      </trkpt>
      <trkpt lat="28.5307500" lon="-17.8304970">
        <ele>1161.2</ele>
        <time>2020-11-17T12:03:11Z</time>
      </trkpt>
      <trkpt lat="28.5307500" lon="-17.8304970">
        <ele>1161.2</ele>
        <time>2020-11-17T12:03:12Z</time>
      </trkpt>
      <trkpt lat="28.5307830" lon="-17.8304980">
        <ele>1161.4</ele>
        <time>2020-11-17T12:03:13Z</time>
      </trkpt>
      <trkpt lat="28.5307830" lon="-17.8304980">
        <ele>1161.4</ele>
        <time>2020-11-17T12:03:14Z</time>
      </trkpt>
      <trkpt lat="28.5308170" lon="-17.8304920">
        <ele>1161.7</ele>
        <time>2020-11-17T12:03:15Z</time>
      </trkpt>
      <trkpt lat="28.5308350" lon="-17.8304870">
        <ele>1161.9</ele>
        <time>2020-11-17T12:03:16Z</time>
      </trkpt>
      <trkpt lat="28.5308350" lon="-17.8304870">
        <ele>1161.9</ele>
        <time>2020-11-17T12:03:17Z</time>
      </trkpt>
      <trkpt lat="28.5308620" lon="-17.8304630">
        <ele>1162.1</ele>
        <time>2020-11-17T12:03:18Z</time>
      </trkpt>
      <trkpt lat="28.5308620" lon="-17.8304630">
        <ele>1162.1</ele>
        <time>2020-11-17T12:03:19Z</time>
      </trkpt>
      <trkpt lat="28.5308950" lon="-17.8304400">
        <ele>1162.5</ele>
        <time>2020-11-17T12:03:20Z</time>
      </trkpt>
      <trkpt lat="28.5308950" lon="-17.8304400">
        <ele>1162.5</ele>
        <time>2020-11-17T12:03:21Z</time>
      </trkpt>
      <trkpt lat="28.5309370" lon="-17.8304200">
        <ele>1162.8</ele>
        <time>2020-11-17T12:03:22Z</time>
      </trkpt>
      <trkpt lat="28.5309370" lon="-17.8304200">
        <ele>1162.8</ele>
        <time>2020-11-17T12:03:23Z</time>
      </trkpt>
      <trkpt lat="28.5309780" lon="-17.8304030">
        <ele>1163.2</ele>
        <time>2020-11-17T12:03:24Z</time>
      </trkpt>
      <trkpt lat="28.5309780" lon="-17.8304030">
        <ele>1163.2</ele>
        <time>2020-11-17T12:03:25Z</time>
      </trkpt>
      <trkpt lat="28.5310200" lon="-17.8303820">
        <ele>1163.6</ele>
        <time>2020-11-17T12:03:26Z</time>
      </trkpt>
      <trkpt lat="28.5310400" lon="-17.8303700">
        <ele>1163.8</ele>
        <time>2020-11-17T12:03:27Z</time>
      </trkpt>
      <trkpt lat="28.5310400" lon="-17.8303700">
        <ele>1163.8</ele>
        <time>2020-11-17T12:03:28Z</time>
      </trkpt>
      <trkpt lat="28.5310920" lon="-17.8303300">
        <ele>1164.4</ele>
        <time>2020-11-17T12:03:29Z</time>
      </trkpt>
      <trkpt lat="28.5310920" lon="-17.8303300">
        <ele>1164.4</ele>
        <time>2020-11-17T12:03:30Z</time>
      </trkpt>
      <trkpt lat="28.5311320" lon="-17.8303050">
        <ele>1164.8</ele>
        <time>2020-11-17T12:03:31Z</time>
      </trkpt>
      <trkpt lat="28.5311320" lon="-17.8303050">
        <ele>1164.8</ele>
        <time>2020-11-17T12:03:32Z</time>
      </trkpt>
      <trkpt lat="28.5311620" lon="-17.8302930">
        <ele>1165.1</ele>
        <time>2020-11-17T12:03:33Z</time>
      </trkpt>
      <trkpt lat="28.5311720" lon="-17.8302830">
        <ele>1165.3</ele>
        <time>2020-11-17T12:03:34Z</time>
      </trkpt>
      <trkpt lat="28.5311880" lon="-17.8302680">
        <ele>1165.5</ele>
        <time>2020-11-17T12:03:35Z</time>
      </trkpt>
      <trkpt lat="28.5312050" lon="-17.8302570">
        <ele>1165.6</ele>
        <time>2020-11-17T12:03:36Z</time>
      </trkpt>
      <trkpt lat="28.5312050" lon="-17.8302570">
        <ele>1165.6</ele>
        <time>2020-11-17T12:03:37Z</time>
      </trkpt>
      <trkpt lat="28.5312400" lon="-17.8302350">
        <ele>1166.0</ele>
        <time>2020-11-17T12:03:38Z</time>
      </trkpt>
      <trkpt lat="28.5312550" lon="-17.8302180">
        <ele>1166.2</ele>
        <time>2020-11-17T12:03:39Z</time>
      </trkpt>
      <trkpt lat="28.5312550" lon="-17.8302180">
        <ele>1166.2</ele>
        <time>2020-11-17T12:03:40Z</time>
      </trkpt>
      <trkpt lat="28.5312830" lon="-17.8301870">
        <ele>1166.5</ele>
        <time>2020-11-17T12:03:41Z</time>
      </trkpt>
      <trkpt lat="28.5312830" lon="-17.8301870">
        <ele>1166.5</ele>
        <time>2020-11-17T12:03:42Z</time>
      </trkpt>
      <trkpt lat="28.5313170" lon="-17.8301600">
        <ele>1166.9</ele>
        <time>2020-11-17T12:03:43Z</time>
      </trkpt>
      <trkpt lat="28.5313170" lon="-17.8301600">
        <ele>1166.9</ele>
        <time>2020-11-17T12:03:44Z</time>
      </trkpt>
      <trkpt lat="28.5313430" lon="-17.8301330">
        <ele>1167.1</ele>
        <time>2020-11-17T12:03:45Z</time>
      </trkpt>
      <trkpt lat="28.5313430" lon="-17.8301330">
        <ele>1167.1</ele>
        <time>2020-11-17T12:03:46Z</time>
      </trkpt>
      <trkpt lat="28.5313720" lon="-17.8301080">
        <ele>1167.3</ele>
        <time>2020-11-17T12:03:47Z</time>
      </trkpt>
      <trkpt lat="28.5313830" lon="-17.8300920">
        <ele>1167.4</ele>
        <time>2020-11-17T12:03:48Z</time>
      </trkpt>
      <trkpt lat="28.5313830" lon="-17.8300920">
        <ele>1167.4</ele>
        <time>2020-11-17T12:03:49Z</time>
      </trkpt>
      <trkpt lat="28.5314080" lon="-17.8300620">
        <ele>1167.5</ele>
        <time>2020-11-17T12:03:50Z</time>
      </trkpt>
      <trkpt lat="28.5314080" lon="-17.8300620">
        <ele>1167.5</ele>
        <time>2020-11-17T12:03:51Z</time>
      </trkpt>
      <trkpt lat="28.5314400" lon="-17.8300350">
        <ele>1167.7</ele>
        <time>2020-11-17T12:03:52Z</time>
      </trkpt>
      <trkpt lat="28.5314570" lon="-17.8300220">
        <ele>1167.7</ele>
        <time>2020-11-17T12:03:53Z</time>
      </trkpt>
      <trkpt lat="28.5314700" lon="-17.8300100">
        <ele>1167.8</ele>
        <time>2020-11-17T12:03:54Z</time>
      </trkpt>
      <trkpt lat="28.5314700" lon="-17.8300100">
        <ele>1167.8</ele>
        <time>2020-11-17T12:03:55Z</time>
      </trkpt>
      <trkpt lat="28.5315000" lon="-17.8299930">
        <ele>1167.9</ele>
        <time>2020-11-17T12:03:56Z</time>
      </trkpt>
      <trkpt lat="28.5315000" lon="-17.8299930">
        <ele>1167.9</ele>
        <time>2020-11-17T12:03:57Z</time>
      </trkpt>
      <trkpt lat="28.5315380" lon="-17.8299770">
        <ele>1168.0</ele>
        <time>2020-11-17T12:03:58Z</time>
      </trkpt>
      <trkpt lat="28.5315380" lon="-17.8299770">
        <ele>1168.0</ele>
        <time>2020-11-17T12:03:59Z</time>
      </trkpt>
      <trkpt lat="28.5315670" lon="-17.8299520">
        <ele>1168.1</ele>
        <time>2020-11-17T12:04:00Z</time>
      </trkpt>
      <trkpt lat="28.5315670" lon="-17.8299520">
        <ele>1168.1</ele>
        <time>2020-11-17T12:04:01Z</time>
      </trkpt>
      <trkpt lat="28.5315930" lon="-17.8299180">
        <ele>1168.3</ele>
        <time>2020-11-17T12:04:02Z</time>
      </trkpt>
      <trkpt lat="28.5316050" lon="-17.8299050">
        <ele>1168.3</ele>
        <time>2020-11-17T12:04:03Z</time>
      </trkpt>
      <trkpt lat="28.5316050" lon="-17.8299050">
        <ele>1168.3</ele>
        <time>2020-11-17T12:04:04Z</time>
      </trkpt>
      <trkpt lat="28.5316280" lon="-17.8298750">
        <ele>1168.5</ele>
        <time>2020-11-17T12:04:05Z</time>
      </trkpt>
      <trkpt lat="28.5316280" lon="-17.8298750">
        <ele>1168.5</ele>
        <time>2020-11-17T12:04:06Z</time>
      </trkpt>
      <trkpt lat="28.5316480" lon="-17.8298400">
        <ele>1168.6</ele>
        <time>2020-11-17T12:04:07Z</time>
      </trkpt>
      <trkpt lat="28.5316600" lon="-17.8298220">
        <ele>1168.7</ele>
        <time>2020-11-17T12:04:08Z</time>
      </trkpt>
      <trkpt lat="28.5316600" lon="-17.8298220">
        <ele>1168.7</ele>
        <time>2020-11-17T12:04:09Z</time>
      </trkpt>
      <trkpt lat="28.5316850" lon="-17.8297930">
        <ele>1168.9</ele>
        <time>2020-11-17T12:04:10Z</time>
      </trkpt>
      <trkpt lat="28.5316850" lon="-17.8297930">
        <ele>1168.9</ele>
        <time>2020-11-17T12:04:11Z</time>
      </trkpt>
      <trkpt lat="28.5317080" lon="-17.8297570">
        <ele>1169.1</ele>
        <time>2020-11-17T12:04:12Z</time>
      </trkpt>
      <trkpt lat="28.5317080" lon="-17.8297570">
        <ele>1169.1</ele>
        <time>2020-11-17T12:04:13Z</time>
      </trkpt>
      <trkpt lat="28.5317320" lon="-17.8297170">
        <ele>1169.3</ele>
        <time>2020-11-17T12:04:14Z</time>
      </trkpt>
      <trkpt lat="28.5317320" lon="-17.8297170">
        <ele>1169.3</ele>
        <time>2020-11-17T12:04:15Z</time>
      </trkpt>
      <trkpt lat="28.5317420" lon="-17.8296730">
        <ele>1169.5</ele>
        <time>2020-11-17T12:04:16Z</time>
      </trkpt>
      <trkpt lat="28.5317420" lon="-17.8296730">
        <ele>1169.5</ele>
        <time>2020-11-17T12:04:17Z</time>
      </trkpt>
      <trkpt lat="28.5317670" lon="-17.8296300">
        <ele>1169.7</ele>
        <time>2020-11-17T12:04:18Z</time>
      </trkpt>
      <trkpt lat="28.5317820" lon="-17.8296080">
        <ele>1169.8</ele>
        <time>2020-11-17T12:04:19Z</time>
      </trkpt>
      <trkpt lat="28.5317820" lon="-17.8296080">
        <ele>1169.8</ele>
        <time>2020-11-17T12:04:20Z</time>
      </trkpt>
      <trkpt lat="28.5318080" lon="-17.8295650">
        <ele>1170.1</ele>
        <time>2020-11-17T12:04:21Z</time>
      </trkpt>
      <trkpt lat="28.5318080" lon="-17.8295650">
        <ele>1170.1</ele>
        <time>2020-11-17T12:04:22Z</time>
      </trkpt>
      <trkpt lat="28.5318420" lon="-17.8295350">
        <ele>1170.4</ele>
        <time>2020-11-17T12:04:23Z</time>
      </trkpt>
      <trkpt lat="28.5318570" lon="-17.8295180">
        <ele>1170.5</ele>
        <time>2020-11-17T12:04:24Z</time>
      </trkpt>
      <trkpt lat="28.5318570" lon="-17.8295180">
        <ele>1170.5</ele>
        <time>2020-11-17T12:04:25Z</time>
      </trkpt>
      <trkpt lat="28.5318850" lon="-17.8294820">
        <ele>1170.8</ele>
        <time>2020-11-17T12:04:26Z</time>
      </trkpt>
      <trkpt lat="28.5318850" lon="-17.8294820">
        <ele>1170.8</ele>
        <time>2020-11-17T12:04:27Z</time>
      </trkpt>
      <trkpt lat="28.5319050" lon="-17.8294480">
        <ele>1171.1</ele>
        <time>2020-11-17T12:04:28Z</time>
      </trkpt>
      <trkpt lat="28.5319180" lon="-17.8294350">
        <ele>1171.3</ele>
        <time>2020-11-17T12:04:29Z</time>
      </trkpt>
      <trkpt lat="28.5319280" lon="-17.8294050">
        <ele>1171.5</ele>
        <time>2020-11-17T12:04:30Z</time>
      </trkpt>
      <trkpt lat="28.5319280" lon="-17.8294050">
        <ele>1171.5</ele>
        <time>2020-11-17T12:04:31Z</time>
      </trkpt>
      <trkpt lat="28.5319480" lon="-17.8293680">
        <ele>1171.8</ele>
        <time>2020-11-17T12:04:32Z</time>
      </trkpt>
      <trkpt lat="28.5319480" lon="-17.8293680">
        <ele>1171.8</ele>
        <time>2020-11-17T12:04:33Z</time>
      </trkpt>
      <trkpt lat="28.5319780" lon="-17.8293480">
        <ele>1172.1</ele>
        <time>2020-11-17T12:04:34Z</time>
      </trkpt>
      <trkpt lat="28.5319930" lon="-17.8293380">
        <ele>1172.2</ele>
        <time>2020-11-17T12:04:35Z</time>
      </trkpt>
      <trkpt lat="28.5320080" lon="-17.8293300">
        <ele>1172.4</ele>
        <time>2020-11-17T12:04:36Z</time>
      </trkpt>
      <trkpt lat="28.5320080" lon="-17.8293300">
        <ele>1172.4</ele>
        <time>2020-11-17T12:04:37Z</time>
      </trkpt>
      <trkpt lat="28.5320350" lon="-17.8293270">
        <ele>1172.6</ele>
        <time>2020-11-17T12:04:38Z</time>
      </trkpt>
      <trkpt lat="28.5320350" lon="-17.8293270">
        <ele>1172.6</ele>
        <time>2020-11-17T12:04:39Z</time>
      </trkpt>
      <trkpt lat="28.5320720" lon="-17.8293330">
        <ele>1172.9</ele>
        <time>2020-11-17T12:04:40Z</time>
      </trkpt>
      <trkpt lat="28.5320930" lon="-17.8293430">
        <ele>1173.1</ele>
        <time>2020-11-17T12:04:41Z</time>
      </trkpt>
      <trkpt lat="28.5320930" lon="-17.8293430">
        <ele>1173.1</ele>
        <time>2020-11-17T12:04:42Z</time>
      </trkpt>
      <trkpt lat="28.5321150" lon="-17.8293500">
        <ele>1173.3</ele>
        <time>2020-11-17T12:04:43Z</time>
      </trkpt>
      <trkpt lat="28.5321180" lon="-17.8293530">
        <ele>1173.3</ele>
        <time>2020-11-17T12:04:44Z</time>
      </trkpt>
      <trkpt lat="28.5321180" lon="-17.8293530">
        <ele>1173.3</ele>
        <time>2020-11-17T12:04:45Z</time>
      </trkpt>
      <trkpt lat="28.5321220" lon="-17.8293550">
        <ele>1173.4</ele>
        <time>2020-11-17T12:04:46Z</time>
      </trkpt>
      <trkpt lat="28.5321220" lon="-17.8293550">
        <ele>1173.4</ele>
        <time>2020-11-17T12:04:47Z</time>
      </trkpt>
      <trkpt lat="28.5321220" lon="-17.8293550">
        <ele>1173.4</ele>
        <time>2020-11-17T12:04:48Z</time>
      </trkpt>
      <trkpt lat="28.5321400" lon="-17.8293700">
        <ele>1173.5</ele>
        <time>2020-11-17T12:04:50Z</time>
      </trkpt>
      <trkpt lat="28.5321400" lon="-17.8293700">
        <ele>1173.5</ele>
        <time>2020-11-17T12:04:51Z</time>
      </trkpt>
      <trkpt lat="28.5321630" lon="-17.8293730">
        <ele>1173.7</ele>
        <time>2020-11-17T12:04:52Z</time>
      </trkpt>
      <trkpt lat="28.5321630" lon="-17.8293730">
        <ele>1173.7</ele>
        <time>2020-11-17T12:04:53Z</time>
      </trkpt>
      <trkpt lat="28.5321900" lon="-17.8293720">
        <ele>1173.9</ele>
        <time>2020-11-17T12:04:54Z</time>
      </trkpt>
      <trkpt lat="28.5321900" lon="-17.8293720">
        <ele>1173.9</ele>
        <time>2020-11-17T12:04:55Z</time>
      </trkpt>
      <trkpt lat="28.5322130" lon="-17.8293530">
        <ele>1174.0</ele>
        <time>2020-11-17T12:04:56Z</time>
      </trkpt>
      <trkpt lat="28.5322130" lon="-17.8293530">
        <ele>1174.0</ele>
        <time>2020-11-17T12:04:57Z</time>
      </trkpt>
      <trkpt lat="28.5322370" lon="-17.8293230">
        <ele>1174.2</ele>
        <time>2020-11-17T12:04:58Z</time>
      </trkpt>
      <trkpt lat="28.5322370" lon="-17.8293230">
        <ele>1174.2</ele>
        <time>2020-11-17T12:04:59Z</time>
      </trkpt>
      <trkpt lat="28.5322530" lon="-17.8292820">
        <ele>1174.4</ele>
        <time>2020-11-17T12:05:00Z</time>
      </trkpt>
      <trkpt lat="28.5322530" lon="-17.8292820">
        <ele>1174.4</ele>
        <time>2020-11-17T12:05:01Z</time>
      </trkpt>
      <trkpt lat="28.5322820" lon="-17.8292470">
        <ele>1174.6</ele>
        <time>2020-11-17T12:05:02Z</time>
      </trkpt>
      <trkpt lat="28.5322930" lon="-17.8292280">
        <ele>1174.7</ele>
        <time>2020-11-17T12:05:03Z</time>
      </trkpt>
      <trkpt lat="28.5322930" lon="-17.8292280">
        <ele>1174.7</ele>
        <time>2020-11-17T12:05:04Z</time>
      </trkpt>
      <trkpt lat="28.5323220" lon="-17.8291970">
        <ele>1174.8</ele>
        <time>2020-11-17T12:05:05Z</time>
      </trkpt>
      <trkpt lat="28.5323430" lon="-17.8291900">
        <ele>1174.9</ele>
        <time>2020-11-17T12:05:06Z</time>
      </trkpt>
      <trkpt lat="28.5323430" lon="-17.8291900">
        <ele>1174.9</ele>
        <time>2020-11-17T12:05:07Z</time>
      </trkpt>
      <trkpt lat="28.5323870" lon="-17.8291920">
        <ele>1175.1</ele>
        <time>2020-11-17T12:05:08Z</time>
      </trkpt>
      <trkpt lat="28.5323870" lon="-17.8291920">
        <ele>1175.1</ele>
        <time>2020-11-17T12:05:09Z</time>
      </trkpt>
      <trkpt lat="28.5324320" lon="-17.8292030">
        <ele>1175.3</ele>
        <time>2020-11-17T12:05:10Z</time>
      </trkpt>
      <trkpt lat="28.5324320" lon="-17.8292030">
        <ele>1175.3</ele>
        <time>2020-11-17T12:05:11Z</time>
      </trkpt>
      <trkpt lat="28.5324730" lon="-17.8292170">
        <ele>1175.4</ele>
        <time>2020-11-17T12:05:12Z</time>
      </trkpt>
      <trkpt lat="28.5324730" lon="-17.8292170">
        <ele>1175.4</ele>
        <time>2020-11-17T12:05:13Z</time>
      </trkpt>
      <trkpt lat="28.5325050" lon="-17.8292250">
        <ele>1175.5</ele>
        <time>2020-11-17T12:05:14Z</time>
      </trkpt>
      <trkpt lat="28.5325200" lon="-17.8292300">
        <ele>1175.6</ele>
        <time>2020-11-17T12:05:15Z</time>
      </trkpt>
      <trkpt lat="28.5325200" lon="-17.8292300">
        <ele>1175.6</ele>
        <time>2020-11-17T12:05:16Z</time>
      </trkpt>
      <trkpt lat="28.5325550" lon="-17.8292400">
        <ele>1175.7</ele>
        <time>2020-11-17T12:05:17Z</time>
      </trkpt>
      <trkpt lat="28.5325670" lon="-17.8292430">
        <ele>1175.8</ele>
        <time>2020-11-17T12:05:18Z</time>
      </trkpt>
      <trkpt lat="28.5325670" lon="-17.8292430">
        <ele>1175.8</ele>
        <time>2020-11-17T12:05:19Z</time>
      </trkpt>
      <trkpt lat="28.5326000" lon="-17.8292520">
        <ele>1175.9</ele>
        <time>2020-11-17T12:05:20Z</time>
      </trkpt>
      <trkpt lat="28.5326000" lon="-17.8292520">
        <ele>1175.9</ele>
        <time>2020-11-17T12:05:21Z</time>
      </trkpt>
      <trkpt lat="28.5326320" lon="-17.8292620">
        <ele>1176.0</ele>
        <time>2020-11-17T12:05:22Z</time>
      </trkpt>
      <trkpt lat="28.5326500" lon="-17.8292680">
        <ele>1176.1</ele>
        <time>2020-11-17T12:05:23Z</time>
      </trkpt>
      <trkpt lat="28.5326670" lon="-17.8292730">
        <ele>1176.2</ele>
        <time>2020-11-17T12:05:24Z</time>
      </trkpt>
      <trkpt lat="28.5326670" lon="-17.8292730">
        <ele>1176.2</ele>
        <time>2020-11-17T12:05:25Z</time>
      </trkpt>
      <trkpt lat="28.5326980" lon="-17.8292870">
        <ele>1176.3</ele>
        <time>2020-11-17T12:05:26Z</time>
      </trkpt>
      <trkpt lat="28.5326980" lon="-17.8292870">
        <ele>1176.3</ele>
        <time>2020-11-17T12:05:27Z</time>
      </trkpt>
      <trkpt lat="28.5327270" lon="-17.8293120">
        <ele>1176.5</ele>
        <time>2020-11-17T12:05:28Z</time>
      </trkpt>
      <trkpt lat="28.5327270" lon="-17.8293120">
        <ele>1176.5</ele>
        <time>2020-11-17T12:05:29Z</time>
      </trkpt>
      <trkpt lat="28.5327580" lon="-17.8293370">
        <ele>1176.7</ele>
        <time>2020-11-17T12:05:30Z</time>
      </trkpt>
      <trkpt lat="28.5327580" lon="-17.8293370">
        <ele>1176.7</ele>
        <time>2020-11-17T12:05:31Z</time>
      </trkpt>
      <trkpt lat="28.5327880" lon="-17.8293620">
        <ele>1176.9</ele>
        <time>2020-11-17T12:05:32Z</time>
      </trkpt>
      <trkpt lat="28.5328030" lon="-17.8293700">
        <ele>1177.0</ele>
        <time>2020-11-17T12:05:33Z</time>
      </trkpt>
      <trkpt lat="28.5328030" lon="-17.8293700">
        <ele>1177.0</ele>
        <time>2020-11-17T12:05:34Z</time>
      </trkpt>
      <trkpt lat="28.5328180" lon="-17.8293970">
        <ele>1177.1</ele>
        <time>2020-11-17T12:05:35Z</time>
      </trkpt>
      <trkpt lat="28.5328280" lon="-17.8294100">
        <ele>1177.2</ele>
        <time>2020-11-17T12:05:36Z</time>
      </trkpt>
      <trkpt lat="28.5328280" lon="-17.8294100">
        <ele>1177.2</ele>
        <time>2020-11-17T12:05:37Z</time>
      </trkpt>
      <trkpt lat="28.5328500" lon="-17.8294280">
        <ele>1177.3</ele>
        <time>2020-11-17T12:05:38Z</time>
      </trkpt>
      <trkpt lat="28.5328500" lon="-17.8294280">
        <ele>1177.3</ele>
        <time>2020-11-17T12:05:39Z</time>
      </trkpt>
      <trkpt lat="28.5328750" lon="-17.8294420">
        <ele>1177.5</ele>
        <time>2020-11-17T12:05:40Z</time>
      </trkpt>
      <trkpt lat="28.5328920" lon="-17.8294550">
        <ele>1177.6</ele>
        <time>2020-11-17T12:05:41Z</time>
      </trkpt>
      <trkpt lat="28.5329050" lon="-17.8294700">
        <ele>1177.8</ele>
        <time>2020-11-17T12:05:42Z</time>
      </trkpt>
      <trkpt lat="28.5329050" lon="-17.8294700">
        <ele>1177.8</ele>
        <time>2020-11-17T12:05:43Z</time>
      </trkpt>
      <trkpt lat="28.5329300" lon="-17.8294980">
        <ele>1178.0</ele>
        <time>2020-11-17T12:05:44Z</time>
      </trkpt>
      <trkpt lat="28.5329300" lon="-17.8294980">
        <ele>1178.0</ele>
        <time>2020-11-17T12:05:45Z</time>
      </trkpt>
      <trkpt lat="28.5329550" lon="-17.8295300">
        <ele>1178.2</ele>
        <time>2020-11-17T12:05:46Z</time>
      </trkpt>
      <trkpt lat="28.5329550" lon="-17.8295300">
        <ele>1178.2</ele>
        <time>2020-11-17T12:05:47Z</time>
      </trkpt>
      <trkpt lat="28.5329820" lon="-17.8295580">
        <ele>1178.4</ele>
        <time>2020-11-17T12:05:48Z</time>
      </trkpt>
      <trkpt lat="28.5329820" lon="-17.8295580">
        <ele>1178.4</ele>
        <time>2020-11-17T12:05:49Z</time>
      </trkpt>
      <trkpt lat="28.5330100" lon="-17.8295920">
        <ele>1178.7</ele>
        <time>2020-11-17T12:05:50Z</time>
      </trkpt>
      <trkpt lat="28.5330230" lon="-17.8296080">
        <ele>1178.8</ele>
        <time>2020-11-17T12:05:51Z</time>
      </trkpt>
      <trkpt lat="28.5330230" lon="-17.8296080">
        <ele>1178.8</ele>
        <time>2020-11-17T12:05:52Z</time>
      </trkpt>
      <trkpt lat="28.5330480" lon="-17.8296420">
        <ele>1179.1</ele>
        <time>2020-11-17T12:05:53Z</time>
      </trkpt>
      <trkpt lat="28.5330600" lon="-17.8296550">
        <ele>1179.3</ele>
        <time>2020-11-17T12:05:54Z</time>
      </trkpt>
      <trkpt lat="28.5330600" lon="-17.8296550">
        <ele>1179.3</ele>
        <time>2020-11-17T12:05:55Z</time>
      </trkpt>
      <trkpt lat="28.5330900" lon="-17.8296820">
        <ele>1179.5</ele>
        <time>2020-11-17T12:05:56Z</time>
      </trkpt>
      <trkpt lat="28.5331030" lon="-17.8296950">
        <ele>1179.7</ele>
        <time>2020-11-17T12:05:57Z</time>
      </trkpt>
      <trkpt lat="28.5331200" lon="-17.8297050">
        <ele>1179.8</ele>
        <time>2020-11-17T12:05:58Z</time>
      </trkpt>
      <trkpt lat="28.5331200" lon="-17.8297050">
        <ele>1179.8</ele>
        <time>2020-11-17T12:05:59Z</time>
      </trkpt>
      <trkpt lat="28.5331550" lon="-17.8297200">
        <ele>1180.1</ele>
        <time>2020-11-17T12:06:00Z</time>
      </trkpt>
      <trkpt lat="28.5331550" lon="-17.8297200">
        <ele>1180.1</ele>
        <time>2020-11-17T12:06:01Z</time>
      </trkpt>
      <trkpt lat="28.5331920" lon="-17.8297280">
        <ele>1180.4</ele>
        <time>2020-11-17T12:06:02Z</time>
      </trkpt>
      <trkpt lat="28.5332080" lon="-17.8297280">
        <ele>1180.6</ele>
        <time>2020-11-17T12:06:03Z</time>
      </trkpt>
      <trkpt lat="28.5332080" lon="-17.8297280">
        <ele>1180.6</ele>
        <time>2020-11-17T12:06:04Z</time>
      </trkpt>
      <trkpt lat="28.5332420" lon="-17.8297350">
        <ele>1180.8</ele>
        <time>2020-11-17T12:06:05Z</time>
      </trkpt>
      <trkpt lat="28.5332420" lon="-17.8297350">
        <ele>1180.8</ele>
        <time>2020-11-17T12:06:06Z</time>
      </trkpt>
      <trkpt lat="28.5332580" lon="-17.8297220">
        <ele>1180.9</ele>
        <time>2020-11-17T12:06:07Z</time>
      </trkpt>
      <trkpt lat="28.5332670" lon="-17.8297180">
        <ele>1181.0</ele>
        <time>2020-11-17T12:06:08Z</time>
      </trkpt>
      <trkpt lat="28.5332670" lon="-17.8297180">
        <ele>1181.0</ele>
        <time>2020-11-17T12:06:09Z</time>
      </trkpt>
      <trkpt lat="28.5332950" lon="-17.8297150">
        <ele>1181.2</ele>
        <time>2020-11-17T12:06:10Z</time>
      </trkpt>
      <trkpt lat="28.5332950" lon="-17.8297150">
        <ele>1181.2</ele>
        <time>2020-11-17T12:06:11Z</time>
      </trkpt>
      <trkpt lat="28.5333220" lon="-17.8297280">
        <ele>1181.4</ele>
        <time>2020-11-17T12:06:12Z</time>
      </trkpt>
      <trkpt lat="28.5333220" lon="-17.8297280">
        <ele>1181.4</ele>
        <time>2020-11-17T12:06:13Z</time>
      </trkpt>
      <trkpt lat="28.5333500" lon="-17.8297520">
        <ele>1181.6</ele>
        <time>2020-11-17T12:06:14Z</time>
      </trkpt>
      <trkpt lat="28.5333500" lon="-17.8297520">
        <ele>1181.6</ele>
        <time>2020-11-17T12:06:15Z</time>
      </trkpt>
      <trkpt lat="28.5333870" lon="-17.8297720">
        <ele>1181.8</ele>
        <time>2020-11-17T12:06:16Z</time>
      </trkpt>
      <trkpt lat="28.5333870" lon="-17.8297720">
        <ele>1181.8</ele>
        <time>2020-11-17T12:06:17Z</time>
      </trkpt>
      <trkpt lat="28.5334150" lon="-17.8297980">
        <ele>1181.9</ele>
        <time>2020-11-17T12:06:18Z</time>
      </trkpt>
      <trkpt lat="28.5334150" lon="-17.8297980">
        <ele>1181.9</ele>
        <time>2020-11-17T12:06:19Z</time>
      </trkpt>
      <trkpt lat="28.5334380" lon="-17.8298370">
        <ele>1182.1</ele>
        <time>2020-11-17T12:06:20Z</time>
      </trkpt>
      <trkpt lat="28.5334380" lon="-17.8298370">
        <ele>1182.1</ele>
        <time>2020-11-17T12:06:21Z</time>
      </trkpt>
      <trkpt lat="28.5334630" lon="-17.8298750">
        <ele>1182.3</ele>
        <time>2020-11-17T12:06:22Z</time>
      </trkpt>
      <trkpt lat="28.5334750" lon="-17.8298920">
        <ele>1182.4</ele>
        <time>2020-11-17T12:06:23Z</time>
      </trkpt>
      <trkpt lat="28.5334750" lon="-17.8298920">
        <ele>1182.4</ele>
        <time>2020-11-17T12:06:24Z</time>
      </trkpt>
      <trkpt lat="28.5334970" lon="-17.8299230">
        <ele>1182.6</ele>
        <time>2020-11-17T12:06:25Z</time>
      </trkpt>
      <trkpt lat="28.5334970" lon="-17.8299230">
        <ele>1182.6</ele>
        <time>2020-11-17T12:06:26Z</time>
      </trkpt>
      <trkpt lat="28.5335150" lon="-17.8299530">
        <ele>1182.8</ele>
        <time>2020-11-17T12:06:27Z</time>
      </trkpt>
      <trkpt lat="28.5335150" lon="-17.8299530">
        <ele>1182.8</ele>
        <time>2020-11-17T12:06:28Z</time>
      </trkpt>
      <trkpt lat="28.5335370" lon="-17.8299850">
        <ele>1182.9</ele>
        <time>2020-11-17T12:06:29Z</time>
      </trkpt>
      <trkpt lat="28.5335480" lon="-17.8299980">
        <ele>1183.0</ele>
        <time>2020-11-17T12:06:30Z</time>
      </trkpt>
      <trkpt lat="28.5335480" lon="-17.8299980">
        <ele>1183.0</ele>
        <time>2020-11-17T12:06:31Z</time>
      </trkpt>
      <trkpt lat="28.5335700" lon="-17.8300320">
        <ele>1183.2</ele>
        <time>2020-11-17T12:06:32Z</time>
      </trkpt>
      <trkpt lat="28.5335700" lon="-17.8300320">
        <ele>1183.2</ele>
        <time>2020-11-17T12:06:33Z</time>
      </trkpt>
      <trkpt lat="28.5335870" lon="-17.8300670">
        <ele>1183.4</ele>
        <time>2020-11-17T12:06:34Z</time>
      </trkpt>
      <trkpt lat="28.5335870" lon="-17.8300670">
        <ele>1183.4</ele>
        <time>2020-11-17T12:06:35Z</time>
      </trkpt>
      <trkpt lat="28.5336050" lon="-17.8301030">
        <ele>1183.6</ele>
        <time>2020-11-17T12:06:36Z</time>
      </trkpt>
      <trkpt lat="28.5336050" lon="-17.8301030">
        <ele>1183.6</ele>
        <time>2020-11-17T12:06:37Z</time>
      </trkpt>
      <trkpt lat="28.5336230" lon="-17.8301330">
        <ele>1183.7</ele>
        <time>2020-11-17T12:06:38Z</time>
      </trkpt>
      <trkpt lat="28.5336230" lon="-17.8301330">
        <ele>1183.7</ele>
        <time>2020-11-17T12:06:39Z</time>
      </trkpt>
      <trkpt lat="28.5336430" lon="-17.8301580">
        <ele>1183.9</ele>
        <time>2020-11-17T12:06:40Z</time>
      </trkpt>
      <trkpt lat="28.5336430" lon="-17.8301580">
        <ele>1183.9</ele>
        <time>2020-11-17T12:06:41Z</time>
      </trkpt>
      <trkpt lat="28.5336630" lon="-17.8301900">
        <ele>1184.0</ele>
        <time>2020-11-17T12:06:42Z</time>
      </trkpt>
      <trkpt lat="28.5336630" lon="-17.8301900">
        <ele>1184.0</ele>
        <time>2020-11-17T12:06:43Z</time>
      </trkpt>
      <trkpt lat="28.5336870" lon="-17.8302200">
        <ele>1184.2</ele>
        <time>2020-11-17T12:06:44Z</time>
      </trkpt>
      <trkpt lat="28.5336870" lon="-17.8302200">
        <ele>1184.2</ele>
        <time>2020-11-17T12:06:45Z</time>
      </trkpt>
      <trkpt lat="28.5337020" lon="-17.8302570">
        <ele>1184.3</ele>
        <time>2020-11-17T12:06:46Z</time>
      </trkpt>
      <trkpt lat="28.5337100" lon="-17.8302730">
        <ele>1184.4</ele>
        <time>2020-11-17T12:06:47Z</time>
      </trkpt>
      <trkpt lat="28.5337170" lon="-17.8302850">
        <ele>1184.5</ele>
        <time>2020-11-17T12:06:48Z</time>
      </trkpt>
      <trkpt lat="28.5337170" lon="-17.8302850">
        <ele>1184.5</ele>
        <time>2020-11-17T12:06:49Z</time>
      </trkpt>
      <trkpt lat="28.5337170" lon="-17.8302980">
        <ele>1184.5</ele>
        <time>2020-11-17T12:06:50Z</time>
      </trkpt>
      <trkpt lat="28.5337170" lon="-17.8302980">
        <ele>1184.5</ele>
        <time>2020-11-17T12:06:51Z</time>
      </trkpt>
      <trkpt lat="28.5337170" lon="-17.8303180">
        <ele>1184.6</ele>
        <time>2020-11-17T12:06:52Z</time>
      </trkpt>
      <trkpt lat="28.5337170" lon="-17.8303180">
        <ele>1184.6</ele>
        <time>2020-11-17T12:06:53Z</time>
      </trkpt>
      <trkpt lat="28.5337230" lon="-17.8303500">
        <ele>1184.7</ele>
        <time>2020-11-17T12:06:54Z</time>
      </trkpt>
      <trkpt lat="28.5337230" lon="-17.8303500">
        <ele>1184.7</ele>
        <time>2020-11-17T12:06:55Z</time>
      </trkpt>
      <trkpt lat="28.5337350" lon="-17.8303780">
        <ele>1184.8</ele>
        <time>2020-11-17T12:06:56Z</time>
      </trkpt>
      <trkpt lat="28.5337450" lon="-17.8303970">
        <ele>1184.9</ele>
        <time>2020-11-17T12:06:57Z</time>
      </trkpt>
      <trkpt lat="28.5337450" lon="-17.8303970">
        <ele>1184.9</ele>
        <time>2020-11-17T12:06:58Z</time>
      </trkpt>
      <trkpt lat="28.5337650" lon="-17.8304380">
        <ele>1185.2</ele>
        <time>2020-11-17T12:06:59Z</time>
      </trkpt>
      <trkpt lat="28.5337750" lon="-17.8304580">
        <ele>1185.3</ele>
        <time>2020-11-17T12:07:00Z</time>
      </trkpt>
      <trkpt lat="28.5337750" lon="-17.8304580">
        <ele>1185.3</ele>
        <time>2020-11-17T12:07:01Z</time>
      </trkpt>
      <trkpt lat="28.5337950" lon="-17.8304900">
        <ele>1185.5</ele>
        <time>2020-11-17T12:07:02Z</time>
      </trkpt>
      <trkpt lat="28.5337950" lon="-17.8304900">
        <ele>1185.5</ele>
        <time>2020-11-17T12:07:03Z</time>
      </trkpt>
      <trkpt lat="28.5338200" lon="-17.8305230">
        <ele>1185.8</ele>
        <time>2020-11-17T12:07:04Z</time>
      </trkpt>
      <trkpt lat="28.5338300" lon="-17.8305500">
        <ele>1185.9</ele>
        <time>2020-11-17T12:07:05Z</time>
      </trkpt>
      <trkpt lat="28.5338430" lon="-17.8305670">
        <ele>1186.1</ele>
        <time>2020-11-17T12:07:06Z</time>
      </trkpt>
      <trkpt lat="28.5338430" lon="-17.8305670">
        <ele>1186.1</ele>
        <time>2020-11-17T12:07:07Z</time>
      </trkpt>
      <trkpt lat="28.5338650" lon="-17.8306030">
        <ele>1186.3</ele>
        <time>2020-11-17T12:07:08Z</time>
      </trkpt>
      <trkpt lat="28.5338770" lon="-17.8306270">
        <ele>1186.5</ele>
        <time>2020-11-17T12:07:09Z</time>
      </trkpt>
      <trkpt lat="28.5338770" lon="-17.8306270">
        <ele>1186.5</ele>
        <time>2020-11-17T12:07:10Z</time>
      </trkpt>
      <trkpt lat="28.5339030" lon="-17.8306580">
        <ele>1186.8</ele>
        <time>2020-11-17T12:07:11Z</time>
      </trkpt>
      <trkpt lat="28.5339030" lon="-17.8306580">
        <ele>1186.8</ele>
        <time>2020-11-17T12:07:12Z</time>
      </trkpt>
      <trkpt lat="28.5339370" lon="-17.8306830">
        <ele>1187.0</ele>
        <time>2020-11-17T12:07:13Z</time>
      </trkpt>
      <trkpt lat="28.5339370" lon="-17.8306830">
        <ele>1187.0</ele>
        <time>2020-11-17T12:07:14Z</time>
      </trkpt>
      <trkpt lat="28.5339670" lon="-17.8307080">
        <ele>1187.3</ele>
        <time>2020-11-17T12:07:15Z</time>
      </trkpt>
      <trkpt lat="28.5339670" lon="-17.8307080">
        <ele>1187.3</ele>
        <time>2020-11-17T12:07:16Z</time>
      </trkpt>
      <trkpt lat="28.5339980" lon="-17.8307370">
        <ele>1187.5</ele>
        <time>2020-11-17T12:07:17Z</time>
      </trkpt>
      <trkpt lat="28.5340150" lon="-17.8307530">
        <ele>1187.7</ele>
        <time>2020-11-17T12:07:18Z</time>
      </trkpt>
      <trkpt lat="28.5340150" lon="-17.8307530">
        <ele>1187.7</ele>
        <time>2020-11-17T12:07:19Z</time>
      </trkpt>
      <trkpt lat="28.5340470" lon="-17.8307780">
        <ele>1187.9</ele>
        <time>2020-11-17T12:07:20Z</time>
      </trkpt>
      <trkpt lat="28.5340630" lon="-17.8307930">
        <ele>1188.1</ele>
        <time>2020-11-17T12:07:21Z</time>
      </trkpt>
      <trkpt lat="28.5340630" lon="-17.8307930">
        <ele>1188.1</ele>
        <time>2020-11-17T12:07:22Z</time>
      </trkpt>
      <trkpt lat="28.5340980" lon="-17.8308120">
        <ele>1188.3</ele>
        <time>2020-11-17T12:07:23Z</time>
      </trkpt>
      <trkpt lat="28.5341120" lon="-17.8308180">
        <ele>1188.4</ele>
        <time>2020-11-17T12:07:24Z</time>
      </trkpt>
      <trkpt lat="28.5341120" lon="-17.8308180">
        <ele>1188.4</ele>
        <time>2020-11-17T12:07:25Z</time>
      </trkpt>
      <trkpt lat="28.5341430" lon="-17.8308330">
        <ele>1188.7</ele>
        <time>2020-11-17T12:07:26Z</time>
      </trkpt>
      <trkpt lat="28.5341580" lon="-17.8308370">
        <ele>1188.8</ele>
        <time>2020-11-17T12:07:27Z</time>
      </trkpt>
      <trkpt lat="28.5341580" lon="-17.8308370">
        <ele>1188.8</ele>
        <time>2020-11-17T12:07:28Z</time>
      </trkpt>
      <trkpt lat="28.5341820" lon="-17.8308280">
        <ele>1188.9</ele>
        <time>2020-11-17T12:07:29Z</time>
      </trkpt>
      <trkpt lat="28.5342000" lon="-17.8308200">
        <ele>1189.0</ele>
        <time>2020-11-17T12:07:30Z</time>
      </trkpt>
      <trkpt lat="28.5342000" lon="-17.8308200">
        <ele>1189.0</ele>
        <time>2020-11-17T12:07:31Z</time>
      </trkpt>
      <trkpt lat="28.5342380" lon="-17.8307950">
        <ele>1189.3</ele>
        <time>2020-11-17T12:07:32Z</time>
      </trkpt>
      <trkpt lat="28.5342570" lon="-17.8307800">
        <ele>1189.4</ele>
        <time>2020-11-17T12:07:33Z</time>
      </trkpt>
      <trkpt lat="28.5342720" lon="-17.8307650">
        <ele>1189.5</ele>
        <time>2020-11-17T12:07:34Z</time>
      </trkpt>
      <trkpt lat="28.5342720" lon="-17.8307650">
        <ele>1189.5</ele>
        <time>2020-11-17T12:07:35Z</time>
      </trkpt>
      <trkpt lat="28.5342920" lon="-17.8307250">
        <ele>1189.8</ele>
        <time>2020-11-17T12:07:36Z</time>
      </trkpt>
      <trkpt lat="28.5342920" lon="-17.8307250">
        <ele>1189.8</ele>
        <time>2020-11-17T12:07:37Z</time>
      </trkpt>
      <trkpt lat="28.5343130" lon="-17.8307020">
        <ele>1189.9</ele>
        <time>2020-11-17T12:07:38Z</time>
      </trkpt>
      <trkpt lat="28.5343130" lon="-17.8307020">
        <ele>1189.9</ele>
        <time>2020-11-17T12:07:39Z</time>
      </trkpt>
      <trkpt lat="28.5343450" lon="-17.8306720">
        <ele>1190.2</ele>
        <time>2020-11-17T12:07:40Z</time>
      </trkpt>
      <trkpt lat="28.5343580" lon="-17.8306550">
        <ele>1190.3</ele>
        <time>2020-11-17T12:07:41Z</time>
      </trkpt>
      <trkpt lat="28.5343670" lon="-17.8306370">
        <ele>1190.4</ele>
        <time>2020-11-17T12:07:42Z</time>
      </trkpt>
      <trkpt lat="28.5343670" lon="-17.8306370">
        <ele>1190.4</ele>
        <time>2020-11-17T12:07:43Z</time>
      </trkpt>
      <trkpt lat="28.5343750" lon="-17.8306020">
        <ele>1190.6</ele>
        <time>2020-11-17T12:07:44Z</time>
      </trkpt>
      <trkpt lat="28.5343750" lon="-17.8306020">
        <ele>1190.6</ele>
        <time>2020-11-17T12:07:45Z</time>
      </trkpt>
      <trkpt lat="28.5343820" lon="-17.8305630">
        <ele>1190.8</ele>
        <time>2020-11-17T12:07:46Z</time>
      </trkpt>
      <trkpt lat="28.5343820" lon="-17.8305630">
        <ele>1190.8</ele>
        <time>2020-11-17T12:07:47Z</time>
      </trkpt>
      <trkpt lat="28.5343920" lon="-17.8305200">
        <ele>1191.0</ele>
        <time>2020-11-17T12:07:48Z</time>
      </trkpt>
      <trkpt lat="28.5343920" lon="-17.8305200">
        <ele>1191.0</ele>
        <time>2020-11-17T12:07:49Z</time>
      </trkpt>
      <trkpt lat="28.5344020" lon="-17.8304800">
        <ele>1191.3</ele>
        <time>2020-11-17T12:07:50Z</time>
      </trkpt>
      <trkpt lat="28.5344020" lon="-17.8304800">
        <ele>1191.3</ele>
        <time>2020-11-17T12:07:51Z</time>
      </trkpt>
      <trkpt lat="28.5344100" lon="-17.8304380">
        <ele>1191.5</ele>
        <time>2020-11-17T12:07:52Z</time>
      </trkpt>
      <trkpt lat="28.5344100" lon="-17.8304380">
        <ele>1191.5</ele>
        <time>2020-11-17T12:07:53Z</time>
      </trkpt>
      <trkpt lat="28.5344030" lon="-17.8304030">
        <ele>1191.8</ele>
        <time>2020-11-17T12:07:54Z</time>
      </trkpt>
      <trkpt lat="28.5344030" lon="-17.8304030">
        <ele>1191.8</ele>
        <time>2020-11-17T12:07:55Z</time>
      </trkpt>
      <trkpt lat="28.5344030" lon="-17.8303720">
        <ele>1192.0</ele>
        <time>2020-11-17T12:07:56Z</time>
      </trkpt>
      <trkpt lat="28.5344050" lon="-17.8303550">
        <ele>1192.0</ele>
        <time>2020-11-17T12:07:57Z</time>
      </trkpt>
      <trkpt lat="28.5344050" lon="-17.8303550">
        <ele>1192.0</ele>
        <time>2020-11-17T12:07:58Z</time>
      </trkpt>
      <trkpt lat="28.5344130" lon="-17.8303220">
        <ele>1192.2</ele>
        <time>2020-11-17T12:07:59Z</time>
      </trkpt>
      <trkpt lat="28.5344120" lon="-17.8303000">
        <ele>1192.3</ele>
        <time>2020-11-17T12:08:00Z</time>
      </trkpt>
      <trkpt lat="28.5344120" lon="-17.8303000">
        <ele>1192.3</ele>
        <time>2020-11-17T12:08:01Z</time>
      </trkpt>
      <trkpt lat="28.5344170" lon="-17.8302520">
        <ele>1192.6</ele>
        <time>2020-11-17T12:08:02Z</time>
      </trkpt>
      <trkpt lat="28.5344230" lon="-17.8302250">
        <ele>1192.7</ele>
        <time>2020-11-17T12:08:03Z</time>
      </trkpt>
      <trkpt lat="28.5344230" lon="-17.8302250">
        <ele>1192.7</ele>
        <time>2020-11-17T12:08:04Z</time>
      </trkpt>
      <trkpt lat="28.5344480" lon="-17.8301820">
        <ele>1192.9</ele>
        <time>2020-11-17T12:08:05Z</time>
      </trkpt>
      <trkpt lat="28.5344600" lon="-17.8301650">
        <ele>1192.9</ele>
        <time>2020-11-17T12:08:06Z</time>
      </trkpt>
      <trkpt lat="28.5344600" lon="-17.8301650">
        <ele>1192.9</ele>
        <time>2020-11-17T12:08:07Z</time>
      </trkpt>
      <trkpt lat="28.5344880" lon="-17.8301330">
        <ele>1193.1</ele>
        <time>2020-11-17T12:08:08Z</time>
      </trkpt>
      <trkpt lat="28.5344980" lon="-17.8301220">
        <ele>1193.2</ele>
        <time>2020-11-17T12:08:09Z</time>
      </trkpt>
      <trkpt lat="28.5344980" lon="-17.8301220">
        <ele>1193.2</ele>
        <time>2020-11-17T12:08:10Z</time>
      </trkpt>
      <trkpt lat="28.5345300" lon="-17.8300950">
        <ele>1193.3</ele>
        <time>2020-11-17T12:08:11Z</time>
      </trkpt>
      <trkpt lat="28.5345430" lon="-17.8300880">
        <ele>1193.4</ele>
        <time>2020-11-17T12:08:12Z</time>
      </trkpt>
      <trkpt lat="28.5345430" lon="-17.8300880">
        <ele>1193.4</ele>
        <time>2020-11-17T12:08:13Z</time>
      </trkpt>
      <trkpt lat="28.5345720" lon="-17.8300650">
        <ele>1193.6</ele>
        <time>2020-11-17T12:08:14Z</time>
      </trkpt>
      <trkpt lat="28.5345870" lon="-17.8300550">
        <ele>1193.6</ele>
        <time>2020-11-17T12:08:15Z</time>
      </trkpt>
      <trkpt lat="28.5345970" lon="-17.8300480">
        <ele>1193.7</ele>
        <time>2020-11-17T12:08:16Z</time>
      </trkpt>
      <trkpt lat="28.5346120" lon="-17.8300430">
        <ele>1193.8</ele>
        <time>2020-11-17T12:08:17Z</time>
      </trkpt>
      <trkpt lat="28.5346120" lon="-17.8300430">
        <ele>1193.8</ele>
        <time>2020-11-17T12:08:18Z</time>
      </trkpt>
      <trkpt lat="28.5346470" lon="-17.8300230">
        <ele>1194.0</ele>
        <time>2020-11-17T12:08:19Z</time>
      </trkpt>
      <trkpt lat="28.5346470" lon="-17.8300230">
        <ele>1194.0</ele>
        <time>2020-11-17T12:08:20Z</time>
      </trkpt>
      <trkpt lat="28.5346800" lon="-17.8300050">
        <ele>1194.2</ele>
        <time>2020-11-17T12:08:21Z</time>
      </trkpt>
      <trkpt lat="28.5346950" lon="-17.8299980">
        <ele>1194.3</ele>
        <time>2020-11-17T12:08:22Z</time>
      </trkpt>
      <trkpt lat="28.5346950" lon="-17.8299980">
        <ele>1194.3</ele>
        <time>2020-11-17T12:08:23Z</time>
      </trkpt>
      <trkpt lat="28.5347300" lon="-17.8299870">
        <ele>1194.5</ele>
        <time>2020-11-17T12:08:24Z</time>
      </trkpt>
      <trkpt lat="28.5347300" lon="-17.8299870">
        <ele>1194.5</ele>
        <time>2020-11-17T12:08:25Z</time>
      </trkpt>
      <trkpt lat="28.5347680" lon="-17.8299770">
        <ele>1194.8</ele>
        <time>2020-11-17T12:08:26Z</time>
      </trkpt>
      <trkpt lat="28.5347870" lon="-17.8299680">
        <ele>1194.9</ele>
        <time>2020-11-17T12:08:27Z</time>
      </trkpt>
      <trkpt lat="28.5347870" lon="-17.8299680">
        <ele>1194.9</ele>
        <time>2020-11-17T12:08:28Z</time>
      </trkpt>
      <trkpt lat="28.5348220" lon="-17.8299550">
        <ele>1195.2</ele>
        <time>2020-11-17T12:08:29Z</time>
      </trkpt>
      <trkpt lat="28.5348220" lon="-17.8299550">
        <ele>1195.2</ele>
        <time>2020-11-17T12:08:30Z</time>
      </trkpt>
      <trkpt lat="28.5348500" lon="-17.8299380">
        <ele>1195.4</ele>
        <time>2020-11-17T12:08:31Z</time>
      </trkpt>
      <trkpt lat="28.5348500" lon="-17.8299380">
        <ele>1195.4</ele>
        <time>2020-11-17T12:08:32Z</time>
      </trkpt>
      <trkpt lat="28.5348880" lon="-17.8299250">
        <ele>1195.6</ele>
        <time>2020-11-17T12:08:33Z</time>
      </trkpt>
      <trkpt lat="28.5349030" lon="-17.8299180">
        <ele>1195.7</ele>
        <time>2020-11-17T12:08:34Z</time>
      </trkpt>
      <trkpt lat="28.5349030" lon="-17.8299180">
        <ele>1195.7</ele>
        <time>2020-11-17T12:08:35Z</time>
      </trkpt>
      <trkpt lat="28.5349380" lon="-17.8299130">
        <ele>1195.9</ele>
        <time>2020-11-17T12:08:36Z</time>
      </trkpt>
      <trkpt lat="28.5349380" lon="-17.8299130">
        <ele>1195.9</ele>
        <time>2020-11-17T12:08:37Z</time>
      </trkpt>
      <trkpt lat="28.5349770" lon="-17.8299120">
        <ele>1196.2</ele>
        <time>2020-11-17T12:08:38Z</time>
      </trkpt>
      <trkpt lat="28.5349770" lon="-17.8299120">
        <ele>1196.2</ele>
        <time>2020-11-17T12:08:39Z</time>
      </trkpt>
      <trkpt lat="28.5350180" lon="-17.8299070">
        <ele>1196.4</ele>
        <time>2020-11-17T12:08:40Z</time>
      </trkpt>
      <trkpt lat="28.5350180" lon="-17.8299070">
        <ele>1196.4</ele>
        <time>2020-11-17T12:08:41Z</time>
      </trkpt>
      <trkpt lat="28.5350580" lon="-17.8299120">
        <ele>1196.5</ele>
        <time>2020-11-17T12:08:42Z</time>
      </trkpt>
      <trkpt lat="28.5350580" lon="-17.8299120">
        <ele>1196.5</ele>
        <time>2020-11-17T12:08:43Z</time>
      </trkpt>
      <trkpt lat="28.5350900" lon="-17.8299150">
        <ele>1196.7</ele>
        <time>2020-11-17T12:08:44Z</time>
      </trkpt>
      <trkpt lat="28.5351050" lon="-17.8299170">
        <ele>1196.7</ele>
        <time>2020-11-17T12:08:45Z</time>
      </trkpt>
      <trkpt lat="28.5351050" lon="-17.8299170">
        <ele>1196.7</ele>
        <time>2020-11-17T12:08:46Z</time>
      </trkpt>
      <trkpt lat="28.5351420" lon="-17.8299200">
        <ele>1196.9</ele>
        <time>2020-11-17T12:08:47Z</time>
      </trkpt>
      <trkpt lat="28.5351620" lon="-17.8299280">
        <ele>1196.9</ele>
        <time>2020-11-17T12:08:48Z</time>
      </trkpt>
      <trkpt lat="28.5351620" lon="-17.8299280">
        <ele>1196.9</ele>
        <time>2020-11-17T12:08:49Z</time>
      </trkpt>
      <trkpt lat="28.5352020" lon="-17.8299470">
        <ele>1197.1</ele>
        <time>2020-11-17T12:08:50Z</time>
      </trkpt>
      <trkpt lat="28.5352200" lon="-17.8299520">
        <ele>1197.2</ele>
        <time>2020-11-17T12:08:51Z</time>
      </trkpt>
      <trkpt lat="28.5352330" lon="-17.8299570">
        <ele>1197.2</ele>
        <time>2020-11-17T12:08:52Z</time>
      </trkpt>
      <trkpt lat="28.5352330" lon="-17.8299570">
        <ele>1197.2</ele>
        <time>2020-11-17T12:08:53Z</time>
      </trkpt>
      <trkpt lat="28.5352670" lon="-17.8299480">
        <ele>1197.4</ele>
        <time>2020-11-17T12:08:54Z</time>
      </trkpt>
      <trkpt lat="28.5352670" lon="-17.8299480">
        <ele>1197.4</ele>
        <time>2020-11-17T12:08:55Z</time>
      </trkpt>
      <trkpt lat="28.5353030" lon="-17.8299330">
        <ele>1197.5</ele>
        <time>2020-11-17T12:08:56Z</time>
      </trkpt>
      <trkpt lat="28.5353030" lon="-17.8299330">
        <ele>1197.5</ele>
        <time>2020-11-17T12:08:57Z</time>
      </trkpt>
      <trkpt lat="28.5353420" lon="-17.8299170">
        <ele>1197.7</ele>
        <time>2020-11-17T12:08:58Z</time>
      </trkpt>
      <trkpt lat="28.5353420" lon="-17.8299170">
        <ele>1197.7</ele>
        <time>2020-11-17T12:08:59Z</time>
      </trkpt>
      <trkpt lat="28.5353780" lon="-17.8298870">
        <ele>1197.9</ele>
        <time>2020-11-17T12:09:00Z</time>
      </trkpt>
      <trkpt lat="28.5353780" lon="-17.8298870">
        <ele>1197.9</ele>
        <time>2020-11-17T12:09:01Z</time>
      </trkpt>
      <trkpt lat="28.5354080" lon="-17.8298630">
        <ele>1198.0</ele>
        <time>2020-11-17T12:09:02Z</time>
      </trkpt>
      <trkpt lat="28.5354230" lon="-17.8298480">
        <ele>1198.0</ele>
        <time>2020-11-17T12:09:03Z</time>
      </trkpt>
      <trkpt lat="28.5354230" lon="-17.8298480">
        <ele>1198.0</ele>
        <time>2020-11-17T12:09:04Z</time>
      </trkpt>
      <trkpt lat="28.5354570" lon="-17.8298030">
        <ele>1198.2</ele>
        <time>2020-11-17T12:09:05Z</time>
      </trkpt>
      <trkpt lat="28.5354680" lon="-17.8297730">
        <ele>1198.3</ele>
        <time>2020-11-17T12:09:06Z</time>
      </trkpt>
      <trkpt lat="28.5354680" lon="-17.8297730">
        <ele>1198.3</ele>
        <time>2020-11-17T12:09:07Z</time>
      </trkpt>
      <trkpt lat="28.5354980" lon="-17.8297330">
        <ele>1198.4</ele>
        <time>2020-11-17T12:09:08Z</time>
      </trkpt>
      <trkpt lat="28.5354980" lon="-17.8297330">
        <ele>1198.4</ele>
        <time>2020-11-17T12:09:09Z</time>
      </trkpt>
      <trkpt lat="28.5355400" lon="-17.8296850">
        <ele>1198.6</ele>
        <time>2020-11-17T12:09:10Z</time>
      </trkpt>
      <trkpt lat="28.5355400" lon="-17.8296850">
        <ele>1198.6</ele>
        <time>2020-11-17T12:09:11Z</time>
      </trkpt>
      <trkpt lat="28.5355750" lon="-17.8296700">
        <ele>1198.8</ele>
        <time>2020-11-17T12:09:12Z</time>
      </trkpt>
      <trkpt lat="28.5355750" lon="-17.8296700">
        <ele>1198.8</ele>
        <time>2020-11-17T12:09:13Z</time>
      </trkpt>
      <trkpt lat="28.5356130" lon="-17.8296680">
        <ele>1198.9</ele>
        <time>2020-11-17T12:09:14Z</time>
      </trkpt>
      <trkpt lat="28.5356130" lon="-17.8296680">
        <ele>1198.9</ele>
        <time>2020-11-17T12:09:15Z</time>
      </trkpt>
      <trkpt lat="28.5356530" lon="-17.8296520">
        <ele>1199.0</ele>
        <time>2020-11-17T12:09:16Z</time>
      </trkpt>
      <trkpt lat="28.5356530" lon="-17.8296520">
        <ele>1199.0</ele>
        <time>2020-11-17T12:09:17Z</time>
      </trkpt>
      <trkpt lat="28.5356930" lon="-17.8296330">
        <ele>1199.2</ele>
        <time>2020-11-17T12:09:18Z</time>
      </trkpt>
      <trkpt lat="28.5356930" lon="-17.8296330">
        <ele>1199.2</ele>
        <time>2020-11-17T12:09:19Z</time>
      </trkpt>
      <trkpt lat="28.5357280" lon="-17.8296130">
        <ele>1199.4</ele>
        <time>2020-11-17T12:09:20Z</time>
      </trkpt>
      <trkpt lat="28.5357420" lon="-17.8296070">
        <ele>1199.5</ele>
        <time>2020-11-17T12:09:21Z</time>
      </trkpt>
      <trkpt lat="28.5357420" lon="-17.8296070">
        <ele>1199.5</ele>
        <time>2020-11-17T12:09:22Z</time>
      </trkpt>
      <trkpt lat="28.5357780" lon="-17.8295830">
        <ele>1199.8</ele>
        <time>2020-11-17T12:09:23Z</time>
      </trkpt>
      <trkpt lat="28.5357950" lon="-17.8295670">
        <ele>1199.9</ele>
        <time>2020-11-17T12:09:24Z</time>
      </trkpt>
      <trkpt lat="28.5357950" lon="-17.8295670">
        <ele>1199.9</ele>
        <time>2020-11-17T12:09:25Z</time>
      </trkpt>
      <trkpt lat="28.5358280" lon="-17.8295320">
        <ele>1200.2</ele>
        <time>2020-11-17T12:09:26Z</time>
      </trkpt>
      <trkpt lat="28.5358280" lon="-17.8295320">
        <ele>1200.2</ele>
        <time>2020-11-17T12:09:27Z</time>
      </trkpt>
      <trkpt lat="28.5358550" lon="-17.8294920">
        <ele>1200.5</ele>
        <time>2020-11-17T12:09:28Z</time>
      </trkpt>
      <trkpt lat="28.5358550" lon="-17.8294920">
        <ele>1200.5</ele>
        <time>2020-11-17T12:09:29Z</time>
      </trkpt>
      <trkpt lat="28.5358830" lon="-17.8294550">
        <ele>1200.7</ele>
        <time>2020-11-17T12:09:30Z</time>
      </trkpt>
      <trkpt lat="28.5358830" lon="-17.8294550">
        <ele>1200.7</ele>
        <time>2020-11-17T12:09:31Z</time>
      </trkpt>
      <trkpt lat="28.5359030" lon="-17.8294100">
        <ele>1200.9</ele>
        <time>2020-11-17T12:09:32Z</time>
      </trkpt>
      <trkpt lat="28.5359180" lon="-17.8293920">
        <ele>1201.0</ele>
        <time>2020-11-17T12:09:33Z</time>
      </trkpt>
      <trkpt lat="28.5359180" lon="-17.8293920">
        <ele>1201.0</ele>
        <time>2020-11-17T12:09:34Z</time>
      </trkpt>
      <trkpt lat="28.5359550" lon="-17.8293600">
        <ele>1201.1</ele>
        <time>2020-11-17T12:09:35Z</time>
      </trkpt>
      <trkpt lat="28.5359550" lon="-17.8293600">
        <ele>1201.1</ele>
        <time>2020-11-17T12:09:36Z</time>
      </trkpt>
      <trkpt lat="28.5359920" lon="-17.8293350">
        <ele>1201.1</ele>
        <time>2020-11-17T12:09:37Z</time>
      </trkpt>
      <trkpt lat="28.5360120" lon="-17.8293320">
        <ele>1201.1</ele>
        <time>2020-11-17T12:09:38Z</time>
      </trkpt>
      <trkpt lat="28.5360120" lon="-17.8293320">
        <ele>1201.1</ele>
        <time>2020-11-17T12:09:39Z</time>
      </trkpt>
      <trkpt lat="28.5360580" lon="-17.8293400">
        <ele>1201.2</ele>
        <time>2020-11-17T12:09:40Z</time>
      </trkpt>
      <trkpt lat="28.5360770" lon="-17.8293480">
        <ele>1201.2</ele>
        <time>2020-11-17T12:09:41Z</time>
      </trkpt>
      <trkpt lat="28.5360980" lon="-17.8293580">
        <ele>1201.2</ele>
        <time>2020-11-17T12:09:42Z</time>
      </trkpt>
      <trkpt lat="28.5360980" lon="-17.8293580">
        <ele>1201.2</ele>
        <time>2020-11-17T12:09:43Z</time>
      </trkpt>
      <trkpt lat="28.5361380" lon="-17.8293880">
        <ele>1201.2</ele>
        <time>2020-11-17T12:09:44Z</time>
      </trkpt>
      <trkpt lat="28.5361380" lon="-17.8293880">
        <ele>1201.2</ele>
        <time>2020-11-17T12:09:45Z</time>
      </trkpt>
      <trkpt lat="28.5361670" lon="-17.8294200">
        <ele>1201.3</ele>
        <time>2020-11-17T12:09:46Z</time>
      </trkpt>
      <trkpt lat="28.5361670" lon="-17.8294200">
        <ele>1201.3</ele>
        <time>2020-11-17T12:09:47Z</time>
      </trkpt>
      <trkpt lat="28.5362100" lon="-17.8294430">
        <ele>1201.4</ele>
        <time>2020-11-17T12:09:48Z</time>
      </trkpt>
      <trkpt lat="28.5362100" lon="-17.8294430">
        <ele>1201.4</ele>
        <time>2020-11-17T12:09:49Z</time>
      </trkpt>
      <trkpt lat="28.5362470" lon="-17.8294700">
        <ele>1201.5</ele>
        <time>2020-11-17T12:09:50Z</time>
      </trkpt>
      <trkpt lat="28.5362470" lon="-17.8294700">
        <ele>1201.5</ele>
        <time>2020-11-17T12:09:51Z</time>
      </trkpt>
      <trkpt lat="28.5362880" lon="-17.8294900">
        <ele>1201.7</ele>
        <time>2020-11-17T12:09:52Z</time>
      </trkpt>
      <trkpt lat="28.5362880" lon="-17.8294900">
        <ele>1201.7</ele>
        <time>2020-11-17T12:09:53Z</time>
      </trkpt>
      <trkpt lat="28.5363430" lon="-17.8294950">
        <ele>1201.8</ele>
        <time>2020-11-17T12:09:54Z</time>
      </trkpt>
      <trkpt lat="28.5363430" lon="-17.8294950">
        <ele>1201.8</ele>
        <time>2020-11-17T12:09:55Z</time>
      </trkpt>
      <trkpt lat="28.5363980" lon="-17.8294980">
        <ele>1202.0</ele>
        <time>2020-11-17T12:09:56Z</time>
      </trkpt>
      <trkpt lat="28.5363980" lon="-17.8294980">
        <ele>1202.0</ele>
        <time>2020-11-17T12:09:57Z</time>
      </trkpt>
      <trkpt lat="28.5364500" lon="-17.8295080">
        <ele>1202.1</ele>
        <time>2020-11-17T12:09:58Z</time>
      </trkpt>
      <trkpt lat="28.5364500" lon="-17.8295080">
        <ele>1202.1</ele>
        <time>2020-11-17T12:09:59Z</time>
      </trkpt>
      <trkpt lat="28.5364920" lon="-17.8295180">
        <ele>1202.2</ele>
        <time>2020-11-17T12:10:00Z</time>
      </trkpt>
      <trkpt lat="28.5364920" lon="-17.8295180">
        <ele>1202.2</ele>
        <time>2020-11-17T12:10:01Z</time>
      </trkpt>
      <trkpt lat="28.5365370" lon="-17.8295270">
        <ele>1202.3</ele>
        <time>2020-11-17T12:10:02Z</time>
      </trkpt>
      <trkpt lat="28.5365600" lon="-17.8295330">
        <ele>1202.3</ele>
        <time>2020-11-17T12:10:03Z</time>
      </trkpt>
      <trkpt lat="28.5365600" lon="-17.8295330">
        <ele>1202.3</ele>
        <time>2020-11-17T12:10:04Z</time>
      </trkpt>
      <trkpt lat="28.5366020" lon="-17.8295350">
        <ele>1202.4</ele>
        <time>2020-11-17T12:10:05Z</time>
      </trkpt>
      <trkpt lat="28.5366230" lon="-17.8295350">
        <ele>1202.4</ele>
        <time>2020-11-17T12:10:06Z</time>
      </trkpt>
      <trkpt lat="28.5366230" lon="-17.8295350">
        <ele>1202.4</ele>
        <time>2020-11-17T12:10:07Z</time>
      </trkpt>
      <trkpt lat="28.5366780" lon="-17.8295130">
        <ele>1202.5</ele>
        <time>2020-11-17T12:10:08Z</time>
      </trkpt>
      <trkpt lat="28.5366780" lon="-17.8295130">
        <ele>1202.5</ele>
        <time>2020-11-17T12:10:09Z</time>
      </trkpt>
      <trkpt lat="28.5367030" lon="-17.8294730">
        <ele>1202.5</ele>
        <time>2020-11-17T12:10:10Z</time>
      </trkpt>
      <trkpt lat="28.5367030" lon="-17.8294730">
        <ele>1202.5</ele>
        <time>2020-11-17T12:10:11Z</time>
      </trkpt>
      <trkpt lat="28.5367350" lon="-17.8294150">
        <ele>1202.6</ele>
        <time>2020-11-17T12:10:12Z</time>
      </trkpt>
      <trkpt lat="28.5367350" lon="-17.8294150">
        <ele>1202.6</ele>
        <time>2020-11-17T12:10:13Z</time>
      </trkpt>
      <trkpt lat="28.5367650" lon="-17.8293550">
        <ele>1202.6</ele>
        <time>2020-11-17T12:10:14Z</time>
      </trkpt>
      <trkpt lat="28.5367750" lon="-17.8293270">
        <ele>1202.6</ele>
        <time>2020-11-17T12:10:15Z</time>
      </trkpt>
      <trkpt lat="28.5367750" lon="-17.8293270">
        <ele>1202.6</ele>
        <time>2020-11-17T12:10:16Z</time>
      </trkpt>
      <trkpt lat="28.5367980" lon="-17.8292630">
        <ele>1202.5</ele>
        <time>2020-11-17T12:10:17Z</time>
      </trkpt>
      <trkpt lat="28.5368120" lon="-17.8292370">
        <ele>1202.5</ele>
        <time>2020-11-17T12:10:18Z</time>
      </trkpt>
      <trkpt lat="28.5368120" lon="-17.8292370">
        <ele>1202.5</ele>
        <time>2020-11-17T12:10:19Z</time>
      </trkpt>
      <trkpt lat="28.5368350" lon="-17.8291880">
        <ele>1202.5</ele>
        <time>2020-11-17T12:10:20Z</time>
      </trkpt>
      <trkpt lat="28.5368350" lon="-17.8291880">
        <ele>1202.5</ele>
        <time>2020-11-17T12:10:21Z</time>
      </trkpt>
      <trkpt lat="28.5368750" lon="-17.8291450">
        <ele>1202.5</ele>
        <time>2020-11-17T12:10:22Z</time>
      </trkpt>
      <trkpt lat="28.5368750" lon="-17.8291450">
        <ele>1202.5</ele>
        <time>2020-11-17T12:10:23Z</time>
      </trkpt>
      <trkpt lat="28.5369050" lon="-17.8291070">
        <ele>1202.4</ele>
        <time>2020-11-17T12:10:24Z</time>
      </trkpt>
      <trkpt lat="28.5369050" lon="-17.8291070">
        <ele>1202.4</ele>
        <time>2020-11-17T12:10:25Z</time>
      </trkpt>
      <trkpt lat="28.5369350" lon="-17.8290730">
        <ele>1202.4</ele>
        <time>2020-11-17T12:10:26Z</time>
      </trkpt>
      <trkpt lat="28.5369350" lon="-17.8290730">
        <ele>1202.4</ele>
        <time>2020-11-17T12:10:27Z</time>
      </trkpt>
      <trkpt lat="28.5369750" lon="-17.8290270">
        <ele>1202.3</ele>
        <time>2020-11-17T12:10:28Z</time>
      </trkpt>
      <trkpt lat="28.5369980" lon="-17.8290000">
        <ele>1202.3</ele>
        <time>2020-11-17T12:10:29Z</time>
      </trkpt>
      <trkpt lat="28.5369980" lon="-17.8290000">
        <ele>1202.3</ele>
        <time>2020-11-17T12:10:30Z</time>
      </trkpt>
      <trkpt lat="28.5370380" lon="-17.8289500">
        <ele>1202.2</ele>
        <time>2020-11-17T12:10:31Z</time>
      </trkpt>
      <trkpt lat="28.5370580" lon="-17.8289250">
        <ele>1202.2</ele>
        <time>2020-11-17T12:10:32Z</time>
      </trkpt>
      <trkpt lat="28.5370580" lon="-17.8289250">
        <ele>1202.2</ele>
        <time>2020-11-17T12:10:33Z</time>
      </trkpt>
      <trkpt lat="28.5371000" lon="-17.8288720">
        <ele>1202.2</ele>
        <time>2020-11-17T12:10:34Z</time>
      </trkpt>
      <trkpt lat="28.5371180" lon="-17.8288450">
        <ele>1202.2</ele>
        <time>2020-11-17T12:10:35Z</time>
      </trkpt>
      <trkpt lat="28.5371370" lon="-17.8288250">
        <ele>1202.2</ele>
        <time>2020-11-17T12:10:36Z</time>
      </trkpt>
      <trkpt lat="28.5371370" lon="-17.8288250">
        <ele>1202.2</ele>
        <time>2020-11-17T12:10:37Z</time>
      </trkpt>
      <trkpt lat="28.5371670" lon="-17.8287700">
        <ele>1202.1</ele>
        <time>2020-11-17T12:10:38Z</time>
      </trkpt>
      <trkpt lat="28.5371670" lon="-17.8287700">
        <ele>1202.1</ele>
        <time>2020-11-17T12:10:39Z</time>
      </trkpt>
      <trkpt lat="28.5371950" lon="-17.8287100">
        <ele>1202.1</ele>
        <time>2020-11-17T12:10:40Z</time>
      </trkpt>
      <trkpt lat="28.5372100" lon="-17.8286730">
        <ele>1202.1</ele>
        <time>2020-11-17T12:10:41Z</time>
      </trkpt>
      <trkpt lat="28.5372320" lon="-17.8286250">
        <ele>1202.0</ele>
        <time>2020-11-17T12:10:42Z</time>
      </trkpt>
      <trkpt lat="28.5372320" lon="-17.8286250">
        <ele>1202.0</ele>
        <time>2020-11-17T12:10:43Z</time>
      </trkpt>
      <trkpt lat="28.5372570" lon="-17.8285320">
        <ele>1201.9</ele>
        <time>2020-11-17T12:10:44Z</time>
      </trkpt>
      <trkpt lat="28.5372620" lon="-17.8284920">
        <ele>1201.9</ele>
        <time>2020-11-17T12:10:45Z</time>
      </trkpt>
      <trkpt lat="28.5372620" lon="-17.8284920">
        <ele>1201.9</ele>
        <time>2020-11-17T12:10:46Z</time>
      </trkpt>
      <trkpt lat="28.5372770" lon="-17.8284180">
        <ele>1201.8</ele>
        <time>2020-11-17T12:10:47Z</time>
      </trkpt>
      <trkpt lat="28.5372930" lon="-17.8283830">
        <ele>1201.7</ele>
        <time>2020-11-17T12:10:48Z</time>
      </trkpt>
      <trkpt lat="28.5372930" lon="-17.8283830">
        <ele>1201.7</ele>
        <time>2020-11-17T12:10:49Z</time>
      </trkpt>
      <trkpt lat="28.5373370" lon="-17.8283250">
        <ele>1201.5</ele>
        <time>2020-11-17T12:10:50Z</time>
      </trkpt>
      <trkpt lat="28.5373370" lon="-17.8283250">
        <ele>1201.5</ele>
        <time>2020-11-17T12:10:51Z</time>
      </trkpt>
      <trkpt lat="28.5373850" lon="-17.8282750">
        <ele>1201.3</ele>
        <time>2020-11-17T12:10:52Z</time>
      </trkpt>
      <trkpt lat="28.5374100" lon="-17.8282500">
        <ele>1201.1</ele>
        <time>2020-11-17T12:10:53Z</time>
      </trkpt>
      <trkpt lat="28.5374100" lon="-17.8282500">
        <ele>1201.1</ele>
        <time>2020-11-17T12:10:54Z</time>
      </trkpt>
      <trkpt lat="28.5374630" lon="-17.8282230">
        <ele>1200.9</ele>
        <time>2020-11-17T12:10:55Z</time>
      </trkpt>
      <trkpt lat="28.5374630" lon="-17.8282230">
        <ele>1200.9</ele>
        <time>2020-11-17T12:10:56Z</time>
      </trkpt>
      <trkpt lat="28.5375200" lon="-17.8282220">
        <ele>1200.7</ele>
        <time>2020-11-17T12:10:57Z</time>
      </trkpt>
      <trkpt lat="28.5375200" lon="-17.8282220">
        <ele>1200.7</ele>
        <time>2020-11-17T12:10:58Z</time>
      </trkpt>
      <trkpt lat="28.5375900" lon="-17.8282350">
        <ele>1200.6</ele>
        <time>2020-11-17T12:10:59Z</time>
      </trkpt>
      <trkpt lat="28.5376270" lon="-17.8282450">
        <ele>1200.6</ele>
        <time>2020-11-17T12:11:00Z</time>
      </trkpt>
      <trkpt lat="28.5376270" lon="-17.8282450">
        <ele>1200.6</ele>
        <time>2020-11-17T12:11:01Z</time>
      </trkpt>
      <trkpt lat="28.5377050" lon="-17.8282800">
        <ele>1200.6</ele>
        <time>2020-11-17T12:11:02Z</time>
      </trkpt>
      <trkpt lat="28.5377050" lon="-17.8282800">
        <ele>1200.6</ele>
        <time>2020-11-17T12:11:03Z</time>
      </trkpt>
      <trkpt lat="28.5377930" lon="-17.8283120">
        <ele>1200.6</ele>
        <time>2020-11-17T12:11:04Z</time>
      </trkpt>
      <trkpt lat="28.5377930" lon="-17.8283120">
        <ele>1200.6</ele>
        <time>2020-11-17T12:11:05Z</time>
      </trkpt>
      <trkpt lat="28.5378800" lon="-17.8283420">
        <ele>1200.7</ele>
        <time>2020-11-17T12:11:06Z</time>
      </trkpt>
      <trkpt lat="28.5378800" lon="-17.8283420">
        <ele>1200.7</ele>
        <time>2020-11-17T12:11:07Z</time>
      </trkpt>
      <trkpt lat="28.5379700" lon="-17.8283730">
        <ele>1200.8</ele>
        <time>2020-11-17T12:11:08Z</time>
      </trkpt>
      <trkpt lat="28.5380130" lon="-17.8283900">
        <ele>1200.8</ele>
        <time>2020-11-17T12:11:09Z</time>
      </trkpt>
      <trkpt lat="28.5380570" lon="-17.8284030">
        <ele>1200.9</ele>
        <time>2020-11-17T12:11:10Z</time>
      </trkpt>
      <trkpt lat="28.5380570" lon="-17.8284030">
        <ele>1200.9</ele>
        <time>2020-11-17T12:11:11Z</time>
      </trkpt>
      <trkpt lat="28.5381430" lon="-17.8284250">
        <ele>1201.1</ele>
        <time>2020-11-17T12:11:12Z</time>
      </trkpt>
      <trkpt lat="28.5381430" lon="-17.8284250">
        <ele>1201.1</ele>
        <time>2020-11-17T12:11:13Z</time>
      </trkpt>
      <trkpt lat="28.5382580" lon="-17.8283880">
        <ele>1201.3</ele>
        <time>2020-11-17T12:11:14Z</time>
      </trkpt>
      <trkpt lat="28.5382720" lon="-17.8283450">
        <ele>1201.4</ele>
        <time>2020-11-17T12:11:15Z</time>
      </trkpt>
      <trkpt lat="28.5382720" lon="-17.8283450">
        <ele>1201.4</ele>
        <time>2020-11-17T12:11:16Z</time>
      </trkpt>
      <trkpt lat="28.5383420" lon="-17.8282900">
        <ele>1201.7</ele>
        <time>2020-11-17T12:11:17Z</time>
      </trkpt>
      <trkpt lat="28.5383720" lon="-17.8282700">
        <ele>1201.7</ele>
        <time>2020-11-17T12:11:18Z</time>
      </trkpt>
      <trkpt lat="28.5383720" lon="-17.8282700">
        <ele>1201.7</ele>
        <time>2020-11-17T12:11:19Z</time>
      </trkpt>
      <trkpt lat="28.5384180" lon="-17.8282280">
        <ele>1201.8</ele>
        <time>2020-11-17T12:11:20Z</time>
      </trkpt>
      <trkpt lat="28.5384180" lon="-17.8282280">
        <ele>1201.8</ele>
        <time>2020-11-17T12:11:21Z</time>
      </trkpt>
      <trkpt lat="28.5384820" lon="-17.8281770">
        <ele>1201.9</ele>
        <time>2020-11-17T12:11:22Z</time>
      </trkpt>
      <trkpt lat="28.5384820" lon="-17.8281770">
        <ele>1201.9</ele>
        <time>2020-11-17T12:11:23Z</time>
      </trkpt>
      <trkpt lat="28.5385450" lon="-17.8281300">
        <ele>1202.0</ele>
        <time>2020-11-17T12:11:24Z</time>
      </trkpt>
      <trkpt lat="28.5385450" lon="-17.8281300">
        <ele>1202.0</ele>
        <time>2020-11-17T12:11:25Z</time>
      </trkpt>
      <trkpt lat="28.5386050" lon="-17.8280880">
        <ele>1202.0</ele>
        <time>2020-11-17T12:11:26Z</time>
      </trkpt>
      <trkpt lat="28.5386350" lon="-17.8280700">
        <ele>1202.0</ele>
        <time>2020-11-17T12:11:27Z</time>
      </trkpt>
      <trkpt lat="28.5386350" lon="-17.8280700">
        <ele>1202.0</ele>
        <time>2020-11-17T12:11:28Z</time>
      </trkpt>
      <trkpt lat="28.5386970" lon="-17.8280220">
        <ele>1201.9</ele>
        <time>2020-11-17T12:11:29Z</time>
      </trkpt>
      <trkpt lat="28.5387280" lon="-17.8280030">
        <ele>1201.9</ele>
        <time>2020-11-17T12:11:30Z</time>
      </trkpt>
      <trkpt lat="28.5387280" lon="-17.8280030">
        <ele>1201.9</ele>
        <time>2020-11-17T12:11:31Z</time>
      </trkpt>
      <trkpt lat="28.5388030" lon="-17.8279780">
        <ele>1201.8</ele>
        <time>2020-11-17T12:11:32Z</time>
      </trkpt>
      <trkpt lat="28.5388030" lon="-17.8279780">
        <ele>1201.8</ele>
        <time>2020-11-17T12:11:33Z</time>
      </trkpt>
      <trkpt lat="28.5389000" lon="-17.8279630">
        <ele>1201.7</ele>
        <time>2020-11-17T12:11:34Z</time>
      </trkpt>
      <trkpt lat="28.5389000" lon="-17.8279630">
        <ele>1201.7</ele>
        <time>2020-11-17T12:11:35Z</time>
      </trkpt>
      <trkpt lat="28.5389950" lon="-17.8279520">
        <ele>1201.8</ele>
        <time>2020-11-17T12:11:36Z</time>
      </trkpt>
      <trkpt lat="28.5389950" lon="-17.8279520">
        <ele>1201.8</ele>
        <time>2020-11-17T12:11:37Z</time>
      </trkpt>
      <trkpt lat="28.5390850" lon="-17.8279430">
        <ele>1202.0</ele>
        <time>2020-11-17T12:11:38Z</time>
      </trkpt>
      <trkpt lat="28.5390850" lon="-17.8279430">
        <ele>1202.0</ele>
        <time>2020-11-17T12:11:39Z</time>
      </trkpt>
      <trkpt lat="28.5391630" lon="-17.8279380">
        <ele>1202.3</ele>
        <time>2020-11-17T12:11:40Z</time>
      </trkpt>
      <trkpt lat="28.5391970" lon="-17.8279380">
        <ele>1202.4</ele>
        <time>2020-11-17T12:11:41Z</time>
      </trkpt>
      <trkpt lat="28.5391970" lon="-17.8279380">
        <ele>1202.4</ele>
        <time>2020-11-17T12:11:42Z</time>
      </trkpt>
      <trkpt lat="28.5392620" lon="-17.8279330">
        <ele>1202.5</ele>
        <time>2020-11-17T12:11:43Z</time>
      </trkpt>
      <trkpt lat="28.5392920" lon="-17.8279300">
        <ele>1202.6</ele>
        <time>2020-11-17T12:11:44Z</time>
      </trkpt>
      <trkpt lat="28.5392920" lon="-17.8279300">
        <ele>1202.6</ele>
        <time>2020-11-17T12:11:45Z</time>
      </trkpt>
      <trkpt lat="28.5393620" lon="-17.8279120">
        <ele>1202.8</ele>
        <time>2020-11-17T12:11:46Z</time>
      </trkpt>
      <trkpt lat="28.5393620" lon="-17.8279120">
        <ele>1202.8</ele>
        <time>2020-11-17T12:11:47Z</time>
      </trkpt>
      <trkpt lat="28.5394700" lon="-17.8279250">
        <ele>1203.1</ele>
        <time>2020-11-17T12:11:48Z</time>
      </trkpt>
      <trkpt lat="28.5394700" lon="-17.8279250">
        <ele>1203.1</ele>
        <time>2020-11-17T12:11:49Z</time>
      </trkpt>
      <trkpt lat="28.5395430" lon="-17.8279400">
        <ele>1203.3</ele>
        <time>2020-11-17T12:11:50Z</time>
      </trkpt>
      <trkpt lat="28.5395430" lon="-17.8279400">
        <ele>1203.3</ele>
        <time>2020-11-17T12:11:51Z</time>
      </trkpt>
      <trkpt lat="28.5396220" lon="-17.8279630">
        <ele>1203.5</ele>
        <time>2020-11-17T12:11:52Z</time>
      </trkpt>
      <trkpt lat="28.5396220" lon="-17.8279630">
        <ele>1203.5</ele>
        <time>2020-11-17T12:11:53Z</time>
      </trkpt>
      <trkpt lat="28.5397050" lon="-17.8279850">
        <ele>1203.8</ele>
        <time>2020-11-17T12:11:54Z</time>
      </trkpt>
      <trkpt lat="28.5397050" lon="-17.8279850">
        <ele>1203.8</ele>
        <time>2020-11-17T12:11:55Z</time>
      </trkpt>
      <trkpt lat="28.5397920" lon="-17.8279980">
        <ele>1204.2</ele>
        <time>2020-11-17T12:11:56Z</time>
      </trkpt>
      <trkpt lat="28.5398400" lon="-17.8279980">
        <ele>1204.4</ele>
        <time>2020-11-17T12:11:57Z</time>
      </trkpt>
      <trkpt lat="28.5398400" lon="-17.8279980">
        <ele>1204.4</ele>
        <time>2020-11-17T12:11:58Z</time>
      </trkpt>
      <trkpt lat="28.5399120" lon="-17.8279850">
        <ele>1204.8</ele>
        <time>2020-11-17T12:11:59Z</time>
      </trkpt>
      <trkpt lat="28.5399430" lon="-17.8279620">
        <ele>1205.0</ele>
        <time>2020-11-17T12:12:00Z</time>
      </trkpt>
      <trkpt lat="28.5399430" lon="-17.8279620">
        <ele>1205.0</ele>
        <time>2020-11-17T12:12:01Z</time>
      </trkpt>
      <trkpt lat="28.5400100" lon="-17.8279370">
        <ele>1205.4</ele>
        <time>2020-11-17T12:12:02Z</time>
      </trkpt>
      <trkpt lat="28.5400430" lon="-17.8279250">
        <ele>1205.6</ele>
        <time>2020-11-17T12:12:03Z</time>
      </trkpt>
      <trkpt lat="28.5400430" lon="-17.8279250">
        <ele>1205.6</ele>
        <time>2020-11-17T12:12:04Z</time>
      </trkpt>
      <trkpt lat="28.5401120" lon="-17.8279130">
        <ele>1206.1</ele>
        <time>2020-11-17T12:12:05Z</time>
      </trkpt>
      <trkpt lat="28.5401420" lon="-17.8279050">
        <ele>1206.3</ele>
        <time>2020-11-17T12:12:06Z</time>
      </trkpt>
      <trkpt lat="28.5401420" lon="-17.8279050">
        <ele>1206.3</ele>
        <time>2020-11-17T12:12:07Z</time>
      </trkpt>
      <trkpt lat="28.5402070" lon="-17.8279180">
        <ele>1206.7</ele>
        <time>2020-11-17T12:12:08Z</time>
      </trkpt>
      <trkpt lat="28.5402070" lon="-17.8279180">
        <ele>1206.7</ele>
        <time>2020-11-17T12:12:09Z</time>
      </trkpt>
      <trkpt lat="28.5402730" lon="-17.8279630">
        <ele>1207.2</ele>
        <time>2020-11-17T12:12:10Z</time>
      </trkpt>
      <trkpt lat="28.5402980" lon="-17.8279830">
        <ele>1207.4</ele>
        <time>2020-11-17T12:12:11Z</time>
      </trkpt>
      <trkpt lat="28.5403220" lon="-17.8280070">
        <ele>1207.6</ele>
        <time>2020-11-17T12:12:12Z</time>
      </trkpt>
      <trkpt lat="28.5403220" lon="-17.8280070">
        <ele>1207.6</ele>
        <time>2020-11-17T12:12:13Z</time>
      </trkpt>
      <trkpt lat="28.5403650" lon="-17.8280480">
        <ele>1207.9</ele>
        <time>2020-11-17T12:12:14Z</time>
      </trkpt>
      <trkpt lat="28.5403650" lon="-17.8280480">
        <ele>1207.9</ele>
        <time>2020-11-17T12:12:15Z</time>
      </trkpt>
      <trkpt lat="28.5404270" lon="-17.8280850">
        <ele>1208.3</ele>
        <time>2020-11-17T12:12:16Z</time>
      </trkpt>
      <trkpt lat="28.5404450" lon="-17.8281000">
        <ele>1208.4</ele>
        <time>2020-11-17T12:12:17Z</time>
      </trkpt>
      <trkpt lat="28.5404670" lon="-17.8281170">
        <ele>1208.6</ele>
        <time>2020-11-17T12:12:18Z</time>
      </trkpt>
      <trkpt lat="28.5404670" lon="-17.8281170">
        <ele>1208.6</ele>
        <time>2020-11-17T12:12:19Z</time>
      </trkpt>
      <trkpt lat="28.5405050" lon="-17.8281450">
        <ele>1208.9</ele>
        <time>2020-11-17T12:12:20Z</time>
      </trkpt>
      <trkpt lat="28.5405050" lon="-17.8281450">
        <ele>1208.9</ele>
        <time>2020-11-17T12:12:21Z</time>
      </trkpt>
      <trkpt lat="28.5405450" lon="-17.8281820">
        <ele>1209.2</ele>
        <time>2020-11-17T12:12:22Z</time>
      </trkpt>
      <trkpt lat="28.5405650" lon="-17.8281900">
        <ele>1209.3</ele>
        <time>2020-11-17T12:12:23Z</time>
      </trkpt>
      <trkpt lat="28.5405650" lon="-17.8281900">
        <ele>1209.3</ele>
        <time>2020-11-17T12:12:24Z</time>
      </trkpt>
      <trkpt lat="28.5406050" lon="-17.8282080">
        <ele>1209.5</ele>
        <time>2020-11-17T12:12:25Z</time>
      </trkpt>
      <trkpt lat="28.5406330" lon="-17.8282150">
        <ele>1209.7</ele>
        <time>2020-11-17T12:12:26Z</time>
      </trkpt>
      <trkpt lat="28.5406620" lon="-17.8282150">
        <ele>1209.8</ele>
        <time>2020-11-17T12:12:27Z</time>
      </trkpt>
      <trkpt lat="28.5406820" lon="-17.8282100">
        <ele>1209.9</ele>
        <time>2020-11-17T12:12:28Z</time>
      </trkpt>
      <trkpt lat="28.5407030" lon="-17.8282030">
        <ele>1210.0</ele>
        <time>2020-11-17T12:12:29Z</time>
      </trkpt>
      <trkpt lat="28.5407030" lon="-17.8282030">
        <ele>1210.0</ele>
        <time>2020-11-17T12:12:30Z</time>
      </trkpt>
      <trkpt lat="28.5407380" lon="-17.8281650">
        <ele>1210.1</ele>
        <time>2020-11-17T12:12:31Z</time>
      </trkpt>
      <trkpt lat="28.5407380" lon="-17.8281650">
        <ele>1210.1</ele>
        <time>2020-11-17T12:12:32Z</time>
      </trkpt>
      <trkpt lat="28.5407720" lon="-17.8281200">
        <ele>1210.2</ele>
        <time>2020-11-17T12:12:33Z</time>
      </trkpt>
      <trkpt lat="28.5407720" lon="-17.8281200">
        <ele>1210.2</ele>
        <time>2020-11-17T12:12:34Z</time>
      </trkpt>
      <trkpt lat="28.5407980" lon="-17.8280650">
        <ele>1210.3</ele>
        <time>2020-11-17T12:12:35Z</time>
      </trkpt>
      <trkpt lat="28.5408080" lon="-17.8280300">
        <ele>1210.4</ele>
        <time>2020-11-17T12:12:36Z</time>
      </trkpt>
      <trkpt lat="28.5408080" lon="-17.8280300">
        <ele>1210.4</ele>
        <time>2020-11-17T12:12:37Z</time>
      </trkpt>
      <trkpt lat="28.5408350" lon="-17.8279550">
        <ele>1210.5</ele>
        <time>2020-11-17T12:12:38Z</time>
      </trkpt>
      <trkpt lat="28.5408350" lon="-17.8279550">
        <ele>1210.5</ele>
        <time>2020-11-17T12:12:39Z</time>
      </trkpt>
      <trkpt lat="28.5408650" lon="-17.8278800">
        <ele>1210.6</ele>
        <time>2020-11-17T12:12:40Z</time>
      </trkpt>
      <trkpt lat="28.5408650" lon="-17.8278800">
        <ele>1210.6</ele>
        <time>2020-11-17T12:12:41Z</time>
      </trkpt>
      <trkpt lat="28.5408880" lon="-17.8278080">
        <ele>1210.7</ele>
        <time>2020-11-17T12:12:42Z</time>
      </trkpt>
      <trkpt lat="28.5408880" lon="-17.8278080">
        <ele>1210.7</ele>
        <time>2020-11-17T12:12:43Z</time>
      </trkpt>
      <trkpt lat="28.5409180" lon="-17.8277550">
        <ele>1210.7</ele>
        <time>2020-11-17T12:12:44Z</time>
      </trkpt>
      <trkpt lat="28.5409400" lon="-17.8277270">
        <ele>1210.7</ele>
        <time>2020-11-17T12:12:45Z</time>
      </trkpt>
      <trkpt lat="28.5409400" lon="-17.8277270">
        <ele>1210.7</ele>
        <time>2020-11-17T12:12:46Z</time>
      </trkpt>
      <trkpt lat="28.5409920" lon="-17.8276850">
        <ele>1210.8</ele>
        <time>2020-11-17T12:12:47Z</time>
      </trkpt>
      <trkpt lat="28.5410220" lon="-17.8276630">
        <ele>1210.9</ele>
        <time>2020-11-17T12:12:48Z</time>
      </trkpt>
      <trkpt lat="28.5410500" lon="-17.8276430">
        <ele>1210.9</ele>
        <time>2020-11-17T12:12:49Z</time>
      </trkpt>
      <trkpt lat="28.5410500" lon="-17.8276430">
        <ele>1210.9</ele>
        <time>2020-11-17T12:12:50Z</time>
      </trkpt>
      <trkpt lat="28.5411170" lon="-17.8276230">
        <ele>1211.1</ele>
        <time>2020-11-17T12:12:51Z</time>
      </trkpt>
      <trkpt lat="28.5411170" lon="-17.8276230">
        <ele>1211.1</ele>
        <time>2020-11-17T12:12:52Z</time>
      </trkpt>
      <trkpt lat="28.5411870" lon="-17.8276030">
        <ele>1211.3</ele>
        <time>2020-11-17T12:12:53Z</time>
      </trkpt>
      <trkpt lat="28.5412220" lon="-17.8276050">
        <ele>1211.5</ele>
        <time>2020-11-17T12:12:54Z</time>
      </trkpt>
      <trkpt lat="28.5412220" lon="-17.8276050">
        <ele>1211.5</ele>
        <time>2020-11-17T12:12:55Z</time>
      </trkpt>
      <trkpt lat="28.5412900" lon="-17.8276270">
        <ele>1211.8</ele>
        <time>2020-11-17T12:12:56Z</time>
      </trkpt>
      <trkpt lat="28.5412900" lon="-17.8276270">
        <ele>1211.8</ele>
        <time>2020-11-17T12:12:57Z</time>
      </trkpt>
      <trkpt lat="28.5413500" lon="-17.8276620">
        <ele>1212.1</ele>
        <time>2020-11-17T12:12:58Z</time>
      </trkpt>
      <trkpt lat="28.5413870" lon="-17.8276820">
        <ele>1212.3</ele>
        <time>2020-11-17T12:12:59Z</time>
      </trkpt>
      <trkpt lat="28.5413870" lon="-17.8276820">
        <ele>1212.3</ele>
        <time>2020-11-17T12:13:00Z</time>
      </trkpt>
      <trkpt lat="28.5414500" lon="-17.8277170">
        <ele>1212.8</ele>
        <time>2020-11-17T12:13:01Z</time>
      </trkpt>
      <trkpt lat="28.5414500" lon="-17.8277170">
        <ele>1212.8</ele>
        <time>2020-11-17T12:13:02Z</time>
      </trkpt>
      <trkpt lat="28.5415020" lon="-17.8277530">
        <ele>1213.2</ele>
        <time>2020-11-17T12:13:03Z</time>
      </trkpt>
      <trkpt lat="28.5415020" lon="-17.8277530">
        <ele>1213.2</ele>
        <time>2020-11-17T12:13:04Z</time>
      </trkpt>
      <trkpt lat="28.5415530" lon="-17.8277770">
        <ele>1213.7</ele>
        <time>2020-11-17T12:13:05Z</time>
      </trkpt>
      <trkpt lat="28.5415530" lon="-17.8277770">
        <ele>1213.7</ele>
        <time>2020-11-17T12:13:06Z</time>
      </trkpt>
      <trkpt lat="28.5415950" lon="-17.8277880">
        <ele>1214.0</ele>
        <time>2020-11-17T12:13:07Z</time>
      </trkpt>
      <trkpt lat="28.5415950" lon="-17.8277880">
        <ele>1214.0</ele>
        <time>2020-11-17T12:13:08Z</time>
      </trkpt>
      <trkpt lat="28.5416480" lon="-17.8277680">
        <ele>1214.4</ele>
        <time>2020-11-17T12:13:09Z</time>
      </trkpt>
      <trkpt lat="28.5416480" lon="-17.8277680">
        <ele>1214.4</ele>
        <time>2020-11-17T12:13:10Z</time>
      </trkpt>
      <trkpt lat="28.5417000" lon="-17.8277370">
        <ele>1214.9</ele>
        <time>2020-11-17T12:13:11Z</time>
      </trkpt>
      <trkpt lat="28.5417220" lon="-17.8277200">
        <ele>1215.1</ele>
        <time>2020-11-17T12:13:12Z</time>
      </trkpt>
      <trkpt lat="28.5417220" lon="-17.8277200">
        <ele>1215.1</ele>
        <time>2020-11-17T12:13:13Z</time>
      </trkpt>
      <trkpt lat="28.5417580" lon="-17.8276920">
        <ele>1215.4</ele>
        <time>2020-11-17T12:13:14Z</time>
      </trkpt>
      <trkpt lat="28.5417750" lon="-17.8276830">
        <ele>1215.6</ele>
        <time>2020-11-17T12:13:15Z</time>
      </trkpt>
      <trkpt lat="28.5417750" lon="-17.8276830">
        <ele>1215.6</ele>
        <time>2020-11-17T12:13:16Z</time>
      </trkpt>
      <trkpt lat="28.5418350" lon="-17.8276470">
        <ele>1216.1</ele>
        <time>2020-11-17T12:13:17Z</time>
      </trkpt>
      <trkpt lat="28.5418700" lon="-17.8276370">
        <ele>1216.4</ele>
        <time>2020-11-17T12:13:18Z</time>
      </trkpt>
      <trkpt lat="28.5418700" lon="-17.8276370">
        <ele>1216.4</ele>
        <time>2020-11-17T12:13:19Z</time>
      </trkpt>
      <trkpt lat="28.5419050" lon="-17.8275980">
        <ele>1216.8</ele>
        <time>2020-11-17T12:13:20Z</time>
      </trkpt>
      <trkpt lat="28.5419180" lon="-17.8275820">
        <ele>1217.0</ele>
        <time>2020-11-17T12:13:21Z</time>
      </trkpt>
      <trkpt lat="28.5419370" lon="-17.8275630">
        <ele>1217.2</ele>
        <time>2020-11-17T12:13:22Z</time>
      </trkpt>
      <trkpt lat="28.5419370" lon="-17.8275630">
        <ele>1217.2</ele>
        <time>2020-11-17T12:13:23Z</time>
      </trkpt>
      <trkpt lat="28.5419680" lon="-17.8275270">
        <ele>1217.6</ele>
        <time>2020-11-17T12:13:24Z</time>
      </trkpt>
      <trkpt lat="28.5419680" lon="-17.8275270">
        <ele>1217.6</ele>
        <time>2020-11-17T12:13:25Z</time>
      </trkpt>
      <trkpt lat="28.5420020" lon="-17.8274980">
        <ele>1218.0</ele>
        <time>2020-11-17T12:13:26Z</time>
      </trkpt>
      <trkpt lat="28.5420020" lon="-17.8274980">
        <ele>1218.0</ele>
        <time>2020-11-17T12:13:27Z</time>
      </trkpt>
      <trkpt lat="28.5420420" lon="-17.8274800">
        <ele>1218.4</ele>
        <time>2020-11-17T12:13:28Z</time>
      </trkpt>
      <trkpt lat="28.5420420" lon="-17.8274800">
        <ele>1218.4</ele>
        <time>2020-11-17T12:13:29Z</time>
      </trkpt>
      <trkpt lat="28.5420780" lon="-17.8274670">
        <ele>1218.8</ele>
        <time>2020-11-17T12:13:30Z</time>
      </trkpt>
      <trkpt lat="28.5420780" lon="-17.8274670">
        <ele>1218.8</ele>
        <time>2020-11-17T12:13:31Z</time>
      </trkpt>
      <trkpt lat="28.5421130" lon="-17.8274630">
        <ele>1219.1</ele>
        <time>2020-11-17T12:13:32Z</time>
      </trkpt>
      <trkpt lat="28.5421320" lon="-17.8274600">
        <ele>1219.3</ele>
        <time>2020-11-17T12:13:33Z</time>
      </trkpt>
      <trkpt lat="28.5421320" lon="-17.8274600">
        <ele>1219.3</ele>
        <time>2020-11-17T12:13:34Z</time>
      </trkpt>
      <trkpt lat="28.5421580" lon="-17.8274570">
        <ele>1219.6</ele>
        <time>2020-11-17T12:13:35Z</time>
      </trkpt>
      <trkpt lat="28.5421580" lon="-17.8274570">
        <ele>1219.6</ele>
        <time>2020-11-17T12:13:36Z</time>
      </trkpt>
      <trkpt lat="28.5422030" lon="-17.8274430">
        <ele>1220.0</ele>
        <time>2020-11-17T12:13:37Z</time>
      </trkpt>
      <trkpt lat="28.5422030" lon="-17.8274430">
        <ele>1220.0</ele>
        <time>2020-11-17T12:13:38Z</time>
      </trkpt>
      <trkpt lat="28.5422450" lon="-17.8274280">
        <ele>1220.4</ele>
        <time>2020-11-17T12:13:39Z</time>
      </trkpt>
      <trkpt lat="28.5422450" lon="-17.8274280">
        <ele>1220.4</ele>
        <time>2020-11-17T12:13:40Z</time>
      </trkpt>
      <trkpt lat="28.5422750" lon="-17.8274050">
        <ele>1220.7</ele>
        <time>2020-11-17T12:13:41Z</time>
      </trkpt>
      <trkpt lat="28.5422880" lon="-17.8273900">
        <ele>1220.8</ele>
        <time>2020-11-17T12:13:42Z</time>
      </trkpt>
      <trkpt lat="28.5422880" lon="-17.8273900">
        <ele>1220.8</ele>
        <time>2020-11-17T12:13:43Z</time>
      </trkpt>
      <trkpt lat="28.5423170" lon="-17.8273530">
        <ele>1221.1</ele>
        <time>2020-11-17T12:13:44Z</time>
      </trkpt>
      <trkpt lat="28.5423170" lon="-17.8273530">
        <ele>1221.1</ele>
        <time>2020-11-17T12:13:45Z</time>
      </trkpt>
      <trkpt lat="28.5423470" lon="-17.8273250">
        <ele>1221.4</ele>
        <time>2020-11-17T12:13:46Z</time>
      </trkpt>
      <trkpt lat="28.5423580" lon="-17.8273120">
        <ele>1221.6</ele>
        <time>2020-11-17T12:13:47Z</time>
      </trkpt>
      <trkpt lat="28.5423700" lon="-17.8273020">
        <ele>1221.7</ele>
        <time>2020-11-17T12:13:48Z</time>
      </trkpt>
      <trkpt lat="28.5423700" lon="-17.8273020">
        <ele>1221.7</ele>
        <time>2020-11-17T12:13:49Z</time>
      </trkpt>
      <trkpt lat="28.5424080" lon="-17.8272820">
        <ele>1222.0</ele>
        <time>2020-11-17T12:13:50Z</time>
      </trkpt>
      <trkpt lat="28.5424080" lon="-17.8272820">
        <ele>1222.0</ele>
        <time>2020-11-17T12:13:51Z</time>
      </trkpt>
      <trkpt lat="28.5424550" lon="-17.8272570">
        <ele>1222.5</ele>
        <time>2020-11-17T12:13:52Z</time>
      </trkpt>
      <trkpt lat="28.5424550" lon="-17.8272570">
        <ele>1222.5</ele>
        <time>2020-11-17T12:13:53Z</time>
      </trkpt>
      <trkpt lat="28.5424950" lon="-17.8272550">
        <ele>1222.8</ele>
        <time>2020-11-17T12:13:54Z</time>
      </trkpt>
      <trkpt lat="28.5425130" lon="-17.8272570">
        <ele>1223.0</ele>
        <time>2020-11-17T12:13:55Z</time>
      </trkpt>
      <trkpt lat="28.5425130" lon="-17.8272570">
        <ele>1223.0</ele>
        <time>2020-11-17T12:13:56Z</time>
      </trkpt>
      <trkpt lat="28.5425430" lon="-17.8272570">
        <ele>1223.2</ele>
        <time>2020-11-17T12:13:57Z</time>
      </trkpt>
      <trkpt lat="28.5425650" lon="-17.8272620">
        <ele>1223.4</ele>
        <time>2020-11-17T12:13:58Z</time>
      </trkpt>
      <trkpt lat="28.5425650" lon="-17.8272620">
        <ele>1223.4</ele>
        <time>2020-11-17T12:13:59Z</time>
      </trkpt>
      <trkpt lat="28.5426000" lon="-17.8272600">
        <ele>1223.6</ele>
        <time>2020-11-17T12:14:00Z</time>
      </trkpt>
      <trkpt lat="28.5426000" lon="-17.8272600">
        <ele>1223.6</ele>
        <time>2020-11-17T12:14:01Z</time>
      </trkpt>
      <trkpt lat="28.5426380" lon="-17.8272550">
        <ele>1223.9</ele>
        <time>2020-11-17T12:14:02Z</time>
      </trkpt>
      <trkpt lat="28.5426380" lon="-17.8272550">
        <ele>1223.9</ele>
        <time>2020-11-17T12:14:03Z</time>
      </trkpt>
      <trkpt lat="28.5426780" lon="-17.8272450">
        <ele>1224.3</ele>
        <time>2020-11-17T12:14:04Z</time>
      </trkpt>
      <trkpt lat="28.5426780" lon="-17.8272450">
        <ele>1224.3</ele>
        <time>2020-11-17T12:14:05Z</time>
      </trkpt>
      <trkpt lat="28.5427200" lon="-17.8272380">
        <ele>1224.6</ele>
        <time>2020-11-17T12:14:06Z</time>
      </trkpt>
      <trkpt lat="28.5427400" lon="-17.8272350">
        <ele>1224.7</ele>
        <time>2020-11-17T12:14:07Z</time>
      </trkpt>
      <trkpt lat="28.5427620" lon="-17.8272330">
        <ele>1224.9</ele>
        <time>2020-11-17T12:14:08Z</time>
      </trkpt>
      <trkpt lat="28.5427780" lon="-17.8272330">
        <ele>1225.0</ele>
        <time>2020-11-17T12:14:09Z</time>
      </trkpt>
      <trkpt lat="28.5427780" lon="-17.8272330">
        <ele>1225.0</ele>
        <time>2020-11-17T12:14:10Z</time>
      </trkpt>
      <trkpt lat="28.5428120" lon="-17.8272270">
        <ele>1225.3</ele>
        <time>2020-11-17T12:14:11Z</time>
      </trkpt>
      <trkpt lat="28.5428280" lon="-17.8272230">
        <ele>1225.5</ele>
        <time>2020-11-17T12:14:12Z</time>
      </trkpt>
      <trkpt lat="28.5428280" lon="-17.8272230">
        <ele>1225.5</ele>
        <time>2020-11-17T12:14:13Z</time>
      </trkpt>
      <trkpt lat="28.5428620" lon="-17.8272230">
        <ele>1225.8</ele>
        <time>2020-11-17T12:14:14Z</time>
      </trkpt>
      <trkpt lat="28.5428620" lon="-17.8272230">
        <ele>1225.8</ele>
        <time>2020-11-17T12:14:15Z</time>
      </trkpt>
      <trkpt lat="28.5428880" lon="-17.8272170">
        <ele>1226.0</ele>
        <time>2020-11-17T12:14:16Z</time>
      </trkpt>
      <trkpt lat="28.5429020" lon="-17.8272100">
        <ele>1226.2</ele>
        <time>2020-11-17T12:14:17Z</time>
      </trkpt>
      <trkpt lat="28.5429170" lon="-17.8272030">
        <ele>1226.3</ele>
        <time>2020-11-17T12:14:18Z</time>
      </trkpt>
      <trkpt lat="28.5429170" lon="-17.8272030">
        <ele>1226.3</ele>
        <time>2020-11-17T12:14:19Z</time>
      </trkpt>
      <trkpt lat="28.5429620" lon="-17.8271880">
        <ele>1226.8</ele>
        <time>2020-11-17T12:14:20Z</time>
      </trkpt>
      <trkpt lat="28.5429620" lon="-17.8271880">
        <ele>1226.8</ele>
        <time>2020-11-17T12:14:21Z</time>
      </trkpt>
      <trkpt lat="28.5429950" lon="-17.8271450">
        <ele>1227.2</ele>
        <time>2020-11-17T12:14:22Z</time>
      </trkpt>
      <trkpt lat="28.5430080" lon="-17.8271270">
        <ele>1227.4</ele>
        <time>2020-11-17T12:14:23Z</time>
      </trkpt>
      <trkpt lat="28.5430230" lon="-17.8271080">
        <ele>1227.7</ele>
        <time>2020-11-17T12:14:24Z</time>
      </trkpt>
      <trkpt lat="28.5430420" lon="-17.8270850">
        <ele>1228.0</ele>
        <time>2020-11-17T12:14:25Z</time>
      </trkpt>
      <trkpt lat="28.5430420" lon="-17.8270850">
        <ele>1228.0</ele>
        <time>2020-11-17T12:14:26Z</time>
      </trkpt>
      <trkpt lat="28.5430880" lon="-17.8270430">
        <ele>1228.6</ele>
        <time>2020-11-17T12:14:27Z</time>
      </trkpt>
      <trkpt lat="28.5431100" lon="-17.8270270">
        <ele>1228.9</ele>
        <time>2020-11-17T12:14:28Z</time>
      </trkpt>
      <trkpt lat="28.5431100" lon="-17.8270270">
        <ele>1228.9</ele>
        <time>2020-11-17T12:14:29Z</time>
      </trkpt>
      <trkpt lat="28.5431420" lon="-17.8269800">
        <ele>1229.5</ele>
        <time>2020-11-17T12:14:30Z</time>
      </trkpt>
      <trkpt lat="28.5431420" lon="-17.8269800">
        <ele>1229.5</ele>
        <time>2020-11-17T12:14:31Z</time>
      </trkpt>
      <trkpt lat="28.5431750" lon="-17.8269470">
        <ele>1230.0</ele>
        <time>2020-11-17T12:14:32Z</time>
      </trkpt>
      <trkpt lat="28.5431930" lon="-17.8269300">
        <ele>1230.2</ele>
        <time>2020-11-17T12:14:33Z</time>
      </trkpt>
      <trkpt lat="28.5431930" lon="-17.8269300">
        <ele>1230.2</ele>
        <time>2020-11-17T12:14:34Z</time>
      </trkpt>
      <trkpt lat="28.5432320" lon="-17.8269100">
        <ele>1230.6</ele>
        <time>2020-11-17T12:14:35Z</time>
      </trkpt>
      <trkpt lat="28.5432500" lon="-17.8268980">
        <ele>1230.8</ele>
        <time>2020-11-17T12:14:36Z</time>
      </trkpt>
      <trkpt lat="28.5432500" lon="-17.8268980">
        <ele>1230.8</ele>
        <time>2020-11-17T12:14:37Z</time>
      </trkpt>
      <trkpt lat="28.5432900" lon="-17.8268800">
        <ele>1231.2</ele>
        <time>2020-11-17T12:14:38Z</time>
      </trkpt>
      <trkpt lat="28.5432900" lon="-17.8268800">
        <ele>1231.2</ele>
        <time>2020-11-17T12:14:39Z</time>
      </trkpt>
      <trkpt lat="28.5433320" lon="-17.8268700">
        <ele>1231.6</ele>
        <time>2020-11-17T12:14:40Z</time>
      </trkpt>
      <trkpt lat="28.5433530" lon="-17.8268700">
        <ele>1231.8</ele>
        <time>2020-11-17T12:14:41Z</time>
      </trkpt>
      <trkpt lat="28.5433530" lon="-17.8268700">
        <ele>1231.8</ele>
        <time>2020-11-17T12:14:42Z</time>
      </trkpt>
      <trkpt lat="28.5433920" lon="-17.8268630">
        <ele>1232.2</ele>
        <time>2020-11-17T12:14:43Z</time>
      </trkpt>
      <trkpt lat="28.5433920" lon="-17.8268630">
        <ele>1232.2</ele>
        <time>2020-11-17T12:14:44Z</time>
      </trkpt>
      <trkpt lat="28.5434320" lon="-17.8268680">
        <ele>1232.6</ele>
        <time>2020-11-17T12:14:45Z</time>
      </trkpt>
      <trkpt lat="28.5434320" lon="-17.8268680">
        <ele>1232.6</ele>
        <time>2020-11-17T12:14:46Z</time>
      </trkpt>
      <trkpt lat="28.5434700" lon="-17.8268750">
        <ele>1233.0</ele>
        <time>2020-11-17T12:14:47Z</time>
      </trkpt>
      <trkpt lat="28.5434880" lon="-17.8268800">
        <ele>1233.1</ele>
        <time>2020-11-17T12:14:48Z</time>
      </trkpt>
      <trkpt lat="28.5434880" lon="-17.8268800">
        <ele>1233.1</ele>
        <time>2020-11-17T12:14:49Z</time>
      </trkpt>
      <trkpt lat="28.5435230" lon="-17.8268980">
        <ele>1233.5</ele>
        <time>2020-11-17T12:14:50Z</time>
      </trkpt>
      <trkpt lat="28.5435380" lon="-17.8268970">
        <ele>1233.6</ele>
        <time>2020-11-17T12:14:51Z</time>
      </trkpt>
      <trkpt lat="28.5435380" lon="-17.8268970">
        <ele>1233.6</ele>
        <time>2020-11-17T12:14:52Z</time>
      </trkpt>
      <trkpt lat="28.5435670" lon="-17.8269070">
        <ele>1233.9</ele>
        <time>2020-11-17T12:14:53Z</time>
      </trkpt>
      <trkpt lat="28.5435850" lon="-17.8269130">
        <ele>1234.0</ele>
        <time>2020-11-17T12:14:54Z</time>
      </trkpt>
      <trkpt lat="28.5435850" lon="-17.8269130">
        <ele>1234.0</ele>
        <time>2020-11-17T12:14:55Z</time>
      </trkpt>
      <trkpt lat="28.5436220" lon="-17.8269130">
        <ele>1234.3</ele>
        <time>2020-11-17T12:14:56Z</time>
      </trkpt>
      <trkpt lat="28.5436220" lon="-17.8269130">
        <ele>1234.3</ele>
        <time>2020-11-17T12:14:57Z</time>
      </trkpt>
      <trkpt lat="28.5436600" lon="-17.8269270">
        <ele>1234.7</ele>
        <time>2020-11-17T12:14:58Z</time>
      </trkpt>
      <trkpt lat="28.5436800" lon="-17.8269330">
        <ele>1234.8</ele>
        <time>2020-11-17T12:14:59Z</time>
      </trkpt>
      <trkpt lat="28.5436930" lon="-17.8269220">
        <ele>1234.9</ele>
        <time>2020-11-17T12:15:00Z</time>
      </trkpt>
      <trkpt lat="28.5436930" lon="-17.8269220">
        <ele>1234.9</ele>
        <time>2020-11-17T12:15:01Z</time>
      </trkpt>
      <trkpt lat="28.5437200" lon="-17.8268930">
        <ele>1235.2</ele>
        <time>2020-11-17T12:15:02Z</time>
      </trkpt>
      <trkpt lat="28.5437350" lon="-17.8268800">
        <ele>1235.4</ele>
        <time>2020-11-17T12:15:03Z</time>
      </trkpt>
      <trkpt lat="28.5437350" lon="-17.8268800">
        <ele>1235.4</ele>
        <time>2020-11-17T12:15:04Z</time>
      </trkpt>
      <trkpt lat="28.5437630" lon="-17.8268480">
        <ele>1235.7</ele>
        <time>2020-11-17T12:15:05Z</time>
      </trkpt>
      <trkpt lat="28.5437780" lon="-17.8268320">
        <ele>1235.9</ele>
        <time>2020-11-17T12:15:06Z</time>
      </trkpt>
      <trkpt lat="28.5437780" lon="-17.8268320">
        <ele>1235.9</ele>
        <time>2020-11-17T12:15:07Z</time>
      </trkpt>
      <trkpt lat="28.5438030" lon="-17.8267980">
        <ele>1236.2</ele>
        <time>2020-11-17T12:15:08Z</time>
      </trkpt>
      <trkpt lat="28.5438180" lon="-17.8267830">
        <ele>1236.3</ele>
        <time>2020-11-17T12:15:09Z</time>
      </trkpt>
      <trkpt lat="28.5438180" lon="-17.8267830">
        <ele>1236.3</ele>
        <time>2020-11-17T12:15:10Z</time>
      </trkpt>
      <trkpt lat="28.5438480" lon="-17.8267520">
        <ele>1236.7</ele>
        <time>2020-11-17T12:15:11Z</time>
      </trkpt>
      <trkpt lat="28.5438650" lon="-17.8267380">
        <ele>1236.8</ele>
        <time>2020-11-17T12:15:12Z</time>
      </trkpt>
      <trkpt lat="28.5438650" lon="-17.8267380">
        <ele>1236.8</ele>
        <time>2020-11-17T12:15:13Z</time>
      </trkpt>
      <trkpt lat="28.5438930" lon="-17.8267050">
        <ele>1237.1</ele>
        <time>2020-11-17T12:15:14Z</time>
      </trkpt>
      <trkpt lat="28.5439080" lon="-17.8266920">
        <ele>1237.3</ele>
        <time>2020-11-17T12:15:15Z</time>
      </trkpt>
      <trkpt lat="28.5439080" lon="-17.8266920">
        <ele>1237.3</ele>
        <time>2020-11-17T12:15:16Z</time>
      </trkpt>
      <trkpt lat="28.5439400" lon="-17.8266700">
        <ele>1237.5</ele>
        <time>2020-11-17T12:15:17Z</time>
      </trkpt>
      <trkpt lat="28.5439570" lon="-17.8266600">
        <ele>1237.6</ele>
        <time>2020-11-17T12:15:18Z</time>
      </trkpt>
      <trkpt lat="28.5439670" lon="-17.8266400">
        <ele>1237.7</ele>
        <time>2020-11-17T12:15:19Z</time>
      </trkpt>
      <trkpt lat="28.5439670" lon="-17.8266400">
        <ele>1237.7</ele>
        <time>2020-11-17T12:15:20Z</time>
      </trkpt>
      <trkpt lat="28.5440120" lon="-17.8266070">
        <ele>1238.0</ele>
        <time>2020-11-17T12:15:21Z</time>
      </trkpt>
      <trkpt lat="28.5440120" lon="-17.8266070">
        <ele>1238.0</ele>
        <time>2020-11-17T12:15:22Z</time>
      </trkpt>
      <trkpt lat="28.5440600" lon="-17.8265970">
        <ele>1238.3</ele>
        <time>2020-11-17T12:15:23Z</time>
      </trkpt>
      <trkpt lat="28.5440750" lon="-17.8265900">
        <ele>1238.3</ele>
        <time>2020-11-17T12:15:24Z</time>
      </trkpt>
      <trkpt lat="28.5440750" lon="-17.8265900">
        <ele>1238.3</ele>
        <time>2020-11-17T12:15:25Z</time>
      </trkpt>
      <trkpt lat="28.5441200" lon="-17.8265720">
        <ele>1238.6</ele>
        <time>2020-11-17T12:15:26Z</time>
      </trkpt>
      <trkpt lat="28.5441200" lon="-17.8265720">
        <ele>1238.6</ele>
        <time>2020-11-17T12:15:27Z</time>
      </trkpt>
      <trkpt lat="28.5441770" lon="-17.8265550">
        <ele>1238.8</ele>
        <time>2020-11-17T12:15:28Z</time>
      </trkpt>
      <trkpt lat="28.5441770" lon="-17.8265550">
        <ele>1238.8</ele>
        <time>2020-11-17T12:15:29Z</time>
      </trkpt>
      <trkpt lat="28.5442270" lon="-17.8265450">
        <ele>1239.0</ele>
        <time>2020-11-17T12:15:30Z</time>
      </trkpt>
      <trkpt lat="28.5442270" lon="-17.8265450">
        <ele>1239.0</ele>
        <time>2020-11-17T12:15:31Z</time>
      </trkpt>
      <trkpt lat="28.5442680" lon="-17.8265500">
        <ele>1239.2</ele>
        <time>2020-11-17T12:15:32Z</time>
      </trkpt>
      <trkpt lat="28.5442680" lon="-17.8265500">
        <ele>1239.2</ele>
        <time>2020-11-17T12:15:33Z</time>
      </trkpt>
      <trkpt lat="28.5443200" lon="-17.8265670">
        <ele>1239.5</ele>
        <time>2020-11-17T12:15:34Z</time>
      </trkpt>
      <trkpt lat="28.5443200" lon="-17.8265670">
        <ele>1239.5</ele>
        <time>2020-11-17T12:15:35Z</time>
      </trkpt>
      <trkpt lat="28.5443720" lon="-17.8265880">
        <ele>1239.8</ele>
        <time>2020-11-17T12:15:36Z</time>
      </trkpt>
      <trkpt lat="28.5443720" lon="-17.8265880">
        <ele>1239.8</ele>
        <time>2020-11-17T12:15:37Z</time>
      </trkpt>
      <trkpt lat="28.5444120" lon="-17.8266230">
        <ele>1240.0</ele>
        <time>2020-11-17T12:15:38Z</time>
      </trkpt>
      <trkpt lat="28.5444120" lon="-17.8266230">
        <ele>1240.0</ele>
        <time>2020-11-17T12:15:39Z</time>
      </trkpt>
      <trkpt lat="28.5444520" lon="-17.8266470">
        <ele>1240.2</ele>
        <time>2020-11-17T12:15:40Z</time>
      </trkpt>
      <trkpt lat="28.5444750" lon="-17.8266620">
        <ele>1240.4</ele>
        <time>2020-11-17T12:15:41Z</time>
      </trkpt>
      <trkpt lat="28.5444750" lon="-17.8266620">
        <ele>1240.4</ele>
        <time>2020-11-17T12:15:42Z</time>
      </trkpt>
      <trkpt lat="28.5445280" lon="-17.8266970">
        <ele>1240.7</ele>
        <time>2020-11-17T12:15:43Z</time>
      </trkpt>
      <trkpt lat="28.5445280" lon="-17.8266970">
        <ele>1240.7</ele>
        <time>2020-11-17T12:15:44Z</time>
      </trkpt>
      <trkpt lat="28.5445780" lon="-17.8267420">
        <ele>1241.0</ele>
        <time>2020-11-17T12:15:45Z</time>
      </trkpt>
      <trkpt lat="28.5446020" lon="-17.8267600">
        <ele>1241.2</ele>
        <time>2020-11-17T12:15:46Z</time>
      </trkpt>
      <trkpt lat="28.5446020" lon="-17.8267600">
        <ele>1241.2</ele>
        <time>2020-11-17T12:15:47Z</time>
      </trkpt>
      <trkpt lat="28.5446470" lon="-17.8267980">
        <ele>1241.5</ele>
        <time>2020-11-17T12:15:48Z</time>
      </trkpt>
      <trkpt lat="28.5446670" lon="-17.8268120">
        <ele>1241.6</ele>
        <time>2020-11-17T12:15:49Z</time>
      </trkpt>
      <trkpt lat="28.5446670" lon="-17.8268120">
        <ele>1241.6</ele>
        <time>2020-11-17T12:15:50Z</time>
      </trkpt>
      <trkpt lat="28.5447030" lon="-17.8268420">
        <ele>1242.0</ele>
        <time>2020-11-17T12:15:51Z</time>
      </trkpt>
      <trkpt lat="28.5447030" lon="-17.8268420">
        <ele>1242.0</ele>
        <time>2020-11-17T12:15:52Z</time>
      </trkpt>
      <trkpt lat="28.5447480" lon="-17.8268680">
        <ele>1242.3</ele>
        <time>2020-11-17T12:15:53Z</time>
      </trkpt>
      <trkpt lat="28.5447620" lon="-17.8268830">
        <ele>1242.4</ele>
        <time>2020-11-17T12:15:54Z</time>
      </trkpt>
      <trkpt lat="28.5447620" lon="-17.8268830">
        <ele>1242.4</ele>
        <time>2020-11-17T12:15:55Z</time>
      </trkpt>
      <trkpt lat="28.5447920" lon="-17.8269120">
        <ele>1242.7</ele>
        <time>2020-11-17T12:15:56Z</time>
      </trkpt>
      <trkpt lat="28.5448120" lon="-17.8269230">
        <ele>1242.9</ele>
        <time>2020-11-17T12:15:57Z</time>
      </trkpt>
      <trkpt lat="28.5448120" lon="-17.8269230">
        <ele>1242.9</ele>
        <time>2020-11-17T12:15:58Z</time>
      </trkpt>
      <trkpt lat="28.5448370" lon="-17.8269420">
        <ele>1243.1</ele>
        <time>2020-11-17T12:15:59Z</time>
      </trkpt>
      <trkpt lat="28.5448430" lon="-17.8269520">
        <ele>1243.1</ele>
        <time>2020-11-17T12:16:00Z</time>
      </trkpt>
      <trkpt lat="28.5448430" lon="-17.8269520">
        <ele>1243.1</ele>
        <time>2020-11-17T12:16:01Z</time>
      </trkpt>
      <trkpt lat="28.5448720" lon="-17.8269730">
        <ele>1243.3</ele>
        <time>2020-11-17T12:16:02Z</time>
      </trkpt>
      <trkpt lat="28.5448830" lon="-17.8269820">
        <ele>1243.4</ele>
        <time>2020-11-17T12:16:03Z</time>
      </trkpt>
      <trkpt lat="28.5448830" lon="-17.8269820">
        <ele>1243.4</ele>
        <time>2020-11-17T12:16:04Z</time>
      </trkpt>
      <trkpt lat="28.5449280" lon="-17.8269900">
        <ele>1243.7</ele>
        <time>2020-11-17T12:16:05Z</time>
      </trkpt>
      <trkpt lat="28.5449470" lon="-17.8269850">
        <ele>1243.8</ele>
        <time>2020-11-17T12:16:06Z</time>
      </trkpt>
      <trkpt lat="28.5449470" lon="-17.8269850">
        <ele>1243.8</ele>
        <time>2020-11-17T12:16:07Z</time>
      </trkpt>
      <trkpt lat="28.5449830" lon="-17.8269570">
        <ele>1244.0</ele>
        <time>2020-11-17T12:16:08Z</time>
      </trkpt>
      <trkpt lat="28.5449830" lon="-17.8269570">
        <ele>1244.0</ele>
        <time>2020-11-17T12:16:09Z</time>
      </trkpt>
      <trkpt lat="28.5450180" lon="-17.8269170">
        <ele>1244.3</ele>
        <time>2020-11-17T12:16:10Z</time>
      </trkpt>
      <trkpt lat="28.5450180" lon="-17.8269170">
        <ele>1244.3</ele>
        <time>2020-11-17T12:16:11Z</time>
      </trkpt>
      <trkpt lat="28.5450600" lon="-17.8268630">
        <ele>1244.6</ele>
        <time>2020-11-17T12:16:12Z</time>
      </trkpt>
      <trkpt lat="28.5450600" lon="-17.8268630">
        <ele>1244.6</ele>
        <time>2020-11-17T12:16:13Z</time>
      </trkpt>
      <trkpt lat="28.5450930" lon="-17.8268180">
        <ele>1244.9</ele>
        <time>2020-11-17T12:16:14Z</time>
      </trkpt>
      <trkpt lat="28.5450930" lon="-17.8267950">
        <ele>1245.0</ele>
        <time>2020-11-17T12:16:15Z</time>
      </trkpt>
      <trkpt lat="28.5450930" lon="-17.8267950">
        <ele>1245.0</ele>
        <time>2020-11-17T12:16:16Z</time>
      </trkpt>
      <trkpt lat="28.5450880" lon="-17.8267350">
        <ele>1245.3</ele>
        <time>2020-11-17T12:16:17Z</time>
      </trkpt>
      <trkpt lat="28.5450880" lon="-17.8267350">
        <ele>1245.3</ele>
        <time>2020-11-17T12:16:18Z</time>
      </trkpt>
      <trkpt lat="28.5450780" lon="-17.8266850">
        <ele>1245.7</ele>
        <time>2020-11-17T12:16:19Z</time>
      </trkpt>
      <trkpt lat="28.5450780" lon="-17.8266850">
        <ele>1245.7</ele>
        <time>2020-11-17T12:16:20Z</time>
      </trkpt>
      <trkpt lat="28.5450720" lon="-17.8266330">
        <ele>1246.0</ele>
        <time>2020-11-17T12:16:21Z</time>
      </trkpt>
      <trkpt lat="28.5450720" lon="-17.8266330">
        <ele>1246.0</ele>
        <time>2020-11-17T12:16:22Z</time>
      </trkpt>
      <trkpt lat="28.5450920" lon="-17.8265750">
        <ele>1246.4</ele>
        <time>2020-11-17T12:16:23Z</time>
      </trkpt>
      <trkpt lat="28.5451020" lon="-17.8265530">
        <ele>1246.6</ele>
        <time>2020-11-17T12:16:24Z</time>
      </trkpt>
      <trkpt lat="28.5451020" lon="-17.8265530">
        <ele>1246.6</ele>
        <time>2020-11-17T12:16:25Z</time>
      </trkpt>
      <trkpt lat="28.5451230" lon="-17.8265280">
        <ele>1246.9</ele>
        <time>2020-11-17T12:16:26Z</time>
      </trkpt>
      <trkpt lat="28.5451450" lon="-17.8265270">
        <ele>1247.3</ele>
        <time>2020-11-17T12:16:27Z</time>
      </trkpt>
      <trkpt lat="28.5451450" lon="-17.8265270">
        <ele>1247.3</ele>
        <time>2020-11-17T12:16:28Z</time>
      </trkpt>
      <trkpt lat="28.5451820" lon="-17.8265200">
        <ele>1247.4</ele>
        <time>2020-11-17T12:16:29Z</time>
      </trkpt>
      <trkpt lat="28.5451980" lon="-17.8265200">
        <ele>1247.5</ele>
        <time>2020-11-17T12:16:30Z</time>
      </trkpt>
      <trkpt lat="28.5451980" lon="-17.8265200">
        <ele>1247.5</ele>
        <time>2020-11-17T12:16:31Z</time>
      </trkpt>
      <trkpt lat="28.5452230" lon="-17.8265280">
        <ele>1247.6</ele>
        <time>2020-11-17T12:16:32Z</time>
      </trkpt>
      <trkpt lat="28.5452380" lon="-17.8265350">
        <ele>1247.6</ele>
        <time>2020-11-17T12:16:33Z</time>
      </trkpt>
      <trkpt lat="28.5452380" lon="-17.8265350">
        <ele>1247.6</ele>
        <time>2020-11-17T12:16:34Z</time>
      </trkpt>
      <trkpt lat="28.5452770" lon="-17.8265470">
        <ele>1247.8</ele>
        <time>2020-11-17T12:16:35Z</time>
      </trkpt>
      <trkpt lat="28.5452920" lon="-17.8265500">
        <ele>1247.8</ele>
        <time>2020-11-17T12:16:36Z</time>
      </trkpt>
      <trkpt lat="28.5452920" lon="-17.8265500">
        <ele>1247.8</ele>
        <time>2020-11-17T12:16:37Z</time>
      </trkpt>
      <trkpt lat="28.5453250" lon="-17.8265520">
        <ele>1247.9</ele>
        <time>2020-11-17T12:16:38Z</time>
      </trkpt>
      <trkpt lat="28.5453420" lon="-17.8265580">
        <ele>1248.0</ele>
        <time>2020-11-17T12:16:39Z</time>
      </trkpt>
      <trkpt lat="28.5453420" lon="-17.8265580">
        <ele>1248.0</ele>
        <time>2020-11-17T12:16:40Z</time>
      </trkpt>
      <trkpt lat="28.5453700" lon="-17.8265700">
        <ele>1248.0</ele>
        <time>2020-11-17T12:16:41Z</time>
      </trkpt>
      <trkpt lat="28.5453870" lon="-17.8265720">
        <ele>1248.0</ele>
        <time>2020-11-17T12:16:42Z</time>
      </trkpt>
      <trkpt lat="28.5453870" lon="-17.8265720">
        <ele>1248.0</ele>
        <time>2020-11-17T12:16:43Z</time>
      </trkpt>
      <trkpt lat="28.5454170" lon="-17.8265730">
        <ele>1248.1</ele>
        <time>2020-11-17T12:16:44Z</time>
      </trkpt>
      <trkpt lat="28.5454170" lon="-17.8265730">
        <ele>1248.1</ele>
        <time>2020-11-17T12:16:45Z</time>
      </trkpt>
      <trkpt lat="28.5454400" lon="-17.8265650">
        <ele>1248.0</ele>
        <time>2020-11-17T12:16:46Z</time>
      </trkpt>
      <trkpt lat="28.5454400" lon="-17.8265650">
        <ele>1248.0</ele>
        <time>2020-11-17T12:16:47Z</time>
      </trkpt>
      <trkpt lat="28.5454620" lon="-17.8265580">
        <ele>1248.0</ele>
        <time>2020-11-17T12:16:48Z</time>
      </trkpt>
      <trkpt lat="28.5454620" lon="-17.8265580">
        <ele>1248.0</ele>
        <time>2020-11-17T12:16:49Z</time>
      </trkpt>
      <trkpt lat="28.5455000" lon="-17.8265330">
        <ele>1247.9</ele>
        <time>2020-11-17T12:16:50Z</time>
      </trkpt>
      <trkpt lat="28.5455270" lon="-17.8265000">
        <ele>1247.8</ele>
        <time>2020-11-17T12:16:51Z</time>
      </trkpt>
      <trkpt lat="28.5455470" lon="-17.8264680">
        <ele>1247.6</ele>
        <time>2020-11-17T12:16:52Z</time>
      </trkpt>
      <trkpt lat="28.5455470" lon="-17.8264680">
        <ele>1247.6</ele>
        <time>2020-11-17T12:16:53Z</time>
      </trkpt>
      <trkpt lat="28.5456020" lon="-17.8263930">
        <ele>1247.3</ele>
        <time>2020-11-17T12:16:54Z</time>
      </trkpt>
      <trkpt lat="28.5456020" lon="-17.8263930">
        <ele>1247.3</ele>
        <time>2020-11-17T12:16:55Z</time>
      </trkpt>
      <trkpt lat="28.5456550" lon="-17.8263150">
        <ele>1246.9</ele>
        <time>2020-11-17T12:16:56Z</time>
      </trkpt>
      <trkpt lat="28.5456550" lon="-17.8263150">
        <ele>1246.9</ele>
        <time>2020-11-17T12:16:57Z</time>
      </trkpt>
      <trkpt lat="28.5456870" lon="-17.8262370">
        <ele>1246.7</ele>
        <time>2020-11-17T12:16:58Z</time>
      </trkpt>
      <trkpt lat="28.5457030" lon="-17.8262020">
        <ele>1246.6</ele>
        <time>2020-11-17T12:16:59Z</time>
      </trkpt>
      <trkpt lat="28.5457320" lon="-17.8261620">
        <ele>1246.4</ele>
        <time>2020-11-17T12:17:00Z</time>
      </trkpt>
      <trkpt lat="28.5457320" lon="-17.8261620">
        <ele>1246.4</ele>
        <time>2020-11-17T12:17:01Z</time>
      </trkpt>
      <trkpt lat="28.5457920" lon="-17.8260850">
        <ele>1246.1</ele>
        <time>2020-11-17T12:17:02Z</time>
      </trkpt>
      <trkpt lat="28.5458230" lon="-17.8260550">
        <ele>1246.0</ele>
        <time>2020-11-17T12:17:03Z</time>
      </trkpt>
      <trkpt lat="28.5458230" lon="-17.8260550">
        <ele>1246.0</ele>
        <time>2020-11-17T12:17:04Z</time>
      </trkpt>
      <trkpt lat="28.5458930" lon="-17.8260250">
        <ele>1245.9</ele>
        <time>2020-11-17T12:17:05Z</time>
      </trkpt>
      <trkpt lat="28.5459230" lon="-17.8260180">
        <ele>1245.9</ele>
        <time>2020-11-17T12:17:06Z</time>
      </trkpt>
      <trkpt lat="28.5459230" lon="-17.8260180">
        <ele>1245.9</ele>
        <time>2020-11-17T12:17:07Z</time>
      </trkpt>
      <trkpt lat="28.5459920" lon="-17.8260400">
        <ele>1245.8</ele>
        <time>2020-11-17T12:17:08Z</time>
      </trkpt>
      <trkpt lat="28.5460280" lon="-17.8260580">
        <ele>1245.7</ele>
        <time>2020-11-17T12:17:09Z</time>
      </trkpt>
      <trkpt lat="28.5460600" lon="-17.8260750">
        <ele>1245.7</ele>
        <time>2020-11-17T12:17:10Z</time>
      </trkpt>
      <trkpt lat="28.5460600" lon="-17.8260750">
        <ele>1245.7</ele>
        <time>2020-11-17T12:17:11Z</time>
      </trkpt>
      <trkpt lat="28.5460980" lon="-17.8261150">
        <ele>1245.6</ele>
        <time>2020-11-17T12:17:12Z</time>
      </trkpt>
      <trkpt lat="28.5460980" lon="-17.8261150">
        <ele>1245.6</ele>
        <time>2020-11-17T12:17:13Z</time>
      </trkpt>
      <trkpt lat="28.5461530" lon="-17.8261400">
        <ele>1245.4</ele>
        <time>2020-11-17T12:17:14Z</time>
      </trkpt>
      <trkpt lat="28.5461830" lon="-17.8261400">
        <ele>1245.3</ele>
        <time>2020-11-17T12:17:15Z</time>
      </trkpt>
      <trkpt lat="28.5461830" lon="-17.8261400">
        <ele>1245.3</ele>
        <time>2020-11-17T12:17:16Z</time>
      </trkpt>
      <trkpt lat="28.5462350" lon="-17.8261220">
        <ele>1245.1</ele>
        <time>2020-11-17T12:17:17Z</time>
      </trkpt>
      <trkpt lat="28.5462570" lon="-17.8261050">
        <ele>1245.0</ele>
        <time>2020-11-17T12:17:18Z</time>
      </trkpt>
      <trkpt lat="28.5462570" lon="-17.8261050">
        <ele>1245.0</ele>
        <time>2020-11-17T12:17:19Z</time>
      </trkpt>
      <trkpt lat="28.5462920" lon="-17.8260530">
        <ele>1244.7</ele>
        <time>2020-11-17T12:17:20Z</time>
      </trkpt>
      <trkpt lat="28.5463000" lon="-17.8260180">
        <ele>1244.5</ele>
        <time>2020-11-17T12:17:21Z</time>
      </trkpt>
      <trkpt lat="28.5463000" lon="-17.8260180">
        <ele>1244.5</ele>
        <time>2020-11-17T12:17:22Z</time>
      </trkpt>
      <trkpt lat="28.5463380" lon="-17.8259470">
        <ele>1244.0</ele>
        <time>2020-11-17T12:17:23Z</time>
      </trkpt>
      <trkpt lat="28.5463380" lon="-17.8259470">
        <ele>1244.0</ele>
        <time>2020-11-17T12:17:24Z</time>
      </trkpt>
      <trkpt lat="28.5463980" lon="-17.8258620">
        <ele>1243.3</ele>
        <time>2020-11-17T12:17:25Z</time>
      </trkpt>
      <trkpt lat="28.5463980" lon="-17.8258620">
        <ele>1243.3</ele>
        <time>2020-11-17T12:17:26Z</time>
      </trkpt>
      <trkpt lat="28.5464250" lon="-17.8257570">
        <ele>1242.7</ele>
        <time>2020-11-17T12:17:27Z</time>
      </trkpt>
      <trkpt lat="28.5464530" lon="-17.8257200">
        <ele>1242.4</ele>
        <time>2020-11-17T12:17:28Z</time>
      </trkpt>
      <trkpt lat="28.5464530" lon="-17.8257200">
        <ele>1242.4</ele>
        <time>2020-11-17T12:17:29Z</time>
      </trkpt>
      <trkpt lat="28.5465220" lon="-17.8256600">
        <ele>1241.9</ele>
        <time>2020-11-17T12:17:30Z</time>
      </trkpt>
      <trkpt lat="28.5465220" lon="-17.8256600">
        <ele>1241.9</ele>
        <time>2020-11-17T12:17:31Z</time>
      </trkpt>
      <trkpt lat="28.5466050" lon="-17.8256350">
        <ele>1241.5</ele>
        <time>2020-11-17T12:17:32Z</time>
      </trkpt>
      <trkpt lat="28.5466420" lon="-17.8256270">
        <ele>1241.3</ele>
        <time>2020-11-17T12:17:33Z</time>
      </trkpt>
      <trkpt lat="28.5466420" lon="-17.8256270">
        <ele>1241.3</ele>
        <time>2020-11-17T12:17:34Z</time>
      </trkpt>
      <trkpt lat="28.5467150" lon="-17.8256020">
        <ele>1240.9</ele>
        <time>2020-11-17T12:17:35Z</time>
      </trkpt>
      <trkpt lat="28.5467520" lon="-17.8255780">
        <ele>1240.6</ele>
        <time>2020-11-17T12:17:36Z</time>
      </trkpt>
      <trkpt lat="28.5467520" lon="-17.8255780">
        <ele>1240.6</ele>
        <time>2020-11-17T12:17:37Z</time>
      </trkpt>
      <trkpt lat="28.5468230" lon="-17.8255180">
        <ele>1239.9</ele>
        <time>2020-11-17T12:17:38Z</time>
      </trkpt>
      <trkpt lat="28.5468230" lon="-17.8255180">
        <ele>1239.9</ele>
        <time>2020-11-17T12:17:39Z</time>
      </trkpt>
      <trkpt lat="28.5468930" lon="-17.8254830">
        <ele>1239.3</ele>
        <time>2020-11-17T12:17:40Z</time>
      </trkpt>
      <trkpt lat="28.5469270" lon="-17.8254780">
        <ele>1239.1</ele>
        <time>2020-11-17T12:17:41Z</time>
      </trkpt>
      <trkpt lat="28.5469620" lon="-17.8254800">
        <ele>1238.8</ele>
        <time>2020-11-17T12:17:42Z</time>
      </trkpt>
      <trkpt lat="28.5469620" lon="-17.8254800">
        <ele>1238.8</ele>
        <time>2020-11-17T12:17:43Z</time>
      </trkpt>
      <trkpt lat="28.5470280" lon="-17.8254930">
        <ele>1238.4</ele>
        <time>2020-11-17T12:17:44Z</time>
      </trkpt>
      <trkpt lat="28.5470280" lon="-17.8254930">
        <ele>1238.4</ele>
        <time>2020-11-17T12:17:45Z</time>
      </trkpt>
      <trkpt lat="28.5470880" lon="-17.8254880">
        <ele>1238.1</ele>
        <time>2020-11-17T12:17:46Z</time>
      </trkpt>
      <trkpt lat="28.5470880" lon="-17.8254880">
        <ele>1238.1</ele>
        <time>2020-11-17T12:17:47Z</time>
      </trkpt>
      <trkpt lat="28.5471380" lon="-17.8254280">
        <ele>1237.7</ele>
        <time>2020-11-17T12:17:48Z</time>
      </trkpt>
      <trkpt lat="28.5471600" lon="-17.8253920">
        <ele>1237.4</ele>
        <time>2020-11-17T12:17:49Z</time>
      </trkpt>
      <trkpt lat="28.5471600" lon="-17.8253920">
        <ele>1237.4</ele>
        <time>2020-11-17T12:17:50Z</time>
      </trkpt>
      <trkpt lat="28.5471850" lon="-17.8253330">
        <ele>1237.1</ele>
        <time>2020-11-17T12:17:51Z</time>
      </trkpt>
      <trkpt lat="28.5472000" lon="-17.8253020">
        <ele>1236.9</ele>
        <time>2020-11-17T12:17:52Z</time>
      </trkpt>
      <trkpt lat="28.5472000" lon="-17.8253020">
        <ele>1236.9</ele>
        <time>2020-11-17T12:17:53Z</time>
      </trkpt>
      <trkpt lat="28.5472220" lon="-17.8252250">
        <ele>1236.5</ele>
        <time>2020-11-17T12:17:54Z</time>
      </trkpt>
      <trkpt lat="28.5472300" lon="-17.8251850">
        <ele>1236.3</ele>
        <time>2020-11-17T12:17:55Z</time>
      </trkpt>
      <trkpt lat="28.5472300" lon="-17.8251850">
        <ele>1236.3</ele>
        <time>2020-11-17T12:17:56Z</time>
      </trkpt>
      <trkpt lat="28.5472770" lon="-17.8251070">
        <ele>1235.8</ele>
        <time>2020-11-17T12:17:57Z</time>
      </trkpt>
      <trkpt lat="28.5472770" lon="-17.8251070">
        <ele>1235.8</ele>
        <time>2020-11-17T12:17:58Z</time>
      </trkpt>
      <trkpt lat="28.5473430" lon="-17.8250450">
        <ele>1235.3</ele>
        <time>2020-11-17T12:17:59Z</time>
      </trkpt>
      <trkpt lat="28.5473750" lon="-17.8250180">
        <ele>1235.0</ele>
        <time>2020-11-17T12:18:00Z</time>
      </trkpt>
      <trkpt lat="28.5473750" lon="-17.8250180">
        <ele>1235.0</ele>
        <time>2020-11-17T12:18:01Z</time>
      </trkpt>
      <trkpt lat="28.5474430" lon="-17.8249650">
        <ele>1234.5</ele>
        <time>2020-11-17T12:18:02Z</time>
      </trkpt>
      <trkpt lat="28.5474820" lon="-17.8249370">
        <ele>1234.3</ele>
        <time>2020-11-17T12:18:03Z</time>
      </trkpt>
      <trkpt lat="28.5475200" lon="-17.8249020">
        <ele>1233.9</ele>
        <time>2020-11-17T12:18:04Z</time>
      </trkpt>
      <trkpt lat="28.5475200" lon="-17.8249020">
        <ele>1233.9</ele>
        <time>2020-11-17T12:18:05Z</time>
      </trkpt>
      <trkpt lat="28.5475950" lon="-17.8248300">
        <ele>1233.3</ele>
        <time>2020-11-17T12:18:06Z</time>
      </trkpt>
      <trkpt lat="28.5475950" lon="-17.8248300">
        <ele>1233.3</ele>
        <time>2020-11-17T12:18:07Z</time>
      </trkpt>
      <trkpt lat="28.5476730" lon="-17.8247500">
        <ele>1232.5</ele>
        <time>2020-11-17T12:18:08Z</time>
      </trkpt>
      <trkpt lat="28.5477080" lon="-17.8247020">
        <ele>1232.1</ele>
        <time>2020-11-17T12:18:09Z</time>
      </trkpt>
      <trkpt lat="28.5477080" lon="-17.8247020">
        <ele>1232.1</ele>
        <time>2020-11-17T12:18:10Z</time>
      </trkpt>
      <trkpt lat="28.5477830" lon="-17.8246150">
        <ele>1231.3</ele>
        <time>2020-11-17T12:18:11Z</time>
      </trkpt>
      <trkpt lat="28.5478200" lon="-17.8245700">
        <ele>1230.9</ele>
        <time>2020-11-17T12:18:12Z</time>
      </trkpt>
      <trkpt lat="28.5478200" lon="-17.8245700">
        <ele>1230.9</ele>
        <time>2020-11-17T12:18:13Z</time>
      </trkpt>
      <trkpt lat="28.5478880" lon="-17.8244820">
        <ele>1230.1</ele>
        <time>2020-11-17T12:18:14Z</time>
      </trkpt>
      <trkpt lat="28.5479150" lon="-17.8244400">
        <ele>1229.7</ele>
        <time>2020-11-17T12:18:15Z</time>
      </trkpt>
      <trkpt lat="28.5479150" lon="-17.8244400">
        <ele>1229.7</ele>
        <time>2020-11-17T12:18:16Z</time>
      </trkpt>
      <trkpt lat="28.5479700" lon="-17.8243450">
        <ele>1228.7</ele>
        <time>2020-11-17T12:18:17Z</time>
      </trkpt>
      <trkpt lat="28.5480080" lon="-17.8243020">
        <ele>1228.1</ele>
        <time>2020-11-17T12:18:18Z</time>
      </trkpt>
      <trkpt lat="28.5480080" lon="-17.8243020">
        <ele>1228.1</ele>
        <time>2020-11-17T12:18:19Z</time>
      </trkpt>
      <trkpt lat="28.5480900" lon="-17.8242080">
        <ele>1226.7</ele>
        <time>2020-11-17T12:18:20Z</time>
      </trkpt>
      <trkpt lat="28.5480900" lon="-17.8242080">
        <ele>1226.7</ele>
        <time>2020-11-17T12:18:21Z</time>
      </trkpt>
      <trkpt lat="28.5481730" lon="-17.8241180">
        <ele>1225.5</ele>
        <time>2020-11-17T12:18:22Z</time>
      </trkpt>
      <trkpt lat="28.5482130" lon="-17.8240720">
        <ele>1224.9</ele>
        <time>2020-11-17T12:18:23Z</time>
      </trkpt>
      <trkpt lat="28.5482130" lon="-17.8240720">
        <ele>1224.9</ele>
        <time>2020-11-17T12:18:24Z</time>
      </trkpt>
      <trkpt lat="28.5483000" lon="-17.8239950">
        <ele>1223.9</ele>
        <time>2020-11-17T12:18:25Z</time>
      </trkpt>
      <trkpt lat="28.5483000" lon="-17.8239950">
        <ele>1223.9</ele>
        <time>2020-11-17T12:18:26Z</time>
      </trkpt>
      <trkpt lat="28.5483780" lon="-17.8239220">
        <ele>1222.9</ele>
        <time>2020-11-17T12:18:27Z</time>
      </trkpt>
      <trkpt lat="28.5483780" lon="-17.8239220">
        <ele>1222.9</ele>
        <time>2020-11-17T12:18:28Z</time>
      </trkpt>
      <trkpt lat="28.5484500" lon="-17.8238600">
        <ele>1221.9</ele>
        <time>2020-11-17T12:18:29Z</time>
      </trkpt>
      <trkpt lat="28.5484850" lon="-17.8238380">
        <ele>1221.5</ele>
        <time>2020-11-17T12:18:30Z</time>
      </trkpt>
      <trkpt lat="28.5484850" lon="-17.8238380">
        <ele>1221.5</ele>
        <time>2020-11-17T12:18:31Z</time>
      </trkpt>
      <trkpt lat="28.5485600" lon="-17.8238020">
        <ele>1220.6</ele>
        <time>2020-11-17T12:18:32Z</time>
      </trkpt>
      <trkpt lat="28.5485600" lon="-17.8238020">
        <ele>1220.6</ele>
        <time>2020-11-17T12:18:33Z</time>
      </trkpt>
      <trkpt lat="28.5486220" lon="-17.8237670">
        <ele>1219.8</ele>
        <time>2020-11-17T12:18:34Z</time>
      </trkpt>
      <trkpt lat="28.5486220" lon="-17.8237670">
        <ele>1219.8</ele>
        <time>2020-11-17T12:18:35Z</time>
      </trkpt>
      <trkpt lat="28.5486770" lon="-17.8237600">
        <ele>1219.2</ele>
        <time>2020-11-17T12:18:36Z</time>
      </trkpt>
      <trkpt lat="28.5486770" lon="-17.8237600">
        <ele>1219.2</ele>
        <time>2020-11-17T12:18:37Z</time>
      </trkpt>
      <trkpt lat="28.5487320" lon="-17.8237480">
        <ele>1218.5</ele>
        <time>2020-11-17T12:18:38Z</time>
      </trkpt>
      <trkpt lat="28.5487320" lon="-17.8237480">
        <ele>1218.5</ele>
        <time>2020-11-17T12:18:39Z</time>
      </trkpt>
      <trkpt lat="28.5487980" lon="-17.8237230">
        <ele>1217.6</ele>
        <time>2020-11-17T12:18:40Z</time>
      </trkpt>
      <trkpt lat="28.5488180" lon="-17.8236950">
        <ele>1217.2</ele>
        <time>2020-11-17T12:18:41Z</time>
      </trkpt>
      <trkpt lat="28.5488430" lon="-17.8236770">
        <ele>1216.8</ele>
        <time>2020-11-17T12:18:42Z</time>
      </trkpt>
      <trkpt lat="28.5488430" lon="-17.8236770">
        <ele>1216.8</ele>
        <time>2020-11-17T12:18:43Z</time>
      </trkpt>
      <trkpt lat="28.5488900" lon="-17.8236550">
        <ele>1216.2</ele>
        <time>2020-11-17T12:18:44Z</time>
      </trkpt>
      <trkpt lat="28.5489080" lon="-17.8236530">
        <ele>1216.0</ele>
        <time>2020-11-17T12:18:45Z</time>
      </trkpt>
      <trkpt lat="28.5489080" lon="-17.8236530">
        <ele>1216.0</ele>
        <time>2020-11-17T12:18:46Z</time>
      </trkpt>
      <trkpt lat="28.5489480" lon="-17.8236530">
        <ele>1215.4</ele>
        <time>2020-11-17T12:18:47Z</time>
      </trkpt>
      <trkpt lat="28.5489680" lon="-17.8236550">
        <ele>1215.2</ele>
        <time>2020-11-17T12:18:48Z</time>
      </trkpt>
      <trkpt lat="28.5489680" lon="-17.8236550">
        <ele>1215.2</ele>
        <time>2020-11-17T12:18:49Z</time>
      </trkpt>
      <trkpt lat="28.5490120" lon="-17.8236680">
        <ele>1214.6</ele>
        <time>2020-11-17T12:18:50Z</time>
      </trkpt>
      <trkpt lat="28.5490120" lon="-17.8236680">
        <ele>1214.6</ele>
        <time>2020-11-17T12:18:51Z</time>
      </trkpt>
      <trkpt lat="28.5490500" lon="-17.8236870">
        <ele>1214.1</ele>
        <time>2020-11-17T12:18:52Z</time>
      </trkpt>
      <trkpt lat="28.5490700" lon="-17.8236970">
        <ele>1213.8</ele>
        <time>2020-11-17T12:18:53Z</time>
      </trkpt>
      <trkpt lat="28.5490880" lon="-17.8237030">
        <ele>1213.6</ele>
        <time>2020-11-17T12:18:54Z</time>
      </trkpt>
      <trkpt lat="28.5490880" lon="-17.8237030">
        <ele>1213.6</ele>
        <time>2020-11-17T12:18:55Z</time>
      </trkpt>
      <trkpt lat="28.5491300" lon="-17.8237080">
        <ele>1213.0</ele>
        <time>2020-11-17T12:18:56Z</time>
      </trkpt>
      <trkpt lat="28.5491300" lon="-17.8237080">
        <ele>1213.0</ele>
        <time>2020-11-17T12:18:57Z</time>
      </trkpt>
      <trkpt lat="28.5491950" lon="-17.8237220">
        <ele>1212.2</ele>
        <time>2020-11-17T12:18:58Z</time>
      </trkpt>
      <trkpt lat="28.5491950" lon="-17.8237220">
        <ele>1212.2</ele>
        <time>2020-11-17T12:18:59Z</time>
      </trkpt>
      <trkpt lat="28.5492630" lon="-17.8237120">
        <ele>1211.4</ele>
        <time>2020-11-17T12:19:00Z</time>
      </trkpt>
      <trkpt lat="28.5492630" lon="-17.8237120">
        <ele>1211.4</ele>
        <time>2020-11-17T12:19:01Z</time>
      </trkpt>
      <trkpt lat="28.5493220" lon="-17.8237200">
        <ele>1210.8</ele>
        <time>2020-11-17T12:19:02Z</time>
      </trkpt>
      <trkpt lat="28.5493220" lon="-17.8237200">
        <ele>1210.8</ele>
        <time>2020-11-17T12:19:03Z</time>
      </trkpt>
      <trkpt lat="28.5493980" lon="-17.8237280">
        <ele>1210.1</ele>
        <time>2020-11-17T12:19:04Z</time>
      </trkpt>
      <trkpt lat="28.5493980" lon="-17.8237280">
        <ele>1210.1</ele>
        <time>2020-11-17T12:19:05Z</time>
      </trkpt>
      <trkpt lat="28.5494700" lon="-17.8237130">
        <ele>1209.4</ele>
        <time>2020-11-17T12:19:06Z</time>
      </trkpt>
      <trkpt lat="28.5494700" lon="-17.8237130">
        <ele>1209.4</ele>
        <time>2020-11-17T12:19:07Z</time>
      </trkpt>
      <trkpt lat="28.5495280" lon="-17.8236680">
        <ele>1208.8</ele>
        <time>2020-11-17T12:19:08Z</time>
      </trkpt>
      <trkpt lat="28.5495280" lon="-17.8236680">
        <ele>1208.8</ele>
        <time>2020-11-17T12:19:09Z</time>
      </trkpt>
      <trkpt lat="28.5495820" lon="-17.8236030">
        <ele>1208.1</ele>
        <time>2020-11-17T12:19:10Z</time>
      </trkpt>
      <trkpt lat="28.5495930" lon="-17.8235580">
        <ele>1207.7</ele>
        <time>2020-11-17T12:19:11Z</time>
      </trkpt>
      <trkpt lat="28.5496080" lon="-17.8235200">
        <ele>1207.4</ele>
        <time>2020-11-17T12:19:12Z</time>
      </trkpt>
      <trkpt lat="28.5496080" lon="-17.8235200">
        <ele>1207.4</ele>
        <time>2020-11-17T12:19:13Z</time>
      </trkpt>
      <trkpt lat="28.5496430" lon="-17.8234400">
        <ele>1206.6</ele>
        <time>2020-11-17T12:19:14Z</time>
      </trkpt>
      <trkpt lat="28.5496600" lon="-17.8234000">
        <ele>1206.3</ele>
        <time>2020-11-17T12:19:15Z</time>
      </trkpt>
      <trkpt lat="28.5496600" lon="-17.8234000">
        <ele>1206.3</ele>
        <time>2020-11-17T12:19:16Z</time>
      </trkpt>
      <trkpt lat="28.5497080" lon="-17.8233380">
        <ele>1205.7</ele>
        <time>2020-11-17T12:19:17Z</time>
      </trkpt>
      <trkpt lat="28.5497350" lon="-17.8233180">
        <ele>1205.4</ele>
        <time>2020-11-17T12:19:18Z</time>
      </trkpt>
      <trkpt lat="28.5497350" lon="-17.8233180">
        <ele>1205.4</ele>
        <time>2020-11-17T12:19:19Z</time>
      </trkpt>
      <trkpt lat="28.5498050" lon="-17.8232720">
        <ele>1204.7</ele>
        <time>2020-11-17T12:19:20Z</time>
      </trkpt>
      <trkpt lat="28.5498050" lon="-17.8232720">
        <ele>1204.7</ele>
        <time>2020-11-17T12:19:21Z</time>
      </trkpt>
      <trkpt lat="28.5498780" lon="-17.8232520">
        <ele>1204.0</ele>
        <time>2020-11-17T12:19:22Z</time>
      </trkpt>
      <trkpt lat="28.5498780" lon="-17.8232520">
        <ele>1204.0</ele>
        <time>2020-11-17T12:19:23Z</time>
      </trkpt>
      <trkpt lat="28.5499620" lon="-17.8232520">
        <ele>1203.3</ele>
        <time>2020-11-17T12:19:24Z</time>
      </trkpt>
      <trkpt lat="28.5500120" lon="-17.8232580">
        <ele>1202.8</ele>
        <time>2020-11-17T12:19:25Z</time>
      </trkpt>
      <trkpt lat="28.5500120" lon="-17.8232580">
        <ele>1202.8</ele>
        <time>2020-11-17T12:19:26Z</time>
      </trkpt>
      <trkpt lat="28.5501150" lon="-17.8232470">
        <ele>1201.9</ele>
        <time>2020-11-17T12:19:27Z</time>
      </trkpt>
      <trkpt lat="28.5501150" lon="-17.8232470">
        <ele>1201.9</ele>
        <time>2020-11-17T12:19:28Z</time>
      </trkpt>
      <trkpt lat="28.5502280" lon="-17.8232080">
        <ele>1200.9</ele>
        <time>2020-11-17T12:19:29Z</time>
      </trkpt>
      <trkpt lat="28.5502820" lon="-17.8231780">
        <ele>1200.4</ele>
        <time>2020-11-17T12:19:30Z</time>
      </trkpt>
      <trkpt lat="28.5502820" lon="-17.8231780">
        <ele>1200.4</ele>
        <time>2020-11-17T12:19:31Z</time>
      </trkpt>
      <trkpt lat="28.5503770" lon="-17.8231300">
        <ele>1199.2</ele>
        <time>2020-11-17T12:19:32Z</time>
      </trkpt>
      <trkpt lat="28.5503770" lon="-17.8231300">
        <ele>1199.2</ele>
        <time>2020-11-17T12:19:33Z</time>
      </trkpt>
      <trkpt lat="28.5504480" lon="-17.8230850">
        <ele>1198.3</ele>
        <time>2020-11-17T12:19:34Z</time>
      </trkpt>
      <trkpt lat="28.5504480" lon="-17.8230850">
        <ele>1198.3</ele>
        <time>2020-11-17T12:19:35Z</time>
      </trkpt>
      <trkpt lat="28.5505080" lon="-17.8230600">
        <ele>1197.6</ele>
        <time>2020-11-17T12:19:36Z</time>
      </trkpt>
      <trkpt lat="28.5505080" lon="-17.8230600">
        <ele>1197.6</ele>
        <time>2020-11-17T12:19:37Z</time>
      </trkpt>
      <trkpt lat="28.5505620" lon="-17.8230320">
        <ele>1197.0</ele>
        <time>2020-11-17T12:19:38Z</time>
      </trkpt>
      <trkpt lat="28.5505920" lon="-17.8230220">
        <ele>1196.7</ele>
        <time>2020-11-17T12:19:39Z</time>
      </trkpt>
      <trkpt lat="28.5505920" lon="-17.8230220">
        <ele>1196.7</ele>
        <time>2020-11-17T12:19:40Z</time>
      </trkpt>
      <trkpt lat="28.5506620" lon="-17.8229870">
        <ele>1196.1</ele>
        <time>2020-11-17T12:19:41Z</time>
      </trkpt>
      <trkpt lat="28.5506620" lon="-17.8229870">
        <ele>1196.1</ele>
        <time>2020-11-17T12:19:42Z</time>
      </trkpt>
      <trkpt lat="28.5507250" lon="-17.8229520">
        <ele>1195.4</ele>
        <time>2020-11-17T12:19:43Z</time>
      </trkpt>
      <trkpt lat="28.5507250" lon="-17.8229520">
        <ele>1195.4</ele>
        <time>2020-11-17T12:19:44Z</time>
      </trkpt>
      <trkpt lat="28.5507820" lon="-17.8229170">
        <ele>1194.9</ele>
        <time>2020-11-17T12:19:45Z</time>
      </trkpt>
      <trkpt lat="28.5507820" lon="-17.8229170">
        <ele>1194.9</ele>
        <time>2020-11-17T12:19:46Z</time>
      </trkpt>
      <trkpt lat="28.5508370" lon="-17.8228850">
        <ele>1194.3</ele>
        <time>2020-11-17T12:19:47Z</time>
      </trkpt>
      <trkpt lat="28.5508670" lon="-17.8228670">
        <ele>1193.9</ele>
        <time>2020-11-17T12:19:48Z</time>
      </trkpt>
      <trkpt lat="28.5508670" lon="-17.8228670">
        <ele>1193.9</ele>
        <time>2020-11-17T12:19:49Z</time>
      </trkpt>
      <trkpt lat="28.5509220" lon="-17.8228370">
        <ele>1193.4</ele>
        <time>2020-11-17T12:19:50Z</time>
      </trkpt>
      <trkpt lat="28.5509220" lon="-17.8228370">
        <ele>1193.4</ele>
        <time>2020-11-17T12:19:51Z</time>
      </trkpt>
      <trkpt lat="28.5509820" lon="-17.8228380">
        <ele>1192.8</ele>
        <time>2020-11-17T12:19:52Z</time>
      </trkpt>
      <trkpt lat="28.5509820" lon="-17.8228380">
        <ele>1192.8</ele>
        <time>2020-11-17T12:19:53Z</time>
      </trkpt>
      <trkpt lat="28.5510350" lon="-17.8228550">
        <ele>1192.4</ele>
        <time>2020-11-17T12:19:54Z</time>
      </trkpt>
      <trkpt lat="28.5510350" lon="-17.8228550">
        <ele>1192.4</ele>
        <time>2020-11-17T12:19:55Z</time>
      </trkpt>
      <trkpt lat="28.5510720" lon="-17.8228750">
        <ele>1192.0</ele>
        <time>2020-11-17T12:19:56Z</time>
      </trkpt>
      <trkpt lat="28.5510720" lon="-17.8228750">
        <ele>1192.0</ele>
        <time>2020-11-17T12:19:57Z</time>
      </trkpt>
      <trkpt lat="28.5511220" lon="-17.8228950">
        <ele>1191.6</ele>
        <time>2020-11-17T12:19:58Z</time>
      </trkpt>
      <trkpt lat="28.5511430" lon="-17.8229000">
        <ele>1191.4</ele>
        <time>2020-11-17T12:19:59Z</time>
      </trkpt>
      <trkpt lat="28.5511750" lon="-17.8228880">
        <ele>1191.2</ele>
        <time>2020-11-17T12:20:00Z</time>
      </trkpt>
      <trkpt lat="28.5511750" lon="-17.8228880">
        <ele>1191.2</ele>
        <time>2020-11-17T12:20:01Z</time>
      </trkpt>
      <trkpt lat="28.5512170" lon="-17.8228720">
        <ele>1190.8</ele>
        <time>2020-11-17T12:20:02Z</time>
      </trkpt>
      <trkpt lat="28.5512400" lon="-17.8228630">
        <ele>1190.6</ele>
        <time>2020-11-17T12:20:03Z</time>
      </trkpt>
      <trkpt lat="28.5512400" lon="-17.8228630">
        <ele>1190.6</ele>
        <time>2020-11-17T12:20:04Z</time>
      </trkpt>
      <trkpt lat="28.5513000" lon="-17.8228580">
        <ele>1190.2</ele>
        <time>2020-11-17T12:20:05Z</time>
      </trkpt>
      <trkpt lat="28.5513350" lon="-17.8228620">
        <ele>1189.9</ele>
        <time>2020-11-17T12:20:06Z</time>
      </trkpt>
      <trkpt lat="28.5513350" lon="-17.8228620">
        <ele>1189.9</ele>
        <time>2020-11-17T12:20:07Z</time>
      </trkpt>
      <trkpt lat="28.5513900" lon="-17.8228820">
        <ele>1189.5</ele>
        <time>2020-11-17T12:20:08Z</time>
      </trkpt>
      <trkpt lat="28.5513900" lon="-17.8228820">
        <ele>1189.5</ele>
        <time>2020-11-17T12:20:09Z</time>
      </trkpt>
      <trkpt lat="28.5514430" lon="-17.8229120">
        <ele>1189.2</ele>
        <time>2020-11-17T12:20:10Z</time>
      </trkpt>
      <trkpt lat="28.5514430" lon="-17.8229120">
        <ele>1189.2</ele>
        <time>2020-11-17T12:20:11Z</time>
      </trkpt>
      <trkpt lat="28.5514930" lon="-17.8229380">
        <ele>1188.9</ele>
        <time>2020-11-17T12:20:12Z</time>
      </trkpt>
      <trkpt lat="28.5514930" lon="-17.8229380">
        <ele>1188.9</ele>
        <time>2020-11-17T12:20:13Z</time>
      </trkpt>
      <trkpt lat="28.5515630" lon="-17.8229550">
        <ele>1188.5</ele>
        <time>2020-11-17T12:20:14Z</time>
      </trkpt>
      <trkpt lat="28.5515970" lon="-17.8229670">
        <ele>1188.4</ele>
        <time>2020-11-17T12:20:15Z</time>
      </trkpt>
      <trkpt lat="28.5515970" lon="-17.8229670">
        <ele>1188.4</ele>
        <time>2020-11-17T12:20:16Z</time>
      </trkpt>
      <trkpt lat="28.5516670" lon="-17.8230030">
        <ele>1188.1</ele>
        <time>2020-11-17T12:20:17Z</time>
      </trkpt>
      <trkpt lat="28.5516950" lon="-17.8230300">
        <ele>1188.0</ele>
        <time>2020-11-17T12:20:18Z</time>
      </trkpt>
      <trkpt lat="28.5516950" lon="-17.8230300">
        <ele>1188.0</ele>
        <time>2020-11-17T12:20:19Z</time>
      </trkpt>
      <trkpt lat="28.5517450" lon="-17.8230930">
        <ele>1187.7</ele>
        <time>2020-11-17T12:20:20Z</time>
      </trkpt>
      <trkpt lat="28.5517450" lon="-17.8230930">
        <ele>1187.7</ele>
        <time>2020-11-17T12:20:21Z</time>
      </trkpt>
      <trkpt lat="28.5517820" lon="-17.8231520">
        <ele>1187.6</ele>
        <time>2020-11-17T12:20:22Z</time>
      </trkpt>
      <trkpt lat="28.5517820" lon="-17.8231520">
        <ele>1187.6</ele>
        <time>2020-11-17T12:20:23Z</time>
      </trkpt>
      <trkpt lat="28.5518230" lon="-17.8232020">
        <ele>1187.4</ele>
        <time>2020-11-17T12:20:24Z</time>
      </trkpt>
      <trkpt lat="28.5518230" lon="-17.8232020">
        <ele>1187.4</ele>
        <time>2020-11-17T12:20:25Z</time>
      </trkpt>
      <trkpt lat="28.5518830" lon="-17.8232000">
        <ele>1187.4</ele>
        <time>2020-11-17T12:20:26Z</time>
      </trkpt>
      <trkpt lat="28.5518830" lon="-17.8232000">
        <ele>1187.4</ele>
        <time>2020-11-17T12:20:27Z</time>
      </trkpt>
      <trkpt lat="28.5519630" lon="-17.8231570">
        <ele>1187.4</ele>
        <time>2020-11-17T12:20:28Z</time>
      </trkpt>
      <trkpt lat="28.5519630" lon="-17.8231570">
        <ele>1187.4</ele>
        <time>2020-11-17T12:20:29Z</time>
      </trkpt>
      <trkpt lat="28.5520270" lon="-17.8230750">
        <ele>1187.7</ele>
        <time>2020-11-17T12:20:30Z</time>
      </trkpt>
      <trkpt lat="28.5520270" lon="-17.8230750">
        <ele>1187.7</ele>
        <time>2020-11-17T12:20:31Z</time>
      </trkpt>
      <trkpt lat="28.5520580" lon="-17.8230220">
        <ele>1187.9</ele>
        <time>2020-11-17T12:20:32Z</time>
      </trkpt>
      <trkpt lat="28.5520580" lon="-17.8230220">
        <ele>1187.9</ele>
        <time>2020-11-17T12:20:33Z</time>
      </trkpt>
      <trkpt lat="28.5520770" lon="-17.8229900">
        <ele>1188.0</ele>
        <time>2020-11-17T12:20:34Z</time>
      </trkpt>
      <trkpt lat="28.5520770" lon="-17.8229900">
        <ele>1188.0</ele>
        <time>2020-11-17T12:20:35Z</time>
      </trkpt>
      <trkpt lat="28.5520800" lon="-17.8229730">
        <ele>1188.1</ele>
        <time>2020-11-17T12:20:36Z</time>
      </trkpt>
      <trkpt lat="28.5520800" lon="-17.8229730">
        <ele>1188.1</ele>
        <time>2020-11-17T12:20:37Z</time>
      </trkpt>
      <trkpt lat="28.5520880" lon="-17.8229370">
        <ele>1188.2</ele>
        <time>2020-11-17T12:20:38Z</time>
      </trkpt>
      <trkpt lat="28.5520880" lon="-17.8229370">
        <ele>1188.2</ele>
        <time>2020-11-17T12:20:39Z</time>
      </trkpt>
      <trkpt lat="28.5520980" lon="-17.8228920">
        <ele>1188.4</ele>
        <time>2020-11-17T12:20:40Z</time>
      </trkpt>
      <trkpt lat="28.5520980" lon="-17.8228920">
        <ele>1188.4</ele>
        <time>2020-11-17T12:20:41Z</time>
      </trkpt>
      <trkpt lat="28.5521150" lon="-17.8228530">
        <ele>1188.6</ele>
        <time>2020-11-17T12:20:42Z</time>
      </trkpt>
      <trkpt lat="28.5521150" lon="-17.8228530">
        <ele>1188.6</ele>
        <time>2020-11-17T12:20:43Z</time>
      </trkpt>
      <trkpt lat="28.5521320" lon="-17.8228180">
        <ele>1188.8</ele>
        <time>2020-11-17T12:20:44Z</time>
      </trkpt>
      <trkpt lat="28.5521400" lon="-17.8228020">
        <ele>1188.9</ele>
        <time>2020-11-17T12:20:45Z</time>
      </trkpt>
      <trkpt lat="28.5521400" lon="-17.8228020">
        <ele>1188.9</ele>
        <time>2020-11-17T12:20:46Z</time>
      </trkpt>
      <trkpt lat="28.5521520" lon="-17.8227670">
        <ele>1189.2</ele>
        <time>2020-11-17T12:20:47Z</time>
      </trkpt>
      <trkpt lat="28.5521520" lon="-17.8227670">
        <ele>1189.2</ele>
        <time>2020-11-17T12:20:48Z</time>
      </trkpt>
      <trkpt lat="28.5521680" lon="-17.8227400">
        <ele>1189.4</ele>
        <time>2020-11-17T12:20:49Z</time>
      </trkpt>
      <trkpt lat="28.5521830" lon="-17.8227270">
        <ele>1189.6</ele>
        <time>2020-11-17T12:20:50Z</time>
      </trkpt>
      <trkpt lat="28.5521830" lon="-17.8227270">
        <ele>1189.6</ele>
        <time>2020-11-17T12:20:51Z</time>
      </trkpt>
      <trkpt lat="28.5522050" lon="-17.8227030">
        <ele>1189.8</ele>
        <time>2020-11-17T12:20:52Z</time>
      </trkpt>
      <trkpt lat="28.5522050" lon="-17.8227030">
        <ele>1189.8</ele>
        <time>2020-11-17T12:20:53Z</time>
      </trkpt>
      <trkpt lat="28.5522230" lon="-17.8226870">
        <ele>1190.0</ele>
        <time>2020-11-17T12:20:54Z</time>
      </trkpt>
      <trkpt lat="28.5522230" lon="-17.8226870">
        <ele>1190.0</ele>
        <time>2020-11-17T12:20:55Z</time>
      </trkpt>
      <trkpt lat="28.5522430" lon="-17.8226730">
        <ele>1191.0</ele>
        <time>2020-11-17T12:20:56Z</time>
      </trkpt>
      <trkpt lat="28.5522430" lon="-17.8226730">
        <ele>1191.0</ele>
        <time>2020-11-17T12:20:57Z</time>
      </trkpt>
      <trkpt lat="28.5522780" lon="-17.8226800">
        <ele>1191.3</ele>
        <time>2020-11-17T12:20:58Z</time>
      </trkpt>
      <trkpt lat="28.5522780" lon="-17.8226800">
        <ele>1191.3</ele>
        <time>2020-11-17T12:20:59Z</time>
      </trkpt>
      <trkpt lat="28.5523150" lon="-17.8226850">
        <ele>1191.6</ele>
        <time>2020-11-17T12:21:00Z</time>
      </trkpt>
      <trkpt lat="28.5523150" lon="-17.8226850">
        <ele>1191.6</ele>
        <time>2020-11-17T12:21:01Z</time>
      </trkpt>
      <trkpt lat="28.5523550" lon="-17.8227000">
        <ele>1192.0</ele>
        <time>2020-11-17T12:21:02Z</time>
      </trkpt>
      <trkpt lat="28.5523720" lon="-17.8227030">
        <ele>1192.1</ele>
        <time>2020-11-17T12:21:03Z</time>
      </trkpt>
      <trkpt lat="28.5523720" lon="-17.8227030">
        <ele>1192.1</ele>
        <time>2020-11-17T12:21:04Z</time>
      </trkpt>
      <trkpt lat="28.5524050" lon="-17.8227180">
        <ele>1192.5</ele>
        <time>2020-11-17T12:21:05Z</time>
      </trkpt>
      <trkpt lat="28.5524050" lon="-17.8227180">
        <ele>1192.5</ele>
        <time>2020-11-17T12:21:06Z</time>
      </trkpt>
      <trkpt lat="28.5524370" lon="-17.8227320">
        <ele>1192.8</ele>
        <time>2020-11-17T12:21:07Z</time>
      </trkpt>
      <trkpt lat="28.5524500" lon="-17.8227380">
        <ele>1193.0</ele>
        <time>2020-11-17T12:21:08Z</time>
      </trkpt>
      <trkpt lat="28.5524500" lon="-17.8227380">
        <ele>1193.0</ele>
        <time>2020-11-17T12:21:09Z</time>
      </trkpt>
      <trkpt lat="28.5524730" lon="-17.8227570">
        <ele>1193.2</ele>
        <time>2020-11-17T12:21:10Z</time>
      </trkpt>
      <trkpt lat="28.5524730" lon="-17.8227570">
        <ele>1193.2</ele>
        <time>2020-11-17T12:21:11Z</time>
      </trkpt>
      <trkpt lat="28.5525020" lon="-17.8227680">
        <ele>1193.5</ele>
        <time>2020-11-17T12:21:12Z</time>
      </trkpt>
      <trkpt lat="28.5525020" lon="-17.8227680">
        <ele>1193.5</ele>
        <time>2020-11-17T12:21:13Z</time>
      </trkpt>
      <trkpt lat="28.5525280" lon="-17.8227870">
        <ele>1193.9</ele>
        <time>2020-11-17T12:21:14Z</time>
      </trkpt>
      <trkpt lat="28.5525430" lon="-17.8227980">
        <ele>1194.0</ele>
        <time>2020-11-17T12:21:15Z</time>
      </trkpt>
      <trkpt lat="28.5525430" lon="-17.8227980">
        <ele>1194.0</ele>
        <time>2020-11-17T12:21:16Z</time>
      </trkpt>
      <trkpt lat="28.5525750" lon="-17.8228230">
        <ele>1194.4</ele>
        <time>2020-11-17T12:21:17Z</time>
      </trkpt>
      <trkpt lat="28.5525900" lon="-17.8228370">
        <ele>1194.6</ele>
        <time>2020-11-17T12:21:18Z</time>
      </trkpt>
      <trkpt lat="28.5525900" lon="-17.8228370">
        <ele>1194.6</ele>
        <time>2020-11-17T12:21:19Z</time>
      </trkpt>
      <trkpt lat="28.5526200" lon="-17.8228570">
        <ele>1194.9</ele>
        <time>2020-11-17T12:21:20Z</time>
      </trkpt>
      <trkpt lat="28.5526200" lon="-17.8228570">
        <ele>1194.9</ele>
        <time>2020-11-17T12:21:21Z</time>
      </trkpt>
      <trkpt lat="28.5526430" lon="-17.8228820">
        <ele>1195.2</ele>
        <time>2020-11-17T12:21:22Z</time>
      </trkpt>
      <trkpt lat="28.5526430" lon="-17.8228820">
        <ele>1195.2</ele>
        <time>2020-11-17T12:21:23Z</time>
      </trkpt>
      <trkpt lat="28.5526620" lon="-17.8229050">
        <ele>1195.4</ele>
        <time>2020-11-17T12:21:24Z</time>
      </trkpt>
      <trkpt lat="28.5526620" lon="-17.8229050">
        <ele>1195.4</ele>
        <time>2020-11-17T12:21:25Z</time>
      </trkpt>
      <trkpt lat="28.5526870" lon="-17.8229200">
        <ele>1195.7</ele>
        <time>2020-11-17T12:21:26Z</time>
      </trkpt>
      <trkpt lat="28.5526870" lon="-17.8229200">
        <ele>1195.7</ele>
        <time>2020-11-17T12:21:27Z</time>
      </trkpt>
      <trkpt lat="28.5527280" lon="-17.8229380">
        <ele>1196.1</ele>
        <time>2020-11-17T12:21:28Z</time>
      </trkpt>
      <trkpt lat="28.5527280" lon="-17.8229380">
        <ele>1196.1</ele>
        <time>2020-11-17T12:21:29Z</time>
      </trkpt>
      <trkpt lat="28.5527650" lon="-17.8229500">
        <ele>1196.4</ele>
        <time>2020-11-17T12:21:30Z</time>
      </trkpt>
      <trkpt lat="28.5527650" lon="-17.8229500">
        <ele>1196.4</ele>
        <time>2020-11-17T12:21:31Z</time>
      </trkpt>
      <trkpt lat="28.5528180" lon="-17.8229550">
        <ele>1196.9</ele>
        <time>2020-11-17T12:21:32Z</time>
      </trkpt>
      <trkpt lat="28.5528180" lon="-17.8229550">
        <ele>1196.9</ele>
        <time>2020-11-17T12:21:33Z</time>
      </trkpt>
      <trkpt lat="28.5528620" lon="-17.8229380">
        <ele>1197.3</ele>
        <time>2020-11-17T12:21:34Z</time>
      </trkpt>
      <trkpt lat="28.5528620" lon="-17.8229380">
        <ele>1197.3</ele>
        <time>2020-11-17T12:21:35Z</time>
      </trkpt>
      <trkpt lat="28.5529000" lon="-17.8229170">
        <ele>1197.7</ele>
        <time>2020-11-17T12:21:36Z</time>
      </trkpt>
      <trkpt lat="28.5529000" lon="-17.8229170">
        <ele>1197.7</ele>
        <time>2020-11-17T12:21:37Z</time>
      </trkpt>
      <trkpt lat="28.5529350" lon="-17.8229000">
        <ele>1198.1</ele>
        <time>2020-11-17T12:21:38Z</time>
      </trkpt>
      <trkpt lat="28.5529350" lon="-17.8229000">
        <ele>1198.1</ele>
        <time>2020-11-17T12:21:39Z</time>
      </trkpt>
      <trkpt lat="28.5529650" lon="-17.8228870">
        <ele>1198.4</ele>
        <time>2020-11-17T12:21:40Z</time>
      </trkpt>
      <trkpt lat="28.5529820" lon="-17.8228820">
        <ele>1198.6</ele>
        <time>2020-11-17T12:21:41Z</time>
      </trkpt>
      <trkpt lat="28.5529920" lon="-17.8228730">
        <ele>1198.7</ele>
        <time>2020-11-17T12:21:42Z</time>
      </trkpt>
      <trkpt lat="28.5529920" lon="-17.8228730">
        <ele>1198.7</ele>
        <time>2020-11-17T12:21:43Z</time>
      </trkpt>
      <trkpt lat="28.5530130" lon="-17.8228550">
        <ele>1198.9</ele>
        <time>2020-11-17T12:21:44Z</time>
      </trkpt>
      <trkpt lat="28.5530200" lon="-17.8228400">
        <ele>1199.1</ele>
        <time>2020-11-17T12:21:45Z</time>
      </trkpt>
      <trkpt lat="28.5530200" lon="-17.8228400">
        <ele>1199.1</ele>
        <time>2020-11-17T12:21:46Z</time>
      </trkpt>
      <trkpt lat="28.5530280" lon="-17.8228200">
        <ele>1199.3</ele>
        <time>2020-11-17T12:21:47Z</time>
      </trkpt>
      <trkpt lat="28.5530320" lon="-17.8228120">
        <ele>1199.3</ele>
        <time>2020-11-17T12:21:48Z</time>
      </trkpt>
      <trkpt lat="28.5530350" lon="-17.8228020">
        <ele>1199.4</ele>
        <time>2020-11-17T12:21:49Z</time>
      </trkpt>
      <trkpt lat="28.5530350" lon="-17.8228020">
        <ele>1199.4</ele>
        <time>2020-11-17T12:21:50Z</time>
      </trkpt>
      <trkpt lat="28.5530520" lon="-17.8227770">
        <ele>1199.7</ele>
        <time>2020-11-17T12:21:51Z</time>
      </trkpt>
      <trkpt lat="28.5530520" lon="-17.8227770">
        <ele>1199.7</ele>
        <time>2020-11-17T12:21:52Z</time>
      </trkpt>
      <trkpt lat="28.5530650" lon="-17.8227530">
        <ele>1199.9</ele>
        <time>2020-11-17T12:21:53Z</time>
      </trkpt>
      <trkpt lat="28.5530730" lon="-17.8227420">
        <ele>1200.0</ele>
        <time>2020-11-17T12:21:54Z</time>
      </trkpt>
      <trkpt lat="28.5530730" lon="-17.8227420">
        <ele>1200.0</ele>
        <time>2020-11-17T12:21:55Z</time>
      </trkpt>
      <trkpt lat="28.5530920" lon="-17.8227120">
        <ele>1200.3</ele>
        <time>2020-11-17T12:21:56Z</time>
      </trkpt>
      <trkpt lat="28.5530920" lon="-17.8227120">
        <ele>1200.3</ele>
        <time>2020-11-17T12:21:57Z</time>
      </trkpt>
      <trkpt lat="28.5530930" lon="-17.8226670">
        <ele>1200.6</ele>
        <time>2020-11-17T12:21:58Z</time>
      </trkpt>
      <trkpt lat="28.5530930" lon="-17.8226670">
        <ele>1200.6</ele>
        <time>2020-11-17T12:21:59Z</time>
      </trkpt>
      <trkpt lat="28.5531100" lon="-17.8226450">
        <ele>1200.9</ele>
        <time>2020-11-17T12:22:00Z</time>
      </trkpt>
      <trkpt lat="28.5531100" lon="-17.8226450">
        <ele>1200.9</ele>
        <time>2020-11-17T12:22:01Z</time>
      </trkpt>
      <trkpt lat="28.5531200" lon="-17.8226270">
        <ele>1201.0</ele>
        <time>2020-11-17T12:22:02Z</time>
      </trkpt>
      <trkpt lat="28.5531200" lon="-17.8226270">
        <ele>1201.0</ele>
        <time>2020-11-17T12:22:03Z</time>
      </trkpt>
      <trkpt lat="28.5531520" lon="-17.8226180">
        <ele>1201.3</ele>
        <time>2020-11-17T12:22:04Z</time>
      </trkpt>
      <trkpt lat="28.5531520" lon="-17.8226180">
        <ele>1201.3</ele>
        <time>2020-11-17T12:22:05Z</time>
      </trkpt>
      <trkpt lat="28.5531780" lon="-17.8226150">
        <ele>1201.5</ele>
        <time>2020-11-17T12:22:06Z</time>
      </trkpt>
      <trkpt lat="28.5531780" lon="-17.8226150">
        <ele>1201.5</ele>
        <time>2020-11-17T12:22:07Z</time>
      </trkpt>
      <trkpt lat="28.5532220" lon="-17.8226000">
        <ele>1201.9</ele>
        <time>2020-11-17T12:22:08Z</time>
      </trkpt>
      <trkpt lat="28.5532300" lon="-17.8225900">
        <ele>1202.0</ele>
        <time>2020-11-17T12:22:09Z</time>
      </trkpt>
      <trkpt lat="28.5532300" lon="-17.8225900">
        <ele>1202.0</ele>
        <time>2020-11-17T12:22:10Z</time>
      </trkpt>
      <trkpt lat="28.5532630" lon="-17.8225700">
        <ele>1202.3</ele>
        <time>2020-11-17T12:22:11Z</time>
      </trkpt>
      <trkpt lat="28.5532820" lon="-17.8225630">
        <ele>1202.5</ele>
        <time>2020-11-17T12:22:12Z</time>
      </trkpt>
      <trkpt lat="28.5532820" lon="-17.8225630">
        <ele>1202.5</ele>
        <time>2020-11-17T12:22:13Z</time>
      </trkpt>
      <trkpt lat="28.5533150" lon="-17.8225550">
        <ele>1202.8</ele>
        <time>2020-11-17T12:22:14Z</time>
      </trkpt>
      <trkpt lat="28.5533150" lon="-17.8225550">
        <ele>1202.8</ele>
        <time>2020-11-17T12:22:15Z</time>
      </trkpt>
      <trkpt lat="28.5533430" lon="-17.8225520">
        <ele>1203.0</ele>
        <time>2020-11-17T12:22:16Z</time>
      </trkpt>
      <trkpt lat="28.5533430" lon="-17.8225520">
        <ele>1203.0</ele>
        <time>2020-11-17T12:22:17Z</time>
      </trkpt>
      <trkpt lat="28.5533730" lon="-17.8225480">
        <ele>1203.3</ele>
        <time>2020-11-17T12:22:18Z</time>
      </trkpt>
      <trkpt lat="28.5533730" lon="-17.8225480">
        <ele>1203.3</ele>
        <time>2020-11-17T12:22:19Z</time>
      </trkpt>
      <trkpt lat="28.5534070" lon="-17.8225580">
        <ele>1203.7</ele>
        <time>2020-11-17T12:22:20Z</time>
      </trkpt>
      <trkpt lat="28.5534220" lon="-17.8225600">
        <ele>1203.8</ele>
        <time>2020-11-17T12:22:21Z</time>
      </trkpt>
      <trkpt lat="28.5534220" lon="-17.8225600">
        <ele>1203.8</ele>
        <time>2020-11-17T12:22:22Z</time>
      </trkpt>
      <trkpt lat="28.5534580" lon="-17.8225720">
        <ele>1204.2</ele>
        <time>2020-11-17T12:22:23Z</time>
      </trkpt>
      <trkpt lat="28.5534770" lon="-17.8225730">
        <ele>1204.4</ele>
        <time>2020-11-17T12:22:24Z</time>
      </trkpt>
      <trkpt lat="28.5534770" lon="-17.8225730">
        <ele>1204.4</ele>
        <time>2020-11-17T12:22:25Z</time>
      </trkpt>
      <trkpt lat="28.5535100" lon="-17.8225900">
        <ele>1204.7</ele>
        <time>2020-11-17T12:22:26Z</time>
      </trkpt>
      <trkpt lat="28.5535100" lon="-17.8225900">
        <ele>1204.7</ele>
        <time>2020-11-17T12:22:27Z</time>
      </trkpt>
      <trkpt lat="28.5535420" lon="-17.8226130">
        <ele>1205.1</ele>
        <time>2020-11-17T12:22:28Z</time>
      </trkpt>
      <trkpt lat="28.5535420" lon="-17.8226130">
        <ele>1205.1</ele>
        <time>2020-11-17T12:22:29Z</time>
      </trkpt>
      <trkpt lat="28.5535720" lon="-17.8226300">
        <ele>1205.4</ele>
        <time>2020-11-17T12:22:30Z</time>
      </trkpt>
      <trkpt lat="28.5535720" lon="-17.8226300">
        <ele>1205.4</ele>
        <time>2020-11-17T12:22:31Z</time>
      </trkpt>
      <trkpt lat="28.5535950" lon="-17.8226480">
        <ele>1205.7</ele>
        <time>2020-11-17T12:22:32Z</time>
      </trkpt>
      <trkpt lat="28.5536070" lon="-17.8226520">
        <ele>1205.8</ele>
        <time>2020-11-17T12:22:33Z</time>
      </trkpt>
      <trkpt lat="28.5536220" lon="-17.8226550">
        <ele>1206.0</ele>
        <time>2020-11-17T12:22:34Z</time>
      </trkpt>
      <trkpt lat="28.5536220" lon="-17.8226550">
        <ele>1206.0</ele>
        <time>2020-11-17T12:22:35Z</time>
      </trkpt>
      <trkpt lat="28.5536650" lon="-17.8226470">
        <ele>1206.4</ele>
        <time>2020-11-17T12:22:36Z</time>
      </trkpt>
      <trkpt lat="28.5536650" lon="-17.8226470">
        <ele>1206.4</ele>
        <time>2020-11-17T12:22:37Z</time>
      </trkpt>
      <trkpt lat="28.5537050" lon="-17.8226580">
        <ele>1206.7</ele>
        <time>2020-11-17T12:22:38Z</time>
      </trkpt>
      <trkpt lat="28.5537170" lon="-17.8226620">
        <ele>1206.8</ele>
        <time>2020-11-17T12:22:39Z</time>
      </trkpt>
      <trkpt lat="28.5537170" lon="-17.8226620">
        <ele>1206.8</ele>
        <time>2020-11-17T12:22:40Z</time>
      </trkpt>
      <trkpt lat="28.5537380" lon="-17.8226630">
        <ele>1207.0</ele>
        <time>2020-11-17T12:22:41Z</time>
      </trkpt>
      <trkpt lat="28.5537380" lon="-17.8226630">
        <ele>1207.0</ele>
        <time>2020-11-17T12:22:42Z</time>
      </trkpt>
      <trkpt lat="28.5537770" lon="-17.8226630">
        <ele>1207.3</ele>
        <time>2020-11-17T12:22:43Z</time>
      </trkpt>
      <trkpt lat="28.5537980" lon="-17.8226630">
        <ele>1207.4</ele>
        <time>2020-11-17T12:22:44Z</time>
      </trkpt>
      <trkpt lat="28.5538150" lon="-17.8226630">
        <ele>1207.6</ele>
        <time>2020-11-17T12:22:45Z</time>
      </trkpt>
      <trkpt lat="28.5538150" lon="-17.8226630">
        <ele>1207.6</ele>
        <time>2020-11-17T12:22:46Z</time>
      </trkpt>
      <trkpt lat="28.5538470" lon="-17.8226650">
        <ele>1207.8</ele>
        <time>2020-11-17T12:22:47Z</time>
      </trkpt>
      <trkpt lat="28.5538580" lon="-17.8226650">
        <ele>1207.9</ele>
        <time>2020-11-17T12:22:48Z</time>
      </trkpt>
      <trkpt lat="28.5538580" lon="-17.8226650">
        <ele>1207.9</ele>
        <time>2020-11-17T12:22:49Z</time>
      </trkpt>
      <trkpt lat="28.5538930" lon="-17.8226550">
        <ele>1208.3</ele>
        <time>2020-11-17T12:22:50Z</time>
      </trkpt>
      <trkpt lat="28.5539080" lon="-17.8226500">
        <ele>1208.4</ele>
        <time>2020-11-17T12:22:51Z</time>
      </trkpt>
      <trkpt lat="28.5539080" lon="-17.8226500">
        <ele>1208.4</ele>
        <time>2020-11-17T12:22:52Z</time>
      </trkpt>
      <trkpt lat="28.5539400" lon="-17.8226400">
        <ele>1208.7</ele>
        <time>2020-11-17T12:22:53Z</time>
      </trkpt>
      <trkpt lat="28.5539550" lon="-17.8226380">
        <ele>1208.9</ele>
        <time>2020-11-17T12:22:54Z</time>
      </trkpt>
      <trkpt lat="28.5539550" lon="-17.8226380">
        <ele>1208.9</ele>
        <time>2020-11-17T12:22:55Z</time>
      </trkpt>
      <trkpt lat="28.5539780" lon="-17.8226370">
        <ele>1209.1</ele>
        <time>2020-11-17T12:22:56Z</time>
      </trkpt>
      <trkpt lat="28.5539780" lon="-17.8226370">
        <ele>1209.1</ele>
        <time>2020-11-17T12:22:57Z</time>
      </trkpt>
      <trkpt lat="28.5540130" lon="-17.8226380">
        <ele>1209.5</ele>
        <time>2020-11-17T12:22:58Z</time>
      </trkpt>
      <trkpt lat="28.5540130" lon="-17.8226380">
        <ele>1209.5</ele>
        <time>2020-11-17T12:22:59Z</time>
      </trkpt>
      <trkpt lat="28.5540530" lon="-17.8226430">
        <ele>1209.8</ele>
        <time>2020-11-17T12:23:00Z</time>
      </trkpt>
      <trkpt lat="28.5540530" lon="-17.8226430">
        <ele>1209.8</ele>
        <time>2020-11-17T12:23:01Z</time>
      </trkpt>
      <trkpt lat="28.5540980" lon="-17.8226370">
        <ele>1210.3</ele>
        <time>2020-11-17T12:23:02Z</time>
      </trkpt>
      <trkpt lat="28.5540980" lon="-17.8226370">
        <ele>1210.3</ele>
        <time>2020-11-17T12:23:03Z</time>
      </trkpt>
      <trkpt lat="28.5541380" lon="-17.8226400">
        <ele>1210.6</ele>
        <time>2020-11-17T12:23:04Z</time>
      </trkpt>
      <trkpt lat="28.5541550" lon="-17.8226470">
        <ele>1210.8</ele>
        <time>2020-11-17T12:23:05Z</time>
      </trkpt>
      <trkpt lat="28.5541700" lon="-17.8226500">
        <ele>1210.9</ele>
        <time>2020-11-17T12:23:06Z</time>
      </trkpt>
      <trkpt lat="28.5541700" lon="-17.8226500">
        <ele>1210.9</ele>
        <time>2020-11-17T12:23:07Z</time>
      </trkpt>
      <trkpt lat="28.5542030" lon="-17.8226620">
        <ele>1211.3</ele>
        <time>2020-11-17T12:23:08Z</time>
      </trkpt>
      <trkpt lat="28.5542030" lon="-17.8226620">
        <ele>1211.3</ele>
        <time>2020-11-17T12:23:09Z</time>
      </trkpt>
      <trkpt lat="28.5542300" lon="-17.8226680">
        <ele>1211.6</ele>
        <time>2020-11-17T12:23:10Z</time>
      </trkpt>
      <trkpt lat="28.5542300" lon="-17.8226680">
        <ele>1211.6</ele>
        <time>2020-11-17T12:23:11Z</time>
      </trkpt>
      <trkpt lat="28.5542520" lon="-17.8226780">
        <ele>1211.8</ele>
        <time>2020-11-17T12:23:12Z</time>
      </trkpt>
      <trkpt lat="28.5542520" lon="-17.8226780">
        <ele>1211.8</ele>
        <time>2020-11-17T12:23:13Z</time>
      </trkpt>
      <trkpt lat="28.5542830" lon="-17.8226830">
        <ele>1212.2</ele>
        <time>2020-11-17T12:23:14Z</time>
      </trkpt>
      <trkpt lat="28.5542830" lon="-17.8226830">
        <ele>1212.2</ele>
        <time>2020-11-17T12:23:15Z</time>
      </trkpt>
      <trkpt lat="28.5543250" lon="-17.8226930">
        <ele>1212.8</ele>
        <time>2020-11-17T12:23:16Z</time>
      </trkpt>
      <trkpt lat="28.5543250" lon="-17.8226930">
        <ele>1212.8</ele>
        <time>2020-11-17T12:23:17Z</time>
      </trkpt>
      <trkpt lat="28.5543470" lon="-17.8226930">
        <ele>1213.1</ele>
        <time>2020-11-17T12:23:18Z</time>
      </trkpt>
      <trkpt lat="28.5543470" lon="-17.8226930">
        <ele>1213.1</ele>
        <time>2020-11-17T12:23:19Z</time>
      </trkpt>
      <trkpt lat="28.5543750" lon="-17.8226750">
        <ele>1213.5</ele>
        <time>2020-11-17T12:23:20Z</time>
      </trkpt>
      <trkpt lat="28.5543750" lon="-17.8226750">
        <ele>1213.5</ele>
        <time>2020-11-17T12:23:21Z</time>
      </trkpt>
      <trkpt lat="28.5544000" lon="-17.8226580">
        <ele>1214.0</ele>
        <time>2020-11-17T12:23:22Z</time>
      </trkpt>
      <trkpt lat="28.5544000" lon="-17.8226580">
        <ele>1214.0</ele>
        <time>2020-11-17T12:23:23Z</time>
      </trkpt>
      <trkpt lat="28.5544250" lon="-17.8226530">
        <ele>1214.3</ele>
        <time>2020-11-17T12:23:24Z</time>
      </trkpt>
      <trkpt lat="28.5544250" lon="-17.8226530">
        <ele>1214.3</ele>
        <time>2020-11-17T12:23:25Z</time>
      </trkpt>
      <trkpt lat="28.5544630" lon="-17.8226220">
        <ele>1215.0</ele>
        <time>2020-11-17T12:23:26Z</time>
      </trkpt>
      <trkpt lat="28.5544630" lon="-17.8226220">
        <ele>1215.0</ele>
        <time>2020-11-17T12:23:27Z</time>
      </trkpt>
      <trkpt lat="28.5545030" lon="-17.8225820">
        <ele>1215.6</ele>
        <time>2020-11-17T12:23:28Z</time>
      </trkpt>
      <trkpt lat="28.5545150" lon="-17.8225600">
        <ele>1215.9</ele>
        <time>2020-11-17T12:23:29Z</time>
      </trkpt>
      <trkpt lat="28.5545270" lon="-17.8225370">
        <ele>1216.2</ele>
        <time>2020-11-17T12:23:30Z</time>
      </trkpt>
      <trkpt lat="28.5545270" lon="-17.8225370">
        <ele>1216.2</ele>
        <time>2020-11-17T12:23:31Z</time>
      </trkpt>
      <trkpt lat="28.5545350" lon="-17.8225070">
        <ele>1216.5</ele>
        <time>2020-11-17T12:23:32Z</time>
      </trkpt>
      <trkpt lat="28.5545350" lon="-17.8225070">
        <ele>1216.5</ele>
        <time>2020-11-17T12:23:33Z</time>
      </trkpt>
      <trkpt lat="28.5545480" lon="-17.8224830">
        <ele>1216.7</ele>
        <time>2020-11-17T12:23:34Z</time>
      </trkpt>
      <trkpt lat="28.5545600" lon="-17.8224770">
        <ele>1216.9</ele>
        <time>2020-11-17T12:23:35Z</time>
      </trkpt>
      <trkpt lat="28.5545600" lon="-17.8224770">
        <ele>1216.9</ele>
        <time>2020-11-17T12:23:36Z</time>
      </trkpt>
      <trkpt lat="28.5545850" lon="-17.8224570">
        <ele>1217.2</ele>
        <time>2020-11-17T12:23:37Z</time>
      </trkpt>
      <trkpt lat="28.5545850" lon="-17.8224570">
        <ele>1217.2</ele>
        <time>2020-11-17T12:23:38Z</time>
      </trkpt>
      <trkpt lat="28.5546170" lon="-17.8224480">
        <ele>1217.5</ele>
        <time>2020-11-17T12:23:39Z</time>
      </trkpt>
      <trkpt lat="28.5546270" lon="-17.8224420">
        <ele>1217.6</ele>
        <time>2020-11-17T12:23:40Z</time>
      </trkpt>
      <trkpt lat="28.5546370" lon="-17.8224370">
        <ele>1217.8</ele>
        <time>2020-11-17T12:23:41Z</time>
      </trkpt>
      <trkpt lat="28.5546370" lon="-17.8224370">
        <ele>1217.8</ele>
        <time>2020-11-17T12:23:42Z</time>
      </trkpt>
      <trkpt lat="28.5546580" lon="-17.8224280">
        <ele>1218.0</ele>
        <time>2020-11-17T12:23:43Z</time>
      </trkpt>
      <trkpt lat="28.5546580" lon="-17.8224280">
        <ele>1218.0</ele>
        <time>2020-11-17T12:23:44Z</time>
      </trkpt>
      <trkpt lat="28.5546900" lon="-17.8224300">
        <ele>1218.3</ele>
        <time>2020-11-17T12:23:45Z</time>
      </trkpt>
      <trkpt lat="28.5547120" lon="-17.8224350">
        <ele>1218.5</ele>
        <time>2020-11-17T12:23:46Z</time>
      </trkpt>
      <trkpt lat="28.5547300" lon="-17.8224420">
        <ele>1218.7</ele>
        <time>2020-11-17T12:23:47Z</time>
      </trkpt>
      <trkpt lat="28.5547470" lon="-17.8224470">
        <ele>1218.8</ele>
        <time>2020-11-17T12:23:48Z</time>
      </trkpt>
      <trkpt lat="28.5547470" lon="-17.8224470">
        <ele>1218.8</ele>
        <time>2020-11-17T12:23:49Z</time>
      </trkpt>
      <trkpt lat="28.5547780" lon="-17.8224550">
        <ele>1219.0</ele>
        <time>2020-11-17T12:23:50Z</time>
      </trkpt>
      <trkpt lat="28.5547780" lon="-17.8224550">
        <ele>1219.0</ele>
        <time>2020-11-17T12:23:51Z</time>
      </trkpt>
      <trkpt lat="28.5548050" lon="-17.8224630">
        <ele>1219.2</ele>
        <time>2020-11-17T12:23:52Z</time>
      </trkpt>
      <trkpt lat="28.5548050" lon="-17.8224630">
        <ele>1219.2</ele>
        <time>2020-11-17T12:23:53Z</time>
      </trkpt>
      <trkpt lat="28.5548320" lon="-17.8224730">
        <ele>1219.4</ele>
        <time>2020-11-17T12:23:54Z</time>
      </trkpt>
      <trkpt lat="28.5548320" lon="-17.8224730">
        <ele>1219.4</ele>
        <time>2020-11-17T12:23:55Z</time>
      </trkpt>
      <trkpt lat="28.5548520" lon="-17.8224850">
        <ele>1219.5</ele>
        <time>2020-11-17T12:23:56Z</time>
      </trkpt>
      <trkpt lat="28.5548520" lon="-17.8224850">
        <ele>1219.5</ele>
        <time>2020-11-17T12:23:57Z</time>
      </trkpt>
      <trkpt lat="28.5548650" lon="-17.8224920">
        <ele>1219.6</ele>
        <time>2020-11-17T12:23:58Z</time>
      </trkpt>
      <trkpt lat="28.5548650" lon="-17.8224920">
        <ele>1219.6</ele>
        <time>2020-11-17T12:23:59Z</time>
      </trkpt>
      <trkpt lat="28.5548800" lon="-17.8224930">
        <ele>1219.7</ele>
        <time>2020-11-17T12:24:00Z</time>
      </trkpt>
      <trkpt lat="28.5548800" lon="-17.8224930">
        <ele>1219.7</ele>
        <time>2020-11-17T12:24:01Z</time>
      </trkpt>
      <trkpt lat="28.5549130" lon="-17.8225000">
        <ele>1219.8</ele>
        <time>2020-11-17T12:24:02Z</time>
      </trkpt>
      <trkpt lat="28.5549130" lon="-17.8225000">
        <ele>1219.8</ele>
        <time>2020-11-17T12:24:03Z</time>
      </trkpt>
      <trkpt lat="28.5549520" lon="-17.8225020">
        <ele>1220.0</ele>
        <time>2020-11-17T12:24:04Z</time>
      </trkpt>
      <trkpt lat="28.5549520" lon="-17.8225020">
        <ele>1220.0</ele>
        <time>2020-11-17T12:24:05Z</time>
      </trkpt>
      <trkpt lat="28.5550100" lon="-17.8224980">
        <ele>1220.3</ele>
        <time>2020-11-17T12:24:06Z</time>
      </trkpt>
      <trkpt lat="28.5550100" lon="-17.8224980">
        <ele>1220.3</ele>
        <time>2020-11-17T12:24:07Z</time>
      </trkpt>
      <trkpt lat="28.5550600" lon="-17.8224800">
        <ele>1220.7</ele>
        <time>2020-11-17T12:24:08Z</time>
      </trkpt>
      <trkpt lat="28.5550850" lon="-17.8224720">
        <ele>1220.8</ele>
        <time>2020-11-17T12:24:09Z</time>
      </trkpt>
      <trkpt lat="28.5551020" lon="-17.8224620">
        <ele>1221.0</ele>
        <time>2020-11-17T12:24:10Z</time>
      </trkpt>
      <trkpt lat="28.5551020" lon="-17.8224620">
        <ele>1221.0</ele>
        <time>2020-11-17T12:24:11Z</time>
      </trkpt>
      <trkpt lat="28.5551480" lon="-17.8224520">
        <ele>1221.2</ele>
        <time>2020-11-17T12:24:12Z</time>
      </trkpt>
      <trkpt lat="28.5551480" lon="-17.8224520">
        <ele>1221.2</ele>
        <time>2020-11-17T12:24:13Z</time>
      </trkpt>
      <trkpt lat="28.5551820" lon="-17.8224470">
        <ele>1221.4</ele>
        <time>2020-11-17T12:24:14Z</time>
      </trkpt>
      <trkpt lat="28.5551820" lon="-17.8224470">
        <ele>1221.4</ele>
        <time>2020-11-17T12:24:15Z</time>
      </trkpt>
      <trkpt lat="28.5552120" lon="-17.8224420">
        <ele>1221.6</ele>
        <time>2020-11-17T12:24:16Z</time>
      </trkpt>
      <trkpt lat="28.5552120" lon="-17.8224420">
        <ele>1221.6</ele>
        <time>2020-11-17T12:24:17Z</time>
      </trkpt>
      <trkpt lat="28.5552420" lon="-17.8224380">
        <ele>1221.7</ele>
        <time>2020-11-17T12:24:18Z</time>
      </trkpt>
      <trkpt lat="28.5552420" lon="-17.8224380">
        <ele>1221.7</ele>
        <time>2020-11-17T12:24:19Z</time>
      </trkpt>
      <trkpt lat="28.5552730" lon="-17.8224330">
        <ele>1221.7</ele>
        <time>2020-11-17T12:24:20Z</time>
      </trkpt>
      <trkpt lat="28.5552880" lon="-17.8224370">
        <ele>1221.8</ele>
        <time>2020-11-17T12:24:21Z</time>
      </trkpt>
      <trkpt lat="28.5552880" lon="-17.8224370">
        <ele>1221.8</ele>
        <time>2020-11-17T12:24:22Z</time>
      </trkpt>
      <trkpt lat="28.5553100" lon="-17.8224430">
        <ele>1221.8</ele>
        <time>2020-11-17T12:24:23Z</time>
      </trkpt>
      <trkpt lat="28.5553270" lon="-17.8224470">
        <ele>1221.9</ele>
        <time>2020-11-17T12:24:24Z</time>
      </trkpt>
      <trkpt lat="28.5553270" lon="-17.8224470">
        <ele>1221.9</ele>
        <time>2020-11-17T12:24:25Z</time>
      </trkpt>
      <trkpt lat="28.5553550" lon="-17.8224500">
        <ele>1222.0</ele>
        <time>2020-11-17T12:24:26Z</time>
      </trkpt>
      <trkpt lat="28.5553550" lon="-17.8224500">
        <ele>1222.0</ele>
        <time>2020-11-17T12:24:27Z</time>
      </trkpt>
      <trkpt lat="28.5553900" lon="-17.8224350">
        <ele>1222.0</ele>
        <time>2020-11-17T12:24:28Z</time>
      </trkpt>
      <trkpt lat="28.5554250" lon="-17.8224150">
        <ele>1222.2</ele>
        <time>2020-11-17T12:24:29Z</time>
      </trkpt>
      <trkpt lat="28.5554250" lon="-17.8224150">
        <ele>1222.2</ele>
        <time>2020-11-17T12:24:30Z</time>
      </trkpt>
      <trkpt lat="28.5554730" lon="-17.8223680">
        <ele>1222.4</ele>
        <time>2020-11-17T12:24:31Z</time>
      </trkpt>
      <trkpt lat="28.5554730" lon="-17.8223680">
        <ele>1222.4</ele>
        <time>2020-11-17T12:24:32Z</time>
      </trkpt>
      <trkpt lat="28.5555080" lon="-17.8223350">
        <ele>1222.5</ele>
        <time>2020-11-17T12:24:33Z</time>
      </trkpt>
      <trkpt lat="28.5555080" lon="-17.8223350">
        <ele>1222.5</ele>
        <time>2020-11-17T12:24:34Z</time>
      </trkpt>
      <trkpt lat="28.5555430" lon="-17.8223020">
        <ele>1222.6</ele>
        <time>2020-11-17T12:24:35Z</time>
      </trkpt>
      <trkpt lat="28.5555570" lon="-17.8222870">
        <ele>1222.7</ele>
        <time>2020-11-17T12:24:36Z</time>
      </trkpt>
      <trkpt lat="28.5555570" lon="-17.8222870">
        <ele>1222.7</ele>
        <time>2020-11-17T12:24:37Z</time>
      </trkpt>
      <trkpt lat="28.5555750" lon="-17.8222380">
        <ele>1222.7</ele>
        <time>2020-11-17T12:24:38Z</time>
      </trkpt>
      <trkpt lat="28.5555750" lon="-17.8222380">
        <ele>1222.7</ele>
        <time>2020-11-17T12:24:39Z</time>
      </trkpt>
      <trkpt lat="28.5556130" lon="-17.8221650">
        <ele>1222.6</ele>
        <time>2020-11-17T12:24:40Z</time>
      </trkpt>
      <trkpt lat="28.5556330" lon="-17.8221280">
        <ele>1222.6</ele>
        <time>2020-11-17T12:24:41Z</time>
      </trkpt>
      <trkpt lat="28.5556330" lon="-17.8221280">
        <ele>1222.6</ele>
        <time>2020-11-17T12:24:42Z</time>
      </trkpt>
      <trkpt lat="28.5556570" lon="-17.8220550">
        <ele>1222.4</ele>
        <time>2020-11-17T12:24:43Z</time>
      </trkpt>
      <trkpt lat="28.5556700" lon="-17.8220170">
        <ele>1222.3</ele>
        <time>2020-11-17T12:24:44Z</time>
      </trkpt>
      <trkpt lat="28.5556700" lon="-17.8220170">
        <ele>1222.3</ele>
        <time>2020-11-17T12:24:45Z</time>
      </trkpt>
      <trkpt lat="28.5557080" lon="-17.8219430">
        <ele>1222.0</ele>
        <time>2020-11-17T12:24:46Z</time>
      </trkpt>
      <trkpt lat="28.5557080" lon="-17.8219430">
        <ele>1222.0</ele>
        <time>2020-11-17T12:24:47Z</time>
      </trkpt>
      <trkpt lat="28.5557730" lon="-17.8219120">
        <ele>1221.9</ele>
        <time>2020-11-17T12:24:48Z</time>
      </trkpt>
      <trkpt lat="28.5557730" lon="-17.8219120">
        <ele>1221.9</ele>
        <time>2020-11-17T12:24:49Z</time>
      </trkpt>
      <trkpt lat="28.5558480" lon="-17.8219020">
        <ele>1221.8</ele>
        <time>2020-11-17T12:24:50Z</time>
      </trkpt>
      <trkpt lat="28.5558830" lon="-17.8219000">
        <ele>1221.8</ele>
        <time>2020-11-17T12:24:51Z</time>
      </trkpt>
      <trkpt lat="28.5559150" lon="-17.8218950">
        <ele>1221.8</ele>
        <time>2020-11-17T12:24:52Z</time>
      </trkpt>
      <trkpt lat="28.5559150" lon="-17.8218950">
        <ele>1221.8</ele>
        <time>2020-11-17T12:24:53Z</time>
      </trkpt>
      <trkpt lat="28.5559650" lon="-17.8218720">
        <ele>1222.0</ele>
        <time>2020-11-17T12:24:54Z</time>
      </trkpt>
      <trkpt lat="28.5559650" lon="-17.8218720">
        <ele>1222.0</ele>
        <time>2020-11-17T12:24:55Z</time>
      </trkpt>
      <trkpt lat="28.5560070" lon="-17.8218080">
        <ele>1222.4</ele>
        <time>2020-11-17T12:24:56Z</time>
      </trkpt>
      <trkpt lat="28.5560070" lon="-17.8218080">
        <ele>1222.4</ele>
        <time>2020-11-17T12:24:57Z</time>
      </trkpt>
      <trkpt lat="28.5560200" lon="-17.8217550">
        <ele>1222.7</ele>
        <time>2020-11-17T12:24:58Z</time>
      </trkpt>
      <trkpt lat="28.5560200" lon="-17.8217550">
        <ele>1222.7</ele>
        <time>2020-11-17T12:24:59Z</time>
      </trkpt>
      <trkpt lat="28.5560170" lon="-17.8217070">
        <ele>1223.0</ele>
        <time>2020-11-17T12:25:00Z</time>
      </trkpt>
      <trkpt lat="28.5560170" lon="-17.8217070">
        <ele>1223.0</ele>
        <time>2020-11-17T12:25:01Z</time>
      </trkpt>
      <trkpt lat="28.5560100" lon="-17.8216650">
        <ele>1223.3</ele>
        <time>2020-11-17T12:25:02Z</time>
      </trkpt>
      <trkpt lat="28.5560100" lon="-17.8216650">
        <ele>1223.3</ele>
        <time>2020-11-17T12:25:03Z</time>
      </trkpt>
      <trkpt lat="28.5559930" lon="-17.8216150">
        <ele>1223.7</ele>
        <time>2020-11-17T12:25:04Z</time>
      </trkpt>
      <trkpt lat="28.5559880" lon="-17.8215950">
        <ele>1223.8</ele>
        <time>2020-11-17T12:25:05Z</time>
      </trkpt>
      <trkpt lat="28.5559830" lon="-17.8215670">
        <ele>1224.0</ele>
        <time>2020-11-17T12:25:06Z</time>
      </trkpt>
      <trkpt lat="28.5559830" lon="-17.8215670">
        <ele>1224.0</ele>
        <time>2020-11-17T12:25:07Z</time>
      </trkpt>
      <trkpt lat="28.5559720" lon="-17.8215120">
        <ele>1224.5</ele>
        <time>2020-11-17T12:25:08Z</time>
      </trkpt>
      <trkpt lat="28.5559720" lon="-17.8215120">
        <ele>1224.5</ele>
        <time>2020-11-17T12:25:09Z</time>
      </trkpt>
      <trkpt lat="28.5559580" lon="-17.8214570">
        <ele>1225.1</ele>
        <time>2020-11-17T12:25:10Z</time>
      </trkpt>
      <trkpt lat="28.5559580" lon="-17.8214570">
        <ele>1225.1</ele>
        <time>2020-11-17T12:25:11Z</time>
      </trkpt>
      <trkpt lat="28.5559570" lon="-17.8213950">
        <ele>1225.7</ele>
        <time>2020-11-17T12:25:12Z</time>
      </trkpt>
      <trkpt lat="28.5559580" lon="-17.8213680">
        <ele>1225.9</ele>
        <time>2020-11-17T12:25:13Z</time>
      </trkpt>
      <trkpt lat="28.5559580" lon="-17.8213680">
        <ele>1225.9</ele>
        <time>2020-11-17T12:25:14Z</time>
      </trkpt>
      <trkpt lat="28.5559430" lon="-17.8213020">
        <ele>1226.5</ele>
        <time>2020-11-17T12:25:15Z</time>
      </trkpt>
      <trkpt lat="28.5559430" lon="-17.8213020">
        <ele>1226.5</ele>
        <time>2020-11-17T12:25:16Z</time>
      </trkpt>
      <trkpt lat="28.5559330" lon="-17.8212430">
        <ele>1227.0</ele>
        <time>2020-11-17T12:25:17Z</time>
      </trkpt>
      <trkpt lat="28.5559400" lon="-17.8212180">
        <ele>1227.2</ele>
        <time>2020-11-17T12:25:18Z</time>
      </trkpt>
      <trkpt lat="28.5559400" lon="-17.8212180">
        <ele>1227.2</ele>
        <time>2020-11-17T12:25:19Z</time>
      </trkpt>
      <trkpt lat="28.5559670" lon="-17.8211800">
        <ele>1227.6</ele>
        <time>2020-11-17T12:25:20Z</time>
      </trkpt>
      <trkpt lat="28.5559670" lon="-17.8211800">
        <ele>1227.6</ele>
        <time>2020-11-17T12:25:21Z</time>
      </trkpt>
      <trkpt lat="28.5560020" lon="-17.8211520">
        <ele>1228.0</ele>
        <time>2020-11-17T12:25:22Z</time>
      </trkpt>
      <trkpt lat="28.5560020" lon="-17.8211520">
        <ele>1228.0</ele>
        <time>2020-11-17T12:25:23Z</time>
      </trkpt>
      <trkpt lat="28.5560350" lon="-17.8211330">
        <ele>1228.4</ele>
        <time>2020-11-17T12:25:24Z</time>
      </trkpt>
      <trkpt lat="28.5560350" lon="-17.8211330">
        <ele>1228.4</ele>
        <time>2020-11-17T12:25:25Z</time>
      </trkpt>
      <trkpt lat="28.5560650" lon="-17.8211230">
        <ele>1228.7</ele>
        <time>2020-11-17T12:25:26Z</time>
      </trkpt>
      <trkpt lat="28.5560650" lon="-17.8211230">
        <ele>1228.7</ele>
        <time>2020-11-17T12:25:27Z</time>
      </trkpt>
      <trkpt lat="28.5560930" lon="-17.8211170">
        <ele>1229.0</ele>
        <time>2020-11-17T12:25:28Z</time>
      </trkpt>
      <trkpt lat="28.5560930" lon="-17.8211170">
        <ele>1229.0</ele>
        <time>2020-11-17T12:25:29Z</time>
      </trkpt>
      <trkpt lat="28.5561170" lon="-17.8211030">
        <ele>1229.2</ele>
        <time>2020-11-17T12:25:30Z</time>
      </trkpt>
      <trkpt lat="28.5561170" lon="-17.8211030">
        <ele>1229.2</ele>
        <time>2020-11-17T12:25:31Z</time>
      </trkpt>
      <trkpt lat="28.5561450" lon="-17.8210950">
        <ele>1229.5</ele>
        <time>2020-11-17T12:25:32Z</time>
      </trkpt>
      <trkpt lat="28.5561450" lon="-17.8210950">
        <ele>1229.5</ele>
        <time>2020-11-17T12:25:33Z</time>
      </trkpt>
      <trkpt lat="28.5561680" lon="-17.8210930">
        <ele>1229.8</ele>
        <time>2020-11-17T12:25:34Z</time>
      </trkpt>
      <trkpt lat="28.5561680" lon="-17.8210930">
        <ele>1229.8</ele>
        <time>2020-11-17T12:25:35Z</time>
      </trkpt>
      <trkpt lat="28.5561920" lon="-17.8210870">
        <ele>1230.1</ele>
        <time>2020-11-17T12:25:36Z</time>
      </trkpt>
      <trkpt lat="28.5562050" lon="-17.8210850">
        <ele>1230.2</ele>
        <time>2020-11-17T12:25:37Z</time>
      </trkpt>
      <trkpt lat="28.5562050" lon="-17.8210850">
        <ele>1230.2</ele>
        <time>2020-11-17T12:25:38Z</time>
      </trkpt>
      <trkpt lat="28.5562300" lon="-17.8210700">
        <ele>1230.5</ele>
        <time>2020-11-17T12:25:39Z</time>
      </trkpt>
      <trkpt lat="28.5562300" lon="-17.8210700">
        <ele>1230.5</ele>
        <time>2020-11-17T12:25:40Z</time>
      </trkpt>
      <trkpt lat="28.5562500" lon="-17.8210570">
        <ele>1230.8</ele>
        <time>2020-11-17T12:25:41Z</time>
      </trkpt>
      <trkpt lat="28.5562580" lon="-17.8210370">
        <ele>1231.0</ele>
        <time>2020-11-17T12:25:42Z</time>
      </trkpt>
      <trkpt lat="28.5562580" lon="-17.8210370">
        <ele>1231.0</ele>
        <time>2020-11-17T12:25:43Z</time>
      </trkpt>
      <trkpt lat="28.5562870" lon="-17.8210200">
        <ele>1231.4</ele>
        <time>2020-11-17T12:25:44Z</time>
      </trkpt>
      <trkpt lat="28.5562870" lon="-17.8210200">
        <ele>1231.4</ele>
        <time>2020-11-17T12:25:45Z</time>
      </trkpt>
      <trkpt lat="28.5563170" lon="-17.8210030">
        <ele>1231.8</ele>
        <time>2020-11-17T12:25:46Z</time>
      </trkpt>
      <trkpt lat="28.5563170" lon="-17.8210030">
        <ele>1231.8</ele>
        <time>2020-11-17T12:25:47Z</time>
      </trkpt>
      <trkpt lat="28.5563430" lon="-17.8209880">
        <ele>1232.1</ele>
        <time>2020-11-17T12:25:48Z</time>
      </trkpt>
      <trkpt lat="28.5563430" lon="-17.8209880">
        <ele>1232.1</ele>
        <time>2020-11-17T12:25:49Z</time>
      </trkpt>
      <trkpt lat="28.5563730" lon="-17.8209670">
        <ele>1232.5</ele>
        <time>2020-11-17T12:25:50Z</time>
      </trkpt>
      <trkpt lat="28.5563730" lon="-17.8209670">
        <ele>1232.5</ele>
        <time>2020-11-17T12:25:51Z</time>
      </trkpt>
      <trkpt lat="28.5563900" lon="-17.8209370">
        <ele>1232.8</ele>
        <time>2020-11-17T12:25:52Z</time>
      </trkpt>
      <trkpt lat="28.5563900" lon="-17.8209370">
        <ele>1232.8</ele>
        <time>2020-11-17T12:25:53Z</time>
      </trkpt>
      <trkpt lat="28.5564050" lon="-17.8209130">
        <ele>1233.0</ele>
        <time>2020-11-17T12:25:54Z</time>
      </trkpt>
      <trkpt lat="28.5564050" lon="-17.8209130">
        <ele>1233.0</ele>
        <time>2020-11-17T12:25:55Z</time>
      </trkpt>
      <trkpt lat="28.5564270" lon="-17.8208930">
        <ele>1233.3</ele>
        <time>2020-11-17T12:25:56Z</time>
      </trkpt>
      <trkpt lat="28.5564400" lon="-17.8208820">
        <ele>1233.5</ele>
        <time>2020-11-17T12:25:57Z</time>
      </trkpt>
      <trkpt lat="28.5564400" lon="-17.8208820">
        <ele>1233.5</ele>
        <time>2020-11-17T12:25:58Z</time>
      </trkpt>
      <trkpt lat="28.5564600" lon="-17.8208650">
        <ele>1233.7</ele>
        <time>2020-11-17T12:25:59Z</time>
      </trkpt>
      <trkpt lat="28.5564720" lon="-17.8208600">
        <ele>1233.8</ele>
        <time>2020-11-17T12:26:00Z</time>
      </trkpt>
      <trkpt lat="28.5564720" lon="-17.8208600">
        <ele>1233.8</ele>
        <time>2020-11-17T12:26:01Z</time>
      </trkpt>
      <trkpt lat="28.5565000" lon="-17.8208500">
        <ele>1234.1</ele>
        <time>2020-11-17T12:26:02Z</time>
      </trkpt>
      <trkpt lat="28.5565000" lon="-17.8208500">
        <ele>1234.1</ele>
        <time>2020-11-17T12:26:03Z</time>
      </trkpt>
      <trkpt lat="28.5565230" lon="-17.8208450">
        <ele>1234.3</ele>
        <time>2020-11-17T12:26:04Z</time>
      </trkpt>
      <trkpt lat="28.5565370" lon="-17.8208400">
        <ele>1234.5</ele>
        <time>2020-11-17T12:26:05Z</time>
      </trkpt>
      <trkpt lat="28.5565370" lon="-17.8208400">
        <ele>1234.5</ele>
        <time>2020-11-17T12:26:06Z</time>
      </trkpt>
      <trkpt lat="28.5565600" lon="-17.8208280">
        <ele>1234.7</ele>
        <time>2020-11-17T12:26:07Z</time>
      </trkpt>
      <trkpt lat="28.5565730" lon="-17.8208230">
        <ele>1234.8</ele>
        <time>2020-11-17T12:26:08Z</time>
      </trkpt>
      <trkpt lat="28.5565730" lon="-17.8208230">
        <ele>1234.8</ele>
        <time>2020-11-17T12:26:09Z</time>
      </trkpt>
      <trkpt lat="28.5565950" lon="-17.8208120">
        <ele>1235.0</ele>
        <time>2020-11-17T12:26:10Z</time>
      </trkpt>
      <trkpt lat="28.5565950" lon="-17.8208120">
        <ele>1235.0</ele>
        <time>2020-11-17T12:26:11Z</time>
      </trkpt>
      <trkpt lat="28.5566230" lon="-17.8207900">
        <ele>1235.3</ele>
        <time>2020-11-17T12:26:12Z</time>
      </trkpt>
      <trkpt lat="28.5566380" lon="-17.8207800">
        <ele>1235.5</ele>
        <time>2020-11-17T12:26:13Z</time>
      </trkpt>
      <trkpt lat="28.5566380" lon="-17.8207800">
        <ele>1235.5</ele>
        <time>2020-11-17T12:26:14Z</time>
      </trkpt>
      <trkpt lat="28.5566830" lon="-17.8207600">
        <ele>1235.9</ele>
        <time>2020-11-17T12:26:15Z</time>
      </trkpt>
      <trkpt lat="28.5566830" lon="-17.8207600">
        <ele>1235.9</ele>
        <time>2020-11-17T12:26:16Z</time>
      </trkpt>
      <trkpt lat="28.5567220" lon="-17.8207620">
        <ele>1236.2</ele>
        <time>2020-11-17T12:26:17Z</time>
      </trkpt>
      <trkpt lat="28.5567220" lon="-17.8207620">
        <ele>1236.2</ele>
        <time>2020-11-17T12:26:18Z</time>
      </trkpt>
      <trkpt lat="28.5567570" lon="-17.8207570">
        <ele>1236.5</ele>
        <time>2020-11-17T12:26:19Z</time>
      </trkpt>
      <trkpt lat="28.5567700" lon="-17.8207530">
        <ele>1236.6</ele>
        <time>2020-11-17T12:26:20Z</time>
      </trkpt>
      <trkpt lat="28.5567700" lon="-17.8207530">
        <ele>1236.6</ele>
        <time>2020-11-17T12:26:21Z</time>
      </trkpt>
      <trkpt lat="28.5567970" lon="-17.8207450">
        <ele>1236.9</ele>
        <time>2020-11-17T12:26:22Z</time>
      </trkpt>
      <trkpt lat="28.5567970" lon="-17.8207450">
        <ele>1236.9</ele>
        <time>2020-11-17T12:26:23Z</time>
      </trkpt>
      <trkpt lat="28.5568280" lon="-17.8207370">
        <ele>1237.2</ele>
        <time>2020-11-17T12:26:24Z</time>
      </trkpt>
      <trkpt lat="28.5568480" lon="-17.8207280">
        <ele>1237.4</ele>
        <time>2020-11-17T12:26:25Z</time>
      </trkpt>
      <trkpt lat="28.5568480" lon="-17.8207280">
        <ele>1237.4</ele>
        <time>2020-11-17T12:26:26Z</time>
      </trkpt>
      <trkpt lat="28.5568900" lon="-17.8207070">
        <ele>1237.8</ele>
        <time>2020-11-17T12:26:27Z</time>
      </trkpt>
      <trkpt lat="28.5568900" lon="-17.8207070">
        <ele>1237.8</ele>
        <time>2020-11-17T12:26:28Z</time>
      </trkpt>
      <trkpt lat="28.5569170" lon="-17.8206930">
        <ele>1238.1</ele>
        <time>2020-11-17T12:26:29Z</time>
      </trkpt>
      <trkpt lat="28.5569350" lon="-17.8206850">
        <ele>1238.3</ele>
        <time>2020-11-17T12:26:30Z</time>
      </trkpt>
      <trkpt lat="28.5569350" lon="-17.8206850">
        <ele>1238.3</ele>
        <time>2020-11-17T12:26:31Z</time>
      </trkpt>
      <trkpt lat="28.5569630" lon="-17.8206680">
        <ele>1238.6</ele>
        <time>2020-11-17T12:26:32Z</time>
      </trkpt>
      <trkpt lat="28.5569630" lon="-17.8206680">
        <ele>1238.6</ele>
        <time>2020-11-17T12:26:33Z</time>
      </trkpt>
      <trkpt lat="28.5569950" lon="-17.8206650">
        <ele>1238.9</ele>
        <time>2020-11-17T12:26:34Z</time>
      </trkpt>
      <trkpt lat="28.5569950" lon="-17.8206650">
        <ele>1238.9</ele>
        <time>2020-11-17T12:26:35Z</time>
      </trkpt>
      <trkpt lat="28.5570250" lon="-17.8206580">
        <ele>1239.2</ele>
        <time>2020-11-17T12:26:36Z</time>
      </trkpt>
      <trkpt lat="28.5570250" lon="-17.8206580">
        <ele>1239.2</ele>
        <time>2020-11-17T12:26:37Z</time>
      </trkpt>
      <trkpt lat="28.5570680" lon="-17.8206580">
        <ele>1239.6</ele>
        <time>2020-11-17T12:26:38Z</time>
      </trkpt>
      <trkpt lat="28.5570680" lon="-17.8206580">
        <ele>1239.6</ele>
        <time>2020-11-17T12:26:39Z</time>
      </trkpt>
      <trkpt lat="28.5571000" lon="-17.8206470">
        <ele>1239.9</ele>
        <time>2020-11-17T12:26:40Z</time>
      </trkpt>
      <trkpt lat="28.5571120" lon="-17.8206470">
        <ele>1240.1</ele>
        <time>2020-11-17T12:26:41Z</time>
      </trkpt>
      <trkpt lat="28.5571220" lon="-17.8206530">
        <ele>1240.2</ele>
        <time>2020-11-17T12:26:42Z</time>
      </trkpt>
      <trkpt lat="28.5571220" lon="-17.8206530">
        <ele>1240.2</ele>
        <time>2020-11-17T12:26:43Z</time>
      </trkpt>
      <trkpt lat="28.5571530" lon="-17.8206580">
        <ele>1240.5</ele>
        <time>2020-11-17T12:26:44Z</time>
      </trkpt>
      <trkpt lat="28.5571530" lon="-17.8206580">
        <ele>1240.5</ele>
        <time>2020-11-17T12:26:45Z</time>
      </trkpt>
      <trkpt lat="28.5571850" lon="-17.8206570">
        <ele>1240.8</ele>
        <time>2020-11-17T12:26:46Z</time>
      </trkpt>
      <trkpt lat="28.5571850" lon="-17.8206570">
        <ele>1240.8</ele>
        <time>2020-11-17T12:26:47Z</time>
      </trkpt>
      <trkpt lat="28.5572120" lon="-17.8206480">
        <ele>1241.0</ele>
        <time>2020-11-17T12:26:48Z</time>
      </trkpt>
      <trkpt lat="28.5572120" lon="-17.8206480">
        <ele>1241.0</ele>
        <time>2020-11-17T12:26:49Z</time>
      </trkpt>
      <trkpt lat="28.5572420" lon="-17.8206220">
        <ele>1241.4</ele>
        <time>2020-11-17T12:26:50Z</time>
      </trkpt>
      <trkpt lat="28.5572530" lon="-17.8206130">
        <ele>1241.5</ele>
        <time>2020-11-17T12:26:51Z</time>
      </trkpt>
      <trkpt lat="28.5572530" lon="-17.8206130">
        <ele>1241.5</ele>
        <time>2020-11-17T12:26:52Z</time>
      </trkpt>
      <trkpt lat="28.5572780" lon="-17.8205870">
        <ele>1241.9</ele>
        <time>2020-11-17T12:26:53Z</time>
      </trkpt>
      <trkpt lat="28.5572900" lon="-17.8205750">
        <ele>1242.1</ele>
        <time>2020-11-17T12:26:54Z</time>
      </trkpt>
      <trkpt lat="28.5572980" lon="-17.8205650">
        <ele>1242.2</ele>
        <time>2020-11-17T12:26:55Z</time>
      </trkpt>
      <trkpt lat="28.5572980" lon="-17.8205650">
        <ele>1242.2</ele>
        <time>2020-11-17T12:26:56Z</time>
      </trkpt>
      <trkpt lat="28.5573220" lon="-17.8205500">
        <ele>1242.5</ele>
        <time>2020-11-17T12:26:57Z</time>
      </trkpt>
      <trkpt lat="28.5573220" lon="-17.8205500">
        <ele>1242.5</ele>
        <time>2020-11-17T12:26:58Z</time>
      </trkpt>
      <trkpt lat="28.5573370" lon="-17.8205180">
        <ele>1242.8</ele>
        <time>2020-11-17T12:26:59Z</time>
      </trkpt>
      <trkpt lat="28.5573370" lon="-17.8205180">
        <ele>1242.8</ele>
        <time>2020-11-17T12:27:00Z</time>
      </trkpt>
      <trkpt lat="28.5573570" lon="-17.8204900">
        <ele>1243.2</ele>
        <time>2020-11-17T12:27:01Z</time>
      </trkpt>
      <trkpt lat="28.5573570" lon="-17.8204900">
        <ele>1243.2</ele>
        <time>2020-11-17T12:27:02Z</time>
      </trkpt>
      <trkpt lat="28.5573800" lon="-17.8204650">
        <ele>1243.5</ele>
        <time>2020-11-17T12:27:03Z</time>
      </trkpt>
      <trkpt lat="28.5573980" lon="-17.8204520">
        <ele>1243.8</ele>
        <time>2020-11-17T12:27:04Z</time>
      </trkpt>
      <trkpt lat="28.5573980" lon="-17.8204520">
        <ele>1243.8</ele>
        <time>2020-11-17T12:27:05Z</time>
      </trkpt>
      <trkpt lat="28.5574200" lon="-17.8204200">
        <ele>1244.2</ele>
        <time>2020-11-17T12:27:06Z</time>
      </trkpt>
      <trkpt lat="28.5574200" lon="-17.8204200">
        <ele>1244.2</ele>
        <time>2020-11-17T12:27:07Z</time>
      </trkpt>
      <trkpt lat="28.5574370" lon="-17.8203870">
        <ele>1244.6</ele>
        <time>2020-11-17T12:27:08Z</time>
      </trkpt>
      <trkpt lat="28.5574370" lon="-17.8203870">
        <ele>1244.6</ele>
        <time>2020-11-17T12:27:09Z</time>
      </trkpt>
      <trkpt lat="28.5574550" lon="-17.8203430">
        <ele>1245.2</ele>
        <time>2020-11-17T12:27:10Z</time>
      </trkpt>
      <trkpt lat="28.5574670" lon="-17.8203250">
        <ele>1245.4</ele>
        <time>2020-11-17T12:27:11Z</time>
      </trkpt>
      <trkpt lat="28.5574670" lon="-17.8203250">
        <ele>1245.4</ele>
        <time>2020-11-17T12:27:12Z</time>
      </trkpt>
      <trkpt lat="28.5574850" lon="-17.8202980">
        <ele>1245.8</ele>
        <time>2020-11-17T12:27:13Z</time>
      </trkpt>
      <trkpt lat="28.5574850" lon="-17.8202980">
        <ele>1245.8</ele>
        <time>2020-11-17T12:27:14Z</time>
      </trkpt>
      <trkpt lat="28.5575050" lon="-17.8202680">
        <ele>1246.1</ele>
        <time>2020-11-17T12:27:15Z</time>
      </trkpt>
      <trkpt lat="28.5575050" lon="-17.8202680">
        <ele>1246.1</ele>
        <time>2020-11-17T12:27:16Z</time>
      </trkpt>
      <trkpt lat="28.5575280" lon="-17.8202100">
        <ele>1246.8</ele>
        <time>2020-11-17T12:27:17Z</time>
      </trkpt>
      <trkpt lat="28.5575330" lon="-17.8201930">
        <ele>1246.9</ele>
        <time>2020-11-17T12:27:18Z</time>
      </trkpt>
      <trkpt lat="28.5575330" lon="-17.8201930">
        <ele>1246.9</ele>
        <time>2020-11-17T12:27:19Z</time>
      </trkpt>
      <trkpt lat="28.5575480" lon="-17.8201580">
        <ele>1247.3</ele>
        <time>2020-11-17T12:27:20Z</time>
      </trkpt>
      <trkpt lat="28.5575480" lon="-17.8201580">
        <ele>1247.3</ele>
        <time>2020-11-17T12:27:21Z</time>
      </trkpt>
      <trkpt lat="28.5575600" lon="-17.8201330">
        <ele>1247.6</ele>
        <time>2020-11-17T12:27:22Z</time>
      </trkpt>
      <trkpt lat="28.5575600" lon="-17.8201330">
        <ele>1247.6</ele>
        <time>2020-11-17T12:27:23Z</time>
      </trkpt>
      <trkpt lat="28.5575720" lon="-17.8201080">
        <ele>1247.9</ele>
        <time>2020-11-17T12:27:24Z</time>
      </trkpt>
      <trkpt lat="28.5575720" lon="-17.8201080">
        <ele>1247.9</ele>
        <time>2020-11-17T12:27:25Z</time>
      </trkpt>
      <trkpt lat="28.5575980" lon="-17.8200920">
        <ele>1248.1</ele>
        <time>2020-11-17T12:27:26Z</time>
      </trkpt>
      <trkpt lat="28.5576130" lon="-17.8200820">
        <ele>1248.3</ele>
        <time>2020-11-17T12:27:27Z</time>
      </trkpt>
      <trkpt lat="28.5576130" lon="-17.8200820">
        <ele>1248.3</ele>
        <time>2020-11-17T12:27:28Z</time>
      </trkpt>
      <trkpt lat="28.5576420" lon="-17.8200680">
        <ele>1248.6</ele>
        <time>2020-11-17T12:27:29Z</time>
      </trkpt>
      <trkpt lat="28.5576580" lon="-17.8200620">
        <ele>1248.8</ele>
        <time>2020-11-17T12:27:30Z</time>
      </trkpt>
      <trkpt lat="28.5576580" lon="-17.8200620">
        <ele>1248.8</ele>
        <time>2020-11-17T12:27:31Z</time>
      </trkpt>
      <trkpt lat="28.5576880" lon="-17.8200550">
        <ele>1249.1</ele>
        <time>2020-11-17T12:27:32Z</time>
      </trkpt>
      <trkpt lat="28.5576880" lon="-17.8200550">
        <ele>1249.1</ele>
        <time>2020-11-17T12:27:33Z</time>
      </trkpt>
      <trkpt lat="28.5577130" lon="-17.8200500">
        <ele>1249.3</ele>
        <time>2020-11-17T12:27:34Z</time>
      </trkpt>
      <trkpt lat="28.5577130" lon="-17.8200500">
        <ele>1249.3</ele>
        <time>2020-11-17T12:27:35Z</time>
      </trkpt>
      <trkpt lat="28.5577370" lon="-17.8200530">
        <ele>1249.5</ele>
        <time>2020-11-17T12:27:36Z</time>
      </trkpt>
      <trkpt lat="28.5577370" lon="-17.8200530">
        <ele>1249.5</ele>
        <time>2020-11-17T12:27:37Z</time>
      </trkpt>
      <trkpt lat="28.5577600" lon="-17.8200530">
        <ele>1249.8</ele>
        <time>2020-11-17T12:27:38Z</time>
      </trkpt>
      <trkpt lat="28.5577600" lon="-17.8200530">
        <ele>1249.8</ele>
        <time>2020-11-17T12:27:39Z</time>
      </trkpt>
      <trkpt lat="28.5577850" lon="-17.8200500">
        <ele>1250.0</ele>
        <time>2020-11-17T12:27:40Z</time>
      </trkpt>
      <trkpt lat="28.5577980" lon="-17.8200520">
        <ele>1250.1</ele>
        <time>2020-11-17T12:27:41Z</time>
      </trkpt>
      <trkpt lat="28.5577980" lon="-17.8200520">
        <ele>1250.1</ele>
        <time>2020-11-17T12:27:42Z</time>
      </trkpt>
      <trkpt lat="28.5578280" lon="-17.8200580">
        <ele>1250.4</ele>
        <time>2020-11-17T12:27:43Z</time>
      </trkpt>
      <trkpt lat="28.5578430" lon="-17.8200620">
        <ele>1250.6</ele>
        <time>2020-11-17T12:27:44Z</time>
      </trkpt>
      <trkpt lat="28.5578620" lon="-17.8200650">
        <ele>1250.7</ele>
        <time>2020-11-17T12:27:45Z</time>
      </trkpt>
      <trkpt lat="28.5578620" lon="-17.8200650">
        <ele>1250.7</ele>
        <time>2020-11-17T12:27:46Z</time>
      </trkpt>
      <trkpt lat="28.5578980" lon="-17.8200580">
        <ele>1251.1</ele>
        <time>2020-11-17T12:27:47Z</time>
      </trkpt>
      <trkpt lat="28.5578980" lon="-17.8200580">
        <ele>1251.1</ele>
        <time>2020-11-17T12:27:48Z</time>
      </trkpt>
      <trkpt lat="28.5579250" lon="-17.8200500">
        <ele>1251.4</ele>
        <time>2020-11-17T12:27:49Z</time>
      </trkpt>
      <trkpt lat="28.5579250" lon="-17.8200500">
        <ele>1251.4</ele>
        <time>2020-11-17T12:27:50Z</time>
      </trkpt>
      <trkpt lat="28.5579520" lon="-17.8200470">
        <ele>1251.7</ele>
        <time>2020-11-17T12:27:51Z</time>
      </trkpt>
      <trkpt lat="28.5579520" lon="-17.8200470">
        <ele>1251.7</ele>
        <time>2020-11-17T12:27:52Z</time>
      </trkpt>
      <trkpt lat="28.5579830" lon="-17.8200370">
        <ele>1252.0</ele>
        <time>2020-11-17T12:27:53Z</time>
      </trkpt>
      <trkpt lat="28.5579980" lon="-17.8200330">
        <ele>1252.2</ele>
        <time>2020-11-17T12:27:54Z</time>
      </trkpt>
      <trkpt lat="28.5579980" lon="-17.8200330">
        <ele>1252.2</ele>
        <time>2020-11-17T12:27:55Z</time>
      </trkpt>
      <trkpt lat="28.5580320" lon="-17.8200200">
        <ele>1252.5</ele>
        <time>2020-11-17T12:27:56Z</time>
      </trkpt>
      <trkpt lat="28.5580520" lon="-17.8200150">
        <ele>1252.7</ele>
        <time>2020-11-17T12:27:57Z</time>
      </trkpt>
      <trkpt lat="28.5580520" lon="-17.8200150">
        <ele>1252.7</ele>
        <time>2020-11-17T12:27:58Z</time>
      </trkpt>
      <trkpt lat="28.5580800" lon="-17.8200080">
        <ele>1253.0</ele>
        <time>2020-11-17T12:27:59Z</time>
      </trkpt>
      <trkpt lat="28.5580900" lon="-17.8200020">
        <ele>1253.2</ele>
        <time>2020-11-17T12:28:00Z</time>
      </trkpt>
      <trkpt lat="28.5580900" lon="-17.8200020">
        <ele>1253.2</ele>
        <time>2020-11-17T12:28:01Z</time>
      </trkpt>
      <trkpt lat="28.5581150" lon="-17.8199950">
        <ele>1253.4</ele>
        <time>2020-11-17T12:28:02Z</time>
      </trkpt>
      <trkpt lat="28.5581320" lon="-17.8199930">
        <ele>1253.6</ele>
        <time>2020-11-17T12:28:03Z</time>
      </trkpt>
      <trkpt lat="28.5581320" lon="-17.8199930">
        <ele>1253.6</ele>
        <time>2020-11-17T12:28:04Z</time>
      </trkpt>
      <trkpt lat="28.5581700" lon="-17.8199880">
        <ele>1254.0</ele>
        <time>2020-11-17T12:28:05Z</time>
      </trkpt>
      <trkpt lat="28.5581850" lon="-17.8199870">
        <ele>1254.1</ele>
        <time>2020-11-17T12:28:06Z</time>
      </trkpt>
      <trkpt lat="28.5581850" lon="-17.8199870">
        <ele>1254.1</ele>
        <time>2020-11-17T12:28:07Z</time>
      </trkpt>
      <trkpt lat="28.5582220" lon="-17.8199850">
        <ele>1254.5</ele>
        <time>2020-11-17T12:28:08Z</time>
      </trkpt>
      <trkpt lat="28.5582220" lon="-17.8199850">
        <ele>1254.5</ele>
        <time>2020-11-17T12:28:09Z</time>
      </trkpt>
      <trkpt lat="28.5582480" lon="-17.8199770">
        <ele>1254.8</ele>
        <time>2020-11-17T12:28:10Z</time>
      </trkpt>
      <trkpt lat="28.5582480" lon="-17.8199770">
        <ele>1254.8</ele>
        <time>2020-11-17T12:28:11Z</time>
      </trkpt>
      <trkpt lat="28.5582720" lon="-17.8199720">
        <ele>1255.0</ele>
        <time>2020-11-17T12:28:12Z</time>
      </trkpt>
      <trkpt lat="28.5582720" lon="-17.8199720">
        <ele>1255.0</ele>
        <time>2020-11-17T12:28:13Z</time>
      </trkpt>
      <trkpt lat="28.5583020" lon="-17.8199620">
        <ele>1255.3</ele>
        <time>2020-11-17T12:28:14Z</time>
      </trkpt>
      <trkpt lat="28.5583020" lon="-17.8199620">
        <ele>1255.3</ele>
        <time>2020-11-17T12:28:15Z</time>
      </trkpt>
      <trkpt lat="28.5583350" lon="-17.8199570">
        <ele>1255.6</ele>
        <time>2020-11-17T12:28:16Z</time>
      </trkpt>
      <trkpt lat="28.5583500" lon="-17.8199500">
        <ele>1255.8</ele>
        <time>2020-11-17T12:28:17Z</time>
      </trkpt>
      <trkpt lat="28.5583500" lon="-17.8199500">
        <ele>1255.8</ele>
        <time>2020-11-17T12:28:18Z</time>
      </trkpt>
      <trkpt lat="28.5583970" lon="-17.8199320">
        <ele>1256.2</ele>
        <time>2020-11-17T12:28:19Z</time>
      </trkpt>
      <trkpt lat="28.5584220" lon="-17.8199320">
        <ele>1256.4</ele>
        <time>2020-11-17T12:28:20Z</time>
      </trkpt>
      <trkpt lat="28.5584220" lon="-17.8199320">
        <ele>1256.4</ele>
        <time>2020-11-17T12:28:21Z</time>
      </trkpt>
      <trkpt lat="28.5584530" lon="-17.8199380">
        <ele>1256.6</ele>
        <time>2020-11-17T12:28:22Z</time>
      </trkpt>
      <trkpt lat="28.5584530" lon="-17.8199380">
        <ele>1256.6</ele>
        <time>2020-11-17T12:28:23Z</time>
      </trkpt>
      <trkpt lat="28.5584970" lon="-17.8199550">
        <ele>1256.9</ele>
        <time>2020-11-17T12:28:24Z</time>
      </trkpt>
      <trkpt lat="28.5585130" lon="-17.8199650">
        <ele>1257.0</ele>
        <time>2020-11-17T12:28:25Z</time>
      </trkpt>
      <trkpt lat="28.5585130" lon="-17.8199650">
        <ele>1257.0</ele>
        <time>2020-11-17T12:28:26Z</time>
      </trkpt>
      <trkpt lat="28.5585470" lon="-17.8199950">
        <ele>1257.3</ele>
        <time>2020-11-17T12:28:27Z</time>
      </trkpt>
      <trkpt lat="28.5585470" lon="-17.8199950">
        <ele>1257.3</ele>
        <time>2020-11-17T12:28:28Z</time>
      </trkpt>
      <trkpt lat="28.5585780" lon="-17.8200150">
        <ele>1257.6</ele>
        <time>2020-11-17T12:28:29Z</time>
      </trkpt>
      <trkpt lat="28.5585970" lon="-17.8200250">
        <ele>1257.8</ele>
        <time>2020-11-17T12:28:30Z</time>
      </trkpt>
      <trkpt lat="28.5585970" lon="-17.8200250">
        <ele>1257.8</ele>
        <time>2020-11-17T12:28:31Z</time>
      </trkpt>
      <trkpt lat="28.5586280" lon="-17.8200400">
        <ele>1258.0</ele>
        <time>2020-11-17T12:28:32Z</time>
      </trkpt>
      <trkpt lat="28.5586430" lon="-17.8200500">
        <ele>1258.2</ele>
        <time>2020-11-17T12:28:33Z</time>
      </trkpt>
      <trkpt lat="28.5586430" lon="-17.8200500">
        <ele>1258.2</ele>
        <time>2020-11-17T12:28:34Z</time>
      </trkpt>
      <trkpt lat="28.5586830" lon="-17.8200670">
        <ele>1258.5</ele>
        <time>2020-11-17T12:28:35Z</time>
      </trkpt>
      <trkpt lat="28.5587070" lon="-17.8200730">
        <ele>1258.7</ele>
        <time>2020-11-17T12:28:36Z</time>
      </trkpt>
      <trkpt lat="28.5587070" lon="-17.8200730">
        <ele>1258.7</ele>
        <time>2020-11-17T12:28:37Z</time>
      </trkpt>
      <trkpt lat="28.5587520" lon="-17.8200780">
        <ele>1259.1</ele>
        <time>2020-11-17T12:28:38Z</time>
      </trkpt>
      <trkpt lat="28.5587520" lon="-17.8200780">
        <ele>1259.1</ele>
        <time>2020-11-17T12:28:39Z</time>
      </trkpt>
      <trkpt lat="28.5588130" lon="-17.8200630">
        <ele>1259.4</ele>
        <time>2020-11-17T12:28:40Z</time>
      </trkpt>
      <trkpt lat="28.5588130" lon="-17.8200630">
        <ele>1259.4</ele>
        <time>2020-11-17T12:28:41Z</time>
      </trkpt>
      <trkpt lat="28.5588620" lon="-17.8200380">
        <ele>1261.3</ele>
        <time>2020-11-17T12:28:42Z</time>
      </trkpt>
      <trkpt lat="28.5588620" lon="-17.8200380">
        <ele>1261.3</ele>
        <time>2020-11-17T12:28:43Z</time>
      </trkpt>
      <trkpt lat="28.5588930" lon="-17.8200150">
        <ele>1262.6</ele>
        <time>2020-11-17T12:28:44Z</time>
      </trkpt>
      <trkpt lat="28.5588930" lon="-17.8200150">
        <ele>1262.6</ele>
        <time>2020-11-17T12:28:45Z</time>
      </trkpt>
      <trkpt lat="28.5589170" lon="-17.8199950">
        <ele>1263.7</ele>
        <time>2020-11-17T12:28:46Z</time>
      </trkpt>
      <trkpt lat="28.5589270" lon="-17.8199850">
        <ele>1264.0</ele>
        <time>2020-11-17T12:28:47Z</time>
      </trkpt>
      <trkpt lat="28.5589270" lon="-17.8199850">
        <ele>1264.0</ele>
        <time>2020-11-17T12:28:48Z</time>
      </trkpt>
      <trkpt lat="28.5589350" lon="-17.8199570">
        <ele>1263.8</ele>
        <time>2020-11-17T12:28:49Z</time>
      </trkpt>
      <trkpt lat="28.5589350" lon="-17.8199570">
        <ele>1263.8</ele>
        <time>2020-11-17T12:28:50Z</time>
      </trkpt>
      <trkpt lat="28.5589420" lon="-17.8199250">
        <ele>1263.7</ele>
        <time>2020-11-17T12:28:51Z</time>
      </trkpt>
      <trkpt lat="28.5589470" lon="-17.8199100">
        <ele>1263.6</ele>
        <time>2020-11-17T12:28:52Z</time>
      </trkpt>
      <trkpt lat="28.5589470" lon="-17.8199100">
        <ele>1263.6</ele>
        <time>2020-11-17T12:28:53Z</time>
      </trkpt>
      <trkpt lat="28.5589520" lon="-17.8198630">
        <ele>1263.3</ele>
        <time>2020-11-17T12:28:54Z</time>
      </trkpt>
      <trkpt lat="28.5589520" lon="-17.8198630">
        <ele>1263.3</ele>
        <time>2020-11-17T12:28:55Z</time>
      </trkpt>
      <trkpt lat="28.5589620" lon="-17.8198230">
        <ele>1263.1</ele>
        <time>2020-11-17T12:28:56Z</time>
      </trkpt>
      <trkpt lat="28.5589620" lon="-17.8198230">
        <ele>1263.1</ele>
        <time>2020-11-17T12:28:57Z</time>
      </trkpt>
      <trkpt lat="28.5589630" lon="-17.8198030">
        <ele>1263.0</ele>
        <time>2020-11-17T12:28:58Z</time>
      </trkpt>
      <trkpt lat="28.5589630" lon="-17.8198030">
        <ele>1263.0</ele>
        <time>2020-11-17T12:28:59Z</time>
      </trkpt>
      <trkpt lat="28.5589680" lon="-17.8198080">
        <ele>1263.0</ele>
        <time>2020-11-17T12:29:41Z</time>
      </trkpt>
      <trkpt lat="28.5590200" lon="-17.8197580">
        <ele>1262.6</ele>
        <time>2020-11-17T12:29:42Z</time>
      </trkpt>
      <trkpt lat="28.5590200" lon="-17.8197580">
        <ele>1262.6</ele>
        <time>2020-11-17T12:29:43Z</time>
      </trkpt>
      <trkpt lat="28.5590420" lon="-17.8197400">
        <ele>1262.4</ele>
        <time>2020-11-17T12:29:44Z</time>
      </trkpt>
      <trkpt lat="28.5590420" lon="-17.8197400">
        <ele>1262.4</ele>
        <time>2020-11-17T12:29:45Z</time>
      </trkpt>
      <trkpt lat="28.5590630" lon="-17.8197180">
        <ele>1262.3</ele>
        <time>2020-11-17T12:29:46Z</time>
      </trkpt>
      <trkpt lat="28.5590630" lon="-17.8197180">
        <ele>1262.3</ele>
        <time>2020-11-17T12:29:47Z</time>
      </trkpt>
      <trkpt lat="28.5590780" lon="-17.8196900">
        <ele>1262.1</ele>
        <time>2020-11-17T12:29:48Z</time>
      </trkpt>
      <trkpt lat="28.5590780" lon="-17.8196900">
        <ele>1262.1</ele>
        <time>2020-11-17T12:29:49Z</time>
      </trkpt>
      <trkpt lat="28.5590880" lon="-17.8196650">
        <ele>1262.0</ele>
        <time>2020-11-17T12:29:50Z</time>
      </trkpt>
      <trkpt lat="28.5590880" lon="-17.8196650">
        <ele>1262.0</ele>
        <time>2020-11-17T12:29:51Z</time>
      </trkpt>
      <trkpt lat="28.5591000" lon="-17.8196480">
        <ele>1261.9</ele>
        <time>2020-11-17T12:29:52Z</time>
      </trkpt>
      <trkpt lat="28.5590980" lon="-17.8196470">
        <ele>1261.9</ele>
        <time>2020-11-17T12:29:53Z</time>
      </trkpt>
      <trkpt lat="28.5590980" lon="-17.8196470">
        <ele>1261.9</ele>
        <time>2020-11-17T12:29:54Z</time>
      </trkpt>
      <trkpt lat="28.5590980" lon="-17.8196420">
        <ele>1261.8</ele>
        <time>2020-11-17T12:29:55Z</time>
      </trkpt>
      <trkpt lat="28.5590980" lon="-17.8196420">
        <ele>1261.8</ele>
        <time>2020-11-17T12:32:02Z</time>
      </trkpt>
      <trkpt lat="28.5591970" lon="-17.8196170">
        <ele>1261.3</ele>
        <time>2020-11-17T12:32:03Z</time>
      </trkpt>
      <trkpt lat="28.5592050" lon="-17.8196000">
        <ele>1261.2</ele>
        <time>2020-11-17T12:32:04Z</time>
      </trkpt>
      <trkpt lat="28.5592050" lon="-17.8196000">
        <ele>1261.2</ele>
        <time>2020-11-17T12:32:05Z</time>
      </trkpt>
      <trkpt lat="28.5592170" lon="-17.8195650">
        <ele>1261.0</ele>
        <time>2020-11-17T12:32:06Z</time>
      </trkpt>
      <trkpt lat="28.5592170" lon="-17.8195650">
        <ele>1261.0</ele>
        <time>2020-11-17T12:32:07Z</time>
      </trkpt>
      <trkpt lat="28.5592380" lon="-17.8195350">
        <ele>1260.8</ele>
        <time>2020-11-17T12:32:08Z</time>
      </trkpt>
      <trkpt lat="28.5592380" lon="-17.8195350">
        <ele>1260.8</ele>
        <time>2020-11-17T12:32:09Z</time>
      </trkpt>
      <trkpt lat="28.5592630" lon="-17.8195100">
        <ele>1260.6</ele>
        <time>2020-11-17T12:32:10Z</time>
      </trkpt>
      <trkpt lat="28.5592630" lon="-17.8195100">
        <ele>1260.6</ele>
        <time>2020-11-17T12:32:11Z</time>
      </trkpt>
      <trkpt lat="28.5593020" lon="-17.8194930">
        <ele>1260.3</ele>
        <time>2020-11-17T12:32:12Z</time>
      </trkpt>
      <trkpt lat="28.5593220" lon="-17.8194780">
        <ele>1260.1</ele>
        <time>2020-11-17T12:32:13Z</time>
      </trkpt>
      <trkpt lat="28.5593220" lon="-17.8194780">
        <ele>1260.1</ele>
        <time>2020-11-17T12:32:14Z</time>
      </trkpt>
      <trkpt lat="28.5593520" lon="-17.8194570">
        <ele>1259.9</ele>
        <time>2020-11-17T12:32:15Z</time>
      </trkpt>
      <trkpt lat="28.5593680" lon="-17.8194500">
        <ele>1259.8</ele>
        <time>2020-11-17T12:32:16Z</time>
      </trkpt>
      <trkpt lat="28.5593680" lon="-17.8194500">
        <ele>1259.8</ele>
        <time>2020-11-17T12:32:17Z</time>
      </trkpt>
      <trkpt lat="28.5594030" lon="-17.8194300">
        <ele>1259.5</ele>
        <time>2020-11-17T12:32:18Z</time>
      </trkpt>
      <trkpt lat="28.5594030" lon="-17.8194300">
        <ele>1259.5</ele>
        <time>2020-11-17T12:32:19Z</time>
      </trkpt>
      <trkpt lat="28.5594380" lon="-17.8194050">
        <ele>1259.3</ele>
        <time>2020-11-17T12:32:20Z</time>
      </trkpt>
      <trkpt lat="28.5594500" lon="-17.8193920">
        <ele>1259.2</ele>
        <time>2020-11-17T12:32:21Z</time>
      </trkpt>
      <trkpt lat="28.5594670" lon="-17.8193820">
        <ele>1259.1</ele>
        <time>2020-11-17T12:32:22Z</time>
      </trkpt>
      <trkpt lat="28.5594670" lon="-17.8193820">
        <ele>1259.1</ele>
        <time>2020-11-17T12:32:23Z</time>
      </trkpt>
      <trkpt lat="28.5594780" lon="-17.8193650">
        <ele>1259.0</ele>
        <time>2020-11-17T12:32:24Z</time>
      </trkpt>
      <trkpt lat="28.5594780" lon="-17.8193650">
        <ele>1259.0</ele>
        <time>2020-11-17T12:32:25Z</time>
      </trkpt>
      <trkpt lat="28.5595050" lon="-17.8193470">
        <ele>1258.8</ele>
        <time>2020-11-17T12:32:26Z</time>
      </trkpt>
      <trkpt lat="28.5595220" lon="-17.8193370">
        <ele>1258.7</ele>
        <time>2020-11-17T12:32:27Z</time>
      </trkpt>
      <trkpt lat="28.5595380" lon="-17.8193230">
        <ele>1258.6</ele>
        <time>2020-11-17T12:32:28Z</time>
      </trkpt>
      <trkpt lat="28.5595380" lon="-17.8193230">
        <ele>1258.6</ele>
        <time>2020-11-17T12:32:29Z</time>
      </trkpt>
      <trkpt lat="28.5596000" lon="-17.8192880">
        <ele>1258.2</ele>
        <time>2020-11-17T12:32:30Z</time>
      </trkpt>
      <trkpt lat="28.5596000" lon="-17.8192880">
        <ele>1258.2</ele>
        <time>2020-11-17T12:32:31Z</time>
      </trkpt>
      <trkpt lat="28.5596350" lon="-17.8192520">
        <ele>1258.0</ele>
        <time>2020-11-17T12:32:32Z</time>
      </trkpt>
      <trkpt lat="28.5596520" lon="-17.8192420">
        <ele>1257.9</ele>
        <time>2020-11-17T12:32:33Z</time>
      </trkpt>
      <trkpt lat="28.5596520" lon="-17.8192420">
        <ele>1257.9</ele>
        <time>2020-11-17T12:32:34Z</time>
      </trkpt>
      <trkpt lat="28.5596920" lon="-17.8192020">
        <ele>1257.6</ele>
        <time>2020-11-17T12:32:35Z</time>
      </trkpt>
      <trkpt lat="28.5596920" lon="-17.8192020">
        <ele>1257.6</ele>
        <time>2020-11-17T12:32:36Z</time>
      </trkpt>
      <trkpt lat="28.5597220" lon="-17.8191620">
        <ele>1257.4</ele>
        <time>2020-11-17T12:32:37Z</time>
      </trkpt>
      <trkpt lat="28.5597330" lon="-17.8191400">
        <ele>1257.3</ele>
        <time>2020-11-17T12:32:38Z</time>
      </trkpt>
      <trkpt lat="28.5597330" lon="-17.8191400">
        <ele>1257.3</ele>
        <time>2020-11-17T12:32:39Z</time>
      </trkpt>
      <trkpt lat="28.5597750" lon="-17.8191080">
        <ele>1257.0</ele>
        <time>2020-11-17T12:32:40Z</time>
      </trkpt>
      <trkpt lat="28.5597750" lon="-17.8191080">
        <ele>1257.0</ele>
        <time>2020-11-17T12:32:41Z</time>
      </trkpt>
      <trkpt lat="28.5598070" lon="-17.8190820">
        <ele>1256.8</ele>
        <time>2020-11-17T12:32:42Z</time>
      </trkpt>
      <trkpt lat="28.5598070" lon="-17.8190820">
        <ele>1256.8</ele>
        <time>2020-11-17T12:32:43Z</time>
      </trkpt>
      <trkpt lat="28.5598350" lon="-17.8190630">
        <ele>1256.7</ele>
        <time>2020-11-17T12:32:44Z</time>
      </trkpt>
      <trkpt lat="28.5598350" lon="-17.8190630">
        <ele>1256.7</ele>
        <time>2020-11-17T12:32:45Z</time>
      </trkpt>
      <trkpt lat="28.5598620" lon="-17.8190450">
        <ele>1256.5</ele>
        <time>2020-11-17T12:32:46Z</time>
      </trkpt>
      <trkpt lat="28.5598780" lon="-17.8190380">
        <ele>1256.4</ele>
        <time>2020-11-17T12:32:47Z</time>
      </trkpt>
      <trkpt lat="28.5598780" lon="-17.8190380">
        <ele>1256.4</ele>
        <time>2020-11-17T12:32:48Z</time>
      </trkpt>
      <trkpt lat="28.5599070" lon="-17.8190300">
        <ele>1256.2</ele>
        <time>2020-11-17T12:32:49Z</time>
      </trkpt>
      <trkpt lat="28.5599070" lon="-17.8190300">
        <ele>1256.2</ele>
        <time>2020-11-17T12:32:50Z</time>
      </trkpt>
      <trkpt lat="28.5599450" lon="-17.8190270">
        <ele>1256.0</ele>
        <time>2020-11-17T12:32:51Z</time>
      </trkpt>
      <trkpt lat="28.5599580" lon="-17.8190250">
        <ele>1255.9</ele>
        <time>2020-11-17T12:32:52Z</time>
      </trkpt>
      <trkpt lat="28.5599580" lon="-17.8190250">
        <ele>1255.9</ele>
        <time>2020-11-17T12:32:53Z</time>
      </trkpt>
      <trkpt lat="28.5599870" lon="-17.8190170">
        <ele>1255.7</ele>
        <time>2020-11-17T12:32:54Z</time>
      </trkpt>
      <trkpt lat="28.5599870" lon="-17.8190170">
        <ele>1255.7</ele>
        <time>2020-11-17T12:32:55Z</time>
      </trkpt>
      <trkpt lat="28.5600150" lon="-17.8190120">
        <ele>1255.5</ele>
        <time>2020-11-17T12:32:56Z</time>
      </trkpt>
      <trkpt lat="28.5600150" lon="-17.8190120">
        <ele>1255.5</ele>
        <time>2020-11-17T12:32:57Z</time>
      </trkpt>
      <trkpt lat="28.5600450" lon="-17.8190020">
        <ele>1255.3</ele>
        <time>2020-11-17T12:32:58Z</time>
      </trkpt>
      <trkpt lat="28.5600450" lon="-17.8190020">
        <ele>1255.3</ele>
        <time>2020-11-17T12:32:59Z</time>
      </trkpt>
      <trkpt lat="28.5600970" lon="-17.8189830">
        <ele>1255.2</ele>
        <time>2020-11-17T12:33:00Z</time>
      </trkpt>
      <trkpt lat="28.5600970" lon="-17.8189830">
        <ele>1255.2</ele>
        <time>2020-11-17T12:33:01Z</time>
      </trkpt>
      <trkpt lat="28.5601370" lon="-17.8189670">
        <ele>1255.6</ele>
        <time>2020-11-17T12:33:02Z</time>
      </trkpt>
      <trkpt lat="28.5601370" lon="-17.8189670">
        <ele>1255.6</ele>
        <time>2020-11-17T12:33:03Z</time>
      </trkpt>
      <trkpt lat="28.5601650" lon="-17.8189550">
        <ele>1255.9</ele>
        <time>2020-11-17T12:33:04Z</time>
      </trkpt>
      <trkpt lat="28.5601650" lon="-17.8189550">
        <ele>1255.9</ele>
        <time>2020-11-17T12:33:05Z</time>
      </trkpt>
      <trkpt lat="28.5602120" lon="-17.8189380">
        <ele>1256.3</ele>
        <time>2020-11-17T12:33:06Z</time>
      </trkpt>
      <trkpt lat="28.5602120" lon="-17.8189380">
        <ele>1256.3</ele>
        <time>2020-11-17T12:33:07Z</time>
      </trkpt>
      <trkpt lat="28.5602530" lon="-17.8189250">
        <ele>1256.6</ele>
        <time>2020-11-17T12:33:08Z</time>
      </trkpt>
      <trkpt lat="28.5602530" lon="-17.8189250">
        <ele>1256.6</ele>
        <time>2020-11-17T12:33:09Z</time>
      </trkpt>
      <trkpt lat="28.5602880" lon="-17.8189170">
        <ele>1256.9</ele>
        <time>2020-11-17T12:33:10Z</time>
      </trkpt>
      <trkpt lat="28.5602880" lon="-17.8189170">
        <ele>1256.9</ele>
        <time>2020-11-17T12:33:11Z</time>
      </trkpt>
      <trkpt lat="28.5603200" lon="-17.8189150">
        <ele>1257.2</ele>
        <time>2020-11-17T12:33:12Z</time>
      </trkpt>
      <trkpt lat="28.5603200" lon="-17.8189150">
        <ele>1257.2</ele>
        <time>2020-11-17T12:33:13Z</time>
      </trkpt>
      <trkpt lat="28.5603430" lon="-17.8189100">
        <ele>1257.4</ele>
        <time>2020-11-17T12:33:14Z</time>
      </trkpt>
      <trkpt lat="28.5603430" lon="-17.8189100">
        <ele>1257.4</ele>
        <time>2020-11-17T12:33:15Z</time>
      </trkpt>
      <trkpt lat="28.5603630" lon="-17.8189020">
        <ele>1257.6</ele>
        <time>2020-11-17T12:33:16Z</time>
      </trkpt>
      <trkpt lat="28.5603700" lon="-17.8188970">
        <ele>1257.6</ele>
        <time>2020-11-17T12:33:17Z</time>
      </trkpt>
      <trkpt lat="28.5603700" lon="-17.8188970">
        <ele>1257.6</ele>
        <time>2020-11-17T12:33:18Z</time>
      </trkpt>
      <trkpt lat="28.5604120" lon="-17.8188980">
        <ele>1258.0</ele>
        <time>2020-11-17T12:33:19Z</time>
      </trkpt>
      <trkpt lat="28.5604120" lon="-17.8188980">
        <ele>1258.0</ele>
        <time>2020-11-17T12:33:20Z</time>
      </trkpt>
      <trkpt lat="28.5604430" lon="-17.8188930">
        <ele>1258.2</ele>
        <time>2020-11-17T12:33:21Z</time>
      </trkpt>
      <trkpt lat="28.5604430" lon="-17.8188930">
        <ele>1258.2</ele>
        <time>2020-11-17T12:33:22Z</time>
      </trkpt>
      <trkpt lat="28.5604730" lon="-17.8188830">
        <ele>1258.5</ele>
        <time>2020-11-17T12:33:23Z</time>
      </trkpt>
      <trkpt lat="28.5604930" lon="-17.8188820">
        <ele>1258.6</ele>
        <time>2020-11-17T12:33:24Z</time>
      </trkpt>
      <trkpt lat="28.5604930" lon="-17.8188820">
        <ele>1258.6</ele>
        <time>2020-11-17T12:33:25Z</time>
      </trkpt>
      <trkpt lat="28.5605420" lon="-17.8188620">
        <ele>1259.0</ele>
        <time>2020-11-17T12:33:26Z</time>
      </trkpt>
      <trkpt lat="28.5605680" lon="-17.8188500">
        <ele>1259.3</ele>
        <time>2020-11-17T12:33:27Z</time>
      </trkpt>
      <trkpt lat="28.5605880" lon="-17.8188380">
        <ele>1259.4</ele>
        <time>2020-11-17T12:33:28Z</time>
      </trkpt>
      <trkpt lat="28.5606100" lon="-17.8188280">
        <ele>1259.6</ele>
        <time>2020-11-17T12:33:29Z</time>
      </trkpt>
      <trkpt lat="28.5606100" lon="-17.8188280">
        <ele>1259.6</ele>
        <time>2020-11-17T12:33:30Z</time>
      </trkpt>
      <trkpt lat="28.5606470" lon="-17.8188200">
        <ele>1259.9</ele>
        <time>2020-11-17T12:33:31Z</time>
      </trkpt>
      <trkpt lat="28.5606470" lon="-17.8188200">
        <ele>1259.9</ele>
        <time>2020-11-17T12:33:32Z</time>
      </trkpt>
      <trkpt lat="28.5606780" lon="-17.8188070">
        <ele>1260.2</ele>
        <time>2020-11-17T12:33:33Z</time>
      </trkpt>
      <trkpt lat="28.5606780" lon="-17.8188070">
        <ele>1260.2</ele>
        <time>2020-11-17T12:33:34Z</time>
      </trkpt>
      <trkpt lat="28.5607120" lon="-17.8187830">
        <ele>1260.5</ele>
        <time>2020-11-17T12:33:35Z</time>
      </trkpt>
      <trkpt lat="28.5607280" lon="-17.8187720">
        <ele>1260.7</ele>
        <time>2020-11-17T12:33:36Z</time>
      </trkpt>
      <trkpt lat="28.5607280" lon="-17.8187720">
        <ele>1260.7</ele>
        <time>2020-11-17T12:33:37Z</time>
      </trkpt>
      <trkpt lat="28.5607550" lon="-17.8187470">
        <ele>1261.0</ele>
        <time>2020-11-17T12:33:38Z</time>
      </trkpt>
      <trkpt lat="28.5607550" lon="-17.8187470">
        <ele>1261.0</ele>
        <time>2020-11-17T12:33:39Z</time>
      </trkpt>
      <trkpt lat="28.5607770" lon="-17.8187320">
        <ele>1261.2</ele>
        <time>2020-11-17T12:33:40Z</time>
      </trkpt>
      <trkpt lat="28.5607930" lon="-17.8187250">
        <ele>1261.3</ele>
        <time>2020-11-17T12:33:41Z</time>
      </trkpt>
      <trkpt lat="28.5608050" lon="-17.8187170">
        <ele>1261.4</ele>
        <time>2020-11-17T12:33:42Z</time>
      </trkpt>
      <trkpt lat="28.5608050" lon="-17.8187170">
        <ele>1261.4</ele>
        <time>2020-11-17T12:33:43Z</time>
      </trkpt>
      <trkpt lat="28.5608350" lon="-17.8187030">
        <ele>1261.6</ele>
        <time>2020-11-17T12:33:44Z</time>
      </trkpt>
      <trkpt lat="28.5608350" lon="-17.8187030">
        <ele>1261.6</ele>
        <time>2020-11-17T12:33:45Z</time>
      </trkpt>
      <trkpt lat="28.5608730" lon="-17.8186920">
        <ele>1261.9</ele>
        <time>2020-11-17T12:33:46Z</time>
      </trkpt>
      <trkpt lat="28.5608730" lon="-17.8186920">
        <ele>1261.9</ele>
        <time>2020-11-17T12:33:47Z</time>
      </trkpt>
      <trkpt lat="28.5609080" lon="-17.8186750">
        <ele>1262.2</ele>
        <time>2020-11-17T12:33:48Z</time>
      </trkpt>
      <trkpt lat="28.5609080" lon="-17.8186750">
        <ele>1262.2</ele>
        <time>2020-11-17T12:33:49Z</time>
      </trkpt>
      <trkpt lat="28.5609430" lon="-17.8186600">
        <ele>1262.5</ele>
        <time>2020-11-17T12:33:50Z</time>
      </trkpt>
      <trkpt lat="28.5609580" lon="-17.8186500">
        <ele>1262.6</ele>
        <time>2020-11-17T12:33:51Z</time>
      </trkpt>
      <trkpt lat="28.5609580" lon="-17.8186500">
        <ele>1262.6</ele>
        <time>2020-11-17T12:33:52Z</time>
      </trkpt>
      <trkpt lat="28.5609880" lon="-17.8186380">
        <ele>1262.9</ele>
        <time>2020-11-17T12:33:53Z</time>
      </trkpt>
      <trkpt lat="28.5610070" lon="-17.8186300">
        <ele>1263.0</ele>
        <time>2020-11-17T12:33:54Z</time>
      </trkpt>
      <trkpt lat="28.5610070" lon="-17.8186300">
        <ele>1263.0</ele>
        <time>2020-11-17T12:33:55Z</time>
      </trkpt>
      <trkpt lat="28.5610430" lon="-17.8186220">
        <ele>1263.3</ele>
        <time>2020-11-17T12:33:56Z</time>
      </trkpt>
      <trkpt lat="28.5610430" lon="-17.8186220">
        <ele>1263.3</ele>
        <time>2020-11-17T12:33:57Z</time>
      </trkpt>
      <trkpt lat="28.5610870" lon="-17.8186030">
        <ele>1263.7</ele>
        <time>2020-11-17T12:33:58Z</time>
      </trkpt>
      <trkpt lat="28.5611100" lon="-17.8185920">
        <ele>1264.0</ele>
        <time>2020-11-17T12:33:59Z</time>
      </trkpt>
      <trkpt lat="28.5611300" lon="-17.8185780">
        <ele>1264.2</ele>
        <time>2020-11-17T12:34:00Z</time>
      </trkpt>
      <trkpt lat="28.5611300" lon="-17.8185780">
        <ele>1264.2</ele>
        <time>2020-11-17T12:34:01Z</time>
      </trkpt>
      <trkpt lat="28.5611730" lon="-17.8185470">
        <ele>1264.6</ele>
        <time>2020-11-17T12:34:02Z</time>
      </trkpt>
      <trkpt lat="28.5611880" lon="-17.8185330">
        <ele>1264.8</ele>
        <time>2020-11-17T12:34:03Z</time>
      </trkpt>
      <trkpt lat="28.5611880" lon="-17.8185330">
        <ele>1264.8</ele>
        <time>2020-11-17T12:34:04Z</time>
      </trkpt>
      <trkpt lat="28.5612200" lon="-17.8185170">
        <ele>1265.1</ele>
        <time>2020-11-17T12:34:05Z</time>
      </trkpt>
      <trkpt lat="28.5612200" lon="-17.8185170">
        <ele>1265.1</ele>
        <time>2020-11-17T12:34:06Z</time>
      </trkpt>
      <trkpt lat="28.5612500" lon="-17.8184980">
        <ele>1265.3</ele>
        <time>2020-11-17T12:34:07Z</time>
      </trkpt>
      <trkpt lat="28.5612500" lon="-17.8184980">
        <ele>1265.3</ele>
        <time>2020-11-17T12:34:08Z</time>
      </trkpt>
      <trkpt lat="28.5612870" lon="-17.8184830">
        <ele>1265.7</ele>
        <time>2020-11-17T12:34:09Z</time>
      </trkpt>
      <trkpt lat="28.5612870" lon="-17.8184830">
        <ele>1265.7</ele>
        <time>2020-11-17T12:34:10Z</time>
      </trkpt>
      <trkpt lat="28.5613300" lon="-17.8184770">
        <ele>1266.0</ele>
        <time>2020-11-17T12:34:11Z</time>
      </trkpt>
      <trkpt lat="28.5613470" lon="-17.8184750">
        <ele>1266.2</ele>
        <time>2020-11-17T12:34:12Z</time>
      </trkpt>
      <trkpt lat="28.5613470" lon="-17.8184750">
        <ele>1266.2</ele>
        <time>2020-11-17T12:34:13Z</time>
      </trkpt>
      <trkpt lat="28.5613800" lon="-17.8184680">
        <ele>1266.4</ele>
        <time>2020-11-17T12:34:14Z</time>
      </trkpt>
      <trkpt lat="28.5613950" lon="-17.8184670">
        <ele>1266.5</ele>
        <time>2020-11-17T12:34:15Z</time>
      </trkpt>
      <trkpt lat="28.5613950" lon="-17.8184670">
        <ele>1266.5</ele>
        <time>2020-11-17T12:34:16Z</time>
      </trkpt>
      <trkpt lat="28.5614180" lon="-17.8184550">
        <ele>1266.8</ele>
        <time>2020-11-17T12:34:17Z</time>
      </trkpt>
      <trkpt lat="28.5614330" lon="-17.8184520">
        <ele>1266.9</ele>
        <time>2020-11-17T12:34:18Z</time>
      </trkpt>
      <trkpt lat="28.5614330" lon="-17.8184520">
        <ele>1266.9</ele>
        <time>2020-11-17T12:34:19Z</time>
      </trkpt>
      <trkpt lat="28.5614670" lon="-17.8184430">
        <ele>1267.2</ele>
        <time>2020-11-17T12:34:20Z</time>
      </trkpt>
      <trkpt lat="28.5614820" lon="-17.8184400">
        <ele>1267.3</ele>
        <time>2020-11-17T12:34:21Z</time>
      </trkpt>
      <trkpt lat="28.5614820" lon="-17.8184400">
        <ele>1267.3</ele>
        <time>2020-11-17T12:34:22Z</time>
      </trkpt>
      <trkpt lat="28.5615020" lon="-17.8184370">
        <ele>1267.5</ele>
        <time>2020-11-17T12:34:23Z</time>
      </trkpt>
      <trkpt lat="28.5615180" lon="-17.8184330">
        <ele>1267.6</ele>
        <time>2020-11-17T12:34:24Z</time>
      </trkpt>
      <trkpt lat="28.5615180" lon="-17.8184330">
        <ele>1267.6</ele>
        <time>2020-11-17T12:34:25Z</time>
      </trkpt>
      <trkpt lat="28.5615530" lon="-17.8184280">
        <ele>1267.9</ele>
        <time>2020-11-17T12:34:26Z</time>
      </trkpt>
      <trkpt lat="28.5615670" lon="-17.8184270">
        <ele>1268.0</ele>
        <time>2020-11-17T12:34:27Z</time>
      </trkpt>
      <trkpt lat="28.5615670" lon="-17.8184270">
        <ele>1268.0</ele>
        <time>2020-11-17T12:34:28Z</time>
      </trkpt>
      <trkpt lat="28.5615950" lon="-17.8184170">
        <ele>1268.3</ele>
        <time>2020-11-17T12:34:29Z</time>
      </trkpt>
      <trkpt lat="28.5616150" lon="-17.8184080">
        <ele>1268.5</ele>
        <time>2020-11-17T12:34:30Z</time>
      </trkpt>
      <trkpt lat="28.5616150" lon="-17.8184080">
        <ele>1268.5</ele>
        <time>2020-11-17T12:34:31Z</time>
      </trkpt>
      <trkpt lat="28.5616670" lon="-17.8183830">
        <ele>1269.0</ele>
        <time>2020-11-17T12:34:32Z</time>
      </trkpt>
      <trkpt lat="28.5616670" lon="-17.8183830">
        <ele>1269.0</ele>
        <time>2020-11-17T12:34:33Z</time>
      </trkpt>
      <trkpt lat="28.5617100" lon="-17.8183470">
        <ele>1269.5</ele>
        <time>2020-11-17T12:34:34Z</time>
      </trkpt>
      <trkpt lat="28.5617100" lon="-17.8183470">
        <ele>1269.5</ele>
        <time>2020-11-17T12:34:35Z</time>
      </trkpt>
      <trkpt lat="28.5617400" lon="-17.8183080">
        <ele>1269.9</ele>
        <time>2020-11-17T12:34:36Z</time>
      </trkpt>
      <trkpt lat="28.5617400" lon="-17.8183080">
        <ele>1269.9</ele>
        <time>2020-11-17T12:34:37Z</time>
      </trkpt>
      <trkpt lat="28.5617800" lon="-17.8182670">
        <ele>1270.5</ele>
        <time>2020-11-17T12:34:38Z</time>
      </trkpt>
      <trkpt lat="28.5617800" lon="-17.8182670">
        <ele>1270.5</ele>
        <time>2020-11-17T12:34:39Z</time>
      </trkpt>
      <trkpt lat="28.5618130" lon="-17.8182370">
        <ele>1270.9</ele>
        <time>2020-11-17T12:34:40Z</time>
      </trkpt>
      <trkpt lat="28.5618280" lon="-17.8182200">
        <ele>1271.1</ele>
        <time>2020-11-17T12:34:41Z</time>
      </trkpt>
      <trkpt lat="28.5618280" lon="-17.8182200">
        <ele>1271.1</ele>
        <time>2020-11-17T12:34:42Z</time>
      </trkpt>
      <trkpt lat="28.5618620" lon="-17.8181780">
        <ele>1271.6</ele>
        <time>2020-11-17T12:34:43Z</time>
      </trkpt>
      <trkpt lat="28.5618620" lon="-17.8181780">
        <ele>1271.6</ele>
        <time>2020-11-17T12:34:44Z</time>
      </trkpt>
      <trkpt lat="28.5618850" lon="-17.8181370">
        <ele>1272.1</ele>
        <time>2020-11-17T12:34:45Z</time>
      </trkpt>
      <trkpt lat="28.5618970" lon="-17.8181220">
        <ele>1272.2</ele>
        <time>2020-11-17T12:34:46Z</time>
      </trkpt>
      <trkpt lat="28.5619070" lon="-17.8181100">
        <ele>1272.4</ele>
        <time>2020-11-17T12:34:47Z</time>
      </trkpt>
      <trkpt lat="28.5619180" lon="-17.8180950">
        <ele>1272.6</ele>
        <time>2020-11-17T12:34:48Z</time>
      </trkpt>
      <trkpt lat="28.5619180" lon="-17.8180950">
        <ele>1272.6</ele>
        <time>2020-11-17T12:34:49Z</time>
      </trkpt>
      <trkpt lat="28.5619400" lon="-17.8180630">
        <ele>1272.9</ele>
        <time>2020-11-17T12:34:50Z</time>
      </trkpt>
      <trkpt lat="28.5619480" lon="-17.8180450">
        <ele>1273.1</ele>
        <time>2020-11-17T12:34:51Z</time>
      </trkpt>
      <trkpt lat="28.5619480" lon="-17.8180450">
        <ele>1273.1</ele>
        <time>2020-11-17T12:34:52Z</time>
      </trkpt>
      <trkpt lat="28.5619730" lon="-17.8180120">
        <ele>1273.5</ele>
        <time>2020-11-17T12:34:53Z</time>
      </trkpt>
      <trkpt lat="28.5619730" lon="-17.8180120">
        <ele>1273.5</ele>
        <time>2020-11-17T12:34:54Z</time>
      </trkpt>
      <trkpt lat="28.5620000" lon="-17.8179850">
        <ele>1273.8</ele>
        <time>2020-11-17T12:34:55Z</time>
      </trkpt>
      <trkpt lat="28.5620000" lon="-17.8179850">
        <ele>1273.8</ele>
        <time>2020-11-17T12:34:56Z</time>
      </trkpt>
      <trkpt lat="28.5620250" lon="-17.8179570">
        <ele>1274.2</ele>
        <time>2020-11-17T12:34:57Z</time>
      </trkpt>
      <trkpt lat="28.5620250" lon="-17.8179570">
        <ele>1274.2</ele>
        <time>2020-11-17T12:34:58Z</time>
      </trkpt>
      <trkpt lat="28.5620470" lon="-17.8179270">
        <ele>1274.5</ele>
        <time>2020-11-17T12:34:59Z</time>
      </trkpt>
      <trkpt lat="28.5620470" lon="-17.8179270">
        <ele>1274.5</ele>
        <time>2020-11-17T12:35:00Z</time>
      </trkpt>
      <trkpt lat="28.5620720" lon="-17.8179050">
        <ele>1274.8</ele>
        <time>2020-11-17T12:35:01Z</time>
      </trkpt>
      <trkpt lat="28.5620720" lon="-17.8179050">
        <ele>1274.8</ele>
        <time>2020-11-17T12:35:02Z</time>
      </trkpt>
      <trkpt lat="28.5621000" lon="-17.8178850">
        <ele>1275.1</ele>
        <time>2020-11-17T12:35:03Z</time>
      </trkpt>
      <trkpt lat="28.5621130" lon="-17.8178730">
        <ele>1275.2</ele>
        <time>2020-11-17T12:35:04Z</time>
      </trkpt>
      <trkpt lat="28.5621130" lon="-17.8178730">
        <ele>1275.2</ele>
        <time>2020-11-17T12:35:05Z</time>
      </trkpt>
      <trkpt lat="28.5621380" lon="-17.8178520">
        <ele>1275.5</ele>
        <time>2020-11-17T12:35:06Z</time>
      </trkpt>
      <trkpt lat="28.5621380" lon="-17.8178520">
        <ele>1275.5</ele>
        <time>2020-11-17T12:35:07Z</time>
      </trkpt>
      <trkpt lat="28.5621720" lon="-17.8178420">
        <ele>1275.7</ele>
        <time>2020-11-17T12:35:08Z</time>
      </trkpt>
      <trkpt lat="28.5621720" lon="-17.8178420">
        <ele>1275.7</ele>
        <time>2020-11-17T12:35:09Z</time>
      </trkpt>
      <trkpt lat="28.5622030" lon="-17.8178280">
        <ele>1276.0</ele>
        <time>2020-11-17T12:35:10Z</time>
      </trkpt>
      <trkpt lat="28.5622170" lon="-17.8178270">
        <ele>1276.1</ele>
        <time>2020-11-17T12:35:11Z</time>
      </trkpt>
      <trkpt lat="28.5622330" lon="-17.8178270">
        <ele>1276.2</ele>
        <time>2020-11-17T12:35:12Z</time>
      </trkpt>
      <trkpt lat="28.5622330" lon="-17.8178270">
        <ele>1276.2</ele>
        <time>2020-11-17T12:35:13Z</time>
      </trkpt>
      <trkpt lat="28.5622620" lon="-17.8178330">
        <ele>1276.4</ele>
        <time>2020-11-17T12:35:14Z</time>
      </trkpt>
      <trkpt lat="28.5622750" lon="-17.8178420">
        <ele>1276.5</ele>
        <time>2020-11-17T12:35:15Z</time>
      </trkpt>
      <trkpt lat="28.5622750" lon="-17.8178420">
        <ele>1276.5</ele>
        <time>2020-11-17T12:35:16Z</time>
      </trkpt>
      <trkpt lat="28.5623030" lon="-17.8178570">
        <ele>1276.7</ele>
        <time>2020-11-17T12:35:17Z</time>
      </trkpt>
      <trkpt lat="28.5623220" lon="-17.8178650">
        <ele>1276.8</ele>
        <time>2020-11-17T12:35:18Z</time>
      </trkpt>
      <trkpt lat="28.5623220" lon="-17.8178650">
        <ele>1276.8</ele>
        <time>2020-11-17T12:35:19Z</time>
      </trkpt>
      <trkpt lat="28.5623630" lon="-17.8178800">
        <ele>1277.2</ele>
        <time>2020-11-17T12:35:20Z</time>
      </trkpt>
      <trkpt lat="28.5623630" lon="-17.8178800">
        <ele>1277.2</ele>
        <time>2020-11-17T12:35:21Z</time>
      </trkpt>
      <trkpt lat="28.5623980" lon="-17.8178870">
        <ele>1277.5</ele>
        <time>2020-11-17T12:35:22Z</time>
      </trkpt>
      <trkpt lat="28.5624130" lon="-17.8178870">
        <ele>1277.6</ele>
        <time>2020-11-17T12:35:23Z</time>
      </trkpt>
      <trkpt lat="28.5624130" lon="-17.8178870">
        <ele>1277.6</ele>
        <time>2020-11-17T12:35:24Z</time>
      </trkpt>
      <trkpt lat="28.5624450" lon="-17.8178950">
        <ele>1277.9</ele>
        <time>2020-11-17T12:35:25Z</time>
      </trkpt>
      <trkpt lat="28.5624450" lon="-17.8178950">
        <ele>1277.9</ele>
        <time>2020-11-17T12:35:26Z</time>
      </trkpt>
      <trkpt lat="28.5624730" lon="-17.8179020">
        <ele>1278.1</ele>
        <time>2020-11-17T12:35:27Z</time>
      </trkpt>
      <trkpt lat="28.5624730" lon="-17.8179020">
        <ele>1278.1</ele>
        <time>2020-11-17T12:35:28Z</time>
      </trkpt>
      <trkpt lat="28.5624980" lon="-17.8178930">
        <ele>1278.4</ele>
        <time>2020-11-17T12:35:29Z</time>
      </trkpt>
      <trkpt lat="28.5624980" lon="-17.8178930">
        <ele>1278.4</ele>
        <time>2020-11-17T12:35:30Z</time>
      </trkpt>
      <trkpt lat="28.5625200" lon="-17.8178880">
        <ele>1278.6</ele>
        <time>2020-11-17T12:35:31Z</time>
      </trkpt>
      <trkpt lat="28.5625200" lon="-17.8178880">
        <ele>1278.6</ele>
        <time>2020-11-17T12:35:32Z</time>
      </trkpt>
      <trkpt lat="28.5625450" lon="-17.8178880">
        <ele>1278.8</ele>
        <time>2020-11-17T12:35:33Z</time>
      </trkpt>
      <trkpt lat="28.5625580" lon="-17.8178850">
        <ele>1279.0</ele>
        <time>2020-11-17T12:35:34Z</time>
      </trkpt>
      <trkpt lat="28.5625580" lon="-17.8178850">
        <ele>1279.0</ele>
        <time>2020-11-17T12:35:35Z</time>
      </trkpt>
      <trkpt lat="28.5625950" lon="-17.8178780">
        <ele>1279.3</ele>
        <time>2020-11-17T12:35:36Z</time>
      </trkpt>
      <trkpt lat="28.5625950" lon="-17.8178780">
        <ele>1279.3</ele>
        <time>2020-11-17T12:35:37Z</time>
      </trkpt>
      <trkpt lat="28.5626220" lon="-17.8178730">
        <ele>1279.6</ele>
        <time>2020-11-17T12:35:38Z</time>
      </trkpt>
      <trkpt lat="28.5626220" lon="-17.8178730">
        <ele>1279.6</ele>
        <time>2020-11-17T12:35:39Z</time>
      </trkpt>
      <trkpt lat="28.5626470" lon="-17.8178530">
        <ele>1279.9</ele>
        <time>2020-11-17T12:35:40Z</time>
      </trkpt>
      <trkpt lat="28.5626470" lon="-17.8178530">
        <ele>1279.9</ele>
        <time>2020-11-17T12:35:41Z</time>
      </trkpt>
      <trkpt lat="28.5626630" lon="-17.8178470">
        <ele>1280.1</ele>
        <time>2020-11-17T12:35:42Z</time>
      </trkpt>
      <trkpt lat="28.5626630" lon="-17.8178470">
        <ele>1280.1</ele>
        <time>2020-11-17T12:35:43Z</time>
      </trkpt>
      <trkpt lat="28.5626830" lon="-17.8178530">
        <ele>1280.3</ele>
        <time>2020-11-17T12:35:44Z</time>
      </trkpt>
      <trkpt lat="28.5626830" lon="-17.8178530">
        <ele>1280.3</ele>
        <time>2020-11-17T12:35:45Z</time>
      </trkpt>
      <trkpt lat="28.5627100" lon="-17.8178620">
        <ele>1280.6</ele>
        <time>2020-11-17T12:35:46Z</time>
      </trkpt>
      <trkpt lat="28.5627100" lon="-17.8178620">
        <ele>1280.6</ele>
        <time>2020-11-17T12:35:47Z</time>
      </trkpt>
      <trkpt lat="28.5627330" lon="-17.8178580">
        <ele>1280.8</ele>
        <time>2020-11-17T12:35:48Z</time>
      </trkpt>
      <trkpt lat="28.5627470" lon="-17.8178550">
        <ele>1280.9</ele>
        <time>2020-11-17T12:35:49Z</time>
      </trkpt>
      <trkpt lat="28.5627470" lon="-17.8178550">
        <ele>1280.9</ele>
        <time>2020-11-17T12:35:50Z</time>
      </trkpt>
      <trkpt lat="28.5627770" lon="-17.8178480">
        <ele>1281.2</ele>
        <time>2020-11-17T12:35:51Z</time>
      </trkpt>
      <trkpt lat="28.5627770" lon="-17.8178480">
        <ele>1281.2</ele>
        <time>2020-11-17T12:35:52Z</time>
      </trkpt>
      <trkpt lat="28.5628050" lon="-17.8178450">
        <ele>1281.5</ele>
        <time>2020-11-17T12:35:53Z</time>
      </trkpt>
      <trkpt lat="28.5628050" lon="-17.8178450">
        <ele>1281.5</ele>
        <time>2020-11-17T12:35:54Z</time>
      </trkpt>
      <trkpt lat="28.5628280" lon="-17.8178420">
        <ele>1281.7</ele>
        <time>2020-11-17T12:35:55Z</time>
      </trkpt>
      <trkpt lat="28.5628280" lon="-17.8178420">
        <ele>1281.7</ele>
        <time>2020-11-17T12:35:56Z</time>
      </trkpt>
      <trkpt lat="28.5628600" lon="-17.8178300">
        <ele>1282.0</ele>
        <time>2020-11-17T12:35:57Z</time>
      </trkpt>
      <trkpt lat="28.5628600" lon="-17.8178300">
        <ele>1282.0</ele>
        <time>2020-11-17T12:35:58Z</time>
      </trkpt>
      <trkpt lat="28.5628950" lon="-17.8178150">
        <ele>1282.4</ele>
        <time>2020-11-17T12:35:59Z</time>
      </trkpt>
      <trkpt lat="28.5628950" lon="-17.8178150">
        <ele>1282.4</ele>
        <time>2020-11-17T12:36:00Z</time>
      </trkpt>
      <trkpt lat="28.5629350" lon="-17.8178020">
        <ele>1282.7</ele>
        <time>2020-11-17T12:36:01Z</time>
      </trkpt>
      <trkpt lat="28.5629350" lon="-17.8178020">
        <ele>1282.7</ele>
        <time>2020-11-17T12:36:02Z</time>
      </trkpt>
      <trkpt lat="28.5629600" lon="-17.8177900">
        <ele>1283.0</ele>
        <time>2020-11-17T12:36:03Z</time>
      </trkpt>
      <trkpt lat="28.5629600" lon="-17.8177900">
        <ele>1283.0</ele>
        <time>2020-11-17T12:36:04Z</time>
      </trkpt>
      <trkpt lat="28.5629780" lon="-17.8177820">
        <ele>1283.1</ele>
        <time>2020-11-17T12:36:05Z</time>
      </trkpt>
      <trkpt lat="28.5629920" lon="-17.8177780">
        <ele>1283.2</ele>
        <time>2020-11-17T12:36:06Z</time>
      </trkpt>
      <trkpt lat="28.5629920" lon="-17.8177780">
        <ele>1283.2</ele>
        <time>2020-11-17T12:36:07Z</time>
      </trkpt>
      <trkpt lat="28.5630100" lon="-17.8177600">
        <ele>1283.4</ele>
        <time>2020-11-17T12:36:08Z</time>
      </trkpt>
      <trkpt lat="28.5630100" lon="-17.8177600">
        <ele>1283.4</ele>
        <time>2020-11-17T12:36:09Z</time>
      </trkpt>
      <trkpt lat="28.5630320" lon="-17.8177350">
        <ele>1283.7</ele>
        <time>2020-11-17T12:36:10Z</time>
      </trkpt>
      <trkpt lat="28.5630450" lon="-17.8177200">
        <ele>1283.8</ele>
        <time>2020-11-17T12:36:11Z</time>
      </trkpt>
      <trkpt lat="28.5630450" lon="-17.8177200">
        <ele>1283.8</ele>
        <time>2020-11-17T12:36:12Z</time>
      </trkpt>
      <trkpt lat="28.5630700" lon="-17.8176950">
        <ele>1284.1</ele>
        <time>2020-11-17T12:36:13Z</time>
      </trkpt>
      <trkpt lat="28.5630770" lon="-17.8176880">
        <ele>1284.1</ele>
        <time>2020-11-17T12:36:14Z</time>
      </trkpt>
      <trkpt lat="28.5630770" lon="-17.8176880">
        <ele>1284.1</ele>
        <time>2020-11-17T12:36:15Z</time>
      </trkpt>
      <trkpt lat="28.5631000" lon="-17.8176830">
        <ele>1284.3</ele>
        <time>2020-11-17T12:36:16Z</time>
      </trkpt>
      <trkpt lat="28.5631000" lon="-17.8176830">
        <ele>1284.3</ele>
        <time>2020-11-17T12:36:17Z</time>
      </trkpt>
      <trkpt lat="28.5631300" lon="-17.8176700">
        <ele>1284.6</ele>
        <time>2020-11-17T12:36:18Z</time>
      </trkpt>
      <trkpt lat="28.5631430" lon="-17.8176620">
        <ele>1284.7</ele>
        <time>2020-11-17T12:36:19Z</time>
      </trkpt>
      <trkpt lat="28.5631430" lon="-17.8176620">
        <ele>1284.7</ele>
        <time>2020-11-17T12:36:20Z</time>
      </trkpt>
      <trkpt lat="28.5631720" lon="-17.8176480">
        <ele>1285.0</ele>
        <time>2020-11-17T12:36:21Z</time>
      </trkpt>
      <trkpt lat="28.5631880" lon="-17.8176370">
        <ele>1285.1</ele>
        <time>2020-11-17T12:36:22Z</time>
      </trkpt>
      <trkpt lat="28.5631880" lon="-17.8176370">
        <ele>1285.1</ele>
        <time>2020-11-17T12:36:23Z</time>
      </trkpt>
      <trkpt lat="28.5632170" lon="-17.8176100">
        <ele>1285.5</ele>
        <time>2020-11-17T12:36:24Z</time>
      </trkpt>
      <trkpt lat="28.5632170" lon="-17.8176100">
        <ele>1285.5</ele>
        <time>2020-11-17T12:36:25Z</time>
      </trkpt>
      <trkpt lat="28.5632380" lon="-17.8175820">
        <ele>1285.8</ele>
        <time>2020-11-17T12:36:26Z</time>
      </trkpt>
      <trkpt lat="28.5632480" lon="-17.8175730">
        <ele>1285.9</ele>
        <time>2020-11-17T12:36:27Z</time>
      </trkpt>
      <trkpt lat="28.5632480" lon="-17.8175730">
        <ele>1285.9</ele>
        <time>2020-11-17T12:36:28Z</time>
      </trkpt>
      <trkpt lat="28.5632750" lon="-17.8175600">
        <ele>1286.2</ele>
        <time>2020-11-17T12:36:29Z</time>
      </trkpt>
      <trkpt lat="28.5632920" lon="-17.8175580">
        <ele>1286.4</ele>
        <time>2020-11-17T12:36:30Z</time>
      </trkpt>
      <trkpt lat="28.5632920" lon="-17.8175580">
        <ele>1286.4</ele>
        <time>2020-11-17T12:36:31Z</time>
      </trkpt>
      <trkpt lat="28.5633200" lon="-17.8175430">
        <ele>1286.7</ele>
        <time>2020-11-17T12:36:32Z</time>
      </trkpt>
      <trkpt lat="28.5633350" lon="-17.8175370">
        <ele>1286.9</ele>
        <time>2020-11-17T12:36:33Z</time>
      </trkpt>
      <trkpt lat="28.5633350" lon="-17.8175370">
        <ele>1286.9</ele>
        <time>2020-11-17T12:36:34Z</time>
      </trkpt>
      <trkpt lat="28.5633680" lon="-17.8175250">
        <ele>1287.1</ele>
        <time>2020-11-17T12:36:35Z</time>
      </trkpt>
      <trkpt lat="28.5633830" lon="-17.8175200">
        <ele>1287.3</ele>
        <time>2020-11-17T12:36:36Z</time>
      </trkpt>
      <trkpt lat="28.5633830" lon="-17.8175200">
        <ele>1287.3</ele>
        <time>2020-11-17T12:36:37Z</time>
      </trkpt>
      <trkpt lat="28.5634120" lon="-17.8175050">
        <ele>1287.6</ele>
        <time>2020-11-17T12:36:38Z</time>
      </trkpt>
      <trkpt lat="28.5634120" lon="-17.8175050">
        <ele>1287.6</ele>
        <time>2020-11-17T12:36:39Z</time>
      </trkpt>
      <trkpt lat="28.5634330" lon="-17.8174970">
        <ele>1287.9</ele>
        <time>2020-11-17T12:36:40Z</time>
      </trkpt>
      <trkpt lat="28.5634400" lon="-17.8174900">
        <ele>1288.0</ele>
        <time>2020-11-17T12:36:41Z</time>
      </trkpt>
      <trkpt lat="28.5634400" lon="-17.8174900">
        <ele>1288.0</ele>
        <time>2020-11-17T12:36:42Z</time>
      </trkpt>
      <trkpt lat="28.5634770" lon="-17.8174680">
        <ele>1288.5</ele>
        <time>2020-11-17T12:36:43Z</time>
      </trkpt>
      <trkpt lat="28.5634770" lon="-17.8174680">
        <ele>1288.5</ele>
        <time>2020-11-17T12:36:44Z</time>
      </trkpt>
      <trkpt lat="28.5634920" lon="-17.8174580">
        <ele>1288.6</ele>
        <time>2020-11-17T12:36:45Z</time>
      </trkpt>
      <trkpt lat="28.5634920" lon="-17.8174580">
        <ele>1288.6</ele>
        <time>2020-11-17T12:36:46Z</time>
      </trkpt>
      <trkpt lat="28.5635120" lon="-17.8174430">
        <ele>1288.9</ele>
        <time>2020-11-17T12:36:47Z</time>
      </trkpt>
      <trkpt lat="28.5635220" lon="-17.8174330">
        <ele>1289.0</ele>
        <time>2020-11-17T12:36:48Z</time>
      </trkpt>
      <trkpt lat="28.5635220" lon="-17.8174330">
        <ele>1289.0</ele>
        <time>2020-11-17T12:36:49Z</time>
      </trkpt>
      <trkpt lat="28.5635530" lon="-17.8174130">
        <ele>1289.4</ele>
        <time>2020-11-17T12:36:50Z</time>
      </trkpt>
      <trkpt lat="28.5635670" lon="-17.8174050">
        <ele>1289.5</ele>
        <time>2020-11-17T12:36:51Z</time>
      </trkpt>
      <trkpt lat="28.5635670" lon="-17.8174050">
        <ele>1289.5</ele>
        <time>2020-11-17T12:36:52Z</time>
      </trkpt>
      <trkpt lat="28.5635970" lon="-17.8173850">
        <ele>1289.9</ele>
        <time>2020-11-17T12:36:53Z</time>
      </trkpt>
      <trkpt lat="28.5636070" lon="-17.8173720">
        <ele>1290.0</ele>
        <time>2020-11-17T12:36:54Z</time>
      </trkpt>
      <trkpt lat="28.5636070" lon="-17.8173720">
        <ele>1290.0</ele>
        <time>2020-11-17T12:36:55Z</time>
      </trkpt>
      <trkpt lat="28.5636330" lon="-17.8173470">
        <ele>1290.3</ele>
        <time>2020-11-17T12:36:56Z</time>
      </trkpt>
      <trkpt lat="28.5636330" lon="-17.8173470">
        <ele>1290.3</ele>
        <time>2020-11-17T12:36:57Z</time>
      </trkpt>
      <trkpt lat="28.5636730" lon="-17.8173220">
        <ele>1290.7</ele>
        <time>2020-11-17T12:36:58Z</time>
      </trkpt>
      <trkpt lat="28.5636900" lon="-17.8173130">
        <ele>1290.9</ele>
        <time>2020-11-17T12:36:59Z</time>
      </trkpt>
      <trkpt lat="28.5637050" lon="-17.8173100">
        <ele>1291.0</ele>
        <time>2020-11-17T12:37:00Z</time>
      </trkpt>
      <trkpt lat="28.5637050" lon="-17.8173100">
        <ele>1291.0</ele>
        <time>2020-11-17T12:37:01Z</time>
      </trkpt>
      <trkpt lat="28.5637330" lon="-17.8173020">
        <ele>1291.2</ele>
        <time>2020-11-17T12:37:02Z</time>
      </trkpt>
      <trkpt lat="28.5637330" lon="-17.8173020">
        <ele>1291.2</ele>
        <time>2020-11-17T12:37:03Z</time>
      </trkpt>
      <trkpt lat="28.5637630" lon="-17.8172930">
        <ele>1291.5</ele>
        <time>2020-11-17T12:37:04Z</time>
      </trkpt>
      <trkpt lat="28.5637630" lon="-17.8172930">
        <ele>1291.5</ele>
        <time>2020-11-17T12:37:05Z</time>
      </trkpt>
      <trkpt lat="28.5637920" lon="-17.8172900">
        <ele>1291.7</ele>
        <time>2020-11-17T12:37:06Z</time>
      </trkpt>
      <trkpt lat="28.5637920" lon="-17.8172900">
        <ele>1291.7</ele>
        <time>2020-11-17T12:37:07Z</time>
      </trkpt>
      <trkpt lat="28.5638170" lon="-17.8172900">
        <ele>1291.9</ele>
        <time>2020-11-17T12:37:08Z</time>
      </trkpt>
      <trkpt lat="28.5638280" lon="-17.8172930">
        <ele>1291.9</ele>
        <time>2020-11-17T12:37:09Z</time>
      </trkpt>
      <trkpt lat="28.5638330" lon="-17.8172970">
        <ele>1292.0</ele>
        <time>2020-11-17T12:37:10Z</time>
      </trkpt>
      <trkpt lat="28.5638330" lon="-17.8172970">
        <ele>1292.0</ele>
        <time>2020-11-17T12:37:11Z</time>
      </trkpt>
      <trkpt lat="28.5638500" lon="-17.8173100">
        <ele>1292.1</ele>
        <time>2020-11-17T12:37:12Z</time>
      </trkpt>
      <trkpt lat="28.5638500" lon="-17.8173100">
        <ele>1292.1</ele>
        <time>2020-11-17T12:37:13Z</time>
      </trkpt>
      <trkpt lat="28.5638630" lon="-17.8173150">
        <ele>1292.2</ele>
        <time>2020-11-17T12:37:14Z</time>
      </trkpt>
      <trkpt lat="28.5638630" lon="-17.8173150">
        <ele>1292.2</ele>
        <time>2020-11-17T12:37:15Z</time>
      </trkpt>
      <trkpt lat="28.5638920" lon="-17.8173200">
        <ele>1292.4</ele>
        <time>2020-11-17T12:37:16Z</time>
      </trkpt>
      <trkpt lat="28.5639050" lon="-17.8173230">
        <ele>1292.5</ele>
        <time>2020-11-17T12:37:17Z</time>
      </trkpt>
      <trkpt lat="28.5639200" lon="-17.8173250">
        <ele>1292.6</ele>
        <time>2020-11-17T12:37:18Z</time>
      </trkpt>
      <trkpt lat="28.5639200" lon="-17.8173250">
        <ele>1292.6</ele>
        <time>2020-11-17T12:37:19Z</time>
      </trkpt>
      <trkpt lat="28.5639470" lon="-17.8173380">
        <ele>1292.7</ele>
        <time>2020-11-17T12:37:20Z</time>
      </trkpt>
      <trkpt lat="28.5639620" lon="-17.8173400">
        <ele>1292.8</ele>
        <time>2020-11-17T12:37:21Z</time>
      </trkpt>
      <trkpt lat="28.5639620" lon="-17.8173400">
        <ele>1292.8</ele>
        <time>2020-11-17T12:37:22Z</time>
      </trkpt>
      <trkpt lat="28.5639850" lon="-17.8173400">
        <ele>1293.0</ele>
        <time>2020-11-17T12:37:23Z</time>
      </trkpt>
      <trkpt lat="28.5639930" lon="-17.8173380">
        <ele>1293.0</ele>
        <time>2020-11-17T12:37:24Z</time>
      </trkpt>
      <trkpt lat="28.5639930" lon="-17.8173380">
        <ele>1293.0</ele>
        <time>2020-11-17T12:37:25Z</time>
      </trkpt>
      <trkpt lat="28.5640200" lon="-17.8173430">
        <ele>1293.2</ele>
        <time>2020-11-17T12:37:26Z</time>
      </trkpt>
      <trkpt lat="28.5640200" lon="-17.8173430">
        <ele>1293.2</ele>
        <time>2020-11-17T12:37:27Z</time>
      </trkpt>
      <trkpt lat="28.5640570" lon="-17.8173480">
        <ele>1293.4</ele>
        <time>2020-11-17T12:37:28Z</time>
      </trkpt>
      <trkpt lat="28.5640570" lon="-17.8173480">
        <ele>1293.4</ele>
        <time>2020-11-17T12:37:29Z</time>
      </trkpt>
      <trkpt lat="28.5640930" lon="-17.8173520">
        <ele>1293.6</ele>
        <time>2020-11-17T12:37:30Z</time>
      </trkpt>
      <trkpt lat="28.5641120" lon="-17.8173530">
        <ele>1293.7</ele>
        <time>2020-11-17T12:37:31Z</time>
      </trkpt>
      <trkpt lat="28.5641120" lon="-17.8173530">
        <ele>1293.7</ele>
        <time>2020-11-17T12:37:32Z</time>
      </trkpt>
      <trkpt lat="28.5641470" lon="-17.8173670">
        <ele>1294.0</ele>
        <time>2020-11-17T12:37:33Z</time>
      </trkpt>
      <trkpt lat="28.5641470" lon="-17.8173670">
        <ele>1294.0</ele>
        <time>2020-11-17T12:37:34Z</time>
      </trkpt>
      <trkpt lat="28.5641770" lon="-17.8173830">
        <ele>1294.2</ele>
        <time>2020-11-17T12:37:35Z</time>
      </trkpt>
      <trkpt lat="28.5641900" lon="-17.8173880">
        <ele>1294.3</ele>
        <time>2020-11-17T12:37:36Z</time>
      </trkpt>
      <trkpt lat="28.5641900" lon="-17.8173880">
        <ele>1294.3</ele>
        <time>2020-11-17T12:37:37Z</time>
      </trkpt>
      <trkpt lat="28.5642220" lon="-17.8174000">
        <ele>1294.5</ele>
        <time>2020-11-17T12:37:38Z</time>
      </trkpt>
      <trkpt lat="28.5642220" lon="-17.8174000">
        <ele>1294.5</ele>
        <time>2020-11-17T12:37:39Z</time>
      </trkpt>
      <trkpt lat="28.5642450" lon="-17.8174180">
        <ele>1294.7</ele>
        <time>2020-11-17T12:37:40Z</time>
      </trkpt>
      <trkpt lat="28.5642680" lon="-17.8174330">
        <ele>1294.9</ele>
        <time>2020-11-17T12:37:41Z</time>
      </trkpt>
      <trkpt lat="28.5642680" lon="-17.8174330">
        <ele>1294.9</ele>
        <time>2020-11-17T12:37:42Z</time>
      </trkpt>
      <trkpt lat="28.5643100" lon="-17.8174430">
        <ele>1295.3</ele>
        <time>2020-11-17T12:37:43Z</time>
      </trkpt>
      <trkpt lat="28.5643350" lon="-17.8174500">
        <ele>1295.5</ele>
        <time>2020-11-17T12:37:44Z</time>
      </trkpt>
      <trkpt lat="28.5643350" lon="-17.8174500">
        <ele>1295.5</ele>
        <time>2020-11-17T12:37:45Z</time>
      </trkpt>
      <trkpt lat="28.5643630" lon="-17.8174620">
        <ele>1295.7</ele>
        <time>2020-11-17T12:37:46Z</time>
      </trkpt>
      <trkpt lat="28.5643630" lon="-17.8174620">
        <ele>1295.7</ele>
        <time>2020-11-17T12:37:47Z</time>
      </trkpt>
      <trkpt lat="28.5643850" lon="-17.8174700">
        <ele>1295.9</ele>
        <time>2020-11-17T12:37:48Z</time>
      </trkpt>
      <trkpt lat="28.5643970" lon="-17.8174750">
        <ele>1296.0</ele>
        <time>2020-11-17T12:37:49Z</time>
      </trkpt>
      <trkpt lat="28.5643970" lon="-17.8174750">
        <ele>1296.0</ele>
        <time>2020-11-17T12:37:50Z</time>
      </trkpt>
      <trkpt lat="28.5644200" lon="-17.8174820">
        <ele>1296.1</ele>
        <time>2020-11-17T12:37:51Z</time>
      </trkpt>
      <trkpt lat="28.5644200" lon="-17.8174820">
        <ele>1296.1</ele>
        <time>2020-11-17T12:37:52Z</time>
      </trkpt>
      <trkpt lat="28.5644450" lon="-17.8174930">
        <ele>1296.3</ele>
        <time>2020-11-17T12:37:53Z</time>
      </trkpt>
      <trkpt lat="28.5644600" lon="-17.8175050">
        <ele>1296.5</ele>
        <time>2020-11-17T12:37:54Z</time>
      </trkpt>
      <trkpt lat="28.5644600" lon="-17.8175050">
        <ele>1296.5</ele>
        <time>2020-11-17T12:37:55Z</time>
      </trkpt>
      <trkpt lat="28.5644880" lon="-17.8175280">
        <ele>1296.7</ele>
        <time>2020-11-17T12:37:56Z</time>
      </trkpt>
      <trkpt lat="28.5645030" lon="-17.8175380">
        <ele>1296.8</ele>
        <time>2020-11-17T12:37:57Z</time>
      </trkpt>
      <trkpt lat="28.5645200" lon="-17.8175500">
        <ele>1297.0</ele>
        <time>2020-11-17T12:37:58Z</time>
      </trkpt>
      <trkpt lat="28.5645200" lon="-17.8175500">
        <ele>1297.0</ele>
        <time>2020-11-17T12:37:59Z</time>
      </trkpt>
      <trkpt lat="28.5645450" lon="-17.8175670">
        <ele>1297.2</ele>
        <time>2020-11-17T12:38:00Z</time>
      </trkpt>
      <trkpt lat="28.5645450" lon="-17.8175670">
        <ele>1297.2</ele>
        <time>2020-11-17T12:38:01Z</time>
      </trkpt>
      <trkpt lat="28.5645730" lon="-17.8175820">
        <ele>1297.4</ele>
        <time>2020-11-17T12:38:02Z</time>
      </trkpt>
      <trkpt lat="28.5645730" lon="-17.8175820">
        <ele>1297.4</ele>
        <time>2020-11-17T12:38:03Z</time>
      </trkpt>
      <trkpt lat="28.5645980" lon="-17.8175920">
        <ele>1297.6</ele>
        <time>2020-11-17T12:38:04Z</time>
      </trkpt>
      <trkpt lat="28.5645980" lon="-17.8175920">
        <ele>1297.6</ele>
        <time>2020-11-17T12:38:05Z</time>
      </trkpt>
      <trkpt lat="28.5646270" lon="-17.8175880">
        <ele>1297.9</ele>
        <time>2020-11-17T12:38:06Z</time>
      </trkpt>
      <trkpt lat="28.5646270" lon="-17.8175880">
        <ele>1297.9</ele>
        <time>2020-11-17T12:38:07Z</time>
      </trkpt>
      <trkpt lat="28.5646580" lon="-17.8175900">
        <ele>1298.1</ele>
        <time>2020-11-17T12:38:08Z</time>
      </trkpt>
      <trkpt lat="28.5646580" lon="-17.8175900">
        <ele>1298.1</ele>
        <time>2020-11-17T12:38:09Z</time>
      </trkpt>
      <trkpt lat="28.5646880" lon="-17.8175920">
        <ele>1298.3</ele>
        <time>2020-11-17T12:38:10Z</time>
      </trkpt>
      <trkpt lat="28.5646880" lon="-17.8175920">
        <ele>1298.3</ele>
        <time>2020-11-17T12:38:11Z</time>
      </trkpt>
      <trkpt lat="28.5647170" lon="-17.8176020">
        <ele>1298.6</ele>
        <time>2020-11-17T12:38:12Z</time>
      </trkpt>
      <trkpt lat="28.5647350" lon="-17.8176130">
        <ele>1298.7</ele>
        <time>2020-11-17T12:38:13Z</time>
      </trkpt>
      <trkpt lat="28.5647520" lon="-17.8176270">
        <ele>1298.9</ele>
        <time>2020-11-17T12:38:14Z</time>
      </trkpt>
      <trkpt lat="28.5647520" lon="-17.8176270">
        <ele>1298.9</ele>
        <time>2020-11-17T12:38:15Z</time>
      </trkpt>
      <trkpt lat="28.5647870" lon="-17.8176470">
        <ele>1299.2</ele>
        <time>2020-11-17T12:38:16Z</time>
      </trkpt>
      <trkpt lat="28.5647870" lon="-17.8176470">
        <ele>1299.2</ele>
        <time>2020-11-17T12:38:17Z</time>
      </trkpt>
      <trkpt lat="28.5648200" lon="-17.8176550">
        <ele>1299.4</ele>
        <time>2020-11-17T12:38:18Z</time>
      </trkpt>
      <trkpt lat="28.5648200" lon="-17.8176550">
        <ele>1299.4</ele>
        <time>2020-11-17T12:38:19Z</time>
      </trkpt>
      <trkpt lat="28.5648330" lon="-17.8176580">
        <ele>1299.5</ele>
        <time>2020-11-17T12:38:20Z</time>
      </trkpt>
      <trkpt lat="28.5648330" lon="-17.8176580">
        <ele>1299.5</ele>
        <time>2020-11-17T12:38:21Z</time>
      </trkpt>
      <trkpt lat="28.5648620" lon="-17.8176620">
        <ele>1299.8</ele>
        <time>2020-11-17T12:38:22Z</time>
      </trkpt>
      <trkpt lat="28.5648730" lon="-17.8176620">
        <ele>1299.8</ele>
        <time>2020-11-17T12:38:23Z</time>
      </trkpt>
      <trkpt lat="28.5648730" lon="-17.8176620">
        <ele>1299.8</ele>
        <time>2020-11-17T12:38:24Z</time>
      </trkpt>
      <trkpt lat="28.5649050" lon="-17.8176630">
        <ele>1300.1</ele>
        <time>2020-11-17T12:38:25Z</time>
      </trkpt>
      <trkpt lat="28.5649050" lon="-17.8176630">
        <ele>1300.1</ele>
        <time>2020-11-17T12:38:26Z</time>
      </trkpt>
      <trkpt lat="28.5649450" lon="-17.8176650">
        <ele>1300.4</ele>
        <time>2020-11-17T12:38:27Z</time>
      </trkpt>
      <trkpt lat="28.5649620" lon="-17.8176620">
        <ele>1300.5</ele>
        <time>2020-11-17T12:38:28Z</time>
      </trkpt>
      <trkpt lat="28.5649620" lon="-17.8176620">
        <ele>1300.5</ele>
        <time>2020-11-17T12:38:29Z</time>
      </trkpt>
      <trkpt lat="28.5649880" lon="-17.8176600">
        <ele>1300.7</ele>
        <time>2020-11-17T12:38:30Z</time>
      </trkpt>
      <trkpt lat="28.5649880" lon="-17.8176600">
        <ele>1300.7</ele>
        <time>2020-11-17T12:38:31Z</time>
      </trkpt>
      <trkpt lat="28.5650180" lon="-17.8176520">
        <ele>1300.9</ele>
        <time>2020-11-17T12:38:32Z</time>
      </trkpt>
      <trkpt lat="28.5650400" lon="-17.8176480">
        <ele>1301.1</ele>
        <time>2020-11-17T12:38:33Z</time>
      </trkpt>
      <trkpt lat="28.5650400" lon="-17.8176480">
        <ele>1301.1</ele>
        <time>2020-11-17T12:38:34Z</time>
      </trkpt>
      <trkpt lat="28.5650700" lon="-17.8176280">
        <ele>1301.3</ele>
        <time>2020-11-17T12:38:35Z</time>
      </trkpt>
      <trkpt lat="28.5650700" lon="-17.8176280">
        <ele>1301.3</ele>
        <time>2020-11-17T12:38:36Z</time>
      </trkpt>
      <trkpt lat="28.5651020" lon="-17.8176020">
        <ele>1301.7</ele>
        <time>2020-11-17T12:38:37Z</time>
      </trkpt>
      <trkpt lat="28.5651020" lon="-17.8176020">
        <ele>1301.7</ele>
        <time>2020-11-17T12:38:38Z</time>
      </trkpt>
      <trkpt lat="28.5651230" lon="-17.8175720">
        <ele>1301.9</ele>
        <time>2020-11-17T12:38:39Z</time>
      </trkpt>
      <trkpt lat="28.5651230" lon="-17.8175720">
        <ele>1301.9</ele>
        <time>2020-11-17T12:38:40Z</time>
      </trkpt>
      <trkpt lat="28.5651400" lon="-17.8175480">
        <ele>1302.1</ele>
        <time>2020-11-17T12:38:41Z</time>
      </trkpt>
      <trkpt lat="28.5651400" lon="-17.8175480">
        <ele>1302.1</ele>
        <time>2020-11-17T12:38:42Z</time>
      </trkpt>
      <trkpt lat="28.5651580" lon="-17.8175230">
        <ele>1302.4</ele>
        <time>2020-11-17T12:38:43Z</time>
      </trkpt>
      <trkpt lat="28.5651750" lon="-17.8175100">
        <ele>1302.5</ele>
        <time>2020-11-17T12:38:44Z</time>
      </trkpt>
      <trkpt lat="28.5651750" lon="-17.8175100">
        <ele>1302.5</ele>
        <time>2020-11-17T12:38:45Z</time>
      </trkpt>
      <trkpt lat="28.5652100" lon="-17.8174870">
        <ele>1302.8</ele>
        <time>2020-11-17T12:38:46Z</time>
      </trkpt>
      <trkpt lat="28.5652100" lon="-17.8174870">
        <ele>1302.8</ele>
        <time>2020-11-17T12:38:47Z</time>
      </trkpt>
      <trkpt lat="28.5652530" lon="-17.8174850">
        <ele>1303.1</ele>
        <time>2020-11-17T12:38:48Z</time>
      </trkpt>
      <trkpt lat="28.5652530" lon="-17.8174850">
        <ele>1303.1</ele>
        <time>2020-11-17T12:38:49Z</time>
      </trkpt>
      <trkpt lat="28.5652970" lon="-17.8174750">
        <ele>1303.4</ele>
        <time>2020-11-17T12:38:50Z</time>
      </trkpt>
      <trkpt lat="28.5653120" lon="-17.8174670">
        <ele>1303.5</ele>
        <time>2020-11-17T12:38:51Z</time>
      </trkpt>
      <trkpt lat="28.5653120" lon="-17.8174670">
        <ele>1303.5</ele>
        <time>2020-11-17T12:38:52Z</time>
      </trkpt>
      <trkpt lat="28.5653420" lon="-17.8174520">
        <ele>1303.7</ele>
        <time>2020-11-17T12:38:53Z</time>
      </trkpt>
      <trkpt lat="28.5653420" lon="-17.8174520">
        <ele>1303.7</ele>
        <time>2020-11-17T12:38:54Z</time>
      </trkpt>
      <trkpt lat="28.5653870" lon="-17.8174380">
        <ele>1304.0</ele>
        <time>2020-11-17T12:38:55Z</time>
      </trkpt>
      <trkpt lat="28.5653870" lon="-17.8174380">
        <ele>1304.0</ele>
        <time>2020-11-17T12:38:56Z</time>
      </trkpt>
      <trkpt lat="28.5654270" lon="-17.8174470">
        <ele>1304.3</ele>
        <time>2020-11-17T12:38:57Z</time>
      </trkpt>
      <trkpt lat="28.5654270" lon="-17.8174470">
        <ele>1304.3</ele>
        <time>2020-11-17T12:38:58Z</time>
      </trkpt>
      <trkpt lat="28.5654600" lon="-17.8174500">
        <ele>1304.5</ele>
        <time>2020-11-17T12:38:59Z</time>
      </trkpt>
      <trkpt lat="28.5654750" lon="-17.8174530">
        <ele>1304.6</ele>
        <time>2020-11-17T12:39:00Z</time>
      </trkpt>
      <trkpt lat="28.5654750" lon="-17.8174530">
        <ele>1304.6</ele>
        <time>2020-11-17T12:39:01Z</time>
      </trkpt>
      <trkpt lat="28.5655100" lon="-17.8174570">
        <ele>1304.9</ele>
        <time>2020-11-17T12:39:02Z</time>
      </trkpt>
      <trkpt lat="28.5655100" lon="-17.8174570">
        <ele>1304.9</ele>
        <time>2020-11-17T12:39:03Z</time>
      </trkpt>
      <trkpt lat="28.5655520" lon="-17.8174770">
        <ele>1305.2</ele>
        <time>2020-11-17T12:39:04Z</time>
      </trkpt>
      <trkpt lat="28.5655520" lon="-17.8174770">
        <ele>1305.2</ele>
        <time>2020-11-17T12:39:05Z</time>
      </trkpt>
      <trkpt lat="28.5655900" lon="-17.8175070">
        <ele>1305.5</ele>
        <time>2020-11-17T12:39:06Z</time>
      </trkpt>
      <trkpt lat="28.5655900" lon="-17.8175070">
        <ele>1305.5</ele>
        <time>2020-11-17T12:39:07Z</time>
      </trkpt>
      <trkpt lat="28.5656270" lon="-17.8175180">
        <ele>1305.8</ele>
        <time>2020-11-17T12:39:08Z</time>
      </trkpt>
      <trkpt lat="28.5656270" lon="-17.8175180">
        <ele>1305.8</ele>
        <time>2020-11-17T12:39:09Z</time>
      </trkpt>
      <trkpt lat="28.5656570" lon="-17.8175300">
        <ele>1306.0</ele>
        <time>2020-11-17T12:39:10Z</time>
      </trkpt>
      <trkpt lat="28.5656700" lon="-17.8175330">
        <ele>1306.1</ele>
        <time>2020-11-17T12:39:11Z</time>
      </trkpt>
      <trkpt lat="28.5656700" lon="-17.8175330">
        <ele>1306.1</ele>
        <time>2020-11-17T12:39:12Z</time>
      </trkpt>
      <trkpt lat="28.5656920" lon="-17.8175420">
        <ele>1306.2</ele>
        <time>2020-11-17T12:39:13Z</time>
      </trkpt>
      <trkpt lat="28.5657030" lon="-17.8175400">
        <ele>1306.3</ele>
        <time>2020-11-17T12:39:14Z</time>
      </trkpt>
      <trkpt lat="28.5657030" lon="-17.8175400">
        <ele>1306.3</ele>
        <time>2020-11-17T12:39:15Z</time>
      </trkpt>
      <trkpt lat="28.5657320" lon="-17.8175370">
        <ele>1306.5</ele>
        <time>2020-11-17T12:39:16Z</time>
      </trkpt>
      <trkpt lat="28.5657320" lon="-17.8175370">
        <ele>1306.5</ele>
        <time>2020-11-17T12:39:17Z</time>
      </trkpt>
      <trkpt lat="28.5657630" lon="-17.8175370">
        <ele>1306.7</ele>
        <time>2020-11-17T12:39:18Z</time>
      </trkpt>
      <trkpt lat="28.5657630" lon="-17.8175370">
        <ele>1306.7</ele>
        <time>2020-11-17T12:39:19Z</time>
      </trkpt>
      <trkpt lat="28.5658000" lon="-17.8175470">
        <ele>1306.9</ele>
        <time>2020-11-17T12:39:20Z</time>
      </trkpt>
      <trkpt lat="28.5658000" lon="-17.8175470">
        <ele>1306.9</ele>
        <time>2020-11-17T12:39:21Z</time>
      </trkpt>
      <trkpt lat="28.5658370" lon="-17.8175450">
        <ele>1307.1</ele>
        <time>2020-11-17T12:39:22Z</time>
      </trkpt>
      <trkpt lat="28.5658370" lon="-17.8175450">
        <ele>1307.1</ele>
        <time>2020-11-17T12:39:23Z</time>
      </trkpt>
      <trkpt lat="28.5658650" lon="-17.8175400">
        <ele>1307.3</ele>
        <time>2020-11-17T12:39:24Z</time>
      </trkpt>
      <trkpt lat="28.5658650" lon="-17.8175400">
        <ele>1307.3</ele>
        <time>2020-11-17T12:39:25Z</time>
      </trkpt>
      <trkpt lat="28.5658850" lon="-17.8175320">
        <ele>1307.4</ele>
        <time>2020-11-17T12:39:26Z</time>
      </trkpt>
      <trkpt lat="28.5658950" lon="-17.8175300">
        <ele>1307.5</ele>
        <time>2020-11-17T12:39:27Z</time>
      </trkpt>
      <trkpt lat="28.5658950" lon="-17.8175300">
        <ele>1307.5</ele>
        <time>2020-11-17T12:39:28Z</time>
      </trkpt>
      <trkpt lat="28.5659270" lon="-17.8175270">
        <ele>1307.6</ele>
        <time>2020-11-17T12:39:29Z</time>
      </trkpt>
      <trkpt lat="28.5659270" lon="-17.8175270">
        <ele>1307.6</ele>
        <time>2020-11-17T12:39:30Z</time>
      </trkpt>
      <trkpt lat="28.5659570" lon="-17.8175350">
        <ele>1307.8</ele>
        <time>2020-11-17T12:39:31Z</time>
      </trkpt>
      <trkpt lat="28.5659700" lon="-17.8175400">
        <ele>1307.9</ele>
        <time>2020-11-17T12:39:32Z</time>
      </trkpt>
      <trkpt lat="28.5659700" lon="-17.8175400">
        <ele>1307.9</ele>
        <time>2020-11-17T12:39:33Z</time>
      </trkpt>
      <trkpt lat="28.5660080" lon="-17.8175480">
        <ele>1308.1</ele>
        <time>2020-11-17T12:39:34Z</time>
      </trkpt>
      <trkpt lat="28.5660080" lon="-17.8175480">
        <ele>1308.1</ele>
        <time>2020-11-17T12:39:35Z</time>
      </trkpt>
      <trkpt lat="28.5660380" lon="-17.8175480">
        <ele>1308.3</ele>
        <time>2020-11-17T12:39:36Z</time>
      </trkpt>
      <trkpt lat="28.5660380" lon="-17.8175480">
        <ele>1308.3</ele>
        <time>2020-11-17T12:39:37Z</time>
      </trkpt>
      <trkpt lat="28.5660630" lon="-17.8175430">
        <ele>1308.4</ele>
        <time>2020-11-17T12:39:38Z</time>
      </trkpt>
      <trkpt lat="28.5660830" lon="-17.8175450">
        <ele>1308.6</ele>
        <time>2020-11-17T12:39:39Z</time>
      </trkpt>
      <trkpt lat="28.5660830" lon="-17.8175450">
        <ele>1308.6</ele>
        <time>2020-11-17T12:39:40Z</time>
      </trkpt>
      <trkpt lat="28.5661150" lon="-17.8175330">
        <ele>1308.8</ele>
        <time>2020-11-17T12:39:41Z</time>
      </trkpt>
      <trkpt lat="28.5661300" lon="-17.8175280">
        <ele>1308.9</ele>
        <time>2020-11-17T12:39:42Z</time>
      </trkpt>
      <trkpt lat="28.5661300" lon="-17.8175280">
        <ele>1308.9</ele>
        <time>2020-11-17T12:39:43Z</time>
      </trkpt>
      <trkpt lat="28.5661530" lon="-17.8175220">
        <ele>1309.1</ele>
        <time>2020-11-17T12:39:44Z</time>
      </trkpt>
      <trkpt lat="28.5661530" lon="-17.8175220">
        <ele>1309.1</ele>
        <time>2020-11-17T12:39:45Z</time>
      </trkpt>
      <trkpt lat="28.5661750" lon="-17.8175120">
        <ele>1309.3</ele>
        <time>2020-11-17T12:39:46Z</time>
      </trkpt>
      <trkpt lat="28.5661750" lon="-17.8175120">
        <ele>1309.3</ele>
        <time>2020-11-17T12:39:47Z</time>
      </trkpt>
      <trkpt lat="28.5661980" lon="-17.8174920">
        <ele>1309.6</ele>
        <time>2020-11-17T12:39:48Z</time>
      </trkpt>
      <trkpt lat="28.5661980" lon="-17.8174920">
        <ele>1309.6</ele>
        <time>2020-11-17T12:39:49Z</time>
      </trkpt>
      <trkpt lat="28.5662070" lon="-17.8174780">
        <ele>1309.7</ele>
        <time>2020-11-17T12:39:50Z</time>
      </trkpt>
      <trkpt lat="28.5662070" lon="-17.8174780">
        <ele>1309.7</ele>
        <time>2020-11-17T12:39:51Z</time>
      </trkpt>
      <trkpt lat="28.5662300" lon="-17.8174700">
        <ele>1309.9</ele>
        <time>2020-11-17T12:39:52Z</time>
      </trkpt>
      <trkpt lat="28.5662300" lon="-17.8174700">
        <ele>1309.9</ele>
        <time>2020-11-17T12:39:53Z</time>
      </trkpt>
      <trkpt lat="28.5662570" lon="-17.8174770">
        <ele>1310.2</ele>
        <time>2020-11-17T12:39:54Z</time>
      </trkpt>
      <trkpt lat="28.5662570" lon="-17.8174770">
        <ele>1310.2</ele>
        <time>2020-11-17T12:39:55Z</time>
      </trkpt>
      <trkpt lat="28.5662870" lon="-17.8174780">
        <ele>1310.4</ele>
        <time>2020-11-17T12:39:56Z</time>
      </trkpt>
      <trkpt lat="28.5662870" lon="-17.8174780">
        <ele>1310.4</ele>
        <time>2020-11-17T12:39:57Z</time>
      </trkpt>
      <trkpt lat="28.5663150" lon="-17.8174850">
        <ele>1310.7</ele>
        <time>2020-11-17T12:39:58Z</time>
      </trkpt>
      <trkpt lat="28.5663300" lon="-17.8174850">
        <ele>1310.8</ele>
        <time>2020-11-17T12:39:59Z</time>
      </trkpt>
      <trkpt lat="28.5663380" lon="-17.8174830">
        <ele>1310.9</ele>
        <time>2020-11-17T12:40:00Z</time>
      </trkpt>
      <trkpt lat="28.5663380" lon="-17.8174830">
        <ele>1310.9</ele>
        <time>2020-11-17T12:40:01Z</time>
      </trkpt>
      <trkpt lat="28.5663680" lon="-17.8174820">
        <ele>1311.1</ele>
        <time>2020-11-17T12:40:02Z</time>
      </trkpt>
      <trkpt lat="28.5663680" lon="-17.8174820">
        <ele>1311.1</ele>
        <time>2020-11-17T12:40:03Z</time>
      </trkpt>
      <trkpt lat="28.5663950" lon="-17.8174770">
        <ele>1311.3</ele>
        <time>2020-11-17T12:40:04Z</time>
      </trkpt>
      <trkpt lat="28.5663950" lon="-17.8174770">
        <ele>1311.3</ele>
        <time>2020-11-17T12:40:05Z</time>
      </trkpt>
      <trkpt lat="28.5664350" lon="-17.8174730">
        <ele>1311.6</ele>
        <time>2020-11-17T12:40:06Z</time>
      </trkpt>
      <trkpt lat="28.5664350" lon="-17.8174730">
        <ele>1311.6</ele>
        <time>2020-11-17T12:40:07Z</time>
      </trkpt>
      <trkpt lat="28.5664750" lon="-17.8174800">
        <ele>1311.9</ele>
        <time>2020-11-17T12:40:08Z</time>
      </trkpt>
      <trkpt lat="28.5664750" lon="-17.8174800">
        <ele>1311.9</ele>
        <time>2020-11-17T12:40:09Z</time>
      </trkpt>
      <trkpt lat="28.5665080" lon="-17.8174820">
        <ele>1312.2</ele>
        <time>2020-11-17T12:40:10Z</time>
      </trkpt>
      <trkpt lat="28.5665230" lon="-17.8174800">
        <ele>1312.3</ele>
        <time>2020-11-17T12:40:11Z</time>
      </trkpt>
      <trkpt lat="28.5665320" lon="-17.8174770">
        <ele>1312.4</ele>
        <time>2020-11-17T12:40:12Z</time>
      </trkpt>
      <trkpt lat="28.5665320" lon="-17.8174770">
        <ele>1312.4</ele>
        <time>2020-11-17T12:40:13Z</time>
      </trkpt>
      <trkpt lat="28.5665630" lon="-17.8174830">
        <ele>1312.6</ele>
        <time>2020-11-17T12:40:14Z</time>
      </trkpt>
      <trkpt lat="28.5665780" lon="-17.8174920">
        <ele>1312.7</ele>
        <time>2020-11-17T12:40:15Z</time>
      </trkpt>
      <trkpt lat="28.5665930" lon="-17.8175020">
        <ele>1312.9</ele>
        <time>2020-11-17T12:40:16Z</time>
      </trkpt>
      <trkpt lat="28.5665930" lon="-17.8175020">
        <ele>1312.9</ele>
        <time>2020-11-17T12:40:17Z</time>
      </trkpt>
      <trkpt lat="28.5666280" lon="-17.8175230">
        <ele>1313.2</ele>
        <time>2020-11-17T12:40:18Z</time>
      </trkpt>
      <trkpt lat="28.5666280" lon="-17.8175230">
        <ele>1313.2</ele>
        <time>2020-11-17T12:40:19Z</time>
      </trkpt>
      <trkpt lat="28.5666770" lon="-17.8175270">
        <ele>1313.5</ele>
        <time>2020-11-17T12:40:20Z</time>
      </trkpt>
      <trkpt lat="28.5666770" lon="-17.8175270">
        <ele>1313.5</ele>
        <time>2020-11-17T12:40:21Z</time>
      </trkpt>
      <trkpt lat="28.5667150" lon="-17.8175080">
        <ele>1313.8</ele>
        <time>2020-11-17T12:40:22Z</time>
      </trkpt>
      <trkpt lat="28.5667150" lon="-17.8175080">
        <ele>1313.8</ele>
        <time>2020-11-17T12:40:23Z</time>
      </trkpt>
      <trkpt lat="28.5667470" lon="-17.8175020">
        <ele>1314.1</ele>
        <time>2020-11-17T12:40:24Z</time>
      </trkpt>
      <trkpt lat="28.5667470" lon="-17.8175020">
        <ele>1314.1</ele>
        <time>2020-11-17T12:40:25Z</time>
      </trkpt>
      <trkpt lat="28.5667880" lon="-17.8175120">
        <ele>1314.4</ele>
        <time>2020-11-17T12:40:26Z</time>
      </trkpt>
      <trkpt lat="28.5668070" lon="-17.8175100">
        <ele>1314.5</ele>
        <time>2020-11-17T12:40:27Z</time>
      </trkpt>
      <trkpt lat="28.5668220" lon="-17.8175080">
        <ele>1314.6</ele>
        <time>2020-11-17T12:40:28Z</time>
      </trkpt>
      <trkpt lat="28.5668220" lon="-17.8175080">
        <ele>1314.6</ele>
        <time>2020-11-17T12:40:29Z</time>
      </trkpt>
      <trkpt lat="28.5668470" lon="-17.8175080">
        <ele>1314.8</ele>
        <time>2020-11-17T12:40:30Z</time>
      </trkpt>
      <trkpt lat="28.5668470" lon="-17.8175080">
        <ele>1314.8</ele>
        <time>2020-11-17T12:40:31Z</time>
      </trkpt>
      <trkpt lat="28.5668780" lon="-17.8175130">
        <ele>1315.0</ele>
        <time>2020-11-17T12:40:32Z</time>
      </trkpt>
      <trkpt lat="28.5668970" lon="-17.8175120">
        <ele>1315.1</ele>
        <time>2020-11-17T12:40:33Z</time>
      </trkpt>
      <trkpt lat="28.5668970" lon="-17.8175120">
        <ele>1315.1</ele>
        <time>2020-11-17T12:40:34Z</time>
      </trkpt>
      <trkpt lat="28.5669300" lon="-17.8175130">
        <ele>1315.4</ele>
        <time>2020-11-17T12:40:35Z</time>
      </trkpt>
      <trkpt lat="28.5669570" lon="-17.8175230">
        <ele>1315.6</ele>
        <time>2020-11-17T12:40:36Z</time>
      </trkpt>
      <trkpt lat="28.5669570" lon="-17.8175230">
        <ele>1315.6</ele>
        <time>2020-11-17T12:40:37Z</time>
      </trkpt>
      <trkpt lat="28.5669950" lon="-17.8175350">
        <ele>1315.8</ele>
        <time>2020-11-17T12:40:38Z</time>
      </trkpt>
      <trkpt lat="28.5669950" lon="-17.8175350">
        <ele>1315.8</ele>
        <time>2020-11-17T12:40:39Z</time>
      </trkpt>
      <trkpt lat="28.5670220" lon="-17.8175400">
        <ele>1316.0</ele>
        <time>2020-11-17T12:40:40Z</time>
      </trkpt>
      <trkpt lat="28.5670380" lon="-17.8175430">
        <ele>1316.1</ele>
        <time>2020-11-17T12:40:41Z</time>
      </trkpt>
      <trkpt lat="28.5670500" lon="-17.8175470">
        <ele>1316.2</ele>
        <time>2020-11-17T12:40:42Z</time>
      </trkpt>
      <trkpt lat="28.5670500" lon="-17.8175470">
        <ele>1316.2</ele>
        <time>2020-11-17T12:40:43Z</time>
      </trkpt>
      <trkpt lat="28.5670820" lon="-17.8175600">
        <ele>1316.5</ele>
        <time>2020-11-17T12:40:44Z</time>
      </trkpt>
      <trkpt lat="28.5670980" lon="-17.8175620">
        <ele>1316.6</ele>
        <time>2020-11-17T12:40:45Z</time>
      </trkpt>
      <trkpt lat="28.5670980" lon="-17.8175620">
        <ele>1316.6</ele>
        <time>2020-11-17T12:40:46Z</time>
      </trkpt>
      <trkpt lat="28.5671320" lon="-17.8175680">
        <ele>1316.9</ele>
        <time>2020-11-17T12:40:47Z</time>
      </trkpt>
      <trkpt lat="28.5671480" lon="-17.8175720">
        <ele>1317.0</ele>
        <time>2020-11-17T12:40:48Z</time>
      </trkpt>
      <trkpt lat="28.5671670" lon="-17.8175720">
        <ele>1317.1</ele>
        <time>2020-11-17T12:40:49Z</time>
      </trkpt>
      <trkpt lat="28.5671670" lon="-17.8175720">
        <ele>1317.1</ele>
        <time>2020-11-17T12:40:50Z</time>
      </trkpt>
      <trkpt lat="28.5672270" lon="-17.8175700">
        <ele>1317.6</ele>
        <time>2020-11-17T12:40:51Z</time>
      </trkpt>
      <trkpt lat="28.5672520" lon="-17.8175670">
        <ele>1317.9</ele>
        <time>2020-11-17T12:40:52Z</time>
      </trkpt>
      <trkpt lat="28.5672520" lon="-17.8175670">
        <ele>1317.9</ele>
        <time>2020-11-17T12:40:53Z</time>
      </trkpt>
      <trkpt lat="28.5672920" lon="-17.8175720">
        <ele>1318.2</ele>
        <time>2020-11-17T12:40:54Z</time>
      </trkpt>
      <trkpt lat="28.5672920" lon="-17.8175720">
        <ele>1318.2</ele>
        <time>2020-11-17T12:40:55Z</time>
      </trkpt>
      <trkpt lat="28.5673320" lon="-17.8175600">
        <ele>1318.6</ele>
        <time>2020-11-17T12:40:56Z</time>
      </trkpt>
      <trkpt lat="28.5673320" lon="-17.8175600">
        <ele>1318.6</ele>
        <time>2020-11-17T12:40:57Z</time>
      </trkpt>
      <trkpt lat="28.5673550" lon="-17.8175520">
        <ele>1318.8</ele>
        <time>2020-11-17T12:40:58Z</time>
      </trkpt>
      <trkpt lat="28.5673670" lon="-17.8175450">
        <ele>1318.9</ele>
        <time>2020-11-17T12:40:59Z</time>
      </trkpt>
      <trkpt lat="28.5673830" lon="-17.8175400">
        <ele>1319.1</ele>
        <time>2020-11-17T12:41:00Z</time>
      </trkpt>
      <trkpt lat="28.5673830" lon="-17.8175400">
        <ele>1319.1</ele>
        <time>2020-11-17T12:41:01Z</time>
      </trkpt>
      <trkpt lat="28.5674130" lon="-17.8175420">
        <ele>1319.3</ele>
        <time>2020-11-17T12:41:02Z</time>
      </trkpt>
      <trkpt lat="28.5674130" lon="-17.8175420">
        <ele>1319.3</ele>
        <time>2020-11-17T12:41:03Z</time>
      </trkpt>
      <trkpt lat="28.5674450" lon="-17.8175470">
        <ele>1319.6</ele>
        <time>2020-11-17T12:41:04Z</time>
      </trkpt>
      <trkpt lat="28.5674600" lon="-17.8175480">
        <ele>1319.7</ele>
        <time>2020-11-17T12:41:05Z</time>
      </trkpt>
      <trkpt lat="28.5674720" lon="-17.8175500">
        <ele>1319.8</ele>
        <time>2020-11-17T12:41:06Z</time>
      </trkpt>
      <trkpt lat="28.5674720" lon="-17.8175500">
        <ele>1319.8</ele>
        <time>2020-11-17T12:41:07Z</time>
      </trkpt>
      <trkpt lat="28.5674920" lon="-17.8175550">
        <ele>1320.0</ele>
        <time>2020-11-17T12:41:08Z</time>
      </trkpt>
      <trkpt lat="28.5674920" lon="-17.8175550">
        <ele>1320.0</ele>
        <time>2020-11-17T12:41:09Z</time>
      </trkpt>
      <trkpt lat="28.5675220" lon="-17.8175720">
        <ele>1320.2</ele>
        <time>2020-11-17T12:41:10Z</time>
      </trkpt>
      <trkpt lat="28.5675320" lon="-17.8175770">
        <ele>1320.3</ele>
        <time>2020-11-17T12:41:11Z</time>
      </trkpt>
      <trkpt lat="28.5675320" lon="-17.8175770">
        <ele>1320.3</ele>
        <time>2020-11-17T12:41:12Z</time>
      </trkpt>
      <trkpt lat="28.5675580" lon="-17.8175900">
        <ele>1320.5</ele>
        <time>2020-11-17T12:41:13Z</time>
      </trkpt>
      <trkpt lat="28.5675580" lon="-17.8175900">
        <ele>1320.5</ele>
        <time>2020-11-17T12:41:14Z</time>
      </trkpt>
      <trkpt lat="28.5675920" lon="-17.8176050">
        <ele>1320.7</ele>
        <time>2020-11-17T12:41:15Z</time>
      </trkpt>
      <trkpt lat="28.5676100" lon="-17.8176130">
        <ele>1320.9</ele>
        <time>2020-11-17T12:41:16Z</time>
      </trkpt>
      <trkpt lat="28.5676100" lon="-17.8176130">
        <ele>1320.9</ele>
        <time>2020-11-17T12:41:17Z</time>
      </trkpt>
      <trkpt lat="28.5676470" lon="-17.8176250">
        <ele>1321.1</ele>
        <time>2020-11-17T12:41:18Z</time>
      </trkpt>
      <trkpt lat="28.5676600" lon="-17.8176280">
        <ele>1321.2</ele>
        <time>2020-11-17T12:41:19Z</time>
      </trkpt>
      <trkpt lat="28.5676600" lon="-17.8176280">
        <ele>1321.2</ele>
        <time>2020-11-17T12:41:20Z</time>
      </trkpt>
      <trkpt lat="28.5677030" lon="-17.8176170">
        <ele>1321.5</ele>
        <time>2020-11-17T12:41:21Z</time>
      </trkpt>
      <trkpt lat="28.5677030" lon="-17.8176170">
        <ele>1321.5</ele>
        <time>2020-11-17T12:41:22Z</time>
      </trkpt>
      <trkpt lat="28.5677420" lon="-17.8176020">
        <ele>1321.7</ele>
        <time>2020-11-17T12:41:23Z</time>
      </trkpt>
      <trkpt lat="28.5677630" lon="-17.8175900">
        <ele>1321.9</ele>
        <time>2020-11-17T12:41:24Z</time>
      </trkpt>
      <trkpt lat="28.5677630" lon="-17.8175900">
        <ele>1321.9</ele>
        <time>2020-11-17T12:41:25Z</time>
      </trkpt>
      <trkpt lat="28.5678050" lon="-17.8175880">
        <ele>1322.2</ele>
        <time>2020-11-17T12:41:26Z</time>
      </trkpt>
      <trkpt lat="28.5678050" lon="-17.8175880">
        <ele>1322.2</ele>
        <time>2020-11-17T12:41:27Z</time>
      </trkpt>
      <trkpt lat="28.5678370" lon="-17.8175900">
        <ele>1322.4</ele>
        <time>2020-11-17T12:41:28Z</time>
      </trkpt>
      <trkpt lat="28.5678370" lon="-17.8175900">
        <ele>1322.4</ele>
        <time>2020-11-17T12:41:29Z</time>
      </trkpt>
      <trkpt lat="28.5678670" lon="-17.8175900">
        <ele>1322.6</ele>
        <time>2020-11-17T12:41:30Z</time>
      </trkpt>
      <trkpt lat="28.5678670" lon="-17.8175900">
        <ele>1322.6</ele>
        <time>2020-11-17T12:41:31Z</time>
      </trkpt>
      <trkpt lat="28.5678970" lon="-17.8175820">
        <ele>1322.9</ele>
        <time>2020-11-17T12:41:32Z</time>
      </trkpt>
      <trkpt lat="28.5678970" lon="-17.8175820">
        <ele>1322.9</ele>
        <time>2020-11-17T12:41:33Z</time>
      </trkpt>
      <trkpt lat="28.5679220" lon="-17.8175780">
        <ele>1323.0</ele>
        <time>2020-11-17T12:41:34Z</time>
      </trkpt>
      <trkpt lat="28.5679280" lon="-17.8175680">
        <ele>1323.1</ele>
        <time>2020-11-17T12:41:35Z</time>
      </trkpt>
      <trkpt lat="28.5679280" lon="-17.8175680">
        <ele>1323.1</ele>
        <time>2020-11-17T12:41:36Z</time>
      </trkpt>
      <trkpt lat="28.5679480" lon="-17.8175500">
        <ele>1323.2</ele>
        <time>2020-11-17T12:41:37Z</time>
      </trkpt>
      <trkpt lat="28.5679480" lon="-17.8175500">
        <ele>1323.2</ele>
        <time>2020-11-17T12:41:38Z</time>
      </trkpt>
      <trkpt lat="28.5679750" lon="-17.8175380">
        <ele>1323.4</ele>
        <time>2020-11-17T12:41:39Z</time>
      </trkpt>
      <trkpt lat="28.5679880" lon="-17.8175270">
        <ele>1323.5</ele>
        <time>2020-11-17T12:41:40Z</time>
      </trkpt>
      <trkpt lat="28.5679880" lon="-17.8175270">
        <ele>1323.5</ele>
        <time>2020-11-17T12:41:41Z</time>
      </trkpt>
      <trkpt lat="28.5680220" lon="-17.8175100">
        <ele>1323.7</ele>
        <time>2020-11-17T12:41:42Z</time>
      </trkpt>
      <trkpt lat="28.5680220" lon="-17.8175100">
        <ele>1323.7</ele>
        <time>2020-11-17T12:41:43Z</time>
      </trkpt>
      <trkpt lat="28.5680570" lon="-17.8174870">
        <ele>1323.8</ele>
        <time>2020-11-17T12:41:44Z</time>
      </trkpt>
      <trkpt lat="28.5680570" lon="-17.8174870">
        <ele>1323.8</ele>
        <time>2020-11-17T12:41:45Z</time>
      </trkpt>
      <trkpt lat="28.5681030" lon="-17.8174720">
        <ele>1324.0</ele>
        <time>2020-11-17T12:41:46Z</time>
      </trkpt>
      <trkpt lat="28.5681030" lon="-17.8174720">
        <ele>1324.0</ele>
        <time>2020-11-17T12:41:47Z</time>
      </trkpt>
      <trkpt lat="28.5681420" lon="-17.8174450">
        <ele>1324.2</ele>
        <time>2020-11-17T12:41:48Z</time>
      </trkpt>
      <trkpt lat="28.5681420" lon="-17.8174450">
        <ele>1324.2</ele>
        <time>2020-11-17T12:41:49Z</time>
      </trkpt>
      <trkpt lat="28.5681750" lon="-17.8174120">
        <ele>1324.3</ele>
        <time>2020-11-17T12:41:50Z</time>
      </trkpt>
      <trkpt lat="28.5682020" lon="-17.8173900">
        <ele>1324.4</ele>
        <time>2020-11-17T12:41:51Z</time>
      </trkpt>
      <trkpt lat="28.5682020" lon="-17.8173900">
        <ele>1324.4</ele>
        <time>2020-11-17T12:41:52Z</time>
      </trkpt>
      <trkpt lat="28.5682770" lon="-17.8173530">
        <ele>1324.6</ele>
        <time>2020-11-17T12:41:53Z</time>
      </trkpt>
      <trkpt lat="28.5683070" lon="-17.8173400">
        <ele>1324.6</ele>
        <time>2020-11-17T12:41:54Z</time>
      </trkpt>
      <trkpt lat="28.5683070" lon="-17.8173400">
        <ele>1324.6</ele>
        <time>2020-11-17T12:41:55Z</time>
      </trkpt>
      <trkpt lat="28.5683620" lon="-17.8173080">
        <ele>1324.7</ele>
        <time>2020-11-17T12:41:56Z</time>
      </trkpt>
      <trkpt lat="28.5683920" lon="-17.8173000">
        <ele>1324.8</ele>
        <time>2020-11-17T12:41:57Z</time>
      </trkpt>
      <trkpt lat="28.5683920" lon="-17.8173000">
        <ele>1324.8</ele>
        <time>2020-11-17T12:41:58Z</time>
      </trkpt>
      <trkpt lat="28.5684480" lon="-17.8172850">
        <ele>1324.8</ele>
        <time>2020-11-17T12:41:59Z</time>
      </trkpt>
      <trkpt lat="28.5684770" lon="-17.8172830">
        <ele>1324.8</ele>
        <time>2020-11-17T12:42:00Z</time>
      </trkpt>
      <trkpt lat="28.5684770" lon="-17.8172830">
        <ele>1324.8</ele>
        <time>2020-11-17T12:42:01Z</time>
      </trkpt>
      <trkpt lat="28.5685280" lon="-17.8172820">
        <ele>1324.9</ele>
        <time>2020-11-17T12:42:02Z</time>
      </trkpt>
      <trkpt lat="28.5685530" lon="-17.8172770">
        <ele>1324.9</ele>
        <time>2020-11-17T12:42:03Z</time>
      </trkpt>
      <trkpt lat="28.5685770" lon="-17.8172720">
        <ele>1324.9</ele>
        <time>2020-11-17T12:42:04Z</time>
      </trkpt>
      <trkpt lat="28.5685770" lon="-17.8172720">
        <ele>1324.9</ele>
        <time>2020-11-17T12:42:05Z</time>
      </trkpt>
      <trkpt lat="28.5686230" lon="-17.8172630">
        <ele>1325.0</ele>
        <time>2020-11-17T12:42:06Z</time>
      </trkpt>
      <trkpt lat="28.5686230" lon="-17.8172630">
        <ele>1325.0</ele>
        <time>2020-11-17T12:42:07Z</time>
      </trkpt>
      <trkpt lat="28.5686730" lon="-17.8172600">
        <ele>1325.0</ele>
        <time>2020-11-17T12:42:08Z</time>
      </trkpt>
      <trkpt lat="28.5686950" lon="-17.8172550">
        <ele>1325.0</ele>
        <time>2020-11-17T12:42:09Z</time>
      </trkpt>
      <trkpt lat="28.5686950" lon="-17.8172550">
        <ele>1325.0</ele>
        <time>2020-11-17T12:42:10Z</time>
      </trkpt>
      <trkpt lat="28.5687450" lon="-17.8172500">
        <ele>1325.1</ele>
        <time>2020-11-17T12:42:11Z</time>
      </trkpt>
      <trkpt lat="28.5687450" lon="-17.8172500">
        <ele>1325.1</ele>
        <time>2020-11-17T12:42:12Z</time>
      </trkpt>
      <trkpt lat="28.5687980" lon="-17.8172470">
        <ele>1325.2</ele>
        <time>2020-11-17T12:42:13Z</time>
      </trkpt>
      <trkpt lat="28.5687980" lon="-17.8172470">
        <ele>1325.2</ele>
        <time>2020-11-17T12:42:14Z</time>
      </trkpt>
      <trkpt lat="28.5688500" lon="-17.8172470">
        <ele>1325.2</ele>
        <time>2020-11-17T12:42:15Z</time>
      </trkpt>
      <trkpt lat="28.5688800" lon="-17.8172470">
        <ele>1325.2</ele>
        <time>2020-11-17T12:42:16Z</time>
      </trkpt>
      <trkpt lat="28.5688800" lon="-17.8172470">
        <ele>1325.2</ele>
        <time>2020-11-17T12:42:17Z</time>
      </trkpt>
      <trkpt lat="28.5689420" lon="-17.8172370">
        <ele>1325.3</ele>
        <time>2020-11-17T12:42:18Z</time>
      </trkpt>
      <trkpt lat="28.5689420" lon="-17.8172370">
        <ele>1325.3</ele>
        <time>2020-11-17T12:42:19Z</time>
      </trkpt>
      <trkpt lat="28.5690000" lon="-17.8172250">
        <ele>1325.3</ele>
        <time>2020-11-17T12:42:20Z</time>
      </trkpt>
      <trkpt lat="28.5690370" lon="-17.8172170">
        <ele>1325.4</ele>
        <time>2020-11-17T12:42:21Z</time>
      </trkpt>
      <trkpt lat="28.5690370" lon="-17.8172170">
        <ele>1325.4</ele>
        <time>2020-11-17T12:42:22Z</time>
      </trkpt>
      <trkpt lat="28.5691300" lon="-17.8171900">
        <ele>1325.5</ele>
        <time>2020-11-17T12:42:23Z</time>
      </trkpt>
      <trkpt lat="28.5691300" lon="-17.8171900">
        <ele>1325.5</ele>
        <time>2020-11-17T12:42:24Z</time>
      </trkpt>
      <trkpt lat="28.5692230" lon="-17.8171480">
        <ele>1325.6</ele>
        <time>2020-11-17T12:42:25Z</time>
      </trkpt>
      <trkpt lat="28.5692230" lon="-17.8171480">
        <ele>1325.6</ele>
        <time>2020-11-17T12:42:26Z</time>
      </trkpt>
      <trkpt lat="28.5693100" lon="-17.8171200">
        <ele>1325.7</ele>
        <time>2020-11-17T12:42:27Z</time>
      </trkpt>
      <trkpt lat="28.5693100" lon="-17.8171200">
        <ele>1325.7</ele>
        <time>2020-11-17T12:42:28Z</time>
      </trkpt>
      <trkpt lat="28.5693920" lon="-17.8170820">
        <ele>1325.9</ele>
        <time>2020-11-17T12:42:29Z</time>
      </trkpt>
      <trkpt lat="28.5694280" lon="-17.8170630">
        <ele>1326.0</ele>
        <time>2020-11-17T12:42:30Z</time>
      </trkpt>
      <trkpt lat="28.5694280" lon="-17.8170630">
        <ele>1326.0</ele>
        <time>2020-11-17T12:42:31Z</time>
      </trkpt>
      <trkpt lat="28.5695020" lon="-17.8170330">
        <ele>1326.2</ele>
        <time>2020-11-17T12:42:32Z</time>
      </trkpt>
      <trkpt lat="28.5695020" lon="-17.8170330">
        <ele>1326.2</ele>
        <time>2020-11-17T12:42:33Z</time>
      </trkpt>
      <trkpt lat="28.5695620" lon="-17.8170070">
        <ele>1326.3</ele>
        <time>2020-11-17T12:42:34Z</time>
      </trkpt>
      <trkpt lat="28.5695620" lon="-17.8170070">
        <ele>1326.3</ele>
        <time>2020-11-17T12:42:35Z</time>
      </trkpt>
      <trkpt lat="28.5696300" lon="-17.8169820">
        <ele>1326.4</ele>
        <time>2020-11-17T12:42:36Z</time>
      </trkpt>
      <trkpt lat="28.5696650" lon="-17.8169730">
        <ele>1326.5</ele>
        <time>2020-11-17T12:42:37Z</time>
      </trkpt>
      <trkpt lat="28.5696650" lon="-17.8169730">
        <ele>1326.5</ele>
        <time>2020-11-17T12:42:38Z</time>
      </trkpt>
      <trkpt lat="28.5697450" lon="-17.8169650">
        <ele>1326.6</ele>
        <time>2020-11-17T12:42:39Z</time>
      </trkpt>
      <trkpt lat="28.5697450" lon="-17.8169650">
        <ele>1326.6</ele>
        <time>2020-11-17T12:42:40Z</time>
      </trkpt>
      <trkpt lat="28.5698270" lon="-17.8169720">
        <ele>1326.7</ele>
        <time>2020-11-17T12:42:41Z</time>
      </trkpt>
      <trkpt lat="28.5698600" lon="-17.8169750">
        <ele>1326.8</ele>
        <time>2020-11-17T12:42:42Z</time>
      </trkpt>
      <trkpt lat="28.5698600" lon="-17.8169750">
        <ele>1326.8</ele>
        <time>2020-11-17T12:42:43Z</time>
      </trkpt>
      <trkpt lat="28.5699220" lon="-17.8169830">
        <ele>1326.9</ele>
        <time>2020-11-17T12:42:44Z</time>
      </trkpt>
      <trkpt lat="28.5699620" lon="-17.8169880">
        <ele>1326.9</ele>
        <time>2020-11-17T12:42:45Z</time>
      </trkpt>
      <trkpt lat="28.5699970" lon="-17.8169950">
        <ele>1326.9</ele>
        <time>2020-11-17T12:42:46Z</time>
      </trkpt>
      <trkpt lat="28.5699970" lon="-17.8169950">
        <ele>1326.9</ele>
        <time>2020-11-17T12:42:47Z</time>
      </trkpt>
      <trkpt lat="28.5700700" lon="-17.8169920">
        <ele>1326.9</ele>
        <time>2020-11-17T12:42:48Z</time>
      </trkpt>
      <trkpt lat="28.5700700" lon="-17.8169920">
        <ele>1326.9</ele>
        <time>2020-11-17T12:42:49Z</time>
      </trkpt>
      <trkpt lat="28.5701400" lon="-17.8170020">
        <ele>1326.9</ele>
        <time>2020-11-17T12:42:50Z</time>
      </trkpt>
      <trkpt lat="28.5701750" lon="-17.8170180">
        <ele>1326.8</ele>
        <time>2020-11-17T12:42:51Z</time>
      </trkpt>
      <trkpt lat="28.5702080" lon="-17.8170350">
        <ele>1326.8</ele>
        <time>2020-11-17T12:42:52Z</time>
      </trkpt>
      <trkpt lat="28.5702080" lon="-17.8170350">
        <ele>1326.8</ele>
        <time>2020-11-17T12:42:53Z</time>
      </trkpt>
      <trkpt lat="28.5702970" lon="-17.8170580">
        <ele>1326.7</ele>
        <time>2020-11-17T12:42:54Z</time>
      </trkpt>
      <trkpt lat="28.5702970" lon="-17.8170580">
        <ele>1326.7</ele>
        <time>2020-11-17T12:42:55Z</time>
      </trkpt>
      <trkpt lat="28.5703950" lon="-17.8170500">
        <ele>1326.8</ele>
        <time>2020-11-17T12:42:56Z</time>
      </trkpt>
      <trkpt lat="28.5704320" lon="-17.8170300">
        <ele>1326.9</ele>
        <time>2020-11-17T12:42:57Z</time>
      </trkpt>
      <trkpt lat="28.5704320" lon="-17.8170300">
        <ele>1326.9</ele>
        <time>2020-11-17T12:42:58Z</time>
      </trkpt>
      <trkpt lat="28.5704880" lon="-17.8169730">
        <ele>1327.0</ele>
        <time>2020-11-17T12:42:59Z</time>
      </trkpt>
      <trkpt lat="28.5704880" lon="-17.8169730">
        <ele>1327.0</ele>
        <time>2020-11-17T12:43:00Z</time>
      </trkpt>
      <trkpt lat="28.5705350" lon="-17.8169320">
        <ele>1327.2</ele>
        <time>2020-11-17T12:43:01Z</time>
      </trkpt>
      <trkpt lat="28.5705350" lon="-17.8169320">
        <ele>1327.2</ele>
        <time>2020-11-17T12:43:02Z</time>
      </trkpt>
      <trkpt lat="28.5705870" lon="-17.8168770">
        <ele>1327.5</ele>
        <time>2020-11-17T12:43:03Z</time>
      </trkpt>
      <trkpt lat="28.5705870" lon="-17.8168770">
        <ele>1327.5</ele>
        <time>2020-11-17T12:43:04Z</time>
      </trkpt>
      <trkpt lat="28.5706480" lon="-17.8168350">
        <ele>1327.8</ele>
        <time>2020-11-17T12:43:05Z</time>
      </trkpt>
      <trkpt lat="28.5706480" lon="-17.8168350">
        <ele>1327.8</ele>
        <time>2020-11-17T12:43:06Z</time>
      </trkpt>
      <trkpt lat="28.5707050" lon="-17.8168080">
        <ele>1328.1</ele>
        <time>2020-11-17T12:43:07Z</time>
      </trkpt>
      <trkpt lat="28.5707050" lon="-17.8168080">
        <ele>1328.1</ele>
        <time>2020-11-17T12:43:08Z</time>
      </trkpt>
      <trkpt lat="28.5707650" lon="-17.8167800">
        <ele>1328.4</ele>
        <time>2020-11-17T12:43:09Z</time>
      </trkpt>
      <trkpt lat="28.5707650" lon="-17.8167800">
        <ele>1328.4</ele>
        <time>2020-11-17T12:43:10Z</time>
      </trkpt>
      <trkpt lat="28.5708220" lon="-17.8167550">
        <ele>1328.7</ele>
        <time>2020-11-17T12:43:11Z</time>
      </trkpt>
      <trkpt lat="28.5708220" lon="-17.8167550">
        <ele>1328.7</ele>
        <time>2020-11-17T12:43:12Z</time>
      </trkpt>
      <trkpt lat="28.5708870" lon="-17.8167370">
        <ele>1328.8</ele>
        <time>2020-11-17T12:43:13Z</time>
      </trkpt>
      <trkpt lat="28.5708870" lon="-17.8167370">
        <ele>1328.8</ele>
        <time>2020-11-17T12:43:14Z</time>
      </trkpt>
      <trkpt lat="28.5709580" lon="-17.8167220">
        <ele>1328.8</ele>
        <time>2020-11-17T12:43:15Z</time>
      </trkpt>
      <trkpt lat="28.5709950" lon="-17.8167100">
        <ele>1328.8</ele>
        <time>2020-11-17T12:43:16Z</time>
      </trkpt>
      <trkpt lat="28.5709950" lon="-17.8167100">
        <ele>1328.8</ele>
        <time>2020-11-17T12:43:17Z</time>
      </trkpt>
      <trkpt lat="28.5710800" lon="-17.8166930">
        <ele>1328.6</ele>
        <time>2020-11-17T12:43:18Z</time>
      </trkpt>
      <trkpt lat="28.5710800" lon="-17.8166930">
        <ele>1328.6</ele>
        <time>2020-11-17T12:43:19Z</time>
      </trkpt>
      <trkpt lat="28.5711770" lon="-17.8166920">
        <ele>1328.4</ele>
        <time>2020-11-17T12:43:20Z</time>
      </trkpt>
      <trkpt lat="28.5711770" lon="-17.8166920">
        <ele>1328.4</ele>
        <time>2020-11-17T12:43:21Z</time>
      </trkpt>
      <trkpt lat="28.5712670" lon="-17.8167030">
        <ele>1328.1</ele>
        <time>2020-11-17T12:43:22Z</time>
      </trkpt>
      <trkpt lat="28.5713080" lon="-17.8167080">
        <ele>1328.0</ele>
        <time>2020-11-17T12:43:23Z</time>
      </trkpt>
      <trkpt lat="28.5713470" lon="-17.8167030">
        <ele>1327.9</ele>
        <time>2020-11-17T12:43:24Z</time>
      </trkpt>
      <trkpt lat="28.5713900" lon="-17.8166880">
        <ele>1327.8</ele>
        <time>2020-11-17T12:43:25Z</time>
      </trkpt>
      <trkpt lat="28.5713900" lon="-17.8166880">
        <ele>1327.8</ele>
        <time>2020-11-17T12:43:26Z</time>
      </trkpt>
      <trkpt lat="28.5714600" lon="-17.8166570">
        <ele>1327.7</ele>
        <time>2020-11-17T12:43:27Z</time>
      </trkpt>
      <trkpt lat="28.5715020" lon="-17.8166370">
        <ele>1327.6</ele>
        <time>2020-11-17T12:43:28Z</time>
      </trkpt>
      <trkpt lat="28.5715020" lon="-17.8166370">
        <ele>1327.6</ele>
        <time>2020-11-17T12:43:29Z</time>
      </trkpt>
      <trkpt lat="28.5715750" lon="-17.8166000">
        <ele>1327.6</ele>
        <time>2020-11-17T12:43:30Z</time>
      </trkpt>
      <trkpt lat="28.5715750" lon="-17.8166000">
        <ele>1327.6</ele>
        <time>2020-11-17T12:43:31Z</time>
      </trkpt>
      <trkpt lat="28.5716530" lon="-17.8165770">
        <ele>1327.6</ele>
        <time>2020-11-17T12:43:32Z</time>
      </trkpt>
      <trkpt lat="28.5716530" lon="-17.8165770">
        <ele>1327.6</ele>
        <time>2020-11-17T12:43:33Z</time>
      </trkpt>
      <trkpt lat="28.5717030" lon="-17.8165650">
        <ele>1327.7</ele>
        <time>2020-11-17T12:43:34Z</time>
      </trkpt>
      <trkpt lat="28.5717030" lon="-17.8165650">
        <ele>1327.7</ele>
        <time>2020-11-17T12:43:35Z</time>
      </trkpt>
      <trkpt lat="28.5717670" lon="-17.8165420">
        <ele>1327.8</ele>
        <time>2020-11-17T12:43:36Z</time>
      </trkpt>
      <trkpt lat="28.5717670" lon="-17.8165420">
        <ele>1327.8</ele>
        <time>2020-11-17T12:43:37Z</time>
      </trkpt>
      <trkpt lat="28.5718370" lon="-17.8165170">
        <ele>1328.0</ele>
        <time>2020-11-17T12:43:38Z</time>
      </trkpt>
      <trkpt lat="28.5718720" lon="-17.8165000">
        <ele>1328.0</ele>
        <time>2020-11-17T12:43:39Z</time>
      </trkpt>
      <trkpt lat="28.5718720" lon="-17.8165000">
        <ele>1328.0</ele>
        <time>2020-11-17T12:43:40Z</time>
      </trkpt>
      <trkpt lat="28.5719320" lon="-17.8164700">
        <ele>1328.1</ele>
        <time>2020-11-17T12:43:41Z</time>
      </trkpt>
      <trkpt lat="28.5719320" lon="-17.8164700">
        <ele>1328.1</ele>
        <time>2020-11-17T12:43:42Z</time>
      </trkpt>
      <trkpt lat="28.5719580" lon="-17.8164180">
        <ele>1328.2</ele>
        <time>2020-11-17T12:43:43Z</time>
      </trkpt>
      <trkpt lat="28.5719580" lon="-17.8164180">
        <ele>1328.2</ele>
        <time>2020-11-17T12:43:44Z</time>
      </trkpt>
      <trkpt lat="28.5719880" lon="-17.8163180">
        <ele>1328.3</ele>
        <time>2020-11-17T12:43:45Z</time>
      </trkpt>
      <trkpt lat="28.5719880" lon="-17.8163180">
        <ele>1328.3</ele>
        <time>2020-11-17T12:43:46Z</time>
      </trkpt>
      <trkpt lat="28.5720220" lon="-17.8162020">
        <ele>1328.3</ele>
        <time>2020-11-17T12:43:47Z</time>
      </trkpt>
      <trkpt lat="28.5720320" lon="-17.8161470">
        <ele>1328.3</ele>
        <time>2020-11-17T12:43:48Z</time>
      </trkpt>
      <trkpt lat="28.5720320" lon="-17.8161470">
        <ele>1328.3</ele>
        <time>2020-11-17T12:43:49Z</time>
      </trkpt>
      <trkpt lat="28.5720580" lon="-17.8160480">
        <ele>1328.5</ele>
        <time>2020-11-17T12:43:50Z</time>
      </trkpt>
      <trkpt lat="28.5720580" lon="-17.8160480">
        <ele>1328.5</ele>
        <time>2020-11-17T12:43:51Z</time>
      </trkpt>
      <trkpt lat="28.5720780" lon="-17.8159550">
        <ele>1328.6</ele>
        <time>2020-11-17T12:43:52Z</time>
      </trkpt>
      <trkpt lat="28.5720780" lon="-17.8159550">
        <ele>1328.6</ele>
        <time>2020-11-17T12:43:53Z</time>
      </trkpt>
      <trkpt lat="28.5720900" lon="-17.8158550">
        <ele>1328.8</ele>
        <time>2020-11-17T12:43:54Z</time>
      </trkpt>
      <trkpt lat="28.5720970" lon="-17.8158100">
        <ele>1328.9</ele>
        <time>2020-11-17T12:43:55Z</time>
      </trkpt>
      <trkpt lat="28.5720970" lon="-17.8158100">
        <ele>1328.9</ele>
        <time>2020-11-17T12:43:56Z</time>
      </trkpt>
      <trkpt lat="28.5721320" lon="-17.8157120">
        <ele>1329.0</ele>
        <time>2020-11-17T12:43:57Z</time>
      </trkpt>
      <trkpt lat="28.5721320" lon="-17.8157120">
        <ele>1329.0</ele>
        <time>2020-11-17T12:43:58Z</time>
      </trkpt>
      <trkpt lat="28.5721730" lon="-17.8156450">
        <ele>1329.0</ele>
        <time>2020-11-17T12:43:59Z</time>
      </trkpt>
      <trkpt lat="28.5722020" lon="-17.8156150">
        <ele>1329.0</ele>
        <time>2020-11-17T12:44:00Z</time>
      </trkpt>
      <trkpt lat="28.5722020" lon="-17.8156150">
        <ele>1329.0</ele>
        <time>2020-11-17T12:44:01Z</time>
      </trkpt>
      <trkpt lat="28.5722700" lon="-17.8155630">
        <ele>1328.8</ele>
        <time>2020-11-17T12:44:02Z</time>
      </trkpt>
      <trkpt lat="28.5723030" lon="-17.8155420">
        <ele>1328.7</ele>
        <time>2020-11-17T12:44:03Z</time>
      </trkpt>
      <trkpt lat="28.5723030" lon="-17.8155420">
        <ele>1328.7</ele>
        <time>2020-11-17T12:44:04Z</time>
      </trkpt>
      <trkpt lat="28.5723830" lon="-17.8154980">
        <ele>1328.4</ele>
        <time>2020-11-17T12:44:05Z</time>
      </trkpt>
      <trkpt lat="28.5724270" lon="-17.8154770">
        <ele>1328.2</ele>
        <time>2020-11-17T12:44:06Z</time>
      </trkpt>
      <trkpt lat="28.5724270" lon="-17.8154770">
        <ele>1328.2</ele>
        <time>2020-11-17T12:44:07Z</time>
      </trkpt>
      <trkpt lat="28.5725030" lon="-17.8154350">
        <ele>1327.7</ele>
        <time>2020-11-17T12:44:08Z</time>
      </trkpt>
      <trkpt lat="28.5725030" lon="-17.8154350">
        <ele>1327.7</ele>
        <time>2020-11-17T12:44:09Z</time>
      </trkpt>
      <trkpt lat="28.5725850" lon="-17.8153830">
        <ele>1327.2</ele>
        <time>2020-11-17T12:44:10Z</time>
      </trkpt>
      <trkpt lat="28.5725850" lon="-17.8153830">
        <ele>1327.2</ele>
        <time>2020-11-17T12:44:11Z</time>
      </trkpt>
      <trkpt lat="28.5726630" lon="-17.8153280">
        <ele>1326.7</ele>
        <time>2020-11-17T12:44:12Z</time>
      </trkpt>
      <trkpt lat="28.5726630" lon="-17.8153280">
        <ele>1326.7</ele>
        <time>2020-11-17T12:44:13Z</time>
      </trkpt>
      <trkpt lat="28.5727520" lon="-17.8152780">
        <ele>1326.2</ele>
        <time>2020-11-17T12:44:14Z</time>
      </trkpt>
      <trkpt lat="28.5727930" lon="-17.8152550">
        <ele>1326.0</ele>
        <time>2020-11-17T12:44:15Z</time>
      </trkpt>
      <trkpt lat="28.5727930" lon="-17.8152550">
        <ele>1326.0</ele>
        <time>2020-11-17T12:44:16Z</time>
      </trkpt>
      <trkpt lat="28.5728780" lon="-17.8152350">
        <ele>1325.6</ele>
        <time>2020-11-17T12:44:17Z</time>
      </trkpt>
      <trkpt lat="28.5728780" lon="-17.8152350">
        <ele>1325.6</ele>
        <time>2020-11-17T12:44:18Z</time>
      </trkpt>
      <trkpt lat="28.5729730" lon="-17.8152500">
        <ele>1325.2</ele>
        <time>2020-11-17T12:44:19Z</time>
      </trkpt>
      <trkpt lat="28.5729730" lon="-17.8152500">
        <ele>1325.2</ele>
        <time>2020-11-17T12:44:20Z</time>
      </trkpt>
      <trkpt lat="28.5730730" lon="-17.8152700">
        <ele>1324.8</ele>
        <time>2020-11-17T12:44:21Z</time>
      </trkpt>
      <trkpt lat="28.5730730" lon="-17.8152700">
        <ele>1324.8</ele>
        <time>2020-11-17T12:44:22Z</time>
      </trkpt>
      <trkpt lat="28.5731700" lon="-17.8152780">
        <ele>1324.5</ele>
        <time>2020-11-17T12:44:23Z</time>
      </trkpt>
      <trkpt lat="28.5732180" lon="-17.8152730">
        <ele>1324.4</ele>
        <time>2020-11-17T12:44:24Z</time>
      </trkpt>
      <trkpt lat="28.5732180" lon="-17.8152730">
        <ele>1324.4</ele>
        <time>2020-11-17T12:44:25Z</time>
      </trkpt>
      <trkpt lat="28.5733080" lon="-17.8152470">
        <ele>1324.1</ele>
        <time>2020-11-17T12:44:26Z</time>
      </trkpt>
      <trkpt lat="28.5733450" lon="-17.8152180">
        <ele>1324.0</ele>
        <time>2020-11-17T12:44:27Z</time>
      </trkpt>
      <trkpt lat="28.5733450" lon="-17.8152180">
        <ele>1324.0</ele>
        <time>2020-11-17T12:44:28Z</time>
      </trkpt>
      <trkpt lat="28.5734100" lon="-17.8151470">
        <ele>1323.8</ele>
        <time>2020-11-17T12:44:29Z</time>
      </trkpt>
      <trkpt lat="28.5734100" lon="-17.8151470">
        <ele>1323.8</ele>
        <time>2020-11-17T12:44:30Z</time>
      </trkpt>
      <trkpt lat="28.5734650" lon="-17.8150950">
        <ele>1323.7</ele>
        <time>2020-11-17T12:44:31Z</time>
      </trkpt>
      <trkpt lat="28.5734650" lon="-17.8150950">
        <ele>1323.7</ele>
        <time>2020-11-17T12:44:32Z</time>
      </trkpt>
      <trkpt lat="28.5735220" lon="-17.8150230">
        <ele>1323.7</ele>
        <time>2020-11-17T12:44:33Z</time>
      </trkpt>
      <trkpt lat="28.5735220" lon="-17.8150230">
        <ele>1323.7</ele>
        <time>2020-11-17T12:44:34Z</time>
      </trkpt>
      <trkpt lat="28.5735750" lon="-17.8149430">
        <ele>1323.7</ele>
        <time>2020-11-17T12:44:35Z</time>
      </trkpt>
      <trkpt lat="28.5735750" lon="-17.8149430">
        <ele>1323.7</ele>
        <time>2020-11-17T12:44:36Z</time>
      </trkpt>
      <trkpt lat="28.5736180" lon="-17.8148600">
        <ele>1324.0</ele>
        <time>2020-11-17T12:44:37Z</time>
      </trkpt>
      <trkpt lat="28.5736380" lon="-17.8148250">
        <ele>1324.1</ele>
        <time>2020-11-17T12:44:38Z</time>
      </trkpt>
      <trkpt lat="28.5736380" lon="-17.8148250">
        <ele>1324.1</ele>
        <time>2020-11-17T12:44:39Z</time>
      </trkpt>
      <trkpt lat="28.5736880" lon="-17.8147480">
        <ele>1324.6</ele>
        <time>2020-11-17T12:44:40Z</time>
      </trkpt>
      <trkpt lat="28.5736880" lon="-17.8147480">
        <ele>1324.6</ele>
        <time>2020-11-17T12:44:41Z</time>
      </trkpt>
      <trkpt lat="28.5737320" lon="-17.8146820">
        <ele>1325.0</ele>
        <time>2020-11-17T12:44:42Z</time>
      </trkpt>
      <trkpt lat="28.5737320" lon="-17.8146820">
        <ele>1325.0</ele>
        <time>2020-11-17T12:44:43Z</time>
      </trkpt>
      <trkpt lat="28.5737680" lon="-17.8146150">
        <ele>1325.4</ele>
        <time>2020-11-17T12:44:44Z</time>
      </trkpt>
      <trkpt lat="28.5737870" lon="-17.8145870">
        <ele>1325.5</ele>
        <time>2020-11-17T12:44:45Z</time>
      </trkpt>
      <trkpt lat="28.5737870" lon="-17.8145870">
        <ele>1325.5</ele>
        <time>2020-11-17T12:44:46Z</time>
      </trkpt>
      <trkpt lat="28.5738220" lon="-17.8145400">
        <ele>1325.8</ele>
        <time>2020-11-17T12:44:47Z</time>
      </trkpt>
      <trkpt lat="28.5738220" lon="-17.8145400">
        <ele>1325.8</ele>
        <time>2020-11-17T12:44:48Z</time>
      </trkpt>
      <trkpt lat="28.5738830" lon="-17.8145100">
        <ele>1326.0</ele>
        <time>2020-11-17T12:44:49Z</time>
      </trkpt>
      <trkpt lat="28.5738830" lon="-17.8145100">
        <ele>1326.0</ele>
        <time>2020-11-17T12:44:50Z</time>
      </trkpt>
      <trkpt lat="28.5739380" lon="-17.8145350">
        <ele>1326.2</ele>
        <time>2020-11-17T12:44:51Z</time>
      </trkpt>
      <trkpt lat="28.5739380" lon="-17.8145350">
        <ele>1326.2</ele>
        <time>2020-11-17T12:44:52Z</time>
      </trkpt>
      <trkpt lat="28.5739680" lon="-17.8145930">
        <ele>1326.3</ele>
        <time>2020-11-17T12:44:53Z</time>
      </trkpt>
      <trkpt lat="28.5739680" lon="-17.8145930">
        <ele>1326.3</ele>
        <time>2020-11-17T12:44:54Z</time>
      </trkpt>
      <trkpt lat="28.5739900" lon="-17.8146550">
        <ele>1326.3</ele>
        <time>2020-11-17T12:44:55Z</time>
      </trkpt>
      <trkpt lat="28.5739970" lon="-17.8146880">
        <ele>1326.3</ele>
        <time>2020-11-17T12:44:56Z</time>
      </trkpt>
      <trkpt lat="28.5739970" lon="-17.8146880">
        <ele>1326.3</ele>
        <time>2020-11-17T12:44:57Z</time>
      </trkpt>
      <trkpt lat="28.5740230" lon="-17.8147450">
        <ele>1326.4</ele>
        <time>2020-11-17T12:44:58Z</time>
      </trkpt>
      <trkpt lat="28.5740300" lon="-17.8147680">
        <ele>1326.4</ele>
        <time>2020-11-17T12:44:59Z</time>
      </trkpt>
      <trkpt lat="28.5740300" lon="-17.8147680">
        <ele>1326.4</ele>
        <time>2020-11-17T12:45:00Z</time>
      </trkpt>
      <trkpt lat="28.5740450" lon="-17.8148400">
        <ele>1326.4</ele>
        <time>2020-11-17T12:45:01Z</time>
      </trkpt>
      <trkpt lat="28.5740450" lon="-17.8148400">
        <ele>1326.4</ele>
        <time>2020-11-17T12:45:02Z</time>
      </trkpt>
      <trkpt lat="28.5740730" lon="-17.8149100">
        <ele>1326.5</ele>
        <time>2020-11-17T12:45:03Z</time>
      </trkpt>
      <trkpt lat="28.5740730" lon="-17.8149100">
        <ele>1326.5</ele>
        <time>2020-11-17T12:45:04Z</time>
      </trkpt>
      <trkpt lat="28.5741120" lon="-17.8149900">
        <ele>1326.7</ele>
        <time>2020-11-17T12:45:05Z</time>
      </trkpt>
      <trkpt lat="28.5741370" lon="-17.8150250">
        <ele>1326.8</ele>
        <time>2020-11-17T12:45:06Z</time>
      </trkpt>
      <trkpt lat="28.5741630" lon="-17.8150550">
        <ele>1326.9</ele>
        <time>2020-11-17T12:45:07Z</time>
      </trkpt>
      <trkpt lat="28.5741630" lon="-17.8150550">
        <ele>1326.9</ele>
        <time>2020-11-17T12:45:08Z</time>
      </trkpt>
      <trkpt lat="28.5742050" lon="-17.8150920">
        <ele>1327.1</ele>
        <time>2020-11-17T12:45:09Z</time>
      </trkpt>
      <trkpt lat="28.5742050" lon="-17.8150920">
        <ele>1327.1</ele>
        <time>2020-11-17T12:45:10Z</time>
      </trkpt>
      <trkpt lat="28.5742280" lon="-17.8151030">
        <ele>1327.2</ele>
        <time>2020-11-17T12:45:11Z</time>
      </trkpt>
      <trkpt lat="28.5742500" lon="-17.8151080">
        <ele>1327.2</ele>
        <time>2020-11-17T12:45:12Z</time>
      </trkpt>
      <trkpt lat="28.5742500" lon="-17.8151080">
        <ele>1327.2</ele>
        <time>2020-11-17T12:45:13Z</time>
      </trkpt>
      <trkpt lat="28.5743150" lon="-17.8151300">
        <ele>1327.4</ele>
        <time>2020-11-17T12:45:14Z</time>
      </trkpt>
      <trkpt lat="28.5743150" lon="-17.8151300">
        <ele>1327.4</ele>
        <time>2020-11-17T12:45:15Z</time>
      </trkpt>
      <trkpt lat="28.5743730" lon="-17.8151580">
        <ele>1327.6</ele>
        <time>2020-11-17T12:45:16Z</time>
      </trkpt>
      <trkpt lat="28.5743730" lon="-17.8151580">
        <ele>1327.6</ele>
        <time>2020-11-17T12:45:17Z</time>
      </trkpt>
      <trkpt lat="28.5744250" lon="-17.8151900">
        <ele>1327.7</ele>
        <time>2020-11-17T12:45:18Z</time>
      </trkpt>
      <trkpt lat="28.5744250" lon="-17.8151900">
        <ele>1327.7</ele>
        <time>2020-11-17T12:45:19Z</time>
      </trkpt>
      <trkpt lat="28.5744780" lon="-17.8152320">
        <ele>1327.8</ele>
        <time>2020-11-17T12:45:20Z</time>
      </trkpt>
      <trkpt lat="28.5744780" lon="-17.8152320">
        <ele>1327.8</ele>
        <time>2020-11-17T12:45:21Z</time>
      </trkpt>
      <trkpt lat="28.5745250" lon="-17.8152520">
        <ele>1327.9</ele>
        <time>2020-11-17T12:45:22Z</time>
      </trkpt>
      <trkpt lat="28.5745250" lon="-17.8152520">
        <ele>1327.9</ele>
        <time>2020-11-17T12:45:23Z</time>
      </trkpt>
      <trkpt lat="28.5745800" lon="-17.8152570">
        <ele>1328.0</ele>
        <time>2020-11-17T12:45:24Z</time>
      </trkpt>
      <trkpt lat="28.5746070" lon="-17.8152550">
        <ele>1328.1</ele>
        <time>2020-11-17T12:45:25Z</time>
      </trkpt>
      <trkpt lat="28.5746070" lon="-17.8152550">
        <ele>1328.1</ele>
        <time>2020-11-17T12:45:26Z</time>
      </trkpt>
      <trkpt lat="28.5746550" lon="-17.8152430">
        <ele>1328.2</ele>
        <time>2020-11-17T12:45:27Z</time>
      </trkpt>
      <trkpt lat="28.5746550" lon="-17.8152430">
        <ele>1328.2</ele>
        <time>2020-11-17T12:45:28Z</time>
      </trkpt>
      <trkpt lat="28.5747180" lon="-17.8152330">
        <ele>1328.4</ele>
        <time>2020-11-17T12:45:29Z</time>
      </trkpt>
      <trkpt lat="28.5747180" lon="-17.8152330">
        <ele>1328.4</ele>
        <time>2020-11-17T12:45:30Z</time>
      </trkpt>
      <trkpt lat="28.5747750" lon="-17.8152150">
        <ele>1328.6</ele>
        <time>2020-11-17T12:45:31Z</time>
      </trkpt>
      <trkpt lat="28.5747750" lon="-17.8152150">
        <ele>1328.6</ele>
        <time>2020-11-17T12:45:32Z</time>
      </trkpt>
      <trkpt lat="28.5748130" lon="-17.8151970">
        <ele>1328.8</ele>
        <time>2020-11-17T12:45:33Z</time>
      </trkpt>
      <trkpt lat="28.5748300" lon="-17.8152000">
        <ele>1328.8</ele>
        <time>2020-11-17T12:45:34Z</time>
      </trkpt>
      <trkpt lat="28.5748300" lon="-17.8152000">
        <ele>1328.8</ele>
        <time>2020-11-17T12:45:35Z</time>
      </trkpt>
      <trkpt lat="28.5748680" lon="-17.8151880">
        <ele>1329.0</ele>
        <time>2020-11-17T12:45:36Z</time>
      </trkpt>
      <trkpt lat="28.5748680" lon="-17.8151880">
        <ele>1329.0</ele>
        <time>2020-11-17T12:45:37Z</time>
      </trkpt>
      <trkpt lat="28.5749220" lon="-17.8151820">
        <ele>1329.3</ele>
        <time>2020-11-17T12:45:38Z</time>
      </trkpt>
      <trkpt lat="28.5749430" lon="-17.8151770">
        <ele>1329.4</ele>
        <time>2020-11-17T12:45:39Z</time>
      </trkpt>
      <trkpt lat="28.5749430" lon="-17.8151770">
        <ele>1329.4</ele>
        <time>2020-11-17T12:45:40Z</time>
      </trkpt>
      <trkpt lat="28.5749850" lon="-17.8151600">
        <ele>1329.6</ele>
        <time>2020-11-17T12:45:41Z</time>
      </trkpt>
      <trkpt lat="28.5750150" lon="-17.8151500">
        <ele>1329.7</ele>
        <time>2020-11-17T12:45:42Z</time>
      </trkpt>
      <trkpt lat="28.5750150" lon="-17.8151500">
        <ele>1329.7</ele>
        <time>2020-11-17T12:45:43Z</time>
      </trkpt>
      <trkpt lat="28.5750700" lon="-17.8151450">
        <ele>1330.0</ele>
        <time>2020-11-17T12:45:44Z</time>
      </trkpt>
      <trkpt lat="28.5750700" lon="-17.8151450">
        <ele>1330.0</ele>
        <time>2020-11-17T12:45:45Z</time>
      </trkpt>
      <trkpt lat="28.5751170" lon="-17.8151380">
        <ele>1330.3</ele>
        <time>2020-11-17T12:45:46Z</time>
      </trkpt>
      <trkpt lat="28.5751380" lon="-17.8151370">
        <ele>1330.4</ele>
        <time>2020-11-17T12:45:47Z</time>
      </trkpt>
      <trkpt lat="28.5751380" lon="-17.8151370">
        <ele>1330.4</ele>
        <time>2020-11-17T12:45:48Z</time>
      </trkpt>
      <trkpt lat="28.5751770" lon="-17.8151330">
        <ele>1330.7</ele>
        <time>2020-11-17T12:45:49Z</time>
      </trkpt>
      <trkpt lat="28.5751770" lon="-17.8151330">
        <ele>1330.7</ele>
        <time>2020-11-17T12:45:50Z</time>
      </trkpt>
      <trkpt lat="28.5752200" lon="-17.8151430">
        <ele>1330.9</ele>
        <time>2020-11-17T12:45:51Z</time>
      </trkpt>
      <trkpt lat="28.5752200" lon="-17.8151430">
        <ele>1330.9</ele>
        <time>2020-11-17T12:45:52Z</time>
      </trkpt>
      <trkpt lat="28.5752600" lon="-17.8151470">
        <ele>1331.2</ele>
        <time>2020-11-17T12:45:53Z</time>
      </trkpt>
      <trkpt lat="28.5752600" lon="-17.8151470">
        <ele>1331.2</ele>
        <time>2020-11-17T12:45:54Z</time>
      </trkpt>
      <trkpt lat="28.5752970" lon="-17.8151580">
        <ele>1331.4</ele>
        <time>2020-11-17T12:45:55Z</time>
      </trkpt>
      <trkpt lat="28.5752970" lon="-17.8151580">
        <ele>1331.4</ele>
        <time>2020-11-17T12:45:56Z</time>
      </trkpt>
      <trkpt lat="28.5753330" lon="-17.8151770">
        <ele>1331.7</ele>
        <time>2020-11-17T12:45:57Z</time>
      </trkpt>
      <trkpt lat="28.5753500" lon="-17.8151800">
        <ele>1331.9</ele>
        <time>2020-11-17T12:45:58Z</time>
      </trkpt>
      <trkpt lat="28.5753500" lon="-17.8151800">
        <ele>1331.9</ele>
        <time>2020-11-17T12:45:59Z</time>
      </trkpt>
      <trkpt lat="28.5753770" lon="-17.8152020">
        <ele>1332.1</ele>
        <time>2020-11-17T12:46:00Z</time>
      </trkpt>
      <trkpt lat="28.5753770" lon="-17.8152020">
        <ele>1332.1</ele>
        <time>2020-11-17T12:46:01Z</time>
      </trkpt>
      <trkpt lat="28.5754080" lon="-17.8152080">
        <ele>1332.4</ele>
        <time>2020-11-17T12:46:02Z</time>
      </trkpt>
      <trkpt lat="28.5754280" lon="-17.8152000">
        <ele>1332.5</ele>
        <time>2020-11-17T12:46:03Z</time>
      </trkpt>
      <trkpt lat="28.5754280" lon="-17.8152000">
        <ele>1332.5</ele>
        <time>2020-11-17T12:46:04Z</time>
      </trkpt>
      <trkpt lat="28.5754630" lon="-17.8151880">
        <ele>1332.8</ele>
        <time>2020-11-17T12:46:05Z</time>
      </trkpt>
      <trkpt lat="28.5754630" lon="-17.8151880">
        <ele>1332.8</ele>
        <time>2020-11-17T12:46:06Z</time>
      </trkpt>
      <trkpt lat="28.5755000" lon="-17.8151930">
        <ele>1333.2</ele>
        <time>2020-11-17T12:46:07Z</time>
      </trkpt>
      <trkpt lat="28.5755170" lon="-17.8151920">
        <ele>1333.3</ele>
        <time>2020-11-17T12:46:08Z</time>
      </trkpt>
      <trkpt lat="28.5755170" lon="-17.8151920">
        <ele>1333.3</ele>
        <time>2020-11-17T12:46:09Z</time>
      </trkpt>
      <trkpt lat="28.5755450" lon="-17.8151820">
        <ele>1333.6</ele>
        <time>2020-11-17T12:46:10Z</time>
      </trkpt>
      <trkpt lat="28.5755450" lon="-17.8151820">
        <ele>1333.6</ele>
        <time>2020-11-17T12:46:11Z</time>
      </trkpt>
      <trkpt lat="28.5755730" lon="-17.8151720">
        <ele>1333.8</ele>
        <time>2020-11-17T12:46:12Z</time>
      </trkpt>
      <trkpt lat="28.5755730" lon="-17.8151720">
        <ele>1333.8</ele>
        <time>2020-11-17T12:46:13Z</time>
      </trkpt>
      <trkpt lat="28.5756020" lon="-17.8151650">
        <ele>1334.0</ele>
        <time>2020-11-17T12:46:14Z</time>
      </trkpt>
      <trkpt lat="28.5756020" lon="-17.8151650">
        <ele>1334.0</ele>
        <time>2020-11-17T12:46:15Z</time>
      </trkpt>
      <trkpt lat="28.5756200" lon="-17.8151470">
        <ele>1334.2</ele>
        <time>2020-11-17T12:46:16Z</time>
      </trkpt>
      <trkpt lat="28.5756200" lon="-17.8151470">
        <ele>1334.2</ele>
        <time>2020-11-17T12:46:17Z</time>
      </trkpt>
      <trkpt lat="28.5756470" lon="-17.8151300">
        <ele>1334.5</ele>
        <time>2020-11-17T12:46:18Z</time>
      </trkpt>
      <trkpt lat="28.5756470" lon="-17.8151300">
        <ele>1334.5</ele>
        <time>2020-11-17T12:46:19Z</time>
      </trkpt>
      <trkpt lat="28.5756730" lon="-17.8151200">
        <ele>1334.7</ele>
        <time>2020-11-17T12:46:20Z</time>
      </trkpt>
      <trkpt lat="28.5756900" lon="-17.8151220">
        <ele>1334.8</ele>
        <time>2020-11-17T12:46:21Z</time>
      </trkpt>
      <trkpt lat="28.5756900" lon="-17.8151220">
        <ele>1334.8</ele>
        <time>2020-11-17T12:46:22Z</time>
      </trkpt>
      <trkpt lat="28.5757220" lon="-17.8151320">
        <ele>1335.0</ele>
        <time>2020-11-17T12:46:23Z</time>
      </trkpt>
      <trkpt lat="28.5757220" lon="-17.8151320">
        <ele>1335.0</ele>
        <time>2020-11-17T12:46:24Z</time>
      </trkpt>
      <trkpt lat="28.5757620" lon="-17.8151350">
        <ele>1335.3</ele>
        <time>2020-11-17T12:46:25Z</time>
      </trkpt>
      <trkpt lat="28.5757620" lon="-17.8151350">
        <ele>1335.3</ele>
        <time>2020-11-17T12:46:26Z</time>
      </trkpt>
      <trkpt lat="28.5758020" lon="-17.8151430">
        <ele>1335.5</ele>
        <time>2020-11-17T12:46:27Z</time>
      </trkpt>
      <trkpt lat="28.5758020" lon="-17.8151430">
        <ele>1335.5</ele>
        <time>2020-11-17T12:46:28Z</time>
      </trkpt>
      <trkpt lat="28.5758300" lon="-17.8151470">
        <ele>1335.7</ele>
        <time>2020-11-17T12:46:29Z</time>
      </trkpt>
      <trkpt lat="28.5758430" lon="-17.8151530">
        <ele>1335.7</ele>
        <time>2020-11-17T12:46:30Z</time>
      </trkpt>
      <trkpt lat="28.5758430" lon="-17.8151530">
        <ele>1335.7</ele>
        <time>2020-11-17T12:46:31Z</time>
      </trkpt>
      <trkpt lat="28.5758970" lon="-17.8151550">
        <ele>1336.0</ele>
        <time>2020-11-17T12:46:32Z</time>
      </trkpt>
      <trkpt lat="28.5759180" lon="-17.8151470">
        <ele>1336.1</ele>
        <time>2020-11-17T12:46:33Z</time>
      </trkpt>
      <trkpt lat="28.5759320" lon="-17.8151320">
        <ele>1336.2</ele>
        <time>2020-11-17T12:46:34Z</time>
      </trkpt>
      <trkpt lat="28.5759320" lon="-17.8151320">
        <ele>1336.2</ele>
        <time>2020-11-17T12:46:35Z</time>
      </trkpt>
      <trkpt lat="28.5759780" lon="-17.8151080">
        <ele>1336.4</ele>
        <time>2020-11-17T12:46:36Z</time>
      </trkpt>
      <trkpt lat="28.5759780" lon="-17.8151080">
        <ele>1336.4</ele>
        <time>2020-11-17T12:46:37Z</time>
      </trkpt>
      <trkpt lat="28.5760180" lon="-17.8150830">
        <ele>1336.6</ele>
        <time>2020-11-17T12:46:38Z</time>
      </trkpt>
      <trkpt lat="28.5760350" lon="-17.8150700">
        <ele>1336.6</ele>
        <time>2020-11-17T12:46:39Z</time>
      </trkpt>
      <trkpt lat="28.5760350" lon="-17.8150700">
        <ele>1336.6</ele>
        <time>2020-11-17T12:46:40Z</time>
      </trkpt>
      <trkpt lat="28.5760680" lon="-17.8150450">
        <ele>1336.8</ele>
        <time>2020-11-17T12:46:41Z</time>
      </trkpt>
      <trkpt lat="28.5760680" lon="-17.8150450">
        <ele>1336.8</ele>
        <time>2020-11-17T12:46:42Z</time>
      </trkpt>
      <trkpt lat="28.5760970" lon="-17.8150200">
        <ele>1336.9</ele>
        <time>2020-11-17T12:46:43Z</time>
      </trkpt>
      <trkpt lat="28.5760970" lon="-17.8150200">
        <ele>1336.9</ele>
        <time>2020-11-17T12:46:44Z</time>
      </trkpt>
      <trkpt lat="28.5761480" lon="-17.8149870">
        <ele>1337.0</ele>
        <time>2020-11-17T12:46:45Z</time>
      </trkpt>
      <trkpt lat="28.5761800" lon="-17.8149720">
        <ele>1337.1</ele>
        <time>2020-11-17T12:46:46Z</time>
      </trkpt>
      <trkpt lat="28.5761800" lon="-17.8149720">
        <ele>1337.1</ele>
        <time>2020-11-17T12:46:47Z</time>
      </trkpt>
      <trkpt lat="28.5762270" lon="-17.8149450">
        <ele>1337.2</ele>
        <time>2020-11-17T12:46:48Z</time>
      </trkpt>
      <trkpt lat="28.5762270" lon="-17.8149450">
        <ele>1337.2</ele>
        <time>2020-11-17T12:46:49Z</time>
      </trkpt>
      <trkpt lat="28.5762780" lon="-17.8149250">
        <ele>1337.3</ele>
        <time>2020-11-17T12:46:50Z</time>
      </trkpt>
      <trkpt lat="28.5763050" lon="-17.8149180">
        <ele>1337.3</ele>
        <time>2020-11-17T12:46:51Z</time>
      </trkpt>
      <trkpt lat="28.5763050" lon="-17.8149180">
        <ele>1337.3</ele>
        <time>2020-11-17T12:46:52Z</time>
      </trkpt>
      <trkpt lat="28.5763420" lon="-17.8149180">
        <ele>1337.4</ele>
        <time>2020-11-17T12:46:53Z</time>
      </trkpt>
      <trkpt lat="28.5763580" lon="-17.8149220">
        <ele>1337.4</ele>
        <time>2020-11-17T12:46:54Z</time>
      </trkpt>
      <trkpt lat="28.5763580" lon="-17.8149220">
        <ele>1337.4</ele>
        <time>2020-11-17T12:46:55Z</time>
      </trkpt>
      <trkpt lat="28.5764020" lon="-17.8149400">
        <ele>1337.5</ele>
        <time>2020-11-17T12:46:56Z</time>
      </trkpt>
      <trkpt lat="28.5764200" lon="-17.8149500">
        <ele>1337.5</ele>
        <time>2020-11-17T12:46:57Z</time>
      </trkpt>
      <trkpt lat="28.5764200" lon="-17.8149500">
        <ele>1337.5</ele>
        <time>2020-11-17T12:46:58Z</time>
      </trkpt>
      <trkpt lat="28.5764580" lon="-17.8149520">
        <ele>1337.6</ele>
        <time>2020-11-17T12:46:59Z</time>
      </trkpt>
      <trkpt lat="28.5764580" lon="-17.8149520">
        <ele>1337.6</ele>
        <time>2020-11-17T12:47:00Z</time>
      </trkpt>
      <trkpt lat="28.5765020" lon="-17.8149520">
        <ele>1337.6</ele>
        <time>2020-11-17T12:47:01Z</time>
      </trkpt>
      <trkpt lat="28.5765020" lon="-17.8149520">
        <ele>1337.6</ele>
        <time>2020-11-17T12:47:02Z</time>
      </trkpt>
      <trkpt lat="28.5765780" lon="-17.8149330">
        <ele>1337.8</ele>
        <time>2020-11-17T12:47:03Z</time>
      </trkpt>
      <trkpt lat="28.5765780" lon="-17.8149330">
        <ele>1337.8</ele>
        <time>2020-11-17T12:47:04Z</time>
      </trkpt>
      <trkpt lat="28.5766250" lon="-17.8149150">
        <ele>1338.0</ele>
        <time>2020-11-17T12:47:05Z</time>
      </trkpt>
      <trkpt lat="28.5766480" lon="-17.8149000">
        <ele>1338.0</ele>
        <time>2020-11-17T12:47:06Z</time>
      </trkpt>
      <trkpt lat="28.5766480" lon="-17.8149000">
        <ele>1338.0</ele>
        <time>2020-11-17T12:47:07Z</time>
      </trkpt>
      <trkpt lat="28.5766950" lon="-17.8148820">
        <ele>1338.1</ele>
        <time>2020-11-17T12:47:08Z</time>
      </trkpt>
      <trkpt lat="28.5767230" lon="-17.8148800">
        <ele>1338.2</ele>
        <time>2020-11-17T12:47:09Z</time>
      </trkpt>
      <trkpt lat="28.5767230" lon="-17.8148800">
        <ele>1338.2</ele>
        <time>2020-11-17T12:47:10Z</time>
      </trkpt>
      <trkpt lat="28.5767720" lon="-17.8148570">
        <ele>1338.2</ele>
        <time>2020-11-17T12:47:11Z</time>
      </trkpt>
      <trkpt lat="28.5767720" lon="-17.8148570">
        <ele>1338.2</ele>
        <time>2020-11-17T12:47:12Z</time>
      </trkpt>
      <trkpt lat="28.5768220" lon="-17.8148350">
        <ele>1338.2</ele>
        <time>2020-11-17T12:47:13Z</time>
      </trkpt>
      <trkpt lat="28.5768220" lon="-17.8148350">
        <ele>1338.2</ele>
        <time>2020-11-17T12:47:14Z</time>
      </trkpt>
      <trkpt lat="28.5768770" lon="-17.8148020">
        <ele>1338.2</ele>
        <time>2020-11-17T12:47:15Z</time>
      </trkpt>
      <trkpt lat="28.5768770" lon="-17.8148020">
        <ele>1338.2</ele>
        <time>2020-11-17T12:47:16Z</time>
      </trkpt>
      <trkpt lat="28.5769270" lon="-17.8147750">
        <ele>1338.1</ele>
        <time>2020-11-17T12:47:17Z</time>
      </trkpt>
      <trkpt lat="28.5769600" lon="-17.8147670">
        <ele>1338.0</ele>
        <time>2020-11-17T12:47:18Z</time>
      </trkpt>
      <trkpt lat="28.5769600" lon="-17.8147670">
        <ele>1338.0</ele>
        <time>2020-11-17T12:47:19Z</time>
      </trkpt>
      <trkpt lat="28.5770370" lon="-17.8147550">
        <ele>1337.7</ele>
        <time>2020-11-17T12:47:20Z</time>
      </trkpt>
      <trkpt lat="28.5770370" lon="-17.8147550">
        <ele>1337.7</ele>
        <time>2020-11-17T12:47:21Z</time>
      </trkpt>
      <trkpt lat="28.5771170" lon="-17.8147550">
        <ele>1337.3</ele>
        <time>2020-11-17T12:47:22Z</time>
      </trkpt>
      <trkpt lat="28.5771520" lon="-17.8147650">
        <ele>1337.1</ele>
        <time>2020-11-17T12:47:23Z</time>
      </trkpt>
      <trkpt lat="28.5771520" lon="-17.8147650">
        <ele>1337.1</ele>
        <time>2020-11-17T12:47:24Z</time>
      </trkpt>
      <trkpt lat="28.5772180" lon="-17.8148100">
        <ele>1336.7</ele>
        <time>2020-11-17T12:47:25Z</time>
      </trkpt>
      <trkpt lat="28.5772180" lon="-17.8148100">
        <ele>1336.7</ele>
        <time>2020-11-17T12:47:26Z</time>
      </trkpt>
      <trkpt lat="28.5773020" lon="-17.8148620">
        <ele>1336.2</ele>
        <time>2020-11-17T12:47:27Z</time>
      </trkpt>
      <trkpt lat="28.5773020" lon="-17.8148620">
        <ele>1336.2</ele>
        <time>2020-11-17T12:47:28Z</time>
      </trkpt>
      <trkpt lat="28.5773980" lon="-17.8149100">
        <ele>1335.8</ele>
        <time>2020-11-17T12:47:29Z</time>
      </trkpt>
      <trkpt lat="28.5773980" lon="-17.8149100">
        <ele>1335.8</ele>
        <time>2020-11-17T12:47:30Z</time>
      </trkpt>
      <trkpt lat="28.5775120" lon="-17.8149930">
        <ele>1335.8</ele>
        <time>2020-11-17T12:47:31Z</time>
      </trkpt>
      <trkpt lat="28.5775120" lon="-17.8149930">
        <ele>1335.8</ele>
        <time>2020-11-17T12:47:32Z</time>
      </trkpt>
      <trkpt lat="28.5776100" lon="-17.8150700">
        <ele>1336.3</ele>
        <time>2020-11-17T12:47:33Z</time>
      </trkpt>
      <trkpt lat="28.5776620" lon="-17.8151230">
        <ele>1336.7</ele>
        <time>2020-11-17T12:47:34Z</time>
      </trkpt>
      <trkpt lat="28.5776620" lon="-17.8151230">
        <ele>1336.7</ele>
        <time>2020-11-17T12:47:35Z</time>
      </trkpt>
      <trkpt lat="28.5777120" lon="-17.8151770">
        <ele>1337.3</ele>
        <time>2020-11-17T12:47:36Z</time>
      </trkpt>
      <trkpt lat="28.5777120" lon="-17.8151770">
        <ele>1337.3</ele>
        <time>2020-11-17T12:47:37Z</time>
      </trkpt>
      <trkpt lat="28.5777670" lon="-17.8151900">
        <ele>1337.7</ele>
        <time>2020-11-17T12:47:38Z</time>
      </trkpt>
      <trkpt lat="28.5777900" lon="-17.8151830">
        <ele>1337.9</ele>
        <time>2020-11-17T12:47:39Z</time>
      </trkpt>
      <trkpt lat="28.5777900" lon="-17.8151830">
        <ele>1337.9</ele>
        <time>2020-11-17T12:47:40Z</time>
      </trkpt>
      <trkpt lat="28.5778470" lon="-17.8151530">
        <ele>1338.4</ele>
        <time>2020-11-17T12:47:41Z</time>
      </trkpt>
      <trkpt lat="28.5778700" lon="-17.8151350">
        <ele>1338.6</ele>
        <time>2020-11-17T12:47:42Z</time>
      </trkpt>
      <trkpt lat="28.5778700" lon="-17.8151350">
        <ele>1338.6</ele>
        <time>2020-11-17T12:47:43Z</time>
      </trkpt>
      <trkpt lat="28.5779180" lon="-17.8150970">
        <ele>1339.0</ele>
        <time>2020-11-17T12:47:44Z</time>
      </trkpt>
      <trkpt lat="28.5779330" lon="-17.8150770">
        <ele>1339.1</ele>
        <time>2020-11-17T12:47:45Z</time>
      </trkpt>
      <trkpt lat="28.5779330" lon="-17.8150770">
        <ele>1339.1</ele>
        <time>2020-11-17T12:47:46Z</time>
      </trkpt>
      <trkpt lat="28.5779420" lon="-17.8150250">
        <ele>1339.4</ele>
        <time>2020-11-17T12:47:47Z</time>
      </trkpt>
      <trkpt lat="28.5779420" lon="-17.8150250">
        <ele>1339.4</ele>
        <time>2020-11-17T12:47:48Z</time>
      </trkpt>
      <trkpt lat="28.5779770" lon="-17.8149850">
        <ele>1339.7</ele>
        <time>2020-11-17T12:47:49Z</time>
      </trkpt>
      <trkpt lat="28.5779930" lon="-17.8149670">
        <ele>1339.8</ele>
        <time>2020-11-17T12:47:50Z</time>
      </trkpt>
      <trkpt lat="28.5779930" lon="-17.8149670">
        <ele>1339.8</ele>
        <time>2020-11-17T12:47:51Z</time>
      </trkpt>
      <trkpt lat="28.5780200" lon="-17.8149270">
        <ele>1339.9</ele>
        <time>2020-11-17T12:47:52Z</time>
      </trkpt>
      <trkpt lat="28.5780200" lon="-17.8149270">
        <ele>1339.9</ele>
        <time>2020-11-17T12:47:53Z</time>
      </trkpt>
      <trkpt lat="28.5780770" lon="-17.8148950">
        <ele>1340.1</ele>
        <time>2020-11-17T12:47:54Z</time>
      </trkpt>
      <trkpt lat="28.5780770" lon="-17.8148950">
        <ele>1340.1</ele>
        <time>2020-11-17T12:47:55Z</time>
      </trkpt>
      <trkpt lat="28.5781280" lon="-17.8148620">
        <ele>1340.2</ele>
        <time>2020-11-17T12:47:56Z</time>
      </trkpt>
      <trkpt lat="28.5781280" lon="-17.8148620">
        <ele>1340.2</ele>
        <time>2020-11-17T12:47:57Z</time>
      </trkpt>
      <trkpt lat="28.5781780" lon="-17.8148450">
        <ele>1340.2</ele>
        <time>2020-11-17T12:47:58Z</time>
      </trkpt>
      <trkpt lat="28.5781780" lon="-17.8148450">
        <ele>1340.2</ele>
        <time>2020-11-17T12:47:59Z</time>
      </trkpt>
      <trkpt lat="28.5782230" lon="-17.8148380">
        <ele>1340.1</ele>
        <time>2020-11-17T12:48:00Z</time>
      </trkpt>
      <trkpt lat="28.5782230" lon="-17.8148380">
        <ele>1340.1</ele>
        <time>2020-11-17T12:48:01Z</time>
      </trkpt>
      <trkpt lat="28.5782670" lon="-17.8148230">
        <ele>1340.1</ele>
        <time>2020-11-17T12:48:02Z</time>
      </trkpt>
      <trkpt lat="28.5782670" lon="-17.8148230">
        <ele>1340.1</ele>
        <time>2020-11-17T12:48:03Z</time>
      </trkpt>
      <trkpt lat="28.5783450" lon="-17.8148150">
        <ele>1339.9</ele>
        <time>2020-11-17T12:48:04Z</time>
      </trkpt>
      <trkpt lat="28.5783450" lon="-17.8148150">
        <ele>1339.9</ele>
        <time>2020-11-17T12:48:05Z</time>
      </trkpt>
      <trkpt lat="28.5784250" lon="-17.8148220">
        <ele>1339.6</ele>
        <time>2020-11-17T12:48:06Z</time>
      </trkpt>
      <trkpt lat="28.5784250" lon="-17.8148220">
        <ele>1339.6</ele>
        <time>2020-11-17T12:48:07Z</time>
      </trkpt>
      <trkpt lat="28.5784900" lon="-17.8148370">
        <ele>1339.4</ele>
        <time>2020-11-17T12:48:08Z</time>
      </trkpt>
      <trkpt lat="28.5785220" lon="-17.8148450">
        <ele>1339.3</ele>
        <time>2020-11-17T12:48:09Z</time>
      </trkpt>
      <trkpt lat="28.5785500" lon="-17.8148620">
        <ele>1339.1</ele>
        <time>2020-11-17T12:48:10Z</time>
      </trkpt>
      <trkpt lat="28.5785500" lon="-17.8148620">
        <ele>1339.1</ele>
        <time>2020-11-17T12:48:11Z</time>
      </trkpt>
      <trkpt lat="28.5786080" lon="-17.8149050">
        <ele>1338.9</ele>
        <time>2020-11-17T12:48:12Z</time>
      </trkpt>
      <trkpt lat="28.5786400" lon="-17.8149370">
        <ele>1338.7</ele>
        <time>2020-11-17T12:48:13Z</time>
      </trkpt>
      <trkpt lat="28.5786400" lon="-17.8149370">
        <ele>1338.7</ele>
        <time>2020-11-17T12:48:14Z</time>
      </trkpt>
      <trkpt lat="28.5786830" lon="-17.8150100">
        <ele>1338.4</ele>
        <time>2020-11-17T12:48:15Z</time>
      </trkpt>
      <trkpt lat="28.5786830" lon="-17.8150100">
        <ele>1338.4</ele>
        <time>2020-11-17T12:48:16Z</time>
      </trkpt>
      <trkpt lat="28.5787200" lon="-17.8150870">
        <ele>1338.1</ele>
        <time>2020-11-17T12:48:17Z</time>
      </trkpt>
      <trkpt lat="28.5787200" lon="-17.8150870">
        <ele>1338.1</ele>
        <time>2020-11-17T12:48:18Z</time>
      </trkpt>
      <trkpt lat="28.5787470" lon="-17.8151720">
        <ele>1337.8</ele>
        <time>2020-11-17T12:48:19Z</time>
      </trkpt>
      <trkpt lat="28.5787550" lon="-17.8152130">
        <ele>1337.6</ele>
        <time>2020-11-17T12:48:20Z</time>
      </trkpt>
      <trkpt lat="28.5787550" lon="-17.8152130">
        <ele>1337.6</ele>
        <time>2020-11-17T12:48:21Z</time>
      </trkpt>
      <trkpt lat="28.5787780" lon="-17.8152880">
        <ele>1337.4</ele>
        <time>2020-11-17T12:48:22Z</time>
      </trkpt>
      <trkpt lat="28.5787780" lon="-17.8152880">
        <ele>1337.4</ele>
        <time>2020-11-17T12:48:23Z</time>
      </trkpt>
      <trkpt lat="28.5788300" lon="-17.8153570">
        <ele>1337.1</ele>
        <time>2020-11-17T12:48:24Z</time>
      </trkpt>
      <trkpt lat="28.5788300" lon="-17.8153570">
        <ele>1337.1</ele>
        <time>2020-11-17T12:48:25Z</time>
      </trkpt>
      <trkpt lat="28.5789080" lon="-17.8154070">
        <ele>1336.8</ele>
        <time>2020-11-17T12:48:26Z</time>
      </trkpt>
      <trkpt lat="28.5789080" lon="-17.8154070">
        <ele>1336.8</ele>
        <time>2020-11-17T12:48:27Z</time>
      </trkpt>
      <trkpt lat="28.5789830" lon="-17.8154450">
        <ele>1336.5</ele>
        <time>2020-11-17T12:48:28Z</time>
      </trkpt>
      <trkpt lat="28.5789830" lon="-17.8154450">
        <ele>1336.5</ele>
        <time>2020-11-17T12:48:29Z</time>
      </trkpt>
      <trkpt lat="28.5790680" lon="-17.8154870">
        <ele>1336.1</ele>
        <time>2020-11-17T12:48:30Z</time>
      </trkpt>
      <trkpt lat="28.5790680" lon="-17.8154870">
        <ele>1336.1</ele>
        <time>2020-11-17T12:48:31Z</time>
      </trkpt>
      <trkpt lat="28.5791430" lon="-17.8155230">
        <ele>1335.7</ele>
        <time>2020-11-17T12:48:32Z</time>
      </trkpt>
      <trkpt lat="28.5791830" lon="-17.8155380">
        <ele>1335.5</ele>
        <time>2020-11-17T12:48:33Z</time>
      </trkpt>
      <trkpt lat="28.5791830" lon="-17.8155380">
        <ele>1335.5</ele>
        <time>2020-11-17T12:48:34Z</time>
      </trkpt>
      <trkpt lat="28.5792730" lon="-17.8155520">
        <ele>1335.0</ele>
        <time>2020-11-17T12:48:35Z</time>
      </trkpt>
      <trkpt lat="28.5793250" lon="-17.8155570">
        <ele>1334.7</ele>
        <time>2020-11-17T12:48:36Z</time>
      </trkpt>
      <trkpt lat="28.5793250" lon="-17.8155570">
        <ele>1334.7</ele>
        <time>2020-11-17T12:48:37Z</time>
      </trkpt>
      <trkpt lat="28.5794270" lon="-17.8155100">
        <ele>1334.0</ele>
        <time>2020-11-17T12:48:38Z</time>
      </trkpt>
      <trkpt lat="28.5794600" lon="-17.8154700">
        <ele>1333.6</ele>
        <time>2020-11-17T12:48:39Z</time>
      </trkpt>
      <trkpt lat="28.5794600" lon="-17.8154700">
        <ele>1333.6</ele>
        <time>2020-11-17T12:48:40Z</time>
      </trkpt>
      <trkpt lat="28.5795000" lon="-17.8153830">
        <ele>1332.9</ele>
        <time>2020-11-17T12:48:41Z</time>
      </trkpt>
      <trkpt lat="28.5795000" lon="-17.8153830">
        <ele>1332.9</ele>
        <time>2020-11-17T12:48:42Z</time>
      </trkpt>
      <trkpt lat="28.5795580" lon="-17.8153220">
        <ele>1332.2</ele>
        <time>2020-11-17T12:48:43Z</time>
      </trkpt>
      <trkpt lat="28.5795580" lon="-17.8153220">
        <ele>1332.2</ele>
        <time>2020-11-17T12:48:44Z</time>
      </trkpt>
      <trkpt lat="28.5796430" lon="-17.8152970">
        <ele>1331.4</ele>
        <time>2020-11-17T12:48:45Z</time>
      </trkpt>
      <trkpt lat="28.5797020" lon="-17.8152980">
        <ele>1330.9</ele>
        <time>2020-11-17T12:48:46Z</time>
      </trkpt>
      <trkpt lat="28.5797020" lon="-17.8152980">
        <ele>1330.9</ele>
        <time>2020-11-17T12:48:47Z</time>
      </trkpt>
      <trkpt lat="28.5798100" lon="-17.8153180">
        <ele>1330.0</ele>
        <time>2020-11-17T12:48:48Z</time>
      </trkpt>
      <trkpt lat="28.5798100" lon="-17.8153180">
        <ele>1330.0</ele>
        <time>2020-11-17T12:48:49Z</time>
      </trkpt>
      <trkpt lat="28.5799000" lon="-17.8153620">
        <ele>1329.3</ele>
        <time>2020-11-17T12:48:50Z</time>
      </trkpt>
      <trkpt lat="28.5799420" lon="-17.8153680">
        <ele>1329.0</ele>
        <time>2020-11-17T12:48:51Z</time>
      </trkpt>
      <trkpt lat="28.5799420" lon="-17.8153680">
        <ele>1329.0</ele>
        <time>2020-11-17T12:48:52Z</time>
      </trkpt>
      <trkpt lat="28.5800280" lon="-17.8153700">
        <ele>1328.6</ele>
        <time>2020-11-17T12:48:53Z</time>
      </trkpt>
      <trkpt lat="28.5800630" lon="-17.8153720">
        <ele>1328.4</ele>
        <time>2020-11-17T12:48:54Z</time>
      </trkpt>
      <trkpt lat="28.5800630" lon="-17.8153720">
        <ele>1328.4</ele>
        <time>2020-11-17T12:48:55Z</time>
      </trkpt>
      <trkpt lat="28.5801450" lon="-17.8153770">
        <ele>1328.2</ele>
        <time>2020-11-17T12:48:56Z</time>
      </trkpt>
      <trkpt lat="28.5801850" lon="-17.8153780">
        <ele>1328.1</ele>
        <time>2020-11-17T12:48:57Z</time>
      </trkpt>
      <trkpt lat="28.5802230" lon="-17.8153750">
        <ele>1328.1</ele>
        <time>2020-11-17T12:48:58Z</time>
      </trkpt>
      <trkpt lat="28.5802230" lon="-17.8153750">
        <ele>1328.1</ele>
        <time>2020-11-17T12:48:59Z</time>
      </trkpt>
      <trkpt lat="28.5802820" lon="-17.8153280">
        <ele>1328.0</ele>
        <time>2020-11-17T12:49:00Z</time>
      </trkpt>
      <trkpt lat="28.5802820" lon="-17.8153280">
        <ele>1328.0</ele>
        <time>2020-11-17T12:49:01Z</time>
      </trkpt>
      <trkpt lat="28.5803050" lon="-17.8152620">
        <ele>1328.0</ele>
        <time>2020-11-17T12:49:02Z</time>
      </trkpt>
      <trkpt lat="28.5803050" lon="-17.8152170">
        <ele>1328.1</ele>
        <time>2020-11-17T12:49:03Z</time>
      </trkpt>
      <trkpt lat="28.5803050" lon="-17.8152170">
        <ele>1328.1</ele>
        <time>2020-11-17T12:49:04Z</time>
      </trkpt>
      <trkpt lat="28.5803020" lon="-17.8151280">
        <ele>1328.2</ele>
        <time>2020-11-17T12:49:05Z</time>
      </trkpt>
      <trkpt lat="28.5803050" lon="-17.8150780">
        <ele>1328.2</ele>
        <time>2020-11-17T12:49:06Z</time>
      </trkpt>
      <trkpt lat="28.5803050" lon="-17.8150780">
        <ele>1328.2</ele>
        <time>2020-11-17T12:49:07Z</time>
      </trkpt>
      <trkpt lat="28.5803170" lon="-17.8149870">
        <ele>1328.3</ele>
        <time>2020-11-17T12:49:08Z</time>
      </trkpt>
      <trkpt lat="28.5803170" lon="-17.8149870">
        <ele>1328.3</ele>
        <time>2020-11-17T12:49:09Z</time>
      </trkpt>
      <trkpt lat="28.5803520" lon="-17.8149220">
        <ele>1328.3</ele>
        <time>2020-11-17T12:49:10Z</time>
      </trkpt>
      <trkpt lat="28.5803520" lon="-17.8149220">
        <ele>1328.3</ele>
        <time>2020-11-17T12:49:11Z</time>
      </trkpt>
      <trkpt lat="28.5803970" lon="-17.8148350">
        <ele>1328.3</ele>
        <time>2020-11-17T12:49:12Z</time>
      </trkpt>
      <trkpt lat="28.5803970" lon="-17.8148350">
        <ele>1328.3</ele>
        <time>2020-11-17T12:49:13Z</time>
      </trkpt>
      <trkpt lat="28.5804520" lon="-17.8147550">
        <ele>1328.4</ele>
        <time>2020-11-17T12:49:14Z</time>
      </trkpt>
      <trkpt lat="28.5804770" lon="-17.8147150">
        <ele>1328.5</ele>
        <time>2020-11-17T12:49:15Z</time>
      </trkpt>
      <trkpt lat="28.5804770" lon="-17.8147150">
        <ele>1328.5</ele>
        <time>2020-11-17T12:49:16Z</time>
      </trkpt>
      <trkpt lat="28.5805270" lon="-17.8146370">
        <ele>1328.6</ele>
        <time>2020-11-17T12:49:17Z</time>
      </trkpt>
      <trkpt lat="28.5805570" lon="-17.8146050">
        <ele>1328.7</ele>
        <time>2020-11-17T12:49:18Z</time>
      </trkpt>
      <trkpt lat="28.5805870" lon="-17.8145780">
        <ele>1328.8</ele>
        <time>2020-11-17T12:49:19Z</time>
      </trkpt>
      <trkpt lat="28.5805870" lon="-17.8145780">
        <ele>1328.8</ele>
        <time>2020-11-17T12:49:20Z</time>
      </trkpt>
      <trkpt lat="28.5806380" lon="-17.8145320">
        <ele>1329.0</ele>
        <time>2020-11-17T12:49:21Z</time>
      </trkpt>
      <trkpt lat="28.5806380" lon="-17.8145320">
        <ele>1329.0</ele>
        <time>2020-11-17T12:49:22Z</time>
      </trkpt>
      <trkpt lat="28.5806770" lon="-17.8144820">
        <ele>1329.3</ele>
        <time>2020-11-17T12:49:23Z</time>
      </trkpt>
      <trkpt lat="28.5807000" lon="-17.8144550">
        <ele>1329.4</ele>
        <time>2020-11-17T12:49:24Z</time>
      </trkpt>
      <trkpt lat="28.5807000" lon="-17.8144550">
        <ele>1329.4</ele>
        <time>2020-11-17T12:49:25Z</time>
      </trkpt>
      <trkpt lat="28.5807380" lon="-17.8144020">
        <ele>1329.6</ele>
        <time>2020-11-17T12:49:26Z</time>
      </trkpt>
      <trkpt lat="28.5807620" lon="-17.8143670">
        <ele>1329.8</ele>
        <time>2020-11-17T12:49:27Z</time>
      </trkpt>
      <trkpt lat="28.5807880" lon="-17.8143370">
        <ele>1330.0</ele>
        <time>2020-11-17T12:49:28Z</time>
      </trkpt>
      <trkpt lat="28.5807880" lon="-17.8143370">
        <ele>1330.0</ele>
        <time>2020-11-17T12:49:29Z</time>
      </trkpt>
      <trkpt lat="28.5808450" lon="-17.8143000">
        <ele>1330.2</ele>
        <time>2020-11-17T12:49:30Z</time>
      </trkpt>
      <trkpt lat="28.5808450" lon="-17.8143000">
        <ele>1330.2</ele>
        <time>2020-11-17T12:49:31Z</time>
      </trkpt>
      <trkpt lat="28.5808870" lon="-17.8142780">
        <ele>1330.4</ele>
        <time>2020-11-17T12:49:32Z</time>
      </trkpt>
      <trkpt lat="28.5808870" lon="-17.8142780">
        <ele>1330.4</ele>
        <time>2020-11-17T12:49:33Z</time>
      </trkpt>
      <trkpt lat="28.5809250" lon="-17.8142770">
        <ele>1330.6</ele>
        <time>2020-11-17T12:49:34Z</time>
      </trkpt>
      <trkpt lat="28.5809430" lon="-17.8142750">
        <ele>1330.7</ele>
        <time>2020-11-17T12:49:35Z</time>
      </trkpt>
      <trkpt lat="28.5809430" lon="-17.8142750">
        <ele>1330.7</ele>
        <time>2020-11-17T12:49:36Z</time>
      </trkpt>
      <trkpt lat="28.5809670" lon="-17.8142830">
        <ele>1330.8</ele>
        <time>2020-11-17T12:49:37Z</time>
      </trkpt>
      <trkpt lat="28.5809670" lon="-17.8142830">
        <ele>1330.8</ele>
        <time>2020-11-17T12:49:38Z</time>
      </trkpt>
      <trkpt lat="28.5809980" lon="-17.8142750">
        <ele>1331.0</ele>
        <time>2020-11-17T12:49:39Z</time>
      </trkpt>
      <trkpt lat="28.5810130" lon="-17.8142730">
        <ele>1331.0</ele>
        <time>2020-11-17T12:49:40Z</time>
      </trkpt>
      <trkpt lat="28.5810130" lon="-17.8142730">
        <ele>1331.0</ele>
        <time>2020-11-17T12:49:41Z</time>
      </trkpt>
      <trkpt lat="28.5810400" lon="-17.8142700">
        <ele>1331.2</ele>
        <time>2020-11-17T12:49:42Z</time>
      </trkpt>
      <trkpt lat="28.5810400" lon="-17.8142700">
        <ele>1331.2</ele>
        <time>2020-11-17T12:49:43Z</time>
      </trkpt>
      <trkpt lat="28.5810580" lon="-17.8142820">
        <ele>1331.3</ele>
        <time>2020-11-17T12:49:44Z</time>
      </trkpt>
      <trkpt lat="28.5810580" lon="-17.8142820">
        <ele>1331.3</ele>
        <time>2020-11-17T12:49:45Z</time>
      </trkpt>
      <trkpt lat="28.5810870" lon="-17.8142820">
        <ele>1331.4</ele>
        <time>2020-11-17T12:49:46Z</time>
      </trkpt>
      <trkpt lat="28.5811050" lon="-17.8142730">
        <ele>1331.5</ele>
        <time>2020-11-17T12:49:47Z</time>
      </trkpt>
      <trkpt lat="28.5811230" lon="-17.8142700">
        <ele>1331.6</ele>
        <time>2020-11-17T12:49:48Z</time>
      </trkpt>
      <trkpt lat="28.5811230" lon="-17.8142700">
        <ele>1331.6</ele>
        <time>2020-11-17T12:49:49Z</time>
      </trkpt>
      <trkpt lat="28.5811550" lon="-17.8142630">
        <ele>1331.7</ele>
        <time>2020-11-17T12:49:50Z</time>
      </trkpt>
      <trkpt lat="28.5811720" lon="-17.8142580">
        <ele>1331.8</ele>
        <time>2020-11-17T12:49:51Z</time>
      </trkpt>
      <trkpt lat="28.5811720" lon="-17.8142580">
        <ele>1331.8</ele>
        <time>2020-11-17T12:49:52Z</time>
      </trkpt>
      <trkpt lat="28.5812030" lon="-17.8142470">
        <ele>1331.9</ele>
        <time>2020-11-17T12:49:53Z</time>
      </trkpt>
      <trkpt lat="28.5812030" lon="-17.8142470">
        <ele>1331.9</ele>
        <time>2020-11-17T12:49:54Z</time>
      </trkpt>
      <trkpt lat="28.5812300" lon="-17.8142320">
        <ele>1332.1</ele>
        <time>2020-11-17T12:49:55Z</time>
      </trkpt>
      <trkpt lat="28.5812470" lon="-17.8142250">
        <ele>1332.1</ele>
        <time>2020-11-17T12:49:56Z</time>
      </trkpt>
      <trkpt lat="28.5812470" lon="-17.8142250">
        <ele>1332.1</ele>
        <time>2020-11-17T12:49:57Z</time>
      </trkpt>
      <trkpt lat="28.5812830" lon="-17.8142020">
        <ele>1332.3</ele>
        <time>2020-11-17T12:49:58Z</time>
      </trkpt>
      <trkpt lat="28.5812830" lon="-17.8142020">
        <ele>1332.3</ele>
        <time>2020-11-17T12:49:59Z</time>
      </trkpt>
      <trkpt lat="28.5813170" lon="-17.8141730">
        <ele>1332.5</ele>
        <time>2020-11-17T12:50:00Z</time>
      </trkpt>
      <trkpt lat="28.5813170" lon="-17.8141730">
        <ele>1332.5</ele>
        <time>2020-11-17T12:50:01Z</time>
      </trkpt>
      <trkpt lat="28.5813450" lon="-17.8141420">
        <ele>1332.6</ele>
        <time>2020-11-17T12:50:02Z</time>
      </trkpt>
      <trkpt lat="28.5813450" lon="-17.8141420">
        <ele>1332.6</ele>
        <time>2020-11-17T12:50:03Z</time>
      </trkpt>
      <trkpt lat="28.5813720" lon="-17.8141180">
        <ele>1332.7</ele>
        <time>2020-11-17T12:50:04Z</time>
      </trkpt>
      <trkpt lat="28.5813720" lon="-17.8141180">
        <ele>1332.7</ele>
        <time>2020-11-17T12:50:05Z</time>
      </trkpt>
      <trkpt lat="28.5814050" lon="-17.8140920">
        <ele>1332.9</ele>
        <time>2020-11-17T12:50:06Z</time>
      </trkpt>
      <trkpt lat="28.5814220" lon="-17.8140770">
        <ele>1333.0</ele>
        <time>2020-11-17T12:50:07Z</time>
      </trkpt>
      <trkpt lat="28.5814220" lon="-17.8140770">
        <ele>1333.0</ele>
        <time>2020-11-17T12:50:08Z</time>
      </trkpt>
      <trkpt lat="28.5814380" lon="-17.8140370">
        <ele>1333.1</ele>
        <time>2020-11-17T12:50:09Z</time>
      </trkpt>
      <trkpt lat="28.5814430" lon="-17.8140170">
        <ele>1333.1</ele>
        <time>2020-11-17T12:50:10Z</time>
      </trkpt>
      <trkpt lat="28.5814430" lon="-17.8140170">
        <ele>1333.1</ele>
        <time>2020-11-17T12:50:11Z</time>
      </trkpt>
      <trkpt lat="28.5814600" lon="-17.8139950">
        <ele>1333.2</ele>
        <time>2020-11-17T12:50:12Z</time>
      </trkpt>
      <trkpt lat="28.5814600" lon="-17.8139950">
        <ele>1333.2</ele>
        <time>2020-11-17T12:50:13Z</time>
      </trkpt>
      <trkpt lat="28.5814820" lon="-17.8139680">
        <ele>1333.3</ele>
        <time>2020-11-17T12:50:14Z</time>
      </trkpt>
      <trkpt lat="28.5814920" lon="-17.8139530">
        <ele>1333.3</ele>
        <time>2020-11-17T12:50:15Z</time>
      </trkpt>
      <trkpt lat="28.5814920" lon="-17.8139530">
        <ele>1333.3</ele>
        <time>2020-11-17T12:50:16Z</time>
      </trkpt>
      <trkpt lat="28.5815170" lon="-17.8139270">
        <ele>1333.4</ele>
        <time>2020-11-17T12:50:17Z</time>
      </trkpt>
      <trkpt lat="28.5815270" lon="-17.8139130">
        <ele>1333.4</ele>
        <time>2020-11-17T12:50:18Z</time>
      </trkpt>
      <trkpt lat="28.5815270" lon="-17.8139130">
        <ele>1333.4</ele>
        <time>2020-11-17T12:50:19Z</time>
      </trkpt>
      <trkpt lat="28.5815520" lon="-17.8138880">
        <ele>1333.4</ele>
        <time>2020-11-17T12:50:20Z</time>
      </trkpt>
      <trkpt lat="28.5815520" lon="-17.8138880">
        <ele>1333.4</ele>
        <time>2020-11-17T12:50:21Z</time>
      </trkpt>
      <trkpt lat="28.5815830" lon="-17.8138670">
        <ele>1333.5</ele>
        <time>2020-11-17T12:50:22Z</time>
      </trkpt>
      <trkpt lat="28.5815830" lon="-17.8138670">
        <ele>1333.5</ele>
        <time>2020-11-17T12:50:23Z</time>
      </trkpt>
      <trkpt lat="28.5816200" lon="-17.8138470">
        <ele>1333.4</ele>
        <time>2020-11-17T12:50:24Z</time>
      </trkpt>
      <trkpt lat="28.5816200" lon="-17.8138470">
        <ele>1333.4</ele>
        <time>2020-11-17T12:50:25Z</time>
      </trkpt>
      <trkpt lat="28.5816670" lon="-17.8138380">
        <ele>1333.4</ele>
        <time>2020-11-17T12:50:26Z</time>
      </trkpt>
      <trkpt lat="28.5816900" lon="-17.8138400">
        <ele>1333.4</ele>
        <time>2020-11-17T12:50:27Z</time>
      </trkpt>
      <trkpt lat="28.5816900" lon="-17.8138400">
        <ele>1333.4</ele>
        <time>2020-11-17T12:50:28Z</time>
      </trkpt>
      <trkpt lat="28.5817330" lon="-17.8138500">
        <ele>1333.3</ele>
        <time>2020-11-17T12:50:29Z</time>
      </trkpt>
      <trkpt lat="28.5817530" lon="-17.8138620">
        <ele>1333.3</ele>
        <time>2020-11-17T12:50:30Z</time>
      </trkpt>
      <trkpt lat="28.5817530" lon="-17.8138620">
        <ele>1333.3</ele>
        <time>2020-11-17T12:50:31Z</time>
      </trkpt>
      <trkpt lat="28.5817900" lon="-17.8138770">
        <ele>1333.3</ele>
        <time>2020-11-17T12:50:32Z</time>
      </trkpt>
      <trkpt lat="28.5817900" lon="-17.8138770">
        <ele>1333.3</ele>
        <time>2020-11-17T12:50:33Z</time>
      </trkpt>
      <trkpt lat="28.5818330" lon="-17.8138980">
        <ele>1333.2</ele>
        <time>2020-11-17T12:50:34Z</time>
      </trkpt>
      <trkpt lat="28.5818330" lon="-17.8138980">
        <ele>1333.2</ele>
        <time>2020-11-17T12:50:35Z</time>
      </trkpt>
      <trkpt lat="28.5818830" lon="-17.8139230">
        <ele>1333.2</ele>
        <time>2020-11-17T12:50:36Z</time>
      </trkpt>
      <trkpt lat="28.5819100" lon="-17.8139370">
        <ele>1333.2</ele>
        <time>2020-11-17T12:50:37Z</time>
      </trkpt>
      <trkpt lat="28.5819100" lon="-17.8139370">
        <ele>1333.2</ele>
        <time>2020-11-17T12:50:38Z</time>
      </trkpt>
      <trkpt lat="28.5819680" lon="-17.8139580">
        <ele>1333.3</ele>
        <time>2020-11-17T12:50:39Z</time>
      </trkpt>
      <trkpt lat="28.5819680" lon="-17.8139580">
        <ele>1333.3</ele>
        <time>2020-11-17T12:50:40Z</time>
      </trkpt>
      <trkpt lat="28.5820120" lon="-17.8139920">
        <ele>1333.3</ele>
        <time>2020-11-17T12:50:41Z</time>
      </trkpt>
      <trkpt lat="28.5820120" lon="-17.8139920">
        <ele>1333.3</ele>
        <time>2020-11-17T12:50:42Z</time>
      </trkpt>
      <trkpt lat="28.5820570" lon="-17.8140020">
        <ele>1333.3</ele>
        <time>2020-11-17T12:50:43Z</time>
      </trkpt>
      <trkpt lat="28.5820570" lon="-17.8140020">
        <ele>1333.3</ele>
        <time>2020-11-17T12:50:44Z</time>
      </trkpt>
      <trkpt lat="28.5820970" lon="-17.8140270">
        <ele>1333.3</ele>
        <time>2020-11-17T12:50:45Z</time>
      </trkpt>
      <trkpt lat="28.5821150" lon="-17.8140420">
        <ele>1333.2</ele>
        <time>2020-11-17T12:50:46Z</time>
      </trkpt>
      <trkpt lat="28.5821150" lon="-17.8140420">
        <ele>1333.2</ele>
        <time>2020-11-17T12:50:47Z</time>
      </trkpt>
      <trkpt lat="28.5821530" lon="-17.8140620">
        <ele>1333.2</ele>
        <time>2020-11-17T12:50:48Z</time>
      </trkpt>
      <trkpt lat="28.5821530" lon="-17.8140620">
        <ele>1333.2</ele>
        <time>2020-11-17T12:50:49Z</time>
      </trkpt>
      <trkpt lat="28.5822030" lon="-17.8140830">
        <ele>1333.1</ele>
        <time>2020-11-17T12:50:50Z</time>
      </trkpt>
      <trkpt lat="28.5822320" lon="-17.8140870">
        <ele>1333.0</ele>
        <time>2020-11-17T12:50:51Z</time>
      </trkpt>
      <trkpt lat="28.5822320" lon="-17.8140870">
        <ele>1333.0</ele>
        <time>2020-11-17T12:50:52Z</time>
      </trkpt>
      <trkpt lat="28.5822870" lon="-17.8140820">
        <ele>1332.9</ele>
        <time>2020-11-17T12:50:53Z</time>
      </trkpt>
      <trkpt lat="28.5823170" lon="-17.8140730">
        <ele>1332.7</ele>
        <time>2020-11-17T12:50:54Z</time>
      </trkpt>
      <trkpt lat="28.5823170" lon="-17.8140730">
        <ele>1332.7</ele>
        <time>2020-11-17T12:50:55Z</time>
      </trkpt>
      <trkpt lat="28.5823770" lon="-17.8140500">
        <ele>1332.5</ele>
        <time>2020-11-17T12:50:56Z</time>
      </trkpt>
      <trkpt lat="28.5823770" lon="-17.8140500">
        <ele>1332.5</ele>
        <time>2020-11-17T12:50:57Z</time>
      </trkpt>
      <trkpt lat="28.5824400" lon="-17.8140220">
        <ele>1332.1</ele>
        <time>2020-11-17T12:50:58Z</time>
      </trkpt>
      <trkpt lat="28.5824400" lon="-17.8140220">
        <ele>1332.1</ele>
        <time>2020-11-17T12:50:59Z</time>
      </trkpt>
      <trkpt lat="28.5825150" lon="-17.8140050">
        <ele>1331.8</ele>
        <time>2020-11-17T12:51:00Z</time>
      </trkpt>
      <trkpt lat="28.5825150" lon="-17.8140050">
        <ele>1331.8</ele>
        <time>2020-11-17T12:51:01Z</time>
      </trkpt>
      <trkpt lat="28.5825920" lon="-17.8140000">
        <ele>1331.4</ele>
        <time>2020-11-17T12:51:02Z</time>
      </trkpt>
      <trkpt lat="28.5825920" lon="-17.8140000">
        <ele>1331.4</ele>
        <time>2020-11-17T12:51:03Z</time>
      </trkpt>
      <trkpt lat="28.5826630" lon="-17.8139880">
        <ele>1331.1</ele>
        <time>2020-11-17T12:51:04Z</time>
      </trkpt>
      <trkpt lat="28.5826630" lon="-17.8139880">
        <ele>1331.1</ele>
        <time>2020-11-17T12:51:05Z</time>
      </trkpt>
      <trkpt lat="28.5827300" lon="-17.8139620">
        <ele>1330.9</ele>
        <time>2020-11-17T12:51:06Z</time>
      </trkpt>
      <trkpt lat="28.5827300" lon="-17.8139620">
        <ele>1330.9</ele>
        <time>2020-11-17T12:51:07Z</time>
      </trkpt>
      <trkpt lat="28.5827950" lon="-17.8139300">
        <ele>1330.6</ele>
        <time>2020-11-17T12:51:08Z</time>
      </trkpt>
      <trkpt lat="28.5827950" lon="-17.8139300">
        <ele>1330.6</ele>
        <time>2020-11-17T12:51:09Z</time>
      </trkpt>
      <trkpt lat="28.5828700" lon="-17.8138970">
        <ele>1330.3</ele>
        <time>2020-11-17T12:51:10Z</time>
      </trkpt>
      <trkpt lat="28.5829050" lon="-17.8138800">
        <ele>1330.2</ele>
        <time>2020-11-17T12:51:11Z</time>
      </trkpt>
      <trkpt lat="28.5829050" lon="-17.8138800">
        <ele>1330.2</ele>
        <time>2020-11-17T12:51:12Z</time>
      </trkpt>
      <trkpt lat="28.5829730" lon="-17.8138550">
        <ele>1329.9</ele>
        <time>2020-11-17T12:51:13Z</time>
      </trkpt>
      <trkpt lat="28.5829730" lon="-17.8138550">
        <ele>1329.9</ele>
        <time>2020-11-17T12:51:14Z</time>
      </trkpt>
      <trkpt lat="28.5830380" lon="-17.8138320">
        <ele>1329.6</ele>
        <time>2020-11-17T12:51:15Z</time>
      </trkpt>
      <trkpt lat="28.5830750" lon="-17.8138170">
        <ele>1329.4</ele>
        <time>2020-11-17T12:51:16Z</time>
      </trkpt>
      <trkpt lat="28.5830750" lon="-17.8138170">
        <ele>1329.4</ele>
        <time>2020-11-17T12:51:17Z</time>
      </trkpt>
      <trkpt lat="28.5831500" lon="-17.8138050">
        <ele>1329.0</ele>
        <time>2020-11-17T12:51:18Z</time>
      </trkpt>
      <trkpt lat="28.5831500" lon="-17.8138050">
        <ele>1329.0</ele>
        <time>2020-11-17T12:51:19Z</time>
      </trkpt>
      <trkpt lat="28.5832200" lon="-17.8138050">
        <ele>1328.6</ele>
        <time>2020-11-17T12:51:20Z</time>
      </trkpt>
      <trkpt lat="28.5832580" lon="-17.8138070">
        <ele>1328.4</ele>
        <time>2020-11-17T12:51:21Z</time>
      </trkpt>
      <trkpt lat="28.5832580" lon="-17.8138070">
        <ele>1328.4</ele>
        <time>2020-11-17T12:51:22Z</time>
      </trkpt>
      <trkpt lat="28.5833300" lon="-17.8138180">
        <ele>1328.1</ele>
        <time>2020-11-17T12:51:23Z</time>
      </trkpt>
      <trkpt lat="28.5833620" lon="-17.8138300">
        <ele>1327.9</ele>
        <time>2020-11-17T12:51:24Z</time>
      </trkpt>
      <trkpt lat="28.5833620" lon="-17.8138300">
        <ele>1327.9</ele>
        <time>2020-11-17T12:51:25Z</time>
      </trkpt>
      <trkpt lat="28.5834230" lon="-17.8138750">
        <ele>1327.6</ele>
        <time>2020-11-17T12:51:26Z</time>
      </trkpt>
      <trkpt lat="28.5834570" lon="-17.8139080">
        <ele>1327.4</ele>
        <time>2020-11-17T12:51:27Z</time>
      </trkpt>
      <trkpt lat="28.5834570" lon="-17.8139080">
        <ele>1327.4</ele>
        <time>2020-11-17T12:51:28Z</time>
      </trkpt>
      <trkpt lat="28.5835270" lon="-17.8139770">
        <ele>1327.0</ele>
        <time>2020-11-17T12:51:29Z</time>
      </trkpt>
      <trkpt lat="28.5835270" lon="-17.8139770">
        <ele>1327.0</ele>
        <time>2020-11-17T12:51:30Z</time>
      </trkpt>
      <trkpt lat="28.5835970" lon="-17.8140250">
        <ele>1326.8</ele>
        <time>2020-11-17T12:51:31Z</time>
      </trkpt>
      <trkpt lat="28.5836320" lon="-17.8140380">
        <ele>1326.7</ele>
        <time>2020-11-17T12:51:32Z</time>
      </trkpt>
      <trkpt lat="28.5836320" lon="-17.8140380">
        <ele>1326.7</ele>
        <time>2020-11-17T12:51:33Z</time>
      </trkpt>
      <trkpt lat="28.5837020" lon="-17.8140370">
        <ele>1326.6</ele>
        <time>2020-11-17T12:51:34Z</time>
      </trkpt>
      <trkpt lat="28.5837350" lon="-17.8140300">
        <ele>1326.6</ele>
        <time>2020-11-17T12:51:35Z</time>
      </trkpt>
      <trkpt lat="28.5837620" lon="-17.8140120">
        <ele>1326.6</ele>
        <time>2020-11-17T12:51:36Z</time>
      </trkpt>
      <trkpt lat="28.5837620" lon="-17.8140120">
        <ele>1326.6</ele>
        <time>2020-11-17T12:51:37Z</time>
      </trkpt>
      <trkpt lat="28.5838080" lon="-17.8139680">
        <ele>1326.7</ele>
        <time>2020-11-17T12:51:38Z</time>
      </trkpt>
      <trkpt lat="28.5838320" lon="-17.8139420">
        <ele>1326.7</ele>
        <time>2020-11-17T12:51:39Z</time>
      </trkpt>
      <trkpt lat="28.5838320" lon="-17.8139420">
        <ele>1326.7</ele>
        <time>2020-11-17T12:51:40Z</time>
      </trkpt>
      <trkpt lat="28.5838750" lon="-17.8138900">
        <ele>1326.7</ele>
        <time>2020-11-17T12:51:41Z</time>
      </trkpt>
      <trkpt lat="28.5838750" lon="-17.8138900">
        <ele>1326.7</ele>
        <time>2020-11-17T12:51:42Z</time>
      </trkpt>
      <trkpt lat="28.5839150" lon="-17.8138450">
        <ele>1326.7</ele>
        <time>2020-11-17T12:51:43Z</time>
      </trkpt>
      <trkpt lat="28.5839380" lon="-17.8138300">
        <ele>1326.6</ele>
        <time>2020-11-17T12:51:44Z</time>
      </trkpt>
      <trkpt lat="28.5839650" lon="-17.8138170">
        <ele>1326.5</ele>
        <time>2020-11-17T12:51:45Z</time>
      </trkpt>
      <trkpt lat="28.5839650" lon="-17.8138170">
        <ele>1326.5</ele>
        <time>2020-11-17T12:51:46Z</time>
      </trkpt>
      <trkpt lat="28.5840100" lon="-17.8138080">
        <ele>1326.3</ele>
        <time>2020-11-17T12:51:47Z</time>
      </trkpt>
      <trkpt lat="28.5840350" lon="-17.8138130">
        <ele>1326.1</ele>
        <time>2020-11-17T12:51:48Z</time>
      </trkpt>
      <trkpt lat="28.5840350" lon="-17.8138130">
        <ele>1326.1</ele>
        <time>2020-11-17T12:51:49Z</time>
      </trkpt>
      <trkpt lat="28.5840850" lon="-17.8138320">
        <ele>1325.7</ele>
        <time>2020-11-17T12:51:50Z</time>
      </trkpt>
      <trkpt lat="28.5840850" lon="-17.8138320">
        <ele>1325.7</ele>
        <time>2020-11-17T12:51:51Z</time>
      </trkpt>
      <trkpt lat="28.5841450" lon="-17.8138750">
        <ele>1325.2</ele>
        <time>2020-11-17T12:51:52Z</time>
      </trkpt>
      <trkpt lat="28.5841450" lon="-17.8138750">
        <ele>1325.2</ele>
        <time>2020-11-17T12:51:53Z</time>
      </trkpt>
      <trkpt lat="28.5842100" lon="-17.8139380">
        <ele>1324.5</ele>
        <time>2020-11-17T12:51:54Z</time>
      </trkpt>
      <trkpt lat="28.5842100" lon="-17.8139380">
        <ele>1324.5</ele>
        <time>2020-11-17T12:51:55Z</time>
      </trkpt>
      <trkpt lat="28.5842770" lon="-17.8140000">
        <ele>1323.9</ele>
        <time>2020-11-17T12:51:56Z</time>
      </trkpt>
      <trkpt lat="28.5843100" lon="-17.8140270">
        <ele>1323.7</ele>
        <time>2020-11-17T12:51:57Z</time>
      </trkpt>
      <trkpt lat="28.5843100" lon="-17.8140270">
        <ele>1323.7</ele>
        <time>2020-11-17T12:51:58Z</time>
      </trkpt>
      <trkpt lat="28.5843870" lon="-17.8140780">
        <ele>1323.2</ele>
        <time>2020-11-17T12:51:59Z</time>
      </trkpt>
      <trkpt lat="28.5843870" lon="-17.8140780">
        <ele>1323.2</ele>
        <time>2020-11-17T12:52:00Z</time>
      </trkpt>
      <trkpt lat="28.5844620" lon="-17.8141370">
        <ele>1322.9</ele>
        <time>2020-11-17T12:52:01Z</time>
      </trkpt>
      <trkpt lat="28.5844620" lon="-17.8141370">
        <ele>1322.9</ele>
        <time>2020-11-17T12:52:02Z</time>
      </trkpt>
      <trkpt lat="28.5845320" lon="-17.8141800">
        <ele>1322.7</ele>
        <time>2020-11-17T12:52:03Z</time>
      </trkpt>
      <trkpt lat="28.5845670" lon="-17.8141970">
        <ele>1322.6</ele>
        <time>2020-11-17T12:52:04Z</time>
      </trkpt>
      <trkpt lat="28.5845670" lon="-17.8141970">
        <ele>1322.6</ele>
        <time>2020-11-17T12:52:05Z</time>
      </trkpt>
      <trkpt lat="28.5846370" lon="-17.8142200">
        <ele>1322.4</ele>
        <time>2020-11-17T12:52:06Z</time>
      </trkpt>
      <trkpt lat="28.5846370" lon="-17.8142200">
        <ele>1322.4</ele>
        <time>2020-11-17T12:52:07Z</time>
      </trkpt>
      <trkpt lat="28.5846980" lon="-17.8142230">
        <ele>1322.2</ele>
        <time>2020-11-17T12:52:08Z</time>
      </trkpt>
      <trkpt lat="28.5846980" lon="-17.8142230">
        <ele>1322.2</ele>
        <time>2020-11-17T12:52:09Z</time>
      </trkpt>
      <trkpt lat="28.5847720" lon="-17.8142180">
        <ele>1322.2</ele>
        <time>2020-11-17T12:52:10Z</time>
      </trkpt>
      <trkpt lat="28.5847720" lon="-17.8142180">
        <ele>1322.2</ele>
        <time>2020-11-17T12:52:11Z</time>
      </trkpt>
      <trkpt lat="28.5848620" lon="-17.8142170">
        <ele>1322.3</ele>
        <time>2020-11-17T12:52:12Z</time>
      </trkpt>
      <trkpt lat="28.5848620" lon="-17.8142170">
        <ele>1322.3</ele>
        <time>2020-11-17T12:52:13Z</time>
      </trkpt>
      <trkpt lat="28.5849750" lon="-17.8142180">
        <ele>1322.4</ele>
        <time>2020-11-17T12:52:14Z</time>
      </trkpt>
      <trkpt lat="28.5850270" lon="-17.8142270">
        <ele>1322.4</ele>
        <time>2020-11-17T12:52:15Z</time>
      </trkpt>
      <trkpt lat="28.5850270" lon="-17.8142270">
        <ele>1322.4</ele>
        <time>2020-11-17T12:52:16Z</time>
      </trkpt>
      <trkpt lat="28.5851250" lon="-17.8142330">
        <ele>1322.2</ele>
        <time>2020-11-17T12:52:17Z</time>
      </trkpt>
      <trkpt lat="28.5851630" lon="-17.8142400">
        <ele>1322.1</ele>
        <time>2020-11-17T12:52:18Z</time>
      </trkpt>
      <trkpt lat="28.5851630" lon="-17.8142400">
        <ele>1322.1</ele>
        <time>2020-11-17T12:52:19Z</time>
      </trkpt>
      <trkpt lat="28.5852220" lon="-17.8142450">
        <ele>1322.0</ele>
        <time>2020-11-17T12:52:20Z</time>
      </trkpt>
      <trkpt lat="28.5852220" lon="-17.8142450">
        <ele>1322.0</ele>
        <time>2020-11-17T12:52:21Z</time>
      </trkpt>
      <trkpt lat="28.5852820" lon="-17.8142620">
        <ele>1321.9</ele>
        <time>2020-11-17T12:52:22Z</time>
      </trkpt>
      <trkpt lat="28.5853070" lon="-17.8142730">
        <ele>1321.8</ele>
        <time>2020-11-17T12:52:23Z</time>
      </trkpt>
      <trkpt lat="28.5853330" lon="-17.8142830">
        <ele>1321.8</ele>
        <time>2020-11-17T12:52:24Z</time>
      </trkpt>
      <trkpt lat="28.5853330" lon="-17.8142830">
        <ele>1321.8</ele>
        <time>2020-11-17T12:52:25Z</time>
      </trkpt>
      <trkpt lat="28.5853830" lon="-17.8143070">
        <ele>1321.7</ele>
        <time>2020-11-17T12:52:26Z</time>
      </trkpt>
      <trkpt lat="28.5853830" lon="-17.8143070">
        <ele>1321.7</ele>
        <time>2020-11-17T12:52:27Z</time>
      </trkpt>
      <trkpt lat="28.5854350" lon="-17.8143350">
        <ele>1321.6</ele>
        <time>2020-11-17T12:52:28Z</time>
      </trkpt>
      <trkpt lat="28.5854350" lon="-17.8143350">
        <ele>1321.6</ele>
        <time>2020-11-17T12:52:29Z</time>
      </trkpt>
      <trkpt lat="28.5854850" lon="-17.8143700">
        <ele>1321.7</ele>
        <time>2020-11-17T12:52:30Z</time>
      </trkpt>
      <trkpt lat="28.5854850" lon="-17.8143700">
        <ele>1321.7</ele>
        <time>2020-11-17T12:52:31Z</time>
      </trkpt>
      <trkpt lat="28.5855380" lon="-17.8144000">
        <ele>1321.7</ele>
        <time>2020-11-17T12:52:32Z</time>
      </trkpt>
      <trkpt lat="28.5855730" lon="-17.8144170">
        <ele>1321.8</ele>
        <time>2020-11-17T12:52:33Z</time>
      </trkpt>
      <trkpt lat="28.5855730" lon="-17.8144170">
        <ele>1321.8</ele>
        <time>2020-11-17T12:52:34Z</time>
      </trkpt>
      <trkpt lat="28.5856450" lon="-17.8144520">
        <ele>1321.9</ele>
        <time>2020-11-17T12:52:35Z</time>
      </trkpt>
      <trkpt lat="28.5856830" lon="-17.8144650">
        <ele>1321.7</ele>
        <time>2020-11-17T12:52:36Z</time>
      </trkpt>
      <trkpt lat="28.5856830" lon="-17.8144650">
        <ele>1321.7</ele>
        <time>2020-11-17T12:52:37Z</time>
      </trkpt>
      <trkpt lat="28.5857500" lon="-17.8144950">
        <ele>1321.4</ele>
        <time>2020-11-17T12:52:38Z</time>
      </trkpt>
      <trkpt lat="28.5857500" lon="-17.8144950">
        <ele>1321.4</ele>
        <time>2020-11-17T12:52:39Z</time>
      </trkpt>
      <trkpt lat="28.5858170" lon="-17.8145070">
        <ele>1321.1</ele>
        <time>2020-11-17T12:52:40Z</time>
      </trkpt>
      <trkpt lat="28.5858170" lon="-17.8145070">
        <ele>1321.1</ele>
        <time>2020-11-17T12:52:41Z</time>
      </trkpt>
      <trkpt lat="28.5858920" lon="-17.8145250">
        <ele>1320.7</ele>
        <time>2020-11-17T12:52:42Z</time>
      </trkpt>
      <trkpt lat="28.5858920" lon="-17.8145250">
        <ele>1320.7</ele>
        <time>2020-11-17T12:52:43Z</time>
      </trkpt>
      <trkpt lat="28.5859820" lon="-17.8145600">
        <ele>1320.3</ele>
        <time>2020-11-17T12:52:44Z</time>
      </trkpt>
      <trkpt lat="28.5859820" lon="-17.8145600">
        <ele>1320.3</ele>
        <time>2020-11-17T12:52:45Z</time>
      </trkpt>
      <trkpt lat="28.5860630" lon="-17.8146000">
        <ele>1320.2</ele>
        <time>2020-11-17T12:52:46Z</time>
      </trkpt>
      <trkpt lat="28.5861020" lon="-17.8146170">
        <ele>1320.2</ele>
        <time>2020-11-17T12:52:47Z</time>
      </trkpt>
      <trkpt lat="28.5861020" lon="-17.8146170">
        <ele>1320.2</ele>
        <time>2020-11-17T12:52:48Z</time>
      </trkpt>
      <trkpt lat="28.5861700" lon="-17.8146380">
        <ele>1320.2</ele>
        <time>2020-11-17T12:52:49Z</time>
      </trkpt>
      <trkpt lat="28.5861700" lon="-17.8146380">
        <ele>1320.2</ele>
        <time>2020-11-17T12:52:50Z</time>
      </trkpt>
      <trkpt lat="28.5862320" lon="-17.8146380">
        <ele>1320.4</ele>
        <time>2020-11-17T12:52:51Z</time>
      </trkpt>
      <trkpt lat="28.5862320" lon="-17.8146380">
        <ele>1320.4</ele>
        <time>2020-11-17T12:52:52Z</time>
      </trkpt>
      <trkpt lat="28.5862800" lon="-17.8146480">
        <ele>1320.5</ele>
        <time>2020-11-17T12:52:53Z</time>
      </trkpt>
      <trkpt lat="28.5863000" lon="-17.8146530">
        <ele>1320.6</ele>
        <time>2020-11-17T12:52:54Z</time>
      </trkpt>
      <trkpt lat="28.5863000" lon="-17.8146530">
        <ele>1320.6</ele>
        <time>2020-11-17T12:52:55Z</time>
      </trkpt>
      <trkpt lat="28.5863420" lon="-17.8146670">
        <ele>1320.7</ele>
        <time>2020-11-17T12:52:56Z</time>
      </trkpt>
      <trkpt lat="28.5863420" lon="-17.8146670">
        <ele>1320.7</ele>
        <time>2020-11-17T12:52:57Z</time>
      </trkpt>
      <trkpt lat="28.5863850" lon="-17.8146820">
        <ele>1320.9</ele>
        <time>2020-11-17T12:52:58Z</time>
      </trkpt>
      <trkpt lat="28.5863850" lon="-17.8146820">
        <ele>1320.9</ele>
        <time>2020-11-17T12:52:59Z</time>
      </trkpt>
      <trkpt lat="28.5864200" lon="-17.8146880">
        <ele>1321.1</ele>
        <time>2020-11-17T12:53:00Z</time>
      </trkpt>
      <trkpt lat="28.5864200" lon="-17.8146880">
        <ele>1321.1</ele>
        <time>2020-11-17T12:53:01Z</time>
      </trkpt>
      <trkpt lat="28.5864350" lon="-17.8146970">
        <ele>1321.1</ele>
        <time>2020-11-17T12:53:02Z</time>
      </trkpt>
      <trkpt lat="28.5864350" lon="-17.8146970">
        <ele>1321.1</ele>
        <time>2020-11-17T12:53:03Z</time>
      </trkpt>
      <trkpt lat="28.5864350" lon="-17.8146970">
        <ele>1321.1</ele>
        <time>2020-11-17T12:53:13Z</time>
      </trkpt>
      <trkpt lat="28.5865000" lon="-17.8147470">
        <ele>1321.8</ele>
        <time>2020-11-17T12:53:14Z</time>
      </trkpt>
      <trkpt lat="28.5865000" lon="-17.8147470">
        <ele>1321.8</ele>
        <time>2020-11-17T12:53:15Z</time>
      </trkpt>
      <trkpt lat="28.5865170" lon="-17.8147600">
        <ele>1322.0</ele>
        <time>2020-11-17T12:53:16Z</time>
      </trkpt>
      <trkpt lat="28.5865170" lon="-17.8147600">
        <ele>1322.0</ele>
        <time>2020-11-17T12:53:17Z</time>
      </trkpt>
      <trkpt lat="28.5865330" lon="-17.8147750">
        <ele>1322.2</ele>
        <time>2020-11-17T12:53:18Z</time>
      </trkpt>
      <trkpt lat="28.5865330" lon="-17.8147750">
        <ele>1322.2</ele>
        <time>2020-11-17T12:53:19Z</time>
      </trkpt>
      <trkpt lat="28.5865480" lon="-17.8147920">
        <ele>1322.4</ele>
        <time>2020-11-17T12:53:20Z</time>
      </trkpt>
      <trkpt lat="28.5865480" lon="-17.8147920">
        <ele>1322.4</ele>
        <time>2020-11-17T12:53:21Z</time>
      </trkpt>
      <trkpt lat="28.5865650" lon="-17.8148130">
        <ele>1322.5</ele>
        <time>2020-11-17T12:53:22Z</time>
      </trkpt>
      <trkpt lat="28.5865650" lon="-17.8148130">
        <ele>1322.5</ele>
        <time>2020-11-17T12:53:23Z</time>
      </trkpt>
      <trkpt lat="28.5865830" lon="-17.8148320">
        <ele>1322.7</ele>
        <time>2020-11-17T12:53:24Z</time>
      </trkpt>
      <trkpt lat="28.5865830" lon="-17.8148320">
        <ele>1322.7</ele>
        <time>2020-11-17T12:53:25Z</time>
      </trkpt>
      <trkpt lat="28.5866000" lon="-17.8148530">
        <ele>1322.9</ele>
        <time>2020-11-17T12:53:26Z</time>
      </trkpt>
      <trkpt lat="28.5866000" lon="-17.8148530">
        <ele>1322.9</ele>
        <time>2020-11-17T12:53:27Z</time>
      </trkpt>
      <trkpt lat="28.5866170" lon="-17.8148720">
        <ele>1323.0</ele>
        <time>2020-11-17T12:53:28Z</time>
      </trkpt>
      <trkpt lat="28.5866170" lon="-17.8148720">
        <ele>1323.0</ele>
        <time>2020-11-17T12:53:29Z</time>
      </trkpt>
      <trkpt lat="28.5866330" lon="-17.8148930">
        <ele>1323.2</ele>
        <time>2020-11-17T12:53:30Z</time>
      </trkpt>
      <trkpt lat="28.5866330" lon="-17.8148930">
        <ele>1323.2</ele>
        <time>2020-11-17T12:53:31Z</time>
      </trkpt>
      <trkpt lat="28.5866500" lon="-17.8149120">
        <ele>1323.3</ele>
        <time>2020-11-17T12:53:32Z</time>
      </trkpt>
      <trkpt lat="28.5866580" lon="-17.8149230">
        <ele>1323.4</ele>
        <time>2020-11-17T12:53:33Z</time>
      </trkpt>
      <trkpt lat="28.5866580" lon="-17.8149230">
        <ele>1323.4</ele>
        <time>2020-11-17T12:53:34Z</time>
      </trkpt>
      <trkpt lat="28.5866720" lon="-17.8149350">
        <ele>1323.5</ele>
        <time>2020-11-17T12:53:35Z</time>
      </trkpt>
      <trkpt lat="28.5866780" lon="-17.8149420">
        <ele>1323.5</ele>
        <time>2020-11-17T12:53:36Z</time>
      </trkpt>
      <trkpt lat="28.5866870" lon="-17.8149450">
        <ele>1323.6</ele>
        <time>2020-11-17T12:53:37Z</time>
      </trkpt>
      <trkpt lat="28.5866870" lon="-17.8149450">
        <ele>1323.6</ele>
        <time>2020-11-17T12:53:38Z</time>
      </trkpt>
      <trkpt lat="28.5867020" lon="-17.8149570">
        <ele>1323.7</ele>
        <time>2020-11-17T12:53:39Z</time>
      </trkpt>
      <trkpt lat="28.5867020" lon="-17.8149570">
        <ele>1323.7</ele>
        <time>2020-11-17T12:53:40Z</time>
      </trkpt>
      <trkpt lat="28.5867180" lon="-17.8149620">
        <ele>1323.7</ele>
        <time>2020-11-17T12:53:41Z</time>
      </trkpt>
      <trkpt lat="28.5867280" lon="-17.8149650">
        <ele>1323.8</ele>
        <time>2020-11-17T12:53:42Z</time>
      </trkpt>
      <trkpt lat="28.5867330" lon="-17.8149680">
        <ele>1323.8</ele>
        <time>2020-11-17T12:53:43Z</time>
      </trkpt>
      <trkpt lat="28.5867400" lon="-17.8149700">
        <ele>1323.8</ele>
        <time>2020-11-17T12:53:44Z</time>
      </trkpt>
      <trkpt lat="28.5867400" lon="-17.8149700">
        <ele>1323.8</ele>
        <time>2020-11-17T12:53:45Z</time>
      </trkpt>
      <trkpt lat="28.5867500" lon="-17.8149820">
        <ele>1323.9</ele>
        <time>2020-11-17T12:53:46Z</time>
      </trkpt>
      <trkpt lat="28.5867500" lon="-17.8149820">
        <ele>1323.9</ele>
        <time>2020-11-17T12:53:47Z</time>
      </trkpt>
      <trkpt lat="28.5867580" lon="-17.8150050">
        <ele>1323.9</ele>
        <time>2020-11-17T12:53:48Z</time>
      </trkpt>
      <trkpt lat="28.5867600" lon="-17.8150070">
        <ele>1324.0</ele>
        <time>2020-11-17T12:53:49Z</time>
      </trkpt>
      <trkpt lat="28.5867600" lon="-17.8150070">
        <ele>1324.0</ele>
        <time>2020-11-17T12:54:14Z</time>
      </trkpt>
      <trkpt lat="28.5867600" lon="-17.8150070">
        <ele>1324.0</ele>
        <time>2020-11-17T12:54:15Z</time>
      </trkpt>
      <trkpt lat="28.5868350" lon="-17.8150330">
        <ele>1324.1</ele>
        <time>2020-11-17T12:54:16Z</time>
      </trkpt>
      <trkpt lat="28.5868350" lon="-17.8150330">
        <ele>1324.1</ele>
        <time>2020-11-17T12:54:17Z</time>
      </trkpt>
      <trkpt lat="28.5868770" lon="-17.8150570">
        <ele>1324.2</ele>
        <time>2020-11-17T12:54:18Z</time>
      </trkpt>
      <trkpt lat="28.5868930" lon="-17.8150750">
        <ele>1324.2</ele>
        <time>2020-11-17T12:54:19Z</time>
      </trkpt>
      <trkpt lat="28.5868930" lon="-17.8150750">
        <ele>1324.2</ele>
        <time>2020-11-17T12:54:20Z</time>
      </trkpt>
      <trkpt lat="28.5869150" lon="-17.8151150">
        <ele>1324.1</ele>
        <time>2020-11-17T12:54:21Z</time>
      </trkpt>
      <trkpt lat="28.5869150" lon="-17.8151150">
        <ele>1324.1</ele>
        <time>2020-11-17T12:54:22Z</time>
      </trkpt>
      <trkpt lat="28.5869420" lon="-17.8151570">
        <ele>1324.0</ele>
        <time>2020-11-17T12:54:23Z</time>
      </trkpt>
      <trkpt lat="28.5869420" lon="-17.8151570">
        <ele>1324.0</ele>
        <time>2020-11-17T12:54:24Z</time>
      </trkpt>
      <trkpt lat="28.5869820" lon="-17.8152020">
        <ele>1323.9</ele>
        <time>2020-11-17T12:54:25Z</time>
      </trkpt>
      <trkpt lat="28.5869820" lon="-17.8152020">
        <ele>1323.9</ele>
        <time>2020-11-17T12:54:26Z</time>
      </trkpt>
      <trkpt lat="28.5870270" lon="-17.8152350">
        <ele>1323.7</ele>
        <time>2020-11-17T12:54:27Z</time>
      </trkpt>
      <trkpt lat="28.5870500" lon="-17.8152480">
        <ele>1323.6</ele>
        <time>2020-11-17T12:54:28Z</time>
      </trkpt>
      <trkpt lat="28.5870500" lon="-17.8152480">
        <ele>1323.6</ele>
        <time>2020-11-17T12:54:29Z</time>
      </trkpt>
      <trkpt lat="28.5871080" lon="-17.8152600">
        <ele>1323.4</ele>
        <time>2020-11-17T12:54:30Z</time>
      </trkpt>
      <trkpt lat="28.5871080" lon="-17.8152600">
        <ele>1323.4</ele>
        <time>2020-11-17T12:54:31Z</time>
      </trkpt>
      <trkpt lat="28.5871720" lon="-17.8152470">
        <ele>1323.1</ele>
        <time>2020-11-17T12:54:32Z</time>
      </trkpt>
      <trkpt lat="28.5871720" lon="-17.8152470">
        <ele>1323.1</ele>
        <time>2020-11-17T12:54:33Z</time>
      </trkpt>
      <trkpt lat="28.5872280" lon="-17.8152370">
        <ele>1322.7</ele>
        <time>2020-11-17T12:54:34Z</time>
      </trkpt>
      <trkpt lat="28.5872280" lon="-17.8152370">
        <ele>1322.7</ele>
        <time>2020-11-17T12:54:35Z</time>
      </trkpt>
      <trkpt lat="28.5872870" lon="-17.8152280">
        <ele>1322.2</ele>
        <time>2020-11-17T12:54:36Z</time>
      </trkpt>
      <trkpt lat="28.5872870" lon="-17.8152280">
        <ele>1322.2</ele>
        <time>2020-11-17T12:54:37Z</time>
      </trkpt>
      <trkpt lat="28.5873600" lon="-17.8152330">
        <ele>1321.6</ele>
        <time>2020-11-17T12:54:38Z</time>
      </trkpt>
      <trkpt lat="28.5873930" lon="-17.8152470">
        <ele>1321.3</ele>
        <time>2020-11-17T12:54:39Z</time>
      </trkpt>
      <trkpt lat="28.5873930" lon="-17.8152470">
        <ele>1321.3</ele>
        <time>2020-11-17T12:54:40Z</time>
      </trkpt>
      <trkpt lat="28.5874480" lon="-17.8153000">
        <ele>1320.8</ele>
        <time>2020-11-17T12:54:41Z</time>
      </trkpt>
      <trkpt lat="28.5874720" lon="-17.8153380">
        <ele>1320.5</ele>
        <time>2020-11-17T12:54:42Z</time>
      </trkpt>
      <trkpt lat="28.5874720" lon="-17.8153380">
        <ele>1320.5</ele>
        <time>2020-11-17T12:54:43Z</time>
      </trkpt>
      <trkpt lat="28.5875180" lon="-17.8154100">
        <ele>1320.2</ele>
        <time>2020-11-17T12:54:44Z</time>
      </trkpt>
      <trkpt lat="28.5875180" lon="-17.8154100">
        <ele>1320.2</ele>
        <time>2020-11-17T12:54:45Z</time>
      </trkpt>
      <trkpt lat="28.5875900" lon="-17.8154400">
        <ele>1320.0</ele>
        <time>2020-11-17T12:54:46Z</time>
      </trkpt>
      <trkpt lat="28.5875900" lon="-17.8154400">
        <ele>1320.0</ele>
        <time>2020-11-17T12:54:47Z</time>
      </trkpt>
      <trkpt lat="28.5876650" lon="-17.8154300">
        <ele>1319.8</ele>
        <time>2020-11-17T12:54:48Z</time>
      </trkpt>
      <trkpt lat="28.5876650" lon="-17.8154300">
        <ele>1319.8</ele>
        <time>2020-11-17T12:54:49Z</time>
      </trkpt>
      <trkpt lat="28.5877320" lon="-17.8154470">
        <ele>1319.7</ele>
        <time>2020-11-17T12:54:50Z</time>
      </trkpt>
      <trkpt lat="28.5877550" lon="-17.8154680">
        <ele>1319.6</ele>
        <time>2020-11-17T12:54:51Z</time>
      </trkpt>
      <trkpt lat="28.5877550" lon="-17.8154680">
        <ele>1319.6</ele>
        <time>2020-11-17T12:54:52Z</time>
      </trkpt>
      <trkpt lat="28.5877870" lon="-17.8155230">
        <ele>1319.5</ele>
        <time>2020-11-17T12:54:53Z</time>
      </trkpt>
      <trkpt lat="28.5877870" lon="-17.8155230">
        <ele>1319.5</ele>
        <time>2020-11-17T12:54:54Z</time>
      </trkpt>
      <trkpt lat="28.5878070" lon="-17.8155850">
        <ele>1319.3</ele>
        <time>2020-11-17T12:54:55Z</time>
      </trkpt>
      <trkpt lat="28.5878070" lon="-17.8155850">
        <ele>1319.3</ele>
        <time>2020-11-17T12:54:56Z</time>
      </trkpt>
      <trkpt lat="28.5878230" lon="-17.8156580">
        <ele>1319.0</ele>
        <time>2020-11-17T12:54:57Z</time>
      </trkpt>
      <trkpt lat="28.5878230" lon="-17.8156580">
        <ele>1319.0</ele>
        <time>2020-11-17T12:54:58Z</time>
      </trkpt>
      <trkpt lat="28.5878500" lon="-17.8157250">
        <ele>1318.7</ele>
        <time>2020-11-17T12:54:59Z</time>
      </trkpt>
      <trkpt lat="28.5878500" lon="-17.8157250">
        <ele>1318.7</ele>
        <time>2020-11-17T12:55:00Z</time>
      </trkpt>
      <trkpt lat="28.5878970" lon="-17.8157370">
        <ele>1318.4</ele>
        <time>2020-11-17T12:55:01Z</time>
      </trkpt>
      <trkpt lat="28.5879180" lon="-17.8157270">
        <ele>1318.2</ele>
        <time>2020-11-17T12:55:02Z</time>
      </trkpt>
      <trkpt lat="28.5879180" lon="-17.8157270">
        <ele>1318.2</ele>
        <time>2020-11-17T12:55:03Z</time>
      </trkpt>
      <trkpt lat="28.5879500" lon="-17.8156780">
        <ele>1317.7</ele>
        <time>2020-11-17T12:55:04Z</time>
      </trkpt>
      <trkpt lat="28.5879620" lon="-17.8156450">
        <ele>1317.4</ele>
        <time>2020-11-17T12:55:05Z</time>
      </trkpt>
      <trkpt lat="28.5879730" lon="-17.8156100">
        <ele>1317.1</ele>
        <time>2020-11-17T12:55:06Z</time>
      </trkpt>
      <trkpt lat="28.5879730" lon="-17.8156100">
        <ele>1317.1</ele>
        <time>2020-11-17T12:55:07Z</time>
      </trkpt>
      <trkpt lat="28.5880100" lon="-17.8155470">
        <ele>1316.3</ele>
        <time>2020-11-17T12:55:08Z</time>
      </trkpt>
      <trkpt lat="28.5880370" lon="-17.8155230">
        <ele>1315.8</ele>
        <time>2020-11-17T12:55:09Z</time>
      </trkpt>
      <trkpt lat="28.5880370" lon="-17.8155230">
        <ele>1315.8</ele>
        <time>2020-11-17T12:55:10Z</time>
      </trkpt>
      <trkpt lat="28.5880930" lon="-17.8154820">
        <ele>1315.0</ele>
        <time>2020-11-17T12:55:11Z</time>
      </trkpt>
      <trkpt lat="28.5881170" lon="-17.8154580">
        <ele>1314.7</ele>
        <time>2020-11-17T12:55:12Z</time>
      </trkpt>
      <trkpt lat="28.5881430" lon="-17.8154320">
        <ele>1314.3</ele>
        <time>2020-11-17T12:55:13Z</time>
      </trkpt>
      <trkpt lat="28.5881430" lon="-17.8154320">
        <ele>1314.3</ele>
        <time>2020-11-17T12:55:14Z</time>
      </trkpt>
      <trkpt lat="28.5882030" lon="-17.8153700">
        <ele>1313.5</ele>
        <time>2020-11-17T12:55:15Z</time>
      </trkpt>
      <trkpt lat="28.5882280" lon="-17.8153430">
        <ele>1313.1</ele>
        <time>2020-11-17T12:55:16Z</time>
      </trkpt>
      <trkpt lat="28.5882280" lon="-17.8153430">
        <ele>1313.1</ele>
        <time>2020-11-17T12:55:17Z</time>
      </trkpt>
      <trkpt lat="28.5882850" lon="-17.8152930">
        <ele>1312.5</ele>
        <time>2020-11-17T12:55:18Z</time>
      </trkpt>
      <trkpt lat="28.5882850" lon="-17.8152930">
        <ele>1312.5</ele>
        <time>2020-11-17T12:55:19Z</time>
      </trkpt>
      <trkpt lat="28.5883550" lon="-17.8152650">
        <ele>1311.9</ele>
        <time>2020-11-17T12:55:20Z</time>
      </trkpt>
      <trkpt lat="28.5883550" lon="-17.8152650">
        <ele>1311.9</ele>
        <time>2020-11-17T12:55:21Z</time>
      </trkpt>
      <trkpt lat="28.5884320" lon="-17.8152800">
        <ele>1311.3</ele>
        <time>2020-11-17T12:55:22Z</time>
      </trkpt>
      <trkpt lat="28.5884630" lon="-17.8152970">
        <ele>1311.0</ele>
        <time>2020-11-17T12:55:23Z</time>
      </trkpt>
      <trkpt lat="28.5884880" lon="-17.8153180">
        <ele>1310.8</ele>
        <time>2020-11-17T12:55:24Z</time>
      </trkpt>
      <trkpt lat="28.5884880" lon="-17.8153180">
        <ele>1310.8</ele>
        <time>2020-11-17T12:55:25Z</time>
      </trkpt>
      <trkpt lat="28.5885300" lon="-17.8153620">
        <ele>1310.5</ele>
        <time>2020-11-17T12:55:26Z</time>
      </trkpt>
      <trkpt lat="28.5885450" lon="-17.8153850">
        <ele>1310.4</ele>
        <time>2020-11-17T12:55:27Z</time>
      </trkpt>
      <trkpt lat="28.5885450" lon="-17.8153850">
        <ele>1310.4</ele>
        <time>2020-11-17T12:55:28Z</time>
      </trkpt>
      <trkpt lat="28.5885900" lon="-17.8154250">
        <ele>1310.3</ele>
        <time>2020-11-17T12:55:29Z</time>
      </trkpt>
      <trkpt lat="28.5885900" lon="-17.8154250">
        <ele>1310.3</ele>
        <time>2020-11-17T12:55:30Z</time>
      </trkpt>
      <trkpt lat="28.5886480" lon="-17.8154450">
        <ele>1310.2</ele>
        <time>2020-11-17T12:55:31Z</time>
      </trkpt>
      <trkpt lat="28.5886480" lon="-17.8154450">
        <ele>1310.2</ele>
        <time>2020-11-17T12:55:32Z</time>
      </trkpt>
      <trkpt lat="28.5886880" lon="-17.8154230">
        <ele>1310.1</ele>
        <time>2020-11-17T12:55:33Z</time>
      </trkpt>
      <trkpt lat="28.5886980" lon="-17.8154000">
        <ele>1310.1</ele>
        <time>2020-11-17T12:55:34Z</time>
      </trkpt>
      <trkpt lat="28.5886980" lon="-17.8154000">
        <ele>1310.1</ele>
        <time>2020-11-17T12:55:35Z</time>
      </trkpt>
      <trkpt lat="28.5887020" lon="-17.8153470">
        <ele>1310.1</ele>
        <time>2020-11-17T12:55:36Z</time>
      </trkpt>
      <trkpt lat="28.5887020" lon="-17.8153470">
        <ele>1310.1</ele>
        <time>2020-11-17T12:55:37Z</time>
      </trkpt>
      <trkpt lat="28.5887000" lon="-17.8152880">
        <ele>1310.1</ele>
        <time>2020-11-17T12:55:38Z</time>
      </trkpt>
      <trkpt lat="28.5887000" lon="-17.8152630">
        <ele>1310.1</ele>
        <time>2020-11-17T12:55:39Z</time>
      </trkpt>
      <trkpt lat="28.5887000" lon="-17.8152630">
        <ele>1310.1</ele>
        <time>2020-11-17T12:55:40Z</time>
      </trkpt>
      <trkpt lat="28.5887030" lon="-17.8152180">
        <ele>1310.0</ele>
        <time>2020-11-17T12:55:41Z</time>
      </trkpt>
      <trkpt lat="28.5887030" lon="-17.8151950">
        <ele>1310.0</ele>
        <time>2020-11-17T12:55:42Z</time>
      </trkpt>
      <trkpt lat="28.5887030" lon="-17.8151950">
        <ele>1310.0</ele>
        <time>2020-11-17T12:55:43Z</time>
      </trkpt>
      <trkpt lat="28.5887130" lon="-17.8151480">
        <ele>1309.9</ele>
        <time>2020-11-17T12:55:44Z</time>
      </trkpt>
      <trkpt lat="28.5887130" lon="-17.8151480">
        <ele>1309.9</ele>
        <time>2020-11-17T12:55:45Z</time>
      </trkpt>
      <trkpt lat="28.5887300" lon="-17.8151020">
        <ele>1309.9</ele>
        <time>2020-11-17T12:55:46Z</time>
      </trkpt>
      <trkpt lat="28.5887300" lon="-17.8151020">
        <ele>1309.9</ele>
        <time>2020-11-17T12:55:47Z</time>
      </trkpt>
      <trkpt lat="28.5887570" lon="-17.8150530">
        <ele>1309.8</ele>
        <time>2020-11-17T12:55:48Z</time>
      </trkpt>
      <trkpt lat="28.5887570" lon="-17.8150530">
        <ele>1309.8</ele>
        <time>2020-11-17T12:55:49Z</time>
      </trkpt>
      <trkpt lat="28.5888000" lon="-17.8149980">
        <ele>1309.8</ele>
        <time>2020-11-17T12:55:50Z</time>
      </trkpt>
      <trkpt lat="28.5888000" lon="-17.8149980">
        <ele>1309.8</ele>
        <time>2020-11-17T12:55:51Z</time>
      </trkpt>
      <trkpt lat="28.5888480" lon="-17.8149300">
        <ele>1309.8</ele>
        <time>2020-11-17T12:55:52Z</time>
      </trkpt>
      <trkpt lat="28.5888480" lon="-17.8149300">
        <ele>1309.8</ele>
        <time>2020-11-17T12:55:53Z</time>
      </trkpt>
      <trkpt lat="28.5888750" lon="-17.8148530">
        <ele>1309.9</ele>
        <time>2020-11-17T12:55:54Z</time>
      </trkpt>
      <trkpt lat="28.5888820" lon="-17.8148180">
        <ele>1309.9</ele>
        <time>2020-11-17T12:55:55Z</time>
      </trkpt>
      <trkpt lat="28.5888820" lon="-17.8148180">
        <ele>1309.9</ele>
        <time>2020-11-17T12:55:56Z</time>
      </trkpt>
      <trkpt lat="28.5888930" lon="-17.8147630">
        <ele>1310.0</ele>
        <time>2020-11-17T12:55:57Z</time>
      </trkpt>
      <trkpt lat="28.5888930" lon="-17.8147630">
        <ele>1310.0</ele>
        <time>2020-11-17T12:55:58Z</time>
      </trkpt>
      <trkpt lat="28.5889050" lon="-17.8147120">
        <ele>1310.2</ele>
        <time>2020-11-17T12:55:59Z</time>
      </trkpt>
      <trkpt lat="28.5889050" lon="-17.8147120">
        <ele>1310.2</ele>
        <time>2020-11-17T12:56:00Z</time>
      </trkpt>
      <trkpt lat="28.5889250" lon="-17.8146600">
        <ele>1310.3</ele>
        <time>2020-11-17T12:56:01Z</time>
      </trkpt>
      <trkpt lat="28.5889250" lon="-17.8146600">
        <ele>1310.3</ele>
        <time>2020-11-17T12:56:02Z</time>
      </trkpt>
      <trkpt lat="28.5889570" lon="-17.8146130">
        <ele>1310.4</ele>
        <time>2020-11-17T12:56:03Z</time>
      </trkpt>
      <trkpt lat="28.5889570" lon="-17.8146130">
        <ele>1310.4</ele>
        <time>2020-11-17T12:56:04Z</time>
      </trkpt>
      <trkpt lat="28.5889880" lon="-17.8145600">
        <ele>1310.5</ele>
        <time>2020-11-17T12:56:05Z</time>
      </trkpt>
      <trkpt lat="28.5890030" lon="-17.8145370">
        <ele>1310.5</ele>
        <time>2020-11-17T12:56:06Z</time>
      </trkpt>
      <trkpt lat="28.5890030" lon="-17.8145370">
        <ele>1310.5</ele>
        <time>2020-11-17T12:56:07Z</time>
      </trkpt>
      <trkpt lat="28.5890400" lon="-17.8144900">
        <ele>1310.6</ele>
        <time>2020-11-17T12:56:08Z</time>
      </trkpt>
      <trkpt lat="28.5890400" lon="-17.8144900">
        <ele>1310.6</ele>
        <time>2020-11-17T12:56:09Z</time>
      </trkpt>
      <trkpt lat="28.5890770" lon="-17.8144450">
        <ele>1310.6</ele>
        <time>2020-11-17T12:56:10Z</time>
      </trkpt>
      <trkpt lat="28.5890930" lon="-17.8144230">
        <ele>1310.5</ele>
        <time>2020-11-17T12:56:11Z</time>
      </trkpt>
      <trkpt lat="28.5890930" lon="-17.8144230">
        <ele>1310.5</ele>
        <time>2020-11-17T12:56:12Z</time>
      </trkpt>
      <trkpt lat="28.5891230" lon="-17.8143850">
        <ele>1310.5</ele>
        <time>2020-11-17T12:56:13Z</time>
      </trkpt>
      <trkpt lat="28.5891230" lon="-17.8143850">
        <ele>1310.5</ele>
        <time>2020-11-17T12:56:14Z</time>
      </trkpt>
      <trkpt lat="28.5891580" lon="-17.8143520">
        <ele>1310.4</ele>
        <time>2020-11-17T12:56:15Z</time>
      </trkpt>
      <trkpt lat="28.5891580" lon="-17.8143520">
        <ele>1310.4</ele>
        <time>2020-11-17T12:56:16Z</time>
      </trkpt>
      <trkpt lat="28.5891970" lon="-17.8143170">
        <ele>1310.2</ele>
        <time>2020-11-17T12:56:17Z</time>
      </trkpt>
      <trkpt lat="28.5892150" lon="-17.8142980">
        <ele>1310.1</ele>
        <time>2020-11-17T12:56:18Z</time>
      </trkpt>
      <trkpt lat="28.5892150" lon="-17.8142980">
        <ele>1310.1</ele>
        <time>2020-11-17T12:56:19Z</time>
      </trkpt>
      <trkpt lat="28.5892530" lon="-17.8142550">
        <ele>1309.9</ele>
        <time>2020-11-17T12:56:20Z</time>
      </trkpt>
      <trkpt lat="28.5892530" lon="-17.8142550">
        <ele>1309.9</ele>
        <time>2020-11-17T12:56:21Z</time>
      </trkpt>
      <trkpt lat="28.5892980" lon="-17.8142080">
        <ele>1309.6</ele>
        <time>2020-11-17T12:56:22Z</time>
      </trkpt>
      <trkpt lat="28.5892980" lon="-17.8142080">
        <ele>1309.6</ele>
        <time>2020-11-17T12:56:23Z</time>
      </trkpt>
      <trkpt lat="28.5893650" lon="-17.8141600">
        <ele>1309.3</ele>
        <time>2020-11-17T12:56:24Z</time>
      </trkpt>
      <trkpt lat="28.5893650" lon="-17.8141600">
        <ele>1309.3</ele>
        <time>2020-11-17T12:56:25Z</time>
      </trkpt>
      <trkpt lat="28.5894430" lon="-17.8141100">
        <ele>1309.0</ele>
        <time>2020-11-17T12:56:26Z</time>
      </trkpt>
      <trkpt lat="28.5894830" lon="-17.8140920">
        <ele>1308.9</ele>
        <time>2020-11-17T12:56:27Z</time>
      </trkpt>
      <trkpt lat="28.5895220" lon="-17.8140720">
        <ele>1308.8</ele>
        <time>2020-11-17T12:56:28Z</time>
      </trkpt>
      <trkpt lat="28.5895220" lon="-17.8140720">
        <ele>1308.8</ele>
        <time>2020-11-17T12:56:29Z</time>
      </trkpt>
      <trkpt lat="28.5895920" lon="-17.8140270">
        <ele>1308.6</ele>
        <time>2020-11-17T12:56:30Z</time>
      </trkpt>
      <trkpt lat="28.5895920" lon="-17.8140270">
        <ele>1308.6</ele>
        <time>2020-11-17T12:56:31Z</time>
      </trkpt>
      <trkpt lat="28.5896650" lon="-17.8139730">
        <ele>1308.4</ele>
        <time>2020-11-17T12:56:32Z</time>
      </trkpt>
      <trkpt lat="28.5896950" lon="-17.8139420">
        <ele>1308.4</ele>
        <time>2020-11-17T12:56:33Z</time>
      </trkpt>
      <trkpt lat="28.5896950" lon="-17.8139420">
        <ele>1308.4</ele>
        <time>2020-11-17T12:56:34Z</time>
      </trkpt>
      <trkpt lat="28.5897520" lon="-17.8138830">
        <ele>1308.5</ele>
        <time>2020-11-17T12:56:35Z</time>
      </trkpt>
      <trkpt lat="28.5897780" lon="-17.8138550">
        <ele>1308.5</ele>
        <time>2020-11-17T12:56:36Z</time>
      </trkpt>
      <trkpt lat="28.5897780" lon="-17.8138550">
        <ele>1308.5</ele>
        <time>2020-11-17T12:56:37Z</time>
      </trkpt>
      <trkpt lat="28.5898420" lon="-17.8138000">
        <ele>1308.5</ele>
        <time>2020-11-17T12:56:38Z</time>
      </trkpt>
      <trkpt lat="28.5898420" lon="-17.8138000">
        <ele>1308.5</ele>
        <time>2020-11-17T12:56:39Z</time>
      </trkpt>
      <trkpt lat="28.5899150" lon="-17.8137620">
        <ele>1308.5</ele>
        <time>2020-11-17T12:56:40Z</time>
      </trkpt>
      <trkpt lat="28.5899550" lon="-17.8137480">
        <ele>1308.5</ele>
        <time>2020-11-17T12:56:41Z</time>
      </trkpt>
      <trkpt lat="28.5899550" lon="-17.8137480">
        <ele>1308.5</ele>
        <time>2020-11-17T12:56:42Z</time>
      </trkpt>
      <trkpt lat="28.5900420" lon="-17.8137280">
        <ele>1308.6</ele>
        <time>2020-11-17T12:56:43Z</time>
      </trkpt>
      <trkpt lat="28.5900420" lon="-17.8137280">
        <ele>1308.6</ele>
        <time>2020-11-17T12:56:44Z</time>
      </trkpt>
      <trkpt lat="28.5901350" lon="-17.8137050">
        <ele>1308.6</ele>
        <time>2020-11-17T12:56:45Z</time>
      </trkpt>
      <trkpt lat="28.5901350" lon="-17.8137050">
        <ele>1308.6</ele>
        <time>2020-11-17T12:56:46Z</time>
      </trkpt>
      <trkpt lat="28.5902180" lon="-17.8136730">
        <ele>1308.6</ele>
        <time>2020-11-17T12:56:47Z</time>
      </trkpt>
      <trkpt lat="28.5902180" lon="-17.8136730">
        <ele>1308.6</ele>
        <time>2020-11-17T12:56:48Z</time>
      </trkpt>
      <trkpt lat="28.5902980" lon="-17.8136270">
        <ele>1308.6</ele>
        <time>2020-11-17T12:56:49Z</time>
      </trkpt>
      <trkpt lat="28.5902980" lon="-17.8136270">
        <ele>1308.6</ele>
        <time>2020-11-17T12:56:50Z</time>
      </trkpt>
      <trkpt lat="28.5903720" lon="-17.8135680">
        <ele>1308.7</ele>
        <time>2020-11-17T12:56:51Z</time>
      </trkpt>
      <trkpt lat="28.5903720" lon="-17.8135680">
        <ele>1308.7</ele>
        <time>2020-11-17T12:56:52Z</time>
      </trkpt>
      <trkpt lat="28.5904350" lon="-17.8134930">
        <ele>1308.8</ele>
        <time>2020-11-17T12:56:53Z</time>
      </trkpt>
      <trkpt lat="28.5904720" lon="-17.8134630">
        <ele>1308.9</ele>
        <time>2020-11-17T12:56:54Z</time>
      </trkpt>
      <trkpt lat="28.5904720" lon="-17.8134630">
        <ele>1308.9</ele>
        <time>2020-11-17T12:56:55Z</time>
      </trkpt>
      <trkpt lat="28.5905430" lon="-17.8134150">
        <ele>1309.3</ele>
        <time>2020-11-17T12:56:56Z</time>
      </trkpt>
      <trkpt lat="28.5905800" lon="-17.8133950">
        <ele>1309.5</ele>
        <time>2020-11-17T12:56:57Z</time>
      </trkpt>
      <trkpt lat="28.5905800" lon="-17.8133950">
        <ele>1309.5</ele>
        <time>2020-11-17T12:56:58Z</time>
      </trkpt>
      <trkpt lat="28.5906480" lon="-17.8133670">
        <ele>1309.9</ele>
        <time>2020-11-17T12:56:59Z</time>
      </trkpt>
      <trkpt lat="28.5906780" lon="-17.8133530">
        <ele>1310.1</ele>
        <time>2020-11-17T12:57:00Z</time>
      </trkpt>
      <trkpt lat="28.5906780" lon="-17.8133530">
        <ele>1310.1</ele>
        <time>2020-11-17T12:57:01Z</time>
      </trkpt>
      <trkpt lat="28.5907320" lon="-17.8133330">
        <ele>1310.4</ele>
        <time>2020-11-17T12:57:02Z</time>
      </trkpt>
      <trkpt lat="28.5907320" lon="-17.8133330">
        <ele>1310.4</ele>
        <time>2020-11-17T12:57:03Z</time>
      </trkpt>
      <trkpt lat="28.5907630" lon="-17.8133180">
        <ele>1310.6</ele>
        <time>2020-11-17T12:57:04Z</time>
      </trkpt>
      <trkpt lat="28.5907630" lon="-17.8133180">
        <ele>1310.6</ele>
        <time>2020-11-17T12:57:05Z</time>
      </trkpt>
      <trkpt lat="28.5908030" lon="-17.8133120">
        <ele>1310.8</ele>
        <time>2020-11-17T12:57:06Z</time>
      </trkpt>
      <trkpt lat="28.5908030" lon="-17.8133120">
        <ele>1310.8</ele>
        <time>2020-11-17T12:57:07Z</time>
      </trkpt>
      <trkpt lat="28.5908480" lon="-17.8133120">
        <ele>1310.9</ele>
        <time>2020-11-17T12:57:08Z</time>
      </trkpt>
      <trkpt lat="28.5908680" lon="-17.8133120">
        <ele>1311.0</ele>
        <time>2020-11-17T12:57:09Z</time>
      </trkpt>
      <trkpt lat="28.5908900" lon="-17.8133130">
        <ele>1311.0</ele>
        <time>2020-11-17T12:57:10Z</time>
      </trkpt>
      <trkpt lat="28.5909170" lon="-17.8133150">
        <ele>1311.1</ele>
        <time>2020-11-17T12:57:11Z</time>
      </trkpt>
      <trkpt lat="28.5909170" lon="-17.8133150">
        <ele>1311.1</ele>
        <time>2020-11-17T12:57:12Z</time>
      </trkpt>
      <trkpt lat="28.5909750" lon="-17.8133170">
        <ele>1311.1</ele>
        <time>2020-11-17T12:57:13Z</time>
      </trkpt>
      <trkpt lat="28.5910070" lon="-17.8133150">
        <ele>1311.2</ele>
        <time>2020-11-17T12:57:14Z</time>
      </trkpt>
      <trkpt lat="28.5910400" lon="-17.8133120">
        <ele>1311.2</ele>
        <time>2020-11-17T12:57:15Z</time>
      </trkpt>
      <trkpt lat="28.5910400" lon="-17.8133120">
        <ele>1311.2</ele>
        <time>2020-11-17T12:57:16Z</time>
      </trkpt>
      <trkpt lat="28.5911150" lon="-17.8133030">
        <ele>1311.3</ele>
        <time>2020-11-17T12:57:17Z</time>
      </trkpt>
      <trkpt lat="28.5911150" lon="-17.8133030">
        <ele>1311.3</ele>
        <time>2020-11-17T12:57:18Z</time>
      </trkpt>
      <trkpt lat="28.5911920" lon="-17.8132920">
        <ele>1311.4</ele>
        <time>2020-11-17T12:57:19Z</time>
      </trkpt>
      <trkpt lat="28.5912280" lon="-17.8132780">
        <ele>1311.5</ele>
        <time>2020-11-17T12:57:20Z</time>
      </trkpt>
      <trkpt lat="28.5912280" lon="-17.8132780">
        <ele>1311.5</ele>
        <time>2020-11-17T12:57:21Z</time>
      </trkpt>
      <trkpt lat="28.5912870" lon="-17.8132130">
        <ele>1311.8</ele>
        <time>2020-11-17T12:57:22Z</time>
      </trkpt>
      <trkpt lat="28.5913000" lon="-17.8131750">
        <ele>1312.0</ele>
        <time>2020-11-17T12:57:23Z</time>
      </trkpt>
      <trkpt lat="28.5913100" lon="-17.8131370">
        <ele>1312.2</ele>
        <time>2020-11-17T12:57:24Z</time>
      </trkpt>
      <trkpt lat="28.5913100" lon="-17.8131370">
        <ele>1312.2</ele>
        <time>2020-11-17T12:57:25Z</time>
      </trkpt>
      <trkpt lat="28.5913220" lon="-17.8130700">
        <ele>1312.5</ele>
        <time>2020-11-17T12:57:26Z</time>
      </trkpt>
      <trkpt lat="28.5913220" lon="-17.8130700">
        <ele>1312.5</ele>
        <time>2020-11-17T12:57:27Z</time>
      </trkpt>
      <trkpt lat="28.5913330" lon="-17.8130120">
        <ele>1312.9</ele>
        <time>2020-11-17T12:57:28Z</time>
      </trkpt>
      <trkpt lat="28.5913330" lon="-17.8130120">
        <ele>1312.9</ele>
        <time>2020-11-17T12:57:29Z</time>
      </trkpt>
      <trkpt lat="28.5913430" lon="-17.8129550">
        <ele>1313.3</ele>
        <time>2020-11-17T12:57:30Z</time>
      </trkpt>
      <trkpt lat="28.5913430" lon="-17.8129550">
        <ele>1313.3</ele>
        <time>2020-11-17T12:57:31Z</time>
      </trkpt>
      <trkpt lat="28.5913550" lon="-17.8129080">
        <ele>1313.6</ele>
        <time>2020-11-17T12:57:32Z</time>
      </trkpt>
      <trkpt lat="28.5913620" lon="-17.8128870">
        <ele>1313.8</ele>
        <time>2020-11-17T12:57:33Z</time>
      </trkpt>
      <trkpt lat="28.5913680" lon="-17.8128680">
        <ele>1313.9</ele>
        <time>2020-11-17T12:57:34Z</time>
      </trkpt>
      <trkpt lat="28.5913730" lon="-17.8128500">
        <ele>1314.1</ele>
        <time>2020-11-17T12:57:35Z</time>
      </trkpt>
      <trkpt lat="28.5913730" lon="-17.8128500">
        <ele>1314.1</ele>
        <time>2020-11-17T12:57:36Z</time>
      </trkpt>
      <trkpt lat="28.5913820" lon="-17.8128130">
        <ele>1314.3</ele>
        <time>2020-11-17T12:57:37Z</time>
      </trkpt>
      <trkpt lat="28.5913820" lon="-17.8128130">
        <ele>1314.3</ele>
        <time>2020-11-17T12:57:38Z</time>
      </trkpt>
      <trkpt lat="28.5913920" lon="-17.8127700">
        <ele>1314.6</ele>
        <time>2020-11-17T12:57:39Z</time>
      </trkpt>
      <trkpt lat="28.5913920" lon="-17.8127700">
        <ele>1314.6</ele>
        <time>2020-11-17T12:57:40Z</time>
      </trkpt>
      <trkpt lat="28.5914100" lon="-17.8127320">
        <ele>1314.9</ele>
        <time>2020-11-17T12:57:41Z</time>
      </trkpt>
      <trkpt lat="28.5914250" lon="-17.8127130">
        <ele>1315.1</ele>
        <time>2020-11-17T12:57:42Z</time>
      </trkpt>
      <trkpt lat="28.5914250" lon="-17.8127130">
        <ele>1315.1</ele>
        <time>2020-11-17T12:57:43Z</time>
      </trkpt>
      <trkpt lat="28.5914580" lon="-17.8126800">
        <ele>1315.4</ele>
        <time>2020-11-17T12:57:44Z</time>
      </trkpt>
      <trkpt lat="28.5914770" lon="-17.8126670">
        <ele>1315.6</ele>
        <time>2020-11-17T12:57:45Z</time>
      </trkpt>
      <trkpt lat="28.5914770" lon="-17.8126670">
        <ele>1315.6</ele>
        <time>2020-11-17T12:57:46Z</time>
      </trkpt>
      <trkpt lat="28.5915050" lon="-17.8126370">
        <ele>1315.9</ele>
        <time>2020-11-17T12:57:47Z</time>
      </trkpt>
      <trkpt lat="28.5915050" lon="-17.8126370">
        <ele>1315.9</ele>
        <time>2020-11-17T12:57:48Z</time>
      </trkpt>
      <trkpt lat="28.5915330" lon="-17.8126150">
        <ele>1316.1</ele>
        <time>2020-11-17T12:57:49Z</time>
      </trkpt>
      <trkpt lat="28.5915330" lon="-17.8126150">
        <ele>1316.1</ele>
        <time>2020-11-17T12:57:50Z</time>
      </trkpt>
      <trkpt lat="28.5915750" lon="-17.8126100">
        <ele>1316.3</ele>
        <time>2020-11-17T12:57:51Z</time>
      </trkpt>
      <trkpt lat="28.5915750" lon="-17.8126100">
        <ele>1316.3</ele>
        <time>2020-11-17T12:57:52Z</time>
      </trkpt>
      <trkpt lat="28.5916200" lon="-17.8126180">
        <ele>1316.6</ele>
        <time>2020-11-17T12:57:53Z</time>
      </trkpt>
      <trkpt lat="28.5916200" lon="-17.8126180">
        <ele>1316.6</ele>
        <time>2020-11-17T12:57:54Z</time>
      </trkpt>
      <trkpt lat="28.5916620" lon="-17.8126330">
        <ele>1316.8</ele>
        <time>2020-11-17T12:57:55Z</time>
      </trkpt>
      <trkpt lat="28.5916830" lon="-17.8126430">
        <ele>1317.0</ele>
        <time>2020-11-17T12:57:56Z</time>
      </trkpt>
      <trkpt lat="28.5916830" lon="-17.8126430">
        <ele>1317.0</ele>
        <time>2020-11-17T12:57:57Z</time>
      </trkpt>
      <trkpt lat="28.5917200" lon="-17.8126620">
        <ele>1317.3</ele>
        <time>2020-11-17T12:57:58Z</time>
      </trkpt>
      <trkpt lat="28.5917200" lon="-17.8126620">
        <ele>1317.3</ele>
        <time>2020-11-17T12:57:59Z</time>
      </trkpt>
      <trkpt lat="28.5917570" lon="-17.8126780">
        <ele>1317.6</ele>
        <time>2020-11-17T12:58:00Z</time>
      </trkpt>
      <trkpt lat="28.5917570" lon="-17.8126780">
        <ele>1317.6</ele>
        <time>2020-11-17T12:58:01Z</time>
      </trkpt>
      <trkpt lat="28.5917920" lon="-17.8126900">
        <ele>1317.9</ele>
        <time>2020-11-17T12:58:02Z</time>
      </trkpt>
      <trkpt lat="28.5918070" lon="-17.8126950">
        <ele>1318.0</ele>
        <time>2020-11-17T12:58:03Z</time>
      </trkpt>
      <trkpt lat="28.5918070" lon="-17.8126950">
        <ele>1318.0</ele>
        <time>2020-11-17T12:58:04Z</time>
      </trkpt>
      <trkpt lat="28.5918400" lon="-17.8127050">
        <ele>1318.3</ele>
        <time>2020-11-17T12:58:05Z</time>
      </trkpt>
      <trkpt lat="28.5918530" lon="-17.8127100">
        <ele>1318.5</ele>
        <time>2020-11-17T12:58:06Z</time>
      </trkpt>
      <trkpt lat="28.5918530" lon="-17.8127100">
        <ele>1318.5</ele>
        <time>2020-11-17T12:58:07Z</time>
      </trkpt>
      <trkpt lat="28.5918830" lon="-17.8127170">
        <ele>1318.7</ele>
        <time>2020-11-17T12:58:08Z</time>
      </trkpt>
      <trkpt lat="28.5918970" lon="-17.8127150">
        <ele>1318.9</ele>
        <time>2020-11-17T12:58:09Z</time>
      </trkpt>
      <trkpt lat="28.5918970" lon="-17.8127150">
        <ele>1318.9</ele>
        <time>2020-11-17T12:58:10Z</time>
      </trkpt>
      <trkpt lat="28.5919180" lon="-17.8127120">
        <ele>1319.1</ele>
        <time>2020-11-17T12:58:11Z</time>
      </trkpt>
      <trkpt lat="28.5919180" lon="-17.8127120">
        <ele>1319.1</ele>
        <time>2020-11-17T12:58:12Z</time>
      </trkpt>
      <trkpt lat="28.5919470" lon="-17.8127080">
        <ele>1319.3</ele>
        <time>2020-11-17T12:58:13Z</time>
      </trkpt>
      <trkpt lat="28.5919470" lon="-17.8127080">
        <ele>1319.3</ele>
        <time>2020-11-17T12:58:14Z</time>
      </trkpt>
      <trkpt lat="28.5919800" lon="-17.8127100">
        <ele>1319.6</ele>
        <time>2020-11-17T12:58:15Z</time>
      </trkpt>
      <trkpt lat="28.5919980" lon="-17.8127120">
        <ele>1319.8</ele>
        <time>2020-11-17T12:58:16Z</time>
      </trkpt>
      <trkpt lat="28.5919980" lon="-17.8127120">
        <ele>1319.8</ele>
        <time>2020-11-17T12:58:17Z</time>
      </trkpt>
      <trkpt lat="28.5920400" lon="-17.8127170">
        <ele>1320.2</ele>
        <time>2020-11-17T12:58:18Z</time>
      </trkpt>
      <trkpt lat="28.5920400" lon="-17.8127170">
        <ele>1320.2</ele>
        <time>2020-11-17T12:58:19Z</time>
      </trkpt>
      <trkpt lat="28.5920720" lon="-17.8127150">
        <ele>1320.5</ele>
        <time>2020-11-17T12:58:20Z</time>
      </trkpt>
      <trkpt lat="28.5920720" lon="-17.8127150">
        <ele>1320.5</ele>
        <time>2020-11-17T12:58:21Z</time>
      </trkpt>
      <trkpt lat="28.5921050" lon="-17.8127230">
        <ele>1320.8</ele>
        <time>2020-11-17T12:58:22Z</time>
      </trkpt>
      <trkpt lat="28.5921050" lon="-17.8127230">
        <ele>1320.8</ele>
        <time>2020-11-17T12:58:23Z</time>
      </trkpt>
      <trkpt lat="28.5921350" lon="-17.8127250">
        <ele>1321.1</ele>
        <time>2020-11-17T12:58:24Z</time>
      </trkpt>
      <trkpt lat="28.5921350" lon="-17.8127250">
        <ele>1321.1</ele>
        <time>2020-11-17T12:58:25Z</time>
      </trkpt>
      <trkpt lat="28.5921650" lon="-17.8127280">
        <ele>1321.4</ele>
        <time>2020-11-17T12:58:26Z</time>
      </trkpt>
      <trkpt lat="28.5921650" lon="-17.8127280">
        <ele>1321.4</ele>
        <time>2020-11-17T12:58:27Z</time>
      </trkpt>
      <trkpt lat="28.5921950" lon="-17.8127350">
        <ele>1321.7</ele>
        <time>2020-11-17T12:58:28Z</time>
      </trkpt>
      <trkpt lat="28.5921950" lon="-17.8127350">
        <ele>1321.7</ele>
        <time>2020-11-17T12:58:29Z</time>
      </trkpt>
      <trkpt lat="28.5922220" lon="-17.8127380">
        <ele>1321.9</ele>
        <time>2020-11-17T12:58:30Z</time>
      </trkpt>
      <trkpt lat="28.5922220" lon="-17.8127380">
        <ele>1321.9</ele>
        <time>2020-11-17T12:58:31Z</time>
      </trkpt>
      <trkpt lat="28.5922450" lon="-17.8127470">
        <ele>1322.1</ele>
        <time>2020-11-17T12:58:32Z</time>
      </trkpt>
      <trkpt lat="28.5922450" lon="-17.8127470">
        <ele>1322.1</ele>
        <time>2020-11-17T12:58:33Z</time>
      </trkpt>
      <trkpt lat="28.5922680" lon="-17.8127600">
        <ele>1322.4</ele>
        <time>2020-11-17T12:58:34Z</time>
      </trkpt>
      <trkpt lat="28.5922820" lon="-17.8127650">
        <ele>1322.5</ele>
        <time>2020-11-17T12:58:35Z</time>
      </trkpt>
      <trkpt lat="28.5922820" lon="-17.8127650">
        <ele>1322.5</ele>
        <time>2020-11-17T12:58:36Z</time>
      </trkpt>
      <trkpt lat="28.5923130" lon="-17.8127670">
        <ele>1322.8</ele>
        <time>2020-11-17T12:58:37Z</time>
      </trkpt>
      <trkpt lat="28.5923130" lon="-17.8127670">
        <ele>1322.8</ele>
        <time>2020-11-17T12:58:38Z</time>
      </trkpt>
      <trkpt lat="28.5923480" lon="-17.8127670">
        <ele>1323.0</ele>
        <time>2020-11-17T12:58:39Z</time>
      </trkpt>
      <trkpt lat="28.5923480" lon="-17.8127670">
        <ele>1323.0</ele>
        <time>2020-11-17T12:58:40Z</time>
      </trkpt>
      <trkpt lat="28.5923770" lon="-17.8127720">
        <ele>1323.3</ele>
        <time>2020-11-17T12:58:41Z</time>
      </trkpt>
      <trkpt lat="28.5923770" lon="-17.8127720">
        <ele>1323.3</ele>
        <time>2020-11-17T12:58:42Z</time>
      </trkpt>
      <trkpt lat="28.5924120" lon="-17.8127670">
        <ele>1323.5</ele>
        <time>2020-11-17T12:58:43Z</time>
      </trkpt>
      <trkpt lat="28.5924120" lon="-17.8127670">
        <ele>1323.5</ele>
        <time>2020-11-17T12:58:44Z</time>
      </trkpt>
      <trkpt lat="28.5924520" lon="-17.8127570">
        <ele>1323.8</ele>
        <time>2020-11-17T12:58:45Z</time>
      </trkpt>
      <trkpt lat="28.5924720" lon="-17.8127530">
        <ele>1323.9</ele>
        <time>2020-11-17T12:58:46Z</time>
      </trkpt>
      <trkpt lat="28.5924720" lon="-17.8127530">
        <ele>1323.9</ele>
        <time>2020-11-17T12:58:47Z</time>
      </trkpt>
      <trkpt lat="28.5925150" lon="-17.8127430">
        <ele>1324.1</ele>
        <time>2020-11-17T12:58:48Z</time>
      </trkpt>
      <trkpt lat="28.5925150" lon="-17.8127430">
        <ele>1324.1</ele>
        <time>2020-11-17T12:58:49Z</time>
      </trkpt>
      <trkpt lat="28.5925650" lon="-17.8127270">
        <ele>1324.3</ele>
        <time>2020-11-17T12:58:50Z</time>
      </trkpt>
      <trkpt lat="28.5925850" lon="-17.8127220">
        <ele>1324.4</ele>
        <time>2020-11-17T12:58:51Z</time>
      </trkpt>
      <trkpt lat="28.5925850" lon="-17.8127220">
        <ele>1324.4</ele>
        <time>2020-11-17T12:58:52Z</time>
      </trkpt>
      <trkpt lat="28.5926280" lon="-17.8127100">
        <ele>1324.6</ele>
        <time>2020-11-17T12:58:53Z</time>
      </trkpt>
      <trkpt lat="28.5926280" lon="-17.8127100">
        <ele>1324.6</ele>
        <time>2020-11-17T12:58:54Z</time>
      </trkpt>
      <trkpt lat="28.5926680" lon="-17.8127000">
        <ele>1324.8</ele>
        <time>2020-11-17T12:58:55Z</time>
      </trkpt>
      <trkpt lat="28.5926680" lon="-17.8127000">
        <ele>1324.8</ele>
        <time>2020-11-17T12:58:56Z</time>
      </trkpt>
      <trkpt lat="28.5927080" lon="-17.8126930">
        <ele>1325.0</ele>
        <time>2020-11-17T12:58:57Z</time>
      </trkpt>
      <trkpt lat="28.5927080" lon="-17.8126930">
        <ele>1325.0</ele>
        <time>2020-11-17T12:58:58Z</time>
      </trkpt>
      <trkpt lat="28.5927520" lon="-17.8126870">
        <ele>1325.2</ele>
        <time>2020-11-17T12:58:59Z</time>
      </trkpt>
      <trkpt lat="28.5927730" lon="-17.8126850">
        <ele>1325.3</ele>
        <time>2020-11-17T12:59:00Z</time>
      </trkpt>
      <trkpt lat="28.5927730" lon="-17.8126850">
        <ele>1325.3</ele>
        <time>2020-11-17T12:59:01Z</time>
      </trkpt>
      <trkpt lat="28.5928220" lon="-17.8126820">
        <ele>1325.6</ele>
        <time>2020-11-17T12:59:02Z</time>
      </trkpt>
      <trkpt lat="28.5928220" lon="-17.8126820">
        <ele>1325.6</ele>
        <time>2020-11-17T12:59:03Z</time>
      </trkpt>
      <trkpt lat="28.5928630" lon="-17.8126750">
        <ele>1325.8</ele>
        <time>2020-11-17T12:59:04Z</time>
      </trkpt>
      <trkpt lat="28.5928630" lon="-17.8126750">
        <ele>1325.8</ele>
        <time>2020-11-17T12:59:05Z</time>
      </trkpt>
      <trkpt lat="28.5929020" lon="-17.8126700">
        <ele>1326.0</ele>
        <time>2020-11-17T12:59:06Z</time>
      </trkpt>
      <trkpt lat="28.5929220" lon="-17.8126680">
        <ele>1326.1</ele>
        <time>2020-11-17T12:59:07Z</time>
      </trkpt>
      <trkpt lat="28.5929420" lon="-17.8126680">
        <ele>1326.2</ele>
        <time>2020-11-17T12:59:08Z</time>
      </trkpt>
      <trkpt lat="28.5929420" lon="-17.8126680">
        <ele>1326.2</ele>
        <time>2020-11-17T12:59:09Z</time>
      </trkpt>
      <trkpt lat="28.5929870" lon="-17.8126620">
        <ele>1326.4</ele>
        <time>2020-11-17T12:59:10Z</time>
      </trkpt>
      <trkpt lat="28.5930070" lon="-17.8126550">
        <ele>1326.6</ele>
        <time>2020-11-17T12:59:11Z</time>
      </trkpt>
      <trkpt lat="28.5930270" lon="-17.8126480">
        <ele>1326.7</ele>
        <time>2020-11-17T12:59:12Z</time>
      </trkpt>
      <trkpt lat="28.5930270" lon="-17.8126480">
        <ele>1326.7</ele>
        <time>2020-11-17T12:59:13Z</time>
      </trkpt>
      <trkpt lat="28.5930670" lon="-17.8126430">
        <ele>1326.9</ele>
        <time>2020-11-17T12:59:14Z</time>
      </trkpt>
      <trkpt lat="28.5930670" lon="-17.8126430">
        <ele>1326.9</ele>
        <time>2020-11-17T12:59:15Z</time>
      </trkpt>
      <trkpt lat="28.5931120" lon="-17.8126370">
        <ele>1327.1</ele>
        <time>2020-11-17T12:59:16Z</time>
      </trkpt>
      <trkpt lat="28.5931120" lon="-17.8126370">
        <ele>1327.1</ele>
        <time>2020-11-17T12:59:17Z</time>
      </trkpt>
      <trkpt lat="28.5931530" lon="-17.8126300">
        <ele>1327.4</ele>
        <time>2020-11-17T12:59:18Z</time>
      </trkpt>
      <trkpt lat="28.5931530" lon="-17.8126300">
        <ele>1327.4</ele>
        <time>2020-11-17T12:59:19Z</time>
      </trkpt>
      <trkpt lat="28.5931980" lon="-17.8126220">
        <ele>1327.6</ele>
        <time>2020-11-17T12:59:20Z</time>
      </trkpt>
      <trkpt lat="28.5931980" lon="-17.8126220">
        <ele>1327.6</ele>
        <time>2020-11-17T12:59:21Z</time>
      </trkpt>
      <trkpt lat="28.5932430" lon="-17.8126220">
        <ele>1327.8</ele>
        <time>2020-11-17T12:59:22Z</time>
      </trkpt>
      <trkpt lat="28.5932430" lon="-17.8126220">
        <ele>1327.8</ele>
        <time>2020-11-17T12:59:23Z</time>
      </trkpt>
      <trkpt lat="28.5932820" lon="-17.8126170">
        <ele>1328.0</ele>
        <time>2020-11-17T12:59:24Z</time>
      </trkpt>
      <trkpt lat="28.5932820" lon="-17.8126170">
        <ele>1328.0</ele>
        <time>2020-11-17T12:59:25Z</time>
      </trkpt>
      <trkpt lat="28.5933200" lon="-17.8126170">
        <ele>1328.2</ele>
        <time>2020-11-17T12:59:26Z</time>
      </trkpt>
      <trkpt lat="28.5933200" lon="-17.8126170">
        <ele>1328.2</ele>
        <time>2020-11-17T12:59:27Z</time>
      </trkpt>
      <trkpt lat="28.5933620" lon="-17.8126180">
        <ele>1328.4</ele>
        <time>2020-11-17T12:59:28Z</time>
      </trkpt>
      <trkpt lat="28.5933620" lon="-17.8126180">
        <ele>1328.4</ele>
        <time>2020-11-17T12:59:29Z</time>
      </trkpt>
      <trkpt lat="28.5934020" lon="-17.8126180">
        <ele>1328.6</ele>
        <time>2020-11-17T12:59:30Z</time>
      </trkpt>
      <trkpt lat="28.5934020" lon="-17.8126180">
        <ele>1328.6</ele>
        <time>2020-11-17T12:59:31Z</time>
      </trkpt>
      <trkpt lat="28.5934430" lon="-17.8126150">
        <ele>1328.8</ele>
        <time>2020-11-17T12:59:32Z</time>
      </trkpt>
      <trkpt lat="28.5934430" lon="-17.8126150">
        <ele>1328.8</ele>
        <time>2020-11-17T12:59:33Z</time>
      </trkpt>
      <trkpt lat="28.5934850" lon="-17.8126130">
        <ele>1328.9</ele>
        <time>2020-11-17T12:59:34Z</time>
      </trkpt>
      <trkpt lat="28.5934850" lon="-17.8126130">
        <ele>1328.9</ele>
        <time>2020-11-17T12:59:35Z</time>
      </trkpt>
      <trkpt lat="28.5935350" lon="-17.8126070">
        <ele>1329.2</ele>
        <time>2020-11-17T12:59:36Z</time>
      </trkpt>
      <trkpt lat="28.5935350" lon="-17.8126070">
        <ele>1329.2</ele>
        <time>2020-11-17T12:59:37Z</time>
      </trkpt>
      <trkpt lat="28.5935830" lon="-17.8126070">
        <ele>1329.4</ele>
        <time>2020-11-17T12:59:38Z</time>
      </trkpt>
      <trkpt lat="28.5936130" lon="-17.8126080">
        <ele>1329.5</ele>
        <time>2020-11-17T12:59:39Z</time>
      </trkpt>
      <trkpt lat="28.5936130" lon="-17.8126080">
        <ele>1329.5</ele>
        <time>2020-11-17T12:59:40Z</time>
      </trkpt>
      <trkpt lat="28.5936680" lon="-17.8126130">
        <ele>1329.6</ele>
        <time>2020-11-17T12:59:41Z</time>
      </trkpt>
      <trkpt lat="28.5936950" lon="-17.8126180">
        <ele>1329.7</ele>
        <time>2020-11-17T12:59:42Z</time>
      </trkpt>
      <trkpt lat="28.5937200" lon="-17.8126270">
        <ele>1329.8</ele>
        <time>2020-11-17T12:59:43Z</time>
      </trkpt>
      <trkpt lat="28.5937200" lon="-17.8126270">
        <ele>1329.8</ele>
        <time>2020-11-17T12:59:44Z</time>
      </trkpt>
      <trkpt lat="28.5937650" lon="-17.8126450">
        <ele>1329.9</ele>
        <time>2020-11-17T12:59:45Z</time>
      </trkpt>
      <trkpt lat="28.5937650" lon="-17.8126450">
        <ele>1329.9</ele>
        <time>2020-11-17T12:59:46Z</time>
      </trkpt>
      <trkpt lat="28.5937950" lon="-17.8126670">
        <ele>1330.0</ele>
        <time>2020-11-17T12:59:47Z</time>
      </trkpt>
      <trkpt lat="28.5937950" lon="-17.8126670">
        <ele>1330.0</ele>
        <time>2020-11-17T12:59:48Z</time>
      </trkpt>
      <trkpt lat="28.5938320" lon="-17.8126950">
        <ele>1330.2</ele>
        <time>2020-11-17T12:59:49Z</time>
      </trkpt>
      <trkpt lat="28.5938320" lon="-17.8126950">
        <ele>1330.2</ele>
        <time>2020-11-17T12:59:50Z</time>
      </trkpt>
      <trkpt lat="28.5938730" lon="-17.8127330">
        <ele>1330.3</ele>
        <time>2020-11-17T12:59:51Z</time>
      </trkpt>
      <trkpt lat="28.5938730" lon="-17.8127330">
        <ele>1330.3</ele>
        <time>2020-11-17T12:59:52Z</time>
      </trkpt>
      <trkpt lat="28.5939080" lon="-17.8127720">
        <ele>1330.4</ele>
        <time>2020-11-17T12:59:53Z</time>
      </trkpt>
      <trkpt lat="28.5939250" lon="-17.8127900">
        <ele>1330.6</ele>
        <time>2020-11-17T12:59:54Z</time>
      </trkpt>
      <trkpt lat="28.5939250" lon="-17.8127900">
        <ele>1330.6</ele>
        <time>2020-11-17T12:59:55Z</time>
      </trkpt>
      <trkpt lat="28.5939520" lon="-17.8128250">
        <ele>1330.9</ele>
        <time>2020-11-17T12:59:56Z</time>
      </trkpt>
      <trkpt lat="28.5939520" lon="-17.8128250">
        <ele>1330.9</ele>
        <time>2020-11-17T12:59:57Z</time>
      </trkpt>
      <trkpt lat="28.5939820" lon="-17.8128530">
        <ele>1331.2</ele>
        <time>2020-11-17T12:59:58Z</time>
      </trkpt>
      <trkpt lat="28.5939820" lon="-17.8128530">
        <ele>1331.2</ele>
        <time>2020-11-17T12:59:59Z</time>
      </trkpt>
      <trkpt lat="28.5940200" lon="-17.8128800">
        <ele>1331.5</ele>
        <time>2020-11-17T13:00:00Z</time>
      </trkpt>
      <trkpt lat="28.5940400" lon="-17.8128930">
        <ele>1331.7</ele>
        <time>2020-11-17T13:00:01Z</time>
      </trkpt>
      <trkpt lat="28.5940400" lon="-17.8128930">
        <ele>1331.7</ele>
        <time>2020-11-17T13:00:02Z</time>
      </trkpt>
      <trkpt lat="28.5940770" lon="-17.8129200">
        <ele>1332.0</ele>
        <time>2020-11-17T13:00:03Z</time>
      </trkpt>
      <trkpt lat="28.5940900" lon="-17.8129320">
        <ele>1332.1</ele>
        <time>2020-11-17T13:00:04Z</time>
      </trkpt>
      <trkpt lat="28.5940900" lon="-17.8129320">
        <ele>1332.1</ele>
        <time>2020-11-17T13:00:05Z</time>
      </trkpt>
      <trkpt lat="28.5941170" lon="-17.8129530">
        <ele>1332.3</ele>
        <time>2020-11-17T13:00:06Z</time>
      </trkpt>
      <trkpt lat="28.5941170" lon="-17.8129530">
        <ele>1332.3</ele>
        <time>2020-11-17T13:00:07Z</time>
      </trkpt>
      <trkpt lat="28.5941450" lon="-17.8129730">
        <ele>1332.6</ele>
        <time>2020-11-17T13:00:08Z</time>
      </trkpt>
      <trkpt lat="28.5941450" lon="-17.8129730">
        <ele>1332.6</ele>
        <time>2020-11-17T13:00:09Z</time>
      </trkpt>
      <trkpt lat="28.5941680" lon="-17.8129980">
        <ele>1332.8</ele>
        <time>2020-11-17T13:00:10Z</time>
      </trkpt>
      <trkpt lat="28.5941680" lon="-17.8129980">
        <ele>1332.8</ele>
        <time>2020-11-17T13:00:11Z</time>
      </trkpt>
      <trkpt lat="28.5942000" lon="-17.8130280">
        <ele>1333.0</ele>
        <time>2020-11-17T13:00:12Z</time>
      </trkpt>
      <trkpt lat="28.5942000" lon="-17.8130280">
        <ele>1333.0</ele>
        <time>2020-11-17T13:00:13Z</time>
      </trkpt>
      <trkpt lat="28.5942380" lon="-17.8130580">
        <ele>1333.3</ele>
        <time>2020-11-17T13:00:14Z</time>
      </trkpt>
      <trkpt lat="28.5942580" lon="-17.8130770">
        <ele>1333.4</ele>
        <time>2020-11-17T13:00:15Z</time>
      </trkpt>
      <trkpt lat="28.5942580" lon="-17.8130770">
        <ele>1333.4</ele>
        <time>2020-11-17T13:00:16Z</time>
      </trkpt>
      <trkpt lat="28.5942980" lon="-17.8131020">
        <ele>1333.7</ele>
        <time>2020-11-17T13:00:17Z</time>
      </trkpt>
      <trkpt lat="28.5942980" lon="-17.8131020">
        <ele>1333.7</ele>
        <time>2020-11-17T13:00:18Z</time>
      </trkpt>
      <trkpt lat="28.5943320" lon="-17.8131370">
        <ele>1333.9</ele>
        <time>2020-11-17T13:00:19Z</time>
      </trkpt>
      <trkpt lat="28.5943480" lon="-17.8131530">
        <ele>1334.0</ele>
        <time>2020-11-17T13:00:20Z</time>
      </trkpt>
      <trkpt lat="28.5943480" lon="-17.8131530">
        <ele>1334.0</ele>
        <time>2020-11-17T13:00:21Z</time>
      </trkpt>
      <trkpt lat="28.5943750" lon="-17.8131870">
        <ele>1334.3</ele>
        <time>2020-11-17T13:00:22Z</time>
      </trkpt>
      <trkpt lat="28.5943750" lon="-17.8131870">
        <ele>1334.3</ele>
        <time>2020-11-17T13:00:23Z</time>
      </trkpt>
      <trkpt lat="28.5944020" lon="-17.8132120">
        <ele>1334.5</ele>
        <time>2020-11-17T13:00:24Z</time>
      </trkpt>
      <trkpt lat="28.5944020" lon="-17.8132120">
        <ele>1334.5</ele>
        <time>2020-11-17T13:00:25Z</time>
      </trkpt>
      <trkpt lat="28.5944280" lon="-17.8132420">
        <ele>1334.8</ele>
        <time>2020-11-17T13:00:26Z</time>
      </trkpt>
      <trkpt lat="28.5944420" lon="-17.8132580">
        <ele>1334.9</ele>
        <time>2020-11-17T13:00:27Z</time>
      </trkpt>
      <trkpt lat="28.5944420" lon="-17.8132580">
        <ele>1334.9</ele>
        <time>2020-11-17T13:00:28Z</time>
      </trkpt>
      <trkpt lat="28.5944680" lon="-17.8132930">
        <ele>1335.2</ele>
        <time>2020-11-17T13:00:29Z</time>
      </trkpt>
      <trkpt lat="28.5944800" lon="-17.8133080">
        <ele>1335.3</ele>
        <time>2020-11-17T13:00:30Z</time>
      </trkpt>
      <trkpt lat="28.5944800" lon="-17.8133080">
        <ele>1335.3</ele>
        <time>2020-11-17T13:00:31Z</time>
      </trkpt>
      <trkpt lat="28.5945020" lon="-17.8133400">
        <ele>1335.5</ele>
        <time>2020-11-17T13:00:32Z</time>
      </trkpt>
      <trkpt lat="28.5945020" lon="-17.8133400">
        <ele>1335.5</ele>
        <time>2020-11-17T13:00:33Z</time>
      </trkpt>
      <trkpt lat="28.5945250" lon="-17.8133770">
        <ele>1335.8</ele>
        <time>2020-11-17T13:00:34Z</time>
      </trkpt>
      <trkpt lat="28.5945250" lon="-17.8133770">
        <ele>1335.8</ele>
        <time>2020-11-17T13:00:35Z</time>
      </trkpt>
      <trkpt lat="28.5945450" lon="-17.8134150">
        <ele>1336.1</ele>
        <time>2020-11-17T13:00:36Z</time>
      </trkpt>
      <trkpt lat="28.5945450" lon="-17.8134150">
        <ele>1336.1</ele>
        <time>2020-11-17T13:00:37Z</time>
      </trkpt>
      <trkpt lat="28.5945600" lon="-17.8134570">
        <ele>1336.4</ele>
        <time>2020-11-17T13:00:38Z</time>
      </trkpt>
      <trkpt lat="28.5945600" lon="-17.8134570">
        <ele>1336.4</ele>
        <time>2020-11-17T13:00:39Z</time>
      </trkpt>
      <trkpt lat="28.5945720" lon="-17.8134970">
        <ele>1336.7</ele>
        <time>2020-11-17T13:00:40Z</time>
      </trkpt>
      <trkpt lat="28.5945720" lon="-17.8134970">
        <ele>1336.7</ele>
        <time>2020-11-17T13:00:41Z</time>
      </trkpt>
      <trkpt lat="28.5945770" lon="-17.8135370">
        <ele>1336.9</ele>
        <time>2020-11-17T13:00:42Z</time>
      </trkpt>
      <trkpt lat="28.5945800" lon="-17.8135570">
        <ele>1337.0</ele>
        <time>2020-11-17T13:00:43Z</time>
      </trkpt>
      <trkpt lat="28.5945850" lon="-17.8135700">
        <ele>1337.1</ele>
        <time>2020-11-17T13:00:44Z</time>
      </trkpt>
      <trkpt lat="28.5945850" lon="-17.8135700">
        <ele>1337.1</ele>
        <time>2020-11-17T13:00:45Z</time>
      </trkpt>
      <trkpt lat="28.5945880" lon="-17.8135980">
        <ele>1337.3</ele>
        <time>2020-11-17T13:00:46Z</time>
      </trkpt>
      <trkpt lat="28.5945920" lon="-17.8136180">
        <ele>1337.4</ele>
        <time>2020-11-17T13:00:47Z</time>
      </trkpt>
      <trkpt lat="28.5945920" lon="-17.8136180">
        <ele>1337.4</ele>
        <time>2020-11-17T13:00:48Z</time>
      </trkpt>
      <trkpt lat="28.5945880" lon="-17.8136550">
        <ele>1337.7</ele>
        <time>2020-11-17T13:00:49Z</time>
      </trkpt>
      <trkpt lat="28.5945880" lon="-17.8136550">
        <ele>1337.7</ele>
        <time>2020-11-17T13:00:50Z</time>
      </trkpt>
      <trkpt lat="28.5945950" lon="-17.8136980">
        <ele>1337.9</ele>
        <time>2020-11-17T13:00:51Z</time>
      </trkpt>
      <trkpt lat="28.5945950" lon="-17.8136980">
        <ele>1337.9</ele>
        <time>2020-11-17T13:00:52Z</time>
      </trkpt>
      <trkpt lat="28.5946000" lon="-17.8137380">
        <ele>1338.2</ele>
        <time>2020-11-17T13:00:53Z</time>
      </trkpt>
      <trkpt lat="28.5946030" lon="-17.8137570">
        <ele>1338.3</ele>
        <time>2020-11-17T13:00:54Z</time>
      </trkpt>
      <trkpt lat="28.5946030" lon="-17.8137570">
        <ele>1338.3</ele>
        <time>2020-11-17T13:00:55Z</time>
      </trkpt>
      <trkpt lat="28.5946150" lon="-17.8137950">
        <ele>1338.6</ele>
        <time>2020-11-17T13:00:56Z</time>
      </trkpt>
      <trkpt lat="28.5946150" lon="-17.8137950">
        <ele>1338.6</ele>
        <time>2020-11-17T13:00:57Z</time>
      </trkpt>
      <trkpt lat="28.5946300" lon="-17.8138220">
        <ele>1338.8</ele>
        <time>2020-11-17T13:00:58Z</time>
      </trkpt>
      <trkpt lat="28.5946300" lon="-17.8138220">
        <ele>1338.8</ele>
        <time>2020-11-17T13:00:59Z</time>
      </trkpt>
      <trkpt lat="28.5946420" lon="-17.8138500">
        <ele>1338.9</ele>
        <time>2020-11-17T13:01:00Z</time>
      </trkpt>
      <trkpt lat="28.5946470" lon="-17.8138650">
        <ele>1339.0</ele>
        <time>2020-11-17T13:01:01Z</time>
      </trkpt>
      <trkpt lat="28.5946470" lon="-17.8138650">
        <ele>1339.0</ele>
        <time>2020-11-17T13:01:02Z</time>
      </trkpt>
      <trkpt lat="28.5946530" lon="-17.8138980">
        <ele>1339.3</ele>
        <time>2020-11-17T13:01:03Z</time>
      </trkpt>
      <trkpt lat="28.5946530" lon="-17.8138980">
        <ele>1339.3</ele>
        <time>2020-11-17T13:01:04Z</time>
      </trkpt>
      <trkpt lat="28.5946500" lon="-17.8139300">
        <ele>1339.4</ele>
        <time>2020-11-17T13:01:05Z</time>
      </trkpt>
      <trkpt lat="28.5946430" lon="-17.8139470">
        <ele>1339.5</ele>
        <time>2020-11-17T13:01:06Z</time>
      </trkpt>
      <trkpt lat="28.5946430" lon="-17.8139470">
        <ele>1339.5</ele>
        <time>2020-11-17T13:01:07Z</time>
      </trkpt>
      <trkpt lat="28.5946300" lon="-17.8139850">
        <ele>1339.7</ele>
        <time>2020-11-17T13:01:08Z</time>
      </trkpt>
      <trkpt lat="28.5946300" lon="-17.8139850">
        <ele>1339.7</ele>
        <time>2020-11-17T13:01:09Z</time>
      </trkpt>
      <trkpt lat="28.5946100" lon="-17.8140230">
        <ele>1340.0</ele>
        <time>2020-11-17T13:01:10Z</time>
      </trkpt>
      <trkpt lat="28.5946100" lon="-17.8140230">
        <ele>1340.0</ele>
        <time>2020-11-17T13:01:11Z</time>
      </trkpt>
      <trkpt lat="28.5945870" lon="-17.8140550">
        <ele>1340.2</ele>
        <time>2020-11-17T13:01:12Z</time>
      </trkpt>
      <trkpt lat="28.5945750" lon="-17.8140700">
        <ele>1340.2</ele>
        <time>2020-11-17T13:01:13Z</time>
      </trkpt>
      <trkpt lat="28.5945750" lon="-17.8140700">
        <ele>1340.2</ele>
        <time>2020-11-17T13:01:14Z</time>
      </trkpt>
      <trkpt lat="28.5945470" lon="-17.8140980">
        <ele>1340.4</ele>
        <time>2020-11-17T13:01:15Z</time>
      </trkpt>
      <trkpt lat="28.5945330" lon="-17.8141130">
        <ele>1340.5</ele>
        <time>2020-11-17T13:01:16Z</time>
      </trkpt>
      <trkpt lat="28.5945330" lon="-17.8141130">
        <ele>1340.5</ele>
        <time>2020-11-17T13:01:17Z</time>
      </trkpt>
      <trkpt lat="28.5945020" lon="-17.8141420">
        <ele>1340.7</ele>
        <time>2020-11-17T13:01:18Z</time>
      </trkpt>
      <trkpt lat="28.5945020" lon="-17.8141420">
        <ele>1340.7</ele>
        <time>2020-11-17T13:01:19Z</time>
      </trkpt>
      <trkpt lat="28.5944720" lon="-17.8141680">
        <ele>1340.9</ele>
        <time>2020-11-17T13:01:20Z</time>
      </trkpt>
      <trkpt lat="28.5944570" lon="-17.8141780">
        <ele>1341.0</ele>
        <time>2020-11-17T13:01:21Z</time>
      </trkpt>
      <trkpt lat="28.5944570" lon="-17.8141780">
        <ele>1341.0</ele>
        <time>2020-11-17T13:01:22Z</time>
      </trkpt>
      <trkpt lat="28.5944330" lon="-17.8142020">
        <ele>1341.2</ele>
        <time>2020-11-17T13:01:23Z</time>
      </trkpt>
      <trkpt lat="28.5944200" lon="-17.8142120">
        <ele>1341.2</ele>
        <time>2020-11-17T13:01:24Z</time>
      </trkpt>
      <trkpt lat="28.5944200" lon="-17.8142120">
        <ele>1341.2</ele>
        <time>2020-11-17T13:01:25Z</time>
      </trkpt>
      <trkpt lat="28.5943880" lon="-17.8142300">
        <ele>1341.4</ele>
        <time>2020-11-17T13:01:26Z</time>
      </trkpt>
      <trkpt lat="28.5943880" lon="-17.8142300">
        <ele>1341.4</ele>
        <time>2020-11-17T13:01:27Z</time>
      </trkpt>
      <trkpt lat="28.5943570" lon="-17.8142530">
        <ele>1341.7</ele>
        <time>2020-11-17T13:01:28Z</time>
      </trkpt>
      <trkpt lat="28.5943570" lon="-17.8142530">
        <ele>1341.7</ele>
        <time>2020-11-17T13:01:29Z</time>
      </trkpt>
      <trkpt lat="28.5943120" lon="-17.8142820">
        <ele>1342.0</ele>
        <time>2020-11-17T13:01:30Z</time>
      </trkpt>
      <trkpt lat="28.5943120" lon="-17.8142820">
        <ele>1342.0</ele>
        <time>2020-11-17T13:01:31Z</time>
      </trkpt>
      <trkpt lat="28.5942650" lon="-17.8143180">
        <ele>1342.4</ele>
        <time>2020-11-17T13:01:32Z</time>
      </trkpt>
      <trkpt lat="28.5942480" lon="-17.8143430">
        <ele>1342.7</ele>
        <time>2020-11-17T13:01:33Z</time>
      </trkpt>
      <trkpt lat="28.5942480" lon="-17.8143430">
        <ele>1342.7</ele>
        <time>2020-11-17T13:01:34Z</time>
      </trkpt>
      <trkpt lat="28.5942400" lon="-17.8143920">
        <ele>1343.0</ele>
        <time>2020-11-17T13:01:35Z</time>
      </trkpt>
      <trkpt lat="28.5942350" lon="-17.8144150">
        <ele>1343.2</ele>
        <time>2020-11-17T13:01:36Z</time>
      </trkpt>
      <trkpt lat="28.5942350" lon="-17.8144150">
        <ele>1343.2</ele>
        <time>2020-11-17T13:01:37Z</time>
      </trkpt>
      <trkpt lat="28.5942270" lon="-17.8144530">
        <ele>1343.5</ele>
        <time>2020-11-17T13:01:38Z</time>
      </trkpt>
      <trkpt lat="28.5942200" lon="-17.8144720">
        <ele>1343.7</ele>
        <time>2020-11-17T13:01:39Z</time>
      </trkpt>
      <trkpt lat="28.5942200" lon="-17.8144720">
        <ele>1343.7</ele>
        <time>2020-11-17T13:01:40Z</time>
      </trkpt>
      <trkpt lat="28.5942030" lon="-17.8145070">
        <ele>1343.9</ele>
        <time>2020-11-17T13:01:41Z</time>
      </trkpt>
      <trkpt lat="28.5941930" lon="-17.8145250">
        <ele>1344.1</ele>
        <time>2020-11-17T13:01:42Z</time>
      </trkpt>
      <trkpt lat="28.5941930" lon="-17.8145250">
        <ele>1344.1</ele>
        <time>2020-11-17T13:01:43Z</time>
      </trkpt>
      <trkpt lat="28.5941650" lon="-17.8145520">
        <ele>1344.4</ele>
        <time>2020-11-17T13:01:44Z</time>
      </trkpt>
      <trkpt lat="28.5941650" lon="-17.8145520">
        <ele>1344.4</ele>
        <time>2020-11-17T13:01:45Z</time>
      </trkpt>
      <trkpt lat="28.5941370" lon="-17.8145870">
        <ele>1344.7</ele>
        <time>2020-11-17T13:01:46Z</time>
      </trkpt>
      <trkpt lat="28.5941370" lon="-17.8145870">
        <ele>1344.7</ele>
        <time>2020-11-17T13:01:47Z</time>
      </trkpt>
      <trkpt lat="28.5941070" lon="-17.8146270">
        <ele>1345.0</ele>
        <time>2020-11-17T13:01:48Z</time>
      </trkpt>
      <trkpt lat="28.5941070" lon="-17.8146270">
        <ele>1345.0</ele>
        <time>2020-11-17T13:01:49Z</time>
      </trkpt>
      <trkpt lat="28.5940800" lon="-17.8146570">
        <ele>1345.2</ele>
        <time>2020-11-17T13:01:50Z</time>
      </trkpt>
      <trkpt lat="28.5940670" lon="-17.8146670">
        <ele>1345.3</ele>
        <time>2020-11-17T13:01:51Z</time>
      </trkpt>
      <trkpt lat="28.5940670" lon="-17.8146670">
        <ele>1345.3</ele>
        <time>2020-11-17T13:01:52Z</time>
      </trkpt>
      <trkpt lat="28.5940430" lon="-17.8146870">
        <ele>1345.4</ele>
        <time>2020-11-17T13:01:53Z</time>
      </trkpt>
      <trkpt lat="28.5940430" lon="-17.8146870">
        <ele>1345.4</ele>
        <time>2020-11-17T13:01:54Z</time>
      </trkpt>
      <trkpt lat="28.5940250" lon="-17.8147150">
        <ele>1345.6</ele>
        <time>2020-11-17T13:01:55Z</time>
      </trkpt>
      <trkpt lat="28.5940150" lon="-17.8147320">
        <ele>1345.6</ele>
        <time>2020-11-17T13:01:56Z</time>
      </trkpt>
      <trkpt lat="28.5940150" lon="-17.8147320">
        <ele>1345.6</ele>
        <time>2020-11-17T13:01:57Z</time>
      </trkpt>
      <trkpt lat="28.5939920" lon="-17.8147670">
        <ele>1345.8</ele>
        <time>2020-11-17T13:01:58Z</time>
      </trkpt>
      <trkpt lat="28.5939920" lon="-17.8147670">
        <ele>1345.8</ele>
        <time>2020-11-17T13:01:59Z</time>
      </trkpt>
      <trkpt lat="28.5939820" lon="-17.8148130">
        <ele>1345.9</ele>
        <time>2020-11-17T13:02:00Z</time>
      </trkpt>
      <trkpt lat="28.5939820" lon="-17.8148130">
        <ele>1345.9</ele>
        <time>2020-11-17T13:02:01Z</time>
      </trkpt>
      <trkpt lat="28.5939780" lon="-17.8148670">
        <ele>1346.1</ele>
        <time>2020-11-17T13:02:02Z</time>
      </trkpt>
      <trkpt lat="28.5939780" lon="-17.8148670">
        <ele>1346.1</ele>
        <time>2020-11-17T13:02:03Z</time>
      </trkpt>
      <trkpt lat="28.5939820" lon="-17.8149180">
        <ele>1346.2</ele>
        <time>2020-11-17T13:02:04Z</time>
      </trkpt>
      <trkpt lat="28.5939820" lon="-17.8149470">
        <ele>1346.3</ele>
        <time>2020-11-17T13:02:05Z</time>
      </trkpt>
      <trkpt lat="28.5939820" lon="-17.8149470">
        <ele>1346.3</ele>
        <time>2020-11-17T13:02:06Z</time>
      </trkpt>
      <trkpt lat="28.5939880" lon="-17.8150050">
        <ele>1346.5</ele>
        <time>2020-11-17T13:02:07Z</time>
      </trkpt>
      <trkpt lat="28.5939980" lon="-17.8150350">
        <ele>1346.6</ele>
        <time>2020-11-17T13:02:08Z</time>
      </trkpt>
      <trkpt lat="28.5940150" lon="-17.8150630">
        <ele>1346.7</ele>
        <time>2020-11-17T13:02:09Z</time>
      </trkpt>
      <trkpt lat="28.5940150" lon="-17.8150630">
        <ele>1346.7</ele>
        <time>2020-11-17T13:02:10Z</time>
      </trkpt>
      <trkpt lat="28.5940570" lon="-17.8151130">
        <ele>1347.0</ele>
        <time>2020-11-17T13:02:11Z</time>
      </trkpt>
      <trkpt lat="28.5940800" lon="-17.8151330">
        <ele>1347.2</ele>
        <time>2020-11-17T13:02:12Z</time>
      </trkpt>
      <trkpt lat="28.5940800" lon="-17.8151330">
        <ele>1347.2</ele>
        <time>2020-11-17T13:02:13Z</time>
      </trkpt>
      <trkpt lat="28.5941280" lon="-17.8151530">
        <ele>1347.5</ele>
        <time>2020-11-17T13:02:14Z</time>
      </trkpt>
      <trkpt lat="28.5941280" lon="-17.8151530">
        <ele>1347.5</ele>
        <time>2020-11-17T13:02:15Z</time>
      </trkpt>
      <trkpt lat="28.5941670" lon="-17.8151620">
        <ele>1347.7</ele>
        <time>2020-11-17T13:02:16Z</time>
      </trkpt>
      <trkpt lat="28.5941670" lon="-17.8151620">
        <ele>1347.7</ele>
        <time>2020-11-17T13:02:17Z</time>
      </trkpt>
      <trkpt lat="28.5941970" lon="-17.8151830">
        <ele>1347.9</ele>
        <time>2020-11-17T13:02:18Z</time>
      </trkpt>
      <trkpt lat="28.5941970" lon="-17.8151830">
        <ele>1347.9</ele>
        <time>2020-11-17T13:02:19Z</time>
      </trkpt>
      <trkpt lat="28.5942280" lon="-17.8152170">
        <ele>1348.2</ele>
        <time>2020-11-17T13:02:20Z</time>
      </trkpt>
      <trkpt lat="28.5942450" lon="-17.8152300">
        <ele>1348.4</ele>
        <time>2020-11-17T13:02:21Z</time>
      </trkpt>
      <trkpt lat="28.5942450" lon="-17.8152300">
        <ele>1348.4</ele>
        <time>2020-11-17T13:02:22Z</time>
      </trkpt>
      <trkpt lat="28.5942750" lon="-17.8152580">
        <ele>1348.7</ele>
        <time>2020-11-17T13:02:23Z</time>
      </trkpt>
      <trkpt lat="28.5942750" lon="-17.8152580">
        <ele>1348.7</ele>
        <time>2020-11-17T13:02:24Z</time>
      </trkpt>
      <trkpt lat="28.5942980" lon="-17.8152780">
        <ele>1348.9</ele>
        <time>2020-11-17T13:02:25Z</time>
      </trkpt>
      <trkpt lat="28.5942980" lon="-17.8152780">
        <ele>1348.9</ele>
        <time>2020-11-17T13:02:26Z</time>
      </trkpt>
      <trkpt lat="28.5943220" lon="-17.8152900">
        <ele>1349.2</ele>
        <time>2020-11-17T13:02:27Z</time>
      </trkpt>
      <trkpt lat="28.5943370" lon="-17.8153000">
        <ele>1349.3</ele>
        <time>2020-11-17T13:02:28Z</time>
      </trkpt>
      <trkpt lat="28.5943530" lon="-17.8153120">
        <ele>1349.5</ele>
        <time>2020-11-17T13:02:29Z</time>
      </trkpt>
      <trkpt lat="28.5943670" lon="-17.8153250">
        <ele>1349.6</ele>
        <time>2020-11-17T13:02:30Z</time>
      </trkpt>
      <trkpt lat="28.5943670" lon="-17.8153250">
        <ele>1349.6</ele>
        <time>2020-11-17T13:02:31Z</time>
      </trkpt>
      <trkpt lat="28.5943930" lon="-17.8153520">
        <ele>1349.9</ele>
        <time>2020-11-17T13:02:32Z</time>
      </trkpt>
      <trkpt lat="28.5943930" lon="-17.8153520">
        <ele>1349.9</ele>
        <time>2020-11-17T13:02:33Z</time>
      </trkpt>
      <trkpt lat="28.5944100" lon="-17.8153800">
        <ele>1350.2</ele>
        <time>2020-11-17T13:02:34Z</time>
      </trkpt>
      <trkpt lat="28.5944100" lon="-17.8153800">
        <ele>1350.2</ele>
        <time>2020-11-17T13:02:35Z</time>
      </trkpt>
      <trkpt lat="28.5944230" lon="-17.8154100">
        <ele>1350.4</ele>
        <time>2020-11-17T13:02:36Z</time>
      </trkpt>
      <trkpt lat="28.5944230" lon="-17.8154100">
        <ele>1350.4</ele>
        <time>2020-11-17T13:02:37Z</time>
      </trkpt>
      <trkpt lat="28.5944400" lon="-17.8154380">
        <ele>1350.7</ele>
        <time>2020-11-17T13:02:38Z</time>
      </trkpt>
      <trkpt lat="28.5944500" lon="-17.8154520">
        <ele>1350.8</ele>
        <time>2020-11-17T13:02:39Z</time>
      </trkpt>
      <trkpt lat="28.5944500" lon="-17.8154520">
        <ele>1350.8</ele>
        <time>2020-11-17T13:02:40Z</time>
      </trkpt>
      <trkpt lat="28.5944770" lon="-17.8154730">
        <ele>1351.1</ele>
        <time>2020-11-17T13:02:41Z</time>
      </trkpt>
      <trkpt lat="28.5944770" lon="-17.8154730">
        <ele>1351.1</ele>
        <time>2020-11-17T13:02:42Z</time>
      </trkpt>
      <trkpt lat="28.5945080" lon="-17.8154950">
        <ele>1351.5</ele>
        <time>2020-11-17T13:02:43Z</time>
      </trkpt>
      <trkpt lat="28.5945250" lon="-17.8155030">
        <ele>1351.6</ele>
        <time>2020-11-17T13:02:44Z</time>
      </trkpt>
      <trkpt lat="28.5945250" lon="-17.8155030">
        <ele>1351.6</ele>
        <time>2020-11-17T13:02:45Z</time>
      </trkpt>
      <trkpt lat="28.5945450" lon="-17.8155180">
        <ele>1351.9</ele>
        <time>2020-11-17T13:02:46Z</time>
      </trkpt>
      <trkpt lat="28.5945450" lon="-17.8155180">
        <ele>1351.9</ele>
        <time>2020-11-17T13:02:47Z</time>
      </trkpt>
      <trkpt lat="28.5945620" lon="-17.8155370">
        <ele>1352.1</ele>
        <time>2020-11-17T13:02:48Z</time>
      </trkpt>
      <trkpt lat="28.5945620" lon="-17.8155370">
        <ele>1352.1</ele>
        <time>2020-11-17T13:02:49Z</time>
      </trkpt>
      <trkpt lat="28.5945780" lon="-17.8155550">
        <ele>1352.4</ele>
        <time>2020-11-17T13:02:50Z</time>
      </trkpt>
      <trkpt lat="28.5945850" lon="-17.8155670">
        <ele>1352.5</ele>
        <time>2020-11-17T13:02:51Z</time>
      </trkpt>
      <trkpt lat="28.5945850" lon="-17.8155670">
        <ele>1352.5</ele>
        <time>2020-11-17T13:02:52Z</time>
      </trkpt>
      <trkpt lat="28.5946050" lon="-17.8155920">
        <ele>1352.9</ele>
        <time>2020-11-17T13:02:53Z</time>
      </trkpt>
      <trkpt lat="28.5946180" lon="-17.8156030">
        <ele>1353.1</ele>
        <time>2020-11-17T13:02:54Z</time>
      </trkpt>
      <trkpt lat="28.5946180" lon="-17.8156030">
        <ele>1353.1</ele>
        <time>2020-11-17T13:02:55Z</time>
      </trkpt>
      <trkpt lat="28.5946400" lon="-17.8156250">
        <ele>1353.4</ele>
        <time>2020-11-17T13:02:56Z</time>
      </trkpt>
      <trkpt lat="28.5946500" lon="-17.8156370">
        <ele>1353.5</ele>
        <time>2020-11-17T13:02:57Z</time>
      </trkpt>
      <trkpt lat="28.5946500" lon="-17.8156370">
        <ele>1353.5</ele>
        <time>2020-11-17T13:02:58Z</time>
      </trkpt>
      <trkpt lat="28.5946680" lon="-17.8156620">
        <ele>1353.8</ele>
        <time>2020-11-17T13:02:59Z</time>
      </trkpt>
      <trkpt lat="28.5946770" lon="-17.8156750">
        <ele>1353.9</ele>
        <time>2020-11-17T13:03:00Z</time>
      </trkpt>
      <trkpt lat="28.5946770" lon="-17.8156750">
        <ele>1353.9</ele>
        <time>2020-11-17T13:03:01Z</time>
      </trkpt>
      <trkpt lat="28.5946930" lon="-17.8156980">
        <ele>1354.1</ele>
        <time>2020-11-17T13:03:02Z</time>
      </trkpt>
      <trkpt lat="28.5946930" lon="-17.8156980">
        <ele>1354.1</ele>
        <time>2020-11-17T13:03:03Z</time>
      </trkpt>
      <trkpt lat="28.5947170" lon="-17.8157200">
        <ele>1354.3</ele>
        <time>2020-11-17T13:03:04Z</time>
      </trkpt>
      <trkpt lat="28.5947170" lon="-17.8157200">
        <ele>1354.3</ele>
        <time>2020-11-17T13:03:05Z</time>
      </trkpt>
      <trkpt lat="28.5947380" lon="-17.8157380">
        <ele>1354.5</ele>
        <time>2020-11-17T13:03:06Z</time>
      </trkpt>
      <trkpt lat="28.5947380" lon="-17.8157380">
        <ele>1354.5</ele>
        <time>2020-11-17T13:03:07Z</time>
      </trkpt>
      <trkpt lat="28.5947620" lon="-17.8157530">
        <ele>1354.5</ele>
        <time>2020-11-17T13:03:08Z</time>
      </trkpt>
      <trkpt lat="28.5947620" lon="-17.8157530">
        <ele>1354.5</ele>
        <time>2020-11-17T13:03:09Z</time>
      </trkpt>
      <trkpt lat="28.5947750" lon="-17.8157570">
        <ele>1354.5</ele>
        <time>2020-11-17T13:03:10Z</time>
      </trkpt>
      <trkpt lat="28.5947880" lon="-17.8157600">
        <ele>1354.5</ele>
        <time>2020-11-17T13:03:11Z</time>
      </trkpt>
      <trkpt lat="28.5947880" lon="-17.8157600">
        <ele>1354.5</ele>
        <time>2020-11-17T13:03:12Z</time>
      </trkpt>
      <trkpt lat="28.5948170" lon="-17.8157700">
        <ele>1354.5</ele>
        <time>2020-11-17T13:03:13Z</time>
      </trkpt>
      <trkpt lat="28.5948170" lon="-17.8157700">
        <ele>1354.5</ele>
        <time>2020-11-17T13:03:14Z</time>
      </trkpt>
      <trkpt lat="28.5948470" lon="-17.8157820">
        <ele>1354.5</ele>
        <time>2020-11-17T13:03:15Z</time>
      </trkpt>
      <trkpt lat="28.5948670" lon="-17.8157930">
        <ele>1354.5</ele>
        <time>2020-11-17T13:03:16Z</time>
      </trkpt>
      <trkpt lat="28.5948670" lon="-17.8157930">
        <ele>1354.5</ele>
        <time>2020-11-17T13:03:17Z</time>
      </trkpt>
      <trkpt lat="28.5949120" lon="-17.8158270">
        <ele>1354.6</ele>
        <time>2020-11-17T13:03:18Z</time>
      </trkpt>
      <trkpt lat="28.5949120" lon="-17.8158270">
        <ele>1354.6</ele>
        <time>2020-11-17T13:03:19Z</time>
      </trkpt>
      <trkpt lat="28.5949380" lon="-17.8158670">
        <ele>1354.6</ele>
        <time>2020-11-17T13:03:20Z</time>
      </trkpt>
      <trkpt lat="28.5949380" lon="-17.8158670">
        <ele>1354.6</ele>
        <time>2020-11-17T13:03:21Z</time>
      </trkpt>
      <trkpt lat="28.5949780" lon="-17.8159030">
        <ele>1354.6</ele>
        <time>2020-11-17T13:03:22Z</time>
      </trkpt>
      <trkpt lat="28.5949780" lon="-17.8159030">
        <ele>1354.6</ele>
        <time>2020-11-17T13:03:23Z</time>
      </trkpt>
      <trkpt lat="28.5950330" lon="-17.8159380">
        <ele>1354.5</ele>
        <time>2020-11-17T13:03:24Z</time>
      </trkpt>
      <trkpt lat="28.5950330" lon="-17.8159380">
        <ele>1354.5</ele>
        <time>2020-11-17T13:03:25Z</time>
      </trkpt>
      <trkpt lat="28.5950730" lon="-17.8159800">
        <ele>1354.3</ele>
        <time>2020-11-17T13:03:26Z</time>
      </trkpt>
      <trkpt lat="28.5950730" lon="-17.8159800">
        <ele>1354.3</ele>
        <time>2020-11-17T13:03:27Z</time>
      </trkpt>
      <trkpt lat="28.5951100" lon="-17.8160220">
        <ele>1353.9</ele>
        <time>2020-11-17T13:03:28Z</time>
      </trkpt>
      <trkpt lat="28.5951350" lon="-17.8160450">
        <ele>1353.7</ele>
        <time>2020-11-17T13:03:29Z</time>
      </trkpt>
      <trkpt lat="28.5951350" lon="-17.8160450">
        <ele>1353.7</ele>
        <time>2020-11-17T13:03:30Z</time>
      </trkpt>
      <trkpt lat="28.5951920" lon="-17.8161000">
        <ele>1353.3</ele>
        <time>2020-11-17T13:03:31Z</time>
      </trkpt>
      <trkpt lat="28.5952220" lon="-17.8161330">
        <ele>1353.0</ele>
        <time>2020-11-17T13:03:32Z</time>
      </trkpt>
      <trkpt lat="28.5952520" lon="-17.8161620">
        <ele>1352.8</ele>
        <time>2020-11-17T13:03:33Z</time>
      </trkpt>
      <trkpt lat="28.5952520" lon="-17.8161620">
        <ele>1352.8</ele>
        <time>2020-11-17T13:03:34Z</time>
      </trkpt>
      <trkpt lat="28.5953000" lon="-17.8162320">
        <ele>1352.4</ele>
        <time>2020-11-17T13:03:35Z</time>
      </trkpt>
      <trkpt lat="28.5953270" lon="-17.8162770">
        <ele>1352.2</ele>
        <time>2020-11-17T13:03:36Z</time>
      </trkpt>
      <trkpt lat="28.5953270" lon="-17.8162770">
        <ele>1352.2</ele>
        <time>2020-11-17T13:03:37Z</time>
      </trkpt>
      <trkpt lat="28.5953680" lon="-17.8163520">
        <ele>1351.9</ele>
        <time>2020-11-17T13:03:38Z</time>
      </trkpt>
      <trkpt lat="28.5953680" lon="-17.8163520">
        <ele>1351.9</ele>
        <time>2020-11-17T13:03:39Z</time>
      </trkpt>
      <trkpt lat="28.5954080" lon="-17.8164250">
        <ele>1351.7</ele>
        <time>2020-11-17T13:03:40Z</time>
      </trkpt>
      <trkpt lat="28.5954080" lon="-17.8164250">
        <ele>1351.7</ele>
        <time>2020-11-17T13:03:41Z</time>
      </trkpt>
      <trkpt lat="28.5954500" lon="-17.8164950">
        <ele>1351.6</ele>
        <time>2020-11-17T13:03:42Z</time>
      </trkpt>
      <trkpt lat="28.5954700" lon="-17.8165300">
        <ele>1351.6</ele>
        <time>2020-11-17T13:03:43Z</time>
      </trkpt>
      <trkpt lat="28.5954700" lon="-17.8165300">
        <ele>1351.6</ele>
        <time>2020-11-17T13:03:44Z</time>
      </trkpt>
      <trkpt lat="28.5955230" lon="-17.8165920">
        <ele>1351.6</ele>
        <time>2020-11-17T13:03:45Z</time>
      </trkpt>
      <trkpt lat="28.5955230" lon="-17.8165920">
        <ele>1351.6</ele>
        <time>2020-11-17T13:03:46Z</time>
      </trkpt>
      <trkpt lat="28.5955750" lon="-17.8166480">
        <ele>1351.7</ele>
        <time>2020-11-17T13:03:47Z</time>
      </trkpt>
      <trkpt lat="28.5956020" lon="-17.8166780">
        <ele>1351.8</ele>
        <time>2020-11-17T13:03:48Z</time>
      </trkpt>
      <trkpt lat="28.5956020" lon="-17.8166780">
        <ele>1351.8</ele>
        <time>2020-11-17T13:03:49Z</time>
      </trkpt>
      <trkpt lat="28.5956580" lon="-17.8167420">
        <ele>1352.1</ele>
        <time>2020-11-17T13:03:50Z</time>
      </trkpt>
      <trkpt lat="28.5956580" lon="-17.8167420">
        <ele>1352.1</ele>
        <time>2020-11-17T13:03:51Z</time>
      </trkpt>
      <trkpt lat="28.5957170" lon="-17.8168020">
        <ele>1352.4</ele>
        <time>2020-11-17T13:03:52Z</time>
      </trkpt>
      <trkpt lat="28.5957170" lon="-17.8168020">
        <ele>1352.4</ele>
        <time>2020-11-17T13:03:53Z</time>
      </trkpt>
      <trkpt lat="28.5957750" lon="-17.8168450">
        <ele>1352.8</ele>
        <time>2020-11-17T13:03:54Z</time>
      </trkpt>
      <trkpt lat="28.5957750" lon="-17.8168450">
        <ele>1352.8</ele>
        <time>2020-11-17T13:03:55Z</time>
      </trkpt>
      <trkpt lat="28.5958370" lon="-17.8168500">
        <ele>1353.1</ele>
        <time>2020-11-17T13:03:56Z</time>
      </trkpt>
      <trkpt lat="28.5958670" lon="-17.8168500">
        <ele>1353.3</ele>
        <time>2020-11-17T13:03:57Z</time>
      </trkpt>
      <trkpt lat="28.5958670" lon="-17.8168500">
        <ele>1353.3</ele>
        <time>2020-11-17T13:03:58Z</time>
      </trkpt>
      <trkpt lat="28.5959300" lon="-17.8168520">
        <ele>1353.7</ele>
        <time>2020-11-17T13:03:59Z</time>
      </trkpt>
      <trkpt lat="28.5959300" lon="-17.8168520">
        <ele>1353.7</ele>
        <time>2020-11-17T13:04:00Z</time>
      </trkpt>
      <trkpt lat="28.5959920" lon="-17.8168550">
        <ele>1354.0</ele>
        <time>2020-11-17T13:04:01Z</time>
      </trkpt>
      <trkpt lat="28.5959920" lon="-17.8168550">
        <ele>1354.0</ele>
        <time>2020-11-17T13:04:02Z</time>
      </trkpt>
      <trkpt lat="28.5960530" lon="-17.8168530">
        <ele>1354.3</ele>
        <time>2020-11-17T13:04:03Z</time>
      </trkpt>
      <trkpt lat="28.5960820" lon="-17.8168580">
        <ele>1354.5</ele>
        <time>2020-11-17T13:04:04Z</time>
      </trkpt>
      <trkpt lat="28.5960820" lon="-17.8168580">
        <ele>1354.5</ele>
        <time>2020-11-17T13:04:05Z</time>
      </trkpt>
      <trkpt lat="28.5961420" lon="-17.8168680">
        <ele>1354.9</ele>
        <time>2020-11-17T13:04:06Z</time>
      </trkpt>
      <trkpt lat="28.5961420" lon="-17.8168680">
        <ele>1354.9</ele>
        <time>2020-11-17T13:04:07Z</time>
      </trkpt>
      <trkpt lat="28.5962000" lon="-17.8168800">
        <ele>1355.2</ele>
        <time>2020-11-17T13:04:08Z</time>
      </trkpt>
      <trkpt lat="28.5962000" lon="-17.8168800">
        <ele>1355.2</ele>
        <time>2020-11-17T13:04:09Z</time>
      </trkpt>
      <trkpt lat="28.5962600" lon="-17.8168880">
        <ele>1355.5</ele>
        <time>2020-11-17T13:04:10Z</time>
      </trkpt>
      <trkpt lat="28.5962600" lon="-17.8168880">
        <ele>1355.5</ele>
        <time>2020-11-17T13:04:11Z</time>
      </trkpt>
      <trkpt lat="28.5963170" lon="-17.8168970">
        <ele>1355.9</ele>
        <time>2020-11-17T13:04:12Z</time>
      </trkpt>
      <trkpt lat="28.5963170" lon="-17.8168970">
        <ele>1355.9</ele>
        <time>2020-11-17T13:04:13Z</time>
      </trkpt>
      <trkpt lat="28.5963780" lon="-17.8169070">
        <ele>1356.2</ele>
        <time>2020-11-17T13:04:14Z</time>
      </trkpt>
      <trkpt lat="28.5964080" lon="-17.8169120">
        <ele>1356.4</ele>
        <time>2020-11-17T13:04:15Z</time>
      </trkpt>
      <trkpt lat="28.5964080" lon="-17.8169120">
        <ele>1356.4</ele>
        <time>2020-11-17T13:04:16Z</time>
      </trkpt>
      <trkpt lat="28.5964670" lon="-17.8169130">
        <ele>1356.8</ele>
        <time>2020-11-17T13:04:17Z</time>
      </trkpt>
      <trkpt lat="28.5964950" lon="-17.8169180">
        <ele>1356.9</ele>
        <time>2020-11-17T13:04:18Z</time>
      </trkpt>
      <trkpt lat="28.5964950" lon="-17.8169180">
        <ele>1356.9</ele>
        <time>2020-11-17T13:04:19Z</time>
      </trkpt>
      <trkpt lat="28.5965500" lon="-17.8169200">
        <ele>1357.2</ele>
        <time>2020-11-17T13:04:20Z</time>
      </trkpt>
      <trkpt lat="28.5965500" lon="-17.8169200">
        <ele>1357.2</ele>
        <time>2020-11-17T13:04:21Z</time>
      </trkpt>
      <trkpt lat="28.5966170" lon="-17.8169280">
        <ele>1357.6</ele>
        <time>2020-11-17T13:04:22Z</time>
      </trkpt>
      <trkpt lat="28.5966170" lon="-17.8169280">
        <ele>1357.6</ele>
        <time>2020-11-17T13:04:23Z</time>
      </trkpt>
      <trkpt lat="28.5966750" lon="-17.8169330">
        <ele>1357.8</ele>
        <time>2020-11-17T13:04:24Z</time>
      </trkpt>
      <trkpt lat="28.5966750" lon="-17.8169330">
        <ele>1357.8</ele>
        <time>2020-11-17T13:04:25Z</time>
      </trkpt>
      <trkpt lat="28.5967300" lon="-17.8169450">
        <ele>1357.9</ele>
        <time>2020-11-17T13:04:26Z</time>
      </trkpt>
      <trkpt lat="28.5967580" lon="-17.8169520">
        <ele>1358.0</ele>
        <time>2020-11-17T13:04:27Z</time>
      </trkpt>
      <trkpt lat="28.5967870" lon="-17.8169580">
        <ele>1358.0</ele>
        <time>2020-11-17T13:04:28Z</time>
      </trkpt>
      <trkpt lat="28.5968130" lon="-17.8169670">
        <ele>1358.0</ele>
        <time>2020-11-17T13:04:29Z</time>
      </trkpt>
      <trkpt lat="28.5968400" lon="-17.8169780">
        <ele>1358.0</ele>
        <time>2020-11-17T13:04:30Z</time>
      </trkpt>
      <trkpt lat="28.5968400" lon="-17.8169780">
        <ele>1358.0</ele>
        <time>2020-11-17T13:04:31Z</time>
      </trkpt>
      <trkpt lat="28.5968930" lon="-17.8169980">
        <ele>1358.0</ele>
        <time>2020-11-17T13:04:32Z</time>
      </trkpt>
      <trkpt lat="28.5969250" lon="-17.8170130">
        <ele>1358.0</ele>
        <time>2020-11-17T13:04:33Z</time>
      </trkpt>
      <trkpt lat="28.5969250" lon="-17.8170130">
        <ele>1358.0</ele>
        <time>2020-11-17T13:04:34Z</time>
      </trkpt>
      <trkpt lat="28.5969830" lon="-17.8170600">
        <ele>1358.0</ele>
        <time>2020-11-17T13:04:35Z</time>
      </trkpt>
      <trkpt lat="28.5970130" lon="-17.8170930">
        <ele>1358.0</ele>
        <time>2020-11-17T13:04:36Z</time>
      </trkpt>
      <trkpt lat="28.5970130" lon="-17.8170930">
        <ele>1358.0</ele>
        <time>2020-11-17T13:04:37Z</time>
      </trkpt>
      <trkpt lat="28.5970570" lon="-17.8171680">
        <ele>1358.0</ele>
        <time>2020-11-17T13:04:38Z</time>
      </trkpt>
      <trkpt lat="28.5970570" lon="-17.8171680">
        <ele>1358.0</ele>
        <time>2020-11-17T13:04:39Z</time>
      </trkpt>
      <trkpt lat="28.5971080" lon="-17.8172370">
        <ele>1358.0</ele>
        <time>2020-11-17T13:04:40Z</time>
      </trkpt>
      <trkpt lat="28.5971080" lon="-17.8172370">
        <ele>1358.0</ele>
        <time>2020-11-17T13:04:41Z</time>
      </trkpt>
      <trkpt lat="28.5971830" lon="-17.8172730">
        <ele>1358.2</ele>
        <time>2020-11-17T13:04:42Z</time>
      </trkpt>
      <trkpt lat="28.5971830" lon="-17.8172730">
        <ele>1358.2</ele>
        <time>2020-11-17T13:04:43Z</time>
      </trkpt>
      <trkpt lat="28.5972600" lon="-17.8173000">
        <ele>1358.5</ele>
        <time>2020-11-17T13:04:44Z</time>
      </trkpt>
      <trkpt lat="28.5972970" lon="-17.8173130">
        <ele>1358.6</ele>
        <time>2020-11-17T13:04:45Z</time>
      </trkpt>
      <trkpt lat="28.5972970" lon="-17.8173130">
        <ele>1358.6</ele>
        <time>2020-11-17T13:04:46Z</time>
      </trkpt>
      <trkpt lat="28.5973630" lon="-17.8173420">
        <ele>1358.9</ele>
        <time>2020-11-17T13:04:47Z</time>
      </trkpt>
      <trkpt lat="28.5973930" lon="-17.8173570">
        <ele>1359.1</ele>
        <time>2020-11-17T13:04:48Z</time>
      </trkpt>
      <trkpt lat="28.5973930" lon="-17.8173570">
        <ele>1359.1</ele>
        <time>2020-11-17T13:04:49Z</time>
      </trkpt>
      <trkpt lat="28.5974430" lon="-17.8173780">
        <ele>1359.3</ele>
        <time>2020-11-17T13:04:50Z</time>
      </trkpt>
      <trkpt lat="28.5974430" lon="-17.8173780">
        <ele>1359.3</ele>
        <time>2020-11-17T13:04:51Z</time>
      </trkpt>
      <trkpt lat="28.5974880" lon="-17.8173920">
        <ele>1359.4</ele>
        <time>2020-11-17T13:04:52Z</time>
      </trkpt>
      <trkpt lat="28.5974880" lon="-17.8173920">
        <ele>1359.4</ele>
        <time>2020-11-17T13:04:53Z</time>
      </trkpt>
      <trkpt lat="28.5975320" lon="-17.8174030">
        <ele>1359.5</ele>
        <time>2020-11-17T13:04:54Z</time>
      </trkpt>
      <trkpt lat="28.5975320" lon="-17.8174030">
        <ele>1359.5</ele>
        <time>2020-11-17T13:04:55Z</time>
      </trkpt>
      <trkpt lat="28.5975770" lon="-17.8174270">
        <ele>1359.5</ele>
        <time>2020-11-17T13:04:56Z</time>
      </trkpt>
      <trkpt lat="28.5975770" lon="-17.8174270">
        <ele>1359.5</ele>
        <time>2020-11-17T13:04:57Z</time>
      </trkpt>
      <trkpt lat="28.5976170" lon="-17.8174520">
        <ele>1359.4</ele>
        <time>2020-11-17T13:04:58Z</time>
      </trkpt>
      <trkpt lat="28.5976170" lon="-17.8174520">
        <ele>1359.4</ele>
        <time>2020-11-17T13:04:59Z</time>
      </trkpt>
      <trkpt lat="28.5976570" lon="-17.8174850">
        <ele>1359.2</ele>
        <time>2020-11-17T13:05:00Z</time>
      </trkpt>
      <trkpt lat="28.5976570" lon="-17.8174850">
        <ele>1359.2</ele>
        <time>2020-11-17T13:05:01Z</time>
      </trkpt>
      <trkpt lat="28.5976970" lon="-17.8175150">
        <ele>1359.0</ele>
        <time>2020-11-17T13:05:02Z</time>
      </trkpt>
      <trkpt lat="28.5976970" lon="-17.8175150">
        <ele>1359.0</ele>
        <time>2020-11-17T13:05:03Z</time>
      </trkpt>
      <trkpt lat="28.5977350" lon="-17.8175530">
        <ele>1358.7</ele>
        <time>2020-11-17T13:05:04Z</time>
      </trkpt>
      <trkpt lat="28.5977530" lon="-17.8175730">
        <ele>1358.5</ele>
        <time>2020-11-17T13:05:05Z</time>
      </trkpt>
      <trkpt lat="28.5977530" lon="-17.8175730">
        <ele>1358.5</ele>
        <time>2020-11-17T13:05:06Z</time>
      </trkpt>
      <trkpt lat="28.5977950" lon="-17.8176250">
        <ele>1358.1</ele>
        <time>2020-11-17T13:05:07Z</time>
      </trkpt>
      <trkpt lat="28.5978230" lon="-17.8176420">
        <ele>1357.8</ele>
        <time>2020-11-17T13:05:08Z</time>
      </trkpt>
      <trkpt lat="28.5978230" lon="-17.8176420">
        <ele>1357.8</ele>
        <time>2020-11-17T13:05:09Z</time>
      </trkpt>
      <trkpt lat="28.5979020" lon="-17.8176320">
        <ele>1357.2</ele>
        <time>2020-11-17T13:05:10Z</time>
      </trkpt>
      <trkpt lat="28.5979430" lon="-17.8176070">
        <ele>1356.9</ele>
        <time>2020-11-17T13:05:11Z</time>
      </trkpt>
      <trkpt lat="28.5979850" lon="-17.8175720">
        <ele>1356.5</ele>
        <time>2020-11-17T13:05:12Z</time>
      </trkpt>
      <trkpt lat="28.5979850" lon="-17.8175720">
        <ele>1356.5</ele>
        <time>2020-11-17T13:05:13Z</time>
      </trkpt>
      <trkpt lat="28.5980620" lon="-17.8174780">
        <ele>1355.8</ele>
        <time>2020-11-17T13:05:14Z</time>
      </trkpt>
      <trkpt lat="28.5980980" lon="-17.8174320">
        <ele>1355.5</ele>
        <time>2020-11-17T13:05:15Z</time>
      </trkpt>
      <trkpt lat="28.5980980" lon="-17.8174320">
        <ele>1355.5</ele>
        <time>2020-11-17T13:05:16Z</time>
      </trkpt>
      <trkpt lat="28.5981550" lon="-17.8173330">
        <ele>1354.9</ele>
        <time>2020-11-17T13:05:17Z</time>
      </trkpt>
      <trkpt lat="28.5981900" lon="-17.8172880">
        <ele>1354.6</ele>
        <time>2020-11-17T13:05:18Z</time>
      </trkpt>
      <trkpt lat="28.5981900" lon="-17.8172880">
        <ele>1354.6</ele>
        <time>2020-11-17T13:05:19Z</time>
      </trkpt>
      <trkpt lat="28.5982720" lon="-17.8172150">
        <ele>1354.0</ele>
        <time>2020-11-17T13:05:20Z</time>
      </trkpt>
      <trkpt lat="28.5982720" lon="-17.8172150">
        <ele>1354.0</ele>
        <time>2020-11-17T13:05:21Z</time>
      </trkpt>
      <trkpt lat="28.5983830" lon="-17.8171750">
        <ele>1353.4</ele>
        <time>2020-11-17T13:05:22Z</time>
      </trkpt>
      <trkpt lat="28.5984530" lon="-17.8171800">
        <ele>1353.2</ele>
        <time>2020-11-17T13:05:23Z</time>
      </trkpt>
      <trkpt lat="28.5985230" lon="-17.8171930">
        <ele>1352.9</ele>
        <time>2020-11-17T13:05:24Z</time>
      </trkpt>
      <trkpt lat="28.5985230" lon="-17.8171930">
        <ele>1352.9</ele>
        <time>2020-11-17T13:05:25Z</time>
      </trkpt>
      <trkpt lat="28.5986500" lon="-17.8172250">
        <ele>1352.5</ele>
        <time>2020-11-17T13:05:26Z</time>
      </trkpt>
      <trkpt lat="28.5987120" lon="-17.8172280">
        <ele>1352.2</ele>
        <time>2020-11-17T13:05:27Z</time>
      </trkpt>
      <trkpt lat="28.5987120" lon="-17.8172280">
        <ele>1352.2</ele>
        <time>2020-11-17T13:05:28Z</time>
      </trkpt>
      <trkpt lat="28.5988320" lon="-17.8172320">
        <ele>1351.8</ele>
        <time>2020-11-17T13:05:29Z</time>
      </trkpt>
      <trkpt lat="28.5988880" lon="-17.8172400">
        <ele>1351.6</ele>
        <time>2020-11-17T13:05:30Z</time>
      </trkpt>
      <trkpt lat="28.5989470" lon="-17.8172520">
        <ele>1351.5</ele>
        <time>2020-11-17T13:05:31Z</time>
      </trkpt>
      <trkpt lat="28.5989470" lon="-17.8172520">
        <ele>1351.5</ele>
        <time>2020-11-17T13:05:32Z</time>
      </trkpt>
      <trkpt lat="28.5990700" lon="-17.8172600">
        <ele>1351.5</ele>
        <time>2020-11-17T13:05:33Z</time>
      </trkpt>
      <trkpt lat="28.5990700" lon="-17.8172600">
        <ele>1351.5</ele>
        <time>2020-11-17T13:05:34Z</time>
      </trkpt>
      <trkpt lat="28.5991730" lon="-17.8172200">
        <ele>1351.8</ele>
        <time>2020-11-17T13:05:35Z</time>
      </trkpt>
      <trkpt lat="28.5992170" lon="-17.8171900">
        <ele>1351.9</ele>
        <time>2020-11-17T13:05:36Z</time>
      </trkpt>
      <trkpt lat="28.5992170" lon="-17.8171900">
        <ele>1351.9</ele>
        <time>2020-11-17T13:05:37Z</time>
      </trkpt>
      <trkpt lat="28.5992930" lon="-17.8171700">
        <ele>1352.1</ele>
        <time>2020-11-17T13:05:38Z</time>
      </trkpt>
      <trkpt lat="28.5992930" lon="-17.8171700">
        <ele>1352.1</ele>
        <time>2020-11-17T13:05:39Z</time>
      </trkpt>
      <trkpt lat="28.5993550" lon="-17.8171920">
        <ele>1352.2</ele>
        <time>2020-11-17T13:05:40Z</time>
      </trkpt>
      <trkpt lat="28.5993550" lon="-17.8171920">
        <ele>1352.2</ele>
        <time>2020-11-17T13:05:41Z</time>
      </trkpt>
      <trkpt lat="28.5994080" lon="-17.8172330">
        <ele>1352.4</ele>
        <time>2020-11-17T13:05:42Z</time>
      </trkpt>
      <trkpt lat="28.5994080" lon="-17.8172330">
        <ele>1352.4</ele>
        <time>2020-11-17T13:05:43Z</time>
      </trkpt>
      <trkpt lat="28.5994630" lon="-17.8172730">
        <ele>1352.5</ele>
        <time>2020-11-17T13:05:44Z</time>
      </trkpt>
      <trkpt lat="28.5994630" lon="-17.8172730">
        <ele>1352.5</ele>
        <time>2020-11-17T13:05:45Z</time>
      </trkpt>
      <trkpt lat="28.5995120" lon="-17.8173080">
        <ele>1352.7</ele>
        <time>2020-11-17T13:05:46Z</time>
      </trkpt>
      <trkpt lat="28.5995120" lon="-17.8173080">
        <ele>1352.7</ele>
        <time>2020-11-17T13:05:47Z</time>
      </trkpt>
      <trkpt lat="28.5995570" lon="-17.8173400">
        <ele>1352.9</ele>
        <time>2020-11-17T13:05:48Z</time>
      </trkpt>
      <trkpt lat="28.5995570" lon="-17.8173400">
        <ele>1352.9</ele>
        <time>2020-11-17T13:05:49Z</time>
      </trkpt>
      <trkpt lat="28.5996000" lon="-17.8173600">
        <ele>1353.0</ele>
        <time>2020-11-17T13:05:50Z</time>
      </trkpt>
      <trkpt lat="28.5996000" lon="-17.8173600">
        <ele>1353.0</ele>
        <time>2020-11-17T13:05:51Z</time>
      </trkpt>
      <trkpt lat="28.5996420" lon="-17.8173770">
        <ele>1353.1</ele>
        <time>2020-11-17T13:05:52Z</time>
      </trkpt>
      <trkpt lat="28.5996420" lon="-17.8173770">
        <ele>1353.1</ele>
        <time>2020-11-17T13:05:53Z</time>
      </trkpt>
      <trkpt lat="28.5996780" lon="-17.8173930">
        <ele>1353.2</ele>
        <time>2020-11-17T13:05:54Z</time>
      </trkpt>
      <trkpt lat="28.5996780" lon="-17.8173930">
        <ele>1353.2</ele>
        <time>2020-11-17T13:05:55Z</time>
      </trkpt>
      <trkpt lat="28.5997250" lon="-17.8174050">
        <ele>1353.3</ele>
        <time>2020-11-17T13:05:56Z</time>
      </trkpt>
      <trkpt lat="28.5997250" lon="-17.8174050">
        <ele>1353.3</ele>
        <time>2020-11-17T13:05:57Z</time>
      </trkpt>
      <trkpt lat="28.5997620" lon="-17.8174170">
        <ele>1353.3</ele>
        <time>2020-11-17T13:05:58Z</time>
      </trkpt>
      <trkpt lat="28.5997620" lon="-17.8174170">
        <ele>1353.3</ele>
        <time>2020-11-17T13:05:59Z</time>
      </trkpt>
      <trkpt lat="28.5998170" lon="-17.8174250">
        <ele>1353.2</ele>
        <time>2020-11-17T13:06:00Z</time>
      </trkpt>
      <trkpt lat="28.5998170" lon="-17.8174250">
        <ele>1353.2</ele>
        <time>2020-11-17T13:06:01Z</time>
      </trkpt>
      <trkpt lat="28.5998720" lon="-17.8174370">
        <ele>1353.2</ele>
        <time>2020-11-17T13:06:02Z</time>
      </trkpt>
      <trkpt lat="28.5998980" lon="-17.8174450">
        <ele>1353.1</ele>
        <time>2020-11-17T13:06:03Z</time>
      </trkpt>
      <trkpt lat="28.5998980" lon="-17.8174450">
        <ele>1353.1</ele>
        <time>2020-11-17T13:06:04Z</time>
      </trkpt>
      <trkpt lat="28.5999500" lon="-17.8174550">
        <ele>1353.0</ele>
        <time>2020-11-17T13:06:05Z</time>
      </trkpt>
      <trkpt lat="28.5999500" lon="-17.8174550">
        <ele>1353.0</ele>
        <time>2020-11-17T13:06:06Z</time>
      </trkpt>
      <trkpt lat="28.6000020" lon="-17.8174700">
        <ele>1352.9</ele>
        <time>2020-11-17T13:06:07Z</time>
      </trkpt>
      <trkpt lat="28.6000250" lon="-17.8174820">
        <ele>1352.9</ele>
        <time>2020-11-17T13:06:08Z</time>
      </trkpt>
      <trkpt lat="28.6000500" lon="-17.8174930">
        <ele>1352.8</ele>
        <time>2020-11-17T13:06:09Z</time>
      </trkpt>
      <trkpt lat="28.6000500" lon="-17.8174930">
        <ele>1352.8</ele>
        <time>2020-11-17T13:06:10Z</time>
      </trkpt>
      <trkpt lat="28.6001050" lon="-17.8175270">
        <ele>1352.7</ele>
        <time>2020-11-17T13:06:11Z</time>
      </trkpt>
      <trkpt lat="28.6001050" lon="-17.8175270">
        <ele>1352.7</ele>
        <time>2020-11-17T13:06:12Z</time>
      </trkpt>
      <trkpt lat="28.6001630" lon="-17.8175700">
        <ele>1352.7</ele>
        <time>2020-11-17T13:06:13Z</time>
      </trkpt>
      <trkpt lat="28.6001630" lon="-17.8175700">
        <ele>1352.7</ele>
        <time>2020-11-17T13:06:14Z</time>
      </trkpt>
      <trkpt lat="28.6002230" lon="-17.8176150">
        <ele>1352.6</ele>
        <time>2020-11-17T13:06:15Z</time>
      </trkpt>
      <trkpt lat="28.6002550" lon="-17.8176370">
        <ele>1352.6</ele>
        <time>2020-11-17T13:06:16Z</time>
      </trkpt>
      <trkpt lat="28.6002550" lon="-17.8176370">
        <ele>1352.6</ele>
        <time>2020-11-17T13:06:17Z</time>
      </trkpt>
      <trkpt lat="28.6003200" lon="-17.8176680">
        <ele>1352.6</ele>
        <time>2020-11-17T13:06:18Z</time>
      </trkpt>
      <trkpt lat="28.6003200" lon="-17.8176680">
        <ele>1352.6</ele>
        <time>2020-11-17T13:06:19Z</time>
      </trkpt>
      <trkpt lat="28.6003820" lon="-17.8176920">
        <ele>1352.5</ele>
        <time>2020-11-17T13:06:20Z</time>
      </trkpt>
      <trkpt lat="28.6003820" lon="-17.8176920">
        <ele>1352.5</ele>
        <time>2020-11-17T13:06:21Z</time>
      </trkpt>
      <trkpt lat="28.6004420" lon="-17.8177120">
        <ele>1352.5</ele>
        <time>2020-11-17T13:06:22Z</time>
      </trkpt>
      <trkpt lat="28.6004420" lon="-17.8177120">
        <ele>1352.5</ele>
        <time>2020-11-17T13:06:23Z</time>
      </trkpt>
      <trkpt lat="28.6005070" lon="-17.8177380">
        <ele>1352.4</ele>
        <time>2020-11-17T13:06:24Z</time>
      </trkpt>
      <trkpt lat="28.6005070" lon="-17.8177380">
        <ele>1352.4</ele>
        <time>2020-11-17T13:06:25Z</time>
      </trkpt>
      <trkpt lat="28.6005770" lon="-17.8177650">
        <ele>1352.3</ele>
        <time>2020-11-17T13:06:26Z</time>
      </trkpt>
      <trkpt lat="28.6006130" lon="-17.8177720">
        <ele>1352.3</ele>
        <time>2020-11-17T13:06:27Z</time>
      </trkpt>
      <trkpt lat="28.6006130" lon="-17.8177720">
        <ele>1352.3</ele>
        <time>2020-11-17T13:06:28Z</time>
      </trkpt>
      <trkpt lat="28.6006850" lon="-17.8177780">
        <ele>1352.1</ele>
        <time>2020-11-17T13:06:29Z</time>
      </trkpt>
      <trkpt lat="28.6007180" lon="-17.8177770">
        <ele>1351.9</ele>
        <time>2020-11-17T13:06:30Z</time>
      </trkpt>
      <trkpt lat="28.6007180" lon="-17.8177770">
        <ele>1351.9</ele>
        <time>2020-11-17T13:06:31Z</time>
      </trkpt>
      <trkpt lat="28.6007850" lon="-17.8177620">
        <ele>1351.7</ele>
        <time>2020-11-17T13:06:32Z</time>
      </trkpt>
      <trkpt lat="28.6008170" lon="-17.8177530">
        <ele>1351.5</ele>
        <time>2020-11-17T13:06:33Z</time>
      </trkpt>
      <trkpt lat="28.6008480" lon="-17.8177430">
        <ele>1351.4</ele>
        <time>2020-11-17T13:06:34Z</time>
      </trkpt>
      <trkpt lat="28.6008480" lon="-17.8177430">
        <ele>1351.4</ele>
        <time>2020-11-17T13:06:35Z</time>
      </trkpt>
      <trkpt lat="28.6009170" lon="-17.8177200">
        <ele>1351.1</ele>
        <time>2020-11-17T13:06:36Z</time>
      </trkpt>
      <trkpt lat="28.6009170" lon="-17.8177200">
        <ele>1351.1</ele>
        <time>2020-11-17T13:06:37Z</time>
      </trkpt>
      <trkpt lat="28.6010000" lon="-17.8177000">
        <ele>1350.8</ele>
        <time>2020-11-17T13:06:38Z</time>
      </trkpt>
      <trkpt lat="28.6010470" lon="-17.8176920">
        <ele>1350.7</ele>
        <time>2020-11-17T13:06:39Z</time>
      </trkpt>
      <trkpt lat="28.6010470" lon="-17.8176920">
        <ele>1350.7</ele>
        <time>2020-11-17T13:06:40Z</time>
      </trkpt>
      <trkpt lat="28.6011400" lon="-17.8176650">
        <ele>1350.7</ele>
        <time>2020-11-17T13:06:41Z</time>
      </trkpt>
      <trkpt lat="28.6011400" lon="-17.8176650">
        <ele>1350.7</ele>
        <time>2020-11-17T13:06:42Z</time>
      </trkpt>
      <trkpt lat="28.6012320" lon="-17.8176430">
        <ele>1350.7</ele>
        <time>2020-11-17T13:06:43Z</time>
      </trkpt>
      <trkpt lat="28.6012730" lon="-17.8176330">
        <ele>1350.8</ele>
        <time>2020-11-17T13:06:44Z</time>
      </trkpt>
      <trkpt lat="28.6012730" lon="-17.8176330">
        <ele>1350.8</ele>
        <time>2020-11-17T13:06:45Z</time>
      </trkpt>
      <trkpt lat="28.6013450" lon="-17.8176170">
        <ele>1350.8</ele>
        <time>2020-11-17T13:06:46Z</time>
      </trkpt>
      <trkpt lat="28.6013450" lon="-17.8176170">
        <ele>1350.8</ele>
        <time>2020-11-17T13:06:47Z</time>
      </trkpt>
      <trkpt lat="28.6014120" lon="-17.8176380">
        <ele>1350.8</ele>
        <time>2020-11-17T13:06:48Z</time>
      </trkpt>
      <trkpt lat="28.6014120" lon="-17.8176380">
        <ele>1350.8</ele>
        <time>2020-11-17T13:06:49Z</time>
      </trkpt>
      <trkpt lat="28.6014600" lon="-17.8176980">
        <ele>1350.7</ele>
        <time>2020-11-17T13:06:50Z</time>
      </trkpt>
      <trkpt lat="28.6014600" lon="-17.8176980">
        <ele>1350.7</ele>
        <time>2020-11-17T13:06:51Z</time>
      </trkpt>
      <trkpt lat="28.6014900" lon="-17.8177780">
        <ele>1350.6</ele>
        <time>2020-11-17T13:06:52Z</time>
      </trkpt>
      <trkpt lat="28.6014900" lon="-17.8177780">
        <ele>1350.6</ele>
        <time>2020-11-17T13:06:53Z</time>
      </trkpt>
      <trkpt lat="28.6015400" lon="-17.8178480">
        <ele>1350.5</ele>
        <time>2020-11-17T13:06:54Z</time>
      </trkpt>
      <trkpt lat="28.6015400" lon="-17.8178480">
        <ele>1350.5</ele>
        <time>2020-11-17T13:06:55Z</time>
      </trkpt>
      <trkpt lat="28.6015930" lon="-17.8179030">
        <ele>1350.5</ele>
        <time>2020-11-17T13:06:56Z</time>
      </trkpt>
      <trkpt lat="28.6016270" lon="-17.8179170">
        <ele>1350.6</ele>
        <time>2020-11-17T13:06:57Z</time>
      </trkpt>
      <trkpt lat="28.6016270" lon="-17.8179170">
        <ele>1350.6</ele>
        <time>2020-11-17T13:06:58Z</time>
      </trkpt>
      <trkpt lat="28.6016780" lon="-17.8179300">
        <ele>1350.6</ele>
        <time>2020-11-17T13:06:59Z</time>
      </trkpt>
      <trkpt lat="28.6016970" lon="-17.8179380">
        <ele>1350.7</ele>
        <time>2020-11-17T13:07:00Z</time>
      </trkpt>
      <trkpt lat="28.6016970" lon="-17.8179380">
        <ele>1350.7</ele>
        <time>2020-11-17T13:07:01Z</time>
      </trkpt>
      <trkpt lat="28.6017300" lon="-17.8179520">
        <ele>1350.8</ele>
        <time>2020-11-17T13:07:02Z</time>
      </trkpt>
      <trkpt lat="28.6017470" lon="-17.8179630">
        <ele>1350.8</ele>
        <time>2020-11-17T13:07:03Z</time>
      </trkpt>
      <trkpt lat="28.6017470" lon="-17.8179630">
        <ele>1350.8</ele>
        <time>2020-11-17T13:07:04Z</time>
      </trkpt>
      <trkpt lat="28.6017870" lon="-17.8179820">
        <ele>1350.9</ele>
        <time>2020-11-17T13:07:05Z</time>
      </trkpt>
      <trkpt lat="28.6018070" lon="-17.8179930">
        <ele>1351.0</ele>
        <time>2020-11-17T13:07:06Z</time>
      </trkpt>
      <trkpt lat="28.6018070" lon="-17.8179930">
        <ele>1351.0</ele>
        <time>2020-11-17T13:07:07Z</time>
      </trkpt>
      <trkpt lat="28.6018400" lon="-17.8180180">
        <ele>1351.1</ele>
        <time>2020-11-17T13:07:08Z</time>
      </trkpt>
      <trkpt lat="28.6018550" lon="-17.8180300">
        <ele>1351.1</ele>
        <time>2020-11-17T13:07:09Z</time>
      </trkpt>
      <trkpt lat="28.6018550" lon="-17.8180300">
        <ele>1351.1</ele>
        <time>2020-11-17T13:07:10Z</time>
      </trkpt>
      <trkpt lat="28.6018850" lon="-17.8180500">
        <ele>1351.1</ele>
        <time>2020-11-17T13:07:11Z</time>
      </trkpt>
      <trkpt lat="28.6018850" lon="-17.8180500">
        <ele>1351.1</ele>
        <time>2020-11-17T13:07:12Z</time>
      </trkpt>
      <trkpt lat="28.6019100" lon="-17.8180670">
        <ele>1351.2</ele>
        <time>2020-11-17T13:07:13Z</time>
      </trkpt>
      <trkpt lat="28.6019100" lon="-17.8180670">
        <ele>1351.2</ele>
        <time>2020-11-17T13:07:14Z</time>
      </trkpt>
      <trkpt lat="28.6019380" lon="-17.8180820">
        <ele>1351.2</ele>
        <time>2020-11-17T13:07:15Z</time>
      </trkpt>
      <trkpt lat="28.6019550" lon="-17.8180850">
        <ele>1351.2</ele>
        <time>2020-11-17T13:07:16Z</time>
      </trkpt>
      <trkpt lat="28.6019550" lon="-17.8180850">
        <ele>1351.2</ele>
        <time>2020-11-17T13:07:17Z</time>
      </trkpt>
      <trkpt lat="28.6019850" lon="-17.8180850">
        <ele>1351.2</ele>
        <time>2020-11-17T13:07:18Z</time>
      </trkpt>
      <trkpt lat="28.6019850" lon="-17.8180850">
        <ele>1351.2</ele>
        <time>2020-11-17T13:07:19Z</time>
      </trkpt>
      <trkpt lat="28.6020170" lon="-17.8180980">
        <ele>1351.3</ele>
        <time>2020-11-17T13:07:20Z</time>
      </trkpt>
      <trkpt lat="28.6020170" lon="-17.8180980">
        <ele>1351.3</ele>
        <time>2020-11-17T13:07:21Z</time>
      </trkpt>
      <trkpt lat="28.6020430" lon="-17.8181250">
        <ele>1351.5</ele>
        <time>2020-11-17T13:07:22Z</time>
      </trkpt>
      <trkpt lat="28.6020430" lon="-17.8181250">
        <ele>1351.5</ele>
        <time>2020-11-17T13:07:23Z</time>
      </trkpt>
      <trkpt lat="28.6020700" lon="-17.8181480">
        <ele>1351.6</ele>
        <time>2020-11-17T13:07:24Z</time>
      </trkpt>
      <trkpt lat="28.6020700" lon="-17.8181480">
        <ele>1351.6</ele>
        <time>2020-11-17T13:07:25Z</time>
      </trkpt>
      <trkpt lat="28.6021070" lon="-17.8181870">
        <ele>1351.8</ele>
        <time>2020-11-17T13:07:26Z</time>
      </trkpt>
      <trkpt lat="28.6021270" lon="-17.8182100">
        <ele>1351.9</ele>
        <time>2020-11-17T13:07:27Z</time>
      </trkpt>
      <trkpt lat="28.6021450" lon="-17.8182370">
        <ele>1352.1</ele>
        <time>2020-11-17T13:07:28Z</time>
      </trkpt>
      <trkpt lat="28.6021450" lon="-17.8182370">
        <ele>1352.1</ele>
        <time>2020-11-17T13:07:29Z</time>
      </trkpt>
      <trkpt lat="28.6021770" lon="-17.8182950">
        <ele>1352.4</ele>
        <time>2020-11-17T13:07:30Z</time>
      </trkpt>
      <trkpt lat="28.6021770" lon="-17.8182950">
        <ele>1352.4</ele>
        <time>2020-11-17T13:07:31Z</time>
      </trkpt>
      <trkpt lat="28.6022080" lon="-17.8183530">
        <ele>1352.8</ele>
        <time>2020-11-17T13:07:32Z</time>
      </trkpt>
      <trkpt lat="28.6022080" lon="-17.8183530">
        <ele>1352.8</ele>
        <time>2020-11-17T13:07:33Z</time>
      </trkpt>
      <trkpt lat="28.6022550" lon="-17.8183970">
        <ele>1353.2</ele>
        <time>2020-11-17T13:07:34Z</time>
      </trkpt>
      <trkpt lat="28.6022550" lon="-17.8183970">
        <ele>1353.2</ele>
        <time>2020-11-17T13:07:35Z</time>
      </trkpt>
      <trkpt lat="28.6023050" lon="-17.8184370">
        <ele>1353.7</ele>
        <time>2020-11-17T13:07:36Z</time>
      </trkpt>
      <trkpt lat="28.6023050" lon="-17.8184370">
        <ele>1353.7</ele>
        <time>2020-11-17T13:07:37Z</time>
      </trkpt>
      <trkpt lat="28.6023570" lon="-17.8184730">
        <ele>1354.2</ele>
        <time>2020-11-17T13:07:38Z</time>
      </trkpt>
      <trkpt lat="28.6023570" lon="-17.8184730">
        <ele>1354.2</ele>
        <time>2020-11-17T13:07:39Z</time>
      </trkpt>
      <trkpt lat="28.6024050" lon="-17.8185030">
        <ele>1354.7</ele>
        <time>2020-11-17T13:07:40Z</time>
      </trkpt>
      <trkpt lat="28.6024050" lon="-17.8185030">
        <ele>1354.7</ele>
        <time>2020-11-17T13:07:41Z</time>
      </trkpt>
      <trkpt lat="28.6024550" lon="-17.8185380">
        <ele>1355.2</ele>
        <time>2020-11-17T13:07:42Z</time>
      </trkpt>
      <trkpt lat="28.6024820" lon="-17.8185630">
        <ele>1355.5</ele>
        <time>2020-11-17T13:07:43Z</time>
      </trkpt>
      <trkpt lat="28.6024820" lon="-17.8185630">
        <ele>1355.5</ele>
        <time>2020-11-17T13:07:44Z</time>
      </trkpt>
      <trkpt lat="28.6025350" lon="-17.8186220">
        <ele>1356.2</ele>
        <time>2020-11-17T13:07:45Z</time>
      </trkpt>
      <trkpt lat="28.6025350" lon="-17.8186220">
        <ele>1356.2</ele>
        <time>2020-11-17T13:07:46Z</time>
      </trkpt>
      <trkpt lat="28.6025780" lon="-17.8186850">
        <ele>1356.7</ele>
        <time>2020-11-17T13:07:47Z</time>
      </trkpt>
      <trkpt lat="28.6025970" lon="-17.8187200">
        <ele>1357.0</ele>
        <time>2020-11-17T13:07:48Z</time>
      </trkpt>
      <trkpt lat="28.6025970" lon="-17.8187200">
        <ele>1357.0</ele>
        <time>2020-11-17T13:07:49Z</time>
      </trkpt>
      <trkpt lat="28.6026230" lon="-17.8187850">
        <ele>1357.5</ele>
        <time>2020-11-17T13:07:50Z</time>
      </trkpt>
      <trkpt lat="28.6026230" lon="-17.8187850">
        <ele>1357.5</ele>
        <time>2020-11-17T13:07:51Z</time>
      </trkpt>
      <trkpt lat="28.6026500" lon="-17.8188550">
        <ele>1358.1</ele>
        <time>2020-11-17T13:07:52Z</time>
      </trkpt>
      <trkpt lat="28.6026650" lon="-17.8188950">
        <ele>1358.4</ele>
        <time>2020-11-17T13:07:53Z</time>
      </trkpt>
      <trkpt lat="28.6026830" lon="-17.8189330">
        <ele>1358.8</ele>
        <time>2020-11-17T13:07:54Z</time>
      </trkpt>
      <trkpt lat="28.6026830" lon="-17.8189330">
        <ele>1358.8</ele>
        <time>2020-11-17T13:07:55Z</time>
      </trkpt>
      <trkpt lat="28.6027450" lon="-17.8189770">
        <ele>1359.5</ele>
        <time>2020-11-17T13:07:56Z</time>
      </trkpt>
      <trkpt lat="28.6027450" lon="-17.8189770">
        <ele>1359.5</ele>
        <time>2020-11-17T13:07:57Z</time>
      </trkpt>
      <trkpt lat="28.6028150" lon="-17.8189870">
        <ele>1360.2</ele>
        <time>2020-11-17T13:07:58Z</time>
      </trkpt>
      <trkpt lat="28.6028150" lon="-17.8189870">
        <ele>1360.2</ele>
        <time>2020-11-17T13:07:59Z</time>
      </trkpt>
      <trkpt lat="28.6028900" lon="-17.8189920">
        <ele>1360.3</ele>
        <time>2020-11-17T13:08:00Z</time>
      </trkpt>
      <trkpt lat="28.6028900" lon="-17.8189920">
        <ele>1360.3</ele>
        <time>2020-11-17T13:08:01Z</time>
      </trkpt>
      <trkpt lat="28.6029470" lon="-17.8189880">
        <ele>1360.4</ele>
        <time>2020-11-17T13:08:02Z</time>
      </trkpt>
      <trkpt lat="28.6029470" lon="-17.8189880">
        <ele>1360.4</ele>
        <time>2020-11-17T13:08:03Z</time>
      </trkpt>
      <trkpt lat="28.6029970" lon="-17.8190050">
        <ele>1360.5</ele>
        <time>2020-11-17T13:08:04Z</time>
      </trkpt>
      <trkpt lat="28.6029970" lon="-17.8190050">
        <ele>1360.5</ele>
        <time>2020-11-17T13:08:05Z</time>
      </trkpt>
      <trkpt lat="28.6030520" lon="-17.8190130">
        <ele>1360.6</ele>
        <time>2020-11-17T13:08:06Z</time>
      </trkpt>
      <trkpt lat="28.6030520" lon="-17.8190130">
        <ele>1360.6</ele>
        <time>2020-11-17T13:08:07Z</time>
      </trkpt>
      <trkpt lat="28.6031080" lon="-17.8190300">
        <ele>1360.7</ele>
        <time>2020-11-17T13:08:08Z</time>
      </trkpt>
      <trkpt lat="28.6031080" lon="-17.8190300">
        <ele>1360.7</ele>
        <time>2020-11-17T13:08:09Z</time>
      </trkpt>
      <trkpt lat="28.6031630" lon="-17.8190400">
        <ele>1360.8</ele>
        <time>2020-11-17T13:08:10Z</time>
      </trkpt>
      <trkpt lat="28.6031630" lon="-17.8190400">
        <ele>1360.8</ele>
        <time>2020-11-17T13:08:11Z</time>
      </trkpt>
      <trkpt lat="28.6032180" lon="-17.8190500">
        <ele>1360.9</ele>
        <time>2020-11-17T13:08:12Z</time>
      </trkpt>
      <trkpt lat="28.6032180" lon="-17.8190500">
        <ele>1360.9</ele>
        <time>2020-11-17T13:08:13Z</time>
      </trkpt>
      <trkpt lat="28.6032720" lon="-17.8190630">
        <ele>1361.0</ele>
        <time>2020-11-17T13:08:14Z</time>
      </trkpt>
      <trkpt lat="28.6032720" lon="-17.8190630">
        <ele>1361.0</ele>
        <time>2020-11-17T13:08:15Z</time>
      </trkpt>
      <trkpt lat="28.6033230" lon="-17.8190630">
        <ele>1361.1</ele>
        <time>2020-11-17T13:08:16Z</time>
      </trkpt>
      <trkpt lat="28.6033230" lon="-17.8190630">
        <ele>1361.1</ele>
        <time>2020-11-17T13:08:17Z</time>
      </trkpt>
      <trkpt lat="28.6033720" lon="-17.8190470">
        <ele>1361.2</ele>
        <time>2020-11-17T13:08:18Z</time>
      </trkpt>
      <trkpt lat="28.6033720" lon="-17.8190470">
        <ele>1361.2</ele>
        <time>2020-11-17T13:08:19Z</time>
      </trkpt>
      <trkpt lat="28.6034170" lon="-17.8190230">
        <ele>1361.3</ele>
        <time>2020-11-17T13:08:20Z</time>
      </trkpt>
      <trkpt lat="28.6034170" lon="-17.8190230">
        <ele>1361.3</ele>
        <time>2020-11-17T13:08:21Z</time>
      </trkpt>
      <trkpt lat="28.6034630" lon="-17.8190020">
        <ele>1361.4</ele>
        <time>2020-11-17T13:08:22Z</time>
      </trkpt>
      <trkpt lat="28.6034630" lon="-17.8190020">
        <ele>1361.4</ele>
        <time>2020-11-17T13:08:23Z</time>
      </trkpt>
      <trkpt lat="28.6035070" lon="-17.8189800">
        <ele>1361.5</ele>
        <time>2020-11-17T13:08:24Z</time>
      </trkpt>
      <trkpt lat="28.6035070" lon="-17.8189800">
        <ele>1361.5</ele>
        <time>2020-11-17T13:08:25Z</time>
      </trkpt>
      <trkpt lat="28.6035480" lon="-17.8189600">
        <ele>1361.6</ele>
        <time>2020-11-17T13:08:26Z</time>
      </trkpt>
      <trkpt lat="28.6035480" lon="-17.8189600">
        <ele>1361.6</ele>
        <time>2020-11-17T13:08:27Z</time>
      </trkpt>
      <trkpt lat="28.6035870" lon="-17.8189330">
        <ele>1361.6</ele>
        <time>2020-11-17T13:08:28Z</time>
      </trkpt>
      <trkpt lat="28.6035870" lon="-17.8189330">
        <ele>1361.6</ele>
        <time>2020-11-17T13:08:29Z</time>
      </trkpt>
      <trkpt lat="28.6036300" lon="-17.8189230">
        <ele>1361.6</ele>
        <time>2020-11-17T13:08:30Z</time>
      </trkpt>
      <trkpt lat="28.6036300" lon="-17.8189230">
        <ele>1361.6</ele>
        <time>2020-11-17T13:08:31Z</time>
      </trkpt>
      <trkpt lat="28.6036800" lon="-17.8189000">
        <ele>1361.7</ele>
        <time>2020-11-17T13:08:32Z</time>
      </trkpt>
      <trkpt lat="28.6037030" lon="-17.8188850">
        <ele>1361.7</ele>
        <time>2020-11-17T13:08:33Z</time>
      </trkpt>
      <trkpt lat="28.6037030" lon="-17.8188850">
        <ele>1361.7</ele>
        <time>2020-11-17T13:08:34Z</time>
      </trkpt>
      <trkpt lat="28.6037420" lon="-17.8188570">
        <ele>1361.7</ele>
        <time>2020-11-17T13:08:35Z</time>
      </trkpt>
      <trkpt lat="28.6037630" lon="-17.8188400">
        <ele>1361.8</ele>
        <time>2020-11-17T13:08:36Z</time>
      </trkpt>
      <trkpt lat="28.6037630" lon="-17.8188400">
        <ele>1361.8</ele>
        <time>2020-11-17T13:08:37Z</time>
      </trkpt>
      <trkpt lat="28.6038000" lon="-17.8188030">
        <ele>1361.8</ele>
        <time>2020-11-17T13:08:38Z</time>
      </trkpt>
      <trkpt lat="28.6038170" lon="-17.8187880">
        <ele>1361.8</ele>
        <time>2020-11-17T13:08:39Z</time>
      </trkpt>
      <trkpt lat="28.6038170" lon="-17.8187880">
        <ele>1361.8</ele>
        <time>2020-11-17T13:08:40Z</time>
      </trkpt>
      <trkpt lat="28.6038600" lon="-17.8187550">
        <ele>1361.8</ele>
        <time>2020-11-17T13:08:41Z</time>
      </trkpt>
      <trkpt lat="28.6038820" lon="-17.8187380">
        <ele>1361.8</ele>
        <time>2020-11-17T13:08:42Z</time>
      </trkpt>
      <trkpt lat="28.6038820" lon="-17.8187380">
        <ele>1361.8</ele>
        <time>2020-11-17T13:08:43Z</time>
      </trkpt>
      <trkpt lat="28.6039200" lon="-17.8186980">
        <ele>1361.9</ele>
        <time>2020-11-17T13:08:44Z</time>
      </trkpt>
      <trkpt lat="28.6039200" lon="-17.8186980">
        <ele>1361.9</ele>
        <time>2020-11-17T13:08:45Z</time>
      </trkpt>
      <trkpt lat="28.6039620" lon="-17.8186600">
        <ele>1361.9</ele>
        <time>2020-11-17T13:08:46Z</time>
      </trkpt>
      <trkpt lat="28.6039820" lon="-17.8186430">
        <ele>1361.9</ele>
        <time>2020-11-17T13:08:47Z</time>
      </trkpt>
      <trkpt lat="28.6039820" lon="-17.8186430">
        <ele>1361.9</ele>
        <time>2020-11-17T13:08:48Z</time>
      </trkpt>
      <trkpt lat="28.6040200" lon="-17.8186050">
        <ele>1361.9</ele>
        <time>2020-11-17T13:08:49Z</time>
      </trkpt>
      <trkpt lat="28.6040200" lon="-17.8186050">
        <ele>1361.9</ele>
        <time>2020-11-17T13:08:50Z</time>
      </trkpt>
      <trkpt lat="28.6040580" lon="-17.8185520">
        <ele>1361.9</ele>
        <time>2020-11-17T13:08:51Z</time>
      </trkpt>
      <trkpt lat="28.6040700" lon="-17.8185150">
        <ele>1361.9</ele>
        <time>2020-11-17T13:08:52Z</time>
      </trkpt>
      <trkpt lat="28.6040700" lon="-17.8185150">
        <ele>1361.9</ele>
        <time>2020-11-17T13:08:53Z</time>
      </trkpt>
      <trkpt lat="28.6040850" lon="-17.8184380">
        <ele>1362.0</ele>
        <time>2020-11-17T13:08:54Z</time>
      </trkpt>
      <trkpt lat="28.6040850" lon="-17.8184380">
        <ele>1362.0</ele>
        <time>2020-11-17T13:08:55Z</time>
      </trkpt>
      <trkpt lat="28.6040920" lon="-17.8183580">
        <ele>1362.0</ele>
        <time>2020-11-17T13:08:56Z</time>
      </trkpt>
      <trkpt lat="28.6040920" lon="-17.8183580">
        <ele>1362.0</ele>
        <time>2020-11-17T13:08:57Z</time>
      </trkpt>
      <trkpt lat="28.6041130" lon="-17.8182880">
        <ele>1362.0</ele>
        <time>2020-11-17T13:08:58Z</time>
      </trkpt>
      <trkpt lat="28.6041130" lon="-17.8182880">
        <ele>1362.0</ele>
        <time>2020-11-17T13:08:59Z</time>
      </trkpt>
      <trkpt lat="28.6041520" lon="-17.8182420">
        <ele>1362.0</ele>
        <time>2020-11-17T13:09:00Z</time>
      </trkpt>
      <trkpt lat="28.6041520" lon="-17.8182420">
        <ele>1362.0</ele>
        <time>2020-11-17T13:09:01Z</time>
      </trkpt>
      <trkpt lat="28.6041930" lon="-17.8182080">
        <ele>1362.0</ele>
        <time>2020-11-17T13:09:02Z</time>
      </trkpt>
      <trkpt lat="28.6042220" lon="-17.8182070">
        <ele>1362.0</ele>
        <time>2020-11-17T13:09:03Z</time>
      </trkpt>
      <trkpt lat="28.6042220" lon="-17.8182070">
        <ele>1362.0</ele>
        <time>2020-11-17T13:09:04Z</time>
      </trkpt>
      <trkpt lat="28.6042750" lon="-17.8182200">
        <ele>1362.0</ele>
        <time>2020-11-17T13:09:05Z</time>
      </trkpt>
      <trkpt lat="28.6042750" lon="-17.8182200">
        <ele>1362.0</ele>
        <time>2020-11-17T13:09:06Z</time>
      </trkpt>
      <trkpt lat="28.6043180" lon="-17.8182580">
        <ele>1362.0</ele>
        <time>2020-11-17T13:09:07Z</time>
      </trkpt>
      <trkpt lat="28.6043180" lon="-17.8182580">
        <ele>1362.0</ele>
        <time>2020-11-17T13:09:08Z</time>
      </trkpt>
      <trkpt lat="28.6043530" lon="-17.8183150">
        <ele>1362.0</ele>
        <time>2020-11-17T13:09:09Z</time>
      </trkpt>
      <trkpt lat="28.6043700" lon="-17.8183430">
        <ele>1362.0</ele>
        <time>2020-11-17T13:09:10Z</time>
      </trkpt>
      <trkpt lat="28.6043700" lon="-17.8183430">
        <ele>1362.0</ele>
        <time>2020-11-17T13:09:11Z</time>
      </trkpt>
      <trkpt lat="28.6044070" lon="-17.8183930">
        <ele>1362.0</ele>
        <time>2020-11-17T13:09:12Z</time>
      </trkpt>
      <trkpt lat="28.6044070" lon="-17.8183930">
        <ele>1362.0</ele>
        <time>2020-11-17T13:09:13Z</time>
      </trkpt>
      <trkpt lat="28.6044430" lon="-17.8184400">
        <ele>1362.0</ele>
        <time>2020-11-17T13:09:14Z</time>
      </trkpt>
      <trkpt lat="28.6044650" lon="-17.8184630">
        <ele>1362.0</ele>
        <time>2020-11-17T13:09:15Z</time>
      </trkpt>
      <trkpt lat="28.6044650" lon="-17.8184630">
        <ele>1362.0</ele>
        <time>2020-11-17T13:09:16Z</time>
      </trkpt>
      <trkpt lat="28.6045120" lon="-17.8184980">
        <ele>1362.0</ele>
        <time>2020-11-17T13:09:17Z</time>
      </trkpt>
      <trkpt lat="28.6045380" lon="-17.8185070">
        <ele>1362.0</ele>
        <time>2020-11-17T13:09:18Z</time>
      </trkpt>
      <trkpt lat="28.6045630" lon="-17.8185120">
        <ele>1362.0</ele>
        <time>2020-11-17T13:09:19Z</time>
      </trkpt>
      <trkpt lat="28.6045630" lon="-17.8185120">
        <ele>1362.0</ele>
        <time>2020-11-17T13:09:20Z</time>
      </trkpt>
      <trkpt lat="28.6046100" lon="-17.8185120">
        <ele>1362.0</ele>
        <time>2020-11-17T13:09:21Z</time>
      </trkpt>
      <trkpt lat="28.6046100" lon="-17.8185120">
        <ele>1362.0</ele>
        <time>2020-11-17T13:09:22Z</time>
      </trkpt>
      <trkpt lat="28.6046550" lon="-17.8184820">
        <ele>1362.0</ele>
        <time>2020-11-17T13:09:23Z</time>
      </trkpt>
      <trkpt lat="28.6046770" lon="-17.8184570">
        <ele>1361.9</ele>
        <time>2020-11-17T13:09:24Z</time>
      </trkpt>
      <trkpt lat="28.6046770" lon="-17.8184570">
        <ele>1361.9</ele>
        <time>2020-11-17T13:09:25Z</time>
      </trkpt>
      <trkpt lat="28.6047200" lon="-17.8184070">
        <ele>1361.9</ele>
        <time>2020-11-17T13:09:26Z</time>
      </trkpt>
      <trkpt lat="28.6047200" lon="-17.8184070">
        <ele>1361.9</ele>
        <time>2020-11-17T13:09:27Z</time>
      </trkpt>
      <trkpt lat="28.6047720" lon="-17.8183570">
        <ele>1361.8</ele>
        <time>2020-11-17T13:09:28Z</time>
      </trkpt>
      <trkpt lat="28.6047980" lon="-17.8183330">
        <ele>1361.8</ele>
        <time>2020-11-17T13:09:29Z</time>
      </trkpt>
      <trkpt lat="28.6048250" lon="-17.8183070">
        <ele>1362.0</ele>
        <time>2020-11-17T13:09:30Z</time>
      </trkpt>
      <trkpt lat="28.6048250" lon="-17.8183070">
        <ele>1362.0</ele>
        <time>2020-11-17T13:09:31Z</time>
      </trkpt>
      <trkpt lat="28.6048830" lon="-17.8182500">
        <ele>1362.3</ele>
        <time>2020-11-17T13:09:32Z</time>
      </trkpt>
      <trkpt lat="28.6049170" lon="-17.8182220">
        <ele>1362.4</ele>
        <time>2020-11-17T13:09:33Z</time>
      </trkpt>
      <trkpt lat="28.6049170" lon="-17.8182220">
        <ele>1362.4</ele>
        <time>2020-11-17T13:09:34Z</time>
      </trkpt>
      <trkpt lat="28.6049680" lon="-17.8181670">
        <ele>1362.7</ele>
        <time>2020-11-17T13:09:35Z</time>
      </trkpt>
      <trkpt lat="28.6049680" lon="-17.8181670">
        <ele>1362.7</ele>
        <time>2020-11-17T13:09:36Z</time>
      </trkpt>
      <trkpt lat="28.6050220" lon="-17.8181120">
        <ele>1362.9</ele>
        <time>2020-11-17T13:09:37Z</time>
      </trkpt>
      <trkpt lat="28.6050220" lon="-17.8181120">
        <ele>1362.9</ele>
        <time>2020-11-17T13:09:38Z</time>
      </trkpt>
      <trkpt lat="28.6050750" lon="-17.8180520">
        <ele>1363.1</ele>
        <time>2020-11-17T13:09:39Z</time>
      </trkpt>
      <trkpt lat="28.6050750" lon="-17.8180520">
        <ele>1363.1</ele>
        <time>2020-11-17T13:09:40Z</time>
      </trkpt>
      <trkpt lat="28.6051300" lon="-17.8179950">
        <ele>1363.3</ele>
        <time>2020-11-17T13:09:41Z</time>
      </trkpt>
      <trkpt lat="28.6051600" lon="-17.8179650">
        <ele>1363.4</ele>
        <time>2020-11-17T13:09:42Z</time>
      </trkpt>
      <trkpt lat="28.6051600" lon="-17.8179650">
        <ele>1363.4</ele>
        <time>2020-11-17T13:09:43Z</time>
      </trkpt>
      <trkpt lat="28.6052200" lon="-17.8179030">
        <ele>1363.7</ele>
        <time>2020-11-17T13:09:44Z</time>
      </trkpt>
      <trkpt lat="28.6052520" lon="-17.8178680">
        <ele>1363.8</ele>
        <time>2020-11-17T13:09:45Z</time>
      </trkpt>
      <trkpt lat="28.6052520" lon="-17.8178680">
        <ele>1363.8</ele>
        <time>2020-11-17T13:09:46Z</time>
      </trkpt>
      <trkpt lat="28.6053050" lon="-17.8178050">
        <ele>1364.1</ele>
        <time>2020-11-17T13:09:47Z</time>
      </trkpt>
      <trkpt lat="28.6053280" lon="-17.8177730">
        <ele>1364.3</ele>
        <time>2020-11-17T13:09:48Z</time>
      </trkpt>
      <trkpt lat="28.6053280" lon="-17.8177730">
        <ele>1364.3</ele>
        <time>2020-11-17T13:09:49Z</time>
      </trkpt>
      <trkpt lat="28.6053780" lon="-17.8177070">
        <ele>1364.6</ele>
        <time>2020-11-17T13:09:50Z</time>
      </trkpt>
      <trkpt lat="28.6053780" lon="-17.8177070">
        <ele>1364.6</ele>
        <time>2020-11-17T13:09:51Z</time>
      </trkpt>
      <trkpt lat="28.6054320" lon="-17.8176670">
        <ele>1364.9</ele>
        <time>2020-11-17T13:09:52Z</time>
      </trkpt>
      <trkpt lat="28.6054630" lon="-17.8176670">
        <ele>1365.0</ele>
        <time>2020-11-17T13:09:53Z</time>
      </trkpt>
      <trkpt lat="28.6054630" lon="-17.8176670">
        <ele>1365.0</ele>
        <time>2020-11-17T13:09:54Z</time>
      </trkpt>
      <trkpt lat="28.6055220" lon="-17.8176950">
        <ele>1365.2</ele>
        <time>2020-11-17T13:09:55Z</time>
      </trkpt>
      <trkpt lat="28.6055220" lon="-17.8176950">
        <ele>1365.2</ele>
        <time>2020-11-17T13:09:56Z</time>
      </trkpt>
      <trkpt lat="28.6055520" lon="-17.8177620">
        <ele>1365.3</ele>
        <time>2020-11-17T13:09:57Z</time>
      </trkpt>
      <trkpt lat="28.6055520" lon="-17.8177620">
        <ele>1365.3</ele>
        <time>2020-11-17T13:09:58Z</time>
      </trkpt>
      <trkpt lat="28.6055650" lon="-17.8178470">
        <ele>1365.4</ele>
        <time>2020-11-17T13:09:59Z</time>
      </trkpt>
      <trkpt lat="28.6055650" lon="-17.8178470">
        <ele>1365.4</ele>
        <time>2020-11-17T13:10:00Z</time>
      </trkpt>
      <trkpt lat="28.6055570" lon="-17.8179370">
        <ele>1365.5</ele>
        <time>2020-11-17T13:10:01Z</time>
      </trkpt>
      <trkpt lat="28.6055480" lon="-17.8179800">
        <ele>1365.5</ele>
        <time>2020-11-17T13:10:02Z</time>
      </trkpt>
      <trkpt lat="28.6055480" lon="-17.8179800">
        <ele>1365.5</ele>
        <time>2020-11-17T13:10:03Z</time>
      </trkpt>
      <trkpt lat="28.6055320" lon="-17.8180630">
        <ele>1365.5</ele>
        <time>2020-11-17T13:10:04Z</time>
      </trkpt>
      <trkpt lat="28.6055320" lon="-17.8180630">
        <ele>1365.5</ele>
        <time>2020-11-17T13:10:05Z</time>
      </trkpt>
      <trkpt lat="28.6055070" lon="-17.8181550">
        <ele>1365.5</ele>
        <time>2020-11-17T13:10:06Z</time>
      </trkpt>
      <trkpt lat="28.6055070" lon="-17.8181550">
        <ele>1365.5</ele>
        <time>2020-11-17T13:10:07Z</time>
      </trkpt>
      <trkpt lat="28.6054820" lon="-17.8182520">
        <ele>1365.5</ele>
        <time>2020-11-17T13:10:08Z</time>
      </trkpt>
      <trkpt lat="28.6054720" lon="-17.8183020">
        <ele>1365.5</ele>
        <time>2020-11-17T13:10:09Z</time>
      </trkpt>
      <trkpt lat="28.6054720" lon="-17.8183020">
        <ele>1365.5</ele>
        <time>2020-11-17T13:10:10Z</time>
      </trkpt>
      <trkpt lat="28.6054550" lon="-17.8184120">
        <ele>1365.5</ele>
        <time>2020-11-17T13:10:11Z</time>
      </trkpt>
      <trkpt lat="28.6054450" lon="-17.8184650">
        <ele>1365.5</ele>
        <time>2020-11-17T13:10:12Z</time>
      </trkpt>
      <trkpt lat="28.6054450" lon="-17.8184650">
        <ele>1365.5</ele>
        <time>2020-11-17T13:10:13Z</time>
      </trkpt>
      <trkpt lat="28.6054130" lon="-17.8185670">
        <ele>1365.5</ele>
        <time>2020-11-17T13:10:14Z</time>
      </trkpt>
      <trkpt lat="28.6054130" lon="-17.8185670">
        <ele>1365.5</ele>
        <time>2020-11-17T13:10:15Z</time>
      </trkpt>
      <trkpt lat="28.6053850" lon="-17.8186750">
        <ele>1365.6</ele>
        <time>2020-11-17T13:10:16Z</time>
      </trkpt>
      <trkpt lat="28.6053850" lon="-17.8186750">
        <ele>1365.6</ele>
        <time>2020-11-17T13:10:17Z</time>
      </trkpt>
      <trkpt lat="28.6053630" lon="-17.8187850">
        <ele>1365.8</ele>
        <time>2020-11-17T13:10:18Z</time>
      </trkpt>
      <trkpt lat="28.6053630" lon="-17.8187850">
        <ele>1365.8</ele>
        <time>2020-11-17T13:10:19Z</time>
      </trkpt>
      <trkpt lat="28.6053380" lon="-17.8188900">
        <ele>1366.0</ele>
        <time>2020-11-17T13:10:20Z</time>
      </trkpt>
      <trkpt lat="28.6053180" lon="-17.8189380">
        <ele>1366.1</ele>
        <time>2020-11-17T13:10:21Z</time>
      </trkpt>
      <trkpt lat="28.6053180" lon="-17.8189380">
        <ele>1366.1</ele>
        <time>2020-11-17T13:10:22Z</time>
      </trkpt>
      <trkpt lat="28.6052650" lon="-17.8190330">
        <ele>1366.4</ele>
        <time>2020-11-17T13:10:23Z</time>
      </trkpt>
      <trkpt lat="28.6052650" lon="-17.8190330">
        <ele>1366.4</ele>
        <time>2020-11-17T13:10:24Z</time>
      </trkpt>
      <trkpt lat="28.6052180" lon="-17.8191330">
        <ele>1366.7</ele>
        <time>2020-11-17T13:10:25Z</time>
      </trkpt>
      <trkpt lat="28.6052020" lon="-17.8191850">
        <ele>1366.9</ele>
        <time>2020-11-17T13:10:26Z</time>
      </trkpt>
      <trkpt lat="28.6052020" lon="-17.8191850">
        <ele>1366.9</ele>
        <time>2020-11-17T13:10:27Z</time>
      </trkpt>
      <trkpt lat="28.6051700" lon="-17.8192930">
        <ele>1367.3</ele>
        <time>2020-11-17T13:10:28Z</time>
      </trkpt>
      <trkpt lat="28.6051700" lon="-17.8192930">
        <ele>1367.3</ele>
        <time>2020-11-17T13:10:29Z</time>
      </trkpt>
      <trkpt lat="28.6051480" lon="-17.8194020">
        <ele>1367.8</ele>
        <time>2020-11-17T13:10:30Z</time>
      </trkpt>
      <trkpt lat="28.6051480" lon="-17.8194020">
        <ele>1367.8</ele>
        <time>2020-11-17T13:10:31Z</time>
      </trkpt>
      <trkpt lat="28.6051400" lon="-17.8195120">
        <ele>1368.4</ele>
        <time>2020-11-17T13:10:32Z</time>
      </trkpt>
      <trkpt lat="28.6051400" lon="-17.8195120">
        <ele>1368.4</ele>
        <time>2020-11-17T13:10:33Z</time>
      </trkpt>
      <trkpt lat="28.6051400" lon="-17.8196150">
        <ele>1369.1</ele>
        <time>2020-11-17T13:10:34Z</time>
      </trkpt>
      <trkpt lat="28.6051400" lon="-17.8196150">
        <ele>1369.1</ele>
        <time>2020-11-17T13:10:35Z</time>
      </trkpt>
      <trkpt lat="28.6051500" lon="-17.8197150">
        <ele>1369.8</ele>
        <time>2020-11-17T13:10:36Z</time>
      </trkpt>
      <trkpt lat="28.6051500" lon="-17.8197150">
        <ele>1369.8</ele>
        <time>2020-11-17T13:10:37Z</time>
      </trkpt>
      <trkpt lat="28.6051470" lon="-17.8198070">
        <ele>1370.5</ele>
        <time>2020-11-17T13:10:38Z</time>
      </trkpt>
      <trkpt lat="28.6051520" lon="-17.8198500">
        <ele>1370.8</ele>
        <time>2020-11-17T13:10:39Z</time>
      </trkpt>
      <trkpt lat="28.6051520" lon="-17.8198500">
        <ele>1370.8</ele>
        <time>2020-11-17T13:10:40Z</time>
      </trkpt>
      <trkpt lat="28.6051530" lon="-17.8199320">
        <ele>1371.4</ele>
        <time>2020-11-17T13:10:41Z</time>
      </trkpt>
      <trkpt lat="28.6051530" lon="-17.8199320">
        <ele>1371.4</ele>
        <time>2020-11-17T13:10:42Z</time>
      </trkpt>
      <trkpt lat="28.6051580" lon="-17.8200030">
        <ele>1372.0</ele>
        <time>2020-11-17T13:10:43Z</time>
      </trkpt>
      <trkpt lat="28.6051620" lon="-17.8200330">
        <ele>1372.3</ele>
        <time>2020-11-17T13:10:44Z</time>
      </trkpt>
      <trkpt lat="28.6051620" lon="-17.8200330">
        <ele>1372.3</ele>
        <time>2020-11-17T13:10:45Z</time>
      </trkpt>
      <trkpt lat="28.6051580" lon="-17.8200900">
        <ele>1372.8</ele>
        <time>2020-11-17T13:10:46Z</time>
      </trkpt>
      <trkpt lat="28.6051580" lon="-17.8200900">
        <ele>1372.8</ele>
        <time>2020-11-17T13:10:47Z</time>
      </trkpt>
      <trkpt lat="28.6051500" lon="-17.8201450">
        <ele>1373.2</ele>
        <time>2020-11-17T13:10:48Z</time>
      </trkpt>
      <trkpt lat="28.6051500" lon="-17.8201450">
        <ele>1373.2</ele>
        <time>2020-11-17T13:10:49Z</time>
      </trkpt>
      <trkpt lat="28.6051530" lon="-17.8202100">
        <ele>1373.8</ele>
        <time>2020-11-17T13:10:50Z</time>
      </trkpt>
      <trkpt lat="28.6051530" lon="-17.8202100">
        <ele>1373.8</ele>
        <time>2020-11-17T13:10:51Z</time>
      </trkpt>
      <trkpt lat="28.6051620" lon="-17.8202680">
        <ele>1374.3</ele>
        <time>2020-11-17T13:10:52Z</time>
      </trkpt>
      <trkpt lat="28.6051650" lon="-17.8202950">
        <ele>1374.5</ele>
        <time>2020-11-17T13:10:53Z</time>
      </trkpt>
      <trkpt lat="28.6051650" lon="-17.8202950">
        <ele>1374.5</ele>
        <time>2020-11-17T13:10:54Z</time>
      </trkpt>
      <trkpt lat="28.6051680" lon="-17.8203550">
        <ele>1375.1</ele>
        <time>2020-11-17T13:10:55Z</time>
      </trkpt>
      <trkpt lat="28.6051700" lon="-17.8203830">
        <ele>1375.3</ele>
        <time>2020-11-17T13:10:56Z</time>
      </trkpt>
      <trkpt lat="28.6051700" lon="-17.8203830">
        <ele>1375.3</ele>
        <time>2020-11-17T13:10:57Z</time>
      </trkpt>
      <trkpt lat="28.6051720" lon="-17.8204420">
        <ele>1375.8</ele>
        <time>2020-11-17T13:10:58Z</time>
      </trkpt>
      <trkpt lat="28.6051720" lon="-17.8204420">
        <ele>1375.8</ele>
        <time>2020-11-17T13:10:59Z</time>
      </trkpt>
      <trkpt lat="28.6051730" lon="-17.8204950">
        <ele>1376.2</ele>
        <time>2020-11-17T13:11:00Z</time>
      </trkpt>
      <trkpt lat="28.6051730" lon="-17.8204950">
        <ele>1376.2</ele>
        <time>2020-11-17T13:11:01Z</time>
      </trkpt>
      <trkpt lat="28.6051780" lon="-17.8205500">
        <ele>1376.7</ele>
        <time>2020-11-17T13:11:02Z</time>
      </trkpt>
      <trkpt lat="28.6051780" lon="-17.8205500">
        <ele>1376.7</ele>
        <time>2020-11-17T13:11:03Z</time>
      </trkpt>
      <trkpt lat="28.6051850" lon="-17.8206030">
        <ele>1377.2</ele>
        <time>2020-11-17T13:11:04Z</time>
      </trkpt>
      <trkpt lat="28.6051850" lon="-17.8206030">
        <ele>1377.2</ele>
        <time>2020-11-17T13:11:05Z</time>
      </trkpt>
      <trkpt lat="28.6051830" lon="-17.8206450">
        <ele>1376.6</ele>
        <time>2020-11-17T13:11:06Z</time>
      </trkpt>
      <trkpt lat="28.6051830" lon="-17.8206450">
        <ele>1376.6</ele>
        <time>2020-11-17T13:11:07Z</time>
      </trkpt>
      <trkpt lat="28.6052080" lon="-17.8206530">
        <ele>1376.1</ele>
        <time>2020-11-17T13:11:08Z</time>
      </trkpt>
      <trkpt lat="28.6052080" lon="-17.8206530">
        <ele>1376.1</ele>
        <time>2020-11-17T13:11:09Z</time>
      </trkpt>
      <trkpt lat="28.6052300" lon="-17.8206320">
        <ele>1375.7</ele>
        <time>2020-11-17T13:11:10Z</time>
      </trkpt>
      <trkpt lat="28.6052380" lon="-17.8206150">
        <ele>1375.5</ele>
        <time>2020-11-17T13:11:11Z</time>
      </trkpt>
      <trkpt lat="28.6052380" lon="-17.8206150">
        <ele>1375.5</ele>
        <time>2020-11-17T13:11:12Z</time>
      </trkpt>
      <trkpt lat="28.6052600" lon="-17.8205750">
        <ele>1374.9</ele>
        <time>2020-11-17T13:11:13Z</time>
      </trkpt>
      <trkpt lat="28.6052750" lon="-17.8205550">
        <ele>1374.6</ele>
        <time>2020-11-17T13:11:14Z</time>
      </trkpt>
      <trkpt lat="28.6052750" lon="-17.8205550">
        <ele>1374.6</ele>
        <time>2020-11-17T13:11:15Z</time>
      </trkpt>
      <trkpt lat="28.6053030" lon="-17.8205130">
        <ele>1374.0</ele>
        <time>2020-11-17T13:11:16Z</time>
      </trkpt>
      <trkpt lat="28.6053030" lon="-17.8205130">
        <ele>1374.0</ele>
        <time>2020-11-17T13:11:17Z</time>
      </trkpt>
      <trkpt lat="28.6053230" lon="-17.8204680">
        <ele>1373.5</ele>
        <time>2020-11-17T13:11:18Z</time>
      </trkpt>
      <trkpt lat="28.6053230" lon="-17.8204680">
        <ele>1373.5</ele>
        <time>2020-11-17T13:11:19Z</time>
      </trkpt>
      <trkpt lat="28.6053330" lon="-17.8204250">
        <ele>1372.9</ele>
        <time>2020-11-17T13:11:20Z</time>
      </trkpt>
      <trkpt lat="28.6053330" lon="-17.8204250">
        <ele>1372.9</ele>
        <time>2020-11-17T13:11:21Z</time>
      </trkpt>
      <trkpt lat="28.6053430" lon="-17.8203830">
        <ele>1372.4</ele>
        <time>2020-11-17T13:11:22Z</time>
      </trkpt>
      <trkpt lat="28.6053430" lon="-17.8203830">
        <ele>1372.4</ele>
        <time>2020-11-17T13:11:23Z</time>
      </trkpt>
      <trkpt lat="28.6053430" lon="-17.8203480">
        <ele>1371.9</ele>
        <time>2020-11-17T13:11:24Z</time>
      </trkpt>
      <trkpt lat="28.6053430" lon="-17.8203480">
        <ele>1371.9</ele>
        <time>2020-11-17T13:11:25Z</time>
      </trkpt>
      <trkpt lat="28.6053280" lon="-17.8203350">
        <ele>1371.6</ele>
        <time>2020-11-17T13:11:26Z</time>
      </trkpt>
      <trkpt lat="28.6053230" lon="-17.8203320">
        <ele>1371.6</ele>
        <time>2020-11-17T13:11:27Z</time>
      </trkpt>
      <trkpt lat="28.6053230" lon="-17.8203320">
        <ele>1371.6</ele>
        <time>2020-11-17T13:11:28Z</time>
      </trkpt>
      <trkpt lat="28.6053430" lon="-17.8203120">
        <ele>1371.2</ele>
        <time>2020-11-17T13:11:29Z</time>
      </trkpt>
      <trkpt lat="28.6053550" lon="-17.8202920">
        <ele>1370.9</ele>
        <time>2020-11-17T13:11:30Z</time>
      </trkpt>
      <trkpt lat="28.6053550" lon="-17.8202920">
        <ele>1370.9</ele>
        <time>2020-11-17T13:11:31Z</time>
      </trkpt>
      <trkpt lat="28.6053730" lon="-17.8202370">
        <ele>1370.2</ele>
        <time>2020-11-17T13:11:32Z</time>
      </trkpt>
      <trkpt lat="28.6053730" lon="-17.8202370">
        <ele>1370.2</ele>
        <time>2020-11-17T13:11:33Z</time>
      </trkpt>
      <trkpt lat="28.6053800" lon="-17.8201820">
        <ele>1369.7</ele>
        <time>2020-11-17T13:11:34Z</time>
      </trkpt>
      <trkpt lat="28.6053820" lon="-17.8201450">
        <ele>1369.3</ele>
        <time>2020-11-17T13:11:35Z</time>
      </trkpt>
      <trkpt lat="28.6053800" lon="-17.8201080">
        <ele>1369.0</ele>
        <time>2020-11-17T13:11:36Z</time>
      </trkpt>
      <trkpt lat="28.6053800" lon="-17.8201080">
        <ele>1369.0</ele>
        <time>2020-11-17T13:11:37Z</time>
      </trkpt>
      <trkpt lat="28.6053950" lon="-17.8200220">
        <ele>1368.2</ele>
        <time>2020-11-17T13:11:38Z</time>
      </trkpt>
      <trkpt lat="28.6053950" lon="-17.8200220">
        <ele>1368.2</ele>
        <time>2020-11-17T13:11:39Z</time>
      </trkpt>
      <trkpt lat="28.6054120" lon="-17.8199470">
        <ele>1367.4</ele>
        <time>2020-11-17T13:11:40Z</time>
      </trkpt>
      <trkpt lat="28.6054120" lon="-17.8199470">
        <ele>1367.4</ele>
        <time>2020-11-17T13:11:41Z</time>
      </trkpt>
      <trkpt lat="28.6054220" lon="-17.8198770">
        <ele>1366.7</ele>
        <time>2020-11-17T13:11:42Z</time>
      </trkpt>
      <trkpt lat="28.6054230" lon="-17.8198420">
        <ele>1366.4</ele>
        <time>2020-11-17T13:11:43Z</time>
      </trkpt>
      <trkpt lat="28.6054230" lon="-17.8198420">
        <ele>1366.4</ele>
        <time>2020-11-17T13:11:44Z</time>
      </trkpt>
      <trkpt lat="28.6054220" lon="-17.8197580">
        <ele>1365.5</ele>
        <time>2020-11-17T13:11:45Z</time>
      </trkpt>
      <trkpt lat="28.6054220" lon="-17.8197580">
        <ele>1365.5</ele>
        <time>2020-11-17T13:11:46Z</time>
      </trkpt>
      <trkpt lat="28.6054330" lon="-17.8196720">
        <ele>1364.6</ele>
        <time>2020-11-17T13:11:47Z</time>
      </trkpt>
      <trkpt lat="28.6054520" lon="-17.8196300">
        <ele>1364.1</ele>
        <time>2020-11-17T13:11:48Z</time>
      </trkpt>
      <trkpt lat="28.6054520" lon="-17.8196300">
        <ele>1364.1</ele>
        <time>2020-11-17T13:11:49Z</time>
      </trkpt>
      <trkpt lat="28.6054930" lon="-17.8195630">
        <ele>1363.2</ele>
        <time>2020-11-17T13:11:50Z</time>
      </trkpt>
      <trkpt lat="28.6054930" lon="-17.8195630">
        <ele>1363.2</ele>
        <time>2020-11-17T13:11:51Z</time>
      </trkpt>
      <trkpt lat="28.6055520" lon="-17.8195330">
        <ele>1362.3</ele>
        <time>2020-11-17T13:11:52Z</time>
      </trkpt>
      <trkpt lat="28.6055520" lon="-17.8195330">
        <ele>1362.3</ele>
        <time>2020-11-17T13:11:53Z</time>
      </trkpt>
      <trkpt lat="28.6056200" lon="-17.8195330">
        <ele>1361.3</ele>
        <time>2020-11-17T13:11:54Z</time>
      </trkpt>
      <trkpt lat="28.6056200" lon="-17.8195330">
        <ele>1361.3</ele>
        <time>2020-11-17T13:11:55Z</time>
      </trkpt>
      <trkpt lat="28.6056820" lon="-17.8195300">
        <ele>1360.4</ele>
        <time>2020-11-17T13:11:56Z</time>
      </trkpt>
      <trkpt lat="28.6056820" lon="-17.8195300">
        <ele>1360.4</ele>
        <time>2020-11-17T13:11:57Z</time>
      </trkpt>
      <trkpt lat="28.6057320" lon="-17.8195030">
        <ele>1359.7</ele>
        <time>2020-11-17T13:11:58Z</time>
      </trkpt>
      <trkpt lat="28.6057320" lon="-17.8195030">
        <ele>1359.7</ele>
        <time>2020-11-17T13:11:59Z</time>
      </trkpt>
      <trkpt lat="28.6057850" lon="-17.8194530">
        <ele>1358.8</ele>
        <time>2020-11-17T13:12:00Z</time>
      </trkpt>
      <trkpt lat="28.6058150" lon="-17.8194300">
        <ele>1358.4</ele>
        <time>2020-11-17T13:12:01Z</time>
      </trkpt>
      <trkpt lat="28.6058150" lon="-17.8194300">
        <ele>1358.4</ele>
        <time>2020-11-17T13:12:02Z</time>
      </trkpt>
      <trkpt lat="28.6058700" lon="-17.8193720">
        <ele>1357.5</ele>
        <time>2020-11-17T13:12:03Z</time>
      </trkpt>
      <trkpt lat="28.6059000" lon="-17.8193420">
        <ele>1357.0</ele>
        <time>2020-11-17T13:12:04Z</time>
      </trkpt>
      <trkpt lat="28.6059000" lon="-17.8193420">
        <ele>1357.0</ele>
        <time>2020-11-17T13:12:05Z</time>
      </trkpt>
      <trkpt lat="28.6059420" lon="-17.8192930">
        <ele>1356.3</ele>
        <time>2020-11-17T13:12:06Z</time>
      </trkpt>
      <trkpt lat="28.6059420" lon="-17.8192930">
        <ele>1356.3</ele>
        <time>2020-11-17T13:12:07Z</time>
      </trkpt>
      <trkpt lat="28.6059550" lon="-17.8192620">
        <ele>1355.9</ele>
        <time>2020-11-17T13:12:08Z</time>
      </trkpt>
      <trkpt lat="28.6059550" lon="-17.8192620">
        <ele>1355.9</ele>
        <time>2020-11-17T13:12:09Z</time>
      </trkpt>
      <trkpt lat="28.6059550" lon="-17.8192570">
        <ele>1355.6</ele>
        <time>2020-11-17T13:12:10Z</time>
      </trkpt>
      <trkpt lat="28.6059550" lon="-17.8192570">
        <ele>1355.6</ele>
        <time>2020-11-17T13:12:11Z</time>
      </trkpt>
      <trkpt lat="28.6059550" lon="-17.8192570">
        <ele>1355.6</ele>
        <time>2020-11-17T13:12:16Z</time>
      </trkpt>
      <trkpt lat="28.6059600" lon="-17.8191650">
        <ele>1354.8</ele>
        <time>2020-11-17T13:12:17Z</time>
      </trkpt>
      <trkpt lat="28.6059600" lon="-17.8191650">
        <ele>1354.8</ele>
        <time>2020-11-17T13:12:18Z</time>
      </trkpt>
      <trkpt lat="28.6059470" lon="-17.8191220">
        <ele>1354.4</ele>
        <time>2020-11-17T13:12:19Z</time>
      </trkpt>
      <trkpt lat="28.6059430" lon="-17.8190930">
        <ele>1354.1</ele>
        <time>2020-11-17T13:12:20Z</time>
      </trkpt>
      <trkpt lat="28.6059430" lon="-17.8190930">
        <ele>1354.1</ele>
        <time>2020-11-17T13:12:21Z</time>
      </trkpt>
      <trkpt lat="28.6059430" lon="-17.8190350">
        <ele>1353.4</ele>
        <time>2020-11-17T13:12:22Z</time>
      </trkpt>
      <trkpt lat="28.6059450" lon="-17.8190070">
        <ele>1353.0</ele>
        <time>2020-11-17T13:12:23Z</time>
      </trkpt>
      <trkpt lat="28.6059530" lon="-17.8189820">
        <ele>1352.6</ele>
        <time>2020-11-17T13:12:24Z</time>
      </trkpt>
      <trkpt lat="28.6059530" lon="-17.8189820">
        <ele>1352.6</ele>
        <time>2020-11-17T13:12:25Z</time>
      </trkpt>
      <trkpt lat="28.6059600" lon="-17.8189280">
        <ele>1351.9</ele>
        <time>2020-11-17T13:12:26Z</time>
      </trkpt>
      <trkpt lat="28.6059600" lon="-17.8189280">
        <ele>1351.9</ele>
        <time>2020-11-17T13:12:27Z</time>
      </trkpt>
      <trkpt lat="28.6059680" lon="-17.8188770">
        <ele>1351.1</ele>
        <time>2020-11-17T13:12:28Z</time>
      </trkpt>
      <trkpt lat="28.6059780" lon="-17.8188480">
        <ele>1350.7</ele>
        <time>2020-11-17T13:12:29Z</time>
      </trkpt>
      <trkpt lat="28.6059780" lon="-17.8188480">
        <ele>1350.7</ele>
        <time>2020-11-17T13:12:30Z</time>
      </trkpt>
      <trkpt lat="28.6059920" lon="-17.8187900">
        <ele>1349.8</ele>
        <time>2020-11-17T13:12:31Z</time>
      </trkpt>
      <trkpt lat="28.6059920" lon="-17.8187900">
        <ele>1349.8</ele>
        <time>2020-11-17T13:12:32Z</time>
      </trkpt>
      <trkpt lat="28.6059970" lon="-17.8187320">
        <ele>1348.9</ele>
        <time>2020-11-17T13:12:33Z</time>
      </trkpt>
      <trkpt lat="28.6059970" lon="-17.8187320">
        <ele>1348.9</ele>
        <time>2020-11-17T13:12:34Z</time>
      </trkpt>
      <trkpt lat="28.6060120" lon="-17.8186870">
        <ele>1348.2</ele>
        <time>2020-11-17T13:12:35Z</time>
      </trkpt>
      <trkpt lat="28.6060200" lon="-17.8186620">
        <ele>1347.7</ele>
        <time>2020-11-17T13:12:36Z</time>
      </trkpt>
      <trkpt lat="28.6060200" lon="-17.8186620">
        <ele>1347.7</ele>
        <time>2020-11-17T13:12:37Z</time>
      </trkpt>
      <trkpt lat="28.6060230" lon="-17.8186070">
        <ele>1346.8</ele>
        <time>2020-11-17T13:12:38Z</time>
      </trkpt>
      <trkpt lat="28.6060230" lon="-17.8186070">
        <ele>1346.8</ele>
        <time>2020-11-17T13:12:39Z</time>
      </trkpt>
      <trkpt lat="28.6060250" lon="-17.8185450">
        <ele>1345.8</ele>
        <time>2020-11-17T13:12:40Z</time>
      </trkpt>
      <trkpt lat="28.6060250" lon="-17.8185450">
        <ele>1345.8</ele>
        <time>2020-11-17T13:12:41Z</time>
      </trkpt>
      <trkpt lat="28.6060280" lon="-17.8184830">
        <ele>1344.6</ele>
        <time>2020-11-17T13:12:42Z</time>
      </trkpt>
      <trkpt lat="28.6060280" lon="-17.8184830">
        <ele>1344.6</ele>
        <time>2020-11-17T13:12:43Z</time>
      </trkpt>
      <trkpt lat="28.6060370" lon="-17.8184270">
        <ele>1343.5</ele>
        <time>2020-11-17T13:12:44Z</time>
      </trkpt>
      <trkpt lat="28.6060420" lon="-17.8184050">
        <ele>1343.0</ele>
        <time>2020-11-17T13:12:45Z</time>
      </trkpt>
      <trkpt lat="28.6060420" lon="-17.8183820">
        <ele>1342.6</ele>
        <time>2020-11-17T13:12:46Z</time>
      </trkpt>
      <trkpt lat="28.6060470" lon="-17.8183570">
        <ele>1342.1</ele>
        <time>2020-11-17T13:12:47Z</time>
      </trkpt>
      <trkpt lat="28.6060470" lon="-17.8183570">
        <ele>1342.1</ele>
        <time>2020-11-17T13:12:48Z</time>
      </trkpt>
      <trkpt lat="28.6060500" lon="-17.8183130">
        <ele>1341.2</ele>
        <time>2020-11-17T13:12:49Z</time>
      </trkpt>
      <trkpt lat="28.6060500" lon="-17.8183130">
        <ele>1341.2</ele>
        <time>2020-11-17T13:12:50Z</time>
      </trkpt>
      <trkpt lat="28.6060570" lon="-17.8182700">
        <ele>1340.3</ele>
        <time>2020-11-17T13:12:51Z</time>
      </trkpt>
      <trkpt lat="28.6060570" lon="-17.8182450">
        <ele>1339.8</ele>
        <time>2020-11-17T13:12:52Z</time>
      </trkpt>
      <trkpt lat="28.6060570" lon="-17.8182450">
        <ele>1339.8</ele>
        <time>2020-11-17T13:12:53Z</time>
      </trkpt>
      <trkpt lat="28.6060530" lon="-17.8181920">
        <ele>1338.7</ele>
        <time>2020-11-17T13:12:54Z</time>
      </trkpt>
      <trkpt lat="28.6060530" lon="-17.8181920">
        <ele>1338.7</ele>
        <time>2020-11-17T13:12:55Z</time>
      </trkpt>
      <trkpt lat="28.6060500" lon="-17.8181370">
        <ele>1337.7</ele>
        <time>2020-11-17T13:12:56Z</time>
      </trkpt>
      <trkpt lat="28.6060480" lon="-17.8181070">
        <ele>1337.1</ele>
        <time>2020-11-17T13:12:57Z</time>
      </trkpt>
      <trkpt lat="28.6060480" lon="-17.8181070">
        <ele>1337.1</ele>
        <time>2020-11-17T13:12:58Z</time>
      </trkpt>
      <trkpt lat="28.6060470" lon="-17.8180400">
        <ele>1336.0</ele>
        <time>2020-11-17T13:12:59Z</time>
      </trkpt>
      <trkpt lat="28.6060470" lon="-17.8180400">
        <ele>1336.0</ele>
        <time>2020-11-17T13:13:00Z</time>
      </trkpt>
      <trkpt lat="28.6060480" lon="-17.8179800">
        <ele>1335.0</ele>
        <time>2020-11-17T13:13:01Z</time>
      </trkpt>
      <trkpt lat="28.6060480" lon="-17.8179800">
        <ele>1335.0</ele>
        <time>2020-11-17T13:13:02Z</time>
      </trkpt>
      <trkpt lat="28.6060550" lon="-17.8179200">
        <ele>1334.1</ele>
        <time>2020-11-17T13:13:03Z</time>
      </trkpt>
      <trkpt lat="28.6060550" lon="-17.8179200">
        <ele>1334.1</ele>
        <time>2020-11-17T13:13:04Z</time>
      </trkpt>
      <trkpt lat="28.6060650" lon="-17.8178970">
        <ele>1333.6</ele>
        <time>2020-11-17T13:13:05Z</time>
      </trkpt>
      <trkpt lat="28.6060650" lon="-17.8178970">
        <ele>1333.6</ele>
        <time>2020-11-17T13:13:06Z</time>
      </trkpt>
      <trkpt lat="28.6060600" lon="-17.8178970">
        <ele>1333.5</ele>
        <time>2020-11-17T13:13:27Z</time>
      </trkpt>
      <trkpt lat="28.6060930" lon="-17.8178370">
        <ele>1332.4</ele>
        <time>2020-11-17T13:13:28Z</time>
      </trkpt>
      <trkpt lat="28.6061020" lon="-17.8178120">
        <ele>1332.0</ele>
        <time>2020-11-17T13:13:29Z</time>
      </trkpt>
      <trkpt lat="28.6061130" lon="-17.8177850">
        <ele>1331.6</ele>
        <time>2020-11-17T13:13:30Z</time>
      </trkpt>
      <trkpt lat="28.6061130" lon="-17.8177850">
        <ele>1331.6</ele>
        <time>2020-11-17T13:13:31Z</time>
      </trkpt>
      <trkpt lat="28.6061400" lon="-17.8177350">
        <ele>1330.7</ele>
        <time>2020-11-17T13:13:32Z</time>
      </trkpt>
      <trkpt lat="28.6061520" lon="-17.8177100">
        <ele>1330.2</ele>
        <time>2020-11-17T13:13:33Z</time>
      </trkpt>
      <trkpt lat="28.6061520" lon="-17.8177100">
        <ele>1330.2</ele>
        <time>2020-11-17T13:13:34Z</time>
      </trkpt>
      <trkpt lat="28.6061780" lon="-17.8176670">
        <ele>1329.4</ele>
        <time>2020-11-17T13:13:35Z</time>
      </trkpt>
      <trkpt lat="28.6061780" lon="-17.8176670">
        <ele>1329.4</ele>
        <time>2020-11-17T13:13:36Z</time>
      </trkpt>
      <trkpt lat="28.6061920" lon="-17.8176280">
        <ele>1328.8</ele>
        <time>2020-11-17T13:13:37Z</time>
      </trkpt>
      <trkpt lat="28.6061920" lon="-17.8176280">
        <ele>1328.6</ele>
        <time>2020-11-17T13:13:38Z</time>
      </trkpt>
      <trkpt lat="28.6062030" lon="-17.8175920">
        <ele>1329.1</ele>
        <time>2020-11-17T13:13:39Z</time>
      </trkpt>
      <trkpt lat="28.6062070" lon="-17.8175820">
        <ele>1329.3</ele>
        <time>2020-11-17T13:13:40Z</time>
      </trkpt>
      <trkpt lat="28.6062070" lon="-17.8175820">
        <ele>1329.3</ele>
        <time>2020-11-17T13:13:41Z</time>
      </trkpt>
      <trkpt lat="28.6062100" lon="-17.8175750">
        <ele>1329.4</ele>
        <time>2020-11-17T13:13:42Z</time>
      </trkpt>
      <trkpt lat="28.6062100" lon="-17.8175750">
        <ele>1329.4</ele>
        <time>2020-11-17T13:13:52Z</time>
      </trkpt>
      <trkpt lat="28.6061620" lon="-17.8176180">
        <ele>1330.4</ele>
        <time>2020-11-17T13:13:53Z</time>
      </trkpt>
      <trkpt lat="28.6061620" lon="-17.8176180">
        <ele>1330.4</ele>
        <time>2020-11-17T13:13:54Z</time>
      </trkpt>
      <trkpt lat="28.6061530" lon="-17.8176420">
        <ele>1330.8</ele>
        <time>2020-11-17T13:13:55Z</time>
      </trkpt>
      <trkpt lat="28.6061520" lon="-17.8176520">
        <ele>1330.9</ele>
        <time>2020-11-17T13:13:56Z</time>
      </trkpt>
      <trkpt lat="28.6061520" lon="-17.8176520">
        <ele>1330.9</ele>
        <time>2020-11-17T13:13:57Z</time>
      </trkpt>
      <trkpt lat="28.6061430" lon="-17.8176770">
        <ele>1331.3</ele>
        <time>2020-11-17T13:13:58Z</time>
      </trkpt>
      <trkpt lat="28.6061320" lon="-17.8176830">
        <ele>1331.5</ele>
        <time>2020-11-17T13:13:59Z</time>
      </trkpt>
      <trkpt lat="28.6061320" lon="-17.8176830">
        <ele>1331.5</ele>
        <time>2020-11-17T13:14:00Z</time>
      </trkpt>
      <trkpt lat="28.6061120" lon="-17.8177000">
        <ele>1331.9</ele>
        <time>2020-11-17T13:14:01Z</time>
      </trkpt>
      <trkpt lat="28.6061120" lon="-17.8177000">
        <ele>1331.9</ele>
        <time>2020-11-17T13:14:02Z</time>
      </trkpt>
      <trkpt lat="28.6060950" lon="-17.8177250">
        <ele>1332.4</ele>
        <time>2020-11-17T13:14:03Z</time>
      </trkpt>
      <trkpt lat="28.6060950" lon="-17.8177250">
        <ele>1332.4</ele>
        <time>2020-11-17T13:14:04Z</time>
      </trkpt>
      <trkpt lat="28.6060750" lon="-17.8177480">
        <ele>1332.8</ele>
        <time>2020-11-17T13:14:05Z</time>
      </trkpt>
      <trkpt lat="28.6060720" lon="-17.8177630">
        <ele>1333.1</ele>
        <time>2020-11-17T13:14:06Z</time>
      </trkpt>
      <trkpt lat="28.6060720" lon="-17.8177630">
        <ele>1333.1</ele>
        <time>2020-11-17T13:14:07Z</time>
      </trkpt>
      <trkpt lat="28.6060700" lon="-17.8177830">
        <ele>1333.4</ele>
        <time>2020-11-17T13:14:08Z</time>
      </trkpt>
      <trkpt lat="28.6060680" lon="-17.8177950">
        <ele>1333.6</ele>
        <time>2020-11-17T13:14:09Z</time>
      </trkpt>
      <trkpt lat="28.6060680" lon="-17.8177950">
        <ele>1333.6</ele>
        <time>2020-11-17T13:14:10Z</time>
      </trkpt>
      <trkpt lat="28.6060620" lon="-17.8178220">
        <ele>1334.0</ele>
        <time>2020-11-17T13:14:11Z</time>
      </trkpt>
      <trkpt lat="28.6060620" lon="-17.8178220">
        <ele>1334.0</ele>
        <time>2020-11-17T13:14:12Z</time>
      </trkpt>
      <trkpt lat="28.6060550" lon="-17.8178430">
        <ele>1334.3</ele>
        <time>2020-11-17T13:14:13Z</time>
      </trkpt>
      <trkpt lat="28.6060550" lon="-17.8178430">
        <ele>1334.3</ele>
        <time>2020-11-17T13:14:14Z</time>
      </trkpt>
      <trkpt lat="28.6060480" lon="-17.8178650">
        <ele>1334.7</ele>
        <time>2020-11-17T13:14:15Z</time>
      </trkpt>
      <trkpt lat="28.6060430" lon="-17.8178730">
        <ele>1334.8</ele>
        <time>2020-11-17T13:14:16Z</time>
      </trkpt>
      <trkpt lat="28.6060430" lon="-17.8178730">
        <ele>1334.8</ele>
        <time>2020-11-17T13:14:17Z</time>
      </trkpt>
      <trkpt lat="28.6060350" lon="-17.8178930">
        <ele>1335.1</ele>
        <time>2020-11-17T13:14:18Z</time>
      </trkpt>
      <trkpt lat="28.6060350" lon="-17.8178930">
        <ele>1335.1</ele>
        <time>2020-11-17T13:14:19Z</time>
      </trkpt>
      <trkpt lat="28.6060320" lon="-17.8179220">
        <ele>1335.6</ele>
        <time>2020-11-17T13:14:20Z</time>
      </trkpt>
      <trkpt lat="28.6060280" lon="-17.8179370">
        <ele>1335.8</ele>
        <time>2020-11-17T13:14:21Z</time>
      </trkpt>
      <trkpt lat="28.6060280" lon="-17.8179370">
        <ele>1335.8</ele>
        <time>2020-11-17T13:14:22Z</time>
      </trkpt>
      <trkpt lat="28.6060250" lon="-17.8179600">
        <ele>1336.2</ele>
        <time>2020-11-17T13:14:23Z</time>
      </trkpt>
      <trkpt lat="28.6060250" lon="-17.8179730">
        <ele>1336.4</ele>
        <time>2020-11-17T13:14:24Z</time>
      </trkpt>
      <trkpt lat="28.6060250" lon="-17.8179730">
        <ele>1336.4</ele>
        <time>2020-11-17T13:14:25Z</time>
      </trkpt>
      <trkpt lat="28.6060250" lon="-17.8179950">
        <ele>1336.7</ele>
        <time>2020-11-17T13:14:26Z</time>
      </trkpt>
      <trkpt lat="28.6060250" lon="-17.8180030">
        <ele>1336.9</ele>
        <time>2020-11-17T13:14:27Z</time>
      </trkpt>
      <trkpt lat="28.6060250" lon="-17.8180120">
        <ele>1337.0</ele>
        <time>2020-11-17T13:14:28Z</time>
      </trkpt>
      <trkpt lat="28.6060250" lon="-17.8180120">
        <ele>1337.0</ele>
        <time>2020-11-17T13:14:29Z</time>
      </trkpt>
      <trkpt lat="28.6060280" lon="-17.8180350">
        <ele>1337.4</ele>
        <time>2020-11-17T13:14:30Z</time>
      </trkpt>
      <trkpt lat="28.6060280" lon="-17.8180350">
        <ele>1337.4</ele>
        <time>2020-11-17T13:14:31Z</time>
      </trkpt>
      <trkpt lat="28.6060170" lon="-17.8180650">
        <ele>1338.0</ele>
        <time>2020-11-17T13:14:32Z</time>
      </trkpt>
      <trkpt lat="28.6060130" lon="-17.8180770">
        <ele>1338.2</ele>
        <time>2020-11-17T13:14:33Z</time>
      </trkpt>
      <trkpt lat="28.6060130" lon="-17.8180770">
        <ele>1338.2</ele>
        <time>2020-11-17T13:14:34Z</time>
      </trkpt>
      <trkpt lat="28.6060120" lon="-17.8180970">
        <ele>1338.5</ele>
        <time>2020-11-17T13:14:35Z</time>
      </trkpt>
      <trkpt lat="28.6060120" lon="-17.8180970">
        <ele>1338.5</ele>
        <time>2020-11-17T13:14:36Z</time>
      </trkpt>
      <trkpt lat="28.6060100" lon="-17.8181180">
        <ele>1338.9</ele>
        <time>2020-11-17T13:14:37Z</time>
      </trkpt>
      <trkpt lat="28.6060120" lon="-17.8181330">
        <ele>1339.2</ele>
        <time>2020-11-17T13:14:38Z</time>
      </trkpt>
      <trkpt lat="28.6060120" lon="-17.8181330">
        <ele>1339.2</ele>
        <time>2020-11-17T13:14:39Z</time>
      </trkpt>
      <trkpt lat="28.6060230" lon="-17.8181550">
        <ele>1339.7</ele>
        <time>2020-11-17T13:14:40Z</time>
      </trkpt>
      <trkpt lat="28.6060250" lon="-17.8181620">
        <ele>1339.8</ele>
        <time>2020-11-17T13:14:41Z</time>
      </trkpt>
      <trkpt lat="28.6060250" lon="-17.8181620">
        <ele>1339.8</ele>
        <time>2020-11-17T13:14:42Z</time>
      </trkpt>
      <trkpt lat="28.6060300" lon="-17.8181770">
        <ele>1340.1</ele>
        <time>2020-11-17T13:14:43Z</time>
      </trkpt>
      <trkpt lat="28.6060300" lon="-17.8181770">
        <ele>1340.1</ele>
        <time>2020-11-17T13:14:44Z</time>
      </trkpt>
      <trkpt lat="28.6060330" lon="-17.8181930">
        <ele>1340.4</ele>
        <time>2020-11-17T13:14:45Z</time>
      </trkpt>
      <trkpt lat="28.6060330" lon="-17.8181930">
        <ele>1340.4</ele>
        <time>2020-11-17T13:14:55Z</time>
      </trkpt>
      <trkpt lat="28.6060330" lon="-17.8181930">
        <ele>1340.4</ele>
        <time>2020-11-17T13:14:56Z</time>
      </trkpt>
      <trkpt lat="28.6060230" lon="-17.8182550">
        <ele>1341.6</ele>
        <time>2020-11-17T13:14:57Z</time>
      </trkpt>
      <trkpt lat="28.6060230" lon="-17.8182550">
        <ele>1341.6</ele>
        <time>2020-11-17T13:14:58Z</time>
      </trkpt>
      <trkpt lat="28.6060220" lon="-17.8182780">
        <ele>1342.0</ele>
        <time>2020-11-17T13:14:59Z</time>
      </trkpt>
      <trkpt lat="28.6060220" lon="-17.8182780">
        <ele>1342.0</ele>
        <time>2020-11-17T13:15:00Z</time>
      </trkpt>
      <trkpt lat="28.6060180" lon="-17.8182970">
        <ele>1342.4</ele>
        <time>2020-11-17T13:15:01Z</time>
      </trkpt>
      <trkpt lat="28.6060180" lon="-17.8182970">
        <ele>1342.4</ele>
        <time>2020-11-17T13:15:02Z</time>
      </trkpt>
      <trkpt lat="28.6060080" lon="-17.8183180">
        <ele>1342.9</ele>
        <time>2020-11-17T13:15:03Z</time>
      </trkpt>
      <trkpt lat="28.6060080" lon="-17.8183180">
        <ele>1342.9</ele>
        <time>2020-11-17T13:15:04Z</time>
      </trkpt>
      <trkpt lat="28.6060220" lon="-17.8183320">
        <ele>1343.2</ele>
        <time>2020-11-17T13:15:05Z</time>
      </trkpt>
      <trkpt lat="28.6060250" lon="-17.8183330">
        <ele>1343.3</ele>
        <time>2020-11-17T13:15:06Z</time>
      </trkpt>
      <trkpt lat="28.6060250" lon="-17.8183330">
        <ele>1343.3</ele>
        <time>2020-11-17T13:15:07Z</time>
      </trkpt>
      <trkpt lat="28.6060220" lon="-17.8183530">
        <ele>1343.7</ele>
        <time>2020-11-17T13:15:08Z</time>
      </trkpt>
      <trkpt lat="28.6060200" lon="-17.8183630">
        <ele>1343.9</ele>
        <time>2020-11-17T13:15:09Z</time>
      </trkpt>
      <trkpt lat="28.6060200" lon="-17.8183630">
        <ele>1343.9</ele>
        <time>2020-11-17T13:15:10Z</time>
      </trkpt>
      <trkpt lat="28.6060230" lon="-17.8183870">
        <ele>1344.3</ele>
        <time>2020-11-17T13:15:11Z</time>
      </trkpt>
      <trkpt lat="28.6060230" lon="-17.8183930">
        <ele>1344.4</ele>
        <time>2020-11-17T13:15:12Z</time>
      </trkpt>
      <trkpt lat="28.6060220" lon="-17.8184020">
        <ele>1344.6</ele>
        <time>2020-11-17T13:15:13Z</time>
      </trkpt>
      <trkpt lat="28.6060220" lon="-17.8184020">
        <ele>1344.6</ele>
        <time>2020-11-17T13:15:14Z</time>
      </trkpt>
      <trkpt lat="28.6060200" lon="-17.8184230">
        <ele>1345.0</ele>
        <time>2020-11-17T13:15:15Z</time>
      </trkpt>
      <trkpt lat="28.6060200" lon="-17.8184230">
        <ele>1345.0</ele>
        <time>2020-11-17T13:15:16Z</time>
      </trkpt>
      <trkpt lat="28.6060180" lon="-17.8184400">
        <ele>1345.3</ele>
        <time>2020-11-17T13:15:17Z</time>
      </trkpt>
      <trkpt lat="28.6060180" lon="-17.8184400">
        <ele>1345.3</ele>
        <time>2020-11-17T13:15:18Z</time>
      </trkpt>
      <trkpt lat="28.6060170" lon="-17.8184530">
        <ele>1345.5</ele>
        <time>2020-11-17T13:15:19Z</time>
      </trkpt>
      <trkpt lat="28.6060180" lon="-17.8184620">
        <ele>1345.7</ele>
        <time>2020-11-17T13:15:20Z</time>
      </trkpt>
      <trkpt lat="28.6060180" lon="-17.8184620">
        <ele>1345.7</ele>
        <time>2020-11-17T13:15:21Z</time>
      </trkpt>
      <trkpt lat="28.6060200" lon="-17.8184820">
        <ele>1346.0</ele>
        <time>2020-11-17T13:15:22Z</time>
      </trkpt>
      <trkpt lat="28.6060200" lon="-17.8184820">
        <ele>1346.0</ele>
        <time>2020-11-17T13:15:23Z</time>
      </trkpt>
      <trkpt lat="28.6060080" lon="-17.8184970">
        <ele>1346.3</ele>
        <time>2020-11-17T13:15:24Z</time>
      </trkpt>
      <trkpt lat="28.6060100" lon="-17.8185020">
        <ele>1346.4</ele>
        <time>2020-11-17T13:15:25Z</time>
      </trkpt>
      <trkpt lat="28.6060100" lon="-17.8185020">
        <ele>1346.4</ele>
        <time>2020-11-17T13:15:26Z</time>
      </trkpt>
      <trkpt lat="28.6060070" lon="-17.8185230">
        <ele>1346.8</ele>
        <time>2020-11-17T13:15:27Z</time>
      </trkpt>
      <trkpt lat="28.6060050" lon="-17.8185330">
        <ele>1346.9</ele>
        <time>2020-11-17T13:15:28Z</time>
      </trkpt>
      <trkpt lat="28.6060050" lon="-17.8185330">
        <ele>1346.9</ele>
        <time>2020-11-17T13:15:29Z</time>
      </trkpt>
      <trkpt lat="28.6060000" lon="-17.8185520">
        <ele>1347.2</ele>
        <time>2020-11-17T13:15:30Z</time>
      </trkpt>
      <trkpt lat="28.6060000" lon="-17.8185520">
        <ele>1347.2</ele>
        <time>2020-11-17T13:15:31Z</time>
      </trkpt>
      <trkpt lat="28.6059980" lon="-17.8185700">
        <ele>1347.5</ele>
        <time>2020-11-17T13:15:32Z</time>
      </trkpt>
      <trkpt lat="28.6059980" lon="-17.8185700">
        <ele>1347.5</ele>
        <time>2020-11-17T13:15:33Z</time>
      </trkpt>
      <trkpt lat="28.6059870" lon="-17.8185950">
        <ele>1347.9</ele>
        <time>2020-11-17T13:15:34Z</time>
      </trkpt>
      <trkpt lat="28.6059870" lon="-17.8185950">
        <ele>1347.9</ele>
        <time>2020-11-17T13:15:35Z</time>
      </trkpt>
      <trkpt lat="28.6059850" lon="-17.8186120">
        <ele>1348.2</ele>
        <time>2020-11-17T13:15:36Z</time>
      </trkpt>
      <trkpt lat="28.6059850" lon="-17.8186120">
        <ele>1348.2</ele>
        <time>2020-11-17T13:15:37Z</time>
      </trkpt>
      <trkpt lat="28.6059800" lon="-17.8186230">
        <ele>1348.4</ele>
        <time>2020-11-17T13:15:38Z</time>
      </trkpt>
      <trkpt lat="28.6059800" lon="-17.8186230">
        <ele>1348.4</ele>
        <time>2020-11-17T13:15:39Z</time>
      </trkpt>
      <trkpt lat="28.6059780" lon="-17.8186470">
        <ele>1348.7</ele>
        <time>2020-11-17T13:15:40Z</time>
      </trkpt>
      <trkpt lat="28.6059780" lon="-17.8186470">
        <ele>1348.7</ele>
        <time>2020-11-17T13:15:41Z</time>
      </trkpt>
      <trkpt lat="28.6059820" lon="-17.8186650">
        <ele>1349.0</ele>
        <time>2020-11-17T13:15:42Z</time>
      </trkpt>
      <trkpt lat="28.6059820" lon="-17.8186650">
        <ele>1349.0</ele>
        <time>2020-11-17T13:15:43Z</time>
      </trkpt>
      <trkpt lat="28.6059820" lon="-17.8186900">
        <ele>1349.3</ele>
        <time>2020-11-17T13:15:44Z</time>
      </trkpt>
      <trkpt lat="28.6059800" lon="-17.8186980">
        <ele>1349.4</ele>
        <time>2020-11-17T13:15:45Z</time>
      </trkpt>
      <trkpt lat="28.6059800" lon="-17.8186980">
        <ele>1349.4</ele>
        <time>2020-11-17T13:15:46Z</time>
      </trkpt>
      <trkpt lat="28.6059750" lon="-17.8187170">
        <ele>1349.7</ele>
        <time>2020-11-17T13:15:47Z</time>
      </trkpt>
      <trkpt lat="28.6059750" lon="-17.8187280">
        <ele>1349.9</ele>
        <time>2020-11-17T13:15:48Z</time>
      </trkpt>
      <trkpt lat="28.6059750" lon="-17.8187280">
        <ele>1349.9</ele>
        <time>2020-11-17T13:15:49Z</time>
      </trkpt>
      <trkpt lat="28.6059720" lon="-17.8187530">
        <ele>1350.2</ele>
        <time>2020-11-17T13:15:50Z</time>
      </trkpt>
      <trkpt lat="28.6059720" lon="-17.8187530">
        <ele>1350.2</ele>
        <time>2020-11-17T13:15:51Z</time>
      </trkpt>
      <trkpt lat="28.6059650" lon="-17.8187770">
        <ele>1350.6</ele>
        <time>2020-11-17T13:15:52Z</time>
      </trkpt>
      <trkpt lat="28.6059630" lon="-17.8187880">
        <ele>1350.7</ele>
        <time>2020-11-17T13:15:53Z</time>
      </trkpt>
      <trkpt lat="28.6059620" lon="-17.8187970">
        <ele>1350.8</ele>
        <time>2020-11-17T13:15:54Z</time>
      </trkpt>
      <trkpt lat="28.6059620" lon="-17.8187970">
        <ele>1350.8</ele>
        <time>2020-11-17T13:15:55Z</time>
      </trkpt>
      <trkpt lat="28.6059570" lon="-17.8188150">
        <ele>1351.1</ele>
        <time>2020-11-17T13:15:56Z</time>
      </trkpt>
      <trkpt lat="28.6059580" lon="-17.8188250">
        <ele>1351.2</ele>
        <time>2020-11-17T13:15:57Z</time>
      </trkpt>
      <trkpt lat="28.6059580" lon="-17.8188250">
        <ele>1351.2</ele>
        <time>2020-11-17T13:15:58Z</time>
      </trkpt>
      <trkpt lat="28.6059570" lon="-17.8188380">
        <ele>1351.4</ele>
        <time>2020-11-17T13:15:59Z</time>
      </trkpt>
      <trkpt lat="28.6059530" lon="-17.8188480">
        <ele>1351.5</ele>
        <time>2020-11-17T13:16:00Z</time>
      </trkpt>
      <trkpt lat="28.6059530" lon="-17.8188480">
        <ele>1351.5</ele>
        <time>2020-11-17T13:16:01Z</time>
      </trkpt>
      <trkpt lat="28.6059470" lon="-17.8188750">
        <ele>1351.9</ele>
        <time>2020-11-17T13:16:02Z</time>
      </trkpt>
      <trkpt lat="28.6059420" lon="-17.8188870">
        <ele>1352.1</ele>
        <time>2020-11-17T13:16:03Z</time>
      </trkpt>
      <trkpt lat="28.6059420" lon="-17.8188870">
        <ele>1352.1</ele>
        <time>2020-11-17T13:16:04Z</time>
      </trkpt>
      <trkpt lat="28.6059580" lon="-17.8189170">
        <ele>1352.6</ele>
        <time>2020-11-17T13:16:05Z</time>
      </trkpt>
      <trkpt lat="28.6059580" lon="-17.8189170">
        <ele>1352.6</ele>
        <time>2020-11-17T13:16:06Z</time>
      </trkpt>
      <trkpt lat="28.6059650" lon="-17.8189420">
        <ele>1352.9</ele>
        <time>2020-11-17T13:16:07Z</time>
      </trkpt>
      <trkpt lat="28.6059650" lon="-17.8189420">
        <ele>1352.9</ele>
        <time>2020-11-17T13:16:08Z</time>
      </trkpt>
      <trkpt lat="28.6059680" lon="-17.8189630">
        <ele>1353.2</ele>
        <time>2020-11-17T13:16:09Z</time>
      </trkpt>
      <trkpt lat="28.6059680" lon="-17.8189630">
        <ele>1353.2</ele>
        <time>2020-11-17T13:16:10Z</time>
      </trkpt>
      <trkpt lat="28.6059630" lon="-17.8189800">
        <ele>1353.4</ele>
        <time>2020-11-17T13:16:11Z</time>
      </trkpt>
      <trkpt lat="28.6059620" lon="-17.8189880">
        <ele>1353.5</ele>
        <time>2020-11-17T13:16:12Z</time>
      </trkpt>
      <trkpt lat="28.6059620" lon="-17.8189880">
        <ele>1353.5</ele>
        <time>2020-11-17T13:16:13Z</time>
      </trkpt>
      <trkpt lat="28.6059550" lon="-17.8190130">
        <ele>1353.8</ele>
        <time>2020-11-17T13:16:14Z</time>
      </trkpt>
      <trkpt lat="28.6059550" lon="-17.8190130">
        <ele>1353.8</ele>
        <time>2020-11-17T13:16:15Z</time>
      </trkpt>
      <trkpt lat="28.6059480" lon="-17.8190370">
        <ele>1354.1</ele>
        <time>2020-11-17T13:16:16Z</time>
      </trkpt>
      <trkpt lat="28.6059480" lon="-17.8190370">
        <ele>1354.1</ele>
        <time>2020-11-17T13:16:17Z</time>
      </trkpt>
      <trkpt lat="28.6059450" lon="-17.8190600">
        <ele>1354.3</ele>
        <time>2020-11-17T13:16:18Z</time>
      </trkpt>
      <trkpt lat="28.6059450" lon="-17.8190600">
        <ele>1354.3</ele>
        <time>2020-11-17T13:16:19Z</time>
      </trkpt>
      <trkpt lat="28.6059480" lon="-17.8190880">
        <ele>1354.6</ele>
        <time>2020-11-17T13:16:20Z</time>
      </trkpt>
      <trkpt lat="28.6059550" lon="-17.8191050">
        <ele>1354.8</ele>
        <time>2020-11-17T13:16:21Z</time>
      </trkpt>
      <trkpt lat="28.6059550" lon="-17.8191050">
        <ele>1354.8</ele>
        <time>2020-11-17T13:16:22Z</time>
      </trkpt>
      <trkpt lat="28.6059630" lon="-17.8191320">
        <ele>1355.0</ele>
        <time>2020-11-17T13:16:23Z</time>
      </trkpt>
      <trkpt lat="28.6059650" lon="-17.8191480">
        <ele>1355.1</ele>
        <time>2020-11-17T13:16:24Z</time>
      </trkpt>
      <trkpt lat="28.6059650" lon="-17.8191480">
        <ele>1355.1</ele>
        <time>2020-11-17T13:16:25Z</time>
      </trkpt>
      <trkpt lat="28.6059630" lon="-17.8191770">
        <ele>1355.3</ele>
        <time>2020-11-17T13:16:26Z</time>
      </trkpt>
      <trkpt lat="28.6059630" lon="-17.8191770">
        <ele>1354.3</ele>
        <time>2020-11-17T13:16:27Z</time>
      </trkpt>
      <trkpt lat="28.6059630" lon="-17.8192050">
        <ele>1354.0</ele>
        <time>2020-11-17T13:16:28Z</time>
      </trkpt>
      <trkpt lat="28.6059680" lon="-17.8192170">
        <ele>1353.8</ele>
        <time>2020-11-17T13:16:29Z</time>
      </trkpt>
      <trkpt lat="28.6059680" lon="-17.8192170">
        <ele>1353.8</ele>
        <time>2020-11-17T13:16:30Z</time>
      </trkpt>
      <trkpt lat="28.6059780" lon="-17.8192400">
        <ele>1353.5</ele>
        <time>2020-11-17T13:16:31Z</time>
      </trkpt>
      <trkpt lat="28.6059780" lon="-17.8192400">
        <ele>1353.5</ele>
        <time>2020-11-17T13:16:32Z</time>
      </trkpt>
      <trkpt lat="28.6059920" lon="-17.8192550">
        <ele>1353.2</ele>
        <time>2020-11-17T13:16:33Z</time>
      </trkpt>
      <trkpt lat="28.6059920" lon="-17.8192550">
        <ele>1353.2</ele>
        <time>2020-11-17T13:16:34Z</time>
      </trkpt>
      <trkpt lat="28.6060080" lon="-17.8192580">
        <ele>1353.0</ele>
        <time>2020-11-17T13:16:35Z</time>
      </trkpt>
      <trkpt lat="28.6060100" lon="-17.8192470">
        <ele>1352.9</ele>
        <time>2020-11-17T13:16:36Z</time>
      </trkpt>
      <trkpt lat="28.6060100" lon="-17.8192470">
        <ele>1352.9</ele>
        <time>2020-11-17T13:16:37Z</time>
      </trkpt>
      <trkpt lat="28.6060180" lon="-17.8192450">
        <ele>1352.8</ele>
        <time>2020-11-17T13:16:38Z</time>
      </trkpt>
      <trkpt lat="28.6060180" lon="-17.8192450">
        <ele>1352.8</ele>
        <time>2020-11-17T13:16:39Z</time>
      </trkpt>
      <trkpt lat="28.6060180" lon="-17.8192450">
        <ele>1352.8</ele>
        <time>2020-11-17T13:16:46Z</time>
      </trkpt>
      <trkpt lat="28.6060800" lon="-17.8192150">
        <ele>1351.9</ele>
        <time>2020-11-17T13:16:47Z</time>
      </trkpt>
      <trkpt lat="28.6060950" lon="-17.8192000">
        <ele>1351.6</ele>
        <time>2020-11-17T13:16:48Z</time>
      </trkpt>
      <trkpt lat="28.6061130" lon="-17.8191770">
        <ele>1351.2</ele>
        <time>2020-11-17T13:16:49Z</time>
      </trkpt>
      <trkpt lat="28.6061130" lon="-17.8191770">
        <ele>1351.2</ele>
        <time>2020-11-17T13:16:50Z</time>
      </trkpt>
      <trkpt lat="28.6061520" lon="-17.8191420">
        <ele>1350.2</ele>
        <time>2020-11-17T13:16:51Z</time>
      </trkpt>
      <trkpt lat="28.6061520" lon="-17.8191420">
        <ele>1350.2</ele>
        <time>2020-11-17T13:16:52Z</time>
      </trkpt>
      <trkpt lat="28.6061780" lon="-17.8191000">
        <ele>1348.9</ele>
        <time>2020-11-17T13:16:53Z</time>
      </trkpt>
      <trkpt lat="28.6061920" lon="-17.8190770">
        <ele>1348.2</ele>
        <time>2020-11-17T13:16:54Z</time>
      </trkpt>
      <trkpt lat="28.6061920" lon="-17.8190770">
        <ele>1348.2</ele>
        <time>2020-11-17T13:16:55Z</time>
      </trkpt>
      <trkpt lat="28.6062130" lon="-17.8190350">
        <ele>1347.0</ele>
        <time>2020-11-17T13:16:56Z</time>
      </trkpt>
      <trkpt lat="28.6062130" lon="-17.8190350">
        <ele>1347.0</ele>
        <time>2020-11-17T13:16:57Z</time>
      </trkpt>
      <trkpt lat="28.6062380" lon="-17.8189830">
        <ele>1345.5</ele>
        <time>2020-11-17T13:16:58Z</time>
      </trkpt>
      <trkpt lat="28.6062380" lon="-17.8189830">
        <ele>1345.5</ele>
        <time>2020-11-17T13:16:59Z</time>
      </trkpt>
      <trkpt lat="28.6062550" lon="-17.8189500">
        <ele>1344.6</ele>
        <time>2020-11-17T13:17:00Z</time>
      </trkpt>
      <trkpt lat="28.6062550" lon="-17.8189500">
        <ele>1344.6</ele>
        <time>2020-11-17T13:17:01Z</time>
      </trkpt>
      <trkpt lat="28.6062820" lon="-17.8188920">
        <ele>1343.0</ele>
        <time>2020-11-17T13:17:02Z</time>
      </trkpt>
      <trkpt lat="28.6062950" lon="-17.8188650">
        <ele>1342.3</ele>
        <time>2020-11-17T13:17:03Z</time>
      </trkpt>
      <trkpt lat="28.6062950" lon="-17.8188650">
        <ele>1342.3</ele>
        <time>2020-11-17T13:17:04Z</time>
      </trkpt>
      <trkpt lat="28.6063320" lon="-17.8188130">
        <ele>1340.8</ele>
        <time>2020-11-17T13:17:05Z</time>
      </trkpt>
      <trkpt lat="28.6063450" lon="-17.8187870">
        <ele>1340.1</ele>
        <time>2020-11-17T13:17:06Z</time>
      </trkpt>
      <trkpt lat="28.6063450" lon="-17.8187870">
        <ele>1340.1</ele>
        <time>2020-11-17T13:17:07Z</time>
      </trkpt>
      <trkpt lat="28.6063920" lon="-17.8187270">
        <ele>1338.2</ele>
        <time>2020-11-17T13:17:08Z</time>
      </trkpt>
      <trkpt lat="28.6064030" lon="-17.8186980">
        <ele>1337.5</ele>
        <time>2020-11-17T13:17:09Z</time>
      </trkpt>
      <trkpt lat="28.6064030" lon="-17.8186980">
        <ele>1337.5</ele>
        <time>2020-11-17T13:17:10Z</time>
      </trkpt>
      <trkpt lat="28.6064200" lon="-17.8186280">
        <ele>1335.8</ele>
        <time>2020-11-17T13:17:11Z</time>
      </trkpt>
      <trkpt lat="28.6064280" lon="-17.8185950">
        <ele>1335.0</ele>
        <time>2020-11-17T13:17:12Z</time>
      </trkpt>
      <trkpt lat="28.6064280" lon="-17.8185950">
        <ele>1335.0</ele>
        <time>2020-11-17T13:17:13Z</time>
      </trkpt>
      <trkpt lat="28.6064520" lon="-17.8185230">
        <ele>1333.1</ele>
        <time>2020-11-17T13:17:14Z</time>
      </trkpt>
      <trkpt lat="28.6064600" lon="-17.8184830">
        <ele>1332.2</ele>
        <time>2020-11-17T13:17:15Z</time>
      </trkpt>
      <trkpt lat="28.6064720" lon="-17.8184320">
        <ele>1330.9</ele>
        <time>2020-11-17T13:17:16Z</time>
      </trkpt>
      <trkpt lat="28.6064720" lon="-17.8184320">
        <ele>1330.9</ele>
        <time>2020-11-17T13:17:17Z</time>
      </trkpt>
      <trkpt lat="28.6065070" lon="-17.8183400">
        <ele>1328.6</ele>
        <time>2020-11-17T13:17:18Z</time>
      </trkpt>
      <trkpt lat="28.6065320" lon="-17.8182920">
        <ele>1327.4</ele>
        <time>2020-11-17T13:17:19Z</time>
      </trkpt>
      <trkpt lat="28.6065320" lon="-17.8182920">
        <ele>1327.4</ele>
        <time>2020-11-17T13:17:20Z</time>
      </trkpt>
      <trkpt lat="28.6065620" lon="-17.8182220">
        <ele>1325.8</ele>
        <time>2020-11-17T13:17:21Z</time>
      </trkpt>
      <trkpt lat="28.6065620" lon="-17.8182220">
        <ele>1325.8</ele>
        <time>2020-11-17T13:17:22Z</time>
      </trkpt>
      <trkpt lat="28.6066020" lon="-17.8181220">
        <ele>1323.7</ele>
        <time>2020-11-17T13:17:23Z</time>
      </trkpt>
      <trkpt lat="28.6066020" lon="-17.8181220">
        <ele>1323.7</ele>
        <time>2020-11-17T13:17:24Z</time>
      </trkpt>
      <trkpt lat="28.6066430" lon="-17.8180400">
        <ele>1322.0</ele>
        <time>2020-11-17T13:17:25Z</time>
      </trkpt>
      <trkpt lat="28.6066430" lon="-17.8180400">
        <ele>1322.0</ele>
        <time>2020-11-17T13:17:26Z</time>
      </trkpt>
      <trkpt lat="28.6066750" lon="-17.8179880">
        <ele>1320.9</ele>
        <time>2020-11-17T13:17:27Z</time>
      </trkpt>
      <trkpt lat="28.6066750" lon="-17.8179880">
        <ele>1320.9</ele>
        <time>2020-11-17T13:17:28Z</time>
      </trkpt>
      <trkpt lat="28.6067150" lon="-17.8179330">
        <ele>1319.8</ele>
        <time>2020-11-17T13:17:29Z</time>
      </trkpt>
      <trkpt lat="28.6067300" lon="-17.8179070">
        <ele>1319.3</ele>
        <time>2020-11-17T13:17:30Z</time>
      </trkpt>
      <trkpt lat="28.6067300" lon="-17.8179070">
        <ele>1319.3</ele>
        <time>2020-11-17T13:17:31Z</time>
      </trkpt>
      <trkpt lat="28.6067550" lon="-17.8178530">
        <ele>1318.4</ele>
        <time>2020-11-17T13:17:32Z</time>
      </trkpt>
      <trkpt lat="28.6067550" lon="-17.8178530">
        <ele>1318.4</ele>
        <time>2020-11-17T13:17:33Z</time>
      </trkpt>
      <trkpt lat="28.6067880" lon="-17.8178080">
        <ele>1317.6</ele>
        <time>2020-11-17T13:17:34Z</time>
      </trkpt>
      <trkpt lat="28.6068050" lon="-17.8177830">
        <ele>1317.1</ele>
        <time>2020-11-17T13:17:35Z</time>
      </trkpt>
      <trkpt lat="28.6068050" lon="-17.8177830">
        <ele>1317.1</ele>
        <time>2020-11-17T13:17:36Z</time>
      </trkpt>
      <trkpt lat="28.6068200" lon="-17.8177220">
        <ele>1316.4</ele>
        <time>2020-11-17T13:17:37Z</time>
      </trkpt>
      <trkpt lat="28.6068200" lon="-17.8177220">
        <ele>1316.4</ele>
        <time>2020-11-17T13:17:38Z</time>
      </trkpt>
      <trkpt lat="28.6068480" lon="-17.8176320">
        <ele>1315.3</ele>
        <time>2020-11-17T13:17:39Z</time>
      </trkpt>
      <trkpt lat="28.6068630" lon="-17.8176050">
        <ele>1315.0</ele>
        <time>2020-11-17T13:17:40Z</time>
      </trkpt>
      <trkpt lat="28.6068630" lon="-17.8176050">
        <ele>1315.0</ele>
        <time>2020-11-17T13:17:41Z</time>
      </trkpt>
      <trkpt lat="28.6068950" lon="-17.8175700">
        <ele>1314.5</ele>
        <time>2020-11-17T13:17:42Z</time>
      </trkpt>
      <trkpt lat="28.6068950" lon="-17.8175700">
        <ele>1314.5</ele>
        <time>2020-11-17T13:17:43Z</time>
      </trkpt>
      <trkpt lat="28.6069170" lon="-17.8175480">
        <ele>1314.2</ele>
        <time>2020-11-17T13:17:44Z</time>
      </trkpt>
      <trkpt lat="28.6069220" lon="-17.8175320">
        <ele>1314.0</ele>
        <time>2020-11-17T13:17:45Z</time>
      </trkpt>
      <trkpt lat="28.6069220" lon="-17.8175320">
        <ele>1314.0</ele>
        <time>2020-11-17T13:17:46Z</time>
      </trkpt>
      <trkpt lat="28.6069370" lon="-17.8175020">
        <ele>1313.7</ele>
        <time>2020-11-17T13:17:47Z</time>
      </trkpt>
      <trkpt lat="28.6069470" lon="-17.8174900">
        <ele>1313.6</ele>
        <time>2020-11-17T13:17:48Z</time>
      </trkpt>
      <trkpt lat="28.6069470" lon="-17.8174900">
        <ele>1313.6</ele>
        <time>2020-11-17T13:17:49Z</time>
      </trkpt>
      <trkpt lat="28.6069650" lon="-17.8174620">
        <ele>1313.3</ele>
        <time>2020-11-17T13:17:50Z</time>
      </trkpt>
      <trkpt lat="28.6069650" lon="-17.8174620">
        <ele>1313.3</ele>
        <time>2020-11-17T13:17:51Z</time>
      </trkpt>
      <trkpt lat="28.6069770" lon="-17.8174200">
        <ele>1313.0</ele>
        <time>2020-11-17T13:17:52Z</time>
      </trkpt>
      <trkpt lat="28.6069850" lon="-17.8173970">
        <ele>1312.9</ele>
        <time>2020-11-17T13:17:53Z</time>
      </trkpt>
      <trkpt lat="28.6069850" lon="-17.8173970">
        <ele>1312.9</ele>
        <time>2020-11-17T13:17:54Z</time>
      </trkpt>
      <trkpt lat="28.6070070" lon="-17.8173630">
        <ele>1312.6</ele>
        <time>2020-11-17T13:17:55Z</time>
      </trkpt>
      <trkpt lat="28.6070180" lon="-17.8173530">
        <ele>1312.4</ele>
        <time>2020-11-17T13:17:56Z</time>
      </trkpt>
      <trkpt lat="28.6070180" lon="-17.8173530">
        <ele>1312.4</ele>
        <time>2020-11-17T13:17:57Z</time>
      </trkpt>
      <trkpt lat="28.6070320" lon="-17.8173120">
        <ele>1312.1</ele>
        <time>2020-11-17T13:17:58Z</time>
      </trkpt>
      <trkpt lat="28.6070320" lon="-17.8173120">
        <ele>1312.1</ele>
        <time>2020-11-17T13:17:59Z</time>
      </trkpt>
      <trkpt lat="28.6070500" lon="-17.8172680">
        <ele>1311.7</ele>
        <time>2020-11-17T13:18:00Z</time>
      </trkpt>
      <trkpt lat="28.6070500" lon="-17.8172680">
        <ele>1311.7</ele>
        <time>2020-11-17T13:18:01Z</time>
      </trkpt>
      <trkpt lat="28.6070480" lon="-17.8172200">
        <ele>1311.3</ele>
        <time>2020-11-17T13:18:02Z</time>
      </trkpt>
      <trkpt lat="28.6070530" lon="-17.8172000">
        <ele>1311.1</ele>
        <time>2020-11-17T13:18:03Z</time>
      </trkpt>
      <trkpt lat="28.6070530" lon="-17.8172000">
        <ele>1311.1</ele>
        <time>2020-11-17T13:18:04Z</time>
      </trkpt>
      <trkpt lat="28.6070680" lon="-17.8171680">
        <ele>1310.7</ele>
        <time>2020-11-17T13:18:05Z</time>
      </trkpt>
      <trkpt lat="28.6070680" lon="-17.8171680">
        <ele>1310.7</ele>
        <time>2020-11-17T13:18:06Z</time>
      </trkpt>
      <trkpt lat="28.6070770" lon="-17.8171550">
        <ele>1310.5</ele>
        <time>2020-11-17T13:18:07Z</time>
      </trkpt>
      <trkpt lat="28.6070770" lon="-17.8171550">
        <ele>1310.5</ele>
        <time>2020-11-17T13:18:08Z</time>
      </trkpt>
      <trkpt lat="28.6070800" lon="-17.8171420">
        <ele>1310.3</ele>
        <time>2020-11-17T13:18:09Z</time>
      </trkpt>
      <trkpt lat="28.6070800" lon="-17.8171420">
        <ele>1310.3</ele>
        <time>2020-11-17T13:18:10Z</time>
      </trkpt>
      <trkpt lat="28.6070800" lon="-17.8171420">
        <ele>1310.3</ele>
        <time>2020-11-17T13:18:51Z</time>
      </trkpt>
      <trkpt lat="28.6071400" lon="-17.8170550">
        <ele>1309.6</ele>
        <time>2020-11-17T13:18:52Z</time>
      </trkpt>
      <trkpt lat="28.6071400" lon="-17.8170550">
        <ele>1309.6</ele>
        <time>2020-11-17T13:18:53Z</time>
      </trkpt>
      <trkpt lat="28.6071470" lon="-17.8170170">
        <ele>1309.6</ele>
        <time>2020-11-17T13:18:54Z</time>
      </trkpt>
      <trkpt lat="28.6071470" lon="-17.8170170">
        <ele>1309.6</ele>
        <time>2020-11-17T13:18:55Z</time>
      </trkpt>
      <trkpt lat="28.6071820" lon="-17.8169870">
        <ele>1309.5</ele>
        <time>2020-11-17T13:18:56Z</time>
      </trkpt>
      <trkpt lat="28.6072050" lon="-17.8169630">
        <ele>1309.4</ele>
        <time>2020-11-17T13:18:57Z</time>
      </trkpt>
      <trkpt lat="28.6072050" lon="-17.8169630">
        <ele>1309.4</ele>
        <time>2020-11-17T13:18:58Z</time>
      </trkpt>
      <trkpt lat="28.6072400" lon="-17.8169170">
        <ele>1309.2</ele>
        <time>2020-11-17T13:18:59Z</time>
      </trkpt>
      <trkpt lat="28.6072400" lon="-17.8169170">
        <ele>1309.2</ele>
        <time>2020-11-17T13:19:00Z</time>
      </trkpt>
      <trkpt lat="28.6072770" lon="-17.8168770">
        <ele>1309.1</ele>
        <time>2020-11-17T13:19:01Z</time>
      </trkpt>
      <trkpt lat="28.6072770" lon="-17.8168770">
        <ele>1309.0</ele>
        <time>2020-11-17T13:19:02Z</time>
      </trkpt>
      <trkpt lat="28.6073080" lon="-17.8168470">
        <ele>1308.9</ele>
        <time>2020-11-17T13:19:03Z</time>
      </trkpt>
      <trkpt lat="28.6073080" lon="-17.8168470">
        <ele>1308.9</ele>
        <time>2020-11-17T13:19:04Z</time>
      </trkpt>
      <trkpt lat="28.6073450" lon="-17.8168320">
        <ele>1308.7</ele>
        <time>2020-11-17T13:19:05Z</time>
      </trkpt>
      <trkpt lat="28.6073580" lon="-17.8168320">
        <ele>1308.6</ele>
        <time>2020-11-17T13:19:06Z</time>
      </trkpt>
      <trkpt lat="28.6073580" lon="-17.8168320">
        <ele>1308.6</ele>
        <time>2020-11-17T13:19:07Z</time>
      </trkpt>
      <trkpt lat="28.6073920" lon="-17.8168380">
        <ele>1308.5</ele>
        <time>2020-11-17T13:19:08Z</time>
      </trkpt>
      <trkpt lat="28.6074070" lon="-17.8168500">
        <ele>1308.4</ele>
        <time>2020-11-17T13:19:09Z</time>
      </trkpt>
      <trkpt lat="28.6074070" lon="-17.8168500">
        <ele>1308.4</ele>
        <time>2020-11-17T13:19:10Z</time>
      </trkpt>
      <trkpt lat="28.6074280" lon="-17.8168770">
        <ele>1308.2</ele>
        <time>2020-11-17T13:19:11Z</time>
      </trkpt>
      <trkpt lat="28.6074280" lon="-17.8168770">
        <ele>1308.2</ele>
        <time>2020-11-17T13:19:12Z</time>
      </trkpt>
      <trkpt lat="28.6074470" lon="-17.8168970">
        <ele>1308.1</ele>
        <time>2020-11-17T13:19:13Z</time>
      </trkpt>
      <trkpt lat="28.6074470" lon="-17.8168970">
        <ele>1308.1</ele>
        <time>2020-11-17T13:19:14Z</time>
      </trkpt>
      <trkpt lat="28.6074600" lon="-17.8169300">
        <ele>1308.0</ele>
        <time>2020-11-17T13:19:15Z</time>
      </trkpt>
      <trkpt lat="28.6074720" lon="-17.8169480">
        <ele>1307.9</ele>
        <time>2020-11-17T13:19:16Z</time>
      </trkpt>
      <trkpt lat="28.6074720" lon="-17.8169480">
        <ele>1307.9</ele>
        <time>2020-11-17T13:19:17Z</time>
      </trkpt>
      <trkpt lat="28.6074900" lon="-17.8169820">
        <ele>1307.8</ele>
        <time>2020-11-17T13:19:18Z</time>
      </trkpt>
      <trkpt lat="28.6074900" lon="-17.8169820">
        <ele>1307.8</ele>
        <time>2020-11-17T13:19:19Z</time>
      </trkpt>
      <trkpt lat="28.6075150" lon="-17.8170120">
        <ele>1307.6</ele>
        <time>2020-11-17T13:19:20Z</time>
      </trkpt>
      <trkpt lat="28.6075150" lon="-17.8170120">
        <ele>1307.6</ele>
        <time>2020-11-17T13:19:21Z</time>
      </trkpt>
      <trkpt lat="28.6075400" lon="-17.8170600">
        <ele>1307.5</ele>
        <time>2020-11-17T13:19:22Z</time>
      </trkpt>
      <trkpt lat="28.6075480" lon="-17.8170730">
        <ele>1307.4</ele>
        <time>2020-11-17T13:19:23Z</time>
      </trkpt>
      <trkpt lat="28.6075600" lon="-17.8170880">
        <ele>1307.4</ele>
        <time>2020-11-17T13:19:24Z</time>
      </trkpt>
      <trkpt lat="28.6075600" lon="-17.8170880">
        <ele>1307.4</ele>
        <time>2020-11-17T13:19:25Z</time>
      </trkpt>
      <trkpt lat="28.6075620" lon="-17.8171250">
        <ele>1307.3</ele>
        <time>2020-11-17T13:19:26Z</time>
      </trkpt>
      <trkpt lat="28.6075620" lon="-17.8171450">
        <ele>1307.2</ele>
        <time>2020-11-17T13:19:27Z</time>
      </trkpt>
      <trkpt lat="28.6075620" lon="-17.8171450">
        <ele>1307.2</ele>
        <time>2020-11-17T13:19:28Z</time>
      </trkpt>
      <trkpt lat="28.6075870" lon="-17.8171920">
        <ele>1307.1</ele>
        <time>2020-11-17T13:19:29Z</time>
      </trkpt>
      <trkpt lat="28.6075870" lon="-17.8171920">
        <ele>1307.1</ele>
        <time>2020-11-17T13:19:30Z</time>
      </trkpt>
      <trkpt lat="28.6076280" lon="-17.8172380">
        <ele>1306.9</ele>
        <time>2020-11-17T13:19:31Z</time>
      </trkpt>
      <trkpt lat="28.6076280" lon="-17.8172380">
        <ele>1306.9</ele>
        <time>2020-11-17T13:19:32Z</time>
      </trkpt>
      <trkpt lat="28.6076670" lon="-17.8172880">
        <ele>1306.6</ele>
        <time>2020-11-17T13:19:33Z</time>
      </trkpt>
      <trkpt lat="28.6076670" lon="-17.8172880">
        <ele>1306.6</ele>
        <time>2020-11-17T13:19:34Z</time>
      </trkpt>
      <trkpt lat="28.6077080" lon="-17.8173250">
        <ele>1306.5</ele>
        <time>2020-11-17T13:19:35Z</time>
      </trkpt>
      <trkpt lat="28.6077350" lon="-17.8173380">
        <ele>1306.4</ele>
        <time>2020-11-17T13:19:36Z</time>
      </trkpt>
      <trkpt lat="28.6077350" lon="-17.8173380">
        <ele>1306.4</ele>
        <time>2020-11-17T13:19:37Z</time>
      </trkpt>
      <trkpt lat="28.6077780" lon="-17.8173580">
        <ele>1306.4</ele>
        <time>2020-11-17T13:19:38Z</time>
      </trkpt>
      <trkpt lat="28.6077930" lon="-17.8173650">
        <ele>1306.4</ele>
        <time>2020-11-17T13:19:39Z</time>
      </trkpt>
      <trkpt lat="28.6077930" lon="-17.8173650">
        <ele>1306.4</ele>
        <time>2020-11-17T13:19:40Z</time>
      </trkpt>
      <trkpt lat="28.6078370" lon="-17.8173770">
        <ele>1306.3</ele>
        <time>2020-11-17T13:19:41Z</time>
      </trkpt>
      <trkpt lat="28.6078520" lon="-17.8173830">
        <ele>1306.3</ele>
        <time>2020-11-17T13:19:42Z</time>
      </trkpt>
      <trkpt lat="28.6078670" lon="-17.8173920">
        <ele>1306.3</ele>
        <time>2020-11-17T13:19:43Z</time>
      </trkpt>
      <trkpt lat="28.6078670" lon="-17.8173920">
        <ele>1306.3</ele>
        <time>2020-11-17T13:19:44Z</time>
      </trkpt>
      <trkpt lat="28.6078680" lon="-17.8173930">
        <ele>1306.3</ele>
        <time>2020-11-17T13:19:45Z</time>
      </trkpt>
      <trkpt lat="28.6078680" lon="-17.8173930">
        <ele>1306.3</ele>
        <time>2020-11-17T13:19:55Z</time>
      </trkpt>
      <trkpt lat="28.6079700" lon="-17.8174850">
        <ele>1305.9</ele>
        <time>2020-11-17T13:19:56Z</time>
      </trkpt>
      <trkpt lat="28.6079700" lon="-17.8174850">
        <ele>1305.9</ele>
        <time>2020-11-17T13:19:57Z</time>
      </trkpt>
      <trkpt lat="28.6079570" lon="-17.8175130">
        <ele>1305.5</ele>
        <time>2020-11-17T13:19:58Z</time>
      </trkpt>
      <trkpt lat="28.6079580" lon="-17.8175230">
        <ele>1305.4</ele>
        <time>2020-11-17T13:19:59Z</time>
      </trkpt>
      <trkpt lat="28.6079580" lon="-17.8175230">
        <ele>1305.4</ele>
        <time>2020-11-17T13:20:00Z</time>
      </trkpt>
      <trkpt lat="28.6079530" lon="-17.8175600">
        <ele>1304.9</ele>
        <time>2020-11-17T13:20:01Z</time>
      </trkpt>
      <trkpt lat="28.6079530" lon="-17.8175600">
        <ele>1304.9</ele>
        <time>2020-11-17T13:20:02Z</time>
      </trkpt>
      <trkpt lat="28.6079480" lon="-17.8175900">
        <ele>1304.5</ele>
        <time>2020-11-17T13:20:03Z</time>
      </trkpt>
      <trkpt lat="28.6079480" lon="-17.8175900">
        <ele>1304.5</ele>
        <time>2020-11-17T13:20:04Z</time>
      </trkpt>
      <trkpt lat="28.6079380" lon="-17.8176120">
        <ele>1304.2</ele>
        <time>2020-11-17T13:20:05Z</time>
      </trkpt>
      <trkpt lat="28.6079350" lon="-17.8176130">
        <ele>1304.2</ele>
        <time>2020-11-17T13:20:06Z</time>
      </trkpt>
      <trkpt lat="28.6079350" lon="-17.8176130">
        <ele>1304.2</ele>
        <time>2020-11-17T13:20:25Z</time>
      </trkpt>
      <trkpt lat="28.6079580" lon="-17.8175900">
        <ele>1303.7</ele>
        <time>2020-11-17T13:20:26Z</time>
      </trkpt>
      <trkpt lat="28.6079580" lon="-17.8175900">
        <ele>1303.7</ele>
        <time>2020-11-17T13:20:27Z</time>
      </trkpt>
      <trkpt lat="28.6079650" lon="-17.8175400">
        <ele>1303.0</ele>
        <time>2020-11-17T13:20:28Z</time>
      </trkpt>
      <trkpt lat="28.6079650" lon="-17.8175400">
        <ele>1303.0</ele>
        <time>2020-11-17T13:20:29Z</time>
      </trkpt>
      <trkpt lat="28.6079720" lon="-17.8174930">
        <ele>1302.4</ele>
        <time>2020-11-17T13:20:30Z</time>
      </trkpt>
      <trkpt lat="28.6079720" lon="-17.8174930">
        <ele>1302.4</ele>
        <time>2020-11-17T13:20:31Z</time>
      </trkpt>
      <trkpt lat="28.6079730" lon="-17.8174650">
        <ele>1302.0</ele>
        <time>2020-11-17T13:20:32Z</time>
      </trkpt>
      <trkpt lat="28.6079750" lon="-17.8174520">
        <ele>1301.8</ele>
        <time>2020-11-17T13:20:33Z</time>
      </trkpt>
      <trkpt lat="28.6079750" lon="-17.8174520">
        <ele>1301.8</ele>
        <time>2020-11-17T13:20:34Z</time>
      </trkpt>
      <trkpt lat="28.6079730" lon="-17.8174170">
        <ele>1301.3</ele>
        <time>2020-11-17T13:20:35Z</time>
      </trkpt>
      <trkpt lat="28.6079700" lon="-17.8174070">
        <ele>1301.2</ele>
        <time>2020-11-17T13:20:36Z</time>
      </trkpt>
      <trkpt lat="28.6079700" lon="-17.8174070">
        <ele>1301.2</ele>
        <time>2020-11-17T13:20:37Z</time>
      </trkpt>
      <trkpt lat="28.6079670" lon="-17.8173920">
        <ele>1300.9</ele>
        <time>2020-11-17T13:20:38Z</time>
      </trkpt>
      <trkpt lat="28.6079670" lon="-17.8173920">
        <ele>1300.9</ele>
        <time>2020-11-17T13:20:39Z</time>
      </trkpt>
      <trkpt lat="28.6079700" lon="-17.8173880">
        <ele>1300.9</ele>
        <time>2020-11-17T13:21:28Z</time>
      </trkpt>
      <trkpt lat="28.6080850" lon="-17.8173980">
        <ele>1299.0</ele>
        <time>2020-11-17T13:21:29Z</time>
      </trkpt>
      <trkpt lat="28.6080980" lon="-17.8174020">
        <ele>1298.7</ele>
        <time>2020-11-17T13:21:30Z</time>
      </trkpt>
      <trkpt lat="28.6080980" lon="-17.8174020">
        <ele>1298.7</ele>
        <time>2020-11-17T13:21:31Z</time>
      </trkpt>
      <trkpt lat="28.6081130" lon="-17.8174050">
        <ele>1298.5</ele>
        <time>2020-11-17T13:21:32Z</time>
      </trkpt>
      <trkpt lat="28.6081130" lon="-17.8174050">
        <ele>1298.5</ele>
        <time>2020-11-17T13:21:33Z</time>
      </trkpt>
      <trkpt lat="28.6081250" lon="-17.8174120">
        <ele>1298.3</ele>
        <time>2020-11-17T13:21:34Z</time>
      </trkpt>
      <trkpt lat="28.6081250" lon="-17.8174120">
        <ele>1298.3</ele>
        <time>2020-11-17T13:21:35Z</time>
      </trkpt>
      <trkpt lat="28.6081470" lon="-17.8174080">
        <ele>1297.9</ele>
        <time>2020-11-17T13:21:36Z</time>
      </trkpt>
      <trkpt lat="28.6081470" lon="-17.8174080">
        <ele>1297.9</ele>
        <time>2020-11-17T13:21:37Z</time>
      </trkpt>
      <trkpt lat="28.6081730" lon="-17.8174030">
        <ele>1297.4</ele>
        <time>2020-11-17T13:21:38Z</time>
      </trkpt>
      <trkpt lat="28.6081730" lon="-17.8174030">
        <ele>1297.4</ele>
        <time>2020-11-17T13:21:39Z</time>
      </trkpt>
      <trkpt lat="28.6082020" lon="-17.8173930">
        <ele>1296.9</ele>
        <time>2020-11-17T13:21:40Z</time>
      </trkpt>
      <trkpt lat="28.6082020" lon="-17.8173930">
        <ele>1296.9</ele>
        <time>2020-11-17T13:21:41Z</time>
      </trkpt>
      <trkpt lat="28.6082350" lon="-17.8173820">
        <ele>1296.3</ele>
        <time>2020-11-17T13:21:42Z</time>
      </trkpt>
      <trkpt lat="28.6082350" lon="-17.8173820">
        <ele>1296.3</ele>
        <time>2020-11-17T13:21:43Z</time>
      </trkpt>
      <trkpt lat="28.6082630" lon="-17.8173730">
        <ele>1295.8</ele>
        <time>2020-11-17T13:21:44Z</time>
      </trkpt>
      <trkpt lat="28.6082750" lon="-17.8173720">
        <ele>1295.6</ele>
        <time>2020-11-17T13:21:45Z</time>
      </trkpt>
      <trkpt lat="28.6082820" lon="-17.8173630">
        <ele>1295.4</ele>
        <time>2020-11-17T13:21:46Z</time>
      </trkpt>
      <trkpt lat="28.6082820" lon="-17.8173630">
        <ele>1295.4</ele>
        <time>2020-11-17T13:21:47Z</time>
      </trkpt>
      <trkpt lat="28.6083020" lon="-17.8173500">
        <ele>1294.9</ele>
        <time>2020-11-17T13:21:48Z</time>
      </trkpt>
      <trkpt lat="28.6083020" lon="-17.8173500">
        <ele>1294.9</ele>
        <time>2020-11-17T13:21:49Z</time>
      </trkpt>
      <trkpt lat="28.6083280" lon="-17.8173380">
        <ele>1294.4</ele>
        <time>2020-11-17T13:21:50Z</time>
      </trkpt>
      <trkpt lat="28.6083450" lon="-17.8173250">
        <ele>1294.0</ele>
        <time>2020-11-17T13:21:51Z</time>
      </trkpt>
      <trkpt lat="28.6083450" lon="-17.8173250">
        <ele>1294.0</ele>
        <time>2020-11-17T13:21:52Z</time>
      </trkpt>
      <trkpt lat="28.6083720" lon="-17.8173050">
        <ele>1293.4</ele>
        <time>2020-11-17T13:21:53Z</time>
      </trkpt>
      <trkpt lat="28.6083720" lon="-17.8173050">
        <ele>1293.4</ele>
        <time>2020-11-17T13:21:54Z</time>
      </trkpt>
      <trkpt lat="28.6084050" lon="-17.8172720">
        <ele>1292.6</ele>
        <time>2020-11-17T13:21:55Z</time>
      </trkpt>
      <trkpt lat="28.6084050" lon="-17.8172720">
        <ele>1292.6</ele>
        <time>2020-11-17T13:21:56Z</time>
      </trkpt>
      <trkpt lat="28.6084520" lon="-17.8172420">
        <ele>1291.0</ele>
        <time>2020-11-17T13:21:57Z</time>
      </trkpt>
      <trkpt lat="28.6084770" lon="-17.8172270">
        <ele>1290.5</ele>
        <time>2020-11-17T13:21:58Z</time>
      </trkpt>
      <trkpt lat="28.6084770" lon="-17.8172270">
        <ele>1290.5</ele>
        <time>2020-11-17T13:21:59Z</time>
      </trkpt>
      <trkpt lat="28.6085300" lon="-17.8171980">
        <ele>1289.7</ele>
        <time>2020-11-17T13:22:00Z</time>
      </trkpt>
      <trkpt lat="28.6085530" lon="-17.8171880">
        <ele>1289.3</ele>
        <time>2020-11-17T13:22:01Z</time>
      </trkpt>
      <trkpt lat="28.6085530" lon="-17.8171880">
        <ele>1289.3</ele>
        <time>2020-11-17T13:22:02Z</time>
      </trkpt>
      <trkpt lat="28.6085830" lon="-17.8171750">
        <ele>1289.0</ele>
        <time>2020-11-17T13:22:03Z</time>
      </trkpt>
      <trkpt lat="28.6085920" lon="-17.8171770">
        <ele>1288.9</ele>
        <time>2020-11-17T13:22:04Z</time>
      </trkpt>
      <trkpt lat="28.6085920" lon="-17.8171770">
        <ele>1288.9</ele>
        <time>2020-11-17T13:22:05Z</time>
      </trkpt>
      <trkpt lat="28.6086000" lon="-17.8171750">
        <ele>1288.8</ele>
        <time>2020-11-17T13:22:06Z</time>
      </trkpt>
      <trkpt lat="28.6086000" lon="-17.8171750">
        <ele>1288.8</ele>
        <time>2020-11-17T13:22:13Z</time>
      </trkpt>
      <trkpt lat="28.6086770" lon="-17.8171780">
        <ele>1288.2</ele>
        <time>2020-11-17T13:22:14Z</time>
      </trkpt>
      <trkpt lat="28.6086770" lon="-17.8171780">
        <ele>1288.2</ele>
        <time>2020-11-17T13:22:15Z</time>
      </trkpt>
      <trkpt lat="28.6086850" lon="-17.8171650">
        <ele>1288.1</ele>
        <time>2020-11-17T13:22:16Z</time>
      </trkpt>
      <trkpt lat="28.6086850" lon="-17.8171650">
        <ele>1288.1</ele>
        <time>2020-11-17T13:22:17Z</time>
      </trkpt>
      <trkpt lat="28.6087050" lon="-17.8171400">
        <ele>1287.9</ele>
        <time>2020-11-17T13:22:18Z</time>
      </trkpt>
      <trkpt lat="28.6087050" lon="-17.8171400">
        <ele>1287.9</ele>
        <time>2020-11-17T13:22:19Z</time>
      </trkpt>
      <trkpt lat="28.6087300" lon="-17.8171150">
        <ele>1287.6</ele>
        <time>2020-11-17T13:22:20Z</time>
      </trkpt>
      <trkpt lat="28.6087470" lon="-17.8171080">
        <ele>1287.4</ele>
        <time>2020-11-17T13:22:21Z</time>
      </trkpt>
      <trkpt lat="28.6087470" lon="-17.8171080">
        <ele>1287.4</ele>
        <time>2020-11-17T13:22:22Z</time>
      </trkpt>
      <trkpt lat="28.6087770" lon="-17.8170980">
        <ele>1286.9</ele>
        <time>2020-11-17T13:22:23Z</time>
      </trkpt>
      <trkpt lat="28.6087770" lon="-17.8170980">
        <ele>1286.9</ele>
        <time>2020-11-17T13:22:24Z</time>
      </trkpt>
      <trkpt lat="28.6087920" lon="-17.8171050">
        <ele>1286.7</ele>
        <time>2020-11-17T13:22:25Z</time>
      </trkpt>
      <trkpt lat="28.6087920" lon="-17.8171050">
        <ele>1286.7</ele>
        <time>2020-11-17T13:22:26Z</time>
      </trkpt>
      <trkpt lat="28.6087920" lon="-17.8171320">
        <ele>1286.3</ele>
        <time>2020-11-17T13:22:27Z</time>
      </trkpt>
      <trkpt lat="28.6087920" lon="-17.8171380">
        <ele>1286.2</ele>
        <time>2020-11-17T13:22:28Z</time>
      </trkpt>
      <trkpt lat="28.6087920" lon="-17.8171380">
        <ele>1286.2</ele>
        <time>2020-11-17T13:22:29Z</time>
      </trkpt>
      <trkpt lat="28.6088070" lon="-17.8171370">
        <ele>1285.9</ele>
        <time>2020-11-17T13:22:30Z</time>
      </trkpt>
      <trkpt lat="28.6088070" lon="-17.8171370">
        <ele>1285.9</ele>
        <time>2020-11-17T13:22:31Z</time>
      </trkpt>
      <trkpt lat="28.6088270" lon="-17.8171120">
        <ele>1285.3</ele>
        <time>2020-11-17T13:22:32Z</time>
      </trkpt>
      <trkpt lat="28.6088380" lon="-17.8171050">
        <ele>1285.0</ele>
        <time>2020-11-17T13:22:33Z</time>
      </trkpt>
      <trkpt lat="28.6088600" lon="-17.8170880">
        <ele>1284.4</ele>
        <time>2020-11-17T13:22:37Z</time>
      </trkpt>
      <trkpt lat="28.6089400" lon="-17.8170700">
        <ele>1282.7</ele>
        <time>2020-11-17T13:22:38Z</time>
      </trkpt>
      <trkpt lat="28.6089400" lon="-17.8170700">
        <ele>1282.7</ele>
        <time>2020-11-17T13:22:39Z</time>
      </trkpt>
      <trkpt lat="28.6089830" lon="-17.8170870">
        <ele>1281.8</ele>
        <time>2020-11-17T13:22:40Z</time>
      </trkpt>
      <trkpt lat="28.6090080" lon="-17.8170970">
        <ele>1281.3</ele>
        <time>2020-11-17T13:22:41Z</time>
      </trkpt>
      <trkpt lat="28.6090080" lon="-17.8170970">
        <ele>1281.3</ele>
        <time>2020-11-17T13:22:42Z</time>
      </trkpt>
      <trkpt lat="28.6090450" lon="-17.8171200">
        <ele>1280.5</ele>
        <time>2020-11-17T13:22:43Z</time>
      </trkpt>
      <trkpt lat="28.6090450" lon="-17.8171200">
        <ele>1280.5</ele>
        <time>2020-11-17T13:22:44Z</time>
      </trkpt>
      <trkpt lat="28.6090900" lon="-17.8171230">
        <ele>1279.8</ele>
        <time>2020-11-17T13:22:45Z</time>
      </trkpt>
      <trkpt lat="28.6090900" lon="-17.8171230">
        <ele>1279.8</ele>
        <time>2020-11-17T13:22:46Z</time>
      </trkpt>
      <trkpt lat="28.6091300" lon="-17.8171220">
        <ele>1279.1</ele>
        <time>2020-11-17T13:22:47Z</time>
      </trkpt>
      <trkpt lat="28.6091550" lon="-17.8171300">
        <ele>1278.7</ele>
        <time>2020-11-17T13:22:48Z</time>
      </trkpt>
      <trkpt lat="28.6091550" lon="-17.8171300">
        <ele>1278.7</ele>
        <time>2020-11-17T13:22:49Z</time>
      </trkpt>
      <trkpt lat="28.6091920" lon="-17.8171380">
        <ele>1278.1</ele>
        <time>2020-11-17T13:22:50Z</time>
      </trkpt>
      <trkpt lat="28.6091920" lon="-17.8171380">
        <ele>1278.1</ele>
        <time>2020-11-17T13:22:51Z</time>
      </trkpt>
      <trkpt lat="28.6092080" lon="-17.8171580">
        <ele>1277.7</ele>
        <time>2020-11-17T13:22:52Z</time>
      </trkpt>
      <trkpt lat="28.6092230" lon="-17.8171630">
        <ele>1277.4</ele>
        <time>2020-11-17T13:22:53Z</time>
      </trkpt>
      <trkpt lat="28.6092400" lon="-17.8171700">
        <ele>1277.1</ele>
        <time>2020-11-17T13:22:54Z</time>
      </trkpt>
      <trkpt lat="28.6092400" lon="-17.8171700">
        <ele>1277.1</ele>
        <time>2020-11-17T13:22:55Z</time>
      </trkpt>
      <trkpt lat="28.6092800" lon="-17.8171680">
        <ele>1276.5</ele>
        <time>2020-11-17T13:22:56Z</time>
      </trkpt>
      <trkpt lat="28.6092800" lon="-17.8171680">
        <ele>1276.5</ele>
        <time>2020-11-17T13:22:57Z</time>
      </trkpt>
      <trkpt lat="28.6093170" lon="-17.8171880">
        <ele>1275.9</ele>
        <time>2020-11-17T13:22:58Z</time>
      </trkpt>
      <trkpt lat="28.6093170" lon="-17.8171880">
        <ele>1275.9</ele>
        <time>2020-11-17T13:22:59Z</time>
      </trkpt>
      <trkpt lat="28.6093630" lon="-17.8172230">
        <ele>1275.3</ele>
        <time>2020-11-17T13:23:00Z</time>
      </trkpt>
      <trkpt lat="28.6093630" lon="-17.8172230">
        <ele>1275.3</ele>
        <time>2020-11-17T13:23:01Z</time>
      </trkpt>
      <trkpt lat="28.6094070" lon="-17.8172480">
        <ele>1274.8</ele>
        <time>2020-11-17T13:23:02Z</time>
      </trkpt>
      <trkpt lat="28.6094070" lon="-17.8172480">
        <ele>1274.8</ele>
        <time>2020-11-17T13:23:03Z</time>
      </trkpt>
      <trkpt lat="28.6094430" lon="-17.8172620">
        <ele>1274.5</ele>
        <time>2020-11-17T13:23:04Z</time>
      </trkpt>
      <trkpt lat="28.6094430" lon="-17.8172620">
        <ele>1274.5</ele>
        <time>2020-11-17T13:23:05Z</time>
      </trkpt>
      <trkpt lat="28.6094850" lon="-17.8172720">
        <ele>1274.2</ele>
        <time>2020-11-17T13:23:06Z</time>
      </trkpt>
      <trkpt lat="28.6094850" lon="-17.8172720">
        <ele>1274.2</ele>
        <time>2020-11-17T13:23:07Z</time>
      </trkpt>
      <trkpt lat="28.6095230" lon="-17.8172880">
        <ele>1273.5</ele>
        <time>2020-11-17T13:23:08Z</time>
      </trkpt>
      <trkpt lat="28.6095230" lon="-17.8172880">
        <ele>1273.5</ele>
        <time>2020-11-17T13:23:09Z</time>
      </trkpt>
      <trkpt lat="28.6095520" lon="-17.8173120">
        <ele>1273.1</ele>
        <time>2020-11-17T13:23:10Z</time>
      </trkpt>
      <trkpt lat="28.6095520" lon="-17.8173120">
        <ele>1273.1</ele>
        <time>2020-11-17T13:23:11Z</time>
      </trkpt>
      <trkpt lat="28.6095780" lon="-17.8173620">
        <ele>1272.6</ele>
        <time>2020-11-17T13:23:12Z</time>
      </trkpt>
      <trkpt lat="28.6095780" lon="-17.8173620">
        <ele>1272.6</ele>
        <time>2020-11-17T13:23:13Z</time>
      </trkpt>
      <trkpt lat="28.6096080" lon="-17.8174070">
        <ele>1272.2</ele>
        <time>2020-11-17T13:23:14Z</time>
      </trkpt>
      <trkpt lat="28.6096080" lon="-17.8174070">
        <ele>1272.2</ele>
        <time>2020-11-17T13:23:15Z</time>
      </trkpt>
      <trkpt lat="28.6096450" lon="-17.8174330">
        <ele>1271.9</ele>
        <time>2020-11-17T13:23:16Z</time>
      </trkpt>
      <trkpt lat="28.6096450" lon="-17.8174330">
        <ele>1271.9</ele>
        <time>2020-11-17T13:23:17Z</time>
      </trkpt>
      <trkpt lat="28.6096730" lon="-17.8174350">
        <ele>1271.7</ele>
        <time>2020-11-17T13:23:18Z</time>
      </trkpt>
      <trkpt lat="28.6096730" lon="-17.8174350">
        <ele>1271.7</ele>
        <time>2020-11-17T13:23:19Z</time>
      </trkpt>
      <trkpt lat="28.6096680" lon="-17.8174320">
        <ele>1271.7</ele>
        <time>2020-11-17T13:23:20Z</time>
      </trkpt>
      <trkpt lat="28.6096680" lon="-17.8174320">
        <ele>1271.7</ele>
        <time>2020-11-17T13:23:21Z</time>
      </trkpt>
      <trkpt lat="28.6096670" lon="-17.8174330">
        <ele>1271.7</ele>
        <time>2020-11-17T13:24:00Z</time>
      </trkpt>
      <trkpt lat="28.6096670" lon="-17.8174330">
        <ele>1271.7</ele>
        <time>2020-11-17T13:24:01Z</time>
      </trkpt>
      <trkpt lat="28.6096530" lon="-17.8174430">
        <ele>1271.6</ele>
        <time>2020-11-17T13:24:02Z</time>
      </trkpt>
      <trkpt lat="28.6096530" lon="-17.8174430">
        <ele>1271.6</ele>
        <time>2020-11-17T13:25:08Z</time>
      </trkpt>
      <trkpt lat="28.6097050" lon="-17.8174430">
        <ele>1271.3</ele>
        <time>2020-11-17T13:25:09Z</time>
      </trkpt>
      <trkpt lat="28.6097050" lon="-17.8174430">
        <ele>1271.3</ele>
        <time>2020-11-17T13:25:25Z</time>
      </trkpt>
      <trkpt lat="28.6097480" lon="-17.8174320">
        <ele>1271.1</ele>
        <time>2020-11-17T13:25:26Z</time>
      </trkpt>
      <trkpt lat="28.6097680" lon="-17.8174230">
        <ele>1270.9</ele>
        <time>2020-11-17T13:25:27Z</time>
      </trkpt>
      <trkpt lat="28.6097680" lon="-17.8174230">
        <ele>1270.9</ele>
        <time>2020-11-17T13:25:28Z</time>
      </trkpt>
      <trkpt lat="28.6098070" lon="-17.8174180">
        <ele>1270.7</ele>
        <time>2020-11-17T13:25:29Z</time>
      </trkpt>
      <trkpt lat="28.6098070" lon="-17.8174180">
        <ele>1270.7</ele>
        <time>2020-11-17T13:25:30Z</time>
      </trkpt>
      <trkpt lat="28.6098430" lon="-17.8174250">
        <ele>1270.4</ele>
        <time>2020-11-17T13:25:31Z</time>
      </trkpt>
      <trkpt lat="28.6098430" lon="-17.8174250">
        <ele>1270.4</ele>
        <time>2020-11-17T13:25:32Z</time>
      </trkpt>
      <trkpt lat="28.6098770" lon="-17.8174370">
        <ele>1270.1</ele>
        <time>2020-11-17T13:25:33Z</time>
      </trkpt>
      <trkpt lat="28.6098900" lon="-17.8174420">
        <ele>1270.0</ele>
        <time>2020-11-17T13:25:34Z</time>
      </trkpt>
      <trkpt lat="28.6098900" lon="-17.8174420">
        <ele>1270.0</ele>
        <time>2020-11-17T13:25:35Z</time>
      </trkpt>
      <trkpt lat="28.6099220" lon="-17.8174600">
        <ele>1269.7</ele>
        <time>2020-11-17T13:25:36Z</time>
      </trkpt>
      <trkpt lat="28.6099400" lon="-17.8174700">
        <ele>1269.4</ele>
        <time>2020-11-17T13:25:37Z</time>
      </trkpt>
      <trkpt lat="28.6099580" lon="-17.8174820">
        <ele>1269.2</ele>
        <time>2020-11-17T13:25:38Z</time>
      </trkpt>
      <trkpt lat="28.6099580" lon="-17.8174820">
        <ele>1269.2</ele>
        <time>2020-11-17T13:25:39Z</time>
      </trkpt>
      <trkpt lat="28.6100000" lon="-17.8174900">
        <ele>1268.8</ele>
        <time>2020-11-17T13:25:40Z</time>
      </trkpt>
      <trkpt lat="28.6100000" lon="-17.8174900">
        <ele>1268.8</ele>
        <time>2020-11-17T13:25:41Z</time>
      </trkpt>
      <trkpt lat="28.6100400" lon="-17.8174730">
        <ele>1268.3</ele>
        <time>2020-11-17T13:25:42Z</time>
      </trkpt>
      <trkpt lat="28.6100570" lon="-17.8174600">
        <ele>1268.1</ele>
        <time>2020-11-17T13:25:43Z</time>
      </trkpt>
      <trkpt lat="28.6100570" lon="-17.8174600">
        <ele>1268.1</ele>
        <time>2020-11-17T13:25:44Z</time>
      </trkpt>
      <trkpt lat="28.6100830" lon="-17.8174130">
        <ele>1267.5</ele>
        <time>2020-11-17T13:25:45Z</time>
      </trkpt>
      <trkpt lat="28.6100830" lon="-17.8174130">
        <ele>1267.5</ele>
        <time>2020-11-17T13:25:46Z</time>
      </trkpt>
      <trkpt lat="28.6101070" lon="-17.8173420">
        <ele>1267.5</ele>
        <time>2020-11-17T13:25:47Z</time>
      </trkpt>
      <trkpt lat="28.6101220" lon="-17.8173070">
        <ele>1267.5</ele>
        <time>2020-11-17T13:25:48Z</time>
      </trkpt>
      <trkpt lat="28.6101220" lon="-17.8173070">
        <ele>1267.5</ele>
        <time>2020-11-17T13:25:49Z</time>
      </trkpt>
      <trkpt lat="28.6101620" lon="-17.8172420">
        <ele>1267.0</ele>
        <time>2020-11-17T13:25:50Z</time>
      </trkpt>
      <trkpt lat="28.6101620" lon="-17.8172420">
        <ele>1267.0</ele>
        <time>2020-11-17T13:25:51Z</time>
      </trkpt>
      <trkpt lat="28.6102030" lon="-17.8171900">
        <ele>1266.6</ele>
        <time>2020-11-17T13:25:52Z</time>
      </trkpt>
      <trkpt lat="28.6102030" lon="-17.8171900">
        <ele>1266.6</ele>
        <time>2020-11-17T13:25:53Z</time>
      </trkpt>
      <trkpt lat="28.6102630" lon="-17.8171450">
        <ele>1265.9</ele>
        <time>2020-11-17T13:25:54Z</time>
      </trkpt>
      <trkpt lat="28.6102630" lon="-17.8171450">
        <ele>1265.9</ele>
        <time>2020-11-17T13:25:55Z</time>
      </trkpt>
      <trkpt lat="28.6103270" lon="-17.8171370">
        <ele>1265.2</ele>
        <time>2020-11-17T13:25:56Z</time>
      </trkpt>
      <trkpt lat="28.6103520" lon="-17.8171430">
        <ele>1264.9</ele>
        <time>2020-11-17T13:25:57Z</time>
      </trkpt>
      <trkpt lat="28.6103520" lon="-17.8171430">
        <ele>1264.9</ele>
        <time>2020-11-17T13:25:58Z</time>
      </trkpt>
      <trkpt lat="28.6104070" lon="-17.8171520">
        <ele>1264.3</ele>
        <time>2020-11-17T13:25:59Z</time>
      </trkpt>
      <trkpt lat="28.6104070" lon="-17.8171520">
        <ele>1264.3</ele>
        <time>2020-11-17T13:26:00Z</time>
      </trkpt>
      <trkpt lat="28.6104650" lon="-17.8171280">
        <ele>1263.8</ele>
        <time>2020-11-17T13:26:01Z</time>
      </trkpt>
      <trkpt lat="28.6104650" lon="-17.8171280">
        <ele>1263.8</ele>
        <time>2020-11-17T13:26:02Z</time>
      </trkpt>
      <trkpt lat="28.6105180" lon="-17.8170970">
        <ele>1263.2</ele>
        <time>2020-11-17T13:26:03Z</time>
      </trkpt>
      <trkpt lat="28.6105470" lon="-17.8170900">
        <ele>1262.9</ele>
        <time>2020-11-17T13:26:04Z</time>
      </trkpt>
      <trkpt lat="28.6105470" lon="-17.8170900">
        <ele>1262.9</ele>
        <time>2020-11-17T13:26:05Z</time>
      </trkpt>
      <trkpt lat="28.6105880" lon="-17.8171030">
        <ele>1262.5</ele>
        <time>2020-11-17T13:26:06Z</time>
      </trkpt>
      <trkpt lat="28.6105880" lon="-17.8171030">
        <ele>1262.5</ele>
        <time>2020-11-17T13:26:07Z</time>
      </trkpt>
      <trkpt lat="28.6106280" lon="-17.8171230">
        <ele>1262.0</ele>
        <time>2020-11-17T13:26:08Z</time>
      </trkpt>
      <trkpt lat="28.6106520" lon="-17.8171320">
        <ele>1261.7</ele>
        <time>2020-11-17T13:26:09Z</time>
      </trkpt>
      <trkpt lat="28.6106520" lon="-17.8171320">
        <ele>1261.7</ele>
        <time>2020-11-17T13:26:10Z</time>
      </trkpt>
      <trkpt lat="28.6107070" lon="-17.8171570">
        <ele>1261.1</ele>
        <time>2020-11-17T13:26:11Z</time>
      </trkpt>
      <trkpt lat="28.6107430" lon="-17.8171680">
        <ele>1260.8</ele>
        <time>2020-11-17T13:26:12Z</time>
      </trkpt>
      <trkpt lat="28.6107430" lon="-17.8171680">
        <ele>1260.8</ele>
        <time>2020-11-17T13:26:13Z</time>
      </trkpt>
      <trkpt lat="28.6108250" lon="-17.8171950">
        <ele>1260.4</ele>
        <time>2020-11-17T13:26:14Z</time>
      </trkpt>
      <trkpt lat="28.6108600" lon="-17.8172070">
        <ele>1260.3</ele>
        <time>2020-11-17T13:26:15Z</time>
      </trkpt>
      <trkpt lat="28.6108600" lon="-17.8172070">
        <ele>1260.3</ele>
        <time>2020-11-17T13:26:16Z</time>
      </trkpt>
      <trkpt lat="28.6109100" lon="-17.8172230">
        <ele>1260.2</ele>
        <time>2020-11-17T13:26:17Z</time>
      </trkpt>
      <trkpt lat="28.6109100" lon="-17.8172230">
        <ele>1260.2</ele>
        <time>2020-11-17T13:26:18Z</time>
      </trkpt>
      <trkpt lat="28.6109550" lon="-17.8172480">
        <ele>1259.9</ele>
        <time>2020-11-17T13:26:19Z</time>
      </trkpt>
      <trkpt lat="28.6109550" lon="-17.8172480">
        <ele>1259.9</ele>
        <time>2020-11-17T13:26:20Z</time>
      </trkpt>
      <trkpt lat="28.6110030" lon="-17.8172820">
        <ele>1259.6</ele>
        <time>2020-11-17T13:26:21Z</time>
      </trkpt>
      <trkpt lat="28.6110300" lon="-17.8172980">
        <ele>1259.3</ele>
        <time>2020-11-17T13:26:22Z</time>
      </trkpt>
      <trkpt lat="28.6110300" lon="-17.8172980">
        <ele>1259.3</ele>
        <time>2020-11-17T13:26:23Z</time>
      </trkpt>
      <trkpt lat="28.6110830" lon="-17.8173270">
        <ele>1258.7</ele>
        <time>2020-11-17T13:26:24Z</time>
      </trkpt>
      <trkpt lat="28.6111080" lon="-17.8173400">
        <ele>1258.4</ele>
        <time>2020-11-17T13:26:25Z</time>
      </trkpt>
      <trkpt lat="28.6111080" lon="-17.8173400">
        <ele>1258.4</ele>
        <time>2020-11-17T13:26:26Z</time>
      </trkpt>
      <trkpt lat="28.6111530" lon="-17.8173700">
        <ele>1257.8</ele>
        <time>2020-11-17T13:26:27Z</time>
      </trkpt>
      <trkpt lat="28.6111730" lon="-17.8173750">
        <ele>1257.5</ele>
        <time>2020-11-17T13:26:28Z</time>
      </trkpt>
      <trkpt lat="28.6111730" lon="-17.8173750">
        <ele>1257.5</ele>
        <time>2020-11-17T13:26:29Z</time>
      </trkpt>
      <trkpt lat="28.6112230" lon="-17.8173830">
        <ele>1256.9</ele>
        <time>2020-11-17T13:26:30Z</time>
      </trkpt>
      <trkpt lat="28.6112480" lon="-17.8173820">
        <ele>1256.5</ele>
        <time>2020-11-17T13:26:31Z</time>
      </trkpt>
      <trkpt lat="28.6112480" lon="-17.8173820">
        <ele>1256.5</ele>
        <time>2020-11-17T13:26:32Z</time>
      </trkpt>
      <trkpt lat="28.6112920" lon="-17.8173700">
        <ele>1255.9</ele>
        <time>2020-11-17T13:26:33Z</time>
      </trkpt>
      <trkpt lat="28.6112920" lon="-17.8173700">
        <ele>1255.9</ele>
        <time>2020-11-17T13:26:34Z</time>
      </trkpt>
      <trkpt lat="28.6113330" lon="-17.8173720">
        <ele>1255.3</ele>
        <time>2020-11-17T13:26:35Z</time>
      </trkpt>
      <trkpt lat="28.6113330" lon="-17.8173720">
        <ele>1255.3</ele>
        <time>2020-11-17T13:26:36Z</time>
      </trkpt>
      <trkpt lat="28.6113670" lon="-17.8173730">
        <ele>1254.9</ele>
        <time>2020-11-17T13:26:37Z</time>
      </trkpt>
      <trkpt lat="28.6113670" lon="-17.8173730">
        <ele>1254.9</ele>
        <time>2020-11-17T13:26:38Z</time>
      </trkpt>
      <trkpt lat="28.6114330" lon="-17.8173770">
        <ele>1253.9</ele>
        <time>2020-11-17T13:26:39Z</time>
      </trkpt>
      <trkpt lat="28.6114330" lon="-17.8173770">
        <ele>1253.9</ele>
        <time>2020-11-17T13:26:40Z</time>
      </trkpt>
      <trkpt lat="28.6114880" lon="-17.8173770">
        <ele>1253.1</ele>
        <time>2020-11-17T13:26:41Z</time>
      </trkpt>
      <trkpt lat="28.6115120" lon="-17.8173730">
        <ele>1252.8</ele>
        <time>2020-11-17T13:26:42Z</time>
      </trkpt>
      <trkpt lat="28.6115120" lon="-17.8173730">
        <ele>1252.8</ele>
        <time>2020-11-17T13:26:43Z</time>
      </trkpt>
      <trkpt lat="28.6115550" lon="-17.8173800">
        <ele>1252.1</ele>
        <time>2020-11-17T13:26:44Z</time>
      </trkpt>
      <trkpt lat="28.6115550" lon="-17.8173800">
        <ele>1252.1</ele>
        <time>2020-11-17T13:26:45Z</time>
      </trkpt>
      <trkpt lat="28.6115880" lon="-17.8174030">
        <ele>1251.4</ele>
        <time>2020-11-17T13:26:46Z</time>
      </trkpt>
      <trkpt lat="28.6116050" lon="-17.8174170">
        <ele>1251.0</ele>
        <time>2020-11-17T13:26:47Z</time>
      </trkpt>
      <trkpt lat="28.6116050" lon="-17.8174170">
        <ele>1251.0</ele>
        <time>2020-11-17T13:26:48Z</time>
      </trkpt>
      <trkpt lat="28.6116470" lon="-17.8174550">
        <ele>1250.0</ele>
        <time>2020-11-17T13:26:49Z</time>
      </trkpt>
      <trkpt lat="28.6116470" lon="-17.8174550">
        <ele>1250.0</ele>
        <time>2020-11-17T13:26:50Z</time>
      </trkpt>
      <trkpt lat="28.6116880" lon="-17.8174930">
        <ele>1249.0</ele>
        <time>2020-11-17T13:26:51Z</time>
      </trkpt>
      <trkpt lat="28.6117100" lon="-17.8175150">
        <ele>1248.5</ele>
        <time>2020-11-17T13:26:52Z</time>
      </trkpt>
      <trkpt lat="28.6117100" lon="-17.8175150">
        <ele>1248.5</ele>
        <time>2020-11-17T13:26:53Z</time>
      </trkpt>
      <trkpt lat="28.6117570" lon="-17.8175500">
        <ele>1247.6</ele>
        <time>2020-11-17T13:26:54Z</time>
      </trkpt>
      <trkpt lat="28.6117750" lon="-17.8175720">
        <ele>1247.2</ele>
        <time>2020-11-17T13:26:55Z</time>
      </trkpt>
      <trkpt lat="28.6117750" lon="-17.8175720">
        <ele>1247.2</ele>
        <time>2020-11-17T13:26:56Z</time>
      </trkpt>
      <trkpt lat="28.6117980" lon="-17.8176170">
        <ele>1246.6</ele>
        <time>2020-11-17T13:26:57Z</time>
      </trkpt>
      <trkpt lat="28.6117980" lon="-17.8176400">
        <ele>1246.4</ele>
        <time>2020-11-17T13:26:58Z</time>
      </trkpt>
      <trkpt lat="28.6117980" lon="-17.8176400">
        <ele>1246.4</ele>
        <time>2020-11-17T13:26:59Z</time>
      </trkpt>
      <trkpt lat="28.6117930" lon="-17.8176780">
        <ele>1246.0</ele>
        <time>2020-11-17T13:27:00Z</time>
      </trkpt>
      <trkpt lat="28.6117930" lon="-17.8176780">
        <ele>1246.0</ele>
        <time>2020-11-17T13:27:01Z</time>
      </trkpt>
      <trkpt lat="28.6117750" lon="-17.8177280">
        <ele>1245.6</ele>
        <time>2020-11-17T13:27:02Z</time>
      </trkpt>
      <trkpt lat="28.6117750" lon="-17.8177280">
        <ele>1245.6</ele>
        <time>2020-11-17T13:27:03Z</time>
      </trkpt>
      <trkpt lat="28.6117600" lon="-17.8178150">
        <ele>1245.0</ele>
        <time>2020-11-17T13:27:04Z</time>
      </trkpt>
      <trkpt lat="28.6117680" lon="-17.8178520">
        <ele>1244.8</ele>
        <time>2020-11-17T13:27:05Z</time>
      </trkpt>
      <trkpt lat="28.6117680" lon="-17.8178520">
        <ele>1244.8</ele>
        <time>2020-11-17T13:27:06Z</time>
      </trkpt>
      <trkpt lat="28.6118200" lon="-17.8178950">
        <ele>1244.4</ele>
        <time>2020-11-17T13:27:07Z</time>
      </trkpt>
      <trkpt lat="28.6118200" lon="-17.8178950">
        <ele>1244.4</ele>
        <time>2020-11-17T13:27:08Z</time>
      </trkpt>
      <trkpt lat="28.6118870" lon="-17.8178950">
        <ele>1244.1</ele>
        <time>2020-11-17T13:27:09Z</time>
      </trkpt>
      <trkpt lat="28.6118870" lon="-17.8178950">
        <ele>1244.1</ele>
        <time>2020-11-17T13:27:10Z</time>
      </trkpt>
      <trkpt lat="28.6119570" lon="-17.8178800">
        <ele>1243.9</ele>
        <time>2020-11-17T13:27:11Z</time>
      </trkpt>
      <trkpt lat="28.6119970" lon="-17.8178770">
        <ele>1243.8</ele>
        <time>2020-11-17T13:27:12Z</time>
      </trkpt>
      <trkpt lat="28.6120380" lon="-17.8178820">
        <ele>1243.7</ele>
        <time>2020-11-17T13:27:13Z</time>
      </trkpt>
      <trkpt lat="28.6120380" lon="-17.8178820">
        <ele>1243.7</ele>
        <time>2020-11-17T13:27:14Z</time>
      </trkpt>
      <trkpt lat="28.6121120" lon="-17.8179130">
        <ele>1243.6</ele>
        <time>2020-11-17T13:27:15Z</time>
      </trkpt>
      <trkpt lat="28.6121420" lon="-17.8179380">
        <ele>1243.6</ele>
        <time>2020-11-17T13:27:16Z</time>
      </trkpt>
      <trkpt lat="28.6121420" lon="-17.8179380">
        <ele>1243.6</ele>
        <time>2020-11-17T13:27:17Z</time>
      </trkpt>
      <trkpt lat="28.6121970" lon="-17.8179850">
        <ele>1243.6</ele>
        <time>2020-11-17T13:27:18Z</time>
      </trkpt>
      <trkpt lat="28.6122220" lon="-17.8180020">
        <ele>1243.6</ele>
        <time>2020-11-17T13:27:19Z</time>
      </trkpt>
      <trkpt lat="28.6122220" lon="-17.8180020">
        <ele>1243.6</ele>
        <time>2020-11-17T13:27:20Z</time>
      </trkpt>
      <trkpt lat="28.6122680" lon="-17.8180400">
        <ele>1243.6</ele>
        <time>2020-11-17T13:27:21Z</time>
      </trkpt>
      <trkpt lat="28.6122900" lon="-17.8180600">
        <ele>1243.7</ele>
        <time>2020-11-17T13:27:22Z</time>
      </trkpt>
      <trkpt lat="28.6122900" lon="-17.8180600">
        <ele>1243.7</ele>
        <time>2020-11-17T13:27:23Z</time>
      </trkpt>
      <trkpt lat="28.6123370" lon="-17.8180970">
        <ele>1243.7</ele>
        <time>2020-11-17T13:27:24Z</time>
      </trkpt>
      <trkpt lat="28.6123630" lon="-17.8181130">
        <ele>1243.7</ele>
        <time>2020-11-17T13:27:25Z</time>
      </trkpt>
      <trkpt lat="28.6123630" lon="-17.8181130">
        <ele>1243.7</ele>
        <time>2020-11-17T13:27:26Z</time>
      </trkpt>
      <trkpt lat="28.6124120" lon="-17.8181380">
        <ele>1243.8</ele>
        <time>2020-11-17T13:27:27Z</time>
      </trkpt>
      <trkpt lat="28.6124330" lon="-17.8181500">
        <ele>1243.8</ele>
        <time>2020-11-17T13:27:28Z</time>
      </trkpt>
      <trkpt lat="28.6124330" lon="-17.8181500">
        <ele>1243.8</ele>
        <time>2020-11-17T13:27:29Z</time>
      </trkpt>
      <trkpt lat="28.6124820" lon="-17.8181730">
        <ele>1243.6</ele>
        <time>2020-11-17T13:27:30Z</time>
      </trkpt>
      <trkpt lat="28.6124820" lon="-17.8181730">
        <ele>1243.6</ele>
        <time>2020-11-17T13:27:31Z</time>
      </trkpt>
      <trkpt lat="28.6125250" lon="-17.8182030">
        <ele>1243.5</ele>
        <time>2020-11-17T13:27:32Z</time>
      </trkpt>
      <trkpt lat="28.6125470" lon="-17.8182150">
        <ele>1243.4</ele>
        <time>2020-11-17T13:27:33Z</time>
      </trkpt>
      <trkpt lat="28.6125470" lon="-17.8182150">
        <ele>1243.4</ele>
        <time>2020-11-17T13:27:34Z</time>
      </trkpt>
      <trkpt lat="28.6125870" lon="-17.8182380">
        <ele>1243.2</ele>
        <time>2020-11-17T13:27:35Z</time>
      </trkpt>
      <trkpt lat="28.6125870" lon="-17.8182380">
        <ele>1243.2</ele>
        <time>2020-11-17T13:27:36Z</time>
      </trkpt>
      <trkpt lat="28.6126300" lon="-17.8182670">
        <ele>1243.0</ele>
        <time>2020-11-17T13:27:37Z</time>
      </trkpt>
      <trkpt lat="28.6126300" lon="-17.8182670">
        <ele>1243.0</ele>
        <time>2020-11-17T13:27:38Z</time>
      </trkpt>
      <trkpt lat="28.6126820" lon="-17.8183050">
        <ele>1242.6</ele>
        <time>2020-11-17T13:27:39Z</time>
      </trkpt>
      <trkpt lat="28.6126820" lon="-17.8183050">
        <ele>1242.6</ele>
        <time>2020-11-17T13:27:40Z</time>
      </trkpt>
      <trkpt lat="28.6127400" lon="-17.8183520">
        <ele>1242.2</ele>
        <time>2020-11-17T13:27:41Z</time>
      </trkpt>
      <trkpt lat="28.6127400" lon="-17.8183520">
        <ele>1242.2</ele>
        <time>2020-11-17T13:27:42Z</time>
      </trkpt>
      <trkpt lat="28.6128020" lon="-17.8184000">
        <ele>1241.8</ele>
        <time>2020-11-17T13:27:43Z</time>
      </trkpt>
      <trkpt lat="28.6128020" lon="-17.8184000">
        <ele>1241.8</ele>
        <time>2020-11-17T13:27:44Z</time>
      </trkpt>
      <trkpt lat="28.6128650" lon="-17.8184550">
        <ele>1241.4</ele>
        <time>2020-11-17T13:27:45Z</time>
      </trkpt>
      <trkpt lat="28.6128970" lon="-17.8184830">
        <ele>1241.2</ele>
        <time>2020-11-17T13:27:46Z</time>
      </trkpt>
      <trkpt lat="28.6128970" lon="-17.8184830">
        <ele>1241.2</ele>
        <time>2020-11-17T13:27:47Z</time>
      </trkpt>
      <trkpt lat="28.6129670" lon="-17.8185430">
        <ele>1240.6</ele>
        <time>2020-11-17T13:27:48Z</time>
      </trkpt>
      <trkpt lat="28.6130020" lon="-17.8185700">
        <ele>1240.3</ele>
        <time>2020-11-17T13:27:49Z</time>
      </trkpt>
      <trkpt lat="28.6130020" lon="-17.8185700">
        <ele>1240.3</ele>
        <time>2020-11-17T13:27:50Z</time>
      </trkpt>
      <trkpt lat="28.6130680" lon="-17.8186170">
        <ele>1239.6</ele>
        <time>2020-11-17T13:27:51Z</time>
      </trkpt>
      <trkpt lat="28.6130680" lon="-17.8186170">
        <ele>1239.6</ele>
        <time>2020-11-17T13:27:52Z</time>
      </trkpt>
      <trkpt lat="28.6131370" lon="-17.8186750">
        <ele>1238.6</ele>
        <time>2020-11-17T13:27:53Z</time>
      </trkpt>
      <trkpt lat="28.6131770" lon="-17.8187080">
        <ele>1238.0</ele>
        <time>2020-11-17T13:27:54Z</time>
      </trkpt>
      <trkpt lat="28.6131770" lon="-17.8187080">
        <ele>1238.0</ele>
        <time>2020-11-17T13:27:55Z</time>
      </trkpt>
      <trkpt lat="28.6132500" lon="-17.8187820">
        <ele>1236.8</ele>
        <time>2020-11-17T13:27:56Z</time>
      </trkpt>
      <trkpt lat="28.6132500" lon="-17.8187820">
        <ele>1236.8</ele>
        <time>2020-11-17T13:27:57Z</time>
      </trkpt>
      <trkpt lat="28.6133120" lon="-17.8188620">
        <ele>1235.8</ele>
        <time>2020-11-17T13:27:58Z</time>
      </trkpt>
      <trkpt lat="28.6133120" lon="-17.8188620">
        <ele>1235.8</ele>
        <time>2020-11-17T13:27:59Z</time>
      </trkpt>
      <trkpt lat="28.6133770" lon="-17.8189130">
        <ele>1235.1</ele>
        <time>2020-11-17T13:28:00Z</time>
      </trkpt>
      <trkpt lat="28.6134120" lon="-17.8189320">
        <ele>1234.8</ele>
        <time>2020-11-17T13:28:01Z</time>
      </trkpt>
      <trkpt lat="28.6134120" lon="-17.8189320">
        <ele>1234.8</ele>
        <time>2020-11-17T13:28:02Z</time>
      </trkpt>
      <trkpt lat="28.6134850" lon="-17.8189750">
        <ele>1234.2</ele>
        <time>2020-11-17T13:28:03Z</time>
      </trkpt>
      <trkpt lat="28.6135200" lon="-17.8189950">
        <ele>1233.9</ele>
        <time>2020-11-17T13:28:04Z</time>
      </trkpt>
      <trkpt lat="28.6135200" lon="-17.8189950">
        <ele>1233.9</ele>
        <time>2020-11-17T13:28:05Z</time>
      </trkpt>
      <trkpt lat="28.6135880" lon="-17.8190330">
        <ele>1233.2</ele>
        <time>2020-11-17T13:28:06Z</time>
      </trkpt>
      <trkpt lat="28.6136200" lon="-17.8190520">
        <ele>1232.9</ele>
        <time>2020-11-17T13:28:07Z</time>
      </trkpt>
      <trkpt lat="28.6136200" lon="-17.8190520">
        <ele>1232.9</ele>
        <time>2020-11-17T13:28:08Z</time>
      </trkpt>
      <trkpt lat="28.6136820" lon="-17.8190920">
        <ele>1232.2</ele>
        <time>2020-11-17T13:28:09Z</time>
      </trkpt>
      <trkpt lat="28.6136820" lon="-17.8190920">
        <ele>1232.2</ele>
        <time>2020-11-17T13:28:10Z</time>
      </trkpt>
      <trkpt lat="28.6137470" lon="-17.8191380">
        <ele>1231.6</ele>
        <time>2020-11-17T13:28:11Z</time>
      </trkpt>
      <trkpt lat="28.6137470" lon="-17.8191380">
        <ele>1231.6</ele>
        <time>2020-11-17T13:28:12Z</time>
      </trkpt>
      <trkpt lat="28.6138130" lon="-17.8191900">
        <ele>1231.1</ele>
        <time>2020-11-17T13:28:13Z</time>
      </trkpt>
      <trkpt lat="28.6138130" lon="-17.8191900">
        <ele>1231.1</ele>
        <time>2020-11-17T13:28:14Z</time>
      </trkpt>
      <trkpt lat="28.6138830" lon="-17.8192480">
        <ele>1230.7</ele>
        <time>2020-11-17T13:28:15Z</time>
      </trkpt>
      <trkpt lat="28.6138830" lon="-17.8192480">
        <ele>1230.7</ele>
        <time>2020-11-17T13:28:16Z</time>
      </trkpt>
      <trkpt lat="28.6139570" lon="-17.8193120">
        <ele>1230.3</ele>
        <time>2020-11-17T13:28:17Z</time>
      </trkpt>
      <trkpt lat="28.6139570" lon="-17.8193120">
        <ele>1230.3</ele>
        <time>2020-11-17T13:28:18Z</time>
      </trkpt>
      <trkpt lat="28.6140320" lon="-17.8193750">
        <ele>1230.0</ele>
        <time>2020-11-17T13:28:19Z</time>
      </trkpt>
      <trkpt lat="28.6140320" lon="-17.8193750">
        <ele>1230.0</ele>
        <time>2020-11-17T13:28:20Z</time>
      </trkpt>
      <trkpt lat="28.6140930" lon="-17.8194320">
        <ele>1229.9</ele>
        <time>2020-11-17T13:28:21Z</time>
      </trkpt>
      <trkpt lat="28.6140930" lon="-17.8194320">
        <ele>1229.9</ele>
        <time>2020-11-17T13:28:22Z</time>
      </trkpt>
      <trkpt lat="28.6141580" lon="-17.8194820">
        <ele>1229.8</ele>
        <time>2020-11-17T13:28:23Z</time>
      </trkpt>
      <trkpt lat="28.6141580" lon="-17.8194820">
        <ele>1229.8</ele>
        <time>2020-11-17T13:28:24Z</time>
      </trkpt>
      <trkpt lat="28.6142170" lon="-17.8195250">
        <ele>1229.7</ele>
        <time>2020-11-17T13:28:25Z</time>
      </trkpt>
      <trkpt lat="28.6142170" lon="-17.8195250">
        <ele>1229.7</ele>
        <time>2020-11-17T13:28:26Z</time>
      </trkpt>
      <trkpt lat="28.6142680" lon="-17.8195600">
        <ele>1229.6</ele>
        <time>2020-11-17T13:28:27Z</time>
      </trkpt>
      <trkpt lat="28.6142680" lon="-17.8195600">
        <ele>1229.6</ele>
        <time>2020-11-17T13:28:28Z</time>
      </trkpt>
      <trkpt lat="28.6143130" lon="-17.8195950">
        <ele>1229.6</ele>
        <time>2020-11-17T13:28:29Z</time>
      </trkpt>
      <trkpt lat="28.6143330" lon="-17.8196080">
        <ele>1229.7</ele>
        <time>2020-11-17T13:28:30Z</time>
      </trkpt>
      <trkpt lat="28.6143330" lon="-17.8196080">
        <ele>1229.7</ele>
        <time>2020-11-17T13:28:31Z</time>
      </trkpt>
      <trkpt lat="28.6143770" lon="-17.8196180">
        <ele>1229.7</ele>
        <time>2020-11-17T13:28:32Z</time>
      </trkpt>
      <trkpt lat="28.6143770" lon="-17.8196180">
        <ele>1229.7</ele>
        <time>2020-11-17T13:28:33Z</time>
      </trkpt>
      <trkpt lat="28.6144230" lon="-17.8196350">
        <ele>1229.8</ele>
        <time>2020-11-17T13:28:34Z</time>
      </trkpt>
      <trkpt lat="28.6144230" lon="-17.8196350">
        <ele>1229.8</ele>
        <time>2020-11-17T13:28:35Z</time>
      </trkpt>
      <trkpt lat="28.6144650" lon="-17.8196620">
        <ele>1229.9</ele>
        <time>2020-11-17T13:28:36Z</time>
      </trkpt>
      <trkpt lat="28.6144650" lon="-17.8196620">
        <ele>1229.9</ele>
        <time>2020-11-17T13:28:37Z</time>
      </trkpt>
      <trkpt lat="28.6145020" lon="-17.8196900">
        <ele>1230.0</ele>
        <time>2020-11-17T13:28:38Z</time>
      </trkpt>
      <trkpt lat="28.6145230" lon="-17.8197070">
        <ele>1230.1</ele>
        <time>2020-11-17T13:28:39Z</time>
      </trkpt>
      <trkpt lat="28.6145230" lon="-17.8197070">
        <ele>1230.1</ele>
        <time>2020-11-17T13:28:40Z</time>
      </trkpt>
      <trkpt lat="28.6145670" lon="-17.8197450">
        <ele>1230.2</ele>
        <time>2020-11-17T13:28:41Z</time>
      </trkpt>
      <trkpt lat="28.6145670" lon="-17.8197450">
        <ele>1230.2</ele>
        <time>2020-11-17T13:28:42Z</time>
      </trkpt>
      <trkpt lat="28.6146130" lon="-17.8197780">
        <ele>1230.3</ele>
        <time>2020-11-17T13:28:43Z</time>
      </trkpt>
      <trkpt lat="28.6146130" lon="-17.8197780">
        <ele>1230.3</ele>
        <time>2020-11-17T13:28:44Z</time>
      </trkpt>
      <trkpt lat="28.6146620" lon="-17.8198200">
        <ele>1230.5</ele>
        <time>2020-11-17T13:28:45Z</time>
      </trkpt>
      <trkpt lat="28.6146620" lon="-17.8198200">
        <ele>1230.5</ele>
        <time>2020-11-17T13:28:46Z</time>
      </trkpt>
      <trkpt lat="28.6147000" lon="-17.8198570">
        <ele>1230.5</ele>
        <time>2020-11-17T13:28:47Z</time>
      </trkpt>
      <trkpt lat="28.6147000" lon="-17.8198570">
        <ele>1230.5</ele>
        <time>2020-11-17T13:28:48Z</time>
      </trkpt>
      <trkpt lat="28.6147350" lon="-17.8198930">
        <ele>1230.6</ele>
        <time>2020-11-17T13:28:49Z</time>
      </trkpt>
      <trkpt lat="28.6147350" lon="-17.8198930">
        <ele>1230.6</ele>
        <time>2020-11-17T13:28:50Z</time>
      </trkpt>
      <trkpt lat="28.6147680" lon="-17.8199370">
        <ele>1230.7</ele>
        <time>2020-11-17T13:28:51Z</time>
      </trkpt>
      <trkpt lat="28.6147820" lon="-17.8199570">
        <ele>1230.7</ele>
        <time>2020-11-17T13:28:52Z</time>
      </trkpt>
      <trkpt lat="28.6147820" lon="-17.8199570">
        <ele>1230.7</ele>
        <time>2020-11-17T13:28:53Z</time>
      </trkpt>
      <trkpt lat="28.6148070" lon="-17.8199930">
        <ele>1230.7</ele>
        <time>2020-11-17T13:28:54Z</time>
      </trkpt>
      <trkpt lat="28.6148150" lon="-17.8200120">
        <ele>1230.7</ele>
        <time>2020-11-17T13:28:55Z</time>
      </trkpt>
      <trkpt lat="28.6148150" lon="-17.8200120">
        <ele>1230.7</ele>
        <time>2020-11-17T13:28:56Z</time>
      </trkpt>
      <trkpt lat="28.6148320" lon="-17.8200380">
        <ele>1230.8</ele>
        <time>2020-11-17T13:28:57Z</time>
      </trkpt>
      <trkpt lat="28.6148320" lon="-17.8200380">
        <ele>1230.8</ele>
        <time>2020-11-17T13:28:58Z</time>
      </trkpt>
      <trkpt lat="28.6148500" lon="-17.8200600">
        <ele>1230.8</ele>
        <time>2020-11-17T13:28:59Z</time>
      </trkpt>
      <trkpt lat="28.6148500" lon="-17.8200600">
        <ele>1230.8</ele>
        <time>2020-11-17T13:29:00Z</time>
      </trkpt>
      <trkpt lat="28.6148600" lon="-17.8200780">
        <ele>1230.9</ele>
        <time>2020-11-17T13:29:01Z</time>
      </trkpt>
      <trkpt lat="28.6148600" lon="-17.8200780">
        <ele>1230.9</ele>
        <time>2020-11-17T13:29:02Z</time>
      </trkpt>
      <trkpt lat="28.6148720" lon="-17.8201000">
        <ele>1231.0</ele>
        <time>2020-11-17T13:29:03Z</time>
      </trkpt>
      <trkpt lat="28.6148720" lon="-17.8201000">
        <ele>1231.0</ele>
        <time>2020-11-17T13:29:04Z</time>
      </trkpt>
      <trkpt lat="28.6148880" lon="-17.8201180">
        <ele>1231.1</ele>
        <time>2020-11-17T13:29:05Z</time>
      </trkpt>
      <trkpt lat="28.6148880" lon="-17.8201180">
        <ele>1231.1</ele>
        <time>2020-11-17T13:29:06Z</time>
      </trkpt>
      <trkpt lat="28.6149130" lon="-17.8201420">
        <ele>1231.3</ele>
        <time>2020-11-17T13:29:07Z</time>
      </trkpt>
      <trkpt lat="28.6149130" lon="-17.8201420">
        <ele>1231.3</ele>
        <time>2020-11-17T13:29:08Z</time>
      </trkpt>
      <trkpt lat="28.6149300" lon="-17.8201600">
        <ele>1231.5</ele>
        <time>2020-11-17T13:29:09Z</time>
      </trkpt>
      <trkpt lat="28.6149300" lon="-17.8201600">
        <ele>1231.5</ele>
        <time>2020-11-17T13:29:10Z</time>
      </trkpt>
      <trkpt lat="28.6149620" lon="-17.8201800">
        <ele>1231.9</ele>
        <time>2020-11-17T13:29:11Z</time>
      </trkpt>
      <trkpt lat="28.6149620" lon="-17.8201800">
        <ele>1231.9</ele>
        <time>2020-11-17T13:29:12Z</time>
      </trkpt>
      <trkpt lat="28.6149880" lon="-17.8201950">
        <ele>1232.3</ele>
        <time>2020-11-17T13:29:13Z</time>
      </trkpt>
      <trkpt lat="28.6149880" lon="-17.8201950">
        <ele>1232.3</ele>
        <time>2020-11-17T13:29:14Z</time>
      </trkpt>
      <trkpt lat="28.6150100" lon="-17.8202150">
        <ele>1232.7</ele>
        <time>2020-11-17T13:29:15Z</time>
      </trkpt>
      <trkpt lat="28.6150100" lon="-17.8202150">
        <ele>1232.7</ele>
        <time>2020-11-17T13:29:16Z</time>
      </trkpt>
      <trkpt lat="28.6150350" lon="-17.8202370">
        <ele>1233.2</ele>
        <time>2020-11-17T13:29:17Z</time>
      </trkpt>
      <trkpt lat="28.6150350" lon="-17.8202370">
        <ele>1233.2</ele>
        <time>2020-11-17T13:29:18Z</time>
      </trkpt>
      <trkpt lat="28.6150570" lon="-17.8202630">
        <ele>1233.8</ele>
        <time>2020-11-17T13:29:19Z</time>
      </trkpt>
      <trkpt lat="28.6150570" lon="-17.8202630">
        <ele>1233.8</ele>
        <time>2020-11-17T13:29:20Z</time>
      </trkpt>
      <trkpt lat="28.6150930" lon="-17.8202850">
        <ele>1233.5</ele>
        <time>2020-11-17T13:29:21Z</time>
      </trkpt>
      <trkpt lat="28.6150930" lon="-17.8202850">
        <ele>1233.5</ele>
        <time>2020-11-17T13:29:22Z</time>
      </trkpt>
      <trkpt lat="28.6151350" lon="-17.8203120">
        <ele>1233.0</ele>
        <time>2020-11-17T13:29:23Z</time>
      </trkpt>
      <trkpt lat="28.6151600" lon="-17.8203250">
        <ele>1232.8</ele>
        <time>2020-11-17T13:29:24Z</time>
      </trkpt>
      <trkpt lat="28.6151930" lon="-17.8203400">
        <ele>1232.5</ele>
        <time>2020-11-17T13:29:25Z</time>
      </trkpt>
      <trkpt lat="28.6151930" lon="-17.8203400">
        <ele>1232.5</ele>
        <time>2020-11-17T13:29:26Z</time>
      </trkpt>
      <trkpt lat="28.6152830" lon="-17.8203650">
        <ele>1231.5</ele>
        <time>2020-11-17T13:29:27Z</time>
      </trkpt>
      <trkpt lat="28.6152830" lon="-17.8203650">
        <ele>1231.5</ele>
        <time>2020-11-17T13:29:28Z</time>
      </trkpt>
      <trkpt lat="28.6153980" lon="-17.8204250">
        <ele>1230.0</ele>
        <time>2020-11-17T13:29:29Z</time>
      </trkpt>
      <trkpt lat="28.6153980" lon="-17.8204250">
        <ele>1230.0</ele>
        <time>2020-11-17T13:29:30Z</time>
      </trkpt>
      <trkpt lat="28.6155150" lon="-17.8205370">
        <ele>1228.1</ele>
        <time>2020-11-17T13:29:31Z</time>
      </trkpt>
      <trkpt lat="28.6155150" lon="-17.8205370">
        <ele>1228.1</ele>
        <time>2020-11-17T13:29:32Z</time>
      </trkpt>
      <trkpt lat="28.6156520" lon="-17.8206770">
        <ele>1225.6</ele>
        <time>2020-11-17T13:29:33Z</time>
      </trkpt>
      <trkpt lat="28.6156520" lon="-17.8206770">
        <ele>1225.6</ele>
        <time>2020-11-17T13:29:34Z</time>
      </trkpt>
      <trkpt lat="28.6158300" lon="-17.8208050">
        <ele>1223.0</ele>
        <time>2020-11-17T13:29:35Z</time>
      </trkpt>
      <trkpt lat="28.6158300" lon="-17.8208050">
        <ele>1223.0</ele>
        <time>2020-11-17T13:29:36Z</time>
      </trkpt>
      <trkpt lat="28.6160370" lon="-17.8209120">
        <ele>1220.2</ele>
        <time>2020-11-17T13:29:37Z</time>
      </trkpt>
      <trkpt lat="28.6160370" lon="-17.8209120">
        <ele>1220.2</ele>
        <time>2020-11-17T13:29:38Z</time>
      </trkpt>
      <trkpt lat="28.6162650" lon="-17.8210180">
        <ele>1217.4</ele>
        <time>2020-11-17T13:29:39Z</time>
      </trkpt>
      <trkpt lat="28.6162650" lon="-17.8210180">
        <ele>1217.4</ele>
        <time>2020-11-17T13:29:40Z</time>
      </trkpt>
      <trkpt lat="28.6165050" lon="-17.8211320">
        <ele>1214.4</ele>
        <time>2020-11-17T13:29:41Z</time>
      </trkpt>
      <trkpt lat="28.6166280" lon="-17.8211970">
        <ele>1212.9</ele>
        <time>2020-11-17T13:29:42Z</time>
      </trkpt>
      <trkpt lat="28.6167520" lon="-17.8212600">
        <ele>1211.4</ele>
        <time>2020-11-17T13:29:43Z</time>
      </trkpt>
      <trkpt lat="28.6167520" lon="-17.8212600">
        <ele>1211.4</ele>
        <time>2020-11-17T13:29:44Z</time>
      </trkpt>
      <trkpt lat="28.6169880" lon="-17.8213880">
        <ele>1208.8</ele>
        <time>2020-11-17T13:29:45Z</time>
      </trkpt>
      <trkpt lat="28.6169880" lon="-17.8213880">
        <ele>1208.8</ele>
        <time>2020-11-17T13:29:46Z</time>
      </trkpt>
      <trkpt lat="28.6172200" lon="-17.8215150">
        <ele>1206.8</ele>
        <time>2020-11-17T13:29:47Z</time>
      </trkpt>
      <trkpt lat="28.6173320" lon="-17.8215800">
        <ele>1206.0</ele>
        <time>2020-11-17T13:29:48Z</time>
      </trkpt>
      <trkpt lat="28.6173320" lon="-17.8215800">
        <ele>1206.0</ele>
        <time>2020-11-17T13:29:49Z</time>
      </trkpt>
      <trkpt lat="28.6175370" lon="-17.8217000">
        <ele>1204.8</ele>
        <time>2020-11-17T13:29:50Z</time>
      </trkpt>
      <trkpt lat="28.6175370" lon="-17.8217000">
        <ele>1204.8</ele>
        <time>2020-11-17T13:29:51Z</time>
      </trkpt>
      <trkpt lat="28.6176870" lon="-17.8218370">
        <ele>1203.5</ele>
        <time>2020-11-17T13:29:52Z</time>
      </trkpt>
      <trkpt lat="28.6177300" lon="-17.8219180">
        <ele>1202.7</ele>
        <time>2020-11-17T13:29:53Z</time>
      </trkpt>
      <trkpt lat="28.6177470" lon="-17.8220100">
        <ele>1201.7</ele>
        <time>2020-11-17T13:29:54Z</time>
      </trkpt>
      <trkpt lat="28.6177470" lon="-17.8220100">
        <ele>1201.7</ele>
        <time>2020-11-17T13:29:55Z</time>
      </trkpt>
      <trkpt lat="28.6177550" lon="-17.8222200">
        <ele>1199.6</ele>
        <time>2020-11-17T13:29:56Z</time>
      </trkpt>
      <trkpt lat="28.6177550" lon="-17.8222200">
        <ele>1199.6</ele>
        <time>2020-11-17T13:29:57Z</time>
      </trkpt>
      <trkpt lat="28.6177980" lon="-17.8224180">
        <ele>1197.7</ele>
        <time>2020-11-17T13:29:58Z</time>
      </trkpt>
      <trkpt lat="28.6177980" lon="-17.8224180">
        <ele>1197.7</ele>
        <time>2020-11-17T13:29:59Z</time>
      </trkpt>
      <trkpt lat="28.6178950" lon="-17.8225750">
        <ele>1195.8</ele>
        <time>2020-11-17T13:30:00Z</time>
      </trkpt>
      <trkpt lat="28.6178950" lon="-17.8225750">
        <ele>1195.8</ele>
        <time>2020-11-17T13:30:01Z</time>
      </trkpt>
      <trkpt lat="28.6180770" lon="-17.8226470">
        <ele>1193.4</ele>
        <time>2020-11-17T13:30:02Z</time>
      </trkpt>
      <trkpt lat="28.6180770" lon="-17.8226470">
        <ele>1193.4</ele>
        <time>2020-11-17T13:30:03Z</time>
      </trkpt>
      <trkpt lat="28.6182780" lon="-17.8226800">
        <ele>1190.8</ele>
        <time>2020-11-17T13:30:04Z</time>
      </trkpt>
      <trkpt lat="28.6182780" lon="-17.8226800">
        <ele>1190.8</ele>
        <time>2020-11-17T13:30:05Z</time>
      </trkpt>
      <trkpt lat="28.6184680" lon="-17.8226920">
        <ele>1188.6</ele>
        <time>2020-11-17T13:30:06Z</time>
      </trkpt>
      <trkpt lat="28.6184680" lon="-17.8226920">
        <ele>1188.6</ele>
        <time>2020-11-17T13:30:07Z</time>
      </trkpt>
      <trkpt lat="28.6186350" lon="-17.8226380">
        <ele>1188.1</ele>
        <time>2020-11-17T13:30:08Z</time>
      </trkpt>
      <trkpt lat="28.6186350" lon="-17.8226380">
        <ele>1188.1</ele>
        <time>2020-11-17T13:30:09Z</time>
      </trkpt>
      <trkpt lat="28.6187550" lon="-17.8225450">
        <ele>1187.8</ele>
        <time>2020-11-17T13:30:10Z</time>
      </trkpt>
      <trkpt lat="28.6187550" lon="-17.8225450">
        <ele>1187.8</ele>
        <time>2020-11-17T13:30:11Z</time>
      </trkpt>
      <trkpt lat="28.6188480" lon="-17.8224820">
        <ele>1187.8</ele>
        <time>2020-11-17T13:30:12Z</time>
      </trkpt>
      <trkpt lat="28.6188770" lon="-17.8224930">
        <ele>1202.3</ele>
        <time>2020-11-17T13:30:13Z</time>
      </trkpt>
      <trkpt lat="28.6188770" lon="-17.8224930">
        <ele>1202.3</ele>
        <time>2020-11-17T13:30:14Z</time>
      </trkpt>
      <trkpt lat="28.6189020" lon="-17.8225170">
        <ele>1202.5</ele>
        <time>2020-11-17T13:30:15Z</time>
      </trkpt>
      <trkpt lat="28.6189020" lon="-17.8225170">
        <ele>1202.5</ele>
        <time>2020-11-17T13:30:16Z</time>
      </trkpt>
      <trkpt lat="28.6189230" lon="-17.8225180">
        <ele>1202.7</ele>
        <time>2020-11-17T13:30:17Z</time>
      </trkpt>
      <trkpt lat="28.6189230" lon="-17.8225180">
        <ele>1202.7</ele>
        <time>2020-11-17T13:30:18Z</time>
      </trkpt>
      <trkpt lat="28.6189350" lon="-17.8225080">
        <ele>1202.8</ele>
        <time>2020-11-17T13:30:19Z</time>
      </trkpt>
      <trkpt lat="28.6189350" lon="-17.8225080">
        <ele>1202.8</ele>
        <time>2020-11-17T13:30:20Z</time>
      </trkpt>
      <trkpt lat="28.6189450" lon="-17.8225120">
        <ele>1202.9</ele>
        <time>2020-11-17T13:30:21Z</time>
      </trkpt>
      <trkpt lat="28.6189450" lon="-17.8225120">
        <ele>1202.9</ele>
        <time>2020-11-17T13:30:31Z</time>
      </trkpt>
      <trkpt lat="28.6189450" lon="-17.8225120">
        <ele>1202.9</ele>
        <time>2020-11-17T13:30:32Z</time>
      </trkpt>
      <trkpt lat="28.6189820" lon="-17.8225550">
        <ele>1203.4</ele>
        <time>2020-11-17T13:30:33Z</time>
      </trkpt>
      <trkpt lat="28.6189880" lon="-17.8225620">
        <ele>1203.4</ele>
        <time>2020-11-17T13:30:34Z</time>
      </trkpt>
      <trkpt lat="28.6189880" lon="-17.8225620">
        <ele>1203.4</ele>
        <time>2020-11-17T13:30:35Z</time>
      </trkpt>
      <trkpt lat="28.6190050" lon="-17.8225700">
        <ele>1203.6</ele>
        <time>2020-11-17T13:30:36Z</time>
      </trkpt>
      <trkpt lat="28.6190050" lon="-17.8225700">
        <ele>1203.6</ele>
        <time>2020-11-17T13:30:37Z</time>
      </trkpt>
      <trkpt lat="28.6190250" lon="-17.8225750">
        <ele>1203.8</ele>
        <time>2020-11-17T13:30:38Z</time>
      </trkpt>
      <trkpt lat="28.6190250" lon="-17.8225750">
        <ele>1203.8</ele>
        <time>2020-11-17T13:30:39Z</time>
      </trkpt>
      <trkpt lat="28.6190470" lon="-17.8225800">
        <ele>1204.0</ele>
        <time>2020-11-17T13:30:40Z</time>
      </trkpt>
      <trkpt lat="28.6190470" lon="-17.8225800">
        <ele>1204.0</ele>
        <time>2020-11-17T13:30:41Z</time>
      </trkpt>
      <trkpt lat="28.6190720" lon="-17.8225820">
        <ele>1204.2</ele>
        <time>2020-11-17T13:30:42Z</time>
      </trkpt>
      <trkpt lat="28.6190720" lon="-17.8225820">
        <ele>1204.2</ele>
        <time>2020-11-17T13:30:43Z</time>
      </trkpt>
      <trkpt lat="28.6190900" lon="-17.8225750">
        <ele>1204.4</ele>
        <time>2020-11-17T13:30:44Z</time>
      </trkpt>
      <trkpt lat="28.6190900" lon="-17.8225750">
        <ele>1204.4</ele>
        <time>2020-11-17T13:30:45Z</time>
      </trkpt>
      <trkpt lat="28.6191070" lon="-17.8225800">
        <ele>1204.5</ele>
        <time>2020-11-17T13:30:46Z</time>
      </trkpt>
      <trkpt lat="28.6191150" lon="-17.8225800">
        <ele>1204.6</ele>
        <time>2020-11-17T13:31:05Z</time>
      </trkpt>
      <trkpt lat="28.6192430" lon="-17.8226980">
        <ele>1205.9</ele>
        <time>2020-11-17T13:31:06Z</time>
      </trkpt>
      <trkpt lat="28.6192500" lon="-17.8227120">
        <ele>1206.0</ele>
        <time>2020-11-17T13:31:07Z</time>
      </trkpt>
      <trkpt lat="28.6192500" lon="-17.8227120">
        <ele>1206.0</ele>
        <time>2020-11-17T13:31:08Z</time>
      </trkpt>
      <trkpt lat="28.6192620" lon="-17.8227250">
        <ele>1206.1</ele>
        <time>2020-11-17T13:31:09Z</time>
      </trkpt>
      <trkpt lat="28.6192620" lon="-17.8227250">
        <ele>1206.1</ele>
        <time>2020-11-17T13:31:10Z</time>
      </trkpt>
      <trkpt lat="28.6192800" lon="-17.8227380">
        <ele>1206.3</ele>
        <time>2020-11-17T13:31:11Z</time>
      </trkpt>
      <trkpt lat="28.6192850" lon="-17.8227430">
        <ele>1206.4</ele>
        <time>2020-11-17T13:31:12Z</time>
      </trkpt>
      <trkpt lat="28.6192920" lon="-17.8227480">
        <ele>1206.4</ele>
        <time>2020-11-17T13:31:13Z</time>
      </trkpt>
      <trkpt lat="28.6192920" lon="-17.8227480">
        <ele>1206.4</ele>
        <time>2020-11-17T13:31:14Z</time>
      </trkpt>
      <trkpt lat="28.6193000" lon="-17.8227720">
        <ele>1206.6</ele>
        <time>2020-11-17T13:31:15Z</time>
      </trkpt>
      <trkpt lat="28.6193000" lon="-17.8227720">
        <ele>1206.6</ele>
        <time>2020-11-17T13:31:16Z</time>
      </trkpt>
      <trkpt lat="28.6193100" lon="-17.8227900">
        <ele>1206.8</ele>
        <time>2020-11-17T13:31:17Z</time>
      </trkpt>
      <trkpt lat="28.6193100" lon="-17.8227900">
        <ele>1206.8</ele>
        <time>2020-11-17T13:31:18Z</time>
      </trkpt>
      <trkpt lat="28.6193230" lon="-17.8228120">
        <ele>1207.0</ele>
        <time>2020-11-17T13:31:19Z</time>
      </trkpt>
      <trkpt lat="28.6193230" lon="-17.8228120">
        <ele>1207.0</ele>
        <time>2020-11-17T13:31:20Z</time>
      </trkpt>
      <trkpt lat="28.6193400" lon="-17.8228250">
        <ele>1207.2</ele>
        <time>2020-11-17T13:31:21Z</time>
      </trkpt>
      <trkpt lat="28.6193400" lon="-17.8228250">
        <ele>1207.2</ele>
        <time>2020-11-17T13:31:22Z</time>
      </trkpt>
      <trkpt lat="28.6193580" lon="-17.8228380">
        <ele>1207.4</ele>
        <time>2020-11-17T13:31:23Z</time>
      </trkpt>
      <trkpt lat="28.6193580" lon="-17.8228380">
        <ele>1207.4</ele>
        <time>2020-11-17T13:31:24Z</time>
      </trkpt>
      <trkpt lat="28.6193750" lon="-17.8228420">
        <ele>1207.5</ele>
        <time>2020-11-17T13:31:25Z</time>
      </trkpt>
      <trkpt lat="28.6193830" lon="-17.8228430">
        <ele>1207.6</ele>
        <time>2020-11-17T13:31:26Z</time>
      </trkpt>
      <trkpt lat="28.6193830" lon="-17.8228430">
        <ele>1207.6</ele>
        <time>2020-11-17T13:31:27Z</time>
      </trkpt>
      <trkpt lat="28.6193950" lon="-17.8228480">
        <ele>1207.7</ele>
        <time>2020-11-17T13:31:28Z</time>
      </trkpt>
      <trkpt lat="28.6193950" lon="-17.8228480">
        <ele>1207.7</ele>
        <time>2020-11-17T13:31:29Z</time>
      </trkpt>
      <trkpt lat="28.6194080" lon="-17.8228570">
        <ele>1207.9</ele>
        <time>2020-11-17T13:31:30Z</time>
      </trkpt>
      <trkpt lat="28.6194080" lon="-17.8228570">
        <ele>1207.9</ele>
        <time>2020-11-17T13:31:31Z</time>
      </trkpt>
      <trkpt lat="28.6194230" lon="-17.8228680">
        <ele>1208.0</ele>
        <time>2020-11-17T13:31:32Z</time>
      </trkpt>
      <trkpt lat="28.6194230" lon="-17.8228680">
        <ele>1208.0</ele>
        <time>2020-11-17T13:31:33Z</time>
      </trkpt>
      <trkpt lat="28.6194370" lon="-17.8228800">
        <ele>1208.2</ele>
        <time>2020-11-17T13:31:34Z</time>
      </trkpt>
      <trkpt lat="28.6194370" lon="-17.8228800">
        <ele>1208.2</ele>
        <time>2020-11-17T13:31:35Z</time>
      </trkpt>
      <trkpt lat="28.6194600" lon="-17.8228920">
        <ele>1208.5</ele>
        <time>2020-11-17T13:31:36Z</time>
      </trkpt>
      <trkpt lat="28.6194750" lon="-17.8229070">
        <ele>1208.7</ele>
        <time>2020-11-17T13:31:37Z</time>
      </trkpt>
      <trkpt lat="28.6194750" lon="-17.8229070">
        <ele>1208.7</ele>
        <time>2020-11-17T13:31:38Z</time>
      </trkpt>
      <trkpt lat="28.6194850" lon="-17.8229230">
        <ele>1208.9</ele>
        <time>2020-11-17T13:31:39Z</time>
      </trkpt>
      <trkpt lat="28.6194950" lon="-17.8229280">
        <ele>1209.0</ele>
        <time>2020-11-17T13:31:40Z</time>
      </trkpt>
      <trkpt lat="28.6195080" lon="-17.8229380">
        <ele>1209.1</ele>
        <time>2020-11-17T13:31:41Z</time>
      </trkpt>
      <trkpt lat="28.6195080" lon="-17.8229380">
        <ele>1209.1</ele>
        <time>2020-11-17T13:31:42Z</time>
      </trkpt>
      <trkpt lat="28.6195250" lon="-17.8229450">
        <ele>1209.3</ele>
        <time>2020-11-17T13:31:43Z</time>
      </trkpt>
      <trkpt lat="28.6195250" lon="-17.8229450">
        <ele>1209.3</ele>
        <time>2020-11-17T13:31:44Z</time>
      </trkpt>
      <trkpt lat="28.6195330" lon="-17.8229530">
        <ele>1209.5</ele>
        <time>2020-11-17T13:31:45Z</time>
      </trkpt>
      <trkpt lat="28.6195450" lon="-17.8229680">
        <ele>1209.7</ele>
        <time>2020-11-17T13:31:46Z</time>
      </trkpt>
      <trkpt lat="28.6195450" lon="-17.8229680">
        <ele>1209.7</ele>
        <time>2020-11-17T13:31:47Z</time>
      </trkpt>
      <trkpt lat="28.6195520" lon="-17.8229780">
        <ele>1209.8</ele>
        <time>2020-11-17T13:31:48Z</time>
      </trkpt>
      <trkpt lat="28.6195570" lon="-17.8229850">
        <ele>1209.9</ele>
        <time>2020-11-17T13:31:49Z</time>
      </trkpt>
      <trkpt lat="28.6195570" lon="-17.8229850">
        <ele>1209.9</ele>
        <time>2020-11-17T13:31:50Z</time>
      </trkpt>
      <trkpt lat="28.6195670" lon="-17.8230070">
        <ele>1210.1</ele>
        <time>2020-11-17T13:31:51Z</time>
      </trkpt>
      <trkpt lat="28.6195670" lon="-17.8230070">
        <ele>1210.1</ele>
        <time>2020-11-17T13:31:52Z</time>
      </trkpt>
      <trkpt lat="28.6195800" lon="-17.8230250">
        <ele>1210.4</ele>
        <time>2020-11-17T13:31:53Z</time>
      </trkpt>
      <trkpt lat="28.6195800" lon="-17.8230250">
        <ele>1210.4</ele>
        <time>2020-11-17T13:31:54Z</time>
      </trkpt>
      <trkpt lat="28.6195930" lon="-17.8230430">
        <ele>1210.6</ele>
        <time>2020-11-17T13:31:55Z</time>
      </trkpt>
      <trkpt lat="28.6195930" lon="-17.8230430">
        <ele>1210.6</ele>
        <time>2020-11-17T13:31:56Z</time>
      </trkpt>
      <trkpt lat="28.6196080" lon="-17.8230550">
        <ele>1210.8</ele>
        <time>2020-11-17T13:31:57Z</time>
      </trkpt>
      <trkpt lat="28.6196180" lon="-17.8230670">
        <ele>1211.0</ele>
        <time>2020-11-17T13:31:58Z</time>
      </trkpt>
      <trkpt lat="28.6196180" lon="-17.8230670">
        <ele>1211.0</ele>
        <time>2020-11-17T13:31:59Z</time>
      </trkpt>
      <trkpt lat="28.6196370" lon="-17.8230820">
        <ele>1211.3</ele>
        <time>2020-11-17T13:32:00Z</time>
      </trkpt>
      <trkpt lat="28.6196370" lon="-17.8230820">
        <ele>1211.3</ele>
        <time>2020-11-17T13:32:01Z</time>
      </trkpt>
      <trkpt lat="28.6196480" lon="-17.8230900">
        <ele>1211.4</ele>
        <time>2020-11-17T13:32:02Z</time>
      </trkpt>
      <trkpt lat="28.6196480" lon="-17.8230900">
        <ele>1211.4</ele>
        <time>2020-11-17T13:32:03Z</time>
      </trkpt>
      <trkpt lat="28.6196630" lon="-17.8231020">
        <ele>1211.7</ele>
        <time>2020-11-17T13:32:04Z</time>
      </trkpt>
      <trkpt lat="28.6196630" lon="-17.8231020">
        <ele>1211.7</ele>
        <time>2020-11-17T13:32:05Z</time>
      </trkpt>
      <trkpt lat="28.6196800" lon="-17.8231200">
        <ele>1211.7</ele>
        <time>2020-11-17T13:32:06Z</time>
      </trkpt>
      <trkpt lat="28.6196870" lon="-17.8231320">
        <ele>1211.7</ele>
        <time>2020-11-17T13:32:07Z</time>
      </trkpt>
      <trkpt lat="28.6196870" lon="-17.8231320">
        <ele>1211.7</ele>
        <time>2020-11-17T13:32:08Z</time>
      </trkpt>
      <trkpt lat="28.6197020" lon="-17.8231580">
        <ele>1211.6</ele>
        <time>2020-11-17T13:32:09Z</time>
      </trkpt>
      <trkpt lat="28.6197100" lon="-17.8231670">
        <ele>1211.6</ele>
        <time>2020-11-17T13:32:10Z</time>
      </trkpt>
      <trkpt lat="28.6197100" lon="-17.8231670">
        <ele>1211.6</ele>
        <time>2020-11-17T13:32:11Z</time>
      </trkpt>
      <trkpt lat="28.6197280" lon="-17.8231820">
        <ele>1211.6</ele>
        <time>2020-11-17T13:32:12Z</time>
      </trkpt>
      <trkpt lat="28.6197330" lon="-17.8231900">
        <ele>1211.6</ele>
        <time>2020-11-17T13:32:13Z</time>
      </trkpt>
      <trkpt lat="28.6197330" lon="-17.8231900">
        <ele>1211.6</ele>
        <time>2020-11-17T13:32:14Z</time>
      </trkpt>
      <trkpt lat="28.6197550" lon="-17.8232050">
        <ele>1211.6</ele>
        <time>2020-11-17T13:32:15Z</time>
      </trkpt>
      <trkpt lat="28.6197620" lon="-17.8232130">
        <ele>1211.6</ele>
        <time>2020-11-17T13:32:16Z</time>
      </trkpt>
      <trkpt lat="28.6197620" lon="-17.8232130">
        <ele>1211.6</ele>
        <time>2020-11-17T13:32:17Z</time>
      </trkpt>
      <trkpt lat="28.6197720" lon="-17.8232220">
        <ele>1211.6</ele>
        <time>2020-11-17T13:32:18Z</time>
      </trkpt>
      <trkpt lat="28.6197720" lon="-17.8232220">
        <ele>1211.6</ele>
        <time>2020-11-17T13:32:19Z</time>
      </trkpt>
      <trkpt lat="28.6197850" lon="-17.8232320">
        <ele>1211.6</ele>
        <time>2020-11-17T13:32:20Z</time>
      </trkpt>
      <trkpt lat="28.6197850" lon="-17.8232320">
        <ele>1211.6</ele>
        <time>2020-11-17T13:32:21Z</time>
      </trkpt>
      <trkpt lat="28.6197930" lon="-17.8232350">
        <ele>1211.6</ele>
        <time>2020-11-17T13:32:22Z</time>
      </trkpt>
      <trkpt lat="28.6197920" lon="-17.8232320">
        <ele>1211.6</ele>
        <time>2020-11-17T13:32:23Z</time>
      </trkpt>
      <trkpt lat="28.6197930" lon="-17.8232350">
        <ele>1211.6</ele>
        <time>2020-11-17T13:32:24Z</time>
      </trkpt>
      <trkpt lat="28.6197970" lon="-17.8232380">
        <ele>1211.6</ele>
        <time>2020-11-17T13:32:34Z</time>
      </trkpt>
      <trkpt lat="28.6198000" lon="-17.8232120">
        <ele>1211.6</ele>
        <time>2020-11-17T13:32:35Z</time>
      </trkpt>
      <trkpt lat="28.6197930" lon="-17.8232080">
        <ele>1211.6</ele>
        <time>2020-11-17T13:32:36Z</time>
      </trkpt>
      <trkpt lat="28.6197930" lon="-17.8232080">
        <ele>1211.6</ele>
        <time>2020-11-17T13:32:37Z</time>
      </trkpt>
      <trkpt lat="28.6197830" lon="-17.8231980">
        <ele>1211.6</ele>
        <time>2020-11-17T13:32:38Z</time>
      </trkpt>
      <trkpt lat="28.6197830" lon="-17.8231980">
        <ele>1211.6</ele>
        <time>2020-11-17T13:32:39Z</time>
      </trkpt>
      <trkpt lat="28.6197620" lon="-17.8231920">
        <ele>1211.6</ele>
        <time>2020-11-17T13:32:40Z</time>
      </trkpt>
      <trkpt lat="28.6197620" lon="-17.8231920">
        <ele>1211.6</ele>
        <time>2020-11-17T13:32:41Z</time>
      </trkpt>
      <trkpt lat="28.6197480" lon="-17.8231780">
        <ele>1211.6</ele>
        <time>2020-11-17T13:32:42Z</time>
      </trkpt>
      <trkpt lat="28.6197450" lon="-17.8231680">
        <ele>1211.6</ele>
        <time>2020-11-17T13:32:43Z</time>
      </trkpt>
      <trkpt lat="28.6197450" lon="-17.8231680">
        <ele>1211.6</ele>
        <time>2020-11-17T13:32:44Z</time>
      </trkpt>
      <trkpt lat="28.6197320" lon="-17.8231450">
        <ele>1211.6</ele>
        <time>2020-11-17T13:32:45Z</time>
      </trkpt>
      <trkpt lat="28.6197280" lon="-17.8231400">
        <ele>1211.6</ele>
        <time>2020-11-17T13:32:46Z</time>
      </trkpt>
      <trkpt lat="28.6197280" lon="-17.8231400">
        <ele>1211.6</ele>
        <time>2020-11-17T13:32:47Z</time>
      </trkpt>
      <trkpt lat="28.6197220" lon="-17.8231380">
        <ele>1211.6</ele>
        <time>2020-11-17T13:32:48Z</time>
      </trkpt>
      <trkpt lat="28.6197220" lon="-17.8231380">
        <ele>1211.6</ele>
        <time>2020-11-17T13:33:02Z</time>
      </trkpt>
      <trkpt lat="28.6197220" lon="-17.8231380">
        <ele>1211.6</ele>
        <time>2020-11-17T13:33:03Z</time>
      </trkpt>
      <trkpt lat="28.6196730" lon="-17.8231330">
        <ele>1211.7</ele>
        <time>2020-11-17T13:33:04Z</time>
      </trkpt>
      <trkpt lat="28.6196730" lon="-17.8231330">
        <ele>1211.7</ele>
        <time>2020-11-17T13:33:05Z</time>
      </trkpt>
      <trkpt lat="28.6196620" lon="-17.8231420">
        <ele>1211.7</ele>
        <time>2020-11-17T13:33:06Z</time>
      </trkpt>
      <trkpt lat="28.6196550" lon="-17.8231420">
        <ele>1211.7</ele>
        <time>2020-11-17T13:33:07Z</time>
      </trkpt>
      <trkpt lat="28.6196550" lon="-17.8231420">
        <ele>1211.7</ele>
        <time>2020-11-17T13:33:08Z</time>
      </trkpt>
      <trkpt lat="28.6196420" lon="-17.8231430">
        <ele>1211.7</ele>
        <time>2020-11-17T13:33:09Z</time>
      </trkpt>
      <trkpt lat="28.6196320" lon="-17.8231470">
        <ele>1211.6</ele>
        <time>2020-11-17T13:33:10Z</time>
      </trkpt>
      <trkpt lat="28.6196320" lon="-17.8231470">
        <ele>1211.6</ele>
        <time>2020-11-17T13:33:11Z</time>
      </trkpt>
      <trkpt lat="28.6196220" lon="-17.8231550">
        <ele>1211.5</ele>
        <time>2020-11-17T13:33:12Z</time>
      </trkpt>
      <trkpt lat="28.6196220" lon="-17.8231550">
        <ele>1211.5</ele>
        <time>2020-11-17T13:33:13Z</time>
      </trkpt>
      <trkpt lat="28.6196120" lon="-17.8231600">
        <ele>1211.4</ele>
        <time>2020-11-17T13:33:14Z</time>
      </trkpt>
      <trkpt lat="28.6196120" lon="-17.8231600">
        <ele>1211.4</ele>
        <time>2020-11-17T13:33:15Z</time>
      </trkpt>
      <trkpt lat="28.6196000" lon="-17.8231670">
        <ele>1211.4</ele>
        <time>2020-11-17T13:33:16Z</time>
      </trkpt>
      <trkpt lat="28.6195930" lon="-17.8231700">
        <ele>1211.3</ele>
        <time>2020-11-17T13:33:17Z</time>
      </trkpt>
      <trkpt lat="28.6195900" lon="-17.8231750">
        <ele>1211.3</ele>
        <time>2020-11-17T13:33:18Z</time>
      </trkpt>
      <trkpt lat="28.6195900" lon="-17.8231750">
        <ele>1211.3</ele>
        <time>2020-11-17T13:33:19Z</time>
      </trkpt>
      <trkpt lat="28.6195770" lon="-17.8231930">
        <ele>1211.2</ele>
        <time>2020-11-17T13:33:20Z</time>
      </trkpt>
      <trkpt lat="28.6195700" lon="-17.8232030">
        <ele>1211.1</ele>
        <time>2020-11-17T13:33:21Z</time>
      </trkpt>
      <trkpt lat="28.6195700" lon="-17.8232030">
        <ele>1211.1</ele>
        <time>2020-11-17T13:33:22Z</time>
      </trkpt>
      <trkpt lat="28.6195570" lon="-17.8232200">
        <ele>1211.0</ele>
        <time>2020-11-17T13:33:23Z</time>
      </trkpt>
      <trkpt lat="28.6195430" lon="-17.8232250">
        <ele>1210.9</ele>
        <time>2020-11-17T13:33:24Z</time>
      </trkpt>
      <trkpt lat="28.6195430" lon="-17.8232250">
        <ele>1210.9</ele>
        <time>2020-11-17T13:33:25Z</time>
      </trkpt>
      <trkpt lat="28.6195270" lon="-17.8232220">
        <ele>1210.8</ele>
        <time>2020-11-17T13:33:26Z</time>
      </trkpt>
      <trkpt lat="28.6195270" lon="-17.8232220">
        <ele>1210.8</ele>
        <time>2020-11-17T13:33:27Z</time>
      </trkpt>
      <trkpt lat="28.6195100" lon="-17.8232170">
        <ele>1210.7</ele>
        <time>2020-11-17T13:33:28Z</time>
      </trkpt>
      <trkpt lat="28.6195100" lon="-17.8232170">
        <ele>1210.7</ele>
        <time>2020-11-17T13:33:29Z</time>
      </trkpt>
      <trkpt lat="28.6194920" lon="-17.8232250">
        <ele>1210.6</ele>
        <time>2020-11-17T13:33:30Z</time>
      </trkpt>
      <trkpt lat="28.6194920" lon="-17.8232250">
        <ele>1210.6</ele>
        <time>2020-11-17T13:33:31Z</time>
      </trkpt>
      <trkpt lat="28.6194830" lon="-17.8232400">
        <ele>1210.5</ele>
        <time>2020-11-17T13:33:32Z</time>
      </trkpt>
      <trkpt lat="28.6194830" lon="-17.8232500">
        <ele>1210.4</ele>
        <time>2020-11-17T13:33:33Z</time>
      </trkpt>
      <trkpt lat="28.6194830" lon="-17.8232500">
        <ele>1210.4</ele>
        <time>2020-11-17T13:33:34Z</time>
      </trkpt>
      <trkpt lat="28.6194720" lon="-17.8232700">
        <ele>1210.3</ele>
        <time>2020-11-17T13:33:35Z</time>
      </trkpt>
      <trkpt lat="28.6194620" lon="-17.8232800">
        <ele>1210.2</ele>
        <time>2020-11-17T13:33:36Z</time>
      </trkpt>
      <trkpt lat="28.6194520" lon="-17.8232920">
        <ele>1210.2</ele>
        <time>2020-11-17T13:33:37Z</time>
      </trkpt>
      <trkpt lat="28.6194520" lon="-17.8232920">
        <ele>1210.2</ele>
        <time>2020-11-17T13:33:38Z</time>
      </trkpt>
      <trkpt lat="28.6194330" lon="-17.8233150">
        <ele>1210.0</ele>
        <time>2020-11-17T13:33:39Z</time>
      </trkpt>
      <trkpt lat="28.6194130" lon="-17.8233080">
        <ele>1209.9</ele>
        <time>2020-11-17T13:33:40Z</time>
      </trkpt>
      <trkpt lat="28.6194130" lon="-17.8233080">
        <ele>1209.9</ele>
        <time>2020-11-17T13:33:41Z</time>
      </trkpt>
      <trkpt lat="28.6193900" lon="-17.8233120">
        <ele>1209.8</ele>
        <time>2020-11-17T13:33:42Z</time>
      </trkpt>
      <trkpt lat="28.6193900" lon="-17.8233120">
        <ele>1209.8</ele>
        <time>2020-11-17T13:33:43Z</time>
      </trkpt>
      <trkpt lat="28.6193670" lon="-17.8233150">
        <ele>1209.6</ele>
        <time>2020-11-17T13:33:44Z</time>
      </trkpt>
      <trkpt lat="28.6193550" lon="-17.8233150">
        <ele>1209.6</ele>
        <time>2020-11-17T13:33:45Z</time>
      </trkpt>
      <trkpt lat="28.6193470" lon="-17.8233150">
        <ele>1209.5</ele>
        <time>2020-11-17T13:33:46Z</time>
      </trkpt>
      <trkpt lat="28.6193470" lon="-17.8233150">
        <ele>1209.5</ele>
        <time>2020-11-17T13:33:47Z</time>
      </trkpt>
      <trkpt lat="28.6193300" lon="-17.8233120">
        <ele>1209.4</ele>
        <time>2020-11-17T13:33:48Z</time>
      </trkpt>
      <trkpt lat="28.6193300" lon="-17.8233120">
        <ele>1209.4</ele>
        <time>2020-11-17T13:33:49Z</time>
      </trkpt>
      <trkpt lat="28.6193150" lon="-17.8233130">
        <ele>1209.3</ele>
        <time>2020-11-17T13:33:50Z</time>
      </trkpt>
      <trkpt lat="28.6193080" lon="-17.8233120">
        <ele>1209.3</ele>
        <time>2020-11-17T13:33:51Z</time>
      </trkpt>
      <trkpt lat="28.6193080" lon="-17.8233120">
        <ele>1209.3</ele>
        <time>2020-11-17T13:33:52Z</time>
      </trkpt>
      <trkpt lat="28.6192950" lon="-17.8233130">
        <ele>1209.2</ele>
        <time>2020-11-17T13:33:53Z</time>
      </trkpt>
      <trkpt lat="28.6192950" lon="-17.8233130">
        <ele>1209.2</ele>
        <time>2020-11-17T13:33:54Z</time>
      </trkpt>
      <trkpt lat="28.6192870" lon="-17.8233220">
        <ele>1209.2</ele>
        <time>2020-11-17T13:33:55Z</time>
      </trkpt>
      <trkpt lat="28.6192870" lon="-17.8233220">
        <ele>1209.2</ele>
        <time>2020-11-17T13:33:56Z</time>
      </trkpt>
      <trkpt lat="28.6192770" lon="-17.8233250">
        <ele>1209.1</ele>
        <time>2020-11-17T13:33:57Z</time>
      </trkpt>
      <trkpt lat="28.6192770" lon="-17.8233250">
        <ele>1209.1</ele>
        <time>2020-11-17T13:33:58Z</time>
      </trkpt>
      <trkpt lat="28.6192680" lon="-17.8233280">
        <ele>1209.0</ele>
        <time>2020-11-17T13:34:05Z</time>
      </trkpt>
      <trkpt lat="28.6192070" lon="-17.8233070">
        <ele>1208.7</ele>
        <time>2020-11-17T13:34:06Z</time>
      </trkpt>
      <trkpt lat="28.6192070" lon="-17.8233070">
        <ele>1208.7</ele>
        <time>2020-11-17T13:34:07Z</time>
      </trkpt>
      <trkpt lat="28.6191850" lon="-17.8233000">
        <ele>1208.6</ele>
        <time>2020-11-17T13:34:08Z</time>
      </trkpt>
      <trkpt lat="28.6191850" lon="-17.8233000">
        <ele>1208.6</ele>
        <time>2020-11-17T13:34:09Z</time>
      </trkpt>
      <trkpt lat="28.6191670" lon="-17.8232930">
        <ele>1208.5</ele>
        <time>2020-11-17T13:34:10Z</time>
      </trkpt>
      <trkpt lat="28.6191670" lon="-17.8232930">
        <ele>1208.5</ele>
        <time>2020-11-17T13:35:26Z</time>
      </trkpt>
      <trkpt lat="28.6193120" lon="-17.8232600">
        <ele>1207.8</ele>
        <time>2020-11-17T13:35:27Z</time>
      </trkpt>
      <trkpt lat="28.6193120" lon="-17.8232600">
        <ele>1207.8</ele>
        <time>2020-11-17T13:35:28Z</time>
      </trkpt>
      <trkpt lat="28.6193120" lon="-17.8232580">
        <ele>1207.8</ele>
        <time>2020-11-17T13:35:32Z</time>
      </trkpt>
      <trkpt lat="28.6193170" lon="-17.8232320">
        <ele>1207.7</ele>
        <time>2020-11-17T13:35:33Z</time>
      </trkpt>
      <trkpt lat="28.6193170" lon="-17.8232320">
        <ele>1207.7</ele>
        <time>2020-11-17T13:35:34Z</time>
      </trkpt>
      <trkpt lat="28.6193250" lon="-17.8232180">
        <ele>1207.6</ele>
        <time>2020-11-17T13:35:35Z</time>
      </trkpt>
      <trkpt lat="28.6193250" lon="-17.8232180">
        <ele>1207.6</ele>
        <time>2020-11-17T13:35:36Z</time>
      </trkpt>
      <trkpt lat="28.6193380" lon="-17.8232120">
        <ele>1207.5</ele>
        <time>2020-11-17T13:35:37Z</time>
      </trkpt>
      <trkpt lat="28.6193380" lon="-17.8232120">
        <ele>1207.5</ele>
        <time>2020-11-17T13:35:38Z</time>
      </trkpt>
      <trkpt lat="28.6193420" lon="-17.8232080">
        <ele>1207.5</ele>
        <time>2020-11-17T13:35:39Z</time>
      </trkpt>
      <trkpt lat="28.6193420" lon="-17.8232080">
        <ele>1207.5</ele>
        <time>2020-11-17T13:35:40Z</time>
      </trkpt>
      <trkpt lat="28.6193420" lon="-17.8232130">
        <ele>1207.5</ele>
        <time>2020-11-17T13:35:41Z</time>
      </trkpt>
      <trkpt lat="28.6193420" lon="-17.8232130">
        <ele>1207.5</ele>
        <time>2020-11-17T13:35:42Z</time>
      </trkpt>
      <trkpt lat="28.6193420" lon="-17.8232130">
        <ele>1207.5</ele>
        <time>2020-11-17T13:35:43Z</time>
      </trkpt>
      <trkpt lat="28.6193330" lon="-17.8232130">
        <ele>1207.4</ele>
        <time>2020-11-17T13:35:44Z</time>
      </trkpt>
      <trkpt lat="28.6193330" lon="-17.8232130">
        <ele>1207.4</ele>
        <time>2020-11-17T13:35:45Z</time>
      </trkpt>
      <trkpt lat="28.6193280" lon="-17.8232150">
        <ele>1207.4</ele>
        <time>2020-11-17T13:35:46Z</time>
      </trkpt>
      <trkpt lat="28.6193280" lon="-17.8232150">
        <ele>1207.4</ele>
        <time>2020-11-17T13:37:05Z</time>
      </trkpt>
      <trkpt lat="28.6193280" lon="-17.8232150">
        <ele>1207.4</ele>
        <time>2020-11-17T13:37:06Z</time>
      </trkpt>
      <trkpt lat="28.6193280" lon="-17.8232150">
        <ele>1207.4</ele>
        <time>2020-11-17T13:37:13Z</time>
      </trkpt>
      <trkpt lat="28.6192300" lon="-17.8231970">
        <ele>1207.0</ele>
        <time>2020-11-17T13:37:14Z</time>
      </trkpt>
      <trkpt lat="28.6192300" lon="-17.8231970">
        <ele>1207.0</ele>
        <time>2020-11-17T13:37:15Z</time>
      </trkpt>
      <trkpt lat="28.6192300" lon="-17.8231970">
        <ele>1207.0</ele>
        <time>2020-11-17T13:37:16Z</time>
      </trkpt>
      <trkpt lat="28.6192400" lon="-17.8231980">
        <ele>1206.9</ele>
        <time>2020-11-17T13:46:26Z</time>
      </trkpt>
      <trkpt lat="28.6192080" lon="-17.8232050">
        <ele>1206.8</ele>
        <time>2020-11-17T13:46:27Z</time>
      </trkpt>
      <trkpt lat="28.6192080" lon="-17.8232050">
        <ele>1206.8</ele>
        <time>2020-11-17T13:46:28Z</time>
      </trkpt>
      <trkpt lat="28.6191980" lon="-17.8232170">
        <ele>1206.7</ele>
        <time>2020-11-17T13:46:29Z</time>
      </trkpt>
      <trkpt lat="28.6191980" lon="-17.8232170">
        <ele>1206.7</ele>
        <time>2020-11-17T13:46:30Z</time>
      </trkpt>
      <trkpt lat="28.6191980" lon="-17.8232170">
        <ele>1206.7</ele>
        <time>2020-11-17T13:46:40Z</time>
      </trkpt>
      <trkpt lat="28.6192480" lon="-17.8231830">
        <ele>1206.5</ele>
        <time>2020-11-17T13:46:41Z</time>
      </trkpt>
      <trkpt lat="28.6192480" lon="-17.8231830">
        <ele>1206.5</ele>
        <time>2020-11-17T13:46:42Z</time>
      </trkpt>
      <trkpt lat="28.6192950" lon="-17.8231550">
        <ele>1206.3</ele>
        <time>2020-11-17T13:46:43Z</time>
      </trkpt>
      <trkpt lat="28.6192950" lon="-17.8231550">
        <ele>1206.3</ele>
        <time>2020-11-17T13:46:44Z</time>
      </trkpt>
      <trkpt lat="28.6193230" lon="-17.8231150">
        <ele>1206.1</ele>
        <time>2020-11-17T13:46:45Z</time>
      </trkpt>
      <trkpt lat="28.6193300" lon="-17.8230930">
        <ele>1206.0</ele>
        <time>2020-11-17T13:46:46Z</time>
      </trkpt>
      <trkpt lat="28.6193300" lon="-17.8230730">
        <ele>1205.9</ele>
        <time>2020-11-17T13:46:47Z</time>
      </trkpt>
      <trkpt lat="28.6193270" lon="-17.8230530">
        <ele>1205.9</ele>
        <time>2020-11-17T13:46:48Z</time>
      </trkpt>
      <trkpt lat="28.6193270" lon="-17.8230530">
        <ele>1205.9</ele>
        <time>2020-11-17T13:46:49Z</time>
      </trkpt>
      <trkpt lat="28.6193200" lon="-17.8230100">
        <ele>1205.7</ele>
        <time>2020-11-17T13:46:50Z</time>
      </trkpt>
      <trkpt lat="28.6193200" lon="-17.8230100">
        <ele>1205.7</ele>
        <time>2020-11-17T13:46:51Z</time>
      </trkpt>
      <trkpt lat="28.6193350" lon="-17.8229520">
        <ele>1205.5</ele>
        <time>2020-11-17T13:46:52Z</time>
      </trkpt>
      <trkpt lat="28.6193350" lon="-17.8229520">
        <ele>1205.5</ele>
        <time>2020-11-17T13:46:53Z</time>
      </trkpt>
      <trkpt lat="28.6193580" lon="-17.8228950">
        <ele>1205.3</ele>
        <time>2020-11-17T13:46:54Z</time>
      </trkpt>
      <trkpt lat="28.6193580" lon="-17.8228950">
        <ele>1205.3</ele>
        <time>2020-11-17T13:46:55Z</time>
      </trkpt>
      <trkpt lat="28.6193720" lon="-17.8228600">
        <ele>1205.2</ele>
        <time>2020-11-17T13:46:56Z</time>
      </trkpt>
      <trkpt lat="28.6193720" lon="-17.8228600">
        <ele>1205.2</ele>
        <time>2020-11-17T13:46:57Z</time>
      </trkpt>
      <trkpt lat="28.6193650" lon="-17.8228170">
        <ele>1205.0</ele>
        <time>2020-11-17T13:46:58Z</time>
      </trkpt>
      <trkpt lat="28.6193650" lon="-17.8228170">
        <ele>1205.0</ele>
        <time>2020-11-17T13:46:59Z</time>
      </trkpt>
      <trkpt lat="28.6193320" lon="-17.8227700">
        <ele>1204.8</ele>
        <time>2020-11-17T13:47:00Z</time>
      </trkpt>
      <trkpt lat="28.6193320" lon="-17.8227700">
        <ele>1204.8</ele>
        <time>2020-11-17T13:47:01Z</time>
      </trkpt>
      <trkpt lat="28.6192950" lon="-17.8227080">
        <ele>1204.5</ele>
        <time>2020-11-17T13:47:02Z</time>
      </trkpt>
      <trkpt lat="28.6192950" lon="-17.8227080">
        <ele>1204.5</ele>
        <time>2020-11-17T13:47:03Z</time>
      </trkpt>
      <trkpt lat="28.6192470" lon="-17.8226600">
        <ele>1204.2</ele>
        <time>2020-11-17T13:47:04Z</time>
      </trkpt>
      <trkpt lat="28.6192470" lon="-17.8226600">
        <ele>1204.2</ele>
        <time>2020-11-17T13:47:05Z</time>
      </trkpt>
      <trkpt lat="28.6192020" lon="-17.8226300">
        <ele>1204.0</ele>
        <time>2020-11-17T13:47:06Z</time>
      </trkpt>
      <trkpt lat="28.6192020" lon="-17.8226300">
        <ele>1204.0</ele>
        <time>2020-11-17T13:47:07Z</time>
      </trkpt>
      <trkpt lat="28.6191550" lon="-17.8226150">
        <ele>1203.8</ele>
        <time>2020-11-17T13:47:08Z</time>
      </trkpt>
      <trkpt lat="28.6191550" lon="-17.8226150">
        <ele>1203.8</ele>
        <time>2020-11-17T13:47:09Z</time>
      </trkpt>
      <trkpt lat="28.6191170" lon="-17.8226080">
        <ele>1203.6</ele>
        <time>2020-11-17T13:47:10Z</time>
      </trkpt>
      <trkpt lat="28.6190950" lon="-17.8226000">
        <ele>1203.5</ele>
        <time>2020-11-17T13:47:11Z</time>
      </trkpt>
      <trkpt lat="28.6190950" lon="-17.8226000">
        <ele>1203.5</ele>
        <time>2020-11-17T13:47:12Z</time>
      </trkpt>
      <trkpt lat="28.6190300" lon="-17.8225670">
        <ele>1203.2</ele>
        <time>2020-11-17T13:47:13Z</time>
      </trkpt>
      <trkpt lat="28.6190300" lon="-17.8225670">
        <ele>1203.2</ele>
        <time>2020-11-17T13:47:14Z</time>
      </trkpt>
      <trkpt lat="28.6189570" lon="-17.8225130">
        <ele>1202.9</ele>
        <time>2020-11-17T13:47:15Z</time>
      </trkpt>
      <trkpt lat="28.6189570" lon="-17.8225130">
        <ele>1202.9</ele>
        <time>2020-11-17T13:47:16Z</time>
      </trkpt>
      <trkpt lat="28.6189500" lon="-17.8224480">
        <ele>1202.3</ele>
        <time>2020-11-17T13:47:17Z</time>
      </trkpt>
      <trkpt lat="28.6189630" lon="-17.8224130">
        <ele>1186.6</ele>
        <time>2020-11-17T13:47:18Z</time>
      </trkpt>
      <trkpt lat="28.6189630" lon="-17.8224130">
        <ele>1186.6</ele>
        <time>2020-11-17T13:47:19Z</time>
      </trkpt>
      <trkpt lat="28.6190150" lon="-17.8223220">
        <ele>1186.1</ele>
        <time>2020-11-17T13:47:20Z</time>
      </trkpt>
      <trkpt lat="28.6190500" lon="-17.8222750">
        <ele>1182.5</ele>
        <time>2020-11-17T13:47:21Z</time>
      </trkpt>
      <trkpt lat="28.6190500" lon="-17.8222750">
        <ele>1182.5</ele>
        <time>2020-11-17T13:47:22Z</time>
      </trkpt>
      <trkpt lat="28.6191500" lon="-17.8221820">
        <ele>1181.9</ele>
        <time>2020-11-17T13:47:23Z</time>
      </trkpt>
      <trkpt lat="28.6191500" lon="-17.8221820">
        <ele>1181.9</ele>
        <time>2020-11-17T13:47:24Z</time>
      </trkpt>
      <trkpt lat="28.6192750" lon="-17.8221050">
        <ele>1180.8</ele>
        <time>2020-11-17T13:47:25Z</time>
      </trkpt>
      <trkpt lat="28.6192750" lon="-17.8221050">
        <ele>1180.8</ele>
        <time>2020-11-17T13:47:26Z</time>
      </trkpt>
      <trkpt lat="28.6194120" lon="-17.8220780">
        <ele>1179.7</ele>
        <time>2020-11-17T13:47:27Z</time>
      </trkpt>
      <trkpt lat="28.6194120" lon="-17.8220780">
        <ele>1179.7</ele>
        <time>2020-11-17T13:47:28Z</time>
      </trkpt>
      <trkpt lat="28.6195530" lon="-17.8220830">
        <ele>1178.6</ele>
        <time>2020-11-17T13:47:29Z</time>
      </trkpt>
      <trkpt lat="28.6196220" lon="-17.8220820">
        <ele>1178.0</ele>
        <time>2020-11-17T13:47:30Z</time>
      </trkpt>
      <trkpt lat="28.6196220" lon="-17.8220820">
        <ele>1178.0</ele>
        <time>2020-11-17T13:47:31Z</time>
      </trkpt>
      <trkpt lat="28.6197220" lon="-17.8220180">
        <ele>1176.9</ele>
        <time>2020-11-17T13:47:32Z</time>
      </trkpt>
      <trkpt lat="28.6197420" lon="-17.8219550">
        <ele>1176.2</ele>
        <time>2020-11-17T13:47:33Z</time>
      </trkpt>
      <trkpt lat="28.6197420" lon="-17.8219550">
        <ele>1176.2</ele>
        <time>2020-11-17T13:47:34Z</time>
      </trkpt>
      <trkpt lat="28.6197470" lon="-17.8218130">
        <ele>1174.6</ele>
        <time>2020-11-17T13:47:35Z</time>
      </trkpt>
      <trkpt lat="28.6197470" lon="-17.8218130">
        <ele>1174.6</ele>
        <time>2020-11-17T13:47:36Z</time>
      </trkpt>
      <trkpt lat="28.6196930" lon="-17.8216550">
        <ele>1172.6</ele>
        <time>2020-11-17T13:47:37Z</time>
      </trkpt>
      <trkpt lat="28.6196630" lon="-17.8215770">
        <ele>1171.7</ele>
        <time>2020-11-17T13:47:38Z</time>
      </trkpt>
      <trkpt lat="28.6195780" lon="-17.8214770">
        <ele>1170.4</ele>
        <time>2020-11-17T13:47:39Z</time>
      </trkpt>
      <trkpt lat="28.6195780" lon="-17.8214770">
        <ele>1170.4</ele>
        <time>2020-11-17T13:47:40Z</time>
      </trkpt>
      <trkpt lat="28.6193630" lon="-17.8212880">
        <ele>1167.6</ele>
        <time>2020-11-17T13:47:41Z</time>
      </trkpt>
      <trkpt lat="28.6192770" lon="-17.8212150">
        <ele>1166.6</ele>
        <time>2020-11-17T13:47:42Z</time>
      </trkpt>
      <trkpt lat="28.6192770" lon="-17.8212150">
        <ele>1166.6</ele>
        <time>2020-11-17T13:47:43Z</time>
      </trkpt>
      <trkpt lat="28.6190800" lon="-17.8211600">
        <ele>1164.6</ele>
        <time>2020-11-17T13:47:44Z</time>
      </trkpt>
      <trkpt lat="28.6189980" lon="-17.8211630">
        <ele>1163.5</ele>
        <time>2020-11-17T13:47:45Z</time>
      </trkpt>
      <trkpt lat="28.6189980" lon="-17.8211630">
        <ele>1163.5</ele>
        <time>2020-11-17T13:47:46Z</time>
      </trkpt>
      <trkpt lat="28.6188330" lon="-17.8212100">
        <ele>1161.8</ele>
        <time>2020-11-17T13:47:47Z</time>
      </trkpt>
      <trkpt lat="28.6187500" lon="-17.8212230">
        <ele>1160.9</ele>
        <time>2020-11-17T13:47:48Z</time>
      </trkpt>
      <trkpt lat="28.6187500" lon="-17.8212230">
        <ele>1160.9</ele>
        <time>2020-11-17T13:47:49Z</time>
      </trkpt>
      <trkpt lat="28.6186020" lon="-17.8211280">
        <ele>1158.9</ele>
        <time>2020-11-17T13:47:50Z</time>
      </trkpt>
      <trkpt lat="28.6186020" lon="-17.8211280">
        <ele>1158.9</ele>
        <time>2020-11-17T13:47:51Z</time>
      </trkpt>
      <trkpt lat="28.6185050" lon="-17.8209680">
        <ele>1156.7</ele>
        <time>2020-11-17T13:47:52Z</time>
      </trkpt>
      <trkpt lat="28.6185050" lon="-17.8209680">
        <ele>1156.7</ele>
        <time>2020-11-17T13:47:53Z</time>
      </trkpt>
      <trkpt lat="28.6184350" lon="-17.8207720">
        <ele>1154.4</ele>
        <time>2020-11-17T13:47:54Z</time>
      </trkpt>
      <trkpt lat="28.6184350" lon="-17.8207720">
        <ele>1154.4</ele>
        <time>2020-11-17T13:47:55Z</time>
      </trkpt>
      <trkpt lat="28.6183670" lon="-17.8205720">
        <ele>1152.4</ele>
        <time>2020-11-17T13:47:56Z</time>
      </trkpt>
      <trkpt lat="28.6183670" lon="-17.8205720">
        <ele>1152.4</ele>
        <time>2020-11-17T13:47:57Z</time>
      </trkpt>
      <trkpt lat="28.6183070" lon="-17.8203850">
        <ele>1150.6</ele>
        <time>2020-11-17T13:47:58Z</time>
      </trkpt>
      <trkpt lat="28.6183070" lon="-17.8203850">
        <ele>1150.6</ele>
        <time>2020-11-17T13:47:59Z</time>
      </trkpt>
      <trkpt lat="28.6182630" lon="-17.8201920">
        <ele>1149.0</ele>
        <time>2020-11-17T13:48:00Z</time>
      </trkpt>
      <trkpt lat="28.6182630" lon="-17.8201920">
        <ele>1149.0</ele>
        <time>2020-11-17T13:48:01Z</time>
      </trkpt>
      <trkpt lat="28.6182420" lon="-17.8199770">
        <ele>1147.3</ele>
        <time>2020-11-17T13:48:02Z</time>
      </trkpt>
      <trkpt lat="28.6182420" lon="-17.8199770">
        <ele>1147.3</ele>
        <time>2020-11-17T13:48:03Z</time>
      </trkpt>
      <trkpt lat="28.6181980" lon="-17.8197420">
        <ele>1145.4</ele>
        <time>2020-11-17T13:48:04Z</time>
      </trkpt>
      <trkpt lat="28.6181980" lon="-17.8197420">
        <ele>1145.4</ele>
        <time>2020-11-17T13:48:05Z</time>
      </trkpt>
      <trkpt lat="28.6181280" lon="-17.8194970">
        <ele>1143.3</ele>
        <time>2020-11-17T13:48:06Z</time>
      </trkpt>
      <trkpt lat="28.6181280" lon="-17.8194970">
        <ele>1143.3</ele>
        <time>2020-11-17T13:48:07Z</time>
      </trkpt>
      <trkpt lat="28.6180700" lon="-17.8192730">
        <ele>1141.5</ele>
        <time>2020-11-17T13:48:08Z</time>
      </trkpt>
      <trkpt lat="28.6180700" lon="-17.8192730">
        <ele>1141.5</ele>
        <time>2020-11-17T13:48:09Z</time>
      </trkpt>
      <trkpt lat="28.6180130" lon="-17.8190470">
        <ele>1139.8</ele>
        <time>2020-11-17T13:48:10Z</time>
      </trkpt>
      <trkpt lat="28.6180130" lon="-17.8190470">
        <ele>1139.8</ele>
        <time>2020-11-17T13:48:11Z</time>
      </trkpt>
      <trkpt lat="28.6179630" lon="-17.8188170">
        <ele>1138.0</ele>
        <time>2020-11-17T13:48:12Z</time>
      </trkpt>
      <trkpt lat="28.6179630" lon="-17.8188170">
        <ele>1138.0</ele>
        <time>2020-11-17T13:48:13Z</time>
      </trkpt>
      <trkpt lat="28.6179320" lon="-17.8185730">
        <ele>1136.0</ele>
        <time>2020-11-17T13:48:14Z</time>
      </trkpt>
      <trkpt lat="28.6179280" lon="-17.8184430">
        <ele>1134.8</ele>
        <time>2020-11-17T13:48:15Z</time>
      </trkpt>
      <trkpt lat="28.6179280" lon="-17.8184430">
        <ele>1134.8</ele>
        <time>2020-11-17T13:48:16Z</time>
      </trkpt>
      <trkpt lat="28.6179500" lon="-17.8181830">
        <ele>1132.6</ele>
        <time>2020-11-17T13:48:17Z</time>
      </trkpt>
      <trkpt lat="28.6179630" lon="-17.8180500">
        <ele>1131.4</ele>
        <time>2020-11-17T13:48:18Z</time>
      </trkpt>
      <trkpt lat="28.6179630" lon="-17.8180500">
        <ele>1131.4</ele>
        <time>2020-11-17T13:48:19Z</time>
      </trkpt>
      <trkpt lat="28.6179200" lon="-17.8177800">
        <ele>1129.1</ele>
        <time>2020-11-17T13:48:20Z</time>
      </trkpt>
      <trkpt lat="28.6179200" lon="-17.8177800">
        <ele>1129.1</ele>
        <time>2020-11-17T13:48:21Z</time>
      </trkpt>
      <trkpt lat="28.6176780" lon="-17.8175100">
        <ele>1125.9</ele>
        <time>2020-11-17T13:48:22Z</time>
      </trkpt>
      <trkpt lat="28.6176780" lon="-17.8175100">
        <ele>1125.9</ele>
        <time>2020-11-17T13:48:23Z</time>
      </trkpt>
      <trkpt lat="28.6175100" lon="-17.8173070">
        <ele>1123.3</ele>
        <time>2020-11-17T13:48:24Z</time>
      </trkpt>
      <trkpt lat="28.6175100" lon="-17.8173070">
        <ele>1123.3</ele>
        <time>2020-11-17T13:48:25Z</time>
      </trkpt>
      <trkpt lat="28.6173320" lon="-17.8171200">
        <ele>1121.0</ele>
        <time>2020-11-17T13:48:26Z</time>
      </trkpt>
      <trkpt lat="28.6173320" lon="-17.8171200">
        <ele>1121.0</ele>
        <time>2020-11-17T13:48:27Z</time>
      </trkpt>
      <trkpt lat="28.6172050" lon="-17.8169100">
        <ele>1118.6</ele>
        <time>2020-11-17T13:48:28Z</time>
      </trkpt>
      <trkpt lat="28.6172050" lon="-17.8169100">
        <ele>1118.6</ele>
        <time>2020-11-17T13:48:29Z</time>
      </trkpt>
      <trkpt lat="28.6171500" lon="-17.8166570">
        <ele>1115.8</ele>
        <time>2020-11-17T13:48:30Z</time>
      </trkpt>
      <trkpt lat="28.6171500" lon="-17.8166570">
        <ele>1115.8</ele>
        <time>2020-11-17T13:48:31Z</time>
      </trkpt>
      <trkpt lat="28.6171430" lon="-17.8163880">
        <ele>1113.1</ele>
        <time>2020-11-17T13:48:32Z</time>
      </trkpt>
      <trkpt lat="28.6171070" lon="-17.8162550">
        <ele>1112.0</ele>
        <time>2020-11-17T13:48:33Z</time>
      </trkpt>
      <trkpt lat="28.6171070" lon="-17.8162550">
        <ele>1112.0</ele>
        <time>2020-11-17T13:48:34Z</time>
      </trkpt>
      <trkpt lat="28.6169980" lon="-17.8160180">
        <ele>1110.0</ele>
        <time>2020-11-17T13:48:35Z</time>
      </trkpt>
      <trkpt lat="28.6169300" lon="-17.8159130">
        <ele>1109.1</ele>
        <time>2020-11-17T13:48:36Z</time>
      </trkpt>
      <trkpt lat="28.6169300" lon="-17.8159130">
        <ele>1109.1</ele>
        <time>2020-11-17T13:48:37Z</time>
      </trkpt>
      <trkpt lat="28.6168070" lon="-17.8157220">
        <ele>1107.4</ele>
        <time>2020-11-17T13:48:38Z</time>
      </trkpt>
      <trkpt lat="28.6168070" lon="-17.8157220">
        <ele>1107.4</ele>
        <time>2020-11-17T13:48:39Z</time>
      </trkpt>
      <trkpt lat="28.6167820" lon="-17.8155600">
        <ele>1106.0</ele>
        <time>2020-11-17T13:48:40Z</time>
      </trkpt>
      <trkpt lat="28.6168270" lon="-17.8155050">
        <ele>1105.3</ele>
        <time>2020-11-17T13:48:41Z</time>
      </trkpt>
      <trkpt lat="28.6168700" lon="-17.8154630">
        <ele>1104.6</ele>
        <time>2020-11-17T13:48:42Z</time>
      </trkpt>
      <trkpt lat="28.6168700" lon="-17.8154630">
        <ele>1104.6</ele>
        <time>2020-11-17T13:48:43Z</time>
      </trkpt>
      <trkpt lat="28.6170470" lon="-17.8155320">
        <ele>1101.8</ele>
        <time>2020-11-17T13:48:44Z</time>
      </trkpt>
      <trkpt lat="28.6170470" lon="-17.8155320">
        <ele>1101.8</ele>
        <time>2020-11-17T13:48:45Z</time>
      </trkpt>
      <trkpt lat="28.6171900" lon="-17.8156500">
        <ele>1099.6</ele>
        <time>2020-11-17T13:48:46Z</time>
      </trkpt>
      <trkpt lat="28.6171900" lon="-17.8156500">
        <ele>1099.6</ele>
        <time>2020-11-17T13:48:47Z</time>
      </trkpt>
      <trkpt lat="28.6173530" lon="-17.8157830">
        <ele>1097.4</ele>
        <time>2020-11-17T13:48:48Z</time>
      </trkpt>
      <trkpt lat="28.6173530" lon="-17.8157830">
        <ele>1097.4</ele>
        <time>2020-11-17T13:48:49Z</time>
      </trkpt>
      <trkpt lat="28.6175370" lon="-17.8159300">
        <ele>1095.2</ele>
        <time>2020-11-17T13:48:50Z</time>
      </trkpt>
      <trkpt lat="28.6175370" lon="-17.8159300">
        <ele>1095.2</ele>
        <time>2020-11-17T13:48:51Z</time>
      </trkpt>
      <trkpt lat="28.6177370" lon="-17.8160780">
        <ele>1093.2</ele>
        <time>2020-11-17T13:48:52Z</time>
      </trkpt>
      <trkpt lat="28.6178470" lon="-17.8161420">
        <ele>1092.2</ele>
        <time>2020-11-17T13:48:53Z</time>
      </trkpt>
      <trkpt lat="28.6179580" lon="-17.8162020">
        <ele>1091.1</ele>
        <time>2020-11-17T13:48:54Z</time>
      </trkpt>
      <trkpt lat="28.6179580" lon="-17.8162020">
        <ele>1091.1</ele>
        <time>2020-11-17T13:48:55Z</time>
      </trkpt>
      <trkpt lat="28.6181930" lon="-17.8163180">
        <ele>1089.0</ele>
        <time>2020-11-17T13:48:56Z</time>
      </trkpt>
      <trkpt lat="28.6183130" lon="-17.8163770">
        <ele>1087.9</ele>
        <time>2020-11-17T13:48:57Z</time>
      </trkpt>
      <trkpt lat="28.6183130" lon="-17.8163770">
        <ele>1087.9</ele>
        <time>2020-11-17T13:48:58Z</time>
      </trkpt>
      <trkpt lat="28.6185620" lon="-17.8164980">
        <ele>1085.4</ele>
        <time>2020-11-17T13:48:59Z</time>
      </trkpt>
      <trkpt lat="28.6186900" lon="-17.8165580">
        <ele>1084.0</ele>
        <time>2020-11-17T13:49:00Z</time>
      </trkpt>
      <trkpt lat="28.6186900" lon="-17.8165580">
        <ele>1084.0</ele>
        <time>2020-11-17T13:49:01Z</time>
      </trkpt>
      <trkpt lat="28.6189430" lon="-17.8166800">
        <ele>1081.3</ele>
        <time>2020-11-17T13:49:02Z</time>
      </trkpt>
      <trkpt lat="28.6190650" lon="-17.8167430">
        <ele>1080.0</ele>
        <time>2020-11-17T13:49:03Z</time>
      </trkpt>
      <trkpt lat="28.6190650" lon="-17.8167430">
        <ele>1080.0</ele>
        <time>2020-11-17T13:49:04Z</time>
      </trkpt>
      <trkpt lat="28.6193030" lon="-17.8168680">
        <ele>1077.2</ele>
        <time>2020-11-17T13:49:05Z</time>
      </trkpt>
      <trkpt lat="28.6193030" lon="-17.8168680">
        <ele>1077.2</ele>
        <time>2020-11-17T13:49:06Z</time>
      </trkpt>
      <trkpt lat="28.6195450" lon="-17.8169830">
        <ele>1074.5</ele>
        <time>2020-11-17T13:49:07Z</time>
      </trkpt>
      <trkpt lat="28.6196630" lon="-17.8170350">
        <ele>1073.2</ele>
        <time>2020-11-17T13:49:08Z</time>
      </trkpt>
      <trkpt lat="28.6196630" lon="-17.8170350">
        <ele>1073.2</ele>
        <time>2020-11-17T13:49:09Z</time>
      </trkpt>
      <trkpt lat="28.6198800" lon="-17.8171220">
        <ele>1070.9</ele>
        <time>2020-11-17T13:49:10Z</time>
      </trkpt>
      <trkpt lat="28.6198800" lon="-17.8171220">
        <ele>1070.9</ele>
        <time>2020-11-17T13:49:11Z</time>
      </trkpt>
      <trkpt lat="28.6200800" lon="-17.8171250">
        <ele>1068.8</ele>
        <time>2020-11-17T13:49:12Z</time>
      </trkpt>
      <trkpt lat="28.6200800" lon="-17.8171250">
        <ele>1068.8</ele>
        <time>2020-11-17T13:49:13Z</time>
      </trkpt>
      <trkpt lat="28.6202680" lon="-17.8171780">
        <ele>1068.5</ele>
        <time>2020-11-17T13:49:14Z</time>
      </trkpt>
      <trkpt lat="28.6202680" lon="-17.8171780">
        <ele>1068.5</ele>
        <time>2020-11-17T13:49:15Z</time>
      </trkpt>
      <trkpt lat="28.6204050" lon="-17.8173720">
        <ele>1065.7</ele>
        <time>2020-11-17T13:49:16Z</time>
      </trkpt>
      <trkpt lat="28.6204050" lon="-17.8173720">
        <ele>1065.7</ele>
        <time>2020-11-17T13:49:17Z</time>
      </trkpt>
      <trkpt lat="28.6204580" lon="-17.8175820">
        <ele>1063.8</ele>
        <time>2020-11-17T13:49:18Z</time>
      </trkpt>
      <trkpt lat="28.6204580" lon="-17.8175820">
        <ele>1063.8</ele>
        <time>2020-11-17T13:49:19Z</time>
      </trkpt>
      <trkpt lat="28.6205750" lon="-17.8177250">
        <ele>1062.1</ele>
        <time>2020-11-17T13:49:20Z</time>
      </trkpt>
      <trkpt lat="28.6206580" lon="-17.8177700">
        <ele>1061.1</ele>
        <time>2020-11-17T13:49:21Z</time>
      </trkpt>
      <trkpt lat="28.6206580" lon="-17.8177700">
        <ele>1061.1</ele>
        <time>2020-11-17T13:49:22Z</time>
      </trkpt>
      <trkpt lat="28.6208080" lon="-17.8177050">
        <ele>1059.0</ele>
        <time>2020-11-17T13:49:23Z</time>
      </trkpt>
      <trkpt lat="28.6208830" lon="-17.8176350">
        <ele>1057.8</ele>
        <time>2020-11-17T13:49:24Z</time>
      </trkpt>
      <trkpt lat="28.6208830" lon="-17.8176350">
        <ele>1057.8</ele>
        <time>2020-11-17T13:49:25Z</time>
      </trkpt>
      <trkpt lat="28.6210380" lon="-17.8175000">
        <ele>1055.3</ele>
        <time>2020-11-17T13:49:26Z</time>
      </trkpt>
      <trkpt lat="28.6210380" lon="-17.8175000">
        <ele>1055.3</ele>
        <time>2020-11-17T13:49:27Z</time>
      </trkpt>
      <trkpt lat="28.6212450" lon="-17.8174330">
        <ele>1052.8</ele>
        <time>2020-11-17T13:49:28Z</time>
      </trkpt>
      <trkpt lat="28.6212450" lon="-17.8174330">
        <ele>1052.8</ele>
        <time>2020-11-17T13:49:29Z</time>
      </trkpt>
      <trkpt lat="28.6214720" lon="-17.8174350">
        <ele>1050.2</ele>
        <time>2020-11-17T13:49:30Z</time>
      </trkpt>
      <trkpt lat="28.6214720" lon="-17.8174350">
        <ele>1050.2</ele>
        <time>2020-11-17T13:49:31Z</time>
      </trkpt>
      <trkpt lat="28.6217070" lon="-17.8174130">
        <ele>1048.0</ele>
        <time>2020-11-17T13:49:32Z</time>
      </trkpt>
      <trkpt lat="28.6217070" lon="-17.8174130">
        <ele>1048.0</ele>
        <time>2020-11-17T13:49:33Z</time>
      </trkpt>
      <trkpt lat="28.6219330" lon="-17.8173950">
        <ele>1046.0</ele>
        <time>2020-11-17T13:49:34Z</time>
      </trkpt>
      <trkpt lat="28.6220470" lon="-17.8174300">
        <ele>1045.0</ele>
        <time>2020-11-17T13:49:35Z</time>
      </trkpt>
      <trkpt lat="28.6220470" lon="-17.8174300">
        <ele>1045.0</ele>
        <time>2020-11-17T13:49:36Z</time>
      </trkpt>
      <trkpt lat="28.6222470" lon="-17.8175630">
        <ele>1043.3</ele>
        <time>2020-11-17T13:49:37Z</time>
      </trkpt>
      <trkpt lat="28.6222470" lon="-17.8175630">
        <ele>1043.3</ele>
        <time>2020-11-17T13:49:38Z</time>
      </trkpt>
      <trkpt lat="28.6224070" lon="-17.8176500">
        <ele>1042.2</ele>
        <time>2020-11-17T13:49:39Z</time>
      </trkpt>
      <trkpt lat="28.6224800" lon="-17.8176470">
        <ele>1041.5</ele>
        <time>2020-11-17T13:49:40Z</time>
      </trkpt>
      <trkpt lat="28.6224800" lon="-17.8176470">
        <ele>1041.5</ele>
        <time>2020-11-17T13:49:41Z</time>
      </trkpt>
      <trkpt lat="28.6225920" lon="-17.8175750">
        <ele>1040.0</ele>
        <time>2020-11-17T13:49:42Z</time>
      </trkpt>
      <trkpt lat="28.6225920" lon="-17.8175750">
        <ele>1040.0</ele>
        <time>2020-11-17T13:49:43Z</time>
      </trkpt>
      <trkpt lat="28.6225720" lon="-17.8174320">
        <ele>1038.2</ele>
        <time>2020-11-17T13:49:44Z</time>
      </trkpt>
      <trkpt lat="28.6225350" lon="-17.8173700">
        <ele>1037.3</ele>
        <time>2020-11-17T13:49:45Z</time>
      </trkpt>
      <trkpt lat="28.6225350" lon="-17.8173700">
        <ele>1037.3</ele>
        <time>2020-11-17T13:49:46Z</time>
      </trkpt>
      <trkpt lat="28.6223280" lon="-17.8171880">
        <ele>1035.2</ele>
        <time>2020-11-17T13:49:47Z</time>
      </trkpt>
      <trkpt lat="28.6222530" lon="-17.8171080">
        <ele>1034.4</ele>
        <time>2020-11-17T13:49:48Z</time>
      </trkpt>
      <trkpt lat="28.6222530" lon="-17.8171080">
        <ele>1034.4</ele>
        <time>2020-11-17T13:49:49Z</time>
      </trkpt>
      <trkpt lat="28.6221630" lon="-17.8169030">
        <ele>1032.4</ele>
        <time>2020-11-17T13:49:50Z</time>
      </trkpt>
      <trkpt lat="28.6221550" lon="-17.8167920">
        <ele>1031.4</ele>
        <time>2020-11-17T13:49:51Z</time>
      </trkpt>
      <trkpt lat="28.6221550" lon="-17.8167920">
        <ele>1031.4</ele>
        <time>2020-11-17T13:49:52Z</time>
      </trkpt>
      <trkpt lat="28.6221570" lon="-17.8165480">
        <ele>1029.1</ele>
        <time>2020-11-17T13:49:53Z</time>
      </trkpt>
      <trkpt lat="28.6221570" lon="-17.8165480">
        <ele>1029.1</ele>
        <time>2020-11-17T13:49:54Z</time>
      </trkpt>
      <trkpt lat="28.6221180" lon="-17.8163080">
        <ele>1026.8</ele>
        <time>2020-11-17T13:49:55Z</time>
      </trkpt>
      <trkpt lat="28.6220670" lon="-17.8161930">
        <ele>1025.6</ele>
        <time>2020-11-17T13:49:56Z</time>
      </trkpt>
      <trkpt lat="28.6220670" lon="-17.8161930">
        <ele>1025.6</ele>
        <time>2020-11-17T13:49:57Z</time>
      </trkpt>
      <trkpt lat="28.6219370" lon="-17.8159930">
        <ele>1023.3</ele>
        <time>2020-11-17T13:49:58Z</time>
      </trkpt>
      <trkpt lat="28.6219370" lon="-17.8159930">
        <ele>1023.3</ele>
        <time>2020-11-17T13:49:59Z</time>
      </trkpt>
      <trkpt lat="28.6218550" lon="-17.8158130">
        <ele>1021.3</ele>
        <time>2020-11-17T13:50:00Z</time>
      </trkpt>
      <trkpt lat="28.6218550" lon="-17.8158130">
        <ele>1021.3</ele>
        <time>2020-11-17T13:50:01Z</time>
      </trkpt>
      <trkpt lat="28.6219080" lon="-17.8156350">
        <ele>1019.0</ele>
        <time>2020-11-17T13:50:02Z</time>
      </trkpt>
      <trkpt lat="28.6219080" lon="-17.8156350">
        <ele>1019.0</ele>
        <time>2020-11-17T13:50:03Z</time>
      </trkpt>
      <trkpt lat="28.6220530" lon="-17.8155020">
        <ele>1016.4</ele>
        <time>2020-11-17T13:50:04Z</time>
      </trkpt>
      <trkpt lat="28.6221430" lon="-17.8154380">
        <ele>1015.1</ele>
        <time>2020-11-17T13:50:05Z</time>
      </trkpt>
      <trkpt lat="28.6221430" lon="-17.8154380">
        <ele>1015.1</ele>
        <time>2020-11-17T13:50:06Z</time>
      </trkpt>
      <trkpt lat="28.6223150" lon="-17.8152680">
        <ele>1012.5</ele>
        <time>2020-11-17T13:50:07Z</time>
      </trkpt>
      <trkpt lat="28.6223150" lon="-17.8152680">
        <ele>1012.5</ele>
        <time>2020-11-17T13:50:08Z</time>
      </trkpt>
      <trkpt lat="28.6224850" lon="-17.8150650">
        <ele>1007.7</ele>
        <time>2020-11-17T13:50:09Z</time>
      </trkpt>
      <trkpt lat="28.6224850" lon="-17.8150650">
        <ele>1007.7</ele>
        <time>2020-11-17T13:50:10Z</time>
      </trkpt>
      <trkpt lat="28.6226720" lon="-17.8148630">
        <ele>1007.0</ele>
        <time>2020-11-17T13:50:11Z</time>
      </trkpt>
      <trkpt lat="28.6227780" lon="-17.8147700">
        <ele>1005.5</ele>
        <time>2020-11-17T13:50:12Z</time>
      </trkpt>
      <trkpt lat="28.6227780" lon="-17.8147700">
        <ele>1005.5</ele>
        <time>2020-11-17T13:50:13Z</time>
      </trkpt>
      <trkpt lat="28.6230100" lon="-17.8146030">
        <ele>1003.0</ele>
        <time>2020-11-17T13:50:14Z</time>
      </trkpt>
      <trkpt lat="28.6230100" lon="-17.8146030">
        <ele>1003.0</ele>
        <time>2020-11-17T13:50:15Z</time>
      </trkpt>
      <trkpt lat="28.6232270" lon="-17.8144920">
        <ele>1000.9</ele>
        <time>2020-11-17T13:50:16Z</time>
      </trkpt>
      <trkpt lat="28.6232270" lon="-17.8144920">
        <ele>1000.9</ele>
        <time>2020-11-17T13:50:17Z</time>
      </trkpt>
      <trkpt lat="28.6234000" lon="-17.8143430">
        <ele>999.1</ele>
        <time>2020-11-17T13:50:18Z</time>
      </trkpt>
      <trkpt lat="28.6234000" lon="-17.8143430">
        <ele>999.1</ele>
        <time>2020-11-17T13:50:19Z</time>
      </trkpt>
      <trkpt lat="28.6235050" lon="-17.8141700">
        <ele>997.3</ele>
        <time>2020-11-17T13:50:20Z</time>
      </trkpt>
      <trkpt lat="28.6235050" lon="-17.8141700">
        <ele>997.3</ele>
        <time>2020-11-17T13:50:21Z</time>
      </trkpt>
      <trkpt lat="28.6236320" lon="-17.8141000">
        <ele>995.3</ele>
        <time>2020-11-17T13:50:22Z</time>
      </trkpt>
      <trkpt lat="28.6237000" lon="-17.8141230">
        <ele>994.1</ele>
        <time>2020-11-17T13:50:23Z</time>
      </trkpt>
      <trkpt lat="28.6237580" lon="-17.8141970">
        <ele>992.5</ele>
        <time>2020-11-17T13:50:24Z</time>
      </trkpt>
      <trkpt lat="28.6237580" lon="-17.8141970">
        <ele>992.5</ele>
        <time>2020-11-17T13:50:25Z</time>
      </trkpt>
      <trkpt lat="28.6238830" lon="-17.8142980">
        <ele>989.7</ele>
        <time>2020-11-17T13:50:26Z</time>
      </trkpt>
      <trkpt lat="28.6238830" lon="-17.8142980">
        <ele>989.7</ele>
        <time>2020-11-17T13:50:27Z</time>
      </trkpt>
      <trkpt lat="28.6240580" lon="-17.8142830">
        <ele>986.8</ele>
        <time>2020-11-17T13:50:28Z</time>
      </trkpt>
      <trkpt lat="28.6241500" lon="-17.8142530">
        <ele>985.2</ele>
        <time>2020-11-17T13:50:29Z</time>
      </trkpt>
      <trkpt lat="28.6242480" lon="-17.8142200">
        <ele>983.6</ele>
        <time>2020-11-17T13:50:30Z</time>
      </trkpt>
      <trkpt lat="28.6242480" lon="-17.8142200">
        <ele>983.6</ele>
        <time>2020-11-17T13:50:31Z</time>
      </trkpt>
      <trkpt lat="28.6244600" lon="-17.8141330">
        <ele>980.5</ele>
        <time>2020-11-17T13:50:32Z</time>
      </trkpt>
      <trkpt lat="28.6245670" lon="-17.8140830">
        <ele>978.9</ele>
        <time>2020-11-17T13:50:33Z</time>
      </trkpt>
      <trkpt lat="28.6245670" lon="-17.8140830">
        <ele>978.9</ele>
        <time>2020-11-17T13:50:34Z</time>
      </trkpt>
      <trkpt lat="28.6248050" lon="-17.8139500">
        <ele>975.6</ele>
        <time>2020-11-17T13:50:35Z</time>
      </trkpt>
      <trkpt lat="28.6248050" lon="-17.8139500">
        <ele>975.6</ele>
        <time>2020-11-17T13:50:36Z</time>
      </trkpt>
      <trkpt lat="28.6250680" lon="-17.8138370">
        <ele>972.7</ele>
        <time>2020-11-17T13:50:37Z</time>
      </trkpt>
      <trkpt lat="28.6250680" lon="-17.8138370">
        <ele>972.7</ele>
        <time>2020-11-17T13:50:38Z</time>
      </trkpt>
      <trkpt lat="28.6253280" lon="-17.8137530">
        <ele>970.1</ele>
        <time>2020-11-17T13:50:39Z</time>
      </trkpt>
      <trkpt lat="28.6254470" lon="-17.8137250">
        <ele>968.7</ele>
        <time>2020-11-17T13:50:40Z</time>
      </trkpt>
      <trkpt lat="28.6254470" lon="-17.8137250">
        <ele>968.7</ele>
        <time>2020-11-17T13:50:41Z</time>
      </trkpt>
      <trkpt lat="28.6256850" lon="-17.8137580">
        <ele>965.4</ele>
        <time>2020-11-17T13:50:42Z</time>
      </trkpt>
      <trkpt lat="28.6256850" lon="-17.8137580">
        <ele>965.4</ele>
        <time>2020-11-17T13:50:43Z</time>
      </trkpt>
      <trkpt lat="28.6259150" lon="-17.8138820">
        <ele>961.9</ele>
        <time>2020-11-17T13:50:44Z</time>
      </trkpt>
      <trkpt lat="28.6259150" lon="-17.8138820">
        <ele>961.9</ele>
        <time>2020-11-17T13:50:45Z</time>
      </trkpt>
      <trkpt lat="28.6261450" lon="-17.8140300">
        <ele>958.8</ele>
        <time>2020-11-17T13:50:46Z</time>
      </trkpt>
      <trkpt lat="28.6261450" lon="-17.8140300">
        <ele>958.8</ele>
        <time>2020-11-17T13:50:47Z</time>
      </trkpt>
      <trkpt lat="28.6263730" lon="-17.8141620">
        <ele>956.1</ele>
        <time>2020-11-17T13:50:48Z</time>
      </trkpt>
      <trkpt lat="28.6263730" lon="-17.8141620">
        <ele>956.1</ele>
        <time>2020-11-17T13:50:49Z</time>
      </trkpt>
      <trkpt lat="28.6265680" lon="-17.8142830">
        <ele>954.1</ele>
        <time>2020-11-17T13:50:50Z</time>
      </trkpt>
      <trkpt lat="28.6265680" lon="-17.8142830">
        <ele>954.1</ele>
        <time>2020-11-17T13:50:51Z</time>
      </trkpt>
      <trkpt lat="28.6267270" lon="-17.8144200">
        <ele>952.4</ele>
        <time>2020-11-17T13:50:52Z</time>
      </trkpt>
      <trkpt lat="28.6267270" lon="-17.8144200">
        <ele>952.4</ele>
        <time>2020-11-17T13:50:53Z</time>
      </trkpt>
      <trkpt lat="28.6268400" lon="-17.8145650">
        <ele>950.8</ele>
        <time>2020-11-17T13:50:54Z</time>
      </trkpt>
      <trkpt lat="28.6268400" lon="-17.8145650">
        <ele>950.8</ele>
        <time>2020-11-17T13:50:55Z</time>
      </trkpt>
      <trkpt lat="28.6269270" lon="-17.8146680">
        <ele>948.8</ele>
        <time>2020-11-17T13:50:56Z</time>
      </trkpt>
      <trkpt lat="28.6269630" lon="-17.8146720">
        <ele>948.0</ele>
        <time>2020-11-17T13:50:57Z</time>
      </trkpt>
      <trkpt lat="28.6269630" lon="-17.8146720">
        <ele>948.0</ele>
        <time>2020-11-17T13:50:58Z</time>
      </trkpt>
      <trkpt lat="28.6269930" lon="-17.8145600">
        <ele>945.4</ele>
        <time>2020-11-17T13:50:59Z</time>
      </trkpt>
      <trkpt lat="28.6269930" lon="-17.8145600">
        <ele>945.4</ele>
        <time>2020-11-17T13:51:00Z</time>
      </trkpt>
      <trkpt lat="28.6269480" lon="-17.8144120">
        <ele>942.1</ele>
        <time>2020-11-17T13:51:01Z</time>
      </trkpt>
      <trkpt lat="28.6269220" lon="-17.8143300">
        <ele>940.5</ele>
        <time>2020-11-17T13:51:02Z</time>
      </trkpt>
      <trkpt lat="28.6269220" lon="-17.8143300">
        <ele>940.5</ele>
        <time>2020-11-17T13:51:03Z</time>
      </trkpt>
      <trkpt lat="28.6268400" lon="-17.8141370">
        <ele>937.4</ele>
        <time>2020-11-17T13:51:04Z</time>
      </trkpt>
      <trkpt lat="28.6268400" lon="-17.8141370">
        <ele>937.4</ele>
        <time>2020-11-17T13:51:05Z</time>
      </trkpt>
      <trkpt lat="28.6267730" lon="-17.8139170">
        <ele>934.8</ele>
        <time>2020-11-17T13:51:06Z</time>
      </trkpt>
      <trkpt lat="28.6267730" lon="-17.8139170">
        <ele>934.8</ele>
        <time>2020-11-17T13:51:07Z</time>
      </trkpt>
      <trkpt lat="28.6266980" lon="-17.8136730">
        <ele>932.0</ele>
        <time>2020-11-17T13:51:08Z</time>
      </trkpt>
      <trkpt lat="28.6266570" lon="-17.8135400">
        <ele>930.5</ele>
        <time>2020-11-17T13:51:09Z</time>
      </trkpt>
      <trkpt lat="28.6266570" lon="-17.8135400">
        <ele>930.5</ele>
        <time>2020-11-17T13:51:10Z</time>
      </trkpt>
      <trkpt lat="28.6265900" lon="-17.8132620">
        <ele>927.7</ele>
        <time>2020-11-17T13:51:11Z</time>
      </trkpt>
      <trkpt lat="28.6265900" lon="-17.8132620">
        <ele>927.7</ele>
        <time>2020-11-17T13:51:12Z</time>
      </trkpt>
      <trkpt lat="28.6265350" lon="-17.8129680">
        <ele>925.3</ele>
        <time>2020-11-17T13:51:13Z</time>
      </trkpt>
      <trkpt lat="28.6265350" lon="-17.8129680">
        <ele>925.3</ele>
        <time>2020-11-17T13:51:14Z</time>
      </trkpt>
      <trkpt lat="28.6264820" lon="-17.8126930">
        <ele>923.2</ele>
        <time>2020-11-17T13:51:15Z</time>
      </trkpt>
      <trkpt lat="28.6264380" lon="-17.8125700">
        <ele>922.1</ele>
        <time>2020-11-17T13:51:16Z</time>
      </trkpt>
      <trkpt lat="28.6264380" lon="-17.8125700">
        <ele>922.1</ele>
        <time>2020-11-17T13:51:17Z</time>
      </trkpt>
      <trkpt lat="28.6262770" lon="-17.8123500">
        <ele>919.1</ele>
        <time>2020-11-17T13:51:18Z</time>
      </trkpt>
      <trkpt lat="28.6262770" lon="-17.8123500">
        <ele>919.1</ele>
        <time>2020-11-17T13:51:19Z</time>
      </trkpt>
      <trkpt lat="28.6261030" lon="-17.8121600">
        <ele>916.2</ele>
        <time>2020-11-17T13:51:20Z</time>
      </trkpt>
      <trkpt lat="28.6261030" lon="-17.8121600">
        <ele>916.2</ele>
        <time>2020-11-17T13:51:21Z</time>
      </trkpt>
      <trkpt lat="28.6260180" lon="-17.8119180">
        <ele>912.9</ele>
        <time>2020-11-17T13:51:22Z</time>
      </trkpt>
      <trkpt lat="28.6260180" lon="-17.8119180">
        <ele>912.9</ele>
        <time>2020-11-17T13:51:23Z</time>
      </trkpt>
      <trkpt lat="28.6259930" lon="-17.8116380">
        <ele>909.4</ele>
        <time>2020-11-17T13:51:24Z</time>
      </trkpt>
      <trkpt lat="28.6259930" lon="-17.8116380">
        <ele>909.4</ele>
        <time>2020-11-17T13:51:25Z</time>
      </trkpt>
      <trkpt lat="28.6259700" lon="-17.8113450">
        <ele>906.4</ele>
        <time>2020-11-17T13:51:26Z</time>
      </trkpt>
      <trkpt lat="28.6259700" lon="-17.8113450">
        <ele>906.4</ele>
        <time>2020-11-17T13:51:27Z</time>
      </trkpt>
      <trkpt lat="28.6259380" lon="-17.8110400">
        <ele>903.5</ele>
        <time>2020-11-17T13:51:28Z</time>
      </trkpt>
      <trkpt lat="28.6259380" lon="-17.8110400">
        <ele>903.5</ele>
        <time>2020-11-17T13:51:29Z</time>
      </trkpt>
      <trkpt lat="28.6258950" lon="-17.8107400">
        <ele>900.4</ele>
        <time>2020-11-17T13:51:30Z</time>
      </trkpt>
      <trkpt lat="28.6258950" lon="-17.8107400">
        <ele>900.4</ele>
        <time>2020-11-17T13:51:31Z</time>
      </trkpt>
      <trkpt lat="28.6258050" lon="-17.8104500">
        <ele>896.9</ele>
        <time>2020-11-17T13:51:32Z</time>
      </trkpt>
      <trkpt lat="28.6257380" lon="-17.8103080">
        <ele>895.2</ele>
        <time>2020-11-17T13:51:33Z</time>
      </trkpt>
      <trkpt lat="28.6257380" lon="-17.8103080">
        <ele>895.2</ele>
        <time>2020-11-17T13:51:34Z</time>
      </trkpt>
      <trkpt lat="28.6255920" lon="-17.8100330">
        <ele>892.1</ele>
        <time>2020-11-17T13:51:35Z</time>
      </trkpt>
      <trkpt lat="28.6255170" lon="-17.8099020">
        <ele>890.7</ele>
        <time>2020-11-17T13:51:36Z</time>
      </trkpt>
      <trkpt lat="28.6255170" lon="-17.8099020">
        <ele>890.7</ele>
        <time>2020-11-17T13:51:37Z</time>
      </trkpt>
      <trkpt lat="28.6253720" lon="-17.8096520">
        <ele>888.2</ele>
        <time>2020-11-17T13:51:38Z</time>
      </trkpt>
      <trkpt lat="28.6253720" lon="-17.8096520">
        <ele>888.2</ele>
        <time>2020-11-17T13:51:39Z</time>
      </trkpt>
      <trkpt lat="28.6252500" lon="-17.8094030">
        <ele>886.4</ele>
        <time>2020-11-17T13:51:40Z</time>
      </trkpt>
      <trkpt lat="28.6252500" lon="-17.8094030">
        <ele>886.4</ele>
        <time>2020-11-17T13:51:41Z</time>
      </trkpt>
      <trkpt lat="28.6251680" lon="-17.8091670">
        <ele>884.9</ele>
        <time>2020-11-17T13:51:42Z</time>
      </trkpt>
      <trkpt lat="28.6251520" lon="-17.8090530">
        <ele>884.1</ele>
        <time>2020-11-17T13:51:43Z</time>
      </trkpt>
      <trkpt lat="28.6251520" lon="-17.8090530">
        <ele>884.1</ele>
        <time>2020-11-17T13:51:44Z</time>
      </trkpt>
      <trkpt lat="28.6252000" lon="-17.8088670">
        <ele>882.3</ele>
        <time>2020-11-17T13:51:45Z</time>
      </trkpt>
      <trkpt lat="28.6252000" lon="-17.8088670">
        <ele>882.3</ele>
        <time>2020-11-17T13:51:46Z</time>
      </trkpt>
      <trkpt lat="28.6253150" lon="-17.8087550">
        <ele>880.0</ele>
        <time>2020-11-17T13:51:47Z</time>
      </trkpt>
      <trkpt lat="28.6254180" lon="-17.8087480">
        <ele>878.3</ele>
        <time>2020-11-17T13:51:48Z</time>
      </trkpt>
      <trkpt lat="28.6254180" lon="-17.8087480">
        <ele>878.3</ele>
        <time>2020-11-17T13:51:49Z</time>
      </trkpt>
      <trkpt lat="28.6256280" lon="-17.8087750">
        <ele>875.2</ele>
        <time>2020-11-17T13:51:50Z</time>
      </trkpt>
      <trkpt lat="28.6256280" lon="-17.8087750">
        <ele>875.2</ele>
        <time>2020-11-17T13:51:51Z</time>
      </trkpt>
      <trkpt lat="28.6258480" lon="-17.8088380">
        <ele>872.5</ele>
        <time>2020-11-17T13:51:52Z</time>
      </trkpt>
      <trkpt lat="28.6259620" lon="-17.8089020">
        <ele>871.1</ele>
        <time>2020-11-17T13:51:53Z</time>
      </trkpt>
      <trkpt lat="28.6260670" lon="-17.8089680">
        <ele>869.8</ele>
        <time>2020-11-17T13:51:54Z</time>
      </trkpt>
      <trkpt lat="28.6260670" lon="-17.8089680">
        <ele>869.8</ele>
        <time>2020-11-17T13:51:55Z</time>
      </trkpt>
      <trkpt lat="28.6262900" lon="-17.8091100">
        <ele>867.0</ele>
        <time>2020-11-17T13:51:56Z</time>
      </trkpt>
      <trkpt lat="28.6262900" lon="-17.8091100">
        <ele>867.0</ele>
        <time>2020-11-17T13:51:57Z</time>
      </trkpt>
      <trkpt lat="28.6265300" lon="-17.8092570">
        <ele>864.0</ele>
        <time>2020-11-17T13:51:58Z</time>
      </trkpt>
      <trkpt lat="28.6266580" lon="-17.8093320">
        <ele>862.6</ele>
        <time>2020-11-17T13:51:59Z</time>
      </trkpt>
      <trkpt lat="28.6266580" lon="-17.8093320">
        <ele>862.6</ele>
        <time>2020-11-17T13:52:00Z</time>
      </trkpt>
      <trkpt lat="28.6269070" lon="-17.8094980">
        <ele>859.9</ele>
        <time>2020-11-17T13:52:01Z</time>
      </trkpt>
      <trkpt lat="28.6269070" lon="-17.8094980">
        <ele>859.9</ele>
        <time>2020-11-17T13:52:02Z</time>
      </trkpt>
      <trkpt lat="28.6271300" lon="-17.8097100">
        <ele>857.4</ele>
        <time>2020-11-17T13:52:03Z</time>
      </trkpt>
      <trkpt lat="28.6271300" lon="-17.8097100">
        <ele>857.4</ele>
        <time>2020-11-17T13:52:04Z</time>
      </trkpt>
      <trkpt lat="28.6273330" lon="-17.8099380">
        <ele>855.0</ele>
        <time>2020-11-17T13:52:05Z</time>
      </trkpt>
      <trkpt lat="28.6274280" lon="-17.8100470">
        <ele>853.9</ele>
        <time>2020-11-17T13:52:06Z</time>
      </trkpt>
      <trkpt lat="28.6274280" lon="-17.8100470">
        <ele>853.9</ele>
        <time>2020-11-17T13:52:07Z</time>
      </trkpt>
      <trkpt lat="28.6276450" lon="-17.8102330">
        <ele>850.3</ele>
        <time>2020-11-17T13:52:08Z</time>
      </trkpt>
      <trkpt lat="28.6276450" lon="-17.8102330">
        <ele>850.3</ele>
        <time>2020-11-17T13:52:09Z</time>
      </trkpt>
      <trkpt lat="28.6279120" lon="-17.8103350">
        <ele>849.3</ele>
        <time>2020-11-17T13:52:10Z</time>
      </trkpt>
      <trkpt lat="28.6279120" lon="-17.8103350">
        <ele>849.3</ele>
        <time>2020-11-17T13:52:11Z</time>
      </trkpt>
      <trkpt lat="28.6281650" lon="-17.8104520">
        <ele>846.9</ele>
        <time>2020-11-17T13:52:12Z</time>
      </trkpt>
      <trkpt lat="28.6281650" lon="-17.8104520">
        <ele>846.9</ele>
        <time>2020-11-17T13:52:13Z</time>
      </trkpt>
      <trkpt lat="28.6283250" lon="-17.8106150">
        <ele>845.0</ele>
        <time>2020-11-17T13:52:14Z</time>
      </trkpt>
      <trkpt lat="28.6283730" lon="-17.8107000">
        <ele>844.1</ele>
        <time>2020-11-17T13:52:15Z</time>
      </trkpt>
      <trkpt lat="28.6283730" lon="-17.8107000">
        <ele>844.1</ele>
        <time>2020-11-17T13:52:16Z</time>
      </trkpt>
      <trkpt lat="28.6283670" lon="-17.8109120">
        <ele>841.9</ele>
        <time>2020-11-17T13:52:17Z</time>
      </trkpt>
      <trkpt lat="28.6283670" lon="-17.8109120">
        <ele>841.9</ele>
        <time>2020-11-17T13:52:18Z</time>
      </trkpt>
      <trkpt lat="28.6283270" lon="-17.8111370">
        <ele>839.5</ele>
        <time>2020-11-17T13:52:19Z</time>
      </trkpt>
      <trkpt lat="28.6283200" lon="-17.8112580">
        <ele>838.3</ele>
        <time>2020-11-17T13:52:20Z</time>
      </trkpt>
      <trkpt lat="28.6283200" lon="-17.8112580">
        <ele>838.3</ele>
        <time>2020-11-17T13:52:21Z</time>
      </trkpt>
      <trkpt lat="28.6283570" lon="-17.8115120">
        <ele>835.9</ele>
        <time>2020-11-17T13:52:22Z</time>
      </trkpt>
      <trkpt lat="28.6283570" lon="-17.8115120">
        <ele>835.9</ele>
        <time>2020-11-17T13:52:23Z</time>
      </trkpt>
      <trkpt lat="28.6284570" lon="-17.8117120">
        <ele>834.4</ele>
        <time>2020-11-17T13:52:24Z</time>
      </trkpt>
      <trkpt lat="28.6284570" lon="-17.8117120">
        <ele>834.4</ele>
        <time>2020-11-17T13:52:25Z</time>
      </trkpt>
      <trkpt lat="28.6286020" lon="-17.8117900">
        <ele>832.9</ele>
        <time>2020-11-17T13:52:26Z</time>
      </trkpt>
      <trkpt lat="28.6286020" lon="-17.8117900">
        <ele>832.9</ele>
        <time>2020-11-17T13:52:27Z</time>
      </trkpt>
      <trkpt lat="28.6287520" lon="-17.8117470">
        <ele>831.2</ele>
        <time>2020-11-17T13:52:28Z</time>
      </trkpt>
      <trkpt lat="28.6287520" lon="-17.8117470">
        <ele>831.2</ele>
        <time>2020-11-17T13:52:29Z</time>
      </trkpt>
      <trkpt lat="28.6288800" lon="-17.8116400">
        <ele>829.7</ele>
        <time>2020-11-17T13:52:30Z</time>
      </trkpt>
      <trkpt lat="28.6288800" lon="-17.8116400">
        <ele>829.7</ele>
        <time>2020-11-17T13:52:31Z</time>
      </trkpt>
      <trkpt lat="28.6290020" lon="-17.8115270">
        <ele>828.6</ele>
        <time>2020-11-17T13:52:32Z</time>
      </trkpt>
      <trkpt lat="28.6290550" lon="-17.8114720">
        <ele>828.2</ele>
        <time>2020-11-17T13:52:33Z</time>
      </trkpt>
      <trkpt lat="28.6290550" lon="-17.8114720">
        <ele>828.2</ele>
        <time>2020-11-17T13:52:34Z</time>
      </trkpt>
      <trkpt lat="28.6291800" lon="-17.8114120">
        <ele>827.5</ele>
        <time>2020-11-17T13:52:35Z</time>
      </trkpt>
      <trkpt lat="28.6292500" lon="-17.8114170">
        <ele>827.0</ele>
        <time>2020-11-17T13:52:36Z</time>
      </trkpt>
      <trkpt lat="28.6292500" lon="-17.8114170">
        <ele>827.0</ele>
        <time>2020-11-17T13:52:37Z</time>
      </trkpt>
      <trkpt lat="28.6293780" lon="-17.8115000">
        <ele>825.7</ele>
        <time>2020-11-17T13:52:38Z</time>
      </trkpt>
      <trkpt lat="28.6293780" lon="-17.8115000">
        <ele>825.7</ele>
        <time>2020-11-17T13:52:39Z</time>
      </trkpt>
      <trkpt lat="28.6294670" lon="-17.8116670">
        <ele>824.1</ele>
        <time>2020-11-17T13:52:40Z</time>
      </trkpt>
      <trkpt lat="28.6294670" lon="-17.8116670">
        <ele>824.1</ele>
        <time>2020-11-17T13:52:41Z</time>
      </trkpt>
      <trkpt lat="28.6295320" lon="-17.8118720">
        <ele>822.5</ele>
        <time>2020-11-17T13:52:42Z</time>
      </trkpt>
      <trkpt lat="28.6295320" lon="-17.8118720">
        <ele>822.5</ele>
        <time>2020-11-17T13:52:43Z</time>
      </trkpt>
      <trkpt lat="28.6296050" lon="-17.8120820">
        <ele>821.0</ele>
        <time>2020-11-17T13:52:44Z</time>
      </trkpt>
      <trkpt lat="28.6296470" lon="-17.8121850">
        <ele>820.3</ele>
        <time>2020-11-17T13:52:45Z</time>
      </trkpt>
      <trkpt lat="28.6296800" lon="-17.8122750">
        <ele>819.6</ele>
        <time>2020-11-17T13:52:46Z</time>
      </trkpt>
      <trkpt lat="28.6296800" lon="-17.8122750">
        <ele>819.6</ele>
        <time>2020-11-17T13:52:47Z</time>
      </trkpt>
      <trkpt lat="28.6297820" lon="-17.8123880">
        <ele>818.1</ele>
        <time>2020-11-17T13:52:48Z</time>
      </trkpt>
      <trkpt lat="28.6297820" lon="-17.8123880">
        <ele>818.1</ele>
        <time>2020-11-17T13:52:49Z</time>
      </trkpt>
      <trkpt lat="28.6299230" lon="-17.8124220">
        <ele>816.1</ele>
        <time>2020-11-17T13:52:50Z</time>
      </trkpt>
      <trkpt lat="28.6299230" lon="-17.8124220">
        <ele>816.1</ele>
        <time>2020-11-17T13:52:51Z</time>
      </trkpt>
      <trkpt lat="28.6300820" lon="-17.8123880">
        <ele>814.0</ele>
        <time>2020-11-17T13:52:52Z</time>
      </trkpt>
      <trkpt lat="28.6300820" lon="-17.8123880">
        <ele>814.0</ele>
        <time>2020-11-17T13:52:53Z</time>
      </trkpt>
      <trkpt lat="28.6302670" lon="-17.8122770">
        <ele>811.5</ele>
        <time>2020-11-17T13:52:54Z</time>
      </trkpt>
      <trkpt lat="28.6302670" lon="-17.8122770">
        <ele>811.5</ele>
        <time>2020-11-17T13:52:55Z</time>
      </trkpt>
      <trkpt lat="28.6304000" lon="-17.8120650">
        <ele>809.2</ele>
        <time>2020-11-17T13:52:56Z</time>
      </trkpt>
      <trkpt lat="28.6304570" lon="-17.8119500">
        <ele>808.0</ele>
        <time>2020-11-17T13:52:57Z</time>
      </trkpt>
      <trkpt lat="28.6304570" lon="-17.8119500">
        <ele>808.0</ele>
        <time>2020-11-17T13:52:58Z</time>
      </trkpt>
      <trkpt lat="28.6304770" lon="-17.8117030">
        <ele>805.5</ele>
        <time>2020-11-17T13:52:59Z</time>
      </trkpt>
      <trkpt lat="28.6304730" lon="-17.8115800">
        <ele>804.2</ele>
        <time>2020-11-17T13:53:00Z</time>
      </trkpt>
      <trkpt lat="28.6304730" lon="-17.8115800">
        <ele>804.2</ele>
        <time>2020-11-17T13:53:01Z</time>
      </trkpt>
      <trkpt lat="28.6303920" lon="-17.8113220">
        <ele>801.9</ele>
        <time>2020-11-17T13:53:02Z</time>
      </trkpt>
      <trkpt lat="28.6303670" lon="-17.8111880">
        <ele>800.9</ele>
        <time>2020-11-17T13:53:03Z</time>
      </trkpt>
      <trkpt lat="28.6303670" lon="-17.8111880">
        <ele>800.9</ele>
        <time>2020-11-17T13:53:04Z</time>
      </trkpt>
      <trkpt lat="28.6303520" lon="-17.8109480">
        <ele>799.2</ele>
        <time>2020-11-17T13:53:05Z</time>
      </trkpt>
      <trkpt lat="28.6303520" lon="-17.8109480">
        <ele>799.2</ele>
        <time>2020-11-17T13:53:06Z</time>
      </trkpt>
      <trkpt lat="28.6304030" lon="-17.8107300">
        <ele>797.5</ele>
        <time>2020-11-17T13:53:07Z</time>
      </trkpt>
      <trkpt lat="28.6304030" lon="-17.8107300">
        <ele>797.5</ele>
        <time>2020-11-17T13:53:08Z</time>
      </trkpt>
      <trkpt lat="28.6305250" lon="-17.8105330">
        <ele>795.5</ele>
        <time>2020-11-17T13:53:09Z</time>
      </trkpt>
      <trkpt lat="28.6305920" lon="-17.8104430">
        <ele>794.5</ele>
        <time>2020-11-17T13:53:10Z</time>
      </trkpt>
      <trkpt lat="28.6305920" lon="-17.8104430">
        <ele>794.5</ele>
        <time>2020-11-17T13:53:11Z</time>
      </trkpt>
      <trkpt lat="28.6307120" lon="-17.8102370">
        <ele>792.4</ele>
        <time>2020-11-17T13:53:12Z</time>
      </trkpt>
      <trkpt lat="28.6307120" lon="-17.8102370">
        <ele>792.4</ele>
        <time>2020-11-17T13:53:13Z</time>
      </trkpt>
      <trkpt lat="28.6308400" lon="-17.8100100">
        <ele>790.0</ele>
        <time>2020-11-17T13:53:14Z</time>
      </trkpt>
      <trkpt lat="28.6308400" lon="-17.8100100">
        <ele>790.0</ele>
        <time>2020-11-17T13:53:15Z</time>
      </trkpt>
      <trkpt lat="28.6309620" lon="-17.8097770">
        <ele>787.5</ele>
        <time>2020-11-17T13:53:16Z</time>
      </trkpt>
      <trkpt lat="28.6310430" lon="-17.8096570">
        <ele>786.1</ele>
        <time>2020-11-17T13:53:17Z</time>
      </trkpt>
      <trkpt lat="28.6310430" lon="-17.8096570">
        <ele>786.1</ele>
        <time>2020-11-17T13:53:18Z</time>
      </trkpt>
      <trkpt lat="28.6311880" lon="-17.8094130">
        <ele>783.5</ele>
        <time>2020-11-17T13:53:19Z</time>
      </trkpt>
      <trkpt lat="28.6311880" lon="-17.8094130">
        <ele>783.5</ele>
        <time>2020-11-17T13:53:20Z</time>
      </trkpt>
      <trkpt lat="28.6313270" lon="-17.8091700">
        <ele>781.2</ele>
        <time>2020-11-17T13:53:21Z</time>
      </trkpt>
      <trkpt lat="28.6313270" lon="-17.8091700">
        <ele>781.2</ele>
        <time>2020-11-17T13:53:22Z</time>
      </trkpt>
      <trkpt lat="28.6314830" lon="-17.8089370">
        <ele>779.2</ele>
        <time>2020-11-17T13:53:23Z</time>
      </trkpt>
      <trkpt lat="28.6315620" lon="-17.8088220">
        <ele>778.2</ele>
        <time>2020-11-17T13:53:24Z</time>
      </trkpt>
      <trkpt lat="28.6315620" lon="-17.8088220">
        <ele>778.2</ele>
        <time>2020-11-17T13:53:25Z</time>
      </trkpt>
      <trkpt lat="28.6317330" lon="-17.8085930">
        <ele>776.3</ele>
        <time>2020-11-17T13:53:26Z</time>
      </trkpt>
      <trkpt lat="28.6317330" lon="-17.8085930">
        <ele>776.3</ele>
        <time>2020-11-17T13:53:27Z</time>
      </trkpt>
      <trkpt lat="28.6319200" lon="-17.8083880">
        <ele>774.6</ele>
        <time>2020-11-17T13:53:28Z</time>
      </trkpt>
      <trkpt lat="28.6319200" lon="-17.8083880">
        <ele>774.6</ele>
        <time>2020-11-17T13:53:29Z</time>
      </trkpt>
      <trkpt lat="28.6321230" lon="-17.8082100">
        <ele>772.7</ele>
        <time>2020-11-17T13:53:30Z</time>
      </trkpt>
      <trkpt lat="28.6321230" lon="-17.8082100">
        <ele>772.7</ele>
        <time>2020-11-17T13:53:31Z</time>
      </trkpt>
      <trkpt lat="28.6323250" lon="-17.8080250">
        <ele>770.5</ele>
        <time>2020-11-17T13:53:32Z</time>
      </trkpt>
      <trkpt lat="28.6323250" lon="-17.8080250">
        <ele>770.5</ele>
        <time>2020-11-17T13:53:33Z</time>
      </trkpt>
      <trkpt lat="28.6325100" lon="-17.8078220">
        <ele>768.4</ele>
        <time>2020-11-17T13:53:34Z</time>
      </trkpt>
      <trkpt lat="28.6325100" lon="-17.8078220">
        <ele>768.4</ele>
        <time>2020-11-17T13:53:35Z</time>
      </trkpt>
      <trkpt lat="28.6326770" lon="-17.8075930">
        <ele>766.6</ele>
        <time>2020-11-17T13:53:36Z</time>
      </trkpt>
      <trkpt lat="28.6327550" lon="-17.8074780">
        <ele>765.9</ele>
        <time>2020-11-17T13:53:37Z</time>
      </trkpt>
      <trkpt lat="28.6327550" lon="-17.8074780">
        <ele>765.9</ele>
        <time>2020-11-17T13:53:38Z</time>
      </trkpt>
      <trkpt lat="28.6329100" lon="-17.8072880">
        <ele>764.7</ele>
        <time>2020-11-17T13:53:39Z</time>
      </trkpt>
      <trkpt lat="28.6329100" lon="-17.8072880">
        <ele>764.7</ele>
        <time>2020-11-17T13:53:40Z</time>
      </trkpt>
      <trkpt lat="28.6330450" lon="-17.8071280">
        <ele>763.6</ele>
        <time>2020-11-17T13:53:41Z</time>
      </trkpt>
      <trkpt lat="28.6330920" lon="-17.8070500">
        <ele>763.0</ele>
        <time>2020-11-17T13:53:42Z</time>
      </trkpt>
      <trkpt lat="28.6330920" lon="-17.8070500">
        <ele>763.0</ele>
        <time>2020-11-17T13:53:43Z</time>
      </trkpt>
      <trkpt lat="28.6331380" lon="-17.8068850">
        <ele>761.9</ele>
        <time>2020-11-17T13:53:44Z</time>
      </trkpt>
      <trkpt lat="28.6331380" lon="-17.8068850">
        <ele>761.9</ele>
        <time>2020-11-17T13:53:45Z</time>
      </trkpt>
      <trkpt lat="28.6330650" lon="-17.8067420">
        <ele>760.5</ele>
        <time>2020-11-17T13:53:46Z</time>
      </trkpt>
      <trkpt lat="28.6330120" lon="-17.8066870">
        <ele>759.7</ele>
        <time>2020-11-17T13:53:47Z</time>
      </trkpt>
      <trkpt lat="28.6330120" lon="-17.8066870">
        <ele>759.7</ele>
        <time>2020-11-17T13:53:48Z</time>
      </trkpt>
      <trkpt lat="28.6329480" lon="-17.8066030">
        <ele>758.8</ele>
        <time>2020-11-17T13:53:49Z</time>
      </trkpt>
      <trkpt lat="28.6329330" lon="-17.8065720">
        <ele>758.5</ele>
        <time>2020-11-17T13:53:50Z</time>
      </trkpt>
      <trkpt lat="28.6329170" lon="-17.8065470">
        <ele>758.2</ele>
        <time>2020-11-17T13:53:51Z</time>
      </trkpt>
      <trkpt lat="28.6329170" lon="-17.8065470">
        <ele>758.2</ele>
        <time>2020-11-17T13:53:52Z</time>
      </trkpt>
      <trkpt lat="28.6328920" lon="-17.8065050">
        <ele>757.8</ele>
        <time>2020-11-17T13:53:53Z</time>
      </trkpt>
      <trkpt lat="28.6328920" lon="-17.8065050">
        <ele>757.8</ele>
        <time>2020-11-17T13:53:54Z</time>
      </trkpt>
      <trkpt lat="28.6329180" lon="-17.8064880">
        <ele>758.1</ele>
        <time>2020-11-17T13:53:55Z</time>
      </trkpt>
      <trkpt lat="28.6329370" lon="-17.8064950">
        <ele>758.2</ele>
        <time>2020-11-17T13:53:56Z</time>
      </trkpt>
      <trkpt lat="28.6329370" lon="-17.8064950">
        <ele>758.2</ele>
        <time>2020-11-17T13:53:57Z</time>
      </trkpt>
      <trkpt lat="28.6329550" lon="-17.8065130">
        <ele>758.5</ele>
        <time>2020-11-17T13:53:58Z</time>
      </trkpt>
      <trkpt lat="28.6329580" lon="-17.8065270">
        <ele>758.6</ele>
        <time>2020-11-17T13:53:59Z</time>
      </trkpt>
      <trkpt lat="28.6329620" lon="-17.8065400">
        <ele>758.7</ele>
        <time>2020-11-17T13:54:00Z</time>
      </trkpt>
      <trkpt lat="28.6329620" lon="-17.8065400">
        <ele>758.7</ele>
        <time>2020-11-17T13:54:01Z</time>
      </trkpt>
      <trkpt lat="28.6329700" lon="-17.8065680">
        <ele>758.9</ele>
        <time>2020-11-17T13:54:02Z</time>
      </trkpt>
      <trkpt lat="28.6329700" lon="-17.8065680">
        <ele>758.9</ele>
        <time>2020-11-17T13:54:03Z</time>
      </trkpt>
      <trkpt lat="28.6329800" lon="-17.8066030">
        <ele>759.2</ele>
        <time>2020-11-17T13:54:04Z</time>
      </trkpt>
      <trkpt lat="28.6329830" lon="-17.8066220">
        <ele>759.4</ele>
        <time>2020-11-17T13:54:05Z</time>
      </trkpt>
      <trkpt lat="28.6329830" lon="-17.8066220">
        <ele>759.4</ele>
        <time>2020-11-17T13:54:06Z</time>
      </trkpt>
      <trkpt lat="28.6329950" lon="-17.8066630">
        <ele>759.7</ele>
        <time>2020-11-17T13:54:07Z</time>
      </trkpt>
      <trkpt lat="28.6330030" lon="-17.8066870">
        <ele>759.9</ele>
        <time>2020-11-17T13:54:08Z</time>
      </trkpt>
      <trkpt lat="28.6330150" lon="-17.8067100">
        <ele>760.1</ele>
        <time>2020-11-17T13:54:09Z</time>
      </trkpt>
      <trkpt lat="28.6330150" lon="-17.8067100">
        <ele>760.1</ele>
        <time>2020-11-17T13:54:10Z</time>
      </trkpt>
      <trkpt lat="28.6330330" lon="-17.8067530">
        <ele>760.5</ele>
        <time>2020-11-17T13:54:11Z</time>
      </trkpt>
      <trkpt lat="28.6330430" lon="-17.8067720">
        <ele>760.7</ele>
        <time>2020-11-17T13:54:12Z</time>
      </trkpt>
      <trkpt lat="28.6330430" lon="-17.8067720">
        <ele>760.7</ele>
        <time>2020-11-17T13:54:13Z</time>
      </trkpt>
      <trkpt lat="28.6330720" lon="-17.8067980">
        <ele>761.1</ele>
        <time>2020-11-17T13:54:14Z</time>
      </trkpt>
      <trkpt lat="28.6330780" lon="-17.8068130">
        <ele>761.2</ele>
        <time>2020-11-17T13:54:15Z</time>
      </trkpt>
      <trkpt lat="28.6330780" lon="-17.8068130">
        <ele>761.2</ele>
        <time>2020-11-17T13:54:16Z</time>
      </trkpt>
      <trkpt lat="28.6330900" lon="-17.8068530">
        <ele>761.5</ele>
        <time>2020-11-17T13:54:17Z</time>
      </trkpt>
      <trkpt lat="28.6330900" lon="-17.8068530">
        <ele>761.5</ele>
        <time>2020-11-17T13:54:18Z</time>
      </trkpt>
      <trkpt lat="28.6330980" lon="-17.8069020">
        <ele>761.9</ele>
        <time>2020-11-17T13:54:19Z</time>
      </trkpt>
      <trkpt lat="28.6330980" lon="-17.8069020">
        <ele>761.9</ele>
        <time>2020-11-17T13:54:20Z</time>
      </trkpt>
      <trkpt lat="28.6331200" lon="-17.8069570">
        <ele>762.4</ele>
        <time>2020-11-17T13:54:21Z</time>
      </trkpt>
      <trkpt lat="28.6331200" lon="-17.8069570">
        <ele>762.4</ele>
        <time>2020-11-17T13:54:22Z</time>
      </trkpt>
      <trkpt lat="28.6331280" lon="-17.8070020">
        <ele>762.7</ele>
        <time>2020-11-17T13:54:23Z</time>
      </trkpt>
      <trkpt lat="28.6331280" lon="-17.8070250">
        <ele>762.8</ele>
        <time>2020-11-17T13:54:24Z</time>
      </trkpt>
      <trkpt lat="28.6331280" lon="-17.8070250">
        <ele>762.8</ele>
        <time>2020-11-17T13:54:25Z</time>
      </trkpt>
      <trkpt lat="28.6331020" lon="-17.8070580">
        <ele>763.0</ele>
        <time>2020-11-17T13:54:26Z</time>
      </trkpt>
      <trkpt lat="28.6331020" lon="-17.8070580">
        <ele>763.0</ele>
        <time>2020-11-17T13:54:27Z</time>
      </trkpt>
      <trkpt lat="28.6330670" lon="-17.8070920">
        <ele>763.3</ele>
        <time>2020-11-17T13:54:28Z</time>
      </trkpt>
      <trkpt lat="28.6330670" lon="-17.8070920">
        <ele>763.3</ele>
        <time>2020-11-17T13:54:29Z</time>
      </trkpt>
      <trkpt lat="28.6330350" lon="-17.8071300">
        <ele>763.6</ele>
        <time>2020-11-17T13:54:30Z</time>
      </trkpt>
      <trkpt lat="28.6330350" lon="-17.8071300">
        <ele>763.6</ele>
        <time>2020-11-17T13:54:31Z</time>
      </trkpt>
      <trkpt lat="28.6330100" lon="-17.8071720">
        <ele>763.8</ele>
        <time>2020-11-17T13:54:32Z</time>
      </trkpt>
      <trkpt lat="28.6329920" lon="-17.8071820">
        <ele>763.9</ele>
        <time>2020-11-17T13:54:33Z</time>
      </trkpt>
      <trkpt lat="28.6329920" lon="-17.8071820">
        <ele>763.9</ele>
        <time>2020-11-17T13:54:34Z</time>
      </trkpt>
      <trkpt lat="28.6329600" lon="-17.8072100">
        <ele>764.2</ele>
        <time>2020-11-17T13:54:35Z</time>
      </trkpt>
      <trkpt lat="28.6329470" lon="-17.8072250">
        <ele>764.3</ele>
        <time>2020-11-17T13:54:36Z</time>
      </trkpt>
      <trkpt lat="28.6329470" lon="-17.8072250">
        <ele>764.3</ele>
        <time>2020-11-17T13:54:37Z</time>
      </trkpt>
      <trkpt lat="28.6329230" lon="-17.8072630">
        <ele>764.5</ele>
        <time>2020-11-17T13:54:38Z</time>
      </trkpt>
      <trkpt lat="28.6329120" lon="-17.8072870">
        <ele>764.6</ele>
        <time>2020-11-17T13:54:39Z</time>
      </trkpt>
      <trkpt lat="28.6329120" lon="-17.8072870">
        <ele>764.6</ele>
        <time>2020-11-17T13:54:40Z</time>
      </trkpt>
      <trkpt lat="28.6328920" lon="-17.8073330">
        <ele>764.9</ele>
        <time>2020-11-17T13:54:41Z</time>
      </trkpt>
      <trkpt lat="28.6328920" lon="-17.8073330">
        <ele>764.9</ele>
        <time>2020-11-17T13:54:42Z</time>
      </trkpt>
      <trkpt lat="28.6328630" lon="-17.8073700">
        <ele>765.1</ele>
        <time>2020-11-17T13:54:43Z</time>
      </trkpt>
      <trkpt lat="28.6328630" lon="-17.8073700">
        <ele>765.1</ele>
        <time>2020-11-17T13:54:44Z</time>
      </trkpt>
      <trkpt lat="28.6328320" lon="-17.8074020">
        <ele>765.3</ele>
        <time>2020-11-17T13:54:45Z</time>
      </trkpt>
      <trkpt lat="28.6328120" lon="-17.8074070">
        <ele>765.4</ele>
        <time>2020-11-17T13:54:46Z</time>
      </trkpt>
      <trkpt lat="28.6328120" lon="-17.8074070">
        <ele>765.4</ele>
        <time>2020-11-17T13:54:47Z</time>
      </trkpt>
      <trkpt lat="28.6327770" lon="-17.8073980">
        <ele>765.6</ele>
        <time>2020-11-17T13:54:48Z</time>
      </trkpt>
      <trkpt lat="28.6327770" lon="-17.8073980">
        <ele>765.6</ele>
        <time>2020-11-17T13:54:49Z</time>
      </trkpt>
      <trkpt lat="28.6327400" lon="-17.8074130">
        <ele>765.8</ele>
        <time>2020-11-17T13:54:50Z</time>
      </trkpt>
      <trkpt lat="28.6327270" lon="-17.8074330">
        <ele>765.9</ele>
        <time>2020-11-17T13:54:51Z</time>
      </trkpt>
      <trkpt lat="28.6327270" lon="-17.8074330">
        <ele>765.9</ele>
        <time>2020-11-17T13:54:52Z</time>
      </trkpt>
      <trkpt lat="28.6327020" lon="-17.8074770">
        <ele>766.1</ele>
        <time>2020-11-17T13:54:53Z</time>
      </trkpt>
      <trkpt lat="28.6326880" lon="-17.8074980">
        <ele>766.2</ele>
        <time>2020-11-17T13:54:54Z</time>
      </trkpt>
      <trkpt lat="28.6326880" lon="-17.8074980">
        <ele>766.2</ele>
        <time>2020-11-17T13:54:55Z</time>
      </trkpt>
      <trkpt lat="28.6326670" lon="-17.8075400">
        <ele>766.4</ele>
        <time>2020-11-17T13:54:56Z</time>
      </trkpt>
      <trkpt lat="28.6326670" lon="-17.8075400">
        <ele>766.4</ele>
        <time>2020-11-17T13:54:57Z</time>
      </trkpt>
      <trkpt lat="28.6326480" lon="-17.8075870">
        <ele>766.6</ele>
        <time>2020-11-17T13:54:58Z</time>
      </trkpt>
      <trkpt lat="28.6326480" lon="-17.8075870">
        <ele>766.6</ele>
        <time>2020-11-17T13:54:59Z</time>
      </trkpt>
      <trkpt lat="28.6326220" lon="-17.8076150">
        <ele>766.8</ele>
        <time>2020-11-17T13:55:00Z</time>
      </trkpt>
      <trkpt lat="28.6326220" lon="-17.8076150">
        <ele>766.8</ele>
        <time>2020-11-17T13:55:01Z</time>
      </trkpt>
      <trkpt lat="28.6326080" lon="-17.8076620">
        <ele>767.0</ele>
        <time>2020-11-17T13:55:02Z</time>
      </trkpt>
      <trkpt lat="28.6326080" lon="-17.8076620">
        <ele>767.0</ele>
        <time>2020-11-17T13:55:03Z</time>
      </trkpt>
      <trkpt lat="28.6325880" lon="-17.8077070">
        <ele>767.3</ele>
        <time>2020-11-17T13:55:04Z</time>
      </trkpt>
      <trkpt lat="28.6325780" lon="-17.8077230">
        <ele>767.5</ele>
        <time>2020-11-17T13:55:05Z</time>
      </trkpt>
      <trkpt lat="28.6325680" lon="-17.8077420">
        <ele>767.6</ele>
        <time>2020-11-17T13:55:06Z</time>
      </trkpt>
      <trkpt lat="28.6325570" lon="-17.8077630">
        <ele>767.8</ele>
        <time>2020-11-17T13:55:07Z</time>
      </trkpt>
      <trkpt lat="28.6325570" lon="-17.8077630">
        <ele>767.8</ele>
        <time>2020-11-17T13:55:08Z</time>
      </trkpt>
      <trkpt lat="28.6325330" lon="-17.8078080">
        <ele>768.2</ele>
        <time>2020-11-17T13:55:09Z</time>
      </trkpt>
      <trkpt lat="28.6325330" lon="-17.8078080">
        <ele>768.2</ele>
        <time>2020-11-17T13:55:10Z</time>
      </trkpt>
      <trkpt lat="28.6325100" lon="-17.8078470">
        <ele>768.5</ele>
        <time>2020-11-17T13:55:11Z</time>
      </trkpt>
      <trkpt lat="28.6325100" lon="-17.8078470">
        <ele>768.5</ele>
        <time>2020-11-17T13:55:12Z</time>
      </trkpt>
      <trkpt lat="28.6324820" lon="-17.8078770">
        <ele>768.8</ele>
        <time>2020-11-17T13:55:13Z</time>
      </trkpt>
      <trkpt lat="28.6324820" lon="-17.8078770">
        <ele>768.8</ele>
        <time>2020-11-17T13:55:14Z</time>
      </trkpt>
      <trkpt lat="28.6324520" lon="-17.8079080">
        <ele>769.2</ele>
        <time>2020-11-17T13:55:15Z</time>
      </trkpt>
      <trkpt lat="28.6324520" lon="-17.8079080">
        <ele>769.2</ele>
        <time>2020-11-17T13:55:16Z</time>
      </trkpt>
      <trkpt lat="28.6324230" lon="-17.8079450">
        <ele>769.5</ele>
        <time>2020-11-17T13:55:17Z</time>
      </trkpt>
      <trkpt lat="28.6324100" lon="-17.8079630">
        <ele>769.7</ele>
        <time>2020-11-17T13:55:18Z</time>
      </trkpt>
      <trkpt lat="28.6324100" lon="-17.8079630">
        <ele>769.7</ele>
        <time>2020-11-17T13:55:19Z</time>
      </trkpt>
      <trkpt lat="28.6323880" lon="-17.8080100">
        <ele>770.1</ele>
        <time>2020-11-17T13:55:20Z</time>
      </trkpt>
      <trkpt lat="28.6323750" lon="-17.8080250">
        <ele>770.2</ele>
        <time>2020-11-17T13:55:21Z</time>
      </trkpt>
      <trkpt lat="28.6323750" lon="-17.8080250">
        <ele>770.2</ele>
        <time>2020-11-17T13:55:22Z</time>
      </trkpt>
      <trkpt lat="28.6323500" lon="-17.8080670">
        <ele>770.6</ele>
        <time>2020-11-17T13:55:23Z</time>
      </trkpt>
      <trkpt lat="28.6323500" lon="-17.8080670">
        <ele>770.6</ele>
        <time>2020-11-17T13:55:24Z</time>
      </trkpt>
      <trkpt lat="28.6323200" lon="-17.8080970">
        <ele>770.9</ele>
        <time>2020-11-17T13:55:25Z</time>
      </trkpt>
      <trkpt lat="28.6323200" lon="-17.8080970">
        <ele>770.9</ele>
        <time>2020-11-17T13:55:26Z</time>
      </trkpt>
      <trkpt lat="28.6322930" lon="-17.8081280">
        <ele>771.2</ele>
        <time>2020-11-17T13:55:27Z</time>
      </trkpt>
      <trkpt lat="28.6322930" lon="-17.8081280">
        <ele>771.2</ele>
        <time>2020-11-17T13:55:28Z</time>
      </trkpt>
      <trkpt lat="28.6322800" lon="-17.8081550">
        <ele>771.4</ele>
        <time>2020-11-17T13:55:29Z</time>
      </trkpt>
      <trkpt lat="28.6322800" lon="-17.8081550">
        <ele>771.4</ele>
        <time>2020-11-17T13:55:30Z</time>
      </trkpt>
      <trkpt lat="28.6322780" lon="-17.8081870">
        <ele>771.4</ele>
        <time>2020-11-17T13:55:31Z</time>
      </trkpt>
      <trkpt lat="28.6322730" lon="-17.8082020">
        <ele>771.8</ele>
        <time>2020-11-17T13:55:32Z</time>
      </trkpt>
      <trkpt lat="28.6322730" lon="-17.8082020">
        <ele>771.8</ele>
        <time>2020-11-17T13:55:33Z</time>
      </trkpt>
      <trkpt lat="28.6322830" lon="-17.8082330">
        <ele>771.8</ele>
        <time>2020-11-17T13:55:34Z</time>
      </trkpt>
      <trkpt lat="28.6322830" lon="-17.8082330">
        <ele>771.8</ele>
        <time>2020-11-17T13:55:35Z</time>
      </trkpt>
      <trkpt lat="28.6323080" lon="-17.8082480">
        <ele>771.4</ele>
        <time>2020-11-17T13:55:36Z</time>
      </trkpt>
      <trkpt lat="28.6323080" lon="-17.8082480">
        <ele>771.4</ele>
        <time>2020-11-17T13:55:37Z</time>
      </trkpt>
      <trkpt lat="28.6323520" lon="-17.8082420">
        <ele>770.8</ele>
        <time>2020-11-17T13:55:38Z</time>
      </trkpt>
      <trkpt lat="28.6323520" lon="-17.8082420">
        <ele>770.8</ele>
        <time>2020-11-17T13:55:39Z</time>
      </trkpt>
      <trkpt lat="28.6324100" lon="-17.8082500">
        <ele>769.4</ele>
        <time>2020-11-17T13:55:40Z</time>
      </trkpt>
      <trkpt lat="28.6324100" lon="-17.8082500">
        <ele>769.4</ele>
        <time>2020-11-17T13:55:41Z</time>
      </trkpt>
      <trkpt lat="28.6324650" lon="-17.8082930">
        <ele>768.9</ele>
        <time>2020-11-17T13:55:42Z</time>
      </trkpt>
      <trkpt lat="28.6324650" lon="-17.8082930">
        <ele>768.9</ele>
        <time>2020-11-17T13:55:43Z</time>
      </trkpt>
      <trkpt lat="28.6325070" lon="-17.8083570">
        <ele>768.5</ele>
        <time>2020-11-17T13:55:44Z</time>
      </trkpt>
      <trkpt lat="28.6325180" lon="-17.8083950">
        <ele>768.6</ele>
        <time>2020-11-17T13:55:45Z</time>
      </trkpt>
      <trkpt lat="28.6325270" lon="-17.8084400">
        <ele>768.1</ele>
        <time>2020-11-17T13:55:46Z</time>
      </trkpt>
      <trkpt lat="28.6325270" lon="-17.8084400">
        <ele>768.1</ele>
        <time>2020-11-17T13:55:47Z</time>
      </trkpt>
      <trkpt lat="28.6325420" lon="-17.8085470">
        <ele>767.9</ele>
        <time>2020-11-17T13:55:48Z</time>
      </trkpt>
      <trkpt lat="28.6325420" lon="-17.8085470">
        <ele>767.9</ele>
        <time>2020-11-17T13:55:49Z</time>
      </trkpt>
      <trkpt lat="28.6325850" lon="-17.8086480">
        <ele>766.8</ele>
        <time>2020-11-17T13:55:50Z</time>
      </trkpt>
      <trkpt lat="28.6325850" lon="-17.8086480">
        <ele>766.8</ele>
        <time>2020-11-17T13:55:51Z</time>
      </trkpt>
      <trkpt lat="28.6326470" lon="-17.8087350">
        <ele>765.0</ele>
        <time>2020-11-17T13:55:52Z</time>
      </trkpt>
      <trkpt lat="28.6326470" lon="-17.8087350">
        <ele>765.0</ele>
        <time>2020-11-17T13:55:53Z</time>
      </trkpt>
      <trkpt lat="28.6327070" lon="-17.8088250">
        <ele>764.2</ele>
        <time>2020-11-17T13:55:54Z</time>
      </trkpt>
      <trkpt lat="28.6327070" lon="-17.8088250">
        <ele>764.2</ele>
        <time>2020-11-17T13:55:55Z</time>
      </trkpt>
      <trkpt lat="28.6327620" lon="-17.8089130">
        <ele>762.4</ele>
        <time>2020-11-17T13:55:56Z</time>
      </trkpt>
      <trkpt lat="28.6327850" lon="-17.8089550">
        <ele>761.7</ele>
        <time>2020-11-17T13:55:57Z</time>
      </trkpt>
      <trkpt lat="28.6328000" lon="-17.8089950">
        <ele>761.7</ele>
        <time>2020-11-17T13:55:58Z</time>
      </trkpt>
      <trkpt lat="28.6328000" lon="-17.8089950">
        <ele>761.7</ele>
        <time>2020-11-17T13:55:59Z</time>
      </trkpt>
      <trkpt lat="28.6328080" lon="-17.8090720">
        <ele>761.8</ele>
        <time>2020-11-17T13:56:00Z</time>
      </trkpt>
      <trkpt lat="28.6328080" lon="-17.8090720">
        <ele>761.8</ele>
        <time>2020-11-17T13:56:01Z</time>
      </trkpt>
      <trkpt lat="28.6328130" lon="-17.8091470">
        <ele>761.8</ele>
        <time>2020-11-17T13:56:02Z</time>
      </trkpt>
      <trkpt lat="28.6328130" lon="-17.8091470">
        <ele>761.8</ele>
        <time>2020-11-17T13:56:03Z</time>
      </trkpt>
      <trkpt lat="28.6328200" lon="-17.8092280">
        <ele>761.8</ele>
        <time>2020-11-17T13:56:04Z</time>
      </trkpt>
      <trkpt lat="28.6328200" lon="-17.8092280">
        <ele>761.8</ele>
        <time>2020-11-17T13:56:05Z</time>
      </trkpt>
      <trkpt lat="28.6328130" lon="-17.8093200">
        <ele>761.9</ele>
        <time>2020-11-17T13:56:06Z</time>
      </trkpt>
      <trkpt lat="28.6328130" lon="-17.8093200">
        <ele>761.9</ele>
        <time>2020-11-17T13:56:07Z</time>
      </trkpt>
      <trkpt lat="28.6328150" lon="-17.8094100">
        <ele>762.1</ele>
        <time>2020-11-17T13:56:08Z</time>
      </trkpt>
      <trkpt lat="28.6328150" lon="-17.8094100">
        <ele>762.1</ele>
        <time>2020-11-17T13:56:09Z</time>
      </trkpt>
      <trkpt lat="28.6328250" lon="-17.8094920">
        <ele>761.8</ele>
        <time>2020-11-17T13:56:10Z</time>
      </trkpt>
      <trkpt lat="28.6328250" lon="-17.8094920">
        <ele>761.8</ele>
        <time>2020-11-17T13:56:11Z</time>
      </trkpt>
      <trkpt lat="28.6328330" lon="-17.8095730">
        <ele>762.1</ele>
        <time>2020-11-17T13:56:12Z</time>
      </trkpt>
      <trkpt lat="28.6328330" lon="-17.8095730">
        <ele>762.1</ele>
        <time>2020-11-17T13:56:13Z</time>
      </trkpt>
      <trkpt lat="28.6328470" lon="-17.8096350">
        <ele>762.3</ele>
        <time>2020-11-17T13:56:14Z</time>
      </trkpt>
      <trkpt lat="28.6328530" lon="-17.8096580">
        <ele>762.5</ele>
        <time>2020-11-17T13:56:15Z</time>
      </trkpt>
      <trkpt lat="28.6328530" lon="-17.8096580">
        <ele>762.5</ele>
        <time>2020-11-17T13:56:16Z</time>
      </trkpt>
      <trkpt lat="28.6328630" lon="-17.8096870">
        <ele>761.9</ele>
        <time>2020-11-17T13:56:17Z</time>
      </trkpt>
      <trkpt lat="28.6328630" lon="-17.8096870">
        <ele>761.9</ele>
        <time>2020-11-17T13:56:18Z</time>
      </trkpt>
      <trkpt lat="28.6328620" lon="-17.8096880">
        <ele>761.9</ele>
        <time>2020-11-17T13:56:19Z</time>
      </trkpt>
      <trkpt lat="28.6328620" lon="-17.8096880">
        <ele>761.9</ele>
        <time>2020-11-17T13:56:20Z</time>
      </trkpt>
      <trkpt lat="28.6328550" lon="-17.8096870">
        <ele>762.5</ele>
        <time>2020-11-17T13:56:27Z</time>
      </trkpt>
      <trkpt lat="28.6328550" lon="-17.8096870">
        <ele>762.5</ele>
        <time>2020-11-17T13:56:28Z</time>
      </trkpt>
      <trkpt lat="28.6328370" lon="-17.8096150">
        <ele>762.3</ele>
        <time>2020-11-17T13:56:29Z</time>
      </trkpt>
      <trkpt lat="28.6328370" lon="-17.8095930">
        <ele>762.1</ele>
        <time>2020-11-17T13:56:30Z</time>
      </trkpt>
      <trkpt lat="28.6328370" lon="-17.8095930">
        <ele>762.1</ele>
        <time>2020-11-17T13:56:31Z</time>
      </trkpt>
      <trkpt lat="28.6328300" lon="-17.8095350">
        <ele>761.9</ele>
        <time>2020-11-17T13:56:32Z</time>
      </trkpt>
      <trkpt lat="28.6328300" lon="-17.8095350">
        <ele>761.9</ele>
        <time>2020-11-17T13:56:33Z</time>
      </trkpt>
      <trkpt lat="28.6328230" lon="-17.8094800">
        <ele>761.6</ele>
        <time>2020-11-17T13:56:34Z</time>
      </trkpt>
      <trkpt lat="28.6328200" lon="-17.8094530">
        <ele>762.2</ele>
        <time>2020-11-17T13:56:35Z</time>
      </trkpt>
      <trkpt lat="28.6328200" lon="-17.8094530">
        <ele>762.2</ele>
        <time>2020-11-17T13:56:36Z</time>
      </trkpt>
      <trkpt lat="28.6328170" lon="-17.8093920">
        <ele>762.0</ele>
        <time>2020-11-17T13:56:37Z</time>
      </trkpt>
      <trkpt lat="28.6328170" lon="-17.8093580">
        <ele>762.0</ele>
        <time>2020-11-17T13:56:38Z</time>
      </trkpt>
      <trkpt lat="28.6328170" lon="-17.8093580">
        <ele>762.0</ele>
        <time>2020-11-17T13:56:39Z</time>
      </trkpt>
      <trkpt lat="28.6328180" lon="-17.8093020">
        <ele>761.9</ele>
        <time>2020-11-17T13:56:40Z</time>
      </trkpt>
      <trkpt lat="28.6328180" lon="-17.8093020">
        <ele>761.9</ele>
        <time>2020-11-17T13:56:41Z</time>
      </trkpt>
      <trkpt lat="28.6328170" lon="-17.8092530">
        <ele>761.8</ele>
        <time>2020-11-17T13:56:42Z</time>
      </trkpt>
      <trkpt lat="28.6328170" lon="-17.8092530">
        <ele>761.8</ele>
        <time>2020-11-17T13:56:43Z</time>
      </trkpt>
      <trkpt lat="28.6328180" lon="-17.8092070">
        <ele>761.8</ele>
        <time>2020-11-17T13:56:44Z</time>
      </trkpt>
      <trkpt lat="28.6328180" lon="-17.8092070">
        <ele>761.8</ele>
        <time>2020-11-17T13:56:45Z</time>
      </trkpt>
      <trkpt lat="28.6328170" lon="-17.8091650">
        <ele>761.8</ele>
        <time>2020-11-17T13:56:46Z</time>
      </trkpt>
      <trkpt lat="28.6328170" lon="-17.8091650">
        <ele>761.8</ele>
        <time>2020-11-17T13:56:47Z</time>
      </trkpt>
      <trkpt lat="28.6328170" lon="-17.8091250">
        <ele>761.8</ele>
        <time>2020-11-17T13:56:48Z</time>
      </trkpt>
      <trkpt lat="28.6328170" lon="-17.8091050">
        <ele>761.8</ele>
        <time>2020-11-17T13:56:49Z</time>
      </trkpt>
      <trkpt lat="28.6328170" lon="-17.8091050">
        <ele>761.8</ele>
        <time>2020-11-17T13:56:50Z</time>
      </trkpt>
      <trkpt lat="28.6328170" lon="-17.8090700">
        <ele>761.8</ele>
        <time>2020-11-17T13:56:51Z</time>
      </trkpt>
      <trkpt lat="28.6328170" lon="-17.8090700">
        <ele>761.8</ele>
        <time>2020-11-17T13:56:52Z</time>
      </trkpt>
      <trkpt lat="28.6328130" lon="-17.8090300">
        <ele>761.7</ele>
        <time>2020-11-17T13:56:53Z</time>
      </trkpt>
      <trkpt lat="28.6328100" lon="-17.8090120">
        <ele>761.7</ele>
        <time>2020-11-17T13:56:54Z</time>
      </trkpt>
      <trkpt lat="28.6328100" lon="-17.8090120">
        <ele>761.7</ele>
        <time>2020-11-17T13:56:55Z</time>
      </trkpt>
      <trkpt lat="28.6328020" lon="-17.8089750">
        <ele>761.7</ele>
        <time>2020-11-17T13:56:56Z</time>
      </trkpt>
      <trkpt lat="28.6328020" lon="-17.8089750">
        <ele>761.7</ele>
        <time>2020-11-17T13:56:57Z</time>
      </trkpt>
      <trkpt lat="28.6327880" lon="-17.8089430">
        <ele>761.7</ele>
        <time>2020-11-17T13:56:58Z</time>
      </trkpt>
      <trkpt lat="28.6327880" lon="-17.8089430">
        <ele>761.7</ele>
        <time>2020-11-17T13:56:59Z</time>
      </trkpt>
      <trkpt lat="28.6327500" lon="-17.8089070">
        <ele>762.4</ele>
        <time>2020-11-17T13:57:00Z</time>
      </trkpt>
      <trkpt lat="28.6327450" lon="-17.8088920">
        <ele>763.5</ele>
        <time>2020-11-17T13:57:01Z</time>
      </trkpt>
      <trkpt lat="28.6327450" lon="-17.8088920">
        <ele>763.5</ele>
        <time>2020-11-17T13:57:02Z</time>
      </trkpt>
      <trkpt lat="28.6327350" lon="-17.8088600">
        <ele>763.5</ele>
        <time>2020-11-17T13:57:03Z</time>
      </trkpt>
      <trkpt lat="28.6327350" lon="-17.8088600">
        <ele>763.5</ele>
        <time>2020-11-17T13:57:04Z</time>
      </trkpt>
      <trkpt lat="28.6327170" lon="-17.8088280">
        <ele>763.5</ele>
        <time>2020-11-17T13:57:05Z</time>
      </trkpt>
      <trkpt lat="28.6327050" lon="-17.8088120">
        <ele>764.2</ele>
        <time>2020-11-17T13:57:06Z</time>
      </trkpt>
      <trkpt lat="28.6327050" lon="-17.8088120">
        <ele>764.2</ele>
        <time>2020-11-17T13:57:07Z</time>
      </trkpt>
      <trkpt lat="28.6326830" lon="-17.8087820">
        <ele>764.2</ele>
        <time>2020-11-17T13:57:08Z</time>
      </trkpt>
      <trkpt lat="28.6326830" lon="-17.8087820">
        <ele>764.2</ele>
        <time>2020-11-17T13:57:09Z</time>
      </trkpt>
      <trkpt lat="28.6326650" lon="-17.8087570">
        <ele>764.9</ele>
        <time>2020-11-17T13:57:10Z</time>
      </trkpt>
      <trkpt lat="28.6326650" lon="-17.8087570">
        <ele>764.9</ele>
        <time>2020-11-17T13:57:11Z</time>
      </trkpt>
      <trkpt lat="28.6326430" lon="-17.8087280">
        <ele>765.0</ele>
        <time>2020-11-17T13:57:12Z</time>
      </trkpt>
      <trkpt lat="28.6326430" lon="-17.8087280">
        <ele>765.0</ele>
        <time>2020-11-17T13:57:13Z</time>
      </trkpt>
      <trkpt lat="28.6326250" lon="-17.8086980">
        <ele>765.9</ele>
        <time>2020-11-17T13:57:14Z</time>
      </trkpt>
      <trkpt lat="28.6326180" lon="-17.8086830">
        <ele>765.9</ele>
        <time>2020-11-17T13:57:15Z</time>
      </trkpt>
      <trkpt lat="28.6326180" lon="-17.8086830">
        <ele>765.9</ele>
        <time>2020-11-17T13:57:16Z</time>
      </trkpt>
      <trkpt lat="28.6325950" lon="-17.8086450">
        <ele>766.8</ele>
        <time>2020-11-17T13:57:17Z</time>
      </trkpt>
      <trkpt lat="28.6325850" lon="-17.8086270">
        <ele>766.8</ele>
        <time>2020-11-17T13:57:18Z</time>
      </trkpt>
      <trkpt lat="28.6325850" lon="-17.8086270">
        <ele>766.8</ele>
        <time>2020-11-17T13:57:19Z</time>
      </trkpt>
      <trkpt lat="28.6325620" lon="-17.8085920">
        <ele>767.0</ele>
        <time>2020-11-17T13:57:20Z</time>
      </trkpt>
      <trkpt lat="28.6325570" lon="-17.8085730">
        <ele>767.8</ele>
        <time>2020-11-17T13:57:21Z</time>
      </trkpt>
      <trkpt lat="28.6325570" lon="-17.8085730">
        <ele>767.8</ele>
        <time>2020-11-17T13:57:22Z</time>
      </trkpt>
      <trkpt lat="28.6325500" lon="-17.8085450">
        <ele>767.8</ele>
        <time>2020-11-17T13:57:23Z</time>
      </trkpt>
      <trkpt lat="28.6325500" lon="-17.8085300">
        <ele>768.0</ele>
        <time>2020-11-17T13:57:24Z</time>
      </trkpt>
      <trkpt lat="28.6325500" lon="-17.8085300">
        <ele>768.0</ele>
        <time>2020-11-17T13:57:25Z</time>
      </trkpt>
      <trkpt lat="28.6325450" lon="-17.8085070">
        <ele>768.0</ele>
        <time>2020-11-17T13:57:26Z</time>
      </trkpt>
      <trkpt lat="28.6325450" lon="-17.8085070">
        <ele>768.0</ele>
        <time>2020-11-17T13:57:27Z</time>
      </trkpt>
      <trkpt lat="28.6325420" lon="-17.8084720">
        <ele>768.1</ele>
        <time>2020-11-17T13:57:28Z</time>
      </trkpt>
      <trkpt lat="28.6325350" lon="-17.8084570">
        <ele>768.1</ele>
        <time>2020-11-17T13:57:29Z</time>
      </trkpt>
      <trkpt lat="28.6325350" lon="-17.8084570">
        <ele>768.1</ele>
        <time>2020-11-17T13:57:30Z</time>
      </trkpt>
      <trkpt lat="28.6325000" lon="-17.8084330">
        <ele>768.7</ele>
        <time>2020-11-17T13:57:31Z</time>
      </trkpt>
      <trkpt lat="28.6324930" lon="-17.8084120">
        <ele>768.7</ele>
        <time>2020-11-17T13:57:32Z</time>
      </trkpt>
      <trkpt lat="28.6324930" lon="-17.8084120">
        <ele>768.7</ele>
        <time>2020-11-17T13:57:33Z</time>
      </trkpt>
      <trkpt lat="28.6324900" lon="-17.8083820">
        <ele>768.6</ele>
        <time>2020-11-17T13:57:34Z</time>
      </trkpt>
      <trkpt lat="28.6324820" lon="-17.8083670">
        <ele>769.3</ele>
        <time>2020-11-17T13:57:35Z</time>
      </trkpt>
      <trkpt lat="28.6324820" lon="-17.8083670">
        <ele>769.3</ele>
        <time>2020-11-17T13:57:36Z</time>
      </trkpt>
      <trkpt lat="28.6324650" lon="-17.8083350">
        <ele>769.1</ele>
        <time>2020-11-17T13:57:37Z</time>
      </trkpt>
      <trkpt lat="28.6324650" lon="-17.8083350">
        <ele>769.1</ele>
        <time>2020-11-17T13:57:38Z</time>
      </trkpt>
      <trkpt lat="28.6324500" lon="-17.8083070">
        <ele>768.9</ele>
        <time>2020-11-17T13:57:39Z</time>
      </trkpt>
      <trkpt lat="28.6324500" lon="-17.8083070">
        <ele>768.9</ele>
        <time>2020-11-17T13:57:40Z</time>
      </trkpt>
      <trkpt lat="28.6324270" lon="-17.8082870">
        <ele>769.6</ele>
        <time>2020-11-17T13:57:41Z</time>
      </trkpt>
      <trkpt lat="28.6324170" lon="-17.8082800">
        <ele>769.6</ele>
        <time>2020-11-17T13:57:42Z</time>
      </trkpt>
      <trkpt lat="28.6324020" lon="-17.8082730">
        <ele>770.1</ele>
        <time>2020-11-17T13:57:43Z</time>
      </trkpt>
      <trkpt lat="28.6323830" lon="-17.8082680">
        <ele>770.1</ele>
        <time>2020-11-17T13:57:44Z</time>
      </trkpt>
      <trkpt lat="28.6323830" lon="-17.8082680">
        <ele>770.1</ele>
        <time>2020-11-17T13:57:45Z</time>
      </trkpt>
      <trkpt lat="28.6323480" lon="-17.8082700">
        <ele>770.8</ele>
        <time>2020-11-17T13:57:46Z</time>
      </trkpt>
      <trkpt lat="28.6323480" lon="-17.8082700">
        <ele>770.8</ele>
        <time>2020-11-17T13:57:47Z</time>
      </trkpt>
      <trkpt lat="28.6323220" lon="-17.8082730">
        <ele>771.4</ele>
        <time>2020-11-17T13:57:48Z</time>
      </trkpt>
      <trkpt lat="28.6323220" lon="-17.8082730">
        <ele>771.4</ele>
        <time>2020-11-17T13:57:49Z</time>
      </trkpt>
      <trkpt lat="28.6322880" lon="-17.8082680">
        <ele>772.0</ele>
        <time>2020-11-17T13:57:50Z</time>
      </trkpt>
      <trkpt lat="28.6322700" lon="-17.8082670">
        <ele>771.9</ele>
        <time>2020-11-17T13:57:51Z</time>
      </trkpt>
      <trkpt lat="28.6322700" lon="-17.8082670">
        <ele>771.9</ele>
        <time>2020-11-17T13:57:52Z</time>
      </trkpt>
      <trkpt lat="28.6322430" lon="-17.8082570">
        <ele>771.6</ele>
        <time>2020-11-17T13:57:53Z</time>
      </trkpt>
      <trkpt lat="28.6322430" lon="-17.8082570">
        <ele>771.6</ele>
        <time>2020-11-17T13:57:54Z</time>
      </trkpt>
      <trkpt lat="28.6322320" lon="-17.8082330">
        <ele>771.3</ele>
        <time>2020-11-17T13:57:55Z</time>
      </trkpt>
      <trkpt lat="28.6322320" lon="-17.8082330">
        <ele>771.3</ele>
        <time>2020-11-17T13:57:56Z</time>
      </trkpt>
      <trkpt lat="28.6322750" lon="-17.8082050">
        <ele>770.7</ele>
        <time>2020-11-17T13:58:29Z</time>
      </trkpt>
      <trkpt lat="28.6323000" lon="-17.8081930">
        <ele>770.3</ele>
        <time>2020-11-17T13:58:30Z</time>
      </trkpt>
      <trkpt lat="28.6323000" lon="-17.8081930">
        <ele>770.3</ele>
        <time>2020-11-17T13:58:31Z</time>
      </trkpt>
      <trkpt lat="28.6323480" lon="-17.8081680">
        <ele>769.6</ele>
        <time>2020-11-17T13:58:32Z</time>
      </trkpt>
      <trkpt lat="28.6323480" lon="-17.8081680">
        <ele>769.6</ele>
        <time>2020-11-17T13:58:33Z</time>
      </trkpt>
      <trkpt lat="28.6323970" lon="-17.8081520">
        <ele>768.8</ele>
        <time>2020-11-17T13:58:34Z</time>
      </trkpt>
      <trkpt lat="28.6323970" lon="-17.8081520">
        <ele>768.8</ele>
        <time>2020-11-17T13:58:35Z</time>
      </trkpt>
      <trkpt lat="28.6324450" lon="-17.8081320">
        <ele>768.2</ele>
        <time>2020-11-17T13:58:36Z</time>
      </trkpt>
      <trkpt lat="28.6324450" lon="-17.8081320">
        <ele>768.2</ele>
        <time>2020-11-17T13:58:37Z</time>
      </trkpt>
      <trkpt lat="28.6324880" lon="-17.8081230">
        <ele>767.7</ele>
        <time>2020-11-17T13:58:38Z</time>
      </trkpt>
      <trkpt lat="28.6324880" lon="-17.8081230">
        <ele>767.7</ele>
        <time>2020-11-17T13:58:39Z</time>
      </trkpt>
      <trkpt lat="28.6325330" lon="-17.8081150">
        <ele>767.3</ele>
        <time>2020-11-17T13:58:40Z</time>
      </trkpt>
      <trkpt lat="28.6325530" lon="-17.8081100">
        <ele>767.1</ele>
        <time>2020-11-17T13:58:41Z</time>
      </trkpt>
      <trkpt lat="28.6325700" lon="-17.8081100">
        <ele>767.0</ele>
        <time>2020-11-17T13:58:42Z</time>
      </trkpt>
      <trkpt lat="28.6325700" lon="-17.8081100">
        <ele>767.0</ele>
        <time>2020-11-17T13:58:43Z</time>
      </trkpt>
      <trkpt lat="28.6326000" lon="-17.8081050">
        <ele>766.7</ele>
        <time>2020-11-17T13:58:44Z</time>
      </trkpt>
      <trkpt lat="28.6326000" lon="-17.8081050">
        <ele>766.7</ele>
        <time>2020-11-17T13:58:45Z</time>
      </trkpt>
      <trkpt lat="28.6326250" lon="-17.8081050">
        <ele>766.5</ele>
        <time>2020-11-17T13:58:46Z</time>
      </trkpt>
      <trkpt lat="28.6326250" lon="-17.8081050">
        <ele>766.5</ele>
        <time>2020-11-17T13:58:47Z</time>
      </trkpt>
      <trkpt lat="28.6326570" lon="-17.8081130">
        <ele>766.2</ele>
        <time>2020-11-17T13:58:48Z</time>
      </trkpt>
      <trkpt lat="28.6326570" lon="-17.8081130">
        <ele>766.2</ele>
        <time>2020-11-17T13:58:49Z</time>
      </trkpt>
      <trkpt lat="28.6327070" lon="-17.8081070">
        <ele>765.7</ele>
        <time>2020-11-17T13:58:50Z</time>
      </trkpt>
      <trkpt lat="28.6327070" lon="-17.8081070">
        <ele>765.7</ele>
        <time>2020-11-17T13:58:51Z</time>
      </trkpt>
      <trkpt lat="28.6327380" lon="-17.8080950">
        <ele>765.3</ele>
        <time>2020-11-17T13:58:52Z</time>
      </trkpt>
      <trkpt lat="28.6327570" lon="-17.8080920">
        <ele>765.1</ele>
        <time>2020-11-17T13:58:53Z</time>
      </trkpt>
      <trkpt lat="28.6327570" lon="-17.8080920">
        <ele>765.1</ele>
        <time>2020-11-17T13:58:54Z</time>
      </trkpt>
      <trkpt lat="28.6327930" lon="-17.8080880">
        <ele>764.7</ele>
        <time>2020-11-17T13:58:55Z</time>
      </trkpt>
      <trkpt lat="28.6327930" lon="-17.8080880">
        <ele>764.7</ele>
        <time>2020-11-17T13:58:56Z</time>
      </trkpt>
      <trkpt lat="28.6328380" lon="-17.8080700">
        <ele>764.0</ele>
        <time>2020-11-17T13:58:57Z</time>
      </trkpt>
      <trkpt lat="28.6328380" lon="-17.8080700">
        <ele>764.0</ele>
        <time>2020-11-17T13:58:58Z</time>
      </trkpt>
      <trkpt lat="28.6329370" lon="-17.8080200">
        <ele>762.4</ele>
        <time>2020-11-17T13:58:59Z</time>
      </trkpt>
      <trkpt lat="28.6329370" lon="-17.8080200">
        <ele>762.4</ele>
        <time>2020-11-17T13:59:00Z</time>
      </trkpt>
      <trkpt lat="28.6329850" lon="-17.8079930">
        <ele>761.6</ele>
        <time>2020-11-17T13:59:01Z</time>
      </trkpt>
      <trkpt lat="28.6329970" lon="-17.8079850">
        <ele>761.4</ele>
        <time>2020-11-17T13:59:02Z</time>
      </trkpt>
      <trkpt lat="28.6329970" lon="-17.8079850">
        <ele>761.4</ele>
        <time>2020-11-17T13:59:03Z</time>
      </trkpt>
      <trkpt lat="28.6330330" lon="-17.8079600">
        <ele>760.8</ele>
        <time>2020-11-17T13:59:04Z</time>
      </trkpt>
      <trkpt lat="28.6330330" lon="-17.8079600">
        <ele>760.8</ele>
        <time>2020-11-17T13:59:05Z</time>
      </trkpt>
      <trkpt lat="28.6330630" lon="-17.8079350">
        <ele>760.3</ele>
        <time>2020-11-17T13:59:06Z</time>
      </trkpt>
      <trkpt lat="28.6330630" lon="-17.8079350">
        <ele>760.3</ele>
        <time>2020-11-17T13:59:07Z</time>
      </trkpt>
      <trkpt lat="28.6330800" lon="-17.8079180">
        <ele>760.0</ele>
        <time>2020-11-17T13:59:08Z</time>
      </trkpt>
      <trkpt lat="28.6330870" lon="-17.8079150">
        <ele>759.9</ele>
        <time>2020-11-17T13:59:09Z</time>
      </trkpt>
      <trkpt lat="28.6330870" lon="-17.8079150">
        <ele>759.9</ele>
        <time>2020-11-17T13:59:10Z</time>
      </trkpt>
      <trkpt lat="28.6331100" lon="-17.8079130">
        <ele>759.5</ele>
        <time>2020-11-17T13:59:11Z</time>
      </trkpt>
      <trkpt lat="28.6331200" lon="-17.8079130">
        <ele>759.4</ele>
        <time>2020-11-17T13:59:12Z</time>
      </trkpt>
      <trkpt lat="28.6331200" lon="-17.8079130">
        <ele>759.4</ele>
        <time>2020-11-17T13:59:13Z</time>
      </trkpt>
      <trkpt lat="28.6331370" lon="-17.8079100">
        <ele>759.2</ele>
        <time>2020-11-17T13:59:14Z</time>
      </trkpt>
      <trkpt lat="28.6331450" lon="-17.8079120">
        <ele>759.0</ele>
        <time>2020-11-17T13:59:15Z</time>
      </trkpt>
      <trkpt lat="28.6331450" lon="-17.8079120">
        <ele>759.0</ele>
        <time>2020-11-17T13:59:16Z</time>
      </trkpt>
      <trkpt lat="28.6331620" lon="-17.8079050">
        <ele>758.8</ele>
        <time>2020-11-17T13:59:17Z</time>
      </trkpt>
      <trkpt lat="28.6331750" lon="-17.8079080">
        <ele>758.6</ele>
        <time>2020-11-17T13:59:18Z</time>
      </trkpt>
      <trkpt lat="28.6331750" lon="-17.8079080">
        <ele>758.6</ele>
        <time>2020-11-17T13:59:19Z</time>
      </trkpt>
      <trkpt lat="28.6332200" lon="-17.8079130">
        <ele>758.0</ele>
        <time>2020-11-17T13:59:20Z</time>
      </trkpt>
      <trkpt lat="28.6332200" lon="-17.8079130">
        <ele>758.0</ele>
        <time>2020-11-17T13:59:21Z</time>
      </trkpt>
      <trkpt lat="28.6332770" lon="-17.8079130">
        <ele>757.2</ele>
        <time>2020-11-17T13:59:22Z</time>
      </trkpt>
      <trkpt lat="28.6333080" lon="-17.8079200">
        <ele>756.8</ele>
        <time>2020-11-17T13:59:23Z</time>
      </trkpt>
      <trkpt lat="28.6333080" lon="-17.8079200">
        <ele>756.8</ele>
        <time>2020-11-17T13:59:24Z</time>
      </trkpt>
      <trkpt lat="28.6333570" lon="-17.8079420">
        <ele>756.2</ele>
        <time>2020-11-17T13:59:25Z</time>
      </trkpt>
      <trkpt lat="28.6333570" lon="-17.8079420">
        <ele>756.2</ele>
        <time>2020-11-17T13:59:26Z</time>
      </trkpt>
      <trkpt lat="28.6333900" lon="-17.8079670">
        <ele>755.7</ele>
        <time>2020-11-17T13:59:27Z</time>
      </trkpt>
      <trkpt lat="28.6333900" lon="-17.8079670">
        <ele>755.7</ele>
        <time>2020-11-17T13:59:28Z</time>
      </trkpt>
      <trkpt lat="28.6334150" lon="-17.8079850">
        <ele>755.3</ele>
        <time>2020-11-17T13:59:29Z</time>
      </trkpt>
      <trkpt lat="28.6334300" lon="-17.8079900">
        <ele>755.1</ele>
        <time>2020-11-17T13:59:30Z</time>
      </trkpt>
      <trkpt lat="28.6334320" lon="-17.8080020">
        <ele>755.0</ele>
        <time>2020-11-17T13:59:31Z</time>
      </trkpt>
      <trkpt lat="28.6334320" lon="-17.8080020">
        <ele>752.6</ele>
        <time>2020-11-17T13:59:32Z</time>
      </trkpt>
      <trkpt lat="28.6334600" lon="-17.8080130">
        <ele>752.1</ele>
        <time>2020-11-17T13:59:33Z</time>
      </trkpt>
      <trkpt lat="28.6334700" lon="-17.8080270">
        <ele>751.9</ele>
        <time>2020-11-17T13:59:34Z</time>
      </trkpt>
      <trkpt lat="28.6334700" lon="-17.8080270">
        <ele>751.9</ele>
        <time>2020-11-17T13:59:35Z</time>
      </trkpt>
      <trkpt lat="28.6334700" lon="-17.8080270">
        <ele>751.9</ele>
        <time>2020-11-17T13:59:36Z</time>
      </trkpt>
      <trkpt lat="28.6334850" lon="-17.8080580">
        <ele>751.5</ele>
        <time>2020-11-17T13:59:37Z</time>
      </trkpt>
      <trkpt lat="28.6335050" lon="-17.8080920">
        <ele>751.0</ele>
        <time>2020-11-17T13:59:38Z</time>
      </trkpt>
      <trkpt lat="28.6335050" lon="-17.8080920">
        <ele>751.0</ele>
        <time>2020-11-17T13:59:39Z</time>
      </trkpt>
      <trkpt lat="28.6335380" lon="-17.8081280">
        <ele>750.3</ele>
        <time>2020-11-17T13:59:40Z</time>
      </trkpt>
      <trkpt lat="28.6335550" lon="-17.8081400">
        <ele>750.0</ele>
        <time>2020-11-17T13:59:41Z</time>
      </trkpt>
      <trkpt lat="28.6335720" lon="-17.8081480">
        <ele>749.8</ele>
        <time>2020-11-17T13:59:42Z</time>
      </trkpt>
      <trkpt lat="28.6335720" lon="-17.8081480">
        <ele>749.8</ele>
        <time>2020-11-17T13:59:43Z</time>
      </trkpt>
      <trkpt lat="28.6336050" lon="-17.8081620">
        <ele>749.3</ele>
        <time>2020-11-17T13:59:44Z</time>
      </trkpt>
      <trkpt lat="28.6336050" lon="-17.8081620">
        <ele>749.3</ele>
        <time>2020-11-17T13:59:45Z</time>
      </trkpt>
      <trkpt lat="28.6336570" lon="-17.8081680">
        <ele>748.5</ele>
        <time>2020-11-17T13:59:46Z</time>
      </trkpt>
      <trkpt lat="28.6336830" lon="-17.8081600">
        <ele>748.1</ele>
        <time>2020-11-17T13:59:47Z</time>
      </trkpt>
      <trkpt lat="28.6337080" lon="-17.8081470">
        <ele>747.7</ele>
        <time>2020-11-17T13:59:48Z</time>
      </trkpt>
      <trkpt lat="28.6337080" lon="-17.8081470">
        <ele>747.7</ele>
        <time>2020-11-17T13:59:49Z</time>
      </trkpt>
      <trkpt lat="28.6337520" lon="-17.8081150">
        <ele>747.0</ele>
        <time>2020-11-17T13:59:50Z</time>
      </trkpt>
      <trkpt lat="28.6337520" lon="-17.8081150">
        <ele>747.0</ele>
        <time>2020-11-17T13:59:51Z</time>
      </trkpt>
      <trkpt lat="28.6337930" lon="-17.8080620">
        <ele>746.1</ele>
        <time>2020-11-17T13:59:52Z</time>
      </trkpt>
      <trkpt lat="28.6337930" lon="-17.8080620">
        <ele>746.1</ele>
        <time>2020-11-17T13:59:53Z</time>
      </trkpt>
      <trkpt lat="28.6338280" lon="-17.8080100">
        <ele>745.3</ele>
        <time>2020-11-17T13:59:54Z</time>
      </trkpt>
      <trkpt lat="28.6338280" lon="-17.8080100">
        <ele>745.3</ele>
        <time>2020-11-17T13:59:55Z</time>
      </trkpt>
      <trkpt lat="28.6338600" lon="-17.8079750">
        <ele>744.7</ele>
        <time>2020-11-17T13:59:56Z</time>
      </trkpt>
      <trkpt lat="28.6338600" lon="-17.8079750">
        <ele>744.7</ele>
        <time>2020-11-17T13:59:57Z</time>
      </trkpt>
      <trkpt lat="28.6338880" lon="-17.8079350">
        <ele>744.0</ele>
        <time>2020-11-17T13:59:58Z</time>
      </trkpt>
      <trkpt lat="28.6338880" lon="-17.8079350">
        <ele>744.0</ele>
        <time>2020-11-17T13:59:59Z</time>
      </trkpt>
      <trkpt lat="28.6338930" lon="-17.8078930">
        <ele>743.5</ele>
        <time>2020-11-17T14:00:00Z</time>
      </trkpt>
      <trkpt lat="28.6338930" lon="-17.8078930">
        <ele>743.5</ele>
        <time>2020-11-17T14:00:01Z</time>
      </trkpt>
      <trkpt lat="28.6339070" lon="-17.8078680">
        <ele>743.1</ele>
        <time>2020-11-17T14:00:02Z</time>
      </trkpt>
      <trkpt lat="28.6339230" lon="-17.8078520">
        <ele>742.8</ele>
        <time>2020-11-17T14:00:03Z</time>
      </trkpt>
      <trkpt lat="28.6339230" lon="-17.8078520">
        <ele>742.8</ele>
        <time>2020-11-17T14:00:04Z</time>
      </trkpt>
      <trkpt lat="28.6339570" lon="-17.8078220">
        <ele>742.2</ele>
        <time>2020-11-17T14:00:05Z</time>
      </trkpt>
      <trkpt lat="28.6339700" lon="-17.8078080">
        <ele>742.0</ele>
        <time>2020-11-17T14:00:06Z</time>
      </trkpt>
      <trkpt lat="28.6339700" lon="-17.8078080">
        <ele>742.0</ele>
        <time>2020-11-17T14:00:07Z</time>
      </trkpt>
      <trkpt lat="28.6339800" lon="-17.8077900">
        <ele>741.7</ele>
        <time>2020-11-17T14:00:08Z</time>
      </trkpt>
      <trkpt lat="28.6339820" lon="-17.8077850">
        <ele>741.6</ele>
        <time>2020-11-17T14:00:09Z</time>
      </trkpt>
      <trkpt lat="28.6339780" lon="-17.8077850">
        <ele>741.6</ele>
        <time>2020-11-17T14:00:10Z</time>
      </trkpt>
      <trkpt lat="28.6339780" lon="-17.8077850">
        <ele>741.6</ele>
        <time>2020-11-17T14:00:11Z</time>
      </trkpt>
      <trkpt lat="28.6339770" lon="-17.8077780">
        <ele>741.5</ele>
        <time>2020-11-17T14:00:12Z</time>
      </trkpt>
      <trkpt lat="28.6339770" lon="-17.8077780">
        <ele>741.5</ele>
        <time>2020-11-17T14:00:22Z</time>
      </trkpt>
      <trkpt lat="28.6340200" lon="-17.8077420">
        <ele>740.7</ele>
        <time>2020-11-17T14:00:23Z</time>
      </trkpt>
      <trkpt lat="28.6340250" lon="-17.8077350">
        <ele>740.6</ele>
        <time>2020-11-17T14:00:24Z</time>
      </trkpt>
      <trkpt lat="28.6340250" lon="-17.8077350">
        <ele>740.6</ele>
        <time>2020-11-17T14:00:25Z</time>
      </trkpt>
      <trkpt lat="28.6340350" lon="-17.8077180">
        <ele>740.4</ele>
        <time>2020-11-17T14:00:26Z</time>
      </trkpt>
      <trkpt lat="28.6340350" lon="-17.8077180">
        <ele>740.4</ele>
        <time>2020-11-17T14:00:27Z</time>
      </trkpt>
      <trkpt lat="28.6340520" lon="-17.8076980">
        <ele>740.0</ele>
        <time>2020-11-17T14:00:28Z</time>
      </trkpt>
      <trkpt lat="28.6340520" lon="-17.8076980">
        <ele>740.0</ele>
        <time>2020-11-17T14:00:29Z</time>
      </trkpt>
      <trkpt lat="28.6340770" lon="-17.8076780">
        <ele>739.6</ele>
        <time>2020-11-17T14:00:30Z</time>
      </trkpt>
      <trkpt lat="28.6340770" lon="-17.8076780">
        <ele>739.6</ele>
        <time>2020-11-17T14:00:31Z</time>
      </trkpt>
      <trkpt lat="28.6340820" lon="-17.8076530">
        <ele>739.2</ele>
        <time>2020-11-17T14:00:32Z</time>
      </trkpt>
      <trkpt lat="28.6340820" lon="-17.8076530">
        <ele>739.2</ele>
        <time>2020-11-17T14:00:33Z</time>
      </trkpt>
      <trkpt lat="28.6340900" lon="-17.8076230">
        <ele>738.9</ele>
        <time>2020-11-17T14:00:34Z</time>
      </trkpt>
      <trkpt lat="28.6340930" lon="-17.8076250">
        <ele>738.8</ele>
        <time>2020-11-17T14:00:35Z</time>
      </trkpt>
      <trkpt lat="28.6340930" lon="-17.8076220">
        <ele>738.8</ele>
        <time>2020-11-17T14:00:36Z</time>
      </trkpt>
      <trkpt lat="28.6340930" lon="-17.8076220">
        <ele>738.8</ele>
        <time>2020-11-17T14:00:37Z</time>
      </trkpt>
      <trkpt lat="28.6340930" lon="-17.8076220">
        <ele>738.8</ele>
        <time>2020-11-17T14:00:45Z</time>
      </trkpt>
      <trkpt lat="28.6341570" lon="-17.8075480">
        <ele>737.5</ele>
        <time>2020-11-17T14:00:46Z</time>
      </trkpt>
      <trkpt lat="28.6341570" lon="-17.8075480">
        <ele>737.5</ele>
        <time>2020-11-17T14:00:47Z</time>
      </trkpt>
      <trkpt lat="28.6341700" lon="-17.8075300">
        <ele>737.2</ele>
        <time>2020-11-17T14:00:48Z</time>
      </trkpt>
      <trkpt lat="28.6341700" lon="-17.8075300">
        <ele>737.2</ele>
        <time>2020-11-17T14:00:49Z</time>
      </trkpt>
      <trkpt lat="28.6341820" lon="-17.8075170">
        <ele>736.9</ele>
        <time>2020-11-17T14:00:50Z</time>
      </trkpt>
      <trkpt lat="28.6341820" lon="-17.8075170">
        <ele>736.9</ele>
        <time>2020-11-17T14:00:51Z</time>
      </trkpt>
      <trkpt lat="28.6342020" lon="-17.8074950">
        <ele>736.6</ele>
        <time>2020-11-17T14:00:52Z</time>
      </trkpt>
      <trkpt lat="28.6342020" lon="-17.8074950">
        <ele>736.6</ele>
        <time>2020-11-17T14:00:53Z</time>
      </trkpt>
      <trkpt lat="28.6342120" lon="-17.8074730">
        <ele>736.2</ele>
        <time>2020-11-17T14:00:54Z</time>
      </trkpt>
      <trkpt lat="28.6342120" lon="-17.8074730">
        <ele>736.2</ele>
        <time>2020-11-17T14:00:55Z</time>
      </trkpt>
      <trkpt lat="28.6342250" lon="-17.8074530">
        <ele>735.9</ele>
        <time>2020-11-17T14:00:56Z</time>
      </trkpt>
      <trkpt lat="28.6342280" lon="-17.8074430">
        <ele>735.8</ele>
        <time>2020-11-17T14:00:57Z</time>
      </trkpt>
      <trkpt lat="28.6342280" lon="-17.8074430">
        <ele>735.8</ele>
        <time>2020-11-17T14:00:58Z</time>
      </trkpt>
      <trkpt lat="28.6342430" lon="-17.8074250">
        <ele>735.5</ele>
        <time>2020-11-17T14:00:59Z</time>
      </trkpt>
      <trkpt lat="28.6342500" lon="-17.8074130">
        <ele>735.3</ele>
        <time>2020-11-17T14:01:00Z</time>
      </trkpt>
      <trkpt lat="28.6342500" lon="-17.8074130">
        <ele>735.3</ele>
        <time>2020-11-17T14:01:01Z</time>
      </trkpt>
      <trkpt lat="28.6342470" lon="-17.8073880">
        <ele>735.0</ele>
        <time>2020-11-17T14:01:02Z</time>
      </trkpt>
      <trkpt lat="28.6342550" lon="-17.8073780">
        <ele>734.8</ele>
        <time>2020-11-17T14:01:03Z</time>
      </trkpt>
      <trkpt lat="28.6342550" lon="-17.8073780">
        <ele>734.8</ele>
        <time>2020-11-17T14:01:04Z</time>
      </trkpt>
      <trkpt lat="28.6342650" lon="-17.8073630">
        <ele>734.6</ele>
        <time>2020-11-17T14:01:05Z</time>
      </trkpt>
      <trkpt lat="28.6342650" lon="-17.8073630">
        <ele>734.6</ele>
        <time>2020-11-17T14:01:06Z</time>
      </trkpt>
      <trkpt lat="28.6342750" lon="-17.8073400">
        <ele>734.3</ele>
        <time>2020-11-17T14:01:07Z</time>
      </trkpt>
      <trkpt lat="28.6342750" lon="-17.8073400">
        <ele>734.3</ele>
        <time>2020-11-17T14:01:08Z</time>
      </trkpt>
      <trkpt lat="28.6342830" lon="-17.8073130">
        <ele>733.9</ele>
        <time>2020-11-17T14:01:09Z</time>
      </trkpt>
      <trkpt lat="28.6342830" lon="-17.8073130">
        <ele>733.9</ele>
        <time>2020-11-17T14:01:10Z</time>
      </trkpt>
      <trkpt lat="28.6342950" lon="-17.8072880">
        <ele>733.6</ele>
        <time>2020-11-17T14:01:11Z</time>
      </trkpt>
      <trkpt lat="28.6343100" lon="-17.8072820">
        <ele>733.3</ele>
        <time>2020-11-17T14:01:12Z</time>
      </trkpt>
      <trkpt lat="28.6343100" lon="-17.8072820">
        <ele>733.3</ele>
        <time>2020-11-17T14:01:13Z</time>
      </trkpt>
      <trkpt lat="28.6343350" lon="-17.8072600">
        <ele>732.9</ele>
        <time>2020-11-17T14:01:14Z</time>
      </trkpt>
      <trkpt lat="28.6343500" lon="-17.8072450">
        <ele>732.6</ele>
        <time>2020-11-17T14:01:15Z</time>
      </trkpt>
      <trkpt lat="28.6343500" lon="-17.8072450">
        <ele>732.6</ele>
        <time>2020-11-17T14:01:16Z</time>
      </trkpt>
      <trkpt lat="28.6343700" lon="-17.8072200">
        <ele>732.2</ele>
        <time>2020-11-17T14:01:17Z</time>
      </trkpt>
      <trkpt lat="28.6343800" lon="-17.8072150">
        <ele>732.0</ele>
        <time>2020-11-17T14:01:18Z</time>
      </trkpt>
      <trkpt lat="28.6343800" lon="-17.8072150">
        <ele>732.0</ele>
        <time>2020-11-17T14:01:19Z</time>
      </trkpt>
      <trkpt lat="28.6343970" lon="-17.8072020">
        <ele>731.7</ele>
        <time>2020-11-17T14:01:20Z</time>
      </trkpt>
      <trkpt lat="28.6343970" lon="-17.8072020">
        <ele>731.7</ele>
        <time>2020-11-17T14:01:21Z</time>
      </trkpt>
      <trkpt lat="28.6344220" lon="-17.8071830">
        <ele>731.3</ele>
        <time>2020-11-17T14:01:22Z</time>
      </trkpt>
      <trkpt lat="28.6344350" lon="-17.8071780">
        <ele>731.1</ele>
        <time>2020-11-17T14:01:23Z</time>
      </trkpt>
      <trkpt lat="28.6344350" lon="-17.8071780">
        <ele>731.1</ele>
        <time>2020-11-17T14:01:24Z</time>
      </trkpt>
      <trkpt lat="28.6344570" lon="-17.8071730">
        <ele>730.8</ele>
        <time>2020-11-17T14:01:25Z</time>
      </trkpt>
      <trkpt lat="28.6344570" lon="-17.8071730">
        <ele>730.8</ele>
        <time>2020-11-17T14:01:26Z</time>
      </trkpt>
      <trkpt lat="28.6344800" lon="-17.8071700">
        <ele>730.5</ele>
        <time>2020-11-17T14:01:27Z</time>
      </trkpt>
      <trkpt lat="28.6344800" lon="-17.8071700">
        <ele>730.5</ele>
        <time>2020-11-17T14:01:28Z</time>
      </trkpt>
      <trkpt lat="28.6345000" lon="-17.8071650">
        <ele>730.2</ele>
        <time>2020-11-17T14:01:29Z</time>
      </trkpt>
      <trkpt lat="28.6345020" lon="-17.8071630">
        <ele>730.1</ele>
        <time>2020-11-17T14:01:30Z</time>
      </trkpt>
      <trkpt lat="28.6345020" lon="-17.8071630">
        <ele>730.1</ele>
        <time>2020-11-17T14:01:31Z</time>
      </trkpt>
      <trkpt lat="28.6345780" lon="-17.8071470">
        <ele>729.0</ele>
        <time>2020-11-17T14:01:38Z</time>
      </trkpt>
      <trkpt lat="28.6345780" lon="-17.8071470">
        <ele>729.0</ele>
        <time>2020-11-17T14:01:39Z</time>
      </trkpt>
      <trkpt lat="28.6346000" lon="-17.8071420">
        <ele>728.7</ele>
        <time>2020-11-17T14:01:40Z</time>
      </trkpt>
      <trkpt lat="28.6346000" lon="-17.8071420">
        <ele>728.7</ele>
        <time>2020-11-17T14:01:41Z</time>
      </trkpt>
      <trkpt lat="28.6346400" lon="-17.8071400">
        <ele>728.1</ele>
        <time>2020-11-17T14:01:42Z</time>
      </trkpt>
      <trkpt lat="28.6346400" lon="-17.8071400">
        <ele>728.1</ele>
        <time>2020-11-17T14:01:43Z</time>
      </trkpt>
      <trkpt lat="28.6346900" lon="-17.8071400">
        <ele>727.4</ele>
        <time>2020-11-17T14:01:44Z</time>
      </trkpt>
      <trkpt lat="28.6346900" lon="-17.8071400">
        <ele>727.4</ele>
        <time>2020-11-17T14:01:45Z</time>
      </trkpt>
      <trkpt lat="28.6347370" lon="-17.8071370">
        <ele>726.8</ele>
        <time>2020-11-17T14:01:46Z</time>
      </trkpt>
      <trkpt lat="28.6347370" lon="-17.8071370">
        <ele>726.8</ele>
        <time>2020-11-17T14:01:47Z</time>
      </trkpt>
      <trkpt lat="28.6347900" lon="-17.8071170">
        <ele>726.0</ele>
        <time>2020-11-17T14:01:48Z</time>
      </trkpt>
      <trkpt lat="28.6347900" lon="-17.8071170">
        <ele>726.0</ele>
        <time>2020-11-17T14:01:49Z</time>
      </trkpt>
      <trkpt lat="28.6348500" lon="-17.8070820">
        <ele>725.0</ele>
        <time>2020-11-17T14:01:50Z</time>
      </trkpt>
      <trkpt lat="28.6348500" lon="-17.8070820">
        <ele>725.0</ele>
        <time>2020-11-17T14:01:51Z</time>
      </trkpt>
      <trkpt lat="28.6349100" lon="-17.8070430">
        <ele>724.0</ele>
        <time>2020-11-17T14:01:52Z</time>
      </trkpt>
      <trkpt lat="28.6349430" lon="-17.8070230">
        <ele>723.5</ele>
        <time>2020-11-17T14:01:53Z</time>
      </trkpt>
      <trkpt lat="28.6349780" lon="-17.8070050">
        <ele>722.9</ele>
        <time>2020-11-17T14:01:54Z</time>
      </trkpt>
      <trkpt lat="28.6349780" lon="-17.8070050">
        <ele>722.9</ele>
        <time>2020-11-17T14:01:55Z</time>
      </trkpt>
      <trkpt lat="28.6350530" lon="-17.8069670">
        <ele>721.8</ele>
        <time>2020-11-17T14:01:56Z</time>
      </trkpt>
      <trkpt lat="28.6350530" lon="-17.8069670">
        <ele>721.8</ele>
        <time>2020-11-17T14:01:57Z</time>
      </trkpt>
      <trkpt lat="28.6351300" lon="-17.8069250">
        <ele>720.6</ele>
        <time>2020-11-17T14:01:58Z</time>
      </trkpt>
      <trkpt lat="28.6351300" lon="-17.8069250">
        <ele>720.6</ele>
        <time>2020-11-17T14:01:59Z</time>
      </trkpt>
      <trkpt lat="28.6352020" lon="-17.8068870">
        <ele>719.4</ele>
        <time>2020-11-17T14:02:00Z</time>
      </trkpt>
      <trkpt lat="28.6352020" lon="-17.8068870">
        <ele>719.4</ele>
        <time>2020-11-17T14:02:01Z</time>
      </trkpt>
      <trkpt lat="28.6352720" lon="-17.8068550">
        <ele>718.4</ele>
        <time>2020-11-17T14:02:02Z</time>
      </trkpt>
      <trkpt lat="28.6353080" lon="-17.8068450">
        <ele>717.8</ele>
        <time>2020-11-17T14:02:03Z</time>
      </trkpt>
      <trkpt lat="28.6353080" lon="-17.8068450">
        <ele>717.8</ele>
        <time>2020-11-17T14:02:04Z</time>
      </trkpt>
      <trkpt lat="28.6353780" lon="-17.8068380">
        <ele>716.8</ele>
        <time>2020-11-17T14:02:05Z</time>
      </trkpt>
      <trkpt lat="28.6354130" lon="-17.8068350">
        <ele>716.3</ele>
        <time>2020-11-17T14:02:06Z</time>
      </trkpt>
      <trkpt lat="28.6354130" lon="-17.8068350">
        <ele>716.3</ele>
        <time>2020-11-17T14:02:07Z</time>
      </trkpt>
      <trkpt lat="28.6354730" lon="-17.8068270">
        <ele>715.5</ele>
        <time>2020-11-17T14:02:08Z</time>
      </trkpt>
      <trkpt lat="28.6355020" lon="-17.8068230">
        <ele>715.1</ele>
        <time>2020-11-17T14:02:09Z</time>
      </trkpt>
      <trkpt lat="28.6355020" lon="-17.8068230">
        <ele>715.1</ele>
        <time>2020-11-17T14:02:10Z</time>
      </trkpt>
      <trkpt lat="28.6355600" lon="-17.8068220">
        <ele>714.2</ele>
        <time>2020-11-17T14:02:11Z</time>
      </trkpt>
      <trkpt lat="28.6355600" lon="-17.8068220">
        <ele>714.2</ele>
        <time>2020-11-17T14:02:12Z</time>
      </trkpt>
      <trkpt lat="28.6356030" lon="-17.8068230">
        <ele>713.6</ele>
        <time>2020-11-17T14:02:13Z</time>
      </trkpt>
      <trkpt lat="28.6356030" lon="-17.8068230">
        <ele>713.6</ele>
        <time>2020-11-17T14:02:14Z</time>
      </trkpt>
      <trkpt lat="28.6356380" lon="-17.8068250">
        <ele>713.1</ele>
        <time>2020-11-17T14:02:15Z</time>
      </trkpt>
      <trkpt lat="28.6356380" lon="-17.8068250">
        <ele>713.1</ele>
        <time>2020-11-17T14:02:16Z</time>
      </trkpt>
      <trkpt lat="28.6356780" lon="-17.8068180">
        <ele>712.5</ele>
        <time>2020-11-17T14:02:17Z</time>
      </trkpt>
      <trkpt lat="28.6356970" lon="-17.8068120">
        <ele>712.3</ele>
        <time>2020-11-17T14:02:18Z</time>
      </trkpt>
      <trkpt lat="28.6356970" lon="-17.8068120">
        <ele>712.3</ele>
        <time>2020-11-17T14:02:19Z</time>
      </trkpt>
      <trkpt lat="28.6357350" lon="-17.8067980">
        <ele>711.7</ele>
        <time>2020-11-17T14:02:20Z</time>
      </trkpt>
      <trkpt lat="28.6357350" lon="-17.8067980">
        <ele>711.7</ele>
        <time>2020-11-17T14:02:21Z</time>
      </trkpt>
      <trkpt lat="28.6357850" lon="-17.8067830">
        <ele>711.0</ele>
        <time>2020-11-17T14:02:22Z</time>
      </trkpt>
      <trkpt lat="28.6358170" lon="-17.8067750">
        <ele>710.5</ele>
        <time>2020-11-17T14:02:23Z</time>
      </trkpt>
      <trkpt lat="28.6358450" lon="-17.8067670">
        <ele>710.1</ele>
        <time>2020-11-17T14:02:24Z</time>
      </trkpt>
      <trkpt lat="28.6358450" lon="-17.8067670">
        <ele>710.1</ele>
        <time>2020-11-17T14:02:25Z</time>
      </trkpt>
      <trkpt lat="28.6359030" lon="-17.8067480">
        <ele>709.2</ele>
        <time>2020-11-17T14:02:26Z</time>
      </trkpt>
      <trkpt lat="28.6359320" lon="-17.8067380">
        <ele>708.8</ele>
        <time>2020-11-17T14:02:27Z</time>
      </trkpt>
      <trkpt lat="28.6359320" lon="-17.8067380">
        <ele>708.8</ele>
        <time>2020-11-17T14:02:28Z</time>
      </trkpt>
      <trkpt lat="28.6359750" lon="-17.8067250">
        <ele>708.2</ele>
        <time>2020-11-17T14:02:29Z</time>
      </trkpt>
      <trkpt lat="28.6359920" lon="-17.8067230">
        <ele>707.9</ele>
        <time>2020-11-17T14:02:30Z</time>
      </trkpt>
      <trkpt lat="28.6359920" lon="-17.8067230">
        <ele>707.9</ele>
        <time>2020-11-17T14:02:31Z</time>
      </trkpt>
      <trkpt lat="28.6360270" lon="-17.8067150">
        <ele>707.4</ele>
        <time>2020-11-17T14:02:32Z</time>
      </trkpt>
      <trkpt lat="28.6360270" lon="-17.8067150">
        <ele>707.4</ele>
        <time>2020-11-17T14:02:33Z</time>
      </trkpt>
      <trkpt lat="28.6360520" lon="-17.8067100">
        <ele>707.0</ele>
        <time>2020-11-17T14:02:34Z</time>
      </trkpt>
      <trkpt lat="28.6360670" lon="-17.8067030">
        <ele>706.8</ele>
        <time>2020-11-17T14:02:35Z</time>
      </trkpt>
      <trkpt lat="28.6360670" lon="-17.8067030">
        <ele>706.8</ele>
        <time>2020-11-17T14:02:36Z</time>
      </trkpt>
      <trkpt lat="28.6360980" lon="-17.8066720">
        <ele>706.2</ele>
        <time>2020-11-17T14:02:37Z</time>
      </trkpt>
      <trkpt lat="28.6360980" lon="-17.8066720">
        <ele>706.2</ele>
        <time>2020-11-17T14:02:38Z</time>
      </trkpt>
      <trkpt lat="28.6361300" lon="-17.8066370">
        <ele>705.6</ele>
        <time>2020-11-17T14:02:39Z</time>
      </trkpt>
      <trkpt lat="28.6361300" lon="-17.8066370">
        <ele>705.6</ele>
        <time>2020-11-17T14:02:40Z</time>
      </trkpt>
      <trkpt lat="28.6361650" lon="-17.8066070">
        <ele>705.0</ele>
        <time>2020-11-17T14:02:41Z</time>
      </trkpt>
      <trkpt lat="28.6361750" lon="-17.8065920">
        <ele>704.7</ele>
        <time>2020-11-17T14:02:42Z</time>
      </trkpt>
      <trkpt lat="28.6361750" lon="-17.8065920">
        <ele>704.7</ele>
        <time>2020-11-17T14:02:43Z</time>
      </trkpt>
      <trkpt lat="28.6362020" lon="-17.8065580">
        <ele>704.2</ele>
        <time>2020-11-17T14:02:44Z</time>
      </trkpt>
      <trkpt lat="28.6362020" lon="-17.8065580">
        <ele>704.2</ele>
        <time>2020-11-17T14:02:45Z</time>
      </trkpt>
      <trkpt lat="28.6362370" lon="-17.8065280">
        <ele>703.5</ele>
        <time>2020-11-17T14:02:46Z</time>
      </trkpt>
      <trkpt lat="28.6362570" lon="-17.8065050">
        <ele>703.1</ele>
        <time>2020-11-17T14:02:47Z</time>
      </trkpt>
      <trkpt lat="28.6362780" lon="-17.8064820">
        <ele>702.7</ele>
        <time>2020-11-17T14:02:48Z</time>
      </trkpt>
      <trkpt lat="28.6362780" lon="-17.8064820">
        <ele>702.7</ele>
        <time>2020-11-17T14:02:49Z</time>
      </trkpt>
      <trkpt lat="28.6363150" lon="-17.8064370">
        <ele>702.0</ele>
        <time>2020-11-17T14:02:50Z</time>
      </trkpt>
      <trkpt lat="28.6363150" lon="-17.8064370">
        <ele>702.0</ele>
        <time>2020-11-17T14:02:51Z</time>
      </trkpt>
      <trkpt lat="28.6363430" lon="-17.8063800">
        <ele>701.1</ele>
        <time>2020-11-17T14:02:52Z</time>
      </trkpt>
      <trkpt lat="28.6363570" lon="-17.8063550">
        <ele>700.8</ele>
        <time>2020-11-17T14:02:53Z</time>
      </trkpt>
      <trkpt lat="28.6363700" lon="-17.8063330">
        <ele>700.4</ele>
        <time>2020-11-17T14:02:54Z</time>
      </trkpt>
      <trkpt lat="28.6363700" lon="-17.8063330">
        <ele>700.4</ele>
        <time>2020-11-17T14:02:55Z</time>
      </trkpt>
      <trkpt lat="28.6363970" lon="-17.8062850">
        <ele>699.7</ele>
        <time>2020-11-17T14:02:56Z</time>
      </trkpt>
      <trkpt lat="28.6363970" lon="-17.8062850">
        <ele>699.7</ele>
        <time>2020-11-17T14:02:57Z</time>
      </trkpt>
      <trkpt lat="28.6364200" lon="-17.8062320">
        <ele>699.0</ele>
        <time>2020-11-17T14:02:58Z</time>
      </trkpt>
      <trkpt lat="28.6364200" lon="-17.8062320">
        <ele>699.0</ele>
        <time>2020-11-17T14:02:59Z</time>
      </trkpt>
      <trkpt lat="28.6364480" lon="-17.8061850">
        <ele>698.3</ele>
        <time>2020-11-17T14:03:00Z</time>
      </trkpt>
      <trkpt lat="28.6364480" lon="-17.8061850">
        <ele>698.3</ele>
        <time>2020-11-17T14:03:01Z</time>
      </trkpt>
      <trkpt lat="28.6364830" lon="-17.8061300">
        <ele>697.4</ele>
        <time>2020-11-17T14:03:02Z</time>
      </trkpt>
      <trkpt lat="28.6365030" lon="-17.8061050">
        <ele>697.0</ele>
        <time>2020-11-17T14:03:03Z</time>
      </trkpt>
      <trkpt lat="28.6365030" lon="-17.8061050">
        <ele>697.0</ele>
        <time>2020-11-17T14:03:04Z</time>
      </trkpt>
      <trkpt lat="28.6365550" lon="-17.8060630">
        <ele>696.1</ele>
        <time>2020-11-17T14:03:05Z</time>
      </trkpt>
      <trkpt lat="28.6365550" lon="-17.8060630">
        <ele>696.1</ele>
        <time>2020-11-17T14:03:06Z</time>
      </trkpt>
      <trkpt lat="28.6366050" lon="-17.8060280">
        <ele>695.3</ele>
        <time>2020-11-17T14:03:07Z</time>
      </trkpt>
      <trkpt lat="28.6366050" lon="-17.8060280">
        <ele>695.3</ele>
        <time>2020-11-17T14:03:08Z</time>
      </trkpt>
      <trkpt lat="28.6366450" lon="-17.8059950">
        <ele>694.6</ele>
        <time>2020-11-17T14:03:09Z</time>
      </trkpt>
      <trkpt lat="28.6366450" lon="-17.8059950">
        <ele>694.6</ele>
        <time>2020-11-17T14:03:10Z</time>
      </trkpt>
      <trkpt lat="28.6366920" lon="-17.8059580">
        <ele>693.8</ele>
        <time>2020-11-17T14:03:11Z</time>
      </trkpt>
      <trkpt lat="28.6367120" lon="-17.8059370">
        <ele>693.4</ele>
        <time>2020-11-17T14:03:12Z</time>
      </trkpt>
      <trkpt lat="28.6367120" lon="-17.8059370">
        <ele>693.4</ele>
        <time>2020-11-17T14:03:13Z</time>
      </trkpt>
      <trkpt lat="28.6367470" lon="-17.8059170">
        <ele>692.8</ele>
        <time>2020-11-17T14:03:14Z</time>
      </trkpt>
      <trkpt lat="28.6367470" lon="-17.8059170">
        <ele>692.8</ele>
        <time>2020-11-17T14:03:15Z</time>
      </trkpt>
      <trkpt lat="28.6367780" lon="-17.8058870">
        <ele>692.2</ele>
        <time>2020-11-17T14:03:16Z</time>
      </trkpt>
      <trkpt lat="28.6367920" lon="-17.8058750">
        <ele>692.0</ele>
        <time>2020-11-17T14:03:17Z</time>
      </trkpt>
      <trkpt lat="28.6368120" lon="-17.8058630">
        <ele>691.7</ele>
        <time>2020-11-17T14:03:18Z</time>
      </trkpt>
      <trkpt lat="28.6368120" lon="-17.8058630">
        <ele>691.7</ele>
        <time>2020-11-17T14:03:19Z</time>
      </trkpt>
      <trkpt lat="28.6368520" lon="-17.8058430">
        <ele>691.0</ele>
        <time>2020-11-17T14:03:20Z</time>
      </trkpt>
      <trkpt lat="28.6368520" lon="-17.8058430">
        <ele>691.0</ele>
        <time>2020-11-17T14:03:21Z</time>
      </trkpt>
      <trkpt lat="28.6368800" lon="-17.8058250">
        <ele>690.6</ele>
        <time>2020-11-17T14:03:22Z</time>
      </trkpt>
      <trkpt lat="28.6368800" lon="-17.8058250">
        <ele>690.6</ele>
        <time>2020-11-17T14:03:23Z</time>
      </trkpt>
      <trkpt lat="28.6369070" lon="-17.8058080">
        <ele>690.1</ele>
        <time>2020-11-17T14:03:24Z</time>
      </trkpt>
      <trkpt lat="28.6369070" lon="-17.8058080">
        <ele>690.1</ele>
        <time>2020-11-17T14:03:25Z</time>
      </trkpt>
      <trkpt lat="28.6369420" lon="-17.8057850">
        <ele>689.6</ele>
        <time>2020-11-17T14:03:26Z</time>
      </trkpt>
      <trkpt lat="28.6369580" lon="-17.8057730">
        <ele>689.3</ele>
        <time>2020-11-17T14:03:27Z</time>
      </trkpt>
      <trkpt lat="28.6369580" lon="-17.8057730">
        <ele>689.3</ele>
        <time>2020-11-17T14:03:28Z</time>
      </trkpt>
      <trkpt lat="28.6370020" lon="-17.8057350">
        <ele>688.5</ele>
        <time>2020-11-17T14:03:29Z</time>
      </trkpt>
      <trkpt lat="28.6370230" lon="-17.8057120">
        <ele>688.1</ele>
        <time>2020-11-17T14:03:30Z</time>
      </trkpt>
      <trkpt lat="28.6370450" lon="-17.8056920">
        <ele>687.7</ele>
        <time>2020-11-17T14:03:31Z</time>
      </trkpt>
      <trkpt lat="28.6370450" lon="-17.8056920">
        <ele>687.7</ele>
        <time>2020-11-17T14:03:32Z</time>
      </trkpt>
      <trkpt lat="28.6370930" lon="-17.8056450">
        <ele>686.8</ele>
        <time>2020-11-17T14:03:33Z</time>
      </trkpt>
      <trkpt lat="28.6371230" lon="-17.8056180">
        <ele>686.2</ele>
        <time>2020-11-17T14:03:34Z</time>
      </trkpt>
      <trkpt lat="28.6371230" lon="-17.8056180">
        <ele>686.2</ele>
        <time>2020-11-17T14:03:35Z</time>
      </trkpt>
      <trkpt lat="28.6371850" lon="-17.8055650">
        <ele>685.1</ele>
        <time>2020-11-17T14:03:36Z</time>
      </trkpt>
      <trkpt lat="28.6372120" lon="-17.8055420">
        <ele>684.7</ele>
        <time>2020-11-17T14:03:37Z</time>
      </trkpt>
      <trkpt lat="28.6372500" lon="-17.8055170">
        <ele>684.0</ele>
        <time>2020-11-17T14:03:38Z</time>
      </trkpt>
      <trkpt lat="28.6372500" lon="-17.8055170">
        <ele>684.0</ele>
        <time>2020-11-17T14:03:39Z</time>
      </trkpt>
      <trkpt lat="28.6373370" lon="-17.8054700">
        <ele>682.7</ele>
        <time>2020-11-17T14:03:40Z</time>
      </trkpt>
      <trkpt lat="28.6373820" lon="-17.8054480">
        <ele>682.0</ele>
        <time>2020-11-17T14:03:41Z</time>
      </trkpt>
      <trkpt lat="28.6373820" lon="-17.8054480">
        <ele>682.0</ele>
        <time>2020-11-17T14:03:42Z</time>
      </trkpt>
      <trkpt lat="28.6374630" lon="-17.8053930">
        <ele>680.6</ele>
        <time>2020-11-17T14:03:43Z</time>
      </trkpt>
      <trkpt lat="28.6374630" lon="-17.8053930">
        <ele>680.6</ele>
        <time>2020-11-17T14:03:44Z</time>
      </trkpt>
      <trkpt lat="28.6375450" lon="-17.8053450">
        <ele>679.3</ele>
        <time>2020-11-17T14:03:45Z</time>
      </trkpt>
      <trkpt lat="28.6375750" lon="-17.8053130">
        <ele>678.7</ele>
        <time>2020-11-17T14:03:46Z</time>
      </trkpt>
      <trkpt lat="28.6375750" lon="-17.8053130">
        <ele>678.7</ele>
        <time>2020-11-17T14:03:47Z</time>
      </trkpt>
      <trkpt lat="28.6376270" lon="-17.8052280">
        <ele>677.4</ele>
        <time>2020-11-17T14:03:48Z</time>
      </trkpt>
      <trkpt lat="28.6376270" lon="-17.8052280">
        <ele>677.4</ele>
        <time>2020-11-17T14:03:49Z</time>
      </trkpt>
      <trkpt lat="28.6376780" lon="-17.8051330">
        <ele>676.1</ele>
        <time>2020-11-17T14:03:50Z</time>
      </trkpt>
      <trkpt lat="28.6376780" lon="-17.8051330">
        <ele>676.1</ele>
        <time>2020-11-17T14:03:51Z</time>
      </trkpt>
      <trkpt lat="28.6377420" lon="-17.8050520">
        <ele>674.7</ele>
        <time>2020-11-17T14:03:52Z</time>
      </trkpt>
      <trkpt lat="28.6377420" lon="-17.8050520">
        <ele>674.7</ele>
        <time>2020-11-17T14:03:53Z</time>
      </trkpt>
      <trkpt lat="28.6378150" lon="-17.8049720">
        <ele>673.2</ele>
        <time>2020-11-17T14:03:54Z</time>
      </trkpt>
      <trkpt lat="28.6378150" lon="-17.8049720">
        <ele>673.2</ele>
        <time>2020-11-17T14:03:55Z</time>
      </trkpt>
      <trkpt lat="28.6379120" lon="-17.8048870">
        <ele>671.5</ele>
        <time>2020-11-17T14:03:56Z</time>
      </trkpt>
      <trkpt lat="28.6379600" lon="-17.8048430">
        <ele>670.6</ele>
        <time>2020-11-17T14:03:57Z</time>
      </trkpt>
      <trkpt lat="28.6379600" lon="-17.8048430">
        <ele>670.6</ele>
        <time>2020-11-17T14:03:58Z</time>
      </trkpt>
      <trkpt lat="28.6380580" lon="-17.8047520">
        <ele>668.8</ele>
        <time>2020-11-17T14:03:59Z</time>
      </trkpt>
      <trkpt lat="28.6380580" lon="-17.8047520">
        <ele>668.8</ele>
        <time>2020-11-17T14:04:00Z</time>
      </trkpt>
      <trkpt lat="28.6381500" lon="-17.8046550">
        <ele>667.0</ele>
        <time>2020-11-17T14:04:01Z</time>
      </trkpt>
      <trkpt lat="28.6381500" lon="-17.8046550">
        <ele>667.0</ele>
        <time>2020-11-17T14:04:02Z</time>
      </trkpt>
      <trkpt lat="28.6382520" lon="-17.8045520">
        <ele>665.5</ele>
        <time>2020-11-17T14:04:03Z</time>
      </trkpt>
      <trkpt lat="28.6382520" lon="-17.8045520">
        <ele>665.5</ele>
        <time>2020-11-17T14:04:04Z</time>
      </trkpt>
      <trkpt lat="28.6383680" lon="-17.8044780">
        <ele>663.6</ele>
        <time>2020-11-17T14:04:05Z</time>
      </trkpt>
      <trkpt lat="28.6384270" lon="-17.8044600">
        <ele>662.7</ele>
        <time>2020-11-17T14:04:06Z</time>
      </trkpt>
      <trkpt lat="28.6384270" lon="-17.8044600">
        <ele>662.7</ele>
        <time>2020-11-17T14:04:07Z</time>
      </trkpt>
      <trkpt lat="28.6385470" lon="-17.8044030">
        <ele>660.7</ele>
        <time>2020-11-17T14:04:08Z</time>
      </trkpt>
      <trkpt lat="28.6386080" lon="-17.8043630">
        <ele>659.7</ele>
        <time>2020-11-17T14:04:09Z</time>
      </trkpt>
      <trkpt lat="28.6386080" lon="-17.8043630">
        <ele>659.7</ele>
        <time>2020-11-17T14:04:10Z</time>
      </trkpt>
      <trkpt lat="28.6387280" lon="-17.8042870">
        <ele>657.9</ele>
        <time>2020-11-17T14:04:11Z</time>
      </trkpt>
      <trkpt lat="28.6387900" lon="-17.8042530">
        <ele>656.9</ele>
        <time>2020-11-17T14:04:12Z</time>
      </trkpt>
      <trkpt lat="28.6387900" lon="-17.8042530">
        <ele>656.9</ele>
        <time>2020-11-17T14:04:13Z</time>
      </trkpt>
      <trkpt lat="28.6389150" lon="-17.8042030">
        <ele>655.0</ele>
        <time>2020-11-17T14:04:14Z</time>
      </trkpt>
      <trkpt lat="28.6389150" lon="-17.8042030">
        <ele>655.0</ele>
        <time>2020-11-17T14:04:15Z</time>
      </trkpt>
      <trkpt lat="28.6390370" lon="-17.8041780">
        <ele>653.3</ele>
        <time>2020-11-17T14:04:16Z</time>
      </trkpt>
      <trkpt lat="28.6390370" lon="-17.8041780">
        <ele>653.3</ele>
        <time>2020-11-17T14:04:17Z</time>
      </trkpt>
      <trkpt lat="28.6391570" lon="-17.8041480">
        <ele>651.8</ele>
        <time>2020-11-17T14:04:18Z</time>
      </trkpt>
      <trkpt lat="28.6391570" lon="-17.8041480">
        <ele>651.8</ele>
        <time>2020-11-17T14:04:19Z</time>
      </trkpt>
      <trkpt lat="28.6392600" lon="-17.8041030">
        <ele>650.3</ele>
        <time>2020-11-17T14:04:20Z</time>
      </trkpt>
      <trkpt lat="28.6393050" lon="-17.8040730">
        <ele>649.5</ele>
        <time>2020-11-17T14:04:21Z</time>
      </trkpt>
      <trkpt lat="28.6393430" lon="-17.8040430">
        <ele>648.6</ele>
        <time>2020-11-17T14:04:22Z</time>
      </trkpt>
      <trkpt lat="28.6393430" lon="-17.8040430">
        <ele>648.6</ele>
        <time>2020-11-17T14:04:23Z</time>
      </trkpt>
      <trkpt lat="28.6393680" lon="-17.8039930">
        <ele>647.9</ele>
        <time>2020-11-17T14:04:24Z</time>
      </trkpt>
      <trkpt lat="28.6393680" lon="-17.8039930">
        <ele>647.9</ele>
        <time>2020-11-17T14:04:25Z</time>
      </trkpt>
      <trkpt lat="28.6393720" lon="-17.8039750">
        <ele>647.7</ele>
        <time>2020-11-17T14:04:26Z</time>
      </trkpt>
      <trkpt lat="28.6393720" lon="-17.8039750">
        <ele>647.7</ele>
        <time>2020-11-17T14:04:27Z</time>
      </trkpt>
      <trkpt lat="28.6393700" lon="-17.8039730">
        <ele>647.7</ele>
        <time>2020-11-17T14:04:28Z</time>
      </trkpt>
      <trkpt lat="28.6393700" lon="-17.8039730">
        <ele>647.7</ele>
        <time>2020-11-17T14:04:37Z</time>
      </trkpt>
      <trkpt lat="28.6394420" lon="-17.8040470">
        <ele>646.1</ele>
        <time>2020-11-17T14:04:38Z</time>
      </trkpt>
      <trkpt lat="28.6394420" lon="-17.8040470">
        <ele>646.1</ele>
        <time>2020-11-17T14:04:39Z</time>
      </trkpt>
      <trkpt lat="28.6394830" lon="-17.8040520">
        <ele>645.5</ele>
        <time>2020-11-17T14:04:40Z</time>
      </trkpt>
      <trkpt lat="28.6394830" lon="-17.8040520">
        <ele>645.5</ele>
        <time>2020-11-17T14:04:41Z</time>
      </trkpt>
      <trkpt lat="28.6395420" lon="-17.8040300">
        <ele>644.5</ele>
        <time>2020-11-17T14:04:42Z</time>
      </trkpt>
      <trkpt lat="28.6395420" lon="-17.8040300">
        <ele>644.5</ele>
        <time>2020-11-17T14:04:43Z</time>
      </trkpt>
      <trkpt lat="28.6395420" lon="-17.8040300">
        <ele>644.5</ele>
        <time>2020-11-17T14:04:44Z</time>
      </trkpt>
      <trkpt lat="28.6396170" lon="-17.8039670">
        <ele>643.3</ele>
        <time>2020-11-17T14:04:45Z</time>
      </trkpt>
      <trkpt lat="28.6396370" lon="-17.8039520">
        <ele>643.0</ele>
        <time>2020-11-17T14:04:46Z</time>
      </trkpt>
      <trkpt lat="28.6396370" lon="-17.8039520">
        <ele>643.0</ele>
        <time>2020-11-17T14:04:47Z</time>
      </trkpt>
      <trkpt lat="28.6396780" lon="-17.8039250">
        <ele>642.4</ele>
        <time>2020-11-17T14:04:48Z</time>
      </trkpt>
      <trkpt lat="28.6397000" lon="-17.8039100">
        <ele>642.1</ele>
        <time>2020-11-17T14:04:49Z</time>
      </trkpt>
      <trkpt lat="28.6397000" lon="-17.8039100">
        <ele>642.1</ele>
        <time>2020-11-17T14:04:50Z</time>
      </trkpt>
      <trkpt lat="28.6397570" lon="-17.8038870">
        <ele>641.4</ele>
        <time>2020-11-17T14:04:51Z</time>
      </trkpt>
      <trkpt lat="28.6397570" lon="-17.8038870">
        <ele>641.4</ele>
        <time>2020-11-17T14:04:52Z</time>
      </trkpt>
      <trkpt lat="28.6398120" lon="-17.8038820">
        <ele>640.7</ele>
        <time>2020-11-17T14:04:53Z</time>
      </trkpt>
      <trkpt lat="28.6398420" lon="-17.8038770">
        <ele>640.4</ele>
        <time>2020-11-17T14:04:54Z</time>
      </trkpt>
      <trkpt lat="28.6398420" lon="-17.8038770">
        <ele>640.4</ele>
        <time>2020-11-17T14:04:55Z</time>
      </trkpt>
      <trkpt lat="28.6399020" lon="-17.8038650">
        <ele>639.7</ele>
        <time>2020-11-17T14:04:56Z</time>
      </trkpt>
      <trkpt lat="28.6399020" lon="-17.8038650">
        <ele>639.7</ele>
        <time>2020-11-17T14:04:57Z</time>
      </trkpt>
      <trkpt lat="28.6399420" lon="-17.8038550">
        <ele>639.2</ele>
        <time>2020-11-17T14:04:58Z</time>
      </trkpt>
      <trkpt lat="28.6399420" lon="-17.8038550">
        <ele>639.2</ele>
        <time>2020-11-17T14:04:59Z</time>
      </trkpt>
      <trkpt lat="28.6399870" lon="-17.8038420">
        <ele>638.6</ele>
        <time>2020-11-17T14:05:00Z</time>
      </trkpt>
      <trkpt lat="28.6399870" lon="-17.8038420">
        <ele>638.6</ele>
        <time>2020-11-17T14:05:01Z</time>
      </trkpt>
      <trkpt lat="28.6400230" lon="-17.8038330">
        <ele>638.1</ele>
        <time>2020-11-17T14:05:02Z</time>
      </trkpt>
      <trkpt lat="28.6400420" lon="-17.8038270">
        <ele>637.8</ele>
        <time>2020-11-17T14:05:03Z</time>
      </trkpt>
      <trkpt lat="28.6400420" lon="-17.8038270">
        <ele>637.8</ele>
        <time>2020-11-17T14:05:04Z</time>
      </trkpt>
      <trkpt lat="28.6400420" lon="-17.8038270">
        <ele>637.8</ele>
        <time>2020-11-17T14:05:05Z</time>
      </trkpt>
      <trkpt lat="28.6400820" lon="-17.8038230">
        <ele>637.2</ele>
        <time>2020-11-17T14:05:06Z</time>
      </trkpt>
      <trkpt lat="28.6401300" lon="-17.8038100">
        <ele>636.2</ele>
        <time>2020-11-17T14:05:07Z</time>
      </trkpt>
      <trkpt lat="28.6401300" lon="-17.8038100">
        <ele>636.2</ele>
        <time>2020-11-17T14:05:08Z</time>
      </trkpt>
      <trkpt lat="28.6401870" lon="-17.8037900">
        <ele>635.0</ele>
        <time>2020-11-17T14:05:09Z</time>
      </trkpt>
      <trkpt lat="28.6402150" lon="-17.8037820">
        <ele>634.4</ele>
        <time>2020-11-17T14:05:10Z</time>
      </trkpt>
      <trkpt lat="28.6402150" lon="-17.8037820">
        <ele>634.4</ele>
        <time>2020-11-17T14:05:11Z</time>
      </trkpt>
      <trkpt lat="28.6402670" lon="-17.8037530">
        <ele>633.4</ele>
        <time>2020-11-17T14:05:12Z</time>
      </trkpt>
      <trkpt lat="28.6402670" lon="-17.8037530">
        <ele>633.4</ele>
        <time>2020-11-17T14:05:13Z</time>
      </trkpt>
      <trkpt lat="28.6403050" lon="-17.8037150">
        <ele>632.7</ele>
        <time>2020-11-17T14:05:14Z</time>
      </trkpt>
      <trkpt lat="28.6403050" lon="-17.8037150">
        <ele>632.7</ele>
        <time>2020-11-17T14:05:15Z</time>
      </trkpt>
      <trkpt lat="28.6403420" lon="-17.8036770">
        <ele>632.0</ele>
        <time>2020-11-17T14:05:16Z</time>
      </trkpt>
      <trkpt lat="28.6403680" lon="-17.8036580">
        <ele>631.6</ele>
        <time>2020-11-17T14:05:17Z</time>
      </trkpt>
      <trkpt lat="28.6403680" lon="-17.8036580">
        <ele>631.6</ele>
        <time>2020-11-17T14:05:18Z</time>
      </trkpt>
      <trkpt lat="28.6404350" lon="-17.8036180">
        <ele>630.8</ele>
        <time>2020-11-17T14:05:19Z</time>
      </trkpt>
      <trkpt lat="28.6404350" lon="-17.8036180">
        <ele>630.8</ele>
        <time>2020-11-17T14:05:20Z</time>
      </trkpt>
      <trkpt lat="28.6405000" lon="-17.8035780">
        <ele>630.0</ele>
        <time>2020-11-17T14:05:21Z</time>
      </trkpt>
      <trkpt lat="28.6405000" lon="-17.8035780">
        <ele>630.0</ele>
        <time>2020-11-17T14:05:22Z</time>
      </trkpt>
      <trkpt lat="28.6405630" lon="-17.8035470">
        <ele>629.3</ele>
        <time>2020-11-17T14:05:23Z</time>
      </trkpt>
      <trkpt lat="28.6405900" lon="-17.8035300">
        <ele>629.0</ele>
        <time>2020-11-17T14:05:24Z</time>
      </trkpt>
      <trkpt lat="28.6405900" lon="-17.8035300">
        <ele>629.0</ele>
        <time>2020-11-17T14:05:25Z</time>
      </trkpt>
      <trkpt lat="28.6406300" lon="-17.8035000">
        <ele>628.6</ele>
        <time>2020-11-17T14:05:26Z</time>
      </trkpt>
      <trkpt lat="28.6406300" lon="-17.8035000">
        <ele>628.6</ele>
        <time>2020-11-17T14:05:27Z</time>
      </trkpt>
      <trkpt lat="28.6406580" lon="-17.8034670">
        <ele>628.2</ele>
        <time>2020-11-17T14:05:28Z</time>
      </trkpt>
      <trkpt lat="28.6406580" lon="-17.8034670">
        <ele>628.2</ele>
        <time>2020-11-17T14:05:29Z</time>
      </trkpt>
      <trkpt lat="28.6406830" lon="-17.8034270">
        <ele>627.6</ele>
        <time>2020-11-17T14:05:30Z</time>
      </trkpt>
      <trkpt lat="28.6406830" lon="-17.8034270">
        <ele>627.6</ele>
        <time>2020-11-17T14:05:31Z</time>
      </trkpt>
      <trkpt lat="28.6407100" lon="-17.8033930">
        <ele>627.1</ele>
        <time>2020-11-17T14:05:32Z</time>
      </trkpt>
      <trkpt lat="28.6407100" lon="-17.8033930">
        <ele>627.1</ele>
        <time>2020-11-17T14:05:33Z</time>
      </trkpt>
      <trkpt lat="28.6407330" lon="-17.8033680">
        <ele>626.6</ele>
        <time>2020-11-17T14:05:34Z</time>
      </trkpt>
      <trkpt lat="28.6407400" lon="-17.8033570">
        <ele>626.4</ele>
        <time>2020-11-17T14:05:35Z</time>
      </trkpt>
      <trkpt lat="28.6407400" lon="-17.8033570">
        <ele>626.4</ele>
        <time>2020-11-17T14:05:36Z</time>
      </trkpt>
      <trkpt lat="28.6407400" lon="-17.8033570">
        <ele>626.4</ele>
        <time>2020-11-17T14:05:37Z</time>
      </trkpt>
      <trkpt lat="28.6407680" lon="-17.8033130">
        <ele>625.6</ele>
        <time>2020-11-17T14:05:38Z</time>
      </trkpt>
      <trkpt lat="28.6407680" lon="-17.8033130">
        <ele>625.6</ele>
        <time>2020-11-17T14:05:39Z</time>
      </trkpt>
      <trkpt lat="28.6407930" lon="-17.8032800">
        <ele>624.9</ele>
        <time>2020-11-17T14:05:40Z</time>
      </trkpt>
      <trkpt lat="28.6408080" lon="-17.8032630">
        <ele>624.5</ele>
        <time>2020-11-17T14:05:41Z</time>
      </trkpt>
      <trkpt lat="28.6408230" lon="-17.8032500">
        <ele>624.2</ele>
        <time>2020-11-17T14:05:42Z</time>
      </trkpt>
      <trkpt lat="28.6408230" lon="-17.8032500">
        <ele>624.2</ele>
        <time>2020-11-17T14:05:43Z</time>
      </trkpt>
      <trkpt lat="28.6408520" lon="-17.8032200">
        <ele>623.4</ele>
        <time>2020-11-17T14:05:44Z</time>
      </trkpt>
      <trkpt lat="28.6408520" lon="-17.8032200">
        <ele>623.4</ele>
        <time>2020-11-17T14:05:45Z</time>
      </trkpt>
      <trkpt lat="28.6408770" lon="-17.8031880">
        <ele>622.7</ele>
        <time>2020-11-17T14:05:46Z</time>
      </trkpt>
      <trkpt lat="28.6408770" lon="-17.8031880">
        <ele>622.7</ele>
        <time>2020-11-17T14:05:47Z</time>
      </trkpt>
      <trkpt lat="28.6408970" lon="-17.8031580">
        <ele>622.1</ele>
        <time>2020-11-17T14:05:48Z</time>
      </trkpt>
      <trkpt lat="28.6408970" lon="-17.8031580">
        <ele>622.1</ele>
        <time>2020-11-17T14:05:49Z</time>
      </trkpt>
      <trkpt lat="28.6409170" lon="-17.8031330">
        <ele>621.6</ele>
        <time>2020-11-17T14:05:50Z</time>
      </trkpt>
      <trkpt lat="28.6409170" lon="-17.8031330">
        <ele>621.6</ele>
        <time>2020-11-17T14:05:51Z</time>
      </trkpt>
      <trkpt lat="28.6409420" lon="-17.8031080">
        <ele>620.9</ele>
        <time>2020-11-17T14:05:52Z</time>
      </trkpt>
      <trkpt lat="28.6409420" lon="-17.8031080">
        <ele>620.9</ele>
        <time>2020-11-17T14:05:53Z</time>
      </trkpt>
      <trkpt lat="28.6409720" lon="-17.8030720">
        <ele>620.0</ele>
        <time>2020-11-17T14:05:54Z</time>
      </trkpt>
      <trkpt lat="28.6409720" lon="-17.8030720">
        <ele>620.0</ele>
        <time>2020-11-17T14:05:55Z</time>
      </trkpt>
      <trkpt lat="28.6409880" lon="-17.8030420">
        <ele>619.4</ele>
        <time>2020-11-17T14:05:56Z</time>
      </trkpt>
      <trkpt lat="28.6409880" lon="-17.8030420">
        <ele>619.4</ele>
        <time>2020-11-17T14:05:57Z</time>
      </trkpt>
      <trkpt lat="28.6410120" lon="-17.8030080">
        <ele>618.6</ele>
        <time>2020-11-17T14:05:58Z</time>
      </trkpt>
      <trkpt lat="28.6410120" lon="-17.8030080">
        <ele>618.6</ele>
        <time>2020-11-17T14:05:59Z</time>
      </trkpt>
      <trkpt lat="28.6410380" lon="-17.8029630">
        <ele>617.7</ele>
        <time>2020-11-17T14:06:00Z</time>
      </trkpt>
      <trkpt lat="28.6410380" lon="-17.8029630">
        <ele>617.7</ele>
        <time>2020-11-17T14:06:01Z</time>
      </trkpt>
      <trkpt lat="28.6410650" lon="-17.8029130">
        <ele>616.8</ele>
        <time>2020-11-17T14:06:02Z</time>
      </trkpt>
      <trkpt lat="28.6410650" lon="-17.8029130">
        <ele>616.8</ele>
        <time>2020-11-17T14:06:03Z</time>
      </trkpt>
      <trkpt lat="28.6411050" lon="-17.8028730">
        <ele>616.0</ele>
        <time>2020-11-17T14:06:04Z</time>
      </trkpt>
      <trkpt lat="28.6411220" lon="-17.8028600">
        <ele>615.7</ele>
        <time>2020-11-17T14:06:05Z</time>
      </trkpt>
      <trkpt lat="28.6411420" lon="-17.8028530">
        <ele>615.5</ele>
        <time>2020-11-17T14:06:06Z</time>
      </trkpt>
      <trkpt lat="28.6411420" lon="-17.8028530">
        <ele>615.5</ele>
        <time>2020-11-17T14:06:07Z</time>
      </trkpt>
      <trkpt lat="28.6411850" lon="-17.8028420">
        <ele>615.0</ele>
        <time>2020-11-17T14:06:08Z</time>
      </trkpt>
      <trkpt lat="28.6411850" lon="-17.8028420">
        <ele>615.0</ele>
        <time>2020-11-17T14:06:09Z</time>
      </trkpt>
      <trkpt lat="28.6412450" lon="-17.8028320">
        <ele>614.4</ele>
        <time>2020-11-17T14:06:10Z</time>
      </trkpt>
      <trkpt lat="28.6412750" lon="-17.8028230">
        <ele>614.2</ele>
        <time>2020-11-17T14:06:11Z</time>
      </trkpt>
      <trkpt lat="28.6413050" lon="-17.8028200">
        <ele>613.9</ele>
        <time>2020-11-17T14:06:12Z</time>
      </trkpt>
      <trkpt lat="28.6413050" lon="-17.8028200">
        <ele>613.9</ele>
        <time>2020-11-17T14:06:13Z</time>
      </trkpt>
      <trkpt lat="28.6413620" lon="-17.8028220">
        <ele>613.4</ele>
        <time>2020-11-17T14:06:14Z</time>
      </trkpt>
      <trkpt lat="28.6413620" lon="-17.8028220">
        <ele>613.4</ele>
        <time>2020-11-17T14:06:15Z</time>
      </trkpt>
      <trkpt lat="28.6414130" lon="-17.8028330">
        <ele>612.9</ele>
        <time>2020-11-17T14:06:16Z</time>
      </trkpt>
      <trkpt lat="28.6414130" lon="-17.8028330">
        <ele>612.9</ele>
        <time>2020-11-17T14:06:17Z</time>
      </trkpt>
      <trkpt lat="28.6414430" lon="-17.8028230">
        <ele>612.7</ele>
        <time>2020-11-17T14:06:18Z</time>
      </trkpt>
      <trkpt lat="28.6414970" lon="-17.8028200">
        <ele>612.3</ele>
        <time>2020-11-17T14:06:19Z</time>
      </trkpt>
      <trkpt lat="28.6414970" lon="-17.8028200">
        <ele>612.3</ele>
        <time>2020-11-17T14:06:20Z</time>
      </trkpt>
      <trkpt lat="28.6415600" lon="-17.8027900">
        <ele>611.7</ele>
        <time>2020-11-17T14:06:21Z</time>
      </trkpt>
      <trkpt lat="28.6415600" lon="-17.8027900">
        <ele>611.7</ele>
        <time>2020-11-17T14:06:22Z</time>
      </trkpt>
      <trkpt lat="28.6416230" lon="-17.8027480">
        <ele>611.1</ele>
        <time>2020-11-17T14:06:23Z</time>
      </trkpt>
      <trkpt lat="28.6416570" lon="-17.8027200">
        <ele>610.7</ele>
        <time>2020-11-17T14:06:24Z</time>
      </trkpt>
      <trkpt lat="28.6416570" lon="-17.8027200">
        <ele>610.7</ele>
        <time>2020-11-17T14:06:25Z</time>
      </trkpt>
      <trkpt lat="28.6417180" lon="-17.8026600">
        <ele>610.1</ele>
        <time>2020-11-17T14:06:26Z</time>
      </trkpt>
      <trkpt lat="28.6417500" lon="-17.8026300">
        <ele>609.9</ele>
        <time>2020-11-17T14:06:27Z</time>
      </trkpt>
      <trkpt lat="28.6417500" lon="-17.8026300">
        <ele>609.9</ele>
        <time>2020-11-17T14:06:28Z</time>
      </trkpt>
      <trkpt lat="28.6418250" lon="-17.8025680">
        <ele>609.5</ele>
        <time>2020-11-17T14:06:29Z</time>
      </trkpt>
      <trkpt lat="28.6418620" lon="-17.8025300">
        <ele>609.3</ele>
        <time>2020-11-17T14:06:30Z</time>
      </trkpt>
      <trkpt lat="28.6418620" lon="-17.8025300">
        <ele>609.3</ele>
        <time>2020-11-17T14:06:31Z</time>
      </trkpt>
      <trkpt lat="28.6419430" lon="-17.8024520">
        <ele>608.6</ele>
        <time>2020-11-17T14:06:32Z</time>
      </trkpt>
      <trkpt lat="28.6419430" lon="-17.8024520">
        <ele>608.6</ele>
        <time>2020-11-17T14:06:33Z</time>
      </trkpt>
      <trkpt lat="28.6420330" lon="-17.8023870">
        <ele>607.8</ele>
        <time>2020-11-17T14:06:34Z</time>
      </trkpt>
      <trkpt lat="28.6420800" lon="-17.8023580">
        <ele>607.4</ele>
        <time>2020-11-17T14:06:35Z</time>
      </trkpt>
      <trkpt lat="28.6420800" lon="-17.8023580">
        <ele>607.4</ele>
        <time>2020-11-17T14:06:36Z</time>
      </trkpt>
      <trkpt lat="28.6421680" lon="-17.8022980">
        <ele>606.6</ele>
        <time>2020-11-17T14:06:37Z</time>
      </trkpt>
      <trkpt lat="28.6421680" lon="-17.8022980">
        <ele>606.6</ele>
        <time>2020-11-17T14:06:38Z</time>
      </trkpt>
      <trkpt lat="28.6422720" lon="-17.8022400">
        <ele>605.8</ele>
        <time>2020-11-17T14:06:39Z</time>
      </trkpt>
      <trkpt lat="28.6422720" lon="-17.8022400">
        <ele>605.8</ele>
        <time>2020-11-17T14:06:40Z</time>
      </trkpt>
      <trkpt lat="28.6423900" lon="-17.8021800">
        <ele>604.7</ele>
        <time>2020-11-17T14:06:41Z</time>
      </trkpt>
      <trkpt lat="28.6423900" lon="-17.8021800">
        <ele>604.7</ele>
        <time>2020-11-17T14:06:42Z</time>
      </trkpt>
      <trkpt lat="28.6425030" lon="-17.8021120">
        <ele>603.6</ele>
        <time>2020-11-17T14:06:43Z</time>
      </trkpt>
      <trkpt lat="28.6425500" lon="-17.8020700">
        <ele>603.0</ele>
        <time>2020-11-17T14:06:44Z</time>
      </trkpt>
      <trkpt lat="28.6425500" lon="-17.8020700">
        <ele>603.0</ele>
        <time>2020-11-17T14:06:45Z</time>
      </trkpt>
      <trkpt lat="28.6426400" lon="-17.8019630">
        <ele>601.5</ele>
        <time>2020-11-17T14:06:46Z</time>
      </trkpt>
      <trkpt lat="28.6426400" lon="-17.8019630">
        <ele>601.5</ele>
        <time>2020-11-17T14:06:47Z</time>
      </trkpt>
      <trkpt lat="28.6427370" lon="-17.8018320">
        <ele>599.8</ele>
        <time>2020-11-17T14:06:48Z</time>
      </trkpt>
      <trkpt lat="28.6427370" lon="-17.8018320">
        <ele>599.8</ele>
        <time>2020-11-17T14:06:49Z</time>
      </trkpt>
      <trkpt lat="28.6428270" lon="-17.8017080">
        <ele>598.2</ele>
        <time>2020-11-17T14:06:50Z</time>
      </trkpt>
      <trkpt lat="28.6428270" lon="-17.8017080">
        <ele>598.2</ele>
        <time>2020-11-17T14:06:51Z</time>
      </trkpt>
      <trkpt lat="28.6428930" lon="-17.8015950">
        <ele>596.9</ele>
        <time>2020-11-17T14:06:52Z</time>
      </trkpt>
      <trkpt lat="28.6428930" lon="-17.8015950">
        <ele>596.9</ele>
        <time>2020-11-17T14:06:53Z</time>
      </trkpt>
      <trkpt lat="28.6429420" lon="-17.8014930">
        <ele>595.6</ele>
        <time>2020-11-17T14:06:54Z</time>
      </trkpt>
      <trkpt lat="28.6429420" lon="-17.8014930">
        <ele>595.6</ele>
        <time>2020-11-17T14:06:55Z</time>
      </trkpt>
      <trkpt lat="28.6429900" lon="-17.8013970">
        <ele>594.2</ele>
        <time>2020-11-17T14:06:56Z</time>
      </trkpt>
      <trkpt lat="28.6429900" lon="-17.8013970">
        <ele>594.2</ele>
        <time>2020-11-17T14:06:57Z</time>
      </trkpt>
      <trkpt lat="28.6430450" lon="-17.8013000">
        <ele>592.4</ele>
        <time>2020-11-17T14:06:58Z</time>
      </trkpt>
      <trkpt lat="28.6430450" lon="-17.8013000">
        <ele>592.4</ele>
        <time>2020-11-17T14:06:59Z</time>
      </trkpt>
      <trkpt lat="28.6431050" lon="-17.8012130">
        <ele>590.2</ele>
        <time>2020-11-17T14:07:00Z</time>
      </trkpt>
      <trkpt lat="28.6431050" lon="-17.8012130">
        <ele>590.2</ele>
        <time>2020-11-17T14:07:01Z</time>
      </trkpt>
      <trkpt lat="28.6431770" lon="-17.8011120">
        <ele>587.1</ele>
        <time>2020-11-17T14:07:02Z</time>
      </trkpt>
      <trkpt lat="28.6431770" lon="-17.8011120">
        <ele>587.1</ele>
        <time>2020-11-17T14:07:03Z</time>
      </trkpt>
      <trkpt lat="28.6432370" lon="-17.8009980">
        <ele>584.4</ele>
        <time>2020-11-17T14:07:04Z</time>
      </trkpt>
      <trkpt lat="28.6432370" lon="-17.8009980">
        <ele>584.4</ele>
        <time>2020-11-17T14:07:05Z</time>
      </trkpt>
      <trkpt lat="28.6432370" lon="-17.8009980">
        <ele>584.4</ele>
        <time>2020-11-17T14:07:06Z</time>
      </trkpt>
      <trkpt lat="28.6433050" lon="-17.8008920">
        <ele>582.6</ele>
        <time>2020-11-17T14:07:07Z</time>
      </trkpt>
      <trkpt lat="28.6433770" lon="-17.8007870">
        <ele>581.0</ele>
        <time>2020-11-17T14:07:08Z</time>
      </trkpt>
      <trkpt lat="28.6434130" lon="-17.8007300">
        <ele>580.0</ele>
        <time>2020-11-17T14:07:09Z</time>
      </trkpt>
      <trkpt lat="28.6434130" lon="-17.8007300">
        <ele>580.0</ele>
        <time>2020-11-17T14:07:10Z</time>
      </trkpt>
      <trkpt lat="28.6434900" lon="-17.8006070">
        <ele>577.5</ele>
        <time>2020-11-17T14:07:11Z</time>
      </trkpt>
      <trkpt lat="28.6435270" lon="-17.8005400">
        <ele>576.2</ele>
        <time>2020-11-17T14:07:12Z</time>
      </trkpt>
      <trkpt lat="28.6435270" lon="-17.8005400">
        <ele>576.2</ele>
        <time>2020-11-17T14:07:13Z</time>
      </trkpt>
      <trkpt lat="28.6436030" lon="-17.8004170">
        <ele>574.0</ele>
        <time>2020-11-17T14:07:14Z</time>
      </trkpt>
      <trkpt lat="28.6436480" lon="-17.8003630">
        <ele>573.1</ele>
        <time>2020-11-17T14:07:15Z</time>
      </trkpt>
      <trkpt lat="28.6436480" lon="-17.8003630">
        <ele>573.1</ele>
        <time>2020-11-17T14:07:16Z</time>
      </trkpt>
      <trkpt lat="28.6437430" lon="-17.8002730">
        <ele>571.4</ele>
        <time>2020-11-17T14:07:17Z</time>
      </trkpt>
      <trkpt lat="28.6437880" lon="-17.8002320">
        <ele>570.7</ele>
        <time>2020-11-17T14:07:18Z</time>
      </trkpt>
      <trkpt lat="28.6437880" lon="-17.8002320">
        <ele>570.7</ele>
        <time>2020-11-17T14:07:19Z</time>
      </trkpt>
      <trkpt lat="28.6438800" lon="-17.8001600">
        <ele>569.3</ele>
        <time>2020-11-17T14:07:20Z</time>
      </trkpt>
      <trkpt lat="28.6439270" lon="-17.8001380">
        <ele>568.7</ele>
        <time>2020-11-17T14:07:21Z</time>
      </trkpt>
      <trkpt lat="28.6439270" lon="-17.8001380">
        <ele>568.7</ele>
        <time>2020-11-17T14:07:22Z</time>
      </trkpt>
      <trkpt lat="28.6440180" lon="-17.8001230">
        <ele>567.4</ele>
        <time>2020-11-17T14:07:23Z</time>
      </trkpt>
      <trkpt lat="28.6440680" lon="-17.8001220">
        <ele>566.5</ele>
        <time>2020-11-17T14:07:24Z</time>
      </trkpt>
      <trkpt lat="28.6440680" lon="-17.8001220">
        <ele>566.5</ele>
        <time>2020-11-17T14:07:25Z</time>
      </trkpt>
      <trkpt lat="28.6441180" lon="-17.8001230">
        <ele>565.6</ele>
        <time>2020-11-17T14:07:26Z</time>
      </trkpt>
      <trkpt lat="28.6442020" lon="-17.8001230">
        <ele>563.8</ele>
        <time>2020-11-17T14:07:27Z</time>
      </trkpt>
      <trkpt lat="28.6442020" lon="-17.8001230">
        <ele>563.8</ele>
        <time>2020-11-17T14:07:28Z</time>
      </trkpt>
      <trkpt lat="28.6442770" lon="-17.8001070">
        <ele>562.2</ele>
        <time>2020-11-17T14:07:29Z</time>
      </trkpt>
      <trkpt lat="28.6443180" lon="-17.8001030">
        <ele>561.4</ele>
        <time>2020-11-17T14:07:30Z</time>
      </trkpt>
      <trkpt lat="28.6443180" lon="-17.8001030">
        <ele>561.4</ele>
        <time>2020-11-17T14:07:31Z</time>
      </trkpt>
      <trkpt lat="28.6444220" lon="-17.8000870">
        <ele>560.8</ele>
        <time>2020-11-17T14:07:32Z</time>
      </trkpt>
      <trkpt lat="28.6444870" lon="-17.8000830">
        <ele>560.4</ele>
        <time>2020-11-17T14:07:33Z</time>
      </trkpt>
      <trkpt lat="28.6444870" lon="-17.8000830">
        <ele>560.4</ele>
        <time>2020-11-17T14:07:34Z</time>
      </trkpt>
      <trkpt lat="28.6444870" lon="-17.8000830">
        <ele>560.4</ele>
        <time>2020-11-17T14:07:35Z</time>
      </trkpt>
      <trkpt lat="28.6447080" lon="-17.7999820">
        <ele>559.0</ele>
        <time>2020-11-17T14:07:36Z</time>
      </trkpt>
      <trkpt lat="28.6447080" lon="-17.7999820">
        <ele>559.0</ele>
        <time>2020-11-17T14:07:37Z</time>
      </trkpt>
      <trkpt lat="28.6448220" lon="-17.7998100">
        <ele>556.5</ele>
        <time>2020-11-17T14:07:38Z</time>
      </trkpt>
      <trkpt lat="28.6448720" lon="-17.7997070">
        <ele>555.2</ele>
        <time>2020-11-17T14:07:39Z</time>
      </trkpt>
      <trkpt lat="28.6448720" lon="-17.7997070">
        <ele>555.2</ele>
        <time>2020-11-17T14:07:40Z</time>
      </trkpt>
      <trkpt lat="28.6449800" lon="-17.7994900">
        <ele>552.4</ele>
        <time>2020-11-17T14:07:41Z</time>
      </trkpt>
      <trkpt lat="28.6449800" lon="-17.7994900">
        <ele>552.4</ele>
        <time>2020-11-17T14:07:42Z</time>
      </trkpt>
      <trkpt lat="28.6451100" lon="-17.7992750">
        <ele>549.6</ele>
        <time>2020-11-17T14:07:43Z</time>
      </trkpt>
      <trkpt lat="28.6451850" lon="-17.7991730">
        <ele>548.4</ele>
        <time>2020-11-17T14:07:44Z</time>
      </trkpt>
      <trkpt lat="28.6451850" lon="-17.7991730">
        <ele>548.4</ele>
        <time>2020-11-17T14:07:45Z</time>
      </trkpt>
      <trkpt lat="28.6451850" lon="-17.7991730">
        <ele>548.4</ele>
        <time>2020-11-17T14:07:46Z</time>
      </trkpt>
      <trkpt lat="28.6453420" lon="-17.7989920">
        <ele>546.5</ele>
        <time>2020-11-17T14:07:47Z</time>
      </trkpt>
      <trkpt lat="28.6454920" lon="-17.7988200">
        <ele>544.8</ele>
        <time>2020-11-17T14:07:48Z</time>
      </trkpt>
      <trkpt lat="28.6454920" lon="-17.7988200">
        <ele>544.8</ele>
        <time>2020-11-17T14:07:49Z</time>
      </trkpt>
      <trkpt lat="28.6456450" lon="-17.7986650">
        <ele>543.3</ele>
        <time>2020-11-17T14:07:50Z</time>
      </trkpt>
      <trkpt lat="28.6456450" lon="-17.7986650">
        <ele>543.3</ele>
        <time>2020-11-17T14:07:51Z</time>
      </trkpt>
      <trkpt lat="28.6457970" lon="-17.7985220">
        <ele>541.0</ele>
        <time>2020-11-17T14:07:52Z</time>
      </trkpt>
      <trkpt lat="28.6457970" lon="-17.7985220">
        <ele>541.0</ele>
        <time>2020-11-17T14:07:53Z</time>
      </trkpt>
      <trkpt lat="28.6459600" lon="-17.7983780">
        <ele>538.3</ele>
        <time>2020-11-17T14:07:54Z</time>
      </trkpt>
      <trkpt lat="28.6459600" lon="-17.7983780">
        <ele>538.3</ele>
        <time>2020-11-17T14:07:55Z</time>
      </trkpt>
      <trkpt lat="28.6461320" lon="-17.7982270">
        <ele>534.6</ele>
        <time>2020-11-17T14:07:56Z</time>
      </trkpt>
      <trkpt lat="28.6462250" lon="-17.7981620">
        <ele>532.7</ele>
        <time>2020-11-17T14:07:57Z</time>
      </trkpt>
      <trkpt lat="28.6462250" lon="-17.7981620">
        <ele>532.7</ele>
        <time>2020-11-17T14:07:58Z</time>
      </trkpt>
      <trkpt lat="28.6464220" lon="-17.7980670">
        <ele>529.2</ele>
        <time>2020-11-17T14:07:59Z</time>
      </trkpt>
      <trkpt lat="28.6464220" lon="-17.7980670">
        <ele>529.2</ele>
        <time>2020-11-17T14:08:00Z</time>
      </trkpt>
      <trkpt lat="28.6466050" lon="-17.7979800">
        <ele>525.6</ele>
        <time>2020-11-17T14:08:01Z</time>
      </trkpt>
      <trkpt lat="28.6466050" lon="-17.7979800">
        <ele>525.6</ele>
        <time>2020-11-17T14:08:02Z</time>
      </trkpt>
      <trkpt lat="28.6467750" lon="-17.7978850">
        <ele>521.5</ele>
        <time>2020-11-17T14:08:03Z</time>
      </trkpt>
      <trkpt lat="28.6467750" lon="-17.7978850">
        <ele>521.5</ele>
        <time>2020-11-17T14:08:04Z</time>
      </trkpt>
      <trkpt lat="28.6469130" lon="-17.7977780">
        <ele>517.6</ele>
        <time>2020-11-17T14:08:05Z</time>
      </trkpt>
      <trkpt lat="28.6469130" lon="-17.7977780">
        <ele>517.6</ele>
        <time>2020-11-17T14:08:06Z</time>
      </trkpt>
      <trkpt lat="28.6470100" lon="-17.7976730">
        <ele>514.3</ele>
        <time>2020-11-17T14:08:07Z</time>
      </trkpt>
      <trkpt lat="28.6470100" lon="-17.7976730">
        <ele>514.3</ele>
        <time>2020-11-17T14:08:08Z</time>
      </trkpt>
      <trkpt lat="28.6470730" lon="-17.7975800">
        <ele>511.0</ele>
        <time>2020-11-17T14:08:09Z</time>
      </trkpt>
      <trkpt lat="28.6471100" lon="-17.7975250">
        <ele>509.9</ele>
        <time>2020-11-17T14:08:10Z</time>
      </trkpt>
      <trkpt lat="28.6471100" lon="-17.7975250">
        <ele>509.9</ele>
        <time>2020-11-17T14:08:11Z</time>
      </trkpt>
      <trkpt lat="28.6471880" lon="-17.7974100">
        <ele>507.9</ele>
        <time>2020-11-17T14:08:12Z</time>
      </trkpt>
      <trkpt lat="28.6471880" lon="-17.7974100">
        <ele>507.9</ele>
        <time>2020-11-17T14:08:13Z</time>
      </trkpt>
      <trkpt lat="28.6472220" lon="-17.7973150">
        <ele>507.4</ele>
        <time>2020-11-17T14:08:14Z</time>
      </trkpt>
      <trkpt lat="28.6472220" lon="-17.7973150">
        <ele>507.2</ele>
        <time>2020-11-17T14:08:15Z</time>
      </trkpt>
      <trkpt lat="28.6472330" lon="-17.7972530">
        <ele>506.6</ele>
        <time>2020-11-17T14:08:16Z</time>
      </trkpt>
      <trkpt lat="28.6472330" lon="-17.7972530">
        <ele>506.6</ele>
        <time>2020-11-17T14:08:17Z</time>
      </trkpt>
      <trkpt lat="28.6472700" lon="-17.7972470">
        <ele>506.2</ele>
        <time>2020-11-17T14:08:18Z</time>
      </trkpt>
      <trkpt lat="28.6472700" lon="-17.7972470">
        <ele>506.2</ele>
        <time>2020-11-17T14:08:19Z</time>
      </trkpt>
      <trkpt lat="28.6472820" lon="-17.7972700">
        <ele>506.0</ele>
        <time>2020-11-17T14:08:20Z</time>
      </trkpt>
      <trkpt lat="28.6472820" lon="-17.7972700">
        <ele>506.0</ele>
        <time>2020-11-17T14:08:21Z</time>
      </trkpt>
      <trkpt lat="28.6472800" lon="-17.7972700">
        <ele>506.0</ele>
        <time>2020-11-17T14:08:22Z</time>
      </trkpt>
      <trkpt lat="28.6472800" lon="-17.7972700">
        <ele>506.0</ele>
        <time>2020-11-17T14:08:23Z</time>
      </trkpt>
      <trkpt lat="28.6472800" lon="-17.7972700">
        <ele>506.0</ele>
        <time>2020-11-17T14:08:39Z</time>
      </trkpt>
      <trkpt lat="28.6473450" lon="-17.7972800">
        <ele>505.3</ele>
        <time>2020-11-17T14:08:40Z</time>
      </trkpt>
      <trkpt lat="28.6473450" lon="-17.7972800">
        <ele>505.3</ele>
        <time>2020-11-17T14:08:41Z</time>
      </trkpt>
      <trkpt lat="28.6474100" lon="-17.7972150">
        <ele>504.5</ele>
        <time>2020-11-17T14:08:42Z</time>
      </trkpt>
      <trkpt lat="28.6474100" lon="-17.7972150">
        <ele>504.5</ele>
        <time>2020-11-17T14:08:43Z</time>
      </trkpt>
      <trkpt lat="28.6475120" lon="-17.7971250">
        <ele>502.9</ele>
        <time>2020-11-17T14:08:44Z</time>
      </trkpt>
      <trkpt lat="28.6475720" lon="-17.7970770">
        <ele>502.0</ele>
        <time>2020-11-17T14:08:45Z</time>
      </trkpt>
      <trkpt lat="28.6476350" lon="-17.7970230">
        <ele>501.1</ele>
        <time>2020-11-17T14:08:46Z</time>
      </trkpt>
      <trkpt lat="28.6476350" lon="-17.7970230">
        <ele>501.1</ele>
        <time>2020-11-17T14:08:47Z</time>
      </trkpt>
      <trkpt lat="28.6477770" lon="-17.7969170">
        <ele>499.3</ele>
        <time>2020-11-17T14:08:48Z</time>
      </trkpt>
      <trkpt lat="28.6477770" lon="-17.7969170">
        <ele>499.3</ele>
        <time>2020-11-17T14:08:49Z</time>
      </trkpt>
      <trkpt lat="28.6479130" lon="-17.7967970">
        <ele>497.6</ele>
        <time>2020-11-17T14:08:50Z</time>
      </trkpt>
      <trkpt lat="28.6479780" lon="-17.7967320">
        <ele>496.7</ele>
        <time>2020-11-17T14:08:51Z</time>
      </trkpt>
      <trkpt lat="28.6479780" lon="-17.7967320">
        <ele>496.7</ele>
        <time>2020-11-17T14:08:52Z</time>
      </trkpt>
      <trkpt lat="28.6481100" lon="-17.7965750">
        <ele>494.6</ele>
        <time>2020-11-17T14:08:53Z</time>
      </trkpt>
      <trkpt lat="28.6481680" lon="-17.7964800">
        <ele>493.5</ele>
        <time>2020-11-17T14:08:54Z</time>
      </trkpt>
      <trkpt lat="28.6481680" lon="-17.7964800">
        <ele>493.5</ele>
        <time>2020-11-17T14:08:55Z</time>
      </trkpt>
      <trkpt lat="28.6482920" lon="-17.7962820">
        <ele>491.1</ele>
        <time>2020-11-17T14:08:56Z</time>
      </trkpt>
      <trkpt lat="28.6482920" lon="-17.7962820">
        <ele>491.1</ele>
        <time>2020-11-17T14:08:57Z</time>
      </trkpt>
      <trkpt lat="28.6484380" lon="-17.7960800">
        <ele>488.7</ele>
        <time>2020-11-17T14:08:58Z</time>
      </trkpt>
      <trkpt lat="28.6485180" lon="-17.7959920">
        <ele>487.6</ele>
        <time>2020-11-17T14:08:59Z</time>
      </trkpt>
      <trkpt lat="28.6485180" lon="-17.7959920">
        <ele>487.6</ele>
        <time>2020-11-17T14:09:00Z</time>
      </trkpt>
      <trkpt lat="28.6486720" lon="-17.7958380">
        <ele>485.4</ele>
        <time>2020-11-17T14:09:01Z</time>
      </trkpt>
      <trkpt lat="28.6486720" lon="-17.7958380">
        <ele>485.4</ele>
        <time>2020-11-17T14:09:02Z</time>
      </trkpt>
      <trkpt lat="28.6488070" lon="-17.7956850">
        <ele>482.6</ele>
        <time>2020-11-17T14:09:03Z</time>
      </trkpt>
      <trkpt lat="28.6488070" lon="-17.7956850">
        <ele>482.6</ele>
        <time>2020-11-17T14:09:04Z</time>
      </trkpt>
      <trkpt lat="28.6489430" lon="-17.7955330">
        <ele>479.1</ele>
        <time>2020-11-17T14:09:05Z</time>
      </trkpt>
      <trkpt lat="28.6490230" lon="-17.7954550">
        <ele>476.9</ele>
        <time>2020-11-17T14:09:06Z</time>
      </trkpt>
      <trkpt lat="28.6490230" lon="-17.7954550">
        <ele>476.9</ele>
        <time>2020-11-17T14:09:07Z</time>
      </trkpt>
      <trkpt lat="28.6491830" lon="-17.7952380">
        <ele>472.0</ele>
        <time>2020-11-17T14:09:08Z</time>
      </trkpt>
      <trkpt lat="28.6491830" lon="-17.7952380">
        <ele>472.0</ele>
        <time>2020-11-17T14:09:09Z</time>
      </trkpt>
      <trkpt lat="28.6493230" lon="-17.7949850">
        <ele>467.1</ele>
        <time>2020-11-17T14:09:10Z</time>
      </trkpt>
      <trkpt lat="28.6493230" lon="-17.7949850">
        <ele>467.1</ele>
        <time>2020-11-17T14:09:11Z</time>
      </trkpt>
      <trkpt lat="28.6494720" lon="-17.7947600">
        <ele>462.8</ele>
        <time>2020-11-17T14:09:12Z</time>
      </trkpt>
      <trkpt lat="28.6494720" lon="-17.7947600">
        <ele>462.8</ele>
        <time>2020-11-17T14:09:13Z</time>
      </trkpt>
      <trkpt lat="28.6496270" lon="-17.7945600">
        <ele>458.5</ele>
        <time>2020-11-17T14:09:14Z</time>
      </trkpt>
      <trkpt lat="28.6496270" lon="-17.7945600">
        <ele>458.5</ele>
        <time>2020-11-17T14:09:15Z</time>
      </trkpt>
      <trkpt lat="28.6497820" lon="-17.7943480">
        <ele>454.2</ele>
        <time>2020-11-17T14:09:16Z</time>
      </trkpt>
      <trkpt lat="28.6498530" lon="-17.7942370">
        <ele>452.3</ele>
        <time>2020-11-17T14:09:17Z</time>
      </trkpt>
      <trkpt lat="28.6498530" lon="-17.7942370">
        <ele>452.3</ele>
        <time>2020-11-17T14:09:18Z</time>
      </trkpt>
      <trkpt lat="28.6499570" lon="-17.7940370">
        <ele>449.5</ele>
        <time>2020-11-17T14:09:19Z</time>
      </trkpt>
      <trkpt lat="28.6499570" lon="-17.7940370">
        <ele>449.5</ele>
        <time>2020-11-17T14:09:20Z</time>
      </trkpt>
      <trkpt lat="28.6500130" lon="-17.7938220">
        <ele>446.9</ele>
        <time>2020-11-17T14:09:21Z</time>
      </trkpt>
      <trkpt lat="28.6500130" lon="-17.7938220">
        <ele>446.9</ele>
        <time>2020-11-17T14:09:22Z</time>
      </trkpt>
      <trkpt lat="28.6500170" lon="-17.7935830">
        <ele>443.9</ele>
        <time>2020-11-17T14:09:23Z</time>
      </trkpt>
      <trkpt lat="28.6500170" lon="-17.7935830">
        <ele>443.9</ele>
        <time>2020-11-17T14:09:24Z</time>
      </trkpt>
      <trkpt lat="28.6500450" lon="-17.7933500">
        <ele>440.9</ele>
        <time>2020-11-17T14:09:25Z</time>
      </trkpt>
      <trkpt lat="28.6500450" lon="-17.7933500">
        <ele>440.9</ele>
        <time>2020-11-17T14:09:26Z</time>
      </trkpt>
      <trkpt lat="28.6501550" lon="-17.7931370">
        <ele>437.3</ele>
        <time>2020-11-17T14:09:27Z</time>
      </trkpt>
      <trkpt lat="28.6502330" lon="-17.7930280">
        <ele>435.1</ele>
        <time>2020-11-17T14:09:28Z</time>
      </trkpt>
      <trkpt lat="28.6502330" lon="-17.7930280">
        <ele>435.1</ele>
        <time>2020-11-17T14:09:29Z</time>
      </trkpt>
      <trkpt lat="28.6503850" lon="-17.7928030">
        <ele>430.4</ele>
        <time>2020-11-17T14:09:30Z</time>
      </trkpt>
      <trkpt lat="28.6503850" lon="-17.7928030">
        <ele>430.4</ele>
        <time>2020-11-17T14:09:31Z</time>
      </trkpt>
      <trkpt lat="28.6505180" lon="-17.7925930">
        <ele>426.4</ele>
        <time>2020-11-17T14:09:32Z</time>
      </trkpt>
      <trkpt lat="28.6505180" lon="-17.7925930">
        <ele>426.4</ele>
        <time>2020-11-17T14:09:33Z</time>
      </trkpt>
      <trkpt lat="28.6506100" lon="-17.7924170">
        <ele>423.7</ele>
        <time>2020-11-17T14:09:34Z</time>
      </trkpt>
      <trkpt lat="28.6506450" lon="-17.7923450">
        <ele>422.7</ele>
        <time>2020-11-17T14:09:35Z</time>
      </trkpt>
      <trkpt lat="28.6506450" lon="-17.7923450">
        <ele>422.7</ele>
        <time>2020-11-17T14:09:36Z</time>
      </trkpt>
      <trkpt lat="28.6506950" lon="-17.7922330">
        <ele>421.3</ele>
        <time>2020-11-17T14:09:37Z</time>
      </trkpt>
      <trkpt lat="28.6506950" lon="-17.7922330">
        <ele>421.3</ele>
        <time>2020-11-17T14:09:38Z</time>
      </trkpt>
      <trkpt lat="28.6507480" lon="-17.7921450">
        <ele>420.3</ele>
        <time>2020-11-17T14:09:39Z</time>
      </trkpt>
      <trkpt lat="28.6507830" lon="-17.7920970">
        <ele>419.7</ele>
        <time>2020-11-17T14:09:40Z</time>
      </trkpt>
      <trkpt lat="28.6507830" lon="-17.7920970">
        <ele>419.7</ele>
        <time>2020-11-17T14:09:41Z</time>
      </trkpt>
      <trkpt lat="28.6508680" lon="-17.7919850">
        <ele>419.3</ele>
        <time>2020-11-17T14:09:42Z</time>
      </trkpt>
      <trkpt lat="28.6508680" lon="-17.7919850">
        <ele>419.3</ele>
        <time>2020-11-17T14:09:43Z</time>
      </trkpt>
      <trkpt lat="28.6509250" lon="-17.7918530">
        <ele>418.8</ele>
        <time>2020-11-17T14:09:44Z</time>
      </trkpt>
      <trkpt lat="28.6509250" lon="-17.7918530">
        <ele>418.8</ele>
        <time>2020-11-17T14:09:45Z</time>
      </trkpt>
      <trkpt lat="28.6509120" lon="-17.7917230">
        <ele>418.4</ele>
        <time>2020-11-17T14:09:46Z</time>
      </trkpt>
      <trkpt lat="28.6509120" lon="-17.7917230">
        <ele>418.4</ele>
        <time>2020-11-17T14:09:47Z</time>
      </trkpt>
      <trkpt lat="28.6508880" lon="-17.7916530">
        <ele>418.2</ele>
        <time>2020-11-17T14:09:48Z</time>
      </trkpt>
      <trkpt lat="28.6508880" lon="-17.7916530">
        <ele>418.2</ele>
        <time>2020-11-17T14:09:49Z</time>
      </trkpt>
      <trkpt lat="28.6509130" lon="-17.7916180">
        <ele>418.1</ele>
        <time>2020-11-17T14:09:50Z</time>
      </trkpt>
      <trkpt lat="28.6509130" lon="-17.7916180">
        <ele>419.2</ele>
        <time>2020-11-17T14:09:51Z</time>
      </trkpt>
      <trkpt lat="28.6509280" lon="-17.7916530">
        <ele>419.1</ele>
        <time>2020-11-17T14:09:52Z</time>
      </trkpt>
      <trkpt lat="28.6509280" lon="-17.7916530">
        <ele>419.1</ele>
        <time>2020-11-17T14:09:53Z</time>
      </trkpt>
      <trkpt lat="28.6509430" lon="-17.7917070">
        <ele>419.1</ele>
        <time>2020-11-17T14:09:54Z</time>
      </trkpt>
      <trkpt lat="28.6509430" lon="-17.7917070">
        <ele>419.1</ele>
        <time>2020-11-17T14:09:55Z</time>
      </trkpt>
      <trkpt lat="28.6509670" lon="-17.7917350">
        <ele>419.1</ele>
        <time>2020-11-17T14:09:56Z</time>
      </trkpt>
      <trkpt lat="28.6509670" lon="-17.7917350">
        <ele>419.1</ele>
        <time>2020-11-17T14:09:57Z</time>
      </trkpt>
      <trkpt lat="28.6509900" lon="-17.7917420">
        <ele>419.0</ele>
        <time>2020-11-17T14:09:58Z</time>
      </trkpt>
      <trkpt lat="28.6509900" lon="-17.7917420">
        <ele>419.0</ele>
        <time>2020-11-17T14:09:59Z</time>
      </trkpt>
      <trkpt lat="28.6510270" lon="-17.7917120">
        <ele>418.2</ele>
        <time>2020-11-17T14:10:00Z</time>
      </trkpt>
      <trkpt lat="28.6510270" lon="-17.7917120">
        <ele>418.2</ele>
        <time>2020-11-17T14:10:01Z</time>
      </trkpt>
      <trkpt lat="28.6510730" lon="-17.7916530">
        <ele>417.1</ele>
        <time>2020-11-17T14:10:02Z</time>
      </trkpt>
      <trkpt lat="28.6510730" lon="-17.7916530">
        <ele>417.1</ele>
        <time>2020-11-17T14:10:03Z</time>
      </trkpt>
      <trkpt lat="28.6511250" lon="-17.7915920">
        <ele>415.9</ele>
        <time>2020-11-17T14:10:04Z</time>
      </trkpt>
      <trkpt lat="28.6511480" lon="-17.7915670">
        <ele>415.4</ele>
        <time>2020-11-17T14:10:05Z</time>
      </trkpt>
      <trkpt lat="28.6511720" lon="-17.7915380">
        <ele>414.9</ele>
        <time>2020-11-17T14:10:06Z</time>
      </trkpt>
      <trkpt lat="28.6511720" lon="-17.7915380">
        <ele>414.9</ele>
        <time>2020-11-17T14:10:07Z</time>
      </trkpt>
      <trkpt lat="28.6512230" lon="-17.7914820">
        <ele>414.0</ele>
        <time>2020-11-17T14:10:08Z</time>
      </trkpt>
      <trkpt lat="28.6512500" lon="-17.7914530">
        <ele>413.5</ele>
        <time>2020-11-17T14:10:09Z</time>
      </trkpt>
      <trkpt lat="28.6512500" lon="-17.7914530">
        <ele>413.5</ele>
        <time>2020-11-17T14:10:10Z</time>
      </trkpt>
      <trkpt lat="28.6513120" lon="-17.7913880">
        <ele>412.4</ele>
        <time>2020-11-17T14:10:11Z</time>
      </trkpt>
      <trkpt lat="28.6513430" lon="-17.7913530">
        <ele>411.9</ele>
        <time>2020-11-17T14:10:12Z</time>
      </trkpt>
      <trkpt lat="28.6513430" lon="-17.7913530">
        <ele>411.9</ele>
        <time>2020-11-17T14:10:13Z</time>
      </trkpt>
      <trkpt lat="28.6514120" lon="-17.7912850">
        <ele>410.9</ele>
        <time>2020-11-17T14:10:14Z</time>
      </trkpt>
      <trkpt lat="28.6514120" lon="-17.7912850">
        <ele>410.9</ele>
        <time>2020-11-17T14:10:15Z</time>
      </trkpt>
      <trkpt lat="28.6514820" lon="-17.7912180">
        <ele>410.0</ele>
        <time>2020-11-17T14:10:16Z</time>
      </trkpt>
      <trkpt lat="28.6514820" lon="-17.7912180">
        <ele>410.0</ele>
        <time>2020-11-17T14:10:17Z</time>
      </trkpt>
      <trkpt lat="28.6515580" lon="-17.7911500">
        <ele>408.9</ele>
        <time>2020-11-17T14:10:18Z</time>
      </trkpt>
      <trkpt lat="28.6515580" lon="-17.7911500">
        <ele>408.9</ele>
        <time>2020-11-17T14:10:19Z</time>
      </trkpt>
      <trkpt lat="28.6515580" lon="-17.7911500">
        <ele>408.9</ele>
        <time>2020-11-17T14:10:20Z</time>
      </trkpt>
      <trkpt lat="28.6516330" lon="-17.7910950">
        <ele>407.9</ele>
        <time>2020-11-17T14:10:21Z</time>
      </trkpt>
      <trkpt lat="28.6517150" lon="-17.7910330">
        <ele>406.6</ele>
        <time>2020-11-17T14:10:22Z</time>
      </trkpt>
      <trkpt lat="28.6517150" lon="-17.7910330">
        <ele>406.6</ele>
        <time>2020-11-17T14:10:23Z</time>
      </trkpt>
      <trkpt lat="28.6517770" lon="-17.7909820">
        <ele>405.6</ele>
        <time>2020-11-17T14:10:24Z</time>
      </trkpt>
      <trkpt lat="28.6518000" lon="-17.7909680">
        <ele>405.2</ele>
        <time>2020-11-17T14:10:25Z</time>
      </trkpt>
      <trkpt lat="28.6518000" lon="-17.7909680">
        <ele>405.2</ele>
        <time>2020-11-17T14:10:26Z</time>
      </trkpt>
      <trkpt lat="28.6518680" lon="-17.7909630">
        <ele>404.4</ele>
        <time>2020-11-17T14:10:27Z</time>
      </trkpt>
      <trkpt lat="28.6519050" lon="-17.7909730">
        <ele>404.1</ele>
        <time>2020-11-17T14:10:28Z</time>
      </trkpt>
      <trkpt lat="28.6519050" lon="-17.7909730">
        <ele>404.1</ele>
        <time>2020-11-17T14:10:29Z</time>
      </trkpt>
      <trkpt lat="28.6519730" lon="-17.7910180">
        <ele>403.5</ele>
        <time>2020-11-17T14:10:30Z</time>
      </trkpt>
      <trkpt lat="28.6519730" lon="-17.7910180">
        <ele>403.5</ele>
        <time>2020-11-17T14:10:31Z</time>
      </trkpt>
      <trkpt lat="28.6520580" lon="-17.7910670">
        <ele>402.8</ele>
        <time>2020-11-17T14:10:32Z</time>
      </trkpt>
      <trkpt lat="28.6521070" lon="-17.7910870">
        <ele>402.5</ele>
        <time>2020-11-17T14:10:33Z</time>
      </trkpt>
      <trkpt lat="28.6521070" lon="-17.7910870">
        <ele>402.5</ele>
        <time>2020-11-17T14:10:34Z</time>
      </trkpt>
      <trkpt lat="28.6522230" lon="-17.7911230">
        <ele>401.7</ele>
        <time>2020-11-17T14:10:35Z</time>
      </trkpt>
      <trkpt lat="28.6522800" lon="-17.7911520">
        <ele>401.3</ele>
        <time>2020-11-17T14:10:36Z</time>
      </trkpt>
      <trkpt lat="28.6522800" lon="-17.7911520">
        <ele>401.3</ele>
        <time>2020-11-17T14:10:37Z</time>
      </trkpt>
      <trkpt lat="28.6523920" lon="-17.7912150">
        <ele>400.5</ele>
        <time>2020-11-17T14:10:38Z</time>
      </trkpt>
      <trkpt lat="28.6523920" lon="-17.7912150">
        <ele>400.5</ele>
        <time>2020-11-17T14:10:39Z</time>
      </trkpt>
      <trkpt lat="28.6525050" lon="-17.7912780">
        <ele>399.5</ele>
        <time>2020-11-17T14:10:40Z</time>
      </trkpt>
      <trkpt lat="28.6525550" lon="-17.7913070">
        <ele>398.9</ele>
        <time>2020-11-17T14:10:41Z</time>
      </trkpt>
      <trkpt lat="28.6525550" lon="-17.7913070">
        <ele>398.9</ele>
        <time>2020-11-17T14:10:42Z</time>
      </trkpt>
      <trkpt lat="28.6525980" lon="-17.7913380">
        <ele>398.3</ele>
        <time>2020-11-17T14:10:43Z</time>
      </trkpt>
      <trkpt lat="28.6526700" lon="-17.7913930">
        <ele>397.0</ele>
        <time>2020-11-17T14:10:44Z</time>
      </trkpt>
      <trkpt lat="28.6526700" lon="-17.7913930">
        <ele>397.0</ele>
        <time>2020-11-17T14:10:45Z</time>
      </trkpt>
      <trkpt lat="28.6527070" lon="-17.7914330">
        <ele>396.2</ele>
        <time>2020-11-17T14:10:46Z</time>
      </trkpt>
      <trkpt lat="28.6527070" lon="-17.7914330">
        <ele>396.2</ele>
        <time>2020-11-17T14:10:47Z</time>
      </trkpt>
      <trkpt lat="28.6527170" lon="-17.7914700">
        <ele>395.6</ele>
        <time>2020-11-17T14:10:48Z</time>
      </trkpt>
      <trkpt lat="28.6527170" lon="-17.7914700">
        <ele>395.6</ele>
        <time>2020-11-17T14:10:49Z</time>
      </trkpt>
      <trkpt lat="28.6527100" lon="-17.7915020">
        <ele>395.1</ele>
        <time>2020-11-17T14:10:50Z</time>
      </trkpt>
      <trkpt lat="28.6527100" lon="-17.7915020">
        <ele>395.1</ele>
        <time>2020-11-17T14:10:51Z</time>
      </trkpt>
      <trkpt lat="28.6527050" lon="-17.7915100">
        <ele>394.9</ele>
        <time>2020-11-17T14:10:52Z</time>
      </trkpt>
      <trkpt lat="28.6527020" lon="-17.7915120">
        <ele>394.9</ele>
        <time>2020-11-17T14:10:53Z</time>
      </trkpt>
      <trkpt lat="28.6527020" lon="-17.7915120">
        <ele>394.9</ele>
        <time>2020-11-17T14:11:21Z</time>
      </trkpt>
      <trkpt lat="28.6527250" lon="-17.7915780">
        <ele>393.7</ele>
        <time>2020-11-17T14:11:22Z</time>
      </trkpt>
      <trkpt lat="28.6527250" lon="-17.7915780">
        <ele>393.7</ele>
        <time>2020-11-17T14:11:23Z</time>
      </trkpt>
      <trkpt lat="28.6527670" lon="-17.7916520">
        <ele>392.3</ele>
        <time>2020-11-17T14:11:24Z</time>
      </trkpt>
      <trkpt lat="28.6527670" lon="-17.7916520">
        <ele>392.3</ele>
        <time>2020-11-17T14:11:25Z</time>
      </trkpt>
      <trkpt lat="28.6528370" lon="-17.7917200">
        <ele>390.4</ele>
        <time>2020-11-17T14:11:26Z</time>
      </trkpt>
      <trkpt lat="28.6528750" lon="-17.7917430">
        <ele>389.6</ele>
        <time>2020-11-17T14:11:27Z</time>
      </trkpt>
      <trkpt lat="28.6528750" lon="-17.7917430">
        <ele>389.6</ele>
        <time>2020-11-17T14:11:28Z</time>
      </trkpt>
      <trkpt lat="28.6529650" lon="-17.7917520">
        <ele>387.9</ele>
        <time>2020-11-17T14:11:29Z</time>
      </trkpt>
      <trkpt lat="28.6530120" lon="-17.7917380">
        <ele>387.1</ele>
        <time>2020-11-17T14:11:30Z</time>
      </trkpt>
      <trkpt lat="28.6530120" lon="-17.7917380">
        <ele>387.1</ele>
        <time>2020-11-17T14:11:31Z</time>
      </trkpt>
      <trkpt lat="28.6531120" lon="-17.7917000">
        <ele>385.5</ele>
        <time>2020-11-17T14:11:32Z</time>
      </trkpt>
      <trkpt lat="28.6531630" lon="-17.7916850">
        <ele>384.7</ele>
        <time>2020-11-17T14:11:33Z</time>
      </trkpt>
      <trkpt lat="28.6531630" lon="-17.7916850">
        <ele>384.7</ele>
        <time>2020-11-17T14:11:34Z</time>
      </trkpt>
      <trkpt lat="28.6532650" lon="-17.7916450">
        <ele>383.2</ele>
        <time>2020-11-17T14:11:35Z</time>
      </trkpt>
      <trkpt lat="28.6533080" lon="-17.7916280">
        <ele>382.5</ele>
        <time>2020-11-17T14:11:36Z</time>
      </trkpt>
      <trkpt lat="28.6533080" lon="-17.7916280">
        <ele>382.5</ele>
        <time>2020-11-17T14:11:37Z</time>
      </trkpt>
      <trkpt lat="28.6534100" lon="-17.7915930">
        <ele>381.0</ele>
        <time>2020-11-17T14:11:38Z</time>
      </trkpt>
      <trkpt lat="28.6534100" lon="-17.7915930">
        <ele>381.0</ele>
        <time>2020-11-17T14:11:39Z</time>
      </trkpt>
      <trkpt lat="28.6535320" lon="-17.7915550">
        <ele>379.2</ele>
        <time>2020-11-17T14:11:40Z</time>
      </trkpt>
      <trkpt lat="28.6535920" lon="-17.7915370">
        <ele>378.3</ele>
        <time>2020-11-17T14:11:41Z</time>
      </trkpt>
      <trkpt lat="28.6535920" lon="-17.7915370">
        <ele>378.3</ele>
        <time>2020-11-17T14:11:42Z</time>
      </trkpt>
      <trkpt lat="28.6537270" lon="-17.7914930">
        <ele>376.4</ele>
        <time>2020-11-17T14:11:43Z</time>
      </trkpt>
      <trkpt lat="28.6538030" lon="-17.7914680">
        <ele>375.3</ele>
        <time>2020-11-17T14:11:44Z</time>
      </trkpt>
      <trkpt lat="28.6538030" lon="-17.7914680">
        <ele>375.3</ele>
        <time>2020-11-17T14:11:45Z</time>
      </trkpt>
      <trkpt lat="28.6539670" lon="-17.7914120">
        <ele>373.0</ele>
        <time>2020-11-17T14:11:46Z</time>
      </trkpt>
      <trkpt lat="28.6539670" lon="-17.7914120">
        <ele>373.0</ele>
        <time>2020-11-17T14:11:47Z</time>
      </trkpt>
      <trkpt lat="28.6541380" lon="-17.7913480">
        <ele>370.8</ele>
        <time>2020-11-17T14:11:48Z</time>
      </trkpt>
      <trkpt lat="28.6541380" lon="-17.7913480">
        <ele>370.8</ele>
        <time>2020-11-17T14:11:49Z</time>
      </trkpt>
      <trkpt lat="28.6543220" lon="-17.7912570">
        <ele>368.4</ele>
        <time>2020-11-17T14:11:50Z</time>
      </trkpt>
      <trkpt lat="28.6544200" lon="-17.7911970">
        <ele>367.0</ele>
        <time>2020-11-17T14:11:51Z</time>
      </trkpt>
      <trkpt lat="28.6544200" lon="-17.7911970">
        <ele>367.0</ele>
        <time>2020-11-17T14:11:52Z</time>
      </trkpt>
      <trkpt lat="28.6546070" lon="-17.7910620">
        <ele>364.5</ele>
        <time>2020-11-17T14:11:53Z</time>
      </trkpt>
      <trkpt lat="28.6546880" lon="-17.7909920">
        <ele>363.3</ele>
        <time>2020-11-17T14:11:54Z</time>
      </trkpt>
      <trkpt lat="28.6546880" lon="-17.7909920">
        <ele>363.3</ele>
        <time>2020-11-17T14:11:55Z</time>
      </trkpt>
      <trkpt lat="28.6548180" lon="-17.7908680">
        <ele>361.4</ele>
        <time>2020-11-17T14:11:56Z</time>
      </trkpt>
      <trkpt lat="28.6548180" lon="-17.7908680">
        <ele>361.4</ele>
        <time>2020-11-17T14:11:57Z</time>
      </trkpt>
      <trkpt lat="28.6549050" lon="-17.7907750">
        <ele>360.3</ele>
        <time>2020-11-17T14:11:58Z</time>
      </trkpt>
      <trkpt lat="28.6549050" lon="-17.7907750">
        <ele>360.3</ele>
        <time>2020-11-17T14:11:59Z</time>
      </trkpt>
      <trkpt lat="28.6549850" lon="-17.7906920">
        <ele>359.3</ele>
        <time>2020-11-17T14:12:00Z</time>
      </trkpt>
      <trkpt lat="28.6549850" lon="-17.7906920">
        <ele>359.3</ele>
        <time>2020-11-17T14:12:01Z</time>
      </trkpt>
      <trkpt lat="28.6550100" lon="-17.7906450">
        <ele>358.9</ele>
        <time>2020-11-17T14:12:02Z</time>
      </trkpt>
      <trkpt lat="28.6550170" lon="-17.7906380">
        <ele>358.8</ele>
        <time>2020-11-17T14:12:03Z</time>
      </trkpt>
      <trkpt lat="28.6550200" lon="-17.7906400">
        <ele>358.8</ele>
        <time>2020-11-17T14:12:04Z</time>
      </trkpt>
      <trkpt lat="28.6550200" lon="-17.7906400">
        <ele>358.8</ele>
        <time>2020-11-17T14:12:05Z</time>
      </trkpt>
      <trkpt lat="28.6550200" lon="-17.7906380">
        <ele>358.7</ele>
        <time>2020-11-17T14:12:06Z</time>
      </trkpt>
      <trkpt lat="28.6550200" lon="-17.7906380">
        <ele>358.7</ele>
        <time>2020-11-17T14:12:19Z</time>
      </trkpt>
      <trkpt lat="28.6550200" lon="-17.7906380">
        <ele>358.7</ele>
        <time>2020-11-17T14:12:20Z</time>
      </trkpt>
      <trkpt lat="28.6550980" lon="-17.7905950">
        <ele>358.0</ele>
        <time>2020-11-17T14:12:21Z</time>
      </trkpt>
      <trkpt lat="28.6550980" lon="-17.7905950">
        <ele>358.0</ele>
        <time>2020-11-17T14:12:22Z</time>
      </trkpt>
      <trkpt lat="28.6551430" lon="-17.7905470">
        <ele>357.4</ele>
        <time>2020-11-17T14:12:23Z</time>
      </trkpt>
      <trkpt lat="28.6551700" lon="-17.7905200">
        <ele>357.1</ele>
        <time>2020-11-17T14:12:24Z</time>
      </trkpt>
      <trkpt lat="28.6551700" lon="-17.7905200">
        <ele>357.1</ele>
        <time>2020-11-17T14:12:25Z</time>
      </trkpt>
      <trkpt lat="28.6552320" lon="-17.7904650">
        <ele>356.4</ele>
        <time>2020-11-17T14:12:26Z</time>
      </trkpt>
      <trkpt lat="28.6552320" lon="-17.7904650">
        <ele>356.4</ele>
        <time>2020-11-17T14:12:27Z</time>
      </trkpt>
      <trkpt lat="28.6552930" lon="-17.7903930">
        <ele>355.7</ele>
        <time>2020-11-17T14:12:28Z</time>
      </trkpt>
      <trkpt lat="28.6552930" lon="-17.7903930">
        <ele>355.7</ele>
        <time>2020-11-17T14:12:29Z</time>
      </trkpt>
      <trkpt lat="28.6553480" lon="-17.7903120">
        <ele>355.0</ele>
        <time>2020-11-17T14:12:30Z</time>
      </trkpt>
      <trkpt lat="28.6553480" lon="-17.7903120">
        <ele>355.0</ele>
        <time>2020-11-17T14:12:31Z</time>
      </trkpt>
      <trkpt lat="28.6554030" lon="-17.7902400">
        <ele>354.3</ele>
        <time>2020-11-17T14:12:32Z</time>
      </trkpt>
      <trkpt lat="28.6554030" lon="-17.7902400">
        <ele>354.3</ele>
        <time>2020-11-17T14:12:33Z</time>
      </trkpt>
      <trkpt lat="28.6554400" lon="-17.7901650">
        <ele>353.6</ele>
        <time>2020-11-17T14:12:34Z</time>
      </trkpt>
      <trkpt lat="28.6554480" lon="-17.7901270">
        <ele>353.3</ele>
        <time>2020-11-17T14:12:35Z</time>
      </trkpt>
      <trkpt lat="28.6554520" lon="-17.7900950">
        <ele>353.1</ele>
        <time>2020-11-17T14:12:36Z</time>
      </trkpt>
      <trkpt lat="28.6554520" lon="-17.7900950">
        <ele>353.1</ele>
        <time>2020-11-17T14:12:37Z</time>
      </trkpt>
      <trkpt lat="28.6554520" lon="-17.7900600">
        <ele>352.8</ele>
        <time>2020-11-17T14:12:38Z</time>
      </trkpt>
      <trkpt lat="28.6554520" lon="-17.7900600">
        <ele>352.8</ele>
        <time>2020-11-17T14:12:39Z</time>
      </trkpt>
      <trkpt lat="28.6554500" lon="-17.7900600">
        <ele>352.8</ele>
        <time>2020-11-17T14:12:40Z</time>
      </trkpt>
      <trkpt lat="28.6554500" lon="-17.7900600">
        <ele>352.8</ele>
        <time>2020-11-17T14:12:41Z</time>
      </trkpt>
      <trkpt lat="28.6554500" lon="-17.7900600">
        <ele>352.8</ele>
        <time>2020-11-17T14:12:49Z</time>
      </trkpt>
      <trkpt lat="28.6554800" lon="-17.7899520">
        <ele>351.9</ele>
        <time>2020-11-17T14:12:50Z</time>
      </trkpt>
      <trkpt lat="28.6555080" lon="-17.7899400">
        <ele>351.8</ele>
        <time>2020-11-17T14:12:51Z</time>
      </trkpt>
      <trkpt lat="28.6555430" lon="-17.7899370">
        <ele>351.8</ele>
        <time>2020-11-17T14:12:52Z</time>
      </trkpt>
      <trkpt lat="28.6555780" lon="-17.7899350">
        <ele>351.8</ele>
        <time>2020-11-17T14:12:53Z</time>
      </trkpt>
      <trkpt lat="28.6555780" lon="-17.7899350">
        <ele>351.8</ele>
        <time>2020-11-17T14:12:54Z</time>
      </trkpt>
      <trkpt lat="28.6556500" lon="-17.7899320">
        <ele>351.7</ele>
        <time>2020-11-17T14:12:55Z</time>
      </trkpt>
      <trkpt lat="28.6556500" lon="-17.7899320">
        <ele>351.7</ele>
        <time>2020-11-17T14:12:56Z</time>
      </trkpt>
      <trkpt lat="28.6557230" lon="-17.7899280">
        <ele>351.7</ele>
        <time>2020-11-17T14:12:57Z</time>
      </trkpt>
      <trkpt lat="28.6557620" lon="-17.7899250">
        <ele>351.6</ele>
        <time>2020-11-17T14:12:58Z</time>
      </trkpt>
      <trkpt lat="28.6557620" lon="-17.7899250">
        <ele>351.6</ele>
        <time>2020-11-17T14:12:59Z</time>
      </trkpt>
      <trkpt lat="28.6558350" lon="-17.7899220">
        <ele>351.6</ele>
        <time>2020-11-17T14:13:00Z</time>
      </trkpt>
      <trkpt lat="28.6558350" lon="-17.7899220">
        <ele>351.6</ele>
        <time>2020-11-17T14:13:01Z</time>
      </trkpt>
      <trkpt lat="28.6559180" lon="-17.7899170">
        <ele>351.5</ele>
        <time>2020-11-17T14:13:02Z</time>
      </trkpt>
      <trkpt lat="28.6559580" lon="-17.7899130">
        <ele>351.5</ele>
        <time>2020-11-17T14:13:03Z</time>
      </trkpt>
      <trkpt lat="28.6559580" lon="-17.7899130">
        <ele>351.5</ele>
        <time>2020-11-17T14:13:04Z</time>
      </trkpt>
      <trkpt lat="28.6560370" lon="-17.7899080">
        <ele>351.4</ele>
        <time>2020-11-17T14:13:05Z</time>
      </trkpt>
      <trkpt lat="28.6560770" lon="-17.7899080">
        <ele>351.4</ele>
        <time>2020-11-17T14:13:06Z</time>
      </trkpt>
      <trkpt lat="28.6560770" lon="-17.7899080">
        <ele>351.4</ele>
        <time>2020-11-17T14:13:07Z</time>
      </trkpt>
      <trkpt lat="28.6561620" lon="-17.7899020">
        <ele>351.3</ele>
        <time>2020-11-17T14:13:08Z</time>
      </trkpt>
      <trkpt lat="28.6561620" lon="-17.7899020">
        <ele>351.3</ele>
        <time>2020-11-17T14:13:09Z</time>
      </trkpt>
      <trkpt lat="28.6562450" lon="-17.7898580">
        <ele>351.3</ele>
        <time>2020-11-17T14:13:10Z</time>
      </trkpt>
      <trkpt lat="28.6562800" lon="-17.7898270">
        <ele>351.2</ele>
        <time>2020-11-17T14:13:11Z</time>
      </trkpt>
      <trkpt lat="28.6563130" lon="-17.7897950">
        <ele>351.2</ele>
        <time>2020-11-17T14:13:12Z</time>
      </trkpt>
      <trkpt lat="28.6563470" lon="-17.7897650">
        <ele>351.2</ele>
        <time>2020-11-17T14:13:13Z</time>
      </trkpt>
      <trkpt lat="28.6563470" lon="-17.7897650">
        <ele>351.2</ele>
        <time>2020-11-17T14:13:14Z</time>
      </trkpt>
      <trkpt lat="28.6564150" lon="-17.7897120">
        <ele>351.1</ele>
        <time>2020-11-17T14:13:15Z</time>
      </trkpt>
      <trkpt lat="28.6564500" lon="-17.7896880">
        <ele>351.1</ele>
        <time>2020-11-17T14:13:16Z</time>
      </trkpt>
      <trkpt lat="28.6564500" lon="-17.7896880">
        <ele>351.1</ele>
        <time>2020-11-17T14:13:17Z</time>
      </trkpt>
      <trkpt lat="28.6565270" lon="-17.7896530">
        <ele>351.0</ele>
        <time>2020-11-17T14:13:18Z</time>
      </trkpt>
      <trkpt lat="28.6565270" lon="-17.7896530">
        <ele>351.0</ele>
        <time>2020-11-17T14:13:19Z</time>
      </trkpt>
      <trkpt lat="28.6566100" lon="-17.7896320">
        <ele>351.0</ele>
        <time>2020-11-17T14:13:20Z</time>
      </trkpt>
      <trkpt lat="28.6566100" lon="-17.7896320">
        <ele>351.0</ele>
        <time>2020-11-17T14:13:21Z</time>
      </trkpt>
      <trkpt lat="28.6566900" lon="-17.7896270">
        <ele>350.9</ele>
        <time>2020-11-17T14:13:22Z</time>
      </trkpt>
      <trkpt lat="28.6567250" lon="-17.7896280">
        <ele>350.8</ele>
        <time>2020-11-17T14:13:23Z</time>
      </trkpt>
      <trkpt lat="28.6567250" lon="-17.7896280">
        <ele>350.8</ele>
        <time>2020-11-17T14:13:24Z</time>
      </trkpt>
      <trkpt lat="28.6567630" lon="-17.7896330">
        <ele>350.6</ele>
        <time>2020-11-17T14:13:25Z</time>
      </trkpt>
      <trkpt lat="28.6567870" lon="-17.7896330">
        <ele>350.5</ele>
        <time>2020-11-17T14:13:26Z</time>
      </trkpt>
      <trkpt lat="28.6567870" lon="-17.7896330">
        <ele>350.5</ele>
        <time>2020-11-17T14:13:27Z</time>
      </trkpt>
      <trkpt lat="28.6568630" lon="-17.7896600">
        <ele>349.8</ele>
        <time>2020-11-17T14:13:28Z</time>
      </trkpt>
      <trkpt lat="28.6568630" lon="-17.7896600">
        <ele>349.8</ele>
        <time>2020-11-17T14:13:29Z</time>
      </trkpt>
      <trkpt lat="28.6569500" lon="-17.7897030">
        <ele>348.5</ele>
        <time>2020-11-17T14:13:30Z</time>
      </trkpt>
      <trkpt lat="28.6569500" lon="-17.7897030">
        <ele>348.5</ele>
        <time>2020-11-17T14:13:31Z</time>
      </trkpt>
      <trkpt lat="28.6570550" lon="-17.7897580">
        <ele>346.6</ele>
        <time>2020-11-17T14:13:32Z</time>
      </trkpt>
      <trkpt lat="28.6570550" lon="-17.7897580">
        <ele>346.6</ele>
        <time>2020-11-17T14:13:33Z</time>
      </trkpt>
      <trkpt lat="28.6571830" lon="-17.7898370">
        <ele>343.8</ele>
        <time>2020-11-17T14:13:34Z</time>
      </trkpt>
      <trkpt lat="28.6571830" lon="-17.7898370">
        <ele>343.8</ele>
        <time>2020-11-17T14:13:35Z</time>
      </trkpt>
      <trkpt lat="28.6573500" lon="-17.7898880">
        <ele>340.8</ele>
        <time>2020-11-17T14:13:36Z</time>
      </trkpt>
      <trkpt lat="28.6573500" lon="-17.7898880">
        <ele>340.8</ele>
        <time>2020-11-17T14:13:37Z</time>
      </trkpt>
      <trkpt lat="28.6575350" lon="-17.7898800">
        <ele>338.8</ele>
        <time>2020-11-17T14:13:38Z</time>
      </trkpt>
      <trkpt lat="28.6576170" lon="-17.7898580">
        <ele>338.2</ele>
        <time>2020-11-17T14:13:39Z</time>
      </trkpt>
      <trkpt lat="28.6576170" lon="-17.7898580">
        <ele>338.2</ele>
        <time>2020-11-17T14:13:40Z</time>
      </trkpt>
      <trkpt lat="28.6577370" lon="-17.7897470">
        <ele>337.6</ele>
        <time>2020-11-17T14:13:41Z</time>
      </trkpt>
      <trkpt lat="28.6577930" lon="-17.7896980">
        <ele>337.5</ele>
        <time>2020-11-17T14:13:42Z</time>
      </trkpt>
      <trkpt lat="28.6577930" lon="-17.7896980">
        <ele>337.5</ele>
        <time>2020-11-17T14:13:43Z</time>
      </trkpt>
      <trkpt lat="28.6579150" lon="-17.7896470">
        <ele>337.4</ele>
        <time>2020-11-17T14:13:44Z</time>
      </trkpt>
      <trkpt lat="28.6579150" lon="-17.7896470">
        <ele>337.4</ele>
        <time>2020-11-17T14:13:45Z</time>
      </trkpt>
      <trkpt lat="28.6580220" lon="-17.7896220">
        <ele>337.5</ele>
        <time>2020-11-17T14:13:46Z</time>
      </trkpt>
      <trkpt lat="28.6580220" lon="-17.7896220">
        <ele>337.5</ele>
        <time>2020-11-17T14:13:47Z</time>
      </trkpt>
      <trkpt lat="28.6581020" lon="-17.7896020">
        <ele>337.5</ele>
        <time>2020-11-17T14:13:48Z</time>
      </trkpt>
      <trkpt lat="28.6581020" lon="-17.7896020">
        <ele>337.5</ele>
        <time>2020-11-17T14:13:49Z</time>
      </trkpt>
      <trkpt lat="28.6581730" lon="-17.7895530">
        <ele>337.6</ele>
        <time>2020-11-17T14:13:50Z</time>
      </trkpt>
      <trkpt lat="28.6581730" lon="-17.7895530">
        <ele>337.6</ele>
        <time>2020-11-17T14:13:51Z</time>
      </trkpt>
      <trkpt lat="28.6582470" lon="-17.7895070">
        <ele>337.6</ele>
        <time>2020-11-17T14:13:52Z</time>
      </trkpt>
      <trkpt lat="28.6582900" lon="-17.7894850">
        <ele>337.7</ele>
        <time>2020-11-17T14:13:53Z</time>
      </trkpt>
      <trkpt lat="28.6582900" lon="-17.7894850">
        <ele>337.7</ele>
        <time>2020-11-17T14:13:54Z</time>
      </trkpt>
      <trkpt lat="28.6583770" lon="-17.7894650">
        <ele>337.8</ele>
        <time>2020-11-17T14:13:55Z</time>
      </trkpt>
      <trkpt lat="28.6583770" lon="-17.7894650">
        <ele>337.8</ele>
        <time>2020-11-17T14:13:56Z</time>
      </trkpt>
      <trkpt lat="28.6584550" lon="-17.7894530">
        <ele>337.9</ele>
        <time>2020-11-17T14:13:57Z</time>
      </trkpt>
      <trkpt lat="28.6584950" lon="-17.7894450">
        <ele>337.9</ele>
        <time>2020-11-17T14:13:58Z</time>
      </trkpt>
      <trkpt lat="28.6584950" lon="-17.7894450">
        <ele>337.9</ele>
        <time>2020-11-17T14:13:59Z</time>
      </trkpt>
      <trkpt lat="28.6585800" lon="-17.7894300">
        <ele>338.1</ele>
        <time>2020-11-17T14:14:00Z</time>
      </trkpt>
      <trkpt lat="28.6585800" lon="-17.7894300">
        <ele>338.1</ele>
        <time>2020-11-17T14:14:01Z</time>
      </trkpt>
      <trkpt lat="28.6586730" lon="-17.7894130">
        <ele>338.2</ele>
        <time>2020-11-17T14:14:02Z</time>
      </trkpt>
      <trkpt lat="28.6586730" lon="-17.7894130">
        <ele>338.2</ele>
        <time>2020-11-17T14:14:03Z</time>
      </trkpt>
      <trkpt lat="28.6587530" lon="-17.7894000">
        <ele>338.4</ele>
        <time>2020-11-17T14:14:04Z</time>
      </trkpt>
      <trkpt lat="28.6587530" lon="-17.7894000">
        <ele>338.4</ele>
        <time>2020-11-17T14:14:05Z</time>
      </trkpt>
      <trkpt lat="28.6588280" lon="-17.7894030">
        <ele>338.5</ele>
        <time>2020-11-17T14:14:06Z</time>
      </trkpt>
      <trkpt lat="28.6588280" lon="-17.7894030">
        <ele>338.5</ele>
        <time>2020-11-17T14:14:07Z</time>
      </trkpt>
      <trkpt lat="28.6589050" lon="-17.7893980">
        <ele>338.7</ele>
        <time>2020-11-17T14:14:08Z</time>
      </trkpt>
      <trkpt lat="28.6589050" lon="-17.7893980">
        <ele>338.7</ele>
        <time>2020-11-17T14:14:09Z</time>
      </trkpt>
      <trkpt lat="28.6589800" lon="-17.7893980">
        <ele>338.9</ele>
        <time>2020-11-17T14:14:10Z</time>
      </trkpt>
      <trkpt lat="28.6590170" lon="-17.7893980">
        <ele>339.0</ele>
        <time>2020-11-17T14:14:11Z</time>
      </trkpt>
      <trkpt lat="28.6590520" lon="-17.7893980">
        <ele>339.1</ele>
        <time>2020-11-17T14:14:12Z</time>
      </trkpt>
      <trkpt lat="28.6590520" lon="-17.7893980">
        <ele>339.1</ele>
        <time>2020-11-17T14:14:13Z</time>
      </trkpt>
      <trkpt lat="28.6591180" lon="-17.7894020">
        <ele>339.3</ele>
        <time>2020-11-17T14:14:14Z</time>
      </trkpt>
      <trkpt lat="28.6591180" lon="-17.7894020">
        <ele>339.3</ele>
        <time>2020-11-17T14:14:15Z</time>
      </trkpt>
      <trkpt lat="28.6591820" lon="-17.7894120">
        <ele>339.3</ele>
        <time>2020-11-17T14:14:16Z</time>
      </trkpt>
      <trkpt lat="28.6592180" lon="-17.7894150">
        <ele>339.3</ele>
        <time>2020-11-17T14:14:17Z</time>
      </trkpt>
      <trkpt lat="28.6592600" lon="-17.7894220">
        <ele>339.1</ele>
        <time>2020-11-17T14:14:18Z</time>
      </trkpt>
      <trkpt lat="28.6592600" lon="-17.7894220">
        <ele>339.1</ele>
        <time>2020-11-17T14:14:19Z</time>
      </trkpt>
      <trkpt lat="28.6593400" lon="-17.7894380">
        <ele>338.6</ele>
        <time>2020-11-17T14:14:20Z</time>
      </trkpt>
      <trkpt lat="28.6593400" lon="-17.7894380">
        <ele>338.6</ele>
        <time>2020-11-17T14:14:21Z</time>
      </trkpt>
      <trkpt lat="28.6593880" lon="-17.7894400">
        <ele>338.1</ele>
        <time>2020-11-17T14:14:22Z</time>
      </trkpt>
      <trkpt lat="28.6594120" lon="-17.7894480">
        <ele>337.8</ele>
        <time>2020-11-17T14:14:23Z</time>
      </trkpt>
      <trkpt lat="28.6594380" lon="-17.7894580">
        <ele>337.4</ele>
        <time>2020-11-17T14:14:24Z</time>
      </trkpt>
      <trkpt lat="28.6594380" lon="-17.7894580">
        <ele>337.4</ele>
        <time>2020-11-17T14:14:25Z</time>
      </trkpt>
      <trkpt lat="28.6595030" lon="-17.7894920">
        <ele>336.1</ele>
        <time>2020-11-17T14:14:26Z</time>
      </trkpt>
      <trkpt lat="28.6595430" lon="-17.7895100">
        <ele>335.3</ele>
        <time>2020-11-17T14:14:27Z</time>
      </trkpt>
      <trkpt lat="28.6595430" lon="-17.7895100">
        <ele>335.3</ele>
        <time>2020-11-17T14:14:28Z</time>
      </trkpt>
      <trkpt lat="28.6596450" lon="-17.7895270">
        <ele>333.2</ele>
        <time>2020-11-17T14:14:29Z</time>
      </trkpt>
      <trkpt lat="28.6597000" lon="-17.7895350">
        <ele>332.1</ele>
        <time>2020-11-17T14:14:30Z</time>
      </trkpt>
      <trkpt lat="28.6597000" lon="-17.7895350">
        <ele>332.1</ele>
        <time>2020-11-17T14:14:31Z</time>
      </trkpt>
      <trkpt lat="28.6598180" lon="-17.7895500">
        <ele>330.0</ele>
        <time>2020-11-17T14:14:32Z</time>
      </trkpt>
      <trkpt lat="28.6598830" lon="-17.7895450">
        <ele>329.1</ele>
        <time>2020-11-17T14:14:33Z</time>
      </trkpt>
      <trkpt lat="28.6598830" lon="-17.7895450">
        <ele>329.1</ele>
        <time>2020-11-17T14:14:34Z</time>
      </trkpt>
      <trkpt lat="28.6600350" lon="-17.7894850">
        <ele>327.9</ele>
        <time>2020-11-17T14:14:35Z</time>
      </trkpt>
      <trkpt lat="28.6600350" lon="-17.7894850">
        <ele>327.9</ele>
        <time>2020-11-17T14:14:36Z</time>
      </trkpt>
      <trkpt lat="28.6601630" lon="-17.7894550">
        <ele>327.7</ele>
        <time>2020-11-17T14:14:37Z</time>
      </trkpt>
      <trkpt lat="28.6602170" lon="-17.7894550">
        <ele>327.8</ele>
        <time>2020-11-17T14:14:38Z</time>
      </trkpt>
      <trkpt lat="28.6602170" lon="-17.7894550">
        <ele>327.8</ele>
        <time>2020-11-17T14:14:39Z</time>
      </trkpt>
      <trkpt lat="28.6603100" lon="-17.7894580">
        <ele>328.1</ele>
        <time>2020-11-17T14:14:40Z</time>
      </trkpt>
      <trkpt lat="28.6603100" lon="-17.7894580">
        <ele>328.1</ele>
        <time>2020-11-17T14:14:41Z</time>
      </trkpt>
      <trkpt lat="28.6603820" lon="-17.7894570">
        <ele>328.4</ele>
        <time>2020-11-17T14:14:42Z</time>
      </trkpt>
      <trkpt lat="28.6603820" lon="-17.7894570">
        <ele>328.4</ele>
        <time>2020-11-17T14:14:43Z</time>
      </trkpt>
      <trkpt lat="28.6604480" lon="-17.7894330">
        <ele>328.7</ele>
        <time>2020-11-17T14:14:44Z</time>
      </trkpt>
      <trkpt lat="28.6604480" lon="-17.7894330">
        <ele>328.7</ele>
        <time>2020-11-17T14:14:45Z</time>
      </trkpt>
      <trkpt lat="28.6605180" lon="-17.7893920">
        <ele>328.8</ele>
        <time>2020-11-17T14:14:46Z</time>
      </trkpt>
      <trkpt lat="28.6605180" lon="-17.7893920">
        <ele>328.8</ele>
        <time>2020-11-17T14:14:47Z</time>
      </trkpt>
      <trkpt lat="28.6605900" lon="-17.7893480">
        <ele>328.7</ele>
        <time>2020-11-17T14:14:48Z</time>
      </trkpt>
      <trkpt lat="28.6605900" lon="-17.7893480">
        <ele>328.7</ele>
        <time>2020-11-17T14:14:49Z</time>
      </trkpt>
      <trkpt lat="28.6606700" lon="-17.7892930">
        <ele>328.2</ele>
        <time>2020-11-17T14:14:50Z</time>
      </trkpt>
      <trkpt lat="28.6606700" lon="-17.7892930">
        <ele>328.2</ele>
        <time>2020-11-17T14:14:51Z</time>
      </trkpt>
      <trkpt lat="28.6607600" lon="-17.7892420">
        <ele>327.6</ele>
        <time>2020-11-17T14:14:52Z</time>
      </trkpt>
      <trkpt lat="28.6607600" lon="-17.7892420">
        <ele>327.6</ele>
        <time>2020-11-17T14:14:53Z</time>
      </trkpt>
      <trkpt lat="28.6608500" lon="-17.7892050">
        <ele>326.9</ele>
        <time>2020-11-17T14:14:54Z</time>
      </trkpt>
      <trkpt lat="28.6608500" lon="-17.7892050">
        <ele>326.9</ele>
        <time>2020-11-17T14:14:55Z</time>
      </trkpt>
      <trkpt lat="28.6609130" lon="-17.7891570">
        <ele>326.6</ele>
        <time>2020-11-17T14:14:56Z</time>
      </trkpt>
      <trkpt lat="28.6609130" lon="-17.7891570">
        <ele>326.6</ele>
        <time>2020-11-17T14:14:57Z</time>
      </trkpt>
      <trkpt lat="28.6609530" lon="-17.7891220">
        <ele>326.4</ele>
        <time>2020-11-17T14:14:58Z</time>
      </trkpt>
      <trkpt lat="28.6609530" lon="-17.7891220">
        <ele>326.4</ele>
        <time>2020-11-17T14:14:59Z</time>
      </trkpt>
      <trkpt lat="28.6609700" lon="-17.7890920">
        <ele>326.4</ele>
        <time>2020-11-17T14:15:00Z</time>
      </trkpt>
      <trkpt lat="28.6609700" lon="-17.7890920">
        <ele>326.4</ele>
        <time>2020-11-17T14:15:01Z</time>
      </trkpt>
      <trkpt lat="28.6609900" lon="-17.7891080">
        <ele>326.5</ele>
        <time>2020-11-17T14:15:02Z</time>
      </trkpt>
      <trkpt lat="28.6609900" lon="-17.7891080">
        <ele>326.5</ele>
        <time>2020-11-17T14:15:03Z</time>
      </trkpt>
      <trkpt lat="28.6610030" lon="-17.7891350">
        <ele>326.8</ele>
        <time>2020-11-17T14:15:04Z</time>
      </trkpt>
      <trkpt lat="28.6610030" lon="-17.7891350">
        <ele>326.8</ele>
        <time>2020-11-17T14:15:05Z</time>
      </trkpt>
      <trkpt lat="28.6610280" lon="-17.7891480">
        <ele>327.1</ele>
        <time>2020-11-17T14:15:06Z</time>
      </trkpt>
      <trkpt lat="28.6610280" lon="-17.7891480">
        <ele>327.1</ele>
        <time>2020-11-17T14:15:07Z</time>
      </trkpt>
      <trkpt lat="28.6610530" lon="-17.7891530">
        <ele>327.4</ele>
        <time>2020-11-17T14:15:08Z</time>
      </trkpt>
      <trkpt lat="28.6610630" lon="-17.7891600">
        <ele>327.5</ele>
        <time>2020-11-17T14:15:09Z</time>
      </trkpt>
      <trkpt lat="28.6610630" lon="-17.7891600">
        <ele>327.5</ele>
        <time>2020-11-17T14:15:10Z</time>
      </trkpt>
      <trkpt lat="28.6610620" lon="-17.7891620">
        <ele>327.5</ele>
        <time>2020-11-17T14:15:11Z</time>
      </trkpt>
      <trkpt lat="28.6610620" lon="-17.7891620">
        <ele>327.5</ele>
        <time>2020-11-17T14:15:23Z</time>
      </trkpt>
      <trkpt lat="28.6611100" lon="-17.7892080">
        <ele>328.3</ele>
        <time>2020-11-17T14:15:24Z</time>
      </trkpt>
      <trkpt lat="28.6611100" lon="-17.7892080">
        <ele>328.3</ele>
        <time>2020-11-17T14:15:25Z</time>
      </trkpt>
      <trkpt lat="28.6611100" lon="-17.7892080">
        <ele>328.3</ele>
        <time>2020-11-17T14:15:26Z</time>
      </trkpt>
      <trkpt lat="28.6611420" lon="-17.7892150">
        <ele>328.7</ele>
        <time>2020-11-17T14:15:27Z</time>
      </trkpt>
      <trkpt lat="28.6611700" lon="-17.7892250">
        <ele>329.0</ele>
        <time>2020-11-17T14:15:28Z</time>
      </trkpt>
      <trkpt lat="28.6611850" lon="-17.7892270">
        <ele>329.2</ele>
        <time>2020-11-17T14:15:29Z</time>
      </trkpt>
      <trkpt lat="28.6611850" lon="-17.7892270">
        <ele>329.2</ele>
        <time>2020-11-17T14:15:30Z</time>
      </trkpt>
      <trkpt lat="28.6612150" lon="-17.7892230">
        <ele>329.6</ele>
        <time>2020-11-17T14:15:31Z</time>
      </trkpt>
      <trkpt lat="28.6612280" lon="-17.7892130">
        <ele>330.0</ele>
        <time>2020-11-17T14:15:32Z</time>
      </trkpt>
      <trkpt lat="28.6612280" lon="-17.7892130">
        <ele>330.0</ele>
        <time>2020-11-17T14:15:33Z</time>
      </trkpt>
      <trkpt lat="28.6612520" lon="-17.7891880">
        <ele>330.2</ele>
        <time>2020-11-17T14:15:34Z</time>
      </trkpt>
      <trkpt lat="28.6612630" lon="-17.7891730">
        <ele>330.3</ele>
        <time>2020-11-17T14:15:35Z</time>
      </trkpt>
      <trkpt lat="28.6612630" lon="-17.7891730">
        <ele>330.3</ele>
        <time>2020-11-17T14:15:36Z</time>
      </trkpt>
      <trkpt lat="28.6612900" lon="-17.7891370">
        <ele>330.6</ele>
        <time>2020-11-17T14:15:37Z</time>
      </trkpt>
      <trkpt lat="28.6613030" lon="-17.7891170">
        <ele>330.8</ele>
        <time>2020-11-17T14:15:38Z</time>
      </trkpt>
      <trkpt lat="28.6613030" lon="-17.7891170">
        <ele>330.8</ele>
        <time>2020-11-17T14:15:39Z</time>
      </trkpt>
      <trkpt lat="28.6613280" lon="-17.7890800">
        <ele>331.1</ele>
        <time>2020-11-17T14:15:40Z</time>
      </trkpt>
      <trkpt lat="28.6613280" lon="-17.7890800">
        <ele>331.1</ele>
        <time>2020-11-17T14:15:41Z</time>
      </trkpt>
      <trkpt lat="28.6613470" lon="-17.7890450">
        <ele>331.4</ele>
        <time>2020-11-17T14:15:42Z</time>
      </trkpt>
      <trkpt lat="28.6613520" lon="-17.7890270">
        <ele>331.6</ele>
        <time>2020-11-17T14:15:43Z</time>
      </trkpt>
      <trkpt lat="28.6613520" lon="-17.7890270">
        <ele>331.6</ele>
        <time>2020-11-17T14:15:44Z</time>
      </trkpt>
      <trkpt lat="28.6613500" lon="-17.7889900">
        <ele>331.9</ele>
        <time>2020-11-17T14:15:45Z</time>
      </trkpt>
      <trkpt lat="28.6613500" lon="-17.7889900">
        <ele>331.9</ele>
        <time>2020-11-17T14:15:46Z</time>
      </trkpt>
      <trkpt lat="28.6613400" lon="-17.7889620">
        <ele>332.2</ele>
        <time>2020-11-17T14:15:47Z</time>
      </trkpt>
      <trkpt lat="28.6613400" lon="-17.7889620">
        <ele>332.2</ele>
        <time>2020-11-17T14:15:48Z</time>
      </trkpt>
      <trkpt lat="28.6613330" lon="-17.7889520">
        <ele>332.4</ele>
        <time>2020-11-17T14:15:49Z</time>
      </trkpt>
      <trkpt lat="28.6613420" lon="-17.7889230">
        <ele>332.8</ele>
        <time>2020-11-17T14:15:50Z</time>
      </trkpt>
      <trkpt lat="28.6613420" lon="-17.7889230">
        <ele>332.8</ele>
        <time>2020-11-17T14:15:51Z</time>
      </trkpt>
      <trkpt lat="28.6613480" lon="-17.7888970">
        <ele>333.1</ele>
        <time>2020-11-17T14:15:52Z</time>
      </trkpt>
      <trkpt lat="28.6613550" lon="-17.7888850">
        <ele>333.4</ele>
        <time>2020-11-17T14:15:53Z</time>
      </trkpt>
      <trkpt lat="28.6613650" lon="-17.7888800">
        <ele>333.5</ele>
        <time>2020-11-17T14:15:54Z</time>
      </trkpt>
      <trkpt lat="28.6613650" lon="-17.7888800">
        <ele>333.5</ele>
        <time>2020-11-17T14:15:55Z</time>
      </trkpt>
      <trkpt lat="28.6613950" lon="-17.7888820">
        <ele>334.1</ele>
        <time>2020-11-17T14:15:56Z</time>
      </trkpt>
      <trkpt lat="28.6613950" lon="-17.7888820">
        <ele>334.1</ele>
        <time>2020-11-17T14:15:57Z</time>
      </trkpt>
      <trkpt lat="28.6614250" lon="-17.7888880">
        <ele>334.7</ele>
        <time>2020-11-17T14:15:58Z</time>
      </trkpt>
      <trkpt lat="28.6614350" lon="-17.7888920">
        <ele>334.9</ele>
        <time>2020-11-17T14:15:59Z</time>
      </trkpt>
      <trkpt lat="28.6614430" lon="-17.7888970">
        <ele>335.1</ele>
        <time>2020-11-17T14:16:00Z</time>
      </trkpt>
      <trkpt lat="28.6614430" lon="-17.7888970">
        <ele>335.1</ele>
        <time>2020-11-17T14:16:01Z</time>
      </trkpt>
      <trkpt lat="28.6614570" lon="-17.7888980">
        <ele>335.4</ele>
        <time>2020-11-17T14:16:02Z</time>
      </trkpt>
      <trkpt lat="28.6614570" lon="-17.7888970">
        <ele>335.4</ele>
        <time>2020-11-17T14:16:03Z</time>
      </trkpt>
      <trkpt lat="28.6614570" lon="-17.7888970">
        <ele>335.4</ele>
        <time>2020-11-17T14:16:04Z</time>
      </trkpt>
      <trkpt lat="28.6615080" lon="-17.7889620">
        <ele>337.1</ele>
        <time>2020-11-17T14:16:15Z</time>
      </trkpt>
      <trkpt lat="28.6615080" lon="-17.7889620">
        <ele>337.1</ele>
        <time>2020-11-17T14:16:16Z</time>
      </trkpt>
      <trkpt lat="28.6615300" lon="-17.7889550">
        <ele>337.6</ele>
        <time>2020-11-17T14:16:17Z</time>
      </trkpt>
      <trkpt lat="28.6615420" lon="-17.7889550">
        <ele>337.8</ele>
        <time>2020-11-17T14:16:18Z</time>
      </trkpt>
      <trkpt lat="28.6615420" lon="-17.7889550">
        <ele>337.8</ele>
        <time>2020-11-17T14:16:19Z</time>
      </trkpt>
      <trkpt lat="28.6615530" lon="-17.7889470">
        <ele>338.1</ele>
        <time>2020-11-17T14:16:20Z</time>
      </trkpt>
      <trkpt lat="28.6615530" lon="-17.7889470">
        <ele>338.1</ele>
        <time>2020-11-17T14:16:21Z</time>
      </trkpt>
      <trkpt lat="28.6615700" lon="-17.7889470">
        <ele>338.5</ele>
        <time>2020-11-17T14:16:22Z</time>
      </trkpt>
      <trkpt lat="28.6615700" lon="-17.7889470">
        <ele>338.5</ele>
        <time>2020-11-17T14:16:23Z</time>
      </trkpt>
      <trkpt lat="28.6615820" lon="-17.7889380">
        <ele>338.9</ele>
        <time>2020-11-17T14:16:24Z</time>
      </trkpt>
      <trkpt lat="28.6615820" lon="-17.7889380">
        <ele>338.9</ele>
        <time>2020-11-17T14:16:25Z</time>
      </trkpt>
      <trkpt lat="28.6615880" lon="-17.7889300">
        <ele>339.1</ele>
        <time>2020-11-17T14:16:26Z</time>
      </trkpt>
      <trkpt lat="28.6615880" lon="-17.7889300">
        <ele>339.1</ele>
        <time>2020-11-17T14:16:27Z</time>
      </trkpt>
      <trkpt lat="28.6615950" lon="-17.7889170">
        <ele>339.4</ele>
        <time>2020-11-17T14:16:28Z</time>
      </trkpt>
      <trkpt lat="28.6615950" lon="-17.7889170">
        <ele>339.4</ele>
        <time>2020-11-17T14:16:29Z</time>
      </trkpt>
      <trkpt lat="28.6615980" lon="-17.7889020">
        <ele>339.7</ele>
        <time>2020-11-17T14:16:30Z</time>
      </trkpt>
      <trkpt lat="28.6615950" lon="-17.7888950">
        <ele>339.9</ele>
        <time>2020-11-17T14:16:31Z</time>
      </trkpt>
      <trkpt lat="28.6615930" lon="-17.7888870">
        <ele>340.0</ele>
        <time>2020-11-17T14:16:32Z</time>
      </trkpt>
      <trkpt lat="28.6615930" lon="-17.7888870">
        <ele>340.0</ele>
        <time>2020-11-17T14:16:41Z</time>
      </trkpt>
      <trkpt lat="28.6615550" lon="-17.7888120">
        <ele>341.7</ele>
        <time>2020-11-17T14:16:42Z</time>
      </trkpt>
      <trkpt lat="28.6615550" lon="-17.7888120">
        <ele>341.7</ele>
        <time>2020-11-17T14:16:43Z</time>
      </trkpt>
      <trkpt lat="28.6615420" lon="-17.7887950">
        <ele>342.1</ele>
        <time>2020-11-17T14:16:44Z</time>
      </trkpt>
      <trkpt lat="28.6615420" lon="-17.7887950">
        <ele>342.1</ele>
        <time>2020-11-17T14:16:45Z</time>
      </trkpt>
      <trkpt lat="28.6615520" lon="-17.7887670">
        <ele>342.6</ele>
        <time>2020-11-17T14:16:46Z</time>
      </trkpt>
      <trkpt lat="28.6615500" lon="-17.7887520">
        <ele>342.8</ele>
        <time>2020-11-17T14:16:47Z</time>
      </trkpt>
      <trkpt lat="28.6615500" lon="-17.7887520">
        <ele>342.8</ele>
        <time>2020-11-17T14:16:48Z</time>
      </trkpt>
      <trkpt lat="28.6615370" lon="-17.7887320">
        <ele>343.2</ele>
        <time>2020-11-17T14:16:49Z</time>
      </trkpt>
      <trkpt lat="28.6615370" lon="-17.7887320">
        <ele>343.2</ele>
        <time>2020-11-17T14:16:50Z</time>
      </trkpt>
      <trkpt lat="28.6615150" lon="-17.7887230">
        <ele>343.6</ele>
        <time>2020-11-17T14:16:51Z</time>
      </trkpt>
      <trkpt lat="28.6615150" lon="-17.7887230">
        <ele>343.6</ele>
        <time>2020-11-17T14:16:52Z</time>
      </trkpt>
      <trkpt lat="28.6615000" lon="-17.7887080">
        <ele>344.0</ele>
        <time>2020-11-17T14:16:53Z</time>
      </trkpt>
      <trkpt lat="28.6614950" lon="-17.7887000">
        <ele>344.1</ele>
        <time>2020-11-17T14:16:54Z</time>
      </trkpt>
      <trkpt lat="28.6614950" lon="-17.7887000">
        <ele>344.1</ele>
        <time>2020-11-17T14:16:55Z</time>
      </trkpt>
      <trkpt lat="28.6614820" lon="-17.7886930">
        <ele>344.3</ele>
        <time>2020-11-17T14:16:56Z</time>
      </trkpt>
      <trkpt lat="28.6614820" lon="-17.7886930">
        <ele>344.3</ele>
        <time>2020-11-17T14:16:57Z</time>
      </trkpt>
      <trkpt lat="28.6614680" lon="-17.7886920">
        <ele>344.5</ele>
        <time>2020-11-17T14:16:58Z</time>
      </trkpt>
      <trkpt lat="28.6614830" lon="-17.7886320">
        <ele>346.0</ele>
        <time>2020-11-17T14:17:08Z</time>
      </trkpt>
      <trkpt lat="28.6614830" lon="-17.7886320">
        <ele>346.0</ele>
        <time>2020-11-17T14:17:09Z</time>
      </trkpt>
      <trkpt lat="28.6615000" lon="-17.7886070">
        <ele>346.2</ele>
        <time>2020-11-17T14:17:10Z</time>
      </trkpt>
      <trkpt lat="28.6615000" lon="-17.7886070">
        <ele>346.2</ele>
        <time>2020-11-17T14:17:11Z</time>
      </trkpt>
      <trkpt lat="28.6615170" lon="-17.7885770">
        <ele>346.4</ele>
        <time>2020-11-17T14:17:12Z</time>
      </trkpt>
      <trkpt lat="28.6615270" lon="-17.7885630">
        <ele>346.5</ele>
        <time>2020-11-17T14:17:13Z</time>
      </trkpt>
      <trkpt lat="28.6615270" lon="-17.7885630">
        <ele>346.5</ele>
        <time>2020-11-17T14:17:14Z</time>
      </trkpt>
      <trkpt lat="28.6615570" lon="-17.7885400">
        <ele>346.8</ele>
        <time>2020-11-17T14:17:15Z</time>
      </trkpt>
      <trkpt lat="28.6615570" lon="-17.7885400">
        <ele>346.8</ele>
        <time>2020-11-17T14:17:16Z</time>
      </trkpt>
      <trkpt lat="28.6615880" lon="-17.7885120">
        <ele>347.1</ele>
        <time>2020-11-17T14:17:17Z</time>
      </trkpt>
      <trkpt lat="28.6615880" lon="-17.7885120">
        <ele>347.1</ele>
        <time>2020-11-17T14:17:18Z</time>
      </trkpt>
      <trkpt lat="28.6616170" lon="-17.7884880">
        <ele>347.4</ele>
        <time>2020-11-17T14:17:19Z</time>
      </trkpt>
      <trkpt lat="28.6616170" lon="-17.7884880">
        <ele>347.4</ele>
        <time>2020-11-17T14:17:20Z</time>
      </trkpt>
      <trkpt lat="28.6616300" lon="-17.7884480">
        <ele>347.7</ele>
        <time>2020-11-17T14:17:21Z</time>
      </trkpt>
      <trkpt lat="28.6616300" lon="-17.7884480">
        <ele>347.7</ele>
        <time>2020-11-17T14:17:22Z</time>
      </trkpt>
      <trkpt lat="28.6616580" lon="-17.7884150">
        <ele>348.0</ele>
        <time>2020-11-17T14:17:23Z</time>
      </trkpt>
      <trkpt lat="28.6616780" lon="-17.7884020">
        <ele>348.1</ele>
        <time>2020-11-17T14:17:24Z</time>
      </trkpt>
      <trkpt lat="28.6616780" lon="-17.7884020">
        <ele>348.1</ele>
        <time>2020-11-17T14:17:25Z</time>
      </trkpt>
      <trkpt lat="28.6617120" lon="-17.7883750">
        <ele>348.4</ele>
        <time>2020-11-17T14:17:26Z</time>
      </trkpt>
      <trkpt lat="28.6617280" lon="-17.7883680">
        <ele>348.5</ele>
        <time>2020-11-17T14:17:27Z</time>
      </trkpt>
      <trkpt lat="28.6617280" lon="-17.7883680">
        <ele>348.5</ele>
        <time>2020-11-17T14:17:28Z</time>
      </trkpt>
      <trkpt lat="28.6617530" lon="-17.7883470">
        <ele>348.8</ele>
        <time>2020-11-17T14:17:29Z</time>
      </trkpt>
      <trkpt lat="28.6617650" lon="-17.7883370">
        <ele>348.9</ele>
        <time>2020-11-17T14:17:30Z</time>
      </trkpt>
      <trkpt lat="28.6617650" lon="-17.7883370">
        <ele>348.9</ele>
        <time>2020-11-17T14:17:31Z</time>
      </trkpt>
      <trkpt lat="28.6617970" lon="-17.7883150">
        <ele>349.1</ele>
        <time>2020-11-17T14:17:32Z</time>
      </trkpt>
      <trkpt lat="28.6617970" lon="-17.7883150">
        <ele>349.1</ele>
        <time>2020-11-17T14:17:33Z</time>
      </trkpt>
      <trkpt lat="28.6618350" lon="-17.7882980">
        <ele>349.3</ele>
        <time>2020-11-17T14:17:34Z</time>
      </trkpt>
      <trkpt lat="28.6618350" lon="-17.7882980">
        <ele>349.3</ele>
        <time>2020-11-17T14:17:35Z</time>
      </trkpt>
      <trkpt lat="28.6618730" lon="-17.7882920">
        <ele>349.4</ele>
        <time>2020-11-17T14:17:36Z</time>
      </trkpt>
      <trkpt lat="28.6618730" lon="-17.7882920">
        <ele>349.4</ele>
        <time>2020-11-17T14:17:37Z</time>
      </trkpt>
      <trkpt lat="28.6619250" lon="-17.7882850">
        <ele>349.6</ele>
        <time>2020-11-17T14:17:38Z</time>
      </trkpt>
      <trkpt lat="28.6619250" lon="-17.7882850">
        <ele>349.6</ele>
        <time>2020-11-17T14:17:39Z</time>
      </trkpt>
      <trkpt lat="28.6619350" lon="-17.7881950">
        <ele>349.7</ele>
        <time>2020-11-17T14:17:40Z</time>
      </trkpt>
      <trkpt lat="28.6619570" lon="-17.7881730">
        <ele>349.7</ele>
        <time>2020-11-17T14:17:41Z</time>
      </trkpt>
      <trkpt lat="28.6619820" lon="-17.7881580">
        <ele>349.7</ele>
        <time>2020-11-17T14:17:42Z</time>
      </trkpt>
      <trkpt lat="28.6619820" lon="-17.7881580">
        <ele>349.7</ele>
        <time>2020-11-17T14:17:43Z</time>
      </trkpt>
      <trkpt lat="28.6619820" lon="-17.7881580">
        <ele>349.7</ele>
        <time>2020-11-17T14:17:44Z</time>
      </trkpt>
      <trkpt lat="28.6620500" lon="-17.7881330">
        <ele>349.5</ele>
        <time>2020-11-17T14:17:45Z</time>
      </trkpt>
      <trkpt lat="28.6621350" lon="-17.7881070">
        <ele>349.3</ele>
        <time>2020-11-17T14:17:46Z</time>
      </trkpt>
      <trkpt lat="28.6621350" lon="-17.7881070">
        <ele>349.3</ele>
        <time>2020-11-17T14:17:47Z</time>
      </trkpt>
      <trkpt lat="28.6622400" lon="-17.7880800">
        <ele>348.9</ele>
        <time>2020-11-17T14:17:48Z</time>
      </trkpt>
      <trkpt lat="28.6622400" lon="-17.7880800">
        <ele>348.9</ele>
        <time>2020-11-17T14:17:49Z</time>
      </trkpt>
      <trkpt lat="28.6623530" lon="-17.7880080">
        <ele>348.4</ele>
        <time>2020-11-17T14:17:50Z</time>
      </trkpt>
      <trkpt lat="28.6623530" lon="-17.7880080">
        <ele>348.4</ele>
        <time>2020-11-17T14:17:51Z</time>
      </trkpt>
      <trkpt lat="28.6624420" lon="-17.7879180">
        <ele>347.9</ele>
        <time>2020-11-17T14:17:52Z</time>
      </trkpt>
      <trkpt lat="28.6624420" lon="-17.7879180">
        <ele>347.9</ele>
        <time>2020-11-17T14:17:53Z</time>
      </trkpt>
      <trkpt lat="28.6625220" lon="-17.7878430">
        <ele>347.8</ele>
        <time>2020-11-17T14:17:54Z</time>
      </trkpt>
      <trkpt lat="28.6625220" lon="-17.7878430">
        <ele>347.8</ele>
        <time>2020-11-17T14:17:55Z</time>
      </trkpt>
      <trkpt lat="28.6626070" lon="-17.7877800">
        <ele>348.0</ele>
        <time>2020-11-17T14:17:56Z</time>
      </trkpt>
      <trkpt lat="28.6626330" lon="-17.7877450">
        <ele>348.1</ele>
        <time>2020-11-17T14:17:57Z</time>
      </trkpt>
      <trkpt lat="28.6626330" lon="-17.7877450">
        <ele>348.1</ele>
        <time>2020-11-17T14:17:58Z</time>
      </trkpt>
      <trkpt lat="28.6626530" lon="-17.7876700">
        <ele>348.3</ele>
        <time>2020-11-17T14:17:59Z</time>
      </trkpt>
      <trkpt lat="28.6626550" lon="-17.7876400">
        <ele>348.4</ele>
        <time>2020-11-17T14:18:00Z</time>
      </trkpt>
      <trkpt lat="28.6626550" lon="-17.7876400">
        <ele>348.4</ele>
        <time>2020-11-17T14:18:01Z</time>
      </trkpt>
      <trkpt lat="28.6626880" lon="-17.7875730">
        <ele>348.6</ele>
        <time>2020-11-17T14:18:02Z</time>
      </trkpt>
      <trkpt lat="28.6626880" lon="-17.7875730">
        <ele>348.6</ele>
        <time>2020-11-17T14:18:03Z</time>
      </trkpt>
      <trkpt lat="28.6627100" lon="-17.7875270">
        <ele>348.8</ele>
        <time>2020-11-17T14:18:04Z</time>
      </trkpt>
      <trkpt lat="28.6627100" lon="-17.7875270">
        <ele>348.8</ele>
        <time>2020-11-17T14:18:05Z</time>
      </trkpt>
      <trkpt lat="28.6627470" lon="-17.7874980">
        <ele>349.0</ele>
        <time>2020-11-17T14:18:06Z</time>
      </trkpt>
      <trkpt lat="28.6627470" lon="-17.7874980">
        <ele>349.0</ele>
        <time>2020-11-17T14:18:07Z</time>
      </trkpt>
      <trkpt lat="28.6627870" lon="-17.7874720">
        <ele>349.2</ele>
        <time>2020-11-17T14:18:08Z</time>
      </trkpt>
      <trkpt lat="28.6627870" lon="-17.7874720">
        <ele>349.2</ele>
        <time>2020-11-17T14:18:09Z</time>
      </trkpt>
      <trkpt lat="28.6628150" lon="-17.7874380">
        <ele>349.4</ele>
        <time>2020-11-17T14:18:10Z</time>
      </trkpt>
      <trkpt lat="28.6628280" lon="-17.7874250">
        <ele>349.5</ele>
        <time>2020-11-17T14:18:11Z</time>
      </trkpt>
      <trkpt lat="28.6628280" lon="-17.7874250">
        <ele>349.5</ele>
        <time>2020-11-17T14:18:12Z</time>
      </trkpt>
      <trkpt lat="28.6628620" lon="-17.7874150">
        <ele>349.6</ele>
        <time>2020-11-17T14:18:13Z</time>
      </trkpt>
      <trkpt lat="28.6628620" lon="-17.7874150">
        <ele>349.6</ele>
        <time>2020-11-17T14:18:14Z</time>
      </trkpt>
      <trkpt lat="28.6628770" lon="-17.7873770">
        <ele>349.8</ele>
        <time>2020-11-17T14:18:15Z</time>
      </trkpt>
      <trkpt lat="28.6628770" lon="-17.7873770">
        <ele>349.8</ele>
        <time>2020-11-17T14:18:16Z</time>
      </trkpt>
      <trkpt lat="28.6628950" lon="-17.7873350">
        <ele>349.9</ele>
        <time>2020-11-17T14:18:17Z</time>
      </trkpt>
      <trkpt lat="28.6629030" lon="-17.7873180">
        <ele>349.9</ele>
        <time>2020-11-17T14:18:18Z</time>
      </trkpt>
      <trkpt lat="28.6629120" lon="-17.7873030">
        <ele>350.0</ele>
        <time>2020-11-17T14:18:19Z</time>
      </trkpt>
      <trkpt lat="28.6629120" lon="-17.7873030">
        <ele>350.0</ele>
        <time>2020-11-17T14:18:20Z</time>
      </trkpt>
      <trkpt lat="28.6629230" lon="-17.7872880">
        <ele>350.1</ele>
        <time>2020-11-17T14:18:21Z</time>
      </trkpt>
      <trkpt lat="28.6629320" lon="-17.7872800">
        <ele>350.0</ele>
        <time>2020-11-17T14:18:22Z</time>
      </trkpt>
      <trkpt lat="28.6629320" lon="-17.7872800">
        <ele>350.0</ele>
        <time>2020-11-17T14:18:23Z</time>
      </trkpt>
      <trkpt lat="28.6629330" lon="-17.7872680">
        <ele>350.0</ele>
        <time>2020-11-17T14:18:24Z</time>
      </trkpt>
      <trkpt lat="28.6629330" lon="-17.7872680">
        <ele>350.0</ele>
        <time>2020-11-17T14:18:25Z</time>
      </trkpt>
      <trkpt lat="28.6629350" lon="-17.7872650">
        <ele>350.0</ele>
        <time>2020-11-17T14:18:26Z</time>
      </trkpt>
      <trkpt lat="28.6629350" lon="-17.7872650">
        <ele>350.0</ele>
        <time>2020-11-17T14:18:28Z</time>
      </trkpt>
      <trkpt lat="28.6629350" lon="-17.7872650">
        <ele>350.0</ele>
        <time>2020-11-17T14:18:29Z</time>
      </trkpt>
      <trkpt lat="28.6630400" lon="-17.7872320">
        <ele>350.8</ele>
        <time>2020-11-17T14:18:30Z</time>
      </trkpt>
      <trkpt lat="28.6630400" lon="-17.7872320">
        <ele>350.8</ele>
        <time>2020-11-17T14:18:31Z</time>
      </trkpt>
      <trkpt lat="28.6631030" lon="-17.7872320">
        <ele>351.3</ele>
        <time>2020-11-17T14:18:32Z</time>
      </trkpt>
      <trkpt lat="28.6631030" lon="-17.7872320">
        <ele>351.3</ele>
        <time>2020-11-17T14:18:33Z</time>
      </trkpt>
      <trkpt lat="28.6631680" lon="-17.7872330">
        <ele>351.9</ele>
        <time>2020-11-17T14:18:34Z</time>
      </trkpt>
      <trkpt lat="28.6631680" lon="-17.7872330">
        <ele>351.9</ele>
        <time>2020-11-17T14:18:35Z</time>
      </trkpt>
      <trkpt lat="28.6632280" lon="-17.7872400">
        <ele>352.4</ele>
        <time>2020-11-17T14:18:36Z</time>
      </trkpt>
      <trkpt lat="28.6632280" lon="-17.7872400">
        <ele>352.4</ele>
        <time>2020-11-17T14:18:37Z</time>
      </trkpt>
      <trkpt lat="28.6632900" lon="-17.7872570">
        <ele>353.0</ele>
        <time>2020-11-17T14:18:38Z</time>
      </trkpt>
      <trkpt lat="28.6632900" lon="-17.7872570">
        <ele>353.0</ele>
        <time>2020-11-17T14:18:39Z</time>
      </trkpt>
      <trkpt lat="28.6633480" lon="-17.7872650">
        <ele>353.5</ele>
        <time>2020-11-17T14:18:40Z</time>
      </trkpt>
      <trkpt lat="28.6633480" lon="-17.7872650">
        <ele>353.5</ele>
        <time>2020-11-17T14:18:41Z</time>
      </trkpt>
      <trkpt lat="28.6634070" lon="-17.7872730">
        <ele>354.1</ele>
        <time>2020-11-17T14:18:42Z</time>
      </trkpt>
      <trkpt lat="28.6634070" lon="-17.7872730">
        <ele>354.1</ele>
        <time>2020-11-17T14:18:43Z</time>
      </trkpt>
      <trkpt lat="28.6634700" lon="-17.7872770">
        <ele>354.5</ele>
        <time>2020-11-17T14:18:44Z</time>
      </trkpt>
      <trkpt lat="28.6634700" lon="-17.7872770">
        <ele>354.5</ele>
        <time>2020-11-17T14:18:45Z</time>
      </trkpt>
      <trkpt lat="28.6635450" lon="-17.7872530">
        <ele>354.5</ele>
        <time>2020-11-17T14:18:46Z</time>
      </trkpt>
      <trkpt lat="28.6635450" lon="-17.7872530">
        <ele>354.5</ele>
        <time>2020-11-17T14:18:47Z</time>
      </trkpt>
      <trkpt lat="28.6636200" lon="-17.7872250">
        <ele>354.6</ele>
        <time>2020-11-17T14:18:48Z</time>
      </trkpt>
      <trkpt lat="28.6636200" lon="-17.7872250">
        <ele>354.6</ele>
        <time>2020-11-17T14:18:49Z</time>
      </trkpt>
      <trkpt lat="28.6636930" lon="-17.7871850">
        <ele>354.7</ele>
        <time>2020-11-17T14:18:50Z</time>
      </trkpt>
      <trkpt lat="28.6636930" lon="-17.7871850">
        <ele>354.7</ele>
        <time>2020-11-17T14:18:51Z</time>
      </trkpt>
      <trkpt lat="28.6637670" lon="-17.7871530">
        <ele>354.7</ele>
        <time>2020-11-17T14:18:52Z</time>
      </trkpt>
      <trkpt lat="28.6638020" lon="-17.7871430">
        <ele>354.8</ele>
        <time>2020-11-17T14:18:53Z</time>
      </trkpt>
      <trkpt lat="28.6638370" lon="-17.7871300">
        <ele>354.8</ele>
        <time>2020-11-17T14:18:54Z</time>
      </trkpt>
      <trkpt lat="28.6638370" lon="-17.7871300">
        <ele>354.8</ele>
        <time>2020-11-17T14:18:55Z</time>
      </trkpt>
      <trkpt lat="28.6639050" lon="-17.7871080">
        <ele>354.9</ele>
        <time>2020-11-17T14:18:56Z</time>
      </trkpt>
      <trkpt lat="28.6639380" lon="-17.7870930">
        <ele>354.9</ele>
        <time>2020-11-17T14:18:57Z</time>
      </trkpt>
      <trkpt lat="28.6639680" lon="-17.7870800">
        <ele>354.9</ele>
        <time>2020-11-17T14:18:58Z</time>
      </trkpt>
      <trkpt lat="28.6639680" lon="-17.7870800">
        <ele>354.9</ele>
        <time>2020-11-17T14:18:59Z</time>
      </trkpt>
      <trkpt lat="28.6640120" lon="-17.7870600">
        <ele>355.0</ele>
        <time>2020-11-17T14:19:00Z</time>
      </trkpt>
      <trkpt lat="28.6640120" lon="-17.7870600">
        <ele>355.0</ele>
        <time>2020-11-17T14:19:01Z</time>
      </trkpt>
      <trkpt lat="28.6640470" lon="-17.7870380">
        <ele>355.1</ele>
        <time>2020-11-17T14:19:02Z</time>
      </trkpt>
      <trkpt lat="28.6640470" lon="-17.7870380">
        <ele>355.1</ele>
        <time>2020-11-17T14:19:03Z</time>
      </trkpt>
      <trkpt lat="28.6640720" lon="-17.7870230">
        <ele>355.1</ele>
        <time>2020-11-17T14:19:04Z</time>
      </trkpt>
      <trkpt lat="28.6640780" lon="-17.7870220">
        <ele>355.1</ele>
        <time>2020-11-17T14:19:05Z</time>
      </trkpt>
      <trkpt lat="28.6640780" lon="-17.7870220">
        <ele>355.1</ele>
        <time>2020-11-17T14:19:06Z</time>
      </trkpt>
      <trkpt lat="28.6640920" lon="-17.7870200">
        <ele>355.1</ele>
        <time>2020-11-17T14:19:07Z</time>
      </trkpt>
      <trkpt lat="28.6640920" lon="-17.7870200">
        <ele>355.1</ele>
        <time>2020-11-17T14:19:08Z</time>
      </trkpt>
      <trkpt lat="28.6641020" lon="-17.7870220">
        <ele>355.1</ele>
        <time>2020-11-17T14:19:09Z</time>
      </trkpt>
      <trkpt lat="28.6641020" lon="-17.7870220">
        <ele>355.1</ele>
        <time>2020-11-17T14:19:10Z</time>
      </trkpt>
      <trkpt lat="28.6641130" lon="-17.7870080">
        <ele>355.2</ele>
        <time>2020-11-17T14:19:11Z</time>
      </trkpt>
      <trkpt lat="28.6641150" lon="-17.7870030">
        <ele>355.2</ele>
        <time>2020-11-17T14:19:12Z</time>
      </trkpt>
      <trkpt lat="28.6641130" lon="-17.7870000">
        <ele>355.2</ele>
        <time>2020-11-17T14:19:13Z</time>
      </trkpt>
      <trkpt lat="28.6641130" lon="-17.7870000">
        <ele>355.2</ele>
        <time>2020-11-17T14:19:14Z</time>
      </trkpt>
      <trkpt lat="28.6641130" lon="-17.7870000">
        <ele>355.2</ele>
        <time>2020-11-17T14:19:20Z</time>
      </trkpt>
      <trkpt lat="28.6640430" lon="-17.7870270">
        <ele>355.3</ele>
        <time>2020-11-17T14:19:21Z</time>
      </trkpt>
      <trkpt lat="28.6640430" lon="-17.7870270">
        <ele>355.3</ele>
        <time>2020-11-17T14:19:22Z</time>
      </trkpt>
      <trkpt lat="28.6639880" lon="-17.7870550">
        <ele>355.4</ele>
        <time>2020-11-17T14:19:23Z</time>
      </trkpt>
      <trkpt lat="28.6639880" lon="-17.7870550">
        <ele>355.4</ele>
        <time>2020-11-17T14:19:24Z</time>
      </trkpt>
      <trkpt lat="28.6639250" lon="-17.7870720">
        <ele>355.5</ele>
        <time>2020-11-17T14:19:25Z</time>
      </trkpt>
      <trkpt lat="28.6639250" lon="-17.7870720">
        <ele>355.5</ele>
        <time>2020-11-17T14:19:26Z</time>
      </trkpt>
      <trkpt lat="28.6638830" lon="-17.7871080">
        <ele>355.5</ele>
        <time>2020-11-17T14:19:27Z</time>
      </trkpt>
      <trkpt lat="28.6638970" lon="-17.7871150">
        <ele>355.6</ele>
        <time>2020-11-17T14:19:28Z</time>
      </trkpt>
      <trkpt lat="28.6639100" lon="-17.7871170">
        <ele>355.6</ele>
        <time>2020-11-17T14:19:29Z</time>
      </trkpt>
      <trkpt lat="28.6639100" lon="-17.7871170">
        <ele>355.6</ele>
        <time>2020-11-17T14:19:30Z</time>
      </trkpt>
      <trkpt lat="28.6639370" lon="-17.7871100">
        <ele>355.6</ele>
        <time>2020-11-17T14:19:31Z</time>
      </trkpt>
      <trkpt lat="28.6639370" lon="-17.7871100">
        <ele>355.6</ele>
        <time>2020-11-17T14:19:32Z</time>
      </trkpt>
      <trkpt lat="28.6639420" lon="-17.7871100">
        <ele>355.7</ele>
        <time>2020-11-17T14:19:33Z</time>
      </trkpt>
      <trkpt lat="28.6639420" lon="-17.7871100">
        <ele>355.7</ele>
        <time>2020-11-17T14:19:34Z</time>
      </trkpt>
      <trkpt lat="28.6639320" lon="-17.7869530">
        <ele>355.9</ele>
        <time>2020-11-17T14:22:32Z</time>
      </trkpt>
      <trkpt lat="28.6639320" lon="-17.7869530">
        <ele>355.9</ele>
        <time>2020-11-17T14:22:33Z</time>
      </trkpt>
      <trkpt lat="28.6640020" lon="-17.7869620">
        <ele>356.0</ele>
        <time>2020-11-17T14:22:34Z</time>
      </trkpt>
      <trkpt lat="28.6640300" lon="-17.7869550">
        <ele>356.1</ele>
        <time>2020-11-17T14:22:35Z</time>
      </trkpt>
      <trkpt lat="28.6640300" lon="-17.7869550">
        <ele>356.1</ele>
        <time>2020-11-17T14:22:36Z</time>
      </trkpt>
      <trkpt lat="28.6640850" lon="-17.7869470">
        <ele>356.2</ele>
        <time>2020-11-17T14:22:37Z</time>
      </trkpt>
      <trkpt lat="28.6641120" lon="-17.7869400">
        <ele>356.2</ele>
        <time>2020-11-17T14:22:38Z</time>
      </trkpt>
      <trkpt lat="28.6641330" lon="-17.7869370">
        <ele>356.3</ele>
        <time>2020-11-17T14:22:39Z</time>
      </trkpt>
      <trkpt lat="28.6641330" lon="-17.7869370">
        <ele>356.3</ele>
        <time>2020-11-17T14:22:40Z</time>
      </trkpt>
      <trkpt lat="28.6641780" lon="-17.7869130">
        <ele>356.4</ele>
        <time>2020-11-17T14:22:41Z</time>
      </trkpt>
      <trkpt lat="28.6641930" lon="-17.7869200">
        <ele>356.4</ele>
        <time>2020-11-17T14:22:42Z</time>
      </trkpt>
      <trkpt lat="28.6641930" lon="-17.7869200">
        <ele>356.4</ele>
        <time>2020-11-17T14:22:43Z</time>
      </trkpt>
      <trkpt lat="28.6642200" lon="-17.7869130">
        <ele>356.5</ele>
        <time>2020-11-17T14:22:44Z</time>
      </trkpt>
      <trkpt lat="28.6642200" lon="-17.7869130">
        <ele>356.5</ele>
        <time>2020-11-17T14:22:45Z</time>
      </trkpt>
      <trkpt lat="28.6642430" lon="-17.7868980">
        <ele>356.5</ele>
        <time>2020-11-17T14:22:46Z</time>
      </trkpt>
      <trkpt lat="28.6642530" lon="-17.7868970">
        <ele>356.5</ele>
        <time>2020-11-17T14:22:47Z</time>
      </trkpt>
      <trkpt lat="28.6642700" lon="-17.7868920">
        <ele>356.6</ele>
        <time>2020-11-17T14:22:48Z</time>
      </trkpt>
      <trkpt lat="28.6642700" lon="-17.7868920">
        <ele>356.6</ele>
        <time>2020-11-17T14:22:49Z</time>
      </trkpt>
      <trkpt lat="28.6643030" lon="-17.7868850">
        <ele>356.7</ele>
        <time>2020-11-17T14:22:50Z</time>
      </trkpt>
      <trkpt lat="28.6643030" lon="-17.7868850">
        <ele>356.7</ele>
        <time>2020-11-17T14:22:51Z</time>
      </trkpt>
      <trkpt lat="28.6643400" lon="-17.7868900">
        <ele>356.9</ele>
        <time>2020-11-17T14:22:52Z</time>
      </trkpt>
      <trkpt lat="28.6643400" lon="-17.7868900">
        <ele>356.9</ele>
        <time>2020-11-17T14:22:53Z</time>
      </trkpt>
      <trkpt lat="28.6643870" lon="-17.7868880">
        <ele>357.1</ele>
        <time>2020-11-17T14:22:54Z</time>
      </trkpt>
      <trkpt lat="28.6643870" lon="-17.7868880">
        <ele>357.1</ele>
        <time>2020-11-17T14:22:55Z</time>
      </trkpt>
      <trkpt lat="28.6644370" lon="-17.7868920">
        <ele>357.3</ele>
        <time>2020-11-17T14:22:56Z</time>
      </trkpt>
      <trkpt lat="28.6644370" lon="-17.7868920">
        <ele>357.3</ele>
        <time>2020-11-17T14:22:57Z</time>
      </trkpt>
      <trkpt lat="28.6644880" lon="-17.7868900">
        <ele>357.5</ele>
        <time>2020-11-17T14:22:58Z</time>
      </trkpt>
      <trkpt lat="28.6645130" lon="-17.7868900">
        <ele>357.6</ele>
        <time>2020-11-17T14:22:59Z</time>
      </trkpt>
      <trkpt lat="28.6645130" lon="-17.7868900">
        <ele>357.6</ele>
        <time>2020-11-17T14:23:00Z</time>
      </trkpt>
      <trkpt lat="28.6645630" lon="-17.7868900">
        <ele>357.9</ele>
        <time>2020-11-17T14:23:01Z</time>
      </trkpt>
      <trkpt lat="28.6645630" lon="-17.7868900">
        <ele>357.9</ele>
        <time>2020-11-17T14:23:02Z</time>
      </trkpt>
      <trkpt lat="28.6646130" lon="-17.7868930">
        <ele>358.1</ele>
        <time>2020-11-17T14:23:03Z</time>
      </trkpt>
      <trkpt lat="28.6646130" lon="-17.7868930">
        <ele>358.1</ele>
        <time>2020-11-17T14:23:04Z</time>
      </trkpt>
      <trkpt lat="28.6646650" lon="-17.7868600">
        <ele>358.3</ele>
        <time>2020-11-17T14:23:05Z</time>
      </trkpt>
      <trkpt lat="28.6646880" lon="-17.7868480">
        <ele>358.4</ele>
        <time>2020-11-17T14:23:06Z</time>
      </trkpt>
      <trkpt lat="28.6646880" lon="-17.7868480">
        <ele>358.4</ele>
        <time>2020-11-17T14:23:07Z</time>
      </trkpt>
      <trkpt lat="28.6647420" lon="-17.7868420">
        <ele>358.7</ele>
        <time>2020-11-17T14:23:08Z</time>
      </trkpt>
      <trkpt lat="28.6647420" lon="-17.7868420">
        <ele>358.7</ele>
        <time>2020-11-17T14:23:09Z</time>
      </trkpt>
      <trkpt lat="28.6647980" lon="-17.7868370">
        <ele>358.9</ele>
        <time>2020-11-17T14:23:10Z</time>
      </trkpt>
      <trkpt lat="28.6648280" lon="-17.7868380">
        <ele>359.0</ele>
        <time>2020-11-17T14:23:11Z</time>
      </trkpt>
      <trkpt lat="28.6648280" lon="-17.7868380">
        <ele>359.0</ele>
        <time>2020-11-17T14:23:12Z</time>
      </trkpt>
      <trkpt lat="28.6648870" lon="-17.7868450">
        <ele>359.3</ele>
        <time>2020-11-17T14:23:13Z</time>
      </trkpt>
      <trkpt lat="28.6649150" lon="-17.7868500">
        <ele>359.4</ele>
        <time>2020-11-17T14:23:14Z</time>
      </trkpt>
      <trkpt lat="28.6649150" lon="-17.7868500">
        <ele>359.4</ele>
        <time>2020-11-17T14:23:15Z</time>
      </trkpt>
      <trkpt lat="28.6649670" lon="-17.7868580">
        <ele>359.6</ele>
        <time>2020-11-17T14:23:16Z</time>
      </trkpt>
      <trkpt lat="28.6649920" lon="-17.7868580">
        <ele>359.7</ele>
        <time>2020-11-17T14:23:17Z</time>
      </trkpt>
      <trkpt lat="28.6650150" lon="-17.7868550">
        <ele>359.8</ele>
        <time>2020-11-17T14:23:18Z</time>
      </trkpt>
      <trkpt lat="28.6650150" lon="-17.7868550">
        <ele>359.8</ele>
        <time>2020-11-17T14:23:19Z</time>
      </trkpt>
      <trkpt lat="28.6650670" lon="-17.7868480">
        <ele>360.1</ele>
        <time>2020-11-17T14:23:20Z</time>
      </trkpt>
      <trkpt lat="28.6650670" lon="-17.7868480">
        <ele>360.1</ele>
        <time>2020-11-17T14:23:21Z</time>
      </trkpt>
      <trkpt lat="28.6651180" lon="-17.7868450">
        <ele>360.3</ele>
        <time>2020-11-17T14:23:22Z</time>
      </trkpt>
      <trkpt lat="28.6651450" lon="-17.7868400">
        <ele>360.4</ele>
        <time>2020-11-17T14:23:23Z</time>
      </trkpt>
      <trkpt lat="28.6651700" lon="-17.7868420">
        <ele>360.5</ele>
        <time>2020-11-17T14:23:24Z</time>
      </trkpt>
      <trkpt lat="28.6651700" lon="-17.7868420">
        <ele>360.5</ele>
        <time>2020-11-17T14:23:25Z</time>
      </trkpt>
      <trkpt lat="28.6652230" lon="-17.7868370">
        <ele>360.7</ele>
        <time>2020-11-17T14:23:26Z</time>
      </trkpt>
      <trkpt lat="28.6652480" lon="-17.7868330">
        <ele>360.8</ele>
        <time>2020-11-17T14:23:27Z</time>
      </trkpt>
      <trkpt lat="28.6652480" lon="-17.7868330">
        <ele>360.8</ele>
        <time>2020-11-17T14:23:28Z</time>
      </trkpt>
      <trkpt lat="28.6653000" lon="-17.7868280">
        <ele>360.9</ele>
        <time>2020-11-17T14:23:29Z</time>
      </trkpt>
      <trkpt lat="28.6653000" lon="-17.7868280">
        <ele>360.9</ele>
        <time>2020-11-17T14:23:30Z</time>
      </trkpt>
      <trkpt lat="28.6653620" lon="-17.7868280">
        <ele>361.2</ele>
        <time>2020-11-17T14:23:31Z</time>
      </trkpt>
      <trkpt lat="28.6653620" lon="-17.7868280">
        <ele>361.2</ele>
        <time>2020-11-17T14:23:32Z</time>
      </trkpt>
      <trkpt lat="28.6654220" lon="-17.7868300">
        <ele>361.4</ele>
        <time>2020-11-17T14:23:33Z</time>
      </trkpt>
      <trkpt lat="28.6654220" lon="-17.7868300">
        <ele>361.4</ele>
        <time>2020-11-17T14:23:34Z</time>
      </trkpt>
      <trkpt lat="28.6654830" lon="-17.7868330">
        <ele>361.6</ele>
        <time>2020-11-17T14:23:35Z</time>
      </trkpt>
      <trkpt lat="28.6654830" lon="-17.7868330">
        <ele>361.6</ele>
        <time>2020-11-17T14:23:36Z</time>
      </trkpt>
      <trkpt lat="28.6655270" lon="-17.7868370">
        <ele>361.8</ele>
        <time>2020-11-17T14:23:37Z</time>
      </trkpt>
      <trkpt lat="28.6655270" lon="-17.7868370">
        <ele>361.8</ele>
        <time>2020-11-17T14:23:38Z</time>
      </trkpt>
      <trkpt lat="28.6655750" lon="-17.7868400">
        <ele>361.9</ele>
        <time>2020-11-17T14:23:39Z</time>
      </trkpt>
      <trkpt lat="28.6656000" lon="-17.7868380">
        <ele>362.0</ele>
        <time>2020-11-17T14:23:40Z</time>
      </trkpt>
      <trkpt lat="28.6656000" lon="-17.7868380">
        <ele>362.0</ele>
        <time>2020-11-17T14:23:41Z</time>
      </trkpt>
      <trkpt lat="28.6656530" lon="-17.7868420">
        <ele>362.2</ele>
        <time>2020-11-17T14:23:42Z</time>
      </trkpt>
      <trkpt lat="28.6656530" lon="-17.7868420">
        <ele>362.2</ele>
        <time>2020-11-17T14:23:43Z</time>
      </trkpt>
      <trkpt lat="28.6656530" lon="-17.7868420">
        <ele>362.2</ele>
        <time>2020-11-17T14:23:44Z</time>
      </trkpt>
      <trkpt lat="28.6657270" lon="-17.7868480">
        <ele>362.3</ele>
        <time>2020-11-17T14:23:45Z</time>
      </trkpt>
      <trkpt lat="28.6657270" lon="-17.7868480">
        <ele>362.3</ele>
        <time>2020-11-17T14:23:46Z</time>
      </trkpt>
      <trkpt lat="28.6657800" lon="-17.7868550">
        <ele>362.4</ele>
        <time>2020-11-17T14:23:47Z</time>
      </trkpt>
      <trkpt lat="28.6658100" lon="-17.7868580">
        <ele>362.5</ele>
        <time>2020-11-17T14:23:48Z</time>
      </trkpt>
      <trkpt lat="28.6658100" lon="-17.7868580">
        <ele>362.5</ele>
        <time>2020-11-17T14:23:49Z</time>
      </trkpt>
      <trkpt lat="28.6658630" lon="-17.7868600">
        <ele>362.6</ele>
        <time>2020-11-17T14:23:50Z</time>
      </trkpt>
      <trkpt lat="28.6658950" lon="-17.7868570">
        <ele>362.6</ele>
        <time>2020-11-17T14:23:51Z</time>
      </trkpt>
      <trkpt lat="28.6658950" lon="-17.7868570">
        <ele>362.6</ele>
        <time>2020-11-17T14:23:52Z</time>
      </trkpt>
      <trkpt lat="28.6659570" lon="-17.7868650">
        <ele>362.7</ele>
        <time>2020-11-17T14:23:53Z</time>
      </trkpt>
      <trkpt lat="28.6659880" lon="-17.7868670">
        <ele>362.8</ele>
        <time>2020-11-17T14:23:54Z</time>
      </trkpt>
      <trkpt lat="28.6659880" lon="-17.7868670">
        <ele>362.8</ele>
        <time>2020-11-17T14:23:55Z</time>
      </trkpt>
      <trkpt lat="28.6660530" lon="-17.7868750">
        <ele>362.9</ele>
        <time>2020-11-17T14:23:56Z</time>
      </trkpt>
      <trkpt lat="28.6660530" lon="-17.7868750">
        <ele>362.9</ele>
        <time>2020-11-17T14:23:57Z</time>
      </trkpt>
      <trkpt lat="28.6661170" lon="-17.7868900">
        <ele>363.0</ele>
        <time>2020-11-17T14:23:58Z</time>
      </trkpt>
      <trkpt lat="28.6661170" lon="-17.7868900">
        <ele>363.0</ele>
        <time>2020-11-17T14:23:59Z</time>
      </trkpt>
      <trkpt lat="28.6661830" lon="-17.7869120">
        <ele>363.1</ele>
        <time>2020-11-17T14:24:00Z</time>
      </trkpt>
      <trkpt lat="28.6661830" lon="-17.7869120">
        <ele>363.1</ele>
        <time>2020-11-17T14:24:01Z</time>
      </trkpt>
      <trkpt lat="28.6662500" lon="-17.7869330">
        <ele>363.2</ele>
        <time>2020-11-17T14:24:02Z</time>
      </trkpt>
      <trkpt lat="28.6662500" lon="-17.7869330">
        <ele>363.2</ele>
        <time>2020-11-17T14:24:03Z</time>
      </trkpt>
      <trkpt lat="28.6663180" lon="-17.7869580">
        <ele>363.4</ele>
        <time>2020-11-17T14:24:04Z</time>
      </trkpt>
      <trkpt lat="28.6663530" lon="-17.7869730">
        <ele>363.4</ele>
        <time>2020-11-17T14:24:05Z</time>
      </trkpt>
      <trkpt lat="28.6663530" lon="-17.7869730">
        <ele>363.4</ele>
        <time>2020-11-17T14:24:06Z</time>
      </trkpt>
      <trkpt lat="28.6664270" lon="-17.7869870">
        <ele>363.6</ele>
        <time>2020-11-17T14:24:07Z</time>
      </trkpt>
      <trkpt lat="28.6664630" lon="-17.7870000">
        <ele>363.7</ele>
        <time>2020-11-17T14:24:08Z</time>
      </trkpt>
      <trkpt lat="28.6664630" lon="-17.7870000">
        <ele>363.7</ele>
        <time>2020-11-17T14:24:09Z</time>
      </trkpt>
      <trkpt lat="28.6665280" lon="-17.7870320">
        <ele>363.9</ele>
        <time>2020-11-17T14:24:10Z</time>
      </trkpt>
      <trkpt lat="28.6665620" lon="-17.7870450">
        <ele>364.0</ele>
        <time>2020-11-17T14:24:11Z</time>
      </trkpt>
      <trkpt lat="28.6665620" lon="-17.7870450">
        <ele>364.0</ele>
        <time>2020-11-17T14:24:12Z</time>
      </trkpt>
      <trkpt lat="28.6666280" lon="-17.7870670">
        <ele>364.2</ele>
        <time>2020-11-17T14:24:13Z</time>
      </trkpt>
      <trkpt lat="28.6666620" lon="-17.7870800">
        <ele>364.4</ele>
        <time>2020-11-17T14:24:14Z</time>
      </trkpt>
      <trkpt lat="28.6666620" lon="-17.7870800">
        <ele>364.4</ele>
        <time>2020-11-17T14:24:15Z</time>
      </trkpt>
      <trkpt lat="28.6667280" lon="-17.7870980">
        <ele>364.6</ele>
        <time>2020-11-17T14:24:16Z</time>
      </trkpt>
      <trkpt lat="28.6667630" lon="-17.7871070">
        <ele>364.8</ele>
        <time>2020-11-17T14:24:17Z</time>
      </trkpt>
      <trkpt lat="28.6667970" lon="-17.7871100">
        <ele>365.0</ele>
        <time>2020-11-17T14:24:18Z</time>
      </trkpt>
      <trkpt lat="28.6667970" lon="-17.7871100">
        <ele>365.0</ele>
        <time>2020-11-17T14:24:19Z</time>
      </trkpt>
      <trkpt lat="28.6668620" lon="-17.7871080">
        <ele>365.3</ele>
        <time>2020-11-17T14:24:20Z</time>
      </trkpt>
      <trkpt lat="28.6668620" lon="-17.7871080">
        <ele>365.3</ele>
        <time>2020-11-17T14:24:21Z</time>
      </trkpt>
      <trkpt lat="28.6669220" lon="-17.7871030">
        <ele>365.5</ele>
        <time>2020-11-17T14:24:22Z</time>
      </trkpt>
      <trkpt lat="28.6669220" lon="-17.7871030">
        <ele>365.5</ele>
        <time>2020-11-17T14:24:23Z</time>
      </trkpt>
      <trkpt lat="28.6669800" lon="-17.7870900">
        <ele>365.8</ele>
        <time>2020-11-17T14:24:24Z</time>
      </trkpt>
      <trkpt lat="28.6669800" lon="-17.7870900">
        <ele>365.8</ele>
        <time>2020-11-17T14:24:25Z</time>
      </trkpt>
      <trkpt lat="28.6670430" lon="-17.7870680">
        <ele>366.0</ele>
        <time>2020-11-17T14:24:26Z</time>
      </trkpt>
      <trkpt lat="28.6670430" lon="-17.7870680">
        <ele>366.0</ele>
        <time>2020-11-17T14:24:27Z</time>
      </trkpt>
      <trkpt lat="28.6671020" lon="-17.7870330">
        <ele>366.2</ele>
        <time>2020-11-17T14:24:28Z</time>
      </trkpt>
      <trkpt lat="28.6671020" lon="-17.7870330">
        <ele>366.2</ele>
        <time>2020-11-17T14:24:29Z</time>
      </trkpt>
      <trkpt lat="28.6671650" lon="-17.7869900">
        <ele>366.3</ele>
        <time>2020-11-17T14:24:30Z</time>
      </trkpt>
      <trkpt lat="28.6671930" lon="-17.7869670">
        <ele>366.4</ele>
        <time>2020-11-17T14:24:31Z</time>
      </trkpt>
      <trkpt lat="28.6671930" lon="-17.7869670">
        <ele>366.4</ele>
        <time>2020-11-17T14:24:32Z</time>
      </trkpt>
      <trkpt lat="28.6672480" lon="-17.7869070">
        <ele>366.5</ele>
        <time>2020-11-17T14:24:33Z</time>
      </trkpt>
      <trkpt lat="28.6672480" lon="-17.7869070">
        <ele>366.5</ele>
        <time>2020-11-17T14:24:34Z</time>
      </trkpt>
      <trkpt lat="28.6672930" lon="-17.7868370">
        <ele>366.5</ele>
        <time>2020-11-17T14:24:35Z</time>
      </trkpt>
      <trkpt lat="28.6673130" lon="-17.7867980">
        <ele>366.5</ele>
        <time>2020-11-17T14:24:36Z</time>
      </trkpt>
      <trkpt lat="28.6673130" lon="-17.7867980">
        <ele>366.5</ele>
        <time>2020-11-17T14:24:37Z</time>
      </trkpt>
      <trkpt lat="28.6673580" lon="-17.7867270">
        <ele>366.6</ele>
        <time>2020-11-17T14:24:38Z</time>
      </trkpt>
      <trkpt lat="28.6673580" lon="-17.7867270">
        <ele>366.6</ele>
        <time>2020-11-17T14:24:39Z</time>
      </trkpt>
      <trkpt lat="28.6674030" lon="-17.7866530">
        <ele>366.6</ele>
        <time>2020-11-17T14:24:40Z</time>
      </trkpt>
      <trkpt lat="28.6674030" lon="-17.7866530">
        <ele>366.6</ele>
        <time>2020-11-17T14:24:41Z</time>
      </trkpt>
      <trkpt lat="28.6674570" lon="-17.7865800">
        <ele>366.6</ele>
        <time>2020-11-17T14:24:42Z</time>
      </trkpt>
      <trkpt lat="28.6674570" lon="-17.7865800">
        <ele>366.6</ele>
        <time>2020-11-17T14:24:43Z</time>
      </trkpt>
      <trkpt lat="28.6675100" lon="-17.7865050">
        <ele>366.6</ele>
        <time>2020-11-17T14:24:44Z</time>
      </trkpt>
      <trkpt lat="28.6675100" lon="-17.7865050">
        <ele>366.6</ele>
        <time>2020-11-17T14:24:45Z</time>
      </trkpt>
      <trkpt lat="28.6675700" lon="-17.7864370">
        <ele>366.5</ele>
        <time>2020-11-17T14:24:46Z</time>
      </trkpt>
      <trkpt lat="28.6675700" lon="-17.7864370">
        <ele>366.5</ele>
        <time>2020-11-17T14:24:47Z</time>
      </trkpt>
      <trkpt lat="28.6676280" lon="-17.7863650">
        <ele>366.4</ele>
        <time>2020-11-17T14:24:48Z</time>
      </trkpt>
      <trkpt lat="28.6676280" lon="-17.7863650">
        <ele>366.4</ele>
        <time>2020-11-17T14:24:49Z</time>
      </trkpt>
      <trkpt lat="28.6676870" lon="-17.7862930">
        <ele>366.4</ele>
        <time>2020-11-17T14:24:50Z</time>
      </trkpt>
      <trkpt lat="28.6677170" lon="-17.7862570">
        <ele>366.3</ele>
        <time>2020-11-17T14:24:51Z</time>
      </trkpt>
      <trkpt lat="28.6677170" lon="-17.7862570">
        <ele>366.3</ele>
        <time>2020-11-17T14:24:52Z</time>
      </trkpt>
      <trkpt lat="28.6677730" lon="-17.7861830">
        <ele>366.3</ele>
        <time>2020-11-17T14:24:53Z</time>
      </trkpt>
      <trkpt lat="28.6678030" lon="-17.7861470">
        <ele>366.2</ele>
        <time>2020-11-17T14:24:54Z</time>
      </trkpt>
      <trkpt lat="28.6678330" lon="-17.7861120">
        <ele>366.2</ele>
        <time>2020-11-17T14:24:55Z</time>
      </trkpt>
      <trkpt lat="28.6678330" lon="-17.7861120">
        <ele>366.2</ele>
        <time>2020-11-17T14:24:56Z</time>
      </trkpt>
      <trkpt lat="28.6678930" lon="-17.7860430">
        <ele>366.1</ele>
        <time>2020-11-17T14:24:57Z</time>
      </trkpt>
      <trkpt lat="28.6679220" lon="-17.7860070">
        <ele>366.0</ele>
        <time>2020-11-17T14:24:58Z</time>
      </trkpt>
      <trkpt lat="28.6679220" lon="-17.7860070">
        <ele>366.0</ele>
        <time>2020-11-17T14:24:59Z</time>
      </trkpt>
      <trkpt lat="28.6679750" lon="-17.7859370">
        <ele>366.0</ele>
        <time>2020-11-17T14:25:00Z</time>
      </trkpt>
      <trkpt lat="28.6679750" lon="-17.7859370">
        <ele>366.0</ele>
        <time>2020-11-17T14:25:01Z</time>
      </trkpt>
      <trkpt lat="28.6680380" lon="-17.7858580">
        <ele>365.9</ele>
        <time>2020-11-17T14:25:02Z</time>
      </trkpt>
      <trkpt lat="28.6680380" lon="-17.7858580">
        <ele>365.9</ele>
        <time>2020-11-17T14:25:03Z</time>
      </trkpt>
      <trkpt lat="28.6681030" lon="-17.7857820">
        <ele>365.8</ele>
        <time>2020-11-17T14:25:04Z</time>
      </trkpt>
      <trkpt lat="28.6681330" lon="-17.7857450">
        <ele>365.8</ele>
        <time>2020-11-17T14:25:05Z</time>
      </trkpt>
      <trkpt lat="28.6681330" lon="-17.7857450">
        <ele>365.8</ele>
        <time>2020-11-17T14:25:06Z</time>
      </trkpt>
      <trkpt lat="28.6681920" lon="-17.7856700">
        <ele>365.6</ele>
        <time>2020-11-17T14:25:07Z</time>
      </trkpt>
      <trkpt lat="28.6682220" lon="-17.7856280">
        <ele>365.6</ele>
        <time>2020-11-17T14:25:08Z</time>
      </trkpt>
      <trkpt lat="28.6682220" lon="-17.7856280">
        <ele>365.6</ele>
        <time>2020-11-17T14:25:09Z</time>
      </trkpt>
      <trkpt lat="28.6682900" lon="-17.7855480">
        <ele>365.5</ele>
        <time>2020-11-17T14:25:10Z</time>
      </trkpt>
      <trkpt lat="28.6683270" lon="-17.7855030">
        <ele>365.4</ele>
        <time>2020-11-17T14:25:11Z</time>
      </trkpt>
      <trkpt lat="28.6683650" lon="-17.7854580">
        <ele>365.4</ele>
        <time>2020-11-17T14:25:12Z</time>
      </trkpt>
      <trkpt lat="28.6684070" lon="-17.7854130">
        <ele>365.3</ele>
        <time>2020-11-17T14:25:13Z</time>
      </trkpt>
      <trkpt lat="28.6684070" lon="-17.7854130">
        <ele>365.3</ele>
        <time>2020-11-17T14:25:14Z</time>
      </trkpt>
      <trkpt lat="28.6684900" lon="-17.7853350">
        <ele>365.1</ele>
        <time>2020-11-17T14:25:15Z</time>
      </trkpt>
      <trkpt lat="28.6685350" lon="-17.7852950">
        <ele>365.0</ele>
        <time>2020-11-17T14:25:16Z</time>
      </trkpt>
      <trkpt lat="28.6685350" lon="-17.7852950">
        <ele>365.0</ele>
        <time>2020-11-17T14:25:17Z</time>
      </trkpt>
      <trkpt lat="28.6686320" lon="-17.7852150">
        <ele>364.8</ele>
        <time>2020-11-17T14:25:18Z</time>
      </trkpt>
      <trkpt lat="28.6686320" lon="-17.7852150">
        <ele>364.8</ele>
        <time>2020-11-17T14:25:19Z</time>
      </trkpt>
      <trkpt lat="28.6687270" lon="-17.7851330">
        <ele>364.7</ele>
        <time>2020-11-17T14:25:20Z</time>
      </trkpt>
      <trkpt lat="28.6687270" lon="-17.7851330">
        <ele>364.7</ele>
        <time>2020-11-17T14:25:21Z</time>
      </trkpt>
      <trkpt lat="28.6688200" lon="-17.7850470">
        <ele>364.5</ele>
        <time>2020-11-17T14:25:22Z</time>
      </trkpt>
      <trkpt lat="28.6688700" lon="-17.7850070">
        <ele>364.4</ele>
        <time>2020-11-17T14:25:23Z</time>
      </trkpt>
      <trkpt lat="28.6689200" lon="-17.7849670">
        <ele>364.3</ele>
        <time>2020-11-17T14:25:24Z</time>
      </trkpt>
      <trkpt lat="28.6689200" lon="-17.7849670">
        <ele>364.3</ele>
        <time>2020-11-17T14:25:25Z</time>
      </trkpt>
      <trkpt lat="28.6690280" lon="-17.7848920">
        <ele>364.1</ele>
        <time>2020-11-17T14:25:26Z</time>
      </trkpt>
      <trkpt lat="28.6690280" lon="-17.7848920">
        <ele>364.1</ele>
        <time>2020-11-17T14:25:27Z</time>
      </trkpt>
      <trkpt lat="28.6691500" lon="-17.7848370">
        <ele>363.8</ele>
        <time>2020-11-17T14:25:28Z</time>
      </trkpt>
      <trkpt lat="28.6691500" lon="-17.7848370">
        <ele>363.8</ele>
        <time>2020-11-17T14:25:29Z</time>
      </trkpt>
      <trkpt lat="28.6692770" lon="-17.7848100">
        <ele>363.5</ele>
        <time>2020-11-17T14:25:30Z</time>
      </trkpt>
      <trkpt lat="28.6692770" lon="-17.7848100">
        <ele>363.5</ele>
        <time>2020-11-17T14:25:31Z</time>
      </trkpt>
      <trkpt lat="28.6694000" lon="-17.7847900">
        <ele>363.3</ele>
        <time>2020-11-17T14:25:32Z</time>
      </trkpt>
      <trkpt lat="28.6694000" lon="-17.7847900">
        <ele>363.3</ele>
        <time>2020-11-17T14:25:33Z</time>
      </trkpt>
      <trkpt lat="28.6695300" lon="-17.7847630">
        <ele>363.0</ele>
        <time>2020-11-17T14:25:34Z</time>
      </trkpt>
      <trkpt lat="28.6695300" lon="-17.7847630">
        <ele>363.0</ele>
        <time>2020-11-17T14:25:35Z</time>
      </trkpt>
      <trkpt lat="28.6696680" lon="-17.7847430">
        <ele>362.7</ele>
        <time>2020-11-17T14:25:36Z</time>
      </trkpt>
      <trkpt lat="28.6696680" lon="-17.7847430">
        <ele>362.7</ele>
        <time>2020-11-17T14:25:37Z</time>
      </trkpt>
      <trkpt lat="28.6698020" lon="-17.7847170">
        <ele>362.4</ele>
        <time>2020-11-17T14:25:38Z</time>
      </trkpt>
      <trkpt lat="28.6698020" lon="-17.7847170">
        <ele>362.4</ele>
        <time>2020-11-17T14:25:39Z</time>
      </trkpt>
      <trkpt lat="28.6699380" lon="-17.7846770">
        <ele>362.2</ele>
        <time>2020-11-17T14:25:40Z</time>
      </trkpt>
      <trkpt lat="28.6699380" lon="-17.7846770">
        <ele>362.2</ele>
        <time>2020-11-17T14:25:41Z</time>
      </trkpt>
      <trkpt lat="28.6700750" lon="-17.7846300">
        <ele>362.0</ele>
        <time>2020-11-17T14:25:42Z</time>
      </trkpt>
      <trkpt lat="28.6700750" lon="-17.7846300">
        <ele>362.0</ele>
        <time>2020-11-17T14:25:43Z</time>
      </trkpt>
      <trkpt lat="28.6702030" lon="-17.7845620">
        <ele>361.9</ele>
        <time>2020-11-17T14:25:44Z</time>
      </trkpt>
      <trkpt lat="28.6702030" lon="-17.7845620">
        <ele>361.9</ele>
        <time>2020-11-17T14:25:45Z</time>
      </trkpt>
      <trkpt lat="28.6703230" lon="-17.7844830">
        <ele>361.8</ele>
        <time>2020-11-17T14:25:46Z</time>
      </trkpt>
      <trkpt lat="28.6703230" lon="-17.7844830">
        <ele>361.8</ele>
        <time>2020-11-17T14:25:47Z</time>
      </trkpt>
      <trkpt lat="28.6704150" lon="-17.7843850">
        <ele>361.8</ele>
        <time>2020-11-17T14:25:48Z</time>
      </trkpt>
      <trkpt lat="28.6704150" lon="-17.7843850">
        <ele>361.8</ele>
        <time>2020-11-17T14:25:49Z</time>
      </trkpt>
      <trkpt lat="28.6704980" lon="-17.7842780">
        <ele>361.8</ele>
        <time>2020-11-17T14:25:50Z</time>
      </trkpt>
      <trkpt lat="28.6704980" lon="-17.7842780">
        <ele>361.8</ele>
        <time>2020-11-17T14:25:51Z</time>
      </trkpt>
      <trkpt lat="28.6705770" lon="-17.7841730">
        <ele>361.8</ele>
        <time>2020-11-17T14:25:52Z</time>
      </trkpt>
      <trkpt lat="28.6705770" lon="-17.7841730">
        <ele>361.8</ele>
        <time>2020-11-17T14:25:53Z</time>
      </trkpt>
      <trkpt lat="28.6706550" lon="-17.7840750">
        <ele>361.9</ele>
        <time>2020-11-17T14:25:54Z</time>
      </trkpt>
      <trkpt lat="28.6706930" lon="-17.7840270">
        <ele>361.9</ele>
        <time>2020-11-17T14:25:55Z</time>
      </trkpt>
      <trkpt lat="28.6706930" lon="-17.7840270">
        <ele>361.9</ele>
        <time>2020-11-17T14:25:56Z</time>
      </trkpt>
      <trkpt lat="28.6707700" lon="-17.7839300">
        <ele>362.0</ele>
        <time>2020-11-17T14:25:57Z</time>
      </trkpt>
      <trkpt lat="28.6708120" lon="-17.7838870">
        <ele>362.0</ele>
        <time>2020-11-17T14:25:58Z</time>
      </trkpt>
      <trkpt lat="28.6708120" lon="-17.7838870">
        <ele>362.0</ele>
        <time>2020-11-17T14:25:59Z</time>
      </trkpt>
      <trkpt lat="28.6708980" lon="-17.7838030">
        <ele>362.2</ele>
        <time>2020-11-17T14:26:00Z</time>
      </trkpt>
      <trkpt lat="28.6708980" lon="-17.7838030">
        <ele>362.2</ele>
        <time>2020-11-17T14:26:01Z</time>
      </trkpt>
      <trkpt lat="28.6709850" lon="-17.7837280">
        <ele>362.3</ele>
        <time>2020-11-17T14:26:02Z</time>
      </trkpt>
      <trkpt lat="28.6709850" lon="-17.7837280">
        <ele>362.3</ele>
        <time>2020-11-17T14:26:03Z</time>
      </trkpt>
      <trkpt lat="28.6710680" lon="-17.7836570">
        <ele>362.5</ele>
        <time>2020-11-17T14:26:04Z</time>
      </trkpt>
      <trkpt lat="28.6710680" lon="-17.7836570">
        <ele>362.5</ele>
        <time>2020-11-17T14:26:05Z</time>
      </trkpt>
      <trkpt lat="28.6711520" lon="-17.7835880">
        <ele>362.7</ele>
        <time>2020-11-17T14:26:06Z</time>
      </trkpt>
      <trkpt lat="28.6711520" lon="-17.7835880">
        <ele>362.7</ele>
        <time>2020-11-17T14:26:07Z</time>
      </trkpt>
      <trkpt lat="28.6712350" lon="-17.7835270">
        <ele>362.9</ele>
        <time>2020-11-17T14:26:08Z</time>
      </trkpt>
      <trkpt lat="28.6712770" lon="-17.7834950">
        <ele>363.0</ele>
        <time>2020-11-17T14:26:09Z</time>
      </trkpt>
      <trkpt lat="28.6712770" lon="-17.7834950">
        <ele>363.0</ele>
        <time>2020-11-17T14:26:10Z</time>
      </trkpt>
      <trkpt lat="28.6713600" lon="-17.7834330">
        <ele>363.2</ele>
        <time>2020-11-17T14:26:11Z</time>
      </trkpt>
      <trkpt lat="28.6714020" lon="-17.7833970">
        <ele>363.3</ele>
        <time>2020-11-17T14:26:12Z</time>
      </trkpt>
      <trkpt lat="28.6714020" lon="-17.7833970">
        <ele>363.3</ele>
        <time>2020-11-17T14:26:13Z</time>
      </trkpt>
      <trkpt lat="28.6714830" lon="-17.7833300">
        <ele>363.5</ele>
        <time>2020-11-17T14:26:14Z</time>
      </trkpt>
      <trkpt lat="28.6714830" lon="-17.7833300">
        <ele>363.5</ele>
        <time>2020-11-17T14:26:15Z</time>
      </trkpt>
      <trkpt lat="28.6715630" lon="-17.7832680">
        <ele>363.8</ele>
        <time>2020-11-17T14:26:16Z</time>
      </trkpt>
      <trkpt lat="28.6715630" lon="-17.7832680">
        <ele>363.8</ele>
        <time>2020-11-17T14:26:17Z</time>
      </trkpt>
      <trkpt lat="28.6716380" lon="-17.7832030">
        <ele>364.1</ele>
        <time>2020-11-17T14:26:18Z</time>
      </trkpt>
      <trkpt lat="28.6716380" lon="-17.7832030">
        <ele>364.1</ele>
        <time>2020-11-17T14:26:19Z</time>
      </trkpt>
      <trkpt lat="28.6717150" lon="-17.7831450">
        <ele>364.3</ele>
        <time>2020-11-17T14:26:20Z</time>
      </trkpt>
      <trkpt lat="28.6717150" lon="-17.7831450">
        <ele>364.3</ele>
        <time>2020-11-17T14:26:21Z</time>
      </trkpt>
      <trkpt lat="28.6717880" lon="-17.7830880">
        <ele>364.6</ele>
        <time>2020-11-17T14:26:22Z</time>
      </trkpt>
      <trkpt lat="28.6718250" lon="-17.7830600">
        <ele>364.7</ele>
        <time>2020-11-17T14:26:23Z</time>
      </trkpt>
      <trkpt lat="28.6718250" lon="-17.7830600">
        <ele>364.7</ele>
        <time>2020-11-17T14:26:24Z</time>
      </trkpt>
      <trkpt lat="28.6719000" lon="-17.7830070">
        <ele>364.9</ele>
        <time>2020-11-17T14:26:25Z</time>
      </trkpt>
      <trkpt lat="28.6719000" lon="-17.7830070">
        <ele>364.9</ele>
        <time>2020-11-17T14:26:26Z</time>
      </trkpt>
      <trkpt lat="28.6719720" lon="-17.7829550">
        <ele>364.9</ele>
        <time>2020-11-17T14:26:27Z</time>
      </trkpt>
      <trkpt lat="28.6719720" lon="-17.7829550">
        <ele>364.9</ele>
        <time>2020-11-17T14:26:28Z</time>
      </trkpt>
      <trkpt lat="28.6720370" lon="-17.7828950">
        <ele>365.0</ele>
        <time>2020-11-17T14:26:29Z</time>
      </trkpt>
      <trkpt lat="28.6720370" lon="-17.7828950">
        <ele>365.0</ele>
        <time>2020-11-17T14:26:30Z</time>
      </trkpt>
      <trkpt lat="28.6720950" lon="-17.7828320">
        <ele>365.1</ele>
        <time>2020-11-17T14:26:31Z</time>
      </trkpt>
      <trkpt lat="28.6720950" lon="-17.7828320">
        <ele>365.1</ele>
        <time>2020-11-17T14:26:32Z</time>
      </trkpt>
      <trkpt lat="28.6721570" lon="-17.7827820">
        <ele>365.3</ele>
        <time>2020-11-17T14:26:33Z</time>
      </trkpt>
      <trkpt lat="28.6721570" lon="-17.7827820">
        <ele>365.3</ele>
        <time>2020-11-17T14:26:34Z</time>
      </trkpt>
      <trkpt lat="28.6722220" lon="-17.7827380">
        <ele>365.5</ele>
        <time>2020-11-17T14:26:35Z</time>
      </trkpt>
      <trkpt lat="28.6722520" lon="-17.7827150">
        <ele>365.7</ele>
        <time>2020-11-17T14:26:36Z</time>
      </trkpt>
      <trkpt lat="28.6722520" lon="-17.7827150">
        <ele>365.7</ele>
        <time>2020-11-17T14:26:37Z</time>
      </trkpt>
      <trkpt lat="28.6723150" lon="-17.7826700">
        <ele>366.0</ele>
        <time>2020-11-17T14:26:38Z</time>
      </trkpt>
      <trkpt lat="28.6723470" lon="-17.7826450">
        <ele>366.1</ele>
        <time>2020-11-17T14:26:39Z</time>
      </trkpt>
      <trkpt lat="28.6723470" lon="-17.7826450">
        <ele>366.1</ele>
        <time>2020-11-17T14:26:40Z</time>
      </trkpt>
      <trkpt lat="28.6723970" lon="-17.7825980">
        <ele>366.4</ele>
        <time>2020-11-17T14:26:41Z</time>
      </trkpt>
      <trkpt lat="28.6723970" lon="-17.7825980">
        <ele>366.4</ele>
        <time>2020-11-17T14:26:42Z</time>
      </trkpt>
      <trkpt lat="28.6724450" lon="-17.7825470">
        <ele>366.7</ele>
        <time>2020-11-17T14:26:43Z</time>
      </trkpt>
      <trkpt lat="28.6724730" lon="-17.7825280">
        <ele>366.8</ele>
        <time>2020-11-17T14:26:44Z</time>
      </trkpt>
      <trkpt lat="28.6724730" lon="-17.7825280">
        <ele>366.8</ele>
        <time>2020-11-17T14:26:45Z</time>
      </trkpt>
      <trkpt lat="28.6725470" lon="-17.7824770">
        <ele>367.2</ele>
        <time>2020-11-17T14:26:46Z</time>
      </trkpt>
      <trkpt lat="28.6725470" lon="-17.7824770">
        <ele>367.2</ele>
        <time>2020-11-17T14:26:47Z</time>
      </trkpt>
      <trkpt lat="28.6726200" lon="-17.7824270">
        <ele>367.5</ele>
        <time>2020-11-17T14:26:48Z</time>
      </trkpt>
      <trkpt lat="28.6726200" lon="-17.7824270">
        <ele>367.5</ele>
        <time>2020-11-17T14:26:49Z</time>
      </trkpt>
      <trkpt lat="28.6726920" lon="-17.7823830">
        <ele>367.7</ele>
        <time>2020-11-17T14:26:50Z</time>
      </trkpt>
      <trkpt lat="28.6727300" lon="-17.7823600">
        <ele>367.9</ele>
        <time>2020-11-17T14:26:51Z</time>
      </trkpt>
      <trkpt lat="28.6727720" lon="-17.7823380">
        <ele>368.0</ele>
        <time>2020-11-17T14:26:52Z</time>
      </trkpt>
      <trkpt lat="28.6727720" lon="-17.7823380">
        <ele>368.0</ele>
        <time>2020-11-17T14:26:53Z</time>
      </trkpt>
      <trkpt lat="28.6728500" lon="-17.7822970">
        <ele>368.2</ele>
        <time>2020-11-17T14:26:54Z</time>
      </trkpt>
      <trkpt lat="28.6728500" lon="-17.7822970">
        <ele>368.2</ele>
        <time>2020-11-17T14:26:55Z</time>
      </trkpt>
      <trkpt lat="28.6729330" lon="-17.7822600">
        <ele>368.4</ele>
        <time>2020-11-17T14:26:56Z</time>
      </trkpt>
      <trkpt lat="28.6729730" lon="-17.7822430">
        <ele>368.5</ele>
        <time>2020-11-17T14:26:57Z</time>
      </trkpt>
      <trkpt lat="28.6729730" lon="-17.7822430">
        <ele>368.5</ele>
        <time>2020-11-17T14:26:58Z</time>
      </trkpt>
      <trkpt lat="28.6730550" lon="-17.7822080">
        <ele>368.7</ele>
        <time>2020-11-17T14:26:59Z</time>
      </trkpt>
      <trkpt lat="28.6730980" lon="-17.7821920">
        <ele>368.8</ele>
        <time>2020-11-17T14:27:00Z</time>
      </trkpt>
      <trkpt lat="28.6730980" lon="-17.7821920">
        <ele>368.8</ele>
        <time>2020-11-17T14:27:01Z</time>
      </trkpt>
      <trkpt lat="28.6731820" lon="-17.7821620">
        <ele>369.0</ele>
        <time>2020-11-17T14:27:02Z</time>
      </trkpt>
      <trkpt lat="28.6731820" lon="-17.7821620">
        <ele>369.0</ele>
        <time>2020-11-17T14:27:03Z</time>
      </trkpt>
      <trkpt lat="28.6732680" lon="-17.7821320">
        <ele>369.1</ele>
        <time>2020-11-17T14:27:04Z</time>
      </trkpt>
      <trkpt lat="28.6732680" lon="-17.7821320">
        <ele>369.1</ele>
        <time>2020-11-17T14:27:05Z</time>
      </trkpt>
      <trkpt lat="28.6733530" lon="-17.7821000">
        <ele>369.3</ele>
        <time>2020-11-17T14:27:06Z</time>
      </trkpt>
      <trkpt lat="28.6733930" lon="-17.7820850">
        <ele>369.4</ele>
        <time>2020-11-17T14:27:07Z</time>
      </trkpt>
      <trkpt lat="28.6733930" lon="-17.7820850">
        <ele>369.4</ele>
        <time>2020-11-17T14:27:08Z</time>
      </trkpt>
      <trkpt lat="28.6734770" lon="-17.7820580">
        <ele>369.6</ele>
        <time>2020-11-17T14:27:09Z</time>
      </trkpt>
      <trkpt lat="28.6735170" lon="-17.7820430">
        <ele>369.6</ele>
        <time>2020-11-17T14:27:10Z</time>
      </trkpt>
      <trkpt lat="28.6735170" lon="-17.7820430">
        <ele>369.6</ele>
        <time>2020-11-17T14:27:11Z</time>
      </trkpt>
      <trkpt lat="28.6735900" lon="-17.7819970">
        <ele>369.7</ele>
        <time>2020-11-17T14:27:12Z</time>
      </trkpt>
      <trkpt lat="28.6736280" lon="-17.7819720">
        <ele>369.8</ele>
        <time>2020-11-17T14:27:13Z</time>
      </trkpt>
      <trkpt lat="28.6736280" lon="-17.7819720">
        <ele>369.8</ele>
        <time>2020-11-17T14:27:14Z</time>
      </trkpt>
      <trkpt lat="28.6737130" lon="-17.7819380">
        <ele>369.9</ele>
        <time>2020-11-17T14:27:15Z</time>
      </trkpt>
      <trkpt lat="28.6737520" lon="-17.7819200">
        <ele>370.0</ele>
        <time>2020-11-17T14:27:16Z</time>
      </trkpt>
      <trkpt lat="28.6737520" lon="-17.7819200">
        <ele>370.0</ele>
        <time>2020-11-17T14:27:17Z</time>
      </trkpt>
      <trkpt lat="28.6738280" lon="-17.7818850">
        <ele>370.1</ele>
        <time>2020-11-17T14:27:18Z</time>
      </trkpt>
      <trkpt lat="28.6738280" lon="-17.7818850">
        <ele>370.1</ele>
        <time>2020-11-17T14:27:19Z</time>
      </trkpt>
      <trkpt lat="28.6739080" lon="-17.7818580">
        <ele>370.3</ele>
        <time>2020-11-17T14:27:20Z</time>
      </trkpt>
      <trkpt lat="28.6739450" lon="-17.7818380">
        <ele>370.3</ele>
        <time>2020-11-17T14:27:21Z</time>
      </trkpt>
      <trkpt lat="28.6739450" lon="-17.7818380">
        <ele>370.3</ele>
        <time>2020-11-17T14:27:22Z</time>
      </trkpt>
      <trkpt lat="28.6740220" lon="-17.7818050">
        <ele>370.5</ele>
        <time>2020-11-17T14:27:23Z</time>
      </trkpt>
      <trkpt lat="28.6740580" lon="-17.7817880">
        <ele>370.5</ele>
        <time>2020-11-17T14:27:24Z</time>
      </trkpt>
      <trkpt lat="28.6740580" lon="-17.7817880">
        <ele>370.5</ele>
        <time>2020-11-17T14:27:25Z</time>
      </trkpt>
      <trkpt lat="28.6741330" lon="-17.7817550">
        <ele>370.7</ele>
        <time>2020-11-17T14:27:26Z</time>
      </trkpt>
      <trkpt lat="28.6741730" lon="-17.7817400">
        <ele>370.8</ele>
        <time>2020-11-17T14:27:27Z</time>
      </trkpt>
      <trkpt lat="28.6741730" lon="-17.7817400">
        <ele>370.8</ele>
        <time>2020-11-17T14:27:28Z</time>
      </trkpt>
      <trkpt lat="28.6742480" lon="-17.7817100">
        <ele>370.9</ele>
        <time>2020-11-17T14:27:29Z</time>
      </trkpt>
      <trkpt lat="28.6742830" lon="-17.7816970">
        <ele>371.0</ele>
        <time>2020-11-17T14:27:30Z</time>
      </trkpt>
      <trkpt lat="28.6742830" lon="-17.7816970">
        <ele>371.0</ele>
        <time>2020-11-17T14:27:31Z</time>
      </trkpt>
      <trkpt lat="28.6743570" lon="-17.7816720">
        <ele>371.2</ele>
        <time>2020-11-17T14:27:32Z</time>
      </trkpt>
      <trkpt lat="28.6743570" lon="-17.7816720">
        <ele>371.2</ele>
        <time>2020-11-17T14:27:33Z</time>
      </trkpt>
      <trkpt lat="28.6744380" lon="-17.7816430">
        <ele>371.4</ele>
        <time>2020-11-17T14:27:34Z</time>
      </trkpt>
      <trkpt lat="28.6744380" lon="-17.7816430">
        <ele>371.4</ele>
        <time>2020-11-17T14:27:35Z</time>
      </trkpt>
      <trkpt lat="28.6745200" lon="-17.7816180">
        <ele>371.6</ele>
        <time>2020-11-17T14:27:36Z</time>
      </trkpt>
      <trkpt lat="28.6745200" lon="-17.7816180">
        <ele>371.6</ele>
        <time>2020-11-17T14:27:37Z</time>
      </trkpt>
      <trkpt lat="28.6745970" lon="-17.7815950">
        <ele>371.7</ele>
        <time>2020-11-17T14:27:38Z</time>
      </trkpt>
      <trkpt lat="28.6746370" lon="-17.7815780">
        <ele>371.9</ele>
        <time>2020-11-17T14:27:39Z</time>
      </trkpt>
      <trkpt lat="28.6746370" lon="-17.7815780">
        <ele>371.9</ele>
        <time>2020-11-17T14:27:40Z</time>
      </trkpt>
      <trkpt lat="28.6747130" lon="-17.7815480">
        <ele>372.0</ele>
        <time>2020-11-17T14:27:41Z</time>
      </trkpt>
      <trkpt lat="28.6747530" lon="-17.7815350">
        <ele>372.1</ele>
        <time>2020-11-17T14:27:42Z</time>
      </trkpt>
      <trkpt lat="28.6747970" lon="-17.7815150">
        <ele>372.3</ele>
        <time>2020-11-17T14:27:43Z</time>
      </trkpt>
      <trkpt lat="28.6747970" lon="-17.7815150">
        <ele>372.3</ele>
        <time>2020-11-17T14:27:44Z</time>
      </trkpt>
      <trkpt lat="28.6748730" lon="-17.7814900">
        <ele>372.4</ele>
        <time>2020-11-17T14:27:45Z</time>
      </trkpt>
      <trkpt lat="28.6748730" lon="-17.7814900">
        <ele>372.4</ele>
        <time>2020-11-17T14:27:46Z</time>
      </trkpt>
      <trkpt lat="28.6749470" lon="-17.7814630">
        <ele>372.6</ele>
        <time>2020-11-17T14:27:47Z</time>
      </trkpt>
      <trkpt lat="28.6749850" lon="-17.7814500">
        <ele>372.7</ele>
        <time>2020-11-17T14:27:48Z</time>
      </trkpt>
      <trkpt lat="28.6749850" lon="-17.7814500">
        <ele>372.7</ele>
        <time>2020-11-17T14:27:49Z</time>
      </trkpt>
      <trkpt lat="28.6750630" lon="-17.7814220">
        <ele>372.9</ele>
        <time>2020-11-17T14:27:50Z</time>
      </trkpt>
      <trkpt lat="28.6750630" lon="-17.7814220">
        <ele>372.9</ele>
        <time>2020-11-17T14:27:51Z</time>
      </trkpt>
      <trkpt lat="28.6751320" lon="-17.7813800">
        <ele>373.1</ele>
        <time>2020-11-17T14:27:52Z</time>
      </trkpt>
      <trkpt lat="28.6751650" lon="-17.7813600">
        <ele>373.2</ele>
        <time>2020-11-17T14:27:53Z</time>
      </trkpt>
      <trkpt lat="28.6751980" lon="-17.7813380">
        <ele>373.3</ele>
        <time>2020-11-17T14:27:54Z</time>
      </trkpt>
      <trkpt lat="28.6751980" lon="-17.7813380">
        <ele>373.3</ele>
        <time>2020-11-17T14:27:55Z</time>
      </trkpt>
      <trkpt lat="28.6752770" lon="-17.7812970">
        <ele>373.3</ele>
        <time>2020-11-17T14:27:56Z</time>
      </trkpt>
      <trkpt lat="28.6752770" lon="-17.7812970">
        <ele>373.3</ele>
        <time>2020-11-17T14:27:57Z</time>
      </trkpt>
      <trkpt lat="28.6753530" lon="-17.7812600">
        <ele>373.3</ele>
        <time>2020-11-17T14:27:58Z</time>
      </trkpt>
      <trkpt lat="28.6753900" lon="-17.7812450">
        <ele>373.2</ele>
        <time>2020-11-17T14:27:59Z</time>
      </trkpt>
      <trkpt lat="28.6753900" lon="-17.7812450">
        <ele>373.2</ele>
        <time>2020-11-17T14:28:00Z</time>
      </trkpt>
      <trkpt lat="28.6754280" lon="-17.7812300">
        <ele>373.2</ele>
        <time>2020-11-17T14:28:01Z</time>
      </trkpt>
      <trkpt lat="28.6755030" lon="-17.7812070">
        <ele>373.1</ele>
        <time>2020-11-17T14:28:02Z</time>
      </trkpt>
      <trkpt lat="28.6755030" lon="-17.7812070">
        <ele>373.1</ele>
        <time>2020-11-17T14:28:03Z</time>
      </trkpt>
      <trkpt lat="28.6755870" lon="-17.7811830">
        <ele>373.0</ele>
        <time>2020-11-17T14:28:04Z</time>
      </trkpt>
      <trkpt lat="28.6756280" lon="-17.7811720">
        <ele>372.9</ele>
        <time>2020-11-17T14:28:05Z</time>
      </trkpt>
      <trkpt lat="28.6756730" lon="-17.7811600">
        <ele>372.8</ele>
        <time>2020-11-17T14:28:06Z</time>
      </trkpt>
      <trkpt lat="28.6756730" lon="-17.7811600">
        <ele>372.8</ele>
        <time>2020-11-17T14:28:07Z</time>
      </trkpt>
      <trkpt lat="28.6757630" lon="-17.7811420">
        <ele>372.6</ele>
        <time>2020-11-17T14:28:08Z</time>
      </trkpt>
      <trkpt lat="28.6757630" lon="-17.7811420">
        <ele>372.6</ele>
        <time>2020-11-17T14:28:09Z</time>
      </trkpt>
      <trkpt lat="28.6758550" lon="-17.7811230">
        <ele>372.3</ele>
        <time>2020-11-17T14:28:10Z</time>
      </trkpt>
      <trkpt lat="28.6759000" lon="-17.7811080">
        <ele>372.1</ele>
        <time>2020-11-17T14:28:11Z</time>
      </trkpt>
      <trkpt lat="28.6759500" lon="-17.7810970">
        <ele>372.0</ele>
        <time>2020-11-17T14:28:12Z</time>
      </trkpt>
      <trkpt lat="28.6759500" lon="-17.7810970">
        <ele>372.0</ele>
        <time>2020-11-17T14:28:13Z</time>
      </trkpt>
      <trkpt lat="28.6760520" lon="-17.7810700">
        <ele>371.5</ele>
        <time>2020-11-17T14:28:14Z</time>
      </trkpt>
      <trkpt lat="28.6760520" lon="-17.7810700">
        <ele>371.5</ele>
        <time>2020-11-17T14:28:15Z</time>
      </trkpt>
      <trkpt lat="28.6761500" lon="-17.7810420">
        <ele>371.0</ele>
        <time>2020-11-17T14:28:16Z</time>
      </trkpt>
      <trkpt lat="28.6761500" lon="-17.7810420">
        <ele>371.0</ele>
        <time>2020-11-17T14:28:17Z</time>
      </trkpt>
      <trkpt lat="28.6762600" lon="-17.7810100">
        <ele>370.4</ele>
        <time>2020-11-17T14:28:18Z</time>
      </trkpt>
      <trkpt lat="28.6762600" lon="-17.7810100">
        <ele>370.4</ele>
        <time>2020-11-17T14:28:19Z</time>
      </trkpt>
      <trkpt lat="28.6762600" lon="-17.7810100">
        <ele>370.4</ele>
        <time>2020-11-17T14:28:20Z</time>
      </trkpt>
      <trkpt lat="28.6763820" lon="-17.7809850">
        <ele>369.6</ele>
        <time>2020-11-17T14:28:21Z</time>
      </trkpt>
      <trkpt lat="28.6765200" lon="-17.7809530">
        <ele>368.6</ele>
        <time>2020-11-17T14:28:22Z</time>
      </trkpt>
      <trkpt lat="28.6765200" lon="-17.7809530">
        <ele>368.6</ele>
        <time>2020-11-17T14:28:23Z</time>
      </trkpt>
      <trkpt lat="28.6766750" lon="-17.7809320">
        <ele>367.5</ele>
        <time>2020-11-17T14:28:24Z</time>
      </trkpt>
      <trkpt lat="28.6767600" lon="-17.7809180">
        <ele>366.9</ele>
        <time>2020-11-17T14:28:25Z</time>
      </trkpt>
      <trkpt lat="28.6767600" lon="-17.7809180">
        <ele>366.9</ele>
        <time>2020-11-17T14:28:26Z</time>
      </trkpt>
      <trkpt lat="28.6769400" lon="-17.7809020">
        <ele>365.5</ele>
        <time>2020-11-17T14:28:27Z</time>
      </trkpt>
      <trkpt lat="28.6769400" lon="-17.7809020">
        <ele>365.5</ele>
        <time>2020-11-17T14:28:28Z</time>
      </trkpt>
      <trkpt lat="28.6771330" lon="-17.7808750">
        <ele>364.0</ele>
        <time>2020-11-17T14:28:29Z</time>
      </trkpt>
      <trkpt lat="28.6772370" lon="-17.7808570">
        <ele>363.2</ele>
        <time>2020-11-17T14:28:30Z</time>
      </trkpt>
      <trkpt lat="28.6772370" lon="-17.7808570">
        <ele>363.2</ele>
        <time>2020-11-17T14:28:31Z</time>
      </trkpt>
      <trkpt lat="28.6774450" lon="-17.7808370">
        <ele>361.6</ele>
        <time>2020-11-17T14:28:32Z</time>
      </trkpt>
      <trkpt lat="28.6775500" lon="-17.7808330">
        <ele>360.7</ele>
        <time>2020-11-17T14:28:33Z</time>
      </trkpt>
      <trkpt lat="28.6775500" lon="-17.7808330">
        <ele>360.7</ele>
        <time>2020-11-17T14:28:34Z</time>
      </trkpt>
      <trkpt lat="28.6777620" lon="-17.7808320">
        <ele>358.9</ele>
        <time>2020-11-17T14:28:35Z</time>
      </trkpt>
      <trkpt lat="28.6778630" lon="-17.7808400">
        <ele>358.0</ele>
        <time>2020-11-17T14:28:36Z</time>
      </trkpt>
      <trkpt lat="28.6778630" lon="-17.7808400">
        <ele>358.0</ele>
        <time>2020-11-17T14:28:37Z</time>
      </trkpt>
      <trkpt lat="28.6780600" lon="-17.7808670">
        <ele>356.5</ele>
        <time>2020-11-17T14:28:38Z</time>
      </trkpt>
      <trkpt lat="28.6780600" lon="-17.7808670">
        <ele>356.5</ele>
        <time>2020-11-17T14:28:39Z</time>
      </trkpt>
      <trkpt lat="28.6782580" lon="-17.7809050">
        <ele>355.0</ele>
        <time>2020-11-17T14:28:40Z</time>
      </trkpt>
      <trkpt lat="28.6782580" lon="-17.7809050">
        <ele>355.0</ele>
        <time>2020-11-17T14:28:41Z</time>
      </trkpt>
      <trkpt lat="28.6784470" lon="-17.7809450">
        <ele>353.5</ele>
        <time>2020-11-17T14:28:42Z</time>
      </trkpt>
      <trkpt lat="28.6784470" lon="-17.7809450">
        <ele>353.5</ele>
        <time>2020-11-17T14:28:43Z</time>
      </trkpt>
      <trkpt lat="28.6786380" lon="-17.7809650">
        <ele>352.1</ele>
        <time>2020-11-17T14:28:44Z</time>
      </trkpt>
      <trkpt lat="28.6786380" lon="-17.7809650">
        <ele>352.1</ele>
        <time>2020-11-17T14:28:45Z</time>
      </trkpt>
      <trkpt lat="28.6788350" lon="-17.7809580">
        <ele>350.5</ele>
        <time>2020-11-17T14:28:46Z</time>
      </trkpt>
      <trkpt lat="28.6789400" lon="-17.7809480">
        <ele>349.7</ele>
        <time>2020-11-17T14:28:47Z</time>
      </trkpt>
      <trkpt lat="28.6790470" lon="-17.7809330">
        <ele>348.8</ele>
        <time>2020-11-17T14:28:48Z</time>
      </trkpt>
      <trkpt lat="28.6790470" lon="-17.7809330">
        <ele>348.8</ele>
        <time>2020-11-17T14:28:49Z</time>
      </trkpt>
      <trkpt lat="28.6792650" lon="-17.7809030">
        <ele>347.2</ele>
        <time>2020-11-17T14:28:50Z</time>
      </trkpt>
      <trkpt lat="28.6792650" lon="-17.7809030">
        <ele>347.2</ele>
        <time>2020-11-17T14:28:51Z</time>
      </trkpt>
      <trkpt lat="28.6794830" lon="-17.7808880">
        <ele>345.5</ele>
        <time>2020-11-17T14:28:52Z</time>
      </trkpt>
      <trkpt lat="28.6794830" lon="-17.7808880">
        <ele>345.5</ele>
        <time>2020-11-17T14:28:53Z</time>
      </trkpt>
      <trkpt lat="28.6797030" lon="-17.7808670">
        <ele>343.9</ele>
        <time>2020-11-17T14:28:54Z</time>
      </trkpt>
      <trkpt lat="28.6798150" lon="-17.7808550">
        <ele>343.0</ele>
        <time>2020-11-17T14:28:55Z</time>
      </trkpt>
      <trkpt lat="28.6798150" lon="-17.7808550">
        <ele>343.0</ele>
        <time>2020-11-17T14:28:56Z</time>
      </trkpt>
      <trkpt lat="28.6800420" lon="-17.7808350">
        <ele>341.4</ele>
        <time>2020-11-17T14:28:57Z</time>
      </trkpt>
      <trkpt lat="28.6800420" lon="-17.7808350">
        <ele>341.4</ele>
        <time>2020-11-17T14:28:58Z</time>
      </trkpt>
      <trkpt lat="28.6802720" lon="-17.7808250">
        <ele>340.0</ele>
        <time>2020-11-17T14:28:59Z</time>
      </trkpt>
      <trkpt lat="28.6803830" lon="-17.7808170">
        <ele>339.4</ele>
        <time>2020-11-17T14:29:00Z</time>
      </trkpt>
      <trkpt lat="28.6803830" lon="-17.7808170">
        <ele>339.4</ele>
        <time>2020-11-17T14:29:01Z</time>
      </trkpt>
      <trkpt lat="28.6805900" lon="-17.7807800">
        <ele>338.4</ele>
        <time>2020-11-17T14:29:02Z</time>
      </trkpt>
      <trkpt lat="28.6805900" lon="-17.7807800">
        <ele>338.4</ele>
        <time>2020-11-17T14:29:03Z</time>
      </trkpt>
      <trkpt lat="28.6807670" lon="-17.7806870">
        <ele>337.5</ele>
        <time>2020-11-17T14:29:04Z</time>
      </trkpt>
      <trkpt lat="28.6808450" lon="-17.7806280">
        <ele>337.0</ele>
        <time>2020-11-17T14:29:05Z</time>
      </trkpt>
      <trkpt lat="28.6808450" lon="-17.7806280">
        <ele>337.0</ele>
        <time>2020-11-17T14:29:06Z</time>
      </trkpt>
      <trkpt lat="28.6809720" lon="-17.7805100">
        <ele>336.2</ele>
        <time>2020-11-17T14:29:07Z</time>
      </trkpt>
      <trkpt lat="28.6810270" lon="-17.7804620">
        <ele>335.9</ele>
        <time>2020-11-17T14:29:08Z</time>
      </trkpt>
      <trkpt lat="28.6810270" lon="-17.7804620">
        <ele>335.9</ele>
        <time>2020-11-17T14:29:09Z</time>
      </trkpt>
      <trkpt lat="28.6811180" lon="-17.7803850">
        <ele>335.3</ele>
        <time>2020-11-17T14:29:10Z</time>
      </trkpt>
      <trkpt lat="28.6811180" lon="-17.7803850">
        <ele>335.3</ele>
        <time>2020-11-17T14:29:11Z</time>
      </trkpt>
      <trkpt lat="28.6811870" lon="-17.7803430">
        <ele>334.8</ele>
        <time>2020-11-17T14:29:12Z</time>
      </trkpt>
      <trkpt lat="28.6811870" lon="-17.7803430">
        <ele>334.8</ele>
        <time>2020-11-17T14:29:13Z</time>
      </trkpt>
      <trkpt lat="28.6811880" lon="-17.7803060">
        <ele>334.5</ele>
        <time>2020-11-17T14:29:14Z</time>
      </trkpt>
      <trkpt lat="28.6811860" lon="-17.7802810">
        <ele>334.3</ele>
        <time>2020-11-17T14:29:15Z</time>
      </trkpt>
      <trkpt lat="28.6811830" lon="-17.7802550">
        <ele>334.1</ele>
        <time>2020-11-17T14:29:16Z</time>
      </trkpt>
      <trkpt lat="28.6811810" lon="-17.7802290">
        <ele>333.9</ele>
        <time>2020-11-17T14:29:17Z</time>
      </trkpt>
      <trkpt lat="28.6811790" lon="-17.7802030">
        <ele>333.7</ele>
        <time>2020-11-17T14:29:18Z</time>
      </trkpt>
      <trkpt lat="28.6811770" lon="-17.7801780">
        <ele>333.6</ele>
        <time>2020-11-17T14:29:19Z</time>
      </trkpt>
      <trkpt lat="28.6811750" lon="-17.7801520">
        <ele>333.4</ele>
        <time>2020-11-17T14:29:20Z</time>
      </trkpt>
      <trkpt lat="28.6811720" lon="-17.7801260">
        <ele>333.2</ele>
        <time>2020-11-17T14:29:21Z</time>
      </trkpt>
      <trkpt lat="28.6811700" lon="-17.7801010">
        <ele>332.9</ele>
        <time>2020-11-17T14:29:22Z</time>
      </trkpt>
      <trkpt lat="28.6811680" lon="-17.7800750">
        <ele>332.6</ele>
        <time>2020-11-17T14:29:23Z</time>
      </trkpt>
      <trkpt lat="28.6812080" lon="-17.7799580">
        <ele>331.4</ele>
        <time>2020-11-17T14:29:24Z</time>
      </trkpt>
      <trkpt lat="28.6812080" lon="-17.7799580">
        <ele>331.4</ele>
        <time>2020-11-17T14:29:25Z</time>
      </trkpt>
      <trkpt lat="28.6812830" lon="-17.7798480">
        <ele>329.9</ele>
        <time>2020-11-17T14:29:26Z</time>
      </trkpt>
      <trkpt lat="28.6813300" lon="-17.7797870">
        <ele>329.0</ele>
        <time>2020-11-17T14:29:27Z</time>
      </trkpt>
      <trkpt lat="28.6813300" lon="-17.7797870">
        <ele>329.0</ele>
        <time>2020-11-17T14:29:28Z</time>
      </trkpt>
      <trkpt lat="28.6814330" lon="-17.7796550">
        <ele>327.2</ele>
        <time>2020-11-17T14:29:29Z</time>
      </trkpt>
      <trkpt lat="28.6814880" lon="-17.7795850">
        <ele>326.5</ele>
        <time>2020-11-17T14:29:30Z</time>
      </trkpt>
      <trkpt lat="28.6814880" lon="-17.7795850">
        <ele>326.5</ele>
        <time>2020-11-17T14:29:31Z</time>
      </trkpt>
      <trkpt lat="28.6816130" lon="-17.7794430">
        <ele>325.3</ele>
        <time>2020-11-17T14:29:32Z</time>
      </trkpt>
      <trkpt lat="28.6816720" lon="-17.7793680">
        <ele>324.7</ele>
        <time>2020-11-17T14:29:33Z</time>
      </trkpt>
      <trkpt lat="28.6816720" lon="-17.7793680">
        <ele>324.7</ele>
        <time>2020-11-17T14:29:34Z</time>
      </trkpt>
      <trkpt lat="28.6817830" lon="-17.7792180">
        <ele>323.3</ele>
        <time>2020-11-17T14:29:35Z</time>
      </trkpt>
      <trkpt lat="28.6818300" lon="-17.7791400">
        <ele>322.3</ele>
        <time>2020-11-17T14:29:36Z</time>
      </trkpt>
      <trkpt lat="28.6818300" lon="-17.7791400">
        <ele>322.3</ele>
        <time>2020-11-17T14:29:37Z</time>
      </trkpt>
      <trkpt lat="28.6819380" lon="-17.7789930">
        <ele>320.0</ele>
        <time>2020-11-17T14:29:38Z</time>
      </trkpt>
      <trkpt lat="28.6819950" lon="-17.7789180">
        <ele>318.7</ele>
        <time>2020-11-17T14:29:39Z</time>
      </trkpt>
      <trkpt lat="28.6819950" lon="-17.7789180">
        <ele>318.7</ele>
        <time>2020-11-17T14:29:40Z</time>
      </trkpt>
      <trkpt lat="28.6821080" lon="-17.7787770">
        <ele>316.1</ele>
        <time>2020-11-17T14:29:41Z</time>
      </trkpt>
      <trkpt lat="28.6821630" lon="-17.7787130">
        <ele>314.9</ele>
        <time>2020-11-17T14:29:42Z</time>
      </trkpt>
      <trkpt lat="28.6821630" lon="-17.7787130">
        <ele>314.9</ele>
        <time>2020-11-17T14:29:43Z</time>
      </trkpt>
      <trkpt lat="28.6822550" lon="-17.7785880">
        <ele>312.5</ele>
        <time>2020-11-17T14:29:44Z</time>
      </trkpt>
      <trkpt lat="28.6822950" lon="-17.7785420">
        <ele>311.6</ele>
        <time>2020-11-17T14:29:45Z</time>
      </trkpt>
      <trkpt lat="28.6823370" lon="-17.7785000">
        <ele>310.3</ele>
        <time>2020-11-17T14:29:46Z</time>
      </trkpt>
      <trkpt lat="28.6823370" lon="-17.7785000">
        <ele>310.3</ele>
        <time>2020-11-17T14:29:47Z</time>
      </trkpt>
      <trkpt lat="28.6824180" lon="-17.7784220">
        <ele>310.0</ele>
        <time>2020-11-17T14:29:48Z</time>
      </trkpt>
      <trkpt lat="28.6824180" lon="-17.7784220">
        <ele>310.0</ele>
        <time>2020-11-17T14:29:49Z</time>
      </trkpt>
      <trkpt lat="28.6824950" lon="-17.7783400">
        <ele>308.2</ele>
        <time>2020-11-17T14:29:50Z</time>
      </trkpt>
      <trkpt lat="28.6824950" lon="-17.7783400">
        <ele>308.2</ele>
        <time>2020-11-17T14:29:51Z</time>
      </trkpt>
      <trkpt lat="28.6825830" lon="-17.7782580">
        <ele>306.1</ele>
        <time>2020-11-17T14:29:52Z</time>
      </trkpt>
      <trkpt lat="28.6826250" lon="-17.7782170">
        <ele>305.2</ele>
        <time>2020-11-17T14:29:53Z</time>
      </trkpt>
      <trkpt lat="28.6826670" lon="-17.7781730">
        <ele>304.1</ele>
        <time>2020-11-17T14:29:54Z</time>
      </trkpt>
      <trkpt lat="28.6826670" lon="-17.7781730">
        <ele>304.1</ele>
        <time>2020-11-17T14:29:55Z</time>
      </trkpt>
      <trkpt lat="28.6827330" lon="-17.7780650">
        <ele>302.1</ele>
        <time>2020-11-17T14:29:56Z</time>
      </trkpt>
      <trkpt lat="28.6827620" lon="-17.7779980">
        <ele>300.9</ele>
        <time>2020-11-17T14:29:57Z</time>
      </trkpt>
      <trkpt lat="28.6827950" lon="-17.7779280">
        <ele>299.7</ele>
        <time>2020-11-17T14:29:58Z</time>
      </trkpt>
      <trkpt lat="28.6827950" lon="-17.7779280">
        <ele>299.7</ele>
        <time>2020-11-17T14:29:59Z</time>
      </trkpt>
      <trkpt lat="28.6828630" lon="-17.7777920">
        <ele>297.2</ele>
        <time>2020-11-17T14:30:00Z</time>
      </trkpt>
      <trkpt lat="28.6828630" lon="-17.7777920">
        <ele>297.2</ele>
        <time>2020-11-17T14:30:01Z</time>
      </trkpt>
      <trkpt lat="28.6829330" lon="-17.7776550">
        <ele>294.8</ele>
        <time>2020-11-17T14:30:02Z</time>
      </trkpt>
      <trkpt lat="28.6829330" lon="-17.7776550">
        <ele>294.8</ele>
        <time>2020-11-17T14:30:03Z</time>
      </trkpt>
      <trkpt lat="28.6829980" lon="-17.7775200">
        <ele>292.4</ele>
        <time>2020-11-17T14:30:04Z</time>
      </trkpt>
      <trkpt lat="28.6829980" lon="-17.7775200">
        <ele>292.4</ele>
        <time>2020-11-17T14:30:05Z</time>
      </trkpt>
      <trkpt lat="28.6830670" lon="-17.7774050">
        <ele>290.2</ele>
        <time>2020-11-17T14:30:06Z</time>
      </trkpt>
      <trkpt lat="28.6830970" lon="-17.7773480">
        <ele>289.1</ele>
        <time>2020-11-17T14:30:07Z</time>
      </trkpt>
      <trkpt lat="28.6830970" lon="-17.7773480">
        <ele>289.1</ele>
        <time>2020-11-17T14:30:08Z</time>
      </trkpt>
      <trkpt lat="28.6831430" lon="-17.7772400">
        <ele>287.3</ele>
        <time>2020-11-17T14:30:09Z</time>
      </trkpt>
      <trkpt lat="28.6831630" lon="-17.7771850">
        <ele>286.3</ele>
        <time>2020-11-17T14:30:10Z</time>
      </trkpt>
      <trkpt lat="28.6831630" lon="-17.7771850">
        <ele>286.3</ele>
        <time>2020-11-17T14:30:11Z</time>
      </trkpt>
      <trkpt lat="28.6832030" lon="-17.7770870">
        <ele>284.7</ele>
        <time>2020-11-17T14:30:12Z</time>
      </trkpt>
      <trkpt lat="28.6832030" lon="-17.7770870">
        <ele>284.7</ele>
        <time>2020-11-17T14:30:13Z</time>
      </trkpt>
      <trkpt lat="28.6832370" lon="-17.7769870">
        <ele>283.0</ele>
        <time>2020-11-17T14:30:14Z</time>
      </trkpt>
      <trkpt lat="28.6832370" lon="-17.7769870">
        <ele>283.0</ele>
        <time>2020-11-17T14:30:15Z</time>
      </trkpt>
      <trkpt lat="28.6832720" lon="-17.7769070">
        <ele>281.6</ele>
        <time>2020-11-17T14:30:16Z</time>
      </trkpt>
      <trkpt lat="28.6832820" lon="-17.7768430">
        <ele>280.6</ele>
        <time>2020-11-17T14:30:17Z</time>
      </trkpt>
      <trkpt lat="28.6832820" lon="-17.7768430">
        <ele>280.6</ele>
        <time>2020-11-17T14:30:18Z</time>
      </trkpt>
      <trkpt lat="28.6832920" lon="-17.7766980">
        <ele>278.3</ele>
        <time>2020-11-17T14:30:19Z</time>
      </trkpt>
      <trkpt lat="28.6833130" lon="-17.7766300">
        <ele>277.2</ele>
        <time>2020-11-17T14:30:20Z</time>
      </trkpt>
      <trkpt lat="28.6833130" lon="-17.7766300">
        <ele>277.2</ele>
        <time>2020-11-17T14:30:21Z</time>
      </trkpt>
      <trkpt lat="28.6833650" lon="-17.7765170">
        <ele>275.2</ele>
        <time>2020-11-17T14:30:22Z</time>
      </trkpt>
      <trkpt lat="28.6834130" lon="-17.7764820">
        <ele>274.2</ele>
        <time>2020-11-17T14:30:23Z</time>
      </trkpt>
      <trkpt lat="28.6834130" lon="-17.7764820">
        <ele>274.2</ele>
        <time>2020-11-17T14:30:24Z</time>
      </trkpt>
      <trkpt lat="28.6835130" lon="-17.7764070">
        <ele>272.0</ele>
        <time>2020-11-17T14:30:25Z</time>
      </trkpt>
      <trkpt lat="28.6835130" lon="-17.7764070">
        <ele>272.0</ele>
        <time>2020-11-17T14:30:26Z</time>
      </trkpt>
      <trkpt lat="28.6836070" lon="-17.7763230">
        <ele>269.9</ele>
        <time>2020-11-17T14:30:27Z</time>
      </trkpt>
      <trkpt lat="28.6836070" lon="-17.7763230">
        <ele>269.9</ele>
        <time>2020-11-17T14:30:28Z</time>
      </trkpt>
      <trkpt lat="28.6836730" lon="-17.7762300">
        <ele>268.0</ele>
        <time>2020-11-17T14:30:29Z</time>
      </trkpt>
      <trkpt lat="28.6836980" lon="-17.7761780">
        <ele>267.1</ele>
        <time>2020-11-17T14:30:30Z</time>
      </trkpt>
      <trkpt lat="28.6836980" lon="-17.7761780">
        <ele>267.1</ele>
        <time>2020-11-17T14:30:31Z</time>
      </trkpt>
      <trkpt lat="28.6836930" lon="-17.7760530">
        <ele>265.2</ele>
        <time>2020-11-17T14:30:32Z</time>
      </trkpt>
      <trkpt lat="28.6836800" lon="-17.7759850">
        <ele>264.1</ele>
        <time>2020-11-17T14:30:33Z</time>
      </trkpt>
      <trkpt lat="28.6836800" lon="-17.7759850">
        <ele>264.1</ele>
        <time>2020-11-17T14:30:34Z</time>
      </trkpt>
      <trkpt lat="28.6836670" lon="-17.7758650">
        <ele>262.2</ele>
        <time>2020-11-17T14:30:35Z</time>
      </trkpt>
      <trkpt lat="28.6836780" lon="-17.7758100">
        <ele>261.3</ele>
        <time>2020-11-17T14:30:36Z</time>
      </trkpt>
      <trkpt lat="28.6836780" lon="-17.7758100">
        <ele>261.3</ele>
        <time>2020-11-17T14:30:37Z</time>
      </trkpt>
      <trkpt lat="28.6837370" lon="-17.7757000">
        <ele>259.3</ele>
        <time>2020-11-17T14:30:38Z</time>
      </trkpt>
      <trkpt lat="28.6837670" lon="-17.7756430">
        <ele>258.3</ele>
        <time>2020-11-17T14:30:39Z</time>
      </trkpt>
      <trkpt lat="28.6837670" lon="-17.7756430">
        <ele>258.3</ele>
        <time>2020-11-17T14:30:40Z</time>
      </trkpt>
      <trkpt lat="28.6838300" lon="-17.7755030">
        <ele>255.8</ele>
        <time>2020-11-17T14:30:41Z</time>
      </trkpt>
      <trkpt lat="28.6838300" lon="-17.7755030">
        <ele>255.8</ele>
        <time>2020-11-17T14:30:42Z</time>
      </trkpt>
      <trkpt lat="28.6838970" lon="-17.7753630">
        <ele>253.3</ele>
        <time>2020-11-17T14:30:43Z</time>
      </trkpt>
      <trkpt lat="28.6839350" lon="-17.7753050">
        <ele>252.2</ele>
        <time>2020-11-17T14:30:44Z</time>
      </trkpt>
      <trkpt lat="28.6839350" lon="-17.7753050">
        <ele>252.2</ele>
        <time>2020-11-17T14:30:45Z</time>
      </trkpt>
      <trkpt lat="28.6840030" lon="-17.7751970">
        <ele>250.1</ele>
        <time>2020-11-17T14:30:46Z</time>
      </trkpt>
      <trkpt lat="28.6840030" lon="-17.7751970">
        <ele>250.1</ele>
        <time>2020-11-17T14:30:47Z</time>
      </trkpt>
      <trkpt lat="28.6840700" lon="-17.7751100">
        <ele>248.3</ele>
        <time>2020-11-17T14:30:48Z</time>
      </trkpt>
      <trkpt lat="28.6840700" lon="-17.7751100">
        <ele>248.3</ele>
        <time>2020-11-17T14:30:49Z</time>
      </trkpt>
      <trkpt lat="28.6840700" lon="-17.7750130">
        <ele>246.8</ele>
        <time>2020-11-17T14:30:50Z</time>
      </trkpt>
      <trkpt lat="28.6840700" lon="-17.7750130">
        <ele>246.8</ele>
        <time>2020-11-17T14:30:51Z</time>
      </trkpt>
      <trkpt lat="28.6840380" lon="-17.7749250">
        <ele>245.3</ele>
        <time>2020-11-17T14:30:52Z</time>
      </trkpt>
      <trkpt lat="28.6840380" lon="-17.7749250">
        <ele>245.3</ele>
        <time>2020-11-17T14:30:53Z</time>
      </trkpt>
      <trkpt lat="28.6840650" lon="-17.7748700">
        <ele>244.3</ele>
        <time>2020-11-17T14:30:54Z</time>
      </trkpt>
      <trkpt lat="28.6840650" lon="-17.7748700">
        <ele>244.3</ele>
        <time>2020-11-17T14:30:55Z</time>
      </trkpt>
      <trkpt lat="28.6841530" lon="-17.7748650">
        <ele>242.7</ele>
        <time>2020-11-17T14:30:56Z</time>
      </trkpt>
      <trkpt lat="28.6841530" lon="-17.7748650">
        <ele>242.7</ele>
        <time>2020-11-17T14:30:57Z</time>
      </trkpt>
      <trkpt lat="28.6842480" lon="-17.7748850">
        <ele>241.0</ele>
        <time>2020-11-17T14:30:58Z</time>
      </trkpt>
      <trkpt lat="28.6842480" lon="-17.7748850">
        <ele>241.0</ele>
        <time>2020-11-17T14:30:59Z</time>
      </trkpt>
      <trkpt lat="28.6842870" lon="-17.7749550">
        <ele>239.7</ele>
        <time>2020-11-17T14:31:00Z</time>
      </trkpt>
      <trkpt lat="28.6842870" lon="-17.7749550">
        <ele>239.7</ele>
        <time>2020-11-17T14:31:01Z</time>
      </trkpt>
      <trkpt lat="28.6842930" lon="-17.7750500">
        <ele>238.2</ele>
        <time>2020-11-17T14:31:02Z</time>
      </trkpt>
      <trkpt lat="28.6842930" lon="-17.7750500">
        <ele>238.2</ele>
        <time>2020-11-17T14:31:03Z</time>
      </trkpt>
      <trkpt lat="28.6843080" lon="-17.7751280">
        <ele>237.0</ele>
        <time>2020-11-17T14:31:04Z</time>
      </trkpt>
      <trkpt lat="28.6843080" lon="-17.7751280">
        <ele>237.0</ele>
        <time>2020-11-17T14:31:05Z</time>
      </trkpt>
      <trkpt lat="28.6843430" lon="-17.7751570">
        <ele>235.2</ele>
        <time>2020-11-17T14:31:06Z</time>
      </trkpt>
      <trkpt lat="28.6843430" lon="-17.7751570">
        <ele>235.2</ele>
        <time>2020-11-17T14:31:07Z</time>
      </trkpt>
      <trkpt lat="28.6843600" lon="-17.7750900">
        <ele>235.1</ele>
        <time>2020-11-17T14:31:08Z</time>
      </trkpt>
      <trkpt lat="28.6843600" lon="-17.7750900">
        <ele>235.1</ele>
        <time>2020-11-17T14:31:09Z</time>
      </trkpt>
      <trkpt lat="28.6843400" lon="-17.7750050">
        <ele>234.7</ele>
        <time>2020-11-17T14:31:10Z</time>
      </trkpt>
      <trkpt lat="28.6843330" lon="-17.7749580">
        <ele>234.5</ele>
        <time>2020-11-17T14:31:11Z</time>
      </trkpt>
      <trkpt lat="28.6843330" lon="-17.7749580">
        <ele>234.5</ele>
        <time>2020-11-17T14:31:12Z</time>
      </trkpt>
      <trkpt lat="28.6843270" lon="-17.7748470">
        <ele>234.0</ele>
        <time>2020-11-17T14:31:13Z</time>
      </trkpt>
      <trkpt lat="28.6843230" lon="-17.7747920">
        <ele>233.7</ele>
        <time>2020-11-17T14:31:14Z</time>
      </trkpt>
      <trkpt lat="28.6843230" lon="-17.7747920">
        <ele>233.7</ele>
        <time>2020-11-17T14:31:15Z</time>
      </trkpt>
      <trkpt lat="28.6843220" lon="-17.7747050">
        <ele>233.3</ele>
        <time>2020-11-17T14:31:16Z</time>
      </trkpt>
      <trkpt lat="28.6843220" lon="-17.7747050">
        <ele>233.3</ele>
        <time>2020-11-17T14:31:17Z</time>
      </trkpt>
      <trkpt lat="28.6843370" lon="-17.7746620">
        <ele>232.8</ele>
        <time>2020-11-17T14:31:18Z</time>
      </trkpt>
      <trkpt lat="28.6843370" lon="-17.7746620">
        <ele>232.8</ele>
        <time>2020-11-17T14:31:19Z</time>
      </trkpt>
      <trkpt lat="28.6843430" lon="-17.7746330">
        <ele>232.3</ele>
        <time>2020-11-17T14:31:20Z</time>
      </trkpt>
      <trkpt lat="28.6843430" lon="-17.7746180">
        <ele>232.0</ele>
        <time>2020-11-17T14:31:21Z</time>
      </trkpt>
      <trkpt lat="28.6843430" lon="-17.7746180">
        <ele>232.0</ele>
        <time>2020-11-17T14:31:22Z</time>
      </trkpt>
      <trkpt lat="28.6843430" lon="-17.7745880">
        <ele>231.5</ele>
        <time>2020-11-17T14:31:23Z</time>
      </trkpt>
      <trkpt lat="28.6843470" lon="-17.7745750">
        <ele>231.2</ele>
        <time>2020-11-17T14:31:24Z</time>
      </trkpt>
      <trkpt lat="28.6843470" lon="-17.7745750">
        <ele>231.2</ele>
        <time>2020-11-17T14:31:25Z</time>
      </trkpt>
      <trkpt lat="28.6843530" lon="-17.7745500">
        <ele>230.7</ele>
        <time>2020-11-17T14:31:26Z</time>
      </trkpt>
      <trkpt lat="28.6843530" lon="-17.7745370">
        <ele>230.5</ele>
        <time>2020-11-17T14:31:27Z</time>
      </trkpt>
      <trkpt lat="28.6843530" lon="-17.7745370">
        <ele>230.5</ele>
        <time>2020-11-17T14:31:28Z</time>
      </trkpt>
      <trkpt lat="28.6843500" lon="-17.7745170">
        <ele>230.1</ele>
        <time>2020-11-17T14:31:29Z</time>
      </trkpt>
      <trkpt lat="28.6843500" lon="-17.7745170">
        <ele>230.1</ele>
        <time>2020-11-17T14:31:30Z</time>
      </trkpt>
      <trkpt lat="28.6843320" lon="-17.7744920">
        <ele>229.5</ele>
        <time>2020-11-17T14:31:31Z</time>
      </trkpt>
      <trkpt lat="28.6843180" lon="-17.7744770">
        <ele>229.1</ele>
        <time>2020-11-17T14:31:32Z</time>
      </trkpt>
      <trkpt lat="28.6843180" lon="-17.7744770">
        <ele>229.1</ele>
        <time>2020-11-17T14:31:33Z</time>
      </trkpt>
      <trkpt lat="28.6843220" lon="-17.7744350">
        <ele>228.3</ele>
        <time>2020-11-17T14:31:34Z</time>
      </trkpt>
      <trkpt lat="28.6843220" lon="-17.7744350">
        <ele>228.3</ele>
        <time>2020-11-17T14:31:35Z</time>
      </trkpt>
      <trkpt lat="28.6843370" lon="-17.7743780">
        <ele>227.1</ele>
        <time>2020-11-17T14:31:36Z</time>
      </trkpt>
      <trkpt lat="28.6843370" lon="-17.7743780">
        <ele>227.1</ele>
        <time>2020-11-17T14:31:37Z</time>
      </trkpt>
      <trkpt lat="28.6843500" lon="-17.7742900">
        <ele>225.3</ele>
        <time>2020-11-17T14:31:38Z</time>
      </trkpt>
      <trkpt lat="28.6843500" lon="-17.7742900">
        <ele>225.3</ele>
        <time>2020-11-17T14:31:39Z</time>
      </trkpt>
      <trkpt lat="28.6843630" lon="-17.7741850">
        <ele>222.9</ele>
        <time>2020-11-17T14:31:40Z</time>
      </trkpt>
      <trkpt lat="28.6843650" lon="-17.7741280">
        <ele>221.6</ele>
        <time>2020-11-17T14:31:41Z</time>
      </trkpt>
      <trkpt lat="28.6843650" lon="-17.7741280">
        <ele>221.6</ele>
        <time>2020-11-17T14:31:42Z</time>
      </trkpt>
      <trkpt lat="28.6843600" lon="-17.7740050">
        <ele>219.0</ele>
        <time>2020-11-17T14:31:43Z</time>
      </trkpt>
      <trkpt lat="28.6843600" lon="-17.7740050">
        <ele>219.0</ele>
        <time>2020-11-17T14:31:44Z</time>
      </trkpt>
      <trkpt lat="28.6843550" lon="-17.7738830">
        <ele>216.6</ele>
        <time>2020-11-17T14:31:45Z</time>
      </trkpt>
      <trkpt lat="28.6843550" lon="-17.7738830">
        <ele>216.6</ele>
        <time>2020-11-17T14:31:46Z</time>
      </trkpt>
      <trkpt lat="28.6843580" lon="-17.7737780">
        <ele>214.7</ele>
        <time>2020-11-17T14:31:47Z</time>
      </trkpt>
      <trkpt lat="28.6843500" lon="-17.7737230">
        <ele>213.6</ele>
        <time>2020-11-17T14:31:48Z</time>
      </trkpt>
      <trkpt lat="28.6843500" lon="-17.7737230">
        <ele>213.6</ele>
        <time>2020-11-17T14:31:49Z</time>
      </trkpt>
      <trkpt lat="28.6843430" lon="-17.7736130">
        <ele>211.6</ele>
        <time>2020-11-17T14:31:50Z</time>
      </trkpt>
      <trkpt lat="28.6843430" lon="-17.7736130">
        <ele>211.6</ele>
        <time>2020-11-17T14:31:51Z</time>
      </trkpt>
      <trkpt lat="28.6843480" lon="-17.7735000">
        <ele>209.6</ele>
        <time>2020-11-17T14:31:52Z</time>
      </trkpt>
      <trkpt lat="28.6843570" lon="-17.7734500">
        <ele>208.8</ele>
        <time>2020-11-17T14:31:53Z</time>
      </trkpt>
      <trkpt lat="28.6843570" lon="-17.7734500">
        <ele>208.8</ele>
        <time>2020-11-17T14:31:54Z</time>
      </trkpt>
      <trkpt lat="28.6844180" lon="-17.7733770">
        <ele>207.2</ele>
        <time>2020-11-17T14:31:55Z</time>
      </trkpt>
      <trkpt lat="28.6844600" lon="-17.7733430">
        <ele>206.4</ele>
        <time>2020-11-17T14:31:56Z</time>
      </trkpt>
      <trkpt lat="28.6844600" lon="-17.7733430">
        <ele>206.4</ele>
        <time>2020-11-17T14:31:57Z</time>
      </trkpt>
      <trkpt lat="28.6845500" lon="-17.7732680">
        <ele>204.9</ele>
        <time>2020-11-17T14:31:58Z</time>
      </trkpt>
      <trkpt lat="28.6846020" lon="-17.7732250">
        <ele>204.3</ele>
        <time>2020-11-17T14:31:59Z</time>
      </trkpt>
      <trkpt lat="28.6846020" lon="-17.7732250">
        <ele>204.3</ele>
        <time>2020-11-17T14:32:00Z</time>
      </trkpt>
      <trkpt lat="28.6846980" lon="-17.7731320">
        <ele>203.5</ele>
        <time>2020-11-17T14:32:01Z</time>
      </trkpt>
      <trkpt lat="28.6846980" lon="-17.7731320">
        <ele>203.5</ele>
        <time>2020-11-17T14:32:02Z</time>
      </trkpt>
      <trkpt lat="28.6847400" lon="-17.7730270">
        <ele>202.3</ele>
        <time>2020-11-17T14:32:03Z</time>
      </trkpt>
      <trkpt lat="28.6847400" lon="-17.7730270">
        <ele>202.3</ele>
        <time>2020-11-17T14:32:04Z</time>
      </trkpt>
      <trkpt lat="28.6847180" lon="-17.7729020">
        <ele>200.6</ele>
        <time>2020-11-17T14:32:05Z</time>
      </trkpt>
      <trkpt lat="28.6847070" lon="-17.7728330">
        <ele>199.8</ele>
        <time>2020-11-17T14:32:06Z</time>
      </trkpt>
      <trkpt lat="28.6847070" lon="-17.7728330">
        <ele>199.8</ele>
        <time>2020-11-17T14:32:07Z</time>
      </trkpt>
      <trkpt lat="28.6847520" lon="-17.7726980">
        <ele>198.4</ele>
        <time>2020-11-17T14:32:08Z</time>
      </trkpt>
      <trkpt lat="28.6847520" lon="-17.7726980">
        <ele>198.4</ele>
        <time>2020-11-17T14:32:09Z</time>
      </trkpt>
      <trkpt lat="28.6848600" lon="-17.7726250">
        <ele>196.6</ele>
        <time>2020-11-17T14:32:10Z</time>
      </trkpt>
      <trkpt lat="28.6848600" lon="-17.7726250">
        <ele>196.6</ele>
        <time>2020-11-17T14:32:11Z</time>
      </trkpt>
      <trkpt lat="28.6849700" lon="-17.7725670">
        <ele>194.5</ele>
        <time>2020-11-17T14:32:12Z</time>
      </trkpt>
      <trkpt lat="28.6849700" lon="-17.7725670">
        <ele>194.5</ele>
        <time>2020-11-17T14:32:13Z</time>
      </trkpt>
      <trkpt lat="28.6850580" lon="-17.7724680">
        <ele>192.4</ele>
        <time>2020-11-17T14:32:14Z</time>
      </trkpt>
      <trkpt lat="28.6850580" lon="-17.7724680">
        <ele>192.4</ele>
        <time>2020-11-17T14:32:15Z</time>
      </trkpt>
      <trkpt lat="28.6851350" lon="-17.7723600">
        <ele>190.5</ele>
        <time>2020-11-17T14:32:16Z</time>
      </trkpt>
      <trkpt lat="28.6851850" lon="-17.7723200">
        <ele>189.5</ele>
        <time>2020-11-17T14:32:17Z</time>
      </trkpt>
      <trkpt lat="28.6851850" lon="-17.7723200">
        <ele>189.5</ele>
        <time>2020-11-17T14:32:18Z</time>
      </trkpt>
      <trkpt lat="28.6852900" lon="-17.7722870">
        <ele>187.9</ele>
        <time>2020-11-17T14:32:19Z</time>
      </trkpt>
      <trkpt lat="28.6852900" lon="-17.7722870">
        <ele>187.9</ele>
        <time>2020-11-17T14:32:20Z</time>
      </trkpt>
      <trkpt lat="28.6853420" lon="-17.7722480">
        <ele>187.0</ele>
        <time>2020-11-17T14:32:21Z</time>
      </trkpt>
      <trkpt lat="28.6853420" lon="-17.7722480">
        <ele>187.0</ele>
        <time>2020-11-17T14:32:22Z</time>
      </trkpt>
      <trkpt lat="28.6853070" lon="-17.7722000">
        <ele>185.8</ele>
        <time>2020-11-17T14:32:23Z</time>
      </trkpt>
      <trkpt lat="28.6852850" lon="-17.7721770">
        <ele>185.0</ele>
        <time>2020-11-17T14:32:24Z</time>
      </trkpt>
      <trkpt lat="28.6852850" lon="-17.7721770">
        <ele>185.0</ele>
        <time>2020-11-17T14:32:25Z</time>
      </trkpt>
      <trkpt lat="28.6852980" lon="-17.7720830">
        <ele>183.3</ele>
        <time>2020-11-17T14:32:26Z</time>
      </trkpt>
      <trkpt lat="28.6852980" lon="-17.7720830">
        <ele>183.3</ele>
        <time>2020-11-17T14:32:27Z</time>
      </trkpt>
      <trkpt lat="28.6853720" lon="-17.7719530">
        <ele>181.1</ele>
        <time>2020-11-17T14:32:28Z</time>
      </trkpt>
      <trkpt lat="28.6854100" lon="-17.7718920">
        <ele>180.1</ele>
        <time>2020-11-17T14:32:29Z</time>
      </trkpt>
      <trkpt lat="28.6854430" lon="-17.7718370">
        <ele>179.1</ele>
        <time>2020-11-17T14:32:30Z</time>
      </trkpt>
      <trkpt lat="28.6854430" lon="-17.7718370">
        <ele>179.1</ele>
        <time>2020-11-17T14:32:31Z</time>
      </trkpt>
      <trkpt lat="28.6855030" lon="-17.7717220">
        <ele>176.6</ele>
        <time>2020-11-17T14:32:32Z</time>
      </trkpt>
      <trkpt lat="28.6855350" lon="-17.7716700">
        <ele>175.4</ele>
        <time>2020-11-17T14:32:33Z</time>
      </trkpt>
      <trkpt lat="28.6855350" lon="-17.7716700">
        <ele>175.4</ele>
        <time>2020-11-17T14:32:34Z</time>
      </trkpt>
      <trkpt lat="28.6855970" lon="-17.7715730">
        <ele>173.2</ele>
        <time>2020-11-17T14:32:35Z</time>
      </trkpt>
      <trkpt lat="28.6856300" lon="-17.7715320">
        <ele>172.2</ele>
        <time>2020-11-17T14:32:36Z</time>
      </trkpt>
      <trkpt lat="28.6856300" lon="-17.7715320">
        <ele>172.2</ele>
        <time>2020-11-17T14:32:37Z</time>
      </trkpt>
      <trkpt lat="28.6856980" lon="-17.7714380">
        <ele>170.0</ele>
        <time>2020-11-17T14:32:38Z</time>
      </trkpt>
      <trkpt lat="28.6856980" lon="-17.7714380">
        <ele>170.0</ele>
        <time>2020-11-17T14:32:39Z</time>
      </trkpt>
      <trkpt lat="28.6857880" lon="-17.7713970">
        <ele>168.3</ele>
        <time>2020-11-17T14:32:40Z</time>
      </trkpt>
      <trkpt lat="28.6857880" lon="-17.7713970">
        <ele>168.3</ele>
        <time>2020-11-17T14:32:41Z</time>
      </trkpt>
      <trkpt lat="28.6858450" lon="-17.7713400">
        <ele>166.9</ele>
        <time>2020-11-17T14:32:42Z</time>
      </trkpt>
      <trkpt lat="28.6858520" lon="-17.7712970">
        <ele>166.2</ele>
        <time>2020-11-17T14:32:43Z</time>
      </trkpt>
      <trkpt lat="28.6858520" lon="-17.7712970">
        <ele>166.2</ele>
        <time>2020-11-17T14:32:44Z</time>
      </trkpt>
      <trkpt lat="28.6858450" lon="-17.7712070">
        <ele>164.5</ele>
        <time>2020-11-17T14:32:45Z</time>
      </trkpt>
      <trkpt lat="28.6858300" lon="-17.7711700">
        <ele>163.7</ele>
        <time>2020-11-17T14:32:46Z</time>
      </trkpt>
      <trkpt lat="28.6858300" lon="-17.7711700">
        <ele>163.7</ele>
        <time>2020-11-17T14:32:47Z</time>
      </trkpt>
      <trkpt lat="28.6858050" lon="-17.7711300">
        <ele>162.7</ele>
        <time>2020-11-17T14:32:48Z</time>
      </trkpt>
      <trkpt lat="28.6858050" lon="-17.7711300">
        <ele>162.7</ele>
        <time>2020-11-17T14:32:49Z</time>
      </trkpt>
      <trkpt lat="28.6857950" lon="-17.7711020">
        <ele>162.1</ele>
        <time>2020-11-17T14:32:50Z</time>
      </trkpt>
      <trkpt lat="28.6857950" lon="-17.7711020">
        <ele>162.1</ele>
        <time>2020-11-17T14:32:51Z</time>
      </trkpt>
      <trkpt lat="28.6857770" lon="-17.7710420">
        <ele>161.6</ele>
        <time>2020-11-17T14:32:52Z</time>
      </trkpt>
      <trkpt lat="28.6857770" lon="-17.7710420">
        <ele>161.6</ele>
        <time>2020-11-17T14:32:53Z</time>
      </trkpt>
      <trkpt lat="28.6857400" lon="-17.7709530">
        <ele>159.7</ele>
        <time>2020-11-17T14:32:54Z</time>
      </trkpt>
      <trkpt lat="28.6857400" lon="-17.7709530">
        <ele>159.7</ele>
        <time>2020-11-17T14:32:55Z</time>
      </trkpt>
      <trkpt lat="28.6856950" lon="-17.7708350">
        <ele>157.5</ele>
        <time>2020-11-17T14:32:56Z</time>
      </trkpt>
      <trkpt lat="28.6856950" lon="-17.7708350">
        <ele>157.5</ele>
        <time>2020-11-17T14:32:57Z</time>
      </trkpt>
      <trkpt lat="28.6856350" lon="-17.7706980">
        <ele>155.3</ele>
        <time>2020-11-17T14:32:58Z</time>
      </trkpt>
      <trkpt lat="28.6856350" lon="-17.7706980">
        <ele>155.3</ele>
        <time>2020-11-17T14:32:59Z</time>
      </trkpt>
      <trkpt lat="28.6855850" lon="-17.7705750">
        <ele>153.5</ele>
        <time>2020-11-17T14:33:00Z</time>
      </trkpt>
      <trkpt lat="28.6855850" lon="-17.7705750">
        <ele>153.5</ele>
        <time>2020-11-17T14:33:01Z</time>
      </trkpt>
      <trkpt lat="28.6855480" lon="-17.7704620">
        <ele>152.1</ele>
        <time>2020-11-17T14:33:02Z</time>
      </trkpt>
      <trkpt lat="28.6855300" lon="-17.7704020">
        <ele>151.3</ele>
        <time>2020-11-17T14:33:03Z</time>
      </trkpt>
      <trkpt lat="28.6855300" lon="-17.7704020">
        <ele>151.3</ele>
        <time>2020-11-17T14:33:04Z</time>
      </trkpt>
      <trkpt lat="28.6854980" lon="-17.7702920">
        <ele>150.0</ele>
        <time>2020-11-17T14:33:05Z</time>
      </trkpt>
      <trkpt lat="28.6854830" lon="-17.7702430">
        <ele>149.4</ele>
        <time>2020-11-17T14:33:06Z</time>
      </trkpt>
      <trkpt lat="28.6854830" lon="-17.7702430">
        <ele>149.4</ele>
        <time>2020-11-17T14:33:07Z</time>
      </trkpt>
      <trkpt lat="28.6854530" lon="-17.7701530">
        <ele>148.2</ele>
        <time>2020-11-17T14:33:08Z</time>
      </trkpt>
      <trkpt lat="28.6854530" lon="-17.7701530">
        <ele>148.2</ele>
        <time>2020-11-17T14:33:09Z</time>
      </trkpt>
      <trkpt lat="28.6854270" lon="-17.7700420">
        <ele>146.6</ele>
        <time>2020-11-17T14:33:10Z</time>
      </trkpt>
      <trkpt lat="28.6854270" lon="-17.7700420">
        <ele>146.6</ele>
        <time>2020-11-17T14:33:11Z</time>
      </trkpt>
      <trkpt lat="28.6853980" lon="-17.7699370">
        <ele>144.8</ele>
        <time>2020-11-17T14:33:12Z</time>
      </trkpt>
      <trkpt lat="28.6853980" lon="-17.7699370">
        <ele>144.8</ele>
        <time>2020-11-17T14:33:13Z</time>
      </trkpt>
      <trkpt lat="28.6853750" lon="-17.7698730">
        <ele>143.6</ele>
        <time>2020-11-17T14:33:14Z</time>
      </trkpt>
      <trkpt lat="28.6853750" lon="-17.7698730">
        <ele>143.6</ele>
        <time>2020-11-17T14:33:15Z</time>
      </trkpt>
      <trkpt lat="28.6853300" lon="-17.7699030">
        <ele>142.4</ele>
        <time>2020-11-17T14:33:16Z</time>
      </trkpt>
      <trkpt lat="28.6853300" lon="-17.7699030">
        <ele>142.4</ele>
        <time>2020-11-17T14:33:17Z</time>
      </trkpt>
      <trkpt lat="28.6852830" lon="-17.7699650">
        <ele>136.6</ele>
        <time>2020-11-17T14:33:18Z</time>
      </trkpt>
      <trkpt lat="28.6852830" lon="-17.7699650">
        <ele>136.6</ele>
        <time>2020-11-17T14:33:19Z</time>
      </trkpt>
      <trkpt lat="28.6852370" lon="-17.7699920">
        <ele>136.4</ele>
        <time>2020-11-17T14:33:20Z</time>
      </trkpt>
      <trkpt lat="28.6852370" lon="-17.7699920">
        <ele>136.4</ele>
        <time>2020-11-17T14:33:21Z</time>
      </trkpt>
      <trkpt lat="28.6851980" lon="-17.7699780">
        <ele>136.2</ele>
        <time>2020-11-17T14:33:22Z</time>
      </trkpt>
      <trkpt lat="28.6851980" lon="-17.7699780">
        <ele>136.2</ele>
        <time>2020-11-17T14:33:23Z</time>
      </trkpt>
      <trkpt lat="28.6852020" lon="-17.7699070">
        <ele>136.0</ele>
        <time>2020-11-17T14:33:24Z</time>
      </trkpt>
      <trkpt lat="28.6852020" lon="-17.7699070">
        <ele>136.0</ele>
        <time>2020-11-17T14:33:25Z</time>
      </trkpt>
      <trkpt lat="28.6851950" lon="-17.7698080">
        <ele>135.6</ele>
        <time>2020-11-17T14:33:26Z</time>
      </trkpt>
      <trkpt lat="28.6851950" lon="-17.7698080">
        <ele>135.6</ele>
        <time>2020-11-17T14:33:27Z</time>
      </trkpt>
      <trkpt lat="28.6852150" lon="-17.7697150">
        <ele>135.3</ele>
        <time>2020-11-17T14:33:28Z</time>
      </trkpt>
      <trkpt lat="28.6852150" lon="-17.7697150">
        <ele>135.3</ele>
        <time>2020-11-17T14:33:29Z</time>
      </trkpt>
      <trkpt lat="28.6852750" lon="-17.7696280">
        <ele>134.6</ele>
        <time>2020-11-17T14:33:30Z</time>
      </trkpt>
      <trkpt lat="28.6852750" lon="-17.7696280">
        <ele>134.6</ele>
        <time>2020-11-17T14:33:31Z</time>
      </trkpt>
      <trkpt lat="28.6853430" lon="-17.7695380">
        <ele>134.0</ele>
        <time>2020-11-17T14:33:32Z</time>
      </trkpt>
      <trkpt lat="28.6853430" lon="-17.7695380">
        <ele>134.0</ele>
        <time>2020-11-17T14:33:33Z</time>
      </trkpt>
      <trkpt lat="28.6853800" lon="-17.7694030">
        <ele>133.3</ele>
        <time>2020-11-17T14:33:34Z</time>
      </trkpt>
      <trkpt lat="28.6853800" lon="-17.7694030">
        <ele>133.3</ele>
        <time>2020-11-17T14:33:35Z</time>
      </trkpt>
      <trkpt lat="28.6853350" lon="-17.7692650">
        <ele>132.6</ele>
        <time>2020-11-17T14:33:36Z</time>
      </trkpt>
      <trkpt lat="28.6853350" lon="-17.7692650">
        <ele>132.6</ele>
        <time>2020-11-17T14:33:37Z</time>
      </trkpt>
      <trkpt lat="28.6852450" lon="-17.7692220">
        <ele>132.1</ele>
        <time>2020-11-17T14:33:38Z</time>
      </trkpt>
      <trkpt lat="28.6852020" lon="-17.7692250">
        <ele>131.8</ele>
        <time>2020-11-17T14:33:39Z</time>
      </trkpt>
      <trkpt lat="28.6852020" lon="-17.7692250">
        <ele>131.8</ele>
        <time>2020-11-17T14:33:40Z</time>
      </trkpt>
      <trkpt lat="28.6851470" lon="-17.7692000">
        <ele>131.6</ele>
        <time>2020-11-17T14:33:41Z</time>
      </trkpt>
      <trkpt lat="28.6851470" lon="-17.7692000">
        <ele>131.6</ele>
        <time>2020-11-17T14:33:42Z</time>
      </trkpt>
      <trkpt lat="28.6851220" lon="-17.7691570">
        <ele>131.3</ele>
        <time>2020-11-17T14:33:43Z</time>
      </trkpt>
      <trkpt lat="28.6851220" lon="-17.7691570">
        <ele>131.3</ele>
        <time>2020-11-17T14:33:44Z</time>
      </trkpt>
      <trkpt lat="28.6851050" lon="-17.7691280">
        <ele>131.2</ele>
        <time>2020-11-17T14:33:45Z</time>
      </trkpt>
      <trkpt lat="28.6851050" lon="-17.7691280">
        <ele>131.2</ele>
        <time>2020-11-17T14:33:46Z</time>
      </trkpt>
      <trkpt lat="28.6850970" lon="-17.7691230">
        <ele>131.1</ele>
        <time>2020-11-17T14:33:47Z</time>
      </trkpt>
      <trkpt lat="28.6850930" lon="-17.7691250">
        <ele>131.1</ele>
        <time>2020-11-17T14:33:48Z</time>
      </trkpt>
      <trkpt lat="28.6850930" lon="-17.7691250">
        <ele>131.1</ele>
        <time>2020-11-17T14:33:49Z</time>
      </trkpt>
      <trkpt lat="28.6850800" lon="-17.7691270">
        <ele>131.0</ele>
        <time>2020-11-17T14:33:50Z</time>
      </trkpt>
      <trkpt lat="28.6850800" lon="-17.7691270">
        <ele>131.0</ele>
        <time>2020-11-17T14:33:51Z</time>
      </trkpt>
      <trkpt lat="28.6850750" lon="-17.7691280">
        <ele>131.0</ele>
        <time>2020-11-17T14:33:52Z</time>
      </trkpt>
      <trkpt lat="28.6850750" lon="-17.7691280">
        <ele>131.0</ele>
        <time>2020-11-17T14:33:53Z</time>
      </trkpt>
      <trkpt lat="28.6850750" lon="-17.7691830">
        <ele>130.8</ele>
        <time>2020-11-17T14:34:06Z</time>
      </trkpt>
      <trkpt lat="28.6850750" lon="-17.7691830">
        <ele>130.8</ele>
        <time>2020-11-17T14:34:07Z</time>
      </trkpt>
      <trkpt lat="28.6850800" lon="-17.7691920">
        <ele>130.8</ele>
        <time>2020-11-17T14:34:08Z</time>
      </trkpt>
      <trkpt lat="28.6850800" lon="-17.7691920">
        <ele>130.8</ele>
        <time>2020-11-17T14:34:09Z</time>
      </trkpt>
      <trkpt lat="28.6850980" lon="-17.7692070">
        <ele>130.8</ele>
        <time>2020-11-17T14:34:10Z</time>
      </trkpt>
      <trkpt lat="28.6850980" lon="-17.7692070">
        <ele>130.8</ele>
        <time>2020-11-17T14:34:11Z</time>
      </trkpt>
      <trkpt lat="28.6851100" lon="-17.7692330">
        <ele>130.7</ele>
        <time>2020-11-17T14:34:12Z</time>
      </trkpt>
      <trkpt lat="28.6851100" lon="-17.7692330">
        <ele>130.7</ele>
        <time>2020-11-17T14:34:13Z</time>
      </trkpt>
      <trkpt lat="28.6851030" lon="-17.7692520">
        <ele>130.7</ele>
        <time>2020-11-17T14:34:14Z</time>
      </trkpt>
      <trkpt lat="28.6851030" lon="-17.7692520">
        <ele>130.7</ele>
        <time>2020-11-17T14:34:15Z</time>
      </trkpt>
      <trkpt lat="28.6851020" lon="-17.7692770">
        <ele>130.6</ele>
        <time>2020-11-17T14:34:16Z</time>
      </trkpt>
      <trkpt lat="28.6850970" lon="-17.7692950">
        <ele>130.6</ele>
        <time>2020-11-17T14:34:17Z</time>
      </trkpt>
      <trkpt lat="28.6850850" lon="-17.7693200">
        <ele>130.5</ele>
        <time>2020-11-17T14:34:18Z</time>
      </trkpt>
      <trkpt lat="28.6850850" lon="-17.7693200">
        <ele>130.5</ele>
        <time>2020-11-17T14:34:19Z</time>
      </trkpt>
      <trkpt lat="28.6850420" lon="-17.7693750">
        <ele>130.0</ele>
        <time>2020-11-17T14:34:20Z</time>
      </trkpt>
      <trkpt lat="28.6850420" lon="-17.7693750">
        <ele>130.0</ele>
        <time>2020-11-17T14:34:21Z</time>
      </trkpt>
      <trkpt lat="28.6849880" lon="-17.7693870">
        <ele>129.0</ele>
        <time>2020-11-17T14:34:22Z</time>
      </trkpt>
      <trkpt lat="28.6849650" lon="-17.7693720">
        <ele>128.5</ele>
        <time>2020-11-17T14:34:23Z</time>
      </trkpt>
      <trkpt lat="28.6849650" lon="-17.7693720">
        <ele>128.5</ele>
        <time>2020-11-17T14:34:24Z</time>
      </trkpt>
      <trkpt lat="28.6849150" lon="-17.7693250">
        <ele>127.4</ele>
        <time>2020-11-17T14:34:25Z</time>
      </trkpt>
      <trkpt lat="28.6848930" lon="-17.7693000">
        <ele>126.8</ele>
        <time>2020-11-17T14:34:26Z</time>
      </trkpt>
      <trkpt lat="28.6848930" lon="-17.7693000">
        <ele>126.8</ele>
        <time>2020-11-17T14:34:27Z</time>
      </trkpt>
      <trkpt lat="28.6848400" lon="-17.7692220">
        <ele>125.3</ele>
        <time>2020-11-17T14:34:28Z</time>
      </trkpt>
      <trkpt lat="28.6848400" lon="-17.7692220">
        <ele>125.3</ele>
        <time>2020-11-17T14:34:29Z</time>
      </trkpt>
      <trkpt lat="28.6847970" lon="-17.7691400">
        <ele>123.9</ele>
        <time>2020-11-17T14:34:30Z</time>
      </trkpt>
      <trkpt lat="28.6847700" lon="-17.7691030">
        <ele>123.2</ele>
        <time>2020-11-17T14:34:31Z</time>
      </trkpt>
      <trkpt lat="28.6847700" lon="-17.7691030">
        <ele>123.2</ele>
        <time>2020-11-17T14:34:32Z</time>
      </trkpt>
      <trkpt lat="28.6847450" lon="-17.7690300">
        <ele>122.0</ele>
        <time>2020-11-17T14:34:33Z</time>
      </trkpt>
      <trkpt lat="28.6847450" lon="-17.7690300">
        <ele>122.0</ele>
        <time>2020-11-17T14:34:34Z</time>
      </trkpt>
      <trkpt lat="28.6847120" lon="-17.7689620">
        <ele>120.9</ele>
        <time>2020-11-17T14:34:35Z</time>
      </trkpt>
      <trkpt lat="28.6846970" lon="-17.7689250">
        <ele>120.2</ele>
        <time>2020-11-17T14:34:36Z</time>
      </trkpt>
      <trkpt lat="28.6846970" lon="-17.7689250">
        <ele>120.2</ele>
        <time>2020-11-17T14:34:37Z</time>
      </trkpt>
      <trkpt lat="28.6846570" lon="-17.7688420">
        <ele>118.6</ele>
        <time>2020-11-17T14:34:38Z</time>
      </trkpt>
      <trkpt lat="28.6846570" lon="-17.7688420">
        <ele>118.6</ele>
        <time>2020-11-17T14:34:39Z</time>
      </trkpt>
      <trkpt lat="28.6846050" lon="-17.7687600">
        <ele>117.3</ele>
        <time>2020-11-17T14:34:40Z</time>
      </trkpt>
      <trkpt lat="28.6845770" lon="-17.7687200">
        <ele>116.4</ele>
        <time>2020-11-17T14:34:41Z</time>
      </trkpt>
      <trkpt lat="28.6845770" lon="-17.7687200">
        <ele>116.4</ele>
        <time>2020-11-17T14:34:42Z</time>
      </trkpt>
      <trkpt lat="28.6845100" lon="-17.7686530">
        <ele>114.6</ele>
        <time>2020-11-17T14:34:43Z</time>
      </trkpt>
      <trkpt lat="28.6844700" lon="-17.7686250">
        <ele>113.6</ele>
        <time>2020-11-17T14:34:44Z</time>
      </trkpt>
      <trkpt lat="28.6844700" lon="-17.7686250">
        <ele>113.6</ele>
        <time>2020-11-17T14:34:45Z</time>
      </trkpt>
      <trkpt lat="28.6843700" lon="-17.7685930">
        <ele>111.7</ele>
        <time>2020-11-17T14:34:46Z</time>
      </trkpt>
      <trkpt lat="28.6843700" lon="-17.7685930">
        <ele>111.7</ele>
        <time>2020-11-17T14:34:47Z</time>
      </trkpt>
      <trkpt lat="28.6842700" lon="-17.7685870">
        <ele>109.9</ele>
        <time>2020-11-17T14:34:48Z</time>
      </trkpt>
      <trkpt lat="28.6842700" lon="-17.7685870">
        <ele>109.9</ele>
        <time>2020-11-17T14:34:49Z</time>
      </trkpt>
      <trkpt lat="28.6841730" lon="-17.7686050">
        <ele>108.1</ele>
        <time>2020-11-17T14:34:50Z</time>
      </trkpt>
      <trkpt lat="28.6841730" lon="-17.7686050">
        <ele>108.1</ele>
        <time>2020-11-17T14:34:51Z</time>
      </trkpt>
      <trkpt lat="28.6841020" lon="-17.7686830">
        <ele>106.3</ele>
        <time>2020-11-17T14:34:52Z</time>
      </trkpt>
      <trkpt lat="28.6841020" lon="-17.7686830">
        <ele>106.3</ele>
        <time>2020-11-17T14:34:53Z</time>
      </trkpt>
      <trkpt lat="28.6840620" lon="-17.7687380">
        <ele>105.3</ele>
        <time>2020-11-17T14:34:54Z</time>
      </trkpt>
      <trkpt lat="28.6840620" lon="-17.7687380">
        <ele>105.3</ele>
        <time>2020-11-17T14:34:55Z</time>
      </trkpt>
      <trkpt lat="28.6840030" lon="-17.7687220">
        <ele>104.3</ele>
        <time>2020-11-17T14:34:56Z</time>
      </trkpt>
      <trkpt lat="28.6840030" lon="-17.7687220">
        <ele>104.3</ele>
        <time>2020-11-17T14:34:57Z</time>
      </trkpt>
      <trkpt lat="28.6839730" lon="-17.7686680">
        <ele>103.1</ele>
        <time>2020-11-17T14:34:58Z</time>
      </trkpt>
      <trkpt lat="28.6839580" lon="-17.7686500">
        <ele>102.8</ele>
        <time>2020-11-17T14:34:59Z</time>
      </trkpt>
      <trkpt lat="28.6839580" lon="-17.7686500">
        <ele>102.8</ele>
        <time>2020-11-17T14:35:00Z</time>
      </trkpt>
      <trkpt lat="28.6839230" lon="-17.7686020">
        <ele>102.0</ele>
        <time>2020-11-17T14:35:01Z</time>
      </trkpt>
      <trkpt lat="28.6839230" lon="-17.7686020">
        <ele>102.0</ele>
        <time>2020-11-17T14:35:02Z</time>
      </trkpt>
      <trkpt lat="28.6838870" lon="-17.7685520">
        <ele>101.1</ele>
        <time>2020-11-17T14:35:03Z</time>
      </trkpt>
      <trkpt lat="28.6838870" lon="-17.7685520">
        <ele>101.1</ele>
        <time>2020-11-17T14:35:04Z</time>
      </trkpt>
      <trkpt lat="28.6838480" lon="-17.7684980">
        <ele>100.0</ele>
        <time>2020-11-17T14:35:05Z</time>
      </trkpt>
      <trkpt lat="28.6838300" lon="-17.7684720">
        <ele>99.6</ele>
        <time>2020-11-17T14:35:06Z</time>
      </trkpt>
      <trkpt lat="28.6838300" lon="-17.7684720">
        <ele>99.6</ele>
        <time>2020-11-17T14:35:07Z</time>
      </trkpt>
      <trkpt lat="28.6838170" lon="-17.7684150">
        <ele>98.7</ele>
        <time>2020-11-17T14:35:08Z</time>
      </trkpt>
      <trkpt lat="28.6838170" lon="-17.7684150">
        <ele>98.7</ele>
        <time>2020-11-17T14:35:09Z</time>
      </trkpt>
      <trkpt lat="28.6838400" lon="-17.7683420">
        <ele>96.5</ele>
        <time>2020-11-17T14:35:10Z</time>
      </trkpt>
      <trkpt lat="28.6838400" lon="-17.7683420">
        <ele>96.5</ele>
        <time>2020-11-17T14:35:11Z</time>
      </trkpt>
      <trkpt lat="28.6838980" lon="-17.7682500">
        <ele>94.9</ele>
        <time>2020-11-17T14:35:12Z</time>
      </trkpt>
      <trkpt lat="28.6839300" lon="-17.7681980">
        <ele>94.1</ele>
        <time>2020-11-17T14:35:13Z</time>
      </trkpt>
      <trkpt lat="28.6839300" lon="-17.7681980">
        <ele>94.1</ele>
        <time>2020-11-17T14:35:14Z</time>
      </trkpt>
      <trkpt lat="28.6840000" lon="-17.7681000">
        <ele>92.5</ele>
        <time>2020-11-17T14:35:15Z</time>
      </trkpt>
      <trkpt lat="28.6840000" lon="-17.7681000">
        <ele>92.5</ele>
        <time>2020-11-17T14:35:16Z</time>
      </trkpt>
      <trkpt lat="28.6840700" lon="-17.7680180">
        <ele>91.1</ele>
        <time>2020-11-17T14:35:17Z</time>
      </trkpt>
      <trkpt lat="28.6840700" lon="-17.7680180">
        <ele>91.1</ele>
        <time>2020-11-17T14:35:18Z</time>
      </trkpt>
      <trkpt lat="28.6841300" lon="-17.7679650">
        <ele>90.2</ele>
        <time>2020-11-17T14:35:19Z</time>
      </trkpt>
      <trkpt lat="28.6841300" lon="-17.7679650">
        <ele>90.2</ele>
        <time>2020-11-17T14:35:20Z</time>
      </trkpt>
      <trkpt lat="28.6841830" lon="-17.7679300">
        <ele>89.4</ele>
        <time>2020-11-17T14:35:21Z</time>
      </trkpt>
      <trkpt lat="28.6841830" lon="-17.7679300">
        <ele>89.4</ele>
        <time>2020-11-17T14:35:22Z</time>
      </trkpt>
      <trkpt lat="28.6841700" lon="-17.7678880">
        <ele>88.9</ele>
        <time>2020-11-17T14:35:23Z</time>
      </trkpt>
      <trkpt lat="28.6841470" lon="-17.7678870">
        <ele>87.5</ele>
        <time>2020-11-17T14:35:24Z</time>
      </trkpt>
      <trkpt lat="28.6841470" lon="-17.7678870">
        <ele>87.5</ele>
        <time>2020-11-17T14:35:25Z</time>
      </trkpt>
      <trkpt lat="28.6840980" lon="-17.7678770">
        <ele>87.3</ele>
        <time>2020-11-17T14:35:26Z</time>
      </trkpt>
      <trkpt lat="28.6840980" lon="-17.7678770">
        <ele>86.9</ele>
        <time>2020-11-17T14:35:27Z</time>
      </trkpt>
      <trkpt lat="28.6841000" lon="-17.7678380">
        <ele>86.4</ele>
        <time>2020-11-17T14:35:28Z</time>
      </trkpt>
      <trkpt lat="28.6841220" lon="-17.7678300">
        <ele>86.1</ele>
        <time>2020-11-17T14:35:29Z</time>
      </trkpt>
      <trkpt lat="28.6841420" lon="-17.7678200">
        <ele>85.7</ele>
        <time>2020-11-17T14:35:30Z</time>
      </trkpt>
      <trkpt lat="28.6841420" lon="-17.7678200">
        <ele>85.7</ele>
        <time>2020-11-17T14:35:31Z</time>
      </trkpt>
      <trkpt lat="28.6841700" lon="-17.7677830">
        <ele>85.1</ele>
        <time>2020-11-17T14:35:32Z</time>
      </trkpt>
      <trkpt lat="28.6841700" lon="-17.7677830">
        <ele>85.1</ele>
        <time>2020-11-17T14:35:33Z</time>
      </trkpt>
      <trkpt lat="28.6841880" lon="-17.7677500">
        <ele>84.5</ele>
        <time>2020-11-17T14:35:34Z</time>
      </trkpt>
      <trkpt lat="28.6841880" lon="-17.7677500">
        <ele>84.5</ele>
        <time>2020-11-17T14:35:35Z</time>
      </trkpt>
      <trkpt lat="28.6842180" lon="-17.7677220">
        <ele>83.9</ele>
        <time>2020-11-17T14:35:36Z</time>
      </trkpt>
      <trkpt lat="28.6842180" lon="-17.7677220">
        <ele>83.9</ele>
        <time>2020-11-17T14:35:37Z</time>
      </trkpt>
      <trkpt lat="28.6842550" lon="-17.7676800">
        <ele>83.1</ele>
        <time>2020-11-17T14:35:38Z</time>
      </trkpt>
      <trkpt lat="28.6842550" lon="-17.7676800">
        <ele>83.1</ele>
        <time>2020-11-17T14:35:39Z</time>
      </trkpt>
      <trkpt lat="28.6842800" lon="-17.7676430">
        <ele>82.5</ele>
        <time>2020-11-17T14:35:40Z</time>
      </trkpt>
      <trkpt lat="28.6842800" lon="-17.7676430">
        <ele>82.5</ele>
        <time>2020-11-17T14:35:41Z</time>
      </trkpt>
      <trkpt lat="28.6842670" lon="-17.7676130">
        <ele>82.1</ele>
        <time>2020-11-17T14:35:42Z</time>
      </trkpt>
      <trkpt lat="28.6842670" lon="-17.7676130">
        <ele>82.1</ele>
        <time>2020-11-17T14:35:43Z</time>
      </trkpt>
      <trkpt lat="28.6842430" lon="-17.7675770">
        <ele>80.8</ele>
        <time>2020-11-17T14:35:44Z</time>
      </trkpt>
      <trkpt lat="28.6842430" lon="-17.7675770">
        <ele>80.8</ele>
        <time>2020-11-17T14:35:45Z</time>
      </trkpt>
      <trkpt lat="28.6842020" lon="-17.7675400">
        <ele>79.8</ele>
        <time>2020-11-17T14:35:46Z</time>
      </trkpt>
      <trkpt lat="28.6842020" lon="-17.7675400">
        <ele>79.8</ele>
        <time>2020-11-17T14:35:47Z</time>
      </trkpt>
      <trkpt lat="28.6841530" lon="-17.7675270">
        <ele>78.9</ele>
        <time>2020-11-17T14:35:48Z</time>
      </trkpt>
      <trkpt lat="28.6841530" lon="-17.7675270">
        <ele>78.9</ele>
        <time>2020-11-17T14:35:49Z</time>
      </trkpt>
      <trkpt lat="28.6841030" lon="-17.7675300">
        <ele>78.0</ele>
        <time>2020-11-17T14:35:50Z</time>
      </trkpt>
      <trkpt lat="28.6841030" lon="-17.7675300">
        <ele>78.0</ele>
        <time>2020-11-17T14:35:51Z</time>
      </trkpt>
      <trkpt lat="28.6840620" lon="-17.7675150">
        <ele>77.3</ele>
        <time>2020-11-17T14:35:52Z</time>
      </trkpt>
      <trkpt lat="28.6840380" lon="-17.7675170">
        <ele>76.9</ele>
        <time>2020-11-17T14:35:53Z</time>
      </trkpt>
      <trkpt lat="28.6840180" lon="-17.7675200">
        <ele>76.5</ele>
        <time>2020-11-17T14:35:54Z</time>
      </trkpt>
      <trkpt lat="28.6840180" lon="-17.7675200">
        <ele>76.5</ele>
        <time>2020-11-17T14:35:55Z</time>
      </trkpt>
      <trkpt lat="28.6839780" lon="-17.7675230">
        <ele>75.8</ele>
        <time>2020-11-17T14:35:56Z</time>
      </trkpt>
      <trkpt lat="28.6839780" lon="-17.7675230">
        <ele>75.8</ele>
        <time>2020-11-17T14:35:57Z</time>
      </trkpt>
      <trkpt lat="28.6839270" lon="-17.7674820">
        <ele>74.7</ele>
        <time>2020-11-17T14:35:58Z</time>
      </trkpt>
      <trkpt lat="28.6839050" lon="-17.7674420">
        <ele>74.0</ele>
        <time>2020-11-17T14:35:59Z</time>
      </trkpt>
      <trkpt lat="28.6839050" lon="-17.7674420">
        <ele>74.0</ele>
        <time>2020-11-17T14:36:00Z</time>
      </trkpt>
      <trkpt lat="28.6838680" lon="-17.7673620">
        <ele>69.4</ele>
        <time>2020-11-17T14:36:01Z</time>
      </trkpt>
      <trkpt lat="28.6838680" lon="-17.7673620">
        <ele>69.4</ele>
        <time>2020-11-17T14:36:02Z</time>
      </trkpt>
      <trkpt lat="28.6838480" lon="-17.7672920">
        <ele>69.0</ele>
        <time>2020-11-17T14:36:03Z</time>
      </trkpt>
      <trkpt lat="28.6838430" lon="-17.7672530">
        <ele>68.2</ele>
        <time>2020-11-17T14:36:04Z</time>
      </trkpt>
      <trkpt lat="28.6838370" lon="-17.7672080">
        <ele>67.4</ele>
        <time>2020-11-17T14:36:05Z</time>
      </trkpt>
      <trkpt lat="28.6838320" lon="-17.7671600">
        <ele>66.4</ele>
        <time>2020-11-17T14:36:06Z</time>
      </trkpt>
      <trkpt lat="28.6838320" lon="-17.7671600">
        <ele>66.4</ele>
        <time>2020-11-17T14:36:07Z</time>
      </trkpt>
      <trkpt lat="28.6838130" lon="-17.7670330">
        <ele>64.0</ele>
        <time>2020-11-17T14:36:08Z</time>
      </trkpt>
      <trkpt lat="28.6838130" lon="-17.7670330">
        <ele>64.0</ele>
        <time>2020-11-17T14:36:09Z</time>
      </trkpt>
      <trkpt lat="28.6838000" lon="-17.7668820">
        <ele>61.2</ele>
        <time>2020-11-17T14:36:10Z</time>
      </trkpt>
      <trkpt lat="28.6837980" lon="-17.7668170">
        <ele>60.1</ele>
        <time>2020-11-17T14:36:11Z</time>
      </trkpt>
      <trkpt lat="28.6837980" lon="-17.7668170">
        <ele>60.1</ele>
        <time>2020-11-17T14:36:12Z</time>
      </trkpt>
      <trkpt lat="28.6838020" lon="-17.7667100">
        <ele>58.1</ele>
        <time>2020-11-17T14:36:13Z</time>
      </trkpt>
      <trkpt lat="28.6838020" lon="-17.7667100">
        <ele>58.1</ele>
        <time>2020-11-17T14:36:14Z</time>
      </trkpt>
      <trkpt lat="28.6837730" lon="-17.7666480">
        <ele>56.9</ele>
        <time>2020-11-17T14:36:15Z</time>
      </trkpt>
      <trkpt lat="28.6837730" lon="-17.7666480">
        <ele>56.9</ele>
        <time>2020-11-17T14:36:16Z</time>
      </trkpt>
      <trkpt lat="28.6836980" lon="-17.7666370">
        <ele>54.6</ele>
        <time>2020-11-17T14:36:17Z</time>
      </trkpt>
      <trkpt lat="28.6836980" lon="-17.7666370">
        <ele>54.6</ele>
        <time>2020-11-17T14:36:18Z</time>
      </trkpt>
      <trkpt lat="28.6836200" lon="-17.7666780">
        <ele>53.9</ele>
        <time>2020-11-17T14:36:19Z</time>
      </trkpt>
      <trkpt lat="28.6835770" lon="-17.7667020">
        <ele>53.7</ele>
        <time>2020-11-17T14:36:20Z</time>
      </trkpt>
      <trkpt lat="28.6835770" lon="-17.7667020">
        <ele>53.7</ele>
        <time>2020-11-17T14:36:21Z</time>
      </trkpt>
      <trkpt lat="28.6834770" lon="-17.7667570">
        <ele>53.5</ele>
        <time>2020-11-17T14:36:22Z</time>
      </trkpt>
      <trkpt lat="28.6834770" lon="-17.7667570">
        <ele>53.5</ele>
        <time>2020-11-17T14:36:23Z</time>
      </trkpt>
      <trkpt lat="28.6834080" lon="-17.7668020">
        <ele>53.3</ele>
        <time>2020-11-17T14:36:24Z</time>
      </trkpt>
      <trkpt lat="28.6834080" lon="-17.7668020">
        <ele>53.3</ele>
        <time>2020-11-17T14:36:25Z</time>
      </trkpt>
      <trkpt lat="28.6833580" lon="-17.7668120">
        <ele>52.8</ele>
        <time>2020-11-17T14:36:26Z</time>
      </trkpt>
      <trkpt lat="28.6833580" lon="-17.7668120">
        <ele>52.8</ele>
        <time>2020-11-17T14:36:27Z</time>
      </trkpt>
      <trkpt lat="28.6833230" lon="-17.7667170">
        <ele>51.1</ele>
        <time>2020-11-17T14:36:28Z</time>
      </trkpt>
      <trkpt lat="28.6833230" lon="-17.7667170">
        <ele>51.1</ele>
        <time>2020-11-17T14:36:29Z</time>
      </trkpt>
      <trkpt lat="28.6832530" lon="-17.7666070">
        <ele>49.1</ele>
        <time>2020-11-17T14:36:30Z</time>
      </trkpt>
      <trkpt lat="28.6832530" lon="-17.7666070">
        <ele>49.1</ele>
        <time>2020-11-17T14:36:31Z</time>
      </trkpt>
      <trkpt lat="28.6831820" lon="-17.7665070">
        <ele>47.5</ele>
        <time>2020-11-17T14:36:32Z</time>
      </trkpt>
      <trkpt lat="28.6831450" lon="-17.7664650">
        <ele>46.8</ele>
        <time>2020-11-17T14:36:33Z</time>
      </trkpt>
      <trkpt lat="28.6831450" lon="-17.7664650">
        <ele>46.8</ele>
        <time>2020-11-17T14:36:34Z</time>
      </trkpt>
      <trkpt lat="28.6830900" lon="-17.7663870">
        <ele>45.4</ele>
        <time>2020-11-17T14:36:35Z</time>
      </trkpt>
      <trkpt lat="28.6830650" lon="-17.7663530">
        <ele>44.6</ele>
        <time>2020-11-17T14:36:36Z</time>
      </trkpt>
      <trkpt lat="28.6830650" lon="-17.7663530">
        <ele>44.6</ele>
        <time>2020-11-17T14:36:37Z</time>
      </trkpt>
      <trkpt lat="28.6829920" lon="-17.7662850">
        <ele>43.2</ele>
        <time>2020-11-17T14:36:38Z</time>
      </trkpt>
      <trkpt lat="28.6829920" lon="-17.7662850">
        <ele>43.2</ele>
        <time>2020-11-17T14:36:39Z</time>
      </trkpt>
      <trkpt lat="28.6829250" lon="-17.7662130">
        <ele>42.2</ele>
        <time>2020-11-17T14:36:40Z</time>
      </trkpt>
      <trkpt lat="28.6829000" lon="-17.7661800">
        <ele>41.8</ele>
        <time>2020-11-17T14:36:41Z</time>
      </trkpt>
      <trkpt lat="28.6828670" lon="-17.7661480">
        <ele>41.3</ele>
        <time>2020-11-17T14:36:42Z</time>
      </trkpt>
      <trkpt lat="28.6828670" lon="-17.7661480">
        <ele>41.3</ele>
        <time>2020-11-17T14:36:43Z</time>
      </trkpt>
      <trkpt lat="28.6828470" lon="-17.7660800">
        <ele>40.7</ele>
        <time>2020-11-17T14:36:44Z</time>
      </trkpt>
      <trkpt lat="28.6828420" lon="-17.7660570">
        <ele>40.4</ele>
        <time>2020-11-17T14:36:45Z</time>
      </trkpt>
      <trkpt lat="28.6828420" lon="-17.7660570">
        <ele>40.4</ele>
        <time>2020-11-17T14:36:46Z</time>
      </trkpt>
      <trkpt lat="28.6828730" lon="-17.7660020">
        <ele>39.5</ele>
        <time>2020-11-17T14:36:47Z</time>
      </trkpt>
      <trkpt lat="28.6828950" lon="-17.7659720">
        <ele>39.5</ele>
        <time>2020-11-17T14:36:48Z</time>
      </trkpt>
      <trkpt lat="28.6828950" lon="-17.7659720">
        <ele>39.5</ele>
        <time>2020-11-17T14:36:49Z</time>
      </trkpt>
      <trkpt lat="28.6829380" lon="-17.7659080">
        <ele>39.4</ele>
        <time>2020-11-17T14:36:50Z</time>
      </trkpt>
      <trkpt lat="28.6829380" lon="-17.7659080">
        <ele>39.4</ele>
        <time>2020-11-17T14:36:51Z</time>
      </trkpt>
      <trkpt lat="28.6829780" lon="-17.7658270">
        <ele>39.3</ele>
        <time>2020-11-17T14:36:52Z</time>
      </trkpt>
      <trkpt lat="28.6829780" lon="-17.7658270">
        <ele>39.3</ele>
        <time>2020-11-17T14:36:53Z</time>
      </trkpt>
      <trkpt lat="28.6830370" lon="-17.7657630">
        <ele>39.3</ele>
        <time>2020-11-17T14:36:54Z</time>
      </trkpt>
      <trkpt lat="28.6830370" lon="-17.7657630">
        <ele>39.3</ele>
        <time>2020-11-17T14:36:55Z</time>
      </trkpt>
      <trkpt lat="28.6831080" lon="-17.7657220">
        <ele>39.2</ele>
        <time>2020-11-17T14:36:56Z</time>
      </trkpt>
      <trkpt lat="28.6831080" lon="-17.7657220">
        <ele>39.2</ele>
        <time>2020-11-17T14:36:57Z</time>
      </trkpt>
      <trkpt lat="28.6831820" lon="-17.7656780">
        <ele>38.4</ele>
        <time>2020-11-17T14:36:58Z</time>
      </trkpt>
      <trkpt lat="28.6831820" lon="-17.7656780">
        <ele>38.4</ele>
        <time>2020-11-17T14:36:59Z</time>
      </trkpt>
      <trkpt lat="28.6832350" lon="-17.7656480">
        <ele>36.9</ele>
        <time>2020-11-17T14:37:00Z</time>
      </trkpt>
      <trkpt lat="28.6832470" lon="-17.7656280">
        <ele>36.4</ele>
        <time>2020-11-17T14:37:01Z</time>
      </trkpt>
      <trkpt lat="28.6832470" lon="-17.7656280">
        <ele>36.4</ele>
        <time>2020-11-17T14:37:02Z</time>
      </trkpt>
      <trkpt lat="28.6832780" lon="-17.7655800">
        <ele>35.2</ele>
        <time>2020-11-17T14:37:03Z</time>
      </trkpt>
      <trkpt lat="28.6832780" lon="-17.7655800">
        <ele>35.2</ele>
        <time>2020-11-17T14:37:04Z</time>
      </trkpt>
      <trkpt lat="28.6832930" lon="-17.7655380">
        <ele>33.5</ele>
        <time>2020-11-17T14:37:05Z</time>
      </trkpt>
      <trkpt lat="28.6832870" lon="-17.7655030">
        <ele>33.2</ele>
        <time>2020-11-17T14:37:06Z</time>
      </trkpt>
      <trkpt lat="28.6832870" lon="-17.7655030">
        <ele>33.2</ele>
        <time>2020-11-17T14:37:07Z</time>
      </trkpt>
      <trkpt lat="28.6832550" lon="-17.7654080">
        <ele>32.1</ele>
        <time>2020-11-17T14:37:08Z</time>
      </trkpt>
      <trkpt lat="28.6832370" lon="-17.7653580">
        <ele>31.5</ele>
        <time>2020-11-17T14:37:09Z</time>
      </trkpt>
      <trkpt lat="28.6832370" lon="-17.7653580">
        <ele>31.5</ele>
        <time>2020-11-17T14:37:10Z</time>
      </trkpt>
      <trkpt lat="28.6832050" lon="-17.7652680">
        <ele>28.6</ele>
        <time>2020-11-17T14:37:11Z</time>
      </trkpt>
      <trkpt lat="28.6832070" lon="-17.7652330">
        <ele>28.8</ele>
        <time>2020-11-17T14:37:12Z</time>
      </trkpt>
      <trkpt lat="28.6832070" lon="-17.7652330">
        <ele>28.8</ele>
        <time>2020-11-17T14:37:13Z</time>
      </trkpt>
      <trkpt lat="28.6832280" lon="-17.7651880">
        <ele>29.1</ele>
        <time>2020-11-17T14:37:14Z</time>
      </trkpt>
      <trkpt lat="28.6832280" lon="-17.7651880">
        <ele>29.1</ele>
        <time>2020-11-17T14:37:15Z</time>
      </trkpt>
      <trkpt lat="28.6832880" lon="-17.7651920">
        <ele>29.5</ele>
        <time>2020-11-17T14:37:16Z</time>
      </trkpt>
      <trkpt lat="28.6833330" lon="-17.7652000">
        <ele>29.9</ele>
        <time>2020-11-17T14:37:17Z</time>
      </trkpt>
      <trkpt lat="28.6833870" lon="-17.7652000">
        <ele>30.4</ele>
        <time>2020-11-17T14:37:18Z</time>
      </trkpt>
      <trkpt lat="28.6833870" lon="-17.7652000">
        <ele>30.4</ele>
        <time>2020-11-17T14:37:19Z</time>
      </trkpt>
      <trkpt lat="28.6833870" lon="-17.7652000">
        <ele>30.4</ele>
        <time>2020-11-17T14:37:20Z</time>
      </trkpt>
      <trkpt lat="28.6835370" lon="-17.7651930">
        <ele>31.8</ele>
        <time>2020-11-17T14:37:21Z</time>
      </trkpt>
      <trkpt lat="28.6835370" lon="-17.7651930">
        <ele>31.8</ele>
        <time>2020-11-17T14:37:22Z</time>
      </trkpt>
      <trkpt lat="28.6836370" lon="-17.7652100">
        <ele>32.6</ele>
        <time>2020-11-17T14:37:23Z</time>
      </trkpt>
      <trkpt lat="28.6836680" lon="-17.7652170">
        <ele>32.8</ele>
        <time>2020-11-17T14:37:24Z</time>
      </trkpt>
      <trkpt lat="28.6836680" lon="-17.7652170">
        <ele>32.8</ele>
        <time>2020-11-17T14:37:25Z</time>
      </trkpt>
      <trkpt lat="28.6837070" lon="-17.7651770">
        <ele>33.1</ele>
        <time>2020-11-17T14:37:26Z</time>
      </trkpt>
      <trkpt lat="28.6837070" lon="-17.7651770">
        <ele>33.1</ele>
        <time>2020-11-17T14:37:27Z</time>
      </trkpt>
      <trkpt lat="28.6837270" lon="-17.7650980">
        <ele>32.6</ele>
        <time>2020-11-17T14:37:28Z</time>
      </trkpt>
      <trkpt lat="28.6837270" lon="-17.7650980">
        <ele>32.6</ele>
        <time>2020-11-17T14:37:29Z</time>
      </trkpt>
      <trkpt lat="28.6837570" lon="-17.7650120">
        <ele>31.5</ele>
        <time>2020-11-17T14:37:30Z</time>
      </trkpt>
      <trkpt lat="28.6837570" lon="-17.7650120">
        <ele>31.5</ele>
        <time>2020-11-17T14:37:31Z</time>
      </trkpt>
      <trkpt lat="28.6838630" lon="-17.7648620">
        <ele>29.2</ele>
        <time>2020-11-17T14:37:32Z</time>
      </trkpt>
      <trkpt lat="28.6838630" lon="-17.7648620">
        <ele>29.2</ele>
        <time>2020-11-17T14:37:33Z</time>
      </trkpt>
      <trkpt lat="28.6838930" lon="-17.7648050">
        <ele>28.8</ele>
        <time>2020-11-17T14:37:34Z</time>
      </trkpt>
      <trkpt lat="28.6838800" lon="-17.7647950">
        <ele>28.7</ele>
        <time>2020-11-17T14:37:35Z</time>
      </trkpt>
      <trkpt lat="28.6838800" lon="-17.7647950">
        <ele>28.7</ele>
        <time>2020-11-17T14:37:36Z</time>
      </trkpt>
      <trkpt lat="28.6838780" lon="-17.7647380">
        <ele>28.4</ele>
        <time>2020-11-17T14:37:37Z</time>
      </trkpt>
      <trkpt lat="28.6838780" lon="-17.7647380">
        <ele>28.4</ele>
        <time>2020-11-17T14:37:38Z</time>
      </trkpt>
      <trkpt lat="28.6839020" lon="-17.7646820">
        <ele>28.0</ele>
        <time>2020-11-17T14:37:39Z</time>
      </trkpt>
      <trkpt lat="28.6839020" lon="-17.7646820">
        <ele>28.0</ele>
        <time>2020-11-17T14:37:40Z</time>
      </trkpt>
      <trkpt lat="28.6839070" lon="-17.7645980">
        <ele>27.6</ele>
        <time>2020-11-17T14:37:41Z</time>
      </trkpt>
      <trkpt lat="28.6839070" lon="-17.7645980">
        <ele>27.6</ele>
        <time>2020-11-17T14:37:42Z</time>
      </trkpt>
      <trkpt lat="28.6839030" lon="-17.7645200">
        <ele>27.1</ele>
        <time>2020-11-17T14:37:43Z</time>
      </trkpt>
      <trkpt lat="28.6838970" lon="-17.7645180">
        <ele>27.1</ele>
        <time>2020-11-17T14:37:44Z</time>
      </trkpt>
      <trkpt lat="28.6838850" lon="-17.7645180">
        <ele>27.0</ele>
        <time>2020-11-17T14:37:45Z</time>
      </trkpt>
      <trkpt lat="28.6838850" lon="-17.7645180">
        <ele>27.0</ele>
        <time>2020-11-17T14:37:46Z</time>
      </trkpt>
      <trkpt lat="28.6837330" lon="-17.7646130">
        <ele>25.8</ele>
        <time>2020-11-17T14:37:47Z</time>
      </trkpt>
      <trkpt lat="28.6837020" lon="-17.7646300">
        <ele>25.5</ele>
        <time>2020-11-17T14:37:48Z</time>
      </trkpt>
      <trkpt lat="28.6837020" lon="-17.7646300">
        <ele>25.5</ele>
        <time>2020-11-17T14:37:49Z</time>
      </trkpt>
      <trkpt lat="28.6836470" lon="-17.7647000">
        <ele>25.0</ele>
        <time>2020-11-17T14:37:50Z</time>
      </trkpt>
      <trkpt lat="28.6836220" lon="-17.7647220">
        <ele>24.7</ele>
        <time>2020-11-17T14:37:51Z</time>
      </trkpt>
      <trkpt lat="28.6836220" lon="-17.7647220">
        <ele>24.7</ele>
        <time>2020-11-17T14:37:52Z</time>
      </trkpt>
      <trkpt lat="28.6835620" lon="-17.7647270">
        <ele>24.3</ele>
        <time>2020-11-17T14:37:53Z</time>
      </trkpt>
      <trkpt lat="28.6835200" lon="-17.7647370">
        <ele>24.0</ele>
        <time>2020-11-17T14:37:54Z</time>
      </trkpt>
      <trkpt lat="28.6835200" lon="-17.7647370">
        <ele>24.0</ele>
        <time>2020-11-17T14:37:55Z</time>
      </trkpt>
      <trkpt lat="28.6834820" lon="-17.7647380">
        <ele>23.8</ele>
        <time>2020-11-17T14:37:56Z</time>
      </trkpt>
      <trkpt lat="28.6834820" lon="-17.7647380">
        <ele>23.8</ele>
        <time>2020-11-17T14:37:57Z</time>
      </trkpt>
      <trkpt lat="28.6834750" lon="-17.7647750">
        <ele>23.5</ele>
        <time>2020-11-17T14:37:58Z</time>
      </trkpt>
      <trkpt lat="28.6834750" lon="-17.7647750">
        <ele>23.5</ele>
        <time>2020-11-17T14:37:59Z</time>
      </trkpt>
      <trkpt lat="28.6834780" lon="-17.7647970">
        <ele>23.4</ele>
        <time>2020-11-17T14:38:00Z</time>
      </trkpt>
      <trkpt lat="28.6834780" lon="-17.7647970">
        <ele>23.4</ele>
        <time>2020-11-17T14:38:01Z</time>
      </trkpt>
      <trkpt lat="28.6834750" lon="-17.7648050">
        <ele>23.4</ele>
        <time>2020-11-17T14:38:02Z</time>
      </trkpt>
    </trkseg>
  </trk>
</gpx>
